<?xml version='1.0' encoding='UTF-8'?><gpx version="1.1" creator="JPX - https://github.com/jenetics/jpx" xmlns="http://www.topografix.com/GPX/1/1"><trk><trkseg><trkpt lat="44.04208376883545" lon="6.071808527846036"><ele>465.0</ele><time>2026-04-21T05:29:49Z</time></trkpt><trkpt lat="44.04214313125963" lon="6.071751488022567"><ele>465.0</ele><time>2026-04-21T05:29:52Z</time></trkpt><trkpt lat="44.04207975484258" lon="6.071675838179393"><ele>465.0</ele><time>2026-04-21T05:29:55Z</time></trkpt><trkpt lat="44.04200051735732" lon="6.071649525685765"><ele>465.0</ele><time>2026-04-21T05:29:57Z</time></trkpt><trkpt lat="44.041932849040734" lon="6.071637568628906"><ele>465.0</ele><time>2026-04-21T05:29:59Z</time></trkpt><trkpt lat="44.04187138061242" lon="6.071597460609081"><ele>465.0</ele><time>2026-04-21T05:30:02Z</time></trkpt><trkpt lat="44.041844464779246" lon="6.071499115412534"><ele>465.0</ele><time>2026-04-21T05:30:04Z</time></trkpt><trkpt lat="44.04186792537652" lon="6.071379548850625"><ele>464.3333333333333</ele><time>2026-04-21T05:30:06Z</time></trkpt><trkpt lat="44.04190613319706" lon="6.071300098653062"><ele>463.66666666666663</ele><time>2026-04-21T05:30:07Z</time></trkpt><trkpt lat="44.041977911746365" lon="6.071150615035413"><ele>463.0</ele><time>2026-04-21T05:30:09Z</time></trkpt><trkpt lat="44.042016276855115" lon="6.071065723504935"><ele>462.3333333333333</ele><time>2026-04-21T05:30:10Z</time></trkpt><trkpt lat="44.042053014020134" lon="6.070989957695243"><ele>461.66666666666663</ele><time>2026-04-21T05:30:11Z</time></trkpt><trkpt lat="44.04209062660665" lon="6.0709178505520836"><ele>461.0</ele><time>2026-04-21T05:30:12Z</time></trkpt><trkpt lat="44.04214001624519" lon="6.07086084129843"><ele>460.49999999999994</ele><time>2026-04-21T05:30:13Z</time></trkpt><trkpt lat="44.0421776899172" lon="6.0707279859134635"><ele>460.0</ele><time>2026-04-21T05:30:15Z</time></trkpt><trkpt lat="44.042181308191346" lon="6.070622245122136"><ele>459.5</ele><time>2026-04-21T05:30:17Z</time></trkpt><trkpt lat="44.04211761922227" lon="6.070538094572014"><ele>459.0</ele><time>2026-04-21T05:30:19Z</time></trkpt><trkpt lat="44.0420592209293" lon="6.070499493399768"><ele>458.49999999999994</ele><time>2026-04-21T05:30:20Z</time></trkpt><trkpt lat="44.041990985655566" lon="6.070457197173237"><ele>458.0</ele><time>2026-04-21T05:30:21Z</time></trkpt><trkpt lat="44.04192410077949" lon="6.070411512522057"><ele>457.99999999999994</ele><time>2026-04-21T05:30:22Z</time></trkpt><trkpt lat="44.041861412052505" lon="6.070344351292722"><ele>458.0</ele><time>2026-04-21T05:30:23Z</time></trkpt><trkpt lat="44.041794032954115" lon="6.070322763434553"><ele>458.0</ele><time>2026-04-21T05:30:24Z</time></trkpt><trkpt lat="44.04173369598946" lon="6.070273269241705"><ele>458.0</ele><time>2026-04-21T05:30:25Z</time></trkpt><trkpt lat="44.041668174583144" lon="6.070232907982512"><ele>457.99999999999994</ele><time>2026-04-21T05:30:26Z</time></trkpt><trkpt lat="44.04160745908683" lon="6.070187474103871"><ele>458.0</ele><time>2026-04-21T05:30:27Z</time></trkpt><trkpt lat="44.04151968498405" lon="6.0701198401061225"><ele>456.79999999999995</ele><time>2026-04-21T05:30:29Z</time></trkpt><trkpt lat="44.04146474867902" lon="6.07005883026924"><ele>455.59999999999997</ele><time>2026-04-21T05:31:18.001Z</time></trkpt><trkpt lat="44.041339241930366" lon="6.070196365358318"><ele>454.40000000000003</ele><time>2026-04-21T05:31:21.001Z</time></trkpt><trkpt lat="44.04129824802302" lon="6.070305644182213"><ele>453.20000000000005</ele><time>2026-04-21T05:31:22.001Z</time></trkpt><trkpt lat="44.04125831389996" lon="6.070432568501282"><ele>452.0</ele><time>2026-04-21T05:31:23.001Z</time></trkpt><trkpt lat="44.04121122123418" lon="6.070582438286712"><ele>452.0</ele><time>2026-04-21T05:31:24.001Z</time></trkpt><trkpt lat="44.04115082972073" lon="6.070744946698826"><ele>452.0</ele><time>2026-04-21T05:31:25.001Z</time></trkpt><trkpt lat="44.041080587040184" lon="6.070922463174122"><ele>452.0</ele><time>2026-04-21T05:31:26.001Z</time></trkpt><trkpt lat="44.04101086551616" lon="6.071105795034226"><ele>452.0</ele><time>2026-04-21T05:31:27.001Z</time></trkpt><trkpt lat="44.04093801810249" lon="6.071306076470183"><ele>452.3333333333333</ele><time>2026-04-21T05:31:28.001Z</time></trkpt><trkpt lat="44.040860807704064" lon="6.071513570259869"><ele>452.66666666666663</ele><time>2026-04-21T05:31:29.001Z</time></trkpt><trkpt lat="44.04077841125079" lon="6.071730881779915"><ele>453.0</ele><time>2026-04-21T05:31:30.001Z</time></trkpt><trkpt lat="44.04069987726989" lon="6.071951063950187"><ele>453.0</ele><time>2026-04-21T05:31:31.001Z</time></trkpt><trkpt lat="44.04062739672668" lon="6.072171215378015"><ele>453.0</ele><time>2026-04-21T05:31:32.001Z</time></trkpt><trkpt lat="44.040559119299424" lon="6.072394234449581"><ele>453.0</ele><time>2026-04-21T05:31:33.001Z</time></trkpt><trkpt lat="44.04050213080121" lon="6.0726290805744965"><ele>453.33333333333337</ele><time>2026-04-21T05:31:34.001Z</time></trkpt><trkpt lat="44.04045138628878" lon="6.072867543421366"><ele>453.6666666666667</ele><time>2026-04-21T05:31:35.001Z</time></trkpt><trkpt lat="44.04040543976165" lon="6.073111067333313"><ele>454.0</ele><time>2026-04-21T05:31:36.001Z</time></trkpt><trkpt lat="44.04036621995832" lon="6.073354926767797"><ele>455.33333333333337</ele><time>2026-04-21T05:31:37.001Z</time></trkpt><trkpt lat="44.040322519361155" lon="6.0735989064600995"><ele>456.66666666666663</ele><time>2026-04-21T05:31:38.001Z</time></trkpt><trkpt lat="44.0402764654568" lon="6.073837603219662"><ele>458.0</ele><time>2026-04-21T05:31:39.001Z</time></trkpt><trkpt lat="44.0402227910782" lon="6.074070133522927"><ele>459.3333333333333</ele><time>2026-04-21T05:31:40.001Z</time></trkpt><trkpt lat="44.040151447808356" lon="6.074298411625354"><ele>460.66666666666663</ele><time>2026-04-21T05:31:41.001Z</time></trkpt><trkpt lat="44.04006670159723" lon="6.07452445582521"><ele>462.0</ele><time>2026-04-21T05:31:42.001Z</time></trkpt><trkpt lat="44.03997687976391" lon="6.074741711450566"><ele>461.33333333333337</ele><time>2026-04-21T05:31:43.001Z</time></trkpt><trkpt lat="44.03989075397794" lon="6.0749610166167365"><ele>460.6666666666667</ele><time>2026-04-21T05:31:44.001Z</time></trkpt><trkpt lat="44.039807829137956" lon="6.0751904366889"><ele>460.0</ele><time>2026-04-21T05:31:45.001Z</time></trkpt><trkpt lat="44.039719862339005" lon="6.075422347712181"><ele>460.0</ele><time>2026-04-21T05:31:46.001Z</time></trkpt><trkpt lat="44.03962736662682" lon="6.075654845472831"><ele>460.0</ele><time>2026-04-21T05:31:47.001Z</time></trkpt><trkpt lat="44.039528399857474" lon="6.075886203704005"><ele>460.0</ele><time>2026-04-21T05:31:48.001Z</time></trkpt><trkpt lat="44.039422538719386" lon="6.076113601633581"><ele>460.33333333333337</ele><time>2026-04-21T05:31:49.001Z</time></trkpt><trkpt lat="44.03930723293251" lon="6.076334624535537"><ele>460.66666666666663</ele><time>2026-04-21T05:31:50.001Z</time></trkpt><trkpt lat="44.039181407315766" lon="6.076551072338161"><ele>461.0</ele><time>2026-04-21T05:31:51.001Z</time></trkpt><trkpt lat="44.03905469188683" lon="6.076767911310029"><ele>461.0</ele><time>2026-04-21T05:31:52.001Z</time></trkpt><trkpt lat="44.03892991053489" lon="6.076987901191688"><ele>461.0</ele><time>2026-04-21T05:31:53.001Z</time></trkpt><trkpt lat="44.038804893160034" lon="6.077208897286848"><ele>461.0</ele><time>2026-04-21T05:31:54.001Z</time></trkpt><trkpt lat="44.03867887857594" lon="6.077429627552518"><ele>461.66666666666663</ele><time>2026-04-21T05:31:55.001Z</time></trkpt><trkpt lat="44.038551406479094" lon="6.077651863608132"><ele>462.33333333333337</ele><time>2026-04-21T05:31:56.001Z</time></trkpt><trkpt lat="44.03842762600273" lon="6.077876718737981"><ele>463.0</ele><time>2026-04-21T05:31:57.001Z</time></trkpt><trkpt lat="44.03830631735381" lon="6.07810347216884"><ele>462.6666666666667</ele><time>2026-04-21T05:31:58.001Z</time></trkpt><trkpt lat="44.03818712619661" lon="6.078331560589029"><ele>462.33333333333337</ele><time>2026-04-21T05:31:59.001Z</time></trkpt><trkpt lat="44.03806866160803" lon="6.07855719559095"><ele>462.0</ele><time>2026-04-21T05:32:00.001Z</time></trkpt><trkpt lat="44.037953373063075" lon="6.078779093384685"><ele>462.0</ele><time>2026-04-21T05:32:01.001Z</time></trkpt><trkpt lat="44.037836969455206" lon="6.07899773936768"><ele>462.0</ele><time>2026-04-21T05:32:02.001Z</time></trkpt><trkpt lat="44.03772179641082" lon="6.079213026359015"><ele>462.0</ele><time>2026-04-21T05:32:03.001Z</time></trkpt><trkpt lat="44.03760954315446" lon="6.079431074207013"><ele>463.33333333333337</ele><time>2026-04-21T05:32:04.001Z</time></trkpt><trkpt lat="44.03749796060325" lon="6.079652834358548"><ele>464.6666666666667</ele><time>2026-04-21T05:32:05.001Z</time></trkpt><trkpt lat="44.03738579198461" lon="6.0798770517678555"><ele>466.0</ele><time>2026-04-21T05:32:06.001Z</time></trkpt><trkpt lat="44.037272321077836" lon="6.080099021836215"><ele>467.0</ele><time>2026-04-21T05:32:07.001Z</time></trkpt><trkpt lat="44.037160735189104" lon="6.080320486331686"><ele>468.0</ele><time>2026-04-21T05:32:08.001Z</time></trkpt><trkpt lat="44.037048594806606" lon="6.08054163149619"><ele>469.0</ele><time>2026-04-21T05:32:09.001Z</time></trkpt><trkpt lat="44.036933674875584" lon="6.080758822966383"><ele>470.0</ele><time>2026-04-21T05:32:10.001Z</time></trkpt><trkpt lat="44.0368273954347" lon="6.0809696339583"><ele>471.0</ele><time>2026-04-21T05:32:11.001Z</time></trkpt><trkpt lat="44.03672129301121" lon="6.081174206301193"><ele>472.0</ele><time>2026-04-21T05:32:12.001Z</time></trkpt><trkpt lat="44.03661413326165" lon="6.081377537097947"><ele>470.0</ele><time>2026-04-21T05:32:13.001Z</time></trkpt><trkpt lat="44.03650707992897" lon="6.081588857163235"><ele>468.0</ele><time>2026-04-21T05:32:14.001Z</time></trkpt><trkpt lat="44.03640531448233" lon="6.08180702234346"><ele>466.0</ele><time>2026-04-21T05:32:15.001Z</time></trkpt><trkpt lat="44.03630061956746" lon="6.08202898998664"><ele>466.0</ele><time>2026-04-21T05:32:16.001Z</time></trkpt><trkpt lat="44.036198005956905" lon="6.082256130211116"><ele>466.0</ele><time>2026-04-21T05:32:17.001Z</time></trkpt><trkpt lat="44.03609739617484" lon="6.082486253356674"><ele>466.0</ele><time>2026-04-21T05:32:18.001Z</time></trkpt><trkpt lat="44.03599618992364" lon="6.0827187826961655"><ele>466.33333333333337</ele><time>2026-04-21T05:32:19.001Z</time></trkpt><trkpt lat="44.03589368472834" lon="6.082954784850386"><ele>466.66666666666663</ele><time>2026-04-21T05:32:20.001Z</time></trkpt><trkpt lat="44.03579334893821" lon="6.083189484392187"><ele>467.0</ele><time>2026-04-21T05:32:21.001Z</time></trkpt><trkpt lat="44.03569328832914" lon="6.08342340030208"><ele>467.3333333333333</ele><time>2026-04-21T05:32:22.001Z</time></trkpt><trkpt lat="44.03559635937732" lon="6.083656090861986"><ele>467.66666666666663</ele><time>2026-04-21T05:32:23.001Z</time></trkpt><trkpt lat="44.0355007758347" lon="6.0838896405833145"><ele>468.0</ele><time>2026-04-21T05:32:24.001Z</time></trkpt><trkpt lat="44.03540812776623" lon="6.084120114911659"><ele>469.0</ele><time>2026-04-21T05:32:25.001Z</time></trkpt><trkpt lat="44.03531120157324" lon="6.08435910129624"><ele>470.0</ele><time>2026-04-21T05:32:26.001Z</time></trkpt><trkpt lat="44.0352148689974" lon="6.084594780395749"><ele>471.0</ele><time>2026-04-21T05:32:27.001Z</time></trkpt><trkpt lat="44.03511216386969" lon="6.084823997533535"><ele>471.33333333333337</ele><time>2026-04-21T05:32:28.001Z</time></trkpt><trkpt lat="44.03501071443857" lon="6.085048049574765"><ele>471.6666666666667</ele><time>2026-04-21T05:32:29.001Z</time></trkpt><trkpt lat="44.034914950563305" lon="6.085257436137342"><ele>472.0</ele><time>2026-04-21T05:32:30.001Z</time></trkpt><trkpt lat="44.03482562906737" lon="6.085464650412064"><ele>472.0</ele><time>2026-04-21T05:32:31.001Z</time></trkpt><trkpt lat="44.034741234829355" lon="6.085679234138868"><ele>472.0</ele><time>2026-04-21T05:32:32.001Z</time></trkpt><trkpt lat="44.03466287701129" lon="6.08590220628729"><ele>472.0</ele><time>2026-04-21T05:32:33.001Z</time></trkpt><trkpt lat="44.03459323835831" lon="6.086132417992139"><ele>473.6666666666667</ele><time>2026-04-21T05:32:34.001Z</time></trkpt><trkpt lat="44.034527469826386" lon="6.086363710371644"><ele>475.33333333333337</ele><time>2026-04-21T05:32:35.001Z</time></trkpt><trkpt lat="44.034466237762025" lon="6.086599816642303"><ele>477.0</ele><time>2026-04-21T05:32:36.001Z</time></trkpt><trkpt lat="44.03440493211168" lon="6.086832719856256"><ele>478.0</ele><time>2026-04-21T05:32:37.001Z</time></trkpt><trkpt lat="44.034341913810835" lon="6.087070798370331"><ele>479.0</ele><time>2026-04-21T05:32:38.001Z</time></trkpt><trkpt lat="44.03427624962073" lon="6.087308381220919"><ele>480.0</ele><time>2026-04-21T05:32:39.001Z</time></trkpt><trkpt lat="44.034210634974286" lon="6.087547792937122"><ele>480.33333333333337</ele><time>2026-04-21T05:32:40.001Z</time></trkpt><trkpt lat="44.034143113757146" lon="6.087788665430793"><ele>480.6666666666667</ele><time>2026-04-21T05:32:41.001Z</time></trkpt><trkpt lat="44.03407159644938" lon="6.08803110712989"><ele>481.0</ele><time>2026-04-21T05:32:42.001Z</time></trkpt><trkpt lat="44.03399402359219" lon="6.08827543914717"><ele>479.6666666666667</ele><time>2026-04-21T05:32:43.001Z</time></trkpt><trkpt lat="44.03391522049321" lon="6.088520457796775"><ele>478.33333333333337</ele><time>2026-04-21T05:32:44.001Z</time></trkpt><trkpt lat="44.033835420523346" lon="6.088772323360213"><ele>477.0</ele><time>2026-04-21T05:32:45.001Z</time></trkpt><trkpt lat="44.03375540743235" lon="6.089023560220213"><ele>477.33333333333337</ele><time>2026-04-21T05:32:46.001Z</time></trkpt><trkpt lat="44.03367471713101" lon="6.089275982629265"><ele>477.6666666666667</ele><time>2026-04-21T05:32:47.001Z</time></trkpt><trkpt lat="44.03359515071324" lon="6.089527872865957"><ele>478.0</ele><time>2026-04-21T05:32:48.001Z</time></trkpt><trkpt lat="44.0335184607738" lon="6.089778827925341"><ele>479.0</ele><time>2026-04-21T05:32:49.001Z</time></trkpt><trkpt lat="44.0334449973499" lon="6.090029876764567"><ele>480.0</ele><time>2026-04-21T05:32:50.001Z</time></trkpt><trkpt lat="44.03337427273541" lon="6.090283072084703"><ele>481.0</ele><time>2026-04-21T05:32:51.001Z</time></trkpt><trkpt lat="44.03330820915195" lon="6.0905400857518375"><ele>479.6666666666667</ele><time>2026-04-21T05:32:52.001Z</time></trkpt><trkpt lat="44.03325094984186" lon="6.090796357793298"><ele>478.33333333333337</ele><time>2026-04-21T05:32:53.001Z</time></trkpt><trkpt lat="44.033200997255854" lon="6.0910477934997855"><ele>477.0</ele><time>2026-04-21T05:32:54.001Z</time></trkpt><trkpt lat="44.03315324948697" lon="6.091298464787086"><ele>477.0</ele><time>2026-04-21T05:32:55.001Z</time></trkpt><trkpt lat="44.03311061438121" lon="6.091549062934919"><ele>477.0</ele><time>2026-04-21T05:32:56.001Z</time></trkpt><trkpt lat="44.0330674831453" lon="6.0917951909763595"><ele>477.0</ele><time>2026-04-21T05:32:57.001Z</time></trkpt><trkpt lat="44.03303287565681" lon="6.092009906251654"><ele>477.6666666666667</ele><time>2026-04-21T05:32:58.001Z</time></trkpt><trkpt lat="44.03300428141045" lon="6.092180163601746"><ele>478.33333333333337</ele><time>2026-04-21T05:32:59.001Z</time></trkpt><trkpt lat="44.03297674094796" lon="6.092316430537076"><ele>479.0</ele><time>2026-04-21T05:33:00.001Z</time></trkpt><trkpt lat="44.032958092473116" lon="6.092428286979047"><ele>479.6666666666667</ele><time>2026-04-21T05:33:01.001Z</time></trkpt><trkpt lat="44.032944719712816" lon="6.092520855967521"><ele>480.33333333333337</ele><time>2026-04-21T05:33:02.001Z</time></trkpt><trkpt lat="44.03293027089954" lon="6.092606360205122"><ele>481.0</ele><time>2026-04-21T05:34:13.001Z</time></trkpt><trkpt lat="44.03291847283702" lon="6.0927148664017965"><ele>481.6</ele><time>2026-04-21T05:34:27.001Z</time></trkpt><trkpt lat="44.03291243817065" lon="6.092837828015458"><ele>482.20000000000005</ele><time>2026-04-21T05:34:28.001Z</time></trkpt><trkpt lat="44.03290981277481" lon="6.092970283708949"><ele>482.79999999999995</ele><time>2026-04-21T05:34:29.001Z</time></trkpt><trkpt lat="44.032914028415036" lon="6.0931363986206755"><ele>483.4</ele><time>2026-04-21T05:34:30.001Z</time></trkpt><trkpt lat="44.0329201641111" lon="6.093322064271073"><ele>484.0</ele><time>2026-04-21T05:34:31.001Z</time></trkpt><trkpt lat="44.03293323151367" lon="6.093519817636141"><ele>484.33333333333337</ele><time>2026-04-21T05:34:32.001Z</time></trkpt><trkpt lat="44.03295329743912" lon="6.093734812040292"><ele>484.66666666666663</ele><time>2026-04-21T05:34:33.001Z</time></trkpt><trkpt lat="44.03298618242354" lon="6.093960957662534"><ele>485.0</ele><time>2026-04-21T05:34:34.001Z</time></trkpt><trkpt lat="44.033025720579175" lon="6.0941897265024645"><ele>485.0</ele><time>2026-04-21T05:34:35.001Z</time></trkpt><trkpt lat="44.033071502514034" lon="6.094427590420072"><ele>485.0</ele><time>2026-04-21T05:34:36.001Z</time></trkpt><trkpt lat="44.033116550522074" lon="6.094671338898096"><ele>485.0</ele><time>2026-04-21T05:34:37.001Z</time></trkpt><trkpt lat="44.033159899571025" lon="6.094921734928643"><ele>484.3333333333333</ele><time>2026-04-21T05:34:38.001Z</time></trkpt><trkpt lat="44.0332056884015" lon="6.095174248988948"><ele>483.66666666666663</ele><time>2026-04-21T05:34:39.001Z</time></trkpt><trkpt lat="44.033251087097995" lon="6.095425114462973"><ele>483.0</ele><time>2026-04-21T05:34:40.001Z</time></trkpt><trkpt lat="44.03329820777429" lon="6.095673500824346"><ele>483.66666666666663</ele><time>2026-04-21T05:34:41.001Z</time></trkpt><trkpt lat="44.033346857232345" lon="6.095932059958846"><ele>484.3333333333333</ele><time>2026-04-21T05:34:42.001Z</time></trkpt><trkpt lat="44.03339783546937" lon="6.096199139106234"><ele>485.0</ele><time>2026-04-21T05:34:43.001Z</time></trkpt><trkpt lat="44.033450261416505" lon="6.0964722711215575"><ele>484.66666666666663</ele><time>2026-04-21T05:34:44.001Z</time></trkpt><trkpt lat="44.03349852586034" lon="6.096744051780019"><ele>484.33333333333337</ele><time>2026-04-21T05:34:45.001Z</time></trkpt><trkpt lat="44.033543376077816" lon="6.0969927830602835"><ele>484.0</ele><time>2026-04-21T05:34:46.001Z</time></trkpt><trkpt lat="44.03358694390657" lon="6.09722067054538"><ele>484.0</ele><time>2026-04-21T05:34:47.001Z</time></trkpt><trkpt lat="44.033630354335266" lon="6.097439250148537"><ele>484.0</ele><time>2026-04-21T05:34:48.001Z</time></trkpt><trkpt lat="44.03367430445649" lon="6.097658299850986"><ele>484.0</ele><time>2026-04-21T05:34:49.001Z</time></trkpt><trkpt lat="44.033718861304074" lon="6.097883108652747"><ele>484.0</ele><time>2026-04-21T05:34:50.001Z</time></trkpt><trkpt lat="44.03375888056552" lon="6.0980978027795"><ele>484.0</ele><time>2026-04-21T05:34:51.001Z</time></trkpt><trkpt lat="44.0337981983655" lon="6.098302679928856"><ele>484.0</ele><time>2026-04-21T05:34:52.001Z</time></trkpt><trkpt lat="44.03383508237421" lon="6.0984920382190095"><ele>484.0</ele><time>2026-04-21T05:34:53.001Z</time></trkpt><trkpt lat="44.033871536998575" lon="6.098680128495402"><ele>484.0</ele><time>2026-04-21T05:34:54.001Z</time></trkpt><trkpt lat="44.03390799896172" lon="6.098860260407651"><ele>484.0</ele><time>2026-04-21T05:34:55.001Z</time></trkpt><trkpt lat="44.03394228485209" lon="6.099031429231892"><ele>484.0</ele><time>2026-04-21T05:34:56.001Z</time></trkpt><trkpt lat="44.03397580879702" lon="6.09920581867043"><ele>484.0</ele><time>2026-04-21T05:34:57.001Z</time></trkpt><trkpt lat="44.03401172545903" lon="6.099386368071185"><ele>484.0</ele><time>2026-04-21T05:34:58.001Z</time></trkpt><trkpt lat="44.034049832998974" lon="6.099566559498832"><ele>484.0</ele><time>2026-04-21T05:34:59.001Z</time></trkpt><trkpt lat="44.03408981389882" lon="6.099750380592497"><ele>484.0</ele><time>2026-04-21T05:35:00Z</time></trkpt><trkpt lat="44.03412777911586" lon="6.099923828941387"><ele>484.5</ele><time>2026-04-21T05:35:01Z</time></trkpt><trkpt lat="44.034165923701885" lon="6.100091930014676"><ele>485.0</ele><time>2026-04-21T05:35:02Z</time></trkpt><trkpt lat="44.034203134052625" lon="6.100249155719684"><ele>485.5</ele><time>2026-04-21T05:35:03Z</time></trkpt><trkpt lat="44.0342191282067" lon="6.1004008813512955"><ele>486.0</ele><time>2026-04-21T05:35:04Z</time></trkpt><trkpt lat="44.034247361012" lon="6.100536901407412"><ele>486.0</ele><time>2026-04-21T05:35:05Z</time></trkpt><trkpt lat="44.03427494740021" lon="6.100669484764148"><ele>486.0</ele><time>2026-04-21T05:35:06Z</time></trkpt><trkpt lat="44.034302440469865" lon="6.1008015275821865"><ele>486.0</ele><time>2026-04-21T05:35:07Z</time></trkpt><trkpt lat="44.03432944460872" lon="6.1009313310078985"><ele>486.0</ele><time>2026-04-21T05:35:08Z</time></trkpt><trkpt lat="44.03435650267916" lon="6.101061446885867"><ele>486.0</ele><time>2026-04-21T05:35:09Z</time></trkpt><trkpt lat="44.034382657739556" lon="6.101190737310523"><ele>486.0</ele><time>2026-04-21T05:35:10Z</time></trkpt><trkpt lat="44.03440991895236" lon="6.101326357725494"><ele>486.0</ele><time>2026-04-21T05:35:11Z</time></trkpt><trkpt lat="44.03444051077177" lon="6.101478547427513"><ele>486.0</ele><time>2026-04-21T05:35:12Z</time></trkpt><trkpt lat="44.034473848757436" lon="6.101644398860635"><ele>486.0</ele><time>2026-04-21T05:35:13Z</time></trkpt><trkpt lat="44.03450929348796" lon="6.101820731016024"><ele>485.75</ele><time>2026-04-21T05:35:14Z</time></trkpt><trkpt lat="44.034544731533046" lon="6.10199702989975"><ele>485.5</ele><time>2026-04-21T05:35:15Z</time></trkpt><trkpt lat="44.034578324933435" lon="6.1021641519650425"><ele>485.25</ele><time>2026-04-21T05:35:16Z</time></trkpt><trkpt lat="44.0346092472169" lon="6.102317985627044"><ele>485.0</ele><time>2026-04-21T05:35:17Z</time></trkpt><trkpt lat="44.03463981973954" lon="6.102470079343246"><ele>485.4</ele><time>2026-04-21T05:35:18Z</time></trkpt><trkpt lat="44.034670739503284" lon="6.102623900467971"><ele>485.8</ele><time>2026-04-21T05:35:19Z</time></trkpt><trkpt lat="44.034700332467025" lon="6.102771121003781"><ele>486.20000000000005</ele><time>2026-04-21T05:35:20Z</time></trkpt><trkpt lat="44.03472758710163" lon="6.102906708659599"><ele>486.6</ele><time>2026-04-21T05:35:21Z</time></trkpt><trkpt lat="44.03475642864138" lon="6.1030501909577195"><ele>487.0</ele><time>2026-04-21T05:35:22Z</time></trkpt><trkpt lat="44.034787163851966" lon="6.10320309395231"><ele>487.25</ele><time>2026-04-21T05:35:23Z</time></trkpt><trkpt lat="44.03482005093389" lon="6.103366702237277"><ele>487.5</ele><time>2026-04-21T05:35:24Z</time></trkpt><trkpt lat="44.03485030214738" lon="6.10351719745855"><ele>487.75</ele><time>2026-04-21T05:35:25Z</time></trkpt><trkpt lat="44.034880330133525" lon="6.103666582138077"><ele>488.0</ele><time>2026-04-21T05:35:26Z</time></trkpt><trkpt lat="44.03490989537302" lon="6.103813664702707"><ele>488.0</ele><time>2026-04-21T05:35:27Z</time></trkpt><trkpt lat="44.03493869002304" lon="6.10395691375589"><ele>487.99999999999994</ele><time>2026-04-21T05:35:28Z</time></trkpt><trkpt lat="44.03496685844622" lon="6.104097047365904"><ele>487.99999999999994</ele><time>2026-04-21T05:35:29Z</time></trkpt><trkpt lat="44.034994689992175" lon="6.1042355051073525"><ele>488.0</ele><time>2026-04-21T05:35:30Z</time></trkpt><trkpt lat="44.03502220357209" lon="6.104372379957243"><ele>488.0</ele><time>2026-04-21T05:35:31Z</time></trkpt><trkpt lat="44.03504963874603" lon="6.104512603001102"><ele>488.0</ele><time>2026-04-21T05:35:32Z</time></trkpt><trkpt lat="44.035078454225584" lon="6.104658397599703"><ele>487.99999999999994</ele><time>2026-04-21T05:35:33Z</time></trkpt><trkpt lat="44.035107651621324" lon="6.104806124593977"><ele>487.99999999999994</ele><time>2026-04-21T05:35:34Z</time></trkpt><trkpt lat="44.03513496917003" lon="6.10494434035709"><ele>488.0</ele><time>2026-04-21T05:35:35Z</time></trkpt><trkpt lat="44.03516150842018" lon="6.1050786181856465"><ele>488.0</ele><time>2026-04-21T05:35:36Z</time></trkpt><trkpt lat="44.035189655848676" lon="6.105219276497723"><ele>488.0</ele><time>2026-04-21T05:35:37Z</time></trkpt><trkpt lat="44.0352187910532" lon="6.1053635497154675"><ele>487.99999999999994</ele><time>2026-04-21T05:35:38Z</time></trkpt><trkpt lat="44.035246335456605" lon="6.10549994553313"><ele>487.99999999999994</ele><time>2026-04-21T05:35:39Z</time></trkpt><trkpt lat="44.03527332470707" lon="6.105634607068543"><ele>488.0</ele><time>2026-04-21T05:35:40Z</time></trkpt><trkpt lat="44.03530253539909" lon="6.105780817250084"><ele>488.0</ele><time>2026-04-21T05:35:41Z</time></trkpt><trkpt lat="44.03533142973412" lon="6.105925443957465"><ele>487.75</ele><time>2026-04-21T05:35:42Z</time></trkpt><trkpt lat="44.035361392909806" lon="6.106075420577298"><ele>487.5</ele><time>2026-04-21T05:35:43Z</time></trkpt><trkpt lat="44.03539330738937" lon="6.106235164200393"><ele>487.25</ele><time>2026-04-21T05:35:44Z</time></trkpt><trkpt lat="44.03542930810839" lon="6.106415360960246"><ele>487.0</ele><time>2026-04-21T05:35:45Z</time></trkpt><trkpt lat="44.03546895119033" lon="6.106613789056573"><ele>487.0</ele><time>2026-04-21T05:35:46Z</time></trkpt><trkpt lat="44.03550958194679" lon="6.106817160848968"><ele>487.0</ele><time>2026-04-21T05:35:47Z</time></trkpt><trkpt lat="44.035556693904695" lon="6.107052973318206"><ele>487.0</ele><time>2026-04-21T05:35:48Z</time></trkpt><trkpt lat="44.0356029287636" lon="6.107283099214625"><ele>487.6666666666667</ele><time>2026-04-21T05:35:49Z</time></trkpt><trkpt lat="44.03565003872761" lon="6.107514225699068"><ele>488.33333333333337</ele><time>2026-04-21T05:35:50Z</time></trkpt><trkpt lat="44.035694438150784" lon="6.107732054030426"><ele>489.0</ele><time>2026-04-21T05:35:51Z</time></trkpt><trkpt lat="44.03573845677531" lon="6.107948014042461"><ele>489.0</ele><time>2026-04-21T05:35:52Z</time></trkpt><trkpt lat="44.03578226906716" lon="6.108166420001947"><ele>489.0</ele><time>2026-04-21T05:35:53Z</time></trkpt><trkpt lat="44.03582451097568" lon="6.10838142874811"><ele>489.0</ele><time>2026-04-21T05:35:54Z</time></trkpt><trkpt lat="44.03586660617062" lon="6.108589226165944"><ele>489.0</ele><time>2026-04-21T05:35:55Z</time></trkpt><trkpt lat="44.03592334552231" lon="6.10878854367375"><ele>489.0</ele><time>2026-04-21T05:35:56Z</time></trkpt><trkpt lat="44.03596065972543" lon="6.10898721481804"><ele>489.0</ele><time>2026-04-21T05:35:57Z</time></trkpt><trkpt lat="44.03599133054823" lon="6.109174835548806"><ele>489.0</ele><time>2026-04-21T05:35:58Z</time></trkpt><trkpt lat="44.03602228976091" lon="6.109358005517297"><ele>488.75</ele><time>2026-04-21T05:35:59Z</time></trkpt><trkpt lat="44.03605631881028" lon="6.109549594014666"><ele>488.5</ele><time>2026-04-21T05:36:00Z</time></trkpt><trkpt lat="44.036095557593015" lon="6.1097479666005805"><ele>488.25</ele><time>2026-04-21T05:36:01Z</time></trkpt><trkpt lat="44.036131210451344" lon="6.1099328397452"><ele>488.0</ele><time>2026-04-21T05:36:02Z</time></trkpt><trkpt lat="44.036161546155355" lon="6.1101026663214455"><ele>488.0</ele><time>2026-04-21T05:36:03Z</time></trkpt><trkpt lat="44.03619067967848" lon="6.110251521899309"><ele>487.99999999999994</ele><time>2026-04-21T05:36:04Z</time></trkpt><trkpt lat="44.036215757771316" lon="6.110376524980521"><ele>487.99999999999994</ele><time>2026-04-21T05:36:05Z</time></trkpt><trkpt lat="44.03624246348936" lon="6.110506850412848"><ele>488.0</ele><time>2026-04-21T05:36:06Z</time></trkpt><trkpt lat="44.036272928490256" lon="6.110642521918141"><ele>488.0</ele><time>2026-04-21T05:36:07Z</time></trkpt><trkpt lat="44.036306704281124" lon="6.110786436096984"><ele>488.0</ele><time>2026-04-21T05:36:08Z</time></trkpt><trkpt lat="44.03633606346569" lon="6.110917291852307"><ele>487.99999999999994</ele><time>2026-04-21T05:36:09Z</time></trkpt><trkpt lat="44.036364509484706" lon="6.111055766472695"><ele>487.99999999999994</ele><time>2026-04-21T05:36:10Z</time></trkpt><trkpt lat="44.03639382444242" lon="6.111197727007144"><ele>488.0</ele><time>2026-04-21T05:36:11Z</time></trkpt><trkpt lat="44.03642733772028" lon="6.111350816393916"><ele>488.0</ele><time>2026-04-21T05:36:12Z</time></trkpt><trkpt lat="44.03646580679161" lon="6.111511366515686"><ele>487.75</ele><time>2026-04-21T05:36:13Z</time></trkpt><trkpt lat="44.03650409682312" lon="6.111671584503671"><ele>487.5</ele><time>2026-04-21T05:36:14Z</time></trkpt><trkpt lat="44.0365407500183" lon="6.11183769834124"><ele>487.25</ele><time>2026-04-21T05:36:15Z</time></trkpt><trkpt lat="44.03657431171557" lon="6.11200907204107"><ele>487.0</ele><time>2026-04-21T05:36:16Z</time></trkpt><trkpt lat="44.03661145693243" lon="6.112193428016732"><ele>487.75</ele><time>2026-04-21T05:36:17Z</time></trkpt><trkpt lat="44.036649711377905" lon="6.112379402490953"><ele>488.5</ele><time>2026-04-21T05:36:18Z</time></trkpt><trkpt lat="44.03668821444858" lon="6.112566027142655"><ele>489.25</ele><time>2026-04-21T05:36:19Z</time></trkpt><trkpt lat="44.03672227240562" lon="6.1127420002214885"><ele>490.0</ele><time>2026-04-21T05:36:20Z</time></trkpt><trkpt lat="44.0367563628374" lon="6.112910294991634"><ele>490.0</ele><time>2026-04-21T05:36:21Z</time></trkpt><trkpt lat="44.036789767189624" lon="6.113074657621082"><ele>490.0</ele><time>2026-04-21T05:36:22Z</time></trkpt><trkpt lat="44.03682036889076" lon="6.11323731710901"><ele>490.0</ele><time>2026-04-21T05:36:23Z</time></trkpt><trkpt lat="44.03684852765902" lon="6.113400218914057"><ele>490.0</ele><time>2026-04-21T05:36:24Z</time></trkpt><trkpt lat="44.03687403952964" lon="6.113560526351224"><ele>490.0</ele><time>2026-04-21T05:36:25Z</time></trkpt><trkpt lat="44.03689963330652" lon="6.113720061344823"><ele>490.0</ele><time>2026-04-21T05:36:26Z</time></trkpt><trkpt lat="44.036926017950826" lon="6.113880139454213"><ele>490.0</ele><time>2026-04-21T05:36:27Z</time></trkpt><trkpt lat="44.03695117325214" lon="6.114048648439344"><ele>490.0</ele><time>2026-04-21T05:36:28Z</time></trkpt><trkpt lat="44.036974706177496" lon="6.1142221312262555"><ele>490.0</ele><time>2026-04-21T05:36:29Z</time></trkpt><trkpt lat="44.036998525649565" lon="6.114398688597322"><ele>490.0</ele><time>2026-04-21T05:36:30Z</time></trkpt><trkpt lat="44.03702187655499" lon="6.114579099915187"><ele>490.0</ele><time>2026-04-21T05:36:31Z</time></trkpt><trkpt lat="44.0370470371544" lon="6.1147725962354755"><ele>490.0</ele><time>2026-04-21T05:36:32Z</time></trkpt><trkpt lat="44.03707395149287" lon="6.114969140152255"><ele>490.0</ele><time>2026-04-21T05:36:33Z</time></trkpt><trkpt lat="44.03710170240957" lon="6.1151508468183575"><ele>490.0</ele><time>2026-04-21T05:36:34Z</time></trkpt><trkpt lat="44.03712924157126" lon="6.115339083130581"><ele>490.0</ele><time>2026-04-21T05:36:35Z</time></trkpt><trkpt lat="44.03715834388657" lon="6.11553105542121"><ele>490.0</ele><time>2026-04-21T05:36:36Z</time></trkpt><trkpt lat="44.037191215053454" lon="6.115726083748084"><ele>490.0</ele><time>2026-04-21T05:36:37Z</time></trkpt><trkpt lat="44.03722663137989" lon="6.115923659043932"><ele>490.0</ele><time>2026-04-21T05:36:38Z</time></trkpt><trkpt lat="44.037266064798644" lon="6.11612220294699"><ele>490.0</ele><time>2026-04-21T05:36:39Z</time></trkpt><trkpt lat="44.037303998689005" lon="6.116312063094046"><ele>490.0</ele><time>2026-04-21T05:36:40Z</time></trkpt><trkpt lat="44.03733905428478" lon="6.116497571151701"><ele>489.25</ele><time>2026-04-21T05:36:41Z</time></trkpt><trkpt lat="44.0373554356141" lon="6.1166832147280275"><ele>488.5</ele><time>2026-04-21T05:36:42Z</time></trkpt><trkpt lat="44.03738533157611" lon="6.116854712950659"><ele>487.75</ele><time>2026-04-21T05:36:43Z</time></trkpt><trkpt lat="44.03741570482148" lon="6.117024022441103"><ele>487.0</ele><time>2026-04-21T05:36:44Z</time></trkpt><trkpt lat="44.037446442183146" lon="6.117191526649798"><ele>487.75</ele><time>2026-04-21T05:36:45Z</time></trkpt><trkpt lat="44.037476316033285" lon="6.117349465540095"><ele>488.5</ele><time>2026-04-21T05:36:46Z</time></trkpt><trkpt lat="44.0375067289591" lon="6.117510254460659"><ele>489.25</ele><time>2026-04-21T05:36:47Z</time></trkpt><trkpt lat="44.03753713867259" lon="6.117671026400218"><ele>490.0</ele><time>2026-04-21T05:36:48Z</time></trkpt><trkpt lat="44.037567976121984" lon="6.117834059712238"><ele>490.0</ele><time>2026-04-21T05:36:49Z</time></trkpt><trkpt lat="44.037602549343774" lon="6.11800961249009"><ele>490.0</ele><time>2026-04-21T05:36:50Z</time></trkpt><trkpt lat="44.03763766235722" lon="6.118191273449733"><ele>490.0</ele><time>2026-04-21T05:36:51Z</time></trkpt><trkpt lat="44.03767087992111" lon="6.118365536346341"><ele>490.0</ele><time>2026-04-21T05:36:52Z</time></trkpt><trkpt lat="44.03770319858736" lon="6.118539752219836"><ele>490.25</ele><time>2026-04-21T05:36:53Z</time></trkpt><trkpt lat="44.03773624918281" lon="6.1187179136365035"><ele>490.5</ele><time>2026-04-21T05:36:54Z</time></trkpt><trkpt lat="44.03776960470809" lon="6.11889771878192"><ele>490.75</ele><time>2026-04-21T05:36:55Z</time></trkpt><trkpt lat="44.037802133076255" lon="6.119078900813678"><ele>491.0</ele><time>2026-04-21T05:36:56Z</time></trkpt><trkpt lat="44.037832936987975" lon="6.119251740795498"><ele>491.25</ele><time>2026-04-21T05:36:57Z</time></trkpt><trkpt lat="44.037862014544025" lon="6.119416601272726"><ele>491.5</ele><time>2026-04-21T05:36:58Z</time></trkpt><trkpt lat="44.03789005211297" lon="6.119584778998628"><ele>491.75</ele><time>2026-04-21T05:36:59Z</time></trkpt><trkpt lat="44.037918421432465" lon="6.11975399308306"><ele>492.0</ele><time>2026-04-21T05:37:00Z</time></trkpt><trkpt lat="44.03795000885422" lon="6.119928457582606"><ele>492.0</ele><time>2026-04-21T05:37:01Z</time></trkpt><trkpt lat="44.03798313408846" lon="6.1201107364947065"><ele>492.0</ele><time>2026-04-21T05:37:02Z</time></trkpt><trkpt lat="44.03801671215704" lon="6.120283435834902"><ele>492.0</ele><time>2026-04-21T05:37:03Z</time></trkpt><trkpt lat="44.038055824480466" lon="6.120452314978074"><ele>492.0</ele><time>2026-04-21T05:37:04Z</time></trkpt><trkpt lat="44.03810022053989" lon="6.120618627754385"><ele>491.75</ele><time>2026-04-21T05:37:05Z</time></trkpt><trkpt lat="44.038146111584055" lon="6.120782501964772"><ele>491.5</ele><time>2026-04-21T05:37:06Z</time></trkpt><trkpt lat="44.03822360722058" lon="6.120927182990364"><ele>491.25</ele><time>2026-04-21T05:37:07Z</time></trkpt><trkpt lat="44.03828025647723" lon="6.121078836494256"><ele>491.0</ele><time>2026-04-21T05:37:08Z</time></trkpt><trkpt lat="44.038335580281796" lon="6.121219375399373"><ele>492.5</ele><time>2026-04-21T05:37:09Z</time></trkpt><trkpt lat="44.03839253018005" lon="6.121362627087234"><ele>494.0</ele><time>2026-04-21T05:37:10Z</time></trkpt><trkpt lat="44.03843894452936" lon="6.121523714610899"><ele>495.5</ele><time>2026-04-21T05:37:11Z</time></trkpt><trkpt lat="44.038508420645805" lon="6.12165873509808"><ele>497.0</ele><time>2026-04-21T05:37:12Z</time></trkpt><trkpt lat="44.03858147642171" lon="6.121791821433186"><ele>497.0</ele><time>2026-04-21T05:37:13Z</time></trkpt><trkpt lat="44.038648201765696" lon="6.121894007757724"><ele>497.0</ele><time>2026-04-21T05:37:14Z</time></trkpt><trkpt lat="44.03872408381494" lon="6.122027936829955"><ele>497.0</ele><time>2026-04-21T05:37:15Z</time></trkpt><trkpt lat="44.03880272057089" lon="6.122157335352679"><ele>497.0</ele><time>2026-04-21T05:37:16Z</time></trkpt><trkpt lat="44.038888062739154" lon="6.12228238139626"><ele>497.0</ele><time>2026-04-21T05:37:17Z</time></trkpt><trkpt lat="44.03896915773167" lon="6.122400406636213"><ele>497.0</ele><time>2026-04-21T05:37:18Z</time></trkpt><trkpt lat="44.03903831792608" lon="6.12251313859143"><ele>497.0</ele><time>2026-04-21T05:37:19Z</time></trkpt><trkpt lat="44.03911831581117" lon="6.122644338930799"><ele>497.0</ele><time>2026-04-21T05:37:20Z</time></trkpt><trkpt lat="44.03919984673461" lon="6.122764025635154"><ele>497.6</ele><time>2026-04-21T05:37:21Z</time></trkpt><trkpt lat="44.03926715058244" lon="6.1228638138442895"><ele>498.20000000000005</ele><time>2026-04-21T05:37:22Z</time></trkpt><trkpt lat="44.03933262984756" lon="6.122964760987224"><ele>498.8</ele><time>2026-04-21T05:37:23Z</time></trkpt><trkpt lat="44.03939946219608" lon="6.123065331892329"><ele>499.4</ele><time>2026-04-21T05:37:24Z</time></trkpt><trkpt lat="44.039470758084754" lon="6.123165885342122"><ele>500.0</ele><time>2026-04-21T05:37:25Z</time></trkpt><trkpt lat="44.039532786485516" lon="6.123255767738607"><ele>500.0</ele><time>2026-04-21T05:37:26Z</time></trkpt><trkpt lat="44.039590566095455" lon="6.123345969135356"><ele>500.0</ele><time>2026-04-21T05:37:27Z</time></trkpt><trkpt lat="44.03965698436833" lon="6.123444713592602"><ele>500.0</ele><time>2026-04-21T05:37:28Z</time></trkpt><trkpt lat="44.03972575659305" lon="6.123550782195995"><ele>500.0</ele><time>2026-04-21T05:37:29Z</time></trkpt><trkpt lat="44.039799290187275" lon="6.12366528349526"><ele>500.0</ele><time>2026-04-21T05:37:30Z</time></trkpt><trkpt lat="44.03987598039359" lon="6.123781329148354"><ele>500.0</ele><time>2026-04-21T05:37:31Z</time></trkpt><trkpt lat="44.03995654154804" lon="6.1238915131040885"><ele>500.0</ele><time>2026-04-21T05:37:32Z</time></trkpt><trkpt lat="44.040025372436105" lon="6.123995116258459"><ele>500.0</ele><time>2026-04-21T05:37:33Z</time></trkpt><trkpt lat="44.04008316339641" lon="6.124088816881597"><ele>500.0</ele><time>2026-04-21T05:37:34Z</time></trkpt><trkpt lat="44.040137930643276" lon="6.124176859119998"><ele>500.0</ele><time>2026-04-21T05:37:35Z</time></trkpt><trkpt lat="44.04020966536919" lon="6.124272406697729"><ele>500.49999999999994</ele><time>2026-04-21T05:37:36Z</time></trkpt><trkpt lat="44.04027779401041" lon="6.124367931026274"><ele>501.0</ele><time>2026-04-21T05:37:37Z</time></trkpt><trkpt lat="44.04033860315593" lon="6.124454422230987"><ele>501.5</ele><time>2026-04-21T05:37:38Z</time></trkpt><trkpt lat="44.04039333130456" lon="6.124537319235883"><ele>502.0</ele><time>2026-04-21T05:37:39Z</time></trkpt><trkpt lat="44.04044495539987" lon="6.124622378167194"><ele>502.49999999999994</ele><time>2026-04-21T05:37:40Z</time></trkpt><trkpt lat="44.040500696682464" lon="6.1247126407675605"><ele>503.0</ele><time>2026-04-21T05:37:41Z</time></trkpt><trkpt lat="44.04055742614718" lon="6.124789028223172"><ele>502.99999999999994</ele><time>2026-04-21T05:37:42Z</time></trkpt><trkpt lat="44.04060913973261" lon="6.124875608974242"><ele>503.0</ele><time>2026-04-21T05:37:43Z</time></trkpt><trkpt lat="44.0406722946194" lon="6.1249569836923"><ele>503.0</ele><time>2026-04-21T05:37:44Z</time></trkpt><trkpt lat="44.040732281396366" lon="6.125049494925541"><ele>503.0</ele><time>2026-04-21T05:37:45Z</time></trkpt><trkpt lat="44.04079257181861" lon="6.125146348698592"><ele>502.99999999999994</ele><time>2026-04-21T05:37:46Z</time></trkpt><trkpt lat="44.04084440823288" lon="6.12523329055137"><ele>503.0</ele><time>2026-04-21T05:37:47Z</time></trkpt><trkpt lat="44.04090334188086" lon="6.1253233245802585"><ele>503.49999999999994</ele><time>2026-04-21T05:37:48Z</time></trkpt><trkpt lat="44.040964788966384" lon="6.125408725113539"><ele>504.0</ele><time>2026-04-21T05:37:49Z</time></trkpt><trkpt lat="44.041019995523875" lon="6.125490500472026"><ele>504.5</ele><time>2026-04-21T05:37:50Z</time></trkpt><trkpt lat="44.04106668615696" lon="6.1255660633655555"><ele>505.0</ele><time>2026-04-21T05:37:51Z</time></trkpt><trkpt lat="44.04110867876896" lon="6.125641333644615"><ele>505.49999999999994</ele><time>2026-04-21T05:37:52Z</time></trkpt><trkpt lat="44.041156384456656" lon="6.125717832089498"><ele>506.0</ele><time>2026-04-21T05:37:53Z</time></trkpt><trkpt lat="44.041204441853836" lon="6.125787399124793"><ele>506.0</ele><time>2026-04-21T05:37:54Z</time></trkpt><trkpt lat="44.04125841806086" lon="6.125863270367086"><ele>506.0</ele><time>2026-04-21T05:37:55Z</time></trkpt><trkpt lat="44.0413188241628" lon="6.12594806629652"><ele>506.0</ele><time>2026-04-21T05:37:56Z</time></trkpt><trkpt lat="44.041383423861895" lon="6.126042722094047"><ele>506.0</ele><time>2026-04-21T05:37:57Z</time></trkpt><trkpt lat="44.04145726012603" lon="6.126141156812467"><ele>506.0</ele><time>2026-04-21T05:37:58Z</time></trkpt><trkpt lat="44.041529847407844" lon="6.1262408807049145"><ele>506.0</ele><time>2026-04-21T05:37:59Z</time></trkpt><trkpt lat="44.041598674000035" lon="6.12635196380085"><ele>506.0</ele><time>2026-04-21T05:38:00Z</time></trkpt><trkpt lat="44.04166843082549" lon="6.126470482342806"><ele>506.0</ele><time>2026-04-21T05:38:01Z</time></trkpt><trkpt lat="44.04174980401538" lon="6.126597762798477"><ele>506.0</ele><time>2026-04-21T05:38:02Z</time></trkpt><trkpt lat="44.04183724667513" lon="6.126734364113564"><ele>505.75</ele><time>2026-04-21T05:38:03Z</time></trkpt><trkpt lat="44.04192307412761" lon="6.126854132120516"><ele>505.5</ele><time>2026-04-21T05:38:04Z</time></trkpt><trkpt lat="44.04200649879466" lon="6.126979747746312"><ele>505.25</ele><time>2026-04-21T05:38:05Z</time></trkpt><trkpt lat="44.04209334920029" lon="6.127115278847498"><ele>505.0</ele><time>2026-04-21T05:38:06Z</time></trkpt><trkpt lat="44.04218263191922" lon="6.127251306000338"><ele>505.0</ele><time>2026-04-21T05:38:07Z</time></trkpt><trkpt lat="44.04227580901426" lon="6.1273910726032215"><ele>505.0</ele><time>2026-04-21T05:38:08Z</time></trkpt><trkpt lat="44.04236697679012" lon="6.127530024139881"><ele>505.0</ele><time>2026-04-21T05:38:09Z</time></trkpt><trkpt lat="44.042458154006844" lon="6.127665638334273"><ele>505.0</ele><time>2026-04-21T05:38:10Z</time></trkpt><trkpt lat="44.04254336873098" lon="6.127793241727432"><ele>504.75</ele><time>2026-04-21T05:38:11Z</time></trkpt><trkpt lat="44.042620639742324" lon="6.127917198665545"><ele>504.5</ele><time>2026-04-21T05:38:12Z</time></trkpt><trkpt lat="44.042700576652344" lon="6.128041663506011"><ele>504.25</ele><time>2026-04-21T05:38:13Z</time></trkpt><trkpt lat="44.042781066504304" lon="6.128171556630196"><ele>504.0</ele><time>2026-04-21T05:38:14Z</time></trkpt><trkpt lat="44.04286031156862" lon="6.128318072991684"><ele>504.0</ele><time>2026-04-21T05:38:15Z</time></trkpt><trkpt lat="44.04294174783365" lon="6.1284725800748125"><ele>504.0</ele><time>2026-04-21T05:38:16Z</time></trkpt><trkpt lat="44.04302436143533" lon="6.128627763507578"><ele>504.0</ele><time>2026-04-21T05:38:17Z</time></trkpt><trkpt lat="44.0431003053357" lon="6.1287793921167735"><ele>504.0</ele><time>2026-04-21T05:38:18Z</time></trkpt><trkpt lat="44.043173099581836" lon="6.128935550557922"><ele>503.75</ele><time>2026-04-21T05:38:19Z</time></trkpt><trkpt lat="44.04324424632675" lon="6.129091393670506"><ele>503.5</ele><time>2026-04-21T05:38:20Z</time></trkpt><trkpt lat="44.043311323371206" lon="6.1292459588865515"><ele>503.25</ele><time>2026-04-21T05:38:21Z</time></trkpt><trkpt lat="44.043373524864634" lon="6.129401099149906"><ele>503.0</ele><time>2026-04-21T05:38:22Z</time></trkpt><trkpt lat="44.04343460386267" lon="6.129551962123495"><ele>504.0</ele><time>2026-04-21T05:38:23Z</time></trkpt><trkpt lat="44.04349221456748" lon="6.1296979728245535"><ele>505.0</ele><time>2026-04-21T05:38:24Z</time></trkpt><trkpt lat="44.043548824163594" lon="6.129847988564977"><ele>506.0</ele><time>2026-04-21T05:38:25Z</time></trkpt><trkpt lat="44.043605320138774" lon="6.130007117330467"><ele>507.0</ele><time>2026-04-21T05:38:26Z</time></trkpt><trkpt lat="44.0436608740427" lon="6.13017637223392"><ele>507.0</ele><time>2026-04-21T05:38:27Z</time></trkpt><trkpt lat="44.043717021114496" lon="6.130347914455506"><ele>507.0</ele><time>2026-04-21T05:38:28Z</time></trkpt><trkpt lat="44.04376830228789" lon="6.130511854082214"><ele>507.0</ele><time>2026-04-21T05:38:29Z</time></trkpt><trkpt lat="44.04381891092526" lon="6.130688277768788"><ele>507.0</ele><time>2026-04-21T05:38:30Z</time></trkpt><trkpt lat="44.04387262211065" lon="6.130869972993794"><ele>506.66666666666663</ele><time>2026-04-21T05:38:31Z</time></trkpt><trkpt lat="44.04392859450869" lon="6.131057191603838"><ele>506.3333333333333</ele><time>2026-04-21T05:38:32Z</time></trkpt><trkpt lat="44.04398276975596" lon="6.1312510863662375"><ele>506.0</ele><time>2026-04-21T05:38:33Z</time></trkpt><trkpt lat="44.04404757256086" lon="6.131447592370146"><ele>505.0</ele><time>2026-04-21T05:38:34Z</time></trkpt><trkpt lat="44.04412364024709" lon="6.1316283920452594"><ele>504.0</ele><time>2026-04-21T05:38:35Z</time></trkpt><trkpt lat="44.04420689650659" lon="6.131803083838776"><ele>503.0</ele><time>2026-04-21T05:38:36Z</time></trkpt><trkpt lat="44.04429813102439" lon="6.1319677310454646"><ele>505.3333333333333</ele><time>2026-04-21T05:38:37Z</time></trkpt><trkpt lat="44.04439121372271" lon="6.132140907094036"><ele>507.66666666666663</ele><time>2026-04-21T05:38:38Z</time></trkpt><trkpt lat="44.04448818851051" lon="6.13231425320008"><ele>510.0</ele><time>2026-04-21T05:38:39Z</time></trkpt><trkpt lat="44.04459026767905" lon="6.132487431371776"><ele>510.0</ele><time>2026-04-21T05:38:40Z</time></trkpt><trkpt lat="44.04468987168303" lon="6.13265995870673"><ele>510.0</ele><time>2026-04-21T05:38:41Z</time></trkpt><trkpt lat="44.04478459950129" lon="6.132827742595073"><ele>510.0</ele><time>2026-04-21T05:38:42Z</time></trkpt><trkpt lat="44.04488251857006" lon="6.132990286725182"><ele>511.66666666666663</ele><time>2026-04-21T05:38:43Z</time></trkpt><trkpt lat="44.04498093795753" lon="6.133158714264673"><ele>513.3333333333333</ele><time>2026-04-21T05:38:44Z</time></trkpt><trkpt lat="44.04508497748981" lon="6.133330061661317"><ele>515.0</ele><time>2026-04-21T05:38:45Z</time></trkpt><trkpt lat="44.045190589413224" lon="6.133508061422881"><ele>515.0</ele><time>2026-04-21T05:38:46Z</time></trkpt><trkpt lat="44.04530423524321" lon="6.133688891466913"><ele>515.0</ele><time>2026-04-21T05:38:47Z</time></trkpt><trkpt lat="44.04542222876756" lon="6.133886094793367"><ele>515.0</ele><time>2026-04-21T05:38:48Z</time></trkpt><trkpt lat="44.04554049158629" lon="6.134075274398363"><ele>515.0</ele><time>2026-04-21T05:38:49Z</time></trkpt><trkpt lat="44.04566229684653" lon="6.134271498231685"><ele>515.0</ele><time>2026-04-21T05:38:50Z</time></trkpt><trkpt lat="44.04577644851421" lon="6.134469093860167"><ele>515.0</ele><time>2026-04-21T05:38:51Z</time></trkpt><trkpt lat="44.04588749091561" lon="6.134656828505527"><ele>515.0</ele><time>2026-04-21T05:38:52Z</time></trkpt><trkpt lat="44.04598955083191" lon="6.134842604042649"><ele>515.0</ele><time>2026-04-21T05:38:53Z</time></trkpt><trkpt lat="44.04609470498182" lon="6.135035050091194"><ele>515.0</ele><time>2026-04-21T05:38:54Z</time></trkpt><trkpt lat="44.04618346846951" lon="6.135237131900251"><ele>513.3333333333333</ele><time>2026-04-21T05:38:55Z</time></trkpt><trkpt lat="44.046265754062325" lon="6.1354476995760505"><ele>511.66666666666663</ele><time>2026-04-21T05:38:56Z</time></trkpt><trkpt lat="44.046338458025375" lon="6.135667111125556"><ele>510.0</ele><time>2026-04-21T05:38:57Z</time></trkpt><trkpt lat="44.04639941205023" lon="6.135884912405335"><ele>509.5</ele><time>2026-04-21T05:38:58Z</time></trkpt><trkpt lat="44.04644388310513" lon="6.136098782452006"><ele>509.0</ele><time>2026-04-21T05:38:59Z</time></trkpt><trkpt lat="44.04648027649028" lon="6.136296572144746"><ele>508.5</ele><time>2026-04-21T05:39:00Z</time></trkpt><trkpt lat="44.04650905723989" lon="6.136461854577375"><ele>508.0</ele><time>2026-04-21T05:39:01Z</time></trkpt><trkpt lat="44.04653368702323" lon="6.1365744806068605"><ele>507.83333333333337</ele><time>2026-04-21T05:39:02Z</time></trkpt><trkpt lat="44.04654033161839" lon="6.136682831401105"><ele>507.6666666666667</ele><time>2026-04-21T05:39:03Z</time></trkpt><trkpt lat="44.046526706739456" lon="6.13678670006386"><ele>507.5</ele><time>2026-04-21T05:39:04Z</time></trkpt><trkpt lat="44.0464942235281" lon="6.136901064145293"><ele>507.33333333333337</ele><time>2026-04-21T05:39:05Z</time></trkpt><trkpt lat="44.04643891992416" lon="6.137008427346537"><ele>507.1666666666667</ele><time>2026-04-21T05:39:06Z</time></trkpt><trkpt lat="44.04636197004194" lon="6.137108776222019"><ele>507.0</ele><time>2026-04-21T05:39:07Z</time></trkpt><trkpt lat="44.046260620893875" lon="6.137207819471973"><ele>507.0</ele><time>2026-04-21T05:39:08Z</time></trkpt><trkpt lat="44.046129287957726" lon="6.137303343458613"><ele>507.0</ele><time>2026-04-21T05:39:09Z</time></trkpt><trkpt lat="44.045979698741114" lon="6.13741394955775"><ele>507.0</ele><time>2026-04-21T05:39:10Z</time></trkpt><trkpt lat="44.04582552044634" lon="6.13753658220292"><ele>506.0</ele><time>2026-04-21T05:39:11Z</time></trkpt><trkpt lat="44.0456678268746" lon="6.137665951201786"><ele>505.0</ele><time>2026-04-21T05:39:12Z</time></trkpt><trkpt lat="44.045496732156295" lon="6.137809986904981"><ele>504.0</ele><time>2026-04-21T05:39:13Z</time></trkpt><trkpt lat="44.04532100454244" lon="6.137953308633898"><ele>504.0</ele><time>2026-04-21T05:39:14Z</time></trkpt><trkpt lat="44.04513995402929" lon="6.1380960507096844"><ele>504.0</ele><time>2026-04-21T05:39:15Z</time></trkpt><trkpt lat="44.04495438939682" lon="6.1382447315589435"><ele>504.0</ele><time>2026-04-21T05:39:16Z</time></trkpt><trkpt lat="44.04476710183942" lon="6.1383943182287535"><ele>504.66666666666663</ele><time>2026-04-21T05:39:17Z</time></trkpt><trkpt lat="44.044577814844544" lon="6.138542253461527"><ele>505.3333333333333</ele><time>2026-04-21T05:39:18Z</time></trkpt><trkpt lat="44.04439424317254" lon="6.138689938936119"><ele>506.0</ele><time>2026-04-21T05:39:19Z</time></trkpt><trkpt lat="44.04421314919718" lon="6.138834487065071"><ele>506.0</ele><time>2026-04-21T05:39:20Z</time></trkpt><trkpt lat="44.04402574273167" lon="6.138981397133144"><ele>506.0</ele><time>2026-04-21T05:39:21Z</time></trkpt><trkpt lat="44.04384275855652" lon="6.139126314980822"><ele>506.0</ele><time>2026-04-21T05:39:22Z</time></trkpt><trkpt lat="44.04367110158656" lon="6.139259682233522"><ele>506.0</ele><time>2026-04-21T05:39:23Z</time></trkpt><trkpt lat="44.04349987421626" lon="6.139395393858499"><ele>506.0</ele><time>2026-04-21T05:39:24Z</time></trkpt><trkpt lat="44.04332581481948" lon="6.139533756318875"><ele>506.0</ele><time>2026-04-21T05:39:25Z</time></trkpt><trkpt lat="44.04314920058607" lon="6.139679558665626"><ele>507.66666666666663</ele><time>2026-04-21T05:39:26Z</time></trkpt><trkpt lat="44.04297150032763" lon="6.139825924731006"><ele>509.33333333333337</ele><time>2026-04-21T05:39:27Z</time></trkpt><trkpt lat="44.04279330858423" lon="6.139972847038694"><ele>511.0</ele><time>2026-04-21T05:39:28Z</time></trkpt><trkpt lat="44.04262114737657" lon="6.140120165938407"><ele>511.6666666666667</ele><time>2026-04-21T05:39:29Z</time></trkpt><trkpt lat="44.04243455717039" lon="6.140263725835324"><ele>512.3333333333334</ele><time>2026-04-21T05:39:30Z</time></trkpt><trkpt lat="44.04225781895597" lon="6.14040445162525"><ele>513.0</ele><time>2026-04-21T05:39:31Z</time></trkpt><trkpt lat="44.04208270642979" lon="6.140544632282355"><ele>513.0</ele><time>2026-04-21T05:39:32Z</time></trkpt><trkpt lat="44.041905508082834" lon="6.140684872727602"><ele>513.0</ele><time>2026-04-21T05:39:33Z</time></trkpt><trkpt lat="44.04173196409978" lon="6.140828805241976"><ele>513.0</ele><time>2026-04-21T05:39:34Z</time></trkpt><trkpt lat="44.04156430609438" lon="6.140978583405178"><ele>512.6666666666666</ele><time>2026-04-21T05:39:35Z</time></trkpt><trkpt lat="44.041398372407926" lon="6.141124474684019"><ele>512.3333333333333</ele><time>2026-04-21T05:39:36Z</time></trkpt><trkpt lat="44.0412384805651" lon="6.141279845531814"><ele>512.0</ele><time>2026-04-21T05:39:37Z</time></trkpt><trkpt lat="44.04108609477123" lon="6.1414618527515135"><ele>512.0</ele><time>2026-04-21T05:39:38Z</time></trkpt><trkpt lat="44.040933356191815" lon="6.141644668255202"><ele>512.0</ele><time>2026-04-21T05:39:39Z</time></trkpt><trkpt lat="44.04078846411364" lon="6.141827714723827"><ele>512.0</ele><time>2026-04-21T05:39:40Z</time></trkpt><trkpt lat="44.040645228783106" lon="6.142015289707198"><ele>510.3333333333333</ele><time>2026-04-21T05:39:41Z</time></trkpt><trkpt lat="44.04050152268921" lon="6.142205042936494"><ele>508.66666666666663</ele><time>2026-04-21T05:39:42Z</time></trkpt><trkpt lat="44.04035751070981" lon="6.14239600285206"><ele>507.0</ele><time>2026-04-21T05:39:43Z</time></trkpt><trkpt lat="44.04021366473816" lon="6.142583363079679"><ele>507.0</ele><time>2026-04-21T05:39:44Z</time></trkpt><trkpt lat="44.040068841845475" lon="6.142766370591991"><ele>507.0</ele><time>2026-04-21T05:39:45Z</time></trkpt><trkpt lat="44.039915002769206" lon="6.142936745906324"><ele>507.0</ele><time>2026-04-21T05:39:46Z</time></trkpt><trkpt lat="44.039765899976715" lon="6.143131706082709"><ele>507.33333333333337</ele><time>2026-04-21T05:39:47Z</time></trkpt><trkpt lat="44.03962891268284" lon="6.143340259913158"><ele>507.6666666666667</ele><time>2026-04-21T05:39:48Z</time></trkpt><trkpt lat="44.03946928956998" lon="6.143514830993224"><ele>508.0</ele><time>2026-04-21T05:39:49Z</time></trkpt><trkpt lat="44.03931804390169" lon="6.143709325023133"><ele>508.0</ele><time>2026-04-21T05:39:50Z</time></trkpt><trkpt lat="44.03917836784766" lon="6.143919819629217"><ele>508.0</ele><time>2026-04-21T05:39:51Z</time></trkpt><trkpt lat="44.03902468603286" lon="6.144114865517251"><ele>508.0</ele><time>2026-04-21T05:39:52Z</time></trkpt><trkpt lat="44.03887029219718" lon="6.14431310402569"><ele>507.6666666666667</ele><time>2026-04-21T05:39:53Z</time></trkpt><trkpt lat="44.03871765634123" lon="6.144509313139779"><ele>507.33333333333337</ele><time>2026-04-21T05:39:54Z</time></trkpt><trkpt lat="44.03856478628215" lon="6.144706241755994"><ele>507.0</ele><time>2026-04-21T05:39:55Z</time></trkpt><trkpt lat="44.03841333257631" lon="6.144904198073772"><ele>508.0</ele><time>2026-04-21T05:39:56Z</time></trkpt><trkpt lat="44.038264989133" lon="6.145092215319234"><ele>509.0</ele><time>2026-04-21T05:39:57Z</time></trkpt><trkpt lat="44.03813337518424" lon="6.14526831189327"><ele>510.0</ele><time>2026-04-21T05:39:58Z</time></trkpt><trkpt lat="44.03801977916797" lon="6.145442011875102"><ele>510.0</ele><time>2026-04-21T05:39:59Z</time></trkpt><trkpt lat="44.03792071069145" lon="6.145626311939423"><ele>510.0</ele><time>2026-04-21T05:40:00Z</time></trkpt><trkpt lat="44.0378449268616" lon="6.145826054373947"><ele>510.0</ele><time>2026-04-21T05:40:01Z</time></trkpt><trkpt lat="44.03776879147634" lon="6.146026345785686"><ele>510.0</ele><time>2026-04-21T05:40:02Z</time></trkpt><trkpt lat="44.03773993784325" lon="6.146257703081833"><ele>510.0</ele><time>2026-04-21T05:40:03Z</time></trkpt><trkpt lat="44.03772490957141" lon="6.146476402162507"><ele>510.0</ele><time>2026-04-21T05:40:04Z</time></trkpt><trkpt lat="44.03772564204936" lon="6.146692876143366"><ele>510.0</ele><time>2026-04-21T05:40:05Z</time></trkpt><trkpt lat="44.03774482161008" lon="6.146898025842191"><ele>510.0</ele><time>2026-04-21T05:40:06Z</time></trkpt><trkpt lat="44.03778246860518" lon="6.147107031407449"><ele>510.0</ele><time>2026-04-21T05:40:07Z</time></trkpt><trkpt lat="44.03784443345484" lon="6.147319712171324"><ele>510.66666666666663</ele><time>2026-04-21T05:40:08Z</time></trkpt><trkpt lat="44.03792390498248" lon="6.1475294283789355"><ele>511.3333333333333</ele><time>2026-04-21T05:40:09Z</time></trkpt><trkpt lat="44.03802790080011" lon="6.147732858071203"><ele>512.0</ele><time>2026-04-21T05:40:10Z</time></trkpt><trkpt lat="44.03813990676694" lon="6.1479328179566375"><ele>512.0</ele><time>2026-04-21T05:40:11Z</time></trkpt><trkpt lat="44.038256258699796" lon="6.148139437469312"><ele>512.0</ele><time>2026-04-21T05:40:12Z</time></trkpt><trkpt lat="44.03837671376754" lon="6.148351907854563"><ele>512.0</ele><time>2026-04-21T05:40:13Z</time></trkpt><trkpt lat="44.03849869604746" lon="6.14856741110085"><ele>511.66666666666663</ele><time>2026-04-21T05:40:14Z</time></trkpt><trkpt lat="44.03862211202488" lon="6.148789295837439"><ele>511.33333333333337</ele><time>2026-04-21T05:40:15Z</time></trkpt><trkpt lat="44.03874559971738" lon="6.149015257605417"><ele>511.0</ele><time>2026-04-21T05:40:16Z</time></trkpt><trkpt lat="44.03886697108784" lon="6.149240423876006"><ele>512.6666666666667</ele><time>2026-04-21T05:40:17Z</time></trkpt><trkpt lat="44.03898399980575" lon="6.1494626566491695"><ele>514.3333333333334</ele><time>2026-04-21T05:40:18Z</time></trkpt><trkpt lat="44.03909040319636" lon="6.149686398132727"><ele>516.0</ele><time>2026-04-21T05:40:19Z</time></trkpt><trkpt lat="44.03919249617832" lon="6.149912685151213"><ele>516.0</ele><time>2026-04-21T05:40:20Z</time></trkpt><trkpt lat="44.03928743227061" lon="6.15013433251578"><ele>516.0</ele><time>2026-04-21T05:40:21Z</time></trkpt><trkpt lat="44.0393730716189" lon="6.150350054006747"><ele>516.0</ele><time>2026-04-21T05:40:22Z</time></trkpt><trkpt lat="44.03945185309682" lon="6.150572169550824"><ele>517.6666666666666</ele><time>2026-04-21T05:40:23Z</time></trkpt><trkpt lat="44.0395248256146" lon="6.1508030312820985"><ele>519.3333333333333</ele><time>2026-04-21T05:40:24Z</time></trkpt><trkpt lat="44.03958648060442" lon="6.151037959129011"><ele>521.0</ele><time>2026-04-21T05:40:25Z</time></trkpt><trkpt lat="44.0396439563892" lon="6.151261041959505"><ele>521.0</ele><time>2026-04-21T05:40:26Z</time></trkpt><trkpt lat="44.03969614054966" lon="6.151487115836443"><ele>521.0</ele><time>2026-04-21T05:40:27Z</time></trkpt><trkpt lat="44.039743406597594" lon="6.151724838239725"><ele>521.0</ele><time>2026-04-21T05:40:28Z</time></trkpt><trkpt lat="44.039791845895984" lon="6.151968419615707"><ele>522.6666666666666</ele><time>2026-04-21T05:40:29Z</time></trkpt><trkpt lat="44.039829066760966" lon="6.152224478900874"><ele>524.3333333333334</ele><time>2026-04-21T05:40:30Z</time></trkpt><trkpt lat="44.03985914525669" lon="6.152492353403704"><ele>526.0</ele><time>2026-04-21T05:40:31Z</time></trkpt><trkpt lat="44.03987962408174" lon="6.152755064696217"><ele>528.6666666666667</ele><time>2026-04-21T05:40:32Z</time></trkpt><trkpt lat="44.039898115905736" lon="6.153007017142042"><ele>531.3333333333334</ele><time>2026-04-21T05:40:33Z</time></trkpt><trkpt lat="44.039919749382655" lon="6.1532356777658554"><ele>534.0</ele><time>2026-04-21T05:40:34Z</time></trkpt><trkpt lat="44.03993753138477" lon="6.15344254878854"><ele>534.75</ele><time>2026-04-21T05:40:35Z</time></trkpt><trkpt lat="44.039950400065926" lon="6.153626947151862"><ele>535.5</ele><time>2026-04-21T05:40:36Z</time></trkpt><trkpt lat="44.039964525094014" lon="6.153809844688888"><ele>536.25</ele><time>2026-04-21T05:40:37Z</time></trkpt><trkpt lat="44.03998126957509" lon="6.154015016576146"><ele>537.0</ele><time>2026-04-21T05:40:38Z</time></trkpt><trkpt lat="44.040003993257194" lon="6.154222229447007"><ele>536.6</ele><time>2026-04-21T05:40:39Z</time></trkpt><trkpt lat="44.040032268269144" lon="6.154410909055126"><ele>536.2</ele><time>2026-04-21T05:40:40Z</time></trkpt><trkpt lat="44.04005964266475" lon="6.154576605144185"><ele>535.8</ele><time>2026-04-21T05:40:41Z</time></trkpt><trkpt lat="44.04008398975315" lon="6.154710866045068"><ele>535.4</ele><time>2026-04-21T05:40:42Z</time></trkpt><trkpt lat="44.04010440321354" lon="6.154817977073845"><ele>535.0</ele><time>2026-04-21T05:40:43Z</time></trkpt><trkpt lat="44.040133582356425" lon="6.154957473126996"><ele>535.0</ele><time>2026-04-21T05:40:45Z</time></trkpt><trkpt lat="44.04015996687054" lon="6.155040315460375"><ele>535.0</ele><time>2026-04-21T05:43:37Z</time></trkpt><trkpt lat="44.04022859409449" lon="6.155178527385249"><ele>535.0</ele><time>2026-04-21T05:43:39Z</time></trkpt><trkpt lat="44.04028309611619" lon="6.1552785136466515"><ele>535.0</ele><time>2026-04-21T05:43:40Z</time></trkpt><trkpt lat="44.04034033115803" lon="6.155392047078603"><ele>535.0</ele><time>2026-04-21T05:43:41Z</time></trkpt><trkpt lat="44.04040769905916" lon="6.155533919317461"><ele>535.0</ele><time>2026-04-21T05:43:42Z</time></trkpt><trkpt lat="44.04048792197056" lon="6.15568856241189"><ele>535.0</ele><time>2026-04-21T05:43:43Z</time></trkpt><trkpt lat="44.04058848529501" lon="6.155844496323742"><ele>535.0</ele><time>2026-04-21T05:43:44Z</time></trkpt><trkpt lat="44.04069278547471" lon="6.156002263358396"><ele>535.0</ele><time>2026-04-21T05:43:45Z</time></trkpt><trkpt lat="44.040814016614846" lon="6.156156065156407"><ele>534.3333333333334</ele><time>2026-04-21T05:43:46Z</time></trkpt><trkpt lat="44.04094963881945" lon="6.156310109118096"><ele>533.6666666666666</ele><time>2026-04-21T05:43:47Z</time></trkpt><trkpt lat="44.0410966931827" lon="6.156452643420086"><ele>533.0</ele><time>2026-04-21T05:43:48Z</time></trkpt><trkpt lat="44.041254778513206" lon="6.1565889395437"><ele>533.0</ele><time>2026-04-21T05:43:49Z</time></trkpt><trkpt lat="44.041410439521385" lon="6.156708677792583"><ele>533.0</ele><time>2026-04-21T05:43:50Z</time></trkpt><trkpt lat="44.04155746001406" lon="6.156814564286667"><ele>533.0</ele><time>2026-04-21T05:43:51Z</time></trkpt><trkpt lat="44.0416922419096" lon="6.156924874898133"><ele>531.6666666666666</ele><time>2026-04-21T05:43:52Z</time></trkpt><trkpt lat="44.04181534811322" lon="6.1570488751569865"><ele>530.3333333333334</ele><time>2026-04-21T05:43:53Z</time></trkpt><trkpt lat="44.04193758635077" lon="6.157191165936809"><ele>529.0</ele><time>2026-04-21T05:43:54Z</time></trkpt><trkpt lat="44.04205513100876" lon="6.157352058750211"><ele>530.0</ele><time>2026-04-21T05:43:55Z</time></trkpt><trkpt lat="44.042177166738504" lon="6.157534336206417"><ele>531.0</ele><time>2026-04-21T05:43:56Z</time></trkpt><trkpt lat="44.04230482559069" lon="6.15773290856748"><ele>532.0</ele><time>2026-04-21T05:43:57Z</time></trkpt><trkpt lat="44.04243093973815" lon="6.1579258992948205"><ele>530.3333333333334</ele><time>2026-04-21T05:43:58Z</time></trkpt><trkpt lat="44.042557213975286" lon="6.158111677532398"><ele>528.6666666666666</ele><time>2026-04-21T05:43:59Z</time></trkpt><trkpt lat="44.04268913880647" lon="6.158308530264035"><ele>527.0</ele><time>2026-04-21T05:44:00Z</time></trkpt><trkpt lat="44.04282054497009" lon="6.158508034752996"><ele>527.0</ele><time>2026-04-21T05:44:01Z</time></trkpt><trkpt lat="44.04295833124921" lon="6.15868870119045"><ele>527.0</ele><time>2026-04-21T05:44:02Z</time></trkpt><trkpt lat="44.04310954855967" lon="6.15884043302228"><ele>527.0</ele><time>2026-04-21T05:44:03Z</time></trkpt><trkpt lat="44.04327226099656" lon="6.1589758070675815"><ele>527.3333333333333</ele><time>2026-04-21T05:44:04Z</time></trkpt><trkpt lat="44.04344133331076" lon="6.159094232961335"><ele>527.6666666666666</ele><time>2026-04-21T05:44:05Z</time></trkpt><trkpt lat="44.04362097769781" lon="6.159192406516911"><ele>528.0</ele><time>2026-04-21T05:44:06Z</time></trkpt><trkpt lat="44.04380460212473" lon="6.159288815568758"><ele>528.0</ele><time>2026-04-21T05:44:07Z</time></trkpt><trkpt lat="44.043991317580435" lon="6.159387622363583"><ele>528.0</ele><time>2026-04-21T05:44:08Z</time></trkpt><trkpt lat="44.04418103411264" lon="6.159490975016223"><ele>528.0</ele><time>2026-04-21T05:44:09Z</time></trkpt><trkpt lat="44.04436929691328" lon="6.159605901591423"><ele>528.0</ele><time>2026-04-21T05:44:10Z</time></trkpt><trkpt lat="44.04455626989421" lon="6.15972944028292"><ele>528.0</ele><time>2026-04-21T05:44:11Z</time></trkpt><trkpt lat="44.044744525729605" lon="6.15985701078374"><ele>528.0</ele><time>2026-04-21T05:44:12Z</time></trkpt><trkpt lat="44.04493217408804" lon="6.159989479482765"><ele>526.6666666666666</ele><time>2026-04-21T05:44:13Z</time></trkpt><trkpt lat="44.04511723141033" lon="6.160129204522696"><ele>525.3333333333333</ele><time>2026-04-21T05:44:14Z</time></trkpt><trkpt lat="44.04529612940067" lon="6.16027910148231"><ele>524.0</ele><time>2026-04-21T05:44:15Z</time></trkpt><trkpt lat="44.0454701027709" lon="6.160437623239349"><ele>524.0</ele><time>2026-04-21T05:44:16Z</time></trkpt><trkpt lat="44.045634407965316" lon="6.1606070188505555"><ele>524.0</ele><time>2026-04-21T05:44:17Z</time></trkpt><trkpt lat="44.045790704201565" lon="6.160786653609419"><ele>524.0</ele><time>2026-04-21T05:44:18Z</time></trkpt><trkpt lat="44.04593219838965" lon="6.16098003904352"><ele>525.0</ele><time>2026-04-21T05:44:19Z</time></trkpt><trkpt lat="44.046066788246996" lon="6.161181470345271"><ele>526.0</ele><time>2026-04-21T05:44:20Z</time></trkpt><trkpt lat="44.0461935192481" lon="6.161366887492898"><ele>527.0</ele><time>2026-04-21T05:44:21Z</time></trkpt><trkpt lat="44.04631970416629" lon="6.161537002713985"><ele>527.0</ele><time>2026-04-21T05:44:22Z</time></trkpt><trkpt lat="44.04643864727854" lon="6.161691755769376"><ele>527.0</ele><time>2026-04-21T05:44:23Z</time></trkpt><trkpt lat="44.04655735563119" lon="6.16183931060909"><ele>527.0</ele><time>2026-04-21T05:44:24Z</time></trkpt><trkpt lat="44.04668798229612" lon="6.1619808406920695"><ele>528.0</ele><time>2026-04-21T05:44:25Z</time></trkpt><trkpt lat="44.04682302040101" lon="6.1621131946898"><ele>529.0</ele><time>2026-04-21T05:44:26Z</time></trkpt><trkpt lat="44.04695989430146" lon="6.16224400632547"><ele>530.0</ele><time>2026-04-21T05:44:27Z</time></trkpt><trkpt lat="44.04709119173329" lon="6.162364194102575"><ele>530.0</ele><time>2026-04-21T05:44:28Z</time></trkpt><trkpt lat="44.04721686046935" lon="6.162485872082842"><ele>530.0</ele><time>2026-04-21T05:44:29Z</time></trkpt><trkpt lat="44.04734690220347" lon="6.162613564839419"><ele>530.0</ele><time>2026-04-21T05:44:30Z</time></trkpt><trkpt lat="44.04748181834659" lon="6.162745018594177"><ele>530.0</ele><time>2026-04-21T05:44:31Z</time></trkpt><trkpt lat="44.04762518078575" lon="6.16287772979734"><ele>530.0</ele><time>2026-04-21T05:44:32Z</time></trkpt><trkpt lat="44.04777236807372" lon="6.163013924619617"><ele>530.0</ele><time>2026-04-21T05:44:33Z</time></trkpt><trkpt lat="44.04790905641229" lon="6.163143251172454"><ele>530.0</ele><time>2026-04-21T05:44:34Z</time></trkpt><trkpt lat="44.04803716074171" lon="6.163259159937706"><ele>530.0</ele><time>2026-04-21T05:44:35Z</time></trkpt><trkpt lat="44.04815443940122" lon="6.163370491808994"><ele>530.0</ele><time>2026-04-21T05:44:36Z</time></trkpt><trkpt lat="44.04824596872253" lon="6.163466003233062"><ele>530.0</ele><time>2026-04-21T05:44:37Z</time></trkpt><trkpt lat="44.04832343806183" lon="6.163544147022227"><ele>529.8333333333333</ele><time>2026-04-21T05:44:38Z</time></trkpt><trkpt lat="44.048376679085365" lon="6.163616537675946"><ele>529.6666666666666</ele><time>2026-04-21T05:44:39Z</time></trkpt><trkpt lat="44.04841087328881" lon="6.163699758534139"><ele>529.5</ele><time>2026-04-21T05:44:40Z</time></trkpt><trkpt lat="44.048405062270845" lon="6.163906928832782"><ele>529.3333333333334</ele><time>2026-04-21T05:44:42Z</time></trkpt><trkpt lat="44.04837136310745" lon="6.164001525913421"><ele>529.1666666666667</ele><time>2026-04-21T05:44:43Z</time></trkpt><trkpt lat="44.04830243646226" lon="6.164059463160267"><ele>529.0</ele><time>2026-04-21T05:44:44Z</time></trkpt><trkpt lat="44.04823050365739" lon="6.164140217177542"><ele>529.6</ele><time>2026-04-21T05:44:45Z</time></trkpt><trkpt lat="44.04815366142716" lon="6.164231766591581"><ele>530.2</ele><time>2026-04-21T05:44:46Z</time></trkpt><trkpt lat="44.04809257028234" lon="6.164320831397035"><ele>530.8000000000001</ele><time>2026-04-21T05:44:47Z</time></trkpt><trkpt lat="44.04805041516402" lon="6.164416145988428"><ele>531.4</ele><time>2026-04-21T05:44:48Z</time></trkpt><trkpt lat="44.047983947844486" lon="6.164502464565265"><ele>532.0</ele><time>2026-04-21T05:44:49Z</time></trkpt><trkpt lat="44.04791098841413" lon="6.1645957460128304"><ele>532.0</ele><time>2026-04-21T05:44:50Z</time></trkpt><trkpt lat="44.04782337335539" lon="6.16470763790601"><ele>532.0</ele><time>2026-04-21T05:44:51Z</time></trkpt><trkpt lat="44.04772397693841" lon="6.164831685151827"><ele>532.0</ele><time>2026-04-21T05:44:52Z</time></trkpt><trkpt lat="44.04762415629197" lon="6.1649645662405375"><ele>532.0</ele><time>2026-04-21T05:44:53Z</time></trkpt><trkpt lat="44.04751973646994" lon="6.165103619691102"><ele>532.5</ele><time>2026-04-21T05:44:54Z</time></trkpt><trkpt lat="44.04741907612435" lon="6.1652325877971315"><ele>533.0</ele><time>2026-04-21T05:44:55Z</time></trkpt><trkpt lat="44.047309755225164" lon="6.1653480755105745"><ele>533.5</ele><time>2026-04-21T05:44:56Z</time></trkpt><trkpt lat="44.047193923785386" lon="6.1654554424609325"><ele>534.0</ele><time>2026-04-21T05:44:57Z</time></trkpt><trkpt lat="44.04706572449801" lon="6.165559740949113"><ele>534.0</ele><time>2026-04-21T05:44:58Z</time></trkpt><trkpt lat="44.046930904613106" lon="6.165666602170722"><ele>534.0</ele><time>2026-04-21T05:44:59Z</time></trkpt><trkpt lat="44.04679212778671" lon="6.165772102082804"><ele>534.0</ele><time>2026-04-21T05:45:00Z</time></trkpt><trkpt lat="44.046650308596654" lon="6.165881247970213"><ele>535.0</ele><time>2026-04-21T05:45:01Z</time></trkpt><trkpt lat="44.046502956028945" lon="6.165992196988744"><ele>536.0</ele><time>2026-04-21T05:45:02Z</time></trkpt><trkpt lat="44.046350357589745" lon="6.166103415621878"><ele>537.0</ele><time>2026-04-21T05:45:03Z</time></trkpt><trkpt lat="44.04620601274394" lon="6.166204673637545"><ele>537.0</ele><time>2026-04-21T05:45:04Z</time></trkpt><trkpt lat="44.04605996326755" lon="6.166299455499068"><ele>537.0</ele><time>2026-04-21T05:45:05Z</time></trkpt><trkpt lat="44.04591021679193" lon="6.166382786315569"><ele>537.0</ele><time>2026-04-21T05:45:06Z</time></trkpt><trkpt lat="44.04575847263997" lon="6.166418263061593"><ele>537.6666666666666</ele><time>2026-04-21T05:45:07Z</time></trkpt><trkpt lat="44.04561288477446" lon="6.166504340753049"><ele>538.3333333333333</ele><time>2026-04-21T05:45:08Z</time></trkpt><trkpt lat="44.04546654553165" lon="6.1666216646013"><ele>539.0</ele><time>2026-04-21T05:45:09Z</time></trkpt><trkpt lat="44.0453023412238" lon="6.166709753209447"><ele>539.3333333333333</ele><time>2026-04-21T05:45:10Z</time></trkpt><trkpt lat="44.04513630834789" lon="6.166758198415397"><ele>539.6666666666666</ele><time>2026-04-21T05:45:11Z</time></trkpt><trkpt lat="44.044978738982685" lon="6.166806773158806"><ele>540.0</ele><time>2026-04-21T05:45:12Z</time></trkpt><trkpt lat="44.044831646943926" lon="6.166865973892311"><ele>541.0</ele><time>2026-04-21T05:45:13Z</time></trkpt><trkpt lat="44.04469741979705" lon="6.16693435339316"><ele>542.0</ele><time>2026-04-21T05:45:14Z</time></trkpt><trkpt lat="44.04456372214785" lon="6.167018181887449"><ele>543.0</ele><time>2026-04-21T05:45:15Z</time></trkpt><trkpt lat="44.04444025422697" lon="6.1671492502937735"><ele>544.0</ele><time>2026-04-21T05:45:16Z</time></trkpt><trkpt lat="44.044318222619594" lon="6.167262573467952"><ele>544.0</ele><time>2026-04-21T05:45:17Z</time></trkpt><trkpt lat="44.04420795839357" lon="6.167359644290705"><ele>544.0</ele><time>2026-04-21T05:45:18Z</time></trkpt><trkpt lat="44.04409609866" lon="6.1674484684001"><ele>544.0</ele><time>2026-04-21T05:45:19Z</time></trkpt><trkpt lat="44.04397299917091" lon="6.16753830042436"><ele>544.0</ele><time>2026-04-21T05:45:20Z</time></trkpt><trkpt lat="44.043835775114" lon="6.167623276543042"><ele>544.0</ele><time>2026-04-21T05:45:21Z</time></trkpt><trkpt lat="44.043679200980144" lon="6.1676513135745745"><ele>544.0</ele><time>2026-04-21T05:45:22Z</time></trkpt><trkpt lat="44.04351912736693" lon="6.167687659112393"><ele>544.0</ele><time>2026-04-21T05:45:23Z</time></trkpt><trkpt lat="44.04335809533878" lon="6.1677268521558934"><ele>544.3333333333334</ele><time>2026-04-21T05:45:24Z</time></trkpt><trkpt lat="44.04320067577268" lon="6.167786948459034"><ele>544.6666666666666</ele><time>2026-04-21T05:45:25Z</time></trkpt><trkpt lat="44.04306158413031" lon="6.16789753776392"><ele>545.0</ele><time>2026-04-21T05:45:26Z</time></trkpt><trkpt lat="44.04292050336515" lon="6.167993850495167"><ele>545.0</ele><time>2026-04-21T05:45:27Z</time></trkpt><trkpt lat="44.04278540588545" lon="6.168072139000576"><ele>545.0</ele><time>2026-04-21T05:45:28Z</time></trkpt><trkpt lat="44.04263996537996" lon="6.168106324475885"><ele>545.0</ele><time>2026-04-21T05:45:29Z</time></trkpt><trkpt lat="44.04249429679368" lon="6.168178149350825"><ele>545.0</ele><time>2026-04-21T05:45:30Z</time></trkpt><trkpt lat="44.042336130344715" lon="6.168226557986783"><ele>546.3333333333333</ele><time>2026-04-21T05:45:31Z</time></trkpt><trkpt lat="44.04217436652794" lon="6.168263705675576"><ele>547.6666666666666</ele><time>2026-04-21T05:45:32Z</time></trkpt><trkpt lat="44.0420055641398" lon="6.168296652017758"><ele>549.0</ele><time>2026-04-21T05:45:33Z</time></trkpt><trkpt lat="44.04184200412516" lon="6.168329674739513"><ele>549.0</ele><time>2026-04-21T05:45:34Z</time></trkpt><trkpt lat="44.041685931602686" lon="6.168369182603198"><ele>549.0</ele><time>2026-04-21T05:45:35Z</time></trkpt><trkpt lat="44.041534552916495" lon="6.168397524741818"><ele>549.0</ele><time>2026-04-21T05:45:36Z</time></trkpt><trkpt lat="44.04139231867802" lon="6.168408252805406"><ele>549.6666666666666</ele><time>2026-04-21T05:45:37Z</time></trkpt><trkpt lat="44.04123908564476" lon="6.168396520958124"><ele>550.3333333333333</ele><time>2026-04-21T05:45:38Z</time></trkpt><trkpt lat="44.04108636606286" lon="6.168385082165728"><ele>551.0</ele><time>2026-04-21T05:45:39Z</time></trkpt><trkpt lat="44.04093009568242" lon="6.168391255387268"><ele>551.0</ele><time>2026-04-21T05:45:40Z</time></trkpt><trkpt lat="44.04076979751224" lon="6.168384023212909"><ele>551.0</ele><time>2026-04-21T05:45:41Z</time></trkpt><trkpt lat="44.04062276255444" lon="6.168433266744409"><ele>551.0</ele><time>2026-04-21T05:45:42Z</time></trkpt><trkpt lat="44.040475917313614" lon="6.168463349117876"><ele>551.0</ele><time>2026-04-21T05:45:43Z</time></trkpt><trkpt lat="44.04032569397144" lon="6.168512543034563"><ele>551.0</ele><time>2026-04-21T05:45:44Z</time></trkpt><trkpt lat="44.04018084231297" lon="6.168577091820745"><ele>551.0</ele><time>2026-04-21T05:45:45Z</time></trkpt><trkpt lat="44.040037255919174" lon="6.168665077022857"><ele>551.6666666666666</ele><time>2026-04-21T05:45:46Z</time></trkpt><trkpt lat="44.0398941215864" lon="6.168783853650172"><ele>552.3333333333334</ele><time>2026-04-21T05:45:47Z</time></trkpt><trkpt lat="44.03974928022705" lon="6.168910203501435"><ele>553.0</ele><time>2026-04-21T05:45:48Z</time></trkpt><trkpt lat="44.03960445064387" lon="6.169032265096716"><ele>553.3333333333334</ele><time>2026-04-21T05:45:49Z</time></trkpt><trkpt lat="44.03945862484024" lon="6.16914348415231"><ele>553.6666666666666</ele><time>2026-04-21T05:45:50Z</time></trkpt><trkpt lat="44.03931573419896" lon="6.169236803091069"><ele>554.0</ele><time>2026-04-21T05:45:51Z</time></trkpt><trkpt lat="44.039167544153486" lon="6.169332528263555"><ele>555.3333333333333</ele><time>2026-04-21T05:45:52Z</time></trkpt><trkpt lat="44.03901561819037" lon="6.169435422889035"><ele>556.6666666666666</ele><time>2026-04-21T05:45:53Z</time></trkpt><trkpt lat="44.038870499990026" lon="6.1695390336042895"><ele>558.0</ele><time>2026-04-21T05:45:54Z</time></trkpt><trkpt lat="44.03873718331989" lon="6.16963953012629"><ele>558.0</ele><time>2026-04-21T05:45:55Z</time></trkpt><trkpt lat="44.03860462482177" lon="6.16975683762542"><ele>558.0</ele><time>2026-04-21T05:45:56Z</time></trkpt><trkpt lat="44.03847181951573" lon="6.169891910864267"><ele>558.0</ele><time>2026-04-21T05:45:57Z</time></trkpt><trkpt lat="44.03833698109986" lon="6.170033994966294"><ele>560.0</ele><time>2026-04-21T05:45:58Z</time></trkpt><trkpt lat="44.0381998810008" lon="6.170183248825217"><ele>562.0</ele><time>2026-04-21T05:45:59Z</time></trkpt><trkpt lat="44.03805970783925" lon="6.17033879598087"><ele>564.0</ele><time>2026-04-21T05:46:00Z</time></trkpt><trkpt lat="44.03791423747859" lon="6.170498079280387"><ele>564.0</ele><time>2026-04-21T05:46:01Z</time></trkpt><trkpt lat="44.037767241298965" lon="6.170662834139669"><ele>564.0</ele><time>2026-04-21T05:46:02Z</time></trkpt><trkpt lat="44.03761540548976" lon="6.170832421807264"><ele>564.0</ele><time>2026-04-21T05:46:03Z</time></trkpt><trkpt lat="44.03745960869983" lon="6.171003360954145"><ele>564.0</ele><time>2026-04-21T05:46:04Z</time></trkpt><trkpt lat="44.03729915432372" lon="6.171174678910592"><ele>564.0</ele><time>2026-04-21T05:46:05Z</time></trkpt><trkpt lat="44.037138594293566" lon="6.171348023562992"><ele>564.0</ele><time>2026-04-21T05:46:06Z</time></trkpt><trkpt lat="44.03698146425004" lon="6.171521723960235"><ele>563.0</ele><time>2026-04-21T05:46:07Z</time></trkpt><trkpt lat="44.03683279059406" lon="6.171685611678256"><ele>562.0</ele><time>2026-04-21T05:46:08Z</time></trkpt><trkpt lat="44.03668237237389" lon="6.171849701090543"><ele>561.0</ele><time>2026-04-21T05:46:09Z</time></trkpt><trkpt lat="44.03653649747705" lon="6.171995468665736"><ele>562.6666666666666</ele><time>2026-04-21T05:46:10Z</time></trkpt><trkpt lat="44.03639560735765" lon="6.172129540290716"><ele>564.3333333333333</ele><time>2026-04-21T05:46:11Z</time></trkpt><trkpt lat="44.03625419690383" lon="6.172252342180633"><ele>566.0</ele><time>2026-04-21T05:46:12Z</time></trkpt><trkpt lat="44.036110743778906" lon="6.172360081584808"><ele>566.0</ele><time>2026-04-21T05:46:13Z</time></trkpt><trkpt lat="44.03595732784183" lon="6.172446257549768"><ele>566.0</ele><time>2026-04-21T05:46:14Z</time></trkpt><trkpt lat="44.03579384697561" lon="6.172496285431497"><ele>566.0</ele><time>2026-04-21T05:46:15Z</time></trkpt><trkpt lat="44.0356220728793" lon="6.1725193291821725"><ele>567.3333333333333</ele><time>2026-04-21T05:46:16Z</time></trkpt><trkpt lat="44.03545089605946" lon="6.172519059002765"><ele>568.6666666666666</ele><time>2026-04-21T05:46:17Z</time></trkpt><trkpt lat="44.035283554831345" lon="6.172488545929187"><ele>570.0</ele><time>2026-04-21T05:46:18Z</time></trkpt><trkpt lat="44.03511518985691" lon="6.172436599721909"><ele>571.6666666666666</ele><time>2026-04-21T05:46:19Z</time></trkpt><trkpt lat="44.034945069259464" lon="6.17237390040665"><ele>573.3333333333333</ele><time>2026-04-21T05:46:20Z</time></trkpt><trkpt lat="44.03477359704664" lon="6.172308022124418"><ele>575.0</ele><time>2026-04-21T05:46:21Z</time></trkpt><trkpt lat="44.03459658247419" lon="6.172243797167886"><ele>575.3333333333333</ele><time>2026-04-21T05:46:22Z</time></trkpt><trkpt lat="44.03442470684246" lon="6.172180329666293"><ele>575.6666666666666</ele><time>2026-04-21T05:46:23Z</time></trkpt><trkpt lat="44.03425412728232" lon="6.172120956659284"><ele>576.0</ele><time>2026-04-21T05:46:24Z</time></trkpt><trkpt lat="44.03409521080224" lon="6.172067179377883"><ele>576.0</ele><time>2026-04-21T05:46:25Z</time></trkpt><trkpt lat="44.03393794787911" lon="6.172015604057128"><ele>576.0</ele><time>2026-04-21T05:46:26Z</time></trkpt><trkpt lat="44.03377297822983" lon="6.171975389106647"><ele>576.0</ele><time>2026-04-21T05:46:27Z</time></trkpt><trkpt lat="44.03360448591144" lon="6.171947541535071"><ele>576.0</ele><time>2026-04-21T05:46:28Z</time></trkpt><trkpt lat="44.03343438974706" lon="6.171905334304566"><ele>576.0</ele><time>2026-04-21T05:46:29Z</time></trkpt><trkpt lat="44.03326014346101" lon="6.1719191133437885"><ele>576.0</ele><time>2026-04-21T05:46:30Z</time></trkpt><trkpt lat="44.033081459786175" lon="6.171913775883091"><ele>575.3333333333334</ele><time>2026-04-21T05:46:31Z</time></trkpt><trkpt lat="44.03290059516231" lon="6.17192714640762"><ele>574.6666666666667</ele><time>2026-04-21T05:46:32Z</time></trkpt><trkpt lat="44.03271569922924" lon="6.171942018274951"><ele>574.0</ele><time>2026-04-21T05:46:33Z</time></trkpt><trkpt lat="44.03253787351377" lon="6.17195987841425"><ele>575.3333333333334</ele><time>2026-04-21T05:46:34Z</time></trkpt><trkpt lat="44.032363661173406" lon="6.171963421333213"><ele>576.6666666666666</ele><time>2026-04-21T05:46:35Z</time></trkpt><trkpt lat="44.03219965043456" lon="6.1720355215870635"><ele>578.0</ele><time>2026-04-21T05:46:36Z</time></trkpt><trkpt lat="44.03203483794059" lon="6.172109073060809"><ele>578.0</ele><time>2026-04-21T05:46:37Z</time></trkpt><trkpt lat="44.03186933541656" lon="6.172203170727212"><ele>578.0</ele><time>2026-04-21T05:46:38Z</time></trkpt><trkpt lat="44.03170686775035" lon="6.172312562327908"><ele>578.0</ele><time>2026-04-21T05:46:39Z</time></trkpt><trkpt lat="44.031542007520635" lon="6.1724163595551165"><ele>580.0</ele><time>2026-04-21T05:46:40Z</time></trkpt><trkpt lat="44.03137597925564" lon="6.172515048363723"><ele>582.0</ele><time>2026-04-21T05:46:41Z</time></trkpt><trkpt lat="44.03120913155823" lon="6.172608962060785"><ele>584.0</ele><time>2026-04-21T05:46:42Z</time></trkpt><trkpt lat="44.03103499086143" lon="6.1726921782581075"><ele>584.0</ele><time>2026-04-21T05:46:43Z</time></trkpt><trkpt lat="44.03085696432252" lon="6.172754754102873"><ele>584.0</ele><time>2026-04-21T05:46:44Z</time></trkpt><trkpt lat="44.03067541931148" lon="6.1727885661990465"><ele>584.0</ele><time>2026-04-21T05:46:45Z</time></trkpt><trkpt lat="44.03048706896792" lon="6.17279983806291"><ele>585.6666666666666</ele><time>2026-04-21T05:46:46Z</time></trkpt><trkpt lat="44.030294831047605" lon="6.172787515577839"><ele>587.3333333333334</ele><time>2026-04-21T05:46:47Z</time></trkpt><trkpt lat="44.03010258106075" lon="6.172788632491617"><ele>589.0</ele><time>2026-04-21T05:46:48Z</time></trkpt><trkpt lat="44.02991092230552" lon="6.172776245023266"><ele>590.0</ele><time>2026-04-21T05:46:49Z</time></trkpt><trkpt lat="44.029723159292544" lon="6.172761498189964"><ele>591.0</ele><time>2026-04-21T05:46:50Z</time></trkpt><trkpt lat="44.0295376848243" lon="6.172749636481984"><ele>592.0</ele><time>2026-04-21T05:46:51Z</time></trkpt><trkpt lat="44.02936587798144" lon="6.172737569667611"><ele>592.0</ele><time>2026-04-21T05:46:52Z</time></trkpt><trkpt lat="44.0292011889677" lon="6.172708340202785"><ele>592.0</ele><time>2026-04-21T05:46:53Z</time></trkpt><trkpt lat="44.029043963780495" lon="6.172646287780269"><ele>592.0</ele><time>2026-04-21T05:46:54Z</time></trkpt><trkpt lat="44.028894113062556" lon="6.172544025492764"><ele>594.3333333333334</ele><time>2026-04-21T05:46:55Z</time></trkpt><trkpt lat="44.028754362731114" lon="6.172415582857941"><ele>596.6666666666666</ele><time>2026-04-21T05:46:56Z</time></trkpt><trkpt lat="44.02861746448537" lon="6.172272290691552"><ele>599.0</ele><time>2026-04-21T05:46:57Z</time></trkpt><trkpt lat="44.028474929872566" lon="6.17213819483186"><ele>599.0</ele><time>2026-04-21T05:46:58Z</time></trkpt><trkpt lat="44.028326838034154" lon="6.17201047933921"><ele>599.0</ele><time>2026-04-21T05:46:59Z</time></trkpt><trkpt lat="44.02818165814979" lon="6.171872177829309"><ele>599.0</ele><time>2026-04-21T05:47:00Z</time></trkpt><trkpt lat="44.02803208839337" lon="6.171740090719184"><ele>600.3333333333333</ele><time>2026-04-21T05:47:01Z</time></trkpt><trkpt lat="44.02788198171847" lon="6.1716073250409424"><ele>601.6666666666666</ele><time>2026-04-21T05:47:02Z</time></trkpt><trkpt lat="44.02773377852843" lon="6.17146358981819"><ele>603.0</ele><time>2026-04-21T05:47:03Z</time></trkpt><trkpt lat="44.02758283072213" lon="6.171327312044292"><ele>608.0</ele><time>2026-04-21T05:47:04Z</time></trkpt><trkpt lat="44.02744129755686" lon="6.17117229523858"><ele>613.0</ele><time>2026-04-21T05:47:05Z</time></trkpt><trkpt lat="44.02730715647714" lon="6.171007643523258"><ele>618.0</ele><time>2026-04-21T05:47:06Z</time></trkpt><trkpt lat="44.02718160174882" lon="6.170835778013209"><ele>618.0</ele><time>2026-04-21T05:47:07Z</time></trkpt><trkpt lat="44.027054568705054" lon="6.170704140937024"><ele>618.0</ele><time>2026-04-21T05:47:08Z</time></trkpt><trkpt lat="44.0269124140821" lon="6.170626673497865"><ele>618.0</ele><time>2026-04-21T05:47:09Z</time></trkpt><trkpt lat="44.02677321578417" lon="6.170554441231984"><ele>615.6666666666666</ele><time>2026-04-21T05:47:10Z</time></trkpt><trkpt lat="44.02662009201796" lon="6.170512643597318"><ele>613.3333333333333</ele><time>2026-04-21T05:47:11Z</time></trkpt><trkpt lat="44.02646458794248" lon="6.170498324516053"><ele>611.0</ele><time>2026-04-21T05:47:12Z</time></trkpt><trkpt lat="44.026300021620706" lon="6.170493384952992"><ele>611.0</ele><time>2026-04-21T05:47:13Z</time></trkpt><trkpt lat="44.02613267140423" lon="6.170475774286196"><ele>611.0</ele><time>2026-04-21T05:47:14Z</time></trkpt><trkpt lat="44.025967489739756" lon="6.170442526303022"><ele>611.0</ele><time>2026-04-21T05:47:15Z</time></trkpt><trkpt lat="44.025814320958325" lon="6.170482669751227"><ele>611.5</ele><time>2026-04-21T05:47:16Z</time></trkpt><trkpt lat="44.02566860910393" lon="6.170531369342377"><ele>612.0</ele><time>2026-04-21T05:47:17Z</time></trkpt><trkpt lat="44.02554046292136" lon="6.170612909818799"><ele>612.5</ele><time>2026-04-21T05:47:18Z</time></trkpt><trkpt lat="44.025420872019374" lon="6.170729589132188"><ele>613.0</ele><time>2026-04-21T05:47:19Z</time></trkpt><trkpt lat="44.02530679399015" lon="6.170878659106726"><ele>613.6666666666667</ele><time>2026-04-21T05:47:20Z</time></trkpt><trkpt lat="44.02520445152239" lon="6.171051538040214"><ele>614.3333333333334</ele><time>2026-04-21T05:47:21Z</time></trkpt><trkpt lat="44.0251162994438" lon="6.171249212424911"><ele>615.0</ele><time>2026-04-21T05:47:22Z</time></trkpt><trkpt lat="44.02503044521854" lon="6.171454045497824"><ele>616.6666666666666</ele><time>2026-04-21T05:47:23Z</time></trkpt><trkpt lat="44.024937598873414" lon="6.171660298472804"><ele>618.3333333333333</ele><time>2026-04-21T05:47:24Z</time></trkpt><trkpt lat="44.02484863465712" lon="6.17184396136107"><ele>620.0</ele><time>2026-04-21T05:47:25Z</time></trkpt><trkpt lat="44.0247597767477" lon="6.172032877312642"><ele>620.0</ele><time>2026-04-21T05:47:26Z</time></trkpt><trkpt lat="44.024678389980224" lon="6.17222301373235"><ele>620.0</ele><time>2026-04-21T05:47:27Z</time></trkpt><trkpt lat="44.02461801343693" lon="6.172402470592918"><ele>620.0</ele><time>2026-04-21T05:47:28Z</time></trkpt><trkpt lat="44.0245875060554" lon="6.172595997760473"><ele>620.0</ele><time>2026-04-21T05:47:29Z</time></trkpt><trkpt lat="44.02457026920364" lon="6.172799434480776"><ele>619.75</ele><time>2026-04-21T05:47:30Z</time></trkpt><trkpt lat="44.02460363671603" lon="6.173017830054706"><ele>619.5</ele><time>2026-04-21T05:47:31Z</time></trkpt><trkpt lat="44.02461783676173" lon="6.173216957074158"><ele>619.25</ele><time>2026-04-21T05:47:32Z</time></trkpt><trkpt lat="44.02458340829577" lon="6.1733395268789755"><ele>619.0</ele><time>2026-04-21T05:47:33Z</time></trkpt><trkpt lat="44.02452583886266" lon="6.1733880371876815"><ele>619.5</ele><time>2026-04-21T05:47:34Z</time></trkpt><trkpt lat="44.024459533406684" lon="6.1734982125359865"><ele>620.0</ele><time>2026-04-21T05:47:35Z</time></trkpt><trkpt lat="44.024389291015616" lon="6.173627999470598"><ele>620.5</ele><time>2026-04-21T05:47:36Z</time></trkpt><trkpt lat="44.02432422715013" lon="6.173764686627424"><ele>621.0</ele><time>2026-04-21T05:47:37Z</time></trkpt><trkpt lat="44.024249252098755" lon="6.173923694349266"><ele>622.0</ele><time>2026-04-21T05:47:38Z</time></trkpt><trkpt lat="44.02417022042259" lon="6.174093524449092"><ele>623.0</ele><time>2026-04-21T05:47:39Z</time></trkpt><trkpt lat="44.02408986954071" lon="6.174267228940692"><ele>624.0</ele><time>2026-04-21T05:47:40Z</time></trkpt><trkpt lat="44.024005270338385" lon="6.174453098694419"><ele>624.0</ele><time>2026-04-21T05:47:41Z</time></trkpt><trkpt lat="44.02392496638148" lon="6.174630106165995"><ele>624.0</ele><time>2026-04-21T05:47:42Z</time></trkpt><trkpt lat="44.0238553833811" lon="6.174811349685269"><ele>624.0</ele><time>2026-04-21T05:47:43Z</time></trkpt><trkpt lat="44.023769072294776" lon="6.174990898962515"><ele>626.3333333333334</ele><time>2026-04-21T05:47:44Z</time></trkpt><trkpt lat="44.02368751929687" lon="6.175181070715501"><ele>628.6666666666667</ele><time>2026-04-21T05:47:45Z</time></trkpt><trkpt lat="44.02358772758344" lon="6.175358816278878"><ele>631.0</ele><time>2026-04-21T05:47:46Z</time></trkpt><trkpt lat="44.023511411529505" lon="6.17556165648556"><ele>630.3333333333334</ele><time>2026-04-21T05:47:47Z</time></trkpt><trkpt lat="44.023419825174706" lon="6.175755264370428"><ele>629.6666666666666</ele><time>2026-04-21T05:47:48Z</time></trkpt><trkpt lat="44.02332918843645" lon="6.175948775126704"><ele>629.0</ele><time>2026-04-21T05:47:49Z</time></trkpt><trkpt lat="44.02323533020339" lon="6.176143206493071"><ele>629.0</ele><time>2026-04-21T05:47:50Z</time></trkpt><trkpt lat="44.02314165549695" lon="6.1763298145128305"><ele>629.0</ele><time>2026-04-21T05:47:51Z</time></trkpt><trkpt lat="44.023041316945644" lon="6.176524547533346"><ele>629.0</ele><time>2026-04-21T05:47:52Z</time></trkpt><trkpt lat="44.022935924247996" lon="6.1767200618152"><ele>631.3333333333333</ele><time>2026-04-21T05:47:53Z</time></trkpt><trkpt lat="44.022830029257165" lon="6.176906005100471"><ele>633.6666666666666</ele><time>2026-04-21T05:47:54Z</time></trkpt><trkpt lat="44.02271513886303" lon="6.177083573614952"><ele>636.0</ele><time>2026-04-21T05:47:55Z</time></trkpt><trkpt lat="44.022645683153485" lon="6.17729114806557"><ele>637.0</ele><time>2026-04-21T05:47:56Z</time></trkpt><trkpt lat="44.022573601820405" lon="6.177455992344391"><ele>638.0</ele><time>2026-04-21T05:47:57Z</time></trkpt><trkpt lat="44.02249391260863" lon="6.177596264719954"><ele>639.0</ele><time>2026-04-21T05:47:58Z</time></trkpt><trkpt lat="44.022383437461805" lon="6.177721838765295"><ele>640.0</ele><time>2026-04-21T05:47:59Z</time></trkpt><trkpt lat="44.02225392170547" lon="6.177819646678982"><ele>640.0</ele><time>2026-04-21T05:48:00Z</time></trkpt><trkpt lat="44.02211282811678" lon="6.177905865981222"><ele>640.0</ele><time>2026-04-21T05:48:01Z</time></trkpt><trkpt lat="44.02196272896958" lon="6.1779911134274315"><ele>640.0</ele><time>2026-04-21T05:48:02Z</time></trkpt><trkpt lat="44.021813939674715" lon="6.178089461559988"><ele>641.0</ele><time>2026-04-21T05:48:03Z</time></trkpt><trkpt lat="44.021662588417044" lon="6.178206734903627"><ele>642.0</ele><time>2026-04-21T05:48:04Z</time></trkpt><trkpt lat="44.021510746137295" lon="6.178337260084018"><ele>643.0</ele><time>2026-04-21T05:48:05Z</time></trkpt><trkpt lat="44.021357280007166" lon="6.1784748925390005"><ele>643.0</ele><time>2026-04-21T05:48:06Z</time></trkpt><trkpt lat="44.02120575729047" lon="6.178610525226309"><ele>643.0</ele><time>2026-04-21T05:48:07Z</time></trkpt><trkpt lat="44.021051791969455" lon="6.178726878797087"><ele>643.0</ele><time>2026-04-21T05:48:08Z</time></trkpt><trkpt lat="44.02088749087384" lon="6.178822185720989"><ele>643.3333333333334</ele><time>2026-04-21T05:48:09Z</time></trkpt><trkpt lat="44.02071527765676" lon="6.178877932812626"><ele>643.6666666666666</ele><time>2026-04-21T05:48:10Z</time></trkpt><trkpt lat="44.02054138135323" lon="6.17892896256835"><ele>644.0</ele><time>2026-04-21T05:48:11Z</time></trkpt><trkpt lat="44.02036899994674" lon="6.1789957907804345"><ele>646.3333333333333</ele><time>2026-04-21T05:48:12Z</time></trkpt><trkpt lat="44.02019464288067" lon="6.179043159633019"><ele>648.6666666666666</ele><time>2026-04-21T05:48:13Z</time></trkpt><trkpt lat="44.020019247446" lon="6.179093183510138"><ele>651.0</ele><time>2026-04-21T05:48:14Z</time></trkpt><trkpt lat="44.01984024520655" lon="6.1791229219718495"><ele>652.0</ele><time>2026-04-21T05:48:15Z</time></trkpt><trkpt lat="44.01965543522177" lon="6.1791282658360025"><ele>653.0</ele><time>2026-04-21T05:48:16Z</time></trkpt><trkpt lat="44.01946703677983" lon="6.179121509123404"><ele>654.0</ele><time>2026-04-21T05:48:17Z</time></trkpt><trkpt lat="44.01927160480371" lon="6.179110940741564"><ele>654.0</ele><time>2026-04-21T05:48:18Z</time></trkpt><trkpt lat="44.01908084019695" lon="6.1790786236408906"><ele>654.0</ele><time>2026-04-21T05:48:19Z</time></trkpt><trkpt lat="44.018901663648975" lon="6.179077409470623"><ele>654.0</ele><time>2026-04-21T05:48:20Z</time></trkpt><trkpt lat="44.018717823762856" lon="6.179078025505537"><ele>654.0</ele><time>2026-04-21T05:48:21Z</time></trkpt><trkpt lat="44.01853286474632" lon="6.17908910358399"><ele>654.0</ele><time>2026-04-21T05:48:22Z</time></trkpt><trkpt lat="44.01835693178781" lon="6.179062292806156"><ele>654.0</ele><time>2026-04-21T05:48:23Z</time></trkpt><trkpt lat="44.018196235651416" lon="6.179022725163019"><ele>653.6666666666666</ele><time>2026-04-21T05:48:24Z</time></trkpt><trkpt lat="44.01803959626917" lon="6.1789720390375615"><ele>653.3333333333333</ele><time>2026-04-21T05:48:25Z</time></trkpt><trkpt lat="44.0178980434841" lon="6.1789192692121"><ele>653.0</ele><time>2026-04-21T05:48:26Z</time></trkpt><trkpt lat="44.017760410903136" lon="6.178855722562142"><ele>653.0</ele><time>2026-04-21T05:48:27Z</time></trkpt><trkpt lat="44.01761238949678" lon="6.17883107910539"><ele>653.0</ele><time>2026-04-21T05:48:28Z</time></trkpt><trkpt lat="44.017454691329576" lon="6.178844119251893"><ele>653.0</ele><time>2026-04-21T05:48:29Z</time></trkpt><trkpt lat="44.01729095774377" lon="6.178870800481365"><ele>653.6666666666666</ele><time>2026-04-21T05:48:30Z</time></trkpt><trkpt lat="44.017121476112486" lon="6.178904732181347"><ele>654.3333333333334</ele><time>2026-04-21T05:48:31Z</time></trkpt><trkpt lat="44.01694522058756" lon="6.178943535272452"><ele>655.0</ele><time>2026-04-21T05:48:32Z</time></trkpt><trkpt lat="44.01678370583267" lon="6.178985764571128"><ele>656.0</ele><time>2026-04-21T05:48:33Z</time></trkpt><trkpt lat="44.01662665433878" lon="6.1790507525660265"><ele>657.0</ele><time>2026-04-21T05:48:34Z</time></trkpt><trkpt lat="44.016473163109104" lon="6.179163902055464"><ele>658.0</ele><time>2026-04-21T05:48:35Z</time></trkpt><trkpt lat="44.01631824135839" lon="6.179275688867862"><ele>658.0</ele><time>2026-04-21T05:48:36Z</time></trkpt><trkpt lat="44.01616829888341" lon="6.179405047441109"><ele>658.0</ele><time>2026-04-21T05:48:37Z</time></trkpt><trkpt lat="44.016030877593344" lon="6.179549147744322"><ele>658.0</ele><time>2026-04-21T05:48:38Z</time></trkpt><trkpt lat="44.01590616627582" lon="6.179718438958046"><ele>657.3333333333334</ele><time>2026-04-21T05:48:39Z</time></trkpt><trkpt lat="44.015779274202714" lon="6.17989636581754"><ele>656.6666666666666</ele><time>2026-04-21T05:48:40Z</time></trkpt><trkpt lat="44.01564663315988" lon="6.180073830753842"><ele>656.0</ele><time>2026-04-21T05:48:41Z</time></trkpt><trkpt lat="44.01551120684952" lon="6.180252281958444"><ele>656.0</ele><time>2026-04-21T05:48:42Z</time></trkpt><trkpt lat="44.01537382752557" lon="6.18043129883578"><ele>656.0</ele><time>2026-04-21T05:48:43Z</time></trkpt><trkpt lat="44.01523701306087" lon="6.180610342611803"><ele>656.0</ele><time>2026-04-21T05:48:44Z</time></trkpt><trkpt lat="44.015106636426445" lon="6.180778027766395"><ele>656.6666666666666</ele><time>2026-04-21T05:48:45Z</time></trkpt><trkpt lat="44.01497350967913" lon="6.180948766096776"><ele>657.3333333333334</ele><time>2026-04-21T05:48:46Z</time></trkpt><trkpt lat="44.01483917745424" lon="6.181123104648733"><ele>658.0</ele><time>2026-04-21T05:48:47Z</time></trkpt><trkpt lat="44.014704408514426" lon="6.181299818621706"><ele>658.0</ele><time>2026-04-21T05:48:48Z</time></trkpt><trkpt lat="44.01457063769302" lon="6.181470081244615"><ele>658.0</ele><time>2026-04-21T05:48:49Z</time></trkpt><trkpt lat="44.01444692033031" lon="6.181631266832333"><ele>658.0</ele><time>2026-04-21T05:48:50Z</time></trkpt><trkpt lat="44.01432343428399" lon="6.18180660811491"><ele>658.0</ele><time>2026-04-21T05:48:51Z</time></trkpt><trkpt lat="44.01420420305296" lon="6.182001501976502"><ele>658.0</ele><time>2026-04-21T05:48:52Z</time></trkpt><trkpt lat="44.01408865506494" lon="6.182215037585601"><ele>658.0</ele><time>2026-04-21T05:48:53Z</time></trkpt><trkpt lat="44.0139733057582" lon="6.182431471208368"><ele>656.6666666666667</ele><time>2026-04-21T05:48:54Z</time></trkpt><trkpt lat="44.01385585582358" lon="6.1826481095462755"><ele>655.3333333333334</ele><time>2026-04-21T05:48:55Z</time></trkpt><trkpt lat="44.01373854095059" lon="6.182867097715727"><ele>654.0</ele><time>2026-04-21T05:48:56Z</time></trkpt><trkpt lat="44.01362216393432" lon="6.183091628088289"><ele>654.0</ele><time>2026-04-21T05:48:57Z</time></trkpt><trkpt lat="44.01350516331124" lon="6.183315675916156"><ele>654.0</ele><time>2026-04-21T05:48:58Z</time></trkpt><trkpt lat="44.01339156949945" lon="6.183524067347406"><ele>654.0</ele><time>2026-04-21T05:48:59Z</time></trkpt><trkpt lat="44.01327781791591" lon="6.183739417154743"><ele>652.6666666666666</ele><time>2026-04-21T05:49:00Z</time></trkpt><trkpt lat="44.0131672721874" lon="6.1839643460100024"><ele>651.3333333333333</ele><time>2026-04-21T05:49:01Z</time></trkpt><trkpt lat="44.01306146593671" lon="6.184178657690365"><ele>650.0</ele><time>2026-04-21T05:49:02Z</time></trkpt><trkpt lat="44.0129468908729" lon="6.184380842118415"><ele>649.0</ele><time>2026-04-21T05:49:03Z</time></trkpt><trkpt lat="44.0128549722641" lon="6.184600495372728"><ele>648.0</ele><time>2026-04-21T05:49:04Z</time></trkpt><trkpt lat="44.012772865956826" lon="6.184835760850201"><ele>647.0</ele><time>2026-04-21T05:49:05Z</time></trkpt><trkpt lat="44.01270243335682" lon="6.185086243289883"><ele>645.6666666666666</ele><time>2026-04-21T05:49:06Z</time></trkpt><trkpt lat="44.012615827882435" lon="6.185341167097926"><ele>644.3333333333334</ele><time>2026-04-21T05:49:07Z</time></trkpt><trkpt lat="44.012514435437495" lon="6.185588913131348"><ele>643.0</ele><time>2026-04-21T05:49:08Z</time></trkpt><trkpt lat="44.012445801471905" lon="6.185840872297781"><ele>641.6666666666667</ele><time>2026-04-21T05:49:09Z</time></trkpt><trkpt lat="44.0123617696304" lon="6.186088925750343"><ele>640.3333333333334</ele><time>2026-04-21T05:49:10Z</time></trkpt><trkpt lat="44.01227737130586" lon="6.186336814181531"><ele>639.0</ele><time>2026-04-21T05:49:11Z</time></trkpt><trkpt lat="44.012197262192316" lon="6.18657391184879"><ele>638.6666666666666</ele><time>2026-04-21T05:49:12Z</time></trkpt><trkpt lat="44.01211603857481" lon="6.186806278403504"><ele>638.3333333333333</ele><time>2026-04-21T05:49:13Z</time></trkpt><trkpt lat="44.01203533082997" lon="6.187027621275595"><ele>638.0</ele><time>2026-04-21T05:49:14Z</time></trkpt><trkpt lat="44.011965716450746" lon="6.187221378798696"><ele>637.5</ele><time>2026-04-21T05:49:15Z</time></trkpt><trkpt lat="44.01189577682693" lon="6.187419220297789"><ele>637.0</ele><time>2026-04-21T05:49:16Z</time></trkpt><trkpt lat="44.01183761535606" lon="6.187582796777469"><ele>636.5</ele><time>2026-04-21T05:49:17Z</time></trkpt><trkpt lat="44.011785264806164" lon="6.187712336295495"><ele>636.0</ele><time>2026-04-21T05:49:18Z</time></trkpt><trkpt lat="44.01171817551929" lon="6.187832044742029"><ele>634.25</ele><time>2026-04-21T05:49:19Z</time></trkpt><trkpt lat="44.0116174824763" lon="6.187946095500489"><ele>632.5</ele><time>2026-04-21T05:49:20Z</time></trkpt><trkpt lat="44.01149530235158" lon="6.188033828964928"><ele>630.75</ele><time>2026-04-21T05:49:21Z</time></trkpt><trkpt lat="44.011373792912494" lon="6.188153953943869"><ele>629.0</ele><time>2026-04-21T05:49:22Z</time></trkpt><trkpt lat="44.011252471845275" lon="6.188256171101829"><ele>628.8</ele><time>2026-04-21T05:49:23Z</time></trkpt><trkpt lat="44.01114391587129" lon="6.188355871542808"><ele>628.5999999999999</ele><time>2026-04-21T05:49:24Z</time></trkpt><trkpt lat="44.01105330259379" lon="6.188440694665563"><ele>628.4</ele><time>2026-04-21T05:49:25Z</time></trkpt><trkpt lat="44.01098239987221" lon="6.188511919409433"><ele>628.1999999999999</ele><time>2026-04-21T05:49:26Z</time></trkpt><trkpt lat="44.010930093362525" lon="6.188576485707062"><ele>628.0</ele><time>2026-04-21T05:49:27Z</time></trkpt><trkpt lat="44.01087804206219" lon="6.188668302752513"><ele>628.0</ele><time>2026-04-21T05:49:28Z</time></trkpt><trkpt lat="44.010840532650704" lon="6.188795662609819"><ele>628.0</ele><time>2026-04-21T05:49:29Z</time></trkpt><trkpt lat="44.010822464282846" lon="6.188952192699935"><ele>628.0</ele><time>2026-04-21T05:49:30Z</time></trkpt><trkpt lat="44.01082088398854" lon="6.18913154294034"><ele>628.0</ele><time>2026-04-21T05:49:31Z</time></trkpt><trkpt lat="44.01083406153837" lon="6.18933152883703"><ele>628.6666666666667</ele><time>2026-04-21T05:49:32Z</time></trkpt><trkpt lat="44.01084587123198" lon="6.189533547537231"><ele>629.3333333333334</ele><time>2026-04-21T05:49:33Z</time></trkpt><trkpt lat="44.01084719007095" lon="6.189769687797995"><ele>630.0</ele><time>2026-04-21T05:49:34Z</time></trkpt><trkpt lat="44.01082988350731" lon="6.190025718161102"><ele>628.3333333333334</ele><time>2026-04-21T05:49:35Z</time></trkpt><trkpt lat="44.01080866997807" lon="6.190285503942149"><ele>626.6666666666667</ele><time>2026-04-21T05:49:36Z</time></trkpt><trkpt lat="44.01078751284208" lon="6.190555245307502"><ele>625.0</ele><time>2026-04-21T05:49:37Z</time></trkpt><trkpt lat="44.01076740152326" lon="6.190838112747334"><ele>624.3333333333334</ele><time>2026-04-21T05:49:38Z</time></trkpt><trkpt lat="44.010747422414255" lon="6.191125740161166"><ele>623.6666666666666</ele><time>2026-04-21T05:49:39Z</time></trkpt><trkpt lat="44.01072635630263" lon="6.191412329127832"><ele>623.0</ele><time>2026-04-21T05:49:40Z</time></trkpt><trkpt lat="44.0107031949347" lon="6.19169650690768"><ele>621.6666666666666</ele><time>2026-04-21T05:49:41Z</time></trkpt><trkpt lat="44.01067889780575" lon="6.191975688036498"><ele>620.3333333333334</ele><time>2026-04-21T05:49:42Z</time></trkpt><trkpt lat="44.010659330053215" lon="6.192252065258349"><ele>619.0</ele><time>2026-04-21T05:49:43Z</time></trkpt><trkpt lat="44.01064174966114" lon="6.192528582525354"><ele>618.0</ele><time>2026-04-21T05:49:44Z</time></trkpt><trkpt lat="44.01062647084136" lon="6.192791260347017"><ele>617.0</ele><time>2026-04-21T05:49:45Z</time></trkpt><trkpt lat="44.01060950849852" lon="6.19306695849504"><ele>616.0</ele><time>2026-04-21T05:49:46Z</time></trkpt><trkpt lat="44.010594154579024" lon="6.193350292725869"><ele>615.3333333333334</ele><time>2026-04-21T05:49:47Z</time></trkpt><trkpt lat="44.01057459289007" lon="6.193628215981802"><ele>614.6666666666666</ele><time>2026-04-21T05:49:48Z</time></trkpt><trkpt lat="44.01055014791379" lon="6.193915328012521"><ele>614.0</ele><time>2026-04-21T05:49:49Z</time></trkpt><trkpt lat="44.01051342533707" lon="6.194202812787327"><ele>613.0</ele><time>2026-04-21T05:49:50Z</time></trkpt><trkpt lat="44.010450372093494" lon="6.194484934576862"><ele>612.0</ele><time>2026-04-21T05:49:51Z</time></trkpt><trkpt lat="44.010407661959974" lon="6.1947756609925175"><ele>611.0</ele><time>2026-04-21T05:49:52Z</time></trkpt><trkpt lat="44.010345597735146" lon="6.1950587654190175"><ele>610.6666666666666</ele><time>2026-04-21T05:49:53Z</time></trkpt><trkpt lat="44.01028352747135" lon="6.1953439638122525"><ele>610.3333333333334</ele><time>2026-04-21T05:49:54Z</time></trkpt><trkpt lat="44.0102201656358" lon="6.195631757847754"><ele>610.0</ele><time>2026-04-21T05:49:55Z</time></trkpt><trkpt lat="44.010160444892264" lon="6.195916888246295"><ele>610.6666666666667</ele><time>2026-04-21T05:49:56Z</time></trkpt><trkpt lat="44.010104241781065" lon="6.196203415273185"><ele>611.3333333333334</ele><time>2026-04-21T05:49:57Z</time></trkpt><trkpt lat="44.010053074855996" lon="6.196490584570664"><ele>612.0</ele><time>2026-04-21T05:49:58Z</time></trkpt><trkpt lat="44.01001055636164" lon="6.19677819343303"><ele>610.0</ele><time>2026-04-21T05:49:59Z</time></trkpt><trkpt lat="44.00997647676001" lon="6.197066192753976"><ele>608.0</ele><time>2026-04-21T05:50:00Z</time></trkpt><trkpt lat="44.00994839078279" lon="6.197344960900657"><ele>606.0</ele><time>2026-04-21T05:50:01Z</time></trkpt><trkpt lat="44.00992251755364" lon="6.19760317717595"><ele>605.75</ele><time>2026-04-21T05:50:02Z</time></trkpt><trkpt lat="44.00989151949309" lon="6.197829852474604"><ele>605.5</ele><time>2026-04-21T05:50:03Z</time></trkpt><trkpt lat="44.00986443507317" lon="6.198027028594551"><ele>605.25</ele><time>2026-04-21T05:50:04Z</time></trkpt><trkpt lat="44.00984364835262" lon="6.198192750039409"><ele>605.0</ele><time>2026-04-21T05:50:05Z</time></trkpt><trkpt lat="44.00982109161714" lon="6.198316996717412"><ele>605.0</ele><time>2026-04-21T05:50:06Z</time></trkpt><trkpt lat="44.00978395327146" lon="6.198404948561185"><ele>605.0</ele><time>2026-04-21T05:50:07Z</time></trkpt><trkpt lat="44.009735836363674" lon="6.198464892440015"><ele>605.0</ele><time>2026-04-21T05:50:08Z</time></trkpt><trkpt lat="44.00967328425601" lon="6.198496050450346"><ele>605.0</ele><time>2026-04-21T05:50:09Z</time></trkpt><trkpt lat="44.00959573360894" lon="6.198503920348508"><ele>605.0</ele><time>2026-04-21T05:50:10Z</time></trkpt><trkpt lat="44.00951193509686" lon="6.198456509425899"><ele>605.0</ele><time>2026-04-21T05:50:11Z</time></trkpt><trkpt lat="44.00941865918492" lon="6.198383248686627"><ele>605.0</ele><time>2026-04-21T05:50:12Z</time></trkpt><trkpt lat="44.00931245964328" lon="6.198302719856845"><ele>605.0</ele><time>2026-04-21T05:50:13Z</time></trkpt><trkpt lat="44.00918552378518" lon="6.198217262500446"><ele>605.0</ele><time>2026-04-21T05:50:14Z</time></trkpt><trkpt lat="44.009052568034804" lon="6.198113345444971"><ele>605.0</ele><time>2026-04-21T05:50:15Z</time></trkpt><trkpt lat="44.00891068047379" lon="6.198015792724628"><ele>607.75</ele><time>2026-04-21T05:50:16Z</time></trkpt><trkpt lat="44.00877210862669" lon="6.1979354222199525"><ele>610.5</ele><time>2026-04-21T05:50:17Z</time></trkpt><trkpt lat="44.00864517512738" lon="6.197891804705558"><ele>613.25</ele><time>2026-04-21T05:50:18Z</time></trkpt><trkpt lat="44.00853590633144" lon="6.197879518530008"><ele>616.0</ele><time>2026-04-21T05:50:19Z</time></trkpt><trkpt lat="44.008445076499534" lon="6.19789123110475"><ele>616.0</ele><time>2026-04-21T05:50:20Z</time></trkpt><trkpt lat="44.00834876699397" lon="6.197939842806301"><ele>616.0</ele><time>2026-04-21T05:50:21Z</time></trkpt><trkpt lat="44.00825112890404" lon="6.198024544467893"><ele>616.0</ele><time>2026-04-21T05:50:22Z</time></trkpt><trkpt lat="44.00816038800972" lon="6.198149023928494"><ele>616.0</ele><time>2026-04-21T05:50:23Z</time></trkpt><trkpt lat="44.0080762720321" lon="6.198308746293824"><ele>616.3333333333334</ele><time>2026-04-21T05:50:24Z</time></trkpt><trkpt lat="44.00799849653391" lon="6.1984990069845125"><ele>616.6666666666666</ele><time>2026-04-21T05:50:25Z</time></trkpt><trkpt lat="44.00791483336376" lon="6.198710563142781"><ele>617.0</ele><time>2026-04-21T05:50:26Z</time></trkpt><trkpt lat="44.007808834842855" lon="6.198919879514064"><ele>613.0</ele><time>2026-04-21T05:50:27Z</time></trkpt><trkpt lat="44.00771607187961" lon="6.199133207329629"><ele>609.0</ele><time>2026-04-21T05:50:28Z</time></trkpt><trkpt lat="44.007649291897145" lon="6.199351136651713"><ele>605.0</ele><time>2026-04-21T05:50:29Z</time></trkpt><trkpt lat="44.007569504939326" lon="6.199548315790525"><ele>605.0</ele><time>2026-04-21T05:50:30Z</time></trkpt><trkpt lat="44.00750110988475" lon="6.199720195464092"><ele>605.0</ele><time>2026-04-21T05:50:31Z</time></trkpt><trkpt lat="44.00742937653039" lon="6.199888126962743"><ele>605.0</ele><time>2026-04-21T05:50:32Z</time></trkpt><trkpt lat="44.007349311555" lon="6.200035314792059"><ele>605.0</ele><time>2026-04-21T05:50:33Z</time></trkpt><trkpt lat="44.00725694116023" lon="6.200161356311465"><ele>605.0</ele><time>2026-04-21T05:50:34Z</time></trkpt><trkpt lat="44.0071618912903" lon="6.200273485218133"><ele>605.0</ele><time>2026-04-21T05:50:35Z</time></trkpt><trkpt lat="44.007052549020855" lon="6.200380254415288"><ele>605.0</ele><time>2026-04-21T05:50:36Z</time></trkpt><trkpt lat="44.00692439533939" lon="6.200482311434044"><ele>605.0</ele><time>2026-04-21T05:50:37Z</time></trkpt><trkpt lat="44.006784124255425" lon="6.200586250353824"><ele>601.5</ele><time>2026-04-21T05:50:38Z</time></trkpt><trkpt lat="44.00665274542927" lon="6.200682938461914"><ele>598.0</ele><time>2026-04-21T05:50:39Z</time></trkpt><trkpt lat="44.00653692751651" lon="6.200752146408402"><ele>594.5</ele><time>2026-04-21T05:50:40Z</time></trkpt><trkpt lat="44.00642041886831" lon="6.200791506659871"><ele>591.0</ele><time>2026-04-21T05:50:41Z</time></trkpt><trkpt lat="44.006288825592506" lon="6.200792805894008"><ele>591.0</ele><time>2026-04-21T05:50:42Z</time></trkpt><trkpt lat="44.00615239742714" lon="6.200771863545357"><ele>591.0</ele><time>2026-04-21T05:50:43Z</time></trkpt><trkpt lat="44.00601664250404" lon="6.200725391405197"><ele>591.0</ele><time>2026-04-21T05:50:44Z</time></trkpt><trkpt lat="44.00590337364443" lon="6.200667718475092"><ele>591.0</ele><time>2026-04-21T05:50:45Z</time></trkpt><trkpt lat="44.00580479871444" lon="6.200644543337208"><ele>591.0</ele><time>2026-04-21T05:50:46Z</time></trkpt><trkpt lat="44.00572130850634" lon="6.200654226581253"><ele>591.0</ele><time>2026-04-21T05:50:47Z</time></trkpt><trkpt lat="44.00564969223112" lon="6.2006896735552965"><ele>591.0</ele><time>2026-04-21T05:50:48Z</time></trkpt><trkpt lat="44.0055786774956" lon="6.200734657540724"><ele>591.0</ele><time>2026-04-21T05:50:49Z</time></trkpt><trkpt lat="44.00551764899076" lon="6.20078295703157"><ele>591.0</ele><time>2026-04-21T05:50:50Z</time></trkpt><trkpt lat="44.0054257843109" lon="6.200873660984662"><ele>591.0</ele><time>2026-04-21T05:50:52Z</time></trkpt><trkpt lat="44.0054299370691" lon="6.201018468039506"><ele>591.0</ele><time>2026-04-21T05:50:54Z</time></trkpt><trkpt lat="44.005488292311064" lon="6.201081749093142"><ele>591.0</ele><time>2026-04-21T05:50:55Z</time></trkpt><trkpt lat="44.00556952175856" lon="6.201122874455803"><ele>591.0</ele><time>2026-04-21T05:50:56Z</time></trkpt><trkpt lat="44.005668874506426" lon="6.201169448675988"><ele>591.0</ele><time>2026-04-21T05:50:57Z</time></trkpt><trkpt lat="44.0057739941277" lon="6.201258755554346"><ele>591.0</ele><time>2026-04-21T05:50:58Z</time></trkpt><trkpt lat="44.00588355809297" lon="6.201365486784434"><ele>591.0</ele><time>2026-04-21T05:50:59Z</time></trkpt><trkpt lat="44.005996319308935" lon="6.201485020470016"><ele>591.0</ele><time>2026-04-21T05:51:00Z</time></trkpt><trkpt lat="44.0061193415725" lon="6.2016189276651215"><ele>591.0</ele><time>2026-04-21T05:51:01Z</time></trkpt><trkpt lat="44.00624795005793" lon="6.201763941066538"><ele>588.0</ele><time>2026-04-21T05:51:02Z</time></trkpt><trkpt lat="44.00638077215964" lon="6.2019209711375725"><ele>585.0</ele><time>2026-04-21T05:51:03Z</time></trkpt><trkpt lat="44.00651568329348" lon="6.202076186740917"><ele>582.0</ele><time>2026-04-21T05:51:04Z</time></trkpt><trkpt lat="44.00665904914419" lon="6.202237827358495"><ele>582.6666666666666</ele><time>2026-04-21T05:51:05Z</time></trkpt><trkpt lat="44.00680843788162" lon="6.202408376313063"><ele>583.3333333333333</ele><time>2026-04-21T05:51:06Z</time></trkpt><trkpt lat="44.0069634962245" lon="6.2025873920979215"><ele>584.0</ele><time>2026-04-21T05:51:07Z</time></trkpt><trkpt lat="44.00712155585394" lon="6.202773591823464"><ele>584.0</ele><time>2026-04-21T05:51:08Z</time></trkpt><trkpt lat="44.00727155498735" lon="6.202960101304286"><ele>584.0</ele><time>2026-04-21T05:51:09Z</time></trkpt><trkpt lat="44.007424133851565" lon="6.203161334511197"><ele>584.0</ele><time>2026-04-21T05:51:10Z</time></trkpt><trkpt lat="44.0075760084997" lon="6.203368880113884"><ele>585.6666666666666</ele><time>2026-04-21T05:51:11Z</time></trkpt><trkpt lat="44.007724275059275" lon="6.203574711148751"><ele>587.3333333333334</ele><time>2026-04-21T05:51:12Z</time></trkpt><trkpt lat="44.007867083395205" lon="6.203784155590469"><ele>589.0</ele><time>2026-04-21T05:51:13Z</time></trkpt><trkpt lat="44.00800366134994" lon="6.203984434838223"><ele>590.6666666666667</ele><time>2026-04-21T05:51:14Z</time></trkpt><trkpt lat="44.00814588293286" lon="6.20418348534956"><ele>592.3333333333334</ele><time>2026-04-21T05:51:15Z</time></trkpt><trkpt lat="44.008290589993955" lon="6.204383676747955"><ele>594.0</ele><time>2026-04-21T05:51:16Z</time></trkpt><trkpt lat="44.00843893587623" lon="6.204578515592445"><ele>594.0</ele><time>2026-04-21T05:51:17Z</time></trkpt><trkpt lat="44.00859281693121" lon="6.2047627093736315"><ele>594.0</ele><time>2026-04-21T05:51:18Z</time></trkpt><trkpt lat="44.00875076142994" lon="6.2049411250476245"><ele>594.0</ele><time>2026-04-21T05:51:19Z</time></trkpt><trkpt lat="44.00891038348775" lon="6.205112959194067"><ele>591.3333333333334</ele><time>2026-04-21T05:51:20Z</time></trkpt><trkpt lat="44.00907215845606" lon="6.205276908397991"><ele>588.6666666666667</ele><time>2026-04-21T05:51:21Z</time></trkpt><trkpt lat="44.00923579046523" lon="6.205428023989863"><ele>586.0</ele><time>2026-04-21T05:51:22Z</time></trkpt><trkpt lat="44.00939767613867" lon="6.2055727913556895"><ele>587.3333333333334</ele><time>2026-04-21T05:51:23Z</time></trkpt><trkpt lat="44.00955748773103" lon="6.205715005052868"><ele>588.6666666666666</ele><time>2026-04-21T05:51:24Z</time></trkpt><trkpt lat="44.009715042823075" lon="6.205855370498425"><ele>590.0</ele><time>2026-04-21T05:51:25Z</time></trkpt><trkpt lat="44.00987134376143" lon="6.2059962108989675"><ele>594.0</ele><time>2026-04-21T05:51:26Z</time></trkpt><trkpt lat="44.01001757281155" lon="6.20613178320093"><ele>598.0</ele><time>2026-04-21T05:51:27Z</time></trkpt><trkpt lat="44.010153365234586" lon="6.206280180632429"><ele>602.0</ele><time>2026-04-21T05:51:28Z</time></trkpt><trkpt lat="44.010277901585184" lon="6.206455819412357"><ele>600.0</ele><time>2026-04-21T05:51:29Z</time></trkpt><trkpt lat="44.01038886559926" lon="6.206635504295641"><ele>598.0</ele><time>2026-04-21T05:51:30Z</time></trkpt><trkpt lat="44.01048527255512" lon="6.206779085319052"><ele>596.0</ele><time>2026-04-21T05:51:31Z</time></trkpt><trkpt lat="44.01059080531984" lon="6.2068995853941376"><ele>594.0</ele><time>2026-04-21T05:51:32Z</time></trkpt><trkpt lat="44.01072330433225" lon="6.207004505935772"><ele>597.3333333333334</ele><time>2026-04-21T05:51:33Z</time></trkpt><trkpt lat="44.01086412424504" lon="6.207102750502897"><ele>600.6666666666667</ele><time>2026-04-21T05:51:34Z</time></trkpt><trkpt lat="44.011013072859726" lon="6.207190850246676"><ele>604.0</ele><time>2026-04-21T05:51:35Z</time></trkpt><trkpt lat="44.01116219952286" lon="6.207267608925436"><ele>604.0</ele><time>2026-04-21T05:51:36Z</time></trkpt><trkpt lat="44.01129207611975" lon="6.207321979830568"><ele>604.0</ele><time>2026-04-21T05:51:37Z</time></trkpt><trkpt lat="44.01140011018883" lon="6.207368944729885"><ele>604.0</ele><time>2026-04-21T05:51:38Z</time></trkpt><trkpt lat="44.011486660050295" lon="6.207436738061795"><ele>604.0</ele><time>2026-04-21T05:51:39Z</time></trkpt><trkpt lat="44.01155340968376" lon="6.2075477425117045"><ele>603.0</ele><time>2026-04-21T05:51:40Z</time></trkpt><trkpt lat="44.01160406092668" lon="6.207684267826725"><ele>602.0</ele><time>2026-04-21T05:51:41Z</time></trkpt><trkpt lat="44.01162889408271" lon="6.207857505423428"><ele>601.0</ele><time>2026-04-21T05:51:42Z</time></trkpt><trkpt lat="44.011635014196095" lon="6.20804257328208"><ele>600.0</ele><time>2026-04-21T05:51:43Z</time></trkpt><trkpt lat="44.011662879177024" lon="6.208209995266658"><ele>602.75</ele><time>2026-04-21T05:51:44Z</time></trkpt><trkpt lat="44.011713206322334" lon="6.2083737268972525"><ele>605.5</ele><time>2026-04-21T05:51:45Z</time></trkpt><trkpt lat="44.01178833538226" lon="6.208543218078776"><ele>608.25</ele><time>2026-04-21T05:51:46Z</time></trkpt><trkpt lat="44.01187868609392" lon="6.2087172207171575"><ele>611.0</ele><time>2026-04-21T05:51:47Z</time></trkpt><trkpt lat="44.011974927745264" lon="6.208899617925985"><ele>611.6666666666666</ele><time>2026-04-21T05:51:48Z</time></trkpt><trkpt lat="44.01207091449021" lon="6.209083267305665"><ele>612.3333333333334</ele><time>2026-04-21T05:51:49Z</time></trkpt><trkpt lat="44.01218260858757" lon="6.209263591436351"><ele>613.0</ele><time>2026-04-21T05:51:50Z</time></trkpt><trkpt lat="44.01230415834286" lon="6.209441965504762"><ele>613.0</ele><time>2026-04-21T05:51:51Z</time></trkpt><trkpt lat="44.01242674485638" lon="6.209615172773112"><ele>613.0</ele><time>2026-04-21T05:51:52Z</time></trkpt><trkpt lat="44.01254438322352" lon="6.209778859002242"><ele>613.0</ele><time>2026-04-21T05:51:53Z</time></trkpt><trkpt lat="44.01265408022736" lon="6.209931160862558"><ele>610.5</ele><time>2026-04-21T05:51:54Z</time></trkpt><trkpt lat="44.012764391199376" lon="6.210053486715634"><ele>608.0</ele><time>2026-04-21T05:51:55Z</time></trkpt><trkpt lat="44.012895958843714" lon="6.21014499055702"><ele>605.5</ele><time>2026-04-21T05:51:56Z</time></trkpt><trkpt lat="44.01304555648634" lon="6.210208724454368"><ele>603.0</ele><time>2026-04-21T05:51:57Z</time></trkpt><trkpt lat="44.013209736146145" lon="6.210236761528969"><ele>605.0</ele><time>2026-04-21T05:51:58Z</time></trkpt><trkpt lat="44.01338183843448" lon="6.210248511139574"><ele>607.0</ele><time>2026-04-21T05:51:59Z</time></trkpt><trkpt lat="44.013550934926144" lon="6.210246638126275"><ele>609.0</ele><time>2026-04-21T05:52:00Z</time></trkpt><trkpt lat="44.01370091157183" lon="6.21026428155707"><ele>609.0</ele><time>2026-04-21T05:52:01Z</time></trkpt><trkpt lat="44.013835564400225" lon="6.210295500460575"><ele>609.0</ele><time>2026-04-21T05:52:02Z</time></trkpt><trkpt lat="44.01395572695962" lon="6.210347625495486"><ele>609.0</ele><time>2026-04-21T05:52:03Z</time></trkpt><trkpt lat="44.01407354276321" lon="6.210440411789162"><ele>609.0</ele><time>2026-04-21T05:52:04Z</time></trkpt><trkpt lat="44.014184294873836" lon="6.21056302976502"><ele>608.25</ele><time>2026-04-21T05:52:05Z</time></trkpt><trkpt lat="44.01428079096511" lon="6.210703416063116"><ele>607.5</ele><time>2026-04-21T05:52:06Z</time></trkpt><trkpt lat="44.01435765722348" lon="6.210862198889055"><ele>606.75</ele><time>2026-04-21T05:52:07Z</time></trkpt><trkpt lat="44.01441553782233" lon="6.21104041158385"><ele>606.0</ele><time>2026-04-21T05:52:08Z</time></trkpt><trkpt lat="44.0144507647412" lon="6.2112305082026005"><ele>606.0</ele><time>2026-04-21T05:52:09Z</time></trkpt><trkpt lat="44.01447958131073" lon="6.21144023749215"><ele>606.0</ele><time>2026-04-21T05:52:10Z</time></trkpt><trkpt lat="44.014505563711666" lon="6.21166023840041"><ele>606.0</ele><time>2026-04-21T05:52:11Z</time></trkpt><trkpt lat="44.01453334177887" lon="6.211893558946045"><ele>606.0</ele><time>2026-04-21T05:52:12Z</time></trkpt><trkpt lat="44.01456591835434" lon="6.212136512334508"><ele>606.0</ele><time>2026-04-21T05:52:13Z</time></trkpt><trkpt lat="44.014601352175" lon="6.2123726419123875"><ele>606.0</ele><time>2026-04-21T05:52:14Z</time></trkpt><trkpt lat="44.01463208603565" lon="6.212581689778878"><ele>606.0</ele><time>2026-04-21T05:52:15Z</time></trkpt><trkpt lat="44.01465412778654" lon="6.212762780642219"><ele>606.0</ele><time>2026-04-21T05:52:16Z</time></trkpt><trkpt lat="44.01466258544357" lon="6.2129285885732735"><ele>606.0</ele><time>2026-04-21T05:52:17Z</time></trkpt><trkpt lat="44.01466600539281" lon="6.213081221865797"><ele>606.0</ele><time>2026-04-21T05:52:18Z</time></trkpt><trkpt lat="44.01466063127127" lon="6.2131986042470535"><ele>606.0</ele><time>2026-04-21T05:52:19Z</time></trkpt><trkpt lat="44.0146718848548" lon="6.213294858108926"><ele>606.0</ele><time>2026-04-21T05:52:21Z</time></trkpt><trkpt lat="44.01450895668789" lon="6.213377413488037"><ele>606.0</ele><time>2026-04-21T05:52:22Z</time></trkpt><trkpt lat="44.01440454899678" lon="6.213410119994911"><ele>606.0</ele><time>2026-04-21T05:52:23Z</time></trkpt><trkpt lat="44.01427926660649" lon="6.213443675229001"><ele>606.0</ele><time>2026-04-21T05:52:24Z</time></trkpt><trkpt lat="44.01413759846858" lon="6.213483974083401"><ele>606.0</ele><time>2026-04-21T05:52:25Z</time></trkpt><trkpt lat="44.013980767828265" lon="6.213529031310075"><ele>606.0</ele><time>2026-04-21T05:52:26Z</time></trkpt><trkpt lat="44.01381144730031" lon="6.213572141877836"><ele>606.0</ele><time>2026-04-21T05:52:27Z</time></trkpt><trkpt lat="44.01363415569774" lon="6.213613004653557"><ele>606.0</ele><time>2026-04-21T05:52:28Z</time></trkpt><trkpt lat="44.013441076040266" lon="6.213650017076951"><ele>606.0</ele><time>2026-04-21T05:52:29Z</time></trkpt><trkpt lat="44.01323692845476" lon="6.213684484992917"><ele>606.0</ele><time>2026-04-21T05:52:30Z</time></trkpt><trkpt lat="44.01303476241015" lon="6.213715811754259"><ele>604.3333333333334</ele><time>2026-04-21T05:52:31Z</time></trkpt><trkpt lat="44.01282784440991" lon="6.213750538597138"><ele>602.6666666666667</ele><time>2026-04-21T05:52:32Z</time></trkpt><trkpt lat="44.01261424743318" lon="6.213784733117037"><ele>601.0</ele><time>2026-04-21T05:52:33Z</time></trkpt><trkpt lat="44.01240409933697" lon="6.21382161683177"><ele>600.3333333333334</ele><time>2026-04-21T05:52:34Z</time></trkpt><trkpt lat="44.012199842362094" lon="6.213866417952918"><ele>599.6666666666666</ele><time>2026-04-21T05:52:35Z</time></trkpt><trkpt lat="44.01199672745456" lon="6.213924026512947"><ele>599.0</ele><time>2026-04-21T05:52:36Z</time></trkpt><trkpt lat="44.01180266462031" lon="6.213992875340775"><ele>596.0</ele><time>2026-04-21T05:52:37Z</time></trkpt><trkpt lat="44.01161148870361" lon="6.214076777797274"><ele>593.0</ele><time>2026-04-21T05:52:38Z</time></trkpt><trkpt lat="44.01142291400002" lon="6.214175142560952"><ele>590.0</ele><time>2026-04-21T05:52:39Z</time></trkpt><trkpt lat="44.011234561927246" lon="6.214282931977677"><ele>590.0</ele><time>2026-04-21T05:52:40Z</time></trkpt><trkpt lat="44.011054863875394" lon="6.21439962291186"><ele>590.0</ele><time>2026-04-21T05:52:41Z</time></trkpt><trkpt lat="44.01088194373532" lon="6.214529609023083"><ele>590.0</ele><time>2026-04-21T05:52:42Z</time></trkpt><trkpt lat="44.01071381681744" lon="6.214675468283249"><ele>590.3333333333333</ele><time>2026-04-21T05:52:43Z</time></trkpt><trkpt lat="44.010552492655115" lon="6.214839108735401"><ele>590.6666666666666</ele><time>2026-04-21T05:52:44Z</time></trkpt><trkpt lat="44.01039561758698" lon="6.215013690317176"><ele>591.0</ele><time>2026-04-21T05:52:45Z</time></trkpt><trkpt lat="44.010243937435554" lon="6.215201466114151"><ele>591.0</ele><time>2026-04-21T05:52:46Z</time></trkpt><trkpt lat="44.01009824610908" lon="6.215399706330215"><ele>591.0</ele><time>2026-04-21T05:52:47Z</time></trkpt><trkpt lat="44.00996361958167" lon="6.215606530104012"><ele>591.0</ele><time>2026-04-21T05:52:48Z</time></trkpt><trkpt lat="44.009844648844634" lon="6.215813971061504"><ele>588.0</ele><time>2026-04-21T05:52:49Z</time></trkpt><trkpt lat="44.009740376543256" lon="6.2160320598404555"><ele>585.0</ele><time>2026-04-21T05:52:50Z</time></trkpt><trkpt lat="44.009648185260566" lon="6.216253284918027"><ele>582.0</ele><time>2026-04-21T05:52:51Z</time></trkpt><trkpt lat="44.00957020342853" lon="6.216483449747552"><ele>582.6666666666666</ele><time>2026-04-21T05:52:52Z</time></trkpt><trkpt lat="44.00951269935113" lon="6.216717150375578"><ele>583.3333333333333</ele><time>2026-04-21T05:52:53Z</time></trkpt><trkpt lat="44.00947226402272" lon="6.216955977601996"><ele>584.0</ele><time>2026-04-21T05:52:54Z</time></trkpt><trkpt lat="44.00944926173984" lon="6.217189138024491"><ele>584.6666666666666</ele><time>2026-04-21T05:52:55Z</time></trkpt><trkpt lat="44.009443876736604" lon="6.217416950248659"><ele>585.3333333333334</ele><time>2026-04-21T05:52:56Z</time></trkpt><trkpt lat="44.00945785405495" lon="6.217644016858294"><ele>586.0</ele><time>2026-04-21T05:52:57Z</time></trkpt><trkpt lat="44.009485607495286" lon="6.217861720472516"><ele>586.0</ele><time>2026-04-21T05:52:58Z</time></trkpt><trkpt lat="44.00953345160447" lon="6.218078837007626"><ele>586.0</ele><time>2026-04-21T05:52:59Z</time></trkpt><trkpt lat="44.0095996148886" lon="6.218290629165721"><ele>586.0</ele><time>2026-04-21T05:53:00Z</time></trkpt><trkpt lat="44.00968401371721" lon="6.218494469071264"><ele>586.0</ele><time>2026-04-21T05:53:01Z</time></trkpt><trkpt lat="44.00977973678992" lon="6.218680843882019"><ele>586.0</ele><time>2026-04-21T05:53:02Z</time></trkpt><trkpt lat="44.00989190417486" lon="6.21885673451934"><ele>586.0</ele><time>2026-04-21T05:53:03Z</time></trkpt><trkpt lat="44.01001555908868" lon="6.219020782112261"><ele>587.6666666666667</ele><time>2026-04-21T05:53:04Z</time></trkpt><trkpt lat="44.01015718624098" lon="6.219166080748386"><ele>589.3333333333334</ele><time>2026-04-21T05:53:05Z</time></trkpt><trkpt lat="44.010312619348646" lon="6.219297582963214"><ele>591.0</ele><time>2026-04-21T05:53:06Z</time></trkpt><trkpt lat="44.01047471659177" lon="6.219426741135649"><ele>591.0</ele><time>2026-04-21T05:53:07Z</time></trkpt><trkpt lat="44.01063640375288" lon="6.219559413656828"><ele>591.0</ele><time>2026-04-21T05:53:08Z</time></trkpt><trkpt lat="44.01079964367528" lon="6.219692484718792"><ele>591.0</ele><time>2026-04-21T05:53:09Z</time></trkpt><trkpt lat="44.01095942692009" lon="6.219833913495323"><ele>591.0</ele><time>2026-04-21T05:53:10Z</time></trkpt><trkpt lat="44.01111555205288" lon="6.219980541911736"><ele>591.0</ele><time>2026-04-21T05:53:11Z</time></trkpt><trkpt lat="44.011268494749594" lon="6.220146061788885"><ele>591.0</ele><time>2026-04-21T05:53:12Z</time></trkpt><trkpt lat="44.011413922981845" lon="6.220325415844277"><ele>591.0</ele><time>2026-04-21T05:53:13Z</time></trkpt><trkpt lat="44.01155407766557" lon="6.22051728904025"><ele>591.0</ele><time>2026-04-21T05:53:14Z</time></trkpt><trkpt lat="44.01169474507388" lon="6.220712754901767"><ele>591.0</ele><time>2026-04-21T05:53:15Z</time></trkpt><trkpt lat="44.01183588091267" lon="6.22090890535984"><ele>592.6666666666666</ele><time>2026-04-21T05:53:16Z</time></trkpt><trkpt lat="44.011978375349535" lon="6.221104250929867"><ele>594.3333333333333</ele><time>2026-04-21T05:53:17Z</time></trkpt><trkpt lat="44.01212179250176" lon="6.221300939438834"><ele>596.0</ele><time>2026-04-21T05:53:18Z</time></trkpt><trkpt lat="44.01226835517943" lon="6.221490716645213"><ele>597.3333333333333</ele><time>2026-04-21T05:53:19Z</time></trkpt><trkpt lat="44.012418386615884" lon="6.221673997075837"><ele>598.6666666666666</ele><time>2026-04-21T05:53:20Z</time></trkpt><trkpt lat="44.01257306165269" lon="6.2218487966988825"><ele>600.0</ele><time>2026-04-21T05:53:21Z</time></trkpt><trkpt lat="44.012721835638054" lon="6.2220179921049175"><ele>600.0</ele><time>2026-04-21T05:53:22Z</time></trkpt><trkpt lat="44.01286388646294" lon="6.222172963799329"><ele>600.0</ele><time>2026-04-21T05:53:23Z</time></trkpt><trkpt lat="44.01301366520499" lon="6.222325561730397"><ele>600.0</ele><time>2026-04-21T05:53:24Z</time></trkpt><trkpt lat="44.013163713113634" lon="6.222474332655729"><ele>602.0</ele><time>2026-04-21T05:53:25Z</time></trkpt><trkpt lat="44.01330635637867" lon="6.222642539825566"><ele>604.0</ele><time>2026-04-21T05:53:26Z</time></trkpt><trkpt lat="44.013443979530074" lon="6.2228244482476835"><ele>606.0</ele><time>2026-04-21T05:53:27Z</time></trkpt><trkpt lat="44.013576480901854" lon="6.2230206113069215"><ele>601.0</ele><time>2026-04-21T05:53:28Z</time></trkpt><trkpt lat="44.01370677833733" lon="6.223224667876629"><ele>596.0</ele><time>2026-04-21T05:53:29Z</time></trkpt><trkpt lat="44.01384051055591" lon="6.223428791361461"><ele>591.0</ele><time>2026-04-21T05:53:30Z</time></trkpt><trkpt lat="44.013976234635926" lon="6.223633233245125"><ele>591.0</ele><time>2026-04-21T05:53:31Z</time></trkpt><trkpt lat="44.014112960994716" lon="6.223839472818094"><ele>591.0</ele><time>2026-04-21T05:53:32Z</time></trkpt><trkpt lat="44.01425422146029" lon="6.224045418273493"><ele>591.0</ele><time>2026-04-21T05:53:33Z</time></trkpt><trkpt lat="44.01439786166564" lon="6.224255062102844"><ele>590.6666666666666</ele><time>2026-04-21T05:53:34Z</time></trkpt><trkpt lat="44.01454308861684" lon="6.224468105652186"><ele>590.3333333333333</ele><time>2026-04-21T05:53:35Z</time></trkpt><trkpt lat="44.01468267376091" lon="6.2246796489126845"><ele>590.0</ele><time>2026-04-21T05:53:36Z</time></trkpt><trkpt lat="44.01482203874802" lon="6.224898556674399"><ele>590.0</ele><time>2026-04-21T05:53:37Z</time></trkpt><trkpt lat="44.01495333251429" lon="6.225126035806499"><ele>590.0</ele><time>2026-04-21T05:53:38Z</time></trkpt><trkpt lat="44.015075057610574" lon="6.225361710374481"><ele>590.0</ele><time>2026-04-21T05:53:39Z</time></trkpt><trkpt lat="44.015188788474454" lon="6.225601277744"><ele>592.6666666666666</ele><time>2026-04-21T05:53:40Z</time></trkpt><trkpt lat="44.01529227982684" lon="6.225832942270309"><ele>595.3333333333334</ele><time>2026-04-21T05:53:41Z</time></trkpt><trkpt lat="44.015386856581536" lon="6.226063131995742"><ele>598.0</ele><time>2026-04-21T05:53:42Z</time></trkpt><trkpt lat="44.01546509741735" lon="6.226307314878884"><ele>597.3333333333334</ele><time>2026-04-21T05:53:43Z</time></trkpt><trkpt lat="44.015530329720406" lon="6.226569061561044"><ele>596.6666666666666</ele><time>2026-04-21T05:53:44Z</time></trkpt><trkpt lat="44.01557510524598" lon="6.22684115222752"><ele>596.0</ele><time>2026-04-21T05:53:45Z</time></trkpt><trkpt lat="44.015601424762174" lon="6.227117679461595"><ele>596.6666666666666</ele><time>2026-04-21T05:53:46Z</time></trkpt><trkpt lat="44.01561401740332" lon="6.227398531395665"><ele>597.3333333333334</ele><time>2026-04-21T05:53:47Z</time></trkpt><trkpt lat="44.01561989339759" lon="6.227682297210642"><ele>598.0</ele><time>2026-04-21T05:53:48Z</time></trkpt><trkpt lat="44.01561837342215" lon="6.2279657514176465"><ele>598.3333333333334</ele><time>2026-04-21T05:53:49Z</time></trkpt><trkpt lat="44.01560612521617" lon="6.228249577415843"><ele>598.6666666666666</ele><time>2026-04-21T05:53:50Z</time></trkpt><trkpt lat="44.01559543718462" lon="6.22853202141453"><ele>599.0</ele><time>2026-04-21T05:53:51Z</time></trkpt><trkpt lat="44.01558224454547" lon="6.228818669255908"><ele>600.0</ele><time>2026-04-21T05:53:52Z</time></trkpt><trkpt lat="44.015561463072686" lon="6.229099870617061"><ele>601.0</ele><time>2026-04-21T05:53:53Z</time></trkpt><trkpt lat="44.01553704534958" lon="6.229380378668166"><ele>602.0</ele><time>2026-04-21T05:53:54Z</time></trkpt><trkpt lat="44.01551404146843" lon="6.22965991704917"><ele>603.0</ele><time>2026-04-21T05:53:55Z</time></trkpt><trkpt lat="44.01549190833871" lon="6.229938386006031"><ele>604.0</ele><time>2026-04-21T05:53:56Z</time></trkpt><trkpt lat="44.01547138362345" lon="6.230216744091076"><ele>605.0</ele><time>2026-04-21T05:53:57Z</time></trkpt><trkpt lat="44.01545111237111" lon="6.230497652299791"><ele>606.0</ele><time>2026-04-21T05:53:58Z</time></trkpt><trkpt lat="44.01543763825519" lon="6.2307746820032035"><ele>607.0</ele><time>2026-04-21T05:53:59Z</time></trkpt><trkpt lat="44.01543120941602" lon="6.231052186893369"><ele>608.0</ele><time>2026-04-21T05:54:00Z</time></trkpt><trkpt lat="44.01543471610045" lon="6.231330088395364"><ele>608.6666666666666</ele><time>2026-04-21T05:54:01Z</time></trkpt><trkpt lat="44.01544722773183" lon="6.231612848599704"><ele>609.3333333333334</ele><time>2026-04-21T05:54:02Z</time></trkpt><trkpt lat="44.01547064346855" lon="6.231893793214351"><ele>610.0</ele><time>2026-04-21T05:54:03Z</time></trkpt><trkpt lat="44.01549697729007" lon="6.232172960487548"><ele>610.6666666666667</ele><time>2026-04-21T05:54:04Z</time></trkpt><trkpt lat="44.01552612735688" lon="6.232452854796798"><ele>611.3333333333334</ele><time>2026-04-21T05:54:05Z</time></trkpt><trkpt lat="44.01555639494579" lon="6.232733733294307"><ele>612.0</ele><time>2026-04-21T05:54:06Z</time></trkpt><trkpt lat="44.015586868557236" lon="6.233019792107375"><ele>612.3333333333334</ele><time>2026-04-21T05:54:07Z</time></trkpt><trkpt lat="44.015616390737975" lon="6.2332881812824095"><ele>612.6666666666667</ele><time>2026-04-21T05:54:08Z</time></trkpt><trkpt lat="44.0156474428266" lon="6.2335585158105875"><ele>613.0</ele><time>2026-04-21T05:54:09Z</time></trkpt><trkpt lat="44.015683154014255" lon="6.233819206803549"><ele>611.6666666666667</ele><time>2026-04-21T05:54:10Z</time></trkpt><trkpt lat="44.01572176035264" lon="6.234073153333824"><ele>610.3333333333334</ele><time>2026-04-21T05:54:11Z</time></trkpt><trkpt lat="44.01575111990972" lon="6.234340754303557"><ele>609.0</ele><time>2026-04-21T05:54:12Z</time></trkpt><trkpt lat="44.01581882458255" lon="6.234597594135777"><ele>611.0</ele><time>2026-04-21T05:54:13Z</time></trkpt><trkpt lat="44.0158745459694" lon="6.234862670060003"><ele>613.0</ele><time>2026-04-21T05:54:14Z</time></trkpt><trkpt lat="44.0159401365245" lon="6.235130335119471"><ele>615.0</ele><time>2026-04-21T05:54:15Z</time></trkpt><trkpt lat="44.01601023273897" lon="6.2354031893796815"><ele>612.3333333333334</ele><time>2026-04-21T05:54:16Z</time></trkpt><trkpt lat="44.01607931507105" lon="6.235678574285859"><ele>609.6666666666667</ele><time>2026-04-21T05:54:17Z</time></trkpt><trkpt lat="44.01614721733107" lon="6.235945396737397"><ele>607.0</ele><time>2026-04-21T05:54:18Z</time></trkpt><trkpt lat="44.01621223624495" lon="6.236196288320686"><ele>607.0</ele><time>2026-04-21T05:54:19Z</time></trkpt><trkpt lat="44.01627721507776" lon="6.236448293625232"><ele>607.0</ele><time>2026-04-21T05:54:20Z</time></trkpt><trkpt lat="44.01634027569107" lon="6.236713778355638"><ele>607.0</ele><time>2026-04-21T05:54:21Z</time></trkpt><trkpt lat="44.016398892769345" lon="6.236976610260079"><ele>603.6666666666667</ele><time>2026-04-21T05:54:22Z</time></trkpt><trkpt lat="44.0164504919813" lon="6.237242762373581"><ele>600.3333333333334</ele><time>2026-04-21T05:54:23Z</time></trkpt><trkpt lat="44.01648520819773" lon="6.237517002072644"><ele>597.0</ele><time>2026-04-21T05:54:24Z</time></trkpt><trkpt lat="44.01650758928633" lon="6.237797644479084"><ele>596.3333333333334</ele><time>2026-04-21T05:54:25Z</time></trkpt><trkpt lat="44.01652048941519" lon="6.238081969708084"><ele>595.6666666666667</ele><time>2026-04-21T05:54:26Z</time></trkpt><trkpt lat="44.016525480425024" lon="6.238371250133756"><ele>595.0</ele><time>2026-04-21T05:54:27Z</time></trkpt><trkpt lat="44.01653012334641" lon="6.23866243428936"><ele>595.0</ele><time>2026-04-21T05:54:28Z</time></trkpt><trkpt lat="44.016535316224676" lon="6.2389580729528245"><ele>595.0</ele><time>2026-04-21T05:54:29Z</time></trkpt><trkpt lat="44.01653511950143" lon="6.239256149879025"><ele>595.0</ele><time>2026-04-21T05:54:30Z</time></trkpt><trkpt lat="44.016536582172925" lon="6.239547622556342"><ele>595.6666666666667</ele><time>2026-04-21T05:54:31Z</time></trkpt><trkpt lat="44.01654164759676" lon="6.239824072403816"><ele>596.3333333333334</ele><time>2026-04-21T05:54:32Z</time></trkpt><trkpt lat="44.016548045676466" lon="6.240104943569767"><ele>597.0</ele><time>2026-04-21T05:54:33Z</time></trkpt><trkpt lat="44.01655644048395" lon="6.24037141356193"><ele>597.0</ele><time>2026-04-21T05:54:34Z</time></trkpt><trkpt lat="44.0165669200201" lon="6.240622372048591"><ele>597.0</ele><time>2026-04-21T05:54:35Z</time></trkpt><trkpt lat="44.01658507591844" lon="6.2408722267833845"><ele>597.0</ele><time>2026-04-21T05:54:36Z</time></trkpt><trkpt lat="44.01661764601523" lon="6.241127282917893"><ele>601.0</ele><time>2026-04-21T05:54:37Z</time></trkpt><trkpt lat="44.01666331840372" lon="6.2413889746046936"><ele>605.0</ele><time>2026-04-21T05:54:38Z</time></trkpt><trkpt lat="44.01672280074332" lon="6.241650874022652"><ele>609.0</ele><time>2026-04-21T05:54:39Z</time></trkpt><trkpt lat="44.01678938943015" lon="6.241910570546407"><ele>609.0</ele><time>2026-04-21T05:54:40Z</time></trkpt><trkpt lat="44.01684882990424" lon="6.2421578366854575"><ele>609.0</ele><time>2026-04-21T05:54:41Z</time></trkpt><trkpt lat="44.01689305708808" lon="6.242392606179988"><ele>609.0</ele><time>2026-04-21T05:54:42Z</time></trkpt><trkpt lat="44.01692569341315" lon="6.2426362259549775"><ele>606.3333333333334</ele><time>2026-04-21T05:54:43Z</time></trkpt><trkpt lat="44.01695391868005" lon="6.242893758666627"><ele>603.6666666666667</ele><time>2026-04-21T05:54:44Z</time></trkpt><trkpt lat="44.01697876631031" lon="6.243164608200225"><ele>601.0</ele><time>2026-04-21T05:54:45Z</time></trkpt><trkpt lat="44.01699521591218" lon="6.243445484807409"><ele>601.0</ele><time>2026-04-21T05:54:46Z</time></trkpt><trkpt lat="44.01700178959115" lon="6.243732716287679"><ele>601.0</ele><time>2026-04-21T05:54:47Z</time></trkpt><trkpt lat="44.01700414505276" lon="6.244022290390006"><ele>601.0</ele><time>2026-04-21T05:54:48Z</time></trkpt><trkpt lat="44.01700193338127" lon="6.244318300904256"><ele>601.3333333333334</ele><time>2026-04-21T05:54:49Z</time></trkpt><trkpt lat="44.016994549140314" lon="6.244620991637739"><ele>601.6666666666666</ele><time>2026-04-21T05:54:50Z</time></trkpt><trkpt lat="44.016983982116685" lon="6.244929766871421"><ele>602.0</ele><time>2026-04-21T05:54:51Z</time></trkpt><trkpt lat="44.016974894228916" lon="6.245232315298968"><ele>602.3333333333333</ele><time>2026-04-21T05:54:52Z</time></trkpt><trkpt lat="44.01696380939434" lon="6.245534058523445"><ele>602.6666666666666</ele><time>2026-04-21T05:54:53Z</time></trkpt><trkpt lat="44.01695004967894" lon="6.245834465596108"><ele>603.0</ele><time>2026-04-21T05:54:54Z</time></trkpt><trkpt lat="44.0169356726926" lon="6.246133490688648"><ele>603.0</ele><time>2026-04-21T05:54:55Z</time></trkpt><trkpt lat="44.01692358224721" lon="6.246429067395865"><ele>603.0</ele><time>2026-04-21T05:54:56Z</time></trkpt><trkpt lat="44.016915728669645" lon="6.246717780750938"><ele>603.0</ele><time>2026-04-21T05:54:57Z</time></trkpt><trkpt lat="44.01690534026892" lon="6.247002807051752"><ele>603.3333333333334</ele><time>2026-04-21T05:54:58Z</time></trkpt><trkpt lat="44.01689360849792" lon="6.247283692331389"><ele>603.6666666666667</ele><time>2026-04-21T05:54:59Z</time></trkpt><trkpt lat="44.01688039406742" lon="6.247560510356221"><ele>604.0</ele><time>2026-04-21T05:55:00Z</time></trkpt><trkpt lat="44.016872258437694" lon="6.24783569253108"><ele>604.0</ele><time>2026-04-21T05:55:01Z</time></trkpt><trkpt lat="44.016863677881744" lon="6.248114888100381"><ele>604.0</ele><time>2026-04-21T05:55:02Z</time></trkpt><trkpt lat="44.01685196947143" lon="6.248394551786948"><ele>604.0</ele><time>2026-04-21T05:55:03Z</time></trkpt><trkpt lat="44.016842311739076" lon="6.248675828140716"><ele>604.0</ele><time>2026-04-21T05:55:04Z</time></trkpt><trkpt lat="44.01683089057321" lon="6.248958101480788"><ele>604.0</ele><time>2026-04-21T05:55:05Z</time></trkpt><trkpt lat="44.01681964037002" lon="6.249239444762377"><ele>604.0</ele><time>2026-04-21T05:55:06Z</time></trkpt><trkpt lat="44.01680915741822" lon="6.249521135069876"><ele>603.6666666666667</ele><time>2026-04-21T05:55:07Z</time></trkpt><trkpt lat="44.01679829421419" lon="6.249802139795517"><ele>603.3333333333334</ele><time>2026-04-21T05:55:08Z</time></trkpt><trkpt lat="44.01678641117495" lon="6.250083157699628"><ele>603.0</ele><time>2026-04-21T05:55:09Z</time></trkpt><trkpt lat="44.01677383738535" lon="6.250356539039197"><ele>603.0</ele><time>2026-04-21T05:55:10Z</time></trkpt><trkpt lat="44.016767565191124" lon="6.250609350978184"><ele>603.0</ele><time>2026-04-21T05:55:11Z</time></trkpt><trkpt lat="44.016762426917225" lon="6.250871052769286"><ele>603.0</ele><time>2026-04-21T05:55:12Z</time></trkpt><trkpt lat="44.01675643298364" lon="6.251132468729995"><ele>603.3333333333334</ele><time>2026-04-21T05:55:13Z</time></trkpt><trkpt lat="44.01678909580799" lon="6.251373501104301"><ele>603.6666666666667</ele><time>2026-04-21T05:55:14Z</time></trkpt><trkpt lat="44.01681016448417" lon="6.251580620234903"><ele>604.0</ele><time>2026-04-21T05:55:15Z</time></trkpt><trkpt lat="44.01682626763749" lon="6.251761600128819"><ele>604.0</ele><time>2026-04-21T05:55:16Z</time></trkpt><trkpt lat="44.01683833145464" lon="6.251930695137189"><ele>604.0</ele><time>2026-04-21T05:55:17Z</time></trkpt><trkpt lat="44.01683565619743" lon="6.252088922148339"><ele>604.0</ele><time>2026-04-21T05:55:18Z</time></trkpt><trkpt lat="44.01681249028934" lon="6.252246066701264"><ele>604.0</ele><time>2026-04-21T05:55:19Z</time></trkpt><trkpt lat="44.01677965267392" lon="6.25238037952538"><ele>604.75</ele><time>2026-04-21T05:55:20Z</time></trkpt><trkpt lat="44.016731855898605" lon="6.252526931460239"><ele>605.5</ele><time>2026-04-21T05:55:21Z</time></trkpt><trkpt lat="44.016670519749454" lon="6.252660571528853"><ele>606.25</ele><time>2026-04-21T05:55:22Z</time></trkpt><trkpt lat="44.01658867078131" lon="6.252775790327472"><ele>607.0</ele><time>2026-04-21T05:55:23Z</time></trkpt><trkpt lat="44.0164808202621" lon="6.252880318700375"><ele>607.0</ele><time>2026-04-21T05:55:24Z</time></trkpt><trkpt lat="44.01635345008799" lon="6.252979104624432"><ele>607.0</ele><time>2026-04-21T05:55:25Z</time></trkpt><trkpt lat="44.01620877886457" lon="6.253072252455458"><ele>607.0</ele><time>2026-04-21T05:55:26Z</time></trkpt><trkpt lat="44.01605137618426" lon="6.253157091703318"><ele>607.0</ele><time>2026-04-21T05:55:27Z</time></trkpt><trkpt lat="44.01588894662548" lon="6.253234086389867"><ele>607.0</ele><time>2026-04-21T05:55:28Z</time></trkpt><trkpt lat="44.0157204415054" lon="6.253315764707571"><ele>607.0</ele><time>2026-04-21T05:55:29Z</time></trkpt><trkpt lat="44.0155464894214" lon="6.253398725170812"><ele>612.3333333333334</ele><time>2026-04-21T05:55:30Z</time></trkpt><trkpt lat="44.01536956327021" lon="6.253473217399469"><ele>617.6666666666666</ele><time>2026-04-21T05:55:31Z</time></trkpt><trkpt lat="44.01520474474771" lon="6.253546292936302"><ele>623.0</ele><time>2026-04-21T05:55:32Z</time></trkpt><trkpt lat="44.0150519780996" lon="6.25360947626003"><ele>628.25</ele><time>2026-04-21T05:55:33Z</time></trkpt><trkpt lat="44.01491225210601" lon="6.25365543775666"><ele>633.5</ele><time>2026-04-21T05:55:34Z</time></trkpt><trkpt lat="44.014767229466855" lon="6.253674178731076"><ele>638.75</ele><time>2026-04-21T05:55:35Z</time></trkpt><trkpt lat="44.014612216996326" lon="6.253658050860028"><ele>644.0</ele><time>2026-04-21T05:55:36Z</time></trkpt><trkpt lat="44.01444849572026" lon="6.253636968097494"><ele>644.0</ele><time>2026-04-21T05:55:37Z</time></trkpt><trkpt lat="44.01427750552353" lon="6.25361588595587"><ele>644.0</ele><time>2026-04-21T05:55:38Z</time></trkpt><trkpt lat="44.014102428557536" lon="6.253587276498237"><ele>644.0</ele><time>2026-04-21T05:55:39Z</time></trkpt><trkpt lat="44.01392298633365" lon="6.253556199721475"><ele>653.3333333333333</ele><time>2026-04-21T05:55:40Z</time></trkpt><trkpt lat="44.013740605685356" lon="6.25352567565614"><ele>662.6666666666666</ele><time>2026-04-21T05:55:41Z</time></trkpt><trkpt lat="44.013555608619164" lon="6.253498783217338"><ele>672.0</ele><time>2026-04-21T05:55:42Z</time></trkpt><trkpt lat="44.01336318341911" lon="6.2534834883579675"><ele>671.0</ele><time>2026-04-21T05:55:43Z</time></trkpt><trkpt lat="44.01316763652412" lon="6.253470745105515"><ele>670.0</ele><time>2026-04-21T05:55:44Z</time></trkpt><trkpt lat="44.01297645497586" lon="6.25345865169136"><ele>669.0</ele><time>2026-04-21T05:55:45Z</time></trkpt><trkpt lat="44.012787810802095" lon="6.2534534339778025"><ele>669.0</ele><time>2026-04-21T05:55:46Z</time></trkpt><trkpt lat="44.012598075931265" lon="6.253460285520976"><ele>669.0</ele><time>2026-04-21T05:55:47Z</time></trkpt><trkpt lat="44.01241010073825" lon="6.253483889058894"><ele>669.0</ele><time>2026-04-21T05:55:48Z</time></trkpt><trkpt lat="44.01222377498346" lon="6.2534972701648845"><ele>659.3333333333334</ele><time>2026-04-21T05:55:49Z</time></trkpt><trkpt lat="44.012038452219024" lon="6.253542703927656"><ele>649.6666666666667</ele><time>2026-04-21T05:55:50Z</time></trkpt><trkpt lat="44.01183523463903" lon="6.253609607794113"><ele>640.0</ele><time>2026-04-21T05:55:51Z</time></trkpt><trkpt lat="44.01162325723844" lon="6.253702940818601"><ele>640.0</ele><time>2026-04-21T05:55:52Z</time></trkpt><trkpt lat="44.011468084322374" lon="6.2537575059423025"><ele>640.0</ele><time>2026-04-21T05:55:53Z</time></trkpt><trkpt lat="44.01130713004931" lon="6.253829736614086"><ele>640.0</ele><time>2026-04-21T05:55:54Z</time></trkpt><trkpt lat="44.01115602288806" lon="6.253924149273392"><ele>638.0</ele><time>2026-04-21T05:55:55Z</time></trkpt><trkpt lat="44.01101935233789" lon="6.25404122766208"><ele>636.0</ele><time>2026-04-21T05:55:56Z</time></trkpt><trkpt lat="44.01089788513894" lon="6.254197963628873"><ele>634.0</ele><time>2026-04-21T05:55:57Z</time></trkpt><trkpt lat="44.01080540629526" lon="6.254386259509857"><ele>634.0</ele><time>2026-04-21T05:55:58Z</time></trkpt><trkpt lat="44.01073986503893" lon="6.2545902931979"><ele>634.0</ele><time>2026-04-21T05:55:59Z</time></trkpt><trkpt lat="44.010702898595746" lon="6.254811790481752"><ele>634.0</ele><time>2026-04-21T05:56:00Z</time></trkpt><trkpt lat="44.010698751818246" lon="6.255057340624731"><ele>631.0</ele><time>2026-04-21T05:56:01Z</time></trkpt><trkpt lat="44.010699939461176" lon="6.2552852071823795"><ele>628.0</ele><time>2026-04-21T05:56:02Z</time></trkpt><trkpt lat="44.01070388154212" lon="6.255531429756411"><ele>625.0</ele><time>2026-04-21T05:56:03Z</time></trkpt><trkpt lat="44.01070961239945" lon="6.2557917751862835"><ele>625.0</ele><time>2026-04-21T05:56:04Z</time></trkpt><trkpt lat="44.010714666090884" lon="6.256060430993385"><ele>625.0</ele><time>2026-04-21T05:56:05Z</time></trkpt><trkpt lat="44.010719694929485" lon="6.25633353856423"><ele>625.0</ele><time>2026-04-21T05:56:06Z</time></trkpt><trkpt lat="44.010724439008705" lon="6.256609037595906"><ele>625.6666666666667</ele><time>2026-04-21T05:56:07Z</time></trkpt><trkpt lat="44.010727966699605" lon="6.25688703498496"><ele>626.3333333333334</ele><time>2026-04-21T05:56:08Z</time></trkpt><trkpt lat="44.010727005836905" lon="6.257148365194595"><ele>627.0</ele><time>2026-04-21T05:56:09Z</time></trkpt><trkpt lat="44.010708451536104" lon="6.257394168723144"><ele>628.0</ele><time>2026-04-21T05:56:10Z</time></trkpt><trkpt lat="44.01066941234666" lon="6.257640770347885"><ele>629.0</ele><time>2026-04-21T05:56:11Z</time></trkpt><trkpt lat="44.01061104513373" lon="6.257889586559889"><ele>630.0</ele><time>2026-04-21T05:56:12Z</time></trkpt><trkpt lat="44.01052881971331" lon="6.258132652504975"><ele>630.0</ele><time>2026-04-21T05:56:13Z</time></trkpt><trkpt lat="44.01043191100546" lon="6.2583751846539295"><ele>630.0</ele><time>2026-04-21T05:56:14Z</time></trkpt><trkpt lat="44.010349430813626" lon="6.258630958923613"><ele>630.0</ele><time>2026-04-21T05:56:15Z</time></trkpt><trkpt lat="44.01025967257683" lon="6.258878984432565"><ele>628.6666666666666</ele><time>2026-04-21T05:56:16Z</time></trkpt><trkpt lat="44.010176979300326" lon="6.259132306482404"><ele>627.3333333333333</ele><time>2026-04-21T05:56:17Z</time></trkpt><trkpt lat="44.01009780309252" lon="6.259385956039628"><ele>626.0</ele><time>2026-04-21T05:56:18Z</time></trkpt><trkpt lat="44.01002803296919" lon="6.259637222924001"><ele>625.0</ele><time>2026-04-21T05:56:19Z</time></trkpt><trkpt lat="44.009964941728136" lon="6.2598934470261325"><ele>624.0</ele><time>2026-04-21T05:56:20Z</time></trkpt><trkpt lat="44.009898608508884" lon="6.260150533521304"><ele>623.0</ele><time>2026-04-21T05:56:21Z</time></trkpt><trkpt lat="44.009862610644575" lon="6.260420620984042"><ele>623.0</ele><time>2026-04-21T05:56:22Z</time></trkpt><trkpt lat="44.00985330549198" lon="6.2606993829787605"><ele>623.0</ele><time>2026-04-21T05:56:23Z</time></trkpt><trkpt lat="44.00983884404701" lon="6.260981166881933"><ele>623.0</ele><time>2026-04-21T05:56:24Z</time></trkpt><trkpt lat="44.009806528687314" lon="6.2612616461503965"><ele>622.0</ele><time>2026-04-21T05:56:25Z</time></trkpt><trkpt lat="44.00979005359028" lon="6.2615453322447365"><ele>621.0</ele><time>2026-04-21T05:56:26Z</time></trkpt><trkpt lat="44.009773102799834" lon="6.261830660646276"><ele>620.0</ele><time>2026-04-21T05:56:27Z</time></trkpt><trkpt lat="44.00975520497362" lon="6.262117532300913"><ele>619.6666666666666</ele><time>2026-04-21T05:56:28Z</time></trkpt><trkpt lat="44.00975374589333" lon="6.262407126728939"><ele>619.3333333333334</ele><time>2026-04-21T05:56:29Z</time></trkpt><trkpt lat="44.009737007461936" lon="6.262695155461765"><ele>619.0</ele><time>2026-04-21T05:56:30Z</time></trkpt><trkpt lat="44.009705168995495" lon="6.262969268885215"><ele>618.3333333333334</ele><time>2026-04-21T05:56:31Z</time></trkpt><trkpt lat="44.00968865536273" lon="6.263228507956615"><ele>617.6666666666666</ele><time>2026-04-21T05:56:32Z</time></trkpt><trkpt lat="44.00967115787116" lon="6.263488247448438"><ele>617.0</ele><time>2026-04-21T05:56:33Z</time></trkpt><trkpt lat="44.00967092211981" lon="6.263746706700326"><ele>616.6666666666666</ele><time>2026-04-21T05:56:34Z</time></trkpt><trkpt lat="44.00964008471814" lon="6.263997367473569"><ele>616.3333333333334</ele><time>2026-04-21T05:56:35Z</time></trkpt><trkpt lat="44.009625382731954" lon="6.264249062757745"><ele>616.0</ele><time>2026-04-21T05:56:36Z</time></trkpt><trkpt lat="44.009624878622745" lon="6.264507791116667"><ele>616.0</ele><time>2026-04-21T05:56:37Z</time></trkpt><trkpt lat="44.009608853359964" lon="6.264767311587273"><ele>616.0</ele><time>2026-04-21T05:56:38Z</time></trkpt><trkpt lat="44.00959467306648" lon="6.265030507950112"><ele>616.0</ele><time>2026-04-21T05:56:39Z</time></trkpt><trkpt lat="44.009578781664885" lon="6.26529529772973"><ele>616.0</ele><time>2026-04-21T05:56:40Z</time></trkpt><trkpt lat="44.00956233520424" lon="6.265565582641737"><ele>616.0</ele><time>2026-04-21T05:56:41Z</time></trkpt><trkpt lat="44.00954785566459" lon="6.265841783073801"><ele>616.0</ele><time>2026-04-21T05:56:42Z</time></trkpt><trkpt lat="44.00953651524089" lon="6.266124790496874"><ele>617.0</ele><time>2026-04-21T05:56:43Z</time></trkpt><trkpt lat="44.00950702235226" lon="6.266400268522029"><ele>618.0</ele><time>2026-04-21T05:56:44Z</time></trkpt><trkpt lat="44.009491908490425" lon="6.266668519526683"><ele>619.0</ele><time>2026-04-21T05:56:45Z</time></trkpt><trkpt lat="44.009476798493345" lon="6.266936702131027"><ele>619.6666666666667</ele><time>2026-04-21T05:56:46Z</time></trkpt><trkpt lat="44.00947780805781" lon="6.267204904396256"><ele>620.3333333333334</ele><time>2026-04-21T05:56:47Z</time></trkpt><trkpt lat="44.00946228438478" lon="6.267473451767256"><ele>621.0</ele><time>2026-04-21T05:56:48Z</time></trkpt><trkpt lat="44.00944556278369" lon="6.267744547771958"><ele>621.0</ele><time>2026-04-21T05:56:49Z</time></trkpt><trkpt lat="44.00943086538791" lon="6.268015611647112"><ele>621.0</ele><time>2026-04-21T05:56:50Z</time></trkpt><trkpt lat="44.00941804179261" lon="6.268286305356021"><ele>621.0</ele><time>2026-04-21T05:56:51Z</time></trkpt><trkpt lat="44.00940337344723" lon="6.268556864144331"><ele>621.6666666666666</ele><time>2026-04-21T05:56:52Z</time></trkpt><trkpt lat="44.00938803587823" lon="6.268825797373944"><ele>622.3333333333333</ele><time>2026-04-21T05:56:53Z</time></trkpt><trkpt lat="44.00935330462591" lon="6.269090221490007"><ele>623.0</ele><time>2026-04-21T05:56:54Z</time></trkpt><trkpt lat="44.009326050384026" lon="6.269350122790635"><ele>623.0</ele><time>2026-04-21T05:56:55Z</time></trkpt><trkpt lat="44.009299170829074" lon="6.269595656848741"><ele>623.0</ele><time>2026-04-21T05:56:56Z</time></trkpt><trkpt lat="44.009282788665274" lon="6.269851966403477"><ele>623.0</ele><time>2026-04-21T05:56:57Z</time></trkpt><trkpt lat="44.009292312977934" lon="6.27011133919719"><ele>623.3333333333333</ele><time>2026-04-21T05:56:58Z</time></trkpt><trkpt lat="44.009323338969104" lon="6.270367131701875"><ele>623.6666666666666</ele><time>2026-04-21T05:56:59Z</time></trkpt><trkpt lat="44.009363469487894" lon="6.270611858384224"><ele>624.0</ele><time>2026-04-21T05:57:00Z</time></trkpt><trkpt lat="44.009404349023555" lon="6.2708468215746676"><ele>624.3333333333334</ele><time>2026-04-21T05:57:01Z</time></trkpt><trkpt lat="44.009412137344526" lon="6.271089490899983"><ele>624.6666666666667</ele><time>2026-04-21T05:57:02Z</time></trkpt><trkpt lat="44.00939431483489" lon="6.2713392910163"><ele>625.0</ele><time>2026-04-21T05:57:03Z</time></trkpt><trkpt lat="44.00935263212808" lon="6.271588314673026"><ele>626.0</ele><time>2026-04-21T05:57:04Z</time></trkpt><trkpt lat="44.00930764610737" lon="6.271836474312497"><ele>627.0</ele><time>2026-04-21T05:57:05Z</time></trkpt><trkpt lat="44.00927572578783" lon="6.272090932560251"><ele>628.0</ele><time>2026-04-21T05:57:06Z</time></trkpt><trkpt lat="44.00925662583492" lon="6.27235305550397"><ele>628.0</ele><time>2026-04-21T05:57:07Z</time></trkpt><trkpt lat="44.009247854604325" lon="6.272620550006053"><ele>628.0</ele><time>2026-04-21T05:57:08Z</time></trkpt><trkpt lat="44.00924026488084" lon="6.272893392516441"><ele>628.0</ele><time>2026-04-21T05:57:09Z</time></trkpt><trkpt lat="44.00923501904264" lon="6.273170585929466"><ele>629.0</ele><time>2026-04-21T05:57:10Z</time></trkpt><trkpt lat="44.00922868082561" lon="6.273451130252629"><ele>630.0</ele><time>2026-04-21T05:57:11Z</time></trkpt><trkpt lat="44.00922089187585" lon="6.273710971394529"><ele>631.0</ele><time>2026-04-21T05:57:12Z</time></trkpt><trkpt lat="44.009212930700876" lon="6.2739690004647555"><ele>633.3333333333334</ele><time>2026-04-21T05:57:13Z</time></trkpt><trkpt lat="44.009204186257776" lon="6.274221827362191"><ele>635.6666666666666</ele><time>2026-04-21T05:57:14Z</time></trkpt><trkpt lat="44.0091944419268" lon="6.274442883708655"><ele>638.0</ele><time>2026-04-21T05:57:15Z</time></trkpt><trkpt lat="44.00917718538259" lon="6.274658123804464"><ele>643.3333333333333</ele><time>2026-04-21T05:57:16Z</time></trkpt><trkpt lat="44.009140890643174" lon="6.274863873393553"><ele>648.6666666666666</ele><time>2026-04-21T05:57:17Z</time></trkpt><trkpt lat="44.00908866701815" lon="6.275068154003519"><ele>654.0</ele><time>2026-04-21T05:57:18Z</time></trkpt><trkpt lat="44.0090271202385" lon="6.275275637825106"><ele>654.0</ele><time>2026-04-21T05:57:19Z</time></trkpt><trkpt lat="44.008940166162695" lon="6.275471314318244"><ele>654.0</ele><time>2026-04-21T05:57:20Z</time></trkpt><trkpt lat="44.00886205317872" lon="6.275675688426398"><ele>654.0</ele><time>2026-04-21T05:57:21Z</time></trkpt><trkpt lat="44.00879539096473" lon="6.275896682042403"><ele>648.3333333333334</ele><time>2026-04-21T05:57:22Z</time></trkpt><trkpt lat="44.00871414375529" lon="6.276116476330954"><ele>642.6666666666667</ele><time>2026-04-21T05:57:23Z</time></trkpt><trkpt lat="44.008636041113505" lon="6.276344439773676"><ele>637.0</ele><time>2026-04-21T05:57:24Z</time></trkpt><trkpt lat="44.00854102570882" lon="6.276570177660842"><ele>636.3333333333334</ele><time>2026-04-21T05:57:25Z</time></trkpt><trkpt lat="44.00848442987708" lon="6.276823511028514"><ele>635.6666666666666</ele><time>2026-04-21T05:57:26Z</time></trkpt><trkpt lat="44.00841455495555" lon="6.277074284080525"><ele>635.0</ele><time>2026-04-21T05:57:27Z</time></trkpt><trkpt lat="44.00834582886217" lon="6.27732421001166"><ele>638.0</ele><time>2026-04-21T05:57:28Z</time></trkpt><trkpt lat="44.00826294311344" lon="6.277572876071498"><ele>641.0</ele><time>2026-04-21T05:57:29Z</time></trkpt><trkpt lat="44.008151379202985" lon="6.27780767278491"><ele>644.0</ele><time>2026-04-21T05:57:30Z</time></trkpt><trkpt lat="44.00802725796493" lon="6.278032929021798"><ele>640.3333333333333</ele><time>2026-04-21T05:57:31Z</time></trkpt><trkpt lat="44.00789681264079" lon="6.27825355415586"><ele>636.6666666666666</ele><time>2026-04-21T05:57:32Z</time></trkpt><trkpt lat="44.00776844951304" lon="6.27847455068784"><ele>633.0</ele><time>2026-04-21T05:57:33Z</time></trkpt><trkpt lat="44.007655647426496" lon="6.278683233160824"><ele>633.0</ele><time>2026-04-21T05:57:34Z</time></trkpt><trkpt lat="44.00753964102295" lon="6.27888725830812"><ele>633.0</ele><time>2026-04-21T05:57:35Z</time></trkpt><trkpt lat="44.00746793408612" lon="6.2791236152626"><ele>633.0</ele><time>2026-04-21T05:57:36Z</time></trkpt><trkpt lat="44.007404685218525" lon="6.2793586544502435"><ele>633.0</ele><time>2026-04-21T05:57:37Z</time></trkpt><trkpt lat="44.007362769558235" lon="6.279609984097377"><ele>633.0</ele><time>2026-04-21T05:57:38Z</time></trkpt><trkpt lat="44.00733095319579" lon="6.279868514783492"><ele>633.0</ele><time>2026-04-21T05:57:39Z</time></trkpt><trkpt lat="44.007305427518446" lon="6.280115964759824"><ele>633.0</ele><time>2026-04-21T05:57:40Z</time></trkpt><trkpt lat="44.00727658175896" lon="6.280353320421887"><ele>633.0</ele><time>2026-04-21T05:57:41Z</time></trkpt><trkpt lat="44.00723111066153" lon="6.28059875319637"><ele>633.0</ele><time>2026-04-21T05:57:42Z</time></trkpt><trkpt lat="44.00716558145501" lon="6.280839729898086"><ele>633.0</ele><time>2026-04-21T05:57:43Z</time></trkpt><trkpt lat="44.007082998138905" lon="6.281079323282755"><ele>633.0</ele><time>2026-04-21T05:57:44Z</time></trkpt><trkpt lat="44.00698388931653" lon="6.281314862806931"><ele>633.0</ele><time>2026-04-21T05:57:45Z</time></trkpt><trkpt lat="44.006878777505456" lon="6.2815529275577235"><ele>634.0</ele><time>2026-04-21T05:57:46Z</time></trkpt><trkpt lat="44.006775896639994" lon="6.281796344483692"><ele>635.0</ele><time>2026-04-21T05:57:47Z</time></trkpt><trkpt lat="44.00667919585733" lon="6.2820252175150895"><ele>636.0</ele><time>2026-04-21T05:57:48Z</time></trkpt><trkpt lat="44.00657438292241" lon="6.282256115981933"><ele>635.0</ele><time>2026-04-21T05:57:49Z</time></trkpt><trkpt lat="44.006468269848256" lon="6.2824912845919645"><ele>634.0</ele><time>2026-04-21T05:57:50Z</time></trkpt><trkpt lat="44.00636608784797" lon="6.28272929766881"><ele>633.0</ele><time>2026-04-21T05:57:51Z</time></trkpt><trkpt lat="44.006267458887194" lon="6.282956706082368"><ele>634.0</ele><time>2026-04-21T05:57:52Z</time></trkpt><trkpt lat="44.006171275356266" lon="6.283181261193511"><ele>635.0</ele><time>2026-04-21T05:57:53Z</time></trkpt><trkpt lat="44.0060726239974" lon="6.283408748550037"><ele>636.0</ele><time>2026-04-21T05:57:54Z</time></trkpt><trkpt lat="44.005978657554344" lon="6.283605025735882"><ele>636.0</ele><time>2026-04-21T05:57:55Z</time></trkpt><trkpt lat="44.005884936560335" lon="6.283771779574349"><ele>636.0</ele><time>2026-04-21T05:57:56Z</time></trkpt><trkpt lat="44.00577348648184" lon="6.283915346148159"><ele>636.0</ele><time>2026-04-21T05:57:57Z</time></trkpt><trkpt lat="44.00563660502412" lon="6.2840394546352405"><ele>636.0</ele><time>2026-04-21T05:57:58Z</time></trkpt><trkpt lat="44.005481758768504" lon="6.284142057317614"><ele>636.0</ele><time>2026-04-21T05:57:59Z</time></trkpt><trkpt lat="44.00531850723169" lon="6.2842388790683"><ele>636.0</ele><time>2026-04-21T05:58:00Z</time></trkpt><trkpt lat="44.00515195509528" lon="6.28434129286354"><ele>636.6666666666666</ele><time>2026-04-21T05:58:01Z</time></trkpt><trkpt lat="44.004981191589344" lon="6.284443077410189"><ele>637.3333333333333</ele><time>2026-04-21T05:58:02Z</time></trkpt><trkpt lat="44.00480610400192" lon="6.284544451816479"><ele>638.0</ele><time>2026-04-21T05:58:03Z</time></trkpt><trkpt lat="44.00464175545014" lon="6.2846475685662835"><ele>639.0</ele><time>2026-04-21T05:58:04Z</time></trkpt><trkpt lat="44.0044768791047" lon="6.284765276482792"><ele>640.0</ele><time>2026-04-21T05:58:05Z</time></trkpt><trkpt lat="44.004318020215386" lon="6.284903611267946"><ele>641.0</ele><time>2026-04-21T05:58:06Z</time></trkpt><trkpt lat="44.004163353330696" lon="6.285061128645013"><ele>639.0</ele><time>2026-04-21T05:58:07Z</time></trkpt><trkpt lat="44.00401451559643" lon="6.285237854198609"><ele>637.0</ele><time>2026-04-21T05:58:08Z</time></trkpt><trkpt lat="44.00386587877768" lon="6.2854155931254505"><ele>635.0</ele><time>2026-04-21T05:58:09Z</time></trkpt><trkpt lat="44.00371638852547" lon="6.285585888816962"><ele>635.6666666666666</ele><time>2026-04-21T05:58:10Z</time></trkpt><trkpt lat="44.00355815755968" lon="6.2857524976023225"><ele>636.3333333333334</ele><time>2026-04-21T05:58:11Z</time></trkpt><trkpt lat="44.00339373759691" lon="6.285910182337357"><ele>637.0</ele><time>2026-04-21T05:58:12Z</time></trkpt><trkpt lat="44.00322142457073" lon="6.286053683023221"><ele>637.0</ele><time>2026-04-21T05:58:13Z</time></trkpt><trkpt lat="44.0030304940043" lon="6.286161221854779"><ele>637.0</ele><time>2026-04-21T05:58:14Z</time></trkpt><trkpt lat="44.00284212572354" lon="6.28627919966603"><ele>637.0</ele><time>2026-04-21T05:58:15Z</time></trkpt><trkpt lat="44.00265857712742" lon="6.286419507056238"><ele>639.0</ele><time>2026-04-21T05:58:16Z</time></trkpt><trkpt lat="44.002466376898504" lon="6.2865416517129145"><ele>641.0</ele><time>2026-04-21T05:58:17Z</time></trkpt><trkpt lat="44.00226576233817" lon="6.286644061737572"><ele>643.0</ele><time>2026-04-21T05:58:18Z</time></trkpt><trkpt lat="44.002070124778534" lon="6.286766789969789"><ele>643.0</ele><time>2026-04-21T05:58:19Z</time></trkpt><trkpt lat="44.001879956596554" lon="6.286910310951884"><ele>643.0</ele><time>2026-04-21T05:58:20Z</time></trkpt><trkpt lat="44.001685286435055" lon="6.287028114479524"><ele>643.0</ele><time>2026-04-21T05:58:21Z</time></trkpt><trkpt lat="44.00149880019662" lon="6.287148365881423"><ele>642.0</ele><time>2026-04-21T05:58:22Z</time></trkpt><trkpt lat="44.00133375688154" lon="6.287266727862866"><ele>641.0</ele><time>2026-04-21T05:58:23Z</time></trkpt><trkpt lat="44.00117149611373" lon="6.2874040181993145"><ele>640.0</ele><time>2026-04-21T05:58:24Z</time></trkpt><trkpt lat="44.001015039349944" lon="6.2875618589401565"><ele>640.0</ele><time>2026-04-21T05:58:25Z</time></trkpt><trkpt lat="44.000877738647404" lon="6.287724845518739"><ele>640.0</ele><time>2026-04-21T05:58:26Z</time></trkpt><trkpt lat="44.000752430648305" lon="6.287908673336257"><ele>640.0</ele><time>2026-04-21T05:58:27Z</time></trkpt><trkpt lat="44.000646256809766" lon="6.288123162571857"><ele>641.0</ele><time>2026-04-21T05:58:28Z</time></trkpt><trkpt lat="44.00055333576204" lon="6.2883483992639775"><ele>642.0</ele><time>2026-04-21T05:58:29Z</time></trkpt><trkpt lat="44.00047679597516" lon="6.288586157995995"><ele>643.0</ele><time>2026-04-21T05:58:30Z</time></trkpt><trkpt lat="44.00041511973319" lon="6.28884128234384"><ele>643.3333333333334</ele><time>2026-04-21T05:58:31Z</time></trkpt><trkpt lat="44.000358832817504" lon="6.289101423535354"><ele>643.6666666666666</ele><time>2026-04-21T05:58:32Z</time></trkpt><trkpt lat="44.0003023354354" lon="6.289359980886087"><ele>644.0</ele><time>2026-04-21T05:58:33Z</time></trkpt><trkpt lat="44.00023669430768" lon="6.289617113414306"><ele>647.0</ele><time>2026-04-21T05:58:34Z</time></trkpt><trkpt lat="44.000156583300004" lon="6.28986993820373"><ele>650.0</ele><time>2026-04-21T05:58:35Z</time></trkpt><trkpt lat="44.000067217704945" lon="6.290117352984399"><ele>653.0</ele><time>2026-04-21T05:58:36Z</time></trkpt><trkpt lat="43.99998156628211" lon="6.290350550610039"><ele>653.0</ele><time>2026-04-21T05:58:37Z</time></trkpt><trkpt lat="43.99989492279432" lon="6.290563110661897"><ele>653.0</ele><time>2026-04-21T05:58:38Z</time></trkpt><trkpt lat="43.999799413026516" lon="6.290750547327229"><ele>653.0</ele><time>2026-04-21T05:58:39Z</time></trkpt><trkpt lat="43.99968079572195" lon="6.2909191910203575"><ele>657.6666666666666</ele><time>2026-04-21T05:58:40Z</time></trkpt><trkpt lat="43.99954795840816" lon="6.2910776222352345"><ele>662.3333333333334</ele><time>2026-04-21T05:58:41Z</time></trkpt><trkpt lat="43.99939984835898" lon="6.291215500061517"><ele>667.0</ele><time>2026-04-21T05:58:42Z</time></trkpt><trkpt lat="43.99923606003838" lon="6.291322000961212"><ele>667.0</ele><time>2026-04-21T05:58:43Z</time></trkpt><trkpt lat="43.999061400088614" lon="6.291403932875788"><ele>667.0</ele><time>2026-04-21T05:58:44Z</time></trkpt><trkpt lat="43.998870989907054" lon="6.291438275177193"><ele>667.0</ele><time>2026-04-21T05:58:45Z</time></trkpt><trkpt lat="43.99867696553307" lon="6.291453559178753"><ele>667.0</ele><time>2026-04-21T05:58:46Z</time></trkpt><trkpt lat="43.998476538265216" lon="6.291461579774469"><ele>667.0</ele><time>2026-04-21T05:58:47Z</time></trkpt><trkpt lat="43.99826938857621" lon="6.291488291588617"><ele>667.0</ele><time>2026-04-21T05:58:48Z</time></trkpt><trkpt lat="43.99805572465378" lon="6.291491030705417"><ele>663.6666666666667</ele><time>2026-04-21T05:58:49Z</time></trkpt><trkpt lat="43.99783824034865" lon="6.291495517971093"><ele>660.3333333333334</ele><time>2026-04-21T05:58:50Z</time></trkpt><trkpt lat="43.99762044948605" lon="6.2915050563797035"><ele>657.0</ele><time>2026-04-21T05:58:51Z</time></trkpt><trkpt lat="43.997408620736906" lon="6.291518129434695"><ele>657.0</ele><time>2026-04-21T05:58:52Z</time></trkpt><trkpt lat="43.99721230123492" lon="6.291531729199928"><ele>657.0</ele><time>2026-04-21T05:58:53Z</time></trkpt><trkpt lat="43.997028725273594" lon="6.29155777199541"><ele>657.0</ele><time>2026-04-21T05:58:54Z</time></trkpt><trkpt lat="43.99684423436212" lon="6.291587508417596"><ele>657.0</ele><time>2026-04-21T05:58:55Z</time></trkpt><trkpt lat="43.99667086376989" lon="6.291693177558962"><ele>657.0</ele><time>2026-04-21T05:58:56Z</time></trkpt><trkpt lat="43.99648970102098" lon="6.29180070048098"><ele>657.0</ele><time>2026-04-21T05:58:57Z</time></trkpt><trkpt lat="43.99630804331225" lon="6.2919262633253"><ele>658.6666666666666</ele><time>2026-04-21T05:58:58Z</time></trkpt><trkpt lat="43.99612530354459" lon="6.292060624877262"><ele>660.3333333333333</ele><time>2026-04-21T05:58:59Z</time></trkpt><trkpt lat="43.99593943543884" lon="6.292198752088427"><ele>662.0</ele><time>2026-04-21T05:59:00Z</time></trkpt><trkpt lat="43.995748692660186" lon="6.292335701025748"><ele>662.0</ele><time>2026-04-21T05:59:01Z</time></trkpt><trkpt lat="43.995557705952706" lon="6.292470776010383"><ele>662.0</ele><time>2026-04-21T05:59:02Z</time></trkpt><trkpt lat="43.995371411396086" lon="6.292606795690922"><ele>662.0</ele><time>2026-04-21T05:59:03Z</time></trkpt><trkpt lat="43.9951963409293" lon="6.29270450351613"><ele>662.0</ele><time>2026-04-21T05:59:04Z</time></trkpt><trkpt lat="43.99503244479847" lon="6.292820398870011"><ele>662.0</ele><time>2026-04-21T05:59:05Z</time></trkpt><trkpt lat="43.994850289129886" lon="6.292900465511786"><ele>662.0</ele><time>2026-04-21T05:59:06Z</time></trkpt><trkpt lat="43.99465535800945" lon="6.292945663948367"><ele>663.6666666666666</ele><time>2026-04-21T05:59:07Z</time></trkpt><trkpt lat="43.994456425173595" lon="6.293000617882464"><ele>665.3333333333334</ele><time>2026-04-21T05:59:08Z</time></trkpt><trkpt lat="43.99425220362209" lon="6.293048231245122"><ele>667.0</ele><time>2026-04-21T05:59:09Z</time></trkpt><trkpt lat="43.99404397388782" lon="6.293095429396504"><ele>667.0</ele><time>2026-04-21T05:59:10Z</time></trkpt><trkpt lat="43.993849654855104" lon="6.293159225266701"><ele>667.0</ele><time>2026-04-21T05:59:11Z</time></trkpt><trkpt lat="43.993661988346986" lon="6.293184890505719"><ele>667.0</ele><time>2026-04-21T05:59:12Z</time></trkpt><trkpt lat="43.99347243112969" lon="6.293192361192672"><ele>666.0</ele><time>2026-04-21T05:59:13Z</time></trkpt><trkpt lat="43.99330120484393" lon="6.293179142793482"><ele>665.0</ele><time>2026-04-21T05:59:14Z</time></trkpt><trkpt lat="43.99316563145145" lon="6.293171401742122"><ele>664.0</ele><time>2026-04-21T05:59:15Z</time></trkpt><trkpt lat="43.993051669199545" lon="6.293178749938584"><ele>663.0</ele><time>2026-04-21T05:59:16Z</time></trkpt><trkpt lat="43.99294349781363" lon="6.293227196654662"><ele>663.0</ele><time>2026-04-21T05:59:17Z</time></trkpt><trkpt lat="43.992838937050394" lon="6.293303494949509"><ele>663.0</ele><time>2026-04-21T05:59:18Z</time></trkpt><trkpt lat="43.99275579227647" lon="6.2934053379918895"><ele>663.0</ele><time>2026-04-21T05:59:19Z</time></trkpt><trkpt lat="43.99269595812217" lon="6.293539129043343"><ele>663.0</ele><time>2026-04-21T05:59:20Z</time></trkpt><trkpt lat="43.992655302975706" lon="6.293709791942866"><ele>663.0</ele><time>2026-04-21T05:59:21Z</time></trkpt><trkpt lat="43.992628543828665" lon="6.293906804965911"><ele>663.0</ele><time>2026-04-21T05:59:22Z</time></trkpt><trkpt lat="43.992604104440986" lon="6.2941219622146605"><ele>663.0</ele><time>2026-04-21T05:59:23Z</time></trkpt><trkpt lat="43.99256500349216" lon="6.29432352093945"><ele>664.0</ele><time>2026-04-21T05:59:24Z</time></trkpt><trkpt lat="43.9924974243886" lon="6.2945345027717945"><ele>665.0</ele><time>2026-04-21T05:59:25Z</time></trkpt><trkpt lat="43.99243534792965" lon="6.294766205062623"><ele>666.0</ele><time>2026-04-21T05:59:26Z</time></trkpt><trkpt lat="43.9923857853999" lon="6.295013758807551"><ele>666.0</ele><time>2026-04-21T05:59:27Z</time></trkpt><trkpt lat="43.99231975829328" lon="6.2952425194407855"><ele>666.0</ele><time>2026-04-21T05:59:28Z</time></trkpt><trkpt lat="43.99224440061036" lon="6.295467699517139"><ele>666.0</ele><time>2026-04-21T05:59:29Z</time></trkpt><trkpt lat="43.99215178854544" lon="6.295679226842309"><ele>669.3333333333334</ele><time>2026-04-21T05:59:30Z</time></trkpt><trkpt lat="43.99204009457904" lon="6.295873139547032"><ele>672.6666666666667</ele><time>2026-04-21T05:59:31Z</time></trkpt><trkpt lat="43.99190844264591" lon="6.2960605188030785"><ele>676.0</ele><time>2026-04-21T05:59:32Z</time></trkpt><trkpt lat="43.99175629089935" lon="6.296220328766654"><ele>672.3333333333334</ele><time>2026-04-21T05:59:33Z</time></trkpt><trkpt lat="43.991620349020074" lon="6.296406791988792"><ele>668.6666666666666</ele><time>2026-04-21T05:59:34Z</time></trkpt><trkpt lat="43.99146299600762" lon="6.296567029965013"><ele>665.0</ele><time>2026-04-21T05:59:35Z</time></trkpt><trkpt lat="43.99129497642081" lon="6.296712648847197"><ele>665.0</ele><time>2026-04-21T05:59:36Z</time></trkpt><trkpt lat="43.99112172943451" lon="6.296839059052119"><ele>665.0</ele><time>2026-04-21T05:59:37Z</time></trkpt><trkpt lat="43.99095895733298" lon="6.2969446031251834"><ele>665.0</ele><time>2026-04-21T05:59:38Z</time></trkpt><trkpt lat="43.99080970371992" lon="6.297031805342935"><ele>663.25</ele><time>2026-04-21T05:59:39Z</time></trkpt><trkpt lat="43.99066856868899" lon="6.297087295927154"><ele>661.5</ele><time>2026-04-21T05:59:40Z</time></trkpt><trkpt lat="43.99052729991378" lon="6.297100572485154"><ele>659.75</ele><time>2026-04-21T05:59:41Z</time></trkpt><trkpt lat="43.99037410981872" lon="6.297070569654766"><ele>658.0</ele><time>2026-04-21T05:59:42Z</time></trkpt><trkpt lat="43.99021915699209" lon="6.297004872692664"><ele>658.0</ele><time>2026-04-21T05:59:43Z</time></trkpt><trkpt lat="43.99005928838799" lon="6.29693540121821"><ele>658.0</ele><time>2026-04-21T05:59:44Z</time></trkpt><trkpt lat="43.98989067425645" lon="6.296872016673114"><ele>658.0</ele><time>2026-04-21T05:59:45Z</time></trkpt><trkpt lat="43.989718880599156" lon="6.296802376264623"><ele>659.6666666666667</ele><time>2026-04-21T05:59:46Z</time></trkpt><trkpt lat="43.98954340397921" lon="6.296730027250009"><ele>661.3333333333334</ele><time>2026-04-21T05:59:47Z</time></trkpt><trkpt lat="43.98936096533546" lon="6.296657993397598"><ele>663.0</ele><time>2026-04-21T05:59:48Z</time></trkpt><trkpt lat="43.989186279786004" lon="6.296590828033226"><ele>664.25</ele><time>2026-04-21T05:59:49Z</time></trkpt><trkpt lat="43.989024395173125" lon="6.296534873849021"><ele>665.5</ele><time>2026-04-21T05:59:50Z</time></trkpt><trkpt lat="43.988879988500024" lon="6.296493265664973"><ele>666.75</ele><time>2026-04-21T05:59:51Z</time></trkpt><trkpt lat="43.98874675353812" lon="6.296468126611735"><ele>668.0</ele><time>2026-04-21T05:59:52Z</time></trkpt><trkpt lat="43.988618123114115" lon="6.296478703728789"><ele>668.0</ele><time>2026-04-21T05:59:53Z</time></trkpt><trkpt lat="43.98848791349194" lon="6.296527768109012"><ele>668.0</ele><time>2026-04-21T05:59:54Z</time></trkpt><trkpt lat="43.988363209498786" lon="6.296616943524111"><ele>668.0</ele><time>2026-04-21T05:59:55Z</time></trkpt><trkpt lat="43.988254185668055" lon="6.296743089768588"><ele>668.0</ele><time>2026-04-21T05:59:56Z</time></trkpt><trkpt lat="43.988167940978215" lon="6.296908286629348"><ele>666.6666666666666</ele><time>2026-04-21T05:59:57Z</time></trkpt><trkpt lat="43.98809654125349" lon="6.297099387686153"><ele>665.3333333333334</ele><time>2026-04-21T05:59:58Z</time></trkpt><trkpt lat="43.98803680880976" lon="6.29730642245784"><ele>664.0</ele><time>2026-04-21T05:59:59Z</time></trkpt><trkpt lat="43.98796326543038" lon="6.297520178005265"><ele>668.6666666666667</ele><time>2026-04-21T06:00:00Z</time></trkpt><trkpt lat="43.98787516650774" lon="6.297732380929381"><ele>673.3333333333334</ele><time>2026-04-21T06:00:01Z</time></trkpt><trkpt lat="43.98778101738612" lon="6.297935822648336"><ele>678.0</ele><time>2026-04-21T06:00:02Z</time></trkpt><trkpt lat="43.987686880299876" lon="6.298106493213843"><ele>675.3333333333334</ele><time>2026-04-21T06:00:03Z</time></trkpt><trkpt lat="43.987575730102606" lon="6.298257884888315"><ele>672.6666666666667</ele><time>2026-04-21T06:00:04Z</time></trkpt><trkpt lat="43.98743752255906" lon="6.298393382643329"><ele>670.0</ele><time>2026-04-21T06:00:05Z</time></trkpt><trkpt lat="43.98728000111461" lon="6.298502628871027"><ele>670.0</ele><time>2026-04-21T06:00:06Z</time></trkpt><trkpt lat="43.98710269278103" lon="6.298563492062853"><ele>670.0</ele><time>2026-04-21T06:00:07Z</time></trkpt><trkpt lat="43.98691540062908" lon="6.2986177577790805"><ele>670.0</ele><time>2026-04-21T06:00:08Z</time></trkpt><trkpt lat="43.98672616917133" lon="6.298683134755065"><ele>667.0</ele><time>2026-04-21T06:00:09Z</time></trkpt><trkpt lat="43.98653499502948" lon="6.298719151018676"><ele>664.0</ele><time>2026-04-21T06:00:10Z</time></trkpt><trkpt lat="43.98633574042197" lon="6.298764305972049"><ele>661.0</ele><time>2026-04-21T06:00:11Z</time></trkpt><trkpt lat="43.986140910055916" lon="6.29881777281641"><ele>661.0</ele><time>2026-04-21T06:00:12Z</time></trkpt><trkpt lat="43.9859598279889" lon="6.298882355418422"><ele>661.0</ele><time>2026-04-21T06:00:13Z</time></trkpt><trkpt lat="43.98578878786471" lon="6.298967609006569"><ele>661.0</ele><time>2026-04-21T06:00:14Z</time></trkpt><trkpt lat="43.98562620808919" lon="6.299077973635122"><ele>662.0</ele><time>2026-04-21T06:00:15Z</time></trkpt><trkpt lat="43.98547303100844" lon="6.299212941602356"><ele>663.0</ele><time>2026-04-21T06:00:16Z</time></trkpt><trkpt lat="43.98533155676117" lon="6.299377950437912"><ele>664.0</ele><time>2026-04-21T06:00:17Z</time></trkpt><trkpt lat="43.985221997199424" lon="6.299555410445417"><ele>664.0</ele><time>2026-04-21T06:00:18Z</time></trkpt><trkpt lat="43.98512456865125" lon="6.299749997283433"><ele>664.0</ele><time>2026-04-21T06:00:19Z</time></trkpt><trkpt lat="43.985045338924145" lon="6.299959538223543"><ele>664.0</ele><time>2026-04-21T06:00:20Z</time></trkpt><trkpt lat="43.98498077750609" lon="6.3001772592103285"><ele>665.3333333333334</ele><time>2026-04-21T06:00:21Z</time></trkpt><trkpt lat="43.98492479891632" lon="6.300397791416595"><ele>666.6666666666666</ele><time>2026-04-21T06:00:22Z</time></trkpt><trkpt lat="43.98487008657795" lon="6.300619015821889"><ele>668.0</ele><time>2026-04-21T06:00:23Z</time></trkpt><trkpt lat="43.984816106888246" lon="6.300829623924072"><ele>668.75</ele><time>2026-04-21T06:00:24Z</time></trkpt><trkpt lat="43.984763817072974" lon="6.301032197924659"><ele>669.5</ele><time>2026-04-21T06:00:25Z</time></trkpt><trkpt lat="43.98471125758668" lon="6.301219475210372"><ele>670.25</ele><time>2026-04-21T06:00:26Z</time></trkpt><trkpt lat="43.98465478595137" lon="6.301387346156923"><ele>671.0</ele><time>2026-04-21T06:00:27Z</time></trkpt><trkpt lat="43.984591650652106" lon="6.301550285681073"><ele>671.5</ele><time>2026-04-21T06:00:28Z</time></trkpt><trkpt lat="43.98451929968739" lon="6.3017128284641775"><ele>672.0</ele><time>2026-04-21T06:00:29Z</time></trkpt><trkpt lat="43.98443325907361" lon="6.301876753077584"><ele>672.5</ele><time>2026-04-21T06:00:30Z</time></trkpt><trkpt lat="43.98433810656793" lon="6.3020411197198305"><ele>673.0</ele><time>2026-04-21T06:00:31Z</time></trkpt><trkpt lat="43.98422164203921" lon="6.302201996361233"><ele>672.0</ele><time>2026-04-21T06:00:32Z</time></trkpt><trkpt lat="43.984091610179746" lon="6.302355383876588"><ele>671.0</ele><time>2026-04-21T06:00:33Z</time></trkpt><trkpt lat="43.98394226102138" lon="6.302496378500853"><ele>670.0</ele><time>2026-04-21T06:00:34Z</time></trkpt><trkpt lat="43.983778232913664" lon="6.302623578434295"><ele>670.0</ele><time>2026-04-21T06:00:35Z</time></trkpt><trkpt lat="43.98360603579096" lon="6.3027299708775635"><ele>670.0</ele><time>2026-04-21T06:00:36Z</time></trkpt><trkpt lat="43.98342362521855" lon="6.302830348479128"><ele>670.0</ele><time>2026-04-21T06:00:37Z</time></trkpt><trkpt lat="43.98323416397888" lon="6.30292660693614"><ele>670.6666666666667</ele><time>2026-04-21T06:00:38Z</time></trkpt><trkpt lat="43.98304222867925" lon="6.303022762520694"><ele>671.3333333333334</ele><time>2026-04-21T06:00:39Z</time></trkpt><trkpt lat="43.98284787354159" lon="6.303123370492474"><ele>672.0</ele><time>2026-04-21T06:00:40Z</time></trkpt><trkpt lat="43.98265264399406" lon="6.303223180435563"><ele>671.0</ele><time>2026-04-21T06:00:41Z</time></trkpt><trkpt lat="43.98246399322329" lon="6.303303424782687"><ele>670.0</ele><time>2026-04-21T06:00:42Z</time></trkpt><trkpt lat="43.98227135784461" lon="6.303372323669859"><ele>669.0</ele><time>2026-04-21T06:00:43Z</time></trkpt><trkpt lat="43.98207470189453" lon="6.303419917606952"><ele>669.0</ele><time>2026-04-21T06:00:44Z</time></trkpt><trkpt lat="43.98188433304508" lon="6.3034419491133775"><ele>669.0</ele><time>2026-04-21T06:00:45Z</time></trkpt><trkpt lat="43.981709527159246" lon="6.303468685065246"><ele>669.0</ele><time>2026-04-21T06:00:46Z</time></trkpt><trkpt lat="43.98154116246328" lon="6.303516003340726"><ele>669.0</ele><time>2026-04-21T06:00:47Z</time></trkpt><trkpt lat="43.9813724814843" lon="6.303596633369493"><ele>669.0</ele><time>2026-04-21T06:00:48Z</time></trkpt><trkpt lat="43.98120848873447" lon="6.303706014350739"><ele>669.0</ele><time>2026-04-21T06:00:49Z</time></trkpt><trkpt lat="43.981051563177715" lon="6.303833901632085"><ele>670.3333333333334</ele><time>2026-04-21T06:00:50Z</time></trkpt><trkpt lat="43.980907702633225" lon="6.303987591685378"><ele>671.6666666666667</ele><time>2026-04-21T06:00:51Z</time></trkpt><trkpt lat="43.980755184138076" lon="6.304132465453005"><ele>673.0</ele><time>2026-04-21T06:00:52Z</time></trkpt><trkpt lat="43.98063284365618" lon="6.3043136497562395"><ele>673.0</ele><time>2026-04-21T06:00:53Z</time></trkpt><trkpt lat="43.98051971511738" lon="6.304481237620331"><ele>673.0</ele><time>2026-04-21T06:00:54Z</time></trkpt><trkpt lat="43.98042547650282" lon="6.304680567867436"><ele>673.0</ele><time>2026-04-21T06:00:55Z</time></trkpt><trkpt lat="43.98035036347052" lon="6.304901447586787"><ele>680.0</ele><time>2026-04-21T06:00:56Z</time></trkpt><trkpt lat="43.98029138372527" lon="6.305146227385206"><ele>687.0</ele><time>2026-04-21T06:00:57Z</time></trkpt><trkpt lat="43.980224874487305" lon="6.30538327979959"><ele>694.0</ele><time>2026-04-21T06:00:58Z</time></trkpt><trkpt lat="43.980157418975445" lon="6.305620590312903"><ele>698.0</ele><time>2026-04-21T06:00:59Z</time></trkpt><trkpt lat="43.980090936328935" lon="6.3058643824529845"><ele>702.0</ele><time>2026-04-21T06:01:00Z</time></trkpt><trkpt lat="43.98002800057909" lon="6.306104798801112"><ele>706.0</ele><time>2026-04-21T06:01:01Z</time></trkpt><trkpt lat="43.97997472487418" lon="6.306335743310937"><ele>697.6666666666667</ele><time>2026-04-21T06:01:02Z</time></trkpt><trkpt lat="43.97993861624323" lon="6.306571190123833"><ele>689.3333333333334</ele><time>2026-04-21T06:01:03Z</time></trkpt><trkpt lat="43.979924955297065" lon="6.30680109771003"><ele>681.0</ele><time>2026-04-21T06:01:04Z</time></trkpt><trkpt lat="43.97992800399209" lon="6.307038626753928"><ele>680.3333333333334</ele><time>2026-04-21T06:01:05Z</time></trkpt><trkpt lat="43.979945854473236" lon="6.30727414270336"><ele>679.6666666666667</ele><time>2026-04-21T06:01:06Z</time></trkpt><trkpt lat="43.97997115786259" lon="6.307514317643393"><ele>679.0</ele><time>2026-04-21T06:01:07Z</time></trkpt><trkpt lat="43.979995410568144" lon="6.307755082969777"><ele>679.0</ele><time>2026-04-21T06:01:08Z</time></trkpt><trkpt lat="43.98000801926809" lon="6.307988262474095"><ele>679.0</ele><time>2026-04-21T06:01:09Z</time></trkpt><trkpt lat="43.98000543506009" lon="6.3082127867513815"><ele>679.0</ele><time>2026-04-21T06:01:10Z</time></trkpt><trkpt lat="43.9799886303351" lon="6.3084159736120435"><ele>680.3333333333334</ele><time>2026-04-21T06:01:11Z</time></trkpt><trkpt lat="43.97995350154983" lon="6.308611895920846"><ele>681.6666666666666</ele><time>2026-04-21T06:01:12Z</time></trkpt><trkpt lat="43.97990403689098" lon="6.308812101931214"><ele>683.0</ele><time>2026-04-21T06:01:13Z</time></trkpt><trkpt lat="43.9798353720412" lon="6.309003503961639"><ele>684.3333333333333</ele><time>2026-04-21T06:01:14Z</time></trkpt><trkpt lat="43.97974704157414" lon="6.309191067928998"><ele>685.6666666666666</ele><time>2026-04-21T06:01:15Z</time></trkpt><trkpt lat="43.9796461724562" lon="6.309374318456845"><ele>687.0</ele><time>2026-04-21T06:01:16Z</time></trkpt><trkpt lat="43.97952679439322" lon="6.309540984885298"><ele>687.0</ele><time>2026-04-21T06:01:17Z</time></trkpt><trkpt lat="43.97940372916713" lon="6.30970171082866"><ele>687.0</ele><time>2026-04-21T06:01:18Z</time></trkpt><trkpt lat="43.979273516021884" lon="6.3098592834230365"><ele>687.0</ele><time>2026-04-21T06:01:19Z</time></trkpt><trkpt lat="43.97913410249782" lon="6.310018491278127"><ele>687.3333333333334</ele><time>2026-04-21T06:01:20Z</time></trkpt><trkpt lat="43.97898988839972" lon="6.310173322321499"><ele>687.6666666666667</ele><time>2026-04-21T06:01:21Z</time></trkpt><trkpt lat="43.97884414192362" lon="6.31032690894852"><ele>688.0</ele><time>2026-04-21T06:01:22Z</time></trkpt><trkpt lat="43.978692888992704" lon="6.310483132435586"><ele>688.0</ele><time>2026-04-21T06:01:23Z</time></trkpt><trkpt lat="43.97853592857713" lon="6.3106385073029845"><ele>688.0</ele><time>2026-04-21T06:01:24Z</time></trkpt><trkpt lat="43.978378933987585" lon="6.310787958577605"><ele>688.0</ele><time>2026-04-21T06:01:25Z</time></trkpt><trkpt lat="43.97822345843811" lon="6.310936605271718"><ele>685.6666666666667</ele><time>2026-04-21T06:01:26Z</time></trkpt><trkpt lat="43.97806473964206" lon="6.3110724037847685"><ele>683.3333333333334</ele><time>2026-04-21T06:01:27Z</time></trkpt><trkpt lat="43.97789699096881" lon="6.311171985472721"><ele>681.0</ele><time>2026-04-21T06:01:28Z</time></trkpt><trkpt lat="43.977725536596324" lon="6.311256832395383"><ele>681.0</ele><time>2026-04-21T06:01:29Z</time></trkpt><trkpt lat="43.977551788595754" lon="6.311333994741282"><ele>681.0</ele><time>2026-04-21T06:01:30Z</time></trkpt><trkpt lat="43.977373296173745" lon="6.311415188204316"><ele>681.0</ele><time>2026-04-21T06:01:31Z</time></trkpt><trkpt lat="43.97719742780284" lon="6.311500936781703"><ele>683.3333333333334</ele><time>2026-04-21T06:01:32Z</time></trkpt><trkpt lat="43.97703273646259" lon="6.311585899267331"><ele>685.6666666666667</ele><time>2026-04-21T06:01:33Z</time></trkpt><trkpt lat="43.97686949533982" lon="6.311670150124088"><ele>688.0</ele><time>2026-04-21T06:01:34Z</time></trkpt><trkpt lat="43.976706298708045" lon="6.311726242325949"><ele>687.6666666666667</ele><time>2026-04-21T06:01:35Z</time></trkpt><trkpt lat="43.97653983894149" lon="6.3117640160904696"><ele>687.3333333333334</ele><time>2026-04-21T06:01:36Z</time></trkpt><trkpt lat="43.97636447436032" lon="6.311763337323365"><ele>687.0</ele><time>2026-04-21T06:01:37Z</time></trkpt><trkpt lat="43.97618637699324" lon="6.3117435608418875"><ele>687.0</ele><time>2026-04-21T06:01:38Z</time></trkpt><trkpt lat="43.97599899849675" lon="6.311728166943414"><ele>687.0</ele><time>2026-04-21T06:01:39Z</time></trkpt><trkpt lat="43.975802605561015" lon="6.311709919226666"><ele>687.0</ele><time>2026-04-21T06:01:40Z</time></trkpt><trkpt lat="43.97560354537021" lon="6.311687629203199"><ele>686.0</ele><time>2026-04-21T06:01:41Z</time></trkpt><trkpt lat="43.97540083956133" lon="6.311661050877382"><ele>685.0</ele><time>2026-04-21T06:01:42Z</time></trkpt><trkpt lat="43.975191506730646" lon="6.311634674880558"><ele>684.0</ele><time>2026-04-21T06:01:43Z</time></trkpt><trkpt lat="43.97498266091658" lon="6.311613902704107"><ele>683.3333333333334</ele><time>2026-04-21T06:01:44Z</time></trkpt><trkpt lat="43.974773307981195" lon="6.311597016174002"><ele>682.6666666666667</ele><time>2026-04-21T06:01:45Z</time></trkpt><trkpt lat="43.97457811669457" lon="6.311586730585633"><ele>682.0</ele><time>2026-04-21T06:01:46Z</time></trkpt><trkpt lat="43.97438474513813" lon="6.31158411904975"><ele>682.0</ele><time>2026-04-21T06:01:47Z</time></trkpt><trkpt lat="43.97419415231018" lon="6.311593701461568"><ele>682.0</ele><time>2026-04-21T06:01:48Z</time></trkpt><trkpt lat="43.97400033131502" lon="6.311610873768881"><ele>682.0</ele><time>2026-04-21T06:01:49Z</time></trkpt><trkpt lat="43.97380492307366" lon="6.311639656534052"><ele>681.6666666666667</ele><time>2026-04-21T06:01:50Z</time></trkpt><trkpt lat="43.97360955328287" lon="6.311685675648049"><ele>681.3333333333334</ele><time>2026-04-21T06:01:51Z</time></trkpt><trkpt lat="43.9734162856668" lon="6.31174642076978"><ele>681.0</ele><time>2026-04-21T06:01:52Z</time></trkpt><trkpt lat="43.973232680106676" lon="6.311808626742621"><ele>680.6666666666666</ele><time>2026-04-21T06:01:53Z</time></trkpt><trkpt lat="43.97305383975024" lon="6.311868641440685"><ele>680.3333333333333</ele><time>2026-04-21T06:01:54Z</time></trkpt><trkpt lat="43.97288877831674" lon="6.311907829209784"><ele>680.0</ele><time>2026-04-21T06:01:55Z</time></trkpt><trkpt lat="43.9727217708638" lon="6.311923373649613"><ele>680.0</ele><time>2026-04-21T06:01:56Z</time></trkpt><trkpt lat="43.97255347211661" lon="6.3119035754268715"><ele>680.0</ele><time>2026-04-21T06:01:57Z</time></trkpt><trkpt lat="43.972379941398366" lon="6.311851696955116"><ele>680.0</ele><time>2026-04-21T06:01:58Z</time></trkpt><trkpt lat="43.97220500090507" lon="6.311777711765913"><ele>680.3333333333333</ele><time>2026-04-21T06:01:59Z</time></trkpt><trkpt lat="43.97203073441865" lon="6.31167986013337"><ele>680.6666666666666</ele><time>2026-04-21T06:02:00Z</time></trkpt><trkpt lat="43.97186491344778" lon="6.311579216673684"><ele>681.0</ele><time>2026-04-21T06:02:01Z</time></trkpt><trkpt lat="43.97171340981729" lon="6.311493425997378"><ele>682.0</ele><time>2026-04-21T06:02:02Z</time></trkpt><trkpt lat="43.971570805396254" lon="6.311439294094941"><ele>683.0</ele><time>2026-04-21T06:02:03Z</time></trkpt><trkpt lat="43.97142702361802" lon="6.311416709762266"><ele>684.0</ele><time>2026-04-21T06:02:04Z</time></trkpt><trkpt lat="43.97126852627793" lon="6.311410656845332"><ele>684.0</ele><time>2026-04-21T06:02:05Z</time></trkpt><trkpt lat="43.97109745637677" lon="6.311439196194584"><ele>684.0</ele><time>2026-04-21T06:02:06Z</time></trkpt><trkpt lat="43.97092260092472" lon="6.311487073663346"><ele>684.0</ele><time>2026-04-21T06:02:07Z</time></trkpt><trkpt lat="43.97074427946446" lon="6.311547709736466"><ele>684.3333333333334</ele><time>2026-04-21T06:02:08Z</time></trkpt><trkpt lat="43.97057077000095" lon="6.311619526241159"><ele>684.6666666666667</ele><time>2026-04-21T06:02:09Z</time></trkpt><trkpt lat="43.97038683436493" lon="6.311697626942784"><ele>685.0</ele><time>2026-04-21T06:02:10Z</time></trkpt><trkpt lat="43.970195855154095" lon="6.311773757659298"><ele>684.3333333333334</ele><time>2026-04-21T06:02:11Z</time></trkpt><trkpt lat="43.97000020551931" lon="6.3118543208333175"><ele>683.6666666666666</ele><time>2026-04-21T06:02:12Z</time></trkpt><trkpt lat="43.969809864744676" lon="6.311934570511133"><ele>683.0</ele><time>2026-04-21T06:02:13Z</time></trkpt><trkpt lat="43.96962367439825" lon="6.312018923551501"><ele>683.0</ele><time>2026-04-21T06:02:13.999Z</time></trkpt><trkpt lat="43.96943107160636" lon="6.312106888642936"><ele>683.0</ele><time>2026-04-21T06:02:14.999Z</time></trkpt><trkpt lat="43.969239775758055" lon="6.312205762335891"><ele>683.0</ele><time>2026-04-21T06:02:15.999Z</time></trkpt><trkpt lat="43.969049447334974" lon="6.312312185514957"><ele>686.0</ele><time>2026-04-21T06:02:16.999Z</time></trkpt><trkpt lat="43.968863097589264" lon="6.312424189788866"><ele>689.0</ele><time>2026-04-21T06:02:17.999Z</time></trkpt><trkpt lat="43.968689173377" lon="6.312535272150025"><ele>692.0</ele><time>2026-04-21T06:02:18.999Z</time></trkpt><trkpt lat="43.96851347821937" lon="6.3126526243613785"><ele>689.0</ele><time>2026-04-21T06:02:19.999Z</time></trkpt><trkpt lat="43.96834746569851" lon="6.312763367131034"><ele>686.0</ele><time>2026-04-21T06:02:20.999Z</time></trkpt><trkpt lat="43.968199053956546" lon="6.3128743262401645"><ele>683.0</ele><time>2026-04-21T06:02:21.999Z</time></trkpt><trkpt lat="43.96805069270798" lon="6.313012867889211"><ele>687.3333333333333</ele><time>2026-04-21T06:02:22.999Z</time></trkpt><trkpt lat="43.967910980919015" lon="6.313172017441297"><ele>691.6666666666666</ele><time>2026-04-21T06:02:23.999Z</time></trkpt><trkpt lat="43.96778309698626" lon="6.313350985013953"><ele>696.0</ele><time>2026-04-21T06:02:24.999Z</time></trkpt><trkpt lat="43.96766327554705" lon="6.313537107223574"><ele>696.0</ele><time>2026-04-21T06:02:25.999Z</time></trkpt><trkpt lat="43.96756533525219" lon="6.313745883895319"><ele>696.0</ele><time>2026-04-21T06:02:26.999Z</time></trkpt><trkpt lat="43.967479562779744" lon="6.313977395133687"><ele>696.0</ele><time>2026-04-21T06:02:27.999Z</time></trkpt><trkpt lat="43.9674082206212" lon="6.314220167760307"><ele>694.0</ele><time>2026-04-21T06:02:28.999Z</time></trkpt><trkpt lat="43.96735440780433" lon="6.314473203693754"><ele>692.0</ele><time>2026-04-21T06:02:29.999Z</time></trkpt><trkpt lat="43.96733161962494" lon="6.314747196247681"><ele>690.0</ele><time>2026-04-21T06:02:30.999Z</time></trkpt><trkpt lat="43.96730290866749" lon="6.3150208854450804"><ele>690.0</ele><time>2026-04-21T06:02:31.999Z</time></trkpt><trkpt lat="43.96727308055265" lon="6.31529068640106"><ele>690.0</ele><time>2026-04-21T06:02:32.999Z</time></trkpt><trkpt lat="43.96723987290748" lon="6.3155397601143015"><ele>690.0</ele><time>2026-04-21T06:02:33.999Z</time></trkpt><trkpt lat="43.967192988311076" lon="6.315797136128324"><ele>690.3333333333334</ele><time>2026-04-21T06:02:34.999Z</time></trkpt><trkpt lat="43.9671294410279" lon="6.316056225032685"><ele>690.6666666666667</ele><time>2026-04-21T06:02:35.999Z</time></trkpt><trkpt lat="43.967054503910475" lon="6.31631507854085"><ele>691.0</ele><time>2026-04-21T06:02:36.999Z</time></trkpt><trkpt lat="43.96697150035515" lon="6.3165740744152234"><ele>692.6666666666667</ele><time>2026-04-21T06:02:38Z</time></trkpt><trkpt lat="43.96688455697419" lon="6.316837211075929"><ele>694.3333333333334</ele><time>2026-04-21T06:02:39Z</time></trkpt><trkpt lat="43.96679304946682" lon="6.317106249416505"><ele>696.0</ele><time>2026-04-21T06:02:40Z</time></trkpt><trkpt lat="43.96670528952789" lon="6.317363185058016"><ele>694.3333333333334</ele><time>2026-04-21T06:02:41Z</time></trkpt><trkpt lat="43.9666210261155" lon="6.317605338676882"><ele>692.6666666666667</ele><time>2026-04-21T06:02:42Z</time></trkpt><trkpt lat="43.96653721617651" lon="6.317850196063523"><ele>691.0</ele><time>2026-04-21T06:02:43Z</time></trkpt><trkpt lat="43.96645657806196" lon="6.318088301126509"><ele>695.3333333333334</ele><time>2026-04-21T06:02:44Z</time></trkpt><trkpt lat="43.96637919592357" lon="6.3182993204701345"><ele>699.6666666666666</ele><time>2026-04-21T06:02:45Z</time></trkpt><trkpt lat="43.96628805147354" lon="6.318481762157608"><ele>704.0</ele><time>2026-04-21T06:02:46Z</time></trkpt><trkpt lat="43.96618774631616" lon="6.318661121603842"><ele>704.0</ele><time>2026-04-21T06:02:47Z</time></trkpt><trkpt lat="43.96607238682014" lon="6.318837113933076"><ele>704.0</ele><time>2026-04-21T06:02:48Z</time></trkpt><trkpt lat="43.96594513568709" lon="6.319008524128689"><ele>704.0</ele><time>2026-04-21T06:02:49Z</time></trkpt><trkpt lat="43.96580364518621" lon="6.319170897140303"><ele>701.0</ele><time>2026-04-21T06:02:50Z</time></trkpt><trkpt lat="43.96564811286421" lon="6.319327831296574"><ele>698.0</ele><time>2026-04-21T06:02:51Z</time></trkpt><trkpt lat="43.9654801246961" lon="6.319477873081053"><ele>695.0</ele><time>2026-04-21T06:02:52Z</time></trkpt><trkpt lat="43.96530393920082" lon="6.319623541544321"><ele>695.3333333333333</ele><time>2026-04-21T06:02:53Z</time></trkpt><trkpt lat="43.96511980877026" lon="6.319768688468922"><ele>695.6666666666666</ele><time>2026-04-21T06:02:54Z</time></trkpt><trkpt lat="43.96493373722758" lon="6.319922602497208"><ele>696.0</ele><time>2026-04-21T06:02:55Z</time></trkpt><trkpt lat="43.9647533785757" lon="6.320095537660728"><ele>696.0</ele><time>2026-04-21T06:02:56Z</time></trkpt><trkpt lat="43.964563784052125" lon="6.32025753681444"><ele>696.0</ele><time>2026-04-21T06:02:57Z</time></trkpt><trkpt lat="43.96438373864259" lon="6.320443478517076"><ele>696.0</ele><time>2026-04-21T06:02:58Z</time></trkpt><trkpt lat="43.96422217856738" lon="6.32061408904231"><ele>695.0</ele><time>2026-04-21T06:02:59Z</time></trkpt><trkpt lat="43.964067648788486" lon="6.320779375792344"><ele>694.0</ele><time>2026-04-21T06:03:00Z</time></trkpt><trkpt lat="43.963913905210674" lon="6.320970942603829"><ele>693.0</ele><time>2026-04-21T06:03:01Z</time></trkpt><trkpt lat="43.9637657111305" lon="6.32113115312312"><ele>693.0</ele><time>2026-04-21T06:03:02Z</time></trkpt><trkpt lat="43.96361555587538" lon="6.321297758031644"><ele>693.0</ele><time>2026-04-21T06:03:03Z</time></trkpt><trkpt lat="43.963474358994354" lon="6.321453096751812"><ele>693.0</ele><time>2026-04-21T06:03:04Z</time></trkpt><trkpt lat="43.96333907644275" lon="6.321608992682776"><ele>693.3333333333334</ele><time>2026-04-21T06:03:05Z</time></trkpt><trkpt lat="43.96322331454849" lon="6.321762480197607"><ele>693.6666666666667</ele><time>2026-04-21T06:03:06Z</time></trkpt><trkpt lat="43.963125116762576" lon="6.321923163181604"><ele>694.0</ele><time>2026-04-21T06:03:07Z</time></trkpt><trkpt lat="43.963047426483925" lon="6.322119266367"><ele>699.0</ele><time>2026-04-21T06:03:08Z</time></trkpt><trkpt lat="43.96298386736507" lon="6.322332924541809"><ele>704.0</ele><time>2026-04-21T06:03:09Z</time></trkpt><trkpt lat="43.96294272843654" lon="6.32256360215202"><ele>709.0</ele><time>2026-04-21T06:03:10Z</time></trkpt><trkpt lat="43.96291902757318" lon="6.322808592936376"><ele>709.0</ele><time>2026-04-21T06:03:11Z</time></trkpt><trkpt lat="43.96290835590772" lon="6.323062363607365"><ele>709.0</ele><time>2026-04-21T06:03:12Z</time></trkpt><trkpt lat="43.96290146210496" lon="6.323323277801294"><ele>709.0</ele><time>2026-04-21T06:03:13.001Z</time></trkpt><trkpt lat="43.96289032454283" lon="6.323592396936189"><ele>712.3333333333334</ele><time>2026-04-21T06:03:14.001Z</time></trkpt><trkpt lat="43.96287292042024" lon="6.323864678414478"><ele>715.6666666666666</ele><time>2026-04-21T06:03:15.001Z</time></trkpt><trkpt lat="43.9628448263077" lon="6.324114292155193"><ele>719.0</ele><time>2026-04-21T06:03:16.001Z</time></trkpt><trkpt lat="43.96280272137028" lon="6.3243510732553965"><ele>720.3333333333333</ele><time>2026-04-21T06:03:17.001Z</time></trkpt><trkpt lat="43.96273417925501" lon="6.324581399270508"><ele>721.6666666666666</ele><time>2026-04-21T06:03:18.001Z</time></trkpt><trkpt lat="43.962642656607734" lon="6.324808697617631"><ele>723.0</ele><time>2026-04-21T06:03:19.001Z</time></trkpt><trkpt lat="43.962542280620816" lon="6.325038568802794"><ele>716.6666666666666</ele><time>2026-04-21T06:03:20.001Z</time></trkpt><trkpt lat="43.96243532662095" lon="6.325273797214197"><ele>710.3333333333333</ele><time>2026-04-21T06:03:21.001Z</time></trkpt><trkpt lat="43.96232467063928" lon="6.325513302819503"><ele>704.0</ele><time>2026-04-21T06:03:22.001Z</time></trkpt><trkpt lat="43.96221237394189" lon="6.325757489077062"><ele>704.0</ele><time>2026-04-21T06:03:23.001Z</time></trkpt><trkpt lat="43.96210047388761" lon="6.325999813164743"><ele>704.0</ele><time>2026-04-21T06:03:24.001Z</time></trkpt><trkpt lat="43.96199012238991" lon="6.3262412902069025"><ele>704.0</ele><time>2026-04-21T06:03:25.001Z</time></trkpt><trkpt lat="43.961887192113466" lon="6.326474448539539"><ele>701.3333333333333</ele><time>2026-04-21T06:03:26.001Z</time></trkpt><trkpt lat="43.96179346041169" lon="6.32668860743468"><ele>698.6666666666666</ele><time>2026-04-21T06:03:27.001Z</time></trkpt><trkpt lat="43.96172388416577" lon="6.32686757868901"><ele>696.0</ele><time>2026-04-21T06:03:28.001Z</time></trkpt><trkpt lat="43.96167308751291" lon="6.327041193035124"><ele>696.0</ele><time>2026-04-21T06:03:29.001Z</time></trkpt><trkpt lat="43.96164077412123" lon="6.327213275898049"><ele>696.0</ele><time>2026-04-21T06:03:30.001Z</time></trkpt><trkpt lat="43.96162669065679" lon="6.327400387495729"><ele>696.0</ele><time>2026-04-21T06:03:31.001Z</time></trkpt><trkpt lat="43.96163985850211" lon="6.327595120082384"><ele>696.0</ele><time>2026-04-21T06:03:32.001Z</time></trkpt><trkpt lat="43.96165890995353" lon="6.327797163896994"><ele>699.3333333333334</ele><time>2026-04-21T06:03:33.001Z</time></trkpt><trkpt lat="43.961683407844916" lon="6.328009310721265"><ele>702.6666666666667</ele><time>2026-04-21T06:03:34.001Z</time></trkpt><trkpt lat="43.96170894788613" lon="6.328237106610938"><ele>706.0</ele><time>2026-04-21T06:03:35.001Z</time></trkpt><trkpt lat="43.96172698438445" lon="6.32847356118263"><ele>707.0</ele><time>2026-04-21T06:03:36.001Z</time></trkpt><trkpt lat="43.961727802834744" lon="6.328720654342149"><ele>708.0</ele><time>2026-04-21T06:03:37.001Z</time></trkpt><trkpt lat="43.961705265472716" lon="6.328977736968019"><ele>709.0</ele><time>2026-04-21T06:03:38.001Z</time></trkpt><trkpt lat="43.96166673838803" lon="6.329229546068644"><ele>709.0</ele><time>2026-04-21T06:03:39.001Z</time></trkpt><trkpt lat="43.96160730186444" lon="6.329483467718748"><ele>709.0</ele><time>2026-04-21T06:03:40.001Z</time></trkpt><trkpt lat="43.96154127006603" lon="6.329736643735518"><ele>709.0</ele><time>2026-04-21T06:03:41.001Z</time></trkpt><trkpt lat="43.961472426153314" lon="6.329986716132932"><ele>710.0</ele><time>2026-04-21T06:03:42.001Z</time></trkpt><trkpt lat="43.96142220414012" lon="6.330219747079858"><ele>711.0</ele><time>2026-04-21T06:03:43.001Z</time></trkpt><trkpt lat="43.96139639864121" lon="6.330434969548385"><ele>712.0</ele><time>2026-04-21T06:03:44.001Z</time></trkpt><trkpt lat="43.96139060098573" lon="6.330656472540817"><ele>712.6666666666667</ele><time>2026-04-21T06:03:45.001Z</time></trkpt><trkpt lat="43.961408644228506" lon="6.330895157607723"><ele>713.3333333333334</ele><time>2026-04-21T06:03:46.001Z</time></trkpt><trkpt lat="43.96143914775237" lon="6.331144135780547"><ele>714.0</ele><time>2026-04-21T06:03:47.001Z</time></trkpt><trkpt lat="43.9614710952864" lon="6.3314038094176475"><ele>714.0</ele><time>2026-04-21T06:03:48.001Z</time></trkpt><trkpt lat="43.96150225711062" lon="6.331673171138874"><ele>714.0</ele><time>2026-04-21T06:03:49.001Z</time></trkpt><trkpt lat="43.961531491537656" lon="6.331950950895763"><ele>714.0</ele><time>2026-04-21T06:03:50.001Z</time></trkpt><trkpt lat="43.961562124516064" lon="6.332223500081092"><ele>711.0</ele><time>2026-04-21T06:03:51.001Z</time></trkpt><trkpt lat="43.96159750835942" lon="6.3325074459288695"><ele>708.0</ele><time>2026-04-21T06:03:52.001Z</time></trkpt><trkpt lat="43.96163586040952" lon="6.332794371571233"><ele>705.0</ele><time>2026-04-21T06:03:53.001Z</time></trkpt><trkpt lat="43.961657412414894" lon="6.33308301888761"><ele>705.0</ele><time>2026-04-21T06:03:54.001Z</time></trkpt><trkpt lat="43.96169109672546" lon="6.333366882797681"><ele>705.0</ele><time>2026-04-21T06:03:55.001Z</time></trkpt><trkpt lat="43.96173936748339" lon="6.333645602723753"><ele>705.0</ele><time>2026-04-21T06:03:56.001Z</time></trkpt><trkpt lat="43.96177192995696" lon="6.333922063862494"><ele>712.0</ele><time>2026-04-21T06:03:57.001Z</time></trkpt><trkpt lat="43.96179703513941" lon="6.33417484091075"><ele>719.0</ele><time>2026-04-21T06:03:58.001Z</time></trkpt><trkpt lat="43.96182120519685" lon="6.3344127357005515"><ele>726.0</ele><time>2026-04-21T06:03:59.001Z</time></trkpt><trkpt lat="43.96184381904845" lon="6.334654302334273"><ele>725.6666666666666</ele><time>2026-04-21T06:04:00.001Z</time></trkpt><trkpt lat="43.96185866754294" lon="6.334914515558862"><ele>725.3333333333333</ele><time>2026-04-21T06:04:01.001Z</time></trkpt><trkpt lat="43.961852797332384" lon="6.335159951781799"><ele>725.0</ele><time>2026-04-21T06:04:02.001Z</time></trkpt><trkpt lat="43.96182235212369" lon="6.335397374196073"><ele>730.6666666666666</ele><time>2026-04-21T06:04:03.001Z</time></trkpt><trkpt lat="43.96177177061282" lon="6.335633994718601"><ele>736.3333333333334</ele><time>2026-04-21T06:04:04.001Z</time></trkpt><trkpt lat="43.9617025213038" lon="6.3358626242833065"><ele>742.0</ele><time>2026-04-21T06:04:05.001Z</time></trkpt><trkpt lat="43.961618917811144" lon="6.336087210136991"><ele>734.0</ele><time>2026-04-21T06:04:06.001Z</time></trkpt><trkpt lat="43.96151890751212" lon="6.336302373104297"><ele>726.0</ele><time>2026-04-21T06:04:07.001Z</time></trkpt><trkpt lat="43.96140957396458" lon="6.336513617457247"><ele>718.0</ele><time>2026-04-21T06:04:08.001Z</time></trkpt><trkpt lat="43.961298167185745" lon="6.336731061728778"><ele>718.0</ele><time>2026-04-21T06:04:09.001Z</time></trkpt><trkpt lat="43.96118271730994" lon="6.336951887182599"><ele>718.0</ele><time>2026-04-21T06:04:10.001Z</time></trkpt><trkpt lat="43.96106818154335" lon="6.337176005711845"><ele>718.0</ele><time>2026-04-21T06:04:11.001Z</time></trkpt><trkpt lat="43.960956943083396" lon="6.337399640636687"><ele>720.6666666666667</ele><time>2026-04-21T06:04:12.001Z</time></trkpt><trkpt lat="43.960836157525534" lon="6.337614007240559"><ele>723.3333333333334</ele><time>2026-04-21T06:04:13.001Z</time></trkpt><trkpt lat="43.96074271163423" lon="6.337855524365743"><ele>726.0</ele><time>2026-04-21T06:04:14.001Z</time></trkpt><trkpt lat="43.96066577007034" lon="6.338101594286407"><ele>726.0</ele><time>2026-04-21T06:04:15.001Z</time></trkpt><trkpt lat="43.9606027666566" lon="6.338355975175442"><ele>726.0</ele><time>2026-04-21T06:04:16.001Z</time></trkpt><trkpt lat="43.96055902440016" lon="6.338627418246093"><ele>726.0</ele><time>2026-04-21T06:04:17.001Z</time></trkpt><trkpt lat="43.96050460297708" lon="6.338895700794593"><ele>730.3333333333334</ele><time>2026-04-21T06:04:18.001Z</time></trkpt><trkpt lat="43.96045758314164" lon="6.339168789704477"><ele>734.6666666666667</ele><time>2026-04-21T06:04:19Z</time></trkpt><trkpt lat="43.960419026052" lon="6.339445944264604"><ele>739.0</ele><time>2026-04-21T06:04:20Z</time></trkpt><trkpt lat="43.96038569454724" lon="6.3397261859168035"><ele>742.0</ele><time>2026-04-21T06:04:21Z</time></trkpt><trkpt lat="43.960354603304346" lon="6.340005344835541"><ele>745.0</ele><time>2026-04-21T06:04:22Z</time></trkpt><trkpt lat="43.96033062049291" lon="6.340285909079534"><ele>748.0</ele><time>2026-04-21T06:04:23Z</time></trkpt><trkpt lat="43.96030474412971" lon="6.340567577918155"><ele>749.3333333333334</ele><time>2026-04-21T06:04:24Z</time></trkpt><trkpt lat="43.960281643228925" lon="6.340846825951443"><ele>750.6666666666666</ele><time>2026-04-21T06:04:25Z</time></trkpt><trkpt lat="43.96026205558959" lon="6.3411288227000675"><ele>752.0</ele><time>2026-04-21T06:04:26Z</time></trkpt><trkpt lat="43.96024228847014" lon="6.34141194490832"><ele>752.0</ele><time>2026-04-21T06:04:27Z</time></trkpt><trkpt lat="43.9602027390098" lon="6.341691107245824"><ele>752.0</ele><time>2026-04-21T06:04:28Z</time></trkpt><trkpt lat="43.96017976765379" lon="6.341972212538831"><ele>752.0</ele><time>2026-04-21T06:04:29Z</time></trkpt><trkpt lat="43.9601580003987" lon="6.342240994995838"><ele>752.0</ele><time>2026-04-21T06:04:30Z</time></trkpt><trkpt lat="43.960138136731885" lon="6.3425064261451976"><ele>752.0</ele><time>2026-04-21T06:04:31Z</time></trkpt><trkpt lat="43.96013540939288" lon="6.342749217326991"><ele>752.0</ele><time>2026-04-21T06:04:32Z</time></trkpt><trkpt lat="43.96012512451656" lon="6.342959150731112"><ele>751.25</ele><time>2026-04-21T06:04:33Z</time></trkpt><trkpt lat="43.96012927241152" lon="6.343152563342465"><ele>750.5</ele><time>2026-04-21T06:04:34Z</time></trkpt><trkpt lat="43.96015862417012" lon="6.343336258966675"><ele>749.75</ele><time>2026-04-21T06:04:35Z</time></trkpt><trkpt lat="43.96021469872268" lon="6.343529828571992"><ele>749.0</ele><time>2026-04-21T06:04:36Z</time></trkpt><trkpt lat="43.96029476102661" lon="6.34371999927727"><ele>741.0</ele><time>2026-04-21T06:04:37Z</time></trkpt><trkpt lat="43.96039636719852" lon="6.34389160074887"><ele>733.0</ele><time>2026-04-21T06:04:38Z</time></trkpt><trkpt lat="43.96051700641771" lon="6.344050216313565"><ele>725.0</ele><time>2026-04-21T06:04:39Z</time></trkpt><trkpt lat="43.96064901393549" lon="6.344206726232632"><ele>725.0</ele><time>2026-04-21T06:04:40Z</time></trkpt><trkpt lat="43.960791822132755" lon="6.344358668362707"><ele>725.0</ele><time>2026-04-21T06:04:41Z</time></trkpt><trkpt lat="43.96094059606467" lon="6.344509991338936"><ele>725.0</ele><time>2026-04-21T06:04:42Z</time></trkpt><trkpt lat="43.96108894996084" lon="6.344662444602051"><ele>729.6666666666666</ele><time>2026-04-21T06:04:43Z</time></trkpt><trkpt lat="43.96122594104258" lon="6.344806911497806"><ele>734.3333333333334</ele><time>2026-04-21T06:04:44Z</time></trkpt><trkpt lat="43.96136205704721" lon="6.344958561762312"><ele>739.0</ele><time>2026-04-21T06:04:45Z</time></trkpt><trkpt lat="43.96148264096802" lon="6.345114518965915"><ele>739.0</ele><time>2026-04-21T06:04:46Z</time></trkpt><trkpt lat="43.96159451433317" lon="6.345279348534307"><ele>739.0</ele><time>2026-04-21T06:04:47Z</time></trkpt><trkpt lat="43.961682866353065" lon="6.345447872681762"><ele>739.0</ele><time>2026-04-21T06:04:48Z</time></trkpt><trkpt lat="43.96175394678958" lon="6.345635785139034"><ele>747.3333333333334</ele><time>2026-04-21T06:04:49Z</time></trkpt><trkpt lat="43.96180828831071" lon="6.345842630705499"><ele>755.6666666666666</ele><time>2026-04-21T06:04:50Z</time></trkpt><trkpt lat="43.96184385885381" lon="6.346066324158061"><ele>764.0</ele><time>2026-04-21T06:04:51Z</time></trkpt><trkpt lat="43.96186547954264" lon="6.3463017939532795"><ele>763.6666666666666</ele><time>2026-04-21T06:04:52Z</time></trkpt><trkpt lat="43.96187807480631" lon="6.346551804824202"><ele>763.3333333333334</ele><time>2026-04-21T06:04:53Z</time></trkpt><trkpt lat="43.961886357760285" lon="6.3468097339589615"><ele>763.0</ele><time>2026-04-21T06:04:54Z</time></trkpt><trkpt lat="43.96189405151538" lon="6.347069790536887"><ele>761.0</ele><time>2026-04-21T06:04:55Z</time></trkpt><trkpt lat="43.96190085565029" lon="6.347340529642755"><ele>759.0</ele><time>2026-04-21T06:04:56Z</time></trkpt><trkpt lat="43.961902897862345" lon="6.34761113083954"><ele>757.0</ele><time>2026-04-21T06:04:57Z</time></trkpt><trkpt lat="43.96189085630035" lon="6.347883822954812"><ele>754.0</ele><time>2026-04-21T06:04:58Z</time></trkpt><trkpt lat="43.96185815910672" lon="6.348155348447204"><ele>751.0</ele><time>2026-04-21T06:04:59Z</time></trkpt><trkpt lat="43.961811861431144" lon="6.348425338511659"><ele>748.0</ele><time>2026-04-21T06:05:00Z</time></trkpt><trkpt lat="43.9617563072146" lon="6.348685643804591"><ele>744.3333333333334</ele><time>2026-04-21T06:05:01Z</time></trkpt><trkpt lat="43.961698732508346" lon="6.34894434188909"><ele>740.6666666666666</ele><time>2026-04-21T06:05:02Z</time></trkpt><trkpt lat="43.96164456565873" lon="6.349185910141363"><ele>737.0</ele><time>2026-04-21T06:05:03Z</time></trkpt><trkpt lat="43.9615921822067" lon="6.349414028192782"><ele>730.3333333333333</ele><time>2026-04-21T06:05:04Z</time></trkpt><trkpt lat="43.96155486942696" lon="6.349625601135671"><ele>723.6666666666666</ele><time>2026-04-21T06:05:05Z</time></trkpt><trkpt lat="43.961531931463036" lon="6.349839213012582"><ele>717.0</ele><time>2026-04-21T06:05:06Z</time></trkpt><trkpt lat="43.961527806897244" lon="6.350056728093218"><ele>717.0</ele><time>2026-04-21T06:05:07Z</time></trkpt><trkpt lat="43.96154249169476" lon="6.35028624976956"><ele>717.0</ele><time>2026-04-21T06:05:08Z</time></trkpt><trkpt lat="43.961572439190746" lon="6.350508987491293"><ele>717.0</ele><time>2026-04-21T06:05:09Z</time></trkpt><trkpt lat="43.96162244991025" lon="6.350741409996483"><ele>716.3333333333334</ele><time>2026-04-21T06:05:10Z</time></trkpt><trkpt lat="43.961688922279265" lon="6.350973823295935"><ele>715.6666666666667</ele><time>2026-04-21T06:05:11Z</time></trkpt><trkpt lat="43.96176127516828" lon="6.351183842216477"><ele>715.0</ele><time>2026-04-21T06:05:12Z</time></trkpt><trkpt lat="43.96183543961889" lon="6.351377510170933"><ele>718.6666666666667</ele><time>2026-04-21T06:05:13Z</time></trkpt><trkpt lat="43.96191282162078" lon="6.351580703204485"><ele>722.3333333333334</ele><time>2026-04-21T06:05:14Z</time></trkpt><trkpt lat="43.96199255810475" lon="6.351796173879694"><ele>726.0</ele><time>2026-04-21T06:05:15Z</time></trkpt><trkpt lat="43.96206187604805" lon="6.352021738747964"><ele>724.6666666666666</ele><time>2026-04-21T06:05:16Z</time></trkpt><trkpt lat="43.96211265105198" lon="6.3522424481679876"><ele>723.3333333333333</ele><time>2026-04-21T06:05:17Z</time></trkpt><trkpt lat="43.96214638527477" lon="6.352458160156259"><ele>722.0</ele><time>2026-04-21T06:05:18Z</time></trkpt><trkpt lat="43.96215791910609" lon="6.352681579875279"><ele>722.0</ele><time>2026-04-21T06:05:19Z</time></trkpt><trkpt lat="43.96214876932224" lon="6.3529180158396334"><ele>722.0</ele><time>2026-04-21T06:05:20Z</time></trkpt><trkpt lat="43.96212934658905" lon="6.353157804539802"><ele>722.0</ele><time>2026-04-21T06:05:21Z</time></trkpt><trkpt lat="43.96208622480974" lon="6.35338207539938"><ele>722.3333333333333</ele><time>2026-04-21T06:05:22Z</time></trkpt><trkpt lat="43.96201906493044" lon="6.353606302318804"><ele>722.6666666666666</ele><time>2026-04-21T06:05:23Z</time></trkpt><trkpt lat="43.96193356429297" lon="6.353825358274225"><ele>723.0</ele><time>2026-04-21T06:05:24Z</time></trkpt><trkpt lat="43.96182873835965" lon="6.354039065923877"><ele>724.3333333333334</ele><time>2026-04-21T06:05:25Z</time></trkpt><trkpt lat="43.96170248332684" lon="6.354240455927532"><ele>725.6666666666667</ele><time>2026-04-21T06:05:26Z</time></trkpt><trkpt lat="43.96155901881943" lon="6.354427286783667"><ele>727.0</ele><time>2026-04-21T06:05:27Z</time></trkpt><trkpt lat="43.96140862941295" lon="6.354619764697185"><ele>724.6666666666667</ele><time>2026-04-21T06:05:28Z</time></trkpt><trkpt lat="43.961252938592956" lon="6.354816946251436"><ele>722.3333333333334</ele><time>2026-04-21T06:05:29Z</time></trkpt><trkpt lat="43.961098166736825" lon="6.355013603515228"><ele>720.0</ele><time>2026-04-21T06:05:30Z</time></trkpt><trkpt lat="43.96094063587001" lon="6.355220966459359"><ele>719.0</ele><time>2026-04-21T06:05:31Z</time></trkpt><trkpt lat="43.96078054145835" lon="6.3554328027541285"><ele>718.0</ele><time>2026-04-21T06:05:32Z</time></trkpt><trkpt lat="43.960619200445976" lon="6.355645909139427"><ele>717.0</ele><time>2026-04-21T06:05:33Z</time></trkpt><trkpt lat="43.96046646167731" lon="6.3558467776918235"><ele>717.0</ele><time>2026-04-21T06:05:34Z</time></trkpt><trkpt lat="43.96032007006358" lon="6.356032577892197"><ele>717.0</ele><time>2026-04-21T06:05:35Z</time></trkpt><trkpt lat="43.96016854709624" lon="6.356220992747414"><ele>717.0</ele><time>2026-04-21T06:05:36Z</time></trkpt><trkpt lat="43.96001684078198" lon="6.356411904831783"><ele>718.3333333333334</ele><time>2026-04-21T06:05:37Z</time></trkpt><trkpt lat="43.95986506874775" lon="6.356605696450706"><ele>719.6666666666667</ele><time>2026-04-21T06:05:38Z</time></trkpt><trkpt lat="43.95971263097537" lon="6.356799372824608"><ele>721.0</ele><time>2026-04-21T06:05:39Z</time></trkpt><trkpt lat="43.959553169414" lon="6.35699078417137"><ele>721.0</ele><time>2026-04-21T06:05:40Z</time></trkpt><trkpt lat="43.95938716136392" lon="6.357173648491112"><ele>721.0</ele><time>2026-04-21T06:05:41Z</time></trkpt><trkpt lat="43.95921851017647" lon="6.3573549608928515"><ele>721.0</ele><time>2026-04-21T06:05:42Z</time></trkpt><trkpt lat="43.95905087255521" lon="6.357539647706273"><ele>722.3333333333334</ele><time>2026-04-21T06:05:43Z</time></trkpt><trkpt lat="43.95888572013316" lon="6.357728854804758"><ele>723.6666666666666</ele><time>2026-04-21T06:05:44Z</time></trkpt><trkpt lat="43.95872243812765" lon="6.357926020109347"><ele>725.0</ele><time>2026-04-21T06:05:45Z</time></trkpt><trkpt lat="43.95855967772659" lon="6.358129520095116"><ele>722.0</ele><time>2026-04-21T06:05:46Z</time></trkpt><trkpt lat="43.95840943095499" lon="6.358330712379479"><ele>719.0</ele><time>2026-04-21T06:05:47Z</time></trkpt><trkpt lat="43.95826554016593" lon="6.358503814098771"><ele>716.0</ele><time>2026-04-21T06:05:48Z</time></trkpt><trkpt lat="43.95814023138815" lon="6.358690847161671"><ele>725.3333333333333</ele><time>2026-04-21T06:05:49Z</time></trkpt><trkpt lat="43.95803679594161" lon="6.358912389043194"><ele>734.6666666666666</ele><time>2026-04-21T06:05:50Z</time></trkpt><trkpt lat="43.95792736247836" lon="6.3591339868907975"><ele>744.0</ele><time>2026-04-21T06:05:51Z</time></trkpt><trkpt lat="43.957823468626906" lon="6.3593685252414796"><ele>744.0</ele><time>2026-04-21T06:05:52Z</time></trkpt><trkpt lat="43.95772312796073" lon="6.359605558506366"><ele>744.0</ele><time>2026-04-21T06:05:53.001Z</time></trkpt><trkpt lat="43.95761466999553" lon="6.3598221994699164"><ele>744.0</ele><time>2026-04-21T06:05:54.001Z</time></trkpt><trkpt lat="43.957489570053745" lon="6.360024242725333"><ele>744.0</ele><time>2026-04-21T06:05:55.001Z</time></trkpt><trkpt lat="43.95734818649801" lon="6.360213105707784"><ele>744.0</ele><time>2026-04-21T06:05:56.001Z</time></trkpt><trkpt lat="43.95719281670654" lon="6.360384282799024"><ele>744.0</ele><time>2026-04-21T06:05:57.001Z</time></trkpt><trkpt lat="43.95702618029477" lon="6.360537236657896"><ele>744.0</ele><time>2026-04-21T06:05:58.001Z</time></trkpt><trkpt lat="43.95685393516648" lon="6.360695411393937"><ele>744.0</ele><time>2026-04-21T06:05:59.001Z</time></trkpt><trkpt lat="43.95667219107929" lon="6.360828060553711"><ele>744.0</ele><time>2026-04-21T06:06:00.001Z</time></trkpt><trkpt lat="43.95650525430762" lon="6.360978870827403"><ele>741.6666666666666</ele><time>2026-04-21T06:06:01.001Z</time></trkpt><trkpt lat="43.956349476093024" lon="6.3611274682700145"><ele>739.3333333333333</ele><time>2026-04-21T06:06:02.001Z</time></trkpt><trkpt lat="43.95619905869982" lon="6.361291673899561"><ele>737.0</ele><time>2026-04-21T06:06:03.001Z</time></trkpt><trkpt lat="43.956060908746366" lon="6.361460326153022"><ele>737.0</ele><time>2026-04-21T06:06:04.001Z</time></trkpt><trkpt lat="43.9559253564738" lon="6.361647850674017"><ele>737.0</ele><time>2026-04-21T06:06:05.001Z</time></trkpt><trkpt lat="43.95579638313188" lon="6.361844217286852"><ele>737.0</ele><time>2026-04-21T06:06:06.001Z</time></trkpt><trkpt lat="43.95568986901168" lon="6.3620479425453285"><ele>733.3333333333333</ele><time>2026-04-21T06:06:07.001Z</time></trkpt><trkpt lat="43.95556608943395" lon="6.3622434087303885"><ele>729.6666666666666</ele><time>2026-04-21T06:06:08.001Z</time></trkpt><trkpt lat="43.955442403926035" lon="6.362440563559046"><ele>726.0</ele><time>2026-04-21T06:06:09.001Z</time></trkpt><trkpt lat="43.955318007541855" lon="6.362632735279552"><ele>726.0</ele><time>2026-04-21T06:06:10.001Z</time></trkpt><trkpt lat="43.95518378787679" lon="6.3628106537795395"><ele>726.0</ele><time>2026-04-21T06:06:11.001Z</time></trkpt><trkpt lat="43.95503785312064" lon="6.36297407699076"><ele>726.0</ele><time>2026-04-21T06:06:12.001Z</time></trkpt><trkpt lat="43.95488457211925" lon="6.363120512458079"><ele>725.0</ele><time>2026-04-21T06:06:13.001Z</time></trkpt><trkpt lat="43.954721874281745" lon="6.363242802543425"><ele>724.0</ele><time>2026-04-21T06:06:14.001Z</time></trkpt><trkpt lat="43.954554286349904" lon="6.363348759003107"><ele>723.0</ele><time>2026-04-21T06:06:15.001Z</time></trkpt><trkpt lat="43.95438700095385" lon="6.363447330964552"><ele>723.0</ele><time>2026-04-21T06:06:16.001Z</time></trkpt><trkpt lat="43.954232572414014" lon="6.363545216479525"><ele>723.0</ele><time>2026-04-21T06:06:17.001Z</time></trkpt><trkpt lat="43.95409059196989" lon="6.363638875799292"><ele>723.0</ele><time>2026-04-21T06:06:18.001Z</time></trkpt><trkpt lat="43.95395803970891" lon="6.36373411926543"><ele>721.75</ele><time>2026-04-21T06:06:19.001Z</time></trkpt><trkpt lat="43.95381994306895" lon="6.363825701530299"><ele>720.5</ele><time>2026-04-21T06:06:20.001Z</time></trkpt><trkpt lat="43.95371446969415" lon="6.363971704225732"><ele>719.25</ele><time>2026-04-21T06:06:21.001Z</time></trkpt><trkpt lat="43.95360065830472" lon="6.364098835949123"><ele>718.0</ele><time>2026-04-21T06:06:22.001Z</time></trkpt><trkpt lat="43.953486034189766" lon="6.36424119512035"><ele>718.6666666666667</ele><time>2026-04-21T06:06:23.001Z</time></trkpt><trkpt lat="43.953370675594655" lon="6.364396846641059"><ele>719.3333333333334</ele><time>2026-04-21T06:06:24Z</time></trkpt><trkpt lat="43.95324826856856" lon="6.36455929275661"><ele>720.0</ele><time>2026-04-21T06:06:25Z</time></trkpt><trkpt lat="43.95312171675658" lon="6.364718959940305"><ele>724.0</ele><time>2026-04-21T06:06:26Z</time></trkpt><trkpt lat="43.952993363652034" lon="6.364881024379788"><ele>728.0</ele><time>2026-04-21T06:06:27Z</time></trkpt><trkpt lat="43.95286359340416" lon="6.365043070270013"><ele>732.0</ele><time>2026-04-21T06:06:28Z</time></trkpt><trkpt lat="43.952745870831464" lon="6.365194732841815"><ele>732.0</ele><time>2026-04-21T06:06:29Z</time></trkpt><trkpt lat="43.952632136159146" lon="6.365339597000821"><ele>732.0</ele><time>2026-04-21T06:06:30Z</time></trkpt><trkpt lat="43.952525236749025" lon="6.365477898278984"><ele>732.0</ele><time>2026-04-21T06:06:31Z</time></trkpt><trkpt lat="43.952425609145656" lon="6.365612329290147"><ele>732.0</ele><time>2026-04-21T06:06:32Z</time></trkpt><trkpt lat="43.9523300214382" lon="6.365741251760341"><ele>730.8</ele><time>2026-04-21T06:06:33Z</time></trkpt><trkpt lat="43.952239377044386" lon="6.365859603139918"><ele>729.6</ele><time>2026-04-21T06:06:34Z</time></trkpt><trkpt lat="43.9521537636833" lon="6.365967416336469"><ele>728.4</ele><time>2026-04-21T06:06:35Z</time></trkpt><trkpt lat="43.95207521100869" lon="6.366070652468213"><ele>727.1999999999999</ele><time>2026-04-21T06:06:36Z</time></trkpt><trkpt lat="43.95201453165468" lon="6.3661499253206015"><ele>726.0</ele><time>2026-04-21T06:06:37Z</time></trkpt><trkpt lat="43.95195067712941" lon="6.36622669151413"><ele>726.0</ele><time>2026-04-21T06:06:39Z</time></trkpt><trkpt lat="43.95195897602535" lon="6.366439420730393"><ele>726.0</ele><time>2026-04-21T06:06:42Z</time></trkpt><trkpt lat="43.9521053419873" lon="6.366443237409211"><ele>726.0</ele><time>2026-04-21T06:06:43Z</time></trkpt><trkpt lat="43.95220348914544" lon="6.36648222328195"><ele>726.0</ele><time>2026-04-21T06:06:44Z</time></trkpt><trkpt lat="43.95230960302803" lon="6.366543912387148"><ele>726.0</ele><time>2026-04-21T06:06:45Z</time></trkpt><trkpt lat="43.95241603937665" lon="6.366639585738918"><ele>726.0</ele><time>2026-04-21T06:06:46Z</time></trkpt><trkpt lat="43.95251134343551" lon="6.366753250756169"><ele>726.0</ele><time>2026-04-21T06:06:47Z</time></trkpt><trkpt lat="43.95259631764781" lon="6.366863661719856"><ele>726.0</ele><time>2026-04-21T06:06:48Z</time></trkpt><trkpt lat="43.952677557144234" lon="6.366967174506864"><ele>727.5</ele><time>2026-04-21T06:06:49Z</time></trkpt><trkpt lat="43.95274884323244" lon="6.367071275839442"><ele>729.0</ele><time>2026-04-21T06:06:50Z</time></trkpt><trkpt lat="43.95279257859288" lon="6.367150867554967"><ele>730.5</ele><time>2026-04-21T06:06:51Z</time></trkpt><trkpt lat="43.95283192196529" lon="6.367228978872443"><ele>732.0</ele><time>2026-04-21T06:06:53Z</time></trkpt><trkpt lat="43.95287520943781" lon="6.367297866049106"><ele>733.5</ele><time>2026-04-21T06:06:55Z</time></trkpt><trkpt lat="43.952925444202826" lon="6.367401868460112"><ele>735.0</ele><time>2026-04-21T06:06:57Z</time></trkpt><trkpt lat="43.95295576924766" lon="6.367495658427949"><ele>735.0</ele><time>2026-04-21T06:06:58Z</time></trkpt><trkpt lat="43.95298857818322" lon="6.367603260445497"><ele>735.0</ele><time>2026-04-21T06:06:59Z</time></trkpt><trkpt lat="43.95303088583929" lon="6.36772054731871"><ele>735.0</ele><time>2026-04-21T06:07:00Z</time></trkpt><trkpt lat="43.95307752940818" lon="6.367874635264101"><ele>735.0</ele><time>2026-04-21T06:07:01Z</time></trkpt><trkpt lat="43.95313502264228" lon="6.368038065247645"><ele>735.0</ele><time>2026-04-21T06:07:02Z</time></trkpt><trkpt lat="43.953186287973224" lon="6.368209391901258"><ele>735.25</ele><time>2026-04-21T06:07:03Z</time></trkpt><trkpt lat="43.95324238634916" lon="6.368384886533377"><ele>735.5</ele><time>2026-04-21T06:07:04Z</time></trkpt><trkpt lat="43.95330083793338" lon="6.3685540401916"><ele>735.75</ele><time>2026-04-21T06:07:05Z</time></trkpt><trkpt lat="43.95336022898281" lon="6.368700745352423"><ele>736.0</ele><time>2026-04-21T06:07:06Z</time></trkpt><trkpt lat="43.953423260197106" lon="6.368850148649562"><ele>734.75</ele><time>2026-04-21T06:07:07Z</time></trkpt><trkpt lat="43.953493396687136" lon="6.369007888120796"><ele>733.5</ele><time>2026-04-21T06:07:08Z</time></trkpt><trkpt lat="43.95356165705928" lon="6.369164922577834"><ele>732.25</ele><time>2026-04-21T06:07:09Z</time></trkpt><trkpt lat="43.95363329466495" lon="6.369319647529126"><ele>731.0</ele><time>2026-04-21T06:07:10Z</time></trkpt><trkpt lat="43.95370761225317" lon="6.369481726200475"><ele>731.0</ele><time>2026-04-21T06:07:11Z</time></trkpt><trkpt lat="43.95377350664653" lon="6.3696566241508465"><ele>731.0</ele><time>2026-04-21T06:07:12Z</time></trkpt><trkpt lat="43.95384935659628" lon="6.369836756963866"><ele>731.0</ele><time>2026-04-21T06:07:13Z</time></trkpt><trkpt lat="43.95391518214261" lon="6.3700269316889955"><ele>731.0</ele><time>2026-04-21T06:07:14Z</time></trkpt><trkpt lat="43.953980542413596" lon="6.370219034490281"><ele>730.0</ele><time>2026-04-21T06:07:15Z</time></trkpt><trkpt lat="43.95405103689181" lon="6.370415684938817"><ele>729.0</ele><time>2026-04-21T06:07:16Z</time></trkpt><trkpt lat="43.95410664789917" lon="6.370628513668848"><ele>728.0</ele><time>2026-04-21T06:07:17Z</time></trkpt><trkpt lat="43.954191790578626" lon="6.370829306368358"><ele>728.6666666666666</ele><time>2026-04-21T06:07:18Z</time></trkpt><trkpt lat="43.95426336724941" lon="6.3710358090826125"><ele>729.3333333333334</ele><time>2026-04-21T06:07:19Z</time></trkpt><trkpt lat="43.95433611162165" lon="6.371233972206225"><ele>730.0</ele><time>2026-04-21T06:07:20Z</time></trkpt><trkpt lat="43.954420550659414" lon="6.371415477014958"><ele>730.0</ele><time>2026-04-21T06:07:21Z</time></trkpt><trkpt lat="43.9545158521678" lon="6.37160098165451"><ele>730.0</ele><time>2026-04-21T06:07:22Z</time></trkpt><trkpt lat="43.9546188259324" lon="6.371779558510277"><ele>730.0</ele><time>2026-04-21T06:07:23Z</time></trkpt><trkpt lat="43.95472829300074" lon="6.371950849417159"><ele>730.0</ele><time>2026-04-21T06:07:24Z</time></trkpt><trkpt lat="43.95484634892271" lon="6.37211690284333"><ele>730.0</ele><time>2026-04-21T06:07:25Z</time></trkpt><trkpt lat="43.95497110126946" lon="6.372278394721086"><ele>730.0</ele><time>2026-04-21T06:07:26Z</time></trkpt><trkpt lat="43.95509865466368" lon="6.372429598162216"><ele>730.6666666666667</ele><time>2026-04-21T06:07:27Z</time></trkpt><trkpt lat="43.955231764595965" lon="6.372577120659833"><ele>731.3333333333334</ele><time>2026-04-21T06:07:28Z</time></trkpt><trkpt lat="43.95535774443847" lon="6.372719070727454"><ele>732.0</ele><time>2026-04-21T06:07:29Z</time></trkpt><trkpt lat="43.95546985288032" lon="6.37285044269905"><ele>732.0</ele><time>2026-04-21T06:07:30Z</time></trkpt><trkpt lat="43.95557431087107" lon="6.372971706513576"><ele>732.0</ele><time>2026-04-21T06:07:31Z</time></trkpt><trkpt lat="43.95567238809026" lon="6.373098548783907"><ele>732.0</ele><time>2026-04-21T06:07:32Z</time></trkpt><trkpt lat="43.95575155463441" lon="6.373240565320699"><ele>732.0</ele><time>2026-04-21T06:07:33Z</time></trkpt><trkpt lat="43.9558231529865" lon="6.3734033056585595"><ele>733.6666666666666</ele><time>2026-04-21T06:07:34Z</time></trkpt><trkpt lat="43.955896115277895" lon="6.373581969063834"><ele>735.3333333333333</ele><time>2026-04-21T06:07:35Z</time></trkpt><trkpt lat="43.95596160443307" lon="6.373768828885562"><ele>737.0</ele><time>2026-04-21T06:07:36Z</time></trkpt><trkpt lat="43.95603486463563" lon="6.373965404525589"><ele>738.6666666666666</ele><time>2026-04-21T06:07:37Z</time></trkpt><trkpt lat="43.956113369175796" lon="6.374170235489497"><ele>740.3333333333334</ele><time>2026-04-21T06:07:38Z</time></trkpt><trkpt lat="43.956197315608634" lon="6.374375475844017"><ele>742.0</ele><time>2026-04-21T06:07:39Z</time></trkpt><trkpt lat="43.95629550631127" lon="6.374583597431681"><ele>741.6666666666667</ele><time>2026-04-21T06:07:40Z</time></trkpt><trkpt lat="43.9564011307199" lon="6.3747965139506535"><ele>741.3333333333334</ele><time>2026-04-21T06:07:41Z</time></trkpt><trkpt lat="43.95650818940446" lon="6.375004701414452"><ele>741.0</ele><time>2026-04-21T06:07:42Z</time></trkpt><trkpt lat="43.95661816637838" lon="6.375214426997015"><ele>741.6666666666666</ele><time>2026-04-21T06:07:43Z</time></trkpt><trkpt lat="43.95672268260547" lon="6.375406196091028"><ele>742.3333333333333</ele><time>2026-04-21T06:07:44Z</time></trkpt><trkpt lat="43.95682278636486" lon="6.37558438713079"><ele>743.0</ele><time>2026-04-21T06:07:45Z</time></trkpt><trkpt lat="43.95691919371092" lon="6.375753062540092"><ele>743.0</ele><time>2026-04-21T06:07:46Z</time></trkpt><trkpt lat="43.95702590890008" lon="6.375914356383561"><ele>743.0</ele><time>2026-04-21T06:07:47Z</time></trkpt><trkpt lat="43.957147460512154" lon="6.376066628385636"><ele>743.0</ele><time>2026-04-21T06:07:48Z</time></trkpt><trkpt lat="43.957279800613335" lon="6.3762128774332565"><ele>744.0</ele><time>2026-04-21T06:07:49Z</time></trkpt><trkpt lat="43.957425129482054" lon="6.3763573340001525"><ele>745.0</ele><time>2026-04-21T06:07:50Z</time></trkpt><trkpt lat="43.95757456072428" lon="6.376505174073916"><ele>746.0</ele><time>2026-04-21T06:07:51Z</time></trkpt><trkpt lat="43.95772336372593" lon="6.376659500442408"><ele>746.0</ele><time>2026-04-21T06:07:52Z</time></trkpt><trkpt lat="43.95787805031835" lon="6.376818746055311"><ele>746.0</ele><time>2026-04-21T06:07:53Z</time></trkpt><trkpt lat="43.95803549776709" lon="6.376974610859986"><ele>746.0</ele><time>2026-04-21T06:07:54Z</time></trkpt><trkpt lat="43.95818634722995" lon="6.377122322734268"><ele>746.3333333333333</ele><time>2026-04-21T06:07:55Z</time></trkpt><trkpt lat="43.95833661376955" lon="6.377272407734866"><ele>746.6666666666666</ele><time>2026-04-21T06:07:56Z</time></trkpt><trkpt lat="43.958483823255726" lon="6.3774190344998996"><ele>747.0</ele><time>2026-04-21T06:07:57Z</time></trkpt><trkpt lat="43.95862782286736" lon="6.377558947750806"><ele>747.0</ele><time>2026-04-21T06:07:58Z</time></trkpt><trkpt lat="43.95876147935625" lon="6.377695773484738"><ele>747.0</ele><time>2026-04-21T06:07:59Z</time></trkpt><trkpt lat="43.95889473416648" lon="6.377837988407938"><ele>747.0</ele><time>2026-04-21T06:08:00Z</time></trkpt><trkpt lat="43.95902559488888" lon="6.377985873201543"><ele>748.3333333333334</ele><time>2026-04-21T06:08:01Z</time></trkpt><trkpt lat="43.95914539798581" lon="6.378147759347505"><ele>749.6666666666667</ele><time>2026-04-21T06:08:02Z</time></trkpt><trkpt lat="43.9592523220917" lon="6.378334217075723"><ele>751.0</ele><time>2026-04-21T06:08:03Z</time></trkpt><trkpt lat="43.9593553357838" lon="6.378536188808999"><ele>751.0</ele><time>2026-04-21T06:08:04Z</time></trkpt><trkpt lat="43.95944836056028" lon="6.3787556118795905"><ele>751.0</ele><time>2026-04-21T06:08:05Z</time></trkpt><trkpt lat="43.95953643732982" lon="6.378985651127366"><ele>751.0</ele><time>2026-04-21T06:08:06Z</time></trkpt><trkpt lat="43.95962797244438" lon="6.379220622380861"><ele>750.6666666666667</ele><time>2026-04-21T06:08:07Z</time></trkpt><trkpt lat="43.95972281104133" lon="6.379459219385411"><ele>750.3333333333334</ele><time>2026-04-21T06:08:08Z</time></trkpt><trkpt lat="43.95981629013628" lon="6.379700417019011"><ele>750.0</ele><time>2026-04-21T06:08:09Z</time></trkpt><trkpt lat="43.95991128027301" lon="6.379948673035507"><ele>750.0</ele><time>2026-04-21T06:08:10Z</time></trkpt><trkpt lat="43.96000578676064" lon="6.380201334346577"><ele>750.0</ele><time>2026-04-21T06:08:11Z</time></trkpt><trkpt lat="43.960102184385796" lon="6.380455644728348"><ele>750.0</ele><time>2026-04-21T06:08:12Z</time></trkpt><trkpt lat="43.96019235832152" lon="6.380697024106888"><ele>750.0</ele><time>2026-04-21T06:08:13.001Z</time></trkpt><trkpt lat="43.960282418408056" lon="6.380933827742798"><ele>750.0</ele><time>2026-04-21T06:08:14.001Z</time></trkpt><trkpt lat="43.96037786161139" lon="6.3811771557302714"><ele>750.0</ele><time>2026-04-21T06:08:15.001Z</time></trkpt><trkpt lat="43.96047592256218" lon="6.381422508443968"><ele>750.0</ele><time>2026-04-21T06:08:16.001Z</time></trkpt><trkpt lat="43.960572884741254" lon="6.38167148455784"><ele>750.0</ele><time>2026-04-21T06:08:17.001Z</time></trkpt><trkpt lat="43.960667188934316" lon="6.381918955166838"><ele>750.0</ele><time>2026-04-21T06:08:18.001Z</time></trkpt><trkpt lat="43.960759955334346" lon="6.382165546394948"><ele>748.0</ele><time>2026-04-21T06:08:19.001Z</time></trkpt><trkpt lat="43.9608449868048" lon="6.3823950534614635"><ele>746.0</ele><time>2026-04-21T06:08:20.001Z</time></trkpt><trkpt lat="43.960918738853735" lon="6.382598000543635"><ele>744.0</ele><time>2026-04-21T06:08:21.001Z</time></trkpt><trkpt lat="43.960979602201284" lon="6.382799074333774"><ele>749.3333333333334</ele><time>2026-04-21T06:08:22.001Z</time></trkpt><trkpt lat="43.96102154655868" lon="6.383016082637293"><ele>754.6666666666667</ele><time>2026-04-21T06:08:23.001Z</time></trkpt><trkpt lat="43.96105157981153" lon="6.383242825023244"><ele>760.0</ele><time>2026-04-21T06:08:24.001Z</time></trkpt><trkpt lat="43.961074636721776" lon="6.383455607743826"><ele>760.0</ele><time>2026-04-21T06:08:25.001Z</time></trkpt><trkpt lat="43.961081766271114" lon="6.383640462729606"><ele>760.0</ele><time>2026-04-21T06:08:26.001Z</time></trkpt><trkpt lat="43.96106559036912" lon="6.383815704498815"><ele>760.0</ele><time>2026-04-21T06:08:27.001Z</time></trkpt><trkpt lat="43.96102987740835" lon="6.383983498458095"><ele>760.0</ele><time>2026-04-21T06:08:28.001Z</time></trkpt><trkpt lat="43.960974167640785" lon="6.384133962728088"><ele>756.5</ele><time>2026-04-21T06:08:29.001Z</time></trkpt><trkpt lat="43.96090683372341" lon="6.384272245428644"><ele>753.0</ele><time>2026-04-21T06:08:30Z</time></trkpt><trkpt lat="43.96081291356335" lon="6.384406630560683"><ele>749.5</ele><time>2026-04-21T06:08:31Z</time></trkpt><trkpt lat="43.96069715918228" lon="6.384533442946621"><ele>746.0</ele><time>2026-04-21T06:08:32Z</time></trkpt><trkpt lat="43.96056628666033" lon="6.384656018823249"><ele>744.0</ele><time>2026-04-21T06:08:33Z</time></trkpt><trkpt lat="43.960434841566396" lon="6.384791381251595"><ele>742.0</ele><time>2026-04-21T06:08:34Z</time></trkpt><trkpt lat="43.960296915454244" lon="6.384941938355052"><ele>740.0</ele><time>2026-04-21T06:08:35Z</time></trkpt><trkpt lat="43.9601542226383" lon="6.385100253140514"><ele>740.0</ele><time>2026-04-21T06:08:36Z</time></trkpt><trkpt lat="43.960004467914246" lon="6.385261974190512"><ele>740.0</ele><time>2026-04-21T06:08:37Z</time></trkpt><trkpt lat="43.95984726229982" lon="6.385426404285595"><ele>740.0</ele><time>2026-04-21T06:08:38Z</time></trkpt><trkpt lat="43.95969211393381" lon="6.385589233552608"><ele>740.3333333333333</ele><time>2026-04-21T06:08:39Z</time></trkpt><trkpt lat="43.95953877157993" lon="6.385752969039794"><ele>740.6666666666666</ele><time>2026-04-21T06:08:40Z</time></trkpt><trkpt lat="43.959395748396354" lon="6.385904790039666"><ele>741.0</ele><time>2026-04-21T06:08:41Z</time></trkpt><trkpt lat="43.95925315401506" lon="6.386052920615358"><ele>741.3333333333334</ele><time>2026-04-21T06:08:42Z</time></trkpt><trkpt lat="43.95911500443905" lon="6.386205168705531"><ele>741.6666666666667</ele><time>2026-04-21T06:08:43Z</time></trkpt><trkpt lat="43.9589833229674" lon="6.386371295610845"><ele>742.0</ele><time>2026-04-21T06:08:44Z</time></trkpt><trkpt lat="43.95885581845382" lon="6.386556093470399"><ele>743.3333333333334</ele><time>2026-04-21T06:08:45Z</time></trkpt><trkpt lat="43.95873295043943" lon="6.386758738619267"><ele>744.6666666666666</ele><time>2026-04-21T06:08:46Z</time></trkpt><trkpt lat="43.958614280307366" lon="6.386976709322084"><ele>746.0</ele><time>2026-04-21T06:08:47Z</time></trkpt><trkpt lat="43.958493098830886" lon="6.387200358085064"><ele>745.3333333333333</ele><time>2026-04-21T06:08:48Z</time></trkpt><trkpt lat="43.95837084999515" lon="6.387426366390881"><ele>744.6666666666666</ele><time>2026-04-21T06:08:49Z</time></trkpt><trkpt lat="43.95824877077322" lon="6.387653619823086"><ele>744.0</ele><time>2026-04-21T06:08:50Z</time></trkpt><trkpt lat="43.958126451264185" lon="6.387885946432625"><ele>745.0</ele><time>2026-04-21T06:08:51Z</time></trkpt><trkpt lat="43.95800546396482" lon="6.3881206481621335"><ele>746.0</ele><time>2026-04-21T06:08:52Z</time></trkpt><trkpt lat="43.9578855631635" lon="6.388353902877593"><ele>747.0</ele><time>2026-04-21T06:08:53Z</time></trkpt><trkpt lat="43.95776402032583" lon="6.3885852108704535"><ele>747.0</ele><time>2026-04-21T06:08:54Z</time></trkpt><trkpt lat="43.957643369269654" lon="6.3888161670451975"><ele>747.0</ele><time>2026-04-21T06:08:55Z</time></trkpt><trkpt lat="43.957524076436265" lon="6.389046268907038"><ele>747.0</ele><time>2026-04-21T06:08:56Z</time></trkpt><trkpt lat="43.957404640021444" lon="6.3892750996781285"><ele>746.6666666666666</ele><time>2026-04-21T06:08:57Z</time></trkpt><trkpt lat="43.957283693169224" lon="6.389501483062419"><ele>746.3333333333333</ele><time>2026-04-21T06:08:58Z</time></trkpt><trkpt lat="43.957162976449716" lon="6.38972740224952"><ele>746.0</ele><time>2026-04-21T06:08:59Z</time></trkpt><trkpt lat="43.95704325796844" lon="6.38995122362222"><ele>748.0</ele><time>2026-04-21T06:09:00Z</time></trkpt><trkpt lat="43.95692610807253" lon="6.390177629328483"><ele>750.0</ele><time>2026-04-21T06:09:01Z</time></trkpt><trkpt lat="43.956810438077994" lon="6.390403265107218"><ele>752.0</ele><time>2026-04-21T06:09:02Z</time></trkpt><trkpt lat="43.95669479127941" lon="6.390628109090621"><ele>752.3333333333333</ele><time>2026-04-21T06:09:03Z</time></trkpt><trkpt lat="43.95658378183691" lon="6.390855977281686"><ele>752.6666666666666</ele><time>2026-04-21T06:09:04Z</time></trkpt><trkpt lat="43.95648747930762" lon="6.3910915187804465"><ele>753.0</ele><time>2026-04-21T06:09:05Z</time></trkpt><trkpt lat="43.956395196914826" lon="6.391333485430307"><ele>755.3333333333334</ele><time>2026-04-21T06:09:06Z</time></trkpt><trkpt lat="43.95630767207002" lon="6.391581896802064"><ele>757.6666666666667</ele><time>2026-04-21T06:09:07Z</time></trkpt><trkpt lat="43.95622653631481" lon="6.39183752702679"><ele>760.0</ele><time>2026-04-21T06:09:08Z</time></trkpt><trkpt lat="43.95615558400896" lon="6.392099567818363"><ele>763.0</ele><time>2026-04-21T06:09:09Z</time></trkpt><trkpt lat="43.95609257662828" lon="6.392366755286956"><ele>766.0</ele><time>2026-04-21T06:09:10Z</time></trkpt><trkpt lat="43.95604680168884" lon="6.392643420684126"><ele>769.0</ele><time>2026-04-21T06:09:11Z</time></trkpt><trkpt lat="43.95598585375275" lon="6.392912023144402"><ele>771.0</ele><time>2026-04-21T06:09:12Z</time></trkpt><trkpt lat="43.955946161783835" lon="6.393192816334447"><ele>773.0</ele><time>2026-04-21T06:09:13Z</time></trkpt><trkpt lat="43.95590451072968" lon="6.393472749876023"><ele>775.0</ele><time>2026-04-21T06:09:14Z</time></trkpt><trkpt lat="43.9558607956467" lon="6.393751629781516"><ele>769.0</ele><time>2026-04-21T06:09:15Z</time></trkpt><trkpt lat="43.95581967567258" lon="6.394034163212297"><ele>763.0</ele><time>2026-04-21T06:09:16Z</time></trkpt><trkpt lat="43.95577253899755" lon="6.3943149588714165"><ele>757.0</ele><time>2026-04-21T06:09:17Z</time></trkpt><trkpt lat="43.955726944814934" lon="6.394595821880371"><ele>757.0</ele><time>2026-04-21T06:09:18Z</time></trkpt><trkpt lat="43.95568051475444" lon="6.394878110331712"><ele>757.0</ele><time>2026-04-21T06:09:19Z</time></trkpt><trkpt lat="43.95563664759924" lon="6.395161134491007"><ele>757.0</ele><time>2026-04-21T06:09:20Z</time></trkpt><trkpt lat="43.955593158006415" lon="6.395443341152863"><ele>758.3333333333334</ele><time>2026-04-21T06:09:21Z</time></trkpt><trkpt lat="43.95555053958176" lon="6.395726018575841"><ele>759.6666666666666</ele><time>2026-04-21T06:09:22Z</time></trkpt><trkpt lat="43.95551023812337" lon="6.396009229313115"><ele>761.0</ele><time>2026-04-21T06:09:23Z</time></trkpt><trkpt lat="43.95546731738798" lon="6.396292741417951"><ele>762.0</ele><time>2026-04-21T06:09:24Z</time></trkpt><trkpt lat="43.95542311408796" lon="6.396575463620832"><ele>763.0</ele><time>2026-04-21T06:09:25Z</time></trkpt><trkpt lat="43.955379796904765" lon="6.396859414331168"><ele>764.0</ele><time>2026-04-21T06:09:26Z</time></trkpt><trkpt lat="43.955335897272676" lon="6.397144099520095"><ele>765.3333333333333</ele><time>2026-04-21T06:09:27Z</time></trkpt><trkpt lat="43.95529100860396" lon="6.397428983475009"><ele>766.6666666666666</ele><time>2026-04-21T06:09:28Z</time></trkpt><trkpt lat="43.95524650984823" lon="6.397713293519052"><ele>768.0</ele><time>2026-04-21T06:09:29Z</time></trkpt><trkpt lat="43.9552041704376" lon="6.397997188709358"><ele>771.0</ele><time>2026-04-21T06:09:30Z</time></trkpt><trkpt lat="43.95516033873302" lon="6.398278773803029"><ele>774.0</ele><time>2026-04-21T06:09:31Z</time></trkpt><trkpt lat="43.95511722090778" lon="6.398559923007973"><ele>777.0</ele><time>2026-04-21T06:09:32Z</time></trkpt><trkpt lat="43.95507411058958" lon="6.398839264231429"><ele>773.0</ele><time>2026-04-21T06:09:33Z</time></trkpt><trkpt lat="43.95503267044204" lon="6.399115615976128"><ele>769.0</ele><time>2026-04-21T06:09:34Z</time></trkpt><trkpt lat="43.954988104786956" lon="6.399389325186362"><ele>765.0</ele><time>2026-04-21T06:09:35Z</time></trkpt><trkpt lat="43.954944895091636" lon="6.3996650500983545"><ele>767.3333333333333</ele><time>2026-04-21T06:09:36Z</time></trkpt><trkpt lat="43.95490129444398" lon="6.399941771833424"><ele>769.6666666666666</ele><time>2026-04-21T06:09:37Z</time></trkpt><trkpt lat="43.95485883314769" lon="6.400221282044265"><ele>772.0</ele><time>2026-04-21T06:09:38Z</time></trkpt><trkpt lat="43.954815454414415" lon="6.400499131579662"><ele>775.6666666666666</ele><time>2026-04-21T06:09:39Z</time></trkpt><trkpt lat="43.9547675668484" lon="6.400774788339209"><ele>779.3333333333333</ele><time>2026-04-21T06:09:40Z</time></trkpt><trkpt lat="43.95471329302862" lon="6.401046390797408"><ele>783.0</ele><time>2026-04-21T06:09:41Z</time></trkpt><trkpt lat="43.95465108888137" lon="6.4013084640969105"><ele>784.3333333333333</ele><time>2026-04-21T06:09:42Z</time></trkpt><trkpt lat="43.95458152128573" lon="6.401571325877391"><ele>785.6666666666666</ele><time>2026-04-21T06:09:43Z</time></trkpt><trkpt lat="43.9545050425869" lon="6.401830701007251"><ele>787.0</ele><time>2026-04-21T06:09:44Z</time></trkpt><trkpt lat="43.954420038583386" lon="6.402086544777022"><ele>786.0</ele><time>2026-04-21T06:09:45Z</time></trkpt><trkpt lat="43.95432982057765" lon="6.402339059157787"><ele>785.0</ele><time>2026-04-21T06:09:46Z</time></trkpt><trkpt lat="43.954235385149126" lon="6.402591725141931"><ele>784.0</ele><time>2026-04-21T06:09:47Z</time></trkpt><trkpt lat="43.95413732645342" lon="6.402847150040384"><ele>779.0</ele><time>2026-04-21T06:09:48Z</time></trkpt><trkpt lat="43.95403789625766" lon="6.4031036100089915"><ele>774.0</ele><time>2026-04-21T06:09:49Z</time></trkpt><trkpt lat="43.95393967975455" lon="6.403362613187022"><ele>769.0</ele><time>2026-04-21T06:09:50Z</time></trkpt><trkpt lat="43.9538412655412" lon="6.4036224860056485"><ele>771.6666666666666</ele><time>2026-04-21T06:09:51Z</time></trkpt><trkpt lat="43.95373912374514" lon="6.403881254358195"><ele>774.3333333333333</ele><time>2026-04-21T06:09:52Z</time></trkpt><trkpt lat="43.95363470645665" lon="6.404140021142259"><ele>777.0</ele><time>2026-04-21T06:09:53Z</time></trkpt><trkpt lat="43.95353225041718" lon="6.404403040857629"><ele>778.3333333333333</ele><time>2026-04-21T06:09:54Z</time></trkpt><trkpt lat="43.95342891821157" lon="6.404665811208635"><ele>779.6666666666666</ele><time>2026-04-21T06:09:55Z</time></trkpt><trkpt lat="43.953326566213484" lon="6.404927385601677"><ele>781.0</ele><time>2026-04-21T06:09:56Z</time></trkpt><trkpt lat="43.95322402002195" lon="6.4051876016185405"><ele>780.0</ele><time>2026-04-21T06:09:57Z</time></trkpt><trkpt lat="43.953123629424695" lon="6.405447968957196"><ele>779.0</ele><time>2026-04-21T06:09:58Z</time></trkpt><trkpt lat="43.95302405826073" lon="6.40570506121205"><ele>778.0</ele><time>2026-04-21T06:09:59Z</time></trkpt><trkpt lat="43.95292459861557" lon="6.405959831978039"><ele>778.0</ele><time>2026-04-21T06:10:00Z</time></trkpt><trkpt lat="43.95282735226494" lon="6.406211616292315"><ele>778.0</ele><time>2026-04-21T06:10:01Z</time></trkpt><trkpt lat="43.95273133223973" lon="6.406460441207957"><ele>778.0</ele><time>2026-04-21T06:10:02Z</time></trkpt><trkpt lat="43.95263577919592" lon="6.406706288147891"><ele>779.6666666666666</ele><time>2026-04-21T06:10:03Z</time></trkpt><trkpt lat="43.95254260711145" lon="6.406945520913959"><ele>781.3333333333333</ele><time>2026-04-21T06:10:04Z</time></trkpt><trkpt lat="43.95245323216874" lon="6.407182024476012"><ele>783.0</ele><time>2026-04-21T06:10:05Z</time></trkpt><trkpt lat="43.95236671883536" lon="6.407417369052133"><ele>781.6666666666667</ele><time>2026-04-21T06:10:06Z</time></trkpt><trkpt lat="43.952281338968206" lon="6.407652962030825"><ele>780.3333333333334</ele><time>2026-04-21T06:10:07Z</time></trkpt><trkpt lat="43.95220041428698" lon="6.407889368115289"><ele>779.0</ele><time>2026-04-21T06:10:08Z</time></trkpt><trkpt lat="43.95212084248792" lon="6.408133508951392"><ele>779.0</ele><time>2026-04-21T06:10:09Z</time></trkpt><trkpt lat="43.952054892970175" lon="6.4083874694222995"><ele>779.0</ele><time>2026-04-21T06:10:10Z</time></trkpt><trkpt lat="43.95199278300456" lon="6.408644430766891"><ele>779.0</ele><time>2026-04-21T06:10:11Z</time></trkpt><trkpt lat="43.951935668484744" lon="6.408913601326806"><ele>783.3333333333334</ele><time>2026-04-21T06:10:12Z</time></trkpt><trkpt lat="43.951875727145016" lon="6.40916840991165"><ele>787.6666666666667</ele><time>2026-04-21T06:10:13Z</time></trkpt><trkpt lat="43.95181697945535" lon="6.409429505580177"><ele>792.0</ele><time>2026-04-21T06:10:14Z</time></trkpt><trkpt lat="43.951759973828935" lon="6.409690075511864"><ele>787.0</ele><time>2026-04-21T06:10:15Z</time></trkpt><trkpt lat="43.9517027353046" lon="6.409949637937892"><ele>782.0</ele><time>2026-04-21T06:10:16Z</time></trkpt><trkpt lat="43.95164539388542" lon="6.410207509415156"><ele>777.0</ele><time>2026-04-21T06:10:17Z</time></trkpt><trkpt lat="43.95159236813732" lon="6.410466314612894"><ele>778.0</ele><time>2026-04-21T06:10:18Z</time></trkpt><trkpt lat="43.95154081743874" lon="6.410723720751097"><ele>779.0</ele><time>2026-04-21T06:10:19Z</time></trkpt><trkpt lat="43.9514947147374" lon="6.410970727619229"><ele>780.0</ele><time>2026-04-21T06:10:20Z</time></trkpt><trkpt lat="43.951456546074304" lon="6.411215367730581"><ele>781.6666666666667</ele><time>2026-04-21T06:10:21Z</time></trkpt><trkpt lat="43.95143019879305" lon="6.411453428403923"><ele>783.3333333333334</ele><time>2026-04-21T06:10:22Z</time></trkpt><trkpt lat="43.95140961452367" lon="6.411692373396295"><ele>785.0</ele><time>2026-04-21T06:10:23Z</time></trkpt><trkpt lat="43.9514007199639" lon="6.41194374211632"><ele>787.3333333333334</ele><time>2026-04-21T06:10:24Z</time></trkpt><trkpt lat="43.951404434558334" lon="6.41220056525824"><ele>789.6666666666667</ele><time>2026-04-21T06:10:25Z</time></trkpt><trkpt lat="43.95141770459087" lon="6.412460086295533"><ele>792.0</ele><time>2026-04-21T06:10:26.001Z</time></trkpt><trkpt lat="43.9514363604905" lon="6.412725188347627"><ele>794.3333333333333</ele><time>2026-04-21T06:10:27.001Z</time></trkpt><trkpt lat="43.95145642454264" lon="6.412994167011147"><ele>796.6666666666666</ele><time>2026-04-21T06:10:28.001Z</time></trkpt><trkpt lat="43.95147907179039" lon="6.413266019237502"><ele>799.0</ele><time>2026-04-21T06:10:29.001Z</time></trkpt><trkpt lat="43.95150399553741" lon="6.413538460664296"><ele>799.0</ele><time>2026-04-21T06:10:30.001Z</time></trkpt><trkpt lat="43.95152486664496" lon="6.413808399693945"><ele>799.0</ele><time>2026-04-21T06:10:31.001Z</time></trkpt><trkpt lat="43.951541867133066" lon="6.41407874140457"><ele>799.0</ele><time>2026-04-21T06:10:32.001Z</time></trkpt><trkpt lat="43.95155359947291" lon="6.414347540449983"><ele>799.6666666666666</ele><time>2026-04-21T06:10:33.001Z</time></trkpt><trkpt lat="43.95155745349759" lon="6.414609292347038"><ele>800.3333333333333</ele><time>2026-04-21T06:10:34.001Z</time></trkpt><trkpt lat="43.95154881703893" lon="6.414849757476767"><ele>801.0</ele><time>2026-04-21T06:10:35.001Z</time></trkpt><trkpt lat="43.95152500639364" lon="6.415074595915894"><ele>801.0</ele><time>2026-04-21T06:10:36Z</time></trkpt><trkpt lat="43.95149181035543" lon="6.415301903497318"><ele>801.0</ele><time>2026-04-21T06:10:37Z</time></trkpt><trkpt lat="43.951458451616354" lon="6.415528965661842"><ele>801.0</ele><time>2026-04-21T06:10:38Z</time></trkpt><trkpt lat="43.95141176854291" lon="6.4157348186592404"><ele>800.0</ele><time>2026-04-21T06:10:39Z</time></trkpt><trkpt lat="43.951409210871354" lon="6.4159343938939495"><ele>799.0</ele><time>2026-04-21T06:10:40Z</time></trkpt><trkpt lat="43.95139891612318" lon="6.41612575276005"><ele>798.0</ele><time>2026-04-21T06:10:41Z</time></trkpt><trkpt lat="43.951406832277414" lon="6.416319092877799"><ele>797.0</ele><time>2026-04-21T06:10:42Z</time></trkpt><trkpt lat="43.95143390010962" lon="6.416511188473639"><ele>797.0</ele><time>2026-04-21T06:10:43Z</time></trkpt><trkpt lat="43.95147820119132" lon="6.416694684912072"><ele>797.0</ele><time>2026-04-21T06:10:44Z</time></trkpt><trkpt lat="43.95154018605618" lon="6.416886764246084"><ele>797.0</ele><time>2026-04-21T06:10:45Z</time></trkpt><trkpt lat="43.9516183278371" lon="6.417076602752165"><ele>797.0</ele><time>2026-04-21T06:10:46Z</time></trkpt><trkpt lat="43.95170895395123" lon="6.417271823370376"><ele>804.6666666666667</ele><time>2026-04-21T06:10:47Z</time></trkpt><trkpt lat="43.95180311484681" lon="6.417474117152581"><ele>812.3333333333333</ele><time>2026-04-21T06:10:48Z</time></trkpt><trkpt lat="43.95190289644031" lon="6.417685604432217"><ele>820.0</ele><time>2026-04-21T06:10:49Z</time></trkpt><trkpt lat="43.95200283045682" lon="6.417895654235525"><ele>815.6666666666666</ele><time>2026-04-21T06:10:50Z</time></trkpt><trkpt lat="43.95210819493899" lon="6.418112962380308"><ele>811.3333333333333</ele><time>2026-04-21T06:10:51Z</time></trkpt><trkpt lat="43.95221889188926" lon="6.418336695087663"><ele>807.0</ele><time>2026-04-21T06:10:52Z</time></trkpt><trkpt lat="43.952329933216205" lon="6.418562539814699"><ele>807.0</ele><time>2026-04-21T06:10:53Z</time></trkpt><trkpt lat="43.952434555272795" lon="6.418792776070626"><ele>807.0</ele><time>2026-04-21T06:10:54Z</time></trkpt><trkpt lat="43.95253101299979" lon="6.41902433380034"><ele>807.0</ele><time>2026-04-21T06:10:55Z</time></trkpt><trkpt lat="43.95261553800311" lon="6.419258554250481"><ele>806.6666666666667</ele><time>2026-04-21T06:10:56Z</time></trkpt><trkpt lat="43.95268107418375" lon="6.419515648257024"><ele>806.3333333333334</ele><time>2026-04-21T06:10:57Z</time></trkpt><trkpt lat="43.952730212931456" lon="6.419785645849618"><ele>806.0</ele><time>2026-04-21T06:10:58Z</time></trkpt><trkpt lat="43.952760774797376" lon="6.420069641704876"><ele>801.3333333333334</ele><time>2026-04-21T06:10:59Z</time></trkpt><trkpt lat="43.95281152054273" lon="6.420331078757122"><ele>796.6666666666667</ele><time>2026-04-21T06:11:00Z</time></trkpt><trkpt lat="43.95284943219095" lon="6.420606551359072"><ele>792.0</ele><time>2026-04-21T06:11:01Z</time></trkpt><trkpt lat="43.95288568320311" lon="6.420882751335427"><ele>791.3333333333333</ele><time>2026-04-21T06:11:02Z</time></trkpt><trkpt lat="43.952925479396875" lon="6.421146294055941"><ele>790.6666666666666</ele><time>2026-04-21T06:11:03Z</time></trkpt><trkpt lat="43.95297079533494" lon="6.421388527842924"><ele>790.0</ele><time>2026-04-21T06:11:04Z</time></trkpt><trkpt lat="43.95301561044667" lon="6.421614463224761"><ele>790.0</ele><time>2026-04-21T06:11:05Z</time></trkpt><trkpt lat="43.95306685559416" lon="6.421842751338951"><ele>790.0</ele><time>2026-04-21T06:11:06Z</time></trkpt><trkpt lat="43.95312734403755" lon="6.42207042342129"><ele>790.0</ele><time>2026-04-21T06:11:07Z</time></trkpt><trkpt lat="43.9531976957692" lon="6.422292586682659"><ele>791.0</ele><time>2026-04-21T06:11:08Z</time></trkpt><trkpt lat="43.95328030847722" lon="6.4225035919021884"><ele>792.0</ele><time>2026-04-21T06:11:09Z</time></trkpt><trkpt lat="43.95337610424191" lon="6.422713365109835"><ele>793.0</ele><time>2026-04-21T06:11:10Z</time></trkpt><trkpt lat="43.9534820339869" lon="6.422917991404335"><ele>794.3333333333333</ele><time>2026-04-21T06:11:11Z</time></trkpt><trkpt lat="43.95360217216672" lon="6.423117742061459"><ele>795.6666666666667</ele><time>2026-04-21T06:11:12Z</time></trkpt><trkpt lat="43.953729354468386" lon="6.423315678958297"><ele>797.0</ele><time>2026-04-21T06:11:13Z</time></trkpt><trkpt lat="43.95386512634062" lon="6.42351050093684"><ele>797.0</ele><time>2026-04-21T06:11:14Z</time></trkpt><trkpt lat="43.95400714141281" lon="6.42370605936666"><ele>797.0</ele><time>2026-04-21T06:11:15Z</time></trkpt><trkpt lat="43.95415626630215" lon="6.42390360117656"><ele>797.0</ele><time>2026-04-21T06:11:16Z</time></trkpt><trkpt lat="43.954306318477364" lon="6.424098121296451"><ele>799.6666666666667</ele><time>2026-04-21T06:11:17Z</time></trkpt><trkpt lat="43.954446182609125" lon="6.424282661622241"><ele>802.3333333333333</ele><time>2026-04-21T06:11:18Z</time></trkpt><trkpt lat="43.954574346134926" lon="6.4244566657052085"><ele>805.0</ele><time>2026-04-21T06:11:19Z</time></trkpt><trkpt lat="43.954695830544374" lon="6.4246223381837515"><ele>804.6666666666666</ele><time>2026-04-21T06:11:20Z</time></trkpt><trkpt lat="43.954810081734124" lon="6.424777952901892"><ele>804.3333333333333</ele><time>2026-04-21T06:11:21Z</time></trkpt><trkpt lat="43.95492642747603" lon="6.424937992884853"><ele>804.0</ele><time>2026-04-21T06:11:22Z</time></trkpt><trkpt lat="43.95504704041238" lon="6.425105722353335"><ele>811.0</ele><time>2026-04-21T06:11:23Z</time></trkpt><trkpt lat="43.955166534566395" lon="6.425283781481557"><ele>818.0</ele><time>2026-04-21T06:11:24Z</time></trkpt><trkpt lat="43.95527573140518" lon="6.425474730677058"><ele>825.0</ele><time>2026-04-21T06:11:25Z</time></trkpt><trkpt lat="43.95537675215017" lon="6.425682481365671"><ele>825.0</ele><time>2026-04-21T06:11:26Z</time></trkpt><trkpt lat="43.95546654532066" lon="6.425904942844906"><ele>825.0</ele><time>2026-04-21T06:11:27Z</time></trkpt><trkpt lat="43.95554645093379" lon="6.426140120646033"><ele>825.0</ele><time>2026-04-21T06:11:28Z</time></trkpt><trkpt lat="43.955619086130866" lon="6.42638459454749"><ele>821.3333333333333</ele><time>2026-04-21T06:11:29Z</time></trkpt><trkpt lat="43.95568937414718" lon="6.426634425578884"><ele>817.6666666666666</ele><time>2026-04-21T06:11:30Z</time></trkpt><trkpt lat="43.955759554528484" lon="6.426885150399102"><ele>814.0</ele><time>2026-04-21T06:11:31Z</time></trkpt><trkpt lat="43.95582934717709" lon="6.427120719026514"><ele>817.3333333333333</ele><time>2026-04-21T06:11:32Z</time></trkpt><trkpt lat="43.95590668306277" lon="6.4273594346805325"><ele>820.6666666666667</ele><time>2026-04-21T06:11:33Z</time></trkpt><trkpt lat="43.95599005547798" lon="6.427587489820775"><ele>824.0</ele><time>2026-04-21T06:11:34Z</time></trkpt><trkpt lat="43.956082544223" lon="6.427807252830163"><ele>821.6666666666667</ele><time>2026-04-21T06:11:35Z</time></trkpt><trkpt lat="43.956181613666374" lon="6.428016860838084"><ele>819.3333333333333</ele><time>2026-04-21T06:11:36Z</time></trkpt><trkpt lat="43.956293468829166" lon="6.428210882137828"><ele>817.0</ele><time>2026-04-21T06:11:37Z</time></trkpt><trkpt lat="43.95641874226095" lon="6.428392711978648"><ele>817.0</ele><time>2026-04-21T06:11:38Z</time></trkpt><trkpt lat="43.956554561472934" lon="6.428561536716389"><ele>817.0</ele><time>2026-04-21T06:11:39Z</time></trkpt><trkpt lat="43.956697222249105" lon="6.428725719976418"><ele>817.0</ele><time>2026-04-21T06:11:40Z</time></trkpt><trkpt lat="43.95684518228785" lon="6.428886036299276"><ele>817.0</ele><time>2026-04-21T06:11:41Z</time></trkpt><trkpt lat="43.95700127787078" lon="6.429037431721904"><ele>817.0</ele><time>2026-04-21T06:11:42Z</time></trkpt><trkpt lat="43.957163944813175" lon="6.4291795096835695"><ele>817.0</ele><time>2026-04-21T06:11:43Z</time></trkpt><trkpt lat="43.957328327995484" lon="6.429322271857203"><ele>817.0</ele><time>2026-04-21T06:11:44Z</time></trkpt><trkpt lat="43.95749419768936" lon="6.4294647035308765"><ele>817.0</ele><time>2026-04-21T06:11:45Z</time></trkpt><trkpt lat="43.95765939155498" lon="6.429609954543747"><ele>817.0</ele><time>2026-04-21T06:11:46Z</time></trkpt><trkpt lat="43.95782463225465" lon="6.429757449285627"><ele>818.0</ele><time>2026-04-21T06:11:47Z</time></trkpt><trkpt lat="43.95799169185111" lon="6.429903441211554"><ele>819.0</ele><time>2026-04-21T06:11:48Z</time></trkpt><trkpt lat="43.95816232276297" lon="6.430053540044558"><ele>820.0</ele><time>2026-04-21T06:11:49Z</time></trkpt><trkpt lat="43.958330340321005" lon="6.4302074659652515"><ele>821.6666666666666</ele><time>2026-04-21T06:11:50Z</time></trkpt><trkpt lat="43.95848048502538" lon="6.430354289417452"><ele>823.3333333333333</ele><time>2026-04-21T06:11:51Z</time></trkpt><trkpt lat="43.95861519551006" lon="6.430512027409285"><ele>825.0</ele><time>2026-04-21T06:11:52Z</time></trkpt><trkpt lat="43.95873042302179" lon="6.430677080531196"><ele>825.0</ele><time>2026-04-21T06:11:53Z</time></trkpt><trkpt lat="43.95883367073634" lon="6.430844581026603"><ele>825.0</ele><time>2026-04-21T06:11:54Z</time></trkpt><trkpt lat="43.95892228640098" lon="6.431011553577839"><ele>825.0</ele><time>2026-04-21T06:11:55Z</time></trkpt><trkpt lat="43.95900545794346" lon="6.431194984355588"><ele>823.6666666666667</ele><time>2026-04-21T06:11:56Z</time></trkpt><trkpt lat="43.959081895810705" lon="6.431400030857649"><ele>822.3333333333334</ele><time>2026-04-21T06:11:57Z</time></trkpt><trkpt lat="43.959154526159026" lon="6.431611464162066"><ele>821.0</ele><time>2026-04-21T06:11:58Z</time></trkpt><trkpt lat="43.959212889884355" lon="6.431808120138796"><ele>827.1999999999999</ele><time>2026-04-21T06:11:59Z</time></trkpt><trkpt lat="43.95925559491354" lon="6.431983125166131"><ele>833.4</ele><time>2026-04-21T06:12:00Z</time></trkpt><trkpt lat="43.95929154301111" lon="6.432112248931585"><ele>839.6</ele><time>2026-04-21T06:12:01Z</time></trkpt><trkpt lat="43.95932553635292" lon="6.432220393522567"><ele>845.8</ele><time>2026-04-21T06:12:02Z</time></trkpt><trkpt lat="43.9593479043528" lon="6.4323319332355355"><ele>852.0</ele><time>2026-04-21T06:12:04Z</time></trkpt><trkpt lat="43.95933268251841" lon="6.432451652558203"><ele>852.0</ele><time>2026-04-21T06:12:07Z</time></trkpt><trkpt lat="43.95923943597514" lon="6.432496085661119"><ele>852.0</ele><time>2026-04-21T06:12:09Z</time></trkpt><trkpt lat="43.959162886674555" lon="6.432447732124086"><ele>852.0</ele><time>2026-04-21T06:12:12Z</time></trkpt><trkpt lat="43.9590967838302" lon="6.432494669689621"><ele>852.0</ele><time>2026-04-21T06:12:30Z</time></trkpt><trkpt lat="43.95912092274725" lon="6.4326271783229805"><ele>852.0</ele><time>2026-04-21T06:12:32Z</time></trkpt><trkpt lat="43.9592307521972" lon="6.432600143801781"><ele>852.0</ele><time>2026-04-21T06:12:34Z</time></trkpt><trkpt lat="43.95927958082496" lon="6.432451872270335"><ele>852.0</ele><time>2026-04-21T06:12:36Z</time></trkpt><trkpt lat="43.95936267700545" lon="6.432408169485617"><ele>852.0</ele><time>2026-04-21T06:12:38Z</time></trkpt><trkpt lat="43.95943808671537" lon="6.432512600736308"><ele>852.0</ele><time>2026-04-21T06:12:40.001Z</time></trkpt><trkpt lat="43.959478936918906" lon="6.432619649679132"><ele>852.0</ele><time>2026-04-21T06:12:41.001Z</time></trkpt><trkpt lat="43.95952248268006" lon="6.432755515359008"><ele>852.0</ele><time>2026-04-21T06:12:42Z</time></trkpt><trkpt lat="43.95958681154458" lon="6.432895375812904"><ele>852.0</ele><time>2026-04-21T06:12:43Z</time></trkpt><trkpt lat="43.95969756197318" lon="6.4330244078721055"><ele>852.0</ele><time>2026-04-21T06:12:44Z</time></trkpt><trkpt lat="43.95982834425877" lon="6.4331332382222355"><ele>852.0</ele><time>2026-04-21T06:12:45Z</time></trkpt><trkpt lat="43.95997913146575" lon="6.433241903773143"><ele>856.0</ele><time>2026-04-21T06:12:46Z</time></trkpt><trkpt lat="43.96013534483173" lon="6.433360153681685"><ele>860.0</ele><time>2026-04-21T06:12:47Z</time></trkpt><trkpt lat="43.96029207834031" lon="6.433484348571412"><ele>864.0</ele><time>2026-04-21T06:12:48Z</time></trkpt><trkpt lat="43.960444735967215" lon="6.433601978774232"><ele>864.0</ele><time>2026-04-21T06:12:49Z</time></trkpt><trkpt lat="43.960586020221555" lon="6.433707143706047"><ele>864.0</ele><time>2026-04-21T06:12:50Z</time></trkpt><trkpt lat="43.96071425090692" lon="6.4338061799647415"><ele>864.0</ele><time>2026-04-21T06:12:51Z</time></trkpt><trkpt lat="43.96082892862249" lon="6.4339156235797965"><ele>864.0</ele><time>2026-04-21T06:12:52Z</time></trkpt><trkpt lat="43.960943544155526" lon="6.434048927219999"><ele>865.6666666666667</ele><time>2026-04-21T06:12:53Z</time></trkpt><trkpt lat="43.96104757642197" lon="6.4342162972852766"><ele>867.3333333333334</ele><time>2026-04-21T06:12:54Z</time></trkpt><trkpt lat="43.9611221683171" lon="6.434422352826351"><ele>869.0</ele><time>2026-04-21T06:12:55Z</time></trkpt><trkpt lat="43.96122243708182" lon="6.4346235087119785"><ele>860.6666666666667</ele><time>2026-04-21T06:12:56Z</time></trkpt><trkpt lat="43.96131505708193" lon="6.434840022124722"><ele>852.3333333333333</ele><time>2026-04-21T06:12:57Z</time></trkpt><trkpt lat="43.96140709388302" lon="6.435041706996637"><ele>844.0</ele><time>2026-04-21T06:12:58Z</time></trkpt><trkpt lat="43.961495009028795" lon="6.435217843800663"><ele>844.0</ele><time>2026-04-21T06:12:59Z</time></trkpt><trkpt lat="43.96157652371029" lon="6.435387657926975"><ele>844.0</ele><time>2026-04-21T06:13:00Z</time></trkpt><trkpt lat="43.96165093682405" lon="6.435545766957804"><ele>844.0</ele><time>2026-04-21T06:13:01Z</time></trkpt><trkpt lat="43.961722190995935" lon="6.435695648870964"><ele>844.0</ele><time>2026-04-21T06:13:02Z</time></trkpt><trkpt lat="43.96178485075027" lon="6.435841392794279"><ele>842.25</ele><time>2026-04-21T06:13:03Z</time></trkpt><trkpt lat="43.961825071240725" lon="6.436019775800542"><ele>840.5</ele><time>2026-04-21T06:13:04Z</time></trkpt><trkpt lat="43.96185918878918" lon="6.436214380754458"><ele>838.75</ele><time>2026-04-21T06:13:05Z</time></trkpt><trkpt lat="43.96185963606522" lon="6.436425248880617"><ele>837.0</ele><time>2026-04-21T06:13:06Z</time></trkpt><trkpt lat="43.96189161293024" lon="6.436636345710924"><ele>837.0</ele><time>2026-04-21T06:13:07Z</time></trkpt><trkpt lat="43.961901630748194" lon="6.436853127596732"><ele>837.0</ele><time>2026-04-21T06:13:08Z</time></trkpt><trkpt lat="43.961913812098345" lon="6.43706396446085"><ele>837.0</ele><time>2026-04-21T06:13:09Z</time></trkpt><trkpt lat="43.96192544333828" lon="6.437258635029028"><ele>837.0</ele><time>2026-04-21T06:13:10Z</time></trkpt><trkpt lat="43.96193591578626" lon="6.437426343110023"><ele>837.0</ele><time>2026-04-21T06:13:11Z</time></trkpt><trkpt lat="43.961941123857756" lon="6.437578458753413"><ele>837.0</ele><time>2026-04-21T06:13:12Z</time></trkpt><trkpt lat="43.96193603460223" lon="6.4377102653859195"><ele>837.0</ele><time>2026-04-21T06:13:13Z</time></trkpt><trkpt lat="43.96190814902735" lon="6.437845162745028"><ele>837.0</ele><time>2026-04-21T06:13:14Z</time></trkpt><trkpt lat="43.96184845092077" lon="6.437989288373807"><ele>837.0</ele><time>2026-04-21T06:13:15Z</time></trkpt><trkpt lat="43.96176786687038" lon="6.438118072116541"><ele>836.75</ele><time>2026-04-21T06:13:16Z</time></trkpt><trkpt lat="43.96170043950436" lon="6.438245959854895"><ele>836.5</ele><time>2026-04-21T06:13:17Z</time></trkpt><trkpt lat="43.961656457772165" lon="6.438412968776331"><ele>836.25</ele><time>2026-04-21T06:13:18Z</time></trkpt><trkpt lat="43.96162790207025" lon="6.438611701102124"><ele>836.0</ele><time>2026-04-21T06:13:19Z</time></trkpt><trkpt lat="43.96160129075499" lon="6.438824232413773"><ele>836.0</ele><time>2026-04-21T06:13:20Z</time></trkpt><trkpt lat="43.96156698782116" lon="6.439041060784"><ele>836.0</ele><time>2026-04-21T06:13:21Z</time></trkpt><trkpt lat="43.96152943309623" lon="6.439255000865532"><ele>836.0</ele><time>2026-04-21T06:13:22Z</time></trkpt><trkpt lat="43.96149047090932" lon="6.439475885081198"><ele>838.0</ele><time>2026-04-21T06:13:23Z</time></trkpt><trkpt lat="43.96145307458132" lon="6.439702289773257"><ele>840.0</ele><time>2026-04-21T06:13:24Z</time></trkpt><trkpt lat="43.961414545538815" lon="6.4399403304673015"><ele>842.0</ele><time>2026-04-21T06:13:25Z</time></trkpt><trkpt lat="43.96137395016414" lon="6.440189303785072"><ele>842.0</ele><time>2026-04-21T06:13:26Z</time></trkpt><trkpt lat="43.96132585027354" lon="6.440433434383643"><ele>842.0</ele><time>2026-04-21T06:13:27Z</time></trkpt><trkpt lat="43.96127642025651" lon="6.440652290113553"><ele>842.0</ele><time>2026-04-21T06:13:28Z</time></trkpt><trkpt lat="43.961229867975995" lon="6.440852858922354"><ele>843.2</ele><time>2026-04-21T06:13:29Z</time></trkpt><trkpt lat="43.96118810512092" lon="6.441039883373166"><ele>844.4000000000001</ele><time>2026-04-21T06:13:30Z</time></trkpt><trkpt lat="43.9611542377533" lon="6.441186147342199"><ele>845.5999999999999</ele><time>2026-04-21T06:13:31Z</time></trkpt><trkpt lat="43.96112927381271" lon="6.441284421145998"><ele>846.8</ele><time>2026-04-21T06:13:32Z</time></trkpt><trkpt lat="43.961108215932946" lon="6.441433909393227"><ele>848.0</ele><time>2026-04-21T06:13:34Z</time></trkpt><trkpt lat="43.9610884496204" lon="6.441524799592391"><ele>848.0</ele><time>2026-04-21T06:13:36Z</time></trkpt><trkpt lat="43.961128306224936" lon="6.441674818629695"><ele>848.0</ele><time>2026-04-21T06:20:25Z</time></trkpt><trkpt lat="43.96116682132602" lon="6.4417706984557785"><ele>848.0</ele><time>2026-04-21T06:20:26Z</time></trkpt><trkpt lat="43.961207371034774" lon="6.441894212836247"><ele>848.0</ele><time>2026-04-21T06:20:27Z</time></trkpt><trkpt lat="43.961254316961906" lon="6.442042221447414"><ele>848.0</ele><time>2026-04-21T06:20:28Z</time></trkpt><trkpt lat="43.96131029699256" lon="6.442213343536686"><ele>848.0</ele><time>2026-04-21T06:20:29Z</time></trkpt><trkpt lat="43.961374451677145" lon="6.44238887943564"><ele>848.0</ele><time>2026-04-21T06:20:30Z</time></trkpt><trkpt lat="43.96144294431314" lon="6.442581391493951"><ele>848.0</ele><time>2026-04-21T06:20:31Z</time></trkpt><trkpt lat="43.96151717031287" lon="6.442779840545076"><ele>848.0</ele><time>2026-04-21T06:20:32Z</time></trkpt><trkpt lat="43.96158205931791" lon="6.4429586791775835"><ele>848.0</ele><time>2026-04-21T06:20:33Z</time></trkpt><trkpt lat="43.96164627753701" lon="6.443137035392674"><ele>848.0</ele><time>2026-04-21T06:20:34Z</time></trkpt><trkpt lat="43.961714014489644" lon="6.443329538331487"><ele>848.0</ele><time>2026-04-21T06:20:35Z</time></trkpt><trkpt lat="43.961783681224595" lon="6.44350845304583"><ele>850.0</ele><time>2026-04-21T06:20:36Z</time></trkpt><trkpt lat="43.96185734859261" lon="6.44369630993112"><ele>852.0</ele><time>2026-04-21T06:20:37Z</time></trkpt><trkpt lat="43.96192703756907" lon="6.443871777855666"><ele>854.0</ele><time>2026-04-21T06:20:38Z</time></trkpt><trkpt lat="43.96199702657173" lon="6.444034899790588"><ele>856.0</ele><time>2026-04-21T06:20:39Z</time></trkpt><trkpt lat="43.96208220770511" lon="6.444189136495936"><ele>856.0</ele><time>2026-04-21T06:20:40Z</time></trkpt><trkpt lat="43.9621760532208" lon="6.444342628378964"><ele>856.0</ele><time>2026-04-21T06:20:41Z</time></trkpt><trkpt lat="43.962261007511955" lon="6.444496309479088"><ele>856.0</ele><time>2026-04-21T06:20:42Z</time></trkpt><trkpt lat="43.962334043470804" lon="6.444649531649741"><ele>856.0</ele><time>2026-04-21T06:20:43Z</time></trkpt><trkpt lat="43.96239313288189" lon="6.444828180203306"><ele>853.6666666666666</ele><time>2026-04-21T06:20:44Z</time></trkpt><trkpt lat="43.962438814421795" lon="6.445029096694008"><ele>851.3333333333333</ele><time>2026-04-21T06:20:45Z</time></trkpt><trkpt lat="43.96246476655725" lon="6.445242081023587"><ele>849.0</ele><time>2026-04-21T06:20:46Z</time></trkpt><trkpt lat="43.96248299575541" lon="6.445464912534817"><ele>848.5</ele><time>2026-04-21T06:20:47Z</time></trkpt><trkpt lat="43.962498991573845" lon="6.4456645346648465"><ele>848.0</ele><time>2026-04-21T06:20:48Z</time></trkpt><trkpt lat="43.96252554439572" lon="6.445821227461167"><ele>847.5</ele><time>2026-04-21T06:20:49Z</time></trkpt><trkpt lat="43.96256437930146" lon="6.445965171476637"><ele>847.0</ele><time>2026-04-21T06:20:50Z</time></trkpt><trkpt lat="43.96261981407406" lon="6.446089043178242"><ele>849.0</ele><time>2026-04-21T06:20:51Z</time></trkpt><trkpt lat="43.962701168099045" lon="6.4462066123347945"><ele>851.0</ele><time>2026-04-21T06:20:52Z</time></trkpt><trkpt lat="43.962800412303096" lon="6.446322899927473"><ele>853.0</ele><time>2026-04-21T06:20:53Z</time></trkpt><trkpt lat="43.96291002844181" lon="6.446449168535173"><ele>855.0</ele><time>2026-04-21T06:20:54Z</time></trkpt><trkpt lat="43.963028674270134" lon="6.446592842718881"><ele>855.0</ele><time>2026-04-21T06:20:55Z</time></trkpt><trkpt lat="43.96315622329934" lon="6.446742933927415"><ele>855.0</ele><time>2026-04-21T06:20:56Z</time></trkpt><trkpt lat="43.963285298652266" lon="6.446903685869962"><ele>855.0</ele><time>2026-04-21T06:20:57Z</time></trkpt><trkpt lat="43.963421251705746" lon="6.447070272690695"><ele>859.3333333333333</ele><time>2026-04-21T06:20:58Z</time></trkpt><trkpt lat="43.96355208607725" lon="6.447236441133042"><ele>863.6666666666666</ele><time>2026-04-21T06:20:59Z</time></trkpt><trkpt lat="43.96366933497892" lon="6.44738967836616"><ele>868.0</ele><time>2026-04-21T06:21:00Z</time></trkpt><trkpt lat="43.96378970316967" lon="6.447552634722825"><ele>868.0</ele><time>2026-04-21T06:21:01Z</time></trkpt><trkpt lat="43.9639090881998" lon="6.447721745424589"><ele>868.0</ele><time>2026-04-21T06:21:02Z</time></trkpt><trkpt lat="43.9640347317132" lon="6.447898244197826"><ele>868.0</ele><time>2026-04-21T06:21:03Z</time></trkpt><trkpt lat="43.96416397464677" lon="6.448080884337916"><ele>867.3333333333333</ele><time>2026-04-21T06:21:04Z</time></trkpt><trkpt lat="43.96429165216882" lon="6.448265093194189"><ele>866.6666666666667</ele><time>2026-04-21T06:21:05Z</time></trkpt><trkpt lat="43.964429292121324" lon="6.44843879123635"><ele>866.0</ele><time>2026-04-21T06:21:06Z</time></trkpt><trkpt lat="43.964579128390326" lon="6.448589620508985"><ele>866.0</ele><time>2026-04-21T06:21:07Z</time></trkpt><trkpt lat="43.96471939753161" lon="6.448722166313016"><ele>866.0</ele><time>2026-04-21T06:21:08Z</time></trkpt><trkpt lat="43.964846826965314" lon="6.448852569010792"><ele>866.0</ele><time>2026-04-21T06:21:09Z</time></trkpt><trkpt lat="43.964966243238834" lon="6.448992827590191"><ele>865.0</ele><time>2026-04-21T06:21:10Z</time></trkpt><trkpt lat="43.96506742477649" lon="6.449137690993537"><ele>864.0</ele><time>2026-04-21T06:21:11Z</time></trkpt><trkpt lat="43.96514988513081" lon="6.449282266644956"><ele>863.0</ele><time>2026-04-21T06:21:12Z</time></trkpt><trkpt lat="43.965219813632125" lon="6.449439808726914"><ele>862.0</ele><time>2026-04-21T06:21:13Z</time></trkpt><trkpt lat="43.965263048382226" lon="6.449598925505584"><ele>861.25</ele><time>2026-04-21T06:21:14Z</time></trkpt><trkpt lat="43.965277668264754" lon="6.449775539093149"><ele>860.5</ele><time>2026-04-21T06:21:15Z</time></trkpt><trkpt lat="43.96527906136333" lon="6.449971104025119"><ele>859.75</ele><time>2026-04-21T06:21:16Z</time></trkpt><trkpt lat="43.965269964189154" lon="6.450177428884724"><ele>859.0</ele><time>2026-04-21T06:21:17Z</time></trkpt><trkpt lat="43.965248590723405" lon="6.45036765713302"><ele>859.0</ele><time>2026-04-21T06:21:18Z</time></trkpt><trkpt lat="43.965208160438245" lon="6.4505525283181315"><ele>859.0</ele><time>2026-04-21T06:21:19Z</time></trkpt><trkpt lat="43.96514194497392" lon="6.45072486568736"><ele>859.0</ele><time>2026-04-21T06:21:20Z</time></trkpt><trkpt lat="43.96504139005351" lon="6.450874848964694"><ele>859.0</ele><time>2026-04-21T06:21:21Z</time></trkpt><trkpt lat="43.964913526795506" lon="6.4509945847746835"><ele>859.0</ele><time>2026-04-21T06:21:22Z</time></trkpt><trkpt lat="43.96478507847898" lon="6.451091200065216"><ele>859.0</ele><time>2026-04-21T06:21:23Z</time></trkpt><trkpt lat="43.96467090935545" lon="6.45119345952653"><ele>859.0</ele><time>2026-04-21T06:21:24Z</time></trkpt><trkpt lat="43.96456948072257" lon="6.451331657178962"><ele>859.0</ele><time>2026-04-21T06:21:25Z</time></trkpt><trkpt lat="43.964488434681265" lon="6.451505877589652"><ele>862.0</ele><time>2026-04-21T06:21:26Z</time></trkpt><trkpt lat="43.96442034328509" lon="6.451705213116915"><ele>865.0</ele><time>2026-04-21T06:21:27Z</time></trkpt><trkpt lat="43.964354058993784" lon="6.45191844790594"><ele>868.0</ele><time>2026-04-21T06:21:28Z</time></trkpt><trkpt lat="43.96428190002766" lon="6.452136881291984"><ele>867.3333333333333</ele><time>2026-04-21T06:21:29Z</time></trkpt><trkpt lat="43.96419454608658" lon="6.452353029341503"><ele>866.6666666666667</ele><time>2026-04-21T06:21:30Z</time></trkpt><trkpt lat="43.96408546816204" lon="6.452565452628527"><ele>866.0</ele><time>2026-04-21T06:21:31Z</time></trkpt><trkpt lat="43.96396947547823" lon="6.452778213153321"><ele>869.3333333333334</ele><time>2026-04-21T06:21:32Z</time></trkpt><trkpt lat="43.963850294030394" lon="6.452996349901901"><ele>872.6666666666667</ele><time>2026-04-21T06:21:33Z</time></trkpt><trkpt lat="43.96373824568983" lon="6.453215716534189"><ele>876.0</ele><time>2026-04-21T06:21:34Z</time></trkpt><trkpt lat="43.96363184220098" lon="6.453452304708631"><ele>876.0</ele><time>2026-04-21T06:21:35Z</time></trkpt><trkpt lat="43.96352367672815" lon="6.453695232185894"><ele>876.0</ele><time>2026-04-21T06:21:36Z</time></trkpt><trkpt lat="43.96342041328427" lon="6.453926507456205"><ele>876.0</ele><time>2026-04-21T06:21:37Z</time></trkpt><trkpt lat="43.96332561785854" lon="6.45414090729142"><ele>875.0</ele><time>2026-04-21T06:21:38Z</time></trkpt><trkpt lat="43.963232184708815" lon="6.45434918337958"><ele>874.0</ele><time>2026-04-21T06:21:39Z</time></trkpt><trkpt lat="43.96312632832367" lon="6.454556517198111"><ele>873.0</ele><time>2026-04-21T06:21:40Z</time></trkpt><trkpt lat="43.96303125412701" lon="6.454782858173834"><ele>873.0</ele><time>2026-04-21T06:21:41Z</time></trkpt><trkpt lat="43.962956730621414" lon="6.455020621554437"><ele>873.0</ele><time>2026-04-21T06:21:42Z</time></trkpt><trkpt lat="43.962902686477904" lon="6.455271878560037"><ele>873.0</ele><time>2026-04-21T06:21:43Z</time></trkpt><trkpt lat="43.96285015100383" lon="6.455499445288949"><ele>875.25</ele><time>2026-04-21T06:21:44Z</time></trkpt><trkpt lat="43.96281430528846" lon="6.45571035411085"><ele>877.5</ele><time>2026-04-21T06:21:45Z</time></trkpt><trkpt lat="43.962772714652125" lon="6.455905577272166"><ele>879.75</ele><time>2026-04-21T06:21:46Z</time></trkpt><trkpt lat="43.96273310366387" lon="6.456073000967902"><ele>882.0</ele><time>2026-04-21T06:21:47Z</time></trkpt><trkpt lat="43.96270384428894" lon="6.456208709647997"><ele>884.0</ele><time>2026-04-21T06:21:48Z</time></trkpt><trkpt lat="43.96268102191947" lon="6.45631814389732"><ele>886.0</ele><time>2026-04-21T06:21:49Z</time></trkpt><trkpt lat="43.96265466155166" lon="6.456449766496007"><ele>888.0</ele><time>2026-04-21T06:21:51Z</time></trkpt><trkpt lat="43.96263732746564" lon="6.456544310439859"><ele>890.0</ele><time>2026-04-21T06:21:54Z</time></trkpt><trkpt lat="43.9626114974339" lon="6.456711632181137"><ele>892.0</ele><time>2026-04-21T06:22:43Z</time></trkpt><trkpt lat="43.96260456485777" lon="6.456840496640045"><ele>892.0</ele><time>2026-04-21T06:22:44Z</time></trkpt><trkpt lat="43.96258328906668" lon="6.456977445927314"><ele>892.0</ele><time>2026-04-21T06:22:45Z</time></trkpt><trkpt lat="43.96256003814875" lon="6.457147973721244"><ele>892.0</ele><time>2026-04-21T06:22:46Z</time></trkpt><trkpt lat="43.96251810997633" lon="6.457336948180515"><ele>892.0</ele><time>2026-04-21T06:22:47Z</time></trkpt><trkpt lat="43.9624660130217" lon="6.457529269171538"><ele>886.3333333333333</ele><time>2026-04-21T06:22:48Z</time></trkpt><trkpt lat="43.96241239880742" lon="6.457734314695574"><ele>880.6666666666667</ele><time>2026-04-21T06:22:49Z</time></trkpt><trkpt lat="43.962369856817794" lon="6.457923366700829"><ele>875.0</ele><time>2026-04-21T06:22:50Z</time></trkpt><trkpt lat="43.9623278509605" lon="6.458130709331003"><ele>875.0</ele><time>2026-04-21T06:22:51Z</time></trkpt><trkpt lat="43.96228111441021" lon="6.458352270210466"><ele>875.0</ele><time>2026-04-21T06:22:52Z</time></trkpt><trkpt lat="43.962241026880335" lon="6.458565284315448"><ele>875.0</ele><time>2026-04-21T06:22:53Z</time></trkpt><trkpt lat="43.962214774707505" lon="6.458738999188962"><ele>876.25</ele><time>2026-04-21T06:22:54Z</time></trkpt><trkpt lat="43.962209224419084" lon="6.458901989559591"><ele>877.5</ele><time>2026-04-21T06:22:55Z</time></trkpt><trkpt lat="43.96222059032391" lon="6.459088510492248"><ele>878.75</ele><time>2026-04-21T06:22:56Z</time></trkpt><trkpt lat="43.96225478093592" lon="6.459278387809174"><ele>880.0</ele><time>2026-04-21T06:22:57Z</time></trkpt><trkpt lat="43.96229797809365" lon="6.4594774106428146"><ele>882.0</ele><time>2026-04-21T06:22:58Z</time></trkpt><trkpt lat="43.96233316682847" lon="6.459677896134448"><ele>884.0</ele><time>2026-04-21T06:22:59Z</time></trkpt><trkpt lat="43.962350806644864" lon="6.459875743820754"><ele>886.0</ele><time>2026-04-21T06:23:00Z</time></trkpt><trkpt lat="43.962360518819004" lon="6.460083103267521"><ele>888.0</ele><time>2026-04-21T06:23:01Z</time></trkpt><trkpt lat="43.96235970287397" lon="6.460300811234671"><ele>888.3333333333333</ele><time>2026-04-21T06:23:02Z</time></trkpt><trkpt lat="43.96234253161277" lon="6.460530596869787"><ele>888.6666666666666</ele><time>2026-04-21T06:23:03Z</time></trkpt><trkpt lat="43.96231305378907" lon="6.460770265058051"><ele>889.0</ele><time>2026-04-21T06:23:04Z</time></trkpt><trkpt lat="43.96227355524819" lon="6.46102023390472"><ele>889.0</ele><time>2026-04-21T06:23:05Z</time></trkpt><trkpt lat="43.96222449117596" lon="6.461274555414413"><ele>889.0</ele><time>2026-04-21T06:23:06Z</time></trkpt><trkpt lat="43.96216689880618" lon="6.461530767715219"><ele>889.0</ele><time>2026-04-21T06:23:07Z</time></trkpt><trkpt lat="43.96211147532631" lon="6.461770398394924"><ele>893.0</ele><time>2026-04-21T06:23:08Z</time></trkpt><trkpt lat="43.96206176191141" lon="6.461991306984959"><ele>897.0</ele><time>2026-04-21T06:23:09Z</time></trkpt><trkpt lat="43.96201141532301" lon="6.462224775825131"><ele>901.0</ele><time>2026-04-21T06:23:10Z</time></trkpt><trkpt lat="43.96196513325684" lon="6.462442926109938"><ele>905.0</ele><time>2026-04-21T06:23:11Z</time></trkpt><trkpt lat="43.961913577499146" lon="6.462628866275671"><ele>909.0</ele><time>2026-04-21T06:23:12Z</time></trkpt><trkpt lat="43.9618978315782" lon="6.462850691435791"><ele>913.0</ele><time>2026-04-21T06:23:13Z</time></trkpt><trkpt lat="43.96192764243875" lon="6.463081214176558"><ele>915.3333333333333</ele><time>2026-04-21T06:23:14Z</time></trkpt><trkpt lat="43.96194096137197" lon="6.463316022178997"><ele>917.6666666666667</ele><time>2026-04-21T06:23:15Z</time></trkpt><trkpt lat="43.961953706529044" lon="6.4635561818505884"><ele>920.0</ele><time>2026-04-21T06:23:16Z</time></trkpt><trkpt lat="43.96195478562369" lon="6.4637771100933445"><ele>920.75</ele><time>2026-04-21T06:23:17Z</time></trkpt><trkpt lat="43.96194237565871" lon="6.463991580240697"><ele>921.5</ele><time>2026-04-21T06:23:18Z</time></trkpt><trkpt lat="43.9619136225213" lon="6.464186138457948"><ele>922.25</ele><time>2026-04-21T06:23:19Z</time></trkpt><trkpt lat="43.96185899181449" lon="6.464368704521007"><ele>923.0</ele><time>2026-04-21T06:23:20Z</time></trkpt><trkpt lat="43.96177789660667" lon="6.464535281303873"><ele>915.0</ele><time>2026-04-21T06:23:21Z</time></trkpt><trkpt lat="43.9616713819716" lon="6.464674283530592"><ele>907.0</ele><time>2026-04-21T06:23:22Z</time></trkpt><trkpt lat="43.96157229340912" lon="6.464790616721543"><ele>899.0</ele><time>2026-04-21T06:23:23Z</time></trkpt><trkpt lat="43.96150103122926" lon="6.4649023740220075"><ele>891.0</ele><time>2026-04-21T06:23:24Z</time></trkpt><trkpt lat="43.96145481005555" lon="6.465013937681324"><ele>891.0</ele><time>2026-04-21T06:23:25Z</time></trkpt><trkpt lat="43.961427922260576" lon="6.465114041331746"><ele>891.0</ele><time>2026-04-21T06:23:26Z</time></trkpt><trkpt lat="43.96141548196783" lon="6.465203074471851"><ele>891.0</ele><time>2026-04-21T06:23:27Z</time></trkpt><trkpt lat="43.961420692927" lon="6.465317841208737"><ele>891.0</ele><time>2026-04-21T06:23:29Z</time></trkpt><trkpt lat="43.96146568531674" lon="6.46545001112293"><ele>891.0</ele><time>2026-04-21T06:25:45Z</time></trkpt><trkpt lat="43.96151985719915" lon="6.465541206021161"><ele>891.0</ele><time>2026-04-21T06:25:46Z</time></trkpt><trkpt lat="43.961601804663715" lon="6.465631166330217"><ele>891.1999999999999</ele><time>2026-04-21T06:25:47Z</time></trkpt><trkpt lat="43.96168293955244" lon="6.465725585015238"><ele>891.3999999999999</ele><time>2026-04-21T06:25:48Z</time></trkpt><trkpt lat="43.96175311278682" lon="6.465859780916402"><ele>891.6</ele><time>2026-04-21T06:25:49Z</time></trkpt><trkpt lat="43.96178544436716" lon="6.465997462939379"><ele>891.8</ele><time>2026-04-21T06:25:50Z</time></trkpt><trkpt lat="43.9618121294048" lon="6.466153989080898"><ele>892.0</ele><time>2026-04-21T06:25:51Z</time></trkpt><trkpt lat="43.96183175756749" lon="6.4663216763313915"><ele>892.0</ele><time>2026-04-21T06:25:52Z</time></trkpt><trkpt lat="43.96183865042272" lon="6.466500211868042"><ele>892.0</ele><time>2026-04-21T06:25:53Z</time></trkpt><trkpt lat="43.96181751558466" lon="6.4666726934576575"><ele>892.0</ele><time>2026-04-21T06:25:54Z</time></trkpt><trkpt lat="43.961782739267605" lon="6.466852363797377"><ele>892.0</ele><time>2026-04-21T06:25:55Z</time></trkpt><trkpt lat="43.961751635884774" lon="6.467046708345689"><ele>892.25</ele><time>2026-04-21T06:25:56Z</time></trkpt><trkpt lat="43.96172057749226" lon="6.46724441352095"><ele>892.5</ele><time>2026-04-21T06:25:57Z</time></trkpt><trkpt lat="43.96169083892925" lon="6.467443283849717"><ele>892.75</ele><time>2026-04-21T06:25:58Z</time></trkpt><trkpt lat="43.96166349272914" lon="6.4676514145141955"><ele>893.0</ele><time>2026-04-21T06:25:59Z</time></trkpt><trkpt lat="43.96162869266841" lon="6.467863645044439"><ele>894.0</ele><time>2026-04-21T06:26:00Z</time></trkpt><trkpt lat="43.9615928462481" lon="6.468078828134923"><ele>895.0</ele><time>2026-04-21T06:26:01Z</time></trkpt><trkpt lat="43.96156019125575" lon="6.468300101932371"><ele>896.0</ele><time>2026-04-21T06:26:02Z</time></trkpt><trkpt lat="43.96152468994892" lon="6.46852893802837"><ele>896.0</ele><time>2026-04-21T06:26:03Z</time></trkpt><trkpt lat="43.96148526432643" lon="6.468753083613258"><ele>896.0</ele><time>2026-04-21T06:26:04Z</time></trkpt><trkpt lat="43.96144323682577" lon="6.468979665724672"><ele>896.0</ele><time>2026-04-21T06:26:05Z</time></trkpt><trkpt lat="43.96140119950884" lon="6.469213998001037"><ele>897.3333333333334</ele><time>2026-04-21T06:26:06Z</time></trkpt><trkpt lat="43.9613574605954" lon="6.469457126803337"><ele>898.6666666666667</ele><time>2026-04-21T06:26:07Z</time></trkpt><trkpt lat="43.96130547287578" lon="6.469703987364531"><ele>900.0</ele><time>2026-04-21T06:26:08Z</time></trkpt><trkpt lat="43.961254419033025" lon="6.469934277948374"><ele>901.6666666666667</ele><time>2026-04-21T06:26:09Z</time></trkpt><trkpt lat="43.961196282433995" lon="6.470157813573911"><ele>903.3333333333334</ele><time>2026-04-21T06:26:10Z</time></trkpt><trkpt lat="43.96112741385833" lon="6.4703861100978655"><ele>905.0</ele><time>2026-04-21T06:26:11Z</time></trkpt><trkpt lat="43.96105729906306" lon="6.470615682773366"><ele>904.6666666666667</ele><time>2026-04-21T06:26:12Z</time></trkpt><trkpt lat="43.96098898735901" lon="6.470848394440533"><ele>904.3333333333333</ele><time>2026-04-21T06:26:13Z</time></trkpt><trkpt lat="43.96092433708275" lon="6.471084930574089"><ele>904.0</ele><time>2026-04-21T06:26:14Z</time></trkpt><trkpt lat="43.960852960102585" lon="6.471324083611488"><ele>904.0</ele><time>2026-04-21T06:26:15Z</time></trkpt><trkpt lat="43.960785171104355" lon="6.471559012762271"><ele>904.0</ele><time>2026-04-21T06:26:16Z</time></trkpt><trkpt lat="43.960726011545994" lon="6.471791159524542"><ele>904.0</ele><time>2026-04-21T06:26:17Z</time></trkpt><trkpt lat="43.96066719332445" lon="6.47201315377908"><ele>905.5</ele><time>2026-04-21T06:26:18Z</time></trkpt><trkpt lat="43.96061854187938" lon="6.472216150314767"><ele>907.0</ele><time>2026-04-21T06:26:19Z</time></trkpt><trkpt lat="43.960584467812055" lon="6.472413135716736"><ele>908.5</ele><time>2026-04-21T06:26:20Z</time></trkpt><trkpt lat="43.96056385207" lon="6.472616647190519"><ele>910.0</ele><time>2026-04-21T06:26:21Z</time></trkpt><trkpt lat="43.96055243895193" lon="6.472823821535087"><ele>911.3333333333333</ele><time>2026-04-21T06:26:22Z</time></trkpt><trkpt lat="43.96054117581657" lon="6.473038079088008"><ele>912.6666666666667</ele><time>2026-04-21T06:26:23Z</time></trkpt><trkpt lat="43.96052952048742" lon="6.473242490806162"><ele>914.0</ele><time>2026-04-21T06:26:24Z</time></trkpt><trkpt lat="43.96051570538451" lon="6.473461680805602"><ele>914.0</ele><time>2026-04-21T06:26:25Z</time></trkpt><trkpt lat="43.96050060138123" lon="6.47368820894311"><ele>914.0</ele><time>2026-04-21T06:26:26Z</time></trkpt><trkpt lat="43.960485143059394" lon="6.473916890478493"><ele>914.0</ele><time>2026-04-21T06:26:27Z</time></trkpt><trkpt lat="43.96047656002923" lon="6.474148301831611"><ele>915.0</ele><time>2026-04-21T06:26:28Z</time></trkpt><trkpt lat="43.96047703728306" lon="6.474387004219222"><ele>916.0</ele><time>2026-04-21T06:26:29Z</time></trkpt><trkpt lat="43.9604818140217" lon="6.474627533092506"><ele>917.0</ele><time>2026-04-21T06:26:30Z</time></trkpt><trkpt lat="43.960491845830255" lon="6.474867609056476"><ele>919.6666666666667</ele><time>2026-04-21T06:26:31Z</time></trkpt><trkpt lat="43.96051585746305" lon="6.4751062322340145"><ele>922.3333333333333</ele><time>2026-04-21T06:26:32Z</time></trkpt><trkpt lat="43.9605461529141" lon="6.475347995385758"><ele>925.0</ele><time>2026-04-21T06:26:33Z</time></trkpt><trkpt lat="43.960575591984565" lon="6.475575549315873"><ele>925.6666666666666</ele><time>2026-04-21T06:26:34Z</time></trkpt><trkpt lat="43.96060885479244" lon="6.4758047613173595"><ele>926.3333333333333</ele><time>2026-04-21T06:26:35Z</time></trkpt><trkpt lat="43.96063998108567" lon="6.476039209471664"><ele>927.0</ele><time>2026-04-21T06:26:36Z</time></trkpt><trkpt lat="43.96066578138527" lon="6.47627559769543"><ele>927.0</ele><time>2026-04-21T06:26:37Z</time></trkpt><trkpt lat="43.960685224678976" lon="6.476513087561178"><ele>927.0</ele><time>2026-04-21T06:26:38Z</time></trkpt><trkpt lat="43.96070103801737" lon="6.476749620988508"><ele>927.0</ele><time>2026-04-21T06:26:39Z</time></trkpt><trkpt lat="43.96070976521385" lon="6.476987832580666"><ele>928.6666666666667</ele><time>2026-04-21T06:26:40Z</time></trkpt><trkpt lat="43.960711326621066" lon="6.47722666307642"><ele>930.3333333333334</ele><time>2026-04-21T06:26:41Z</time></trkpt><trkpt lat="43.96070429887295" lon="6.477469986413372"><ele>932.0</ele><time>2026-04-21T06:26:42Z</time></trkpt><trkpt lat="43.960685230831" lon="6.477711359176188"><ele>934.0</ele><time>2026-04-21T06:26:43Z</time></trkpt><trkpt lat="43.960659821862755" lon="6.477948772330018"><ele>936.0</ele><time>2026-04-21T06:26:44Z</time></trkpt><trkpt lat="43.960630884963415" lon="6.478188703319767"><ele>938.0</ele><time>2026-04-21T06:26:45Z</time></trkpt><trkpt lat="43.96059734276603" lon="6.478431517281303"><ele>938.0</ele><time>2026-04-21T06:26:46Z</time></trkpt><trkpt lat="43.96056266860825" lon="6.478676492364944"><ele>938.0</ele><time>2026-04-21T06:26:47Z</time></trkpt><trkpt lat="43.96052673213392" lon="6.478915441073222"><ele>938.0</ele><time>2026-04-21T06:26:48Z</time></trkpt><trkpt lat="43.96048573202328" lon="6.479156661146219"><ele>940.0</ele><time>2026-04-21T06:26:49Z</time></trkpt><trkpt lat="43.96044439900918" lon="6.479405055164104"><ele>942.0</ele><time>2026-04-21T06:26:50Z</time></trkpt><trkpt lat="43.960400830998196" lon="6.479657108403502"><ele>944.0</ele><time>2026-04-21T06:26:51Z</time></trkpt><trkpt lat="43.960355245083086" lon="6.479910970364117"><ele>945.6666666666667</ele><time>2026-04-21T06:26:52Z</time></trkpt><trkpt lat="43.96031247407556" lon="6.480172144910404"><ele>947.3333333333333</ele><time>2026-04-21T06:26:53Z</time></trkpt><trkpt lat="43.96026882630258" lon="6.480434605982769"><ele>949.0</ele><time>2026-04-21T06:26:54Z</time></trkpt><trkpt lat="43.96022434331663" lon="6.480697506767124"><ele>951.0</ele><time>2026-04-21T06:26:55Z</time></trkpt><trkpt lat="43.96018206776937" lon="6.480962683137252"><ele>953.0</ele><time>2026-04-21T06:26:56Z</time></trkpt><trkpt lat="43.9601394166977" lon="6.481227244984867"><ele>955.0</ele><time>2026-04-21T06:26:57Z</time></trkpt><trkpt lat="43.960097328624286" lon="6.48149359737359"><ele>954.6666666666666</ele><time>2026-04-21T06:26:58Z</time></trkpt><trkpt lat="43.960055900357204" lon="6.48175860997796"><ele>954.3333333333333</ele><time>2026-04-21T06:26:59Z</time></trkpt><trkpt lat="43.9600144360192" lon="6.482022374171532"><ele>954.0</ele><time>2026-04-21T06:27:00Z</time></trkpt><trkpt lat="43.95997060580134" lon="6.482287271283847"><ele>954.0</ele><time>2026-04-21T06:27:01Z</time></trkpt><trkpt lat="43.95992650057622" lon="6.482552050254591"><ele>954.0</ele><time>2026-04-21T06:27:02Z</time></trkpt><trkpt lat="43.959881742408335" lon="6.4828181308245085"><ele>954.0</ele><time>2026-04-21T06:27:03Z</time></trkpt><trkpt lat="43.95984099653245" lon="6.483067000705196"><ele>955.6666666666667</ele><time>2026-04-21T06:27:04Z</time></trkpt><trkpt lat="43.95980236877927" lon="6.48331974802516"><ele>957.3333333333334</ele><time>2026-04-21T06:27:05Z</time></trkpt><trkpt lat="43.95976186128486" lon="6.483571887366177"><ele>959.0</ele><time>2026-04-21T06:27:06Z</time></trkpt><trkpt lat="43.95972144202356" lon="6.483823570559512"><ele>960.3333333333334</ele><time>2026-04-21T06:27:07Z</time></trkpt><trkpt lat="43.95969042705658" lon="6.484070757512849"><ele>961.6666666666667</ele><time>2026-04-21T06:27:08Z</time></trkpt><trkpt lat="43.959669752039616" lon="6.484304099544769"><ele>963.0</ele><time>2026-04-21T06:27:09Z</time></trkpt><trkpt lat="43.95965236322601" lon="6.484543004625995"><ele>964.3333333333333</ele><time>2026-04-21T06:27:10Z</time></trkpt><trkpt lat="43.95964299375531" lon="6.484788101511833"><ele>965.6666666666666</ele><time>2026-04-21T06:27:11Z</time></trkpt><trkpt lat="43.95963939635723" lon="6.4850385102601"><ele>967.0</ele><time>2026-04-21T06:27:12Z</time></trkpt><trkpt lat="43.959646195038616" lon="6.485291728939272"><ele>967.3333333333333</ele><time>2026-04-21T06:27:13Z</time></trkpt><trkpt lat="43.9596643378478" lon="6.485549907932773"><ele>967.6666666666667</ele><time>2026-04-21T06:27:14Z</time></trkpt><trkpt lat="43.95968771140424" lon="6.4858123079455865"><ele>968.0</ele><time>2026-04-21T06:27:15Z</time></trkpt><trkpt lat="43.95971950051659" lon="6.486075567616378"><ele>969.3333333333334</ele><time>2026-04-21T06:27:16Z</time></trkpt><trkpt lat="43.95976155104286" lon="6.4863406762024765"><ele>970.6666666666667</ele><time>2026-04-21T06:27:17Z</time></trkpt><trkpt lat="43.95981143578357" lon="6.4866045556955845"><ele>972.0</ele><time>2026-04-21T06:27:18Z</time></trkpt><trkpt lat="43.95986653239199" lon="6.486867714061857"><ele>971.3333333333333</ele><time>2026-04-21T06:27:19Z</time></trkpt><trkpt lat="43.95992718112068" lon="6.4871338284815305"><ele>970.6666666666666</ele><time>2026-04-21T06:27:20Z</time></trkpt><trkpt lat="43.95999134426107" lon="6.48740147426248"><ele>970.0</ele><time>2026-04-21T06:27:21Z</time></trkpt><trkpt lat="43.960055948296265" lon="6.48766411645379"><ele>973.6666666666666</ele><time>2026-04-21T06:27:22Z</time></trkpt><trkpt lat="43.96011449147211" lon="6.487906845068469"><ele>977.3333333333333</ele><time>2026-04-21T06:27:23Z</time></trkpt><trkpt lat="43.960172008123195" lon="6.488138290632907"><ele>981.0</ele><time>2026-04-21T06:27:24Z</time></trkpt><trkpt lat="43.96023635462483" lon="6.488368186876187"><ele>981.0</ele><time>2026-04-21T06:27:25Z</time></trkpt><trkpt lat="43.96030227246019" lon="6.488599494801474"><ele>981.0</ele><time>2026-04-21T06:27:26Z</time></trkpt><trkpt lat="43.96036719716905" lon="6.488835292408218"><ele>981.0</ele><time>2026-04-21T06:27:27Z</time></trkpt><trkpt lat="43.96042731412975" lon="6.489076704864885"><ele>981.3333333333333</ele><time>2026-04-21T06:27:28Z</time></trkpt><trkpt lat="43.96048186995104" lon="6.489323751029935"><ele>981.6666666666666</ele><time>2026-04-21T06:27:29Z</time></trkpt><trkpt lat="43.96052788352427" lon="6.489579449656756"><ele>982.0</ele><time>2026-04-21T06:27:30Z</time></trkpt><trkpt lat="43.96057262833613" lon="6.489837304748697"><ele>982.0</ele><time>2026-04-21T06:27:31Z</time></trkpt><trkpt lat="43.96061010774372" lon="6.490097440327274"><ele>982.0</ele><time>2026-04-21T06:27:32Z</time></trkpt><trkpt lat="43.9606437368013" lon="6.490366793875572"><ele>982.0</ele><time>2026-04-21T06:27:33Z</time></trkpt><trkpt lat="43.96067681060842" lon="6.490624026489714"><ele>984.0</ele><time>2026-04-21T06:27:34Z</time></trkpt><trkpt lat="43.96070276713387" lon="6.490863184238383"><ele>986.0</ele><time>2026-04-21T06:27:35Z</time></trkpt><trkpt lat="43.960730418856215" lon="6.491096430294187"><ele>988.0</ele><time>2026-04-21T06:27:36Z</time></trkpt><trkpt lat="43.9607607360843" lon="6.4913029986752635"><ele>989.0</ele><time>2026-04-21T06:27:37Z</time></trkpt><trkpt lat="43.96079445049269" lon="6.491509438917276"><ele>990.0</ele><time>2026-04-21T06:27:38Z</time></trkpt><trkpt lat="43.96083804940268" lon="6.491649585566604"><ele>991.0</ele><time>2026-04-21T06:27:39Z</time></trkpt><trkpt lat="43.960902338902855" lon="6.491819264343107"><ele>992.0</ele><time>2026-04-21T06:27:40Z</time></trkpt><trkpt lat="43.96098464755521" lon="6.491981355493839"><ele>997.0</ele><time>2026-04-21T06:27:41Z</time></trkpt><trkpt lat="43.96107522344301" lon="6.492142790784467"><ele>1002.0</ele><time>2026-04-21T06:27:42Z</time></trkpt><trkpt lat="43.96116749297331" lon="6.492314927370915"><ele>1007.0</ele><time>2026-04-21T06:27:43Z</time></trkpt><trkpt lat="43.96125658905677" lon="6.4924889797779235"><ele>1007.0</ele><time>2026-04-21T06:27:44Z</time></trkpt><trkpt lat="43.96132433014052" lon="6.492621493240551"><ele>1007.0</ele><time>2026-04-21T06:27:45Z</time></trkpt><trkpt lat="43.96137231539418" lon="6.492752634711119"><ele>1007.0</ele><time>2026-04-21T06:27:46Z</time></trkpt><trkpt lat="43.961399397320285" lon="6.492904764482855"><ele>1007.0</ele><time>2026-04-21T06:27:47Z</time></trkpt><trkpt lat="43.96141474718417" lon="6.493085710917663"><ele>1006.0</ele><time>2026-04-21T06:27:48Z</time></trkpt><trkpt lat="43.96143227338963" lon="6.493275692437175"><ele>1005.0</ele><time>2026-04-21T06:27:49Z</time></trkpt><trkpt lat="43.96145601383724" lon="6.493457302928054"><ele>1004.0</ele><time>2026-04-21T06:27:50Z</time></trkpt><trkpt lat="43.96151392084702" lon="6.493644508499781"><ele>1003.0</ele><time>2026-04-21T06:27:51Z</time></trkpt><trkpt lat="43.96159251385236" lon="6.493818976739201"><ele>1001.25</ele><time>2026-04-21T06:27:52Z</time></trkpt><trkpt lat="43.96164368494494" lon="6.493997841062344"><ele>999.5</ele><time>2026-04-21T06:27:53Z</time></trkpt><trkpt lat="43.96167197655548" lon="6.494192480866962"><ele>997.75</ele><time>2026-04-21T06:27:54Z</time></trkpt><trkpt lat="43.96167093495218" lon="6.4943998238858756"><ele>996.0</ele><time>2026-04-21T06:27:55Z</time></trkpt><trkpt lat="43.961645978471154" lon="6.494584898578113"><ele>995.25</ele><time>2026-04-21T06:27:56Z</time></trkpt><trkpt lat="43.96158361372305" lon="6.494757324909759"><ele>994.5</ele><time>2026-04-21T06:27:57Z</time></trkpt><trkpt lat="43.96154170690025" lon="6.4949201993374945"><ele>993.75</ele><time>2026-04-21T06:27:58Z</time></trkpt><trkpt lat="43.96152011824411" lon="6.495084092757459"><ele>993.0</ele><time>2026-04-21T06:27:59Z</time></trkpt><trkpt lat="43.96152734220127" lon="6.495270969433604"><ele>992.6666666666667</ele><time>2026-04-21T06:28:00Z</time></trkpt><trkpt lat="43.96156809928817" lon="6.49547286268512"><ele>992.3333333333334</ele><time>2026-04-21T06:28:01Z</time></trkpt><trkpt lat="43.9615803080312" lon="6.495689959667433"><ele>992.0</ele><time>2026-04-21T06:28:02Z</time></trkpt><trkpt lat="43.96158108638908" lon="6.495910300756394"><ele>992.0</ele><time>2026-04-21T06:28:03Z</time></trkpt><trkpt lat="43.96156517290785" lon="6.496116878889752"><ele>992.0</ele><time>2026-04-21T06:28:04Z</time></trkpt><trkpt lat="43.96152740921294" lon="6.496310056293722"><ele>992.0</ele><time>2026-04-21T06:28:05Z</time></trkpt><trkpt lat="43.96152860743633" lon="6.4965282742169395"><ele>988.3333333333334</ele><time>2026-04-21T06:28:06Z</time></trkpt><trkpt lat="43.961564310269445" lon="6.496752716328719"><ele>984.6666666666667</ele><time>2026-04-21T06:28:07Z</time></trkpt><trkpt lat="43.961595000801005" lon="6.496992066083633"><ele>981.0</ele><time>2026-04-21T06:28:08Z</time></trkpt><trkpt lat="43.96162776989876" lon="6.497233320682665"><ele>978.0</ele><time>2026-04-21T06:28:09Z</time></trkpt><trkpt lat="43.96165890761817" lon="6.4974474115217"><ele>975.0</ele><time>2026-04-21T06:28:10Z</time></trkpt><trkpt lat="43.96169672427019" lon="6.497642384947622"><ele>972.0</ele><time>2026-04-21T06:28:11Z</time></trkpt><trkpt lat="43.96175688175957" lon="6.497836748334598"><ele>973.5</ele><time>2026-04-21T06:28:12Z</time></trkpt><trkpt lat="43.96183396434801" lon="6.498026217260526"><ele>975.0</ele><time>2026-04-21T06:28:13Z</time></trkpt><trkpt lat="43.96191614633171" lon="6.498195986013773"><ele>976.5</ele><time>2026-04-21T06:28:14Z</time></trkpt><trkpt lat="43.962000426103295" lon="6.498354883242348"><ele>978.0</ele><time>2026-04-21T06:28:15Z</time></trkpt><trkpt lat="43.9620845033948" lon="6.498485562866632"><ele>978.0</ele><time>2026-04-21T06:28:16Z</time></trkpt><trkpt lat="43.96217900302393" lon="6.498586804291113"><ele>978.0</ele><time>2026-04-21T06:28:17Z</time></trkpt><trkpt lat="43.962291511052015" lon="6.498654251930343"><ele>978.0</ele><time>2026-04-21T06:28:18Z</time></trkpt><trkpt lat="43.9624213762761" lon="6.498691173285967"><ele>978.0</ele><time>2026-04-21T06:28:19Z</time></trkpt><trkpt lat="43.962546347981544" lon="6.49872492848093"><ele>975.0</ele><time>2026-04-21T06:28:20Z</time></trkpt><trkpt lat="43.96265704374652" lon="6.498777467266668"><ele>972.0</ele><time>2026-04-21T06:28:21Z</time></trkpt><trkpt lat="43.96275000506598" lon="6.498857539232341"><ele>969.0</ele><time>2026-04-21T06:28:22Z</time></trkpt><trkpt lat="43.9628302008872" lon="6.498985471037358"><ele>966.0</ele><time>2026-04-21T06:28:23Z</time></trkpt><trkpt lat="43.96289446645071" lon="6.4991413690709985"><ele>966.0</ele><time>2026-04-21T06:28:24Z</time></trkpt><trkpt lat="43.96295506210117" lon="6.499276031303992"><ele>966.0</ele><time>2026-04-21T06:28:25Z</time></trkpt><trkpt lat="43.963041015896685" lon="6.49937767487641"><ele>966.0</ele><time>2026-04-21T06:28:26Z</time></trkpt><trkpt lat="43.96315606705066" lon="6.499475913204818"><ele>966.0</ele><time>2026-04-21T06:28:27Z</time></trkpt><trkpt lat="43.963293127083894" lon="6.499553282432852"><ele>961.6666666666667</ele><time>2026-04-21T06:28:28Z</time></trkpt><trkpt lat="43.96344125308887" lon="6.499635650272401"><ele>957.3333333333334</ele><time>2026-04-21T06:28:29Z</time></trkpt><trkpt lat="43.96358163734585" lon="6.49975229096633"><ele>953.0</ele><time>2026-04-21T06:28:30Z</time></trkpt><trkpt lat="43.963718622618615" lon="6.4998895292721235"><ele>953.0</ele><time>2026-04-21T06:28:31Z</time></trkpt><trkpt lat="43.96386644596689" lon="6.500019366363264"><ele>953.0</ele><time>2026-04-21T06:28:32Z</time></trkpt><trkpt lat="43.96402863227406" lon="6.5001355057785615"><ele>953.0</ele><time>2026-04-21T06:28:33Z</time></trkpt><trkpt lat="43.96419011850643" lon="6.500240239898895"><ele>956.0</ele><time>2026-04-21T06:28:34Z</time></trkpt><trkpt lat="43.9643586877916" lon="6.500356868636922"><ele>959.0</ele><time>2026-04-21T06:28:35Z</time></trkpt><trkpt lat="43.964519670004115" lon="6.500471875916157"><ele>962.0</ele><time>2026-04-21T06:28:36Z</time></trkpt><trkpt lat="43.964668666378365" lon="6.500590100755695"><ele>960.25</ele><time>2026-04-21T06:28:37Z</time></trkpt><trkpt lat="43.96480278614873" lon="6.500717174676678"><ele>958.5</ele><time>2026-04-21T06:28:38Z</time></trkpt><trkpt lat="43.964913072388654" lon="6.500825967913115"><ele>956.75</ele><time>2026-04-21T06:28:39Z</time></trkpt><trkpt lat="43.9650052169999" lon="6.500915807370473"><ele>955.0</ele><time>2026-04-21T06:28:40Z</time></trkpt><trkpt lat="43.96508283209858" lon="6.501009514048375"><ele>955.0</ele><time>2026-04-21T06:28:41Z</time></trkpt><trkpt lat="43.96515774076224" lon="6.501137467413747"><ele>955.0</ele><time>2026-04-21T06:28:42Z</time></trkpt><trkpt lat="43.96521950135498" lon="6.501304603557354"><ele>955.0</ele><time>2026-04-21T06:28:43Z</time></trkpt><trkpt lat="43.9652719164929" lon="6.501495329652356"><ele>955.0</ele><time>2026-04-21T06:28:44Z</time></trkpt><trkpt lat="43.96531821200864" lon="6.501694513539944"><ele>951.0</ele><time>2026-04-21T06:28:45Z</time></trkpt><trkpt lat="43.96536596506315" lon="6.501892974155041"><ele>947.0</ele><time>2026-04-21T06:28:46Z</time></trkpt><trkpt lat="43.96542376887286" lon="6.502102612912034"><ele>943.0</ele><time>2026-04-21T06:28:47Z</time></trkpt><trkpt lat="43.96548808263991" lon="6.502300993195839"><ele>940.6666666666666</ele><time>2026-04-21T06:28:48Z</time></trkpt><trkpt lat="43.965560697996715" lon="6.502487390522195"><ele>938.3333333333333</ele><time>2026-04-21T06:28:49Z</time></trkpt><trkpt lat="43.96564641639318" lon="6.502673900532928"><ele>936.0</ele><time>2026-04-21T06:28:50Z</time></trkpt><trkpt lat="43.96574600745132" lon="6.502852877813486"><ele>934.6666666666667</ele><time>2026-04-21T06:28:51Z</time></trkpt><trkpt lat="43.96585470162699" lon="6.503019254169157"><ele>933.3333333333334</ele><time>2026-04-21T06:28:52Z</time></trkpt><trkpt lat="43.965964044895586" lon="6.503162624754696"><ele>932.0</ele><time>2026-04-21T06:28:53Z</time></trkpt><trkpt lat="43.966089622007686" lon="6.503296092142102"><ele>932.0</ele><time>2026-04-21T06:28:54Z</time></trkpt><trkpt lat="43.96622253381798" lon="6.503415515418456"><ele>932.0</ele><time>2026-04-21T06:28:55Z</time></trkpt><trkpt lat="43.96635566394337" lon="6.5035245380963005"><ele>932.0</ele><time>2026-04-21T06:28:56Z</time></trkpt><trkpt lat="43.96650615249803" lon="6.503633724888644"><ele>932.0</ele><time>2026-04-21T06:28:57Z</time></trkpt><trkpt lat="43.966666592156955" lon="6.503744986943839"><ele>932.0</ele><time>2026-04-21T06:28:58Z</time></trkpt><trkpt lat="43.966833086611736" lon="6.503864060057186"><ele>932.0</ele><time>2026-04-21T06:28:59Z</time></trkpt><trkpt lat="43.96699585673858" lon="6.503979279929802"><ele>928.3333333333334</ele><time>2026-04-21T06:29:00Z</time></trkpt><trkpt lat="43.967157014455296" lon="6.504093024462169"><ele>924.6666666666667</ele><time>2026-04-21T06:29:01Z</time></trkpt><trkpt lat="43.96732024192168" lon="6.504218059614937"><ele>921.0</ele><time>2026-04-21T06:29:02Z</time></trkpt><trkpt lat="43.96748190023872" lon="6.504334640436254"><ele>921.3333333333333</ele><time>2026-04-21T06:29:03Z</time></trkpt><trkpt lat="43.96764085795708" lon="6.504441240360473"><ele>921.6666666666666</ele><time>2026-04-21T06:29:04Z</time></trkpt><trkpt lat="43.9678063931239" lon="6.504550293550782"><ele>922.0</ele><time>2026-04-21T06:29:05Z</time></trkpt><trkpt lat="43.96796811995636" lon="6.504670327967281"><ele>921.6666666666666</ele><time>2026-04-21T06:29:06Z</time></trkpt><trkpt lat="43.968121162468385" lon="6.50478445524225"><ele>921.3333333333333</ele><time>2026-04-21T06:29:07Z</time></trkpt><trkpt lat="43.96826948455426" lon="6.5048989067277665"><ele>921.0</ele><time>2026-04-21T06:29:08Z</time></trkpt><trkpt lat="43.96840439122963" lon="6.505004090930429"><ele>921.0</ele><time>2026-04-21T06:29:09Z</time></trkpt><trkpt lat="43.96852017385676" lon="6.505102521199921"><ele>921.0</ele><time>2026-04-21T06:29:10Z</time></trkpt><trkpt lat="43.9686290352322" lon="6.505202000912375"><ele>921.0</ele><time>2026-04-21T06:29:11Z</time></trkpt><trkpt lat="43.968717731876126" lon="6.505309957307762"><ele>921.0</ele><time>2026-04-21T06:29:12Z</time></trkpt><trkpt lat="43.96878418299194" lon="6.505439792387323"><ele>919.4</ele><time>2026-04-21T06:29:13Z</time></trkpt><trkpt lat="43.96883653724953" lon="6.505581599917125"><ele>917.8</ele><time>2026-04-21T06:29:14Z</time></trkpt><trkpt lat="43.96886695270839" lon="6.505732786498333"><ele>916.1999999999999</ele><time>2026-04-21T06:29:15Z</time></trkpt><trkpt lat="43.96886834000952" lon="6.505888892795534"><ele>914.5999999999999</ele><time>2026-04-21T06:29:16Z</time></trkpt><trkpt lat="43.96885163937806" lon="6.506039170728574"><ele>913.0</ele><time>2026-04-21T06:29:17Z</time></trkpt><trkpt lat="43.96882009793213" lon="6.506201135427276"><ele>910.5</ele><time>2026-04-21T06:29:18Z</time></trkpt><trkpt lat="43.96877015539662" lon="6.506376593528233"><ele>908.0</ele><time>2026-04-21T06:29:19Z</time></trkpt><trkpt lat="43.96871300326631" lon="6.506559390412672"><ele>905.5</ele><time>2026-04-21T06:29:20Z</time></trkpt><trkpt lat="43.968659406508564" lon="6.506728384096262"><ele>903.0</ele><time>2026-04-21T06:29:21Z</time></trkpt><trkpt lat="43.968616144534536" lon="6.506864582155054"><ele>903.0</ele><time>2026-04-21T06:29:22Z</time></trkpt><trkpt lat="43.968578563168734" lon="6.506997813487326"><ele>903.0</ele><time>2026-04-21T06:29:23Z</time></trkpt><trkpt lat="43.96851720450006" lon="6.507100810655879"><ele>903.0</ele><time>2026-04-21T06:29:24Z</time></trkpt><trkpt lat="43.96847679073728" lon="6.507213946601876"><ele>903.0</ele><time>2026-04-21T06:29:25Z</time></trkpt><trkpt lat="43.96840750897322" lon="6.507288398172735"><ele>903.0</ele><time>2026-04-21T06:29:26Z</time></trkpt><trkpt lat="43.968329740809466" lon="6.507331297555375"><ele>902.0</ele><time>2026-04-21T06:29:27Z</time></trkpt><trkpt lat="43.96824523819145" lon="6.507342785646588"><ele>901.0</ele><time>2026-04-21T06:29:28Z</time></trkpt><trkpt lat="43.96815447877403" lon="6.507320211832254"><ele>900.0</ele><time>2026-04-21T06:29:29Z</time></trkpt><trkpt lat="43.968057651456924" lon="6.5072796513522775"><ele>899.0</ele><time>2026-04-21T06:29:30Z</time></trkpt><trkpt lat="43.96796887907164" lon="6.507237043379474"><ele>898.0</ele><time>2026-04-21T06:29:31Z</time></trkpt><trkpt lat="43.967883617625674" lon="6.507207463232769"><ele>897.9999999999999</ele><time>2026-04-21T06:29:32Z</time></trkpt><trkpt lat="43.967802624716214" lon="6.507184185236737"><ele>898.0</ele><time>2026-04-21T06:29:33Z</time></trkpt><trkpt lat="43.96772593294211" lon="6.507166358891711"><ele>898.0</ele><time>2026-04-21T06:29:34Z</time></trkpt><trkpt lat="43.96765063608188" lon="6.507138548349687"><ele>898.0</ele><time>2026-04-21T06:29:35Z</time></trkpt><trkpt lat="43.96757482592268" lon="6.5071059522604004"><ele>897.9999999999999</ele><time>2026-04-21T06:29:36Z</time></trkpt><trkpt lat="43.967503114898804" lon="6.5070841699139494"><ele>898.0</ele><time>2026-04-21T06:29:37Z</time></trkpt><trkpt lat="43.96743765990262" lon="6.507075221774891"><ele>898.3333333333333</ele><time>2026-04-21T06:29:38Z</time></trkpt><trkpt lat="43.96732537240771" lon="6.507062796090205"><ele>898.6666666666666</ele><time>2026-04-21T06:29:40Z</time></trkpt><trkpt lat="43.9672545593789" lon="6.507042934907857"><ele>899.0</ele><time>2026-04-21T06:29:41Z</time></trkpt><trkpt lat="43.96717867471213" lon="6.507012085911986"><ele>899.3333333333333</ele><time>2026-04-21T06:29:42Z</time></trkpt><trkpt lat="43.96709413340064" lon="6.506972946849594"><ele>899.6666666666666</ele><time>2026-04-21T06:29:43Z</time></trkpt><trkpt lat="43.96701612305069" lon="6.506944533927025"><ele>900.0</ele><time>2026-04-21T06:29:44Z</time></trkpt><trkpt lat="43.96693440754702" lon="6.506926641534167"><ele>900.0</ele><time>2026-04-21T06:29:45Z</time></trkpt><trkpt lat="43.96684083448304" lon="6.506909493911311"><ele>900.0</ele><time>2026-04-21T06:29:46Z</time></trkpt><trkpt lat="43.96673168108524" lon="6.5068844265742865"><ele>900.0</ele><time>2026-04-21T06:29:47Z</time></trkpt><trkpt lat="43.96662046641385" lon="6.506856567201906"><ele>900.0</ele><time>2026-04-21T06:29:48Z</time></trkpt><trkpt lat="43.966503222409614" lon="6.506826246773289"><ele>900.0</ele><time>2026-04-21T06:29:49Z</time></trkpt><trkpt lat="43.966386704467276" lon="6.506795353858328"><ele>899.6</ele><time>2026-04-21T06:29:50Z</time></trkpt><trkpt lat="43.96627679188927" lon="6.5067680770099035"><ele>899.2</ele><time>2026-04-21T06:29:51Z</time></trkpt><trkpt lat="43.96617324018275" lon="6.506743145699045"><ele>898.8</ele><time>2026-04-21T06:29:52Z</time></trkpt><trkpt lat="43.96607580546455" lon="6.506718736296537"><ele>898.4</ele><time>2026-04-21T06:29:53Z</time></trkpt><trkpt lat="43.96597751428366" lon="6.506694750350059"><ele>898.0</ele><time>2026-04-21T06:29:54Z</time></trkpt><trkpt lat="43.96587459539757" lon="6.506669191264388"><ele>897.8</ele><time>2026-04-21T06:29:55Z</time></trkpt><trkpt lat="43.96577103750788" lon="6.506644951529515"><ele>897.5999999999999</ele><time>2026-04-21T06:29:56Z</time></trkpt><trkpt lat="43.96566267187653" lon="6.506618198068093"><ele>897.4000000000001</ele><time>2026-04-21T06:29:57Z</time></trkpt><trkpt lat="43.96555353777702" lon="6.506592129759621"><ele>897.2</ele><time>2026-04-21T06:29:58Z</time></trkpt><trkpt lat="43.965445493149595" lon="6.506568157514446"><ele>897.0</ele><time>2026-04-21T06:29:59Z</time></trkpt><trkpt lat="43.96534394698484" lon="6.506548898045598"><ele>897.0</ele><time>2026-04-21T06:30:00Z</time></trkpt><trkpt lat="43.96524198286984" lon="6.506526313275411"><ele>897.0</ele><time>2026-04-21T06:30:01Z</time></trkpt><trkpt lat="43.96514403260521" lon="6.506505438439936"><ele>897.0</ele><time>2026-04-21T06:30:02Z</time></trkpt><trkpt lat="43.965046323662" lon="6.506490723009783"><ele>897.0</ele><time>2026-04-21T06:30:03Z</time></trkpt><trkpt lat="43.9649593278406" lon="6.506456422619615"><ele>897.0</ele><time>2026-04-21T06:30:04Z</time></trkpt><trkpt lat="43.96486411329974" lon="6.506501596048228"><ele>896.3333333333334</ele><time>2026-04-21T06:30:05Z</time></trkpt><trkpt lat="43.96477531538949" lon="6.50653379857775"><ele>895.6666666666667</ele><time>2026-04-21T06:30:06Z</time></trkpt><trkpt lat="43.96468922113836" lon="6.506567577448724"><ele>895.0</ele><time>2026-04-21T06:30:07Z</time></trkpt><trkpt lat="43.964603238035636" lon="6.506592891635751"><ele>894.3333333333334</ele><time>2026-04-21T06:30:08Z</time></trkpt><trkpt lat="43.96452248069214" lon="6.506597776938693"><ele>893.6666666666667</ele><time>2026-04-21T06:30:09Z</time></trkpt><trkpt lat="43.964450602690654" lon="6.506607075342349"><ele>893.0</ele><time>2026-04-21T06:30:10Z</time></trkpt><trkpt lat="43.96437005015637" lon="6.506626935381224"><ele>893.0</ele><time>2026-04-21T06:30:11Z</time></trkpt><trkpt lat="43.964281263903885" lon="6.50664670437026"><ele>893.0</ele><time>2026-04-21T06:30:12Z</time></trkpt><trkpt lat="43.964184327524364" lon="6.506669454744308"><ele>893.0</ele><time>2026-04-21T06:30:13Z</time></trkpt><trkpt lat="43.96407881466926" lon="6.506688661650877"><ele>893.0</ele><time>2026-04-21T06:30:14Z</time></trkpt><trkpt lat="43.96396692779905" lon="6.506706539251947"><ele>893.0</ele><time>2026-04-21T06:30:15Z</time></trkpt><trkpt lat="43.9638502689913" lon="6.506713824220769"><ele>892.75</ele><time>2026-04-21T06:30:16Z</time></trkpt><trkpt lat="43.96372271812396" lon="6.506712250057796"><ele>892.5</ele><time>2026-04-21T06:30:17Z</time></trkpt><trkpt lat="43.96358382545016" lon="6.506694785620054"><ele>892.25</ele><time>2026-04-21T06:30:18Z</time></trkpt><trkpt lat="43.96343088460391" lon="6.506674891463738"><ele>892.0</ele><time>2026-04-21T06:30:19Z</time></trkpt><trkpt lat="43.96327404935384" lon="6.506653856284636"><ele>891.6666666666666</ele><time>2026-04-21T06:30:20Z</time></trkpt><trkpt lat="43.963109125369094" lon="6.506634576461854"><ele>891.3333333333333</ele><time>2026-04-21T06:30:21Z</time></trkpt><trkpt lat="43.962952816493065" lon="6.506618083633106"><ele>891.0</ele><time>2026-04-21T06:30:22Z</time></trkpt><trkpt lat="43.96279855345035" lon="6.506600131466028"><ele>891.0</ele><time>2026-04-21T06:30:23Z</time></trkpt><trkpt lat="43.962637227726624" lon="6.506577460040439"><ele>891.0</ele><time>2026-04-21T06:30:24Z</time></trkpt><trkpt lat="43.96246559894438" lon="6.506546664658022"><ele>891.0</ele><time>2026-04-21T06:30:25Z</time></trkpt><trkpt lat="43.96228462777183" lon="6.506518484292512"><ele>890.0</ele><time>2026-04-21T06:30:26Z</time></trkpt><trkpt lat="43.962102786161466" lon="6.5064885689382965"><ele>889.0</ele><time>2026-04-21T06:30:27Z</time></trkpt><trkpt lat="43.96191175896896" lon="6.506459261910727"><ele>888.0</ele><time>2026-04-21T06:30:28Z</time></trkpt><trkpt lat="43.961732480930415" lon="6.506429858950436"><ele>887.6666666666667</ele><time>2026-04-21T06:30:29Z</time></trkpt><trkpt lat="43.96156142327166" lon="6.506402315434742"><ele>887.3333333333334</ele><time>2026-04-21T06:30:30Z</time></trkpt><trkpt lat="43.961387568554805" lon="6.506376828569058"><ele>887.0</ele><time>2026-04-21T06:30:31Z</time></trkpt><trkpt lat="43.9612053742853" lon="6.5063496105101235"><ele>887.0</ele><time>2026-04-21T06:30:32Z</time></trkpt><trkpt lat="43.96101885209349" lon="6.506324877608296"><ele>887.0</ele><time>2026-04-21T06:30:33Z</time></trkpt><trkpt lat="43.960826892857874" lon="6.506307107296833"><ele>887.0</ele><time>2026-04-21T06:30:34Z</time></trkpt><trkpt lat="43.960636261119305" lon="6.506293964993139"><ele>886.0</ele><time>2026-04-21T06:30:35Z</time></trkpt><trkpt lat="43.96044954156844" lon="6.506281250998629"><ele>885.0</ele><time>2026-04-21T06:30:36Z</time></trkpt><trkpt lat="43.96027034144709" lon="6.506270113780694"><ele>884.0</ele><time>2026-04-21T06:30:37Z</time></trkpt><trkpt lat="43.96008226979639" lon="6.506265448147735"><ele>883.6666666666667</ele><time>2026-04-21T06:30:38Z</time></trkpt><trkpt lat="43.95989167971114" lon="6.506254974484106"><ele>883.3333333333333</ele><time>2026-04-21T06:30:39Z</time></trkpt><trkpt lat="43.95970285111452" lon="6.506237844315083"><ele>883.0</ele><time>2026-04-21T06:30:40Z</time></trkpt><trkpt lat="43.95951402079235" lon="6.506222745861025"><ele>883.3333333333333</ele><time>2026-04-21T06:30:41Z</time></trkpt><trkpt lat="43.95932520852776" lon="6.506212615108932"><ele>883.6666666666667</ele><time>2026-04-21T06:30:42Z</time></trkpt><trkpt lat="43.959138118340945" lon="6.506208496466999"><ele>884.0</ele><time>2026-04-21T06:30:43Z</time></trkpt><trkpt lat="43.95895790357789" lon="6.506217177120635"><ele>884.0</ele><time>2026-04-21T06:30:44Z</time></trkpt><trkpt lat="43.958790194023734" lon="6.506212695017824"><ele>884.0</ele><time>2026-04-21T06:30:45Z</time></trkpt><trkpt lat="43.95862870018658" lon="6.506275040615959"><ele>884.0</ele><time>2026-04-21T06:30:46Z</time></trkpt><trkpt lat="43.95845961152055" lon="6.50634897330539"><ele>883.6666666666667</ele><time>2026-04-21T06:30:47Z</time></trkpt><trkpt lat="43.958290501707346" lon="6.506445982299754"><ele>883.3333333333333</ele><time>2026-04-21T06:30:48Z</time></trkpt><trkpt lat="43.95811904242535" lon="6.506554602351923"><ele>883.0</ele><time>2026-04-21T06:30:49Z</time></trkpt><trkpt lat="43.957944500166676" lon="6.506665308428347"><ele>883.0</ele><time>2026-04-21T06:30:50Z</time></trkpt><trkpt lat="43.95777030320289" lon="6.50677364010486"><ele>883.0</ele><time>2026-04-21T06:30:51Z</time></trkpt><trkpt lat="43.957599266701074" lon="6.506885880323388"><ele>883.0</ele><time>2026-04-21T06:30:52Z</time></trkpt><trkpt lat="43.95742204650958" lon="6.507002070955979"><ele>882.0</ele><time>2026-04-21T06:30:53Z</time></trkpt><trkpt lat="43.95723493486624" lon="6.507097196144919"><ele>881.0</ele><time>2026-04-21T06:30:54Z</time></trkpt><trkpt lat="43.95705194873687" lon="6.507210826517946"><ele>880.0</ele><time>2026-04-21T06:30:55Z</time></trkpt><trkpt lat="43.95687337251614" lon="6.507351056726491"><ele>884.3333333333333</ele><time>2026-04-21T06:30:56Z</time></trkpt><trkpt lat="43.95668151228104" lon="6.5074552938826695"><ele>888.6666666666667</ele><time>2026-04-21T06:30:57Z</time></trkpt><trkpt lat="43.956502851582464" lon="6.507579256543739"><ele>893.0</ele><time>2026-04-21T06:30:58Z</time></trkpt><trkpt lat="43.95633497457939" lon="6.507702524562167"><ele>893.0</ele><time>2026-04-21T06:30:59Z</time></trkpt><trkpt lat="43.95616378110313" lon="6.5078468535033185"><ele>893.0</ele><time>2026-04-21T06:31:00Z</time></trkpt><trkpt lat="43.95600284967565" lon="6.508015905693927"><ele>893.0</ele><time>2026-04-21T06:31:01Z</time></trkpt><trkpt lat="43.95585531402483" lon="6.508210620658138"><ele>892.3333333333334</ele><time>2026-04-21T06:31:02Z</time></trkpt><trkpt lat="43.95569831816213" lon="6.508377614264339"><ele>891.6666666666667</ele><time>2026-04-21T06:31:03Z</time></trkpt><trkpt lat="43.95554433695579" lon="6.508535570733262"><ele>891.0</ele><time>2026-04-21T06:31:04Z</time></trkpt><trkpt lat="43.95540060115196" lon="6.508662144882057"><ele>889.0</ele><time>2026-04-21T06:31:05Z</time></trkpt><trkpt lat="43.95523807060888" lon="6.508758212059141"><ele>887.0</ele><time>2026-04-21T06:31:06Z</time></trkpt><trkpt lat="43.95505809974981" lon="6.508822323434215"><ele>885.0</ele><time>2026-04-21T06:31:07Z</time></trkpt><trkpt lat="43.95487742864796" lon="6.508886220072537"><ele>885.0</ele><time>2026-04-21T06:31:08Z</time></trkpt><trkpt lat="43.95469679821076" lon="6.508960466154205"><ele>885.0</ele><time>2026-04-21T06:31:09Z</time></trkpt><trkpt lat="43.95451262087154" lon="6.5090265486460845"><ele>885.0</ele><time>2026-04-21T06:31:10Z</time></trkpt><trkpt lat="43.954351655793175" lon="6.509150369450573"><ele>891.0</ele><time>2026-04-21T06:31:11Z</time></trkpt><trkpt lat="43.954194735561494" lon="6.5092805008636425"><ele>897.0</ele><time>2026-04-21T06:31:12Z</time></trkpt><trkpt lat="43.95403679242843" lon="6.509419036861884"><ele>903.0</ele><time>2026-04-21T06:31:13Z</time></trkpt><trkpt lat="43.95387382951882" lon="6.509553947518087"><ele>896.6666666666667</ele><time>2026-04-21T06:31:14Z</time></trkpt><trkpt lat="43.95371478413228" lon="6.509675806979921"><ele>890.3333333333334</ele><time>2026-04-21T06:31:15Z</time></trkpt><trkpt lat="43.953565108971176" lon="6.5097727559325635"><ele>884.0</ele><time>2026-04-21T06:31:16Z</time></trkpt><trkpt lat="43.95341455970707" lon="6.509837411828564"><ele>889.3333333333334</ele><time>2026-04-21T06:31:17Z</time></trkpt><trkpt lat="43.95325063342891" lon="6.50986894809613"><ele>894.6666666666667</ele><time>2026-04-21T06:31:18Z</time></trkpt><trkpt lat="43.953090584440126" lon="6.50989120707691"><ele>900.0</ele><time>2026-04-21T06:31:19Z</time></trkpt><trkpt lat="43.952934045484675" lon="6.509937179002463"><ele>900.0</ele><time>2026-04-21T06:31:20Z</time></trkpt><trkpt lat="43.95278279800042" lon="6.510012766320212"><ele>900.0</ele><time>2026-04-21T06:31:21Z</time></trkpt><trkpt lat="43.95263071562689" lon="6.510087689875922"><ele>900.0</ele><time>2026-04-21T06:31:22Z</time></trkpt><trkpt lat="43.952496248206344" lon="6.510215783206604"><ele>898.6666666666667</ele><time>2026-04-21T06:31:23Z</time></trkpt><trkpt lat="43.952388717813115" lon="6.5103824664221746"><ele>897.3333333333334</ele><time>2026-04-21T06:31:24Z</time></trkpt><trkpt lat="43.95227339481816" lon="6.510527267298879"><ele>896.0</ele><time>2026-04-21T06:31:25Z</time></trkpt><trkpt lat="43.95214628515285" lon="6.510660900730505"><ele>896.0</ele><time>2026-04-21T06:31:26Z</time></trkpt><trkpt lat="43.95200341514778" lon="6.510764836650976"><ele>896.0</ele><time>2026-04-21T06:31:27Z</time></trkpt><trkpt lat="43.95184756417289" lon="6.510838480393266"><ele>896.0</ele><time>2026-04-21T06:31:28Z</time></trkpt><trkpt lat="43.95168709689429" lon="6.510902527738152"><ele>902.3333333333334</ele><time>2026-04-21T06:31:29Z</time></trkpt><trkpt lat="43.95152547241754" lon="6.510965367055937"><ele>908.6666666666667</ele><time>2026-04-21T06:31:30Z</time></trkpt><trkpt lat="43.95137266434593" lon="6.511025935557086"><ele>915.0</ele><time>2026-04-21T06:31:31Z</time></trkpt><trkpt lat="43.95121041569844" lon="6.511091697943918"><ele>915.0</ele><time>2026-04-21T06:31:32Z</time></trkpt><trkpt lat="43.95103867093033" lon="6.5111577273804535"><ele>915.0</ele><time>2026-04-21T06:31:33Z</time></trkpt><trkpt lat="43.95086645137344" lon="6.511218505529145"><ele>915.0</ele><time>2026-04-21T06:31:34Z</time></trkpt><trkpt lat="43.95068997816191" lon="6.51127252557165"><ele>908.6666666666667</ele><time>2026-04-21T06:31:35Z</time></trkpt><trkpt lat="43.95051721230226" lon="6.511318026743358"><ele>902.3333333333334</ele><time>2026-04-21T06:31:36Z</time></trkpt><trkpt lat="43.95035381186147" lon="6.511362912458193"><ele>896.0</ele><time>2026-04-21T06:31:37Z</time></trkpt><trkpt lat="43.95020484216824" lon="6.511425083072456"><ele>896.0</ele><time>2026-04-21T06:31:38Z</time></trkpt><trkpt lat="43.95006295212829" lon="6.511509577726702"><ele>896.0</ele><time>2026-04-21T06:31:39Z</time></trkpt><trkpt lat="43.94993352585667" lon="6.51160182439165"><ele>896.0</ele><time>2026-04-21T06:31:40Z</time></trkpt><trkpt lat="43.949822007450386" lon="6.511716485694727"><ele>896.0</ele><time>2026-04-21T06:31:41Z</time></trkpt><trkpt lat="43.949728714744126" lon="6.511860920523838"><ele>893.25</ele><time>2026-04-21T06:31:42Z</time></trkpt><trkpt lat="43.94965542300824" lon="6.512033943674842"><ele>890.5</ele><time>2026-04-21T06:31:43Z</time></trkpt><trkpt lat="43.949603768172715" lon="6.512212016078997"><ele>887.75</ele><time>2026-04-21T06:31:44Z</time></trkpt><trkpt lat="43.94955334557241" lon="6.512362093602181"><ele>885.0</ele><time>2026-04-21T06:31:45Z</time></trkpt><trkpt lat="43.94948201958135" lon="6.512486495527597"><ele>885.0</ele><time>2026-04-21T06:31:46Z</time></trkpt><trkpt lat="43.94939630374116" lon="6.512576843486666"><ele>885.0</ele><time>2026-04-21T06:31:47Z</time></trkpt><trkpt lat="43.9492934650233" lon="6.512632027704116"><ele>885.0</ele><time>2026-04-21T06:31:48Z</time></trkpt><trkpt lat="43.94916546275027" lon="6.512654838325832"><ele>885.0</ele><time>2026-04-21T06:31:49Z</time></trkpt><trkpt lat="43.949023585474926" lon="6.512640519575764"><ele>891.6666666666667</ele><time>2026-04-21T06:31:50Z</time></trkpt><trkpt lat="43.94887070725994" lon="6.512604566703181"><ele>898.3333333333334</ele><time>2026-04-21T06:31:51Z</time></trkpt><trkpt lat="43.94870588813896" lon="6.51256647536355"><ele>905.0</ele><time>2026-04-21T06:31:52Z</time></trkpt><trkpt lat="43.94853261414495" lon="6.51253050831213"><ele>905.6666666666667</ele><time>2026-04-21T06:31:53Z</time></trkpt><trkpt lat="43.94836727613599" lon="6.512500143463307"><ele>906.3333333333333</ele><time>2026-04-21T06:31:54Z</time></trkpt><trkpt lat="43.94820998257818" lon="6.512473201750523"><ele>907.0</ele><time>2026-04-21T06:31:55Z</time></trkpt><trkpt lat="43.948068323881365" lon="6.51242166035754"><ele>907.0</ele><time>2026-04-21T06:31:56Z</time></trkpt><trkpt lat="43.94794226181058" lon="6.512435074159267"><ele>907.0</ele><time>2026-04-21T06:31:57Z</time></trkpt><trkpt lat="43.94782526043267" lon="6.512458442675549"><ele>907.0</ele><time>2026-04-21T06:31:58Z</time></trkpt><trkpt lat="43.94771778688951" lon="6.512528275202914"><ele>907.0</ele><time>2026-04-21T06:31:59Z</time></trkpt><trkpt lat="43.94761954545351" lon="6.512645112872383"><ele>908.3333333333333</ele><time>2026-04-21T06:32:00Z</time></trkpt><trkpt lat="43.94753952702615" lon="6.512798348293001"><ele>909.6666666666667</ele><time>2026-04-21T06:32:01Z</time></trkpt><trkpt lat="43.947472207898976" lon="6.512986727112406"><ele>911.0</ele><time>2026-04-21T06:32:02Z</time></trkpt><trkpt lat="43.9474036566048" lon="6.513190987140532"><ele>906.3333333333334</ele><time>2026-04-21T06:32:03Z</time></trkpt><trkpt lat="43.947324141160784" lon="6.5134083372713665"><ele>901.6666666666667</ele><time>2026-04-21T06:32:04Z</time></trkpt><trkpt lat="43.9472393497994" lon="6.513615116572515"><ele>897.0</ele><time>2026-04-21T06:32:05Z</time></trkpt><trkpt lat="43.94715682548766" lon="6.51380637477442"><ele>894.5</ele><time>2026-04-21T06:32:06Z</time></trkpt><trkpt lat="43.947075779881935" lon="6.513979681101286"><ele>892.0</ele><time>2026-04-21T06:32:07Z</time></trkpt><trkpt lat="43.946994282576114" lon="6.514129315904246"><ele>889.5</ele><time>2026-04-21T06:32:08Z</time></trkpt><trkpt lat="43.94689179919814" lon="6.514265290309677"><ele>887.0</ele><time>2026-04-21T06:32:09Z</time></trkpt><trkpt lat="43.946770706958375" lon="6.514387882276274"><ele>885.3333333333334</ele><time>2026-04-21T06:32:10Z</time></trkpt><trkpt lat="43.94663558770764" lon="6.514505587692963"><ele>883.6666666666667</ele><time>2026-04-21T06:32:11Z</time></trkpt><trkpt lat="43.94648918873516" lon="6.5146130839997225"><ele>882.0</ele><time>2026-04-21T06:32:12Z</time></trkpt><trkpt lat="43.9463347095941" lon="6.514718145650327"><ele>882.0</ele><time>2026-04-21T06:32:13Z</time></trkpt><trkpt lat="43.946176442107856" lon="6.5148293967774045"><ele>882.0</ele><time>2026-04-21T06:32:14Z</time></trkpt><trkpt lat="43.946012995743516" lon="6.514942712516844"><ele>882.0</ele><time>2026-04-21T06:32:15Z</time></trkpt><trkpt lat="43.945845404337035" lon="6.515055151045233"><ele>880.3333333333333</ele><time>2026-04-21T06:32:16Z</time></trkpt><trkpt lat="43.94567151255146" lon="6.515169822114085"><ele>878.6666666666666</ele><time>2026-04-21T06:32:17Z</time></trkpt><trkpt lat="43.94549467093726" lon="6.51528732772755"><ele>877.0</ele><time>2026-04-21T06:32:18Z</time></trkpt><trkpt lat="43.945315312136124" lon="6.515405683006966"><ele>877.0</ele><time>2026-04-21T06:32:19Z</time></trkpt><trkpt lat="43.94513762520671" lon="6.515528401431312"><ele>877.0</ele><time>2026-04-21T06:32:20Z</time></trkpt><trkpt lat="43.944958340141845" lon="6.515653630537717"><ele>877.0</ele><time>2026-04-21T06:32:21Z</time></trkpt><trkpt lat="43.94478534716516" lon="6.515777623302401"><ele>880.0</ele><time>2026-04-21T06:32:22Z</time></trkpt><trkpt lat="43.94462131403842" lon="6.515890874930258"><ele>883.0</ele><time>2026-04-21T06:32:23Z</time></trkpt><trkpt lat="43.944464869298656" lon="6.5160010132979576"><ele>886.0</ele><time>2026-04-21T06:32:24Z</time></trkpt><trkpt lat="43.94430886172672" lon="6.516108283443035"><ele>887.0</ele><time>2026-04-21T06:32:25Z</time></trkpt><trkpt lat="43.94415209135927" lon="6.516213064992151"><ele>888.0</ele><time>2026-04-21T06:32:26Z</time></trkpt><trkpt lat="43.94399659514405" lon="6.516323321274313"><ele>889.0</ele><time>2026-04-21T06:32:27Z</time></trkpt><trkpt lat="43.94384146781333" lon="6.516437697431523"><ele>890.0</ele><time>2026-04-21T06:32:28Z</time></trkpt><trkpt lat="43.943682076415755" lon="6.516554073350166"><ele>891.0</ele><time>2026-04-21T06:32:29Z</time></trkpt><trkpt lat="43.94351618990323" lon="6.516672342497515"><ele>892.0</ele><time>2026-04-21T06:32:30Z</time></trkpt><trkpt lat="43.94334766685726" lon="6.516793116008603"><ele>892.0</ele><time>2026-04-21T06:32:31Z</time></trkpt><trkpt lat="43.94318643197703" lon="6.516905771269941"><ele>892.0</ele><time>2026-04-21T06:32:32Z</time></trkpt><trkpt lat="43.943025785062055" lon="6.5170104103311415"><ele>892.0</ele><time>2026-04-21T06:32:33Z</time></trkpt><trkpt lat="43.94286270367624" lon="6.517115191438006"><ele>890.0</ele><time>2026-04-21T06:32:34Z</time></trkpt><trkpt lat="43.94269786406773" lon="6.5172218122455945"><ele>888.0</ele><time>2026-04-21T06:32:35Z</time></trkpt><trkpt lat="43.94254349520318" lon="6.517331583273825"><ele>886.0</ele><time>2026-04-21T06:32:36Z</time></trkpt><trkpt lat="43.942393975613584" lon="6.517454085528427"><ele>886.0</ele><time>2026-04-21T06:32:37Z</time></trkpt><trkpt lat="43.94225165236764" lon="6.517587352355527"><ele>886.0</ele><time>2026-04-21T06:32:38Z</time></trkpt><trkpt lat="43.94211984558885" lon="6.517735668122945"><ele>886.0</ele><time>2026-04-21T06:32:39Z</time></trkpt><trkpt lat="43.94199344442714" lon="6.5178994465339475"><ele>887.0</ele><time>2026-04-21T06:32:40Z</time></trkpt><trkpt lat="43.94187632548146" lon="6.518081648688889"><ele>888.0</ele><time>2026-04-21T06:32:41Z</time></trkpt><trkpt lat="43.941770487338275" lon="6.518272162008045"><ele>889.0</ele><time>2026-04-21T06:32:42Z</time></trkpt><trkpt lat="43.941671166925886" lon="6.5184791952505305"><ele>889.0</ele><time>2026-04-21T06:32:43Z</time></trkpt><trkpt lat="43.94158130114937" lon="6.51869271442798"><ele>889.0</ele><time>2026-04-21T06:32:44Z</time></trkpt><trkpt lat="43.94150624921541" lon="6.5189133740396095"><ele>889.0</ele><time>2026-04-21T06:32:45Z</time></trkpt><trkpt lat="43.941444849509104" lon="6.5191491959004555"><ele>887.3333333333333</ele><time>2026-04-21T06:32:46Z</time></trkpt><trkpt lat="43.94139850041406" lon="6.519395145018778"><ele>885.6666666666667</ele><time>2026-04-21T06:32:47Z</time></trkpt><trkpt lat="43.94136422691983" lon="6.51965121869572"><ele>884.0</ele><time>2026-04-21T06:32:48Z</time></trkpt><trkpt lat="43.94132862649748" lon="6.519911676036073"><ele>881.6666666666667</ele><time>2026-04-21T06:32:49Z</time></trkpt><trkpt lat="43.94129063823206" lon="6.520156121469738"><ele>879.3333333333333</ele><time>2026-04-21T06:32:50Z</time></trkpt><trkpt lat="43.941253799366365" lon="6.520396224473801"><ele>877.0</ele><time>2026-04-21T06:32:51Z</time></trkpt><trkpt lat="43.94121712204502" lon="6.520608951670139"><ele>875.5</ele><time>2026-04-21T06:32:52Z</time></trkpt><trkpt lat="43.94117750254132" lon="6.520770796671763"><ele>874.0</ele><time>2026-04-21T06:32:53Z</time></trkpt><trkpt lat="43.94112085997378" lon="6.520933496088537"><ele>872.5</ele><time>2026-04-21T06:32:54Z</time></trkpt><trkpt lat="43.94103594866958" lon="6.521090453383312"><ele>871.0</ele><time>2026-04-21T06:32:55Z</time></trkpt><trkpt lat="43.94092564518635" lon="6.521230380003121"><ele>872.6666666666666</ele><time>2026-04-21T06:32:56Z</time></trkpt><trkpt lat="43.94079870760176" lon="6.521353007280056"><ele>874.3333333333333</ele><time>2026-04-21T06:32:57Z</time></trkpt><trkpt lat="43.940663008577886" lon="6.521471182836869"><ele>876.0</ele><time>2026-04-21T06:32:58Z</time></trkpt><trkpt lat="43.94052303077683" lon="6.521602962236087"><ele>876.0</ele><time>2026-04-21T06:32:59Z</time></trkpt><trkpt lat="43.94038494685608" lon="6.521748281295197"><ele>876.0</ele><time>2026-04-21T06:33:00Z</time></trkpt><trkpt lat="43.94025969617623" lon="6.5219086671448485"><ele>876.0</ele><time>2026-04-21T06:33:01Z</time></trkpt><trkpt lat="43.940131381399055" lon="6.52208298852913"><ele>879.6666666666667</ele><time>2026-04-21T06:33:02Z</time></trkpt><trkpt lat="43.94000244696268" lon="6.522260084443928"><ele>883.3333333333334</ele><time>2026-04-21T06:33:03Z</time></trkpt><trkpt lat="43.93988233224259" lon="6.5224241951651285"><ele>887.0</ele><time>2026-04-21T06:33:04Z</time></trkpt><trkpt lat="43.939755813119476" lon="6.522576973878958"><ele>887.0</ele><time>2026-04-21T06:33:05Z</time></trkpt><trkpt lat="43.93962060597392" lon="6.5227297823566985"><ele>887.0</ele><time>2026-04-21T06:33:06Z</time></trkpt><trkpt lat="43.939480787751535" lon="6.5228815533025015"><ele>887.0</ele><time>2026-04-21T06:33:07Z</time></trkpt><trkpt lat="43.9393483455405" lon="6.523032403992164"><ele>888.0</ele><time>2026-04-21T06:33:08Z</time></trkpt><trkpt lat="43.93922019050976" lon="6.523189140892139"><ele>889.0</ele><time>2026-04-21T06:33:09Z</time></trkpt><trkpt lat="43.93910481032693" lon="6.523364180522109"><ele>890.0</ele><time>2026-04-21T06:33:10Z</time></trkpt><trkpt lat="43.93900195427737" lon="6.523558670159991"><ele>884.0</ele><time>2026-04-21T06:33:11Z</time></trkpt><trkpt lat="43.93890165788464" lon="6.523763711790523"><ele>878.0</ele><time>2026-04-21T06:33:12Z</time></trkpt><trkpt lat="43.93879562336034" lon="6.523964114929094"><ele>872.0</ele><time>2026-04-21T06:33:13Z</time></trkpt><trkpt lat="43.938684582729294" lon="6.524164803529974"><ele>872.0</ele><time>2026-04-21T06:33:14Z</time></trkpt><trkpt lat="43.93857685093858" lon="6.524354806488192"><ele>872.0</ele><time>2026-04-21T06:33:15Z</time></trkpt><trkpt lat="43.93848600667884" lon="6.524521705800513"><ele>872.0</ele><time>2026-04-21T06:33:16Z</time></trkpt><trkpt lat="43.93840600559729" lon="6.524699588072444"><ele>877.5</ele><time>2026-04-21T06:33:17Z</time></trkpt><trkpt lat="43.938348279981156" lon="6.524880365571747"><ele>883.0</ele><time>2026-04-21T06:33:18Z</time></trkpt><trkpt lat="43.938302401265986" lon="6.525073955337106"><ele>888.5</ele><time>2026-04-21T06:33:19Z</time></trkpt><trkpt lat="43.93826592715144" lon="6.525277834862844"><ele>894.0</ele><time>2026-04-21T06:33:20Z</time></trkpt><trkpt lat="43.93823941956096" lon="6.525488287837697"><ele>894.0</ele><time>2026-04-21T06:33:21Z</time></trkpt><trkpt lat="43.9382227832113" lon="6.525693195798573"><ele>894.0</ele><time>2026-04-21T06:33:22Z</time></trkpt><trkpt lat="43.93821051032506" lon="6.525905611528088"><ele>894.0</ele><time>2026-04-21T06:33:23Z</time></trkpt><trkpt lat="43.93820281131004" lon="6.526113556331586"><ele>889.3333333333333</ele><time>2026-04-21T06:33:24Z</time></trkpt><trkpt lat="43.93818592094351" lon="6.526341484020985"><ele>884.6666666666666</ele><time>2026-04-21T06:33:25Z</time></trkpt><trkpt lat="43.93815386434141" lon="6.526560263962957"><ele>880.0</ele><time>2026-04-21T06:33:26Z</time></trkpt><trkpt lat="43.938129406916815" lon="6.526778914949961"><ele>880.0</ele><time>2026-04-21T06:33:27Z</time></trkpt><trkpt lat="43.93811983915307" lon="6.52701538423159"><ele>880.0</ele><time>2026-04-21T06:33:28Z</time></trkpt><trkpt lat="43.93812575993384" lon="6.527257339653109"><ele>880.0</ele><time>2026-04-21T06:33:29Z</time></trkpt><trkpt lat="43.93813661970696" lon="6.527492242185963"><ele>877.0</ele><time>2026-04-21T06:33:30Z</time></trkpt><trkpt lat="43.93814798071663" lon="6.527730673763874"><ele>874.0</ele><time>2026-04-21T06:33:31Z</time></trkpt><trkpt lat="43.93815861903421" lon="6.5279593149630895"><ele>871.0</ele><time>2026-04-21T06:33:32Z</time></trkpt><trkpt lat="43.93816773822397" lon="6.528162460361684"><ele>871.0</ele><time>2026-04-21T06:33:33Z</time></trkpt><trkpt lat="43.93817641017043" lon="6.528352967365328"><ele>871.0</ele><time>2026-04-21T06:33:34Z</time></trkpt><trkpt lat="43.938185366622434" lon="6.528534315865044"><ele>871.0</ele><time>2026-04-21T06:33:35Z</time></trkpt><trkpt lat="43.938179459143335" lon="6.5286803820669865"><ele>871.0</ele><time>2026-04-21T06:33:36Z</time></trkpt><trkpt lat="43.938157338505675" lon="6.528830217096135"><ele>876.25</ele><time>2026-04-21T06:33:37Z</time></trkpt><trkpt lat="43.93810543687773" lon="6.528975798963836"><ele>881.5</ele><time>2026-04-21T06:33:38Z</time></trkpt><trkpt lat="43.938031200359674" lon="6.52911621613695"><ele>886.75</ele><time>2026-04-21T06:33:39Z</time></trkpt><trkpt lat="43.93793734224367" lon="6.529251312377344"><ele>892.0</ele><time>2026-04-21T06:33:40Z</time></trkpt><trkpt lat="43.937838891319004" lon="6.529376692787684"><ele>892.0</ele><time>2026-04-21T06:33:41Z</time></trkpt><trkpt lat="43.93773890312869" lon="6.529511452278401"><ele>892.0</ele><time>2026-04-21T06:33:42Z</time></trkpt><trkpt lat="43.9376211653822" lon="6.529635947384225"><ele>892.0</ele><time>2026-04-21T06:33:43Z</time></trkpt><trkpt lat="43.93750375713862" lon="6.529784685721483"><ele>892.0</ele><time>2026-04-21T06:33:44Z</time></trkpt><trkpt lat="43.93738335260067" lon="6.529937804198172"><ele>895.3333333333333</ele><time>2026-04-21T06:33:45Z</time></trkpt><trkpt lat="43.93726120773086" lon="6.53009360736664"><ele>898.6666666666667</ele><time>2026-04-21T06:33:46Z</time></trkpt><trkpt lat="43.937138009515074" lon="6.530250645743262"><ele>902.0</ele><time>2026-04-21T06:33:47Z</time></trkpt><trkpt lat="43.937024857601926" lon="6.530415623730389"><ele>897.0</ele><time>2026-04-21T06:33:48Z</time></trkpt><trkpt lat="43.93689777665836" lon="6.530498764609163"><ele>892.0</ele><time>2026-04-21T06:33:49Z</time></trkpt><trkpt lat="43.93670601190923" lon="6.530723952091416"><ele>887.0</ele><time>2026-04-21T06:33:50Z</time></trkpt><trkpt lat="43.93662428660715" lon="6.530864719472942"><ele>887.0</ele><time>2026-04-21T06:33:51Z</time></trkpt><trkpt lat="43.936508074004315" lon="6.530932660488248"><ele>887.0</ele><time>2026-04-21T06:33:52Z</time></trkpt><trkpt lat="43.936394662721696" lon="6.531008220472396"><ele>887.0</ele><time>2026-04-21T06:33:53Z</time></trkpt><trkpt lat="43.936285462971156" lon="6.531073471333071"><ele>887.0</ele><time>2026-04-21T06:33:54Z</time></trkpt><trkpt lat="43.936184821732226" lon="6.531178482936975"><ele>889.5</ele><time>2026-04-21T06:33:55Z</time></trkpt><trkpt lat="43.93610086302819" lon="6.531313478072467"><ele>892.0</ele><time>2026-04-21T06:33:56Z</time></trkpt><trkpt lat="43.93602087163002" lon="6.531465634630088"><ele>894.5</ele><time>2026-04-21T06:33:57Z</time></trkpt><trkpt lat="43.935945826240975" lon="6.531591466799582"><ele>897.0</ele><time>2026-04-21T06:33:58Z</time></trkpt><trkpt lat="43.93587828300799" lon="6.531678790470896"><ele>893.0</ele><time>2026-04-21T06:33:59Z</time></trkpt><trkpt lat="43.935809202474836" lon="6.531726491312741"><ele>889.0</ele><time>2026-04-21T06:34:00Z</time></trkpt><trkpt lat="43.935732366772946" lon="6.531732128116391"><ele>885.0</ele><time>2026-04-21T06:34:01Z</time></trkpt><trkpt lat="43.93563628635625" lon="6.5317126499493305"><ele>881.0</ele><time>2026-04-21T06:34:02Z</time></trkpt><trkpt lat="43.935529108611654" lon="6.531669689458762"><ele>877.0</ele><time>2026-04-21T06:34:03Z</time></trkpt><trkpt lat="43.935407005668445" lon="6.5316274005833"><ele>877.0</ele><time>2026-04-21T06:34:04Z</time></trkpt><trkpt lat="43.935267927514474" lon="6.531587926000375"><ele>877.0</ele><time>2026-04-21T06:34:05Z</time></trkpt><trkpt lat="43.935114365919866" lon="6.531540711897813"><ele>877.0</ele><time>2026-04-21T06:34:06Z</time></trkpt><trkpt lat="43.93494739076275" lon="6.531486935386751"><ele>886.3333333333333</ele><time>2026-04-21T06:34:07Z</time></trkpt><trkpt lat="43.934783763202624" lon="6.53143633115907"><ele>895.6666666666667</ele><time>2026-04-21T06:34:08Z</time></trkpt><trkpt lat="43.934610258602625" lon="6.531381460948038"><ele>905.0</ele><time>2026-04-21T06:34:09Z</time></trkpt><trkpt lat="43.93443000095794" lon="6.531312940113284"><ele>905.0</ele><time>2026-04-21T06:34:10Z</time></trkpt><trkpt lat="43.93424885676527" lon="6.531233312332825"><ele>905.0</ele><time>2026-04-21T06:34:11Z</time></trkpt><trkpt lat="43.93406373077673" lon="6.531149406674189"><ele>905.0</ele><time>2026-04-21T06:34:12Z</time></trkpt><trkpt lat="43.933869770370094" lon="6.531056132080495"><ele>893.5</ele><time>2026-04-21T06:34:13.057Z</time></trkpt><trkpt lat="43.9335129543181" lon="6.531009907547799"><ele>882.0</ele><time>2026-04-21T06:34:15Z</time></trkpt><trkpt lat="43.93333181183876" lon="6.530981441376628"><ele>880.0</ele><time>2026-04-21T06:34:16Z</time></trkpt><trkpt lat="43.933146197443335" lon="6.531043150754298"><ele>878.0</ele><time>2026-04-21T06:34:17Z</time></trkpt><trkpt lat="43.93297013525657" lon="6.531060313529347"><ele>876.0</ele><time>2026-04-21T06:34:18Z</time></trkpt><trkpt lat="43.93279256347956" lon="6.531072841939208"><ele>876.0</ele><time>2026-04-21T06:34:19Z</time></trkpt><trkpt lat="43.93260212546591" lon="6.531115730848822"><ele>876.0</ele><time>2026-04-21T06:34:20Z</time></trkpt><trkpt lat="43.93240952968101" lon="6.531186067438896"><ele>876.0</ele><time>2026-04-21T06:34:21Z</time></trkpt><trkpt lat="43.932216288053084" lon="6.531261107356775"><ele>886.0</ele><time>2026-04-21T06:34:22Z</time></trkpt><trkpt lat="43.932021310615006" lon="6.53134504686227"><ele>896.0</ele><time>2026-04-21T06:34:23Z</time></trkpt><trkpt lat="43.93182232751265" lon="6.531417204232656"><ele>906.0</ele><time>2026-04-21T06:34:24Z</time></trkpt><trkpt lat="43.93161331038406" lon="6.531455792457225"><ele>906.0</ele><time>2026-04-21T06:34:25Z</time></trkpt><trkpt lat="43.931420140317584" lon="6.531485077616566"><ele>906.0</ele><time>2026-04-21T06:34:26Z</time></trkpt><trkpt lat="43.93123872923064" lon="6.531520425034791"><ele>906.0</ele><time>2026-04-21T06:34:27Z</time></trkpt><trkpt lat="43.9310592354193" lon="6.531599991881319"><ele>899.3333333333333</ele><time>2026-04-21T06:34:28Z</time></trkpt><trkpt lat="43.93087620361765" lon="6.531684943433306"><ele>892.6666666666666</ele><time>2026-04-21T06:34:29Z</time></trkpt><trkpt lat="43.9306959858068" lon="6.531785833493146"><ele>886.0</ele><time>2026-04-21T06:34:30Z</time></trkpt><trkpt lat="43.93051684270766" lon="6.531895607819749"><ele>886.0</ele><time>2026-04-21T06:34:31Z</time></trkpt><trkpt lat="43.930343340370015" lon="6.53197106548886"><ele>886.0</ele><time>2026-04-21T06:34:32Z</time></trkpt><trkpt lat="43.930165641961594" lon="6.532019359746859"><ele>886.0</ele><time>2026-04-21T06:34:33Z</time></trkpt><trkpt lat="43.92997970217361" lon="6.532053178181116"><ele>891.3333333333333</ele><time>2026-04-21T06:34:34Z</time></trkpt><trkpt lat="43.929791282075264" lon="6.532081120546538"><ele>896.6666666666667</ele><time>2026-04-21T06:34:35Z</time></trkpt><trkpt lat="43.929594474590765" lon="6.532110157688487"><ele>902.0</ele><time>2026-04-21T06:34:36Z</time></trkpt><trkpt lat="43.929397992299734" lon="6.53213695582071"><ele>900.0</ele><time>2026-04-21T06:34:37Z</time></trkpt><trkpt lat="43.92919673737176" lon="6.532163713908507"><ele>898.0</ele><time>2026-04-21T06:34:38Z</time></trkpt><trkpt lat="43.92899869765146" lon="6.532196581442541"><ele>896.0</ele><time>2026-04-21T06:34:39Z</time></trkpt><trkpt lat="43.928824017935334" lon="6.5322400453315685"><ele>896.0</ele><time>2026-04-21T06:34:40Z</time></trkpt><trkpt lat="43.92866868659992" lon="6.532326662474906"><ele>896.0</ele><time>2026-04-21T06:34:41Z</time></trkpt><trkpt lat="43.92850666518659" lon="6.5324248773645825"><ele>896.0</ele><time>2026-04-21T06:34:42Z</time></trkpt><trkpt lat="43.92834124518786" lon="6.5325550709559375"><ele>892.0</ele><time>2026-04-21T06:34:43Z</time></trkpt><trkpt lat="43.928171298698" lon="6.532696126002564"><ele>888.0</ele><time>2026-04-21T06:34:44Z</time></trkpt><trkpt lat="43.92798147591417" lon="6.532781623379417"><ele>884.0</ele><time>2026-04-21T06:34:45Z</time></trkpt><trkpt lat="43.92778093323517" lon="6.532843039784928"><ele>889.3333333333334</ele><time>2026-04-21T06:34:46Z</time></trkpt><trkpt lat="43.92757480536487" lon="6.532903695209392"><ele>894.6666666666667</ele><time>2026-04-21T06:34:47Z</time></trkpt><trkpt lat="43.92737203539944" lon="6.532985866072495"><ele>900.0</ele><time>2026-04-21T06:34:48Z</time></trkpt><trkpt lat="43.927160161230276" lon="6.533043264519393"><ele>900.0</ele><time>2026-04-21T06:34:49Z</time></trkpt><trkpt lat="43.92695060480067" lon="6.533113970667729"><ele>900.0</ele><time>2026-04-21T06:34:50Z</time></trkpt><trkpt lat="43.92675602110353" lon="6.533185960259678"><ele>900.0</ele><time>2026-04-21T06:34:51Z</time></trkpt><trkpt lat="43.92656280643543" lon="6.533263569244681"><ele>897.3333333333333</ele><time>2026-04-21T06:34:52Z</time></trkpt><trkpt lat="43.926375725383146" lon="6.533342661077937"><ele>894.6666666666666</ele><time>2026-04-21T06:34:53Z</time></trkpt><trkpt lat="43.926205823308734" lon="6.53337632975689"><ele>892.0</ele><time>2026-04-21T06:34:54Z</time></trkpt><trkpt lat="43.926054556866916" lon="6.533380261677921"><ele>891.3333333333333</ele><time>2026-04-21T06:34:55Z</time></trkpt><trkpt lat="43.92589457453078" lon="6.533341518453252"><ele>890.6666666666667</ele><time>2026-04-21T06:34:56Z</time></trkpt><trkpt lat="43.92573144024236" lon="6.533265315907439"><ele>890.0</ele><time>2026-04-21T06:34:57Z</time></trkpt><trkpt lat="43.925574319519896" lon="6.533197451199474"><ele>890.0</ele><time>2026-04-21T06:34:58Z</time></trkpt><trkpt lat="43.925413857486504" lon="6.533165684820131"><ele>890.0</ele><time>2026-04-21T06:34:59Z</time></trkpt><trkpt lat="43.925243826635445" lon="6.533148918138466"><ele>890.0</ele><time>2026-04-21T06:35:00Z</time></trkpt><trkpt lat="43.925064342262544" lon="6.5331607062410715"><ele>890.3333333333334</ele><time>2026-04-21T06:35:01Z</time></trkpt><trkpt lat="43.924883673623704" lon="6.533194487059108"><ele>890.6666666666667</ele><time>2026-04-21T06:35:02Z</time></trkpt><trkpt lat="43.924702533191876" lon="6.533251351716134"><ele>891.0</ele><time>2026-04-21T06:35:03Z</time></trkpt><trkpt lat="43.92452305073641" lon="6.533301315789355"><ele>891.0</ele><time>2026-04-21T06:35:04Z</time></trkpt><trkpt lat="43.924352071689576" lon="6.533323312348699"><ele>891.0</ele><time>2026-04-21T06:35:05Z</time></trkpt><trkpt lat="43.92417980685689" lon="6.533283370629666"><ele>891.0</ele><time>2026-04-21T06:35:06Z</time></trkpt><trkpt lat="43.924003440915925" lon="6.533242573402199"><ele>891.5</ele><time>2026-04-21T06:35:07Z</time></trkpt><trkpt lat="43.9238393256766" lon="6.533241135666354"><ele>892.0</ele><time>2026-04-21T06:35:08Z</time></trkpt><trkpt lat="43.92370542144298" lon="6.533242070198528"><ele>892.5</ele><time>2026-04-21T06:35:09Z</time></trkpt><trkpt lat="43.92358276564344" lon="6.533287519109984"><ele>893.0</ele><time>2026-04-21T06:35:10Z</time></trkpt><trkpt lat="43.92345566423795" lon="6.533370749376619"><ele>891.3333333333334</ele><time>2026-04-21T06:35:11Z</time></trkpt><trkpt lat="43.92333238933256" lon="6.533493084318157"><ele>889.6666666666667</ele><time>2026-04-21T06:35:12Z</time></trkpt><trkpt lat="43.92322404837325" lon="6.533650281512539"><ele>888.0</ele><time>2026-04-21T06:35:13Z</time></trkpt><trkpt lat="43.92310775717673" lon="6.533809565547012"><ele>894.3333333333333</ele><time>2026-04-21T06:35:14Z</time></trkpt><trkpt lat="43.922986981235965" lon="6.533973416717422"><ele>900.6666666666666</ele><time>2026-04-21T06:35:15Z</time></trkpt><trkpt lat="43.92285663347612" lon="6.534139867214487"><ele>907.0</ele><time>2026-04-21T06:35:16Z</time></trkpt><trkpt lat="43.922733711383195" lon="6.534289613727979"><ele>907.0</ele><time>2026-04-21T06:35:17Z</time></trkpt><trkpt lat="43.92260190647275" lon="6.534421338212808"><ele>907.0</ele><time>2026-04-21T06:35:18Z</time></trkpt><trkpt lat="43.922456174322505" lon="6.534543194947782"><ele>907.0</ele><time>2026-04-21T06:35:19Z</time></trkpt><trkpt lat="43.922301264745556" lon="6.534656908427615"><ele>909.0</ele><time>2026-04-21T06:35:20Z</time></trkpt><trkpt lat="43.92213774284127" lon="6.53474821140448"><ele>911.0</ele><time>2026-04-21T06:35:21Z</time></trkpt><trkpt lat="43.921972674969474" lon="6.5348218349192715"><ele>913.0</ele><time>2026-04-21T06:35:22Z</time></trkpt><trkpt lat="43.92179803198682" lon="6.534882577250628"><ele>910.6666666666666</ele><time>2026-04-21T06:35:23Z</time></trkpt><trkpt lat="43.921617212820614" lon="6.534928676599806"><ele>908.3333333333333</ele><time>2026-04-21T06:35:24Z</time></trkpt><trkpt lat="43.921429007237535" lon="6.534947642308641"><ele>906.0</ele><time>2026-04-21T06:35:25Z</time></trkpt><trkpt lat="43.92124057383136" lon="6.534986253694868"><ele>906.0</ele><time>2026-04-21T06:35:26Z</time></trkpt><trkpt lat="43.92105421698712" lon="6.535043632042248"><ele>906.0</ele><time>2026-04-21T06:35:27Z</time></trkpt><trkpt lat="43.92087528094115" lon="6.535119129342693"><ele>906.0</ele><time>2026-04-21T06:35:28Z</time></trkpt><trkpt lat="43.920706525151395" lon="6.535168450794559"><ele>905.5</ele><time>2026-04-21T06:35:29Z</time></trkpt><trkpt lat="43.920553620311296" lon="6.535212679309958"><ele>905.0</ele><time>2026-04-21T06:35:30Z</time></trkpt><trkpt lat="43.920410874911816" lon="6.535206611432057"><ele>904.5</ele><time>2026-04-21T06:35:31Z</time></trkpt><trkpt lat="43.920294739150464" lon="6.535219663819649"><ele>904.0</ele><time>2026-04-21T06:35:32Z</time></trkpt><trkpt lat="43.92020448896168" lon="6.53524625137602"><ele>904.0</ele><time>2026-04-21T06:35:33Z</time></trkpt><trkpt lat="43.9201228626397" lon="6.53532084228394"><ele>904.0000000000001</ele><time>2026-04-21T06:35:34Z</time></trkpt><trkpt lat="43.92005194849116" lon="6.535412902680873"><ele>904.0000000000001</ele><time>2026-04-21T06:35:35Z</time></trkpt><trkpt lat="43.91999824280538" lon="6.535544199834775"><ele>904.0</ele><time>2026-04-21T06:35:36Z</time></trkpt><trkpt lat="43.919945768109145" lon="6.535697768247961"><ele>904.0</ele><time>2026-04-21T06:35:37Z</time></trkpt><trkpt lat="43.919877795048244" lon="6.535843987737205"><ele>905.75</ele><time>2026-04-21T06:35:38Z</time></trkpt><trkpt lat="43.919772236765176" lon="6.535954531053848"><ele>907.5</ele><time>2026-04-21T06:35:39Z</time></trkpt><trkpt lat="43.91967766729594" lon="6.536064903969741"><ele>909.25</ele><time>2026-04-21T06:35:40Z</time></trkpt><trkpt lat="43.91955725007119" lon="6.536092230609945"><ele>911.0</ele><time>2026-04-21T06:35:41Z</time></trkpt><trkpt lat="43.91944107303537" lon="6.536098907990636"><ele>911.0</ele><time>2026-04-21T06:35:42Z</time></trkpt><trkpt lat="43.919318560235304" lon="6.536112894088748"><ele>911.0</ele><time>2026-04-21T06:35:43Z</time></trkpt><trkpt lat="43.91921258288344" lon="6.536170939584004"><ele>911.0</ele><time>2026-04-21T06:35:44Z</time></trkpt><trkpt lat="43.91911352810317" lon="6.536253941160113"><ele>911.0</ele><time>2026-04-21T06:35:45Z</time></trkpt><trkpt lat="43.919024647610065" lon="6.5363723062923516"><ele>911.0</ele><time>2026-04-21T06:35:46Z</time></trkpt><trkpt lat="43.9189498210229" lon="6.536526364674749"><ele>911.0</ele><time>2026-04-21T06:35:47Z</time></trkpt><trkpt lat="43.91889674678512" lon="6.536693232762695"><ele>911.0</ele><time>2026-04-21T06:35:48Z</time></trkpt><trkpt lat="43.91887288022729" lon="6.536871059704977"><ele>911.0</ele><time>2026-04-21T06:35:49Z</time></trkpt><trkpt lat="43.918878615503395" lon="6.537063166523949"><ele>911.0</ele><time>2026-04-21T06:35:50Z</time></trkpt><trkpt lat="43.918897665025156" lon="6.537272211581481"><ele>911.0</ele><time>2026-04-21T06:35:51Z</time></trkpt><trkpt lat="43.918915644461194" lon="6.537496323653411"><ele>911.0</ele><time>2026-04-21T06:35:52Z</time></trkpt><trkpt lat="43.918930457277995" lon="6.537724370187184"><ele>912.3333333333334</ele><time>2026-04-21T06:35:53Z</time></trkpt><trkpt lat="43.91895209122552" lon="6.537934441395299"><ele>913.6666666666667</ele><time>2026-04-21T06:35:54Z</time></trkpt><trkpt lat="43.91899116379791" lon="6.538151417194782"><ele>915.0</ele><time>2026-04-21T06:35:55Z</time></trkpt><trkpt lat="43.919044126756596" lon="6.5383672870602885"><ele>915.0</ele><time>2026-04-21T06:35:56Z</time></trkpt><trkpt lat="43.91910442046964" lon="6.538558899972811"><ele>915.0</ele><time>2026-04-21T06:35:57Z</time></trkpt><trkpt lat="43.919156520637195" lon="6.538728616493492"><ele>915.0</ele><time>2026-04-21T06:35:58Z</time></trkpt><trkpt lat="43.91917932532457" lon="6.53888516008391"><ele>915.0</ele><time>2026-04-21T06:35:59Z</time></trkpt><trkpt lat="43.919167921698715" lon="6.5390385349802775"><ele>915.25</ele><time>2026-04-21T06:36:00Z</time></trkpt><trkpt lat="43.91912177292033" lon="6.539192112588571"><ele>915.5</ele><time>2026-04-21T06:36:01Z</time></trkpt><trkpt lat="43.91904266476559" lon="6.53933375318265"><ele>915.75</ele><time>2026-04-21T06:36:02Z</time></trkpt><trkpt lat="43.91892142133218" lon="6.5394189241292775"><ele>916.0</ele><time>2026-04-21T06:36:03Z</time></trkpt><trkpt lat="43.918791837180656" lon="6.539510219531833"><ele>918.0</ele><time>2026-04-21T06:36:04Z</time></trkpt><trkpt lat="43.91864466155197" lon="6.539571652522021"><ele>920.0</ele><time>2026-04-21T06:36:05Z</time></trkpt><trkpt lat="43.918490826672205" lon="6.539635228141267"><ele>922.0</ele><time>2026-04-21T06:36:06Z</time></trkpt><trkpt lat="43.9183303624731" lon="6.539712979101889"><ele>922.0</ele><time>2026-04-21T06:36:07Z</time></trkpt><trkpt lat="43.9181602227583" lon="6.5397956780291455"><ele>922.0</ele><time>2026-04-21T06:36:08Z</time></trkpt><trkpt lat="43.91798708163198" lon="6.53987677962852"><ele>922.0</ele><time>2026-04-21T06:36:09Z</time></trkpt><trkpt lat="43.91781390999437" lon="6.5399623410456735"><ele>922.0</ele><time>2026-04-21T06:36:10Z</time></trkpt><trkpt lat="43.917637723515945" lon="6.540055856199245"><ele>922.0</ele><time>2026-04-21T06:36:11Z</time></trkpt><trkpt lat="43.917458641992496" lon="6.540157446001118"><ele>922.0</ele><time>2026-04-21T06:36:12Z</time></trkpt><trkpt lat="43.91727960492304" lon="6.540263760878677"><ele>921.6666666666666</ele><time>2026-04-21T06:36:13Z</time></trkpt><trkpt lat="43.917104428278556" lon="6.540377921583941"><ele>921.3333333333333</ele><time>2026-04-21T06:36:14Z</time></trkpt><trkpt lat="43.916933616183755" lon="6.540494549234567"><ele>921.0</ele><time>2026-04-21T06:36:15Z</time></trkpt><trkpt lat="43.91675871514801" lon="6.540615153598045"><ele>920.0</ele><time>2026-04-21T06:36:16Z</time></trkpt><trkpt lat="43.916588643589236" lon="6.540727800267575"><ele>919.0</ele><time>2026-04-21T06:36:17Z</time></trkpt><trkpt lat="43.91641650308729" lon="6.540839453746207"><ele>918.0</ele><time>2026-04-21T06:36:18Z</time></trkpt><trkpt lat="43.91624206062309" lon="6.540948316634549"><ele>918.0</ele><time>2026-04-21T06:36:19Z</time></trkpt><trkpt lat="43.91608262049643" lon="6.541053112860566"><ele>918.0</ele><time>2026-04-21T06:36:20Z</time></trkpt><trkpt lat="43.915940163140554" lon="6.541152106852419"><ele>918.0</ele><time>2026-04-21T06:36:21Z</time></trkpt><trkpt lat="43.91580418605618" lon="6.541268056523184"><ele>918.3333333333333</ele><time>2026-04-21T06:36:22Z</time></trkpt><trkpt lat="43.915670155909105" lon="6.541414464206973"><ele>918.6666666666666</ele><time>2026-04-21T06:36:23Z</time></trkpt><trkpt lat="43.91553986501109" lon="6.541585293146097"><ele>919.0</ele><time>2026-04-21T06:36:24Z</time></trkpt><trkpt lat="43.91542254864169" lon="6.541771043318707"><ele>919.0</ele><time>2026-04-21T06:36:25Z</time></trkpt><trkpt lat="43.91530918228272" lon="6.541966302915523"><ele>919.0</ele><time>2026-04-21T06:36:26.001Z</time></trkpt><trkpt lat="43.91520412384202" lon="6.542174417518957"><ele>919.0</ele><time>2026-04-21T06:36:27.001Z</time></trkpt><trkpt lat="43.91511119956903" lon="6.542400584437379"><ele>919.0</ele><time>2026-04-21T06:36:28.001Z</time></trkpt><trkpt lat="43.91503366175844" lon="6.54264162139286"><ele>919.0</ele><time>2026-04-21T06:36:29.001Z</time></trkpt><trkpt lat="43.914970976426204" lon="6.542882733505824"><ele>919.0</ele><time>2026-04-21T06:36:30.001Z</time></trkpt><trkpt lat="43.914922036683855" lon="6.543124177048891"><ele>919.0</ele><time>2026-04-21T06:36:31.001Z</time></trkpt><trkpt lat="43.91487142261542" lon="6.543358127618487"><ele>919.0</ele><time>2026-04-21T06:36:32.001Z</time></trkpt><trkpt lat="43.91479525939917" lon="6.543578959276186"><ele>919.0</ele><time>2026-04-21T06:36:33.001Z</time></trkpt><trkpt lat="43.91467124780245" lon="6.543751755288283"><ele>923.3333333333333</ele><time>2026-04-21T06:36:34.001Z</time></trkpt><trkpt lat="43.914564418448016" lon="6.543944895456144"><ele>927.6666666666667</ele><time>2026-04-21T06:36:35.001Z</time></trkpt><trkpt lat="43.91444036674735" lon="6.544125955520642"><ele>932.0</ele><time>2026-04-21T06:36:36.001Z</time></trkpt><trkpt lat="43.91431575042914" lon="6.544311890385659"><ele>931.3333333333334</ele><time>2026-04-21T06:36:37.001Z</time></trkpt><trkpt lat="43.91419538734772" lon="6.544499256560857"><ele>930.6666666666667</ele><time>2026-04-21T06:36:38.001Z</time></trkpt><trkpt lat="43.91409298565863" lon="6.544674181457148"><ele>930.0</ele><time>2026-04-21T06:36:39.001Z</time></trkpt><trkpt lat="43.9140057240389" lon="6.544841009026626"><ele>930.0</ele><time>2026-04-21T06:36:40.001Z</time></trkpt><trkpt lat="43.913934746380455" lon="6.545006704744664"><ele>930.0</ele><time>2026-04-21T06:36:41.001Z</time></trkpt><trkpt lat="43.91388751951177" lon="6.545186529067551"><ele>930.0</ele><time>2026-04-21T06:36:42.001Z</time></trkpt><trkpt lat="43.91385747102626" lon="6.545392133122467"><ele>930.0</ele><time>2026-04-21T06:36:43.001Z</time></trkpt><trkpt lat="43.91381929687032" lon="6.545606511699537"><ele>932.0</ele><time>2026-04-21T06:36:44.001Z</time></trkpt><trkpt lat="43.91377680801767" lon="6.545819312634488"><ele>934.0</ele><time>2026-04-21T06:36:45.001Z</time></trkpt><trkpt lat="43.913728802321806" lon="6.546039549222851"><ele>936.0</ele><time>2026-04-21T06:36:46.001Z</time></trkpt><trkpt lat="43.91367371026567" lon="6.546267118201957"><ele>939.6666666666667</ele><time>2026-04-21T06:36:47.001Z</time></trkpt><trkpt lat="43.91361747522603" lon="6.546501693086449"><ele>943.3333333333334</ele><time>2026-04-21T06:36:48.001Z</time></trkpt><trkpt lat="43.91356381537001" lon="6.546731172548889"><ele>947.0</ele><time>2026-04-21T06:36:49.001Z</time></trkpt><trkpt lat="43.913510437749814" lon="6.546951479172122"><ele>951.25</ele><time>2026-04-21T06:36:50.001Z</time></trkpt><trkpt lat="43.91347381493026" lon="6.547112735898528"><ele>955.5</ele><time>2026-04-21T06:36:51.001Z</time></trkpt><trkpt lat="43.9134567344466" lon="6.547257002063589"><ele>959.75</ele><time>2026-04-21T06:36:52.001Z</time></trkpt><trkpt lat="43.91347129123678" lon="6.547430699220843"><ele>964.0</ele><time>2026-04-21T06:36:53.001Z</time></trkpt><trkpt lat="43.91350076821097" lon="6.547608615860092"><ele>964.0</ele><time>2026-04-21T06:36:54.001Z</time></trkpt><trkpt lat="43.91351274591331" lon="6.547798392994705"><ele>964.0</ele><time>2026-04-21T06:36:55.001Z</time></trkpt><trkpt lat="43.91349829623125" lon="6.547991910233061"><ele>964.0</ele><time>2026-04-21T06:36:56.001Z</time></trkpt><trkpt lat="43.91345961560332" lon="6.5481890994413225"><ele>964.0</ele><time>2026-04-21T06:36:57.001Z</time></trkpt><trkpt lat="43.91341047856945" lon="6.5483932906126565"><ele>958.3333333333333</ele><time>2026-04-21T06:36:58.001Z</time></trkpt><trkpt lat="43.913356056793404" lon="6.548594232900674"><ele>952.6666666666667</ele><time>2026-04-21T06:36:59.001Z</time></trkpt><trkpt lat="43.91330654222905" lon="6.548791903673413"><ele>947.0</ele><time>2026-04-21T06:37:00.001Z</time></trkpt><trkpt lat="43.91328166656563" lon="6.549004665516696"><ele>947.0</ele><time>2026-04-21T06:37:01.001Z</time></trkpt><trkpt lat="43.91326999518711" lon="6.549226143798823"><ele>947.0</ele><time>2026-04-21T06:37:02.001Z</time></trkpt><trkpt lat="43.91326584541926" lon="6.549434902078885"><ele>947.0</ele><time>2026-04-21T06:37:03.001Z</time></trkpt><trkpt lat="43.91326857153275" lon="6.549598140370921"><ele>947.0</ele><time>2026-04-21T06:37:04.001Z</time></trkpt><trkpt lat="43.91328757583855" lon="6.549738193961296"><ele>945.75</ele><time>2026-04-21T06:37:05.001Z</time></trkpt><trkpt lat="43.913339042977576" lon="6.549874632570453"><ele>944.5</ele><time>2026-04-21T06:37:06.001Z</time></trkpt><trkpt lat="43.9134166123519" lon="6.5500030023147575"><ele>943.25</ele><time>2026-04-21T06:37:07.001Z</time></trkpt><trkpt lat="43.9135112753469" lon="6.550121251907572"><ele>942.0</ele><time>2026-04-21T06:37:08.001Z</time></trkpt><trkpt lat="43.913600329354566" lon="6.550254379826073"><ele>950.25</ele><time>2026-04-21T06:37:09.001Z</time></trkpt><trkpt lat="43.91367742601934" lon="6.550414798929204"><ele>958.5</ele><time>2026-04-21T06:37:10.001Z</time></trkpt><trkpt lat="43.913749922344806" lon="6.550578115244646"><ele>966.75</ele><time>2026-04-21T06:37:11.001Z</time></trkpt><trkpt lat="43.913815479848246" lon="6.550738101602246"><ele>975.0</ele><time>2026-04-21T06:37:12.001Z</time></trkpt><trkpt lat="43.9138651517216" lon="6.550915085615016"><ele>975.0</ele><time>2026-04-21T06:37:13.001Z</time></trkpt><trkpt lat="43.91390223986761" lon="6.551108635708756"><ele>975.0</ele><time>2026-04-21T06:37:14.001Z</time></trkpt><trkpt lat="43.913925459693175" lon="6.551318938671373"><ele>975.0</ele><time>2026-04-21T06:37:15.001Z</time></trkpt><trkpt lat="43.91393770268028" lon="6.551538482429578"><ele>973.3333333333333</ele><time>2026-04-21T06:37:16.001Z</time></trkpt><trkpt lat="43.913935761002385" lon="6.5517675418438435"><ele>971.6666666666666</ele><time>2026-04-21T06:37:17.001Z</time></trkpt><trkpt lat="43.91392786925606" lon="6.552008241288604"><ele>970.0</ele><time>2026-04-21T06:37:18.001Z</time></trkpt><trkpt lat="43.9139185333375" lon="6.552245650947466"><ele>970.0</ele><time>2026-04-21T06:37:19.001Z</time></trkpt><trkpt lat="43.91391404991617" lon="6.552481839214419"><ele>970.0</ele><time>2026-04-21T06:37:20.001Z</time></trkpt><trkpt lat="43.91391798343479" lon="6.552727238439969"><ele>970.0</ele><time>2026-04-21T06:37:21.001Z</time></trkpt><trkpt lat="43.91393308489608" lon="6.552978404397933"><ele>974.0</ele><time>2026-04-21T06:37:22.001Z</time></trkpt><trkpt lat="43.91395516673839" lon="6.553219632314214"><ele>978.0</ele><time>2026-04-21T06:37:23.001Z</time></trkpt><trkpt lat="43.91398013776063" lon="6.553457883705452"><ele>982.0</ele><time>2026-04-21T06:37:24.001Z</time></trkpt><trkpt lat="43.91401360188922" lon="6.553703236023905"><ele>983.0</ele><time>2026-04-21T06:37:25.001Z</time></trkpt><trkpt lat="43.914020435618255" lon="6.553943387724723"><ele>984.0</ele><time>2026-04-21T06:37:26.001Z</time></trkpt><trkpt lat="43.91403487437454" lon="6.554189741038609"><ele>985.0</ele><time>2026-04-21T06:37:27.001Z</time></trkpt><trkpt lat="43.91404600892397" lon="6.55443090781543"><ele>990.3333333333333</ele><time>2026-04-21T06:37:28.001Z</time></trkpt><trkpt lat="43.914053850725615" lon="6.554667788103222"><ele>995.6666666666667</ele><time>2026-04-21T06:37:29.001Z</time></trkpt><trkpt lat="43.91405813373895" lon="6.554909239568118"><ele>1001.0</ele><time>2026-04-21T06:37:30.001Z</time></trkpt><trkpt lat="43.914053695277" lon="6.555132788206689"><ele>1001.0</ele><time>2026-04-21T06:37:31.001Z</time></trkpt><trkpt lat="43.91403431870882" lon="6.555344099532825"><ele>1001.0</ele><time>2026-04-21T06:37:32.001Z</time></trkpt><trkpt lat="43.91399935903585" lon="6.55555128676321"><ele>1001.0</ele><time>2026-04-21T06:37:33.001Z</time></trkpt><trkpt lat="43.91395206073637" lon="6.555737161256321"><ele>1001.0</ele><time>2026-04-21T06:37:34.001Z</time></trkpt><trkpt lat="43.913901426113846" lon="6.555907212103897"><ele>1001.0</ele><time>2026-04-21T06:37:35.001Z</time></trkpt><trkpt lat="43.91385970930868" lon="6.55606729768463"><ele>1001.0</ele><time>2026-04-21T06:37:36.001Z</time></trkpt><trkpt lat="43.91382205234178" lon="6.556223596430366"><ele>1001.0</ele><time>2026-04-21T06:37:37.001Z</time></trkpt><trkpt lat="43.91379164635268" lon="6.556361638830232"><ele>1001.0</ele><time>2026-04-21T06:37:38.001Z</time></trkpt><trkpt lat="43.91375781737953" lon="6.556499482021995"><ele>998.75</ele><time>2026-04-21T06:37:39.001Z</time></trkpt><trkpt lat="43.913748862966585" lon="6.556650998551875"><ele>996.5</ele><time>2026-04-21T06:37:40.001Z</time></trkpt><trkpt lat="43.9137681937641" lon="6.5568045569348845"><ele>994.25</ele><time>2026-04-21T06:37:41.001Z</time></trkpt><trkpt lat="43.91378660832551" lon="6.55696026222903"><ele>992.0</ele><time>2026-04-21T06:37:42.001Z</time></trkpt><trkpt lat="43.91382713814783" lon="6.557109629940571"><ele>988.4000000000001</ele><time>2026-04-21T06:37:43.001Z</time></trkpt><trkpt lat="43.913881108573456" lon="6.557236436301516"><ele>984.8000000000001</ele><time>2026-04-21T06:37:44.001Z</time></trkpt><trkpt lat="43.91394310684002" lon="6.557339103900918"><ele>981.2</ele><time>2026-04-21T06:37:45.001Z</time></trkpt><trkpt lat="43.914019049550696" lon="6.557435265535841"><ele>977.6</ele><time>2026-04-21T06:37:46.001Z</time></trkpt><trkpt lat="43.91410657247561" lon="6.557517161418394"><ele>974.0</ele><time>2026-04-21T06:37:47.001Z</time></trkpt><trkpt lat="43.914195893301034" lon="6.557592366759451"><ele>978.2</ele><time>2026-04-21T06:37:48.001Z</time></trkpt><trkpt lat="43.914273699990765" lon="6.55765711373433"><ele>982.4000000000001</ele><time>2026-04-21T06:37:49.001Z</time></trkpt><trkpt lat="43.914360875359066" lon="6.557733138200153"><ele>986.6</ele><time>2026-04-21T06:37:50Z</time></trkpt><trkpt lat="43.91445396364789" lon="6.5578192066064975"><ele>990.8</ele><time>2026-04-21T06:37:51Z</time></trkpt><trkpt lat="43.91454219531995" lon="6.557921717355963"><ele>995.0</ele><time>2026-04-21T06:37:52Z</time></trkpt><trkpt lat="43.91461249162823" lon="6.5580422046401114"><ele>995.0</ele><time>2026-04-21T06:37:53Z</time></trkpt><trkpt lat="43.914667434713444" lon="6.558173942826743"><ele>995.0</ele><time>2026-04-21T06:37:54Z</time></trkpt><trkpt lat="43.91471014041943" lon="6.558315870217905"><ele>995.0</ele><time>2026-04-21T06:37:55Z</time></trkpt><trkpt lat="43.914742772696414" lon="6.558465048410004"><ele>995.0</ele><time>2026-04-21T06:37:56Z</time></trkpt><trkpt lat="43.914772451646996" lon="6.558621018277048"><ele>995.0</ele><time>2026-04-21T06:37:57Z</time></trkpt><trkpt lat="43.91479955429059" lon="6.558784351430405"><ele>996.75</ele><time>2026-04-21T06:37:58Z</time></trkpt><trkpt lat="43.91482548206281" lon="6.5589554119918345"><ele>998.5</ele><time>2026-04-21T06:37:59Z</time></trkpt><trkpt lat="43.91484571511566" lon="6.559123424684854"><ele>1000.25</ele><time>2026-04-21T06:38:00Z</time></trkpt><trkpt lat="43.91485543041641" lon="6.559268180524225"><ele>1002.0</ele><time>2026-04-21T06:38:01Z</time></trkpt><trkpt lat="43.91485560064712" lon="6.559405744828763"><ele>1003.25</ele><time>2026-04-21T06:38:02Z</time></trkpt><trkpt lat="43.914843689641636" lon="6.559554597352536"><ele>1004.5</ele><time>2026-04-21T06:38:03Z</time></trkpt><trkpt lat="43.914817989324504" lon="6.559712861087146"><ele>1005.75</ele><time>2026-04-21T06:38:04Z</time></trkpt><trkpt lat="43.91477852313418" lon="6.559874606441115"><ele>1007.0</ele><time>2026-04-21T06:38:05Z</time></trkpt><trkpt lat="43.91472675935865" lon="6.560039987597038"><ele>1007.0</ele><time>2026-04-21T06:38:06Z</time></trkpt><trkpt lat="43.91467095835282" lon="6.560203959977907"><ele>1007.0</ele><time>2026-04-21T06:38:07Z</time></trkpt><trkpt lat="43.914607987246875" lon="6.560379719043238"><ele>1007.0</ele><time>2026-04-21T06:38:08Z</time></trkpt><trkpt lat="43.91455245581176" lon="6.560545140950882"><ele>1007.0</ele><time>2026-04-21T06:38:09Z</time></trkpt><trkpt lat="43.91449064760645" lon="6.560690106741375"><ele>1008.0</ele><time>2026-04-21T06:38:10Z</time></trkpt><trkpt lat="43.91445432633785" lon="6.56085025167038"><ele>1009.0</ele><time>2026-04-21T06:38:11Z</time></trkpt><trkpt lat="43.91444022774555" lon="6.561016112124035"><ele>1010.0</ele><time>2026-04-21T06:38:12Z</time></trkpt><trkpt lat="43.914448549630976" lon="6.561175138158484"><ele>1011.0</ele><time>2026-04-21T06:38:13Z</time></trkpt><trkpt lat="43.91444696245544" lon="6.561310137377589"><ele>1011.0</ele><time>2026-04-21T06:38:14Z</time></trkpt><trkpt lat="43.91444637625225" lon="6.561439011514118"><ele>1010.9999999999999</ele><time>2026-04-21T06:38:15Z</time></trkpt><trkpt lat="43.914439685801" lon="6.561578393868339"><ele>1010.9999999999999</ele><time>2026-04-21T06:38:16Z</time></trkpt><trkpt lat="43.91447392092399" lon="6.561709518137264"><ele>1011.0</ele><time>2026-04-21T06:38:17Z</time></trkpt><trkpt lat="43.91450700360833" lon="6.561838040800811"><ele>1011.0</ele><time>2026-04-21T06:38:18Z</time></trkpt><trkpt lat="43.91456705645982" lon="6.5619699660732325"><ele>1008.0</ele><time>2026-04-21T06:38:19Z</time></trkpt><trkpt lat="43.91464568768041" lon="6.562102773241474"><ele>1005.0</ele><time>2026-04-21T06:38:20Z</time></trkpt><trkpt lat="43.91472621416525" lon="6.562245321919453"><ele>1002.0</ele><time>2026-04-21T06:38:21Z</time></trkpt><trkpt lat="43.91479625804778" lon="6.56240689365888"><ele>999.0</ele><time>2026-04-21T06:38:22Z</time></trkpt><trkpt lat="43.91484623003593" lon="6.5625852015365735"><ele>999.0</ele><time>2026-04-21T06:38:23Z</time></trkpt><trkpt lat="43.91487830099464" lon="6.562770391797343"><ele>999.0</ele><time>2026-04-21T06:38:24Z</time></trkpt><trkpt lat="43.91489393770447" lon="6.562957578730089"><ele>999.0</ele><time>2026-04-21T06:38:25Z</time></trkpt><trkpt lat="43.914906637033866" lon="6.5631455766444295"><ele>999.0</ele><time>2026-04-21T06:38:26Z</time></trkpt><trkpt lat="43.91492380029635" lon="6.563333451296366"><ele>997.75</ele><time>2026-04-21T06:38:27Z</time></trkpt><trkpt lat="43.91495143521456" lon="6.563520505773229"><ele>996.5</ele><time>2026-04-21T06:38:28Z</time></trkpt><trkpt lat="43.91498884280371" lon="6.563708909033647"><ele>995.25</ele><time>2026-04-21T06:38:29.001Z</time></trkpt><trkpt lat="43.915022214374744" lon="6.563902652604958"><ele>994.0</ele><time>2026-04-21T06:38:30.001Z</time></trkpt><trkpt lat="43.91504851617677" lon="6.564112315878045"><ele>994.6666666666666</ele><time>2026-04-21T06:38:31.001Z</time></trkpt><trkpt lat="43.91505899085113" lon="6.564323309148221"><ele>995.3333333333333</ele><time>2026-04-21T06:38:32.001Z</time></trkpt><trkpt lat="43.915055449301384" lon="6.564526248175571"><ele>996.0</ele><time>2026-04-21T06:38:33.001Z</time></trkpt><trkpt lat="43.915042774408406" lon="6.564739720906674"><ele>996.0</ele><time>2026-04-21T06:38:34.001Z</time></trkpt><trkpt lat="43.91500878080238" lon="6.56495118920415"><ele>996.0</ele><time>2026-04-21T06:38:35.001Z</time></trkpt><trkpt lat="43.91498964891942" lon="6.565167375602095"><ele>996.0</ele><time>2026-04-21T06:38:36.001Z</time></trkpt><trkpt lat="43.91498727207525" lon="6.565370175876125"><ele>997.75</ele><time>2026-04-21T06:38:37.001Z</time></trkpt><trkpt lat="43.9149692531662" lon="6.5655585838176105"><ele>999.5</ele><time>2026-04-21T06:38:38.001Z</time></trkpt><trkpt lat="43.91495233426503" lon="6.565747478215632"><ele>1001.25</ele><time>2026-04-21T06:38:39.001Z</time></trkpt><trkpt lat="43.91493719491812" lon="6.565949419418388"><ele>1003.0</ele><time>2026-04-21T06:38:40.001Z</time></trkpt><trkpt lat="43.91491709691843" lon="6.566155940144962"><ele>1003.0</ele><time>2026-04-21T06:38:41.001Z</time></trkpt><trkpt lat="43.91488908881746" lon="6.566363038782192"><ele>1003.0</ele><time>2026-04-21T06:38:42.001Z</time></trkpt><trkpt lat="43.91485084299044" lon="6.566562112603723"><ele>1003.0</ele><time>2026-04-21T06:38:43.001Z</time></trkpt><trkpt lat="43.914808049894695" lon="6.56677738600581"><ele>1003.0</ele><time>2026-04-21T06:38:44.001Z</time></trkpt><trkpt lat="43.91476790686217" lon="6.566977662217223"><ele>1003.0</ele><time>2026-04-21T06:38:45.001Z</time></trkpt><trkpt lat="43.91472700266764" lon="6.567158242490513"><ele>1003.0</ele><time>2026-04-21T06:38:46.001Z</time></trkpt><trkpt lat="43.914688696649684" lon="6.567327242323561"><ele>1003.0</ele><time>2026-04-21T06:38:47.001Z</time></trkpt><trkpt lat="43.9146523903318" lon="6.567490157464656"><ele>1005.0</ele><time>2026-04-21T06:38:48.001Z</time></trkpt><trkpt lat="43.914604889368015" lon="6.567651871812871"><ele>1007.0</ele><time>2026-04-21T06:38:49.001Z</time></trkpt><trkpt lat="43.914545393685756" lon="6.567804231017965"><ele>1009.0</ele><time>2026-04-21T06:38:50.001Z</time></trkpt><trkpt lat="43.91447451518134" lon="6.567951640902434"><ele>1011.0</ele><time>2026-04-21T06:38:51.001Z</time></trkpt><trkpt lat="43.91439403667153" lon="6.568084453780864"><ele>1012.25</ele><time>2026-04-21T06:38:52.001Z</time></trkpt><trkpt lat="43.914305374836616" lon="6.568222991915952"><ele>1013.5</ele><time>2026-04-21T06:38:53.001Z</time></trkpt><trkpt lat="43.914223742235066" lon="6.568376770702255"><ele>1014.75</ele><time>2026-04-21T06:38:54.001Z</time></trkpt><trkpt lat="43.91415991360346" lon="6.568539921791066"><ele>1016.0</ele><time>2026-04-21T06:38:55.001Z</time></trkpt><trkpt lat="43.91410841663745" lon="6.568715986194959"><ele>1012.5</ele><time>2026-04-21T06:38:56.001Z</time></trkpt><trkpt lat="43.91407056373126" lon="6.568892639316741"><ele>1009.0</ele><time>2026-04-21T06:38:57.001Z</time></trkpt><trkpt lat="43.91402391691736" lon="6.5690615692005725"><ele>1005.5</ele><time>2026-04-21T06:38:58.001Z</time></trkpt><trkpt lat="43.9140134305858" lon="6.569250084887598"><ele>1002.0</ele><time>2026-04-21T06:38:59.001Z</time></trkpt><trkpt lat="43.91397850543442" lon="6.569435911536122"><ele>1005.0</ele><time>2026-04-21T06:39:00.001Z</time></trkpt><trkpt lat="43.913926481956466" lon="6.5696181631413255"><ele>1008.0</ele><time>2026-04-21T06:39:01.001Z</time></trkpt><trkpt lat="43.91385413163097" lon="6.569783740545948"><ele>1011.0</ele><time>2026-04-21T06:39:02.001Z</time></trkpt><trkpt lat="43.91380737238428" lon="6.569955170843741"><ele>1014.0</ele><time>2026-04-21T06:39:03.001Z</time></trkpt><trkpt lat="43.91375158452323" lon="6.570094625987481"><ele>1014.0</ele><time>2026-04-21T06:39:04.001Z</time></trkpt><trkpt lat="43.91369200487548" lon="6.570213223819982"><ele>1014.0000000000001</ele><time>2026-04-21T06:39:05.001Z</time></trkpt><trkpt lat="43.91365316971678" lon="6.570343741402047"><ele>1014.0000000000001</ele><time>2026-04-21T06:39:06.001Z</time></trkpt><trkpt lat="43.913624807799955" lon="6.570477947374994"><ele>1014.0</ele><time>2026-04-21T06:39:07.001Z</time></trkpt><trkpt lat="43.91363726245124" lon="6.570621310669704"><ele>1014.0</ele><time>2026-04-21T06:39:08.001Z</time></trkpt><trkpt lat="43.91365093863939" lon="6.57076394848298"><ele>1016.0</ele><time>2026-04-21T06:39:09.001Z</time></trkpt><trkpt lat="43.913681332659046" lon="6.570913494360486"><ele>1018.0</ele><time>2026-04-21T06:39:10.001Z</time></trkpt><trkpt lat="43.913722944797335" lon="6.571056049284224"><ele>1020.0</ele><time>2026-04-21T06:39:11.001Z</time></trkpt><trkpt lat="43.91376878793024" lon="6.571212078549677"><ele>1022.0</ele><time>2026-04-21T06:39:12.001Z</time></trkpt><trkpt lat="43.91379935293527" lon="6.571385102169751"><ele>1022.5</ele><time>2026-04-21T06:39:13.001Z</time></trkpt><trkpt lat="43.91379715543832" lon="6.571578805502085"><ele>1023.0</ele><time>2026-04-21T06:39:14.001Z</time></trkpt><trkpt lat="43.913804281039205" lon="6.5717793299923795"><ele>1023.5</ele><time>2026-04-21T06:39:15.001Z</time></trkpt><trkpt lat="43.91381099639794" lon="6.571968310847172"><ele>1024.0</ele><time>2026-04-21T06:39:16.001Z</time></trkpt><trkpt lat="43.913817398389334" lon="6.572148472791267"><ele>1024.25</ele><time>2026-04-21T06:39:17.001Z</time></trkpt><trkpt lat="43.9138232710827" lon="6.572313739587991"><ele>1024.5</ele><time>2026-04-21T06:39:18.001Z</time></trkpt><trkpt lat="43.91382919766815" lon="6.572480523048989"><ele>1024.75</ele><time>2026-04-21T06:39:19.001Z</time></trkpt><trkpt lat="43.913849192693334" lon="6.572652264540097"><ele>1025.0</ele><time>2026-04-21T06:39:20.001Z</time></trkpt><trkpt lat="43.91385393343477" lon="6.5728282413617345"><ele>1026.75</ele><time>2026-04-21T06:39:21.001Z</time></trkpt><trkpt lat="43.913857235356744" lon="6.5730062119943335"><ele>1028.5</ele><time>2026-04-21T06:39:22.001Z</time></trkpt><trkpt lat="43.91386643566297" lon="6.57318474846541"><ele>1030.25</ele><time>2026-04-21T06:39:23.001Z</time></trkpt><trkpt lat="43.91387244732456" lon="6.573360966870236"><ele>1032.0</ele><time>2026-04-21T06:39:24.001Z</time></trkpt><trkpt lat="43.91387729721595" lon="6.573543251864297"><ele>1033.5</ele><time>2026-04-21T06:39:25.001Z</time></trkpt><trkpt lat="43.913863918345385" lon="6.57373212400529"><ele>1035.0</ele><time>2026-04-21T06:39:26.001Z</time></trkpt><trkpt lat="43.913878820186234" lon="6.573917877637515"><ele>1036.5</ele><time>2026-04-21T06:39:27.001Z</time></trkpt><trkpt lat="43.913867725042614" lon="6.574099512696671"><ele>1038.0</ele><time>2026-04-21T06:39:28.001Z</time></trkpt><trkpt lat="43.91386021986851" lon="6.57428136382801"><ele>1038.0</ele><time>2026-04-21T06:39:29.001Z</time></trkpt><trkpt lat="43.91385951177553" lon="6.574470644613365"><ele>1038.0</ele><time>2026-04-21T06:39:30.001Z</time></trkpt><trkpt lat="43.91385830511749" lon="6.574660082645173"><ele>1038.0</ele><time>2026-04-21T06:39:31.001Z</time></trkpt><trkpt lat="43.913852542824195" lon="6.574836075077165"><ele>1038.0</ele><time>2026-04-21T06:39:32.001Z</time></trkpt><trkpt lat="43.91384056387074" lon="6.5750196613604635"><ele>1039.5</ele><time>2026-04-21T06:39:33.001Z</time></trkpt><trkpt lat="43.91382317873109" lon="6.575191333333434"><ele>1041.0</ele><time>2026-04-21T06:39:34.001Z</time></trkpt><trkpt lat="43.91380330982832" lon="6.575345594968651"><ele>1042.5</ele><time>2026-04-21T06:39:35.001Z</time></trkpt><trkpt lat="43.91377970815108" lon="6.575498552407979"><ele>1044.0</ele><time>2026-04-21T06:39:36.001Z</time></trkpt><trkpt lat="43.91376534202708" lon="6.5756641645932685"><ele>1044.25</ele><time>2026-04-21T06:39:37.001Z</time></trkpt><trkpt lat="43.91374593965281" lon="6.5758367151771"><ele>1044.5</ele><time>2026-04-21T06:39:38.001Z</time></trkpt><trkpt lat="43.91375242957402" lon="6.576012854937239"><ele>1044.75</ele><time>2026-04-21T06:39:39.001Z</time></trkpt><trkpt lat="43.91377953507082" lon="6.576189171832519"><ele>1045.0</ele><time>2026-04-21T06:39:40.001Z</time></trkpt><trkpt lat="43.91378968724682" lon="6.576370679088808"><ele>1045.0</ele><time>2026-04-21T06:39:41.001Z</time></trkpt><trkpt lat="43.9138002507738" lon="6.576556656591461"><ele>1045.0</ele><time>2026-04-21T06:39:42.001Z</time></trkpt><trkpt lat="43.91380212608949" lon="6.576747497348271"><ele>1045.0</ele><time>2026-04-21T06:39:43.001Z</time></trkpt><trkpt lat="43.91380432868324" lon="6.5769381502780195"><ele>1045.0</ele><time>2026-04-21T06:39:44.001Z</time></trkpt><trkpt lat="43.91380602620052" lon="6.577123020154087"><ele>1045.0</ele><time>2026-04-21T06:39:45.001Z</time></trkpt><trkpt lat="43.91380454518621" lon="6.577301538335828"><ele>1045.0</ele><time>2026-04-21T06:39:46.001Z</time></trkpt><trkpt lat="43.9138071981268" lon="6.577470354694582"><ele>1045.0</ele><time>2026-04-21T06:39:47.001Z</time></trkpt><trkpt lat="43.913816804527926" lon="6.577626577511585"><ele>1045.0</ele><time>2026-04-21T06:39:48.001Z</time></trkpt><trkpt lat="43.913841232692" lon="6.577780717848727"><ele>1041.75</ele><time>2026-04-21T06:39:49.001Z</time></trkpt><trkpt lat="43.91386740515723" lon="6.577938179904296"><ele>1038.5</ele><time>2026-04-21T06:39:50.001Z</time></trkpt><trkpt lat="43.913923838001615" lon="6.5780852895825355"><ele>1035.25</ele><time>2026-04-21T06:39:51.001Z</time></trkpt><trkpt lat="43.91399437393569" lon="6.578215609912523"><ele>1032.0</ele><time>2026-04-21T06:39:52.001Z</time></trkpt><trkpt lat="43.914047227902856" lon="6.578359486133488"><ele>1032.0</ele><time>2026-04-21T06:39:53.001Z</time></trkpt><trkpt lat="43.914099025284514" lon="6.578505600282772"><ele>1032.0</ele><time>2026-04-21T06:39:54.001Z</time></trkpt><trkpt lat="43.91414318179105" lon="6.578641584846227"><ele>1032.0</ele><time>2026-04-21T06:39:55.001Z</time></trkpt><trkpt lat="43.91416621907759" lon="6.578775987686236"><ele>1032.0</ele><time>2026-04-21T06:39:56Z</time></trkpt><trkpt lat="43.91419493379083" lon="6.578879985924801"><ele>1032.0</ele><time>2026-04-21T06:39:57Z</time></trkpt><trkpt lat="43.914219844516055" lon="6.578973292556507"><ele>1039.6</ele><time>2026-04-21T06:39:58Z</time></trkpt><trkpt lat="43.91426002399759" lon="6.5791237901053075"><ele>1047.2</ele><time>2026-04-21T06:40:00Z</time></trkpt><trkpt lat="43.91429665777422" lon="6.579254650540134"><ele>1054.8</ele><time>2026-04-21T06:40:02Z</time></trkpt><trkpt lat="43.914325847096165" lon="6.579361894404097"><ele>1062.4</ele><time>2026-04-21T06:40:04Z</time></trkpt><trkpt lat="43.91435572203469" lon="6.579451178196648"><ele>1070.0</ele><time>2026-04-21T06:40:08Z</time></trkpt><trkpt lat="43.91436844770921" lon="6.5796434794704615"><ele>1070.0</ele><time>2026-04-21T06:40:11Z</time></trkpt><trkpt lat="43.91437556922191" lon="6.579763939942613"><ele>1070.0</ele><time>2026-04-21T06:40:12Z</time></trkpt><trkpt lat="43.914373951657375" lon="6.579910215158606"><ele>1070.0</ele><time>2026-04-21T06:40:13Z</time></trkpt><trkpt lat="43.91436839117824" lon="6.580088502349928"><ele>1070.0</ele><time>2026-04-21T06:40:14Z</time></trkpt><trkpt lat="43.91440278641816" lon="6.580290578146784"><ele>1070.6666666666667</ele><time>2026-04-21T06:40:15Z</time></trkpt><trkpt lat="43.914397425952835" lon="6.580493868112837"><ele>1071.3333333333333</ele><time>2026-04-21T06:40:16Z</time></trkpt><trkpt lat="43.91439050107877" lon="6.580716956868207"><ele>1072.0</ele><time>2026-04-21T06:40:17Z</time></trkpt><trkpt lat="43.914386756202795" lon="6.580952055254733"><ele>1069.6666666666665</ele><time>2026-04-21T06:40:18Z</time></trkpt><trkpt lat="43.91436201596291" lon="6.581194115190193"><ele>1067.3333333333333</ele><time>2026-04-21T06:40:19Z</time></trkpt><trkpt lat="43.91438133199141" lon="6.581445110453406"><ele>1065.0</ele><time>2026-04-21T06:40:20Z</time></trkpt><trkpt lat="43.91441704598288" lon="6.58168019635602"><ele>1065.0</ele><time>2026-04-21T06:40:21Z</time></trkpt><trkpt lat="43.914424229465425" lon="6.581910619229339"><ele>1065.0</ele><time>2026-04-21T06:40:22Z</time></trkpt><trkpt lat="43.91442443150752" lon="6.5821138835012185"><ele>1065.0</ele><time>2026-04-21T06:40:23Z</time></trkpt><trkpt lat="43.91440854958939" lon="6.5823125534714695"><ele>1061.0</ele><time>2026-04-21T06:40:24Z</time></trkpt><trkpt lat="43.914373214829986" lon="6.582520557289923"><ele>1057.0</ele><time>2026-04-21T06:40:25Z</time></trkpt><trkpt lat="43.914319119959416" lon="6.582733040585922"><ele>1053.0</ele><time>2026-04-21T06:40:26Z</time></trkpt><trkpt lat="43.914249207365295" lon="6.582945385973849"><ele>1044.0</ele><time>2026-04-21T06:40:27Z</time></trkpt><trkpt lat="43.91416547713999" lon="6.583156030261196"><ele>1035.0</ele><time>2026-04-21T06:40:28Z</time></trkpt><trkpt lat="43.91407043488692" lon="6.583366039187422"><ele>1026.0</ele><time>2026-04-21T06:40:29Z</time></trkpt><trkpt lat="43.91397735901535" lon="6.583580960333085"><ele>1032.3333333333333</ele><time>2026-04-21T06:40:30Z</time></trkpt><trkpt lat="43.9138944343507" lon="6.583801402394956"><ele>1038.6666666666665</ele><time>2026-04-21T06:40:31Z</time></trkpt><trkpt lat="43.913804984498675" lon="6.584007472122584"><ele>1045.0</ele><time>2026-04-21T06:40:32Z</time></trkpt><trkpt lat="43.91375186821918" lon="6.584243215778415"><ele>1045.0</ele><time>2026-04-21T06:40:33Z</time></trkpt><trkpt lat="43.91369329544656" lon="6.584463850818223"><ele>1045.0</ele><time>2026-04-21T06:40:34Z</time></trkpt><trkpt lat="43.91365466714197" lon="6.584657270800521"><ele>1045.0</ele><time>2026-04-21T06:40:35Z</time></trkpt><trkpt lat="43.913630461614126" lon="6.584844027892164"><ele>1045.6666666666665</ele><time>2026-04-21T06:40:36Z</time></trkpt><trkpt lat="43.91361679074203" lon="6.585042805550809"><ele>1046.3333333333333</ele><time>2026-04-21T06:40:37Z</time></trkpt><trkpt lat="43.913610713001624" lon="6.585258865037176"><ele>1047.0</ele><time>2026-04-21T06:40:38Z</time></trkpt><trkpt lat="43.913610919404015" lon="6.5854865050052"><ele>1044.0</ele><time>2026-04-21T06:40:39Z</time></trkpt><trkpt lat="43.91361129558622" lon="6.5857283014471095"><ele>1041.0</ele><time>2026-04-21T06:40:40Z</time></trkpt><trkpt lat="43.91361228579133" lon="6.585960459157124"><ele>1038.0</ele><time>2026-04-21T06:40:41Z</time></trkpt><trkpt lat="43.9136140938542" lon="6.586179542928104"><ele>1037.5</ele><time>2026-04-21T06:40:42Z</time></trkpt><trkpt lat="43.91361836169822" lon="6.586390950874499"><ele>1037.0</ele><time>2026-04-21T06:40:43Z</time></trkpt><trkpt lat="43.91362132253367" lon="6.586583250763267"><ele>1036.5</ele><time>2026-04-21T06:40:44Z</time></trkpt><trkpt lat="43.91363209157778" lon="6.586763826713111"><ele>1036.0</ele><time>2026-04-21T06:40:45Z</time></trkpt><trkpt lat="43.91366083368191" lon="6.586949328383164"><ele>1036.25</ele><time>2026-04-21T06:40:46Z</time></trkpt><trkpt lat="43.91371617743015" lon="6.587136152495773"><ele>1036.5</ele><time>2026-04-21T06:40:47Z</time></trkpt><trkpt lat="43.913782898606755" lon="6.58730931850298"><ele>1036.75</ele><time>2026-04-21T06:40:48Z</time></trkpt><trkpt lat="43.913833489212585" lon="6.587464065312754"><ele>1037.0</ele><time>2026-04-21T06:40:49Z</time></trkpt><trkpt lat="43.913858876147266" lon="6.587624860435457"><ele>1037.0</ele><time>2026-04-21T06:40:50Z</time></trkpt><trkpt lat="43.91385738790975" lon="6.587787354985291"><ele>1037.0</ele><time>2026-04-21T06:40:51Z</time></trkpt><trkpt lat="43.91382723194306" lon="6.587944117881036"><ele>1037.0</ele><time>2026-04-21T06:40:52Z</time></trkpt><trkpt lat="43.91377032815116" lon="6.588102867219445"><ele>1037.0</ele><time>2026-04-21T06:40:53Z</time></trkpt><trkpt lat="43.9137140409354" lon="6.588254072112953"><ele>1036.5</ele><time>2026-04-21T06:40:54Z</time></trkpt><trkpt lat="43.91364238688015" lon="6.588396011453361"><ele>1036.0</ele><time>2026-04-21T06:40:55Z</time></trkpt><trkpt lat="43.91356543197423" lon="6.588563120725102"><ele>1035.5</ele><time>2026-04-21T06:40:56Z</time></trkpt><trkpt lat="43.91348070265236" lon="6.58873797180219"><ele>1035.0</ele><time>2026-04-21T06:40:57Z</time></trkpt><trkpt lat="43.91339069529807" lon="6.588923272682608"><ele>1035.0</ele><time>2026-04-21T06:40:58Z</time></trkpt><trkpt lat="43.91330087246625" lon="6.589118629974044"><ele>1035.0</ele><time>2026-04-21T06:40:59Z</time></trkpt><trkpt lat="43.91322419946087" lon="6.589329906271116"><ele>1035.0</ele><time>2026-04-21T06:41:00Z</time></trkpt><trkpt lat="43.91315830631545" lon="6.589554947134812"><ele>1037.3333333333333</ele><time>2026-04-21T06:41:01Z</time></trkpt><trkpt lat="43.91310446798248" lon="6.5897835903884845"><ele>1039.6666666666665</ele><time>2026-04-21T06:41:02Z</time></trkpt><trkpt lat="43.91305742903711" lon="6.590019095490746"><ele>1042.0</ele><time>2026-04-21T06:41:03Z</time></trkpt><trkpt lat="43.91300504619688" lon="6.590245773932161"><ele>1044.0</ele><time>2026-04-21T06:41:04Z</time></trkpt><trkpt lat="43.912943141019454" lon="6.59046209987293"><ele>1046.0</ele><time>2026-04-21T06:41:05.001Z</time></trkpt><trkpt lat="43.912867766809505" lon="6.590668752619816"><ele>1048.0</ele><time>2026-04-21T06:41:06.001Z</time></trkpt><trkpt lat="43.91279444968298" lon="6.590851035385445"><ele>1048.0</ele><time>2026-04-21T06:41:07.001Z</time></trkpt><trkpt lat="43.912738005326666" lon="6.591038428243911"><ele>1048.0</ele><time>2026-04-21T06:41:08.001Z</time></trkpt><trkpt lat="43.91270683956722" lon="6.5912169283517725"><ele>1048.0</ele><time>2026-04-21T06:41:09.001Z</time></trkpt><trkpt lat="43.91270787368341" lon="6.591395617016397"><ele>1048.0</ele><time>2026-04-21T06:41:10.001Z</time></trkpt><trkpt lat="43.91273400828426" lon="6.591589342163268"><ele>1049.25</ele><time>2026-04-21T06:41:11.001Z</time></trkpt><trkpt lat="43.91277390603777" lon="6.591784213074561"><ele>1050.5</ele><time>2026-04-21T06:41:12.001Z</time></trkpt><trkpt lat="43.91280047920965" lon="6.591972924222589"><ele>1051.75</ele><time>2026-04-21T06:41:13.001Z</time></trkpt><trkpt lat="43.91280338755801" lon="6.592168928357566"><ele>1053.0</ele><time>2026-04-21T06:41:14.001Z</time></trkpt><trkpt lat="43.912789950145566" lon="6.592374673737892"><ele>1056.6666666666667</ele><time>2026-04-21T06:41:15.001Z</time></trkpt><trkpt lat="43.91274695515805" lon="6.59258264564541"><ele>1060.3333333333335</ele><time>2026-04-21T06:41:16.001Z</time></trkpt><trkpt lat="43.912681576433904" lon="6.59278881267599"><ele>1064.0</ele><time>2026-04-21T06:41:17.001Z</time></trkpt><trkpt lat="43.91261170599284" lon="6.592999905848593"><ele>1060.3333333333335</ele><time>2026-04-21T06:41:18.001Z</time></trkpt><trkpt lat="43.91253644417222" lon="6.5932094248990865"><ele>1056.6666666666667</ele><time>2026-04-21T06:41:19.001Z</time></trkpt><trkpt lat="43.91248910401232" lon="6.593418975477378"><ele>1053.0</ele><time>2026-04-21T06:41:20.001Z</time></trkpt><trkpt lat="43.912468453841974" lon="6.593645550516004"><ele>1053.6666666666667</ele><time>2026-04-21T06:41:21.001Z</time></trkpt><trkpt lat="43.912475583669384" lon="6.593886251844615"><ele>1054.3333333333335</ele><time>2026-04-21T06:41:22.001Z</time></trkpt><trkpt lat="43.912468385362985" lon="6.594132832646979"><ele>1055.0</ele><time>2026-04-21T06:41:23.001Z</time></trkpt><trkpt lat="43.912463944854366" lon="6.594375929750427"><ele>1055.6666666666667</ele><time>2026-04-21T06:41:24.001Z</time></trkpt><trkpt lat="43.91246024979201" lon="6.594619316198033"><ele>1056.3333333333333</ele><time>2026-04-21T06:41:25.001Z</time></trkpt><trkpt lat="43.91245157521165" lon="6.594872303092983"><ele>1057.0</ele><time>2026-04-21T06:41:26.001Z</time></trkpt><trkpt lat="43.91244453019649" lon="6.595125260745487"><ele>1057.3333333333333</ele><time>2026-04-21T06:41:27.001Z</time></trkpt><trkpt lat="43.912440338840625" lon="6.595354320451201"><ele>1057.6666666666667</ele><time>2026-04-21T06:41:28.001Z</time></trkpt><trkpt lat="43.912436792981744" lon="6.595578744470041"><ele>1058.0</ele><time>2026-04-21T06:41:29.001Z</time></trkpt><trkpt lat="43.91243440413056" lon="6.595801289780701"><ele>1058.0</ele><time>2026-04-21T06:41:30.001Z</time></trkpt><trkpt lat="43.91243594999309" lon="6.596012567433834"><ele>1058.0</ele><time>2026-04-21T06:41:31.001Z</time></trkpt><trkpt lat="43.91244880298262" lon="6.596209174039404"><ele>1058.0</ele><time>2026-04-21T06:41:32.001Z</time></trkpt><trkpt lat="43.91248279892404" lon="6.596394100654963"><ele>1058.0</ele><time>2026-04-21T06:41:33.001Z</time></trkpt><trkpt lat="43.912539956188816" lon="6.59658292965129"><ele>1062.3333333333335</ele><time>2026-04-21T06:41:34.001Z</time></trkpt><trkpt lat="43.91259338397696" lon="6.596781816797271"><ele>1066.6666666666667</ele><time>2026-04-21T06:41:35.001Z</time></trkpt><trkpt lat="43.912698954805826" lon="6.596938572388154"><ele>1071.0</ele><time>2026-04-21T06:41:36.001Z</time></trkpt><trkpt lat="43.91278888867668" lon="6.597105830068501"><ele>1071.0</ele><time>2026-04-21T06:41:37.001Z</time></trkpt><trkpt lat="43.91285681469669" lon="6.597270056386436"><ele>1071.0</ele><time>2026-04-21T06:41:38.001Z</time></trkpt><trkpt lat="43.91290231256009" lon="6.597462202609901"><ele>1071.0</ele><time>2026-04-21T06:41:39.001Z</time></trkpt><trkpt lat="43.91291825805504" lon="6.597676391827585"><ele>1071.0</ele><time>2026-04-21T06:41:40.001Z</time></trkpt><trkpt lat="43.91291998977249" lon="6.597898163884208"><ele>1071.6666666666667</ele><time>2026-04-21T06:41:41.001Z</time></trkpt><trkpt lat="43.91294256504539" lon="6.598124145136086"><ele>1072.3333333333335</ele><time>2026-04-21T06:41:42.001Z</time></trkpt><trkpt lat="43.91298711832251" lon="6.598352698765019"><ele>1073.0</ele><time>2026-04-21T06:41:43.001Z</time></trkpt><trkpt lat="43.91303155997124" lon="6.5985816817466905"><ele>1073.25</ele><time>2026-04-21T06:41:44.001Z</time></trkpt><trkpt lat="43.913060396701376" lon="6.598786791468948"><ele>1073.5</ele><time>2026-04-21T06:41:45.001Z</time></trkpt><trkpt lat="43.91307216709813" lon="6.5989847796344945"><ele>1073.75</ele><time>2026-04-21T06:41:46.001Z</time></trkpt><trkpt lat="43.91305541619368" lon="6.5991917907074535"><ele>1074.0</ele><time>2026-04-21T06:41:47.001Z</time></trkpt><trkpt lat="43.913006075666196" lon="6.599406486256348"><ele>1075.0</ele><time>2026-04-21T06:41:48.001Z</time></trkpt><trkpt lat="43.912935233858626" lon="6.59961592676584"><ele>1076.0</ele><time>2026-04-21T06:41:49.001Z</time></trkpt><trkpt lat="43.91285173872916" lon="6.599825410429266"><ele>1077.0</ele><time>2026-04-21T06:41:50.001Z</time></trkpt><trkpt lat="43.91276868637194" lon="6.600043014258107"><ele>1077.0</ele><time>2026-04-21T06:41:51.001Z</time></trkpt><trkpt lat="43.91268880764811" lon="6.600268138420528"><ele>1077.0</ele><time>2026-04-21T06:41:52.001Z</time></trkpt><trkpt lat="43.91261288723544" lon="6.600503491979348"><ele>1077.0</ele><time>2026-04-21T06:41:53.001Z</time></trkpt><trkpt lat="43.91254132932207" lon="6.600746640638714"><ele>1075.3333333333333</ele><time>2026-04-21T06:41:54.001Z</time></trkpt><trkpt lat="43.91247602443597" lon="6.600988854065731"><ele>1073.6666666666665</ele><time>2026-04-21T06:41:55.001Z</time></trkpt><trkpt lat="43.91241774692297" lon="6.6012422638284205"><ele>1072.0</ele><time>2026-04-21T06:41:56.001Z</time></trkpt><trkpt lat="43.912368906038125" lon="6.601477443754562"><ele>1072.0</ele><time>2026-04-21T06:41:57.001Z</time></trkpt><trkpt lat="43.91232985326189" lon="6.601702117306493"><ele>1072.0</ele><time>2026-04-21T06:41:58.001Z</time></trkpt><trkpt lat="43.91229544892872" lon="6.601926870320048"><ele>1072.0</ele><time>2026-04-21T06:41:59.001Z</time></trkpt><trkpt lat="43.912260837776984" lon="6.602163063210642"><ele>1072.6666666666665</ele><time>2026-04-21T06:42:00.001Z</time></trkpt><trkpt lat="43.912276697925755" lon="6.602411264797924"><ele>1073.3333333333333</ele><time>2026-04-21T06:42:01.001Z</time></trkpt><trkpt lat="43.9122871055456" lon="6.602664021829315"><ele>1074.0</ele><time>2026-04-21T06:42:02Z</time></trkpt><trkpt lat="43.91230733394392" lon="6.602921665284766"><ele>1074.0</ele><time>2026-04-21T06:42:03Z</time></trkpt><trkpt lat="43.91232727691333" lon="6.6031830055723315"><ele>1074.0</ele><time>2026-04-21T06:42:04Z</time></trkpt><trkpt lat="43.9123395006945" lon="6.603447324865339"><ele>1074.0</ele><time>2026-04-21T06:42:05Z</time></trkpt><trkpt lat="43.91234779083476" lon="6.603716538538131"><ele>1074.3333333333333</ele><time>2026-04-21T06:42:06Z</time></trkpt><trkpt lat="43.91235768444825" lon="6.603988518228187"><ele>1074.6666666666665</ele><time>2026-04-21T06:42:07Z</time></trkpt><trkpt lat="43.91237291137736" lon="6.604263105389007"><ele>1075.0</ele><time>2026-04-21T06:42:08Z</time></trkpt><trkpt lat="43.912388884087036" lon="6.604529641576023"><ele>1075.3333333333333</ele><time>2026-04-21T06:42:09Z</time></trkpt><trkpt lat="43.912404959930626" lon="6.604761172152654"><ele>1075.6666666666667</ele><time>2026-04-21T06:42:10Z</time></trkpt><trkpt lat="43.912420368473114" lon="6.604967686500008"><ele>1076.0</ele><time>2026-04-21T06:42:11Z</time></trkpt><trkpt lat="43.91244460104037" lon="6.605150278697807"><ele>1076.0</ele><time>2026-04-21T06:42:12Z</time></trkpt><trkpt lat="43.91249666098371" lon="6.605324809474936"><ele>1076.0</ele><time>2026-04-21T06:42:13Z</time></trkpt><trkpt lat="43.91258034280695" lon="6.605501317939421"><ele>1076.0</ele><time>2026-04-21T06:42:14Z</time></trkpt><trkpt lat="43.912681492975466" lon="6.605670382441212"><ele>1076.0</ele><time>2026-04-21T06:42:15Z</time></trkpt><trkpt lat="43.91279109536502" lon="6.605835130341752"><ele>1075.3333333333335</ele><time>2026-04-21T06:42:16Z</time></trkpt><trkpt lat="43.91290624869724" lon="6.605995373185035"><ele>1074.6666666666667</ele><time>2026-04-21T06:42:17Z</time></trkpt><trkpt lat="43.91303882703647" lon="6.6061413091802015"><ele>1074.0</ele><time>2026-04-21T06:42:18Z</time></trkpt><trkpt lat="43.91318689803834" lon="6.606271511311727"><ele>1074.0</ele><time>2026-04-21T06:42:19Z</time></trkpt><trkpt lat="43.91333250316498" lon="6.606390506450938"><ele>1074.0</ele><time>2026-04-21T06:42:20Z</time></trkpt><trkpt lat="43.91347835840688" lon="6.606505919058868"><ele>1074.0</ele><time>2026-04-21T06:42:21Z</time></trkpt><trkpt lat="43.91362333618526" lon="6.606619540710907"><ele>1075.6666666666667</ele><time>2026-04-21T06:42:22Z</time></trkpt><trkpt lat="43.91377272526678" lon="6.606715261688781"><ele>1077.3333333333335</ele><time>2026-04-21T06:42:23Z</time></trkpt><trkpt lat="43.91393937291483" lon="6.606784040287175"><ele>1079.0</ele><time>2026-04-21T06:42:24Z</time></trkpt><trkpt lat="43.91410777398915" lon="6.606847245810921"><ele>1080.6666666666667</ele><time>2026-04-21T06:42:25Z</time></trkpt><trkpt lat="43.91428999211593" lon="6.606837058507523"><ele>1082.3333333333333</ele><time>2026-04-21T06:42:26Z</time></trkpt><trkpt lat="43.914477618098225" lon="6.606834997759372"><ele>1084.0</ele><time>2026-04-21T06:42:27Z</time></trkpt><trkpt lat="43.91466379062004" lon="6.606822064057641"><ele>1084.0</ele><time>2026-04-21T06:42:28Z</time></trkpt><trkpt lat="43.91484839521622" lon="6.6067979796062035"><ele>1084.0</ele><time>2026-04-21T06:42:29Z</time></trkpt><trkpt lat="43.9150199680845" lon="6.606776086444599"><ele>1084.0</ele><time>2026-04-21T06:42:30Z</time></trkpt><trkpt lat="43.91517494360432" lon="6.606767545494354"><ele>1085.5</ele><time>2026-04-21T06:42:31Z</time></trkpt><trkpt lat="43.91531267504146" lon="6.606780119443003"><ele>1087.0</ele><time>2026-04-21T06:42:32Z</time></trkpt><trkpt lat="43.91544393008575" lon="6.6068354080187"><ele>1088.5</ele><time>2026-04-21T06:42:33Z</time></trkpt><trkpt lat="43.915564214597" lon="6.606936024009927"><ele>1090.0</ele><time>2026-04-21T06:42:34Z</time></trkpt><trkpt lat="43.915671342801375" lon="6.607070233341998"><ele>1090.0</ele><time>2026-04-21T06:42:35Z</time></trkpt><trkpt lat="43.91576224666302" lon="6.607236425329697"><ele>1090.0</ele><time>2026-04-21T06:42:36Z</time></trkpt><trkpt lat="43.91584190754471" lon="6.607424945300375"><ele>1090.0</ele><time>2026-04-21T06:42:37Z</time></trkpt><trkpt lat="43.9159250086188" lon="6.60761743571173"><ele>1093.0</ele><time>2026-04-21T06:42:38Z</time></trkpt><trkpt lat="43.91601663364411" lon="6.607814408365587"><ele>1096.0</ele><time>2026-04-21T06:42:39Z</time></trkpt><trkpt lat="43.91611281394543" lon="6.608018219678205"><ele>1099.0</ele><time>2026-04-21T06:42:40Z</time></trkpt><trkpt lat="43.91621203098211" lon="6.608228332740509"><ele>1099.0</ele><time>2026-04-21T06:42:41Z</time></trkpt><trkpt lat="43.91631547340563" lon="6.608436775903747"><ele>1099.0</ele><time>2026-04-21T06:42:42Z</time></trkpt><trkpt lat="43.91641657178425" lon="6.608632590167898"><ele>1099.0</ele><time>2026-04-21T06:42:43Z</time></trkpt><trkpt lat="43.91652495079959" lon="6.608812825629708"><ele>1098.3333333333333</ele><time>2026-04-21T06:42:44Z</time></trkpt><trkpt lat="43.91665590511986" lon="6.608977543038372"><ele>1097.6666666666667</ele><time>2026-04-21T06:42:45Z</time></trkpt><trkpt lat="43.916803518730234" lon="6.6091239325692035"><ele>1097.0</ele><time>2026-04-21T06:42:46Z</time></trkpt><trkpt lat="43.91695956961574" lon="6.609253040408796"><ele>1099.5</ele><time>2026-04-21T06:42:47Z</time></trkpt><trkpt lat="43.91710746771784" lon="6.609355624473258"><ele>1102.0</ele><time>2026-04-21T06:42:48Z</time></trkpt><trkpt lat="43.91723890256033" lon="6.609449975198593"><ele>1104.5</ele><time>2026-04-21T06:42:49Z</time></trkpt><trkpt lat="43.91734503217043" lon="6.609563985808154"><ele>1107.0</ele><time>2026-04-21T06:42:50Z</time></trkpt><trkpt lat="43.91741767084069" lon="6.609703036527712"><ele>1107.0</ele><time>2026-04-21T06:42:51Z</time></trkpt><trkpt lat="43.917476398614966" lon="6.60987789498004"><ele>1107.0</ele><time>2026-04-21T06:42:52Z</time></trkpt><trkpt lat="43.91751776628046" lon="6.6100716331038685"><ele>1107.0</ele><time>2026-04-21T06:42:53Z</time></trkpt><trkpt lat="43.91756154352729" lon="6.610261126537951"><ele>1107.0</ele><time>2026-04-21T06:42:54Z</time></trkpt><trkpt lat="43.91760345940937" lon="6.610461802012209"><ele>1111.5</ele><time>2026-04-21T06:42:55Z</time></trkpt><trkpt lat="43.917652166524235" lon="6.610655122968426"><ele>1116.0</ele><time>2026-04-21T06:42:56Z</time></trkpt><trkpt lat="43.91770102777219" lon="6.610826596433439"><ele>1120.5</ele><time>2026-04-21T06:42:57Z</time></trkpt><trkpt lat="43.91776336604963" lon="6.610993223437054"><ele>1125.0</ele><time>2026-04-21T06:42:58Z</time></trkpt><trkpt lat="43.91785236793625" lon="6.611154043506017"><ele>1123.0</ele><time>2026-04-21T06:42:59Z</time></trkpt><trkpt lat="43.9179528519366" lon="6.611305628133751"><ele>1121.0</ele><time>2026-04-21T06:43:00Z</time></trkpt><trkpt lat="43.918053180687096" lon="6.611467474285291"><ele>1119.0</ele><time>2026-04-21T06:43:01Z</time></trkpt><trkpt lat="43.91814819258125" lon="6.611638705535605"><ele>1119.0</ele><time>2026-04-21T06:43:02Z</time></trkpt><trkpt lat="43.91824069837371" lon="6.611811410081583"><ele>1119.0</ele><time>2026-04-21T06:43:03Z</time></trkpt><trkpt lat="43.91833742188749" lon="6.61198049915077"><ele>1119.0</ele><time>2026-04-21T06:43:04Z</time></trkpt><trkpt lat="43.91844369272698" lon="6.612150133502993"><ele>1120.6666666666667</ele><time>2026-04-21T06:43:05Z</time></trkpt><trkpt lat="43.91855076322416" lon="6.612325692635784"><ele>1122.3333333333335</ele><time>2026-04-21T06:43:06Z</time></trkpt><trkpt lat="43.91864747643446" lon="6.612518611814658"><ele>1124.0</ele><time>2026-04-21T06:43:07Z</time></trkpt><trkpt lat="43.91873799552466" lon="6.612719399803016"><ele>1124.0</ele><time>2026-04-21T06:43:08Z</time></trkpt><trkpt lat="43.91882765574973" lon="6.612919056444262"><ele>1124.0</ele><time>2026-04-21T06:43:09Z</time></trkpt><trkpt lat="43.918921125772556" lon="6.613107907033806"><ele>1124.0</ele><time>2026-04-21T06:43:10Z</time></trkpt><trkpt lat="43.919018471517084" lon="6.613281638453107"><ele>1124.0</ele><time>2026-04-21T06:43:11Z</time></trkpt><trkpt lat="43.91912301065423" lon="6.613453664763319"><ele>1124.0</ele><time>2026-04-21T06:43:12Z</time></trkpt><trkpt lat="43.91922315721283" lon="6.613609432196779"><ele>1124.0</ele><time>2026-04-21T06:43:13Z</time></trkpt><trkpt lat="43.9193159614068" lon="6.613746651568492"><ele>1124.0</ele><time>2026-04-21T06:43:14Z</time></trkpt><trkpt lat="43.919401895099945" lon="6.613858191728542"><ele>1122.5</ele><time>2026-04-21T06:43:15Z</time></trkpt><trkpt lat="43.919483366475234" lon="6.613938766300789"><ele>1121.0</ele><time>2026-04-21T06:43:16Z</time></trkpt><trkpt lat="43.91957943417259" lon="6.613996795321052"><ele>1119.5</ele><time>2026-04-21T06:43:17Z</time></trkpt><trkpt lat="43.91969952662906" lon="6.614026853054287"><ele>1118.0</ele><time>2026-04-21T06:43:18Z</time></trkpt><trkpt lat="43.919844503990255" lon="6.614036544806325"><ele>1118.0</ele><time>2026-04-21T06:43:19Z</time></trkpt><trkpt lat="43.92000400900836" lon="6.6140492039220184"><ele>1118.0</ele><time>2026-04-21T06:43:20Z</time></trkpt><trkpt lat="43.920166111902944" lon="6.6140631952510995"><ele>1118.0</ele><time>2026-04-21T06:43:21Z</time></trkpt><trkpt lat="43.92033245776427" lon="6.614069642746987"><ele>1116.0</ele><time>2026-04-21T06:43:22Z</time></trkpt><trkpt lat="43.92048446551172" lon="6.61406723301626"><ele>1114.0</ele><time>2026-04-21T06:43:23Z</time></trkpt><trkpt lat="43.920626997773965" lon="6.614045359494801"><ele>1112.0</ele><time>2026-04-21T06:43:24Z</time></trkpt><trkpt lat="43.92078507041432" lon="6.61398844030453"><ele>1111.0</ele><time>2026-04-21T06:43:25Z</time></trkpt><trkpt lat="43.92094733778897" lon="6.613911491523233"><ele>1110.0</ele><time>2026-04-21T06:43:26Z</time></trkpt><trkpt lat="43.92109928356649" lon="6.613829627785021"><ele>1109.0</ele><time>2026-04-21T06:43:27Z</time></trkpt><trkpt lat="43.9212314881597" lon="6.613768999083009"><ele>1109.0</ele><time>2026-04-21T06:43:28Z</time></trkpt><trkpt lat="43.92134862572554" lon="6.613740625012623"><ele>1109.0</ele><time>2026-04-21T06:43:29Z</time></trkpt><trkpt lat="43.92146203564439" lon="6.61374485444999"><ele>1109.0</ele><time>2026-04-21T06:43:30Z</time></trkpt><trkpt lat="43.92157482893953" lon="6.613772813286041"><ele>1109.0</ele><time>2026-04-21T06:43:31Z</time></trkpt><trkpt lat="43.921689380943846" lon="6.61382650691285"><ele>1110.25</ele><time>2026-04-21T06:43:32Z</time></trkpt><trkpt lat="43.921795097988856" lon="6.613922140230457"><ele>1111.5</ele><time>2026-04-21T06:43:33Z</time></trkpt><trkpt lat="43.92188086841636" lon="6.6140393663967245"><ele>1112.75</ele><time>2026-04-21T06:43:34.001Z</time></trkpt><trkpt lat="43.9219607779397" lon="6.614129033183724"><ele>1114.0</ele><time>2026-04-21T06:43:35.001Z</time></trkpt><trkpt lat="43.922075413711" lon="6.6142032939077255"><ele>1114.0</ele><time>2026-04-21T06:43:36.001Z</time></trkpt><trkpt lat="43.92220630223697" lon="6.614267906172937"><ele>1114.0</ele><time>2026-04-21T06:43:37.001Z</time></trkpt><trkpt lat="43.922343955370735" lon="6.6143255177580125"><ele>1114.0</ele><time>2026-04-21T06:43:38.001Z</time></trkpt><trkpt lat="43.92248511355664" lon="6.614375583223702"><ele>1114.0</ele><time>2026-04-21T06:43:39.001Z</time></trkpt><trkpt lat="43.92262124546846" lon="6.614411665824249"><ele>1115.8</ele><time>2026-04-21T06:43:40.001Z</time></trkpt><trkpt lat="43.92275324833812" lon="6.61443001288624"><ele>1117.6000000000001</ele><time>2026-04-21T06:43:41.001Z</time></trkpt><trkpt lat="43.92286650645127" lon="6.614438653274091"><ele>1119.4</ele><time>2026-04-21T06:43:42.001Z</time></trkpt><trkpt lat="43.9229728152785" lon="6.61444830759753"><ele>1121.2</ele><time>2026-04-21T06:43:43.001Z</time></trkpt><trkpt lat="43.92306132051167" lon="6.614474974510204"><ele>1123.0</ele><time>2026-04-21T06:43:44.001Z</time></trkpt><trkpt lat="43.92313712426381" lon="6.614537403442427"><ele>1118.0</ele><time>2026-04-21T06:43:45.001Z</time></trkpt><trkpt lat="43.92319132243241" lon="6.614648581269252"><ele>1113.0</ele><time>2026-04-21T06:43:46.001Z</time></trkpt><trkpt lat="43.92322943304564" lon="6.614802764336651"><ele>1108.0</ele><time>2026-04-21T06:43:47.001Z</time></trkpt><trkpt lat="43.923259288606275" lon="6.61498210390832"><ele>1103.0</ele><time>2026-04-21T06:43:48.001Z</time></trkpt><trkpt lat="43.92327861282267" lon="6.615175080459806"><ele>1100.25</ele><time>2026-04-21T06:43:49.001Z</time></trkpt><trkpt lat="43.92328468880211" lon="6.6153589340182855"><ele>1097.5</ele><time>2026-04-21T06:43:50.001Z</time></trkpt><trkpt lat="43.923294949270336" lon="6.615518201625386"><ele>1094.75</ele><time>2026-04-21T06:43:51.001Z</time></trkpt><trkpt lat="43.923320305632146" lon="6.615652362362182"><ele>1092.0</ele><time>2026-04-21T06:43:52.001Z</time></trkpt><trkpt lat="43.923366302464956" lon="6.615782035234077"><ele>1090.75</ele><time>2026-04-21T06:43:53.001Z</time></trkpt><trkpt lat="43.92343913648084" lon="6.615899320155254"><ele>1089.5</ele><time>2026-04-21T06:43:54.001Z</time></trkpt><trkpt lat="43.92354246495646" lon="6.616007526480665"><ele>1088.25</ele><time>2026-04-21T06:43:55.001Z</time></trkpt><trkpt lat="43.92366690074816" lon="6.616112704981516"><ele>1087.0</ele><time>2026-04-21T06:43:56.001Z</time></trkpt><trkpt lat="43.92379851336679" lon="6.616225049390517"><ele>1087.0</ele><time>2026-04-21T06:43:57.001Z</time></trkpt><trkpt lat="43.92394534280384" lon="6.616348456807274"><ele>1087.0</ele><time>2026-04-21T06:43:58.001Z</time></trkpt><trkpt lat="43.924097384032784" lon="6.616471279889394"><ele>1087.0</ele><time>2026-04-21T06:43:59.001Z</time></trkpt><trkpt lat="43.924264317433924" lon="6.616604519299997"><ele>1089.3333333333333</ele><time>2026-04-21T06:44:00.001Z</time></trkpt><trkpt lat="43.92443227939743" lon="6.616740566769587"><ele>1091.6666666666667</ele><time>2026-04-21T06:44:01.001Z</time></trkpt><trkpt lat="43.924595648452595" lon="6.616858913805984"><ele>1094.0</ele><time>2026-04-21T06:44:02.001Z</time></trkpt><trkpt lat="43.92476481428291" lon="6.616981733869638"><ele>1089.6666666666667</ele><time>2026-04-21T06:44:03.001Z</time></trkpt><trkpt lat="43.92495817225576" lon="6.617044559308116"><ele>1085.3333333333333</ele><time>2026-04-21T06:44:04.001Z</time></trkpt><trkpt lat="43.92514921901826" lon="6.617126947726593"><ele>1081.0</ele><time>2026-04-21T06:44:05.001Z</time></trkpt><trkpt lat="43.92534501881254" lon="6.617212879943104"><ele>1081.0</ele><time>2026-04-21T06:44:06.001Z</time></trkpt><trkpt lat="43.925548908357044" lon="6.617301206455829"><ele>1081.0</ele><time>2026-04-21T06:44:07Z</time></trkpt><trkpt lat="43.92574958828731" lon="6.617387012437137"><ele>1081.0</ele><time>2026-04-21T06:44:08Z</time></trkpt><trkpt lat="43.9259331569162" lon="6.617464988236336"><ele>1083.0</ele><time>2026-04-21T06:44:09Z</time></trkpt><trkpt lat="43.92610494608149" lon="6.617552079053284"><ele>1085.0</ele><time>2026-04-21T06:44:10Z</time></trkpt><trkpt lat="43.92626912179352" lon="6.617654197654307"><ele>1087.0</ele><time>2026-04-21T06:44:11Z</time></trkpt><trkpt lat="43.92641862674651" lon="6.617765254696722"><ele>1087.3333333333333</ele><time>2026-04-21T06:44:12Z</time></trkpt><trkpt lat="43.92655209327461" lon="6.617880595613418"><ele>1087.6666666666667</ele><time>2026-04-21T06:44:13Z</time></trkpt><trkpt lat="43.92666858780517" lon="6.618023068211899"><ele>1088.0</ele><time>2026-04-21T06:44:14Z</time></trkpt><trkpt lat="43.926767481318024" lon="6.618197636713602"><ele>1088.0</ele><time>2026-04-21T06:44:15Z</time></trkpt><trkpt lat="43.92686102356144" lon="6.6183996141455435"><ele>1088.0</ele><time>2026-04-21T06:44:16Z</time></trkpt><trkpt lat="43.92694790050697" lon="6.618617730481644"><ele>1088.0</ele><time>2026-04-21T06:44:17Z</time></trkpt><trkpt lat="43.927039262053526" lon="6.618845850429759"><ele>1085.0</ele><time>2026-04-21T06:44:18Z</time></trkpt><trkpt lat="43.92713867302147" lon="6.619076894388342"><ele>1082.0</ele><time>2026-04-21T06:44:19Z</time></trkpt><trkpt lat="43.927241508819165" lon="6.619301525111485"><ele>1079.0</ele><time>2026-04-21T06:44:20Z</time></trkpt><trkpt lat="43.927347399716076" lon="6.619528976949409"><ele>1079.6666666666667</ele><time>2026-04-21T06:44:21Z</time></trkpt><trkpt lat="43.927455790914784" lon="6.619760526088145"><ele>1080.3333333333333</ele><time>2026-04-21T06:44:22Z</time></trkpt><trkpt lat="43.927567062721764" lon="6.619996063223151"><ele>1081.0</ele><time>2026-04-21T06:44:23Z</time></trkpt><trkpt lat="43.927677378871856" lon="6.620236093845596"><ele>1077.3333333333333</ele><time>2026-04-21T06:44:24Z</time></trkpt><trkpt lat="43.92778850082822" lon="6.620476540968309"><ele>1073.6666666666667</ele><time>2026-04-21T06:44:25Z</time></trkpt><trkpt lat="43.92790149630883" lon="6.620716352156542"><ele>1070.0</ele><time>2026-04-21T06:44:26Z</time></trkpt><trkpt lat="43.92801579581059" lon="6.6209457361455195"><ele>1066.0</ele><time>2026-04-21T06:44:27Z</time></trkpt><trkpt lat="43.92813384662271" lon="6.621178649740151"><ele>1062.0</ele><time>2026-04-21T06:44:28Z</time></trkpt><trkpt lat="43.928251576041056" lon="6.62141594946782"><ele>1058.0</ele><time>2026-04-21T06:44:29Z</time></trkpt><trkpt lat="43.92836190932979" lon="6.621648041323099"><ele>1060.0</ele><time>2026-04-21T06:44:30Z</time></trkpt><trkpt lat="43.92846957438858" lon="6.621876723043438"><ele>1062.0</ele><time>2026-04-21T06:44:31Z</time></trkpt><trkpt lat="43.92857598407053" lon="6.622112585126771"><ele>1064.0</ele><time>2026-04-21T06:44:32Z</time></trkpt><trkpt lat="43.92868254714712" lon="6.622342234124732"><ele>1064.0</ele><time>2026-04-21T06:44:33Z</time></trkpt><trkpt lat="43.92879154051418" lon="6.622561997710011"><ele>1064.0</ele><time>2026-04-21T06:44:34Z</time></trkpt><trkpt lat="43.92891102667595" lon="6.622783137096465"><ele>1064.0</ele><time>2026-04-21T06:44:35Z</time></trkpt><trkpt lat="43.929038465808155" lon="6.622999748864804"><ele>1060.3333333333335</ele><time>2026-04-21T06:44:36Z</time></trkpt><trkpt lat="43.92917835565585" lon="6.623211085739611"><ele>1056.6666666666667</ele><time>2026-04-21T06:44:37Z</time></trkpt><trkpt lat="43.92932400938168" lon="6.6234049639474035"><ele>1053.0</ele><time>2026-04-21T06:44:38Z</time></trkpt><trkpt lat="43.929469353015755" lon="6.623589411640252"><ele>1049.3333333333333</ele><time>2026-04-21T06:44:39Z</time></trkpt><trkpt lat="43.929622783815624" lon="6.623780059343602"><ele>1045.6666666666665</ele><time>2026-04-21T06:44:40Z</time></trkpt><trkpt lat="43.92978538633943" lon="6.623969848471181"><ele>1042.0</ele><time>2026-04-21T06:44:41Z</time></trkpt><trkpt lat="43.929943848823555" lon="6.624151379611971"><ele>1044.0</ele><time>2026-04-21T06:44:42Z</time></trkpt><trkpt lat="43.930083084428304" lon="6.624314003423512"><ele>1046.0</ele><time>2026-04-21T06:44:43Z</time></trkpt><trkpt lat="43.93021794611344" lon="6.624460309829416"><ele>1048.0</ele><time>2026-04-21T06:44:44Z</time></trkpt><trkpt lat="43.93036332117737" lon="6.624588425485741"><ele>1044.0</ele><time>2026-04-21T06:44:45Z</time></trkpt><trkpt lat="43.9305238364345" lon="6.624699200876185"><ele>1040.0</ele><time>2026-04-21T06:44:46Z</time></trkpt><trkpt lat="43.93069518321521" lon="6.624800871748283"><ele>1036.0</ele><time>2026-04-21T06:44:47Z</time></trkpt><trkpt lat="43.93086066845402" lon="6.624890709103153"><ele>1037.6666666666665</ele><time>2026-04-21T06:44:48Z</time></trkpt><trkpt lat="43.93101506471556" lon="6.624971754401133"><ele>1039.3333333333333</ele><time>2026-04-21T06:44:49Z</time></trkpt><trkpt lat="43.931159467402594" lon="6.625059809579661"><ele>1041.0</ele><time>2026-04-21T06:44:50Z</time></trkpt><trkpt lat="43.93128758237671" lon="6.625160618371212"><ele>1041.0</ele><time>2026-04-21T06:44:51Z</time></trkpt><trkpt lat="43.93140245703176" lon="6.625267940643941"><ele>1041.0</ele><time>2026-04-21T06:44:52Z</time></trkpt><trkpt lat="43.931504026523335" lon="6.625379242916191"><ele>1041.0</ele><time>2026-04-21T06:44:53Z</time></trkpt><trkpt lat="43.93159091133821" lon="6.625513911700854"><ele>1041.0</ele><time>2026-04-21T06:44:54Z</time></trkpt><trkpt lat="43.931671370747544" lon="6.625687789009298"><ele>1042.5</ele><time>2026-04-21T06:44:55Z</time></trkpt><trkpt lat="43.931735508106065" lon="6.625881084580424"><ele>1044.0</ele><time>2026-04-21T06:44:56Z</time></trkpt><trkpt lat="43.93177720329236" lon="6.6260681628194"><ele>1045.5</ele><time>2026-04-21T06:44:57Z</time></trkpt><trkpt lat="43.93180677997641" lon="6.626247960306761"><ele>1047.0</ele><time>2026-04-21T06:44:58Z</time></trkpt><trkpt lat="43.93185260182585" lon="6.6264343136449"><ele>1047.0</ele><time>2026-04-21T06:44:59Z</time></trkpt><trkpt lat="43.93189333177795" lon="6.626654689477273"><ele>1047.0</ele><time>2026-04-21T06:45:00Z</time></trkpt><trkpt lat="43.931971173727746" lon="6.626880761313372"><ele>1047.0</ele><time>2026-04-21T06:45:01Z</time></trkpt><trkpt lat="43.93206066920444" lon="6.627118770500594"><ele>1043.6666666666667</ele><time>2026-04-21T06:45:02Z</time></trkpt><trkpt lat="43.93217629162705" lon="6.627359508112139"><ele>1040.3333333333335</ele><time>2026-04-21T06:45:03Z</time></trkpt><trkpt lat="43.93225545919429" lon="6.62763325946786"><ele>1037.0</ele><time>2026-04-21T06:45:04Z</time></trkpt><trkpt lat="43.932331338497725" lon="6.6279093572411485"><ele>1037.0</ele><time>2026-04-21T06:45:05Z</time></trkpt><trkpt lat="43.93242111279525" lon="6.628191004951859"><ele>1037.0</ele><time>2026-04-21T06:45:06Z</time></trkpt><trkpt lat="43.93251651371697" lon="6.628472483139463"><ele>1037.0</ele><time>2026-04-21T06:45:07Z</time></trkpt><trkpt lat="43.932608966562015" lon="6.628719722422173"><ele>1037.0</ele><time>2026-04-21T06:45:08Z</time></trkpt><trkpt lat="43.93269844589209" lon="6.628950082830839"><ele>1037.0</ele><time>2026-04-21T06:45:09Z</time></trkpt><trkpt lat="43.93277713043302" lon="6.629149284664298"><ele>1037.0</ele><time>2026-04-21T06:45:10Z</time></trkpt><trkpt lat="43.93283815984413" lon="6.629346201285142"><ele>1034.3333333333335</ele><time>2026-04-21T06:45:11Z</time></trkpt><trkpt lat="43.932877803488765" lon="6.629579312340162"><ele>1031.6666666666667</ele><time>2026-04-21T06:45:12Z</time></trkpt><trkpt lat="43.93289895255183" lon="6.629833610336559"><ele>1029.0</ele><time>2026-04-21T06:45:13Z</time></trkpt><trkpt lat="43.9329250140098" lon="6.630098872862557"><ele>1025.0</ele><time>2026-04-21T06:45:14Z</time></trkpt><trkpt lat="43.93296223352846" lon="6.630367343057803"><ele>1021.0</ele><time>2026-04-21T06:45:15Z</time></trkpt><trkpt lat="43.93301344710111" lon="6.630640121321278"><ele>1017.0</ele><time>2026-04-21T06:45:16Z</time></trkpt><trkpt lat="43.93306652636933" lon="6.63091671798808"><ele>1013.6666666666667</ele><time>2026-04-21T06:45:17Z</time></trkpt><trkpt lat="43.93311648910181" lon="6.631196237777087"><ele>1010.3333333333334</ele><time>2026-04-21T06:45:18Z</time></trkpt><trkpt lat="43.93316535282539" lon="6.631479929935169"><ele>1007.0</ele><time>2026-04-21T06:45:19Z</time></trkpt><trkpt lat="43.93321695590165" lon="6.6317570594889315"><ele>1003.6666666666667</ele><time>2026-04-21T06:45:20Z</time></trkpt><trkpt lat="43.93326899632388" lon="6.6320412679204095"><ele>1000.3333333333333</ele><time>2026-04-21T06:45:21Z</time></trkpt><trkpt lat="43.933318142981136" lon="6.63230346166774"><ele>997.0</ele><time>2026-04-21T06:45:22Z</time></trkpt><trkpt lat="43.93336168725118" lon="6.632549627257775"><ele>1005.0</ele><time>2026-04-21T06:45:23Z</time></trkpt><trkpt lat="43.93340356970176" lon="6.632774640684552"><ele>1013.0</ele><time>2026-04-21T06:45:24Z</time></trkpt><trkpt lat="43.9334607922523" lon="6.632992999649624"><ele>1021.0</ele><time>2026-04-21T06:45:25Z</time></trkpt><trkpt lat="43.933531670964776" lon="6.633201052454589"><ele>1021.0</ele><time>2026-04-21T06:45:26Z</time></trkpt><trkpt lat="43.933600734808905" lon="6.633388763023634"><ele>1021.0</ele><time>2026-04-21T06:45:27Z</time></trkpt><trkpt lat="43.93365936458612" lon="6.633567935705571"><ele>1021.0</ele><time>2026-04-21T06:45:28Z</time></trkpt><trkpt lat="43.93370216485613" lon="6.63375360582837"><ele>1021.0</ele><time>2026-04-21T06:45:29Z</time></trkpt><trkpt lat="43.93371261707383" lon="6.633940922702693"><ele>1017.8</ele><time>2026-04-21T06:45:30Z</time></trkpt><trkpt lat="43.93370241188679" lon="6.634112623312362"><ele>1014.5999999999999</ele><time>2026-04-21T06:45:31Z</time></trkpt><trkpt lat="43.933703048263816" lon="6.634256149288768"><ele>1011.4</ele><time>2026-04-21T06:45:32Z</time></trkpt><trkpt lat="43.93372318915766" lon="6.63439083713674"><ele>1008.2</ele><time>2026-04-21T06:45:33Z</time></trkpt><trkpt lat="43.93377181538234" lon="6.634493574864195"><ele>1005.0</ele><time>2026-04-21T06:45:34Z</time></trkpt><trkpt lat="43.93386002594757" lon="6.6345752594593925"><ele>1001.75</ele><time>2026-04-21T06:45:35Z</time></trkpt><trkpt lat="43.93398743621517" lon="6.634640910241194"><ele>998.5</ele><time>2026-04-21T06:45:36Z</time></trkpt><trkpt lat="43.93412560881292" lon="6.634726151434364"><ele>995.25</ele><time>2026-04-21T06:45:37Z</time></trkpt><trkpt lat="43.93424354055434" lon="6.634826930354251"><ele>992.0</ele><time>2026-04-21T06:45:38Z</time></trkpt><trkpt lat="43.93434819636564" lon="6.634950531749647"><ele>992.0</ele><time>2026-04-21T06:45:39Z</time></trkpt><trkpt lat="43.93445478321321" lon="6.635056418316814"><ele>992.0</ele><time>2026-04-21T06:45:40Z</time></trkpt><trkpt lat="43.93454688438413" lon="6.635176859145188"><ele>992.0</ele><time>2026-04-21T06:45:41Z</time></trkpt><trkpt lat="43.93463589258764" lon="6.635266299473153"><ele>992.0</ele><time>2026-04-21T06:45:42Z</time></trkpt><trkpt lat="43.93473354265823" lon="6.635323955823027"><ele>991.75</ele><time>2026-04-21T06:45:43Z</time></trkpt><trkpt lat="43.9348486002741" lon="6.635351371368501"><ele>991.5</ele><time>2026-04-21T06:45:44Z</time></trkpt><trkpt lat="43.93497843731028" lon="6.635340861148895"><ele>991.25</ele><time>2026-04-21T06:45:45Z</time></trkpt><trkpt lat="43.93511676396857" lon="6.635303895032212"><ele>991.0</ele><time>2026-04-21T06:45:46Z</time></trkpt><trkpt lat="43.935249791525926" lon="6.635292810441539"><ele>985.5</ele><time>2026-04-21T06:45:47Z</time></trkpt><trkpt lat="43.935374231659296" lon="6.63531766653223"><ele>980.0</ele><time>2026-04-21T06:45:48Z</time></trkpt><trkpt lat="43.93550190465808" lon="6.635370623714372"><ele>974.5</ele><time>2026-04-21T06:45:49Z</time></trkpt><trkpt lat="43.93562071327536" lon="6.635420204448182"><ele>969.0</ele><time>2026-04-21T06:45:50Z</time></trkpt><trkpt lat="43.93575184414176" lon="6.635457641599685"><ele>969.0</ele><time>2026-04-21T06:45:51Z</time></trkpt><trkpt lat="43.93586453093079" lon="6.635472168120614"><ele>969.0</ele><time>2026-04-21T06:45:52Z</time></trkpt><trkpt lat="43.935973420764476" lon="6.635454766356168"><ele>969.0</ele><time>2026-04-21T06:45:53Z</time></trkpt><trkpt lat="43.93609190726915" lon="6.63540898069281"><ele>969.0</ele><time>2026-04-21T06:45:54Z</time></trkpt><trkpt lat="43.936210371462344" lon="6.635354470491247"><ele>970.2</ele><time>2026-04-21T06:45:55Z</time></trkpt><trkpt lat="43.936314479720075" lon="6.635312216739945"><ele>971.4000000000001</ele><time>2026-04-21T06:45:56Z</time></trkpt><trkpt lat="43.93639857462751" lon="6.635305333224151"><ele>972.6</ele><time>2026-04-21T06:45:57Z</time></trkpt><trkpt lat="43.936486426151234" lon="6.6353333982191325"><ele>973.8</ele><time>2026-04-21T06:45:58Z</time></trkpt><trkpt lat="43.93657757639939" lon="6.6354055319782095"><ele>975.0</ele><time>2026-04-21T06:45:59Z</time></trkpt><trkpt lat="43.936637635971586" lon="6.635512560375183"><ele>975.0</ele><time>2026-04-21T06:46:00Z</time></trkpt><trkpt lat="43.936685892916586" lon="6.635629742898681"><ele>975.0</ele><time>2026-04-21T06:46:01Z</time></trkpt><trkpt lat="43.9367113335937" lon="6.635762061908448"><ele>975.0</ele><time>2026-04-21T06:46:02Z</time></trkpt><trkpt lat="43.93669995638524" lon="6.635877948396164"><ele>975.0</ele><time>2026-04-21T06:46:03Z</time></trkpt><trkpt lat="43.93664887944884" lon="6.635984064556292"><ele>975.0</ele><time>2026-04-21T06:46:04Z</time></trkpt><trkpt lat="43.936572430712644" lon="6.636103337230806"><ele>979.75</ele><time>2026-04-21T06:46:05Z</time></trkpt><trkpt lat="43.9364664996486" lon="6.636220521181583"><ele>984.5</ele><time>2026-04-21T06:46:06Z</time></trkpt><trkpt lat="43.936346985172335" lon="6.636339924770691"><ele>989.25</ele><time>2026-04-21T06:46:07Z</time></trkpt><trkpt lat="43.93622480495455" lon="6.636456067971632"><ele>994.0</ele><time>2026-04-21T06:46:08Z</time></trkpt><trkpt lat="43.936096125601104" lon="6.636586943297483"><ele>994.0</ele><time>2026-04-21T06:46:09Z</time></trkpt><trkpt lat="43.93594705546464" lon="6.636720701724702"><ele>994.0</ele><time>2026-04-21T06:46:10Z</time></trkpt><trkpt lat="43.93579043819503" lon="6.636854472193265"><ele>994.0</ele><time>2026-04-21T06:46:11Z</time></trkpt><trkpt lat="43.93562034662233" lon="6.636994497881626"><ele>996.6666666666666</ele><time>2026-04-21T06:46:12Z</time></trkpt><trkpt lat="43.93545974891348" lon="6.637125282634047"><ele>999.3333333333333</ele><time>2026-04-21T06:46:13Z</time></trkpt><trkpt lat="43.93529781570731" lon="6.637244203193878"><ele>1002.0</ele><time>2026-04-21T06:46:14Z</time></trkpt><trkpt lat="43.935119054816376" lon="6.637360443945355"><ele>991.3333333333333</ele><time>2026-04-21T06:46:15Z</time></trkpt><trkpt lat="43.934930870574924" lon="6.637464861119098"><ele>980.6666666666666</ele><time>2026-04-21T06:46:16Z</time></trkpt><trkpt lat="43.934742114933535" lon="6.637557453896875"><ele>970.0</ele><time>2026-04-21T06:46:17Z</time></trkpt><trkpt lat="43.93456105844048" lon="6.637643466779091"><ele>970.0</ele><time>2026-04-21T06:46:18Z</time></trkpt><trkpt lat="43.9343747245795" lon="6.637738500861076"><ele>970.0</ele><time>2026-04-21T06:46:19Z</time></trkpt><trkpt lat="43.934192387952095" lon="6.6378462552912305"><ele>970.0</ele><time>2026-04-21T06:46:20Z</time></trkpt><trkpt lat="43.93401182110841" lon="6.637960098202614"><ele>972.3333333333333</ele><time>2026-04-21T06:46:21Z</time></trkpt><trkpt lat="43.933839521132995" lon="6.638080337266814"><ele>974.6666666666667</ele><time>2026-04-21T06:46:22Z</time></trkpt><trkpt lat="43.93366856982796" lon="6.638216078356164"><ele>977.0</ele><time>2026-04-21T06:46:23Z</time></trkpt><trkpt lat="43.933498122254484" lon="6.638362659028972"><ele>975.3333333333334</ele><time>2026-04-21T06:46:24Z</time></trkpt><trkpt lat="43.93333396560476" lon="6.638521253178374"><ele>973.6666666666667</ele><time>2026-04-21T06:46:25Z</time></trkpt><trkpt lat="43.93318027666237" lon="6.638694027219141"><ele>972.0</ele><time>2026-04-21T06:46:26Z</time></trkpt><trkpt lat="43.93302851974334" lon="6.6388852842336465"><ele>972.0</ele><time>2026-04-21T06:46:27Z</time></trkpt><trkpt lat="43.93287953730542" lon="6.639077910619351"><ele>972.0</ele><time>2026-04-21T06:46:28Z</time></trkpt><trkpt lat="43.932738897613056" lon="6.6392558383471805"><ele>972.0</ele><time>2026-04-21T06:46:29Z</time></trkpt><trkpt lat="43.932605744353985" lon="6.639416435985152"><ele>967.0</ele><time>2026-04-21T06:46:30Z</time></trkpt><trkpt lat="43.932479542503906" lon="6.63956824362168"><ele>962.0</ele><time>2026-04-21T06:46:31Z</time></trkpt><trkpt lat="43.93235794565239" lon="6.6397352623402845"><ele>957.0</ele><time>2026-04-21T06:46:32Z</time></trkpt><trkpt lat="43.93223862838081" lon="6.639903102665032"><ele>957.0</ele><time>2026-04-21T06:46:33Z</time></trkpt><trkpt lat="43.932140514986344" lon="6.640112593131638"><ele>957.0</ele><time>2026-04-21T06:46:34Z</time></trkpt><trkpt lat="43.932058324742584" lon="6.640355183247955"><ele>957.0</ele><time>2026-04-21T06:46:35Z</time></trkpt><trkpt lat="43.93195702221573" lon="6.6405915383930525"><ele>957.0</ele><time>2026-04-21T06:46:36Z</time></trkpt><trkpt lat="43.93185932276812" lon="6.640809735620844"><ele>957.0</ele><time>2026-04-21T06:46:37Z</time></trkpt><trkpt lat="43.931759213783806" lon="6.641005659505056"><ele>957.0</ele><time>2026-04-21T06:46:38Z</time></trkpt><trkpt lat="43.93163457059094" lon="6.641170683527724"><ele>957.0</ele><time>2026-04-21T06:46:39Z</time></trkpt><trkpt lat="43.93151888711435" lon="6.641353582873253"><ele>957.0</ele><time>2026-04-21T06:46:40Z</time></trkpt><trkpt lat="43.93139052769899" lon="6.641518125970894"><ele>957.0</ele><time>2026-04-21T06:46:41Z</time></trkpt><trkpt lat="43.93127688041877" lon="6.641675624814269"><ele>957.0</ele><time>2026-04-21T06:46:42Z</time></trkpt><trkpt lat="43.93118956599263" lon="6.641806395943711"><ele>957.0</ele><time>2026-04-21T06:46:43Z</time></trkpt><trkpt lat="43.93110314852474" lon="6.641942049387543"><ele>957.0</ele><time>2026-04-21T06:46:44Z</time></trkpt><trkpt lat="43.93105441150998" lon="6.642121386460679"><ele>957.0</ele><time>2026-04-21T06:46:45Z</time></trkpt><trkpt lat="43.93102987510717" lon="6.642314837118611"><ele>952.0</ele><time>2026-04-21T06:46:46Z</time></trkpt><trkpt lat="43.93097929238226" lon="6.642488738119708"><ele>947.0</ele><time>2026-04-21T06:46:47Z</time></trkpt><trkpt lat="43.93091834828926" lon="6.64263805428834"><ele>942.0</ele><time>2026-04-21T06:46:48Z</time></trkpt><trkpt lat="43.93084398666895" lon="6.642768498396021"><ele>937.0</ele><time>2026-04-21T06:46:49Z</time></trkpt><trkpt lat="43.930758140339506" lon="6.642874839309195"><ele>937.0</ele><time>2026-04-21T06:46:50Z</time></trkpt><trkpt lat="43.9306558779988" lon="6.642945319703773"><ele>937.0</ele><time>2026-04-21T06:46:51Z</time></trkpt><trkpt lat="43.93056422110181" lon="6.643045451294846"><ele>937.0</ele><time>2026-04-21T06:46:52Z</time></trkpt><trkpt lat="43.93047133297865" lon="6.64311558228964"><ele>937.0</ele><time>2026-04-21T06:46:53Z</time></trkpt><trkpt lat="43.930389710713115" lon="6.6431867159451015"><ele>937.0</ele><time>2026-04-21T06:46:54Z</time></trkpt><trkpt lat="43.930320748404434" lon="6.643273608239269"><ele>936.9999999999999</ele><time>2026-04-21T06:46:55Z</time></trkpt><trkpt lat="43.93028014447195" lon="6.643378072968314"><ele>937.0</ele><time>2026-04-21T06:46:56Z</time></trkpt><trkpt lat="43.93023698842869" lon="6.643501467116453"><ele>937.0</ele><time>2026-04-21T06:46:57Z</time></trkpt><trkpt lat="43.93023365238338" lon="6.64363492832572"><ele>937.0</ele><time>2026-04-21T06:46:58Z</time></trkpt><trkpt lat="43.93026035487252" lon="6.643742552169921"><ele>936.9999999999999</ele><time>2026-04-21T06:46:59Z</time></trkpt><trkpt lat="43.93032595908868" lon="6.643819155050419"><ele>937.0</ele><time>2026-04-21T06:47:00Z</time></trkpt><trkpt lat="43.930405484837976" lon="6.643882375311142"><ele>936.25</ele><time>2026-04-21T06:47:01Z</time></trkpt><trkpt lat="43.93050774777293" lon="6.643913196213744"><ele>935.5</ele><time>2026-04-21T06:47:02Z</time></trkpt><trkpt lat="43.93063668985059" lon="6.6439114642201345"><ele>934.75</ele><time>2026-04-21T06:47:03Z</time></trkpt><trkpt lat="43.93077735353379" lon="6.643906017619191"><ele>934.0</ele><time>2026-04-21T06:47:04Z</time></trkpt><trkpt lat="43.93090874459898" lon="6.643925559360403"><ele>934.0</ele><time>2026-04-21T06:47:05Z</time></trkpt><trkpt lat="43.93102942632738" lon="6.643966349407258"><ele>934.0</ele><time>2026-04-21T06:47:06Z</time></trkpt><trkpt lat="43.93114376937347" lon="6.644013991432076"><ele>934.0</ele><time>2026-04-21T06:47:07Z</time></trkpt><trkpt lat="43.93124738821992" lon="6.644093546157167"><ele>934.0</ele><time>2026-04-21T06:47:08Z</time></trkpt><trkpt lat="43.931366124036245" lon="6.644150978009403"><ele>934.0</ele><time>2026-04-21T06:47:09Z</time></trkpt><trkpt lat="43.93147855098606" lon="6.644242632032138"><ele>934.0</ele><time>2026-04-21T06:47:10Z</time></trkpt><trkpt lat="43.931588650536504" lon="6.6443339364044816"><ele>934.0</ele><time>2026-04-21T06:47:11Z</time></trkpt><trkpt lat="43.93169316488842" lon="6.644412749713748"><ele>934.0</ele><time>2026-04-21T06:47:12Z</time></trkpt><trkpt lat="43.93178964202552" lon="6.644504128956274"><ele>936.5</ele><time>2026-04-21T06:47:13Z</time></trkpt><trkpt lat="43.93184655403502" lon="6.6446510858744725"><ele>939.0</ele><time>2026-04-21T06:47:14Z</time></trkpt><trkpt lat="43.93190158301553" lon="6.644802959984267"><ele>941.5</ele><time>2026-04-21T06:47:15Z</time></trkpt><trkpt lat="43.931971058191834" lon="6.6449539016611014"><ele>944.0</ele><time>2026-04-21T06:47:16Z</time></trkpt><trkpt lat="43.932015457889015" lon="6.645126447077709"><ele>944.0</ele><time>2026-04-21T06:47:17Z</time></trkpt><trkpt lat="43.93209588751501" lon="6.645291950231181"><ele>944.0</ele><time>2026-04-21T06:47:18Z</time></trkpt><trkpt lat="43.93217472409108" lon="6.645440139843147"><ele>944.0</ele><time>2026-04-21T06:47:19Z</time></trkpt><trkpt lat="43.93226501059869" lon="6.645570456944184"><ele>944.0</ele><time>2026-04-21T06:47:20Z</time></trkpt><trkpt lat="43.93233473926875" lon="6.645718323546169"><ele>939.5</ele><time>2026-04-21T06:47:21Z</time></trkpt><trkpt lat="43.932396685298166" lon="6.645867360100331"><ele>935.0</ele><time>2026-04-21T06:47:22Z</time></trkpt><trkpt lat="43.932454526155276" lon="6.6460286725705435"><ele>930.5</ele><time>2026-04-21T06:47:23Z</time></trkpt><trkpt lat="43.932508333305954" lon="6.64618622928535"><ele>926.0</ele><time>2026-04-21T06:47:24Z</time></trkpt><trkpt lat="43.93255537155389" lon="6.6463427812331295"><ele>924.75</ele><time>2026-04-21T06:47:25Z</time></trkpt><trkpt lat="43.932578263888175" lon="6.646522407553463"><ele>923.5</ele><time>2026-04-21T06:47:26Z</time></trkpt><trkpt lat="43.93257068624058" lon="6.64671658527689"><ele>922.25</ele><time>2026-04-21T06:47:27Z</time></trkpt><trkpt lat="43.9325497730346" lon="6.646913068809998"><ele>921.0</ele><time>2026-04-21T06:47:28Z</time></trkpt><trkpt lat="43.93249828813248" lon="6.647111560097918"><ele>921.0</ele><time>2026-04-21T06:47:29Z</time></trkpt><trkpt lat="43.932457802195664" lon="6.647324142755402"><ele>921.0</ele><time>2026-04-21T06:47:30Z</time></trkpt><trkpt lat="43.932420398915205" lon="6.647524975368094"><ele>921.0</ele><time>2026-04-21T06:47:31Z</time></trkpt><trkpt lat="43.93240164967641" lon="6.64771345361168"><ele>921.0</ele><time>2026-04-21T06:47:32Z</time></trkpt><trkpt lat="43.93237382889025" lon="6.64788249917233"><ele>918.75</ele><time>2026-04-21T06:47:33Z</time></trkpt><trkpt lat="43.932359170047576" lon="6.648052559077909"><ele>916.5</ele><time>2026-04-21T06:47:34Z</time></trkpt><trkpt lat="43.93236356974513" lon="6.648239189487375"><ele>914.25</ele><time>2026-04-21T06:47:35Z</time></trkpt><trkpt lat="43.93238247795937" lon="6.648418152217701"><ele>912.0</ele><time>2026-04-21T06:47:36Z</time></trkpt><trkpt lat="43.93241402543218" lon="6.648607149510142"><ele>909.5</ele><time>2026-04-21T06:47:37Z</time></trkpt><trkpt lat="43.93244954442127" lon="6.648803306443465"><ele>907.0</ele><time>2026-04-21T06:47:38Z</time></trkpt><trkpt lat="43.932478488403206" lon="6.649000043208017"><ele>904.5</ele><time>2026-04-21T06:47:39Z</time></trkpt><trkpt lat="43.932512281917575" lon="6.649187469824477"><ele>902.0</ele><time>2026-04-21T06:47:40Z</time></trkpt><trkpt lat="43.932560315127525" lon="6.649358949520715"><ele>906.25</ele><time>2026-04-21T06:47:41Z</time></trkpt><trkpt lat="43.93263247424111" lon="6.649512098011413"><ele>910.5</ele><time>2026-04-21T06:47:42Z</time></trkpt><trkpt lat="43.93273001201074" lon="6.649653436899343"><ele>914.75</ele><time>2026-04-21T06:47:43Z</time></trkpt><trkpt lat="43.93283786172187" lon="6.6497807501251796"><ele>919.0</ele><time>2026-04-21T06:47:44Z</time></trkpt><trkpt lat="43.932935686595215" lon="6.649903592668676"><ele>919.0</ele><time>2026-04-21T06:47:45Z</time></trkpt><trkpt lat="43.93301152124329" lon="6.650037098920035"><ele>919.0</ele><time>2026-04-21T06:47:46Z</time></trkpt><trkpt lat="43.93306170662178" lon="6.650175039118333"><ele>919.0</ele><time>2026-04-21T06:47:47Z</time></trkpt><trkpt lat="43.93308355191941" lon="6.650335260764052"><ele>919.0</ele><time>2026-04-21T06:47:48Z</time></trkpt><trkpt lat="43.93307659073859" lon="6.65051606536862"><ele>915.6666666666666</ele><time>2026-04-21T06:47:49Z</time></trkpt><trkpt lat="43.93304788910846" lon="6.650712040580532"><ele>912.3333333333333</ele><time>2026-04-21T06:47:50Z</time></trkpt><trkpt lat="43.93299766337551" lon="6.650907993643828"><ele>909.0</ele><time>2026-04-21T06:47:51Z</time></trkpt><trkpt lat="43.93292938509072" lon="6.651109620764202"><ele>915.6666666666667</ele><time>2026-04-21T06:47:52Z</time></trkpt><trkpt lat="43.932849484430484" lon="6.651305227853477"><ele>922.3333333333334</ele><time>2026-04-21T06:47:53Z</time></trkpt><trkpt lat="43.93276349775107" lon="6.651487329909761"><ele>929.0</ele><time>2026-04-21T06:47:54Z</time></trkpt><trkpt lat="43.9326770683278" lon="6.651652339957572"><ele>929.0</ele><time>2026-04-21T06:47:55Z</time></trkpt><trkpt lat="43.932575230059896" lon="6.651816421754523"><ele>929.0</ele><time>2026-04-21T06:47:56Z</time></trkpt><trkpt lat="43.93245656116009" lon="6.6519838483712626"><ele>929.0</ele><time>2026-04-21T06:47:57Z</time></trkpt><trkpt lat="43.932334300043514" lon="6.652143101450023"><ele>923.3333333333334</ele><time>2026-04-21T06:47:58Z</time></trkpt><trkpt lat="43.932227569441054" lon="6.652296688746261"><ele>917.6666666666667</ele><time>2026-04-21T06:47:59Z</time></trkpt><trkpt lat="43.932131439431046" lon="6.652453687917745"><ele>912.0</ele><time>2026-04-21T06:48:00Z</time></trkpt><trkpt lat="43.93203833055963" lon="6.65262389464947"><ele>912.0</ele><time>2026-04-21T06:48:01Z</time></trkpt><trkpt lat="43.93194076331958" lon="6.652762963156561"><ele>912.0</ele><time>2026-04-21T06:48:02Z</time></trkpt><trkpt lat="43.93187230193384" lon="6.652922826648282"><ele>912.0</ele><time>2026-04-21T06:48:03Z</time></trkpt><trkpt lat="43.93179572035201" lon="6.653066017450868"><ele>912.0</ele><time>2026-04-21T06:48:04Z</time></trkpt><trkpt lat="43.93170793607616" lon="6.653207823193285"><ele>912.5</ele><time>2026-04-21T06:48:05Z</time></trkpt><trkpt lat="43.93162942513741" lon="6.653369591350138"><ele>913.0</ele><time>2026-04-21T06:48:06Z</time></trkpt><trkpt lat="43.93155082113806" lon="6.6535300096369525"><ele>913.5</ele><time>2026-04-21T06:48:07Z</time></trkpt><trkpt lat="43.93148448851388" lon="6.653699008178049"><ele>914.0</ele><time>2026-04-21T06:48:08Z</time></trkpt><trkpt lat="43.93144652664959" lon="6.653880991208134"><ele>914.0</ele><time>2026-04-21T06:48:09Z</time></trkpt><trkpt lat="43.93140030908445" lon="6.654053831225373"><ele>914.0</ele><time>2026-04-21T06:48:10Z</time></trkpt><trkpt lat="43.93135404338095" lon="6.654218450001811"><ele>914.0</ele><time>2026-04-21T06:48:11Z</time></trkpt><trkpt lat="43.931277342045156" lon="6.654364027553906"><ele>914.0</ele><time>2026-04-21T06:48:12Z</time></trkpt><trkpt lat="43.93117087490515" lon="6.6544978947662035"><ele>907.5</ele><time>2026-04-21T06:48:13Z</time></trkpt><trkpt lat="43.93106373087391" lon="6.654625529229935"><ele>901.0</ele><time>2026-04-21T06:48:14Z</time></trkpt><trkpt lat="43.93097234115612" lon="6.654741225802912"><ele>894.5</ele><time>2026-04-21T06:48:15Z</time></trkpt><trkpt lat="43.93090052261102" lon="6.654861376808303"><ele>888.0</ele><time>2026-04-21T06:48:16Z</time></trkpt><trkpt lat="43.93084818504738" lon="6.6550023776466585"><ele>888.0</ele><time>2026-04-21T06:48:17Z</time></trkpt><trkpt lat="43.930821930211295" lon="6.655154744148989"><ele>888.0</ele><time>2026-04-21T06:48:18Z</time></trkpt><trkpt lat="43.93080946656839" lon="6.655313894425779"><ele>888.0</ele><time>2026-04-21T06:48:19Z</time></trkpt><trkpt lat="43.930813327137926" lon="6.655481716100599"><ele>888.0</ele><time>2026-04-21T06:48:20Z</time></trkpt><trkpt lat="43.930804805925106" lon="6.655658941950399"><ele>891.25</ele><time>2026-04-21T06:48:21Z</time></trkpt><trkpt lat="43.93080572067506" lon="6.655841829946764"><ele>894.5</ele><time>2026-04-21T06:48:22Z</time></trkpt><trkpt lat="43.93077250506015" lon="6.656040290133838"><ele>897.75</ele><time>2026-04-21T06:48:23Z</time></trkpt><trkpt lat="43.93072886562112" lon="6.656235567822992"><ele>901.0</ele><time>2026-04-21T06:48:24Z</time></trkpt><trkpt lat="43.93068101141038" lon="6.656409571222667"><ele>901.25</ele><time>2026-04-21T06:48:25Z</time></trkpt><trkpt lat="43.93063624945714" lon="6.656593477066256"><ele>901.5</ele><time>2026-04-21T06:48:26Z</time></trkpt><trkpt lat="43.93059929940526" lon="6.656777039164759"><ele>901.75</ele><time>2026-04-21T06:48:27Z</time></trkpt><trkpt lat="43.9305652146771" lon="6.656955106028589"><ele>902.0</ele><time>2026-04-21T06:48:28Z</time></trkpt><trkpt lat="43.93054895946703" lon="6.657122255988334"><ele>902.0</ele><time>2026-04-21T06:48:29Z</time></trkpt><trkpt lat="43.930551186395924" lon="6.657283941590068"><ele>902.0</ele><time>2026-04-21T06:48:30Z</time></trkpt><trkpt lat="43.93057910128655" lon="6.6574465840196435"><ele>902.0</ele><time>2026-04-21T06:48:31Z</time></trkpt><trkpt lat="43.93063695352918" lon="6.6576098233066014"><ele>902.0</ele><time>2026-04-21T06:48:32Z</time></trkpt><trkpt lat="43.93072401254853" lon="6.657773211912473"><ele>903.3333333333334</ele><time>2026-04-21T06:48:33Z</time></trkpt><trkpt lat="43.93083604724166" lon="6.657926275168381"><ele>904.6666666666667</ele><time>2026-04-21T06:48:34Z</time></trkpt><trkpt lat="43.93095055464093" lon="6.658069317549614"><ele>906.0</ele><time>2026-04-21T06:48:35Z</time></trkpt><trkpt lat="43.931061636430464" lon="6.658205616566475"><ele>906.0</ele><time>2026-04-21T06:48:36Z</time></trkpt><trkpt lat="43.93118256035866" lon="6.65832078796945"><ele>906.0</ele><time>2026-04-21T06:48:37Z</time></trkpt><trkpt lat="43.93131265212648" lon="6.658402241592619"><ele>906.0</ele><time>2026-04-21T06:48:38Z</time></trkpt><trkpt lat="43.931431684121634" lon="6.658445106155322"><ele>906.0</ele><time>2026-04-21T06:48:39Z</time></trkpt><trkpt lat="43.93153559921213" lon="6.65848395930355"><ele>906.0</ele><time>2026-04-21T06:48:40Z</time></trkpt><trkpt lat="43.931624736882846" lon="6.658553115509534"><ele>905.9999999999999</ele><time>2026-04-21T06:48:41Z</time></trkpt><trkpt lat="43.93168302964031" lon="6.658656314184791"><ele>905.9999999999999</ele><time>2026-04-21T06:48:42Z</time></trkpt><trkpt lat="43.93170974241611" lon="6.658796226550232"><ele>906.0</ele><time>2026-04-21T06:48:43Z</time></trkpt><trkpt lat="43.931698328123865" lon="6.658963806245177"><ele>906.0</ele><time>2026-04-21T06:48:44Z</time></trkpt><trkpt lat="43.93165321047768" lon="6.659152580746509"><ele>901.0</ele><time>2026-04-21T06:48:45Z</time></trkpt><trkpt lat="43.931597414932206" lon="6.659354456730605"><ele>896.0</ele><time>2026-04-21T06:48:46Z</time></trkpt><trkpt lat="43.93154352188033" lon="6.659562068575054"><ele>891.0</ele><time>2026-04-21T06:48:47Z</time></trkpt><trkpt lat="43.93147994556371" lon="6.659767484894698"><ele>891.0</ele><time>2026-04-21T06:48:48Z</time></trkpt><trkpt lat="43.931411687626124" lon="6.659961572039023"><ele>891.0</ele><time>2026-04-21T06:48:49Z</time></trkpt><trkpt lat="43.93134807806077" lon="6.660131244259431"><ele>891.0</ele><time>2026-04-21T06:48:50Z</time></trkpt><trkpt lat="43.93129614836395" lon="6.660295167983226"><ele>891.0</ele><time>2026-04-21T06:48:51Z</time></trkpt><trkpt lat="43.93125666249707" lon="6.660455863983626"><ele>892.25</ele><time>2026-04-21T06:48:52Z</time></trkpt><trkpt lat="43.93124047945996" lon="6.660624115834376"><ele>893.5</ele><time>2026-04-21T06:48:53Z</time></trkpt><trkpt lat="43.93125217497794" lon="6.660790937040164"><ele>894.75</ele><time>2026-04-21T06:48:54Z</time></trkpt><trkpt lat="43.93129105972496" lon="6.660970741695072"><ele>896.0</ele><time>2026-04-21T06:48:55Z</time></trkpt><trkpt lat="43.93135614747027" lon="6.661157249749255"><ele>892.5</ele><time>2026-04-21T06:48:56Z</time></trkpt><trkpt lat="43.93142658294753" lon="6.661350171498386"><ele>889.0</ele><time>2026-04-21T06:48:57Z</time></trkpt><trkpt lat="43.93149180237455" lon="6.661528537707577"><ele>885.5</ele><time>2026-04-21T06:48:58Z</time></trkpt><trkpt lat="43.93154652018413" lon="6.661706666576107"><ele>882.0</ele><time>2026-04-21T06:48:59Z</time></trkpt><trkpt lat="43.9315922319522" lon="6.661887271092305"><ele>881.0</ele><time>2026-04-21T06:49:00Z</time></trkpt><trkpt lat="43.931637971056105" lon="6.662071221771531"><ele>880.0</ele><time>2026-04-21T06:49:01Z</time></trkpt><trkpt lat="43.93167475282124" lon="6.662240787505971"><ele>879.0</ele><time>2026-04-21T06:49:02Z</time></trkpt><trkpt lat="43.93169111956178" lon="6.662418292490487"><ele>878.0</ele><time>2026-04-21T06:49:03Z</time></trkpt><trkpt lat="43.93167152146372" lon="6.662612255161656"><ele>878.0</ele><time>2026-04-21T06:49:04Z</time></trkpt><trkpt lat="43.93162996290936" lon="6.662807602277195"><ele>878.0</ele><time>2026-04-21T06:49:05Z</time></trkpt><trkpt lat="43.93158999659173" lon="6.662998288242383"><ele>878.0</ele><time>2026-04-21T06:49:06Z</time></trkpt><trkpt lat="43.931562942707956" lon="6.663187859711166"><ele>878.0</ele><time>2026-04-21T06:49:07Z</time></trkpt><trkpt lat="43.931551715494756" lon="6.663375233453932"><ele>878.0</ele><time>2026-04-21T06:49:08Z</time></trkpt><trkpt lat="43.93155203178246" lon="6.663564207550687"><ele>878.0</ele><time>2026-04-21T06:49:09Z</time></trkpt><trkpt lat="43.93155855804708" lon="6.6637426945872145"><ele>878.0</ele><time>2026-04-21T06:49:10Z</time></trkpt><trkpt lat="43.93156424805949" lon="6.663915938749516"><ele>878.0</ele><time>2026-04-21T06:49:11Z</time></trkpt><trkpt lat="43.93155767351076" lon="6.664092168578357"><ele>878.4</ele><time>2026-04-21T06:49:12Z</time></trkpt><trkpt lat="43.931543097439494" lon="6.664250497365099"><ele>878.8</ele><time>2026-04-21T06:49:13Z</time></trkpt><trkpt lat="43.93153061174247" lon="6.664374967820002"><ele>879.2</ele><time>2026-04-21T06:49:14Z</time></trkpt><trkpt lat="43.93149725176361" lon="6.664468604854872"><ele>879.6</ele><time>2026-04-21T06:49:15Z</time></trkpt><trkpt lat="43.93145415024156" lon="6.664579004965916"><ele>880.0</ele><time>2026-04-21T06:49:16Z</time></trkpt><trkpt lat="43.931397282308616" lon="6.66471395439086"><ele>880.4</ele><time>2026-04-21T06:49:17Z</time></trkpt><trkpt lat="43.931351396350884" lon="6.664861134002325"><ele>880.8</ele><time>2026-04-21T06:49:18Z</time></trkpt><trkpt lat="43.9312877543925" lon="6.664992601331482"><ele>881.2</ele><time>2026-04-21T06:49:19Z</time></trkpt><trkpt lat="43.93122405545208" lon="6.665136853179071"><ele>881.6</ele><time>2026-04-21T06:49:20Z</time></trkpt><trkpt lat="43.93119202025362" lon="6.665249579348267"><ele>882.0</ele><time>2026-04-21T06:49:21Z</time></trkpt><trkpt lat="43.93115866477566" lon="6.665351470565274"><ele>880.0</ele><time>2026-04-21T06:49:22Z</time></trkpt><trkpt lat="43.93118343267947" lon="6.66547098616244"><ele>878.0</ele><time>2026-04-21T06:49:23Z</time></trkpt><trkpt lat="43.93122029324631" lon="6.6655946816438005"><ele>876.0</ele><time>2026-04-21T06:49:24Z</time></trkpt><trkpt lat="43.931287485805306" lon="6.665717689918509"><ele>874.0</ele><time>2026-04-21T06:49:25Z</time></trkpt><trkpt lat="43.93136750600313" lon="6.665808789776039"><ele>872.0</ele><time>2026-04-21T06:49:26Z</time></trkpt><trkpt lat="43.93146767607062" lon="6.665869119699391"><ele>872.0</ele><time>2026-04-21T06:49:27Z</time></trkpt><trkpt lat="43.931578045633444" lon="6.665882936108312"><ele>872.0</ele><time>2026-04-21T06:49:28Z</time></trkpt><trkpt lat="43.931704683966075" lon="6.665859384261687"><ele>872.0</ele><time>2026-04-21T06:49:29Z</time></trkpt><trkpt lat="43.93183722402788" lon="6.665826081546606"><ele>872.0</ele><time>2026-04-21T06:49:30Z</time></trkpt><trkpt lat="43.93195641731951" lon="6.66580967927439"><ele>873.4000000000001</ele><time>2026-04-21T06:49:31Z</time></trkpt><trkpt lat="43.9320611632688" lon="6.665814989193405"><ele>874.8000000000001</ele><time>2026-04-21T06:49:32Z</time></trkpt><trkpt lat="43.93214207177778" lon="6.6658416653880925"><ele>876.2</ele><time>2026-04-21T06:49:33Z</time></trkpt><trkpt lat="43.93220121388505" lon="6.665906387157046"><ele>877.6</ele><time>2026-04-21T06:49:34Z</time></trkpt><trkpt lat="43.932245177292494" lon="6.66601361986673"><ele>879.0</ele><time>2026-04-21T06:49:35Z</time></trkpt><trkpt lat="43.93226067850213" lon="6.6661482554785145"><ele>879.0</ele><time>2026-04-21T06:49:36Z</time></trkpt><trkpt lat="43.932247684048576" lon="6.666293774553698"><ele>879.0</ele><time>2026-04-21T06:49:37Z</time></trkpt><trkpt lat="43.93216608936123" lon="6.666439223562987"><ele>879.0</ele><time>2026-04-21T06:49:38Z</time></trkpt><trkpt lat="43.932136256487006" lon="6.666623262770685"><ele>879.0</ele><time>2026-04-21T06:49:39Z</time></trkpt><trkpt lat="43.932092408585" lon="6.666815853221869"><ele>879.25</ele><time>2026-04-21T06:49:40Z</time></trkpt><trkpt lat="43.93206047611705" lon="6.667026740398265"><ele>879.5</ele><time>2026-04-21T06:49:41Z</time></trkpt><trkpt lat="43.93203101378204" lon="6.667223124288441"><ele>879.75</ele><time>2026-04-21T06:49:42Z</time></trkpt><trkpt lat="43.93200860633162" lon="6.667401606717134"><ele>880.0</ele><time>2026-04-21T06:49:43Z</time></trkpt><trkpt lat="43.93199839963202" lon="6.667558201342406"><ele>879.9999999999999</ele><time>2026-04-21T06:49:44Z</time></trkpt><trkpt lat="43.93200725110496" lon="6.6676982664207305"><ele>880.0</ele><time>2026-04-21T06:49:45Z</time></trkpt><trkpt lat="43.93201673453854" lon="6.667792441902085"><ele>880.0</ele><time>2026-04-21T06:49:46Z</time></trkpt><trkpt lat="43.932016779896415" lon="6.667889334357781"><ele>880.0</ele><time>2026-04-21T06:49:49Z</time></trkpt><trkpt lat="43.93207553370082" lon="6.667939190458146"><ele>879.9999999999999</ele><time>2026-04-21T06:51:16Z</time></trkpt><trkpt lat="43.93210241038154" lon="6.668019258698931"><ele>880.0</ele><time>2026-04-21T06:51:20Z</time></trkpt><trkpt lat="43.932137858320004" lon="6.668119437264617"><ele>877.3333333333333</ele><time>2026-04-21T06:51:23Z</time></trkpt><trkpt lat="43.9321644076132" lon="6.668201454899749"><ele>874.6666666666666</ele><time>2026-04-21T06:51:25Z</time></trkpt><trkpt lat="43.93220872052152" lon="6.668299903844046"><ele>872.0</ele><time>2026-04-21T06:51:27Z</time></trkpt><trkpt lat="43.93224063733285" lon="6.668403968280806"><ele>869.3333333333333</ele><time>2026-04-21T06:51:29Z</time></trkpt><trkpt lat="43.93227893137452" lon="6.66852367147557"><ele>866.6666666666666</ele><time>2026-04-21T06:51:31Z</time></trkpt><trkpt lat="43.932316423743046" lon="6.668594473825205"><ele>864.0</ele><time>2026-04-21T06:51:32Z</time></trkpt><trkpt lat="43.93238214015886" lon="6.668700432993986"><ele>863.75</ele><time>2026-04-21T06:51:33Z</time></trkpt><trkpt lat="43.93249448066317" lon="6.668768818821103"><ele>863.5</ele><time>2026-04-21T06:51:34Z</time></trkpt><trkpt lat="43.93262522730769" lon="6.66884248467652"><ele>863.25</ele><time>2026-04-21T06:51:35Z</time></trkpt><trkpt lat="43.93273775775873" lon="6.668905933042107"><ele>863.0</ele><time>2026-04-21T06:51:36Z</time></trkpt><trkpt lat="43.93282299666961" lon="6.668989989734157"><ele>863.0</ele><time>2026-04-21T06:51:37Z</time></trkpt><trkpt lat="43.932904359537396" lon="6.669115166041601"><ele>863.0</ele><time>2026-04-21T06:51:38Z</time></trkpt><trkpt lat="43.932967675443386" lon="6.669280213170024"><ele>863.0</ele><time>2026-04-21T06:51:39Z</time></trkpt><trkpt lat="43.93300454664411" lon="6.6694526903875415"><ele>863.0</ele><time>2026-04-21T06:51:40Z</time></trkpt><trkpt lat="43.93303517874578" lon="6.669605250107849"><ele>865.5999999999999</ele><time>2026-04-21T06:51:41Z</time></trkpt><trkpt lat="43.933073777408936" lon="6.66971841981175"><ele>868.1999999999999</ele><time>2026-04-21T06:51:42Z</time></trkpt><trkpt lat="43.93311702611881" lon="6.669826038622575"><ele>870.8</ele><time>2026-04-21T06:51:43Z</time></trkpt><trkpt lat="43.93321835061292" lon="6.669875658998767"><ele>873.4</ele><time>2026-04-21T06:51:44Z</time></trkpt><trkpt lat="43.933315064456444" lon="6.6699060352054795"><ele>876.0</ele><time>2026-04-21T06:51:45Z</time></trkpt><trkpt lat="43.93340392871365" lon="6.66993669706671"><ele>876.0</ele><time>2026-04-21T06:51:46Z</time></trkpt><trkpt lat="43.933482489817166" lon="6.669971684179345"><ele>876.0</ele><time>2026-04-21T06:51:47Z</time></trkpt><trkpt lat="43.93354534981899" lon="6.670029099732409"><ele>876.0</ele><time>2026-04-21T06:51:48Z</time></trkpt><trkpt lat="43.933598076812004" lon="6.6701160614632675"><ele>876.0</ele><time>2026-04-21T06:51:49Z</time></trkpt><trkpt lat="43.933631480882816" lon="6.670231633434873"><ele>876.0</ele><time>2026-04-21T06:51:50Z</time></trkpt><trkpt lat="43.933629051612435" lon="6.670368258574611"><ele>876.0</ele><time>2026-04-21T06:51:51Z</time></trkpt><trkpt lat="43.93358975945812" lon="6.670507538616581"><ele>872.4</ele><time>2026-04-21T06:51:52Z</time></trkpt><trkpt lat="43.93355496049701" lon="6.6706482901794635"><ele>868.8</ele><time>2026-04-21T06:51:53Z</time></trkpt><trkpt lat="43.93353999764749" lon="6.670785069569303"><ele>865.1999999999999</ele><time>2026-04-21T06:51:54Z</time></trkpt><trkpt lat="43.93353816352603" lon="6.670926283546736"><ele>861.5999999999999</ele><time>2026-04-21T06:51:55Z</time></trkpt><trkpt lat="43.93360373127525" lon="6.671067634793556"><ele>858.0</ele><time>2026-04-21T06:51:56Z</time></trkpt><trkpt lat="43.933683810536714" lon="6.67119908763738"><ele>852.75</ele><time>2026-04-21T06:51:57Z</time></trkpt><trkpt lat="43.93379047017003" lon="6.671312000625023"><ele>847.5</ele><time>2026-04-21T06:51:58Z</time></trkpt><trkpt lat="43.93390615940743" lon="6.671391941725654"><ele>842.25</ele><time>2026-04-21T06:51:59Z</time></trkpt><trkpt lat="43.93400729596963" lon="6.6714545533258125"><ele>837.0</ele><time>2026-04-21T06:52:00Z</time></trkpt><trkpt lat="43.934099928841384" lon="6.671554074562657"><ele>837.0</ele><time>2026-04-21T06:52:01Z</time></trkpt><trkpt lat="43.934153151365045" lon="6.671721465910788"><ele>837.0</ele><time>2026-04-21T06:52:02Z</time></trkpt><trkpt lat="43.93419890542159" lon="6.67191122639514"><ele>837.0</ele><time>2026-04-21T06:52:03Z</time></trkpt><trkpt lat="43.93427930356043" lon="6.672093124454608"><ele>837.0</ele><time>2026-04-21T06:52:04Z</time></trkpt><trkpt lat="43.93436727628828" lon="6.6722742634590615"><ele>838.3333333333333</ele><time>2026-04-21T06:52:05Z</time></trkpt><trkpt lat="43.93446500766605" lon="6.672435418995047"><ele>839.6666666666666</ele><time>2026-04-21T06:52:06Z</time></trkpt><trkpt lat="43.93457284749213" lon="6.672604100726559"><ele>841.0</ele><time>2026-04-21T06:52:07Z</time></trkpt><trkpt lat="43.934678698500115" lon="6.672786199343598"><ele>841.0</ele><time>2026-04-21T06:52:08Z</time></trkpt><trkpt lat="43.934768292753176" lon="6.672990361744639"><ele>841.0</ele><time>2026-04-21T06:52:09Z</time></trkpt><trkpt lat="43.93484245258669" lon="6.673223527342427"><ele>841.0</ele><time>2026-04-21T06:52:10Z</time></trkpt><trkpt lat="43.934913190828965" lon="6.673467203859226"><ele>834.6666666666666</ele><time>2026-04-21T06:52:11Z</time></trkpt><trkpt lat="43.93498491834958" lon="6.673719912656757"><ele>828.3333333333333</ele><time>2026-04-21T06:52:12Z</time></trkpt><trkpt lat="43.93505654843796" lon="6.673971374395749"><ele>822.0</ele><time>2026-04-21T06:52:13Z</time></trkpt><trkpt lat="43.935125536859964" lon="6.674223260918226"><ele>837.3333333333333</ele><time>2026-04-21T06:52:14Z</time></trkpt><trkpt lat="43.935182848534794" lon="6.674487096070701"><ele>852.6666666666666</ele><time>2026-04-21T06:52:15Z</time></trkpt><trkpt lat="43.93521029171969" lon="6.674738277278753"><ele>868.0</ele><time>2026-04-21T06:52:16Z</time></trkpt><trkpt lat="43.93521921207323" lon="6.674951969889751"><ele>868.0</ele><time>2026-04-21T06:52:17Z</time></trkpt><trkpt lat="43.93522488433076" lon="6.675130496121626"><ele>868.0</ele><time>2026-04-21T06:52:18Z</time></trkpt><trkpt lat="43.935225965931984" lon="6.675277490191707"><ele>868.0</ele><time>2026-04-21T06:52:19Z</time></trkpt><trkpt lat="43.935221900153316" lon="6.675386680101981"><ele>868.0</ele><time>2026-04-21T06:52:20Z</time></trkpt><trkpt lat="43.93521032945635" lon="6.675481882878381"><ele>868.0</ele><time>2026-04-21T06:52:23Z</time></trkpt><trkpt lat="43.93519254883574" lon="6.675637601009142"><ele>867.4</ele><time>2026-04-21T06:53:04Z</time></trkpt><trkpt lat="43.93518552393879" lon="6.675764907756398"><ele>866.8</ele><time>2026-04-21T06:53:05Z</time></trkpt><trkpt lat="43.93518985044829" lon="6.675907007589701"><ele>866.2</ele><time>2026-04-21T06:53:06Z</time></trkpt><trkpt lat="43.93522460872518" lon="6.676064528437695"><ele>865.6</ele><time>2026-04-21T06:53:07Z</time></trkpt><trkpt lat="43.935288242158855" lon="6.676222845135923"><ele>865.0</ele><time>2026-04-21T06:53:08Z</time></trkpt><trkpt lat="43.935359938952374" lon="6.676382526640327"><ele>864.25</ele><time>2026-04-21T06:53:09Z</time></trkpt><trkpt lat="43.93541105936053" lon="6.676542907948094"><ele>863.5</ele><time>2026-04-21T06:53:10Z</time></trkpt><trkpt lat="43.93542745812403" lon="6.676710673117004"><ele>862.75</ele><time>2026-04-21T06:53:11Z</time></trkpt><trkpt lat="43.93542447338064" lon="6.6768870819687764"><ele>862.0</ele><time>2026-04-21T06:53:12Z</time></trkpt><trkpt lat="43.93542374337261" lon="6.677036799259218"><ele>853.8</ele><time>2026-04-21T06:53:13Z</time></trkpt><trkpt lat="43.935442032925664" lon="6.6771654650861905"><ele>845.6</ele><time>2026-04-21T06:53:14Z</time></trkpt><trkpt lat="43.9354870104157" lon="6.677274012132077"><ele>837.4</ele><time>2026-04-21T06:53:15Z</time></trkpt><trkpt lat="43.93555856148645" lon="6.6773956415062194"><ele>829.1999999999999</ele><time>2026-04-21T06:53:16Z</time></trkpt><trkpt lat="43.935657527595616" lon="6.677516092995149"><ele>821.0</ele><time>2026-04-21T06:53:17Z</time></trkpt><trkpt lat="43.935769502280216" lon="6.6776444949477"><ele>822.6666666666667</ele><time>2026-04-21T06:53:18Z</time></trkpt><trkpt lat="43.93588816032591" lon="6.677775282281765"><ele>824.3333333333333</ele><time>2026-04-21T06:53:19Z</time></trkpt><trkpt lat="43.93602388756819" lon="6.677899904726597"><ele>826.0</ele><time>2026-04-21T06:53:20Z</time></trkpt><trkpt lat="43.936170882387614" lon="6.678015838491296"><ele>826.0</ele><time>2026-04-21T06:53:21Z</time></trkpt><trkpt lat="43.93631598350357" lon="6.678111825842817"><ele>826.0</ele><time>2026-04-21T06:53:22Z</time></trkpt><trkpt lat="43.936443449494135" lon="6.678193635317012"><ele>826.0</ele><time>2026-04-21T06:53:23Z</time></trkpt><trkpt lat="43.936551893734524" lon="6.67827629051026"><ele>826.0</ele><time>2026-04-21T06:53:24Z</time></trkpt><trkpt lat="43.93664647904061" lon="6.6783603292897595"><ele>831.4999999999999</ele><time>2026-04-21T06:53:25Z</time></trkpt><trkpt lat="43.93672154434925" lon="6.678428425011864"><ele>837.0</ele><time>2026-04-21T06:53:26Z</time></trkpt><trkpt lat="43.93677080138234" lon="6.6785077457629205"><ele>842.5</ele><time>2026-04-21T06:53:27Z</time></trkpt><trkpt lat="43.93678584862572" lon="6.67861034356817"><ele>848.0</ele><time>2026-04-21T06:53:28Z</time></trkpt><trkpt lat="43.936750126140794" lon="6.678726382357673"><ele>853.4999999999999</ele><time>2026-04-21T06:53:29Z</time></trkpt><trkpt lat="43.936723930668094" lon="6.678871760506018"><ele>859.0</ele><time>2026-04-21T06:53:30Z</time></trkpt><trkpt lat="43.93672745317013" lon="6.679039323275417"><ele>859.0</ele><time>2026-04-21T06:53:31Z</time></trkpt><trkpt lat="43.93675185670259" lon="6.6792256679893525"><ele>859.0</ele><time>2026-04-21T06:53:32Z</time></trkpt><trkpt lat="43.936779844105835" lon="6.6794369408974985"><ele>859.0</ele><time>2026-04-21T06:53:33Z</time></trkpt><trkpt lat="43.9368230460296" lon="6.679660780980215"><ele>857.6666666666666</ele><time>2026-04-21T06:53:34Z</time></trkpt><trkpt lat="43.936849794611874" lon="6.679903397187983"><ele>856.3333333333333</ele><time>2026-04-21T06:53:35Z</time></trkpt><trkpt lat="43.93687403998458" lon="6.680144218006335"><ele>855.0</ele><time>2026-04-21T06:53:36Z</time></trkpt><trkpt lat="43.936892477029076" lon="6.680387229762275"><ele>853.0</ele><time>2026-04-21T06:53:37Z</time></trkpt><trkpt lat="43.93690116112082" lon="6.680602504766968"><ele>851.0</ele><time>2026-04-21T06:53:38Z</time></trkpt><trkpt lat="43.93689992191161" lon="6.680811205685745"><ele>849.0</ele><time>2026-04-21T06:53:39Z</time></trkpt><trkpt lat="43.93694250214068" lon="6.681037882160134"><ele>843.0</ele><time>2026-04-21T06:53:40Z</time></trkpt><trkpt lat="43.93702785311931" lon="6.6812330967321785"><ele>837.0</ele><time>2026-04-21T06:53:41Z</time></trkpt><trkpt lat="43.93707894963516" lon="6.681421311897396"><ele>831.0</ele><time>2026-04-21T06:53:42Z</time></trkpt><trkpt lat="43.937105344263976" lon="6.681601819853415"><ele>825.0</ele><time>2026-04-21T06:53:43Z</time></trkpt><trkpt lat="43.93709390407888" lon="6.681770219409636"><ele>825.0</ele><time>2026-04-21T06:53:44Z</time></trkpt><trkpt lat="43.93712098960136" lon="6.6818971059159145"><ele>825.0</ele><time>2026-04-21T06:53:45Z</time></trkpt><trkpt lat="43.937187374699924" lon="6.682029959186835"><ele>825.0</ele><time>2026-04-21T06:53:46Z</time></trkpt><trkpt lat="43.937275307633186" lon="6.682163930603486"><ele>825.0</ele><time>2026-04-21T06:53:47Z</time></trkpt><trkpt lat="43.93736440970835" lon="6.682273480842695"><ele>821.0</ele><time>2026-04-21T06:53:48Z</time></trkpt><trkpt lat="43.937426364748575" lon="6.682420766491029"><ele>817.0</ele><time>2026-04-21T06:53:49Z</time></trkpt><trkpt lat="43.9374484462908" lon="6.6825965467706645"><ele>813.0</ele><time>2026-04-21T06:53:50Z</time></trkpt><trkpt lat="43.93744752684321" lon="6.682793776785412"><ele>809.0</ele><time>2026-04-21T06:53:51Z</time></trkpt><trkpt lat="43.93745352482198" lon="6.683006701594326"><ele>807.6666666666667</ele><time>2026-04-21T06:53:52Z</time></trkpt><trkpt lat="43.937457243934226" lon="6.683222866665848"><ele>806.3333333333333</ele><time>2026-04-21T06:53:53Z</time></trkpt><trkpt lat="43.93745672395735" lon="6.683453208850533"><ele>805.0</ele><time>2026-04-21T06:53:54Z</time></trkpt><trkpt lat="43.93745590503297" lon="6.6836636294911695"><ele>797.25</ele><time>2026-04-21T06:53:55Z</time></trkpt><trkpt lat="43.93745655377097" lon="6.683849832885731"><ele>789.5</ele><time>2026-04-21T06:53:56Z</time></trkpt><trkpt lat="43.93746644404378" lon="6.684016720185768"><ele>781.75</ele><time>2026-04-21T06:53:57Z</time></trkpt><trkpt lat="43.93751429641715" lon="6.684197423167203"><ele>774.0</ele><time>2026-04-21T06:53:58Z</time></trkpt><trkpt lat="43.93759627287171" lon="6.684322522099954"><ele>785.8000000000001</ele><time>2026-04-21T06:53:59Z</time></trkpt><trkpt lat="43.93764880688049" lon="6.684443673057319"><ele>797.6</ele><time>2026-04-21T06:54:00Z</time></trkpt><trkpt lat="43.93767255036773" lon="6.684573738029036"><ele>809.4</ele><time>2026-04-21T06:54:01Z</time></trkpt><trkpt lat="43.93766075183726" lon="6.684701762158004"><ele>821.2</ele><time>2026-04-21T06:54:02Z</time></trkpt><trkpt lat="43.93760852949981" lon="6.684819849526408"><ele>833.0</ele><time>2026-04-21T06:54:03Z</time></trkpt><trkpt lat="43.93761772640952" lon="6.68496428729182"><ele>833.0</ele><time>2026-04-21T06:54:04Z</time></trkpt><trkpt lat="43.93764843191967" lon="6.685110598325524"><ele>833.0</ele><time>2026-04-21T06:54:05Z</time></trkpt><trkpt lat="43.93770543627403" lon="6.685263602618848"><ele>833.0</ele><time>2026-04-21T06:54:06Z</time></trkpt><trkpt lat="43.9377523704414" lon="6.6854014727613436"><ele>833.0</ele><time>2026-04-21T06:54:07Z</time></trkpt><trkpt lat="43.93777961145307" lon="6.685529088160947"><ele>833.0</ele><time>2026-04-21T06:54:08Z</time></trkpt><trkpt lat="43.93778490827039" lon="6.685657104191785"><ele>827.75</ele><time>2026-04-21T06:54:09Z</time></trkpt><trkpt lat="43.937752402672714" lon="6.685797627202513"><ele>822.5</ele><time>2026-04-21T06:54:10Z</time></trkpt><trkpt lat="43.93767415414992" lon="6.685931080667261"><ele>817.25</ele><time>2026-04-21T06:54:11Z</time></trkpt><trkpt lat="43.937634148752565" lon="6.686095375226931"><ele>812.0</ele><time>2026-04-21T06:54:12Z</time></trkpt><trkpt lat="43.93760770001899" lon="6.6862725019746385"><ele>807.8</ele><time>2026-04-21T06:54:13Z</time></trkpt><trkpt lat="43.937592148769454" lon="6.686453232881399"><ele>803.6</ele><time>2026-04-21T06:54:14Z</time></trkpt><trkpt lat="43.93756007691864" lon="6.686593812208778"><ele>799.4</ele><time>2026-04-21T06:54:15Z</time></trkpt><trkpt lat="43.93754022278877" lon="6.686725560748125"><ele>795.1999999999999</ele><time>2026-04-21T06:54:16Z</time></trkpt><trkpt lat="43.93751945199127" lon="6.686862131723045"><ele>791.0</ele><time>2026-04-21T06:54:17Z</time></trkpt><trkpt lat="43.937567439634336" lon="6.686987275557463"><ele>785.4</ele><time>2026-04-21T06:54:18Z</time></trkpt><trkpt lat="43.93760051197315" lon="6.687092634665706"><ele>779.8</ele><time>2026-04-21T06:54:19Z</time></trkpt><trkpt lat="43.93768365313077" lon="6.68712843691875"><ele>774.1999999999999</ele><time>2026-04-21T06:54:20Z</time></trkpt><trkpt lat="43.937773984925805" lon="6.687154582277408"><ele>768.5999999999999</ele><time>2026-04-21T06:54:21Z</time></trkpt><trkpt lat="43.937879056787956" lon="6.687172601117627"><ele>763.0</ele><time>2026-04-21T06:54:22Z</time></trkpt><trkpt lat="43.93799686282556" lon="6.687189594298328"><ele>763.0</ele><time>2026-04-21T06:54:23Z</time></trkpt><trkpt lat="43.93812805018178" lon="6.687191102441052"><ele>763.0</ele><time>2026-04-21T06:54:24Z</time></trkpt><trkpt lat="43.93827831602807" lon="6.687197429016819"><ele>763.0</ele><time>2026-04-21T06:54:25Z</time></trkpt><trkpt lat="43.938433789467155" lon="6.687239755926468"><ele>763.0</ele><time>2026-04-21T06:54:26Z</time></trkpt><trkpt lat="43.93858965005179" lon="6.687291907678628"><ele>766.25</ele><time>2026-04-21T06:54:27Z</time></trkpt><trkpt lat="43.93874457895351" lon="6.68733990921885"><ele>769.5</ele><time>2026-04-21T06:54:28Z</time></trkpt><trkpt lat="43.93887437050851" lon="6.687390350665868"><ele>772.75</ele><time>2026-04-21T06:54:29Z</time></trkpt><trkpt lat="43.938983041153406" lon="6.687489171734577"><ele>776.0</ele><time>2026-04-21T06:54:30Z</time></trkpt><trkpt lat="43.9391038559078" lon="6.687611480703563"><ele>772.3333333333334</ele><time>2026-04-21T06:54:31Z</time></trkpt><trkpt lat="43.93924281742494" lon="6.687724478627733"><ele>768.6666666666667</ele><time>2026-04-21T06:54:32Z</time></trkpt><trkpt lat="43.93937900580781" lon="6.687859803278641"><ele>765.0</ele><time>2026-04-21T06:54:33Z</time></trkpt><trkpt lat="43.9395114176427" lon="6.688004430579309"><ele>765.0</ele><time>2026-04-21T06:54:34Z</time></trkpt><trkpt lat="43.939598755348335" lon="6.6881656742372915"><ele>765.0</ele><time>2026-04-21T06:54:35Z</time></trkpt><trkpt lat="43.939689162256066" lon="6.688277713426205"><ele>765.0</ele><time>2026-04-21T06:54:36Z</time></trkpt><trkpt lat="43.93978792614456" lon="6.688345937469484"><ele>765.0</ele><time>2026-04-21T06:54:37Z</time></trkpt><trkpt lat="43.939882774299996" lon="6.688378625425476"><ele>765.0</ele><time>2026-04-21T06:54:38Z</time></trkpt><trkpt lat="43.939946158137495" lon="6.688429487547816"><ele>765.0</ele><time>2026-04-21T06:54:39Z</time></trkpt><trkpt lat="43.93999848494861" lon="6.688566170943022"><ele>765.0</ele><time>2026-04-21T06:54:41Z</time></trkpt><trkpt lat="43.93997707147672" lon="6.688663404188638"><ele>765.0</ele><time>2026-04-21T06:54:42Z</time></trkpt><trkpt lat="43.939971641068226" lon="6.688765137447433"><ele>765.0</ele><time>2026-04-21T06:54:43Z</time></trkpt><trkpt lat="43.93998190156175" lon="6.688870569279125"><ele>765.0</ele><time>2026-04-21T06:54:44Z</time></trkpt><trkpt lat="43.939964979038436" lon="6.688956912822282"><ele>767.6</ele><time>2026-04-21T06:54:45Z</time></trkpt><trkpt lat="43.939995779254616" lon="6.689086061837659"><ele>770.2</ele><time>2026-04-21T06:54:47Z</time></trkpt><trkpt lat="43.940085272233006" lon="6.689112675863191"><ele>772.8</ele><time>2026-04-21T06:54:48Z</time></trkpt><trkpt lat="43.940163825247645" lon="6.689165435699815"><ele>775.4</ele><time>2026-04-21T06:54:49Z</time></trkpt><trkpt lat="43.94026037902832" lon="6.6892407631925455"><ele>778.0</ele><time>2026-04-21T06:54:50Z</time></trkpt><trkpt lat="43.94037109174091" lon="6.689327358039912"><ele>780.75</ele><time>2026-04-21T06:54:51Z</time></trkpt><trkpt lat="43.94049298971184" lon="6.689394344611909"><ele>783.5</ele><time>2026-04-21T06:54:52Z</time></trkpt><trkpt lat="43.94063726719313" lon="6.689430451084471"><ele>786.25</ele><time>2026-04-21T06:54:53Z</time></trkpt><trkpt lat="43.94077062342178" lon="6.689430441234078"><ele>789.0</ele><time>2026-04-21T06:54:54Z</time></trkpt><trkpt lat="43.94089320038655" lon="6.68943166500033"><ele>778.0</ele><time>2026-04-21T06:54:55Z</time></trkpt><trkpt lat="43.941009342448986" lon="6.689468851565794"><ele>767.0</ele><time>2026-04-21T06:54:56Z</time></trkpt><trkpt lat="43.94113031686812" lon="6.689558176635508"><ele>756.0</ele><time>2026-04-21T06:54:57Z</time></trkpt><trkpt lat="43.94125307357767" lon="6.689685721819254"><ele>745.0</ele><time>2026-04-21T06:54:58Z</time></trkpt><trkpt lat="43.941373478373336" lon="6.689799014003539"><ele>745.0</ele><time>2026-04-21T06:54:59Z</time></trkpt><trkpt lat="43.941491309476994" lon="6.689887824647437"><ele>745.0</ele><time>2026-04-21T06:55:00Z</time></trkpt><trkpt lat="43.94161356235977" lon="6.689941038027414"><ele>745.0</ele><time>2026-04-21T06:55:01Z</time></trkpt><trkpt lat="43.94174669184356" lon="6.689997198145255"><ele>745.0</ele><time>2026-04-21T06:55:02Z</time></trkpt><trkpt lat="43.941902964086786" lon="6.689988450167742"><ele>745.5</ele><time>2026-04-21T06:55:03Z</time></trkpt><trkpt lat="43.942055020569576" lon="6.6899243763608505"><ele>746.0</ele><time>2026-04-21T06:55:04Z</time></trkpt><trkpt lat="43.94218955817241" lon="6.689840329375371"><ele>746.5</ele><time>2026-04-21T06:55:05Z</time></trkpt><trkpt lat="43.942317634461595" lon="6.689799881689845"><ele>747.0</ele><time>2026-04-21T06:55:06Z</time></trkpt><trkpt lat="43.942441952776015" lon="6.6897997921128125"><ele>741.75</ele><time>2026-04-21T06:55:07Z</time></trkpt><trkpt lat="43.94256241281351" lon="6.689823274980009"><ele>736.5</ele><time>2026-04-21T06:55:08Z</time></trkpt><trkpt lat="43.94269562835836" lon="6.689887534251783"><ele>731.25</ele><time>2026-04-21T06:55:09Z</time></trkpt><trkpt lat="43.94283802838092" lon="6.689997158413253"><ele>726.0</ele><time>2026-04-21T06:55:10Z</time></trkpt><trkpt lat="43.94298112945922" lon="6.69012172430825"><ele>726.0</ele><time>2026-04-21T06:55:11Z</time></trkpt><trkpt lat="43.943130290367534" lon="6.690252082198935"><ele>726.0</ele><time>2026-04-21T06:55:12Z</time></trkpt><trkpt lat="43.94327015167621" lon="6.690352342936779"><ele>726.0</ele><time>2026-04-21T06:55:13Z</time></trkpt><trkpt lat="43.94341214452059" lon="6.690417621492333"><ele>728.3333333333334</ele><time>2026-04-21T06:55:14Z</time></trkpt><trkpt lat="43.94356378968135" lon="6.690467076842736"><ele>730.6666666666667</ele><time>2026-04-21T06:55:15Z</time></trkpt><trkpt lat="43.94371735176591" lon="6.69050550838129"><ele>733.0</ele><time>2026-04-21T06:55:16Z</time></trkpt><trkpt lat="43.94388146014688" lon="6.690540052617002"><ele>733.0</ele><time>2026-04-21T06:55:17Z</time></trkpt><trkpt lat="43.94402596028105" lon="6.690564440642087"><ele>733.0</ele><time>2026-04-21T06:55:18Z</time></trkpt><trkpt lat="43.94415739882881" lon="6.690579557620955"><ele>733.0</ele><time>2026-04-21T06:55:19Z</time></trkpt><trkpt lat="43.944278740811725" lon="6.690570376527655"><ele>733.0</ele><time>2026-04-21T06:55:20Z</time></trkpt><trkpt lat="43.944390072474775" lon="6.69052180915979"><ele>733.0</ele><time>2026-04-21T06:55:21Z</time></trkpt><trkpt lat="43.94450178104707" lon="6.6904344236718885"><ele>733.0</ele><time>2026-04-21T06:55:22Z</time></trkpt><trkpt lat="43.94460323461626" lon="6.690308275033457"><ele>733.0</ele><time>2026-04-21T06:55:23Z</time></trkpt><trkpt lat="43.94469440755879" lon="6.690141670497839"><ele>733.0</ele><time>2026-04-21T06:55:24Z</time></trkpt><trkpt lat="43.94477117272624" lon="6.689960196307942"><ele>733.0</ele><time>2026-04-21T06:55:25Z</time></trkpt><trkpt lat="43.94484469918588" lon="6.689796919318794"><ele>733.0</ele><time>2026-04-21T06:55:26Z</time></trkpt><trkpt lat="43.94492980749097" lon="6.68966283690106"><ele>733.0</ele><time>2026-04-21T06:55:27Z</time></trkpt><trkpt lat="43.9450400067348" lon="6.689558518764384"><ele>733.0</ele><time>2026-04-21T06:55:28Z</time></trkpt><trkpt lat="43.94516156183793" lon="6.689493643039059"><ele>734.5</ele><time>2026-04-21T06:55:29Z</time></trkpt><trkpt lat="43.94528826450711" lon="6.689465941929617"><ele>736.0</ele><time>2026-04-21T06:55:30Z</time></trkpt><trkpt lat="43.945430240270866" lon="6.6894723709529265"><ele>737.5</ele><time>2026-04-21T06:55:31Z</time></trkpt><trkpt lat="43.945583303119" lon="6.689513977619041"><ele>739.0</ele><time>2026-04-21T06:55:32Z</time></trkpt><trkpt lat="43.94574327876404" lon="6.689560316658993"><ele>737.0</ele><time>2026-04-21T06:55:33Z</time></trkpt><trkpt lat="43.94590840393654" lon="6.689608016875083"><ele>735.0</ele><time>2026-04-21T06:55:34Z</time></trkpt><trkpt lat="43.94606623144965" lon="6.6896437755320335"><ele>733.0</ele><time>2026-04-21T06:55:35Z</time></trkpt><trkpt lat="43.9462335370196" lon="6.689655018998023"><ele>733.0</ele><time>2026-04-21T06:55:36Z</time></trkpt><trkpt lat="43.94641672025016" lon="6.689673129860021"><ele>733.0</ele><time>2026-04-21T06:55:37Z</time></trkpt><trkpt lat="43.94659892088902" lon="6.689601358890572"><ele>733.0</ele><time>2026-04-21T06:55:38Z</time></trkpt><trkpt lat="43.946787061822626" lon="6.689532450615813"><ele>739.6666666666667</ele><time>2026-04-21T06:55:39Z</time></trkpt><trkpt lat="43.94697196617016" lon="6.68944712634964"><ele>746.3333333333334</ele><time>2026-04-21T06:55:40Z</time></trkpt><trkpt lat="43.947145173918834" lon="6.689360221612994"><ele>753.0</ele><time>2026-04-21T06:55:41Z</time></trkpt><trkpt lat="43.94732601320358" lon="6.689268780360974"><ele>740.3333333333334</ele><time>2026-04-21T06:55:42Z</time></trkpt><trkpt lat="43.94751404591258" lon="6.689178836366196"><ele>727.6666666666667</ele><time>2026-04-21T06:55:43Z</time></trkpt><trkpt lat="43.947703402435536" lon="6.689086228105519"><ele>715.0</ele><time>2026-04-21T06:55:44Z</time></trkpt><trkpt lat="43.9478784891571" lon="6.688999816669113"><ele>715.0</ele><time>2026-04-21T06:55:45Z</time></trkpt><trkpt lat="43.94805015531757" lon="6.688928590462516"><ele>715.0</ele><time>2026-04-21T06:55:46Z</time></trkpt><trkpt lat="43.94823298007488" lon="6.688886533738067"><ele>715.0</ele><time>2026-04-21T06:55:47Z</time></trkpt><trkpt lat="43.9484295862258" lon="6.688870602608976"><ele>719.3333333333334</ele><time>2026-04-21T06:55:48Z</time></trkpt><trkpt lat="43.94861376611245" lon="6.688862830948921"><ele>723.6666666666666</ele><time>2026-04-21T06:55:49Z</time></trkpt><trkpt lat="43.94877020946568" lon="6.688843112319366"><ele>728.0</ele><time>2026-04-21T06:55:50Z</time></trkpt><trkpt lat="43.94891964349084" lon="6.688796293201515"><ele>728.0</ele><time>2026-04-21T06:55:51Z</time></trkpt><trkpt lat="43.94906383405888" lon="6.688718118593599"><ele>728.0</ele><time>2026-04-21T06:55:52Z</time></trkpt><trkpt lat="43.949197688550065" lon="6.688615426912108"><ele>728.0</ele><time>2026-04-21T06:55:53Z</time></trkpt><trkpt lat="43.94932394176284" lon="6.68848579232774"><ele>730.0</ele><time>2026-04-21T06:55:54Z</time></trkpt><trkpt lat="43.94943955558454" lon="6.688316236439269"><ele>732.0</ele><time>2026-04-21T06:55:55Z</time></trkpt><trkpt lat="43.949542668352116" lon="6.688121084632404"><ele>734.0</ele><time>2026-04-21T06:55:56Z</time></trkpt><trkpt lat="43.949638386787925" lon="6.687937623584947"><ele>719.6666666666666</ele><time>2026-04-21T06:55:57Z</time></trkpt><trkpt lat="43.94974074128914" lon="6.687751700022286"><ele>705.3333333333334</ele><time>2026-04-21T06:55:58Z</time></trkpt><trkpt lat="43.949845353511016" lon="6.687589498194257"><ele>691.0</ele><time>2026-04-21T06:55:59Z</time></trkpt><trkpt lat="43.94994156884731" lon="6.687463389800169"><ele>695.5</ele><time>2026-04-21T06:56:00Z</time></trkpt><trkpt lat="43.95004554411143" lon="6.687372745104294"><ele>700.0</ele><time>2026-04-21T06:56:01Z</time></trkpt><trkpt lat="43.95017239800009" lon="6.687320378697394"><ele>704.5</ele><time>2026-04-21T06:56:02Z</time></trkpt><trkpt lat="43.95032354164096" lon="6.687310290293255"><ele>709.0</ele><time>2026-04-21T06:56:03Z</time></trkpt><trkpt lat="43.950486129913976" lon="6.6872898358813355"><ele>709.0</ele><time>2026-04-21T06:56:04Z</time></trkpt><trkpt lat="43.95066062700074" lon="6.687278499858547"><ele>709.0</ele><time>2026-04-21T06:56:05Z</time></trkpt><trkpt lat="43.9508369778428" lon="6.687264267721662"><ele>709.0</ele><time>2026-04-21T06:56:06Z</time></trkpt><trkpt lat="43.95099909553826" lon="6.687250423452962"><ele>716.0</ele><time>2026-04-21T06:56:07Z</time></trkpt><trkpt lat="43.95115586153426" lon="6.687213138453011"><ele>723.0</ele><time>2026-04-21T06:56:08Z</time></trkpt><trkpt lat="43.95130520592088" lon="6.687137979863058"><ele>730.0</ele><time>2026-04-21T06:56:09Z</time></trkpt><trkpt lat="43.95145394686503" lon="6.687035322660964"><ele>730.0</ele><time>2026-04-21T06:56:10Z</time></trkpt><trkpt lat="43.95159748839584" lon="6.686934235905212"><ele>730.0</ele><time>2026-04-21T06:56:11Z</time></trkpt><trkpt lat="43.95172164715569" lon="6.686816981947053"><ele>730.0</ele><time>2026-04-21T06:56:12Z</time></trkpt><trkpt lat="43.95182435586654" lon="6.686669991719928"><ele>732.0</ele><time>2026-04-21T06:56:13Z</time></trkpt><trkpt lat="43.95191798097035" lon="6.68648343560896"><ele>734.0</ele><time>2026-04-21T06:56:14Z</time></trkpt><trkpt lat="43.9520016121378" lon="6.6862766673227"><ele>736.0</ele><time>2026-04-21T06:56:15Z</time></trkpt><trkpt lat="43.952059080534994" lon="6.686060733436173"><ele>729.25</ele><time>2026-04-21T06:56:16Z</time></trkpt><trkpt lat="43.95209106335761" lon="6.685860983766252"><ele>722.5</ele><time>2026-04-21T06:56:17Z</time></trkpt><trkpt lat="43.95211195280308" lon="6.685698640601789"><ele>715.75</ele><time>2026-04-21T06:56:18Z</time></trkpt><trkpt lat="43.95214798097654" lon="6.685547954035582"><ele>709.0</ele><time>2026-04-21T06:56:19Z</time></trkpt><trkpt lat="43.952214902422256" lon="6.685428239896605"><ele>709.0</ele><time>2026-04-21T06:56:20Z</time></trkpt><trkpt lat="43.95231524065479" lon="6.685337468841795"><ele>709.0</ele><time>2026-04-21T06:56:21Z</time></trkpt><trkpt lat="43.952450893521714" lon="6.685277556854823"><ele>709.0</ele><time>2026-04-21T06:56:22Z</time></trkpt><trkpt lat="43.9525986748963" lon="6.685221573673771"><ele>709.0</ele><time>2026-04-21T06:56:23Z</time></trkpt><trkpt lat="43.95273661624678" lon="6.6851616985373346"><ele>702.5</ele><time>2026-04-21T06:56:24Z</time></trkpt><trkpt lat="43.95286547288349" lon="6.68507327441308"><ele>696.0</ele><time>2026-04-21T06:56:25Z</time></trkpt><trkpt lat="43.95298949590612" lon="6.684941173516661"><ele>689.5</ele><time>2026-04-21T06:56:26Z</time></trkpt><trkpt lat="43.95309121229401" lon="6.68480669191796"><ele>683.0</ele><time>2026-04-21T06:56:27Z</time></trkpt><trkpt lat="43.953175740719324" lon="6.684681508854585"><ele>683.0</ele><time>2026-04-21T06:56:28Z</time></trkpt><trkpt lat="43.953272074325504" lon="6.684608499652065"><ele>683.0</ele><time>2026-04-21T06:56:29Z</time></trkpt><trkpt lat="43.95337745528727" lon="6.684587449940391"><ele>683.0</ele><time>2026-04-21T06:56:30Z</time></trkpt><trkpt lat="43.95350606909319" lon="6.684618596805328"><ele>683.0</ele><time>2026-04-21T06:56:31Z</time></trkpt><trkpt lat="43.95364377401602" lon="6.684676328075931"><ele>680.0</ele><time>2026-04-21T06:56:32Z</time></trkpt><trkpt lat="43.95377450041157" lon="6.6847372199289925"><ele>677.0</ele><time>2026-04-21T06:56:33Z</time></trkpt><trkpt lat="43.95394504888851" lon="6.684757007049983"><ele>674.0</ele><time>2026-04-21T06:56:34Z</time></trkpt><trkpt lat="43.95410012167964" lon="6.684783116665316"><ele>671.0</ele><time>2026-04-21T06:56:35Z</time></trkpt><trkpt lat="43.954262825377945" lon="6.684774145053755"><ele>668.0</ele><time>2026-04-21T06:56:36Z</time></trkpt><trkpt lat="43.95440197145477" lon="6.684728659087442"><ele>665.0</ele><time>2026-04-21T06:56:37Z</time></trkpt><trkpt lat="43.95452215957954" lon="6.684694083110987"><ele>662.0</ele><time>2026-04-21T06:56:38Z</time></trkpt><trkpt lat="43.95462617056136" lon="6.684697386329028"><ele>662.0</ele><time>2026-04-21T06:56:39Z</time></trkpt><trkpt lat="43.954709488532764" lon="6.684784361734645"><ele>662.0</ele><time>2026-04-21T06:56:40Z</time></trkpt><trkpt lat="43.95477900409697" lon="6.684896329805967"><ele>662.0</ele><time>2026-04-21T06:56:41Z</time></trkpt><trkpt lat="43.954858383365185" lon="6.685061984972392"><ele>662.0</ele><time>2026-04-21T06:56:42Z</time></trkpt><trkpt lat="43.954951981597326" lon="6.685240573368969"><ele>660.3333333333333</ele><time>2026-04-21T06:56:43Z</time></trkpt><trkpt lat="43.95503978014142" lon="6.6854427064724025"><ele>658.6666666666666</ele><time>2026-04-21T06:56:44Z</time></trkpt><trkpt lat="43.95513157731541" lon="6.685661271632685"><ele>657.0</ele><time>2026-04-21T06:56:45Z</time></trkpt><trkpt lat="43.95522641146648" lon="6.68587532205393"><ele>657.0</ele><time>2026-04-21T06:56:46Z</time></trkpt><trkpt lat="43.95531861575534" lon="6.686068802103226"><ele>657.0</ele><time>2026-04-21T06:56:47Z</time></trkpt><trkpt lat="43.955399720517235" lon="6.686242550493232"><ele>657.0</ele><time>2026-04-21T06:56:48Z</time></trkpt><trkpt lat="43.955456294084364" lon="6.686381541098131"><ele>657.0</ele><time>2026-04-21T06:56:49Z</time></trkpt><trkpt lat="43.95551178496326" lon="6.686460363208747"><ele>657.4000000000001</ele><time>2026-04-21T06:56:50Z</time></trkpt><trkpt lat="43.95557963094577" lon="6.686506919863391"><ele>657.8000000000001</ele><time>2026-04-21T06:56:51Z</time></trkpt><trkpt lat="43.955665417161285" lon="6.686507180144542"><ele>658.2</ele><time>2026-04-21T06:56:52Z</time></trkpt><trkpt lat="43.95574495915539" lon="6.686511066070369"><ele>658.6</ele><time>2026-04-21T06:56:53Z</time></trkpt><trkpt lat="43.95582219847571" lon="6.68658251648784"><ele>659.0</ele><time>2026-04-21T06:56:55Z</time></trkpt><trkpt lat="43.95582778293421" lon="6.686755958633752"><ele>659.0</ele><time>2026-04-21T06:56:57Z</time></trkpt><trkpt lat="43.95582701180243" lon="6.686883195545994"><ele>659.0</ele><time>2026-04-21T06:56:58Z</time></trkpt><trkpt lat="43.95584228303419" lon="6.68702418308008"><ele>659.0</ele><time>2026-04-21T06:56:59Z</time></trkpt><trkpt lat="43.955835192088664" lon="6.687194375688972"><ele>659.0</ele><time>2026-04-21T06:57:00Z</time></trkpt><trkpt lat="43.95584183495988" lon="6.687377891158629"><ele>659.0</ele><time>2026-04-21T06:57:01Z</time></trkpt><trkpt lat="43.955869164010124" lon="6.68752962403113"><ele>661.0</ele><time>2026-04-21T06:57:02Z</time></trkpt><trkpt lat="43.95592771009869" lon="6.687702792967654"><ele>663.0</ele><time>2026-04-21T06:57:03Z</time></trkpt><trkpt lat="43.95602548934181" lon="6.687878360244538"><ele>665.0</ele><time>2026-04-21T06:57:04Z</time></trkpt><trkpt lat="43.956130307555135" lon="6.68804561475689"><ele>665.0</ele><time>2026-04-21T06:57:05Z</time></trkpt><trkpt lat="43.956246784150856" lon="6.688228715552894"><ele>665.0</ele><time>2026-04-21T06:57:06Z</time></trkpt><trkpt lat="43.95636235756526" lon="6.688425467631152"><ele>665.0</ele><time>2026-04-21T06:57:07Z</time></trkpt><trkpt lat="43.956474092063644" lon="6.688628088278936"><ele>663.3333333333333</ele><time>2026-04-21T06:57:08Z</time></trkpt><trkpt lat="43.95658437287606" lon="6.688839289268995"><ele>661.6666666666666</ele><time>2026-04-21T06:57:09Z</time></trkpt><trkpt lat="43.956692002577405" lon="6.689071408189782"><ele>660.0</ele><time>2026-04-21T06:57:10Z</time></trkpt><trkpt lat="43.956795626199245" lon="6.689311089650875"><ele>665.3333333333334</ele><time>2026-04-21T06:57:11Z</time></trkpt><trkpt lat="43.956905623016894" lon="6.689565706854224"><ele>670.6666666666667</ele><time>2026-04-21T06:57:12Z</time></trkpt><trkpt lat="43.95702019939289" lon="6.689824634588536"><ele>676.0</ele><time>2026-04-21T06:57:13Z</time></trkpt><trkpt lat="43.957135793296864" lon="6.690086619281111"><ele>673.0</ele><time>2026-04-21T06:57:14Z</time></trkpt><trkpt lat="43.95724931687369" lon="6.690348962197491"><ele>670.0</ele><time>2026-04-21T06:57:15Z</time></trkpt><trkpt lat="43.95736023655389" lon="6.690612853691606"><ele>667.0</ele><time>2026-04-21T06:57:16Z</time></trkpt><trkpt lat="43.95746603958785" lon="6.690862251395211"><ele>676.6666666666667</ele><time>2026-04-21T06:57:17Z</time></trkpt><trkpt lat="43.957558796901886" lon="6.69108721462934"><ele>686.3333333333334</ele><time>2026-04-21T06:57:18Z</time></trkpt><trkpt lat="43.95763168849729" lon="6.691286597873964"><ele>696.0</ele><time>2026-04-21T06:57:19Z</time></trkpt><trkpt lat="43.95765797204598" lon="6.691514793333608"><ele>697.3333333333334</ele><time>2026-04-21T06:57:20Z</time></trkpt><trkpt lat="43.95768413657736" lon="6.691770085566236"><ele>698.6666666666667</ele><time>2026-04-21T06:57:21Z</time></trkpt><trkpt lat="43.95771610413039" lon="6.692035324958048"><ele>700.0</ele><time>2026-04-21T06:57:22Z</time></trkpt><trkpt lat="43.957742945146016" lon="6.692303862323567"><ele>694.0</ele><time>2026-04-21T06:57:23Z</time></trkpt><trkpt lat="43.957777245532355" lon="6.692571247312107"><ele>688.0</ele><time>2026-04-21T06:57:24Z</time></trkpt><trkpt lat="43.95783550234112" lon="6.692840625765261"><ele>682.0</ele><time>2026-04-21T06:57:25Z</time></trkpt><trkpt lat="43.95789321861417" lon="6.69312224037967"><ele>676.3333333333334</ele><time>2026-04-21T06:57:26Z</time></trkpt><trkpt lat="43.9579604906449" lon="6.693402165140615"><ele>670.6666666666666</ele><time>2026-04-21T06:57:27Z</time></trkpt><trkpt lat="43.95803297330378" lon="6.693662430732092"><ele>665.0</ele><time>2026-04-21T06:57:28Z</time></trkpt><trkpt lat="43.95810644316165" lon="6.693907512502841"><ele>658.3333333333333</ele><time>2026-04-21T06:57:29Z</time></trkpt><trkpt lat="43.95817740630516" lon="6.69414140457825"><ele>651.6666666666666</ele><time>2026-04-21T06:57:30Z</time></trkpt><trkpt lat="43.95823653803742" lon="6.694360531778104"><ele>645.0</ele><time>2026-04-21T06:57:31Z</time></trkpt><trkpt lat="43.95828788855351" lon="6.694562639192935"><ele>642.25</ele><time>2026-04-21T06:57:32Z</time></trkpt><trkpt lat="43.958321199207845" lon="6.694741045847544"><ele>639.5</ele><time>2026-04-21T06:57:33Z</time></trkpt><trkpt lat="43.95832444317403" lon="6.6949166410983105"><ele>636.75</ele><time>2026-04-21T06:57:34Z</time></trkpt><trkpt lat="43.95829990900517" lon="6.695109355611065"><ele>634.0</ele><time>2026-04-21T06:57:35Z</time></trkpt><trkpt lat="43.95824991774857" lon="6.695316292760167"><ele>634.0</ele><time>2026-04-21T06:57:36Z</time></trkpt><trkpt lat="43.95817660204164" lon="6.69552783074151"><ele>634.0</ele><time>2026-04-21T06:57:37Z</time></trkpt><trkpt lat="43.95809937301719" lon="6.695745813360523"><ele>634.0</ele><time>2026-04-21T06:57:38Z</time></trkpt><trkpt lat="43.958027512561124" lon="6.695964782823712"><ele>631.3333333333334</ele><time>2026-04-21T06:57:39Z</time></trkpt><trkpt lat="43.95793883893437" lon="6.69617046154803"><ele>628.6666666666666</ele><time>2026-04-21T06:57:40Z</time></trkpt><trkpt lat="43.95787750927809" lon="6.696388554851864"><ele>626.0</ele><time>2026-04-21T06:57:41Z</time></trkpt><trkpt lat="43.95779581303636" lon="6.696608788867283"><ele>626.0</ele><time>2026-04-21T06:57:42Z</time></trkpt><trkpt lat="43.9577255183728" lon="6.6968543711688735"><ele>626.0</ele><time>2026-04-21T06:57:43Z</time></trkpt><trkpt lat="43.95766949126972" lon="6.697113068042816"><ele>626.0</ele><time>2026-04-21T06:57:44Z</time></trkpt><trkpt lat="43.957621735996334" lon="6.697359471097038"><ele>628.3333333333333</ele><time>2026-04-21T06:57:45Z</time></trkpt><trkpt lat="43.95758452442001" lon="6.697596834530055"><ele>630.6666666666666</ele><time>2026-04-21T06:57:46Z</time></trkpt><trkpt lat="43.9575465410691" lon="6.6978361773462405"><ele>633.0</ele><time>2026-04-21T06:57:47Z</time></trkpt><trkpt lat="43.957502027503374" lon="6.698091867008258"><ele>627.6666666666666</ele><time>2026-04-21T06:57:48Z</time></trkpt><trkpt lat="43.957459768166046" lon="6.698353170601932"><ele>622.3333333333333</ele><time>2026-04-21T06:57:49Z</time></trkpt><trkpt lat="43.95742269106161" lon="6.698600336463111"><ele>617.0</ele><time>2026-04-21T06:57:50Z</time></trkpt><trkpt lat="43.95739025051408" lon="6.698844188469037"><ele>615.6666666666666</ele><time>2026-04-21T06:57:51Z</time></trkpt><trkpt lat="43.95737868552202" lon="6.699091708461619"><ele>614.3333333333334</ele><time>2026-04-21T06:57:52Z</time></trkpt><trkpt lat="43.957383496220636" lon="6.699350656034674"><ele>613.0</ele><time>2026-04-21T06:57:53Z</time></trkpt><trkpt lat="43.95739977841801" lon="6.699621609716891"><ele>613.0</ele><time>2026-04-21T06:57:54Z</time></trkpt><trkpt lat="43.95742002985856" lon="6.699898348261059"><ele>613.0</ele><time>2026-04-21T06:57:55Z</time></trkpt><trkpt lat="43.95743379085736" lon="6.700160873396993"><ele>613.0</ele><time>2026-04-21T06:57:56Z</time></trkpt><trkpt lat="43.957441825477886" lon="6.700421787514666"><ele>613.3333333333334</ele><time>2026-04-21T06:57:57Z</time></trkpt><trkpt lat="43.957459175480366" lon="6.70069625643142"><ele>613.6666666666666</ele><time>2026-04-21T06:57:58Z</time></trkpt><trkpt lat="43.957483672460945" lon="6.700962749148857"><ele>614.0</ele><time>2026-04-21T06:57:59Z</time></trkpt><trkpt lat="43.95751245308026" lon="6.701221501935833"><ele>616.6666666666666</ele><time>2026-04-21T06:58:00Z</time></trkpt><trkpt lat="43.95755017435627" lon="6.701481371747106"><ele>619.3333333333334</ele><time>2026-04-21T06:58:01Z</time></trkpt><trkpt lat="43.95759578430377" lon="6.70174171509899"><ele>622.0</ele><time>2026-04-21T06:58:02Z</time></trkpt><trkpt lat="43.95765041223834" lon="6.70199361624591"><ele>622.0</ele><time>2026-04-21T06:58:03Z</time></trkpt><trkpt lat="43.957724431992084" lon="6.70224181807853"><ele>622.0</ele><time>2026-04-21T06:58:04Z</time></trkpt><trkpt lat="43.95781368597491" lon="6.702493798049407"><ele>622.0</ele><time>2026-04-21T06:58:05Z</time></trkpt><trkpt lat="43.95791111177775" lon="6.702734003863345"><ele>618.6666666666667</ele><time>2026-04-21T06:58:06Z</time></trkpt><trkpt lat="43.958003536834504" lon="6.70295874841533"><ele>615.3333333333334</ele><time>2026-04-21T06:58:07Z</time></trkpt><trkpt lat="43.958095111701915" lon="6.703178973553623"><ele>612.0</ele><time>2026-04-21T06:58:08Z</time></trkpt><trkpt lat="43.9581805305574" lon="6.703404455797986"><ele>610.6666666666666</ele><time>2026-04-21T06:58:09Z</time></trkpt><trkpt lat="43.95826304424774" lon="6.703629893358816"><ele>609.3333333333333</ele><time>2026-04-21T06:58:10Z</time></trkpt><trkpt lat="43.958339188831836" lon="6.703853950334044"><ele>608.0</ele><time>2026-04-21T06:58:11Z</time></trkpt><trkpt lat="43.95840083188305" lon="6.704071371898753"><ele>609.6666666666666</ele><time>2026-04-21T06:58:12Z</time></trkpt><trkpt lat="43.958444864925234" lon="6.7042842272894045"><ele>611.3333333333334</ele><time>2026-04-21T06:58:13Z</time></trkpt><trkpt lat="43.95846615286491" lon="6.704508306085398"><ele>613.0</ele><time>2026-04-21T06:58:14Z</time></trkpt><trkpt lat="43.958478643849446" lon="6.704755754713923"><ele>613.0</ele><time>2026-04-21T06:58:15Z</time></trkpt><trkpt lat="43.95850197345654" lon="6.705002410557646"><ele>613.0</ele><time>2026-04-21T06:58:16Z</time></trkpt><trkpt lat="43.958529247366315" lon="6.7052317273775595"><ele>613.0</ele><time>2026-04-21T06:58:17Z</time></trkpt><trkpt lat="43.958553403259096" lon="6.705444510618562"><ele>613.3333333333334</ele><time>2026-04-21T06:58:18Z</time></trkpt><trkpt lat="43.958574135105366" lon="6.705648172179272"><ele>613.6666666666666</ele><time>2026-04-21T06:58:19Z</time></trkpt><trkpt lat="43.95860257600635" lon="6.705846248044676"><ele>614.0</ele><time>2026-04-21T06:58:20Z</time></trkpt><trkpt lat="43.9586389256235" lon="6.706057782902742"><ele>612.3333333333333</ele><time>2026-04-21T06:58:21Z</time></trkpt><trkpt lat="43.95868069533996" lon="6.70628679589279"><ele>610.6666666666666</ele><time>2026-04-21T06:58:22Z</time></trkpt><trkpt lat="43.95873107236509" lon="6.706530741693262"><ele>609.0</ele><time>2026-04-21T06:58:23Z</time></trkpt><trkpt lat="43.95878021867575" lon="6.706782043853116"><ele>608.3333333333334</ele><time>2026-04-21T06:58:24Z</time></trkpt><trkpt lat="43.95882804281992" lon="6.707037724910292"><ele>607.6666666666667</ele><time>2026-04-21T06:58:25Z</time></trkpt><trkpt lat="43.95887642109022" lon="6.707276772941189"><ele>607.0</ele><time>2026-04-21T06:58:26Z</time></trkpt><trkpt lat="43.95892820046808" lon="6.707511999633395"><ele>607.0</ele><time>2026-04-21T06:58:27Z</time></trkpt><trkpt lat="43.95898310052335" lon="6.707731322920535"><ele>607.0</ele><time>2026-04-21T06:58:28Z</time></trkpt><trkpt lat="43.95903623973285" lon="6.70793890107618"><ele>607.0</ele><time>2026-04-21T06:58:29Z</time></trkpt><trkpt lat="43.95908107076156" lon="6.708138996013509"><ele>605.3333333333334</ele><time>2026-04-21T06:58:30Z</time></trkpt><trkpt lat="43.959117051485855" lon="6.708333558351114"><ele>603.6666666666666</ele><time>2026-04-21T06:58:31Z</time></trkpt><trkpt lat="43.959154162548415" lon="6.708537574920748"><ele>602.0</ele><time>2026-04-21T06:58:32Z</time></trkpt><trkpt lat="43.9591986501466" lon="6.70875481906637"><ele>604.3333333333333</ele><time>2026-04-21T06:58:33Z</time></trkpt><trkpt lat="43.9592469014627" lon="6.708981575550404"><ele>606.6666666666666</ele><time>2026-04-21T06:58:34Z</time></trkpt><trkpt lat="43.95929314375004" lon="6.709212469171523"><ele>609.0</ele><time>2026-04-21T06:58:35Z</time></trkpt><trkpt lat="43.959342860856324" lon="6.709442084114923"><ele>609.0</ele><time>2026-04-21T06:58:36Z</time></trkpt><trkpt lat="43.95939537725413" lon="6.709667892211259"><ele>609.0</ele><time>2026-04-21T06:58:37Z</time></trkpt><trkpt lat="43.95944617297734" lon="6.709884790936697"><ele>609.0</ele><time>2026-04-21T06:58:38Z</time></trkpt><trkpt lat="43.95949363509101" lon="6.710088379850818"><ele>607.5</ele><time>2026-04-21T06:58:39Z</time></trkpt><trkpt lat="43.95953685251761" lon="6.710283878596412"><ele>606.0</ele><time>2026-04-21T06:58:40Z</time></trkpt><trkpt lat="43.959576595956875" lon="6.710471820127356"><ele>604.5</ele><time>2026-04-21T06:58:41Z</time></trkpt><trkpt lat="43.95961019664729" lon="6.710645533046069"><ele>603.0</ele><time>2026-04-21T06:58:42Z</time></trkpt><trkpt lat="43.959627860133125" lon="6.710804095178507"><ele>603.0</ele><time>2026-04-21T06:58:43Z</time></trkpt><trkpt lat="43.959628503059115" lon="6.710969206129078"><ele>603.0</ele><time>2026-04-21T06:58:44Z</time></trkpt><trkpt lat="43.95961088950463" lon="6.711158960821709"><ele>603.0</ele><time>2026-04-21T06:58:45Z</time></trkpt><trkpt lat="43.95957741701116" lon="6.711358534898314"><ele>603.0</ele><time>2026-04-21T06:58:46Z</time></trkpt><trkpt lat="43.95953528640082" lon="6.711568189393107"><ele>603.75</ele><time>2026-04-21T06:58:47Z</time></trkpt><trkpt lat="43.95949586904129" lon="6.711762770299132"><ele>604.5</ele><time>2026-04-21T06:58:48Z</time></trkpt><trkpt lat="43.95945620430551" lon="6.711943175880273"><ele>605.25</ele><time>2026-04-21T06:58:49Z</time></trkpt><trkpt lat="43.95942197310246" lon="6.712116299448458"><ele>606.0</ele><time>2026-04-21T06:58:50Z</time></trkpt><trkpt lat="43.959392478230576" lon="6.71229069606533"><ele>607.0</ele><time>2026-04-21T06:58:51Z</time></trkpt><trkpt lat="43.959367567632654" lon="6.712463972750779"><ele>608.0</ele><time>2026-04-21T06:58:52Z</time></trkpt><trkpt lat="43.959336911742746" lon="6.712629528387489"><ele>609.0</ele><time>2026-04-21T06:58:53Z</time></trkpt><trkpt lat="43.959325085582236" lon="6.712795650178571"><ele>610.0</ele><time>2026-04-21T06:58:54Z</time></trkpt><trkpt lat="43.95931160826511" lon="6.7129607608732975"><ele>610.25</ele><time>2026-04-21T06:58:55Z</time></trkpt><trkpt lat="43.95930356845785" lon="6.7131556025451875"><ele>610.5</ele><time>2026-04-21T06:58:56Z</time></trkpt><trkpt lat="43.95929205543043" lon="6.713366966570222"><ele>610.75</ele><time>2026-04-21T06:58:57Z</time></trkpt><trkpt lat="43.959278201025775" lon="6.713575618852577"><ele>611.0</ele><time>2026-04-21T06:58:58Z</time></trkpt><trkpt lat="43.95927197912004" lon="6.713783399214553"><ele>611.5</ele><time>2026-04-21T06:58:59Z</time></trkpt><trkpt lat="43.9592683455565" lon="6.713982913047273"><ele>612.0</ele><time>2026-04-21T06:59:00Z</time></trkpt><trkpt lat="43.95927310685926" lon="6.714176218605082"><ele>612.5</ele><time>2026-04-21T06:59:01Z</time></trkpt><trkpt lat="43.959298526861716" lon="6.714382945385917"><ele>613.0</ele><time>2026-04-21T06:59:02Z</time></trkpt><trkpt lat="43.959352077944864" lon="6.714592096984839"><ele>611.6666666666667</ele><time>2026-04-21T06:59:03Z</time></trkpt><trkpt lat="43.95941761639967" lon="6.714806066345963"><ele>610.3333333333334</ele><time>2026-04-21T06:59:04Z</time></trkpt><trkpt lat="43.959477731458996" lon="6.715040761755109"><ele>609.0</ele><time>2026-04-21T06:59:05Z</time></trkpt><trkpt lat="43.9595227870724" lon="6.715283406217894"><ele>606.6666666666666</ele><time>2026-04-21T06:59:06Z</time></trkpt><trkpt lat="43.95955818086623" lon="6.715533923673116"><ele>604.3333333333333</ele><time>2026-04-21T06:59:07Z</time></trkpt><trkpt lat="43.95959174499246" lon="6.715792464324262"><ele>602.0</ele><time>2026-04-21T06:59:08Z</time></trkpt><trkpt lat="43.95961749417178" lon="6.716044321202443"><ele>602.3333333333333</ele><time>2026-04-21T06:59:09Z</time></trkpt><trkpt lat="43.95962002747078" lon="6.716309947375657"><ele>602.6666666666666</ele><time>2026-04-21T06:59:10Z</time></trkpt><trkpt lat="43.95961289053286" lon="6.716585334881406"><ele>603.0</ele><time>2026-04-21T06:59:11Z</time></trkpt><trkpt lat="43.959611773118795" lon="6.716850805160013"><ele>604.0</ele><time>2026-04-21T06:59:12Z</time></trkpt><trkpt lat="43.95961765881617" lon="6.717099033095704"><ele>605.0</ele><time>2026-04-21T06:59:13Z</time></trkpt><trkpt lat="43.959627964292864" lon="6.717334756973524"><ele>606.0</ele><time>2026-04-21T06:59:14Z</time></trkpt><trkpt lat="43.95963068470388" lon="6.717578369842744"><ele>607.6666666666666</ele><time>2026-04-21T06:59:15Z</time></trkpt><trkpt lat="43.9596161279753" lon="6.717835508503288"><ele>609.3333333333333</ele><time>2026-04-21T06:59:16Z</time></trkpt><trkpt lat="43.959580506106256" lon="6.71809667112482"><ele>611.0</ele><time>2026-04-21T06:59:17Z</time></trkpt><trkpt lat="43.95953998990803" lon="6.718361483009207"><ele>610.3333333333333</ele><time>2026-04-21T06:59:18Z</time></trkpt><trkpt lat="43.95949917275069" lon="6.718619046057122"><ele>609.6666666666666</ele><time>2026-04-21T06:59:19Z</time></trkpt><trkpt lat="43.95946031582893" lon="6.7188578639211425"><ele>609.0</ele><time>2026-04-21T06:59:20Z</time></trkpt><trkpt lat="43.95942201484932" lon="6.719084304220361"><ele>609.0</ele><time>2026-04-21T06:59:21Z</time></trkpt><trkpt lat="43.959387301065725" lon="6.719300240275819"><ele>609.0</ele><time>2026-04-21T06:59:22Z</time></trkpt><trkpt lat="43.95936063841696" lon="6.719507856702559"><ele>609.0</ele><time>2026-04-21T06:59:23Z</time></trkpt><trkpt lat="43.95934841410067" lon="6.719720192338678"><ele>607.0</ele><time>2026-04-21T06:59:24Z</time></trkpt><trkpt lat="43.95934667830912" lon="6.719947603606961"><ele>605.0</ele><time>2026-04-21T06:59:25Z</time></trkpt><trkpt lat="43.95935690958292" lon="6.720183495680535"><ele>603.0</ele><time>2026-04-21T06:59:26Z</time></trkpt><trkpt lat="43.959371643258066" lon="6.720425012582877"><ele>601.6666666666666</ele><time>2026-04-21T06:59:27Z</time></trkpt><trkpt lat="43.959382004632175" lon="6.720666869688946"><ele>600.3333333333333</ele><time>2026-04-21T06:59:28Z</time></trkpt><trkpt lat="43.9593879398209" lon="6.720912991020835"><ele>599.0</ele><time>2026-04-21T06:59:29Z</time></trkpt><trkpt lat="43.9593991869862" lon="6.7211593051039085"><ele>598.0</ele><time>2026-04-21T06:59:30Z</time></trkpt><trkpt lat="43.95941389223192" lon="6.721401466674695"><ele>597.0</ele><time>2026-04-21T06:59:31Z</time></trkpt><trkpt lat="43.95942850993841" lon="6.7216298479975585"><ele>596.0</ele><time>2026-04-21T06:59:32Z</time></trkpt><trkpt lat="43.959450694068465" lon="6.721854049502591"><ele>594.3333333333333</ele><time>2026-04-21T06:59:33Z</time></trkpt><trkpt lat="43.95948397128748" lon="6.722076437638279"><ele>592.6666666666666</ele><time>2026-04-21T06:59:34Z</time></trkpt><trkpt lat="43.959522024280886" lon="6.722289794419851"><ele>591.0</ele><time>2026-04-21T06:59:35Z</time></trkpt><trkpt lat="43.95956311865606" lon="6.722490618870509"><ele>591.0</ele><time>2026-04-21T06:59:36Z</time></trkpt><trkpt lat="43.95960668743552" lon="6.722681791932803"><ele>591.0</ele><time>2026-04-21T06:59:37Z</time></trkpt><trkpt lat="43.95965067934819" lon="6.722864387895804"><ele>591.0</ele><time>2026-04-21T06:59:38Z</time></trkpt><trkpt lat="43.9596939508069" lon="6.723042583288941"><ele>591.0</ele><time>2026-04-21T06:59:39Z</time></trkpt><trkpt lat="43.95973659113247" lon="6.7232209158457525"><ele>589.75</ele><time>2026-04-21T06:59:40Z</time></trkpt><trkpt lat="43.95978057121092" lon="6.7233976194037535"><ele>588.5</ele><time>2026-04-21T06:59:41Z</time></trkpt><trkpt lat="43.959823611663865" lon="6.723572354242835"><ele>587.25</ele><time>2026-04-21T06:59:42Z</time></trkpt><trkpt lat="43.95986333852703" lon="6.723748027606734"><ele>586.0</ele><time>2026-04-21T06:59:43Z</time></trkpt><trkpt lat="43.959901813991706" lon="6.7239225601172965"><ele>584.75</ele><time>2026-04-21T06:59:44Z</time></trkpt><trkpt lat="43.959933147196686" lon="6.724094740827962"><ele>583.5</ele><time>2026-04-21T06:59:45Z</time></trkpt><trkpt lat="43.9599522913156" lon="6.7242609478413335"><ele>582.25</ele><time>2026-04-21T06:59:46Z</time></trkpt><trkpt lat="43.95996542027474" lon="6.724422739401554"><ele>581.0</ele><time>2026-04-21T06:59:47Z</time></trkpt><trkpt lat="43.95997316499346" lon="6.72458124935995"><ele>580.5</ele><time>2026-04-21T06:59:48Z</time></trkpt><trkpt lat="43.9599779998978" lon="6.724752978832949"><ele>580.0</ele><time>2026-04-21T06:59:49Z</time></trkpt><trkpt lat="43.95997711274176" lon="6.724941007089942"><ele>579.5</ele><time>2026-04-21T06:59:50Z</time></trkpt><trkpt lat="43.95997592044411" lon="6.7251504201086245"><ele>579.0</ele><time>2026-04-21T06:59:51Z</time></trkpt><trkpt lat="43.95997488662595" lon="6.725380367418407"><ele>578.6666666666666</ele><time>2026-04-21T06:59:52Z</time></trkpt><trkpt lat="43.95997094080233" lon="6.725620517795576"><ele>578.3333333333333</ele><time>2026-04-21T06:59:53Z</time></trkpt><trkpt lat="43.959966382468835" lon="6.725869315349774"><ele>578.0</ele><time>2026-04-21T06:59:54Z</time></trkpt><trkpt lat="43.959959658622836" lon="6.726121948281833"><ele>577.6666666666666</ele><time>2026-04-21T06:59:55Z</time></trkpt><trkpt lat="43.959954850632755" lon="6.726360402056956"><ele>577.3333333333334</ele><time>2026-04-21T06:59:56Z</time></trkpt><trkpt lat="43.95994544505927" lon="6.726590493810959"><ele>577.0</ele><time>2026-04-21T06:59:57Z</time></trkpt><trkpt lat="43.95994203558256" lon="6.726842029164644"><ele>577.0</ele><time>2026-04-21T06:59:58Z</time></trkpt><trkpt lat="43.959936983283185" lon="6.727095737597785"><ele>577.0</ele><time>2026-04-21T06:59:59Z</time></trkpt><trkpt lat="43.95991683528487" lon="6.727363184060471"><ele>577.0</ele><time>2026-04-21T07:00:00Z</time></trkpt><trkpt lat="43.95988049838445" lon="6.727628699475215"><ele>577.3333333333334</ele><time>2026-04-21T07:00:01Z</time></trkpt><trkpt lat="43.9598296773373" lon="6.727901757801298"><ele>577.6666666666666</ele><time>2026-04-21T07:00:02Z</time></trkpt><trkpt lat="43.95977733338694" lon="6.728179625446687"><ele>578.0</ele><time>2026-04-21T07:00:03Z</time></trkpt><trkpt lat="43.9597249585997" lon="6.728436536728501"><ele>577.3333333333333</ele><time>2026-04-21T07:00:04Z</time></trkpt><trkpt lat="43.95967864719017" lon="6.728682843321133"><ele>576.6666666666666</ele><time>2026-04-21T07:00:05Z</time></trkpt><trkpt lat="43.95963173176128" lon="6.728939039447113"><ele>576.0</ele><time>2026-04-21T07:00:06Z</time></trkpt><trkpt lat="43.95958023760843" lon="6.72920506974616"><ele>576.0</ele><time>2026-04-21T07:00:07Z</time></trkpt><trkpt lat="43.95952863442783" lon="6.7294772039537785"><ele>576.0</ele><time>2026-04-21T07:00:08Z</time></trkpt><trkpt lat="43.95947594796965" lon="6.729756170164993"><ele>576.0</ele><time>2026-04-21T07:00:09Z</time></trkpt><trkpt lat="43.95942357952546" lon="6.730034347251265"><ele>575.6666666666666</ele><time>2026-04-21T07:00:10Z</time></trkpt><trkpt lat="43.95937439913145" lon="6.73029305779197"><ele>575.3333333333333</ele><time>2026-04-21T07:00:11Z</time></trkpt><trkpt lat="43.95932994760919" lon="6.7305493298954415"><ele>575.0</ele><time>2026-04-21T07:00:12Z</time></trkpt><trkpt lat="43.959284847247936" lon="6.730819052980121"><ele>575.6666666666666</ele><time>2026-04-21T07:00:13Z</time></trkpt><trkpt lat="43.95923790798549" lon="6.731093082341942"><ele>576.3333333333334</ele><time>2026-04-21T07:00:14Z</time></trkpt><trkpt lat="43.95919513126743" lon="6.731365917399011"><ele>577.0</ele><time>2026-04-21T07:00:15Z</time></trkpt><trkpt lat="43.95915375709039" lon="6.731634985509104"><ele>576.3333333333334</ele><time>2026-04-21T07:00:16Z</time></trkpt><trkpt lat="43.9591096772387" lon="6.73191595460172"><ele>575.6666666666666</ele><time>2026-04-21T07:00:17Z</time></trkpt><trkpt lat="43.95906577354913" lon="6.73218278390827"><ele>575.0</ele><time>2026-04-21T07:00:18Z</time></trkpt><trkpt lat="43.95901875102697" lon="6.732452838478426"><ele>575.0</ele><time>2026-04-21T07:00:19Z</time></trkpt><trkpt lat="43.95897578238978" lon="6.7327188951601835"><ele>575.0</ele><time>2026-04-21T07:00:20Z</time></trkpt><trkpt lat="43.95893795178343" lon="6.732979032133596"><ele>575.0</ele><time>2026-04-21T07:00:21Z</time></trkpt><trkpt lat="43.95890109480002" lon="6.733234839654941"><ele>577.3333333333333</ele><time>2026-04-21T07:00:22Z</time></trkpt><trkpt lat="43.95886674792876" lon="6.733482903865091"><ele>579.6666666666666</ele><time>2026-04-21T07:00:23Z</time></trkpt><trkpt lat="43.95884276709945" lon="6.733720144999516"><ele>582.0</ele><time>2026-04-21T07:00:24Z</time></trkpt><trkpt lat="43.95882330041061" lon="6.73396497369321"><ele>582.0</ele><time>2026-04-21T07:00:25Z</time></trkpt><trkpt lat="43.95880835487974" lon="6.734179180376432"><ele>582.0</ele><time>2026-04-21T07:00:26Z</time></trkpt><trkpt lat="43.95880051530485" lon="6.73433356453862"><ele>582.0</ele><time>2026-04-21T07:00:27Z</time></trkpt><trkpt lat="43.958810817257856" lon="6.7344652067028"><ele>582.0</ele><time>2026-04-21T07:00:28Z</time></trkpt><trkpt lat="43.9588489321205" lon="6.7346051162911635"><ele>584.75</ele><time>2026-04-21T07:00:29Z</time></trkpt><trkpt lat="43.958905578028286" lon="6.734757274673151"><ele>587.5</ele><time>2026-04-21T07:00:30Z</time></trkpt><trkpt lat="43.958982464731136" lon="6.734875326660009"><ele>590.25</ele><time>2026-04-21T07:00:31Z</time></trkpt><trkpt lat="43.95908888066335" lon="6.734956360277341"><ele>593.0</ele><time>2026-04-21T07:00:32Z</time></trkpt><trkpt lat="43.959209571891826" lon="6.735039399983471"><ele>593.0</ele><time>2026-04-21T07:00:33Z</time></trkpt><trkpt lat="43.959353791882094" lon="6.735074561213736"><ele>593.0</ele><time>2026-04-21T07:00:34Z</time></trkpt><trkpt lat="43.95951454613496" lon="6.735078318780454"><ele>593.0</ele><time>2026-04-21T07:00:35Z</time></trkpt><trkpt lat="43.95967737577388" lon="6.735084930419723"><ele>593.0</ele><time>2026-04-21T07:00:36Z</time></trkpt><trkpt lat="43.959835782971034" lon="6.735133055832496"><ele>593.0</ele><time>2026-04-21T07:00:37Z</time></trkpt><trkpt lat="43.959981342084944" lon="6.735193509737002"><ele>593.0</ele><time>2026-04-21T07:00:38Z</time></trkpt><trkpt lat="43.960121345893135" lon="6.735287641675489"><ele>589.6666666666666</ele><time>2026-04-21T07:00:39Z</time></trkpt><trkpt lat="43.96024650057406" lon="6.735409687331762"><ele>586.3333333333334</ele><time>2026-04-21T07:00:40Z</time></trkpt><trkpt lat="43.960378313886956" lon="6.735546583980522"><ele>583.0</ele><time>2026-04-21T07:00:41Z</time></trkpt><trkpt lat="43.960555496960204" lon="6.7357105580199725"><ele>583.0</ele><time>2026-04-21T07:00:42Z</time></trkpt><trkpt lat="43.96071446114263" lon="6.735897951574708"><ele>583.0</ele><time>2026-04-21T07:00:43Z</time></trkpt><trkpt lat="43.960860279882745" lon="6.736043497618877"><ele>583.0</ele><time>2026-04-21T07:00:44Z</time></trkpt><trkpt lat="43.961011903060026" lon="6.736198016015358"><ele>587.3333333333334</ele><time>2026-04-21T07:00:45Z</time></trkpt><trkpt lat="43.96116498702703" lon="6.736365818310865"><ele>591.6666666666666</ele><time>2026-04-21T07:00:46Z</time></trkpt><trkpt lat="43.96129708919079" lon="6.736582005842906"><ele>596.0</ele><time>2026-04-21T07:00:47Z</time></trkpt><trkpt lat="43.96142221707891" lon="6.736819057598969"><ele>588.6666666666666</ele><time>2026-04-21T07:00:48Z</time></trkpt><trkpt lat="43.9615378776048" lon="6.737069275229973"><ele>581.3333333333334</ele><time>2026-04-21T07:00:49Z</time></trkpt><trkpt lat="43.96163916927018" lon="6.737321252865764"><ele>574.0</ele><time>2026-04-21T07:00:50Z</time></trkpt><trkpt lat="43.96174315805451" lon="6.737580509679729"><ele>581.0</ele><time>2026-04-21T07:00:51Z</time></trkpt><trkpt lat="43.96185444905549" lon="6.73783873375317"><ele>588.0</ele><time>2026-04-21T07:00:52Z</time></trkpt><trkpt lat="43.96197058148976" lon="6.738108137310783"><ele>595.0</ele><time>2026-04-21T07:00:53Z</time></trkpt><trkpt lat="43.962091592793406" lon="6.738384123240111"><ele>579.0</ele><time>2026-04-21T07:00:54Z</time></trkpt><trkpt lat="43.96221036493934" lon="6.738670102209088"><ele>563.0</ele><time>2026-04-21T07:00:55Z</time></trkpt><trkpt lat="43.96232781447108" lon="6.7389641111327405"><ele>563.0</ele><time>2026-04-21T07:00:56Z</time></trkpt><trkpt lat="43.96244456521158" lon="6.739261922644612"><ele>563.0</ele><time>2026-04-21T07:00:57Z</time></trkpt><trkpt lat="43.96256632013645" lon="6.739565476032843"><ele>570.5</ele><time>2026-04-21T07:00:58Z</time></trkpt><trkpt lat="43.96268741065798" lon="6.7398543383946095"><ele>578.0</ele><time>2026-04-21T07:00:59Z</time></trkpt><trkpt lat="43.962805672754115" lon="6.740129278781834"><ele>572.5</ele><time>2026-04-21T07:01:00Z</time></trkpt><trkpt lat="43.96292359022077" lon="6.740407608076539"><ele>567.0</ele><time>2026-04-21T07:01:01Z</time></trkpt><trkpt lat="43.96303849075422" lon="6.740690510971245"><ele>567.0</ele><time>2026-04-21T07:01:02Z</time></trkpt><trkpt lat="43.963154922842826" lon="6.740980359077022"><ele>567.0</ele><time>2026-04-21T07:01:03Z</time></trkpt><trkpt lat="43.963274995459074" lon="6.741271947363723"><ele>579.0</ele><time>2026-04-21T07:01:04Z</time></trkpt><trkpt lat="43.96339623892013" lon="6.7415560531616"><ele>591.0</ele><time>2026-04-21T07:01:05Z</time></trkpt><trkpt lat="43.96351500853328" lon="6.741833725749309"><ele>583.0</ele><time>2026-04-21T07:01:06Z</time></trkpt><trkpt lat="43.96363279282127" lon="6.742113985275371"><ele>575.0</ele><time>2026-04-21T07:01:07Z</time></trkpt><trkpt lat="43.96375271734366" lon="6.742392305929699"><ele>575.0</ele><time>2026-04-21T07:01:08Z</time></trkpt><trkpt lat="43.963876397058115" lon="6.742673121179919"><ele>575.0</ele><time>2026-04-21T07:01:09Z</time></trkpt><trkpt lat="43.964002737786636" lon="6.742957228949336"><ele>567.0</ele><time>2026-04-21T07:01:10Z</time></trkpt><trkpt lat="43.96412777426184" lon="6.7432272753035205"><ele>559.0</ele><time>2026-04-21T07:01:11Z</time></trkpt><trkpt lat="43.96424849082044" lon="6.743481063834592"><ele>566.0</ele><time>2026-04-21T07:01:12Z</time></trkpt><trkpt lat="43.96437309082832" lon="6.743739099572814"><ele>573.0</ele><time>2026-04-21T07:01:13Z</time></trkpt><trkpt lat="43.96450326651489" lon="6.743999086044748"><ele>573.0</ele><time>2026-04-21T07:01:14Z</time></trkpt><trkpt lat="43.96463746123949" lon="6.744259090123725"><ele>573.0</ele><time>2026-04-21T07:01:15Z</time></trkpt><trkpt lat="43.96477367615737" lon="6.744518847800009"><ele>572.0</ele><time>2026-04-21T07:01:16Z</time></trkpt><trkpt lat="43.96490789780786" lon="6.744768938708259"><ele>571.0</ele><time>2026-04-21T07:01:17Z</time></trkpt><trkpt lat="43.96502271911723" lon="6.745019533883392"><ele>570.0</ele><time>2026-04-21T07:01:18Z</time></trkpt><trkpt lat="43.96515371093897" lon="6.745264019546578"><ele>570.0</ele><time>2026-04-21T07:01:19Z</time></trkpt><trkpt lat="43.96528607447952" lon="6.745511065427645"><ele>570.0</ele><time>2026-04-21T07:01:20Z</time></trkpt><trkpt lat="43.9654287742628" lon="6.745740484656049"><ele>570.0</ele><time>2026-04-21T07:01:21Z</time></trkpt><trkpt lat="43.965547238312894" lon="6.745976307827095"><ele>571.3333333333334</ele><time>2026-04-21T07:01:22Z</time></trkpt><trkpt lat="43.96566716907311" lon="6.746214599559655"><ele>572.6666666666667</ele><time>2026-04-21T07:01:23Z</time></trkpt><trkpt lat="43.96579380259587" lon="6.746450748477603"><ele>574.0</ele><time>2026-04-21T07:01:24Z</time></trkpt><trkpt lat="43.965920508576836" lon="6.746690900437085"><ele>570.3333333333334</ele><time>2026-04-21T07:01:25Z</time></trkpt><trkpt lat="43.96604121574687" lon="6.746933664596977"><ele>566.6666666666666</ele><time>2026-04-21T07:01:26Z</time></trkpt><trkpt lat="43.966151609002836" lon="6.747186033757108"><ele>563.0</ele><time>2026-04-21T07:01:27Z</time></trkpt><trkpt lat="43.96624954129111" lon="6.747447257266154"><ele>560.3333333333333</ele><time>2026-04-21T07:01:28Z</time></trkpt><trkpt lat="43.966337608087855" lon="6.747721491308609"><ele>557.6666666666666</ele><time>2026-04-21T07:01:29Z</time></trkpt><trkpt lat="43.96641079177088" lon="6.748007854954551"><ele>555.0</ele><time>2026-04-21T07:01:30Z</time></trkpt><trkpt lat="43.966476721467515" lon="6.748297696976723"><ele>552.6666666666666</ele><time>2026-04-21T07:01:31Z</time></trkpt><trkpt lat="43.96652866807601" lon="6.748600703073369"><ele>550.3333333333333</ele><time>2026-04-21T07:01:32Z</time></trkpt><trkpt lat="43.96657807480914" lon="6.748903310476745"><ele>548.0</ele><time>2026-04-21T07:01:33Z</time></trkpt><trkpt lat="43.96662515746417" lon="6.749210250233126"><ele>562.0</ele><time>2026-04-21T07:01:34Z</time></trkpt><trkpt lat="43.9667199994" lon="6.749496359315325"><ele>576.0</ele><time>2026-04-21T07:01:35Z</time></trkpt><trkpt lat="43.96680385035467" lon="6.749789974899837"><ele>576.0</ele><time>2026-04-21T07:01:36Z</time></trkpt><trkpt lat="43.96688304408136" lon="6.7500770842568585"><ele>576.0</ele><time>2026-04-21T07:01:37Z</time></trkpt><trkpt lat="43.96695600906487" lon="6.750350345455014"><ele>576.0</ele><time>2026-04-21T07:01:38Z</time></trkpt><trkpt lat="43.96702282920954" lon="6.750628141506356"><ele>575.0</ele><time>2026-04-21T07:01:39Z</time></trkpt><trkpt lat="43.96707346022072" lon="6.7508975508008024"><ele>574.0</ele><time>2026-04-21T07:01:40Z</time></trkpt><trkpt lat="43.96710979598781" lon="6.7511684877272815"><ele>573.0</ele><time>2026-04-21T07:01:41Z</time></trkpt><trkpt lat="43.96713071300171" lon="6.751448871707785"><ele>573.0</ele><time>2026-04-21T07:01:42Z</time></trkpt><trkpt lat="43.96714515019179" lon="6.751741976729586"><ele>573.0</ele><time>2026-04-21T07:01:43Z</time></trkpt><trkpt lat="43.96715987091051" lon="6.752044125710461"><ele>573.0</ele><time>2026-04-21T07:01:44Z</time></trkpt><trkpt lat="43.96717312818465" lon="6.752348609210838"><ele>570.6666666666666</ele><time>2026-04-21T07:01:45Z</time></trkpt><trkpt lat="43.96718308075284" lon="6.752656115934678"><ele>568.3333333333333</ele><time>2026-04-21T07:01:46Z</time></trkpt><trkpt lat="43.96719130490285" lon="6.752970026557051"><ele>566.0</ele><time>2026-04-21T07:01:47Z</time></trkpt><trkpt lat="43.96719756849896" lon="6.753269691574956"><ele>563.3333333333333</ele><time>2026-04-21T07:01:48Z</time></trkpt><trkpt lat="43.96720663378061" lon="6.7535650390133135"><ele>560.6666666666666</ele><time>2026-04-21T07:01:49Z</time></trkpt><trkpt lat="43.96721907926723" lon="6.753862611733286"><ele>558.0</ele><time>2026-04-21T07:01:50Z</time></trkpt><trkpt lat="43.96722747211433" lon="6.754146358577959"><ele>555.6666666666666</ele><time>2026-04-21T07:01:51Z</time></trkpt><trkpt lat="43.96723490072533" lon="6.754414154229009"><ele>553.3333333333333</ele><time>2026-04-21T07:01:52Z</time></trkpt><trkpt lat="43.967239563840586" lon="6.754642201660593"><ele>551.0</ele><time>2026-04-21T07:01:53Z</time></trkpt><trkpt lat="43.96725003876724" lon="6.754852315415171"><ele>551.0</ele><time>2026-04-21T07:01:54Z</time></trkpt><trkpt lat="43.967273757922854" lon="6.755033557316384"><ele>551.0</ele><time>2026-04-21T07:01:55Z</time></trkpt><trkpt lat="43.96731884061317" lon="6.755224330406781"><ele>551.0</ele><time>2026-04-21T07:01:56Z</time></trkpt><trkpt lat="43.96738259407855" lon="6.755421688289183"><ele>551.0</ele><time>2026-04-21T07:01:57Z</time></trkpt><trkpt lat="43.96745746418111" lon="6.755625675969526"><ele>551.6666666666666</ele><time>2026-04-21T07:01:58Z</time></trkpt><trkpt lat="43.967539502436374" lon="6.755838151681955"><ele>552.3333333333334</ele><time>2026-04-21T07:01:59Z</time></trkpt><trkpt lat="43.967632341362176" lon="6.7560558977678244"><ele>553.0</ele><time>2026-04-21T07:02:00Z</time></trkpt><trkpt lat="43.96772463545902" lon="6.756266233569549"><ele>553.0</ele><time>2026-04-21T07:02:01Z</time></trkpt><trkpt lat="43.96780967907253" lon="6.756468902274224"><ele>553.0</ele><time>2026-04-21T07:02:02Z</time></trkpt><trkpt lat="43.96790035845489" lon="6.756682767437346"><ele>553.0</ele><time>2026-04-21T07:02:03Z</time></trkpt><trkpt lat="43.967995603294796" lon="6.756892864143859"><ele>548.6666666666667</ele><time>2026-04-21T07:02:04Z</time></trkpt><trkpt lat="43.96809461332207" lon="6.757098580260062"><ele>544.3333333333334</ele><time>2026-04-21T07:02:05Z</time></trkpt><trkpt lat="43.968189009946414" lon="6.757278916800133"><ele>540.0</ele><time>2026-04-21T07:02:06Z</time></trkpt><trkpt lat="43.96829496140389" lon="6.757428993605418"><ele>540.3333333333334</ele><time>2026-04-21T07:02:07Z</time></trkpt><trkpt lat="43.968422751590985" lon="6.757575253347778"><ele>540.6666666666667</ele><time>2026-04-21T07:02:08Z</time></trkpt><trkpt lat="43.96855401480673" lon="6.757728648294882"><ele>541.0</ele><time>2026-04-21T07:02:09Z</time></trkpt><trkpt lat="43.96868479389449" lon="6.757892795601586"><ele>541.0</ele><time>2026-04-21T07:02:10Z</time></trkpt><trkpt lat="43.96882095150151" lon="6.758057996928046"><ele>541.0</ele><time>2026-04-21T07:02:11Z</time></trkpt><trkpt lat="43.96896220443333" lon="6.758227311342307"><ele>541.0</ele><time>2026-04-21T07:02:12Z</time></trkpt><trkpt lat="43.96910629758045" lon="6.758406466032487"><ele>542.0</ele><time>2026-04-21T07:02:13Z</time></trkpt><trkpt lat="43.969254362212475" lon="6.758594058727918"><ele>543.0</ele><time>2026-04-21T07:02:14Z</time></trkpt><trkpt lat="43.96939404779771" lon="6.75876719684341"><ele>544.0</ele><time>2026-04-21T07:02:15Z</time></trkpt><trkpt lat="43.969527855302005" lon="6.758933736659805"><ele>544.0</ele><time>2026-04-21T07:02:16Z</time></trkpt><trkpt lat="43.969667407965474" lon="6.759104092767853"><ele>544.0</ele><time>2026-04-21T07:02:17Z</time></trkpt><trkpt lat="43.96980951131777" lon="6.759263922557743"><ele>544.0</ele><time>2026-04-21T07:02:18Z</time></trkpt><trkpt lat="43.969943182772965" lon="6.759405555936242"><ele>544.0</ele><time>2026-04-21T07:02:19Z</time></trkpt><trkpt lat="43.97006423507072" lon="6.759548665819933"><ele>544.0</ele><time>2026-04-21T07:02:20Z</time></trkpt><trkpt lat="43.97017030425546" lon="6.759678957054826"><ele>544.0</ele><time>2026-04-21T07:02:21Z</time></trkpt><trkpt lat="43.97026955801693" lon="6.7597880325332955"><ele>544.0</ele><time>2026-04-21T07:02:22Z</time></trkpt><trkpt lat="43.97037136080229" lon="6.759873514397699"><ele>544.0</ele><time>2026-04-21T07:02:23Z</time></trkpt><trkpt lat="43.97048037782012" lon="6.75992865328807"><ele>544.0</ele><time>2026-04-21T07:02:24Z</time></trkpt><trkpt lat="43.97059625040287" lon="6.759950989837233"><ele>544.0</ele><time>2026-04-21T07:02:25Z</time></trkpt><trkpt lat="43.970717980452875" lon="6.759950296499756"><ele>544.0</ele><time>2026-04-21T07:02:26Z</time></trkpt><trkpt lat="43.970844480280235" lon="6.7599375353870235"><ele>545.8</ele><time>2026-04-21T07:02:27Z</time></trkpt><trkpt lat="43.97094292178155" lon="6.75994530175614"><ele>547.5999999999999</ele><time>2026-04-21T07:02:28Z</time></trkpt><trkpt lat="43.971023090432645" lon="6.759985219359088"><ele>549.4</ele><time>2026-04-21T07:02:29Z</time></trkpt><trkpt lat="43.97110385433694" lon="6.760061554296591"><ele>551.1999999999999</ele><time>2026-04-21T07:02:30Z</time></trkpt><trkpt lat="43.97117640062417" lon="6.7601741288440955"><ele>553.0</ele><time>2026-04-21T07:02:31Z</time></trkpt><trkpt lat="43.97124511852088" lon="6.760314271158508"><ele>556.25</ele><time>2026-04-21T07:02:32Z</time></trkpt><trkpt lat="43.971312790851364" lon="6.760465620696135"><ele>559.5</ele><time>2026-04-21T07:02:33Z</time></trkpt><trkpt lat="43.97138433824301" lon="6.760604200864597"><ele>562.75</ele><time>2026-04-21T07:02:34Z</time></trkpt><trkpt lat="43.97144629970412" lon="6.76075036268203"><ele>566.0</ele><time>2026-04-21T07:02:35Z</time></trkpt><trkpt lat="43.97148637450456" lon="6.760919787067541"><ele>564.6666666666666</ele><time>2026-04-21T07:02:36Z</time></trkpt><trkpt lat="43.97151760143922" lon="6.76111426869284"><ele>563.3333333333334</ele><time>2026-04-21T07:02:37Z</time></trkpt><trkpt lat="43.97154366241894" lon="6.761323200042525"><ele>562.0</ele><time>2026-04-21T07:02:38Z</time></trkpt><trkpt lat="43.97157011269146" lon="6.761539111323881"><ele>562.0</ele><time>2026-04-21T07:02:39Z</time></trkpt><trkpt lat="43.971597610365066" lon="6.761749678166809"><ele>562.0</ele><time>2026-04-21T07:02:40Z</time></trkpt><trkpt lat="43.97162094343532" lon="6.76194789571742"><ele>562.0</ele><time>2026-04-21T07:02:41Z</time></trkpt><trkpt lat="43.97165891619176" lon="6.762154487934269"><ele>586.0</ele><time>2026-04-21T07:02:42Z</time></trkpt><trkpt lat="43.9717187033511" lon="6.762369469001619"><ele>610.0</ele><time>2026-04-21T07:02:43Z</time></trkpt><trkpt lat="43.97179483168958" lon="6.762580692350269"><ele>634.0</ele><time>2026-04-21T07:02:44Z</time></trkpt><trkpt lat="43.9718786655706" lon="6.762795431301225"><ele>634.0</ele><time>2026-04-21T07:02:45Z</time></trkpt><trkpt lat="43.97196455283748" lon="6.763014577288659"><ele>634.0</ele><time>2026-04-21T07:02:46Z</time></trkpt><trkpt lat="43.97204770127471" lon="6.7632309199410985"><ele>634.0</ele><time>2026-04-21T07:02:47Z</time></trkpt><trkpt lat="43.97212686992385" lon="6.763464364824035"><ele>622.3333333333334</ele><time>2026-04-21T07:02:48Z</time></trkpt><trkpt lat="43.972196275315" lon="6.763711270015394"><ele>610.6666666666666</ele><time>2026-04-21T07:02:49Z</time></trkpt><trkpt lat="43.97225279653625" lon="6.763966009133544"><ele>599.0</ele><time>2026-04-21T07:02:50Z</time></trkpt><trkpt lat="43.972305005345156" lon="6.76423439009303"><ele>588.0</ele><time>2026-04-21T07:02:51Z</time></trkpt><trkpt lat="43.972351442398775" lon="6.764505999091114"><ele>577.0</ele><time>2026-04-21T07:02:52Z</time></trkpt><trkpt lat="43.972392617411224" lon="6.764758117308201"><ele>566.0</ele><time>2026-04-21T07:02:53Z</time></trkpt><trkpt lat="43.97243685437631" lon="6.7650163667165994"><ele>557.6666666666666</ele><time>2026-04-21T07:02:54Z</time></trkpt><trkpt lat="43.97248515707657" lon="6.765285645196547"><ele>549.3333333333334</ele><time>2026-04-21T07:02:55Z</time></trkpt><trkpt lat="43.97253164419017" lon="6.765552336684043"><ele>541.0</ele><time>2026-04-21T07:02:56Z</time></trkpt><trkpt lat="43.97257462236122" lon="6.765807714875109"><ele>565.0</ele><time>2026-04-21T07:02:57Z</time></trkpt><trkpt lat="43.97261765996498" lon="6.766057833127908"><ele>589.0</ele><time>2026-04-21T07:02:58Z</time></trkpt><trkpt lat="43.97265342369097" lon="6.76628085130003"><ele>613.0</ele><time>2026-04-21T07:02:59Z</time></trkpt><trkpt lat="43.9726711807621" lon="6.766497781578485"><ele>613.0</ele><time>2026-04-21T07:03:00Z</time></trkpt><trkpt lat="43.97266538113682" lon="6.7667227747019805"><ele>613.0</ele><time>2026-04-21T07:03:01Z</time></trkpt><trkpt lat="43.97264446541275" lon="6.766958051142685"><ele>613.0</ele><time>2026-04-21T07:03:02Z</time></trkpt><trkpt lat="43.97259322536963" lon="6.767196433598767"><ele>609.6666666666667</ele><time>2026-04-21T07:03:03Z</time></trkpt><trkpt lat="43.9725296615024" lon="6.767438995490563"><ele>606.3333333333334</ele><time>2026-04-21T07:03:04Z</time></trkpt><trkpt lat="43.9724706190445" lon="6.767682618702433"><ele>603.0</ele><time>2026-04-21T07:03:05Z</time></trkpt><trkpt lat="43.972411866736934" lon="6.767905583872961"><ele>583.6666666666666</ele><time>2026-04-21T07:03:06Z</time></trkpt><trkpt lat="43.972342210934634" lon="6.7681122925586354"><ele>564.3333333333333</ele><time>2026-04-21T07:03:07Z</time></trkpt><trkpt lat="43.97226712501711" lon="6.768304125379062"><ele>545.0</ele><time>2026-04-21T07:03:08Z</time></trkpt><trkpt lat="43.97220019898432" lon="6.768507928189547"><ele>547.3333333333333</ele><time>2026-04-21T07:03:09Z</time></trkpt><trkpt lat="43.972145648092926" lon="6.76872747189112"><ele>549.6666666666666</ele><time>2026-04-21T07:03:10Z</time></trkpt><trkpt lat="43.97210298428833" lon="6.768963354307884"><ele>552.0</ele><time>2026-04-21T07:03:11Z</time></trkpt><trkpt lat="43.97206812057858" lon="6.769201135053455"><ele>551.6666666666666</ele><time>2026-04-21T07:03:12Z</time></trkpt><trkpt lat="43.972054136856784" lon="6.769453131407525"><ele>551.3333333333333</ele><time>2026-04-21T07:03:13Z</time></trkpt><trkpt lat="43.97205535292648" lon="6.769688483827171"><ele>551.0</ele><time>2026-04-21T07:03:14Z</time></trkpt><trkpt lat="43.972059819431855" lon="6.769911122037297"><ele>551.0</ele><time>2026-04-21T07:03:15Z</time></trkpt><trkpt lat="43.97206149970546" lon="6.77013576012519"><ele>551.0</ele><time>2026-04-21T07:03:16Z</time></trkpt><trkpt lat="43.97206338890894" lon="6.770375345607837"><ele>551.0</ele><time>2026-04-21T07:03:17Z</time></trkpt><trkpt lat="43.97207202632453" lon="6.770622817044402"><ele>550.0</ele><time>2026-04-21T07:03:18Z</time></trkpt><trkpt lat="43.97208787987994" lon="6.770877665051866"><ele>549.0</ele><time>2026-04-21T07:03:19Z</time></trkpt><trkpt lat="43.97210882219422" lon="6.771139261179734"><ele>548.0</ele><time>2026-04-21T07:03:20Z</time></trkpt><trkpt lat="43.97213265750166" lon="6.771406800600784"><ele>546.3333333333333</ele><time>2026-04-21T07:03:21Z</time></trkpt><trkpt lat="43.97216287187684" lon="6.7716781769184005"><ele>544.6666666666666</ele><time>2026-04-21T07:03:22Z</time></trkpt><trkpt lat="43.972198612535784" lon="6.77194006547323"><ele>543.0</ele><time>2026-04-21T07:03:23Z</time></trkpt><trkpt lat="43.97223862970804" lon="6.772165624166285"><ele>542.0</ele><time>2026-04-21T07:03:24Z</time></trkpt><trkpt lat="43.972280865455225" lon="6.77236901844305"><ele>541.0</ele><time>2026-04-21T07:03:25Z</time></trkpt><trkpt lat="43.972311723925195" lon="6.772571314406585"><ele>540.0</ele><time>2026-04-21T07:03:26Z</time></trkpt><trkpt lat="43.97232374177997" lon="6.772794948744575"><ele>540.0</ele><time>2026-04-21T07:03:27Z</time></trkpt><trkpt lat="43.972324732121216" lon="6.773027218340923"><ele>540.0</ele><time>2026-04-21T07:03:28Z</time></trkpt><trkpt lat="43.97232047691983" lon="6.77325009356211"><ele>540.0</ele><time>2026-04-21T07:03:29Z</time></trkpt><trkpt lat="43.97230616168836" lon="6.773448881131639"><ele>540.25</ele><time>2026-04-21T07:03:30Z</time></trkpt><trkpt lat="43.972290078421956" lon="6.773637845255946"><ele>540.5</ele><time>2026-04-21T07:03:31Z</time></trkpt><trkpt lat="43.9722764042412" lon="6.773820423983911"><ele>540.75</ele><time>2026-04-21T07:03:32Z</time></trkpt><trkpt lat="43.972250996152354" lon="6.774022437409094"><ele>541.0</ele><time>2026-04-21T07:03:33Z</time></trkpt><trkpt lat="43.97221420109053" lon="6.774230064585163"><ele>542.3333333333334</ele><time>2026-04-21T07:03:34Z</time></trkpt><trkpt lat="43.97216753225432" lon="6.774424935500526"><ele>543.6666666666666</ele><time>2026-04-21T07:03:35Z</time></trkpt><trkpt lat="43.97210429095413" lon="6.774604440577712"><ele>545.0</ele><time>2026-04-21T07:03:36Z</time></trkpt><trkpt lat="43.97201873704927" lon="6.774793146043441"><ele>545.0</ele><time>2026-04-21T07:03:37Z</time></trkpt><trkpt lat="43.971923609282435" lon="6.774972809599457"><ele>545.0</ele><time>2026-04-21T07:03:38Z</time></trkpt><trkpt lat="43.9718412814236" lon="6.775117395754303"><ele>545.0</ele><time>2026-04-21T07:03:39Z</time></trkpt><trkpt lat="43.97177484088471" lon="6.775258247060305"><ele>545.0</ele><time>2026-04-21T07:03:40Z</time></trkpt><trkpt lat="43.97172885050003" lon="6.775426310785631"><ele>545.6666666666666</ele><time>2026-04-21T07:03:41Z</time></trkpt><trkpt lat="43.97170301780968" lon="6.775623593594089"><ele>546.3333333333334</ele><time>2026-04-21T07:03:42Z</time></trkpt><trkpt lat="43.971687878351084" lon="6.775842087067558"><ele>547.0</ele><time>2026-04-21T07:03:43Z</time></trkpt><trkpt lat="43.97167107505772" lon="6.776075609143654"><ele>539.3333333333334</ele><time>2026-04-21T07:03:44Z</time></trkpt><trkpt lat="43.971654299819576" lon="6.776316451452529"><ele>531.6666666666666</ele><time>2026-04-21T07:03:45Z</time></trkpt><trkpt lat="43.971638694879466" lon="6.776539395396819"><ele>524.0</ele><time>2026-04-21T07:03:46Z</time></trkpt><trkpt lat="43.971619250704336" lon="6.776753582104458"><ele>525.0</ele><time>2026-04-21T07:03:47Z</time></trkpt><trkpt lat="43.97158891021381" lon="6.776987517534063"><ele>526.0</ele><time>2026-04-21T07:03:48Z</time></trkpt><trkpt lat="43.97154195965159" lon="6.777205807457922"><ele>527.0</ele><time>2026-04-21T07:03:49Z</time></trkpt><trkpt lat="43.971481244213" lon="6.7773745704164154"><ele>527.0</ele><time>2026-04-21T07:03:50Z</time></trkpt><trkpt lat="43.97141072930991" lon="6.77752758528738"><ele>527.0</ele><time>2026-04-21T07:03:51Z</time></trkpt><trkpt lat="43.97132770209177" lon="6.777660432633351"><ele>527.0</ele><time>2026-04-21T07:03:52Z</time></trkpt><trkpt lat="43.97123761421086" lon="6.7777522268224395"><ele>527.0</ele><time>2026-04-21T07:03:53Z</time></trkpt><trkpt lat="43.97112704053749" lon="6.7778183962603835"><ele>527.75</ele><time>2026-04-21T07:03:54Z</time></trkpt><trkpt lat="43.97100285183305" lon="6.777859868463668"><ele>528.5</ele><time>2026-04-21T07:03:55Z</time></trkpt><trkpt lat="43.970867021767496" lon="6.777875730659289"><ele>529.25</ele><time>2026-04-21T07:03:56Z</time></trkpt><trkpt lat="43.97074019021944" lon="6.777848856944886"><ele>530.0</ele><time>2026-04-21T07:03:57Z</time></trkpt><trkpt lat="43.97062012300141" lon="6.777776289027496"><ele>524.6666666666666</ele><time>2026-04-21T07:03:58Z</time></trkpt><trkpt lat="43.97050290580798" lon="6.777658599418699"><ele>519.3333333333334</ele><time>2026-04-21T07:03:59Z</time></trkpt><trkpt lat="43.97038817385211" lon="6.777505983281933"><ele>514.0</ele><time>2026-04-21T07:04:00Z</time></trkpt><trkpt lat="43.970285186004844" lon="6.777358472953245"><ele>514.0</ele><time>2026-04-21T07:04:01Z</time></trkpt><trkpt lat="43.970187751357486" lon="6.777235408724956"><ele>514.0</ele><time>2026-04-21T07:04:02Z</time></trkpt><trkpt lat="43.970096080797795" lon="6.777130987961731"><ele>514.0</ele><time>2026-04-21T07:04:03Z</time></trkpt><trkpt lat="43.97001745032859" lon="6.777027211933343"><ele>514.0</ele><time>2026-04-21T07:04:04Z</time></trkpt><trkpt lat="43.96991379454781" lon="6.776990546333864"><ele>514.0</ele><time>2026-04-21T07:04:05Z</time></trkpt><trkpt lat="43.96980110147076" lon="6.776958328183659"><ele>514.0</ele><time>2026-04-21T07:04:06Z</time></trkpt><trkpt lat="43.96967468363043" lon="6.776958790346292"><ele>514.0</ele><time>2026-04-21T07:04:07Z</time></trkpt><trkpt lat="43.969541589276666" lon="6.776986620946057"><ele>514.0</ele><time>2026-04-21T07:04:08Z</time></trkpt><trkpt lat="43.96940100617759" lon="6.777018178207059"><ele>514.0</ele><time>2026-04-21T07:04:09Z</time></trkpt><trkpt lat="43.96924514521476" lon="6.777052501970288"><ele>514.0</ele><time>2026-04-21T07:04:10Z</time></trkpt><trkpt lat="43.96907903035729" lon="6.777091574822066"><ele>514.0</ele><time>2026-04-21T07:04:11Z</time></trkpt><trkpt lat="43.96891206903272" lon="6.777134880946603"><ele>514.0</ele><time>2026-04-21T07:04:12Z</time></trkpt><trkpt lat="43.96875256207163" lon="6.777187487636129"><ele>514.0</ele><time>2026-04-21T07:04:13Z</time></trkpt><trkpt lat="43.96860045567366" lon="6.777262725080231"><ele>514.0</ele><time>2026-04-21T07:04:14Z</time></trkpt><trkpt lat="43.96844216873315" lon="6.777362353012421"><ele>517.0</ele><time>2026-04-21T07:04:15Z</time></trkpt><trkpt lat="43.96828576939416" lon="6.777464598252879"><ele>520.0</ele><time>2026-04-21T07:04:16Z</time></trkpt><trkpt lat="43.96812085141121" lon="6.777564887164712"><ele>523.0</ele><time>2026-04-21T07:04:17Z</time></trkpt><trkpt lat="43.9679453501228" lon="6.777646869111835"><ele>519.6666666666667</ele><time>2026-04-21T07:04:18Z</time></trkpt><trkpt lat="43.96776042154972" lon="6.777693696315157"><ele>516.3333333333334</ele><time>2026-04-21T07:04:19Z</time></trkpt><trkpt lat="43.96757137988936" lon="6.7777350679083135"><ele>513.0</ele><time>2026-04-21T07:04:20Z</time></trkpt><trkpt lat="43.96738523213403" lon="6.777790459268403"><ele>511.0</ele><time>2026-04-21T07:04:21Z</time></trkpt><trkpt lat="43.96721311035983" lon="6.777871252654515"><ele>509.0</ele><time>2026-04-21T07:04:22Z</time></trkpt><trkpt lat="43.967045783569425" lon="6.77798333139966"><ele>507.0</ele><time>2026-04-21T07:04:23Z</time></trkpt><trkpt lat="43.96688264114464" lon="6.7781217955821225"><ele>507.0</ele><time>2026-04-21T07:04:24Z</time></trkpt><trkpt lat="43.966733359842706" lon="6.778270297504707"><ele>507.0</ele><time>2026-04-21T07:04:25Z</time></trkpt><trkpt lat="43.96660299982732" lon="6.778441919712393"><ele>507.0</ele><time>2026-04-21T07:04:26Z</time></trkpt><trkpt lat="43.96647606474561" lon="6.778642540101129"><ele>507.33333333333337</ele><time>2026-04-21T07:04:27Z</time></trkpt><trkpt lat="43.96634826777695" lon="6.778857609304884"><ele>507.6666666666667</ele><time>2026-04-21T07:04:28Z</time></trkpt><trkpt lat="43.96622318234274" lon="6.77907376353887"><ele>508.0</ele><time>2026-04-21T07:04:29Z</time></trkpt><trkpt lat="43.96609542454084" lon="6.779291865776227"><ele>507.6666666666667</ele><time>2026-04-21T07:04:30Z</time></trkpt><trkpt lat="43.96596589750051" lon="6.779505186151014"><ele>507.33333333333337</ele><time>2026-04-21T07:04:31Z</time></trkpt><trkpt lat="43.965831880878135" lon="6.779720351211222"><ele>507.0</ele><time>2026-04-21T07:04:32Z</time></trkpt><trkpt lat="43.9656971734747" lon="6.779933613185624"><ele>508.66666666666663</ele><time>2026-04-21T07:04:33Z</time></trkpt><trkpt lat="43.96556654906428" lon="6.780157783600706"><ele>510.3333333333333</ele><time>2026-04-21T07:04:34Z</time></trkpt><trkpt lat="43.96543721220554" lon="6.78039655218418"><ele>512.0</ele><time>2026-04-21T07:04:35Z</time></trkpt><trkpt lat="43.9653117215472" lon="6.780639942547431"><ele>512.0</ele><time>2026-04-21T07:04:36Z</time></trkpt><trkpt lat="43.96519240184781" lon="6.78089217238499"><ele>512.0</ele><time>2026-04-21T07:04:37Z</time></trkpt><trkpt lat="43.96507095298189" lon="6.781147845182424"><ele>512.0</ele><time>2026-04-21T07:04:38Z</time></trkpt><trkpt lat="43.964949298689916" lon="6.781403680804209"><ele>512.0</ele><time>2026-04-21T07:04:39Z</time></trkpt><trkpt lat="43.96483237954114" lon="6.78164629744852"><ele>512.0</ele><time>2026-04-21T07:04:40Z</time></trkpt><trkpt lat="43.964719097405904" lon="6.781872734173982"><ele>512.0</ele><time>2026-04-21T07:04:41Z</time></trkpt><trkpt lat="43.96460926150771" lon="6.782086332785222"><ele>508.66666666666663</ele><time>2026-04-21T07:04:42Z</time></trkpt><trkpt lat="43.96450535043158" lon="6.782286625197551"><ele>505.33333333333337</ele><time>2026-04-21T07:04:43Z</time></trkpt><trkpt lat="43.964394006423696" lon="6.782466175372442"><ele>502.0</ele><time>2026-04-21T07:04:44Z</time></trkpt><trkpt lat="43.96426978611302" lon="6.782609948836531"><ele>502.33333333333337</ele><time>2026-04-21T07:04:45Z</time></trkpt><trkpt lat="43.9641429231596" lon="6.782742256245058"><ele>502.66666666666663</ele><time>2026-04-21T07:04:46Z</time></trkpt><trkpt lat="43.96402081622504" lon="6.782884221781006"><ele>503.0</ele><time>2026-04-21T07:04:47Z</time></trkpt><trkpt lat="43.963903379818" lon="6.783032475022134"><ele>503.0</ele><time>2026-04-21T07:04:48Z</time></trkpt><trkpt lat="43.96379444256813" lon="6.7832013859499884"><ele>503.0</ele><time>2026-04-21T07:04:49Z</time></trkpt><trkpt lat="43.963689985620846" lon="6.783378656291897"><ele>503.0</ele><time>2026-04-21T07:04:50Z</time></trkpt><trkpt lat="43.96359188849984" lon="6.7835698076994815"><ele>502.0</ele><time>2026-04-21T07:04:51Z</time></trkpt><trkpt lat="43.96349494842302" lon="6.783763396529339"><ele>501.0</ele><time>2026-04-21T07:04:52Z</time></trkpt><trkpt lat="43.96340195413564" lon="6.7839461063456605"><ele>500.0</ele><time>2026-04-21T07:04:53Z</time></trkpt><trkpt lat="43.96330159638745" lon="6.784111042703297"><ele>501.0</ele><time>2026-04-21T07:04:54Z</time></trkpt><trkpt lat="43.96318531192893" lon="6.784272455252137"><ele>502.0</ele><time>2026-04-21T07:04:55Z</time></trkpt><trkpt lat="43.96305970422421" lon="6.784432578058489"><ele>503.0</ele><time>2026-04-21T07:04:56Z</time></trkpt><trkpt lat="43.96293088844132" lon="6.7845979474437845"><ele>503.0</ele><time>2026-04-21T07:04:57Z</time></trkpt><trkpt lat="43.962784191211874" lon="6.7847456792313885"><ele>503.0</ele><time>2026-04-21T07:04:58Z</time></trkpt><trkpt lat="43.96265477960966" lon="6.784927355354413"><ele>503.0</ele><time>2026-04-21T07:04:59Z</time></trkpt><trkpt lat="43.962523827072474" lon="6.785089157103414"><ele>506.0</ele><time>2026-04-21T07:05:00Z</time></trkpt><trkpt lat="43.962401329437036" lon="6.785255385511401"><ele>509.0</ele><time>2026-04-21T07:05:01Z</time></trkpt><trkpt lat="43.96229220437306" lon="6.785434673452627"><ele>512.0</ele><time>2026-04-21T07:05:02Z</time></trkpt><trkpt lat="43.962194400612674" lon="6.785622280564942"><ele>512.0</ele><time>2026-04-21T07:05:03Z</time></trkpt><trkpt lat="43.96211174131581" lon="6.785820294238594"><ele>512.0</ele><time>2026-04-21T07:05:04Z</time></trkpt><trkpt lat="43.962032848141135" lon="6.786036009396321"><ele>512.0</ele><time>2026-04-21T07:05:05Z</time></trkpt><trkpt lat="43.96194502343267" lon="6.786252182344875"><ele>511.0</ele><time>2026-04-21T07:05:06Z</time></trkpt><trkpt lat="43.961856876766305" lon="6.786459446610544"><ele>510.0</ele><time>2026-04-21T07:05:07Z</time></trkpt><trkpt lat="43.96176552631358" lon="6.786669623283908"><ele>509.0</ele><time>2026-04-21T07:05:08Z</time></trkpt><trkpt lat="43.9616873538186" lon="6.786859537162035"><ele>509.0</ele><time>2026-04-21T07:05:09Z</time></trkpt><trkpt lat="43.96162648136412" lon="6.787035850505995"><ele>509.0</ele><time>2026-04-21T07:05:10Z</time></trkpt><trkpt lat="43.961582521060635" lon="6.787212738836348"><ele>509.0</ele><time>2026-04-21T07:05:11Z</time></trkpt><trkpt lat="43.96155174338475" lon="6.787406938811055"><ele>509.0</ele><time>2026-04-21T07:05:12Z</time></trkpt><trkpt lat="43.96153027708335" lon="6.787610375974834"><ele>507.66666666666663</ele><time>2026-04-21T07:05:13Z</time></trkpt><trkpt lat="43.96151183285039" lon="6.7877994815443925"><ele>506.33333333333337</ele><time>2026-04-21T07:05:14Z</time></trkpt><trkpt lat="43.96149991202566" lon="6.788014123893796"><ele>505.0</ele><time>2026-04-21T07:05:15Z</time></trkpt><trkpt lat="43.961481323493125" lon="6.788233348818774"><ele>505.0</ele><time>2026-04-21T07:05:16Z</time></trkpt><trkpt lat="43.96143732296591" lon="6.788431306357712"><ele>505.0</ele><time>2026-04-21T07:05:17Z</time></trkpt><trkpt lat="43.96137585357999" lon="6.788616368128816"><ele>505.0</ele><time>2026-04-21T07:05:18Z</time></trkpt><trkpt lat="43.961303488330756" lon="6.788791449058374"><ele>505.0</ele><time>2026-04-21T07:05:19Z</time></trkpt><trkpt lat="43.96121607172994" lon="6.788978078383741"><ele>503.33333333333337</ele><time>2026-04-21T07:05:20Z</time></trkpt><trkpt lat="43.961121597048795" lon="6.789179309836859"><ele>501.66666666666663</ele><time>2026-04-21T07:05:21Z</time></trkpt><trkpt lat="43.96102362553056" lon="6.789389083262439"><ele>500.0</ele><time>2026-04-21T07:05:22Z</time></trkpt><trkpt lat="43.96092357327773" lon="6.789613540672333"><ele>499.66666666666663</ele><time>2026-04-21T07:05:23Z</time></trkpt><trkpt lat="43.96080008171503" lon="6.789836982898848"><ele>499.33333333333337</ele><time>2026-04-21T07:05:24Z</time></trkpt><trkpt lat="43.96068504252015" lon="6.7900773836096615"><ele>499.0</ele><time>2026-04-21T07:05:25Z</time></trkpt><trkpt lat="43.96056938802094" lon="6.790319070140682"><ele>499.0</ele><time>2026-04-21T07:05:26Z</time></trkpt><trkpt lat="43.96044849428193" lon="6.790571705284739"><ele>499.0</ele><time>2026-04-21T07:05:27Z</time></trkpt><trkpt lat="43.960336758837165" lon="6.790844498379188"><ele>499.0</ele><time>2026-04-21T07:05:28Z</time></trkpt><trkpt lat="43.960219237879066" lon="6.791089235500548"><ele>497.33333333333337</ele><time>2026-04-21T07:05:29Z</time></trkpt><trkpt lat="43.960108836532896" lon="6.791323357084127"><ele>495.66666666666663</ele><time>2026-04-21T07:05:30Z</time></trkpt><trkpt lat="43.96000103599996" lon="6.791566652026751"><ele>494.0</ele><time>2026-04-21T07:05:31Z</time></trkpt><trkpt lat="43.959891516741365" lon="6.791821075177078"><ele>495.66666666666663</ele><time>2026-04-21T07:05:32Z</time></trkpt><trkpt lat="43.95978302949454" lon="6.7920507650636885"><ele>497.33333333333337</ele><time>2026-04-21T07:05:33Z</time></trkpt><trkpt lat="43.95967860799053" lon="6.792235395980963"><ele>499.0</ele><time>2026-04-21T07:05:34Z</time></trkpt><trkpt lat="43.959583747814754" lon="6.792398157633846"><ele>499.0</ele><time>2026-04-21T07:05:35Z</time></trkpt><trkpt lat="43.95948691580006" lon="6.792553229552783"><ele>499.0</ele><time>2026-04-21T07:05:36Z</time></trkpt><trkpt lat="43.95941035281033" lon="6.792758918033707"><ele>499.0</ele><time>2026-04-21T07:05:37Z</time></trkpt><trkpt lat="43.95936974751349" lon="6.792980411246807"><ele>497.6666666666667</ele><time>2026-04-21T07:05:38Z</time></trkpt><trkpt lat="43.959351754630376" lon="6.793214707723783"><ele>496.33333333333337</ele><time>2026-04-21T07:05:39Z</time></trkpt><trkpt lat="43.959327824471096" lon="6.793446043176666"><ele>495.0</ele><time>2026-04-21T07:05:40Z</time></trkpt><trkpt lat="43.95930383114118" lon="6.793660463163803"><ele>494.66666666666663</ele><time>2026-04-21T07:05:41Z</time></trkpt><trkpt lat="43.95926454045834" lon="6.793863973334169"><ele>494.3333333333333</ele><time>2026-04-21T07:05:42Z</time></trkpt><trkpt lat="43.95920054188964" lon="6.794078596389508"><ele>494.0</ele><time>2026-04-21T07:05:43Z</time></trkpt><trkpt lat="43.9591159251074" lon="6.794294641539102"><ele>497.0</ele><time>2026-04-21T07:05:44Z</time></trkpt><trkpt lat="43.95902001493561" lon="6.794516701290263"><ele>500.0</ele><time>2026-04-21T07:05:45Z</time></trkpt><trkpt lat="43.9589191068429" lon="6.794744814299333"><ele>503.0</ele><time>2026-04-21T07:05:46Z</time></trkpt><trkpt lat="43.95882746707761" lon="6.794957533322987"><ele>503.0</ele><time>2026-04-21T07:05:47Z</time></trkpt><trkpt lat="43.95874246754626" lon="6.795152644862247"><ele>503.0</ele><time>2026-04-21T07:05:48Z</time></trkpt><trkpt lat="43.95864236625175" lon="6.79534921987739"><ele>503.0</ele><time>2026-04-21T07:05:49Z</time></trkpt><trkpt lat="43.95853374463423" lon="6.795516648570893"><ele>502.66666666666663</ele><time>2026-04-21T07:05:50Z</time></trkpt><trkpt lat="43.958419265126054" lon="6.7956596223618595"><ele>502.33333333333337</ele><time>2026-04-21T07:05:51Z</time></trkpt><trkpt lat="43.95829266400936" lon="6.795781207906482"><ele>502.0</ele><time>2026-04-21T07:05:52Z</time></trkpt><trkpt lat="43.95814349506862" lon="6.7958842101824395"><ele>502.0</ele><time>2026-04-21T07:05:53Z</time></trkpt><trkpt lat="43.95798465489742" lon="6.795976112157659"><ele>502.0</ele><time>2026-04-21T07:05:54Z</time></trkpt><trkpt lat="43.95782357444909" lon="6.796069283613506"><ele>502.0</ele><time>2026-04-21T07:05:55Z</time></trkpt><trkpt lat="43.95766382068853" lon="6.796163379259354"><ele>500.6666666666667</ele><time>2026-04-21T07:05:56Z</time></trkpt><trkpt lat="43.957511781864525" lon="6.796256659394359"><ele>499.33333333333337</ele><time>2026-04-21T07:05:57Z</time></trkpt><trkpt lat="43.957354563845115" lon="6.796363254413579"><ele>498.0</ele><time>2026-04-21T07:05:58Z</time></trkpt><trkpt lat="43.95719590070231" lon="6.796500310274296"><ele>498.0</ele><time>2026-04-21T07:05:59Z</time></trkpt><trkpt lat="43.95704236900034" lon="6.796661852656711"><ele>498.0</ele><time>2026-04-21T07:06:00Z</time></trkpt><trkpt lat="43.95689703785836" lon="6.79684085925506"><ele>498.0</ele><time>2026-04-21T07:06:01Z</time></trkpt><trkpt lat="43.95675153766007" lon="6.79703670272832"><ele>497.0</ele><time>2026-04-21T07:06:02Z</time></trkpt><trkpt lat="43.95661497859306" lon="6.797218043357558"><ele>496.0</ele><time>2026-04-21T07:06:03Z</time></trkpt><trkpt lat="43.95648226849734" lon="6.797396399986256"><ele>495.0</ele><time>2026-04-21T07:06:04Z</time></trkpt><trkpt lat="43.95635109642232" lon="6.79759329098051"><ele>493.0</ele><time>2026-04-21T07:06:05Z</time></trkpt><trkpt lat="43.95622558657509" lon="6.797803023598675"><ele>491.0</ele><time>2026-04-21T07:06:06Z</time></trkpt><trkpt lat="43.956100531223655" lon="6.7980180502130985"><ele>489.0</ele><time>2026-04-21T07:06:07Z</time></trkpt><trkpt lat="43.95597890319861" lon="6.798232353858464"><ele>489.66666666666663</ele><time>2026-04-21T07:06:08Z</time></trkpt><trkpt lat="43.95584277343873" lon="6.79843503538361"><ele>490.3333333333333</ele><time>2026-04-21T07:06:09Z</time></trkpt><trkpt lat="43.95571433389164" lon="6.798661844839467"><ele>491.0</ele><time>2026-04-21T07:06:10Z</time></trkpt><trkpt lat="43.95560440540527" lon="6.798900063340031"><ele>491.0</ele><time>2026-04-21T07:06:11Z</time></trkpt><trkpt lat="43.955527283401544" lon="6.799143434328388"><ele>491.0</ele><time>2026-04-21T07:06:12Z</time></trkpt><trkpt lat="43.95543676969777" lon="6.79936636621844"><ele>491.0</ele><time>2026-04-21T07:06:13Z</time></trkpt><trkpt lat="43.95535048740912" lon="6.799580361090602"><ele>489.3333333333333</ele><time>2026-04-21T07:06:14Z</time></trkpt><trkpt lat="43.95525990672875" lon="6.799787408635277"><ele>487.66666666666663</ele><time>2026-04-21T07:06:15Z</time></trkpt><trkpt lat="43.955153935373346" lon="6.800002085624832"><ele>486.0</ele><time>2026-04-21T07:06:16Z</time></trkpt><trkpt lat="43.95505383295222" lon="6.800199310576659"><ele>488.0</ele><time>2026-04-21T07:06:17Z</time></trkpt><trkpt lat="43.954954501195964" lon="6.80039917999273"><ele>490.0</ele><time>2026-04-21T07:06:18Z</time></trkpt><trkpt lat="43.95490029979006" lon="6.8006488800346"><ele>492.0</ele><time>2026-04-21T07:06:19Z</time></trkpt><trkpt lat="43.95482527776301" lon="6.800894892726486"><ele>489.66666666666663</ele><time>2026-04-21T07:06:20Z</time></trkpt><trkpt lat="43.95477877952566" lon="6.801159785031762"><ele>487.3333333333333</ele><time>2026-04-21T07:06:21Z</time></trkpt><trkpt lat="43.95471020010276" lon="6.8014089832657"><ele>485.0</ele><time>2026-04-21T07:06:22Z</time></trkpt><trkpt lat="43.954640757900506" lon="6.801652293183722"><ele>483.66666666666663</ele><time>2026-04-21T07:06:23Z</time></trkpt><trkpt lat="43.954555668444826" lon="6.8019079379297676"><ele>482.33333333333337</ele><time>2026-04-21T07:06:24Z</time></trkpt><trkpt lat="43.9544547455174" lon="6.802164774060383"><ele>481.0</ele><time>2026-04-21T07:06:25Z</time></trkpt><trkpt lat="43.95434172575583" lon="6.802425917853309"><ele>480.0</ele><time>2026-04-21T07:06:26Z</time></trkpt><trkpt lat="43.95422570710934" lon="6.802691563847068"><ele>479.0</ele><time>2026-04-21T07:06:27.001Z</time></trkpt><trkpt lat="43.95411521092125" lon="6.802962143495121"><ele>478.0</ele><time>2026-04-21T07:06:28.001Z</time></trkpt><trkpt lat="43.95401086821912" lon="6.803235661529292"><ele>477.6666666666667</ele><time>2026-04-21T07:06:29.001Z</time></trkpt><trkpt lat="43.953904049902725" lon="6.803504609988513"><ele>477.33333333333337</ele><time>2026-04-21T07:06:30.001Z</time></trkpt><trkpt lat="43.95380025723958" lon="6.803767240490638"><ele>477.0</ele><time>2026-04-21T07:06:31.001Z</time></trkpt><trkpt lat="43.953699020577254" lon="6.804032204797095"><ele>477.0</ele><time>2026-04-21T07:06:32.001Z</time></trkpt><trkpt lat="43.953598953908504" lon="6.804295403984014"><ele>477.0</ele><time>2026-04-21T07:06:33.001Z</time></trkpt><trkpt lat="43.95349171496734" lon="6.804559042092728"><ele>477.0</ele><time>2026-04-21T07:06:34.001Z</time></trkpt><trkpt lat="43.953384302600256" lon="6.804821465217288"><ele>477.0</ele><time>2026-04-21T07:06:35.001Z</time></trkpt><trkpt lat="43.95328100338018" lon="6.805082277934732"><ele>477.0</ele><time>2026-04-21T07:06:36.001Z</time></trkpt><trkpt lat="43.95317605941221" lon="6.805353127192669"><ele>477.0</ele><time>2026-04-21T07:06:37.001Z</time></trkpt><trkpt lat="43.95307539356455" lon="6.805626052422614"><ele>477.0</ele><time>2026-04-21T07:06:38.001Z</time></trkpt><trkpt lat="43.952977072341035" lon="6.805879223907359"><ele>477.0</ele><time>2026-04-21T07:06:39.001Z</time></trkpt><trkpt lat="43.952886437086384" lon="6.806095625076546"><ele>477.0</ele><time>2026-04-21T07:06:40.001Z</time></trkpt><trkpt lat="43.952817502074524" lon="6.806268279154754"><ele>476.75</ele><time>2026-04-21T07:06:41.001Z</time></trkpt><trkpt lat="43.95275276982993" lon="6.806431930700339"><ele>476.5</ele><time>2026-04-21T07:06:42.001Z</time></trkpt><trkpt lat="43.95267858945337" lon="6.806589704797096"><ele>476.25</ele><time>2026-04-21T07:06:43.001Z</time></trkpt><trkpt lat="43.95258228356015" lon="6.806743563468576"><ele>476.0</ele><time>2026-04-21T07:06:44.001Z</time></trkpt><trkpt lat="43.95247077067388" lon="6.806873038339904"><ele>476.0</ele><time>2026-04-21T07:06:45.001Z</time></trkpt><trkpt lat="43.952346165136476" lon="6.807010531010962"><ele>476.0</ele><time>2026-04-21T07:06:46.001Z</time></trkpt><trkpt lat="43.95222359097339" lon="6.8071727573641585"><ele>476.0</ele><time>2026-04-21T07:06:47.001Z</time></trkpt><trkpt lat="43.95211012434328" lon="6.807352543501413"><ele>476.0</ele><time>2026-04-21T07:06:48.001Z</time></trkpt><trkpt lat="43.952009812898496" lon="6.8075212536887815"><ele>476.0</ele><time>2026-04-21T07:06:49.001Z</time></trkpt><trkpt lat="43.95191968599803" lon="6.807689042264724"><ele>476.0</ele><time>2026-04-21T07:06:50.001Z</time></trkpt><trkpt lat="43.95182646583937" lon="6.807873909006211"><ele>475.3333333333333</ele><time>2026-04-21T07:06:51.001Z</time></trkpt><trkpt lat="43.951738140869104" lon="6.808055515770264"><ele>474.66666666666663</ele><time>2026-04-21T07:06:52.001Z</time></trkpt><trkpt lat="43.951652642104" lon="6.8082347326889"><ele>474.0</ele><time>2026-04-21T07:06:53.001Z</time></trkpt><trkpt lat="43.951576686911665" lon="6.808401553934052"><ele>474.5</ele><time>2026-04-21T07:06:54.001Z</time></trkpt><trkpt lat="43.95151400209367" lon="6.808565673284749"><ele>475.0</ele><time>2026-04-21T07:06:55.001Z</time></trkpt><trkpt lat="43.951451149013295" lon="6.808732897892426"><ele>475.5</ele><time>2026-04-21T07:06:56.001Z</time></trkpt><trkpt lat="43.95137914195129" lon="6.808906898011571"><ele>476.0</ele><time>2026-04-21T07:06:57.001Z</time></trkpt><trkpt lat="43.95131661231919" lon="6.809067817053881"><ele>476.0</ele><time>2026-04-21T07:06:58.001Z</time></trkpt><trkpt lat="43.95125920301531" lon="6.809210471963072"><ele>476.0</ele><time>2026-04-21T07:06:59.001Z</time></trkpt><trkpt lat="43.95119621283808" lon="6.809315142987693"><ele>476.0</ele><time>2026-04-21T07:07:00.001Z</time></trkpt><trkpt lat="43.951127606927905" lon="6.809389611205927"><ele>476.0</ele><time>2026-04-21T07:07:01.001Z</time></trkpt><trkpt lat="43.95104679923518" lon="6.809433596558131"><ele>476.0</ele><time>2026-04-21T07:07:02.001Z</time></trkpt><trkpt lat="43.95095266195803" lon="6.809437214884537"><ele>477.5</ele><time>2026-04-21T07:07:03.001Z</time></trkpt><trkpt lat="43.9508467901278" lon="6.809398831527485"><ele>479.0</ele><time>2026-04-21T07:07:04.001Z</time></trkpt><trkpt lat="43.95073218951532" lon="6.809350412564523"><ele>480.5</ele><time>2026-04-21T07:07:05.001Z</time></trkpt><trkpt lat="43.95062794029503" lon="6.809307870054675"><ele>482.0</ele><time>2026-04-21T07:07:06.001Z</time></trkpt><trkpt lat="43.95050495573582" lon="6.809231887606121"><ele>483.0</ele><time>2026-04-21T07:07:07.001Z</time></trkpt><trkpt lat="43.95038029403536" lon="6.809134932154792"><ele>484.0</ele><time>2026-04-21T07:07:08.001Z</time></trkpt><trkpt lat="43.95025364143943" lon="6.809083746847986"><ele>485.0</ele><time>2026-04-21T07:07:09.001Z</time></trkpt><trkpt lat="43.95013204350516" lon="6.809056752728885"><ele>486.0</ele><time>2026-04-21T07:07:10.001Z</time></trkpt><trkpt lat="43.9500053422519" lon="6.809050573956611"><ele>486.0</ele><time>2026-04-21T07:07:11.001Z</time></trkpt><trkpt lat="43.94989142898971" lon="6.809076988586106"><ele>486.0</ele><time>2026-04-21T07:07:12.001Z</time></trkpt><trkpt lat="43.94978961284305" lon="6.809135647199055"><ele>486.0</ele><time>2026-04-21T07:07:13Z</time></trkpt><trkpt lat="43.94968658262137" lon="6.809230843214449"><ele>486.0</ele><time>2026-04-21T07:07:14Z</time></trkpt><trkpt lat="43.94959008478247" lon="6.809348107908026"><ele>485.75</ele><time>2026-04-21T07:07:15Z</time></trkpt><trkpt lat="43.94950347726157" lon="6.809484653353799"><ele>485.5</ele><time>2026-04-21T07:07:16Z</time></trkpt><trkpt lat="43.94942756733558" lon="6.809620624106133"><ele>485.25</ele><time>2026-04-21T07:07:17Z</time></trkpt><trkpt lat="43.94935190635779" lon="6.8097715012739695"><ele>485.0</ele><time>2026-04-21T07:07:18Z</time></trkpt><trkpt lat="43.949282457411265" lon="6.809907086222246"><ele>485.0</ele><time>2026-04-21T07:07:19Z</time></trkpt><trkpt lat="43.94921746505397" lon="6.8100299650390275"><ele>485.0</ele><time>2026-04-21T07:07:20Z</time></trkpt><trkpt lat="43.949165610552555" lon="6.810173835601154"><ele>485.0</ele><time>2026-04-21T07:07:21Z</time></trkpt><trkpt lat="43.94911752779094" lon="6.810321035922665"><ele>485.0</ele><time>2026-04-21T07:07:22Z</time></trkpt><trkpt lat="43.94907685745621" lon="6.810459880202839"><ele>484.0</ele><time>2026-04-21T07:07:23Z</time></trkpt><trkpt lat="43.94905180592154" lon="6.81060292555547"><ele>483.0</ele><time>2026-04-21T07:07:24Z</time></trkpt><trkpt lat="43.94904163987637" lon="6.810781076993347"><ele>482.0</ele><time>2026-04-21T07:07:25Z</time></trkpt><trkpt lat="43.94904662542744" lon="6.810984196329555"><ele>481.0</ele><time>2026-04-21T07:07:26Z</time></trkpt><trkpt lat="43.949046812426815" lon="6.8112020539549905"><ele>478.33333333333337</ele><time>2026-04-21T07:07:27Z</time></trkpt><trkpt lat="43.94904209273012" lon="6.811422310695372"><ele>475.66666666666663</ele><time>2026-04-21T07:07:28Z</time></trkpt><trkpt lat="43.94903846682574" lon="6.811636196310099"><ele>473.0</ele><time>2026-04-21T07:07:29Z</time></trkpt><trkpt lat="43.949045971114366" lon="6.811849587074883"><ele>472.5</ele><time>2026-04-21T07:07:30Z</time></trkpt><trkpt lat="43.94907155098729" lon="6.812051561156771"><ele>472.0</ele><time>2026-04-21T07:07:31Z</time></trkpt><trkpt lat="43.94910699065601" lon="6.812241993984154"><ele>471.5</ele><time>2026-04-21T07:07:32Z</time></trkpt><trkpt lat="43.9491474218915" lon="6.812419014579842"><ele>471.0</ele><time>2026-04-21T07:07:33Z</time></trkpt><trkpt lat="43.949197075003" lon="6.812576347838079"><ele>469.8</ele><time>2026-04-21T07:07:34Z</time></trkpt><trkpt lat="43.949248741876666" lon="6.812715113763502"><ele>468.6</ele><time>2026-04-21T07:07:35Z</time></trkpt><trkpt lat="43.94929205358257" lon="6.812845510695702"><ele>467.4</ele><time>2026-04-21T07:07:36Z</time></trkpt><trkpt lat="43.94932961850183" lon="6.812959260591117"><ele>466.2</ele><time>2026-04-21T07:07:37Z</time></trkpt><trkpt lat="43.949360760094784" lon="6.813047656418736"><ele>465.0</ele><time>2026-04-21T07:07:38Z</time></trkpt><trkpt lat="43.94940429991724" lon="6.8131492454746345"><ele>465.0</ele><time>2026-04-21T07:07:39Z</time></trkpt><trkpt lat="43.94944989279254" lon="6.813271648042469"><ele>465.0</ele><time>2026-04-21T07:07:40Z</time></trkpt><trkpt lat="43.949496431148326" lon="6.81338838278649"><ele>465.0</ele><time>2026-04-21T07:07:41Z</time></trkpt><trkpt lat="43.94953415661161" lon="6.813502610387293"><ele>465.0</ele><time>2026-04-21T07:07:42Z</time></trkpt><trkpt lat="43.9495777976928" lon="6.813612774344837"><ele>465.0</ele><time>2026-04-21T07:07:43Z</time></trkpt><trkpt lat="43.94962316403404" lon="6.813727323018199"><ele>465.1666666666667</ele><time>2026-04-21T07:07:44Z</time></trkpt><trkpt lat="43.94965760672473" lon="6.813835560610308"><ele>465.33333333333337</ele><time>2026-04-21T07:07:45Z</time></trkpt><trkpt lat="43.949688959736356" lon="6.813934087777629"><ele>465.5</ele><time>2026-04-21T07:07:46Z</time></trkpt><trkpt lat="43.94972663864591" lon="6.814020669081206"><ele>465.6666666666667</ele><time>2026-04-21T07:07:47Z</time></trkpt><trkpt lat="43.94975879721765" lon="6.8141029847818135"><ele>465.83333333333337</ele><time>2026-04-21T07:07:48Z</time></trkpt><trkpt lat="43.949789933434474" lon="6.814195749972734"><ele>466.0</ele><time>2026-04-21T07:07:49Z</time></trkpt><trkpt lat="43.94982134223691" lon="6.814289666908435"><ele>466.14285714285717</ele><time>2026-04-21T07:07:50Z</time></trkpt><trkpt lat="43.94985425654662" lon="6.814378972365634"><ele>466.2857142857142</ele><time>2026-04-21T07:07:51Z</time></trkpt><trkpt lat="43.949887339738304" lon="6.814464628542393"><ele>466.4285714285714</ele><time>2026-04-21T07:07:52Z</time></trkpt><trkpt lat="43.94991959805211" lon="6.814548453323913"><ele>466.57142857142856</ele><time>2026-04-21T07:07:53Z</time></trkpt><trkpt lat="43.9499517071569" lon="6.814640725532057"><ele>466.71428571428567</ele><time>2026-04-21T07:07:54Z</time></trkpt><trkpt lat="43.94998178693571" lon="6.8147301390570485"><ele>466.8571428571428</ele><time>2026-04-21T07:07:55Z</time></trkpt><trkpt lat="43.95001784918062" lon="6.8148323707580545"><ele>466.99999999999994</ele><time>2026-04-21T07:07:56Z</time></trkpt><trkpt lat="43.95006714674671" lon="6.814957419499986"><ele>467.0</ele><time>2026-04-21T07:07:57Z</time></trkpt><trkpt lat="43.950118839865894" lon="6.815101140635772"><ele>467.00000000000006</ele><time>2026-04-21T07:07:58Z</time></trkpt><trkpt lat="43.950163390229534" lon="6.815237396439689"><ele>467.00000000000006</ele><time>2026-04-21T07:07:59Z</time></trkpt><trkpt lat="43.95021198702572" lon="6.815385551438608"><ele>467.0</ele><time>2026-04-21T07:08:00Z</time></trkpt><trkpt lat="43.95026134461705" lon="6.815515731599285"><ele>467.0</ele><time>2026-04-21T07:08:01Z</time></trkpt><trkpt lat="43.9503083130893" lon="6.815642028861934"><ele>466.8</ele><time>2026-04-21T07:08:02Z</time></trkpt><trkpt lat="43.950346701334816" lon="6.815774336711276"><ele>466.6</ele><time>2026-04-21T07:08:03Z</time></trkpt><trkpt lat="43.95037712305432" lon="6.81590596951991"><ele>466.40000000000003</ele><time>2026-04-21T07:08:04Z</time></trkpt><trkpt lat="43.950414423093136" lon="6.816036586468613"><ele>466.20000000000005</ele><time>2026-04-21T07:08:05Z</time></trkpt><trkpt lat="43.95045651296025" lon="6.816165637216866"><ele>466.0</ele><time>2026-04-21T07:08:06Z</time></trkpt><trkpt lat="43.950495751929076" lon="6.81629865494234"><ele>466.0</ele><time>2026-04-21T07:08:07Z</time></trkpt><trkpt lat="43.95052544047973" lon="6.816441564429184"><ele>466.0</ele><time>2026-04-21T07:08:08Z</time></trkpt><trkpt lat="43.95055799147991" lon="6.816589118818378"><ele>466.0</ele><time>2026-04-21T07:08:09Z</time></trkpt><trkpt lat="43.95059913185362" lon="6.816751993739927"><ele>466.0</ele><time>2026-04-21T07:08:10Z</time></trkpt><trkpt lat="43.95062055728865" lon="6.816923849495532"><ele>465.0</ele><time>2026-04-21T07:08:11Z</time></trkpt><trkpt lat="43.95066144818393" lon="6.817083682809544"><ele>464.0</ele><time>2026-04-21T07:08:12Z</time></trkpt><trkpt lat="43.95067878156843" lon="6.817248281692603"><ele>463.0</ele><time>2026-04-21T07:08:13Z</time></trkpt><trkpt lat="43.95069578207398" lon="6.8174020130470945"><ele>462.0</ele><time>2026-04-21T07:08:14Z</time></trkpt><trkpt lat="43.95070952612162" lon="6.817549045493081"><ele>462.40000000000003</ele><time>2026-04-21T07:08:15.001Z</time></trkpt><trkpt lat="43.95072236133998" lon="6.8176944189429385"><ele>462.80000000000007</ele><time>2026-04-21T07:08:16.001Z</time></trkpt><trkpt lat="43.950738114421604" lon="6.817835499810703"><ele>463.2</ele><time>2026-04-21T07:08:17.001Z</time></trkpt><trkpt lat="43.95075699679736" lon="6.817976604992071"><ele>463.6</ele><time>2026-04-21T07:08:18.001Z</time></trkpt><trkpt lat="43.95078026896669" lon="6.818146991675747"><ele>464.0</ele><time>2026-04-21T07:08:19.001Z</time></trkpt><trkpt lat="43.95079952399556" lon="6.818316255810509"><ele>464.0</ele><time>2026-04-21T07:08:20.001Z</time></trkpt><trkpt lat="43.950815051714" lon="6.818485679822398"><ele>464.0</ele><time>2026-04-21T07:08:21.001Z</time></trkpt><trkpt lat="43.95083421540966" lon="6.818655519301093"><ele>464.0</ele><time>2026-04-21T07:08:22.001Z</time></trkpt><trkpt lat="43.95085462439843" lon="6.818821676972883"><ele>464.0</ele><time>2026-04-21T07:08:23.001Z</time></trkpt><trkpt lat="43.95087828489804" lon="6.818995522761105"><ele>463.0</ele><time>2026-04-21T07:08:24.001Z</time></trkpt><trkpt lat="43.95090802966532" lon="6.81919681714642"><ele>462.0</ele><time>2026-04-21T07:08:25.001Z</time></trkpt><trkpt lat="43.95093822818638" lon="6.819423270842372"><ele>461.0</ele><time>2026-04-21T07:08:26.001Z</time></trkpt><trkpt lat="43.950944863085425" lon="6.819672360374889"><ele>460.3333333333333</ele><time>2026-04-21T07:08:27.001Z</time></trkpt><trkpt lat="43.950974687260135" lon="6.819932062635969"><ele>459.66666666666663</ele><time>2026-04-21T07:08:28.001Z</time></trkpt><trkpt lat="43.95100552188151" lon="6.820199453849997"><ele>459.0</ele><time>2026-04-21T07:08:29.001Z</time></trkpt><trkpt lat="43.95103701594433" lon="6.820473673192594"><ele>458.66666666666663</ele><time>2026-04-21T07:08:30.001Z</time></trkpt><trkpt lat="43.951069373772214" lon="6.820765893421021"><ele>458.3333333333333</ele><time>2026-04-21T07:08:31.001Z</time></trkpt><trkpt lat="43.95110196214516" lon="6.8210690436041235"><ele>458.0</ele><time>2026-04-21T07:08:32.001Z</time></trkpt><trkpt lat="43.95113570739535" lon="6.821357764671788"><ele>458.0</ele><time>2026-04-21T07:08:33.001Z</time></trkpt><trkpt lat="43.95117818196153" lon="6.821624044131517"><ele>458.0</ele><time>2026-04-21T07:08:34.001Z</time></trkpt><trkpt lat="43.95120561255349" lon="6.82188033749021"><ele>458.0</ele><time>2026-04-21T07:08:35.001Z</time></trkpt><trkpt lat="43.951232734186284" lon="6.822124779704383"><ele>458.0</ele><time>2026-04-21T07:08:36.001Z</time></trkpt><trkpt lat="43.95125713668644" lon="6.822343200555942"><ele>458.0</ele><time>2026-04-21T07:08:37.001Z</time></trkpt><trkpt lat="43.95128047786822" lon="6.822544509233908"><ele>458.0</ele><time>2026-04-21T07:08:38.001Z</time></trkpt><trkpt lat="43.95130335497663" lon="6.8227382903014515"><ele>458.0</ele><time>2026-04-21T07:08:39.001Z</time></trkpt><trkpt lat="43.951324951956394" lon="6.8229238848049105"><ele>458.0</ele><time>2026-04-21T07:08:40.001Z</time></trkpt><trkpt lat="43.95134338158147" lon="6.823100252696393"><ele>458.0</ele><time>2026-04-21T07:08:41.001Z</time></trkpt><trkpt lat="43.951367128122676" lon="6.8232788860948475"><ele>458.0</ele><time>2026-04-21T07:08:42.001Z</time></trkpt><trkpt lat="43.951390372839256" lon="6.8234709420446125"><ele>458.0</ele><time>2026-04-21T07:08:43.001Z</time></trkpt><trkpt lat="43.951409973848826" lon="6.82366807733243"><ele>458.0</ele><time>2026-04-21T07:08:44.001Z</time></trkpt><trkpt lat="43.95142931977604" lon="6.823856630317482"><ele>458.0</ele><time>2026-04-21T07:08:45.001Z</time></trkpt><trkpt lat="43.95144980534325" lon="6.824029701109793"><ele>458.0</ele><time>2026-04-21T07:08:46.001Z</time></trkpt><trkpt lat="43.951471973372556" lon="6.824193837630768"><ele>458.0</ele><time>2026-04-21T07:08:47.001Z</time></trkpt><trkpt lat="43.951494063194" lon="6.824346540758638"><ele>458.0</ele><time>2026-04-21T07:08:48.001Z</time></trkpt><trkpt lat="43.951503574982176" lon="6.824483436733974"><ele>457.99999999999994</ele><time>2026-04-21T07:08:49.001Z</time></trkpt><trkpt lat="43.95150309833638" lon="6.824614757058652"><ele>457.99999999999994</ele><time>2026-04-21T07:08:50.001Z</time></trkpt><trkpt lat="43.951488657536665" lon="6.824750245866196"><ele>458.0</ele><time>2026-04-21T07:08:51.001Z</time></trkpt><trkpt lat="43.95147472567969" lon="6.824884480059941"><ele>458.0</ele><time>2026-04-21T07:08:52.001Z</time></trkpt><trkpt lat="43.95145685123158" lon="6.825050756670386"><ele>457.66666666666663</ele><time>2026-04-21T07:08:53.001Z</time></trkpt><trkpt lat="43.95147830804421" lon="6.8252552752498685"><ele>457.33333333333337</ele><time>2026-04-21T07:08:54.001Z</time></trkpt><trkpt lat="43.95151588041343" lon="6.825459648232524"><ele>457.0</ele><time>2026-04-21T07:08:55.001Z</time></trkpt><trkpt lat="43.95155934539613" lon="6.825680638589085"><ele>457.0</ele><time>2026-04-21T07:08:56.001Z</time></trkpt><trkpt lat="43.95160748878662" lon="6.825920939790187"><ele>457.0</ele><time>2026-04-21T07:08:57.001Z</time></trkpt><trkpt lat="43.951668472879504" lon="6.826161463151658"><ele>457.0</ele><time>2026-04-21T07:08:58.001Z</time></trkpt><trkpt lat="43.95170920261673" lon="6.826420091904723"><ele>455.6666666666667</ele><time>2026-04-21T07:08:59.001Z</time></trkpt><trkpt lat="43.95174543578485" lon="6.826699066226988"><ele>454.33333333333337</ele><time>2026-04-21T07:09:00.001Z</time></trkpt><trkpt lat="43.95176487711293" lon="6.826984462348375"><ele>453.0</ele><time>2026-04-21T07:09:01.001Z</time></trkpt><trkpt lat="43.95177190278492" lon="6.827275036053008"><ele>452.33333333333337</ele><time>2026-04-21T07:09:02.001Z</time></trkpt><trkpt lat="43.95177814647274" lon="6.827574996332599"><ele>451.6666666666667</ele><time>2026-04-21T07:09:03.001Z</time></trkpt><trkpt lat="43.95178670116195" lon="6.827879073251645"><ele>451.0</ele><time>2026-04-21T07:09:04.001Z</time></trkpt><trkpt lat="43.95179644210389" lon="6.828170815564864"><ele>451.0</ele><time>2026-04-21T07:09:05.001Z</time></trkpt><trkpt lat="43.95180748721402" lon="6.8284702405318045"><ele>451.0</ele><time>2026-04-21T07:09:06.001Z</time></trkpt><trkpt lat="43.95182159686615" lon="6.828768821119064"><ele>451.0</ele><time>2026-04-21T07:09:07.001Z</time></trkpt><trkpt lat="43.951832123366515" lon="6.829072459634988"><ele>450.0</ele><time>2026-04-21T07:09:08.001Z</time></trkpt><trkpt lat="43.951841412622954" lon="6.829380116375494"><ele>449.0</ele><time>2026-04-21T07:09:09.001Z</time></trkpt><trkpt lat="43.95185276487767" lon="6.829691432709277"><ele>448.0</ele><time>2026-04-21T07:09:10.001Z</time></trkpt><trkpt lat="43.95186364374201" lon="6.83000456748915"><ele>448.33333333333337</ele><time>2026-04-21T07:09:11.001Z</time></trkpt><trkpt lat="43.95187359464723" lon="6.830317460351089"><ele>448.66666666666663</ele><time>2026-04-21T07:09:12.001Z</time></trkpt><trkpt lat="43.951882573284145" lon="6.830620428013345"><ele>449.0</ele><time>2026-04-21T07:09:13.001Z</time></trkpt><trkpt lat="43.95189385159948" lon="6.830927188212823"><ele>449.0</ele><time>2026-04-21T07:09:14.001Z</time></trkpt><trkpt lat="43.951903459528616" lon="6.83123400559801"><ele>449.0</ele><time>2026-04-21T07:09:15.001Z</time></trkpt><trkpt lat="43.951912376377756" lon="6.831540443203374"><ele>449.0</ele><time>2026-04-21T07:09:16.001Z</time></trkpt><trkpt lat="43.95192297816713" lon="6.831847417368712"><ele>448.66666666666663</ele><time>2026-04-21T07:09:17.001Z</time></trkpt><trkpt lat="43.95193227154757" lon="6.832153399073504"><ele>448.33333333333337</ele><time>2026-04-21T07:09:18.001Z</time></trkpt><trkpt lat="43.95194107039686" lon="6.832458728576072"><ele>448.0</ele><time>2026-04-21T07:09:19Z</time></trkpt><trkpt lat="43.951949693970235" lon="6.83276098979715"><ele>448.0</ele><time>2026-04-21T07:09:20Z</time></trkpt><trkpt lat="43.95196047145427" lon="6.833053699727461"><ele>448.0</ele><time>2026-04-21T07:09:21Z</time></trkpt><trkpt lat="43.95197383146201" lon="6.83334681440372"><ele>448.0</ele><time>2026-04-21T07:09:22Z</time></trkpt><trkpt lat="43.95198713950834" lon="6.833646327574934"><ele>447.6666666666667</ele><time>2026-04-21T07:09:23Z</time></trkpt><trkpt lat="43.95199815220923" lon="6.833953685920014"><ele>447.33333333333337</ele><time>2026-04-21T07:09:24Z</time></trkpt><trkpt lat="43.952003389931114" lon="6.83426725623693"><ele>447.0</ele><time>2026-04-21T07:09:25Z</time></trkpt><trkpt lat="43.95201055360111" lon="6.834582355018156"><ele>447.0</ele><time>2026-04-21T07:09:26Z</time></trkpt><trkpt lat="43.95201996206049" lon="6.834899961627442"><ele>447.0</ele><time>2026-04-21T07:09:27Z</time></trkpt><trkpt lat="43.95202992227222" lon="6.835213337759441"><ele>447.0</ele><time>2026-04-21T07:09:28Z</time></trkpt><trkpt lat="43.95204225832102" lon="6.835527069352726"><ele>447.0</ele><time>2026-04-21T07:09:29Z</time></trkpt><trkpt lat="43.9520550285836" lon="6.835840856317971"><ele>446.33333333333337</ele><time>2026-04-21T07:09:30Z</time></trkpt><trkpt lat="43.95206584736416" lon="6.836149370282387"><ele>445.6666666666667</ele><time>2026-04-21T07:09:31Z</time></trkpt><trkpt lat="43.95207620049883" lon="6.8364588832071185"><ele>445.0</ele><time>2026-04-21T07:09:32Z</time></trkpt><trkpt lat="43.952087253478936" lon="6.836770007497118"><ele>444.0</ele><time>2026-04-21T07:09:33Z</time></trkpt><trkpt lat="43.95209733751054" lon="6.837081922729708"><ele>443.0</ele><time>2026-04-21T07:09:34Z</time></trkpt><trkpt lat="43.95210592206221" lon="6.837394233646818"><ele>443.0</ele><time>2026-04-21T07:09:35Z</time></trkpt><trkpt lat="43.952114951761175" lon="6.83770624518079"><ele>443.0</ele><time>2026-04-21T07:09:36Z</time></trkpt><trkpt lat="43.952124120519585" lon="6.8380175396547465"><ele>443.0</ele><time>2026-04-21T07:09:37Z</time></trkpt><trkpt lat="43.95213577104448" lon="6.838326433269471"><ele>443.0</ele><time>2026-04-21T07:09:38Z</time></trkpt><trkpt lat="43.95214596590093" lon="6.838626324107723"><ele>443.0</ele><time>2026-04-21T07:09:39Z</time></trkpt><trkpt lat="43.95215249326221" lon="6.838927889638327"><ele>443.0</ele><time>2026-04-21T07:09:40Z</time></trkpt><trkpt lat="43.95216050940253" lon="6.839226724202246"><ele>443.66666666666663</ele><time>2026-04-21T07:09:41Z</time></trkpt><trkpt lat="43.95216685954179" lon="6.839525436533385"><ele>444.33333333333337</ele><time>2026-04-21T07:09:42Z</time></trkpt><trkpt lat="43.95218048861161" lon="6.839822898497161"><ele>445.0</ele><time>2026-04-21T07:09:43Z</time></trkpt><trkpt lat="43.95219812660863" lon="6.8401180021154335"><ele>444.6666666666667</ele><time>2026-04-21T07:09:44Z</time></trkpt><trkpt lat="43.95221567683895" lon="6.840410007209762"><ele>444.33333333333337</ele><time>2026-04-21T07:09:45Z</time></trkpt><trkpt lat="43.95223576785336" lon="6.840700274072269"><ele>444.0</ele><time>2026-04-21T07:09:46Z</time></trkpt><trkpt lat="43.95226113185507" lon="6.8409898381553695"><ele>443.66666666666663</ele><time>2026-04-21T07:09:47Z</time></trkpt><trkpt lat="43.95228763489068" lon="6.8412798058149855"><ele>443.3333333333333</ele><time>2026-04-21T07:09:48Z</time></trkpt><trkpt lat="43.95231920971013" lon="6.8415607605991235"><ele>443.0</ele><time>2026-04-21T07:09:49Z</time></trkpt><trkpt lat="43.95235041786273" lon="6.84184111563397"><ele>442.3333333333333</ele><time>2026-04-21T07:09:50Z</time></trkpt><trkpt lat="43.95238642037003" lon="6.8421268611753"><ele>441.66666666666663</ele><time>2026-04-21T07:09:51Z</time></trkpt><trkpt lat="43.952422735870464" lon="6.842402634717366"><ele>441.0</ele><time>2026-04-21T07:09:52Z</time></trkpt><trkpt lat="43.95245515053623" lon="6.842678190811512"><ele>441.0</ele><time>2026-04-21T07:09:53Z</time></trkpt><trkpt lat="43.95249220779679" lon="6.842960189503665"><ele>441.0</ele><time>2026-04-21T07:09:54Z</time></trkpt><trkpt lat="43.9525368988206" lon="6.843227281130373"><ele>441.0</ele><time>2026-04-21T07:09:55Z</time></trkpt><trkpt lat="43.952584028822564" lon="6.8434993704766"><ele>440.33333333333337</ele><time>2026-04-21T07:09:56Z</time></trkpt><trkpt lat="43.95262984644259" lon="6.843771257544219"><ele>439.6666666666667</ele><time>2026-04-21T07:09:57Z</time></trkpt><trkpt lat="43.95267790138479" lon="6.844046929036632"><ele>439.0</ele><time>2026-04-21T07:09:58Z</time></trkpt><trkpt lat="43.952730734475004" lon="6.844320567562616"><ele>439.0</ele><time>2026-04-21T07:09:59Z</time></trkpt><trkpt lat="43.952786289941294" lon="6.844593585429905"><ele>439.0</ele><time>2026-04-21T07:10:00Z</time></trkpt><trkpt lat="43.95284284357276" lon="6.844867761817754"><ele>439.0</ele><time>2026-04-21T07:10:01Z</time></trkpt><trkpt lat="43.95290324384085" lon="6.845149056718573"><ele>439.0</ele><time>2026-04-21T07:10:02Z</time></trkpt><trkpt lat="43.9529637494384" lon="6.845432271715813"><ele>439.0</ele><time>2026-04-21T07:10:03Z</time></trkpt><trkpt lat="43.953026428860625" lon="6.845718487398454"><ele>439.0</ele><time>2026-04-21T07:10:04Z</time></trkpt><trkpt lat="43.953088233568295" lon="6.846006201630504"><ele>439.33333333333337</ele><time>2026-04-21T07:10:05Z</time></trkpt><trkpt lat="43.95315204483926" lon="6.846296933984508"><ele>439.66666666666663</ele><time>2026-04-21T07:10:06Z</time></trkpt><trkpt lat="43.95321623484317" lon="6.846585756676081"><ele>440.0</ele><time>2026-04-21T07:10:07Z</time></trkpt><trkpt lat="43.95327815792924" lon="6.846872541910114"><ele>440.0</ele><time>2026-04-21T07:10:08Z</time></trkpt><trkpt lat="43.953336974284795" lon="6.847163334619859"><ele>440.0</ele><time>2026-04-21T07:10:09Z</time></trkpt><trkpt lat="43.95339765199029" lon="6.847453481392603"><ele>440.0</ele><time>2026-04-21T07:10:10Z</time></trkpt><trkpt lat="43.95345732519193" lon="6.847745187185753"><ele>438.66666666666663</ele><time>2026-04-21T07:10:11Z</time></trkpt><trkpt lat="43.953517405074244" lon="6.84803427477358"><ele>437.33333333333337</ele><time>2026-04-21T07:10:12Z</time></trkpt><trkpt lat="43.953577832140354" lon="6.848319398408433"><ele>436.0</ele><time>2026-04-21T07:10:13Z</time></trkpt><trkpt lat="43.953639428941" lon="6.848602454993445"><ele>436.0</ele><time>2026-04-21T07:10:14Z</time></trkpt><trkpt lat="43.953700063207165" lon="6.8488866143396985"><ele>436.0</ele><time>2026-04-21T07:10:15Z</time></trkpt><trkpt lat="43.95376113196561" lon="6.8491723765818"><ele>436.0</ele><time>2026-04-21T07:10:16Z</time></trkpt><trkpt lat="43.953822179399616" lon="6.849461179304544"><ele>435.33333333333337</ele><time>2026-04-21T07:10:17Z</time></trkpt><trkpt lat="43.95388377578587" lon="6.849750988044842"><ele>434.66666666666663</ele><time>2026-04-21T07:10:18Z</time></trkpt><trkpt lat="43.953940689931756" lon="6.850044719434905"><ele>434.0</ele><time>2026-04-21T07:10:19Z</time></trkpt><trkpt lat="43.95399344834899" lon="6.850341238971036"><ele>434.0</ele><time>2026-04-21T07:10:20Z</time></trkpt><trkpt lat="43.95404523665272" lon="6.850639556214185"><ele>434.0</ele><time>2026-04-21T07:10:21Z</time></trkpt><trkpt lat="43.95409138919252" lon="6.8509339975163694"><ele>434.0</ele><time>2026-04-21T07:10:22Z</time></trkpt><trkpt lat="43.95413078365743" lon="6.851228462588554"><ele>434.0</ele><time>2026-04-21T07:10:23Z</time></trkpt><trkpt lat="43.954163756506176" lon="6.8515241417939405"><ele>434.0</ele><time>2026-04-21T07:10:24Z</time></trkpt><trkpt lat="43.95419480256558" lon="6.851818707177038"><ele>434.0</ele><time>2026-04-21T07:10:25Z</time></trkpt><trkpt lat="43.954221596429605" lon="6.852103603709255"><ele>433.0</ele><time>2026-04-21T07:10:26Z</time></trkpt><trkpt lat="43.95425195460091" lon="6.8523971974556455"><ele>432.0</ele><time>2026-04-21T07:10:27Z</time></trkpt><trkpt lat="43.95427767772526" lon="6.852690703665515"><ele>431.0</ele><time>2026-04-21T07:10:28Z</time></trkpt><trkpt lat="43.954301521252766" lon="6.852970373128136"><ele>431.0</ele><time>2026-04-21T07:10:29Z</time></trkpt><trkpt lat="43.954321654161454" lon="6.853260108740937"><ele>431.0</ele><time>2026-04-21T07:10:30Z</time></trkpt><trkpt lat="43.954336092006216" lon="6.853548895049808"><ele>431.0</ele><time>2026-04-21T07:10:31Z</time></trkpt><trkpt lat="43.95434229024081" lon="6.853840933315186"><ele>431.0</ele><time>2026-04-21T07:10:32Z</time></trkpt><trkpt lat="43.95435001553914" lon="6.854130146059684"><ele>431.0</ele><time>2026-04-21T07:10:33Z</time></trkpt><trkpt lat="43.954352363459556" lon="6.854428838895281"><ele>431.0</ele><time>2026-04-21T07:10:34Z</time></trkpt><trkpt lat="43.954356150226" lon="6.854732998409024"><ele>431.0</ele><time>2026-04-21T07:10:35Z</time></trkpt><trkpt lat="43.95435749757161" lon="6.855029149480363"><ele>431.0</ele><time>2026-04-21T07:10:36Z</time></trkpt><trkpt lat="43.95434794343282" lon="6.855304441849057"><ele>431.0</ele><time>2026-04-21T07:10:37Z</time></trkpt><trkpt lat="43.95433736321999" lon="6.855579028481772"><ele>430.3333333333333</ele><time>2026-04-21T07:10:38Z</time></trkpt><trkpt lat="43.95432322924348" lon="6.855849662709019"><ele>429.66666666666663</ele><time>2026-04-21T07:10:39Z</time></trkpt><trkpt lat="43.95431019077378" lon="6.856126359704775"><ele>429.0</ele><time>2026-04-21T07:10:40Z</time></trkpt><trkpt lat="43.95429734532494" lon="6.856412098756328"><ele>429.0</ele><time>2026-04-21T07:10:41Z</time></trkpt><trkpt lat="43.954290451400844" lon="6.856704699731218"><ele>429.0</ele><time>2026-04-21T07:10:42Z</time></trkpt><trkpt lat="43.954277062756944" lon="6.856995605603087"><ele>429.0</ele><time>2026-04-21T07:10:43Z</time></trkpt><trkpt lat="43.95425676481544" lon="6.857283309281602"><ele>429.33333333333337</ele><time>2026-04-21T07:10:44Z</time></trkpt><trkpt lat="43.954234979402486" lon="6.8575706892913155"><ele>429.6666666666667</ele><time>2026-04-21T07:10:45Z</time></trkpt><trkpt lat="43.954213747918004" lon="6.857842142125867"><ele>430.0</ele><time>2026-04-21T07:10:46Z</time></trkpt><trkpt lat="43.954198435873444" lon="6.858093771877163"><ele>430.0</ele><time>2026-04-21T07:10:47Z</time></trkpt><trkpt lat="43.954184931521084" lon="6.858334605261269"><ele>430.0</ele><time>2026-04-21T07:10:48Z</time></trkpt><trkpt lat="43.95416824637404" lon="6.8585657904071455"><ele>430.0</ele><time>2026-04-21T07:10:49Z</time></trkpt><trkpt lat="43.95415132063583" lon="6.858799083234533"><ele>429.33333333333337</ele><time>2026-04-21T07:10:50Z</time></trkpt><trkpt lat="43.95413329547067" lon="6.859042350367175"><ele>428.66666666666663</ele><time>2026-04-21T07:10:51Z</time></trkpt><trkpt lat="43.95411727431852" lon="6.8592951984065085"><ele>428.0</ele><time>2026-04-21T07:10:52Z</time></trkpt><trkpt lat="43.95410482136954" lon="6.859559547974337"><ele>427.66666666666663</ele><time>2026-04-21T07:10:53Z</time></trkpt><trkpt lat="43.9540698253084" lon="6.859825435996595"><ele>427.33333333333337</ele><time>2026-04-21T07:10:54Z</time></trkpt><trkpt lat="43.9540498343519" lon="6.860116606385187"><ele>427.0</ele><time>2026-04-21T07:10:55Z</time></trkpt><trkpt lat="43.95402952797414" lon="6.860412370976532"><ele>426.6666666666667</ele><time>2026-04-21T07:10:56Z</time></trkpt><trkpt lat="43.95402032236783" lon="6.860715668177372"><ele>426.33333333333337</ele><time>2026-04-21T07:10:57Z</time></trkpt><trkpt lat="43.95398990180853" lon="6.861017371879748"><ele>426.0</ele><time>2026-04-21T07:10:58Z</time></trkpt><trkpt lat="43.953971616156636" lon="6.861316550937138"><ele>426.0</ele><time>2026-04-21T07:10:59Z</time></trkpt><trkpt lat="43.953952551303594" lon="6.8616214185883795"><ele>426.0</ele><time>2026-04-21T07:11:00Z</time></trkpt><trkpt lat="43.95393275156674" lon="6.861929388955748"><ele>426.0</ele><time>2026-04-21T07:11:01Z</time></trkpt><trkpt lat="43.95391249060715" lon="6.862239570315459"><ele>425.33333333333337</ele><time>2026-04-21T07:11:02Z</time></trkpt><trkpt lat="43.95389217518687" lon="6.862552201872365"><ele>424.6666666666667</ele><time>2026-04-21T07:11:03Z</time></trkpt><trkpt lat="43.95387059496782" lon="6.862853199966622"><ele>424.0</ele><time>2026-04-21T07:11:04Z</time></trkpt><trkpt lat="43.95384930639747" lon="6.86315063288602"><ele>423.6666666666667</ele><time>2026-04-21T07:11:05Z</time></trkpt><trkpt lat="43.9538286681647" lon="6.863440909151709"><ele>423.33333333333337</ele><time>2026-04-21T07:11:06Z</time></trkpt><trkpt lat="43.95380769047668" lon="6.863729961070571"><ele>423.0</ele><time>2026-04-21T07:11:07Z</time></trkpt><trkpt lat="43.95378904094499" lon="6.86402573706158"><ele>422.33333333333337</ele><time>2026-04-21T07:11:08Z</time></trkpt><trkpt lat="43.95377097213002" lon="6.864327113404044"><ele>421.6666666666667</ele><time>2026-04-21T07:11:09Z</time></trkpt><trkpt lat="43.95375301892407" lon="6.864623203181644"><ele>421.0</ele><time>2026-04-21T07:11:10Z</time></trkpt><trkpt lat="43.95373327882624" lon="6.864917435578232"><ele>421.33333333333337</ele><time>2026-04-21T07:11:11Z</time></trkpt><trkpt lat="43.953710055350506" lon="6.865217372319362"><ele>421.66666666666663</ele><time>2026-04-21T07:11:12Z</time></trkpt><trkpt lat="43.95368723961273" lon="6.865521862092943"><ele>422.0</ele><time>2026-04-21T07:11:13Z</time></trkpt><trkpt lat="43.953663485640284" lon="6.865822426482252"><ele>421.66666666666663</ele><time>2026-04-21T07:11:14Z</time></trkpt><trkpt lat="43.95364014330358" lon="6.866125933499873"><ele>421.33333333333337</ele><time>2026-04-21T07:11:15Z</time></trkpt><trkpt lat="43.95361965376942" lon="6.8664284330453365"><ele>421.0</ele><time>2026-04-21T07:11:16Z</time></trkpt><trkpt lat="43.95360176693351" lon="6.8667154895274285"><ele>420.6666666666667</ele><time>2026-04-21T07:11:17Z</time></trkpt><trkpt lat="43.95357977748442" lon="6.867013097233866"><ele>420.33333333333337</ele><time>2026-04-21T07:11:18Z</time></trkpt><trkpt lat="43.95355791466483" lon="6.867308981877872"><ele>420.0</ele><time>2026-04-21T07:11:19Z</time></trkpt><trkpt lat="43.95353531689116" lon="6.8676003262624645"><ele>420.0</ele><time>2026-04-21T07:11:20Z</time></trkpt><trkpt lat="43.95351263626959" lon="6.867897651520226"><ele>420.0</ele><time>2026-04-21T07:11:21Z</time></trkpt><trkpt lat="43.95349560707199" lon="6.868180523105097"><ele>420.0</ele><time>2026-04-21T07:11:22Z</time></trkpt><trkpt lat="43.95347837091879" lon="6.8684638186753775"><ele>419.66666666666663</ele><time>2026-04-21T07:11:23Z</time></trkpt><trkpt lat="43.95345498761917" lon="6.8687354734451675"><ele>419.3333333333333</ele><time>2026-04-21T07:11:24Z</time></trkpt><trkpt lat="43.95342102755951" lon="6.869011997719537"><ele>419.0</ele><time>2026-04-21T07:11:25Z</time></trkpt><trkpt lat="43.95337418137353" lon="6.869290266577646"><ele>419.0</ele><time>2026-04-21T07:11:26Z</time></trkpt><trkpt lat="43.95330525317059" lon="6.869559081789198"><ele>419.0</ele><time>2026-04-21T07:11:27Z</time></trkpt><trkpt lat="43.95321916792719" lon="6.869828411798054"><ele>419.0</ele><time>2026-04-21T07:11:28Z</time></trkpt><trkpt lat="43.95312318231381" lon="6.8700961127194065"><ele>419.3333333333333</ele><time>2026-04-21T07:11:29Z</time></trkpt><trkpt lat="43.95302422342842" lon="6.8703494036427575"><ele>419.66666666666663</ele><time>2026-04-21T07:11:30Z</time></trkpt><trkpt lat="43.952940818370855" lon="6.870584110132532"><ele>420.0</ele><time>2026-04-21T07:11:31Z</time></trkpt><trkpt lat="43.952868924013494" lon="6.870792139535591"><ele>419.33333333333337</ele><time>2026-04-21T07:11:32Z</time></trkpt><trkpt lat="43.95280948501384" lon="6.871004513588864"><ele>418.6666666666667</ele><time>2026-04-21T07:11:33Z</time></trkpt><trkpt lat="43.952767844790394" lon="6.8712209774929685"><ele>418.0</ele><time>2026-04-21T07:11:34Z</time></trkpt><trkpt lat="43.95274341107129" lon="6.871432430375482"><ele>418.0</ele><time>2026-04-21T07:11:35Z</time></trkpt><trkpt lat="43.95273875376006" lon="6.871652959507347"><ele>418.0</ele><time>2026-04-21T07:11:36Z</time></trkpt><trkpt lat="43.95275311422314" lon="6.871885303092904"><ele>418.0</ele><time>2026-04-21T07:11:37Z</time></trkpt><trkpt lat="43.952783544468666" lon="6.872119981357515"><ele>417.25</ele><time>2026-04-21T07:11:38Z</time></trkpt><trkpt lat="43.95281177171581" lon="6.872332817990434"><ele>416.5</ele><time>2026-04-21T07:11:39Z</time></trkpt><trkpt lat="43.95283332863744" lon="6.872533874707938"><ele>415.75</ele><time>2026-04-21T07:11:40Z</time></trkpt><trkpt lat="43.95284212737817" lon="6.872726974924266"><ele>415.0</ele><time>2026-04-21T07:11:41Z</time></trkpt><trkpt lat="43.95282695420086" lon="6.872922540742128"><ele>415.0</ele><time>2026-04-21T07:11:42Z</time></trkpt><trkpt lat="43.95278676902893" lon="6.873124233944505"><ele>415.0</ele><time>2026-04-21T07:11:43Z</time></trkpt><trkpt lat="43.9527269851899" lon="6.873325965325793"><ele>415.0</ele><time>2026-04-21T07:11:44Z</time></trkpt><trkpt lat="43.95264598528738" lon="6.873511407555383"><ele>415.0</ele><time>2026-04-21T07:11:45Z</time></trkpt><trkpt lat="43.95255664354355" lon="6.8736936348994355"><ele>415.0</ele><time>2026-04-21T07:11:46Z</time></trkpt><trkpt lat="43.95246256297927" lon="6.873883524832455"><ele>415.0</ele><time>2026-04-21T07:11:47Z</time></trkpt><trkpt lat="43.95235784300195" lon="6.8740765863609505"><ele>415.6666666666667</ele><time>2026-04-21T07:11:48Z</time></trkpt><trkpt lat="43.952250261602885" lon="6.874271512429591"><ele>416.33333333333337</ele><time>2026-04-21T07:11:49Z</time></trkpt><trkpt lat="43.952147600240565" lon="6.874463954463956"><ele>417.0</ele><time>2026-04-21T07:11:50Z</time></trkpt><trkpt lat="43.952060977095265" lon="6.874640393080499"><ele>417.0</ele><time>2026-04-21T07:11:51Z</time></trkpt><trkpt lat="43.95199329444362" lon="6.87481837597016"><ele>417.0</ele><time>2026-04-21T07:11:52Z</time></trkpt><trkpt lat="43.95195017174372" lon="6.875000740378702"><ele>417.0</ele><time>2026-04-21T07:11:53Z</time></trkpt><trkpt lat="43.9519255537952" lon="6.875198094888749"><ele>417.0</ele><time>2026-04-21T07:11:54Z</time></trkpt><trkpt lat="43.95190848227079" lon="6.875414709835347"><ele>416.0</ele><time>2026-04-21T07:11:55Z</time></trkpt><trkpt lat="43.951887908890534" lon="6.8756391313257"><ele>415.0</ele><time>2026-04-21T07:11:56Z</time></trkpt><trkpt lat="43.95186721468405" lon="6.875876663939597"><ele>414.0</ele><time>2026-04-21T07:11:57Z</time></trkpt><trkpt lat="43.95184794661357" lon="6.876124060982464"><ele>413.33333333333337</ele><time>2026-04-21T07:11:58Z</time></trkpt><trkpt lat="43.95182815247931" lon="6.876354509165451"><ele>412.6666666666667</ele><time>2026-04-21T07:11:59Z</time></trkpt><trkpt lat="43.95181104717836" lon="6.87657139427048"><ele>412.0</ele><time>2026-04-21T07:12:00Z</time></trkpt><trkpt lat="43.95179876394265" lon="6.876755100327921"><ele>412.8</ele><time>2026-04-21T07:12:01Z</time></trkpt><trkpt lat="43.951792435516" lon="6.876896909136427"><ele>413.6</ele><time>2026-04-21T07:12:02Z</time></trkpt><trkpt lat="43.95180076470929" lon="6.87701496078155"><ele>414.40000000000003</ele><time>2026-04-21T07:12:03Z</time></trkpt><trkpt lat="43.951827600073415" lon="6.877099110686088"><ele>415.20000000000005</ele><time>2026-04-21T07:12:04Z</time></trkpt><trkpt lat="43.95194744162414" lon="6.877198129542372"><ele>416.0</ele><time>2026-04-21T07:12:06Z</time></trkpt><trkpt lat="43.95202994370606" lon="6.877237840406937"><ele>416.0</ele><time>2026-04-21T07:12:07Z</time></trkpt><trkpt lat="43.95213255341476" lon="6.877289704647972"><ele>416.0</ele><time>2026-04-21T07:12:08Z</time></trkpt><trkpt lat="43.952240199145365" lon="6.877356474161491"><ele>416.0</ele><time>2026-04-21T07:12:09Z</time></trkpt><trkpt lat="43.95235096887675" lon="6.877421581628059"><ele>416.0</ele><time>2026-04-21T07:12:10Z</time></trkpt><trkpt lat="43.95245187726308" lon="6.877482448540624"><ele>416.0</ele><time>2026-04-21T07:12:11Z</time></trkpt><trkpt lat="43.95251537121066" lon="6.877538625053159"><ele>416.0</ele><time>2026-04-21T07:12:12Z</time></trkpt><trkpt lat="43.952553036009334" lon="6.8776131282630795"><ele>416.0</ele><time>2026-04-21T07:12:13Z</time></trkpt><trkpt lat="43.952576078253635" lon="6.877728737950457"><ele>416.0</ele><time>2026-04-21T07:12:14Z</time></trkpt><trkpt lat="43.9525663070467" lon="6.87787926781717"><ele>416.0</ele><time>2026-04-21T07:12:15Z</time></trkpt><trkpt lat="43.95252162604695" lon="6.878049866747123"><ele>416.3333333333333</ele><time>2026-04-21T07:12:16Z</time></trkpt><trkpt lat="43.952453315817124" lon="6.878232656627286"><ele>416.66666666666663</ele><time>2026-04-21T07:12:17Z</time></trkpt><trkpt lat="43.95238041413668" lon="6.878416725991623"><ele>417.0</ele><time>2026-04-21T07:12:18Z</time></trkpt><trkpt lat="43.95230528796144" lon="6.878614161752707"><ele>416.66666666666663</ele><time>2026-04-21T07:12:19Z</time></trkpt><trkpt lat="43.952226645434926" lon="6.878841932417297"><ele>416.3333333333333</ele><time>2026-04-21T07:12:20Z</time></trkpt><trkpt lat="43.95215546499112" lon="6.879083874077303"><ele>416.0</ele><time>2026-04-21T07:12:21Z</time></trkpt><trkpt lat="43.95208968694" lon="6.879333407340846"><ele>416.0</ele><time>2026-04-21T07:12:22Z</time></trkpt><trkpt lat="43.952032181441176" lon="6.879576976902559"><ele>416.0</ele><time>2026-04-21T07:12:23Z</time></trkpt><trkpt lat="43.95198636713893" lon="6.8798155272621635"><ele>416.0</ele><time>2026-04-21T07:12:24Z</time></trkpt><trkpt lat="43.9519520783631" lon="6.8800589962125205"><ele>416.3333333333333</ele><time>2026-04-21T07:12:25Z</time></trkpt><trkpt lat="43.951930438638094" lon="6.88030531595719"><ele>416.66666666666663</ele><time>2026-04-21T07:12:26Z</time></trkpt><trkpt lat="43.951918497856816" lon="6.88054061458463"><ele>417.0</ele><time>2026-04-21T07:12:27Z</time></trkpt><trkpt lat="43.95191474744611" lon="6.880764319160957"><ele>416.0</ele><time>2026-04-21T07:12:28Z</time></trkpt><trkpt lat="43.9519186653885" lon="6.88097245688877"><ele>415.0</ele><time>2026-04-21T07:12:29Z</time></trkpt><trkpt lat="43.951927392864" lon="6.881143179139644"><ele>414.0</ele><time>2026-04-21T07:12:30Z</time></trkpt><trkpt lat="43.95196037313418" lon="6.881291844273473"><ele>413.0</ele><time>2026-04-21T07:12:31Z</time></trkpt><trkpt lat="43.95202305382213" lon="6.881443862241006"><ele>413.0</ele><time>2026-04-21T07:12:32Z</time></trkpt><trkpt lat="43.95210180352724" lon="6.88159814389619"><ele>413.0</ele><time>2026-04-21T07:12:33Z</time></trkpt><trkpt lat="43.95215981319601" lon="6.881766903280719"><ele>413.0</ele><time>2026-04-21T07:12:34Z</time></trkpt><trkpt lat="43.95218446971389" lon="6.881970942407027"><ele>413.0</ele><time>2026-04-21T07:12:35Z</time></trkpt><trkpt lat="43.952182757940115" lon="6.882197081060252"><ele>412.0</ele><time>2026-04-21T07:12:36Z</time></trkpt><trkpt lat="43.95218383292913" lon="6.882427755417127"><ele>411.0</ele><time>2026-04-21T07:12:37Z</time></trkpt><trkpt lat="43.95221072518332" lon="6.882660972980047"><ele>410.0</ele><time>2026-04-21T07:12:38Z</time></trkpt><trkpt lat="43.952254642486345" lon="6.8829063318693535"><ele>409.3333333333333</ele><time>2026-04-21T07:12:39Z</time></trkpt><trkpt lat="43.95231216641566" lon="6.883158285795372"><ele>408.66666666666663</ele><time>2026-04-21T07:12:40Z</time></trkpt><trkpt lat="43.95238433177944" lon="6.883410542295519"><ele>408.0</ele><time>2026-04-21T07:12:41Z</time></trkpt><trkpt lat="43.95247337435238" lon="6.883659323047314"><ele>408.33333333333337</ele><time>2026-04-21T07:12:42Z</time></trkpt><trkpt lat="43.952567110395904" lon="6.883894016131383"><ele>408.6666666666667</ele><time>2026-04-21T07:12:43Z</time></trkpt><trkpt lat="43.95264936217914" lon="6.884118762189258"><ele>409.0</ele><time>2026-04-21T07:12:44Z</time></trkpt><trkpt lat="43.95273409607924" lon="6.884353913014667"><ele>409.0</ele><time>2026-04-21T07:12:45Z</time></trkpt><trkpt lat="43.95281969752821" lon="6.88459118916869"><ele>409.0</ele><time>2026-04-21T07:12:46Z</time></trkpt><trkpt lat="43.95290368221921" lon="6.884832851625302"><ele>409.0</ele><time>2026-04-21T07:12:47Z</time></trkpt><trkpt lat="43.95298965149099" lon="6.88507699898365"><ele>408.6666666666667</ele><time>2026-04-21T07:12:48Z</time></trkpt><trkpt lat="43.95307496098763" lon="6.8853229580272215"><ele>408.33333333333337</ele><time>2026-04-21T07:12:49Z</time></trkpt><trkpt lat="43.953157684529415" lon="6.885573135434452"><ele>408.0</ele><time>2026-04-21T07:12:50Z</time></trkpt><trkpt lat="43.95324221147643" lon="6.885822913642345"><ele>407.33333333333337</ele><time>2026-04-21T07:12:51Z</time></trkpt><trkpt lat="43.95332509271112" lon="6.886060996763809"><ele>406.6666666666667</ele><time>2026-04-21T07:12:52Z</time></trkpt><trkpt lat="43.95340269454527" lon="6.886293630260678"><ele>406.0</ele><time>2026-04-21T07:12:53Z</time></trkpt><trkpt lat="43.95347564342785" lon="6.886522596402442"><ele>406.0</ele><time>2026-04-21T07:12:54Z</time></trkpt><trkpt lat="43.95354351321777" lon="6.8867476666408995"><ele>406.0</ele><time>2026-04-21T07:12:55Z</time></trkpt><trkpt lat="43.95359924757504" lon="6.886971208389394"><ele>406.0</ele><time>2026-04-21T07:12:56Z</time></trkpt><trkpt lat="43.9536515298153" lon="6.887195157557231"><ele>406.6666666666667</ele><time>2026-04-21T07:12:57Z</time></trkpt><trkpt lat="43.953702124191736" lon="6.887429943460638"><ele>407.33333333333337</ele><time>2026-04-21T07:12:58Z</time></trkpt><trkpt lat="43.95375062471976" lon="6.8876723262781185"><ele>408.0</ele><time>2026-04-21T07:12:59Z</time></trkpt><trkpt lat="43.95380103802428" lon="6.887918391440687"><ele>408.33333333333337</ele><time>2026-04-21T07:13:00Z</time></trkpt><trkpt lat="43.953846797681024" lon="6.888148336451533"><ele>408.6666666666667</ele><time>2026-04-21T07:13:01Z</time></trkpt><trkpt lat="43.953891655501444" lon="6.888369458929868"><ele>409.0</ele><time>2026-04-21T07:13:02Z</time></trkpt><trkpt lat="43.9539388887805" lon="6.888595501617107"><ele>408.33333333333337</ele><time>2026-04-21T07:13:03Z</time></trkpt><trkpt lat="43.953993326368774" lon="6.88881484986501"><ele>407.66666666666663</ele><time>2026-04-21T07:13:04Z</time></trkpt><trkpt lat="43.95404793596067" lon="6.889017884216123"><ele>407.0</ele><time>2026-04-21T07:13:05Z</time></trkpt><trkpt lat="43.95410788724282" lon="6.889210050799325"><ele>406.8</ele><time>2026-04-21T07:13:06Z</time></trkpt><trkpt lat="43.95416388609934" lon="6.88938888379483"><ele>406.6</ele><time>2026-04-21T07:13:07Z</time></trkpt><trkpt lat="43.95421746415649" lon="6.889541979442545"><ele>406.40000000000003</ele><time>2026-04-21T07:13:08Z</time></trkpt><trkpt lat="43.95425288087495" lon="6.889645757815372"><ele>406.20000000000005</ele><time>2026-04-21T07:13:09Z</time></trkpt><trkpt lat="43.95427227190786" lon="6.8897365808095765"><ele>406.0</ele><time>2026-04-21T07:13:11Z</time></trkpt><trkpt lat="43.954330271214275" lon="6.889788822037347"><ele>406.0</ele><time>2026-04-21T07:21:05Z</time></trkpt><trkpt lat="43.95437994235238" lon="6.8898552409941844"><ele>406.0</ele><time>2026-04-21T07:21:06Z</time></trkpt><trkpt lat="43.95443096965513" lon="6.889946120269724"><ele>406.0</ele><time>2026-04-21T07:21:07Z</time></trkpt><trkpt lat="43.954484197719445" lon="6.8900750152752845"><ele>406.0</ele><time>2026-04-21T07:21:08Z</time></trkpt><trkpt lat="43.95453517313393" lon="6.890219547222456"><ele>406.0</ele><time>2026-04-21T07:21:09Z</time></trkpt><trkpt lat="43.95458324010309" lon="6.890388012962877"><ele>405.75</ele><time>2026-04-21T07:21:10Z</time></trkpt><trkpt lat="43.95462454657042" lon="6.890573075497674"><ele>405.5</ele><time>2026-04-21T07:21:11Z</time></trkpt><trkpt lat="43.95466013006601" lon="6.890765089616427"><ele>405.25</ele><time>2026-04-21T07:21:12Z</time></trkpt><trkpt lat="43.95469420517707" lon="6.890956333993973"><ele>405.0</ele><time>2026-04-21T07:21:13Z</time></trkpt><trkpt lat="43.95472403798782" lon="6.89114150098188"><ele>405.0</ele><time>2026-04-21T07:21:14Z</time></trkpt><trkpt lat="43.95474845618543" lon="6.891320510570931"><ele>405.0</ele><time>2026-04-21T07:21:15Z</time></trkpt><trkpt lat="43.95476609192399" lon="6.89149012758593"><ele>405.0</ele><time>2026-04-21T07:21:16Z</time></trkpt><trkpt lat="43.95477385798489" lon="6.8916476677745155"><ele>405.0</ele><time>2026-04-21T07:21:17Z</time></trkpt><trkpt lat="43.954772099570576" lon="6.891802255733809"><ele>405.25</ele><time>2026-04-21T07:21:18Z</time></trkpt><trkpt lat="43.95476618124723" lon="6.891986687140298"><ele>405.5</ele><time>2026-04-21T07:21:19Z</time></trkpt><trkpt lat="43.9547623950737" lon="6.892188973819862"><ele>405.75</ele><time>2026-04-21T07:21:20Z</time></trkpt><trkpt lat="43.954757103533105" lon="6.892396028142201"><ele>406.0</ele><time>2026-04-21T07:21:21Z</time></trkpt><trkpt lat="43.95475676339879" lon="6.892587408938954"><ele>406.0</ele><time>2026-04-21T07:21:22Z</time></trkpt><trkpt lat="43.95475563589753" lon="6.892783723275157"><ele>406.0</ele><time>2026-04-21T07:21:23Z</time></trkpt><trkpt lat="43.954756356343005" lon="6.892960295206981"><ele>406.0</ele><time>2026-04-21T07:21:24Z</time></trkpt><trkpt lat="43.954755510317014" lon="6.893134276354092"><ele>406.0</ele><time>2026-04-21T07:21:25Z</time></trkpt><trkpt lat="43.95475837534868" lon="6.893329015707963"><ele>405.25</ele><time>2026-04-21T07:21:26Z</time></trkpt><trkpt lat="43.95476474016851" lon="6.893514631073425"><ele>404.5</ele><time>2026-04-21T07:21:27Z</time></trkpt><trkpt lat="43.95477631867309" lon="6.893685146337526"><ele>403.75</ele><time>2026-04-21T07:21:28Z</time></trkpt><trkpt lat="43.954798608193165" lon="6.893851022789305"><ele>403.0</ele><time>2026-04-21T07:21:29Z</time></trkpt><trkpt lat="43.954829218981104" lon="6.894037573254126"><ele>403.0</ele><time>2026-04-21T07:21:30Z</time></trkpt><trkpt lat="43.95486393601802" lon="6.894205871498422"><ele>403.0</ele><time>2026-04-21T07:21:31Z</time></trkpt><trkpt lat="43.954891916340316" lon="6.894365262351075"><ele>403.0</ele><time>2026-04-21T07:21:32Z</time></trkpt><trkpt lat="43.954923169593" lon="6.89453026949242"><ele>403.0</ele><time>2026-04-21T07:21:33Z</time></trkpt><trkpt lat="43.95494965851554" lon="6.894686152690155"><ele>403.1666666666667</ele><time>2026-04-21T07:21:34Z</time></trkpt><trkpt lat="43.95497082977986" lon="6.8948234946600335"><ele>403.33333333333337</ele><time>2026-04-21T07:21:35Z</time></trkpt><trkpt lat="43.954994440611394" lon="6.8949171785716015"><ele>403.5</ele><time>2026-04-21T07:21:36Z</time></trkpt><trkpt lat="43.95500446276652" lon="6.895027447755678"><ele>403.66666666666663</ele><time>2026-04-21T07:21:37Z</time></trkpt><trkpt lat="43.95504507290383" lon="6.895152398280496"><ele>403.8333333333333</ele><time>2026-04-21T07:21:38Z</time></trkpt><trkpt lat="43.95505811100182" lon="6.895275065000384"><ele>404.0</ele><time>2026-04-21T07:21:39Z</time></trkpt><trkpt lat="43.9550687519602" lon="6.895365684051137"><ele>404.57142857142856</ele><time>2026-04-21T07:21:40Z</time></trkpt><trkpt lat="43.955089601174116" lon="6.895449558089836"><ele>405.1428571428571</ele><time>2026-04-21T07:21:41Z</time></trkpt><trkpt lat="43.95510633973292" lon="6.895536078134907"><ele>405.7142857142857</ele><time>2026-04-21T07:21:42Z</time></trkpt><trkpt lat="43.955119958817484" lon="6.895625844364341"><ele>406.2857142857143</ele><time>2026-04-21T07:21:43Z</time></trkpt><trkpt lat="43.95513538001281" lon="6.895717725078803"><ele>406.8571428571429</ele><time>2026-04-21T07:21:44Z</time></trkpt><trkpt lat="43.95514655641379" lon="6.895812780527609"><ele>407.42857142857144</ele><time>2026-04-21T07:21:45Z</time></trkpt><trkpt lat="43.955157673070126" lon="6.8959092687226775"><ele>408.0</ele><time>2026-04-21T07:21:46Z</time></trkpt><trkpt lat="43.95516709494531" lon="6.896014531385461"><ele>408.0</ele><time>2026-04-21T07:21:47Z</time></trkpt><trkpt lat="43.9551734590694" lon="6.896133654934033"><ele>408.0</ele><time>2026-04-21T07:21:48Z</time></trkpt><trkpt lat="43.95517921829023" lon="6.89626894200268"><ele>408.0</ele><time>2026-04-21T07:21:49Z</time></trkpt><trkpt lat="43.95518175740488" lon="6.89642398644237"><ele>408.0</ele><time>2026-04-21T07:21:50Z</time></trkpt><trkpt lat="43.955178464462456" lon="6.896565945586485"><ele>408.0</ele><time>2026-04-21T07:21:51Z</time></trkpt><trkpt lat="43.95517125320567" lon="6.896718618346194"><ele>408.25</ele><time>2026-04-21T07:21:52Z</time></trkpt><trkpt lat="43.955158479010606" lon="6.896889473073673"><ele>408.5</ele><time>2026-04-21T07:21:53Z</time></trkpt><trkpt lat="43.955141537542254" lon="6.897065036713001"><ele>408.75</ele><time>2026-04-21T07:21:54Z</time></trkpt><trkpt lat="43.95512380115513" lon="6.897223674473861"><ele>409.0</ele><time>2026-04-21T07:21:55Z</time></trkpt><trkpt lat="43.955107618455386" lon="6.897393576007121"><ele>409.75</ele><time>2026-04-21T07:21:56Z</time></trkpt><trkpt lat="43.955087940647" lon="6.897585579143513"><ele>410.5</ele><time>2026-04-21T07:21:57Z</time></trkpt><trkpt lat="43.95506843027131" lon="6.897782379804061"><ele>411.25</ele><time>2026-04-21T07:21:58Z</time></trkpt><trkpt lat="43.95504754486389" lon="6.89796367406094"><ele>412.0</ele><time>2026-04-21T07:21:59Z</time></trkpt><trkpt lat="43.95502654193797" lon="6.898135840358691"><ele>409.25</ele><time>2026-04-21T07:22:00Z</time></trkpt><trkpt lat="43.95500898583386" lon="6.8983141052300825"><ele>406.5</ele><time>2026-04-21T07:22:01Z</time></trkpt><trkpt lat="43.95498878945818" lon="6.898496251253156"><ele>403.75</ele><time>2026-04-21T07:22:02Z</time></trkpt><trkpt lat="43.954964986051856" lon="6.898682972054825"><ele>401.0</ele><time>2026-04-21T07:22:03Z</time></trkpt><trkpt lat="43.95493494220839" lon="6.898867082929394"><ele>400.5</ele><time>2026-04-21T07:22:04Z</time></trkpt><trkpt lat="43.9548951520675" lon="6.899044127640906"><ele>400.0</ele><time>2026-04-21T07:22:05Z</time></trkpt><trkpt lat="43.95484986237163" lon="6.899210584880967"><ele>399.5</ele><time>2026-04-21T07:22:06Z</time></trkpt><trkpt lat="43.95479517187884" lon="6.899364406211298"><ele>399.0</ele><time>2026-04-21T07:22:07Z</time></trkpt><trkpt lat="43.95472575507422" lon="6.899515869241997"><ele>398.75</ele><time>2026-04-21T07:22:08Z</time></trkpt><trkpt lat="43.95464497925532" lon="6.899668673520191"><ele>398.5</ele><time>2026-04-21T07:22:09Z</time></trkpt><trkpt lat="43.95455261790468" lon="6.89979994187317"><ele>398.25</ele><time>2026-04-21T07:22:10Z</time></trkpt><trkpt lat="43.95444009130737" lon="6.899929544725456"><ele>398.0</ele><time>2026-04-21T07:22:11Z</time></trkpt><trkpt lat="43.95432455307931" lon="6.900041304423732"><ele>401.75</ele><time>2026-04-21T07:22:12Z</time></trkpt><trkpt lat="43.95420750025302" lon="6.900160406208057"><ele>405.5</ele><time>2026-04-21T07:22:13Z</time></trkpt><trkpt lat="43.95408309086301" lon="6.900277491565137"><ele>409.25</ele><time>2026-04-21T07:22:14Z</time></trkpt><trkpt lat="43.95395958437798" lon="6.900398010826539"><ele>413.0</ele><time>2026-04-21T07:22:15Z</time></trkpt><trkpt lat="43.953845537395" lon="6.900533389927609"><ele>413.0</ele><time>2026-04-21T07:22:16Z</time></trkpt><trkpt lat="43.95373987314939" lon="6.900682828254091"><ele>413.0</ele><time>2026-04-21T07:22:17Z</time></trkpt><trkpt lat="43.9536418263202" lon="6.900840811012069"><ele>413.0</ele><time>2026-04-21T07:22:18Z</time></trkpt><trkpt lat="43.95355228779944" lon="6.901017317869449"><ele>411.3333333333333</ele><time>2026-04-21T07:22:19Z</time></trkpt><trkpt lat="43.95346591993398" lon="6.9012099520531525"><ele>409.66666666666663</ele><time>2026-04-21T07:22:20Z</time></trkpt><trkpt lat="43.95338117452485" lon="6.901392744929755"><ele>408.0</ele><time>2026-04-21T07:22:21Z</time></trkpt><trkpt lat="43.953296409616556" lon="6.901569030340336"><ele>408.0</ele><time>2026-04-21T07:22:22Z</time></trkpt><trkpt lat="43.95321477857147" lon="6.901745459382715"><ele>408.0</ele><time>2026-04-21T07:22:23Z</time></trkpt><trkpt lat="43.95313671326661" lon="6.901920131604791"><ele>408.0</ele><time>2026-04-21T07:22:24Z</time></trkpt><trkpt lat="43.95307210599402" lon="6.902093828867855"><ele>408.0</ele><time>2026-04-21T07:22:25Z</time></trkpt><trkpt lat="43.953013192402345" lon="6.902269359833238"><ele>407.75</ele><time>2026-04-21T07:22:26Z</time></trkpt><trkpt lat="43.9529539674036" lon="6.902444113546212"><ele>407.5</ele><time>2026-04-21T07:22:27Z</time></trkpt><trkpt lat="43.9528864871615" lon="6.902625414108559"><ele>407.25</ele><time>2026-04-21T07:22:28Z</time></trkpt><trkpt lat="43.95281786031528" lon="6.902813967881225"><ele>407.0</ele><time>2026-04-21T07:22:29Z</time></trkpt><trkpt lat="43.95275010356767" lon="6.903005420958281"><ele>407.0</ele><time>2026-04-21T07:22:30Z</time></trkpt><trkpt lat="43.95268423810129" lon="6.9031978956961115"><ele>407.0</ele><time>2026-04-21T07:22:31Z</time></trkpt><trkpt lat="43.952617559690935" lon="6.903390510879167"><ele>407.0</ele><time>2026-04-21T07:22:32Z</time></trkpt><trkpt lat="43.95255559158351" lon="6.903571850444753"><ele>403.3333333333333</ele><time>2026-04-21T07:22:33Z</time></trkpt><trkpt lat="43.952488590531175" lon="6.903762669471502"><ele>399.66666666666663</ele><time>2026-04-21T07:22:34Z</time></trkpt><trkpt lat="43.95242297962832" lon="6.903976688475985"><ele>396.0</ele><time>2026-04-21T07:22:35Z</time></trkpt><trkpt lat="43.952366901170244" lon="6.9042099616309285"><ele>395.33333333333337</ele><time>2026-04-21T07:22:36Z</time></trkpt><trkpt lat="43.952321868008674" lon="6.904455528472402"><ele>394.6666666666667</ele><time>2026-04-21T07:22:37Z</time></trkpt><trkpt lat="43.952286405202436" lon="6.9047011079994896"><ele>394.0</ele><time>2026-04-21T07:22:38Z</time></trkpt><trkpt lat="43.95225986064714" lon="6.904950913248023"><ele>393.33333333333337</ele><time>2026-04-21T07:22:39Z</time></trkpt><trkpt lat="43.95224451916855" lon="6.905215762132524"><ele>392.66666666666663</ele><time>2026-04-21T07:22:40Z</time></trkpt><trkpt lat="43.952243365245835" lon="6.9054860265670035"><ele>392.0</ele><time>2026-04-21T07:22:41Z</time></trkpt><trkpt lat="43.952255213118434" lon="6.905742991846705"><ele>391.3333333333333</ele><time>2026-04-21T07:22:42Z</time></trkpt><trkpt lat="43.952278855469345" lon="6.906010914401811"><ele>390.66666666666663</ele><time>2026-04-21T07:22:43Z</time></trkpt><trkpt lat="43.952315830918295" lon="6.9062753659498455"><ele>390.0</ele><time>2026-04-21T07:22:44Z</time></trkpt><trkpt lat="43.95236379066735" lon="6.9065328231259535"><ele>390.33333333333337</ele><time>2026-04-21T07:22:45Z</time></trkpt><trkpt lat="43.95241924551614" lon="6.906775710429726"><ele>390.6666666666667</ele><time>2026-04-21T07:22:46Z</time></trkpt><trkpt lat="43.95248598417675" lon="6.907010697935564"><ele>391.0</ele><time>2026-04-21T07:22:47Z</time></trkpt><trkpt lat="43.952559068033835" lon="6.907229283339714"><ele>391.0</ele><time>2026-04-21T07:22:48Z</time></trkpt><trkpt lat="43.95264576167671" lon="6.907453190297609"><ele>391.0</ele><time>2026-04-21T07:22:49Z</time></trkpt><trkpt lat="43.952746653602574" lon="6.90767808943416"><ele>391.0</ele><time>2026-04-21T07:22:50Z</time></trkpt><trkpt lat="43.95285233580291" lon="6.907900457784364"><ele>390.6666666666667</ele><time>2026-04-21T07:22:51Z</time></trkpt><trkpt lat="43.95295933197971" lon="6.908115476967417"><ele>390.33333333333337</ele><time>2026-04-21T07:22:52Z</time></trkpt><trkpt lat="43.95306266247884" lon="6.908326004606672"><ele>390.0</ele><time>2026-04-21T07:22:53Z</time></trkpt><trkpt lat="43.95316598687707" lon="6.908530094309076"><ele>389.66666666666663</ele><time>2026-04-21T07:22:54Z</time></trkpt><trkpt lat="43.95326756682651" lon="6.9087303523798065"><ele>389.3333333333333</ele><time>2026-04-21T07:22:55Z</time></trkpt><trkpt lat="43.95336939919399" lon="6.9089315406603"><ele>389.0</ele><time>2026-04-21T07:22:56Z</time></trkpt><trkpt lat="43.95347663348263" lon="6.909142011892306"><ele>388.66666666666663</ele><time>2026-04-21T07:22:57Z</time></trkpt><trkpt lat="43.953583366105576" lon="6.909353220970083"><ele>388.33333333333337</ele><time>2026-04-21T07:22:58Z</time></trkpt><trkpt lat="43.95368636005635" lon="6.909556674139697"><ele>388.0</ele><time>2026-04-21T07:22:59Z</time></trkpt><trkpt lat="43.953791396346936" lon="6.909769822236474"><ele>388.0</ele><time>2026-04-21T07:23:00Z</time></trkpt><trkpt lat="43.95389620312609" lon="6.909986381504056"><ele>388.0</ele><time>2026-04-21T07:23:01Z</time></trkpt><trkpt lat="43.9540002374458" lon="6.910196912023958"><ele>388.0</ele><time>2026-04-21T07:23:02Z</time></trkpt><trkpt lat="43.95410040844831" lon="6.910399884106464"><ele>388.0</ele><time>2026-04-21T07:23:03Z</time></trkpt><trkpt lat="43.95420316734591" lon="6.910607073807695"><ele>388.0</ele><time>2026-04-21T07:23:04Z</time></trkpt><trkpt lat="43.95430495057026" lon="6.9108131601991865"><ele>388.0</ele><time>2026-04-21T07:23:05Z</time></trkpt><trkpt lat="43.95440668105315" lon="6.911020162679073"><ele>389.0</ele><time>2026-04-21T07:23:06Z</time></trkpt><trkpt lat="43.95450761237976" lon="6.911228337069598"><ele>390.0</ele><time>2026-04-21T07:23:07Z</time></trkpt><trkpt lat="43.954611536565615" lon="6.911437985474906"><ele>391.0</ele><time>2026-04-21T07:23:08Z</time></trkpt><trkpt lat="43.95471317104193" lon="6.911644550312499"><ele>390.0</ele><time>2026-04-21T07:23:09Z</time></trkpt><trkpt lat="43.95481160237476" lon="6.911853987381537"><ele>389.0</ele><time>2026-04-21T07:23:10Z</time></trkpt><trkpt lat="43.95490619660213" lon="6.912076234954303"><ele>388.0</ele><time>2026-04-21T07:23:11Z</time></trkpt><trkpt lat="43.95498540994975" lon="6.9123139548848185"><ele>393.33333333333337</ele><time>2026-04-21T07:23:12Z</time></trkpt><trkpt lat="43.9550513536877" lon="6.912565471840022"><ele>398.66666666666663</ele><time>2026-04-21T07:23:13Z</time></trkpt><trkpt lat="43.9551052722052" lon="6.912815212652559"><ele>404.0</ele><time>2026-04-21T07:23:14Z</time></trkpt><trkpt lat="43.955141974802125" lon="6.913059414085374"><ele>404.0</ele><time>2026-04-21T07:23:15Z</time></trkpt><trkpt lat="43.95516847364495" lon="6.913310150989295"><ele>404.0</ele><time>2026-04-21T07:23:16Z</time></trkpt><trkpt lat="43.955185340526015" lon="6.913557695816383"><ele>404.0</ele><time>2026-04-21T07:23:17Z</time></trkpt><trkpt lat="43.95519137839037" lon="6.913808381278297"><ele>403.66666666666663</ele><time>2026-04-21T07:23:18Z</time></trkpt><trkpt lat="43.95518397204144" lon="6.914057532767475"><ele>403.33333333333337</ele><time>2026-04-21T07:23:19Z</time></trkpt><trkpt lat="43.955164494269155" lon="6.914306324551825"><ele>403.0</ele><time>2026-04-21T07:23:20Z</time></trkpt><trkpt lat="43.955135648407804" lon="6.91456446861241"><ele>405.0</ele><time>2026-04-21T07:23:21Z</time></trkpt><trkpt lat="43.955093790947274" lon="6.914819495126806"><ele>407.0</ele><time>2026-04-21T07:23:22Z</time></trkpt><trkpt lat="43.95503579214598" lon="6.915067338114408"><ele>409.0</ele><time>2026-04-21T07:23:23Z</time></trkpt><trkpt lat="43.954965720580425" lon="6.915298052051318"><ele>404.33333333333337</ele><time>2026-04-21T07:23:24Z</time></trkpt><trkpt lat="43.9548834715198" lon="6.915525680267767"><ele>399.66666666666663</ele><time>2026-04-21T07:23:25Z</time></trkpt><trkpt lat="43.954793480006515" lon="6.915750407797267"><ele>395.0</ele><time>2026-04-21T07:23:26Z</time></trkpt><trkpt lat="43.9546954193843" lon="6.915976177256786"><ele>395.0</ele><time>2026-04-21T07:23:27Z</time></trkpt><trkpt lat="43.95458425865911" lon="6.916210874376508"><ele>395.0</ele><time>2026-04-21T07:23:28Z</time></trkpt><trkpt lat="43.954468446357076" lon="6.9164554295964775"><ele>395.0</ele><time>2026-04-21T07:23:29Z</time></trkpt><trkpt lat="43.954347619806036" lon="6.9167099052228895"><ele>399.5</ele><time>2026-04-21T07:23:30Z</time></trkpt><trkpt lat="43.95422145926339" lon="6.91697008189657"><ele>404.0</ele><time>2026-04-21T07:23:31Z</time></trkpt><trkpt lat="43.954094803066205" lon="6.917236990255399"><ele>398.0</ele><time>2026-04-21T07:23:32Z</time></trkpt><trkpt lat="43.953962736451444" lon="6.917507986557297"><ele>392.0</ele><time>2026-04-21T07:23:33Z</time></trkpt><trkpt lat="43.95382820099628" lon="6.9177847412451055"><ele>392.0</ele><time>2026-04-21T07:23:34Z</time></trkpt><trkpt lat="43.95369233752616" lon="6.9180653522319435"><ele>392.0</ele><time>2026-04-21T07:23:35Z</time></trkpt><trkpt lat="43.953565894679464" lon="6.918334038803304"><ele>395.5</ele><time>2026-04-21T07:23:36Z</time></trkpt><trkpt lat="43.95344383255173" lon="6.918596246248704"><ele>399.0</ele><time>2026-04-21T07:23:37Z</time></trkpt><trkpt lat="43.95331348973581" lon="6.918860278633211"><ele>393.6666666666667</ele><time>2026-04-21T07:23:38Z</time></trkpt><trkpt lat="43.95319018437911" lon="6.919113499294675"><ele>388.33333333333337</ele><time>2026-04-21T07:23:39Z</time></trkpt><trkpt lat="43.9530877176621" lon="6.919344321494482"><ele>383.0</ele><time>2026-04-21T07:23:40Z</time></trkpt><trkpt lat="43.95299925868241" lon="6.919585906603498"><ele>383.0</ele><time>2026-04-21T07:23:41Z</time></trkpt><trkpt lat="43.95293406541159" lon="6.919836156117159"><ele>383.0</ele><time>2026-04-21T07:23:42Z</time></trkpt><trkpt lat="43.952885531112976" lon="6.920084252130375"><ele>383.0</ele><time>2026-04-21T07:23:43Z</time></trkpt><trkpt lat="43.95285413326397" lon="6.920341427303223"><ele>382.6666666666667</ele><time>2026-04-21T07:23:44Z</time></trkpt><trkpt lat="43.9528445273398" lon="6.920609027556468"><ele>382.3333333333333</ele><time>2026-04-21T07:23:45Z</time></trkpt><trkpt lat="43.952851621094595" lon="6.92088191950606"><ele>382.0</ele><time>2026-04-21T07:23:46Z</time></trkpt><trkpt lat="43.95288334551364" lon="6.921149209953838"><ele>381.66666666666663</ele><time>2026-04-21T07:23:47Z</time></trkpt><trkpt lat="43.952933444942296" lon="6.921422603325869"><ele>381.3333333333333</ele><time>2026-04-21T07:23:48Z</time></trkpt><trkpt lat="43.9529912573386" lon="6.9216928035814025"><ele>381.0</ele><time>2026-04-21T07:23:49Z</time></trkpt><trkpt lat="43.95304926256941" lon="6.921964288407203"><ele>380.3333333333333</ele><time>2026-04-21T07:23:50Z</time></trkpt><trkpt lat="43.95310928506896" lon="6.92223616151154"><ele>379.66666666666663</ele><time>2026-04-21T07:23:51Z</time></trkpt><trkpt lat="43.95317115246946" lon="6.922508504017546"><ele>379.0</ele><time>2026-04-21T07:23:52Z</time></trkpt><trkpt lat="43.95323476511372" lon="6.922780182242945"><ele>379.3333333333333</ele><time>2026-04-21T07:23:53Z</time></trkpt><trkpt lat="43.95330232031298" lon="6.923034485253744"><ele>379.6666666666667</ele><time>2026-04-21T07:23:54Z</time></trkpt><trkpt lat="43.953378618924525" lon="6.923265222565716"><ele>380.0</ele><time>2026-04-21T07:23:55Z</time></trkpt><trkpt lat="43.95346812195126" lon="6.92349219400983"><ele>380.0</ele><time>2026-04-21T07:23:56Z</time></trkpt><trkpt lat="43.95356041704542" lon="6.92372143751734"><ele>380.0</ele><time>2026-04-21T07:23:57Z</time></trkpt><trkpt lat="43.95365584853896" lon="6.923960905310372"><ele>380.0</ele><time>2026-04-21T07:23:58Z</time></trkpt><trkpt lat="43.95375860609358" lon="6.924203366644301"><ele>379.33333333333337</ele><time>2026-04-21T07:23:59Z</time></trkpt><trkpt lat="43.953861815014534" lon="6.924445400875359"><ele>378.6666666666667</ele><time>2026-04-21T07:24:00Z</time></trkpt><trkpt lat="43.95395966048385" lon="6.924670137909639"><ele>378.0</ele><time>2026-04-21T07:24:01Z</time></trkpt><trkpt lat="43.95405430515261" lon="6.924891134213158"><ele>377.6666666666667</ele><time>2026-04-21T07:24:02Z</time></trkpt><trkpt lat="43.954149949540096" lon="6.925127559753252"><ele>377.33333333333337</ele><time>2026-04-21T07:24:03Z</time></trkpt><trkpt lat="43.95422941316901" lon="6.925358699853122"><ele>377.0</ele><time>2026-04-21T07:24:04Z</time></trkpt><trkpt lat="43.9542923032317" lon="6.925605490418063"><ele>381.0</ele><time>2026-04-21T07:24:05Z</time></trkpt><trkpt lat="43.95434138924528" lon="6.925839940811937"><ele>385.0</ele><time>2026-04-21T07:24:06Z</time></trkpt><trkpt lat="43.95437877442155" lon="6.926062174219059"><ele>389.0</ele><time>2026-04-21T07:24:07Z</time></trkpt><trkpt lat="43.95439446457487" lon="6.926301947019011"><ele>389.0</ele><time>2026-04-21T07:24:08Z</time></trkpt><trkpt lat="43.954387452800844" lon="6.926553784342676"><ele>389.0</ele><time>2026-04-21T07:24:09Z</time></trkpt><trkpt lat="43.954360951461574" lon="6.926809477756593"><ele>389.0</ele><time>2026-04-21T07:24:10Z</time></trkpt><trkpt lat="43.954313215318884" lon="6.927067729079135"><ele>390.0</ele><time>2026-04-21T07:24:11Z</time></trkpt><trkpt lat="43.954254154330506" lon="6.927334341653035"><ele>391.0</ele><time>2026-04-21T07:24:12Z</time></trkpt><trkpt lat="43.95419506086426" lon="6.927612149622726"><ele>392.0</ele><time>2026-04-21T07:24:13Z</time></trkpt><trkpt lat="43.954140679674296" lon="6.927898178601955"><ele>390.0</ele><time>2026-04-21T07:24:14Z</time></trkpt><trkpt lat="43.95409100650932" lon="6.928195905200147"><ele>388.0</ele><time>2026-04-21T07:24:15Z</time></trkpt><trkpt lat="43.95403891607141" lon="6.928501626162582"><ele>386.0</ele><time>2026-04-21T07:24:16Z</time></trkpt><trkpt lat="43.95398784450679" lon="6.92879480305621"><ele>386.0</ele><time>2026-04-21T07:24:17Z</time></trkpt><trkpt lat="43.95393495389408" lon="6.92909234070202"><ele>386.0</ele><time>2026-04-21T07:24:18Z</time></trkpt><trkpt lat="43.95388324064568" lon="6.9293919191800475"><ele>386.0</ele><time>2026-04-21T07:24:19Z</time></trkpt><trkpt lat="43.953840136620165" lon="6.929687296055882"><ele>390.0</ele><time>2026-04-21T07:24:20Z</time></trkpt><trkpt lat="43.95380680610036" lon="6.929989675605156"><ele>394.0</ele><time>2026-04-21T07:24:21Z</time></trkpt><trkpt lat="43.953784543238214" lon="6.930307030195719"><ele>393.0</ele><time>2026-04-21T07:24:22Z</time></trkpt><trkpt lat="43.953766520330895" lon="6.930631881289026"><ele>392.0</ele><time>2026-04-21T07:24:23Z</time></trkpt><trkpt lat="43.953752769080936" lon="6.9309542557183255"><ele>392.0</ele><time>2026-04-21T07:24:24Z</time></trkpt><trkpt lat="43.95374317835127" lon="6.931253693816454"><ele>392.0</ele><time>2026-04-21T07:24:25Z</time></trkpt><trkpt lat="43.95373639440381" lon="6.931550287541521"><ele>392.0</ele><time>2026-04-21T07:24:26Z</time></trkpt><trkpt lat="43.953728853952654" lon="6.931860611943361"><ele>390.5</ele><time>2026-04-21T07:24:27Z</time></trkpt><trkpt lat="43.95372096019814" lon="6.932174697580376"><ele>389.0</ele><time>2026-04-21T07:24:28Z</time></trkpt><trkpt lat="43.95371674696447" lon="6.932491677949651"><ele>388.0</ele><time>2026-04-21T07:24:29Z</time></trkpt><trkpt lat="43.95371522780585" lon="6.93280101209613"><ele>387.0</ele><time>2026-04-21T07:24:30Z</time></trkpt><trkpt lat="43.953716855748226" lon="6.933110328575554"><ele>386.0</ele><time>2026-04-21T07:24:31Z</time></trkpt><trkpt lat="43.953698485657185" lon="6.933424875928183"><ele>386.0</ele><time>2026-04-21T07:24:32Z</time></trkpt><trkpt lat="43.95372413081016" lon="6.933738689041465"><ele>386.0</ele><time>2026-04-21T07:24:33Z</time></trkpt><trkpt lat="43.95373708727563" lon="6.934057518380246"><ele>384.66666666666663</ele><time>2026-04-21T07:24:34Z</time></trkpt><trkpt lat="43.95375621961603" lon="6.93437630600244"><ele>383.3333333333333</ele><time>2026-04-21T07:24:35Z</time></trkpt><trkpt lat="43.953775713092156" lon="6.93467598141555"><ele>382.0</ele><time>2026-04-21T07:24:36Z</time></trkpt><trkpt lat="43.95379177290158" lon="6.934953464274381"><ele>382.3333333333333</ele><time>2026-04-21T07:24:37Z</time></trkpt><trkpt lat="43.953806320302945" lon="6.9352185020157915"><ele>382.6666666666667</ele><time>2026-04-21T07:24:38Z</time></trkpt><trkpt lat="43.953804405899064" lon="6.935493352374493"><ele>383.0</ele><time>2026-04-21T07:24:39Z</time></trkpt><trkpt lat="43.9537780093184" lon="6.9357738313569195"><ele>383.0</ele><time>2026-04-21T07:24:40Z</time></trkpt><trkpt lat="43.9537344165717" lon="6.9360642650991275"><ele>383.0</ele><time>2026-04-21T07:24:41Z</time></trkpt><trkpt lat="43.95368088153328" lon="6.936359275687358"><ele>383.0</ele><time>2026-04-21T07:24:42Z</time></trkpt><trkpt lat="43.95362685982104" lon="6.9366668929619815"><ele>383.0</ele><time>2026-04-21T07:24:43Z</time></trkpt><trkpt lat="43.95357119579378" lon="6.936979260194736"><ele>383.0</ele><time>2026-04-21T07:24:44Z</time></trkpt><trkpt lat="43.95351784142081" lon="6.937279278457689"><ele>383.0</ele><time>2026-04-21T07:24:45Z</time></trkpt><trkpt lat="43.95345337506804" lon="6.937589469190805"><ele>383.0</ele><time>2026-04-21T07:24:46Z</time></trkpt><trkpt lat="43.95337823825298" lon="6.937898974535456"><ele>378.0</ele><time>2026-04-21T07:24:47Z</time></trkpt><trkpt lat="43.953297389681694" lon="6.938208254637576"><ele>373.0</ele><time>2026-04-21T07:24:48Z</time></trkpt><trkpt lat="43.95321336666659" lon="6.93851271673522"><ele>372.5</ele><time>2026-04-21T07:24:49Z</time></trkpt><trkpt lat="43.95312937717993" lon="6.93881084504564"><ele>372.0</ele><time>2026-04-21T07:24:50Z</time></trkpt><trkpt lat="43.95304691451957" lon="6.939113769687263"><ele>370.5</ele><time>2026-04-21T07:24:51Z</time></trkpt><trkpt lat="43.95296724617166" lon="6.939423790117075"><ele>369.0</ele><time>2026-04-21T07:24:52Z</time></trkpt><trkpt lat="43.952889456264735" lon="6.939732970713553"><ele>369.0</ele><time>2026-04-21T07:24:53Z</time></trkpt><trkpt lat="43.952813615472735" lon="6.9400388495934635"><ele>369.0</ele><time>2026-04-21T07:24:54Z</time></trkpt><trkpt lat="43.9527389172523" lon="6.940346334986566"><ele>369.0</ele><time>2026-04-21T07:24:55Z</time></trkpt><trkpt lat="43.95266591373098" lon="6.940657456137498"><ele>369.0</ele><time>2026-04-21T07:24:56Z</time></trkpt><trkpt lat="43.952589329103226" lon="6.940973751472521"><ele>366.5</ele><time>2026-04-21T07:24:57Z</time></trkpt><trkpt lat="43.952510119829604" lon="6.941290985929932"><ele>364.0</ele><time>2026-04-21T07:24:58Z</time></trkpt><trkpt lat="43.95242763331479" lon="6.941609080171121"><ele>365.5</ele><time>2026-04-21T07:24:59Z</time></trkpt><trkpt lat="43.95234695320556" lon="6.9419257753361645"><ele>367.0</ele><time>2026-04-21T07:25:00Z</time></trkpt><trkpt lat="43.952272008269446" lon="6.942224815891658"><ele>367.0</ele><time>2026-04-21T07:25:01Z</time></trkpt><trkpt lat="43.952200079324925" lon="6.9425231400815575"><ele>367.0</ele><time>2026-04-21T07:25:02Z</time></trkpt><trkpt lat="43.952129505383404" lon="6.942817291074428"><ele>369.0</ele><time>2026-04-21T07:25:03Z</time></trkpt><trkpt lat="43.952060571929366" lon="6.943109826600808"><ele>371.0</ele><time>2026-04-21T07:25:04Z</time></trkpt><trkpt lat="43.95200065763361" lon="6.94340062258331"><ele>373.0</ele><time>2026-04-21T07:25:05Z</time></trkpt><trkpt lat="43.95195626238405" lon="6.943685773283541"><ele>374.3333333333333</ele><time>2026-04-21T07:25:06Z</time></trkpt><trkpt lat="43.95192675802271" lon="6.943975212166406"><ele>375.6666666666667</ele><time>2026-04-21T07:25:07Z</time></trkpt><trkpt lat="43.95191275163331" lon="6.944268544033674"><ele>377.0</ele><time>2026-04-21T07:25:08Z</time></trkpt><trkpt lat="43.951906503546056" lon="6.94456413787611"><ele>381.33333333333337</ele><time>2026-04-21T07:25:09Z</time></trkpt><trkpt lat="43.951899382951545" lon="6.944865992742073"><ele>385.6666666666667</ele><time>2026-04-21T07:25:10Z</time></trkpt><trkpt lat="43.9518914536306" lon="6.945172501680541"><ele>390.0</ele><time>2026-04-21T07:25:11Z</time></trkpt><trkpt lat="43.951876934816646" lon="6.945477520103619"><ele>394.33333333333337</ele><time>2026-04-21T07:25:12Z</time></trkpt><trkpt lat="43.95185559636179" lon="6.945775018701879"><ele>398.6666666666667</ele><time>2026-04-21T07:25:13Z</time></trkpt><trkpt lat="43.95183277747277" lon="6.946069617331644"><ele>403.0</ele><time>2026-04-21T07:25:14Z</time></trkpt><trkpt lat="43.95180514788185" lon="6.946372609743398"><ele>403.33333333333337</ele><time>2026-04-21T07:25:15Z</time></trkpt><trkpt lat="43.95177524036684" lon="6.94668351283384"><ele>403.66666666666663</ele><time>2026-04-21T07:25:16Z</time></trkpt><trkpt lat="43.95174396585182" lon="6.946979755610718"><ele>404.0</ele><time>2026-04-21T07:25:17Z</time></trkpt><trkpt lat="43.95171321844705" lon="6.947276382422277"><ele>393.0</ele><time>2026-04-21T07:25:18Z</time></trkpt><trkpt lat="43.95168814644525" lon="6.94757781537266"><ele>382.0</ele><time>2026-04-21T07:25:19Z</time></trkpt><trkpt lat="43.95167079480499" lon="6.947867167946905"><ele>371.0</ele><time>2026-04-21T07:25:20Z</time></trkpt><trkpt lat="43.95165483585472" lon="6.94816176967676"><ele>372.33333333333337</ele><time>2026-04-21T07:25:21Z</time></trkpt><trkpt lat="43.95163389640608" lon="6.948465985313659"><ele>373.6666666666667</ele><time>2026-04-21T07:25:22Z</time></trkpt><trkpt lat="43.95160914933941" lon="6.948769122850183"><ele>375.0</ele><time>2026-04-21T07:25:23Z</time></trkpt><trkpt lat="43.95158397714376" lon="6.949073704100201"><ele>375.6666666666667</ele><time>2026-04-21T07:25:24Z</time></trkpt><trkpt lat="43.95155861266081" lon="6.949370157981899"><ele>376.33333333333337</ele><time>2026-04-21T07:25:25Z</time></trkpt><trkpt lat="43.95153398745109" lon="6.949657048548122"><ele>377.0</ele><time>2026-04-21T07:25:26Z</time></trkpt><trkpt lat="43.95151433422127" lon="6.949957505184751"><ele>377.0</ele><time>2026-04-21T07:25:27Z</time></trkpt><trkpt lat="43.95150067160374" lon="6.950260756599066"><ele>377.0</ele><time>2026-04-21T07:25:28Z</time></trkpt><trkpt lat="43.95149293442526" lon="6.95056683167645"><ele>377.0</ele><time>2026-04-21T07:25:29Z</time></trkpt><trkpt lat="43.95149094750848" lon="6.950862098005267"><ele>377.0</ele><time>2026-04-21T07:25:30Z</time></trkpt><trkpt lat="43.95149943331391" lon="6.951163530073863"><ele>377.0</ele><time>2026-04-21T07:25:31Z</time></trkpt><trkpt lat="43.95151758407718" lon="6.951474120877383"><ele>377.0</ele><time>2026-04-21T07:25:32Z</time></trkpt><trkpt lat="43.951545920158324" lon="6.951784400109761"><ele>376.6666666666667</ele><time>2026-04-21T07:25:33Z</time></trkpt><trkpt lat="43.95157924833394" lon="6.952079544080622"><ele>376.3333333333333</ele><time>2026-04-21T07:25:34Z</time></trkpt><trkpt lat="43.95160812257123" lon="6.952377538699638"><ele>376.0</ele><time>2026-04-21T07:25:35Z</time></trkpt><trkpt lat="43.95161727715232" lon="6.952687191907885"><ele>374.5</ele><time>2026-04-21T07:25:36Z</time></trkpt><trkpt lat="43.95160651723321" lon="6.953002064332235"><ele>373.0</ele><time>2026-04-21T07:25:37Z</time></trkpt><trkpt lat="43.95158207027498" lon="6.953318703756834"><ele>374.0</ele><time>2026-04-21T07:25:38Z</time></trkpt><trkpt lat="43.95155205638744" lon="6.953636864021609"><ele>375.0</ele><time>2026-04-21T07:25:39Z</time></trkpt><trkpt lat="43.951525323330905" lon="6.953943930476466"><ele>374.0</ele><time>2026-04-21T07:25:40Z</time></trkpt><trkpt lat="43.95149749643374" lon="6.9542472383323135"><ele>373.0</ele><time>2026-04-21T07:25:41Z</time></trkpt><trkpt lat="43.95146284867543" lon="6.954564760646949"><ele>373.0</ele><time>2026-04-21T07:25:42Z</time></trkpt><trkpt lat="43.95141680122194" lon="6.954879002074938"><ele>373.0</ele><time>2026-04-21T07:25:43Z</time></trkpt><trkpt lat="43.9513615328434" lon="6.955184856200418"><ele>375.0</ele><time>2026-04-21T07:25:44Z</time></trkpt><trkpt lat="43.95129678563817" lon="6.955483944254563"><ele>377.0</ele><time>2026-04-21T07:25:45Z</time></trkpt><trkpt lat="43.95121299755482" lon="6.955785726860682"><ele>382.0</ele><time>2026-04-21T07:25:46Z</time></trkpt><trkpt lat="43.951107486872274" lon="6.956083681548292"><ele>387.0</ele><time>2026-04-21T07:25:47Z</time></trkpt><trkpt lat="43.95098516311955" lon="6.956377898114366"><ele>374.5</ele><time>2026-04-21T07:25:48Z</time></trkpt><trkpt lat="43.95085586213815" lon="6.956672643335007"><ele>362.0</ele><time>2026-04-21T07:25:49Z</time></trkpt><trkpt lat="43.95072616632867" lon="6.956971340567353"><ele>362.0</ele><time>2026-04-21T07:25:50Z</time></trkpt><trkpt lat="43.95059591999692" lon="6.957271151729619"><ele>362.0</ele><time>2026-04-21T07:25:51Z</time></trkpt><trkpt lat="43.95046725684257" lon="6.957563096646734"><ele>364.0</ele><time>2026-04-21T07:25:52Z</time></trkpt><trkpt lat="43.95033883538789" lon="6.957853012720802"><ele>366.0</ele><time>2026-04-21T07:25:53Z</time></trkpt><trkpt lat="43.9502092577218" lon="6.958143963712464"><ele>368.0</ele><time>2026-04-21T07:25:54Z</time></trkpt><trkpt lat="43.950083305280856" lon="6.9584263850309975"><ele>370.0</ele><time>2026-04-21T07:25:55Z</time></trkpt><trkpt lat="43.949958719690144" lon="6.958706348006675"><ele>364.5</ele><time>2026-04-21T07:25:56Z</time></trkpt><trkpt lat="43.94983400707468" lon="6.958986600041729"><ele>359.0</ele><time>2026-04-21T07:25:57Z</time></trkpt><trkpt lat="43.94971073915865" lon="6.959266102910959"><ele>359.0</ele><time>2026-04-21T07:25:58Z</time></trkpt><trkpt lat="43.949591646785116" lon="6.959547635657505"><ele>359.0</ele><time>2026-04-21T07:25:59Z</time></trkpt><trkpt lat="43.94947235404224" lon="6.959827575969029"><ele>359.0</ele><time>2026-04-21T07:26:00Z</time></trkpt><trkpt lat="43.9493524674652" lon="6.960104690102916"><ele>359.0</ele><time>2026-04-21T07:26:01Z</time></trkpt><trkpt lat="43.949233463902495" lon="6.960380850472477"><ele>356.0</ele><time>2026-04-21T07:26:02Z</time></trkpt><trkpt lat="43.94911495515177" lon="6.960656869027992"><ele>353.0</ele><time>2026-04-21T07:26:03Z</time></trkpt><trkpt lat="43.948998497552154" lon="6.960932807034722"><ele>353.0</ele><time>2026-04-21T07:26:04Z</time></trkpt><trkpt lat="43.948889655605" lon="6.961212757894322"><ele>353.0</ele><time>2026-04-21T07:26:05Z</time></trkpt><trkpt lat="43.94878950050472" lon="6.961493619463054"><ele>354.0</ele><time>2026-04-21T07:26:06Z</time></trkpt><trkpt lat="43.94869891178335" lon="6.961773175207884"><ele>355.0</ele><time>2026-04-21T07:26:07Z</time></trkpt><trkpt lat="43.948617624604914" lon="6.962051750796"><ele>356.0</ele><time>2026-04-21T07:26:08Z</time></trkpt><trkpt lat="43.94854088677495" lon="6.962337378592494"><ele>356.33333333333337</ele><time>2026-04-21T07:26:09Z</time></trkpt><trkpt lat="43.94846728395901" lon="6.962629408570208"><ele>356.6666666666667</ele><time>2026-04-21T07:26:10Z</time></trkpt><trkpt lat="43.94840102073748" lon="6.962924332452007"><ele>357.0</ele><time>2026-04-21T07:26:11Z</time></trkpt><trkpt lat="43.94833930248094" lon="6.963224544252187"><ele>352.5</ele><time>2026-04-21T07:26:12Z</time></trkpt><trkpt lat="43.948283885147816" lon="6.963528141976147"><ele>348.0</ele><time>2026-04-21T07:26:13Z</time></trkpt><trkpt lat="43.9482363072399" lon="6.963835624575686"><ele>348.0</ele><time>2026-04-21T07:26:14Z</time></trkpt><trkpt lat="43.94819543430556" lon="6.96414448972527"><ele>348.0</ele><time>2026-04-21T07:26:15Z</time></trkpt><trkpt lat="43.94816180889087" lon="6.964453440253459"><ele>348.0</ele><time>2026-04-21T07:26:16Z</time></trkpt><trkpt lat="43.9481386939517" lon="6.964764372839957"><ele>348.0</ele><time>2026-04-21T07:26:17Z</time></trkpt><trkpt lat="43.9481203622176" lon="6.965076352726221"><ele>348.0</ele><time>2026-04-21T07:26:18Z</time></trkpt><trkpt lat="43.94810845950134" lon="6.965388736033559"><ele>348.0</ele><time>2026-04-21T07:26:19Z</time></trkpt><trkpt lat="43.94810556889858" lon="6.965701328581369"><ele>348.5</ele><time>2026-04-21T07:26:20Z</time></trkpt><trkpt lat="43.948105953206436" lon="6.966015828117585"><ele>349.0</ele><time>2026-04-21T07:26:21Z</time></trkpt><trkpt lat="43.94811014470245" lon="6.966333266391125"><ele>349.0</ele><time>2026-04-21T07:26:22Z</time></trkpt><trkpt lat="43.948120776211475" lon="6.966656600924098"><ele>349.0</ele><time>2026-04-21T07:26:23Z</time></trkpt><trkpt lat="43.94813085383242" lon="6.966986556454448"><ele>350.0</ele><time>2026-04-21T07:26:24Z</time></trkpt><trkpt lat="43.948142584707014" lon="6.967320544955033"><ele>351.0</ele><time>2026-04-21T07:26:25Z</time></trkpt><trkpt lat="43.94815415748146" lon="6.967658284104454"><ele>351.0</ele><time>2026-04-21T07:26:26Z</time></trkpt><trkpt lat="43.9481663536605" lon="6.967986096845634"><ele>351.0</ele><time>2026-04-21T07:26:27Z</time></trkpt><trkpt lat="43.948181529896715" lon="6.96832304175943"><ele>349.0</ele><time>2026-04-21T07:26:28Z</time></trkpt><trkpt lat="43.94819461155151" lon="6.968649399765118"><ele>347.0</ele><time>2026-04-21T07:26:29Z</time></trkpt><trkpt lat="43.94820495435004" lon="6.9689757902599405"><ele>346.5</ele><time>2026-04-21T07:26:30Z</time></trkpt><trkpt lat="43.94821209154692" lon="6.969302916841851"><ele>346.0</ele><time>2026-04-21T07:26:31Z</time></trkpt><trkpt lat="43.948222112666194" lon="6.969631802200966"><ele>346.0</ele><time>2026-04-21T07:26:32Z</time></trkpt><trkpt lat="43.948236028224485" lon="6.969965958432628"><ele>346.0</ele><time>2026-04-21T07:26:33Z</time></trkpt><trkpt lat="43.94824838096987" lon="6.970303544486803"><ele>347.0</ele><time>2026-04-21T07:26:34Z</time></trkpt><trkpt lat="43.94826021323513" lon="6.97064442804844"><ele>348.0</ele><time>2026-04-21T07:26:35Z</time></trkpt><trkpt lat="43.948271035146576" lon="6.970971508127595"><ele>348.5</ele><time>2026-04-21T07:26:36Z</time></trkpt><trkpt lat="43.94828247292949" lon="6.971300605544086"><ele>349.0</ele><time>2026-04-21T07:26:37Z</time></trkpt><trkpt lat="43.94829578375701" lon="6.971631641297559"><ele>349.5</ele><time>2026-04-21T07:26:38Z</time></trkpt><trkpt lat="43.948307625394406" lon="6.97196480547333"><ele>350.0</ele><time>2026-04-21T07:26:39Z</time></trkpt><trkpt lat="43.94831958505551" lon="6.972298891947954"><ele>349.0</ele><time>2026-04-21T07:26:40Z</time></trkpt><trkpt lat="43.94832964928024" lon="6.972634424621544"><ele>348.0</ele><time>2026-04-21T07:26:41Z</time></trkpt><trkpt lat="43.94834069106935" lon="6.972971916875199"><ele>348.0</ele><time>2026-04-21T07:26:42Z</time></trkpt><trkpt lat="43.9483551687786" lon="6.973306037834323"><ele>348.0</ele><time>2026-04-21T07:26:43Z</time></trkpt><trkpt lat="43.948375300204155" lon="6.973629770413303"><ele>363.5</ele><time>2026-04-21T07:26:44Z</time></trkpt><trkpt lat="43.948401596231946" lon="6.973959536333664"><ele>379.0</ele><time>2026-04-21T07:26:45Z</time></trkpt><trkpt lat="43.94843859422161" lon="6.974290536821888"><ele>379.0</ele><time>2026-04-21T07:26:46Z</time></trkpt><trkpt lat="43.94847630594986" lon="6.974607545519485"><ele>379.0</ele><time>2026-04-21T07:26:47Z</time></trkpt><trkpt lat="43.94851410026739" lon="6.9749116443607795"><ele>378.0</ele><time>2026-04-21T07:26:48Z</time></trkpt><trkpt lat="43.948548845590906" lon="6.9752143718151025"><ele>377.0</ele><time>2026-04-21T07:26:49Z</time></trkpt><trkpt lat="43.94857857334389" lon="6.97552832841739"><ele>376.0</ele><time>2026-04-21T07:26:50Z</time></trkpt><trkpt lat="43.94860128393667" lon="6.975851521150228"><ele>373.0</ele><time>2026-04-21T07:26:51Z</time></trkpt><trkpt lat="43.948618221538226" lon="6.9761781168908295"><ele>370.0</ele><time>2026-04-21T07:26:52Z</time></trkpt><trkpt lat="43.94863904057675" lon="6.9764968660157844"><ele>367.3333333333333</ele><time>2026-04-21T07:26:53Z</time></trkpt><trkpt lat="43.94866313887569" lon="6.976797417439304"><ele>364.6666666666667</ele><time>2026-04-21T07:26:54Z</time></trkpt><trkpt lat="43.94869060885249" lon="6.9770821612555185"><ele>362.0</ele><time>2026-04-21T07:26:55Z</time></trkpt><trkpt lat="43.94872265082973" lon="6.977357280730279"><ele>361.0</ele><time>2026-04-21T07:26:56Z</time></trkpt><trkpt lat="43.94875828607582" lon="6.977625956316253"><ele>360.0</ele><time>2026-04-21T07:26:57Z</time></trkpt><trkpt lat="43.94880059892457" lon="6.977906727663396"><ele>359.0</ele><time>2026-04-21T07:26:58Z</time></trkpt><trkpt lat="43.94885113889508" lon="6.978196051763426"><ele>357.0</ele><time>2026-04-21T07:26:59Z</time></trkpt><trkpt lat="43.94890767546059" lon="6.978489368680032"><ele>355.0</ele><time>2026-04-21T07:27:00Z</time></trkpt><trkpt lat="43.94896655993529" lon="6.978765942693683"><ele>353.0</ele><time>2026-04-21T07:27:01Z</time></trkpt><trkpt lat="43.949032127398254" lon="6.97904754097874"><ele>349.33333333333337</ele><time>2026-04-21T07:27:02Z</time></trkpt><trkpt lat="43.94910646333001" lon="6.979333393082036"><ele>345.6666666666667</ele><time>2026-04-21T07:27:03Z</time></trkpt><trkpt lat="43.94918734489798" lon="6.979610567751817"><ele>342.0</ele><time>2026-04-21T07:27:04Z</time></trkpt><trkpt lat="43.949272291084625" lon="6.979878497651549"><ele>347.0</ele><time>2026-04-21T07:27:05Z</time></trkpt><trkpt lat="43.949361673587134" lon="6.98013887422743"><ele>352.0</ele><time>2026-04-21T07:27:06Z</time></trkpt><trkpt lat="43.9494560211162" lon="6.980410411784808"><ele>357.0</ele><time>2026-04-21T07:27:07Z</time></trkpt><trkpt lat="43.949557385152495" lon="6.980685577674721"><ele>356.3333333333333</ele><time>2026-04-21T07:27:08Z</time></trkpt><trkpt lat="43.949666580107944" lon="6.980959205406877"><ele>355.66666666666663</ele><time>2026-04-21T07:27:09Z</time></trkpt><trkpt lat="43.94977609151133" lon="6.981223849820721"><ele>355.0</ele><time>2026-04-21T07:27:10Z</time></trkpt><trkpt lat="43.949878509570524" lon="6.981476396218746"><ele>352.3333333333333</ele><time>2026-04-21T07:27:11Z</time></trkpt><trkpt lat="43.949965038956464" lon="6.981727009015623"><ele>349.6666666666667</ele><time>2026-04-21T07:27:12Z</time></trkpt><trkpt lat="43.950036958268434" lon="6.981985325621584"><ele>347.0</ele><time>2026-04-21T07:27:13Z</time></trkpt><trkpt lat="43.950098976276145" lon="6.98224549837097"><ele>363.0</ele><time>2026-04-21T07:27:14Z</time></trkpt><trkpt lat="43.95014803133743" lon="6.982516315427787"><ele>379.0</ele><time>2026-04-21T07:27:15Z</time></trkpt><trkpt lat="43.95018442465777" lon="6.982794296576728"><ele>395.0</ele><time>2026-04-21T07:27:16Z</time></trkpt><trkpt lat="43.95020890753738" lon="6.983081974159981"><ele>393.3333333333333</ele><time>2026-04-21T07:27:17Z</time></trkpt><trkpt lat="43.95021871512889" lon="6.983374977870583"><ele>391.66666666666663</ele><time>2026-04-21T07:27:18Z</time></trkpt><trkpt lat="43.950214647601165" lon="6.983674061493987"><ele>390.0</ele><time>2026-04-21T07:27:19Z</time></trkpt><trkpt lat="43.950205799168614" lon="6.983982826362684"><ele>388.0</ele><time>2026-04-21T07:27:20Z</time></trkpt><trkpt lat="43.95020018036047" lon="6.984297032469218"><ele>386.0</ele><time>2026-04-21T07:27:21Z</time></trkpt><trkpt lat="43.9501989778222" lon="6.984617901219124"><ele>386.0</ele><time>2026-04-21T07:27:22Z</time></trkpt><trkpt lat="43.950198430861676" lon="6.984942022320545"><ele>386.0</ele><time>2026-04-21T07:27:23Z</time></trkpt><trkpt lat="43.950195234425806" lon="6.9852571473101"><ele>389.0</ele><time>2026-04-21T07:27:24Z</time></trkpt><trkpt lat="43.9501914206282" lon="6.9855560256792755"><ele>392.0</ele><time>2026-04-21T07:27:25Z</time></trkpt><trkpt lat="43.950188069754695" lon="6.985830377391127"><ele>395.0</ele><time>2026-04-21T07:27:26Z</time></trkpt><trkpt lat="43.950184632070226" lon="6.986096012242919"><ele>396.0</ele><time>2026-04-21T07:27:27Z</time></trkpt><trkpt lat="43.950174169386784" lon="6.986352626550638"><ele>397.0</ele><time>2026-04-21T07:27:28Z</time></trkpt><trkpt lat="43.95015440587838" lon="6.986595798354326"><ele>398.0</ele><time>2026-04-21T07:27:29Z</time></trkpt><trkpt lat="43.950125934980086" lon="6.986826181620016"><ele>400.0</ele><time>2026-04-21T07:27:30Z</time></trkpt><trkpt lat="43.95008357971" lon="6.987042287588042"><ele>402.0</ele><time>2026-04-21T07:27:31Z</time></trkpt><trkpt lat="43.95002706202292" lon="6.987254995124499"><ele>404.0</ele><time>2026-04-21T07:27:32Z</time></trkpt><trkpt lat="43.94995885114919" lon="6.987474451024309"><ele>386.0</ele><time>2026-04-21T07:27:33Z</time></trkpt><trkpt lat="43.949889525021156" lon="6.987678809136368"><ele>368.0</ele><time>2026-04-21T07:27:34Z</time></trkpt><trkpt lat="43.94982674471475" lon="6.987873436746085"><ele>350.0</ele><time>2026-04-21T07:27:35Z</time></trkpt><trkpt lat="43.94977824949341" lon="6.988051597905673"><ele>350.0</ele><time>2026-04-21T07:27:36Z</time></trkpt><trkpt lat="43.94973691842445" lon="6.98820872232345"><ele>350.0</ele><time>2026-04-21T07:27:37Z</time></trkpt><trkpt lat="43.949698754014186" lon="6.988352140023804"><ele>350.0</ele><time>2026-04-21T07:27:38Z</time></trkpt><trkpt lat="43.94965882636807" lon="6.988484547238066"><ele>350.0</ele><time>2026-04-21T07:27:39Z</time></trkpt><trkpt lat="43.94961204664037" lon="6.988600956282579"><ele>350.0</ele><time>2026-04-21T07:27:40Z</time></trkpt><trkpt lat="43.949556291804114" lon="6.988744688612259"><ele>347.75</ele><time>2026-04-21T07:27:41Z</time></trkpt><trkpt lat="43.949491880434124" lon="6.98891132408978"><ele>345.5</ele><time>2026-04-21T07:27:42Z</time></trkpt><trkpt lat="43.949425545984944" lon="6.9890854144988594"><ele>343.25</ele><time>2026-04-21T07:27:43Z</time></trkpt><trkpt lat="43.94936998241106" lon="6.989243664838644"><ele>341.0</ele><time>2026-04-21T07:27:44Z</time></trkpt><trkpt lat="43.949317394732084" lon="6.9894035663040635"><ele>340.5</ele><time>2026-04-21T07:27:45Z</time></trkpt><trkpt lat="43.94925484581238" lon="6.989576413069067"><ele>340.0</ele><time>2026-04-21T07:27:46Z</time></trkpt><trkpt lat="43.949184582717734" lon="6.989751582678707"><ele>339.5</ele><time>2026-04-21T07:27:47Z</time></trkpt><trkpt lat="43.94910652567067" lon="6.989922639937719"><ele>339.0</ele><time>2026-04-21T07:27:48Z</time></trkpt><trkpt lat="43.94900278711705" lon="6.990068479278426"><ele>339.0</ele><time>2026-04-21T07:27:49Z</time></trkpt><trkpt lat="43.948922914788746" lon="6.990239480057221"><ele>339.0</ele><time>2026-04-21T07:27:50Z</time></trkpt><trkpt lat="43.948829866361585" lon="6.990383502209946"><ele>339.0</ele><time>2026-04-21T07:27:51Z</time></trkpt><trkpt lat="43.948747595120466" lon="6.990520903734299"><ele>339.0</ele><time>2026-04-21T07:27:52Z</time></trkpt><trkpt lat="43.94866674957811" lon="6.990660282750884"><ele>339.0</ele><time>2026-04-21T07:27:53Z</time></trkpt><trkpt lat="43.94858211434595" lon="6.990802507035009"><ele>339.0</ele><time>2026-04-21T07:27:54Z</time></trkpt><trkpt lat="43.94849633726316" lon="6.990938863427912"><ele>339.0</ele><time>2026-04-21T07:27:55Z</time></trkpt><trkpt lat="43.948415934971365" lon="6.991065360451978"><ele>339.0</ele><time>2026-04-21T07:27:56Z</time></trkpt><trkpt lat="43.94833800593111" lon="6.991189164432997"><ele>339.75</ele><time>2026-04-21T07:27:57Z</time></trkpt><trkpt lat="43.94826491515758" lon="6.991321951136633"><ele>340.5</ele><time>2026-04-21T07:27:58Z</time></trkpt><trkpt lat="43.948198380416194" lon="6.9914680120488075"><ele>341.25</ele><time>2026-04-21T07:27:59Z</time></trkpt><trkpt lat="43.94814002958229" lon="6.991640598440831"><ele>342.0</ele><time>2026-04-21T07:28:00Z</time></trkpt><trkpt lat="43.94808640668758" lon="6.9918373528871705"><ele>345.6666666666667</ele><time>2026-04-21T07:28:01Z</time></trkpt><trkpt lat="43.948007375690125" lon="6.992039106010772"><ele>349.33333333333337</ele><time>2026-04-21T07:28:02Z</time></trkpt><trkpt lat="43.94793581701023" lon="6.992261923831614"><ele>353.0</ele><time>2026-04-21T07:28:03Z</time></trkpt><trkpt lat="43.947859175763774" lon="6.992500567336364"><ele>357.33333333333337</ele><time>2026-04-21T07:28:04Z</time></trkpt><trkpt lat="43.94777909638118" lon="6.992751173796202"><ele>361.6666666666667</ele><time>2026-04-21T07:28:05Z</time></trkpt><trkpt lat="43.94771078035674" lon="6.993018768990346"><ele>366.0</ele><time>2026-04-21T07:28:06Z</time></trkpt><trkpt lat="43.947622855171275" lon="6.993272868203744"><ele>358.6666666666667</ele><time>2026-04-21T07:28:07Z</time></trkpt><trkpt lat="43.94754109900869" lon="6.99351990466505"><ele>351.33333333333337</ele><time>2026-04-21T07:28:08Z</time></trkpt><trkpt lat="43.947461328842394" lon="6.99376920303726"><ele>344.0</ele><time>2026-04-21T07:28:09Z</time></trkpt><trkpt lat="43.94738804314915" lon="6.994013391564783"><ele>347.0</ele><time>2026-04-21T07:28:10Z</time></trkpt><trkpt lat="43.94731375041071" lon="6.994258983384528"><ele>350.0</ele><time>2026-04-21T07:28:11Z</time></trkpt><trkpt lat="43.94723674120101" lon="6.9945007420646705"><ele>353.0</ele><time>2026-04-21T07:28:12Z</time></trkpt><trkpt lat="43.94716302018864" lon="6.994735822118042"><ele>353.0</ele><time>2026-04-21T07:28:13Z</time></trkpt><trkpt lat="43.94708797302299" lon="6.994972741426886"><ele>353.0</ele><time>2026-04-21T07:28:14Z</time></trkpt><trkpt lat="43.94701841617348" lon="6.995212987991001"><ele>353.0</ele><time>2026-04-21T07:28:15Z</time></trkpt><trkpt lat="43.94695996356979" lon="6.995457946952665"><ele>359.33333333333337</ele><time>2026-04-21T07:28:16Z</time></trkpt><trkpt lat="43.94690896307411" lon="6.995690056244719"><ele>365.6666666666667</ele><time>2026-04-21T07:28:17Z</time></trkpt><trkpt lat="43.946865556634776" lon="6.995906130637738"><ele>372.0</ele><time>2026-04-21T07:28:18Z</time></trkpt><trkpt lat="43.94683094887004" lon="6.996110473853332"><ele>376.33333333333337</ele><time>2026-04-21T07:28:19Z</time></trkpt><trkpt lat="43.946785818194584" lon="6.9963145994385085"><ele>380.6666666666667</ele><time>2026-04-21T07:28:20Z</time></trkpt><trkpt lat="43.94676246981303" lon="6.996550916622276"><ele>385.0</ele><time>2026-04-21T07:28:21Z</time></trkpt><trkpt lat="43.94676343402251" lon="6.996786149848949"><ele>385.6666666666667</ele><time>2026-04-21T07:28:22Z</time></trkpt><trkpt lat="43.946760926183536" lon="6.997030709991457"><ele>386.33333333333337</ele><time>2026-04-21T07:28:23Z</time></trkpt><trkpt lat="43.946757585978496" lon="6.997284975068688"><ele>387.0</ele><time>2026-04-21T07:28:24Z</time></trkpt><trkpt lat="43.946738214088114" lon="6.997540157082047"><ele>372.6666666666667</ele><time>2026-04-21T07:28:25Z</time></trkpt><trkpt lat="43.946700048502336" lon="6.997792092142253"><ele>358.33333333333337</ele><time>2026-04-21T07:28:26Z</time></trkpt><trkpt lat="43.94665270480135" lon="6.998041111527814"><ele>344.0</ele><time>2026-04-21T07:28:27Z</time></trkpt><trkpt lat="43.94660454544889" lon="6.998286374950775"><ele>345.6666666666667</ele><time>2026-04-21T07:28:28Z</time></trkpt><trkpt lat="43.94655130865794" lon="6.998508671788209"><ele>347.3333333333333</ele><time>2026-04-21T07:28:29Z</time></trkpt><trkpt lat="43.94650081262347" lon="6.998717810412715"><ele>349.0</ele><time>2026-04-21T07:28:30Z</time></trkpt><trkpt lat="43.94646225456683" lon="6.998938608691686"><ele>349.0</ele><time>2026-04-21T07:28:31Z</time></trkpt><trkpt lat="43.94644494667529" lon="6.999165155799485"><ele>349.0</ele><time>2026-04-21T07:28:32Z</time></trkpt><trkpt lat="43.94644123838405" lon="6.9993955537225485"><ele>349.0</ele><time>2026-04-21T07:28:33Z</time></trkpt><trkpt lat="43.94644618784179" lon="6.999616910633463"><ele>348.25</ele><time>2026-04-21T07:28:34Z</time></trkpt><trkpt lat="43.946467150421" lon="6.999815934729218"><ele>347.5</ele><time>2026-04-21T07:28:35Z</time></trkpt><trkpt lat="43.94650538723367" lon="7.000016713416219"><ele>346.75</ele><time>2026-04-21T07:28:36Z</time></trkpt><trkpt lat="43.946549995587205" lon="7.0002181677529585"><ele>346.0</ele><time>2026-04-21T07:28:37Z</time></trkpt><trkpt lat="43.94657798900522" lon="7.000432807182129"><ele>346.0</ele><time>2026-04-21T07:28:38Z</time></trkpt><trkpt lat="43.94661814502032" lon="7.0006207528484765"><ele>346.0</ele><time>2026-04-21T07:28:39Z</time></trkpt><trkpt lat="43.946666871323465" lon="7.000787734250101"><ele>346.0</ele><time>2026-04-21T07:28:40Z</time></trkpt><trkpt lat="43.9467378263571" lon="7.0009351832636275"><ele>346.0</ele><time>2026-04-21T07:28:41Z</time></trkpt><trkpt lat="43.94679527792393" lon="7.001104239150867"><ele>349.5</ele><time>2026-04-21T07:28:42Z</time></trkpt><trkpt lat="43.946848875077364" lon="7.0012675968845315"><ele>353.0</ele><time>2026-04-21T07:28:43Z</time></trkpt><trkpt lat="43.9468929356689" lon="7.001428828195207"><ele>356.5</ele><time>2026-04-21T07:28:44Z</time></trkpt><trkpt lat="43.94691054908721" lon="7.001604449649224"><ele>360.0</ele><time>2026-04-21T07:28:45Z</time></trkpt><trkpt lat="43.94693366482283" lon="7.0017581552690356"><ele>360.0</ele><time>2026-04-21T07:28:46Z</time></trkpt><trkpt lat="43.94695603117912" lon="7.001902920487719"><ele>360.0</ele><time>2026-04-21T07:28:47Z</time></trkpt><trkpt lat="43.94697797623175" lon="7.002042830282664"><ele>360.0</ele><time>2026-04-21T07:28:48Z</time></trkpt><trkpt lat="43.94701474355248" lon="7.002180393977689"><ele>360.0</ele><time>2026-04-21T07:28:49Z</time></trkpt><trkpt lat="43.94703644357828" lon="7.0023294018166915"><ele>360.0</ele><time>2026-04-21T07:28:50Z</time></trkpt><trkpt lat="43.94706220249801" lon="7.002482916233522"><ele>358.25</ele><time>2026-04-21T07:28:51Z</time></trkpt><trkpt lat="43.94708627957304" lon="7.00262488602067"><ele>356.5</ele><time>2026-04-21T07:28:52Z</time></trkpt><trkpt lat="43.94710766980213" lon="7.0027679091215225"><ele>354.75</ele><time>2026-04-21T07:28:53Z</time></trkpt><trkpt lat="43.947116602488805" lon="7.0029218085577725"><ele>353.0</ele><time>2026-04-21T07:28:54Z</time></trkpt><trkpt lat="43.947148263698566" lon="7.003099272368253"><ele>353.0</ele><time>2026-04-21T07:28:55Z</time></trkpt><trkpt lat="43.947193097853486" lon="7.003295844106995"><ele>353.0</ele><time>2026-04-21T07:28:56Z</time></trkpt><trkpt lat="43.947256809727655" lon="7.0034924183411595"><ele>353.0</ele><time>2026-04-21T07:28:57Z</time></trkpt><trkpt lat="43.94733366967634" lon="7.00364499000502"><ele>353.0</ele><time>2026-04-21T07:28:58Z</time></trkpt><trkpt lat="43.947382736789" lon="7.003785859835986"><ele>352.2</ele><time>2026-04-21T07:28:59Z</time></trkpt><trkpt lat="43.94742446622623" lon="7.003919832954075"><ele>351.4</ele><time>2026-04-21T07:29:00Z</time></trkpt><trkpt lat="43.94745494522051" lon="7.0040591753662165"><ele>350.59999999999997</ele><time>2026-04-21T07:29:01Z</time></trkpt><trkpt lat="43.94747596552366" lon="7.004208434308365"><ele>349.79999999999995</ele><time>2026-04-21T07:29:02Z</time></trkpt><trkpt lat="43.94748746103272" lon="7.00434598987559"><ele>349.0</ele><time>2026-04-21T07:29:03Z</time></trkpt><trkpt lat="43.94749744716932" lon="7.00447626182579"><ele>348.3333333333333</ele><time>2026-04-21T07:29:04Z</time></trkpt><trkpt lat="43.94751246372653" lon="7.004597938393353"><ele>347.66666666666663</ele><time>2026-04-21T07:29:05Z</time></trkpt><trkpt lat="43.947527964060605" lon="7.0047119012601975"><ele>347.0</ele><time>2026-04-21T07:29:06Z</time></trkpt><trkpt lat="43.947540135187964" lon="7.004817598704369"><ele>346.3333333333333</ele><time>2026-04-21T07:29:07Z</time></trkpt><trkpt lat="43.94754903112522" lon="7.004916454797393"><ele>345.6666666666667</ele><time>2026-04-21T07:29:08Z</time></trkpt><trkpt lat="43.94755845050055" lon="7.005008007381833"><ele>345.0</ele><time>2026-04-21T07:29:09Z</time></trkpt><trkpt lat="43.947567239847785" lon="7.005096793267215"><ele>357.4</ele><time>2026-04-21T07:29:10Z</time></trkpt><trkpt lat="43.94758404975151" lon="7.0052520685399084"><ele>369.8</ele><time>2026-04-21T07:29:12Z</time></trkpt><trkpt lat="43.947602823062" lon="7.005401752704686"><ele>382.20000000000005</ele><time>2026-04-21T07:29:14Z</time></trkpt><trkpt lat="43.94761904983931" lon="7.005486898716966"><ele>394.6</ele><time>2026-04-21T07:29:15Z</time></trkpt><trkpt lat="43.947628388693396" lon="7.005659163130441"><ele>407.0</ele><time>2026-04-21T07:29:17Z</time></trkpt><trkpt lat="43.947652195451916" lon="7.005750100541658"><ele>404.00000000000006</ele><time>2026-04-21T07:29:18Z</time></trkpt><trkpt lat="43.94766321287274" lon="7.005839461420736"><ele>401.0</ele><time>2026-04-21T07:29:19Z</time></trkpt><trkpt lat="43.94767462520101" lon="7.005929949170069"><ele>398.0</ele><time>2026-04-21T07:29:20Z</time></trkpt><trkpt lat="43.947679919504914" lon="7.006029151658927"><ele>395.0</ele><time>2026-04-21T07:29:21Z</time></trkpt><trkpt lat="43.94768469167494" lon="7.006119997344406"><ele>392.0</ele><time>2026-04-21T07:29:22Z</time></trkpt><trkpt lat="43.947692269826945" lon="7.0062084788706525"><ele>389.00000000000006</ele><time>2026-04-21T07:29:23Z</time></trkpt><trkpt lat="43.94770325436317" lon="7.006307482004609"><ele>386.0</ele><time>2026-04-21T07:29:24Z</time></trkpt><trkpt lat="43.947714912484585" lon="7.006404460462347"><ele>385.99999999999994</ele><time>2026-04-21T07:29:25Z</time></trkpt><trkpt lat="43.94772173462011" lon="7.006498044330685"><ele>386.0</ele><time>2026-04-21T07:29:26Z</time></trkpt><trkpt lat="43.94773214457022" lon="7.006603597974188"><ele>386.0</ele><time>2026-04-21T07:29:27Z</time></trkpt><trkpt lat="43.94772439720542" lon="7.0067162641976"><ele>386.0</ele><time>2026-04-21T07:29:28Z</time></trkpt><trkpt lat="43.947734784922844" lon="7.0068294618978975"><ele>385.99999999999994</ele><time>2026-04-21T07:29:29Z</time></trkpt><trkpt lat="43.947747389009805" lon="7.006940109303215"><ele>386.0</ele><time>2026-04-21T07:29:30Z</time></trkpt><trkpt lat="43.94776440304927" lon="7.0070575403578115"><ele>382.66666666666663</ele><time>2026-04-21T07:29:31Z</time></trkpt><trkpt lat="43.94779355267976" lon="7.007161549406107"><ele>379.3333333333333</ele><time>2026-04-21T07:29:32Z</time></trkpt><trkpt lat="43.94777965091188" lon="7.00727423582834"><ele>376.0</ele><time>2026-04-21T07:29:33Z</time></trkpt><trkpt lat="43.9477743613051" lon="7.007391356533856"><ele>372.66666666666663</ele><time>2026-04-21T07:29:34Z</time></trkpt><trkpt lat="43.94776858291108" lon="7.007499085627499"><ele>369.3333333333333</ele><time>2026-04-21T07:29:35Z</time></trkpt><trkpt lat="43.947780377207344" lon="7.007611701154589"><ele>366.0</ele><time>2026-04-21T07:29:36Z</time></trkpt><trkpt lat="43.9477807302812" lon="7.007730355273182"><ele>365.6</ele><time>2026-04-21T07:29:37Z</time></trkpt><trkpt lat="43.9477970844764" lon="7.007857710211565"><ele>365.20000000000005</ele><time>2026-04-21T07:29:38Z</time></trkpt><trkpt lat="43.94782131922134" lon="7.007987801890876"><ele>364.79999999999995</ele><time>2026-04-21T07:29:39Z</time></trkpt><trkpt lat="43.9478495303866" lon="7.00810747136015"><ele>364.4</ele><time>2026-04-21T07:29:40Z</time></trkpt><trkpt lat="43.9478595378871" lon="7.008226982050528"><ele>364.0</ele><time>2026-04-21T07:29:41Z</time></trkpt><trkpt lat="43.94788358403727" lon="7.008338142098561"><ele>363.4</ele><time>2026-04-21T07:29:42Z</time></trkpt><trkpt lat="43.947920091389605" lon="7.008444759904301"><ele>362.79999999999995</ele><time>2026-04-21T07:29:43Z</time></trkpt><trkpt lat="43.947941310641795" lon="7.008552540749984"><ele>362.20000000000005</ele><time>2026-04-21T07:29:44Z</time></trkpt><trkpt lat="43.94796795649758" lon="7.008669031064763"><ele>361.6</ele><time>2026-04-21T07:29:45Z</time></trkpt><trkpt lat="43.9479973913098" lon="7.00880777773134"><ele>361.0</ele><time>2026-04-21T07:29:46Z</time></trkpt><trkpt lat="43.94801374138854" lon="7.008953423618297"><ele>361.0</ele><time>2026-04-21T07:29:47Z</time></trkpt><trkpt lat="43.94801095871669" lon="7.009087621660298"><ele>361.0</ele><time>2026-04-21T07:29:48Z</time></trkpt><trkpt lat="43.94799395911886" lon="7.009228207314222"><ele>361.0</ele><time>2026-04-21T07:29:49Z</time></trkpt><trkpt lat="43.947963974878576" lon="7.009371191466734"><ele>361.0</ele><time>2026-04-21T07:29:50Z</time></trkpt><trkpt lat="43.9479297658304" lon="7.009511051914061"><ele>361.0</ele><time>2026-04-21T07:29:51Z</time></trkpt><trkpt lat="43.94789491001063" lon="7.009639621721288"><ele>360.20000000000005</ele><time>2026-04-21T07:29:52Z</time></trkpt><trkpt lat="43.94786021541982" lon="7.009767325482301"><ele>359.40000000000003</ele><time>2026-04-21T07:29:53Z</time></trkpt><trkpt lat="43.947822250314786" lon="7.009896530510301"><ele>358.6</ele><time>2026-04-21T07:29:54Z</time></trkpt><trkpt lat="43.94778452533112" lon="7.010030664994033"><ele>357.8</ele><time>2026-04-21T07:29:55Z</time></trkpt><trkpt lat="43.94774235585534" lon="7.010160565575173"><ele>357.0</ele><time>2026-04-21T07:29:56Z</time></trkpt><trkpt lat="43.94771111874141" lon="7.0102926196363615"><ele>357.0</ele><time>2026-04-21T07:29:57Z</time></trkpt><trkpt lat="43.947684651711725" lon="7.010448113649051"><ele>357.0</ele><time>2026-04-21T07:29:58Z</time></trkpt><trkpt lat="43.94766923595617" lon="7.010615766254898"><ele>357.0</ele><time>2026-04-21T07:29:59Z</time></trkpt><trkpt lat="43.9476628616682" lon="7.010772664188155"><ele>357.0</ele><time>2026-04-21T07:30:00Z</time></trkpt><trkpt lat="43.94766234128211" lon="7.010926620978045"><ele>357.0</ele><time>2026-04-21T07:30:01Z</time></trkpt><trkpt lat="43.94766452977874" lon="7.011073478008314"><ele>357.0</ele><time>2026-04-21T07:30:02Z</time></trkpt><trkpt lat="43.94767239155353" lon="7.011226800187643"><ele>357.0</ele><time>2026-04-21T07:30:03Z</time></trkpt><trkpt lat="43.94767998517639" lon="7.01138560964846"><ele>357.0</ele><time>2026-04-21T07:30:04Z</time></trkpt><trkpt lat="43.94767566391519" lon="7.011559428835162"><ele>357.0</ele><time>2026-04-21T07:30:05Z</time></trkpt><trkpt lat="43.94766977178658" lon="7.011740539190112"><ele>357.0</ele><time>2026-04-21T07:30:06Z</time></trkpt><trkpt lat="43.94765508874382" lon="7.011926395288149"><ele>357.0</ele><time>2026-04-21T07:30:07Z</time></trkpt><trkpt lat="43.94763059667945" lon="7.012115104337171"><ele>357.0</ele><time>2026-04-21T07:30:08Z</time></trkpt><trkpt lat="43.94759325778729" lon="7.012295632543305"><ele>349.5</ele><time>2026-04-21T07:30:09Z</time></trkpt><trkpt lat="43.94754078738819" lon="7.012460231986531"><ele>342.0</ele><time>2026-04-21T07:30:10Z</time></trkpt><trkpt lat="43.94748374622397" lon="7.012612210242258"><ele>334.5</ele><time>2026-04-21T07:30:11Z</time></trkpt><trkpt lat="43.947428192513506" lon="7.012761996834449"><ele>327.0</ele><time>2026-04-21T07:30:12Z</time></trkpt><trkpt lat="43.947371508558476" lon="7.0129117914143615"><ele>327.0</ele><time>2026-04-21T07:30:13Z</time></trkpt><trkpt lat="43.9473174711382" lon="7.013062715642147"><ele>327.0</ele><time>2026-04-21T07:30:14Z</time></trkpt><trkpt lat="43.947260505963236" lon="7.013216651702547"><ele>327.0</ele><time>2026-04-21T07:30:15Z</time></trkpt><trkpt lat="43.94720891279011" lon="7.013368103688459"><ele>327.0</ele><time>2026-04-21T07:30:16Z</time></trkpt><trkpt lat="43.94717060258995" lon="7.013528788109477"><ele>327.75</ele><time>2026-04-21T07:30:17Z</time></trkpt><trkpt lat="43.94714821404803" lon="7.013702583693112"><ele>328.5</ele><time>2026-04-21T07:30:18Z</time></trkpt><trkpt lat="43.94714011420991" lon="7.013888878397791"><ele>329.25</ele><time>2026-04-21T07:30:19Z</time></trkpt><trkpt lat="43.94713931786689" lon="7.0140752168086795"><ele>330.0</ele><time>2026-04-21T07:30:20Z</time></trkpt><trkpt lat="43.94714061464296" lon="7.014280150797979"><ele>330.25</ele><time>2026-04-21T07:30:21Z</time></trkpt><trkpt lat="43.947138996711864" lon="7.014483899058407"><ele>330.5</ele><time>2026-04-21T07:30:22Z</time></trkpt><trkpt lat="43.947140411397456" lon="7.0146790947250315"><ele>330.75</ele><time>2026-04-21T07:30:23Z</time></trkpt><trkpt lat="43.947139953251785" lon="7.014864619079988"><ele>331.0</ele><time>2026-04-21T07:30:24Z</time></trkpt><trkpt lat="43.94713624381298" lon="7.015044017608307"><ele>331.5</ele><time>2026-04-21T07:30:25Z</time></trkpt><trkpt lat="43.94713424080863" lon="7.015230420303832"><ele>332.0</ele><time>2026-04-21T07:30:26Z</time></trkpt><trkpt lat="43.9471350360988" lon="7.015434052312771"><ele>332.5</ele><time>2026-04-21T07:30:27Z</time></trkpt><trkpt lat="43.94712936110945" lon="7.015631460033936"><ele>333.0</ele><time>2026-04-21T07:30:28Z</time></trkpt><trkpt lat="43.947115664448596" lon="7.015815483580907"><ele>334.25</ele><time>2026-04-21T07:30:29Z</time></trkpt><trkpt lat="43.94708827501707" lon="7.015989241942196"><ele>335.5</ele><time>2026-04-21T07:30:30Z</time></trkpt><trkpt lat="43.947051098225295" lon="7.016153216609279"><ele>336.75</ele><time>2026-04-21T07:30:31Z</time></trkpt><trkpt lat="43.94700345324539" lon="7.0163138186143374"><ele>338.0</ele><time>2026-04-21T07:30:32Z</time></trkpt><trkpt lat="43.94694583280272" lon="7.016467777486124"><ele>338.0</ele><time>2026-04-21T07:30:33Z</time></trkpt><trkpt lat="43.946888375806374" lon="7.016623462881843"><ele>338.0</ele><time>2026-04-21T07:30:34Z</time></trkpt><trkpt lat="43.94683550579731" lon="7.016783676754322"><ele>338.0</ele><time>2026-04-21T07:30:35Z</time></trkpt><trkpt lat="43.946784813668174" lon="7.01695964790899"><ele>338.0</ele><time>2026-04-21T07:30:36Z</time></trkpt><trkpt lat="43.9467400511319" lon="7.017147658155086"><ele>330.6666666666667</ele><time>2026-04-21T07:30:37Z</time></trkpt><trkpt lat="43.94670072556608" lon="7.017344785731528"><ele>323.3333333333333</ele><time>2026-04-21T07:30:38Z</time></trkpt><trkpt lat="43.9466616607896" lon="7.017546851176008"><ele>316.0</ele><time>2026-04-21T07:30:39Z</time></trkpt><trkpt lat="43.94662917216262" lon="7.01775411050601"><ele>316.0</ele><time>2026-04-21T07:30:40Z</time></trkpt><trkpt lat="43.94659893221831" lon="7.0179569319360375"><ele>316.0</ele><time>2026-04-21T07:30:41Z</time></trkpt><trkpt lat="43.946572924246595" lon="7.018168366453238"><ele>316.0</ele><time>2026-04-21T07:30:42Z</time></trkpt><trkpt lat="43.94655237943581" lon="7.018387571113542"><ele>316.0</ele><time>2026-04-21T07:30:43Z</time></trkpt><trkpt lat="43.94653211001578" lon="7.018611672377342"><ele>316.0</ele><time>2026-04-21T07:30:44Z</time></trkpt><trkpt lat="43.94650636338336" lon="7.018838977571448"><ele>316.0</ele><time>2026-04-21T07:30:45Z</time></trkpt><trkpt lat="43.946468434574385" lon="7.019066850037844"><ele>316.3333333333333</ele><time>2026-04-21T07:30:46Z</time></trkpt><trkpt lat="43.94641355195143" lon="7.019300976557019"><ele>316.6666666666667</ele><time>2026-04-21T07:30:47Z</time></trkpt><trkpt lat="43.946351269783825" lon="7.019534701866646"><ele>317.0</ele><time>2026-04-21T07:30:48Z</time></trkpt><trkpt lat="43.94628139371092" lon="7.019761533681008"><ele>317.0</ele><time>2026-04-21T07:30:49Z</time></trkpt><trkpt lat="43.94622754183827" lon="7.019966588616209"><ele>317.0</ele><time>2026-04-21T07:30:50Z</time></trkpt><trkpt lat="43.94617668945565" lon="7.020160148395041"><ele>317.0</ele><time>2026-04-21T07:30:51Z</time></trkpt><trkpt lat="43.94612354950043" lon="7.020362474933629"><ele>318.0</ele><time>2026-04-21T07:30:52Z</time></trkpt><trkpt lat="43.94609088100665" lon="7.020548155325408"><ele>319.0</ele><time>2026-04-21T07:30:53Z</time></trkpt><trkpt lat="43.946041528352" lon="7.020709382294785"><ele>320.0</ele><time>2026-04-21T07:30:54Z</time></trkpt><trkpt lat="43.9459991612188" lon="7.020863502516344"><ele>321.0</ele><time>2026-04-21T07:30:55Z</time></trkpt><trkpt lat="43.94595867746328" lon="7.0210152857355395"><ele>322.4</ele><time>2026-04-21T07:30:56Z</time></trkpt><trkpt lat="43.9459223836662" lon="7.021157694062817"><ele>323.8</ele><time>2026-04-21T07:30:57Z</time></trkpt><trkpt lat="43.94588830611555" lon="7.021291154403532"><ele>325.2</ele><time>2026-04-21T07:30:58Z</time></trkpt><trkpt lat="43.94585157263241" lon="7.021426789590601"><ele>326.59999999999997</ele><time>2026-04-21T07:30:59Z</time></trkpt><trkpt lat="43.94581542604969" lon="7.021550003476252"><ele>328.0</ele><time>2026-04-21T07:31:00Z</time></trkpt><trkpt lat="43.94578074222777" lon="7.021664579179498"><ele>325.16666666666663</ele><time>2026-04-21T07:31:01Z</time></trkpt><trkpt lat="43.945753408554424" lon="7.02177768703888"><ele>322.3333333333333</ele><time>2026-04-21T07:31:02Z</time></trkpt><trkpt lat="43.94573004267364" lon="7.021882952054159"><ele>319.5</ele><time>2026-04-21T07:31:03Z</time></trkpt><trkpt lat="43.94571005155984" lon="7.021978424130476"><ele>316.6666666666667</ele><time>2026-04-21T07:31:04Z</time></trkpt><trkpt lat="43.945691282811055" lon="7.022065953738101"><ele>313.83333333333337</ele><time>2026-04-21T07:31:05Z</time></trkpt><trkpt lat="43.94566057741387" lon="7.022187981099715"><ele>311.0</ele><time>2026-04-21T07:31:07Z</time></trkpt><trkpt lat="43.9456219965183" lon="7.02228209980888"><ele>311.0</ele><time>2026-04-21T07:31:11Z</time></trkpt><trkpt lat="43.945595754212164" lon="7.022382545944192"><ele>311.0</ele><time>2026-04-21T07:31:12Z</time></trkpt><trkpt lat="43.94556348184062" lon="7.022508239597712"><ele>311.0</ele><time>2026-04-21T07:31:13Z</time></trkpt><trkpt lat="43.94552739424831" lon="7.022648792860408"><ele>311.0</ele><time>2026-04-21T07:31:14Z</time></trkpt><trkpt lat="43.94549182707569" lon="7.022787319152715"><ele>311.0</ele><time>2026-04-21T07:31:15Z</time></trkpt><trkpt lat="43.94546520096491" lon="7.022898902198152"><ele>311.5</ele><time>2026-04-21T07:31:16Z</time></trkpt><trkpt lat="43.94544309936604" lon="7.022994946099731"><ele>312.0</ele><time>2026-04-21T07:31:17Z</time></trkpt><trkpt lat="43.94542299508797" lon="7.023083589799195"><ele>312.5</ele><time>2026-04-21T07:31:18Z</time></trkpt><trkpt lat="43.94540349003652" lon="7.023174064892019"><ele>313.0</ele><time>2026-04-21T07:31:19Z</time></trkpt><trkpt lat="43.94538351105159" lon="7.023272140324681"><ele>313.5</ele><time>2026-04-21T07:31:20Z</time></trkpt><trkpt lat="43.945358159963156" lon="7.023396586982193"><ele>314.0</ele><time>2026-04-21T07:31:21Z</time></trkpt><trkpt lat="43.94533248780352" lon="7.023532465687419"><ele>314.4</ele><time>2026-04-21T07:31:22Z</time></trkpt><trkpt lat="43.94530782919098" lon="7.0236771227210975"><ele>314.79999999999995</ele><time>2026-04-21T07:31:23Z</time></trkpt><trkpt lat="43.94528534585749" lon="7.0238186546444865"><ele>315.20000000000005</ele><time>2026-04-21T07:31:24Z</time></trkpt><trkpt lat="43.9452649372928" lon="7.023951539188967"><ele>315.6</ele><time>2026-04-21T07:31:25Z</time></trkpt><trkpt lat="43.945246348162065" lon="7.024097342702949"><ele>316.0</ele><time>2026-04-21T07:31:26Z</time></trkpt><trkpt lat="43.945232418694296" lon="7.024218893887827"><ele>316.0</ele><time>2026-04-21T07:31:27Z</time></trkpt><trkpt lat="43.94521944488699" lon="7.024339098418152"><ele>316.0</ele><time>2026-04-21T07:31:28Z</time></trkpt><trkpt lat="43.94520655840351" lon="7.024459817107898"><ele>316.0</ele><time>2026-04-21T07:31:29Z</time></trkpt><trkpt lat="43.94520681857554" lon="7.024578304843343"><ele>316.0</ele><time>2026-04-21T07:31:30Z</time></trkpt><trkpt lat="43.945187692876786" lon="7.024715024730886"><ele>316.0</ele><time>2026-04-21T07:31:31Z</time></trkpt><trkpt lat="43.9451712564272" lon="7.024862201086211"><ele>316.0</ele><time>2026-04-21T07:31:32Z</time></trkpt><trkpt lat="43.94515781441531" lon="7.025003745962499"><ele>316.0</ele><time>2026-04-21T07:31:33Z</time></trkpt><trkpt lat="43.94514239607964" lon="7.025141223332766"><ele>316.0</ele><time>2026-04-21T07:31:34Z</time></trkpt><trkpt lat="43.94512764523334" lon="7.0252847920125205"><ele>316.0</ele><time>2026-04-21T07:31:35Z</time></trkpt><trkpt lat="43.94511201414994" lon="7.025431318556958"><ele>316.0</ele><time>2026-04-21T07:31:36Z</time></trkpt><trkpt lat="43.945096176577046" lon="7.025578084024164"><ele>316.0</ele><time>2026-04-21T07:31:37Z</time></trkpt><trkpt lat="43.94507926310366" lon="7.025729251304264"><ele>316.0</ele><time>2026-04-21T07:31:38Z</time></trkpt><trkpt lat="43.94506532748432" lon="7.0258846989429085"><ele>316.0</ele><time>2026-04-21T07:31:39Z</time></trkpt><trkpt lat="43.94505041109706" lon="7.026045659588296"><ele>316.0</ele><time>2026-04-21T07:31:40Z</time></trkpt><trkpt lat="43.9450345571701" lon="7.0261979946044235"><ele>313.40000000000003</ele><time>2026-04-21T07:31:41Z</time></trkpt><trkpt lat="43.945021210893344" lon="7.026337711961624"><ele>310.8</ele><time>2026-04-21T07:31:42Z</time></trkpt><trkpt lat="43.9450080004714" lon="7.026486904327986"><ele>308.20000000000005</ele><time>2026-04-21T07:31:43Z</time></trkpt><trkpt lat="43.94499663493725" lon="7.026632085062149"><ele>305.6</ele><time>2026-04-21T07:31:44Z</time></trkpt><trkpt lat="43.944981886300404" lon="7.026775095036072"><ele>303.0</ele><time>2026-04-21T07:31:45Z</time></trkpt><trkpt lat="43.944966325850494" lon="7.026925592068084"><ele>303.0</ele><time>2026-04-21T07:31:46Z</time></trkpt><trkpt lat="43.9449296002023" lon="7.027078019442891"><ele>303.0</ele><time>2026-04-21T07:31:47Z</time></trkpt><trkpt lat="43.944914144598044" lon="7.0272339805127055"><ele>303.0</ele><time>2026-04-21T07:31:48Z</time></trkpt><trkpt lat="43.94489957468925" lon="7.027383019928758"><ele>303.0</ele><time>2026-04-21T07:31:49Z</time></trkpt><trkpt lat="43.944888183033115" lon="7.027520648445115"><ele>303.0</ele><time>2026-04-21T07:31:50Z</time></trkpt><trkpt lat="43.94487987605524" lon="7.027648402679965"><ele>303.0</ele><time>2026-04-21T07:31:51Z</time></trkpt><trkpt lat="43.94487231434677" lon="7.027790406361248"><ele>303.0</ele><time>2026-04-21T07:31:52Z</time></trkpt><trkpt lat="43.94486527675476" lon="7.027937109889822"><ele>303.0</ele><time>2026-04-21T07:31:53Z</time></trkpt><trkpt lat="43.94486073627623" lon="7.028075200540374"><ele>303.0</ele><time>2026-04-21T07:31:54Z</time></trkpt><trkpt lat="43.94485679752388" lon="7.028222724722408"><ele>303.0</ele><time>2026-04-21T07:31:55Z</time></trkpt><trkpt lat="43.944851190900096" lon="7.0283908096849395"><ele>302.5</ele><time>2026-04-21T07:31:56Z</time></trkpt><trkpt lat="43.94484397981022" lon="7.028545646827667"><ele>302.0</ele><time>2026-04-21T07:31:57Z</time></trkpt><trkpt lat="43.9448350350879" lon="7.028709121004708"><ele>301.5</ele><time>2026-04-21T07:31:58Z</time></trkpt><trkpt lat="43.944816207631234" lon="7.028861205564718"><ele>301.0</ele><time>2026-04-21T07:31:59Z</time></trkpt><trkpt lat="43.944800133581566" lon="7.029015498284438"><ele>300.8</ele><time>2026-04-21T07:32:00Z</time></trkpt><trkpt lat="43.94478395069059" lon="7.029170835756202"><ele>300.6</ele><time>2026-04-21T07:32:01Z</time></trkpt><trkpt lat="43.94476767180861" lon="7.029321878410479"><ele>300.4</ele><time>2026-04-21T07:32:02Z</time></trkpt><trkpt lat="43.944752059335336" lon="7.029463395850433"><ele>300.2</ele><time>2026-04-21T07:32:03Z</time></trkpt><trkpt lat="43.94473728787918" lon="7.029597290055819"><ele>300.0</ele><time>2026-04-21T07:32:04Z</time></trkpt><trkpt lat="43.9447222269502" lon="7.0297338081185945"><ele>300.0</ele><time>2026-04-21T07:32:05Z</time></trkpt><trkpt lat="43.94470635647142" lon="7.029877664233654"><ele>300.0</ele><time>2026-04-21T07:32:06Z</time></trkpt><trkpt lat="43.944690922926355" lon="7.030017559840953"><ele>300.0</ele><time>2026-04-21T07:32:07Z</time></trkpt><trkpt lat="43.944677015903935" lon="7.030143618424388"><ele>300.0</ele><time>2026-04-21T07:32:08Z</time></trkpt><trkpt lat="43.94466305011327" lon="7.030270209773516"><ele>300.0</ele><time>2026-04-21T07:32:09Z</time></trkpt><trkpt lat="43.94464791639955" lon="7.030407387621605"><ele>299.6</ele><time>2026-04-21T07:32:10Z</time></trkpt><trkpt lat="43.94463274026788" lon="7.030544949905845"><ele>299.2</ele><time>2026-04-21T07:32:11Z</time></trkpt><trkpt lat="43.9446186846521" lon="7.03067235541234"><ele>298.8</ele><time>2026-04-21T07:32:12Z</time></trkpt><trkpt lat="43.94460378713342" lon="7.030807392242757"><ele>298.4</ele><time>2026-04-21T07:32:13Z</time></trkpt><trkpt lat="43.944589817948234" lon="7.03093401432845"><ele>298.0</ele><time>2026-04-21T07:32:14Z</time></trkpt><trkpt lat="43.944575414125275" lon="7.031064576155905"><ele>298.0</ele><time>2026-04-21T07:32:15Z</time></trkpt><trkpt lat="43.94456103701894" lon="7.031194895779174"><ele>298.0</ele><time>2026-04-21T07:32:16Z</time></trkpt><trkpt lat="43.94454641604071" lon="7.031327416738642"><ele>298.0</ele><time>2026-04-21T07:32:17Z</time></trkpt><trkpt lat="43.944530567737296" lon="7.031471055494969"><ele>298.0</ele><time>2026-04-21T07:32:18Z</time></trkpt><trkpt lat="43.94451323986268" lon="7.031628104083419"><ele>298.0</ele><time>2026-04-21T07:32:19Z</time></trkpt><trkpt lat="43.94449480846787" lon="7.03179515424979"><ele>298.0</ele><time>2026-04-21T07:32:20Z</time></trkpt><trkpt lat="43.94447534686225" lon="7.0319715416544755"><ele>298.0</ele><time>2026-04-21T07:32:21Z</time></trkpt><trkpt lat="43.94445560686158" lon="7.032150452204747"><ele>298.0</ele><time>2026-04-21T07:32:22Z</time></trkpt><trkpt lat="43.94443685796071" lon="7.032320380035159"><ele>298.0</ele><time>2026-04-21T07:32:23Z</time></trkpt><trkpt lat="43.94441966044189" lon="7.032476247225513"><ele>298.75</ele><time>2026-04-21T07:32:24Z</time></trkpt><trkpt lat="43.9444033912974" lon="7.03262445415395"><ele>299.5</ele><time>2026-04-21T07:32:25Z</time></trkpt><trkpt lat="43.94438679298236" lon="7.032777321777639"><ele>300.25</ele><time>2026-04-21T07:32:26Z</time></trkpt><trkpt lat="43.94436867531815" lon="7.0329441823616365"><ele>301.0</ele><time>2026-04-21T07:32:27Z</time></trkpt><trkpt lat="43.944349574870834" lon="7.033120094178659"><ele>303.5</ele><time>2026-04-21T07:32:28Z</time></trkpt><trkpt lat="43.94432911072688" lon="7.033309810316441"><ele>306.0</ele><time>2026-04-21T07:32:29Z</time></trkpt><trkpt lat="43.94430905793982" lon="7.033500553563006"><ele>308.5</ele><time>2026-04-21T07:32:30Z</time></trkpt><trkpt lat="43.94430133587335" lon="7.033683912861056"><ele>311.0</ele><time>2026-04-21T07:32:31Z</time></trkpt><trkpt lat="43.944276974217615" lon="7.03387068916901"><ele>311.0</ele><time>2026-04-21T07:32:32Z</time></trkpt><trkpt lat="43.944252656790034" lon="7.034061764737396"><ele>311.0</ele><time>2026-04-21T07:32:33Z</time></trkpt><trkpt lat="43.94423069208483" lon="7.034268814666674"><ele>311.0</ele><time>2026-04-21T07:32:34Z</time></trkpt><trkpt lat="43.944211610637105" lon="7.034466260699354"><ele>311.0</ele><time>2026-04-21T07:32:35Z</time></trkpt><trkpt lat="43.944197129181205" lon="7.034654866627662"><ele>307.5</ele><time>2026-04-21T07:32:36Z</time></trkpt><trkpt lat="43.94417954216267" lon="7.034844802907223"><ele>304.0</ele><time>2026-04-21T07:32:37Z</time></trkpt><trkpt lat="43.94415619021054" lon="7.035042403380608"><ele>300.5</ele><time>2026-04-21T07:32:38Z</time></trkpt><trkpt lat="43.94413586535814" lon="7.03523412491129"><ele>297.0</ele><time>2026-04-21T07:32:39Z</time></trkpt><trkpt lat="43.944124295100124" lon="7.035422342787341"><ele>297.0</ele><time>2026-04-21T07:32:40Z</time></trkpt><trkpt lat="43.94411454987035" lon="7.035623512539041"><ele>297.0</ele><time>2026-04-21T07:32:41Z</time></trkpt><trkpt lat="43.9441096635137" lon="7.035828997654237"><ele>297.0</ele><time>2026-04-21T07:32:42Z</time></trkpt><trkpt lat="43.94410156961905" lon="7.036025510302144"><ele>297.0</ele><time>2026-04-21T07:32:43Z</time></trkpt><trkpt lat="43.94409501461188" lon="7.036233878101675"><ele>298.3333333333333</ele><time>2026-04-21T07:32:44Z</time></trkpt><trkpt lat="43.9440894882797" lon="7.03645054676333"><ele>299.66666666666663</ele><time>2026-04-21T07:32:45Z</time></trkpt><trkpt lat="43.94408200789134" lon="7.036682476842814"><ele>301.0</ele><time>2026-04-21T07:32:46Z</time></trkpt><trkpt lat="43.94407511735369" lon="7.036926779382999"><ele>302.3333333333333</ele><time>2026-04-21T07:32:47Z</time></trkpt><trkpt lat="43.94406853577358" lon="7.037169034176898"><ele>303.6666666666667</ele><time>2026-04-21T07:32:48Z</time></trkpt><trkpt lat="43.94405909062329" lon="7.037399755828967"><ele>305.0</ele><time>2026-04-21T07:32:49Z</time></trkpt><trkpt lat="43.94404871627872" lon="7.037624838071081"><ele>305.33333333333337</ele><time>2026-04-21T07:32:50Z</time></trkpt><trkpt lat="43.94403805630796" lon="7.03784556064205"><ele>305.6666666666667</ele><time>2026-04-21T07:32:51Z</time></trkpt><trkpt lat="43.94403351951038" lon="7.0380635382629535"><ele>306.0</ele><time>2026-04-21T07:32:52Z</time></trkpt><trkpt lat="43.94404531354584" lon="7.038276098299359"><ele>305.6666666666667</ele><time>2026-04-21T07:32:53Z</time></trkpt><trkpt lat="43.94406929008021" lon="7.038480206592188"><ele>305.33333333333337</ele><time>2026-04-21T07:32:54Z</time></trkpt><trkpt lat="43.94410243985598" lon="7.038702726954494"><ele>305.0</ele><time>2026-04-21T07:32:55Z</time></trkpt><trkpt lat="43.94413445617314" lon="7.038930220945013"><ele>304.33333333333337</ele><time>2026-04-21T07:32:56Z</time></trkpt><trkpt lat="43.944168291590934" lon="7.039169517911624"><ele>303.6666666666667</ele><time>2026-04-21T07:32:57Z</time></trkpt><trkpt lat="43.94419618126131" lon="7.039399586476617"><ele>303.0</ele><time>2026-04-21T07:32:58Z</time></trkpt><trkpt lat="43.94421749725586" lon="7.039629473888025"><ele>302.6666666666667</ele><time>2026-04-21T07:32:59Z</time></trkpt><trkpt lat="43.94421881217262" lon="7.039848199498283"><ele>302.33333333333337</ele><time>2026-04-21T07:33:00Z</time></trkpt><trkpt lat="43.944200700156166" lon="7.04006502035449"><ele>302.0</ele><time>2026-04-21T07:33:01Z</time></trkpt><trkpt lat="43.94417383596413" lon="7.0402959575568635"><ele>302.0</ele><time>2026-04-21T07:33:02Z</time></trkpt><trkpt lat="43.944134094225646" lon="7.040529028405654"><ele>302.0</ele><time>2026-04-21T07:33:03Z</time></trkpt><trkpt lat="43.94408035455663" lon="7.040761555251134"><ele>302.0</ele><time>2026-04-21T07:33:04Z</time></trkpt><trkpt lat="43.94402823411227" lon="7.040997755690975"><ele>302.33333333333337</ele><time>2026-04-21T07:33:05Z</time></trkpt><trkpt lat="43.94397405063533" lon="7.0412379976068795"><ele>302.6666666666667</ele><time>2026-04-21T07:33:06Z</time></trkpt><trkpt lat="43.9439201714029" lon="7.041483142262372"><ele>303.0</ele><time>2026-04-21T07:33:07Z</time></trkpt><trkpt lat="43.94386354564841" lon="7.041738056686332"><ele>303.6666666666667</ele><time>2026-04-21T07:33:08Z</time></trkpt><trkpt lat="43.943809113923905" lon="7.041987188736145"><ele>304.33333333333337</ele><time>2026-04-21T07:33:09Z</time></trkpt><trkpt lat="43.94375356682633" lon="7.042238156572946"><ele>305.0</ele><time>2026-04-21T07:33:10Z</time></trkpt><trkpt lat="43.94369861461416" lon="7.04249357991637"><ele>309.6666666666667</ele><time>2026-04-21T07:33:11Z</time></trkpt><trkpt lat="43.94364338314579" lon="7.042750967250736"><ele>314.3333333333333</ele><time>2026-04-21T07:33:12Z</time></trkpt><trkpt lat="43.94358761753625" lon="7.043008171205207"><ele>319.0</ele><time>2026-04-21T07:33:13Z</time></trkpt><trkpt lat="43.943530700963414" lon="7.0432658564212165"><ele>325.66666666666663</ele><time>2026-04-21T07:33:14Z</time></trkpt><trkpt lat="43.94347254960843" lon="7.043523246675946"><ele>332.3333333333333</ele><time>2026-04-21T07:33:15Z</time></trkpt><trkpt lat="43.94341598924754" lon="7.043782453706937"><ele>339.0</ele><time>2026-04-21T07:33:16Z</time></trkpt><trkpt lat="43.94336167357527" lon="7.04404184055686"><ele>326.0</ele><time>2026-04-21T07:33:17Z</time></trkpt><trkpt lat="43.94330564904962" lon="7.04430061432553"><ele>313.0</ele><time>2026-04-21T07:33:18Z</time></trkpt><trkpt lat="43.943248305266195" lon="7.044559800867343"><ele>300.0</ele><time>2026-04-21T07:33:19Z</time></trkpt><trkpt lat="43.94319156594342" lon="7.044820240470864"><ele>304.0</ele><time>2026-04-21T07:33:20Z</time></trkpt><trkpt lat="43.9431362128221" lon="7.045081269406377"><ele>308.0</ele><time>2026-04-21T07:33:21Z</time></trkpt><trkpt lat="43.943082371912354" lon="7.045341605462119"><ele>312.0</ele><time>2026-04-21T07:33:22Z</time></trkpt><trkpt lat="43.94302741279693" lon="7.045599599600015"><ele>314.3333333333333</ele><time>2026-04-21T07:33:23Z</time></trkpt><trkpt lat="43.94297553900442" lon="7.045839290380312"><ele>316.66666666666663</ele><time>2026-04-21T07:33:24Z</time></trkpt><trkpt lat="43.94293436078302" lon="7.046059137008624"><ele>319.0</ele><time>2026-04-21T07:33:25Z</time></trkpt><trkpt lat="43.94290849087811" lon="7.046285150880845"><ele>319.0</ele><time>2026-04-21T07:33:26Z</time></trkpt><trkpt lat="43.94290698898894" lon="7.04652611536882"><ele>319.0</ele><time>2026-04-21T07:33:27Z</time></trkpt><trkpt lat="43.9429348328138" lon="7.046779015867171"><ele>319.0</ele><time>2026-04-21T07:33:28Z</time></trkpt><trkpt lat="43.94295267735905" lon="7.047045321189501"><ele>322.0</ele><time>2026-04-21T07:33:29Z</time></trkpt><trkpt lat="43.942980694538434" lon="7.047315758142008"><ele>325.0</ele><time>2026-04-21T07:33:30Z</time></trkpt><trkpt lat="43.942999761069814" lon="7.047598349205454"><ele>328.0</ele><time>2026-04-21T07:33:31Z</time></trkpt><trkpt lat="43.9430319333507" lon="7.0478960868949745"><ele>327.66666666666663</ele><time>2026-04-21T07:33:32Z</time></trkpt><trkpt lat="43.94304637407193" lon="7.048199771636179"><ele>327.3333333333333</ele><time>2026-04-21T07:33:33Z</time></trkpt><trkpt lat="43.943065970898935" lon="7.048510929427119"><ele>327.0</ele><time>2026-04-21T07:33:34Z</time></trkpt><trkpt lat="43.943088898567" lon="7.048809948786237"><ele>327.0</ele><time>2026-04-21T07:33:35Z</time></trkpt><trkpt lat="43.94310883849226" lon="7.04910975573644"><ele>327.0</ele><time>2026-04-21T07:33:36Z</time></trkpt><trkpt lat="43.943125499952814" lon="7.049407527120943"><ele>327.0</ele><time>2026-04-21T07:33:37Z</time></trkpt><trkpt lat="43.94313511727595" lon="7.049701311278121"><ele>323.0</ele><time>2026-04-21T07:33:38Z</time></trkpt><trkpt lat="43.94313856509856" lon="7.049995462035"><ele>319.0</ele><time>2026-04-21T07:33:39Z</time></trkpt><trkpt lat="43.943142287021125" lon="7.050292003222789"><ele>315.0</ele><time>2026-04-21T07:33:40Z</time></trkpt><trkpt lat="43.94314424099539" lon="7.050598040172421"><ele>316.6666666666667</ele><time>2026-04-21T07:33:41Z</time></trkpt><trkpt lat="43.943145278450835" lon="7.050910051162265"><ele>318.33333333333337</ele><time>2026-04-21T07:33:42Z</time></trkpt><trkpt lat="43.943140418078826" lon="7.051217233089356"><ele>320.0</ele><time>2026-04-21T07:33:43Z</time></trkpt><trkpt lat="43.943120982773024" lon="7.051514771992373"><ele>319.6666666666667</ele><time>2026-04-21T07:33:44Z</time></trkpt><trkpt lat="43.94308247579388" lon="7.051805924922986"><ele>319.3333333333333</ele><time>2026-04-21T07:33:45Z</time></trkpt><trkpt lat="43.94301974568154" lon="7.0520950914119975"><ele>319.0</ele><time>2026-04-21T07:33:46Z</time></trkpt><trkpt lat="43.94293729517922" lon="7.052380771018196"><ele>323.0</ele><time>2026-04-21T07:33:47Z</time></trkpt><trkpt lat="43.94283496424701" lon="7.052658750009811"><ele>327.0</ele><time>2026-04-21T07:33:48Z</time></trkpt><trkpt lat="43.94273337820145" lon="7.0529327187989"><ele>331.0</ele><time>2026-04-21T07:33:49Z</time></trkpt><trkpt lat="43.94264994696001" lon="7.053213782301675"><ele>337.66666666666663</ele><time>2026-04-21T07:33:50Z</time></trkpt><trkpt lat="43.94257818994956" lon="7.053497894287137"><ele>344.3333333333333</ele><time>2026-04-21T07:33:51Z</time></trkpt><trkpt lat="43.94250993941436" lon="7.053787722706582"><ele>351.0</ele><time>2026-04-21T07:33:52Z</time></trkpt><trkpt lat="43.94244023932631" lon="7.054078227972545"><ele>333.6666666666667</ele><time>2026-04-21T07:33:53Z</time></trkpt><trkpt lat="43.94237144841331" lon="7.054365708172716"><ele>316.33333333333337</ele><time>2026-04-21T07:33:54Z</time></trkpt><trkpt lat="43.94231304935318" lon="7.05464196626832"><ele>299.0</ele><time>2026-04-21T07:33:55Z</time></trkpt><trkpt lat="43.94226820833477" lon="7.0549125185466925"><ele>302.0</ele><time>2026-04-21T07:33:56Z</time></trkpt><trkpt lat="43.942225850679414" lon="7.055187552193775"><ele>305.0</ele><time>2026-04-21T07:33:57Z</time></trkpt><trkpt lat="43.942170777190356" lon="7.0554583676328715"><ele>308.0</ele><time>2026-04-21T07:33:58Z</time></trkpt><trkpt lat="43.942101474066654" lon="7.055726729771187"><ele>313.0</ele><time>2026-04-21T07:33:59Z</time></trkpt><trkpt lat="43.94201857320814" lon="7.055993980702355"><ele>318.0</ele><time>2026-04-21T07:34:00Z</time></trkpt><trkpt lat="43.941923298016114" lon="7.056252616421472"><ele>323.0</ele><time>2026-04-21T07:34:01Z</time></trkpt><trkpt lat="43.941819263557335" lon="7.056495386856165"><ele>329.0</ele><time>2026-04-21T07:34:02Z</time></trkpt><trkpt lat="43.94172344759621" lon="7.056735919725213"><ele>335.0</ele><time>2026-04-21T07:34:03Z</time></trkpt><trkpt lat="43.94163637516055" lon="7.056984495581396"><ele>341.0</ele><time>2026-04-21T07:34:04Z</time></trkpt><trkpt lat="43.94154781571342" lon="7.0572389629893495"><ele>330.6666666666667</ele><time>2026-04-21T07:34:05Z</time></trkpt><trkpt lat="43.94145713898865" lon="7.057493470055433"><ele>320.3333333333333</ele><time>2026-04-21T07:34:06Z</time></trkpt><trkpt lat="43.94136952595855" lon="7.057747718777513"><ele>310.0</ele><time>2026-04-21T07:34:07Z</time></trkpt><trkpt lat="43.94128797317391" lon="7.057986681115054"><ele>310.0</ele><time>2026-04-21T07:34:08Z</time></trkpt><trkpt lat="43.9412166865633" lon="7.058187265338114"><ele>310.0</ele><time>2026-04-21T07:34:09Z</time></trkpt><trkpt lat="43.941148011023756" lon="7.058367009447378"><ele>310.0</ele><time>2026-04-21T07:34:10Z</time></trkpt><trkpt lat="43.94105949370348" lon="7.05852988735458"><ele>303.3333333333333</ele><time>2026-04-21T07:34:11Z</time></trkpt><trkpt lat="43.94094652787951" lon="7.0586798766492285"><ele>296.6666666666667</ele><time>2026-04-21T07:34:12Z</time></trkpt><trkpt lat="43.94081130012928" lon="7.058797327669433"><ele>290.0</ele><time>2026-04-21T07:34:13Z</time></trkpt><trkpt lat="43.94065676730505" lon="7.058879843426127"><ele>290.0</ele><time>2026-04-21T07:34:14Z</time></trkpt><trkpt lat="43.94049057280141" lon="7.058934485353422"><ele>290.0</ele><time>2026-04-21T07:34:15Z</time></trkpt><trkpt lat="43.940330148402204" lon="7.059000379603068"><ele>290.0</ele><time>2026-04-21T07:34:16Z</time></trkpt><trkpt lat="43.94018028501229" lon="7.059083001715957"><ele>293.0</ele><time>2026-04-21T07:34:17Z</time></trkpt><trkpt lat="43.94004338496436" lon="7.059190637434631"><ele>296.0</ele><time>2026-04-21T07:34:18Z</time></trkpt><trkpt lat="43.93992237508011" lon="7.059319182803394"><ele>299.0</ele><time>2026-04-21T07:34:19Z</time></trkpt><trkpt lat="43.93982557181621" lon="7.059462334475221"><ele>299.0</ele><time>2026-04-21T07:34:20Z</time></trkpt><trkpt lat="43.93975474129313" lon="7.059639108925759"><ele>299.0</ele><time>2026-04-21T07:34:21Z</time></trkpt><trkpt lat="43.93968463570085" lon="7.059828094184486"><ele>299.0</ele><time>2026-04-21T07:34:22Z</time></trkpt><trkpt lat="43.939604222361375" lon="7.060012374580448"><ele>303.5</ele><time>2026-04-21T07:34:23Z</time></trkpt><trkpt lat="43.93952843629106" lon="7.060189767141095"><ele>308.0</ele><time>2026-04-21T07:34:24Z</time></trkpt><trkpt lat="43.93945453141611" lon="7.060354420322308"><ele>312.5</ele><time>2026-04-21T07:34:25Z</time></trkpt><trkpt lat="43.93937990868595" lon="7.060503705156378"><ele>317.0</ele><time>2026-04-21T07:34:26Z</time></trkpt><trkpt lat="43.93930026562946" lon="7.060659803983144"><ele>321.0</ele><time>2026-04-21T07:34:27Z</time></trkpt><trkpt lat="43.93921975317035" lon="7.060838950993453"><ele>325.0</ele><time>2026-04-21T07:34:28Z</time></trkpt><trkpt lat="43.93913538554525" lon="7.061019883002711"><ele>329.0</ele><time>2026-04-21T07:34:29Z</time></trkpt><trkpt lat="43.93903887318673" lon="7.061201583726698"><ele>325.6666666666667</ele><time>2026-04-21T07:34:30Z</time></trkpt><trkpt lat="43.93893761079304" lon="7.061388211356763"><ele>322.3333333333333</ele><time>2026-04-21T07:34:31Z</time></trkpt><trkpt lat="43.93883028049419" lon="7.061556198900203"><ele>319.0</ele><time>2026-04-21T07:34:32Z</time></trkpt><trkpt lat="43.93869477157708" lon="7.06171004339783"><ele>319.0</ele><time>2026-04-21T07:34:33Z</time></trkpt><trkpt lat="43.93854672302664" lon="7.061856812038872"><ele>319.0</ele><time>2026-04-21T07:34:34Z</time></trkpt><trkpt lat="43.93839964861709" lon="7.0620172439341475"><ele>319.0</ele><time>2026-04-21T07:34:35Z</time></trkpt><trkpt lat="43.93825241139354" lon="7.0621773261779035"><ele>319.66666666666663</ele><time>2026-04-21T07:34:36Z</time></trkpt><trkpt lat="43.938106401753444" lon="7.0623257059281785"><ele>320.3333333333333</ele><time>2026-04-21T07:34:37Z</time></trkpt><trkpt lat="43.937948077339776" lon="7.062455400501777"><ele>321.0</ele><time>2026-04-21T07:34:38Z</time></trkpt><trkpt lat="43.9377819381183" lon="7.06256411654089"><ele>321.0</ele><time>2026-04-21T07:34:39Z</time></trkpt><trkpt lat="43.93762564046161" lon="7.062682279580929"><ele>321.0</ele><time>2026-04-21T07:34:40Z</time></trkpt><trkpt lat="43.937491147716074" lon="7.062812889391676"><ele>321.0</ele><time>2026-04-21T07:34:41Z</time></trkpt><trkpt lat="43.93737057970749" lon="7.062959248030827"><ele>319.0</ele><time>2026-04-21T07:34:42Z</time></trkpt><trkpt lat="43.937270603014525" lon="7.063113657195102"><ele>317.0</ele><time>2026-04-21T07:34:43Z</time></trkpt><trkpt lat="43.93719428847514" lon="7.063273070226243"><ele>315.0</ele><time>2026-04-21T07:34:44Z</time></trkpt><trkpt lat="43.93713648551717" lon="7.063463057281306"><ele>313.0</ele><time>2026-04-21T07:34:44.999Z</time></trkpt><trkpt lat="43.937099991526104" lon="7.063678828172421"><ele>313.0</ele><time>2026-04-21T07:34:45.999Z</time></trkpt><trkpt lat="43.93706973459183" lon="7.063913901623821"><ele>313.0</ele><time>2026-04-21T07:34:46.999Z</time></trkpt><trkpt lat="43.93703852437273" lon="7.064151770738797"><ele>313.0</ele><time>2026-04-21T07:34:47.999Z</time></trkpt><trkpt lat="43.93700423867773" lon="7.064388108441316"><ele>313.3333333333333</ele><time>2026-04-21T07:34:48.999Z</time></trkpt><trkpt lat="43.936945453025984" lon="7.0646263655961885"><ele>313.6666666666667</ele><time>2026-04-21T07:34:49.999Z</time></trkpt><trkpt lat="43.93685909487955" lon="7.064863186303406"><ele>314.0</ele><time>2026-04-21T07:34:50.999Z</time></trkpt><trkpt lat="43.93675360965288" lon="7.065095362380266"><ele>308.33333333333337</ele><time>2026-04-21T07:34:51.999Z</time></trkpt><trkpt lat="43.93665083464913" lon="7.065311088339391"><ele>302.6666666666667</ele><time>2026-04-21T07:34:52.999Z</time></trkpt><trkpt lat="43.936558509347584" lon="7.065521864941695"><ele>297.0</ele><time>2026-04-21T07:34:53.998Z</time></trkpt><trkpt lat="43.93646310161262" lon="7.065719276650817"><ele>301.0</ele><time>2026-04-21T07:34:54.998Z</time></trkpt><trkpt lat="43.93634836180404" lon="7.065900252844582"><ele>305.0</ele><time>2026-04-21T07:34:55.998Z</time></trkpt><trkpt lat="43.936212367716955" lon="7.0660622467431535"><ele>309.0</ele><time>2026-04-21T07:34:56.998Z</time></trkpt><trkpt lat="43.93606224396883" lon="7.066218888059092"><ele>309.0</ele><time>2026-04-21T07:34:57.998Z</time></trkpt><trkpt lat="43.93591308667587" lon="7.0663818920814245"><ele>309.0</ele><time>2026-04-21T07:34:58.998Z</time></trkpt><trkpt lat="43.93578227428279" lon="7.066527922880153"><ele>309.0</ele><time>2026-04-21T07:34:59.998Z</time></trkpt><trkpt lat="43.93567056916026" lon="7.066674260100112"><ele>307.25</ele><time>2026-04-21T07:35:00.998Z</time></trkpt><trkpt lat="43.935590620492746" lon="7.0668228091075145"><ele>305.5</ele><time>2026-04-21T07:35:01.998Z</time></trkpt><trkpt lat="43.93553011377721" lon="7.067001995332212"><ele>303.75</ele><time>2026-04-21T07:35:02.998Z</time></trkpt><trkpt lat="43.93548535623529" lon="7.067200009882635"><ele>302.0</ele><time>2026-04-21T07:35:03.998Z</time></trkpt><trkpt lat="43.93545745102598" lon="7.067398368555053"><ele>303.6666666666667</ele><time>2026-04-21T07:35:04.998Z</time></trkpt><trkpt lat="43.93545613208534" lon="7.0676072554825655"><ele>305.3333333333333</ele><time>2026-04-21T07:35:05.998Z</time></trkpt><trkpt lat="43.93548247466563" lon="7.067823062705232"><ele>307.0</ele><time>2026-04-21T07:35:06.998Z</time></trkpt><trkpt lat="43.935533495579065" lon="7.068055614815218"><ele>303.0</ele><time>2026-04-21T07:35:07.998Z</time></trkpt><trkpt lat="43.93559827792044" lon="7.068295633348918"><ele>299.0</ele><time>2026-04-21T07:35:08.998Z</time></trkpt><trkpt lat="43.935666858629475" lon="7.06854614512593"><ele>295.0</ele><time>2026-04-21T07:35:09.998Z</time></trkpt><trkpt lat="43.93573552143905" lon="7.068808366543911"><ele>295.0</ele><time>2026-04-21T07:35:10.998Z</time></trkpt><trkpt lat="43.93579985272759" lon="7.069067169711253"><ele>295.0</ele><time>2026-04-21T07:35:11.998Z</time></trkpt><trkpt lat="43.9358668117303" lon="7.069333673821035"><ele>295.0</ele><time>2026-04-21T07:35:12.998Z</time></trkpt><trkpt lat="43.9359222540109" lon="7.069573209690676"><ele>299.5</ele><time>2026-04-21T07:35:13.998Z</time></trkpt><trkpt lat="43.935958407367636" lon="7.069770882025329"><ele>304.0</ele><time>2026-04-21T07:35:14.998Z</time></trkpt><trkpt lat="43.93596687339966" lon="7.069963364159474"><ele>308.5</ele><time>2026-04-21T07:35:15.998Z</time></trkpt><trkpt lat="43.93594820892534" lon="7.070181750350217"><ele>313.0</ele><time>2026-04-21T07:35:16.998Z</time></trkpt><trkpt lat="43.93591086051365" lon="7.070412608543979"><ele>302.66666666666663</ele><time>2026-04-21T07:35:17.998Z</time></trkpt><trkpt lat="43.93587663109187" lon="7.070647140074486"><ele>292.3333333333333</ele><time>2026-04-21T07:35:18.997Z</time></trkpt><trkpt lat="43.93585479498172" lon="7.070851848574765"><ele>282.0</ele><time>2026-04-21T07:35:19.997Z</time></trkpt><trkpt lat="43.93584568333773" lon="7.071046849664654"><ele>282.0</ele><time>2026-04-21T07:35:20.997Z</time></trkpt><trkpt lat="43.93586110148624" lon="7.071243076296656"><ele>282.0</ele><time>2026-04-21T07:35:21.997Z</time></trkpt><trkpt lat="43.9359081927529" lon="7.071448108629609"><ele>282.0</ele><time>2026-04-21T07:35:22.997Z</time></trkpt><trkpt lat="43.93598183126121" lon="7.071647871790336"><ele>293.0</ele><time>2026-04-21T07:35:23.997Z</time></trkpt><trkpt lat="43.936057987022224" lon="7.071852132237061"><ele>304.0</ele><time>2026-04-21T07:35:24.997Z</time></trkpt><trkpt lat="43.936124766498516" lon="7.072079019835631"><ele>315.0</ele><time>2026-04-21T07:35:25.997Z</time></trkpt><trkpt lat="43.93616850375297" lon="7.072322889627297"><ele>314.3333333333333</ele><time>2026-04-21T07:35:26.997Z</time></trkpt><trkpt lat="43.93617940232978" lon="7.072561326039139"><ele>313.66666666666663</ele><time>2026-04-21T07:35:27.997Z</time></trkpt><trkpt lat="43.93616074853267" lon="7.072821062077003"><ele>313.0</ele><time>2026-04-21T07:35:28.997Z</time></trkpt><trkpt lat="43.93613536063018" lon="7.073085661706099"><ele>311.0</ele><time>2026-04-21T07:35:29.997Z</time></trkpt><trkpt lat="43.936105282523215" lon="7.073362401143331"><ele>309.0</ele><time>2026-04-21T07:35:30.997Z</time></trkpt><trkpt lat="43.936078867640035" lon="7.073634827251569"><ele>307.0</ele><time>2026-04-21T07:35:31.997Z</time></trkpt><trkpt lat="43.93603261434194" lon="7.0738917088115985"><ele>310.3333333333333</ele><time>2026-04-21T07:35:32.997Z</time></trkpt><trkpt lat="43.93601802288303" lon="7.074147586445887"><ele>313.6666666666667</ele><time>2026-04-21T07:35:33.997Z</time></trkpt><trkpt lat="43.93598717323808" lon="7.074392562397779"><ele>317.0</ele><time>2026-04-21T07:35:34.997Z</time></trkpt><trkpt lat="43.935953899390206" lon="7.074647164445604"><ele>317.0</ele><time>2026-04-21T07:35:35.997Z</time></trkpt><trkpt lat="43.935925669391324" lon="7.074914457991558"><ele>317.0</ele><time>2026-04-21T07:35:36.997Z</time></trkpt><trkpt lat="43.935915146073924" lon="7.0751865375669265"><ele>317.0</ele><time>2026-04-21T07:35:37.997Z</time></trkpt><trkpt lat="43.935917076312535" lon="7.0754703629364775"><ele>319.0</ele><time>2026-04-21T07:35:38.997Z</time></trkpt><trkpt lat="43.93592701301612" lon="7.075754554070137"><ele>321.0</ele><time>2026-04-21T07:35:39.997Z</time></trkpt><trkpt lat="43.935937198192015" lon="7.076049879541001"><ele>323.0</ele><time>2026-04-21T07:35:40.997Z</time></trkpt><trkpt lat="43.93594985726043" lon="7.076352016343795"><ele>330.0</ele><time>2026-04-21T07:35:41.997Z</time></trkpt><trkpt lat="43.93595994329353" lon="7.076653893243072"><ele>337.0</ele><time>2026-04-21T07:35:42.997Z</time></trkpt><trkpt lat="43.93596893460392" lon="7.076942634800379"><ele>344.0</ele><time>2026-04-21T07:35:43.997Z</time></trkpt><trkpt lat="43.93598316634054" lon="7.077190708911679"><ele>344.0</ele><time>2026-04-21T07:35:44.997Z</time></trkpt><trkpt lat="43.93599819751956" lon="7.07741341843129"><ele>344.0</ele><time>2026-04-21T07:35:45.997Z</time></trkpt><trkpt lat="43.9360287561221" lon="7.0776225184314105"><ele>344.0</ele><time>2026-04-21T07:35:46.997Z</time></trkpt><trkpt lat="43.93608837683026" lon="7.077838733675"><ele>342.0</ele><time>2026-04-21T07:35:47.997Z</time></trkpt><trkpt lat="43.93615654464505" lon="7.078057901322897"><ele>340.0</ele><time>2026-04-21T07:35:48.997Z</time></trkpt><trkpt lat="43.93622516222354" lon="7.078270184304805"><ele>338.0</ele><time>2026-04-21T07:35:49.997Z</time></trkpt><trkpt lat="43.93630341011014" lon="7.078495445719669"><ele>327.0</ele><time>2026-04-21T07:35:50.997Z</time></trkpt><trkpt lat="43.936387589636674" lon="7.078723308376921"><ele>316.0</ele><time>2026-04-21T07:35:51.997Z</time></trkpt><trkpt lat="43.93648071316148" lon="7.0789562002984185"><ele>305.0</ele><time>2026-04-21T07:35:52.997Z</time></trkpt><trkpt lat="43.93657783691811" lon="7.079184133069037"><ele>308.6666666666667</ele><time>2026-04-21T07:35:53.997Z</time></trkpt><trkpt lat="43.936686693939514" lon="7.079417368033198"><ele>312.3333333333333</ele><time>2026-04-21T07:35:54.997Z</time></trkpt><trkpt lat="43.936792474217754" lon="7.079634324374242"><ele>316.0</ele><time>2026-04-21T07:35:55.997Z</time></trkpt><trkpt lat="43.936894100909775" lon="7.079842281058337"><ele>306.66666666666663</ele><time>2026-04-21T07:35:56.997Z</time></trkpt><trkpt lat="43.936990242763805" lon="7.080044757703753"><ele>297.3333333333333</ele><time>2026-04-21T07:35:57.997Z</time></trkpt><trkpt lat="43.93708652407425" lon="7.080255009233845"><ele>288.0</ele><time>2026-04-21T07:35:58.997Z</time></trkpt><trkpt lat="43.93718721640914" lon="7.080476966513426"><ele>288.0</ele><time>2026-04-21T07:35:59.997Z</time></trkpt><trkpt lat="43.93727519733593" lon="7.080723310908065"><ele>288.0</ele><time>2026-04-21T07:36:00.997Z</time></trkpt><trkpt lat="43.937369284107056" lon="7.080949287654242"><ele>288.0</ele><time>2026-04-21T07:36:01.997Z</time></trkpt><trkpt lat="43.937459735195645" lon="7.081165571371639"><ele>286.3333333333333</ele><time>2026-04-21T07:36:02.997Z</time></trkpt><trkpt lat="43.937555490389684" lon="7.081373016956025"><ele>284.66666666666663</ele><time>2026-04-21T07:36:03.997Z</time></trkpt><trkpt lat="43.93763860082496" lon="7.081612783206429"><ele>283.0</ele><time>2026-04-21T07:36:04.997Z</time></trkpt><trkpt lat="43.93771682991597" lon="7.0818520375658585"><ele>281.66666666666663</ele><time>2026-04-21T07:36:05.997Z</time></trkpt><trkpt lat="43.93776810923287" lon="7.082077601908118"><ele>280.3333333333333</ele><time>2026-04-21T07:36:06.997Z</time></trkpt><trkpt lat="43.93779339570053" lon="7.082293234076894"><ele>279.0</ele><time>2026-04-21T07:36:07.997Z</time></trkpt><trkpt lat="43.93778731127487" lon="7.082525327255701"><ele>279.0</ele><time>2026-04-21T07:36:08.997Z</time></trkpt><trkpt lat="43.93775627846494" lon="7.082770376342891"><ele>279.0</ele><time>2026-04-21T07:36:09.997Z</time></trkpt><trkpt lat="43.93770649236564" lon="7.0830107979154135"><ele>279.0</ele><time>2026-04-21T07:36:10.997Z</time></trkpt><trkpt lat="43.93764338319141" lon="7.0832525004844085"><ele>279.6666666666667</ele><time>2026-04-21T07:36:11.997Z</time></trkpt><trkpt lat="43.93756933411992" lon="7.083482020885995"><ele>280.33333333333337</ele><time>2026-04-21T07:36:12.997Z</time></trkpt><trkpt lat="43.93749557332283" lon="7.083692603741582"><ele>281.0</ele><time>2026-04-21T07:36:13.997Z</time></trkpt><trkpt lat="43.93741671232927" lon="7.083887431571249"><ele>277.5</ele><time>2026-04-21T07:36:14.997Z</time></trkpt><trkpt lat="43.937364436092906" lon="7.084091033131214"><ele>274.0</ele><time>2026-04-21T07:36:15.997Z</time></trkpt><trkpt lat="43.9373483529588" lon="7.084294290889691"><ele>270.5</ele><time>2026-04-21T07:36:16.997Z</time></trkpt><trkpt lat="43.93732079489873" lon="7.084484787585161"><ele>267.0</ele><time>2026-04-21T07:36:17.997Z</time></trkpt><trkpt lat="43.93729524311227" lon="7.084661241967774"><ele>267.0</ele><time>2026-04-21T07:36:18.997Z</time></trkpt><trkpt lat="43.93727177654016" lon="7.084802164781925"><ele>267.0</ele><time>2026-04-21T07:36:19.997Z</time></trkpt><trkpt lat="43.93725322777712" lon="7.084919543332086"><ele>267.0</ele><time>2026-04-21T07:36:20.997Z</time></trkpt><trkpt lat="43.937237444393915" lon="7.08503457783452"><ele>267.0</ele><time>2026-04-21T07:36:21.997Z</time></trkpt><trkpt lat="43.937222314019415" lon="7.085163957860321"><ele>267.0</ele><time>2026-04-21T07:36:22.997Z</time></trkpt><trkpt lat="43.93720588800405" lon="7.085311206066337"><ele>267.25</ele><time>2026-04-21T07:36:23.997Z</time></trkpt><trkpt lat="43.93718100386075" lon="7.085482019484472"><ele>267.5</ele><time>2026-04-21T07:36:24.997Z</time></trkpt><trkpt lat="43.93714703986366" lon="7.085667869334963"><ele>267.75</ele><time>2026-04-21T07:36:25.997Z</time></trkpt><trkpt lat="43.93710758697833" lon="7.085839143848223"><ele>268.0</ele><time>2026-04-21T07:36:26.997Z</time></trkpt><trkpt lat="43.937060187995435" lon="7.0860152003344545"><ele>268.25</ele><time>2026-04-21T07:36:27.997Z</time></trkpt><trkpt lat="43.93700300995746" lon="7.086199894776722"><ele>268.5</ele><time>2026-04-21T07:36:28.997Z</time></trkpt><trkpt lat="43.936933404589" lon="7.086375540716967"><ele>268.75</ele><time>2026-04-21T07:36:29.997Z</time></trkpt><trkpt lat="43.936847412266204" lon="7.086558581163231"><ele>269.0</ele><time>2026-04-21T07:36:30.997Z</time></trkpt><trkpt lat="43.936746373470385" lon="7.086725412679836"><ele>268.0</ele><time>2026-04-21T07:36:31.997Z</time></trkpt><trkpt lat="43.936624127348615" lon="7.086889490199999"><ele>267.0</ele><time>2026-04-21T07:36:32.997Z</time></trkpt><trkpt lat="43.93648646819193" lon="7.087042127154816"><ele>266.0</ele><time>2026-04-21T07:36:33.997Z</time></trkpt><trkpt lat="43.93633256294492" lon="7.087184244519696"><ele>266.0</ele><time>2026-04-21T07:36:34.997Z</time></trkpt><trkpt lat="43.93616271227693" lon="7.087309151331168"><ele>266.0</ele><time>2026-04-21T07:36:35.997Z</time></trkpt><trkpt lat="43.9359772934991" lon="7.087425422573923"><ele>266.0</ele><time>2026-04-21T07:36:36.997Z</time></trkpt><trkpt lat="43.93578239387258" lon="7.087536506715146"><ele>264.6666666666667</ele><time>2026-04-21T07:36:37.997Z</time></trkpt><trkpt lat="43.935584725280556" lon="7.087647325322201"><ele>263.3333333333333</ele><time>2026-04-21T07:36:38.998Z</time></trkpt><trkpt lat="43.93539007063262" lon="7.087757821806956"><ele>262.0</ele><time>2026-04-21T07:36:39.998Z</time></trkpt><trkpt lat="43.93518435350542" lon="7.087872428116414"><ele>260.0</ele><time>2026-04-21T07:36:40.998Z</time></trkpt><trkpt lat="43.934986867738424" lon="7.08798220363091"><ele>258.0</ele><time>2026-04-21T07:36:41.998Z</time></trkpt><trkpt lat="43.9348028060351" lon="7.0880872961360355"><ele>256.0</ele><time>2026-04-21T07:36:42.998Z</time></trkpt><trkpt lat="43.9346067550235" lon="7.0881958763001"><ele>256.3333333333333</ele><time>2026-04-21T07:36:43.998Z</time></trkpt><trkpt lat="43.93441451180637" lon="7.0883073985988405"><ele>256.6666666666667</ele><time>2026-04-21T07:36:44.998Z</time></trkpt><trkpt lat="43.93422206986549" lon="7.088418019055953"><ele>257.0</ele><time>2026-04-21T07:36:45.998Z</time></trkpt><trkpt lat="43.934032247382994" lon="7.088525458854664"><ele>257.0</ele><time>2026-04-21T07:36:46.998Z</time></trkpt><trkpt lat="43.93384394299317" lon="7.088630090891731"><ele>257.0</ele><time>2026-04-21T07:36:47.999Z</time></trkpt><trkpt lat="43.93365674956084" lon="7.088734190435724"><ele>257.0</ele><time>2026-04-21T07:36:48.999Z</time></trkpt><trkpt lat="43.93347117410952" lon="7.088839212691514"><ele>255.66666666666669</ele><time>2026-04-21T07:36:49.999Z</time></trkpt><trkpt lat="43.933284985141526" lon="7.088941890778017"><ele>254.33333333333331</ele><time>2026-04-21T07:36:50.999Z</time></trkpt><trkpt lat="43.93309154725738" lon="7.089048694729662"><ele>253.0</ele><time>2026-04-21T07:36:51.999Z</time></trkpt><trkpt lat="43.932891349030626" lon="7.089159971543837"><ele>253.33333333333331</ele><time>2026-04-21T07:36:52.999Z</time></trkpt><trkpt lat="43.93269575788324" lon="7.0892674025848565"><ele>253.66666666666669</ele><time>2026-04-21T07:36:53.999Z</time></trkpt><trkpt lat="43.93250498773676" lon="7.089362322705498"><ele>254.0</ele><time>2026-04-21T07:36:54.999Z</time></trkpt><trkpt lat="43.932308856844045" lon="7.089457833940014"><ele>254.0</ele><time>2026-04-21T07:36:55.999Z</time></trkpt><trkpt lat="43.93211332125841" lon="7.089557858467669"><ele>254.0</ele><time>2026-04-21T07:36:56.999Z</time></trkpt><trkpt lat="43.931935781621156" lon="7.08965290473321"><ele>254.0</ele><time>2026-04-21T07:36:57.999Z</time></trkpt><trkpt lat="43.93177662035548" lon="7.089744233536414"><ele>251.66666666666669</ele><time>2026-04-21T07:36:58.999Z</time></trkpt><trkpt lat="43.931624007677165" lon="7.089848777561786"><ele>249.33333333333331</ele><time>2026-04-21T07:36:59.999Z</time></trkpt><trkpt lat="43.93146983400009" lon="7.089975961568527"><ele>247.0</ele><time>2026-04-21T07:37:00.999Z</time></trkpt><trkpt lat="43.931317625508306" lon="7.090125688063584"><ele>248.0</ele><time>2026-04-21T07:37:01.999Z</time></trkpt><trkpt lat="43.93117122028142" lon="7.090296760917448"><ele>249.0</ele><time>2026-04-21T07:37:02.999Z</time></trkpt><trkpt lat="43.93102213733464" lon="7.0904824416491765"><ele>250.0</ele><time>2026-04-21T07:37:03.999Z</time></trkpt><trkpt lat="43.930877621071794" lon="7.090662951599498"><ele>254.33333333333331</ele><time>2026-04-21T07:37:04.999Z</time></trkpt><trkpt lat="43.930740375441815" lon="7.090831028914983"><ele>258.6666666666667</ele><time>2026-04-21T07:37:05.999Z</time></trkpt><trkpt lat="43.93059864113211" lon="7.091006493617412"><ele>263.0</ele><time>2026-04-21T07:37:06.999Z</time></trkpt><trkpt lat="43.930456563188685" lon="7.0911841610479955"><ele>263.0</ele><time>2026-04-21T07:37:07.999Z</time></trkpt><trkpt lat="43.93031909605964" lon="7.091379354252871"><ele>263.0</ele><time>2026-04-21T07:37:08.999Z</time></trkpt><trkpt lat="43.930193654232134" lon="7.09159908642593"><ele>263.0</ele><time>2026-04-21T07:37:09.999Z</time></trkpt><trkpt lat="43.93007434361422" lon="7.091841507180406"><ele>259.6666666666667</ele><time>2026-04-21T07:37:10.999Z</time></trkpt><trkpt lat="43.929955651755385" lon="7.092091331393102"><ele>256.3333333333333</ele><time>2026-04-21T07:37:11.999Z</time></trkpt><trkpt lat="43.92983752997723" lon="7.092348500574359"><ele>253.0</ele><time>2026-04-21T07:37:12.999Z</time></trkpt><trkpt lat="43.929718178315184" lon="7.092612432518152"><ele>253.0</ele><time>2026-04-21T07:37:13.999Z</time></trkpt><trkpt lat="43.92959743263431" lon="7.0928731100044775"><ele>253.0</ele><time>2026-04-21T07:37:14.999Z</time></trkpt><trkpt lat="43.929476238076674" lon="7.093139371858377"><ele>252.33333333333331</ele><time>2026-04-21T07:37:15.999Z</time></trkpt><trkpt lat="43.929352680782266" lon="7.093404805094623"><ele>251.66666666666669</ele><time>2026-04-21T07:37:17Z</time></trkpt><trkpt lat="43.929236310374044" lon="7.093665440970359"><ele>251.0</ele><time>2026-04-21T07:37:18Z</time></trkpt><trkpt lat="43.92912863396475" lon="7.093911433953609"><ele>254.0</ele><time>2026-04-21T07:37:19Z</time></trkpt><trkpt lat="43.92902287242149" lon="7.094164419752956"><ele>257.0</ele><time>2026-04-21T07:37:20Z</time></trkpt><trkpt lat="43.928925574935924" lon="7.094410511441712"><ele>260.0</ele><time>2026-04-21T07:37:21Z</time></trkpt><trkpt lat="43.928830764199034" lon="7.094663072567493"><ele>260.0</ele><time>2026-04-21T07:37:22Z</time></trkpt><trkpt lat="43.928751621313005" lon="7.094913911035997"><ele>260.0</ele><time>2026-04-21T07:37:23Z</time></trkpt><trkpt lat="43.92868856480566" lon="7.095177841790979"><ele>260.0</ele><time>2026-04-21T07:37:24Z</time></trkpt><trkpt lat="43.92863597261468" lon="7.095448621944489"><ele>263.6666666666667</ele><time>2026-04-21T07:37:25Z</time></trkpt><trkpt lat="43.9285919292154" lon="7.09572493489149"><ele>267.3333333333333</ele><time>2026-04-21T07:37:26Z</time></trkpt><trkpt lat="43.92855961270237" lon="7.096002257938325"><ele>271.0</ele><time>2026-04-21T07:37:27Z</time></trkpt><trkpt lat="43.92853620521689" lon="7.096279949551019"><ele>274.3333333333333</ele><time>2026-04-21T07:37:28Z</time></trkpt><trkpt lat="43.92851695873826" lon="7.096554531179308"><ele>277.6666666666667</ele><time>2026-04-21T07:37:29Z</time></trkpt><trkpt lat="43.92849365448838" lon="7.096814232480604"><ele>281.0</ele><time>2026-04-21T07:37:30Z</time></trkpt><trkpt lat="43.92846118435382" lon="7.097076567393462"><ele>282.0</ele><time>2026-04-21T07:37:31Z</time></trkpt><trkpt lat="43.92841869869221" lon="7.097330828761543"><ele>283.0</ele><time>2026-04-21T07:37:32Z</time></trkpt><trkpt lat="43.92835716010821" lon="7.097595092169385"><ele>284.0</ele><time>2026-04-21T07:37:33Z</time></trkpt><trkpt lat="43.92828277234016" lon="7.097863654692319"><ele>272.33333333333337</ele><time>2026-04-21T07:37:34Z</time></trkpt><trkpt lat="43.92820141297652" lon="7.09814110510014"><ele>260.6666666666667</ele><time>2026-04-21T07:37:35Z</time></trkpt><trkpt lat="43.92812263890641" lon="7.098412638002695"><ele>249.0</ele><time>2026-04-21T07:37:36Z</time></trkpt><trkpt lat="43.92805016645732" lon="7.098680476108729"><ele>247.66666666666669</ele><time>2026-04-21T07:37:37Z</time></trkpt><trkpt lat="43.9279749912411" lon="7.098936493190412"><ele>246.33333333333334</ele><time>2026-04-21T07:37:38Z</time></trkpt><trkpt lat="43.92790421908734" lon="7.099178305295544"><ele>245.0</ele><time>2026-04-21T07:37:39Z</time></trkpt><trkpt lat="43.927841873082855" lon="7.099411254526936"><ele>243.66666666666669</ele><time>2026-04-21T07:37:40Z</time></trkpt><trkpt lat="43.92779126789801" lon="7.09964152252917"><ele>242.33333333333331</ele><time>2026-04-21T07:37:41Z</time></trkpt><trkpt lat="43.927754882683594" lon="7.099879040393622"><ele>241.0</ele><time>2026-04-21T07:37:42Z</time></trkpt><trkpt lat="43.92773572004525" lon="7.100124672020542"><ele>240.66666666666666</ele><time>2026-04-21T07:37:43Z</time></trkpt><trkpt lat="43.927734901040516" lon="7.100361977710892"><ele>240.33333333333331</ele><time>2026-04-21T07:37:44Z</time></trkpt><trkpt lat="43.9277560076978" lon="7.100611473066344"><ele>240.0</ele><time>2026-04-21T07:37:45Z</time></trkpt><trkpt lat="43.927798481151996" lon="7.100869865216661"><ele>239.66666666666669</ele><time>2026-04-21T07:37:46Z</time></trkpt><trkpt lat="43.92785556216653" lon="7.101123712576667"><ele>239.33333333333334</ele><time>2026-04-21T07:37:47Z</time></trkpt><trkpt lat="43.92792991089169" lon="7.101371848309898"><ele>239.0</ele><time>2026-04-21T07:37:48Z</time></trkpt><trkpt lat="43.92802084072404" lon="7.101598924747477"><ele>238.66666666666669</ele><time>2026-04-21T07:37:49Z</time></trkpt><trkpt lat="43.928135786857915" lon="7.101820640649786"><ele>238.33333333333331</ele><time>2026-04-21T07:37:50Z</time></trkpt><trkpt lat="43.92827198316796" lon="7.1020346339597875"><ele>238.0</ele><time>2026-04-21T07:37:51Z</time></trkpt><trkpt lat="43.92841299114344" lon="7.1022526648706545"><ele>239.0</ele><time>2026-04-21T07:37:52Z</time></trkpt><trkpt lat="43.92855202283651" lon="7.102482318662343"><ele>240.0</ele><time>2026-04-21T07:37:53Z</time></trkpt><trkpt lat="43.928686462520375" lon="7.102715885408341"><ele>241.0</ele><time>2026-04-21T07:37:54Z</time></trkpt><trkpt lat="43.92880114834504" lon="7.102946606231969"><ele>241.0</ele><time>2026-04-21T07:37:55Z</time></trkpt><trkpt lat="43.92890229531008" lon="7.103186619811991"><ele>241.0</ele><time>2026-04-21T07:37:56Z</time></trkpt><trkpt lat="43.92899158207977" lon="7.103436886516043"><ele>241.0</ele><time>2026-04-21T07:37:57Z</time></trkpt><trkpt lat="43.92906517187456" lon="7.1037031383451605"><ele>240.66666666666666</ele><time>2026-04-21T07:37:58Z</time></trkpt><trkpt lat="43.92912376372084" lon="7.103977141279009"><ele>240.33333333333331</ele><time>2026-04-21T07:37:59Z</time></trkpt><trkpt lat="43.92916308335963" lon="7.104259132649415"><ele>240.0</ele><time>2026-04-21T07:38:00Z</time></trkpt><trkpt lat="43.9291796876024" lon="7.104547709958093"><ele>240.0</ele><time>2026-04-21T07:38:01Z</time></trkpt><trkpt lat="43.92917861971847" lon="7.104838180179312"><ele>240.0</ele><time>2026-04-21T07:38:02Z</time></trkpt><trkpt lat="43.929181235879916" lon="7.1051303502101915"><ele>240.0</ele><time>2026-04-21T07:38:03Z</time></trkpt><trkpt lat="43.929192231679274" lon="7.105424644872493"><ele>240.0</ele><time>2026-04-21T07:38:04Z</time></trkpt><trkpt lat="43.92921020219161" lon="7.10571998185639"><ele>240.0</ele><time>2026-04-21T07:38:05Z</time></trkpt><trkpt lat="43.929233994691515" lon="7.1060166803324165"><ele>240.0</ele><time>2026-04-21T07:38:06.001Z</time></trkpt><trkpt lat="43.92926541617143" lon="7.106316669682646"><ele>240.0</ele><time>2026-04-21T07:38:07.001Z</time></trkpt><trkpt lat="43.92929800877418" lon="7.106614047156166"><ele>240.0</ele><time>2026-04-21T07:38:08.001Z</time></trkpt><trkpt lat="43.92933611366836" lon="7.1069125386289045"><ele>240.0</ele><time>2026-04-21T07:38:09.001Z</time></trkpt><trkpt lat="43.92938611346953" lon="7.10721125406696"><ele>238.0</ele><time>2026-04-21T07:38:10.001Z</time></trkpt><trkpt lat="43.929441877413964" lon="7.10750963923328"><ele>236.0</ele><time>2026-04-21T07:38:11.001Z</time></trkpt><trkpt lat="43.929501305399015" lon="7.107805717497198"><ele>234.0</ele><time>2026-04-21T07:38:12.001Z</time></trkpt><trkpt lat="43.92956824178403" lon="7.108100635363291"><ele>234.33333333333331</ele><time>2026-04-21T07:38:13.001Z</time></trkpt><trkpt lat="43.929640319577786" lon="7.108394829298167"><ele>234.66666666666666</ele><time>2026-04-21T07:38:14.001Z</time></trkpt><trkpt lat="43.92972027223095" lon="7.108686157534251"><ele>235.0</ele><time>2026-04-21T07:38:15.001Z</time></trkpt><trkpt lat="43.929808187278326" lon="7.108973348208408"><ele>235.0</ele><time>2026-04-21T07:38:16.001Z</time></trkpt><trkpt lat="43.929900277692646" lon="7.109257877799118"><ele>235.0</ele><time>2026-04-21T07:38:17.001Z</time></trkpt><trkpt lat="43.930000758017535" lon="7.109538565589637"><ele>235.5</ele><time>2026-04-21T07:38:18.001Z</time></trkpt><trkpt lat="43.93010789735938" lon="7.109820314371948"><ele>236.0</ele><time>2026-04-21T07:38:19.001Z</time></trkpt><trkpt lat="43.93021469246789" lon="7.110099852608955"><ele>236.0</ele><time>2026-04-21T07:38:20.001Z</time></trkpt><trkpt lat="43.9303226227366" lon="7.110388110527381"><ele>236.0</ele><time>2026-04-21T07:38:21.001Z</time></trkpt><trkpt lat="43.93043018071145" lon="7.110677381479935"><ele>235.0</ele><time>2026-04-21T07:38:22.001Z</time></trkpt><trkpt lat="43.93053947920815" lon="7.1109660433456545"><ele>234.0</ele><time>2026-04-21T07:38:23.001Z</time></trkpt><trkpt lat="43.93064821559801" lon="7.111253208797982"><ele>234.0</ele><time>2026-04-21T07:38:24.001Z</time></trkpt><trkpt lat="43.930753433781376" lon="7.111542150377664"><ele>234.0</ele><time>2026-04-21T07:38:25.001Z</time></trkpt><trkpt lat="43.93084838675331" lon="7.11182189305666"><ele>235.0</ele><time>2026-04-21T07:38:26.001Z</time></trkpt><trkpt lat="43.9309362194542" lon="7.112110682381993"><ele>236.0</ele><time>2026-04-21T07:38:27.001Z</time></trkpt><trkpt lat="43.93101094028098" lon="7.112407447225271"><ele>236.0</ele><time>2026-04-21T07:38:28.001Z</time></trkpt><trkpt lat="43.93106869447616" lon="7.1127143985556724"><ele>236.0</ele><time>2026-04-21T07:38:29.001Z</time></trkpt><trkpt lat="43.93110999072472" lon="7.11302997252372"><ele>234.5</ele><time>2026-04-21T07:38:30.001Z</time></trkpt><trkpt lat="43.9311390333105" lon="7.113351198155443"><ele>233.0</ele><time>2026-04-21T07:38:31.001Z</time></trkpt><trkpt lat="43.93115845853129" lon="7.113675475409808"><ele>233.0</ele><time>2026-04-21T07:38:32.001Z</time></trkpt><trkpt lat="43.93116395643309" lon="7.114003248362872"><ele>233.0</ele><time>2026-04-21T07:38:33.001Z</time></trkpt><trkpt lat="43.93115338591956" lon="7.114332338699616"><ele>234.0</ele><time>2026-04-21T07:38:34.001Z</time></trkpt><trkpt lat="43.93112585750982" lon="7.114651765470651"><ele>235.0</ele><time>2026-04-21T07:38:35.001Z</time></trkpt><trkpt lat="43.93108891189536" lon="7.114950547169348"><ele>233.66666666666666</ele><time>2026-04-21T07:38:36.001Z</time></trkpt><trkpt lat="43.93105064658704" lon="7.115248440816335"><ele>232.33333333333331</ele><time>2026-04-21T07:38:37.001Z</time></trkpt><trkpt lat="43.931022416161284" lon="7.115524919091621"><ele>231.0</ele><time>2026-04-21T07:38:38.001Z</time></trkpt><trkpt lat="43.93100963485997" lon="7.1157953106051774"><ele>230.0</ele><time>2026-04-21T07:38:39.001Z</time></trkpt><trkpt lat="43.931016239375225" lon="7.116063120327431"><ele>229.0</ele><time>2026-04-21T07:38:40.001Z</time></trkpt><trkpt lat="43.931043047517925" lon="7.116323167858098"><ele>228.0</ele><time>2026-04-21T07:38:41.001Z</time></trkpt><trkpt lat="43.931080047357256" lon="7.116565756210467"><ele>228.66666666666669</ele><time>2026-04-21T07:38:42.001Z</time></trkpt><trkpt lat="43.93113446840553" lon="7.11680378847753"><ele>229.33333333333334</ele><time>2026-04-21T07:38:43.001Z</time></trkpt><trkpt lat="43.931206531306884" lon="7.117037072295586"><ele>230.0</ele><time>2026-04-21T07:38:44.001Z</time></trkpt><trkpt lat="43.93129702596773" lon="7.117267721451956"><ele>230.66666666666669</ele><time>2026-04-21T07:38:45.001Z</time></trkpt><trkpt lat="43.93140873416723" lon="7.1174850807480246"><ele>231.33333333333331</ele><time>2026-04-21T07:38:46.001Z</time></trkpt><trkpt lat="43.93154207854504" lon="7.11767410716898"><ele>232.0</ele><time>2026-04-21T07:38:47.001Z</time></trkpt><trkpt lat="43.931682059850665" lon="7.117856439562296"><ele>233.33333333333331</ele><time>2026-04-21T07:38:48.001Z</time></trkpt><trkpt lat="43.931842855834844" lon="7.118009975433818"><ele>234.66666666666669</ele><time>2026-04-21T07:38:49.001Z</time></trkpt><trkpt lat="43.93201668195031" lon="7.11815822057922"><ele>236.0</ele><time>2026-04-21T07:38:50.001Z</time></trkpt><trkpt lat="43.932190617128946" lon="7.118310756849515"><ele>236.0</ele><time>2026-04-21T07:38:51.001Z</time></trkpt><trkpt lat="43.93234435599791" lon="7.1184523050036885"><ele>236.0</ele><time>2026-04-21T07:38:52.001Z</time></trkpt><trkpt lat="43.93247006782442" lon="7.1185966412996"><ele>236.0</ele><time>2026-04-21T07:38:53.001Z</time></trkpt><trkpt lat="43.932575123648114" lon="7.118760368402905"><ele>236.25</ele><time>2026-04-21T07:38:54.001Z</time></trkpt><trkpt lat="43.932667550171374" lon="7.118942895332236"><ele>236.5</ele><time>2026-04-21T07:38:55.001Z</time></trkpt><trkpt lat="43.932746206008794" lon="7.119106226215"><ele>236.75</ele><time>2026-04-21T07:38:56.001Z</time></trkpt><trkpt lat="43.932801401569364" lon="7.119246634270657"><ele>237.0</ele><time>2026-04-21T07:38:57.001Z</time></trkpt><trkpt lat="43.93282538742679" lon="7.1193987567455554"><ele>237.0</ele><time>2026-04-21T07:38:58.001Z</time></trkpt><trkpt lat="43.9328331523903" lon="7.119584907179809"><ele>237.0</ele><time>2026-04-21T07:38:59.001Z</time></trkpt><trkpt lat="43.93283727696826" lon="7.119750433004453"><ele>237.0</ele><time>2026-04-21T07:39:00.001Z</time></trkpt><trkpt lat="43.932864397447375" lon="7.119893747470864"><ele>237.0</ele><time>2026-04-21T07:39:01.001Z</time></trkpt><trkpt lat="43.9329281877086" lon="7.120032448245497"><ele>238.0</ele><time>2026-04-21T07:39:02.001Z</time></trkpt><trkpt lat="43.93301717424738" lon="7.1201649093849"><ele>239.0</ele><time>2026-04-21T07:39:03.001Z</time></trkpt><trkpt lat="43.93312940017925" lon="7.120296067810581"><ele>240.0</ele><time>2026-04-21T07:39:04.001Z</time></trkpt><trkpt lat="43.933249189376866" lon="7.120431122230275"><ele>241.0</ele><time>2026-04-21T07:39:05.001Z</time></trkpt><trkpt lat="43.933376239846666" lon="7.120575166721431"><ele>239.66666666666666</ele><time>2026-04-21T07:39:06.001Z</time></trkpt><trkpt lat="43.93350742057776" lon="7.12072102993831"><ele>238.33333333333331</ele><time>2026-04-21T07:39:07.001Z</time></trkpt><trkpt lat="43.93364956728858" lon="7.120865512556212"><ele>237.0</ele><time>2026-04-21T07:39:08.001Z</time></trkpt><trkpt lat="43.9337995810957" lon="7.121012864712166"><ele>237.0</ele><time>2026-04-21T07:39:09.001Z</time></trkpt><trkpt lat="43.933953981513454" lon="7.121162382954562"><ele>237.0</ele><time>2026-04-21T07:39:10.001Z</time></trkpt><trkpt lat="43.93411160911524" lon="7.121309229577259"><ele>237.0</ele><time>2026-04-21T07:39:11.001Z</time></trkpt><trkpt lat="43.93425847779846" lon="7.121449985289437"><ele>234.33333333333331</ele><time>2026-04-21T07:39:12.001Z</time></trkpt><trkpt lat="43.93441263169568" lon="7.121599324998905"><ele>231.66666666666666</ele><time>2026-04-21T07:39:13.001Z</time></trkpt><trkpt lat="43.93456719900248" lon="7.1217470576187205"><ele>229.0</ele><time>2026-04-21T07:39:14.001Z</time></trkpt><trkpt lat="43.93470207569292" lon="7.121883818189598"><ele>229.0</ele><time>2026-04-21T07:39:15.001Z</time></trkpt><trkpt lat="43.934822016679625" lon="7.1220286708657214"><ele>229.0</ele><time>2026-04-21T07:39:16.001Z</time></trkpt><trkpt lat="43.934939615302184" lon="7.122204706078009"><ele>229.0</ele><time>2026-04-21T07:39:17.001Z</time></trkpt><trkpt lat="43.93505433444306" lon="7.122399933813582"><ele>226.66666666666666</ele><time>2026-04-21T07:39:18.001Z</time></trkpt><trkpt lat="43.9351679685918" lon="7.122593809572467"><ele>224.33333333333331</ele><time>2026-04-21T07:39:19.001Z</time></trkpt><trkpt lat="43.93527791383747" lon="7.122795834947649"><ele>222.0</ele><time>2026-04-21T07:39:20.001Z</time></trkpt><trkpt lat="43.9353686256347" lon="7.123004717009378"><ele>222.0</ele><time>2026-04-21T07:39:21.001Z</time></trkpt><trkpt lat="43.93545392883508" lon="7.123222387035367"><ele>222.0</ele><time>2026-04-21T07:39:22.001Z</time></trkpt><trkpt lat="43.93552669803926" lon="7.123453352008861"><ele>222.0</ele><time>2026-04-21T07:39:23.001Z</time></trkpt><trkpt lat="43.935582721478966" lon="7.123704547835428"><ele>223.33333333333331</ele><time>2026-04-21T07:39:24.001Z</time></trkpt><trkpt lat="43.93562431184865" lon="7.123961466221848"><ele>224.66666666666666</ele><time>2026-04-21T07:39:25.001Z</time></trkpt><trkpt lat="43.935654900173866" lon="7.124202433451966"><ele>226.0</ele><time>2026-04-21T07:39:26.001Z</time></trkpt><trkpt lat="43.935676105585344" lon="7.124413476410542"><ele>227.66666666666666</ele><time>2026-04-21T07:39:27.001Z</time></trkpt><trkpt lat="43.93568084635966" lon="7.124622492291392"><ele>229.33333333333331</ele><time>2026-04-21T07:39:28.001Z</time></trkpt><trkpt lat="43.93565892255175" lon="7.124857590379682"><ele>231.0</ele><time>2026-04-21T07:39:29.001Z</time></trkpt><trkpt lat="43.93563266209666" lon="7.1250996415576715"><ele>231.0</ele><time>2026-04-21T07:39:30.001Z</time></trkpt><trkpt lat="43.93560327950218" lon="7.1253430084564116"><ele>231.0</ele><time>2026-04-21T07:39:31.001Z</time></trkpt><trkpt lat="43.935566502110106" lon="7.125580844813622"><ele>231.0</ele><time>2026-04-21T07:39:32.001Z</time></trkpt><trkpt lat="43.93551562254611" lon="7.125811955138804"><ele>229.66666666666669</ele><time>2026-04-21T07:39:33.001Z</time></trkpt><trkpt lat="43.93543764349687" lon="7.126050991038415"><ele>228.33333333333334</ele><time>2026-04-21T07:39:34.001Z</time></trkpt><trkpt lat="43.93534132573163" lon="7.126288329238799"><ele>227.0</ele><time>2026-04-21T07:39:35.001Z</time></trkpt><trkpt lat="43.93523950070674" lon="7.1265304874307285"><ele>226.0</ele><time>2026-04-21T07:39:36.001Z</time></trkpt><trkpt lat="43.93515158624262" lon="7.126792342548817"><ele>225.0</ele><time>2026-04-21T07:39:37.001Z</time></trkpt><trkpt lat="43.93507778406188" lon="7.127066047679161"><ele>224.0</ele><time>2026-04-21T07:39:38.001Z</time></trkpt><trkpt lat="43.93501730131832" lon="7.127353890180706"><ele>227.66666666666669</ele><time>2026-04-21T07:39:39.001Z</time></trkpt><trkpt lat="43.934965836741284" lon="7.127628981693037"><ele>231.33333333333331</ele><time>2026-04-21T07:39:40.001Z</time></trkpt><trkpt lat="43.93491357620698" lon="7.127862375529791"><ele>235.0</ele><time>2026-04-21T07:39:41.001Z</time></trkpt><trkpt lat="43.9348568607446" lon="7.1280756854207965"><ele>231.33333333333331</ele><time>2026-04-21T07:39:42.001Z</time></trkpt><trkpt lat="43.93479248013067" lon="7.128270892515425"><ele>227.66666666666669</ele><time>2026-04-21T07:39:43.001Z</time></trkpt><trkpt lat="43.93471651729961" lon="7.1284468517068715"><ele>224.0</ele><time>2026-04-21T07:39:44.001Z</time></trkpt><trkpt lat="43.93462585425434" lon="7.128621325630549"><ele>224.0</ele><time>2026-04-21T07:39:45.001Z</time></trkpt><trkpt lat="43.93451905693069" lon="7.128789346876145"><ele>224.0</ele><time>2026-04-21T07:39:46.001Z</time></trkpt><trkpt lat="43.934397234632506" lon="7.128960132237398"><ele>224.0</ele><time>2026-04-21T07:39:47.001Z</time></trkpt><trkpt lat="43.934253560207274" lon="7.129115874103781"><ele>229.66666666666669</ele><time>2026-04-21T07:39:48.001Z</time></trkpt><trkpt lat="43.93412175760628" lon="7.129313493965362"><ele>235.33333333333331</ele><time>2026-04-21T07:39:49.001Z</time></trkpt><trkpt lat="43.93397102168152" lon="7.129491770695938"><ele>241.0</ele><time>2026-04-21T07:39:50.001Z</time></trkpt><trkpt lat="43.933815470408355" lon="7.129679713137985"><ele>241.0</ele><time>2026-04-21T07:39:51.001Z</time></trkpt><trkpt lat="43.93366495718021" lon="7.129877184051644"><ele>241.0</ele><time>2026-04-21T07:39:52.001Z</time></trkpt><trkpt lat="43.93352405189206" lon="7.13007019853151"><ele>241.0</ele><time>2026-04-21T07:39:53.001Z</time></trkpt><trkpt lat="43.93337413573154" lon="7.130260333243232"><ele>241.66666666666666</ele><time>2026-04-21T07:39:54.001Z</time></trkpt><trkpt lat="43.93319836224724" lon="7.130412662035314"><ele>242.33333333333331</ele><time>2026-04-21T07:39:55.001Z</time></trkpt><trkpt lat="43.9330465086627" lon="7.1306138531176515"><ele>243.0</ele><time>2026-04-21T07:39:56.001Z</time></trkpt><trkpt lat="43.93289063435415" lon="7.13080792149246"><ele>242.0</ele><time>2026-04-21T07:39:57.001Z</time></trkpt><trkpt lat="43.93273690697738" lon="7.131013696288003"><ele>241.0</ele><time>2026-04-21T07:39:58.001Z</time></trkpt><trkpt lat="43.932586844788894" lon="7.131213508784738"><ele>240.0</ele><time>2026-04-21T07:39:59.001Z</time></trkpt><trkpt lat="43.93244403222158" lon="7.131398333313468"><ele>235.0</ele><time>2026-04-21T07:40:00.001Z</time></trkpt><trkpt lat="43.93230894094439" lon="7.131569604174936"><ele>230.0</ele><time>2026-04-21T07:40:01.001Z</time></trkpt><trkpt lat="43.9321930554489" lon="7.1317175579065575"><ele>225.0</ele><time>2026-04-21T07:40:02.001Z</time></trkpt><trkpt lat="43.932079826776246" lon="7.131845565171387"><ele>225.0</ele><time>2026-04-21T07:40:03.001Z</time></trkpt><trkpt lat="43.93195433291926" lon="7.131953988779371"><ele>225.0</ele><time>2026-04-21T07:40:04.001Z</time></trkpt><trkpt lat="43.931818219722636" lon="7.13204128159603"><ele>225.0</ele><time>2026-04-21T07:40:05.001Z</time></trkpt><trkpt lat="43.93168645900037" lon="7.132107180281281"><ele>225.0</ele><time>2026-04-21T07:40:06.001Z</time></trkpt><trkpt lat="43.93156341055875" lon="7.1322308386837285"><ele>224.66666666666669</ele><time>2026-04-21T07:40:07.001Z</time></trkpt><trkpt lat="43.93146128310132" lon="7.132401408007431"><ele>224.33333333333334</ele><time>2026-04-21T07:40:08.001Z</time></trkpt><trkpt lat="43.93139073773142" lon="7.13260934921647"><ele>224.0</ele><time>2026-04-21T07:40:09.001Z</time></trkpt><trkpt lat="43.931357148511026" lon="7.132846291973228"><ele>224.0</ele><time>2026-04-21T07:40:10.001Z</time></trkpt><trkpt lat="43.93135199494466" lon="7.13309656761951"><ele>224.0</ele><time>2026-04-21T07:40:11.001Z</time></trkpt><trkpt lat="43.931326924101654" lon="7.133353079927102"><ele>224.0</ele><time>2026-04-21T07:40:12.001Z</time></trkpt><trkpt lat="43.93130258098092" lon="7.133607485677754"><ele>223.0</ele><time>2026-04-21T07:40:13.001Z</time></trkpt><trkpt lat="43.931279697106866" lon="7.133871640135179"><ele>222.0</ele><time>2026-04-21T07:40:14.001Z</time></trkpt><trkpt lat="43.93125481626053" lon="7.134123309874559"><ele>221.0</ele><time>2026-04-21T07:40:15.001Z</time></trkpt><trkpt lat="43.9312321830109" lon="7.134353978507851"><ele>220.25</ele><time>2026-04-21T07:40:16.001Z</time></trkpt><trkpt lat="43.93120928166453" lon="7.134583484697607"><ele>219.5</ele><time>2026-04-21T07:40:17.001Z</time></trkpt><trkpt lat="43.93117139548755" lon="7.134772389905971"><ele>218.75</ele><time>2026-04-21T07:40:18.001Z</time></trkpt><trkpt lat="43.93117194165733" lon="7.134949163884884"><ele>218.0</ele><time>2026-04-21T07:40:19.001Z</time></trkpt><trkpt lat="43.93116490668518" lon="7.135149640169087"><ele>217.5</ele><time>2026-04-21T07:40:20.001Z</time></trkpt><trkpt lat="43.931179805501955" lon="7.135337842366845"><ele>217.0</ele><time>2026-04-21T07:40:21.001Z</time></trkpt><trkpt lat="43.93121910571266" lon="7.135534466195992"><ele>216.5</ele><time>2026-04-21T07:40:22.001Z</time></trkpt><trkpt lat="43.93128092380296" lon="7.1357399465100775"><ele>216.0</ele><time>2026-04-21T07:40:23.001Z</time></trkpt><trkpt lat="43.93136184393041" lon="7.135950178462192"><ele>215.0</ele><time>2026-04-21T07:40:24.001Z</time></trkpt><trkpt lat="43.93145140164596" lon="7.1361694229192265"><ele>214.0</ele><time>2026-04-21T07:40:25.001Z</time></trkpt><trkpt lat="43.93153973016323" lon="7.1363809953264"><ele>213.0</ele><time>2026-04-21T07:40:26.001Z</time></trkpt><trkpt lat="43.931624081482965" lon="7.136585371429847"><ele>213.5</ele><time>2026-04-21T07:40:27.001Z</time></trkpt><trkpt lat="43.931709241481016" lon="7.136762180897276"><ele>214.0</ele><time>2026-04-21T07:40:28.001Z</time></trkpt><trkpt lat="43.931798329075455" lon="7.136918772651866"><ele>214.5</ele><time>2026-04-21T07:40:29.001Z</time></trkpt><trkpt lat="43.93190337731675" lon="7.137053110631409"><ele>215.0</ele><time>2026-04-21T07:40:30.001Z</time></trkpt><trkpt lat="43.93203854266746" lon="7.137167421143959"><ele>215.0</ele><time>2026-04-21T07:40:31.001Z</time></trkpt><trkpt lat="43.93219266608493" lon="7.137272860612822"><ele>215.0</ele><time>2026-04-21T07:40:32.001Z</time></trkpt><trkpt lat="43.93234670349571" lon="7.13738918661065"><ele>215.0</ele><time>2026-04-21T07:40:33.001Z</time></trkpt><trkpt lat="43.932487700864215" lon="7.1375114399813535"><ele>213.66666666666669</ele><time>2026-04-21T07:40:34.001Z</time></trkpt><trkpt lat="43.932616639718475" lon="7.137647264633959"><ele>212.33333333333331</ele><time>2026-04-21T07:40:35.001Z</time></trkpt><trkpt lat="43.93273917757925" lon="7.137803432716874"><ele>211.0</ele><time>2026-04-21T07:40:36.001Z</time></trkpt><trkpt lat="43.9328528100731" lon="7.1379803855287225"><ele>211.0</ele><time>2026-04-21T07:40:37.001Z</time></trkpt><trkpt lat="43.932950264424164" lon="7.138155519090743"><ele>211.0</ele><time>2026-04-21T07:40:38.001Z</time></trkpt><trkpt lat="43.93303679847207" lon="7.138318220948942"><ele>211.0</ele><time>2026-04-21T07:40:39.001Z</time></trkpt><trkpt lat="43.93313057184475" lon="7.138513414297135"><ele>213.66666666666666</ele><time>2026-04-21T07:40:40.001Z</time></trkpt><trkpt lat="43.9332158717941" lon="7.138717349151353"><ele>216.33333333333331</ele><time>2026-04-21T07:40:41.001Z</time></trkpt><trkpt lat="43.933286154217555" lon="7.138909527713794"><ele>219.0</ele><time>2026-04-21T07:40:42.001Z</time></trkpt><trkpt lat="43.93333639727432" lon="7.1390783888116"><ele>221.75</ele><time>2026-04-21T07:40:43.001Z</time></trkpt><trkpt lat="43.93335899442175" lon="7.139262742297423"><ele>224.5</ele><time>2026-04-21T07:40:44.001Z</time></trkpt><trkpt lat="43.93336445928838" lon="7.139457367888049"><ele>227.25</ele><time>2026-04-21T07:40:45.001Z</time></trkpt><trkpt lat="43.93334548092732" lon="7.139647503711488"><ele>230.0</ele><time>2026-04-21T07:40:46Z</time></trkpt><trkpt lat="43.93329885174887" lon="7.139846080419649"><ele>229.33333333333334</ele><time>2026-04-21T07:40:47Z</time></trkpt><trkpt lat="43.93324012544956" lon="7.1400542683208466"><ele>228.66666666666669</ele><time>2026-04-21T07:40:48Z</time></trkpt><trkpt lat="43.933159566017814" lon="7.1402574422599665"><ele>228.0</ele><time>2026-04-21T07:40:49Z</time></trkpt><trkpt lat="43.933100363574816" lon="7.140479224806142"><ele>228.0</ele><time>2026-04-21T07:40:50Z</time></trkpt><trkpt lat="43.9330590415973" lon="7.140712832619363"><ele>228.0</ele><time>2026-04-21T07:40:51Z</time></trkpt><trkpt lat="43.93298753044594" lon="7.14092865675554"><ele>228.0</ele><time>2026-04-21T07:40:52Z</time></trkpt><trkpt lat="43.93294691841798" lon="7.141159293880939"><ele>225.0</ele><time>2026-04-21T07:40:53Z</time></trkpt><trkpt lat="43.932885425765214" lon="7.141379039736697"><ele>222.0</ele><time>2026-04-21T07:40:54Z</time></trkpt><trkpt lat="43.932827846919466" lon="7.141601839484047"><ele>219.0</ele><time>2026-04-21T07:40:55Z</time></trkpt><trkpt lat="43.93277940823936" lon="7.141801341783264"><ele>217.25</ele><time>2026-04-21T07:40:56Z</time></trkpt><trkpt lat="43.93273289211573" lon="7.141985427690093"><ele>215.5</ele><time>2026-04-21T07:40:57Z</time></trkpt><trkpt lat="43.93268069480641" lon="7.14215686034255"><ele>213.75</ele><time>2026-04-21T07:40:58Z</time></trkpt><trkpt lat="43.932620302166434" lon="7.142332254479242"><ele>212.0</ele><time>2026-04-21T07:40:59Z</time></trkpt><trkpt lat="43.93254747480697" lon="7.142505897423624"><ele>217.33333333333334</ele><time>2026-04-21T07:41:00Z</time></trkpt><trkpt lat="43.93246165872561" lon="7.142674014664825"><ele>222.66666666666669</ele><time>2026-04-21T07:41:01Z</time></trkpt><trkpt lat="43.932358379365546" lon="7.142838771938144"><ele>228.0</ele><time>2026-04-21T07:41:02Z</time></trkpt><trkpt lat="43.932242571215895" lon="7.143002780923715"><ele>228.0</ele><time>2026-04-21T07:41:03Z</time></trkpt><trkpt lat="43.93212959374944" lon="7.143148594762588"><ele>228.0</ele><time>2026-04-21T07:41:04Z</time></trkpt><trkpt lat="43.93200160303458" lon="7.1432769450996725"><ele>228.0</ele><time>2026-04-21T07:41:05Z</time></trkpt><trkpt lat="43.93185507237115" lon="7.143388737884431"><ele>230.66666666666669</ele><time>2026-04-21T07:41:06Z</time></trkpt><trkpt lat="43.9317193683967" lon="7.143510149691305"><ele>233.33333333333334</ele><time>2026-04-21T07:41:07Z</time></trkpt><trkpt lat="43.9315838943889" lon="7.143665542639668"><ele>236.0</ele><time>2026-04-21T07:41:08Z</time></trkpt><trkpt lat="43.931454443161485" lon="7.14382648439775"><ele>236.0</ele><time>2026-04-21T07:41:09Z</time></trkpt><trkpt lat="43.931341801642006" lon="7.143983438337697"><ele>236.0</ele><time>2026-04-21T07:41:10Z</time></trkpt><trkpt lat="43.931220789496805" lon="7.144130506100194"><ele>236.0</ele><time>2026-04-21T07:41:11Z</time></trkpt><trkpt lat="43.93112411928406" lon="7.144324834609025"><ele>228.33333333333334</ele><time>2026-04-21T07:41:12Z</time></trkpt><trkpt lat="43.9310582949642" lon="7.144561427676737"><ele>220.66666666666669</ele><time>2026-04-21T07:41:13Z</time></trkpt><trkpt lat="43.93101454355377" lon="7.14478473801358"><ele>213.0</ele><time>2026-04-21T07:41:14Z</time></trkpt><trkpt lat="43.930962820410215" lon="7.14497376478636"><ele>212.0</ele><time>2026-04-21T07:41:15Z</time></trkpt><trkpt lat="43.93090577936628" lon="7.145152032511325"><ele>211.0</ele><time>2026-04-21T07:41:16Z</time></trkpt><trkpt lat="43.93081598796175" lon="7.145330480974246"><ele>210.0</ele><time>2026-04-21T07:41:17Z</time></trkpt><trkpt lat="43.930697923336176" lon="7.145498107280655"><ele>210.33333333333331</ele><time>2026-04-21T07:41:18Z</time></trkpt><trkpt lat="43.93056831934915" lon="7.145666673683218"><ele>210.66666666666666</ele><time>2026-04-21T07:41:19Z</time></trkpt><trkpt lat="43.930427235918074" lon="7.145837453288423"><ele>211.0</ele><time>2026-04-21T07:41:20Z</time></trkpt><trkpt lat="43.930283623546835" lon="7.146008144390839"><ele>211.0</ele><time>2026-04-21T07:41:21Z</time></trkpt><trkpt lat="43.93014862550217" lon="7.14617662507723"><ele>211.0</ele><time>2026-04-21T07:41:22Z</time></trkpt><trkpt lat="43.93002608431074" lon="7.146355488613466"><ele>211.0</ele><time>2026-04-21T07:41:23Z</time></trkpt><trkpt lat="43.929907210525954" lon="7.146546075236116"><ele>213.66666666666666</ele><time>2026-04-21T07:41:24Z</time></trkpt><trkpt lat="43.92979196630681" lon="7.1467470471252925"><ele>216.33333333333331</ele><time>2026-04-21T07:41:25Z</time></trkpt><trkpt lat="43.92969561620648" lon="7.146938564739282"><ele>219.0</ele><time>2026-04-21T07:41:26Z</time></trkpt><trkpt lat="43.92960093818315" lon="7.147122899920173"><ele>219.0</ele><time>2026-04-21T07:41:27Z</time></trkpt><trkpt lat="43.929500800901806" lon="7.147294565102748"><ele>219.0</ele><time>2026-04-21T07:41:28Z</time></trkpt><trkpt lat="43.92938310495667" lon="7.1474557562520085"><ele>219.0</ele><time>2026-04-21T07:41:29Z</time></trkpt><trkpt lat="43.9292599725222" lon="7.147587359258098"><ele>223.0</ele><time>2026-04-21T07:41:30Z</time></trkpt><trkpt lat="43.929125633465915" lon="7.147694536971347"><ele>227.0</ele><time>2026-04-21T07:41:31Z</time></trkpt><trkpt lat="43.928972888515666" lon="7.147785624160904"><ele>231.0</ele><time>2026-04-21T07:41:32Z</time></trkpt><trkpt lat="43.928811496675685" lon="7.147857596857388"><ele>231.0</ele><time>2026-04-21T07:41:33Z</time></trkpt><trkpt lat="43.92865025601706" lon="7.147923760606593"><ele>231.0</ele><time>2026-04-21T07:41:34Z</time></trkpt><trkpt lat="43.92849076681013" lon="7.147978897646127"><ele>231.0</ele><time>2026-04-21T07:41:35Z</time></trkpt><trkpt lat="43.92833138197711" lon="7.148011015163607"><ele>236.0</ele><time>2026-04-21T07:41:36Z</time></trkpt><trkpt lat="43.92817263089298" lon="7.1480245084414955"><ele>241.0</ele><time>2026-04-21T07:41:37Z</time></trkpt><trkpt lat="43.928006011349645" lon="7.148054844328444"><ele>246.0</ele><time>2026-04-21T07:41:38Z</time></trkpt><trkpt lat="43.92782926907607" lon="7.148099620947433"><ele>246.0</ele><time>2026-04-21T07:41:39Z</time></trkpt><trkpt lat="43.92766186748403" lon="7.148134085095832"><ele>246.0</ele><time>2026-04-21T07:41:40Z</time></trkpt><trkpt lat="43.92749849809866" lon="7.1481319444614515"><ele>246.0</ele><time>2026-04-21T07:41:41Z</time></trkpt><trkpt lat="43.92732675182161" lon="7.148092056454261"><ele>247.0</ele><time>2026-04-21T07:41:42Z</time></trkpt><trkpt lat="43.927156303334314" lon="7.14803634195124"><ele>248.0</ele><time>2026-04-21T07:41:43Z</time></trkpt><trkpt lat="43.926983631701596" lon="7.14800727076251"><ele>249.0</ele><time>2026-04-21T07:41:44Z</time></trkpt><trkpt lat="43.92680496543533" lon="7.148016542715062"><ele>246.0</ele><time>2026-04-21T07:41:45Z</time></trkpt><trkpt lat="43.92662535775775" lon="7.148046512401973"><ele>243.0</ele><time>2026-04-21T07:41:46Z</time></trkpt><trkpt lat="43.92644720541317" lon="7.148111507868576"><ele>240.0</ele><time>2026-04-21T07:41:47Z</time></trkpt><trkpt lat="43.92626845820261" lon="7.148203918961956"><ele>236.66666666666669</ele><time>2026-04-21T07:41:48Z</time></trkpt><trkpt lat="43.92609444942341" lon="7.1483069445653715"><ele>233.33333333333334</ele><time>2026-04-21T07:41:49Z</time></trkpt><trkpt lat="43.92594381647012" lon="7.1484185010372165"><ele>230.0</ele><time>2026-04-21T07:41:50Z</time></trkpt><trkpt lat="43.92581914853923" lon="7.148545421661964"><ele>230.0</ele><time>2026-04-21T07:41:51Z</time></trkpt><trkpt lat="43.925698993442836" lon="7.148697165812897"><ele>230.0</ele><time>2026-04-21T07:41:52Z</time></trkpt><trkpt lat="43.92558099990709" lon="7.148878762148677"><ele>230.0</ele><time>2026-04-21T07:41:53Z</time></trkpt><trkpt lat="43.92546721434134" lon="7.149079147713373"><ele>223.66666666666669</ele><time>2026-04-21T07:41:54Z</time></trkpt><trkpt lat="43.925367427971416" lon="7.1492663748874525"><ele>217.33333333333331</ele><time>2026-04-21T07:41:55Z</time></trkpt><trkpt lat="43.92526280546868" lon="7.149464057187758"><ele>211.0</ele><time>2026-04-21T07:41:56Z</time></trkpt><trkpt lat="43.92516415211722" lon="7.149661489649185"><ele>211.0</ele><time>2026-04-21T07:41:57Z</time></trkpt><trkpt lat="43.9250748611751" lon="7.1498472758613465"><ele>211.0</ele><time>2026-04-21T07:41:58Z</time></trkpt><trkpt lat="43.92498885207202" lon="7.150054801467738"><ele>211.0</ele><time>2026-04-21T07:41:59Z</time></trkpt><trkpt lat="43.924909324419254" lon="7.1502568670133595"><ele>209.0</ele><time>2026-04-21T07:42:00Z</time></trkpt><trkpt lat="43.9248265972991" lon="7.150436513368185"><ele>207.0</ele><time>2026-04-21T07:42:01Z</time></trkpt><trkpt lat="43.92472463978351" lon="7.150616046580022"><ele>205.0</ele><time>2026-04-21T07:42:02Z</time></trkpt><trkpt lat="43.92460807786618" lon="7.150796284752938"><ele>205.0</ele><time>2026-04-21T07:42:03Z</time></trkpt><trkpt lat="43.92448632110798" lon="7.150978154952201"><ele>205.0</ele><time>2026-04-21T07:42:04Z</time></trkpt><trkpt lat="43.924365016687574" lon="7.151158432587844"><ele>205.0</ele><time>2026-04-21T07:42:05Z</time></trkpt><trkpt lat="43.924241918448914" lon="7.151334917652517"><ele>207.66666666666666</ele><time>2026-04-21T07:42:06Z</time></trkpt><trkpt lat="43.92411105239409" lon="7.151510365386089"><ele>210.33333333333331</ele><time>2026-04-21T07:42:07Z</time></trkpt><trkpt lat="43.923975979702206" lon="7.1516782725212895"><ele>213.0</ele><time>2026-04-21T07:42:08Z</time></trkpt><trkpt lat="43.923849569787606" lon="7.151840574461073"><ele>213.0</ele><time>2026-04-21T07:42:09Z</time></trkpt><trkpt lat="43.92374266281683" lon="7.151999756169156"><ele>213.0</ele><time>2026-04-21T07:42:10Z</time></trkpt><trkpt lat="43.923650585278075" lon="7.152178435239522"><ele>213.0</ele><time>2026-04-21T07:42:11Z</time></trkpt><trkpt lat="43.92357456080271" lon="7.152385118507222"><ele>209.0</ele><time>2026-04-21T07:42:12Z</time></trkpt><trkpt lat="43.92351168067986" lon="7.152617888768637"><ele>205.0</ele><time>2026-04-21T07:42:13Z</time></trkpt><trkpt lat="43.9234603641271" lon="7.152845516153122"><ele>201.0</ele><time>2026-04-21T07:42:14Z</time></trkpt><trkpt lat="43.92342413948874" lon="7.153058380346059"><ele>205.25</ele><time>2026-04-21T07:42:15Z</time></trkpt><trkpt lat="43.92339611458155" lon="7.153256662525421"><ele>209.5</ele><time>2026-04-21T07:42:16Z</time></trkpt><trkpt lat="43.92334631133115" lon="7.1534460722483"><ele>213.75</ele><time>2026-04-21T07:42:17Z</time></trkpt><trkpt lat="43.923263576596185" lon="7.1536227097882055"><ele>218.0</ele><time>2026-04-21T07:42:18Z</time></trkpt><trkpt lat="43.923181405241024" lon="7.153793175232147"><ele>218.0</ele><time>2026-04-21T07:42:19Z</time></trkpt><trkpt lat="43.92308733128566" lon="7.153947194856437"><ele>218.0</ele><time>2026-04-21T07:42:20Z</time></trkpt><trkpt lat="43.92298405917628" lon="7.154084450174457"><ele>218.0</ele><time>2026-04-21T07:42:21Z</time></trkpt><trkpt lat="43.9228573838859" lon="7.154221791339186"><ele>218.0</ele><time>2026-04-21T07:42:22Z</time></trkpt><trkpt lat="43.922719485765995" lon="7.154356342529024"><ele>220.66666666666669</ele><time>2026-04-21T07:42:23Z</time></trkpt><trkpt lat="43.9225879753421" lon="7.154476703856854"><ele>223.33333333333331</ele><time>2026-04-21T07:42:24Z</time></trkpt><trkpt lat="43.92245816751299" lon="7.15460453116591"><ele>226.0</ele><time>2026-04-21T07:42:25Z</time></trkpt><trkpt lat="43.922332736599266" lon="7.1547287461629185"><ele>220.0</ele><time>2026-04-21T07:42:26Z</time></trkpt><trkpt lat="43.92223045482408" lon="7.154899192576856"><ele>214.0</ele><time>2026-04-21T07:42:27Z</time></trkpt><trkpt lat="43.92216176396214" lon="7.155114864938523"><ele>208.0</ele><time>2026-04-21T07:42:28Z</time></trkpt><trkpt lat="43.92208323118519" lon="7.155326225900978"><ele>208.0</ele><time>2026-04-21T07:42:29Z</time></trkpt><trkpt lat="43.922006925425315" lon="7.155537567468065"><ele>208.0</ele><time>2026-04-21T07:42:30Z</time></trkpt><trkpt lat="43.92193240396679" lon="7.155736858574927"><ele>208.0</ele><time>2026-04-21T07:42:31Z</time></trkpt><trkpt lat="43.921864858367236" lon="7.155912506868179"><ele>205.75</ele><time>2026-04-21T07:42:32Z</time></trkpt><trkpt lat="43.92181421551191" lon="7.1560838555486965"><ele>203.5</ele><time>2026-04-21T07:42:33Z</time></trkpt><trkpt lat="43.92176928498912" lon="7.15628087832839"><ele>201.25</ele><time>2026-04-21T07:42:34Z</time></trkpt><trkpt lat="43.921731512770705" lon="7.156487972908415"><ele>199.0</ele><time>2026-04-21T07:42:35Z</time></trkpt><trkpt lat="43.92169303798648" lon="7.156677499394185"><ele>204.25</ele><time>2026-04-21T07:42:36Z</time></trkpt><trkpt lat="43.92164471640269" lon="7.156872078484072"><ele>209.5</ele><time>2026-04-21T07:42:37Z</time></trkpt><trkpt lat="43.92158743930673" lon="7.157035779356274"><ele>214.75</ele><time>2026-04-21T07:42:38Z</time></trkpt><trkpt lat="43.92150433282384" lon="7.157200222191556"><ele>220.0</ele><time>2026-04-21T07:42:39Z</time></trkpt><trkpt lat="43.9213981399705" lon="7.157346171681062"><ele>214.33333333333331</ele><time>2026-04-21T07:42:40Z</time></trkpt><trkpt lat="43.9212806895407" lon="7.157498890872555"><ele>208.66666666666669</ele><time>2026-04-21T07:42:41Z</time></trkpt><trkpt lat="43.92115724606949" lon="7.157659501785641"><ele>203.0</ele><time>2026-04-21T07:42:42Z</time></trkpt><trkpt lat="43.921041907124064" lon="7.157813581320322"><ele>203.0</ele><time>2026-04-21T07:42:43Z</time></trkpt><trkpt lat="43.92093304969752" lon="7.157959297432881"><ele>203.0</ele><time>2026-04-21T07:42:44Z</time></trkpt><trkpt lat="43.92083369270565" lon="7.158092502191186"><ele>203.0</ele><time>2026-04-21T07:42:45Z</time></trkpt><trkpt lat="43.92074086137498" lon="7.1582293113976405"><ele>203.0</ele><time>2026-04-21T07:42:46Z</time></trkpt><trkpt lat="43.920659611232644" lon="7.158390355701329"><ele>207.0</ele><time>2026-04-21T07:42:47Z</time></trkpt><trkpt lat="43.920592200830576" lon="7.158579916572461"><ele>211.0</ele><time>2026-04-21T07:42:48Z</time></trkpt><trkpt lat="43.92053302295241" lon="7.158787024310121"><ele>215.0</ele><time>2026-04-21T07:42:49Z</time></trkpt><trkpt lat="43.92048614830392" lon="7.159008799592047"><ele>211.0</ele><time>2026-04-21T07:42:50Z</time></trkpt><trkpt lat="43.9204440454165" lon="7.1592316622980965"><ele>207.0</ele><time>2026-04-21T07:42:51Z</time></trkpt><trkpt lat="43.920400982949516" lon="7.1594396040718395"><ele>203.0</ele><time>2026-04-21T07:42:52Z</time></trkpt><trkpt lat="43.920353728802986" lon="7.159653083658233"><ele>203.0</ele><time>2026-04-21T07:42:53Z</time></trkpt><trkpt lat="43.92028978898277" lon="7.159840599534631"><ele>203.0</ele><time>2026-04-21T07:42:54Z</time></trkpt><trkpt lat="43.92020175011636" lon="7.160023428049845"><ele>203.0</ele><time>2026-04-21T07:42:55Z</time></trkpt><trkpt lat="43.920098705733615" lon="7.1602108458257945"><ele>203.0</ele><time>2026-04-21T07:42:56Z</time></trkpt><trkpt lat="43.91997480781878" lon="7.160386831077095"><ele>203.0</ele><time>2026-04-21T07:42:57Z</time></trkpt><trkpt lat="43.91983757553999" lon="7.160554599762647"><ele>203.0</ele><time>2026-04-21T07:42:58Z</time></trkpt><trkpt lat="43.91969952629204" lon="7.160718331463856"><ele>203.0</ele><time>2026-04-21T07:42:59Z</time></trkpt><trkpt lat="43.91955844664071" lon="7.160894907860318"><ele>203.0</ele><time>2026-04-21T07:43:00Z</time></trkpt><trkpt lat="43.91941379715366" lon="7.161076448137576"><ele>203.0</ele><time>2026-04-21T07:43:01Z</time></trkpt><trkpt lat="43.91927417197186" lon="7.161249674987728"><ele>203.33333333333334</ele><time>2026-04-21T07:43:02Z</time></trkpt><trkpt lat="43.91913695466241" lon="7.161423974194924"><ele>203.66666666666669</ele><time>2026-04-21T07:43:03Z</time></trkpt><trkpt lat="43.91900643479212" lon="7.161592226702353"><ele>204.0</ele><time>2026-04-21T07:43:04Z</time></trkpt><trkpt lat="43.91889211301341" lon="7.161761937462461"><ele>204.0</ele><time>2026-04-21T07:43:05Z</time></trkpt><trkpt lat="43.91879577728659" lon="7.161953644402291"><ele>204.0</ele><time>2026-04-21T07:43:06Z</time></trkpt><trkpt lat="43.918701302698054" lon="7.162178347667326"><ele>204.0</ele><time>2026-04-21T07:43:07Z</time></trkpt><trkpt lat="43.91860770950693" lon="7.162407259214166"><ele>200.66666666666669</ele><time>2026-04-21T07:43:08Z</time></trkpt><trkpt lat="43.918515572654286" lon="7.162638173802162"><ele>197.33333333333334</ele><time>2026-04-21T07:43:09Z</time></trkpt><trkpt lat="43.91842388284012" lon="7.162859025896203"><ele>194.0</ele><time>2026-04-21T07:43:10Z</time></trkpt><trkpt lat="43.918340812826195" lon="7.163064367622807"><ele>199.33333333333334</ele><time>2026-04-21T07:43:11Z</time></trkpt><trkpt lat="43.9182617827258" lon="7.163258355828406"><ele>204.66666666666669</ele><time>2026-04-21T07:43:12Z</time></trkpt><trkpt lat="43.918184728686974" lon="7.163448119000056"><ele>210.0</ele><time>2026-04-21T07:43:13Z</time></trkpt><trkpt lat="43.91811585217716" lon="7.163621620785701"><ele>210.0</ele><time>2026-04-21T07:43:14Z</time></trkpt><trkpt lat="43.91806864886109" lon="7.163788981655786"><ele>210.0</ele><time>2026-04-21T07:43:15Z</time></trkpt><trkpt lat="43.91804922114021" lon="7.163961372722736"><ele>210.0</ele><time>2026-04-21T07:43:16Z</time></trkpt><trkpt lat="43.918028450479035" lon="7.16415101791251"><ele>210.0</ele><time>2026-04-21T07:43:17Z</time></trkpt><trkpt lat="43.91806667223055" lon="7.164352623179132"><ele>208.0</ele><time>2026-04-21T07:43:18Z</time></trkpt><trkpt lat="43.91811172462104" lon="7.164547671751929"><ele>206.0</ele><time>2026-04-21T07:43:19Z</time></trkpt><trkpt lat="43.91818281461621" lon="7.164736653048292"><ele>204.0</ele><time>2026-04-21T07:43:20Z</time></trkpt><trkpt lat="43.91826528904612" lon="7.164917352000438"><ele>204.0</ele><time>2026-04-21T07:43:21Z</time></trkpt><trkpt lat="43.91834195392761" lon="7.165095889958901"><ele>204.0</ele><time>2026-04-21T07:43:22Z</time></trkpt><trkpt lat="43.918400914106165" lon="7.165291179398874"><ele>204.0</ele><time>2026-04-21T07:43:23Z</time></trkpt><trkpt lat="43.91844447812832" lon="7.165503985873504"><ele>200.33333333333331</ele><time>2026-04-21T07:43:24Z</time></trkpt><trkpt lat="43.91847583873192" lon="7.165728345477341"><ele>196.66666666666666</ele><time>2026-04-21T07:43:25Z</time></trkpt><trkpt lat="43.91848714398094" lon="7.165970087661635"><ele>193.0</ele><time>2026-04-21T07:43:26Z</time></trkpt><trkpt lat="43.918473336477" lon="7.166233121302699"><ele>193.0</ele><time>2026-04-21T07:43:27Z</time></trkpt><trkpt lat="43.91845776942772" lon="7.166509051588006"><ele>193.0</ele><time>2026-04-21T07:43:28Z</time></trkpt><trkpt lat="43.91844311137585" lon="7.1667898319885515"><ele>193.0</ele><time>2026-04-21T07:43:29Z</time></trkpt><trkpt lat="43.918426845825365" lon="7.167084092825003"><ele>190.66666666666666</ele><time>2026-04-21T07:43:30Z</time></trkpt><trkpt lat="43.91840953857808" lon="7.167378081676765"><ele>188.33333333333331</ele><time>2026-04-21T07:43:31Z</time></trkpt><trkpt lat="43.91839600511628" lon="7.16765234920989"><ele>186.0</ele><time>2026-04-21T07:43:32Z</time></trkpt><trkpt lat="43.918380024228995" lon="7.167909280451736"><ele>191.0</ele><time>2026-04-21T07:43:33Z</time></trkpt><trkpt lat="43.9183541881229" lon="7.168154780674596"><ele>196.0</ele><time>2026-04-21T07:43:34Z</time></trkpt><trkpt lat="43.91830847404944" lon="7.1683886721216"><ele>201.0</ele><time>2026-04-21T07:43:35Z</time></trkpt><trkpt lat="43.91824408398655" lon="7.168625880372095"><ele>201.0</ele><time>2026-04-21T07:43:36Z</time></trkpt><trkpt lat="43.91816373148887" lon="7.168857408975869"><ele>201.0</ele><time>2026-04-21T07:43:37Z</time></trkpt><trkpt lat="43.918065303115746" lon="7.169083697744238"><ele>201.0</ele><time>2026-04-21T07:43:38Z</time></trkpt><trkpt lat="43.91796061076238" lon="7.169317722603321"><ele>199.0</ele><time>2026-04-21T07:43:39Z</time></trkpt><trkpt lat="43.917862277811096" lon="7.169551899717497"><ele>197.0</ele><time>2026-04-21T07:43:40Z</time></trkpt><trkpt lat="43.917756237237455" lon="7.169800042353187"><ele>195.0</ele><time>2026-04-21T07:43:41Z</time></trkpt><trkpt lat="43.9176465002994" lon="7.170043879746723"><ele>197.0</ele><time>2026-04-21T07:43:42Z</time></trkpt><trkpt lat="43.91753932220896" lon="7.170268575996018"><ele>199.0</ele><time>2026-04-21T07:43:43Z</time></trkpt><trkpt lat="43.91742270828358" lon="7.170478731293408"><ele>201.0</ele><time>2026-04-21T07:43:44Z</time></trkpt><trkpt lat="43.917292399366836" lon="7.17068808398074"><ele>198.0</ele><time>2026-04-21T07:43:45Z</time></trkpt><trkpt lat="43.91714643766386" lon="7.170895436654322"><ele>195.0</ele><time>2026-04-21T07:43:46Z</time></trkpt><trkpt lat="43.91698970477976" lon="7.171099199254543"><ele>192.0</ele><time>2026-04-21T07:43:47Z</time></trkpt><trkpt lat="43.916837435149816" lon="7.171288357971133"><ele>193.66666666666669</ele><time>2026-04-21T07:43:48Z</time></trkpt><trkpt lat="43.91669228601301" lon="7.1714624308558355"><ele>195.33333333333334</ele><time>2026-04-21T07:43:49Z</time></trkpt><trkpt lat="43.916563554031164" lon="7.171623743174308"><ele>197.0</ele><time>2026-04-21T07:43:50Z</time></trkpt><trkpt lat="43.9164448448048" lon="7.171787565286676"><ele>197.0</ele><time>2026-04-21T07:43:51Z</time></trkpt><trkpt lat="43.91632533806508" lon="7.171976504246099"><ele>197.0</ele><time>2026-04-21T07:43:52Z</time></trkpt><trkpt lat="43.916207530683145" lon="7.172176175649143"><ele>197.0</ele><time>2026-04-21T07:43:53Z</time></trkpt><trkpt lat="43.916100332701795" lon="7.172367924455415"><ele>197.33333333333334</ele><time>2026-04-21T07:43:54Z</time></trkpt><trkpt lat="43.91599950604673" lon="7.172555100166341"><ele>197.66666666666669</ele><time>2026-04-21T07:43:55Z</time></trkpt><trkpt lat="43.91589055914479" lon="7.172750075838846"><ele>198.0</ele><time>2026-04-21T07:43:56Z</time></trkpt><trkpt lat="43.91578581469185" lon="7.172938197249201"><ele>198.0</ele><time>2026-04-21T07:43:57Z</time></trkpt><trkpt lat="43.9156815482742" lon="7.173126301981722"><ele>198.0</ele><time>2026-04-21T07:43:58Z</time></trkpt><trkpt lat="43.91558224786246" lon="7.1733026629081"><ele>198.0</ele><time>2026-04-21T07:43:59Z</time></trkpt><trkpt lat="43.915485827661385" lon="7.1734741260948"><ele>195.0</ele><time>2026-04-21T07:44:00Z</time></trkpt><trkpt lat="43.9153905768617" lon="7.173653002351079"><ele>192.0</ele><time>2026-04-21T07:44:01Z</time></trkpt><trkpt lat="43.915297247139186" lon="7.1738280709039675"><ele>189.0</ele><time>2026-04-21T07:44:02Z</time></trkpt><trkpt lat="43.91520994268101" lon="7.173994697061577"><ele>187.33333333333334</ele><time>2026-04-21T07:44:03Z</time></trkpt><trkpt lat="43.915121451300315" lon="7.174172604547035"><ele>185.66666666666669</ele><time>2026-04-21T07:44:04Z</time></trkpt><trkpt lat="43.91503301739882" lon="7.174353195933125"><ele>184.0</ele><time>2026-04-21T07:44:05Z</time></trkpt><trkpt lat="43.91493771661989" lon="7.174537926521922"><ele>184.33333333333334</ele><time>2026-04-21T07:44:06Z</time></trkpt><trkpt lat="43.914829828463866" lon="7.174712200492877"><ele>184.66666666666666</ele><time>2026-04-21T07:44:07Z</time></trkpt><trkpt lat="43.914706719344345" lon="7.1748706827678514"><ele>185.0</ele><time>2026-04-21T07:44:08Z</time></trkpt><trkpt lat="43.914578440368054" lon="7.175002713763962"><ele>185.0</ele><time>2026-04-21T07:44:09Z</time></trkpt><trkpt lat="43.91445225305791" lon="7.175135964876987"><ele>185.0</ele><time>2026-04-21T07:44:10Z</time></trkpt><trkpt lat="43.9143392993118" lon="7.175273594834758"><ele>185.0</ele><time>2026-04-21T07:44:11Z</time></trkpt><trkpt lat="43.91424129960129" lon="7.175433645540281"><ele>193.66666666666666</ele><time>2026-04-21T07:44:12Z</time></trkpt><trkpt lat="43.91415540361701" lon="7.175605057713091"><ele>202.33333333333331</ele><time>2026-04-21T07:44:13Z</time></trkpt><trkpt lat="43.914078476928076" lon="7.175791703341134"><ele>211.0</ele><time>2026-04-21T07:44:14Z</time></trkpt><trkpt lat="43.91401226196403" lon="7.1759864249677605"><ele>211.0</ele><time>2026-04-21T07:44:15Z</time></trkpt><trkpt lat="43.91396764071001" lon="7.176173336834187"><ele>211.0</ele><time>2026-04-21T07:44:16Z</time></trkpt><trkpt lat="43.91392874920786" lon="7.1763728647680916"><ele>211.0</ele><time>2026-04-21T07:44:17Z</time></trkpt><trkpt lat="43.9138948137021" lon="7.176562932891202"><ele>211.0</ele><time>2026-04-21T07:44:18Z</time></trkpt><trkpt lat="43.913865500863665" lon="7.176745712933103"><ele>208.5</ele><time>2026-04-21T07:44:19Z</time></trkpt><trkpt lat="43.913833368322706" lon="7.176924744217791"><ele>206.0</ele><time>2026-04-21T07:44:20Z</time></trkpt><trkpt lat="43.913800293343506" lon="7.177120298418724"><ele>203.5</ele><time>2026-04-21T07:44:21Z</time></trkpt><trkpt lat="43.91375225242621" lon="7.177314869933265"><ele>201.0</ele><time>2026-04-21T07:44:22Z</time></trkpt><trkpt lat="43.9137169962888" lon="7.177494348325484"><ele>201.0</ele><time>2026-04-21T07:44:23Z</time></trkpt><trkpt lat="43.913678553489696" lon="7.177663722169563"><ele>201.0</ele><time>2026-04-21T07:44:24Z</time></trkpt><trkpt lat="43.91360720580073" lon="7.177830671187329"><ele>201.0</ele><time>2026-04-21T07:44:25Z</time></trkpt><trkpt lat="43.91353027991635" lon="7.178003821899442"><ele>201.0</ele><time>2026-04-21T07:44:26Z</time></trkpt><trkpt lat="43.91344846832129" lon="7.178186005476136"><ele>207.0</ele><time>2026-04-21T07:44:27Z</time></trkpt><trkpt lat="43.9133675648683" lon="7.178373066759008"><ele>213.0</ele><time>2026-04-21T07:44:28Z</time></trkpt><trkpt lat="43.9132925168304" lon="7.1785469465823875"><ele>219.0</ele><time>2026-04-21T07:44:29Z</time></trkpt><trkpt lat="43.91321006909398" lon="7.178731604650542"><ele>219.0</ele><time>2026-04-21T07:44:30Z</time></trkpt><trkpt lat="43.91312915062738" lon="7.178914040814393"><ele>219.0</ele><time>2026-04-21T07:44:31Z</time></trkpt><trkpt lat="43.91304734174186" lon="7.179073812105521"><ele>219.0</ele><time>2026-04-21T07:44:32Z</time></trkpt><trkpt lat="43.912982435111914" lon="7.179257653680538"><ele>219.0</ele><time>2026-04-21T07:44:33Z</time></trkpt><trkpt lat="43.91290496163346" lon="7.179436695149957"><ele>216.33333333333331</ele><time>2026-04-21T07:44:34Z</time></trkpt><trkpt lat="43.91281660155975" lon="7.179631339262745"><ele>213.66666666666666</ele><time>2026-04-21T07:44:35Z</time></trkpt><trkpt lat="43.912738778370255" lon="7.179822929972694"><ele>211.0</ele><time>2026-04-21T07:44:36Z</time></trkpt><trkpt lat="43.912648743153866" lon="7.179994415417629"><ele>212.8</ele><time>2026-04-21T07:44:37Z</time></trkpt><trkpt lat="43.912559462692016" lon="7.1801635183913355"><ele>214.60000000000002</ele><time>2026-04-21T07:44:38Z</time></trkpt><trkpt lat="43.91248482283203" lon="7.180304324028561"><ele>216.4</ele><time>2026-04-21T07:44:39Z</time></trkpt><trkpt lat="43.91243637766843" lon="7.1804044549354025"><ele>218.2</ele><time>2026-04-21T07:44:40Z</time></trkpt><trkpt lat="43.91238643891934" lon="7.180477638051841"><ele>220.0</ele><time>2026-04-21T07:44:41Z</time></trkpt><trkpt lat="43.91232862049559" lon="7.180597939980233"><ele>219.99999999999997</ele><time>2026-04-21T07:44:43Z</time></trkpt><trkpt lat="43.912288108988406" lon="7.180672734022801"><ele>220.0</ele><time>2026-04-21T07:44:46Z</time></trkpt><trkpt lat="43.91223109529603" lon="7.180808265476488"><ele>220.0</ele><time>2026-04-21T07:45:10Z</time></trkpt><trkpt lat="43.91218676258149" lon="7.180878410813291"><ele>220.0</ele><time>2026-04-21T07:45:11Z</time></trkpt><trkpt lat="43.91212513664994" lon="7.180991798542275"><ele>219.99999999999997</ele><time>2026-04-21T07:45:13Z</time></trkpt><trkpt lat="43.9120804444528" lon="7.1810944917954025"><ele>220.0</ele><time>2026-04-21T07:45:14Z</time></trkpt><trkpt lat="43.91202650160637" lon="7.181207953406742"><ele>216.0</ele><time>2026-04-21T07:45:15Z</time></trkpt><trkpt lat="43.9119793304109" lon="7.181324989812059"><ele>212.0</ele><time>2026-04-21T07:45:16Z</time></trkpt><trkpt lat="43.91194523524644" lon="7.181434662626924"><ele>208.0</ele><time>2026-04-21T07:45:17Z</time></trkpt><trkpt lat="43.91191855856725" lon="7.181545091030736"><ele>204.0</ele><time>2026-04-21T07:45:18Z</time></trkpt><trkpt lat="43.911896826642206" lon="7.181671502401243"><ele>200.0</ele><time>2026-04-21T07:45:19Z</time></trkpt><trkpt lat="43.91187389675461" lon="7.181793147333014"><ele>198.00000000000003</ele><time>2026-04-21T07:45:20Z</time></trkpt><trkpt lat="43.91186210478935" lon="7.181912905650319"><ele>196.0</ele><time>2026-04-21T07:45:21Z</time></trkpt><trkpt lat="43.91185664608992" lon="7.182031783701906"><ele>194.0</ele><time>2026-04-21T07:45:22Z</time></trkpt><trkpt lat="43.911855603372544" lon="7.182146802538191"><ele>192.0</ele><time>2026-04-21T07:45:23Z</time></trkpt><trkpt lat="43.91184096926587" lon="7.1822673339538134"><ele>190.0</ele><time>2026-04-21T07:45:24Z</time></trkpt><trkpt lat="43.911819323654434" lon="7.182402454516231"><ele>188.0</ele><time>2026-04-21T07:45:25Z</time></trkpt><trkpt lat="43.91179703129398" lon="7.182556268968415"><ele>186.5</ele><time>2026-04-21T07:45:26Z</time></trkpt><trkpt lat="43.91176641857884" lon="7.182718908332436"><ele>185.0</ele><time>2026-04-21T07:45:27Z</time></trkpt><trkpt lat="43.91173384906627" lon="7.1828847012254124"><ele>183.5</ele><time>2026-04-21T07:45:28Z</time></trkpt><trkpt lat="43.911699910982094" lon="7.183036796908913"><ele>182.0</ele><time>2026-04-21T07:45:29Z</time></trkpt><trkpt lat="43.911666879958865" lon="7.183179095270307"><ele>186.0</ele><time>2026-04-21T07:45:30Z</time></trkpt><trkpt lat="43.91163610072824" lon="7.183319255525302"><ele>190.0</ele><time>2026-04-21T07:45:31Z</time></trkpt><trkpt lat="43.911601357059574" lon="7.1834582761388"><ele>194.0</ele><time>2026-04-21T07:45:32Z</time></trkpt><trkpt lat="43.91156079693709" lon="7.183602699037716"><ele>198.0</ele><time>2026-04-21T07:45:33Z</time></trkpt><trkpt lat="43.91151333300218" lon="7.183753916514075"><ele>202.0</ele><time>2026-04-21T07:45:34Z</time></trkpt><trkpt lat="43.91146267154226" lon="7.183913717979376"><ele>200.25</ele><time>2026-04-21T07:45:35Z</time></trkpt><trkpt lat="43.91141474093731" lon="7.184073718913339"><ele>198.5</ele><time>2026-04-21T07:45:36Z</time></trkpt><trkpt lat="43.91136091359098" lon="7.184218269183649"><ele>196.75</ele><time>2026-04-21T07:45:37Z</time></trkpt><trkpt lat="43.911309780202245" lon="7.184354398357058"><ele>195.0</ele><time>2026-04-21T07:45:38Z</time></trkpt><trkpt lat="43.91124751272321" lon="7.184485906780388"><ele>195.0</ele><time>2026-04-21T07:45:39Z</time></trkpt><trkpt lat="43.91118002564189" lon="7.184614421518731"><ele>195.0</ele><time>2026-04-21T07:45:40Z</time></trkpt><trkpt lat="43.911109646647" lon="7.184738271830477"><ele>195.0</ele><time>2026-04-21T07:45:41Z</time></trkpt><trkpt lat="43.911038146895635" lon="7.184854985620212"><ele>195.0</ele><time>2026-04-21T07:45:42Z</time></trkpt><trkpt lat="43.91095440022438" lon="7.184976337794618"><ele>196.2</ele><time>2026-04-21T07:45:43Z</time></trkpt><trkpt lat="43.91086835045311" lon="7.185096121808105"><ele>197.4</ele><time>2026-04-21T07:45:44Z</time></trkpt><trkpt lat="43.91079341844075" lon="7.1852005427614944"><ele>198.60000000000002</ele><time>2026-04-21T07:45:45Z</time></trkpt><trkpt lat="43.910721978521885" lon="7.1852928321276375"><ele>199.8</ele><time>2026-04-21T07:45:46Z</time></trkpt><trkpt lat="43.91065872501886" lon="7.185383738400196"><ele>201.0</ele><time>2026-04-21T07:45:47Z</time></trkpt><trkpt lat="43.91059462239745" lon="7.185469850182675"><ele>201.0</ele><time>2026-04-21T07:45:48Z</time></trkpt><trkpt lat="43.910534725357095" lon="7.185552242788468"><ele>201.0</ele><time>2026-04-21T07:45:49Z</time></trkpt><trkpt lat="43.91047683679244" lon="7.185627600189427"><ele>201.0</ele><time>2026-04-21T07:45:50Z</time></trkpt><trkpt lat="43.91041570639702" lon="7.18571085214263"><ele>201.0</ele><time>2026-04-21T07:45:51Z</time></trkpt><trkpt lat="43.91034849838764" lon="7.185793499611152"><ele>201.0</ele><time>2026-04-21T07:45:52Z</time></trkpt><trkpt lat="43.91027166402395" lon="7.185863403364206"><ele>201.0</ele><time>2026-04-21T07:45:53Z</time></trkpt><trkpt lat="43.91019876009857" lon="7.185947084343823"><ele>197.25</ele><time>2026-04-21T07:45:54Z</time></trkpt><trkpt lat="43.91008108312259" lon="7.185948393368917"><ele>193.5</ele><time>2026-04-21T07:45:55Z</time></trkpt><trkpt lat="43.90995689840364" lon="7.185965082376483"><ele>189.75</ele><time>2026-04-21T07:45:56Z</time></trkpt><trkpt lat="43.90981861390655" lon="7.185985156453407"><ele>186.0</ele><time>2026-04-21T07:45:57Z</time></trkpt><trkpt lat="43.90966815035602" lon="7.186015257371573"><ele>200.66666666666669</ele><time>2026-04-21T07:45:58Z</time></trkpt><trkpt lat="43.909505743204036" lon="7.186052273487075"><ele>215.33333333333334</ele><time>2026-04-21T07:45:59Z</time></trkpt><trkpt lat="43.90934044788649" lon="7.1860930079207925"><ele>230.0</ele><time>2026-04-21T07:46:00Z</time></trkpt><trkpt lat="43.909160618961074" lon="7.186137808864899"><ele>264.33333333333337</ele><time>2026-04-21T07:46:01.042Z</time></trkpt><trkpt lat="43.90898531660689" lon="7.186194552793467"><ele>298.6666666666667</ele><time>2026-04-21T07:46:02.044Z</time></trkpt><trkpt lat="43.90880413748168" lon="7.186248952903225"><ele>333.0</ele><time>2026-04-21T07:46:03.041Z</time></trkpt><trkpt lat="43.908617664126616" lon="7.186292551811903"><ele>436.0</ele><time>2026-04-21T07:46:04.04Z</time></trkpt><trkpt lat="43.905992076988625" lon="7.18681630151505"><ele>386.0</ele><time>2026-04-21T07:46:08.451Z</time></trkpt><trkpt lat="43.9053667884141" lon="7.186944712114341"><ele>322.0</ele><time>2026-04-21T07:46:09.455Z</time></trkpt><trkpt lat="43.90474411000744" lon="7.187077163499496"><ele>277.0</ele><time>2026-04-21T07:46:10.455Z</time></trkpt><trkpt lat="43.90412092236241" lon="7.187203413946784"><ele>277.0</ele><time>2026-04-21T07:46:11.455Z</time></trkpt><trkpt lat="43.903500468264355" lon="7.187332886506397"><ele>260.0</ele><time>2026-04-21T07:46:12.451Z</time></trkpt><trkpt lat="43.90287526977857" lon="7.187467209293407"><ele>264.0</ele><time>2026-04-21T07:46:13.455Z</time></trkpt><trkpt lat="43.90225474167287" lon="7.1876159464517695"><ele>267.0</ele><time>2026-04-21T07:46:14.455Z</time></trkpt><trkpt lat="43.90164464617537" lon="7.187829812725373"><ele>169.0</ele><time>2026-04-21T07:46:15.454Z</time></trkpt><trkpt lat="43.90063930681111" lon="7.188309427432323"><ele>169.0</ele><time>2026-04-21T07:46:36Z</time></trkpt><trkpt lat="43.90029685923919" lon="7.188432908982185"><ele>169.0</ele><time>2026-04-21T07:46:37Z</time></trkpt><trkpt lat="43.90009643809651" lon="7.188531325820101"><ele>172.0</ele><time>2026-04-21T07:46:38Z</time></trkpt><trkpt lat="43.8998377778777" lon="7.18865119842188"><ele>175.0</ele><time>2026-04-21T07:46:39Z</time></trkpt><trkpt lat="43.89959666358254" lon="7.188763571051855"><ele>175.0</ele><time>2026-04-21T07:46:40Z</time></trkpt><trkpt lat="43.899374295536035" lon="7.188870813541121"><ele>175.0</ele><time>2026-04-21T07:46:41Z</time></trkpt><trkpt lat="43.89913962160237" lon="7.1889860924779185"><ele>179.5</ele><time>2026-04-21T07:46:42Z</time></trkpt><trkpt lat="43.89891096693199" lon="7.189088937111806"><ele>184.0</ele><time>2026-04-21T07:46:43Z</time></trkpt><trkpt lat="43.898685304087024" lon="7.189181047871768"><ele>184.0</ele><time>2026-04-21T07:46:44Z</time></trkpt><trkpt lat="43.89845590361492" lon="7.189238167056366"><ele>184.0</ele><time>2026-04-21T07:46:45Z</time></trkpt><trkpt lat="43.89822805851289" lon="7.189258639948641"><ele>175.0</ele><time>2026-04-21T07:46:46Z</time></trkpt><trkpt lat="43.897993031193785" lon="7.189251005233295"><ele>166.0</ele><time>2026-04-21T07:46:47Z</time></trkpt><trkpt lat="43.897757703676945" lon="7.189219841526976"><ele>198.0</ele><time>2026-04-21T07:46:48Z</time></trkpt><trkpt lat="43.89751930862149" lon="7.1891717428041355"><ele>230.0</ele><time>2026-04-21T07:46:49Z</time></trkpt><trkpt lat="43.89727365099444" lon="7.18912060041925"><ele>230.0</ele><time>2026-04-21T07:46:50Z</time></trkpt><trkpt lat="43.89702643152649" lon="7.189084699092355"><ele>230.0</ele><time>2026-04-21T07:46:51Z</time></trkpt><trkpt lat="43.896773779573046" lon="7.1890621182147365"><ele>255.0</ele><time>2026-04-21T07:46:52Z</time></trkpt><trkpt lat="43.89652541573353" lon="7.189022454973927"><ele>280.0</ele><time>2026-04-21T07:46:53Z</time></trkpt><trkpt lat="43.89626335850397" lon="7.18899138602071"><ele>297.5</ele><time>2026-04-21T07:46:54.041Z</time></trkpt><trkpt lat="43.89600947128549" lon="7.188966645104436"><ele>315.0</ele><time>2026-04-21T07:46:55.041Z</time></trkpt><trkpt lat="43.895756800312846" lon="7.188942022699228"><ele>229.0</ele><time>2026-04-21T07:46:56.04Z</time></trkpt><trkpt lat="43.89462865625202" lon="7.188739636829171"><ele>229.0</ele><time>2026-04-21T07:47:01Z</time></trkpt><trkpt lat="43.89439460385405" lon="7.18870204040044"><ele>229.0</ele><time>2026-04-21T07:47:02Z</time></trkpt><trkpt lat="43.894152223466094" lon="7.18864243172295"><ele>206.33333333333331</ele><time>2026-04-21T07:47:03Z</time></trkpt><trkpt lat="43.89393269152383" lon="7.188592686660242"><ele>183.66666666666666</ele><time>2026-04-21T07:47:04Z</time></trkpt><trkpt lat="43.89371397332031" lon="7.188554485561304"><ele>161.0</ele><time>2026-04-21T07:47:05Z</time></trkpt><trkpt lat="43.89350420601357" lon="7.188509219822586"><ele>161.0</ele><time>2026-04-21T07:47:06Z</time></trkpt><trkpt lat="43.89331838882214" lon="7.188473566321081"><ele>161.0</ele><time>2026-04-21T07:47:07Z</time></trkpt><trkpt lat="43.893140530879435" lon="7.188442414220029"><ele>161.0</ele><time>2026-04-21T07:47:08Z</time></trkpt><trkpt lat="43.89296817702108" lon="7.188442175066452"><ele>161.0</ele><time>2026-04-21T07:47:09Z</time></trkpt><trkpt lat="43.89279469394586" lon="7.188477653015339"><ele>161.0</ele><time>2026-04-21T07:47:10Z</time></trkpt><trkpt lat="43.89262425465441" lon="7.188544438338492"><ele>161.0</ele><time>2026-04-21T07:47:11Z</time></trkpt><trkpt lat="43.89244683395872" lon="7.188634740743856"><ele>160.66666666666666</ele><time>2026-04-21T07:47:12Z</time></trkpt><trkpt lat="43.89226570509764" lon="7.188744695821689"><ele>160.33333333333334</ele><time>2026-04-21T07:47:13Z</time></trkpt><trkpt lat="43.89208137989312" lon="7.18886407241737"><ele>160.0</ele><time>2026-04-21T07:47:14Z</time></trkpt><trkpt lat="43.891891512490254" lon="7.188983092864543"><ele>160.0</ele><time>2026-04-21T07:47:15Z</time></trkpt><trkpt lat="43.89170719900602" lon="7.1890872099211425"><ele>160.0</ele><time>2026-04-21T07:47:16Z</time></trkpt><trkpt lat="43.891526151985786" lon="7.189156375088471"><ele>160.0</ele><time>2026-04-21T07:47:17Z</time></trkpt><trkpt lat="43.89133640187378" lon="7.189198066747936"><ele>158.66666666666669</ele><time>2026-04-21T07:47:18Z</time></trkpt><trkpt lat="43.89115730092587" lon="7.189191895120433"><ele>157.33333333333334</ele><time>2026-04-21T07:47:19Z</time></trkpt><trkpt lat="43.89097281697822" lon="7.189143692097687"><ele>156.0</ele><time>2026-04-21T07:47:20Z</time></trkpt><trkpt lat="43.890784596072024" lon="7.189055027973881"><ele>157.66666666666666</ele><time>2026-04-21T07:47:21Z</time></trkpt><trkpt lat="43.89060548240902" lon="7.1889341052025975"><ele>159.33333333333331</ele><time>2026-04-21T07:47:22Z</time></trkpt><trkpt lat="43.890416620330804" lon="7.188805003926385"><ele>161.0</ele><time>2026-04-21T07:47:23Z</time></trkpt><trkpt lat="43.89022047799773" lon="7.188681220539644"><ele>169.5</ele><time>2026-04-21T07:47:24Z</time></trkpt><trkpt lat="43.89001212924506" lon="7.188566906143364"><ele>178.0</ele><time>2026-04-21T07:47:25Z</time></trkpt><trkpt lat="43.889797791239786" lon="7.188458412756711"><ele>178.0</ele><time>2026-04-21T07:47:26Z</time></trkpt><trkpt lat="43.88959271058462" lon="7.1883667315057584"><ele>178.0</ele><time>2026-04-21T07:47:27Z</time></trkpt><trkpt lat="43.889390613645475" lon="7.188284747581864"><ele>178.0</ele><time>2026-04-21T07:47:28Z</time></trkpt><trkpt lat="43.889193479426744" lon="7.1882128330982535"><ele>180.0</ele><time>2026-04-21T07:47:29Z</time></trkpt><trkpt lat="43.889018453082066" lon="7.1881731338376555"><ele>182.0</ele><time>2026-04-21T07:47:30Z</time></trkpt><trkpt lat="43.88885912993208" lon="7.188175629311903"><ele>184.0</ele><time>2026-04-21T07:47:31Z</time></trkpt><trkpt lat="43.88868148771571" lon="7.188218023469067"><ele>177.0</ele><time>2026-04-21T07:47:32Z</time></trkpt><trkpt lat="43.88849849218502" lon="7.188286044265375"><ele>170.0</ele><time>2026-04-21T07:47:33Z</time></trkpt><trkpt lat="43.88831293320928" lon="7.1883826607216434"><ele>163.0</ele><time>2026-04-21T07:47:34Z</time></trkpt><trkpt lat="43.8881255917259" lon="7.188496451667622"><ele>164.0</ele><time>2026-04-21T07:47:35Z</time></trkpt><trkpt lat="43.887935236022926" lon="7.188620120705448"><ele>165.0</ele><time>2026-04-21T07:47:36Z</time></trkpt><trkpt lat="43.88774042785891" lon="7.188751728316181"><ele>166.0</ele><time>2026-04-21T07:47:37Z</time></trkpt><trkpt lat="43.88754290641162" lon="7.188887395354735"><ele>163.5</ele><time>2026-04-21T07:47:38Z</time></trkpt><trkpt lat="43.88734424130678" lon="7.1890277708697"><ele>161.0</ele><time>2026-04-21T07:47:39Z</time></trkpt><trkpt lat="43.88714369116019" lon="7.1891785048929515"><ele>161.0</ele><time>2026-04-21T07:47:40Z</time></trkpt><trkpt lat="43.88695332229796" lon="7.189328709218958"><ele>161.0</ele><time>2026-04-21T07:47:41Z</time></trkpt><trkpt lat="43.886755179582785" lon="7.189476746999476"><ele>161.0</ele><time>2026-04-21T07:47:42Z</time></trkpt><trkpt lat="43.886550915327184" lon="7.189612412230754"><ele>157.5</ele><time>2026-04-21T07:47:43Z</time></trkpt><trkpt lat="43.88634188264786" lon="7.189738756048782"><ele>154.0</ele><time>2026-04-21T07:47:44Z</time></trkpt><trkpt lat="43.886127910414636" lon="7.189856234362623"><ele>162.0</ele><time>2026-04-21T07:47:45Z</time></trkpt><trkpt lat="43.885909544715176" lon="7.1899630941256065"><ele>170.0</ele><time>2026-04-21T07:47:46Z</time></trkpt><trkpt lat="43.88568653562272" lon="7.190064300926991"><ele>170.0</ele><time>2026-04-21T07:47:47Z</time></trkpt><trkpt lat="43.88545973279966" lon="7.1901614190546885"><ele>170.0</ele><time>2026-04-21T07:47:48Z</time></trkpt><trkpt lat="43.885230029017265" lon="7.190255496981959"><ele>162.0</ele><time>2026-04-21T07:47:49Z</time></trkpt><trkpt lat="43.88500054092546" lon="7.190348325488795"><ele>154.0</ele><time>2026-04-21T07:47:50Z</time></trkpt><trkpt lat="43.884786064509" lon="7.190435740430894"><ele>154.0</ele><time>2026-04-21T07:47:51Z</time></trkpt><trkpt lat="43.884582914761474" lon="7.1905117256349955"><ele>154.0</ele><time>2026-04-21T07:47:52Z</time></trkpt><trkpt lat="43.88439447580818" lon="7.190564687466077"><ele>154.0</ele><time>2026-04-21T07:47:53Z</time></trkpt><trkpt lat="43.88421102810941" lon="7.190566879678547"><ele>153.0</ele><time>2026-04-21T07:47:54Z</time></trkpt><trkpt lat="43.88401330710357" lon="7.190523605183685"><ele>152.0</ele><time>2026-04-21T07:47:55Z</time></trkpt><trkpt lat="43.88381218128843" lon="7.190448387769613"><ele>151.0</ele><time>2026-04-21T07:47:56Z</time></trkpt><trkpt lat="43.88361353225925" lon="7.190375025775169"><ele>153.66666666666669</ele><time>2026-04-21T07:47:57Z</time></trkpt><trkpt lat="43.88342161445723" lon="7.190316338985928"><ele>156.33333333333334</ele><time>2026-04-21T07:47:58Z</time></trkpt><trkpt lat="43.88323090305661" lon="7.190284993630848"><ele>159.0</ele><time>2026-04-21T07:47:59Z</time></trkpt><trkpt lat="43.88303551760427" lon="7.190278444170844"><ele>159.0</ele><time>2026-04-21T07:48:00Z</time></trkpt><trkpt lat="43.882835673880415" lon="7.190276649845832"><ele>159.0</ele><time>2026-04-21T07:48:01Z</time></trkpt><trkpt lat="43.8826347126124" lon="7.190275685816053"><ele>159.0</ele><time>2026-04-21T07:48:02Z</time></trkpt><trkpt lat="43.88242545251502" lon="7.190255944466073"><ele>158.33333333333334</ele><time>2026-04-21T07:48:03Z</time></trkpt><trkpt lat="43.88221156667908" lon="7.19020997277282"><ele>157.66666666666669</ele><time>2026-04-21T07:48:04Z</time></trkpt><trkpt lat="43.88199344235977" lon="7.190144859701191"><ele>157.0</ele><time>2026-04-21T07:48:05Z</time></trkpt><trkpt lat="43.88177285852211" lon="7.190063478677994"><ele>165.5</ele><time>2026-04-21T07:48:06Z</time></trkpt><trkpt lat="43.881549129585416" lon="7.189978861395116"><ele>174.0</ele><time>2026-04-21T07:48:07Z</time></trkpt><trkpt lat="43.88131988872085" lon="7.18989652838525"><ele>164.0</ele><time>2026-04-21T07:48:08Z</time></trkpt><trkpt lat="43.881090306417335" lon="7.189820822335615"><ele>154.0</ele><time>2026-04-21T07:48:09Z</time></trkpt><trkpt lat="43.880868168011546" lon="7.189747725999514"><ele>152.33333333333334</ele><time>2026-04-21T07:48:10Z</time></trkpt><trkpt lat="43.88066161647318" lon="7.189690128527059"><ele>150.66666666666666</ele><time>2026-04-21T07:48:11Z</time></trkpt><trkpt lat="43.88046434740537" lon="7.189663563189325"><ele>149.0</ele><time>2026-04-21T07:48:12Z</time></trkpt><trkpt lat="43.88025556015171" lon="7.189662718472176"><ele>148.0</ele><time>2026-04-21T07:48:13Z</time></trkpt><trkpt lat="43.88003923189287" lon="7.189681341746923"><ele>147.0</ele><time>2026-04-21T07:48:14Z</time></trkpt><trkpt lat="43.87981846066776" lon="7.18972417318841"><ele>146.0</ele><time>2026-04-21T07:48:15Z</time></trkpt><trkpt lat="43.879601010127566" lon="7.1897978897436206"><ele>147.66666666666666</ele><time>2026-04-21T07:48:16Z</time></trkpt><trkpt lat="43.8793865227627" lon="7.189901840007469"><ele>149.33333333333334</ele><time>2026-04-21T07:48:17Z</time></trkpt><trkpt lat="43.879183230156" lon="7.190023412083588"><ele>151.0</ele><time>2026-04-21T07:48:18Z</time></trkpt><trkpt lat="43.87899283162269" lon="7.190172079377922"><ele>151.0</ele><time>2026-04-21T07:48:19Z</time></trkpt><trkpt lat="43.87880228667628" lon="7.190350383388045"><ele>151.0</ele><time>2026-04-21T07:48:20Z</time></trkpt><trkpt lat="43.878609996044965" lon="7.190534656058759"><ele>152.5</ele><time>2026-04-21T07:48:21Z</time></trkpt><trkpt lat="43.87841537914296" lon="7.190723409432584"><ele>154.0</ele><time>2026-04-21T07:48:22Z</time></trkpt><trkpt lat="43.878218505846625" lon="7.190918210306743"><ele>154.0</ele><time>2026-04-21T07:48:23Z</time></trkpt><trkpt lat="43.87802004123289" lon="7.191114445441194"><ele>154.0</ele><time>2026-04-21T07:48:24Z</time></trkpt><trkpt lat="43.87782562063878" lon="7.191311050540735"><ele>154.0</ele><time>2026-04-21T07:48:25Z</time></trkpt><trkpt lat="43.877644514861345" lon="7.191504394554703"><ele>154.0</ele><time>2026-04-21T07:48:26Z</time></trkpt><trkpt lat="43.87747188512984" lon="7.191704018388732"><ele>155.33333333333334</ele><time>2026-04-21T07:48:27Z</time></trkpt><trkpt lat="43.87730897412867" lon="7.191918267338053"><ele>156.66666666666666</ele><time>2026-04-21T07:48:28Z</time></trkpt><trkpt lat="43.87715368045094" lon="7.1921410413289495"><ele>158.0</ele><time>2026-04-21T07:48:29Z</time></trkpt><trkpt lat="43.87700256263979" lon="7.192345308881665"><ele>155.0</ele><time>2026-04-21T07:48:30Z</time></trkpt><trkpt lat="43.876851396150926" lon="7.192521283335877"><ele>152.0</ele><time>2026-04-21T07:48:31Z</time></trkpt><trkpt lat="43.87669281138301" lon="7.192672977856689"><ele>149.0</ele><time>2026-04-21T07:48:32Z</time></trkpt><trkpt lat="43.876527936629344" lon="7.192793357859316"><ele>149.0</ele><time>2026-04-21T07:48:33Z</time></trkpt><trkpt lat="43.87635140488662" lon="7.192874774376111"><ele>149.0</ele><time>2026-04-21T07:48:34Z</time></trkpt><trkpt lat="43.87617167078955" lon="7.19291682086526"><ele>149.0</ele><time>2026-04-21T07:48:35Z</time></trkpt><trkpt lat="43.875983456885706" lon="7.192925961412273"><ele>147.66666666666666</ele><time>2026-04-21T07:48:36Z</time></trkpt><trkpt lat="43.87578618733267" lon="7.192910703535154"><ele>146.33333333333334</ele><time>2026-04-21T07:48:37Z</time></trkpt><trkpt lat="43.87558952687824" lon="7.192862628518737"><ele>145.0</ele><time>2026-04-21T07:48:38Z</time></trkpt><trkpt lat="43.875395406613784" lon="7.192785725297844"><ele>145.0</ele><time>2026-04-21T07:48:39Z</time></trkpt><trkpt lat="43.87521166729927" lon="7.192721216938399"><ele>145.0</ele><time>2026-04-21T07:48:40Z</time></trkpt><trkpt lat="43.87502828496528" lon="7.192681694265545"><ele>145.0</ele><time>2026-04-21T07:48:41Z</time></trkpt><trkpt lat="43.874835551353264" lon="7.19267001546494"><ele>144.33333333333334</ele><time>2026-04-21T07:48:42Z</time></trkpt><trkpt lat="43.87463964074314" lon="7.192688115275749"><ele>143.66666666666666</ele><time>2026-04-21T07:48:43Z</time></trkpt><trkpt lat="43.874453192931725" lon="7.19273480847298"><ele>143.0</ele><time>2026-04-21T07:48:44Z</time></trkpt><trkpt lat="43.8742707195" lon="7.192816927866511"><ele>143.0</ele><time>2026-04-21T07:48:45Z</time></trkpt><trkpt lat="43.87409073222652" lon="7.192937989643523"><ele>143.0</ele><time>2026-04-21T07:48:46Z</time></trkpt><trkpt lat="43.87392534096618" lon="7.193098123375046"><ele>143.0</ele><time>2026-04-21T07:48:47Z</time></trkpt><trkpt lat="43.87377312822406" lon="7.193295262771859"><ele>145.0</ele><time>2026-04-21T07:48:48Z</time></trkpt><trkpt lat="43.873641764242535" lon="7.193521238562423"><ele>147.0</ele><time>2026-04-21T07:48:49Z</time></trkpt><trkpt lat="43.87352672039514" lon="7.193775922940536"><ele>149.0</ele><time>2026-04-21T07:48:50Z</time></trkpt><trkpt lat="43.87342219959012" lon="7.194045303091198"><ele>149.0</ele><time>2026-04-21T07:48:51Z</time></trkpt><trkpt lat="43.87332038841155" lon="7.194296096238129"><ele>149.0</ele><time>2026-04-21T07:48:52Z</time></trkpt><trkpt lat="43.873212859827" lon="7.194514401945113"><ele>149.0</ele><time>2026-04-21T07:48:53Z</time></trkpt><trkpt lat="43.87308831067906" lon="7.194731620376069"><ele>157.33333333333331</ele><time>2026-04-21T07:48:54Z</time></trkpt><trkpt lat="43.87294520581264" lon="7.194939706786967"><ele>165.66666666666666</ele><time>2026-04-21T07:48:55Z</time></trkpt><trkpt lat="43.87278502169423" lon="7.195134441041463"><ele>174.0</ele><time>2026-04-21T07:48:56Z</time></trkpt><trkpt lat="43.87260655491896" lon="7.1953081334020945"><ele>174.0</ele><time>2026-04-21T07:48:57Z</time></trkpt><trkpt lat="43.872415901263615" lon="7.195466716927963"><ele>174.0</ele><time>2026-04-21T07:48:58Z</time></trkpt><trkpt lat="43.87222191943088" lon="7.195628249931467"><ele>174.0</ele><time>2026-04-21T07:48:59Z</time></trkpt><trkpt lat="43.87202395201467" lon="7.195800002960121"><ele>174.0</ele><time>2026-04-21T07:49:00Z</time></trkpt><trkpt lat="43.87183009073003" lon="7.1959789292980005"><ele>174.0</ele><time>2026-04-21T07:49:01Z</time></trkpt><trkpt lat="43.87164805524096" lon="7.196164633662"><ele>173.0</ele><time>2026-04-21T07:49:02Z</time></trkpt><trkpt lat="43.87146788055745" lon="7.196372445660218"><ele>172.0</ele><time>2026-04-21T07:49:03Z</time></trkpt><trkpt lat="43.871292595083304" lon="7.196591028850599"><ele>172.0</ele><time>2026-04-21T07:49:04Z</time></trkpt><trkpt lat="43.871121851723935" lon="7.196807608846747"><ele>172.0</ele><time>2026-04-21T07:49:05Z</time></trkpt><trkpt lat="43.87095137922474" lon="7.197008216208788"><ele>167.0</ele><time>2026-04-21T07:49:06Z</time></trkpt><trkpt lat="43.87077946116057" lon="7.197189872458606"><ele>162.0</ele><time>2026-04-21T07:49:07Z</time></trkpt><trkpt lat="43.870592419520065" lon="7.197351585786493"><ele>157.0</ele><time>2026-04-21T07:49:08Z</time></trkpt><trkpt lat="43.8703910107323" lon="7.197489398296394"><ele>157.0</ele><time>2026-04-21T07:49:09Z</time></trkpt><trkpt lat="43.870185113711315" lon="7.197619431955596"><ele>157.0</ele><time>2026-04-21T07:49:10Z</time></trkpt><trkpt lat="43.869971848731694" lon="7.197745660122161"><ele>149.5</ele><time>2026-04-21T07:49:11Z</time></trkpt><trkpt lat="43.869757455892085" lon="7.197874808142079"><ele>142.0</ele><time>2026-04-21T07:49:12Z</time></trkpt><trkpt lat="43.86955451146592" lon="7.197990537297966"><ele>142.0</ele><time>2026-04-21T07:49:13Z</time></trkpt><trkpt lat="43.86934705386742" lon="7.19809380326167"><ele>142.0</ele><time>2026-04-21T07:49:14Z</time></trkpt><trkpt lat="43.86913259941216" lon="7.198184522211824"><ele>142.0</ele><time>2026-04-21T07:49:15Z</time></trkpt><trkpt lat="43.86891045875158" lon="7.198272937838019"><ele>148.0</ele><time>2026-04-21T07:49:16Z</time></trkpt><trkpt lat="43.86868312912418" lon="7.198356073554447"><ele>154.0</ele><time>2026-04-21T07:49:17Z</time></trkpt><trkpt lat="43.868453027464916" lon="7.198437304391893"><ele>149.5</ele><time>2026-04-21T07:49:18Z</time></trkpt><trkpt lat="43.86822224352152" lon="7.1985140600046815"><ele>145.0</ele><time>2026-04-21T07:49:19Z</time></trkpt><trkpt lat="43.86799659366042" lon="7.198575456101501"><ele>145.0</ele><time>2026-04-21T07:49:20Z</time></trkpt><trkpt lat="43.867764189410714" lon="7.198618553469537"><ele>145.0</ele><time>2026-04-21T07:49:21Z</time></trkpt><trkpt lat="43.86752774240781" lon="7.19864894671019"><ele>142.5</ele><time>2026-04-21T07:49:22Z</time></trkpt><trkpt lat="43.8672962526939" lon="7.198675619585235"><ele>140.0</ele><time>2026-04-21T07:49:23Z</time></trkpt><trkpt lat="43.86707770789197" lon="7.19869935676145"><ele>140.0</ele><time>2026-04-21T07:49:24Z</time></trkpt><trkpt lat="43.866860414076974" lon="7.198718210006008"><ele>140.0</ele><time>2026-04-21T07:49:25Z</time></trkpt><trkpt lat="43.866635195646765" lon="7.198737265446548"><ele>140.0</ele><time>2026-04-21T07:49:26Z</time></trkpt><trkpt lat="43.86640549275023" lon="7.19874503855115"><ele>140.0</ele><time>2026-04-21T07:49:27Z</time></trkpt><trkpt lat="43.86617136269771" lon="7.198738690072358"><ele>140.0</ele><time>2026-04-21T07:49:28Z</time></trkpt><trkpt lat="43.86593134895173" lon="7.198719657108265"><ele>140.0</ele><time>2026-04-21T07:49:29Z</time></trkpt><trkpt lat="43.86569351990988" lon="7.198693769328105"><ele>140.0</ele><time>2026-04-21T07:49:30Z</time></trkpt><trkpt lat="43.86546228264649" lon="7.19866429414653"><ele>140.0</ele><time>2026-04-21T07:49:31Z</time></trkpt><trkpt lat="43.86523717029508" lon="7.198647433226499"><ele>140.0</ele><time>2026-04-21T07:49:32Z</time></trkpt><trkpt lat="43.86501502353454" lon="7.198645583487011"><ele>140.0</ele><time>2026-04-21T07:49:33Z</time></trkpt><trkpt lat="43.864789099133176" lon="7.198652473325437"><ele>138.5</ele><time>2026-04-21T07:49:34Z</time></trkpt><trkpt lat="43.86455810882249" lon="7.198665120394378"><ele>137.0</ele><time>2026-04-21T07:49:35Z</time></trkpt><trkpt lat="43.86432341871798" lon="7.19868190582475"><ele>137.5</ele><time>2026-04-21T07:49:36Z</time></trkpt><trkpt lat="43.864086367013684" lon="7.198698329151016"><ele>138.0</ele><time>2026-04-21T07:49:37Z</time></trkpt><trkpt lat="43.86384877979364" lon="7.198704253752234"><ele>138.0</ele><time>2026-04-21T07:49:38Z</time></trkpt><trkpt lat="43.863610698723946" lon="7.198693162142152"><ele>138.0</ele><time>2026-04-21T07:49:39Z</time></trkpt><trkpt lat="43.86337196645063" lon="7.198671363916254"><ele>137.0</ele><time>2026-04-21T07:49:40Z</time></trkpt><trkpt lat="43.8631326947294" lon="7.198655310704467"><ele>136.0</ele><time>2026-04-21T07:49:41Z</time></trkpt><trkpt lat="43.862892993007215" lon="7.1986336858059765"><ele>136.0</ele><time>2026-04-21T07:49:42Z</time></trkpt><trkpt lat="43.86265419748116" lon="7.198602319014064"><ele>136.0</ele><time>2026-04-21T07:49:43Z</time></trkpt><trkpt lat="43.862420180483255" lon="7.198565638131483"><ele>137.0</ele><time>2026-04-21T07:49:44Z</time></trkpt><trkpt lat="43.86219842631504" lon="7.198528574710964"><ele>138.0</ele><time>2026-04-21T07:49:45Z</time></trkpt><trkpt lat="43.861971478178575" lon="7.1984931102097205"><ele>138.66666666666666</ele><time>2026-04-21T07:49:46Z</time></trkpt><trkpt lat="43.861740542034866" lon="7.198461822617398"><ele>139.33333333333331</ele><time>2026-04-21T07:49:47Z</time></trkpt><trkpt lat="43.86152702163289" lon="7.198433816624192"><ele>140.0</ele><time>2026-04-21T07:49:48Z</time></trkpt><trkpt lat="43.861326795399584" lon="7.19839521001807"><ele>140.0</ele><time>2026-04-21T07:49:49Z</time></trkpt><trkpt lat="43.86113627440622" lon="7.1983451390777295"><ele>140.0</ele><time>2026-04-21T07:49:50Z</time></trkpt><trkpt lat="43.86095633673748" lon="7.1982820435707"><ele>140.0</ele><time>2026-04-21T07:49:51Z</time></trkpt><trkpt lat="43.86078911971407" lon="7.198210503119617"><ele>137.33333333333331</ele><time>2026-04-21T07:49:52Z</time></trkpt><trkpt lat="43.86063191607448" lon="7.1981320338916595"><ele>134.66666666666666</ele><time>2026-04-21T07:49:53Z</time></trkpt><trkpt lat="43.860470677434584" lon="7.1980433443187835"><ele>132.0</ele><time>2026-04-21T07:49:54Z</time></trkpt><trkpt lat="43.860308730133134" lon="7.197947219901658"><ele>132.0</ele><time>2026-04-21T07:49:55Z</time></trkpt><trkpt lat="43.86015666883665" lon="7.1978513015229515"><ele>132.0</ele><time>2026-04-21T07:49:56Z</time></trkpt><trkpt lat="43.86000427129559" lon="7.197741854859428"><ele>132.0</ele><time>2026-04-21T07:49:57Z</time></trkpt><trkpt lat="43.85984368271886" lon="7.1976166905106185"><ele>132.33333333333334</ele><time>2026-04-21T07:49:58Z</time></trkpt><trkpt lat="43.859674251594804" lon="7.197485720339223"><ele>132.66666666666669</ele><time>2026-04-21T07:49:59Z</time></trkpt><trkpt lat="43.85949582066207" lon="7.197349327797107"><ele>133.0</ele><time>2026-04-21T07:50:00Z</time></trkpt><trkpt lat="43.859310314165896" lon="7.197200092923849"><ele>134.5</ele><time>2026-04-21T07:50:01Z</time></trkpt><trkpt lat="43.85911818559606" lon="7.1970392814546935"><ele>136.0</ele><time>2026-04-21T07:50:02Z</time></trkpt><trkpt lat="43.858918571256766" lon="7.196863048524445"><ele>136.0</ele><time>2026-04-21T07:50:03Z</time></trkpt><trkpt lat="43.858721723782985" lon="7.196681764664947"><ele>136.0</ele><time>2026-04-21T07:50:04Z</time></trkpt><trkpt lat="43.858529176377644" lon="7.196509943683873"><ele>135.0</ele><time>2026-04-21T07:50:05Z</time></trkpt><trkpt lat="43.85834015155703" lon="7.19636123013067"><ele>134.0</ele><time>2026-04-21T07:50:06Z</time></trkpt><trkpt lat="43.85813712956199" lon="7.196224235152777"><ele>133.0</ele><time>2026-04-21T07:50:07Z</time></trkpt><trkpt lat="43.85792935260667" lon="7.196111903770063"><ele>133.0</ele><time>2026-04-21T07:50:08Z</time></trkpt><trkpt lat="43.85772064521757" lon="7.19603299588948"><ele>133.0</ele><time>2026-04-21T07:50:09Z</time></trkpt><trkpt lat="43.857504039303954" lon="7.195980410597648"><ele>133.0</ele><time>2026-04-21T07:50:10Z</time></trkpt><trkpt lat="43.85728678988209" lon="7.195947521751097"><ele>133.33333333333334</ele><time>2026-04-21T07:50:11Z</time></trkpt><trkpt lat="43.85707114095933" lon="7.195942188114142"><ele>133.66666666666666</ele><time>2026-04-21T07:50:12Z</time></trkpt><trkpt lat="43.85685621830782" lon="7.195962257604706"><ele>134.0</ele><time>2026-04-21T07:50:13Z</time></trkpt><trkpt lat="43.85663523419216" lon="7.196002651945916"><ele>134.33333333333331</ele><time>2026-04-21T07:50:14Z</time></trkpt><trkpt lat="43.8564191073873" lon="7.196065662652666"><ele>134.66666666666666</ele><time>2026-04-21T07:50:15Z</time></trkpt><trkpt lat="43.85621316188331" lon="7.196156394765154"><ele>135.0</ele><time>2026-04-21T07:50:16Z</time></trkpt><trkpt lat="43.85601231779826" lon="7.196280610809357"><ele>136.0</ele><time>2026-04-21T07:50:17Z</time></trkpt><trkpt lat="43.855811333286525" lon="7.196432356254512"><ele>137.0</ele><time>2026-04-21T07:50:18Z</time></trkpt><trkpt lat="43.855615003297146" lon="7.196605434182217"><ele>137.0</ele><time>2026-04-21T07:50:19Z</time></trkpt><trkpt lat="43.85541828233303" lon="7.196790983845996"><ele>137.0</ele><time>2026-04-21T07:50:20Z</time></trkpt><trkpt lat="43.855220222586816" lon="7.196980780577356"><ele>133.5</ele><time>2026-04-21T07:50:21Z</time></trkpt><trkpt lat="43.85502018079961" lon="7.197166827931922"><ele>130.0</ele><time>2026-04-21T07:50:22Z</time></trkpt><trkpt lat="43.854822948028634" lon="7.197330485005977"><ele>136.0</ele><time>2026-04-21T07:50:23Z</time></trkpt><trkpt lat="43.854614382666384" lon="7.197472446369112"><ele>142.0</ele><time>2026-04-21T07:50:24Z</time></trkpt><trkpt lat="43.854396343967124" lon="7.197593479571326"><ele>136.0</ele><time>2026-04-21T07:50:25Z</time></trkpt><trkpt lat="43.854164744020515" lon="7.197697080083296"><ele>130.0</ele><time>2026-04-21T07:50:26Z</time></trkpt><trkpt lat="43.85393365767251" lon="7.197790595706274"><ele>130.0</ele><time>2026-04-21T07:50:27Z</time></trkpt><trkpt lat="43.85371850947698" lon="7.197874323298398"><ele>130.0</ele><time>2026-04-21T07:50:28Z</time></trkpt><trkpt lat="43.853526476232844" lon="7.197948496526996"><ele>130.0</ele><time>2026-04-21T07:50:29Z</time></trkpt><trkpt lat="43.85333983290923" lon="7.197997031973628"><ele>129.66666666666669</ele><time>2026-04-21T07:50:30Z</time></trkpt><trkpt lat="43.853142253303915" lon="7.19800685100705"><ele>129.33333333333334</ele><time>2026-04-21T07:50:31Z</time></trkpt><trkpt lat="43.85293621461306" lon="7.197983369119472"><ele>129.0</ele><time>2026-04-21T07:50:32Z</time></trkpt><trkpt lat="43.85272307977459" lon="7.197946006182934"><ele>129.33333333333334</ele><time>2026-04-21T07:50:33Z</time></trkpt><trkpt lat="43.85250536459631" lon="7.19790808980486"><ele>129.66666666666669</ele><time>2026-04-21T07:50:34Z</time></trkpt><trkpt lat="43.852280383628475" lon="7.197884966813063"><ele>130.0</ele><time>2026-04-21T07:50:35Z</time></trkpt><trkpt lat="43.852049638234675" lon="7.1978816862151564"><ele>130.0</ele><time>2026-04-21T07:50:36Z</time></trkpt><trkpt lat="43.851812682887804" lon="7.197890676048218"><ele>130.0</ele><time>2026-04-21T07:50:37Z</time></trkpt><trkpt lat="43.851571521909804" lon="7.1979029710141065"><ele>129.0</ele><time>2026-04-21T07:50:38Z</time></trkpt><trkpt lat="43.851327898909624" lon="7.197912043366011"><ele>128.0</ele><time>2026-04-21T07:50:39Z</time></trkpt><trkpt lat="43.85108719656409" lon="7.197920659780894"><ele>128.0</ele><time>2026-04-21T07:50:40Z</time></trkpt><trkpt lat="43.850848219151516" lon="7.197910771850531"><ele>128.0</ele><time>2026-04-21T07:50:41Z</time></trkpt><trkpt lat="43.85060887192431" lon="7.197869079138245"><ele>128.0</ele><time>2026-04-21T07:50:42Z</time></trkpt><trkpt lat="43.85036978413322" lon="7.1978138947325885"><ele>128.0</ele><time>2026-04-21T07:50:43Z</time></trkpt><trkpt lat="43.850129979574426" lon="7.19775256894313"><ele>129.0</ele><time>2026-04-21T07:50:44Z</time></trkpt><trkpt lat="43.849888321808784" lon="7.197694142616638"><ele>130.0</ele><time>2026-04-21T07:50:45Z</time></trkpt><trkpt lat="43.849645301187586" lon="7.197633589622461"><ele>130.0</ele><time>2026-04-21T07:50:46Z</time></trkpt><trkpt lat="43.84940189136127" lon="7.197575046451944"><ele>130.0</ele><time>2026-04-21T07:50:47Z</time></trkpt><trkpt lat="43.849159854762036" lon="7.197516978450703"><ele>131.0</ele><time>2026-04-21T07:50:48Z</time></trkpt><trkpt lat="43.848917456515494" lon="7.19746055596256"><ele>132.0</ele><time>2026-04-21T07:50:49Z</time></trkpt><trkpt lat="43.848674547379716" lon="7.197403094092089"><ele>134.5</ele><time>2026-04-21T07:50:50Z</time></trkpt><trkpt lat="43.848432614152465" lon="7.19734231401251"><ele>137.0</ele><time>2026-04-21T07:50:51Z</time></trkpt><trkpt lat="43.84819584429704" lon="7.197281907467332"><ele>131.5</ele><time>2026-04-21T07:50:52Z</time></trkpt><trkpt lat="43.84796693647772" lon="7.197228048411717"><ele>126.0</ele><time>2026-04-21T07:50:53Z</time></trkpt><trkpt lat="43.84774086734939" lon="7.197184744639134"><ele>125.33333333333334</ele><time>2026-04-21T07:50:54Z</time></trkpt><trkpt lat="43.84752671719803" lon="7.197158217713138"><ele>124.66666666666667</ele><time>2026-04-21T07:50:55Z</time></trkpt><trkpt lat="43.847323272178635" lon="7.197132877184796"><ele>124.0</ele><time>2026-04-21T07:50:56Z</time></trkpt><trkpt lat="43.84712872567249" lon="7.197101317147503"><ele>124.0</ele><time>2026-04-21T07:50:57Z</time></trkpt><trkpt lat="43.84694288757248" lon="7.197059665285641"><ele>124.0</ele><time>2026-04-21T07:50:58Z</time></trkpt><trkpt lat="43.846771907813356" lon="7.197011136612836"><ele>124.0</ele><time>2026-04-21T07:50:59Z</time></trkpt><trkpt lat="43.846618342792844" lon="7.196955040583098"><ele>124.0</ele><time>2026-04-21T07:51:00Z</time></trkpt><trkpt lat="43.84649243823503" lon="7.196909041889486"><ele>124.0</ele><time>2026-04-21T07:51:01Z</time></trkpt><trkpt lat="43.84636817459885" lon="7.19688571589252"><ele>124.0</ele><time>2026-04-21T07:51:02Z</time></trkpt><trkpt lat="43.846239228383865" lon="7.196892266813411"><ele>124.0</ele><time>2026-04-21T07:51:03Z</time></trkpt><trkpt lat="43.84610810975915" lon="7.196931926602798"><ele>124.0</ele><time>2026-04-21T07:51:04Z</time></trkpt><trkpt lat="43.8459735874205" lon="7.196990925885165"><ele>124.0</ele><time>2026-04-21T07:51:05Z</time></trkpt><trkpt lat="43.84585042075116" lon="7.197025375503436"><ele>124.0</ele><time>2026-04-21T07:51:06Z</time></trkpt><trkpt lat="43.84572929428729" lon="7.197028558383213"><ele>124.0</ele><time>2026-04-21T07:51:07Z</time></trkpt><trkpt lat="43.84559540003063" lon="7.197050253533054"><ele>123.66666666666667</ele><time>2026-04-21T07:51:08Z</time></trkpt><trkpt lat="43.845445328111595" lon="7.196952035657674"><ele>123.33333333333334</ele><time>2026-04-21T07:51:09Z</time></trkpt><trkpt lat="43.84528796977708" lon="7.1968891809447"><ele>123.0</ele><time>2026-04-21T07:51:10Z</time></trkpt><trkpt lat="43.845118138659345" lon="7.19682083949356"><ele>123.66666666666666</ele><time>2026-04-21T07:51:11Z</time></trkpt><trkpt lat="43.8449353635602" lon="7.19675378236415"><ele>124.33333333333333</ele><time>2026-04-21T07:51:12Z</time></trkpt><trkpt lat="43.844741861009055" lon="7.196681735955968"><ele>125.0</ele><time>2026-04-21T07:51:13Z</time></trkpt><trkpt lat="43.84453807439724" lon="7.196608181154347"><ele>125.0</ele><time>2026-04-21T07:51:14Z</time></trkpt><trkpt lat="43.844335870714374" lon="7.196534584345767"><ele>125.0</ele><time>2026-04-21T07:51:15Z</time></trkpt><trkpt lat="43.84412657417643" lon="7.196457179158559"><ele>125.0</ele><time>2026-04-21T07:51:16Z</time></trkpt><trkpt lat="43.84391011663484" lon="7.196378215119533"><ele>124.0</ele><time>2026-04-21T07:51:17Z</time></trkpt><trkpt lat="43.84369131127191" lon="7.196300434405139"><ele>123.0</ele><time>2026-04-21T07:51:18Z</time></trkpt><trkpt lat="43.843470129499735" lon="7.196221200869894"><ele>121.5</ele><time>2026-04-21T07:51:19Z</time></trkpt><trkpt lat="43.84324730814053" lon="7.196140178914853"><ele>120.0</ele><time>2026-04-21T07:51:20Z</time></trkpt><trkpt lat="43.84302267570315" lon="7.196057461641175"><ele>120.0</ele><time>2026-04-21T07:51:21Z</time></trkpt><trkpt lat="43.84279757416522" lon="7.195977111861289"><ele>120.0</ele><time>2026-04-21T07:51:22Z</time></trkpt><trkpt lat="43.84256914438735" lon="7.195895967388576"><ele>121.5</ele><time>2026-04-21T07:51:23Z</time></trkpt><trkpt lat="43.84233990104964" lon="7.195812726896577"><ele>123.0</ele><time>2026-04-21T07:51:24Z</time></trkpt><trkpt lat="43.84211683779017" lon="7.195730980430219"><ele>122.0</ele><time>2026-04-21T07:51:25Z</time></trkpt><trkpt lat="43.84189429870383" lon="7.1956515427182675"><ele>121.0</ele><time>2026-04-21T07:51:26Z</time></trkpt><trkpt lat="43.841667698288404" lon="7.195571480220908"><ele>121.0</ele><time>2026-04-21T07:51:27Z</time></trkpt><trkpt lat="43.84144121463301" lon="7.195489051244619"><ele>121.0</ele><time>2026-04-21T07:51:28Z</time></trkpt><trkpt lat="43.84121390962404" lon="7.19540750329441"><ele>121.0</ele><time>2026-04-21T07:51:29Z</time></trkpt><trkpt lat="43.84099416306041" lon="7.195328453307295"><ele>121.0</ele><time>2026-04-21T07:51:30Z</time></trkpt><trkpt lat="43.840772602396655" lon="7.195247187862294"><ele>121.0</ele><time>2026-04-21T07:51:31Z</time></trkpt><trkpt lat="43.84056074070006" lon="7.195166700592159"><ele>121.0</ele><time>2026-04-21T07:51:32Z</time></trkpt><trkpt lat="43.84035970982953" lon="7.195091071135455"><ele>121.0</ele><time>2026-04-21T07:51:33Z</time></trkpt><trkpt lat="43.84016524219442" lon="7.195022831892273"><ele>121.0</ele><time>2026-04-21T07:51:34Z</time></trkpt><trkpt lat="43.839980743747994" lon="7.194958517743808"><ele>121.0</ele><time>2026-04-21T07:51:35Z</time></trkpt><trkpt lat="43.83981390470229" lon="7.194904727511352"><ele>121.0</ele><time>2026-04-21T07:51:36Z</time></trkpt><trkpt lat="43.83965055455477" lon="7.194863923886151"><ele>120.5</ele><time>2026-04-21T07:51:37Z</time></trkpt><trkpt lat="43.83950823467764" lon="7.19482917813211"><ele>120.0</ele><time>2026-04-21T07:51:38Z</time></trkpt><trkpt lat="43.83937350334133" lon="7.194793847830729"><ele>119.5</ele><time>2026-04-21T07:51:39Z</time></trkpt><trkpt lat="43.83924144676534" lon="7.194747237296037"><ele>119.0</ele><time>2026-04-21T07:51:40Z</time></trkpt><trkpt lat="43.83910728321045" lon="7.1946973951152735"><ele>119.0</ele><time>2026-04-21T07:51:41Z</time></trkpt><trkpt lat="43.83897643894213" lon="7.194647904185175"><ele>119.0</ele><time>2026-04-21T07:51:42Z</time></trkpt><trkpt lat="43.83884608253051" lon="7.194589955787574"><ele>119.0</ele><time>2026-04-21T07:51:43Z</time></trkpt><trkpt lat="43.83871494963579" lon="7.194531225545853"><ele>119.0</ele><time>2026-04-21T07:51:44Z</time></trkpt><trkpt lat="43.83859650531341" lon="7.19448835760521"><ele>119.0</ele><time>2026-04-21T07:51:45Z</time></trkpt><trkpt lat="43.83848325729744" lon="7.194446505877401"><ele>119.0</ele><time>2026-04-21T07:51:46Z</time></trkpt><trkpt lat="43.83837190521558" lon="7.194418214454931"><ele>119.0</ele><time>2026-04-21T07:51:47Z</time></trkpt><trkpt lat="43.838263227329186" lon="7.194383845997337"><ele>119.0</ele><time>2026-04-21T07:51:48Z</time></trkpt><trkpt lat="43.838154188694105" lon="7.1943470899860404"><ele>118.75</ele><time>2026-04-21T07:51:49Z</time></trkpt><trkpt lat="43.838037399907" lon="7.194309804730981"><ele>118.5</ele><time>2026-04-21T07:51:50Z</time></trkpt><trkpt lat="43.837930135223075" lon="7.194267085657306"><ele>118.25</ele><time>2026-04-21T07:51:51Z</time></trkpt><trkpt lat="43.83781556006587" lon="7.194221058898041"><ele>118.0</ele><time>2026-04-21T07:51:52Z</time></trkpt><trkpt lat="43.83768747849057" lon="7.194170045871409"><ele>118.0</ele><time>2026-04-21T07:51:53Z</time></trkpt><trkpt lat="43.837552227408366" lon="7.194128145200207"><ele>118.0</ele><time>2026-04-21T07:51:54Z</time></trkpt><trkpt lat="43.83741008243935" lon="7.194073416554391"><ele>118.0</ele><time>2026-04-21T07:51:55Z</time></trkpt><trkpt lat="43.83726533763304" lon="7.194020559729377"><ele>118.0</ele><time>2026-04-21T07:51:56Z</time></trkpt><trkpt lat="43.837129277220406" lon="7.193965910871607"><ele>117.33333333333334</ele><time>2026-04-21T07:51:57Z</time></trkpt><trkpt lat="43.836989333454426" lon="7.193910152821751"><ele>116.66666666666666</ele><time>2026-04-21T07:51:58Z</time></trkpt><trkpt lat="43.83683322333964" lon="7.193857586649104"><ele>116.0</ele><time>2026-04-21T07:51:59Z</time></trkpt><trkpt lat="43.8366751833276" lon="7.193801403397954"><ele>115.5</ele><time>2026-04-21T07:52:00Z</time></trkpt><trkpt lat="43.83653705599012" lon="7.193743631639875"><ele>115.0</ele><time>2026-04-21T07:52:01Z</time></trkpt><trkpt lat="43.83641295466734" lon="7.193692138285911"><ele>114.5</ele><time>2026-04-21T07:52:02Z</time></trkpt><trkpt lat="43.83629430512278" lon="7.193646449536854"><ele>114.0</ele><time>2026-04-21T07:52:03Z</time></trkpt><trkpt lat="43.836170311394405" lon="7.193600416906467"><ele>114.0</ele><time>2026-04-21T07:52:04Z</time></trkpt><trkpt lat="43.836050604983186" lon="7.193557848214852"><ele>114.0</ele><time>2026-04-21T07:52:05Z</time></trkpt><trkpt lat="43.83594402572001" lon="7.1935211259586"><ele>114.0</ele><time>2026-04-21T07:52:06Z</time></trkpt><trkpt lat="43.835842574739296" lon="7.193489362674186"><ele>114.0</ele><time>2026-04-21T07:52:07Z</time></trkpt><trkpt lat="43.835744484278635" lon="7.193464443100387"><ele>114.0</ele><time>2026-04-21T07:52:08Z</time></trkpt><trkpt lat="43.83564568485592" lon="7.193434240056859"><ele>114.5</ele><time>2026-04-21T07:52:09Z</time></trkpt><trkpt lat="43.835540918394685" lon="7.1933973666948035"><ele>115.0</ele><time>2026-04-21T07:52:10Z</time></trkpt><trkpt lat="43.83543347912146" lon="7.193326897651391"><ele>115.5</ele><time>2026-04-21T07:52:11Z</time></trkpt><trkpt lat="43.83531004199504" lon="7.1933365149969015"><ele>116.0</ele><time>2026-04-21T07:52:12Z</time></trkpt><trkpt lat="43.835191321220854" lon="7.193295652440398"><ele>116.66666666666666</ele><time>2026-04-21T07:52:13Z</time></trkpt><trkpt lat="43.835056981205376" lon="7.19328485627026"><ele>117.33333333333334</ele><time>2026-04-21T07:52:14Z</time></trkpt><trkpt lat="43.83492030109447" lon="7.1931739014380875"><ele>118.0</ele><time>2026-04-21T07:52:15Z</time></trkpt><trkpt lat="43.834765550394025" lon="7.193106572416085"><ele>116.33333333333334</ele><time>2026-04-21T07:52:16Z</time></trkpt><trkpt lat="43.834593558400755" lon="7.193040619552455"><ele>114.66666666666666</ele><time>2026-04-21T07:52:17Z</time></trkpt><trkpt lat="43.834429102182135" lon="7.192953922849189"><ele>113.0</ele><time>2026-04-21T07:52:18Z</time></trkpt><trkpt lat="43.834220747544514" lon="7.192900942207982"><ele>113.0</ele><time>2026-04-21T07:52:19Z</time></trkpt><trkpt lat="43.834018772223644" lon="7.192824134905967"><ele>113.0</ele><time>2026-04-21T07:52:20Z</time></trkpt><trkpt lat="43.833807817320164" lon="7.1927426057815875"><ele>113.0</ele><time>2026-04-21T07:52:21Z</time></trkpt><trkpt lat="43.83358844071277" lon="7.192656470597178"><ele>113.5</ele><time>2026-04-21T07:52:22Z</time></trkpt><trkpt lat="43.83336464417082" lon="7.192565611941459"><ele>114.0</ele><time>2026-04-21T07:52:23Z</time></trkpt><trkpt lat="43.833137136054255" lon="7.192477659282591"><ele>114.0</ele><time>2026-04-21T07:52:24Z</time></trkpt><trkpt lat="43.83290601091138" lon="7.192390738024424"><ele>114.0</ele><time>2026-04-21T07:52:25Z</time></trkpt><trkpt lat="43.832677734198356" lon="7.192307956563861"><ele>112.0</ele><time>2026-04-21T07:52:26Z</time></trkpt><trkpt lat="43.832441028124315" lon="7.192221874222343"><ele>110.0</ele><time>2026-04-21T07:52:27Z</time></trkpt><trkpt lat="43.832200926569485" lon="7.192135322101733"><ele>110.0</ele><time>2026-04-21T07:52:28Z</time></trkpt><trkpt lat="43.83195810017938" lon="7.19204836413876"><ele>110.0</ele><time>2026-04-21T07:52:29Z</time></trkpt><trkpt lat="43.83171496107633" lon="7.1919597853642125"><ele>111.5</ele><time>2026-04-21T07:52:30Z</time></trkpt><trkpt lat="43.831470522712756" lon="7.191871090519056"><ele>113.0</ele><time>2026-04-21T07:52:31Z</time></trkpt><trkpt lat="43.83122567203068" lon="7.191782401541386"><ele>113.0</ele><time>2026-04-21T07:52:32Z</time></trkpt><trkpt lat="43.8309891874555" lon="7.1916939475005695"><ele>113.0</ele><time>2026-04-21T07:52:33Z</time></trkpt><trkpt lat="43.83075651745552" lon="7.191608591365417"><ele>114.0</ele><time>2026-04-21T07:52:34Z</time></trkpt><trkpt lat="43.8305227175366" lon="7.191524278978942"><ele>115.0</ele><time>2026-04-21T07:52:35Z</time></trkpt><trkpt lat="43.83028911079936" lon="7.191443462524387"><ele>112.5</ele><time>2026-04-21T07:52:36Z</time></trkpt><trkpt lat="43.830055853154484" lon="7.1913631064006935"><ele>110.0</ele><time>2026-04-21T07:52:37Z</time></trkpt><trkpt lat="43.82982520370455" lon="7.191280112557246"><ele>110.0</ele><time>2026-04-21T07:52:38Z</time></trkpt><trkpt lat="43.82959428270439" lon="7.191194378507701"><ele>110.0</ele><time>2026-04-21T07:52:39Z</time></trkpt><trkpt lat="43.82935711275623" lon="7.191108637219133"><ele>110.5</ele><time>2026-04-21T07:52:40Z</time></trkpt><trkpt lat="43.82911893513645" lon="7.191019180963817"><ele>111.0</ele><time>2026-04-21T07:52:41Z</time></trkpt><trkpt lat="43.82888417793211" lon="7.190931269523892"><ele>111.0</ele><time>2026-04-21T07:52:42Z</time></trkpt><trkpt lat="43.828661805201975" lon="7.190848481867846"><ele>111.0</ele><time>2026-04-21T07:52:43Z</time></trkpt><trkpt lat="43.8284431478079" lon="7.190770655127603"><ele>111.5</ele><time>2026-04-21T07:52:44Z</time></trkpt><trkpt lat="43.82821831610892" lon="7.1906885391926165"><ele>112.0</ele><time>2026-04-21T07:52:45Z</time></trkpt><trkpt lat="43.82799195342953" lon="7.190606836758622"><ele>111.0</ele><time>2026-04-21T07:52:46Z</time></trkpt><trkpt lat="43.827767134129914" lon="7.190522918281738"><ele>110.0</ele><time>2026-04-21T07:52:47Z</time></trkpt><trkpt lat="43.82754108840241" lon="7.1904388193809625"><ele>110.0</ele><time>2026-04-21T07:52:48Z</time></trkpt><trkpt lat="43.82731716900754" lon="7.190355282300883"><ele>110.0</ele><time>2026-04-21T07:52:49Z</time></trkpt><trkpt lat="43.82709560842277" lon="7.190275542120255"><ele>110.0</ele><time>2026-04-21T07:52:50Z</time></trkpt><trkpt lat="43.82687494007939" lon="7.19019970720517"><ele>110.0</ele><time>2026-04-21T07:52:51Z</time></trkpt><trkpt lat="43.82665997924508" lon="7.190121102787157"><ele>112.33333333333333</ele><time>2026-04-21T07:52:52Z</time></trkpt><trkpt lat="43.82644847764399" lon="7.190046576462738"><ele>114.66666666666666</ele><time>2026-04-21T07:52:53Z</time></trkpt><trkpt lat="43.826236879926185" lon="7.189969640470589"><ele>117.0</ele><time>2026-04-21T07:52:54Z</time></trkpt><trkpt lat="43.82602527176548" lon="7.18989326738022"><ele>113.33333333333334</ele><time>2026-04-21T07:52:55Z</time></trkpt><trkpt lat="43.825810347460596" lon="7.189818885433026"><ele>109.66666666666667</ele><time>2026-04-21T07:52:56Z</time></trkpt><trkpt lat="43.82559601516992" lon="7.189740786697162"><ele>106.0</ele><time>2026-04-21T07:52:57Z</time></trkpt><trkpt lat="43.82538411934456" lon="7.189663528146977"><ele>106.0</ele><time>2026-04-21T07:52:58Z</time></trkpt><trkpt lat="43.82517523824246" lon="7.189586182582133"><ele>106.0</ele><time>2026-04-21T07:52:59Z</time></trkpt><trkpt lat="43.82497547255684" lon="7.189518094721033"><ele>106.0</ele><time>2026-04-21T07:53:00Z</time></trkpt><trkpt lat="43.82478319910713" lon="7.189455942774349"><ele>107.0</ele><time>2026-04-21T07:53:01Z</time></trkpt><trkpt lat="43.824587642187986" lon="7.1893980881512265"><ele>108.0</ele><time>2026-04-21T07:53:02Z</time></trkpt><trkpt lat="43.82441603670048" lon="7.189340645037499"><ele>109.0</ele><time>2026-04-21T07:53:03Z</time></trkpt><trkpt lat="43.824228553396026" lon="7.1892782401561615"><ele>109.0</ele><time>2026-04-21T07:53:04Z</time></trkpt><trkpt lat="43.82403746537475" lon="7.189213626868616"><ele>109.0</ele><time>2026-04-21T07:53:05Z</time></trkpt><trkpt lat="43.82385160917103" lon="7.189152542602346"><ele>109.0</ele><time>2026-04-21T07:53:06Z</time></trkpt><trkpt lat="43.82366756067835" lon="7.189092301072239"><ele>109.0</ele><time>2026-04-21T07:53:07Z</time></trkpt><trkpt lat="43.82348611063582" lon="7.189034541150165"><ele>109.0</ele><time>2026-04-21T07:53:08Z</time></trkpt><trkpt lat="43.82332082026128" lon="7.18898289560882"><ele>109.0</ele><time>2026-04-21T07:53:09Z</time></trkpt><trkpt lat="43.82316982520059" lon="7.188933900825552"><ele>108.2</ele><time>2026-04-21T07:53:10Z</time></trkpt><trkpt lat="43.82303892863641" lon="7.188892037224384"><ele>107.4</ele><time>2026-04-21T07:53:11Z</time></trkpt><trkpt lat="43.82292548743783" lon="7.188855588196855"><ele>106.6</ele><time>2026-04-21T07:53:12Z</time></trkpt><trkpt lat="43.82282285784702" lon="7.188826557747479"><ele>105.8</ele><time>2026-04-21T07:53:13Z</time></trkpt><trkpt lat="43.82273022065499" lon="7.1888047999959355"><ele>105.0</ele><time>2026-04-21T07:53:14Z</time></trkpt><trkpt lat="43.82264308708681" lon="7.188781897807966"><ele>105.0</ele><time>2026-04-21T07:53:15Z</time></trkpt><trkpt lat="43.8225636140126" lon="7.18875720047762"><ele>105.0</ele><time>2026-04-21T07:53:16Z</time></trkpt><trkpt lat="43.8224928504075" lon="7.188740098826168"><ele>105.0</ele><time>2026-04-21T07:53:17Z</time></trkpt><trkpt lat="43.82237220853082" lon="7.188735390588798"><ele>105.0</ele><time>2026-04-21T07:53:19Z</time></trkpt><trkpt lat="43.822296885090154" lon="7.188718339169499"><ele>105.0</ele><time>2026-04-21T07:53:20Z</time></trkpt><trkpt lat="43.82221589928117" lon="7.1886913279695435"><ele>105.0</ele><time>2026-04-21T07:53:21Z</time></trkpt><trkpt lat="43.82212221483821" lon="7.1886560108192326"><ele>105.0</ele><time>2026-04-21T07:53:22Z</time></trkpt><trkpt lat="43.8220191746844" lon="7.1886312274077335"><ele>105.0</ele><time>2026-04-21T07:53:23Z</time></trkpt><trkpt lat="43.82192662722645" lon="7.188586684790431"><ele>105.0</ele><time>2026-04-21T07:53:24Z</time></trkpt><trkpt lat="43.82182602442439" lon="7.188572984705668"><ele>105.0</ele><time>2026-04-21T07:53:25Z</time></trkpt><trkpt lat="43.821720555815595" lon="7.188531565861343"><ele>105.0</ele><time>2026-04-21T07:53:26Z</time></trkpt><trkpt lat="43.82160108441556" lon="7.188506884245829"><ele>105.25</ele><time>2026-04-21T07:53:27Z</time></trkpt><trkpt lat="43.821488881670575" lon="7.188503066366481"><ele>105.5</ele><time>2026-04-21T07:53:28Z</time></trkpt><trkpt lat="43.821381656909345" lon="7.188504952047312"><ele>105.75</ele><time>2026-04-21T07:53:29Z</time></trkpt><trkpt lat="43.821268414878716" lon="7.188510223248438"><ele>106.0</ele><time>2026-04-21T07:53:30Z</time></trkpt><trkpt lat="43.821145033147694" lon="7.1885116582243365"><ele>106.0</ele><time>2026-04-21T07:53:31Z</time></trkpt><trkpt lat="43.82101328601778" lon="7.188499489811977"><ele>106.0</ele><time>2026-04-21T07:53:32Z</time></trkpt><trkpt lat="43.82087461662822" lon="7.1884854853378295"><ele>106.0</ele><time>2026-04-21T07:53:33Z</time></trkpt><trkpt lat="43.820732414641064" lon="7.18846946518587"><ele>106.0</ele><time>2026-04-21T07:53:34Z</time></trkpt><trkpt lat="43.82060292808209" lon="7.18844731555251"><ele>106.0</ele><time>2026-04-21T07:53:35Z</time></trkpt><trkpt lat="43.82048737172413" lon="7.188419452749058"><ele>106.0</ele><time>2026-04-21T07:53:36Z</time></trkpt><trkpt lat="43.82038264690287" lon="7.188387038265807"><ele>106.0</ele><time>2026-04-21T07:53:37Z</time></trkpt><trkpt lat="43.82028107057838" lon="7.188356397759186"><ele>106.0</ele><time>2026-04-21T07:53:38Z</time></trkpt><trkpt lat="43.82018427248469" lon="7.188332273722443"><ele>106.0</ele><time>2026-04-21T07:53:39Z</time></trkpt><trkpt lat="43.82009574769757" lon="7.188314514483933"><ele>105.8</ele><time>2026-04-21T07:53:40Z</time></trkpt><trkpt lat="43.820008046578366" lon="7.1883015690669945"><ele>105.6</ele><time>2026-04-21T07:53:41Z</time></trkpt><trkpt lat="43.81991240321372" lon="7.18827994082561"><ele>105.4</ele><time>2026-04-21T07:53:42Z</time></trkpt><trkpt lat="43.819804598223534" lon="7.188243734908464"><ele>105.2</ele><time>2026-04-21T07:53:43Z</time></trkpt><trkpt lat="43.81967793429386" lon="7.1882135904959"><ele>105.0</ele><time>2026-04-21T07:53:44Z</time></trkpt><trkpt lat="43.819539623964545" lon="7.188168247941501"><ele>104.0</ele><time>2026-04-21T07:53:45Z</time></trkpt><trkpt lat="43.81939070286957" lon="7.18811712829538"><ele>103.0</ele><time>2026-04-21T07:53:46Z</time></trkpt><trkpt lat="43.819227719529174" lon="7.188071466345587"><ele>102.0</ele><time>2026-04-21T07:53:47Z</time></trkpt><trkpt lat="43.819056901126814" lon="7.188033418202007"><ele>102.0</ele><time>2026-04-21T07:53:48Z</time></trkpt><trkpt lat="43.81887513717349" lon="7.188018794200955"><ele>102.0</ele><time>2026-04-21T07:53:49Z</time></trkpt><trkpt lat="43.81868243802578" lon="7.188017413182387"><ele>102.0</ele><time>2026-04-21T07:53:50Z</time></trkpt><trkpt lat="43.81848038045343" lon="7.188021531006655"><ele>101.66666666666666</ele><time>2026-04-21T07:53:51Z</time></trkpt><trkpt lat="43.81826563151688" lon="7.188006780799029"><ele>101.33333333333333</ele><time>2026-04-21T07:53:52Z</time></trkpt><trkpt lat="43.818049565007264" lon="7.188014222254163"><ele>101.0</ele><time>2026-04-21T07:53:53Z</time></trkpt><trkpt lat="43.8178245412097" lon="7.1880262574315"><ele>100.5</ele><time>2026-04-21T07:53:54Z</time></trkpt><trkpt lat="43.817591523352284" lon="7.1880412118116235"><ele>100.0</ele><time>2026-04-21T07:53:55Z</time></trkpt><trkpt lat="43.81735180020272" lon="7.188057632286372"><ele>100.0</ele><time>2026-04-21T07:53:56Z</time></trkpt><trkpt lat="43.817109067918054" lon="7.1880793797768945"><ele>100.0</ele><time>2026-04-21T07:53:57Z</time></trkpt><trkpt lat="43.81686455735195" lon="7.188139176516047"><ele>100.5</ele><time>2026-04-21T07:53:58Z</time></trkpt><trkpt lat="43.816617965632" lon="7.188180842274108"><ele>101.0</ele><time>2026-04-21T07:53:59Z</time></trkpt><trkpt lat="43.81637031285933" lon="7.188228058203891"><ele>101.0</ele><time>2026-04-21T07:54:00Z</time></trkpt><trkpt lat="43.816123267766" lon="7.188277999890084"><ele>101.0</ele><time>2026-04-21T07:54:01Z</time></trkpt><trkpt lat="43.81587541974456" lon="7.188332731308191"><ele>101.0</ele><time>2026-04-21T07:54:02Z</time></trkpt><trkpt lat="43.81562865049821" lon="7.188391063497957"><ele>101.0</ele><time>2026-04-21T07:54:03Z</time></trkpt><trkpt lat="43.815385221991924" lon="7.188458081181179"><ele>101.0</ele><time>2026-04-21T07:54:04Z</time></trkpt><trkpt lat="43.8151494215378" lon="7.188532575960554"><ele>101.0</ele><time>2026-04-21T07:54:05Z</time></trkpt><trkpt lat="43.814910949316825" lon="7.188586212820618"><ele>101.0</ele><time>2026-04-21T07:54:06Z</time></trkpt><trkpt lat="43.814676310356134" lon="7.1886662536125145"><ele>101.0</ele><time>2026-04-21T07:54:07Z</time></trkpt><trkpt lat="43.81444288318667" lon="7.1887515612959945"><ele>100.5</ele><time>2026-04-21T07:54:08Z</time></trkpt><trkpt lat="43.814210706258606" lon="7.188843895788221"><ele>100.0</ele><time>2026-04-21T07:54:09Z</time></trkpt><trkpt lat="43.813980997778394" lon="7.188939473329644"><ele>101.0</ele><time>2026-04-21T07:54:10Z</time></trkpt><trkpt lat="43.813753699548286" lon="7.189040670002474"><ele>102.0</ele><time>2026-04-21T07:54:11Z</time></trkpt><trkpt lat="43.81352944551335" lon="7.189146660630922"><ele>101.5</ele><time>2026-04-21T07:54:12Z</time></trkpt><trkpt lat="43.8133127032824" lon="7.189276710820737"><ele>101.0</ele><time>2026-04-21T07:54:13Z</time></trkpt><trkpt lat="43.81309020780698" lon="7.1893823830384"><ele>101.0</ele><time>2026-04-21T07:54:14Z</time></trkpt><trkpt lat="43.812869847589305" lon="7.189491501340803"><ele>101.0</ele><time>2026-04-21T07:54:15Z</time></trkpt><trkpt lat="43.81265112485369" lon="7.189603686273768"><ele>99.5</ele><time>2026-04-21T07:54:16Z</time></trkpt><trkpt lat="43.812433282765156" lon="7.189715873359725"><ele>98.0</ele><time>2026-04-21T07:54:17Z</time></trkpt><trkpt lat="43.81221700285069" lon="7.189838628127886"><ele>97.5</ele><time>2026-04-21T07:54:18Z</time></trkpt><trkpt lat="43.81200136585247" lon="7.189971826795031"><ele>97.0</ele><time>2026-04-21T07:54:19Z</time></trkpt><trkpt lat="43.811787191047635" lon="7.190113042025214"><ele>97.0</ele><time>2026-04-21T07:54:20Z</time></trkpt><trkpt lat="43.811575237306606" lon="7.19025897030441"><ele>97.0</ele><time>2026-04-21T07:54:21Z</time></trkpt><trkpt lat="43.81136494858471" lon="7.1904086072245645"><ele>97.0</ele><time>2026-04-21T07:54:22Z</time></trkpt><trkpt lat="43.81115657692177" lon="7.190563371320683"><ele>97.0</ele><time>2026-04-21T07:54:23Z</time></trkpt><trkpt lat="43.810949702966035" lon="7.190721839433128"><ele>97.0</ele><time>2026-04-21T07:54:24Z</time></trkpt><trkpt lat="43.81074588137925" lon="7.190880268864346"><ele>97.0</ele><time>2026-04-21T07:54:25Z</time></trkpt><trkpt lat="43.81055501522979" lon="7.19104617806363"><ele>97.0</ele><time>2026-04-21T07:54:26Z</time></trkpt><trkpt lat="43.8103671253021" lon="7.191232697741107"><ele>97.0</ele><time>2026-04-21T07:54:27Z</time></trkpt><trkpt lat="43.810181233875184" lon="7.191428295656372"><ele>98.0</ele><time>2026-04-21T07:54:28Z</time></trkpt><trkpt lat="43.809994527636746" lon="7.191631138241381"><ele>99.0</ele><time>2026-04-21T07:54:29Z</time></trkpt><trkpt lat="43.80980818582674" lon="7.191842428658107"><ele>99.0</ele><time>2026-04-21T07:54:30Z</time></trkpt><trkpt lat="43.80962217339738" lon="7.192059277078225"><ele>99.0</ele><time>2026-04-21T07:54:31Z</time></trkpt><trkpt lat="43.80943338225655" lon="7.192276395049126"><ele>97.5</ele><time>2026-04-21T07:54:32Z</time></trkpt><trkpt lat="43.8092428415219" lon="7.192493811094533"><ele>96.0</ele><time>2026-04-21T07:54:33Z</time></trkpt><trkpt lat="43.80905553556945" lon="7.1927102136348235"><ele>96.0</ele><time>2026-04-21T07:54:34Z</time></trkpt><trkpt lat="43.80886645909728" lon="7.192927776439686"><ele>96.0</ele><time>2026-04-21T07:54:35Z</time></trkpt><trkpt lat="43.808678265725604" lon="7.193148381441257"><ele>96.5</ele><time>2026-04-21T07:54:36Z</time></trkpt><trkpt lat="43.80849345136655" lon="7.193373729464925"><ele>97.0</ele><time>2026-04-21T07:54:37Z</time></trkpt><trkpt lat="43.80830812156303" lon="7.193599756653283"><ele>96.5</ele><time>2026-04-21T07:54:38Z</time></trkpt><trkpt lat="43.80811237306492" lon="7.193806100942183"><ele>96.0</ele><time>2026-04-21T07:54:39Z</time></trkpt><trkpt lat="43.80792543769127" lon="7.194023568844202"><ele>96.0</ele><time>2026-04-21T07:54:40Z</time></trkpt><trkpt lat="43.807736099783895" lon="7.194243837485837"><ele>96.0</ele><time>2026-04-21T07:54:41Z</time></trkpt><trkpt lat="43.807545240660275" lon="7.194466056865039"><ele>95.5</ele><time>2026-04-21T07:54:42Z</time></trkpt><trkpt lat="43.80735390757382" lon="7.194689440682004"><ele>95.0</ele><time>2026-04-21T07:54:43Z</time></trkpt><trkpt lat="43.80716080588278" lon="7.194914889345743"><ele>95.0</ele><time>2026-04-21T07:54:44Z</time></trkpt><trkpt lat="43.80696718417886" lon="7.195140945148989"><ele>95.0</ele><time>2026-04-21T07:54:45Z</time></trkpt><trkpt lat="43.80677254017247" lon="7.195367379917942"><ele>94.5</ele><time>2026-04-21T07:54:46Z</time></trkpt><trkpt lat="43.80657836517408" lon="7.19559290495658"><ele>94.0</ele><time>2026-04-21T07:54:47Z</time></trkpt><trkpt lat="43.806383189156364" lon="7.195815796746378"><ele>94.0</ele><time>2026-04-21T07:54:48Z</time></trkpt><trkpt lat="43.80618864790408" lon="7.1960381276717795"><ele>94.0</ele><time>2026-04-21T07:54:49Z</time></trkpt><trkpt lat="43.80599600273483" lon="7.196261492835982"><ele>93.0</ele><time>2026-04-21T07:54:50Z</time></trkpt><trkpt lat="43.80580459940369" lon="7.196485025308154"><ele>92.0</ele><time>2026-04-21T07:54:51Z</time></trkpt><trkpt lat="43.805612412627056" lon="7.196709766051262"><ele>92.0</ele><time>2026-04-21T07:54:52Z</time></trkpt><trkpt lat="43.8054207144586" lon="7.19693393869167"><ele>92.0</ele><time>2026-04-21T07:54:53Z</time></trkpt><trkpt lat="43.805237878914006" lon="7.1971712607623655"><ele>92.5</ele><time>2026-04-21T07:54:54Z</time></trkpt><trkpt lat="43.80504438663308" lon="7.197389077578307"><ele>93.0</ele><time>2026-04-21T07:54:55Z</time></trkpt><trkpt lat="43.80485369857946" lon="7.1976114650067755"><ele>93.0</ele><time>2026-04-21T07:54:56Z</time></trkpt><trkpt lat="43.8046621948838" lon="7.197833463668616"><ele>93.0</ele><time>2026-04-21T07:54:57Z</time></trkpt><trkpt lat="43.80447141909549" lon="7.198055006996499"><ele>92.0</ele><time>2026-04-21T07:54:58Z</time></trkpt><trkpt lat="43.80427950514622" lon="7.198272935874482"><ele>91.0</ele><time>2026-04-21T07:54:59Z</time></trkpt><trkpt lat="43.80408859691083" lon="7.198488502324462"><ele>91.0</ele><time>2026-04-21T07:55:00Z</time></trkpt><trkpt lat="43.803899432481415" lon="7.198705339394122"><ele>91.0</ele><time>2026-04-21T07:55:01Z</time></trkpt><trkpt lat="43.80371064197455" lon="7.198923464802622"><ele>91.0</ele><time>2026-04-21T07:55:02Z</time></trkpt><trkpt lat="43.80352331452438" lon="7.199142585548516"><ele>91.0</ele><time>2026-04-21T07:55:03Z</time></trkpt><trkpt lat="43.80333580378876" lon="7.199360800869898"><ele>91.0</ele><time>2026-04-21T07:55:04Z</time></trkpt><trkpt lat="43.80314765822995" lon="7.199577379899089"><ele>91.0</ele><time>2026-04-21T07:55:05Z</time></trkpt><trkpt lat="43.80296020529556" lon="7.199795858684142"><ele>91.0</ele><time>2026-04-21T07:55:06Z</time></trkpt><trkpt lat="43.80277275954903" lon="7.200012431800879"><ele>91.0</ele><time>2026-04-21T07:55:07Z</time></trkpt><trkpt lat="43.802585482385254" lon="7.200226599042276"><ele>90.0</ele><time>2026-04-21T07:55:08Z</time></trkpt><trkpt lat="43.80239896571956" lon="7.200444547798495"><ele>89.0</ele><time>2026-04-21T07:55:09Z</time></trkpt><trkpt lat="43.80221203005026" lon="7.200662079845411"><ele>90.0</ele><time>2026-04-21T07:55:10Z</time></trkpt><trkpt lat="43.802025495543354" lon="7.200877470347695"><ele>91.0</ele><time>2026-04-21T07:55:11Z</time></trkpt><trkpt lat="43.80183964552166" lon="7.201093087639448"><ele>90.5</ele><time>2026-04-21T07:55:12Z</time></trkpt><trkpt lat="43.80165476297792" lon="7.20130937737676"><ele>90.0</ele><time>2026-04-21T07:55:13Z</time></trkpt><trkpt lat="43.80146994169658" lon="7.2015251291624764"><ele>90.0</ele><time>2026-04-21T07:55:14Z</time></trkpt><trkpt lat="43.801284416031685" lon="7.201741053371382"><ele>90.0</ele><time>2026-04-21T07:55:15Z</time></trkpt><trkpt lat="43.80109972955889" lon="7.201954388112322"><ele>90.0</ele><time>2026-04-21T07:55:16Z</time></trkpt><trkpt lat="43.80092187219048" lon="7.202158464072022"><ele>90.0</ele><time>2026-04-21T07:55:17Z</time></trkpt><trkpt lat="43.8007499971744" lon="7.202361201150295"><ele>90.0</ele><time>2026-04-21T07:55:18Z</time></trkpt><trkpt lat="43.80059051284168" lon="7.2025483451040495"><ele>90.0</ele><time>2026-04-21T07:55:19Z</time></trkpt><trkpt lat="43.800443156582794" lon="7.202717721284579"><ele>90.0</ele><time>2026-04-21T07:55:20Z</time></trkpt><trkpt lat="43.80031008206305" lon="7.202880566526688"><ele>90.0</ele><time>2026-04-21T07:55:21Z</time></trkpt><trkpt lat="43.80017264335966" lon="7.203029441527019"><ele>90.0</ele><time>2026-04-21T07:55:22Z</time></trkpt><trkpt lat="43.80006055314679" lon="7.203213457674793"><ele>90.0</ele><time>2026-04-21T07:55:23Z</time></trkpt><trkpt lat="43.79994980666536" lon="7.203377593972961"><ele>90.0</ele><time>2026-04-21T07:55:24Z</time></trkpt><trkpt lat="43.79984962160786" lon="7.2035248167822195"><ele>90.0</ele><time>2026-04-21T07:55:25Z</time></trkpt><trkpt lat="43.799764522690396" lon="7.203639889948929"><ele>90.0</ele><time>2026-04-21T07:55:26Z</time></trkpt><trkpt lat="43.799689123442974" lon="7.203734259591933"><ele>90.0</ele><time>2026-04-21T07:55:27Z</time></trkpt><trkpt lat="43.799623656746206" lon="7.203830564932251"><ele>90.0</ele><time>2026-04-21T07:55:28Z</time></trkpt><trkpt lat="43.79954227229015" lon="7.203867891604155"><ele>90.0</ele><time>2026-04-21T07:55:29Z</time></trkpt><trkpt lat="43.79948278032442" lon="7.203925917311219"><ele>90.0</ele><time>2026-04-21T07:55:30Z</time></trkpt><trkpt lat="43.79942791669688" lon="7.203991681752283"><ele>90.0</ele><time>2026-04-21T07:55:31Z</time></trkpt><trkpt lat="43.799371028727016" lon="7.204078057593582"><ele>90.0</ele><time>2026-04-21T07:55:32Z</time></trkpt><trkpt lat="43.799300678120304" lon="7.204174894027022"><ele>90.0</ele><time>2026-04-21T07:55:33Z</time></trkpt><trkpt lat="43.799217466861876" lon="7.204278698225058"><ele>89.75</ele><time>2026-04-21T07:55:34Z</time></trkpt><trkpt lat="43.7991079803825" lon="7.204376989397328"><ele>89.5</ele><time>2026-04-21T07:55:35Z</time></trkpt><trkpt lat="43.79898126335826" lon="7.204485644424117"><ele>89.25</ele><time>2026-04-21T07:55:36Z</time></trkpt><trkpt lat="43.79884971525998" lon="7.204619912279725"><ele>89.0</ele><time>2026-04-21T07:55:37Z</time></trkpt><trkpt lat="43.798711726056425" lon="7.204778399767131"><ele>89.0</ele><time>2026-04-21T07:55:38Z</time></trkpt><trkpt lat="43.798568952910976" lon="7.204940540307332"><ele>89.0</ele><time>2026-04-21T07:55:39Z</time></trkpt><trkpt lat="43.79841274633721" lon="7.205106477696502"><ele>89.0</ele><time>2026-04-21T07:55:40Z</time></trkpt><trkpt lat="43.79824688122867" lon="7.2052780138548185"><ele>88.33333333333334</ele><time>2026-04-21T07:55:41Z</time></trkpt><trkpt lat="43.798077020736606" lon="7.205462851681153"><ele>87.66666666666667</ele><time>2026-04-21T07:55:42Z</time></trkpt><trkpt lat="43.797907303230645" lon="7.205660958137364"><ele>87.0</ele><time>2026-04-21T07:55:43Z</time></trkpt><trkpt lat="43.79774037575675" lon="7.205865756708483"><ele>86.5</ele><time>2026-04-21T07:55:44Z</time></trkpt><trkpt lat="43.797565689120205" lon="7.20607419568462"><ele>86.0</ele><time>2026-04-21T07:55:45Z</time></trkpt><trkpt lat="43.7973854216171" lon="7.20628611061184"><ele>86.0</ele><time>2026-04-21T07:55:46Z</time></trkpt><trkpt lat="43.797201484848486" lon="7.206499588012254"><ele>86.0</ele><time>2026-04-21T07:55:47Z</time></trkpt><trkpt lat="43.79701696317331" lon="7.206711375314335"><ele>84.5</ele><time>2026-04-21T07:55:48Z</time></trkpt><trkpt lat="43.796828886598384" lon="7.206930797964225"><ele>83.0</ele><time>2026-04-21T07:55:49Z</time></trkpt><trkpt lat="43.79665145830354" lon="7.207142671569498"><ele>83.66666666666667</ele><time>2026-04-21T07:55:50Z</time></trkpt><trkpt lat="43.79648062471443" lon="7.207340283844867"><ele>84.33333333333333</ele><time>2026-04-21T07:55:51Z</time></trkpt><trkpt lat="43.79630822148567" lon="7.207529115978138"><ele>85.0</ele><time>2026-04-21T07:55:52Z</time></trkpt><trkpt lat="43.79614006729803" lon="7.207729274611499"><ele>84.66666666666666</ele><time>2026-04-21T07:55:53Z</time></trkpt><trkpt lat="43.79597179743254" lon="7.2079319740239285"><ele>84.33333333333333</ele><time>2026-04-21T07:55:54Z</time></trkpt><trkpt lat="43.79579799727393" lon="7.208129315296548"><ele>84.0</ele><time>2026-04-21T07:55:55Z</time></trkpt><trkpt lat="43.79562239088854" lon="7.208326886170429"><ele>85.0</ele><time>2026-04-21T07:55:56Z</time></trkpt><trkpt lat="43.7954471533638" lon="7.2085305129195865"><ele>86.0</ele><time>2026-04-21T07:55:57Z</time></trkpt><trkpt lat="43.79526985484181" lon="7.208736911791018"><ele>85.0</ele><time>2026-04-21T07:55:58Z</time></trkpt><trkpt lat="43.795090076806346" lon="7.208944145142751"><ele>84.0</ele><time>2026-04-21T07:55:59Z</time></trkpt><trkpt lat="43.79491032608836" lon="7.209154072747998"><ele>83.5</ele><time>2026-04-21T07:56:00Z</time></trkpt><trkpt lat="43.79473143086328" lon="7.209367779110046"><ele>83.0</ele><time>2026-04-21T07:56:01Z</time></trkpt><trkpt lat="43.79455599778199" lon="7.2095767278398775"><ele>83.0</ele><time>2026-04-21T07:56:02Z</time></trkpt><trkpt lat="43.79437745562007" lon="7.209784769453118"><ele>83.0</ele><time>2026-04-21T07:56:03Z</time></trkpt><trkpt lat="43.79419663927266" lon="7.209988986297988"><ele>83.0</ele><time>2026-04-21T07:56:04Z</time></trkpt><trkpt lat="43.79402095956305" lon="7.210191331315296"><ele>83.0</ele><time>2026-04-21T07:56:05Z</time></trkpt><trkpt lat="43.79384301410673" lon="7.210399088903898"><ele>83.0</ele><time>2026-04-21T07:56:06Z</time></trkpt><trkpt lat="43.7936613036564" lon="7.210612391414314"><ele>83.0</ele><time>2026-04-21T07:56:07Z</time></trkpt><trkpt lat="43.79347677346485" lon="7.2108267804199455"><ele>82.5</ele><time>2026-04-21T07:56:08Z</time></trkpt><trkpt lat="43.79329291923342" lon="7.21103764773349"><ele>82.0</ele><time>2026-04-21T07:56:09Z</time></trkpt><trkpt lat="43.7931146707369" lon="7.211242439202414"><ele>82.0</ele><time>2026-04-21T07:56:10Z</time></trkpt><trkpt lat="43.79294131955813" lon="7.211442668163654"><ele>82.0</ele><time>2026-04-21T07:56:11Z</time></trkpt><trkpt lat="43.79277167085162" lon="7.211639454795044"><ele>82.0</ele><time>2026-04-21T07:56:12Z</time></trkpt><trkpt lat="43.79260673616246" lon="7.2118335304388665"><ele>82.0</ele><time>2026-04-21T07:56:13Z</time></trkpt><trkpt lat="43.79244861610722" lon="7.212018292082503"><ele>82.0</ele><time>2026-04-21T07:56:14Z</time></trkpt><trkpt lat="43.7922967216644" lon="7.212194912462661"><ele>82.0</ele><time>2026-04-21T07:56:15Z</time></trkpt><trkpt lat="43.79215083084704" lon="7.2123637391628295"><ele>82.0</ele><time>2026-04-21T07:56:16Z</time></trkpt><trkpt lat="43.792012339062886" lon="7.212526841989098"><ele>82.0</ele><time>2026-04-21T07:56:17Z</time></trkpt><trkpt lat="43.79188253086018" lon="7.212687204023073"><ele>82.0</ele><time>2026-04-21T07:56:18Z</time></trkpt><trkpt lat="43.79175227945416" lon="7.212850491395027"><ele>82.0</ele><time>2026-04-21T07:56:19Z</time></trkpt><trkpt lat="43.79161984362114" lon="7.213022451996884"><ele>82.0</ele><time>2026-04-21T07:56:20Z</time></trkpt><trkpt lat="43.791496938480705" lon="7.213188021628031"><ele>82.0</ele><time>2026-04-21T07:56:21Z</time></trkpt><trkpt lat="43.7913792399436" lon="7.213350530339021"><ele>82.0</ele><time>2026-04-21T07:56:22Z</time></trkpt><trkpt lat="43.79127064947172" lon="7.213498453441837"><ele>82.0</ele><time>2026-04-21T07:56:23Z</time></trkpt><trkpt lat="43.79118050615368" lon="7.213614940165575"><ele>82.0</ele><time>2026-04-21T07:56:24Z</time></trkpt><trkpt lat="43.79112355436412" lon="7.213721527803329"><ele>82.0</ele><time>2026-04-21T07:56:25Z</time></trkpt><trkpt lat="43.791051847418785" lon="7.213794514984317"><ele>81.8</ele><time>2026-04-21T07:56:26Z</time></trkpt><trkpt lat="43.790972304955545" lon="7.213812324124234"><ele>81.6</ele><time>2026-04-21T07:56:27Z</time></trkpt><trkpt lat="43.79090530082396" lon="7.213857791893258"><ele>81.39999999999999</ele><time>2026-04-21T07:56:28Z</time></trkpt><trkpt lat="43.790834507626364" lon="7.213932581241817"><ele>81.19999999999999</ele><time>2026-04-21T07:56:29Z</time></trkpt><trkpt lat="43.79076796491186" lon="7.214041506894513"><ele>81.0</ele><time>2026-04-21T07:56:30Z</time></trkpt><trkpt lat="43.790686024088465" lon="7.214163732731096"><ele>81.0</ele><time>2026-04-21T07:56:31Z</time></trkpt><trkpt lat="43.790571240670936" lon="7.214273514272708"><ele>81.0</ele><time>2026-04-21T07:56:32Z</time></trkpt><trkpt lat="43.790445171324805" lon="7.2143724249531"><ele>81.0</ele><time>2026-04-21T07:56:33Z</time></trkpt><trkpt lat="43.7903069372603" lon="7.214476221121008"><ele>81.0</ele><time>2026-04-21T07:56:34Z</time></trkpt><trkpt lat="43.79015945311183" lon="7.214602688075328"><ele>81.0</ele><time>2026-04-21T07:56:35Z</time></trkpt><trkpt lat="43.79000470927069" lon="7.214741672605681"><ele>81.0</ele><time>2026-04-21T07:56:36Z</time></trkpt><trkpt lat="43.78984232360271" lon="7.214881936550648"><ele>81.0</ele><time>2026-04-21T07:56:37Z</time></trkpt><trkpt lat="43.78967489561267" lon="7.215021100103317"><ele>81.0</ele><time>2026-04-21T07:56:38Z</time></trkpt><trkpt lat="43.78949355865996" lon="7.215165982971169"><ele>81.0</ele><time>2026-04-21T07:56:39Z</time></trkpt><trkpt lat="43.789300715076976" lon="7.215307633075007"><ele>81.0</ele><time>2026-04-21T07:56:40Z</time></trkpt><trkpt lat="43.78909759787678" lon="7.2154442547147974"><ele>79.5</ele><time>2026-04-21T07:56:41Z</time></trkpt><trkpt lat="43.78889383756623" lon="7.215576694205696"><ele>78.0</ele><time>2026-04-21T07:56:42Z</time></trkpt><trkpt lat="43.78868673350467" lon="7.215717411097474"><ele>77.5</ele><time>2026-04-21T07:56:43Z</time></trkpt><trkpt lat="43.78847301809908" lon="7.2158595142022195"><ele>77.0</ele><time>2026-04-21T07:56:44Z</time></trkpt><trkpt lat="43.78826243219277" lon="7.215990407927251"><ele>77.0</ele><time>2026-04-21T07:56:45Z</time></trkpt><trkpt lat="43.7880464616288" lon="7.216119268454125"><ele>77.0</ele><time>2026-04-21T07:56:46Z</time></trkpt><trkpt lat="43.78782330379529" lon="7.216243875002192"><ele>77.0</ele><time>2026-04-21T07:56:47Z</time></trkpt><trkpt lat="43.78759484089027" lon="7.2163642211551995"><ele>77.0</ele><time>2026-04-21T07:56:48Z</time></trkpt><trkpt lat="43.78736258414042" lon="7.216479041768735"><ele>77.5</ele><time>2026-04-21T07:56:49Z</time></trkpt><trkpt lat="43.787127463839944" lon="7.216591673632119"><ele>78.0</ele><time>2026-04-21T07:56:50Z</time></trkpt><trkpt lat="43.7868906940961" lon="7.216704938188216"><ele>77.5</ele><time>2026-04-21T07:56:51Z</time></trkpt><trkpt lat="43.786655115438464" lon="7.21681063041913"><ele>77.0</ele><time>2026-04-21T07:56:52Z</time></trkpt><trkpt lat="43.786425068196316" lon="7.216905178743384"><ele>77.0</ele><time>2026-04-21T07:56:53Z</time></trkpt><trkpt lat="43.78619251764588" lon="7.216996515610927"><ele>77.0</ele><time>2026-04-21T07:56:54Z</time></trkpt><trkpt lat="43.785955928392404" lon="7.217086397985515"><ele>76.5</ele><time>2026-04-21T07:56:55Z</time></trkpt><trkpt lat="43.785717931891895" lon="7.217175056894567"><ele>76.0</ele><time>2026-04-21T07:56:56Z</time></trkpt><trkpt lat="43.78547978673525" lon="7.21725864604673"><ele>76.0</ele><time>2026-04-21T07:56:57Z</time></trkpt><trkpt lat="43.78523987224483" lon="7.217330814421623"><ele>76.0</ele><time>2026-04-21T07:56:58Z</time></trkpt><trkpt lat="43.785001444768156" lon="7.217395341550904"><ele>75.0</ele><time>2026-04-21T07:56:59Z</time></trkpt><trkpt lat="43.78476423432675" lon="7.217458454960782"><ele>74.0</ele><time>2026-04-21T07:57:00Z</time></trkpt><trkpt lat="43.78452782596854" lon="7.217518748861408"><ele>73.0</ele><time>2026-04-21T07:57:01Z</time></trkpt><trkpt lat="43.78429186296023" lon="7.217576745286364"><ele>72.0</ele><time>2026-04-21T07:57:02Z</time></trkpt><trkpt lat="43.78405703312532" lon="7.217631340760653"><ele>72.0</ele><time>2026-04-21T07:57:03Z</time></trkpt><trkpt lat="43.78382306113609" lon="7.217679136738667"><ele>72.0</ele><time>2026-04-21T07:57:04Z</time></trkpt><trkpt lat="43.78358695050981" lon="7.217721091054456"><ele>74.0</ele><time>2026-04-21T07:57:05Z</time></trkpt><trkpt lat="43.78334708367797" lon="7.217761208074097"><ele>76.0</ele><time>2026-04-21T07:57:06Z</time></trkpt><trkpt lat="43.783107120494535" lon="7.217800873672605"><ele>76.0</ele><time>2026-04-21T07:57:07Z</time></trkpt><trkpt lat="43.782869609123516" lon="7.217827236689855"><ele>76.0</ele><time>2026-04-21T07:57:08Z</time></trkpt><trkpt lat="43.782637450526856" lon="7.21783999387154"><ele>74.5</ele><time>2026-04-21T07:57:09Z</time></trkpt><trkpt lat="43.78240533980527" lon="7.217849334556128"><ele>73.0</ele><time>2026-04-21T07:57:10Z</time></trkpt><trkpt lat="43.78216847770554" lon="7.217857286695451"><ele>73.0</ele><time>2026-04-21T07:57:11Z</time></trkpt><trkpt lat="43.7819278962573" lon="7.217862323718757"><ele>73.0</ele><time>2026-04-21T07:57:12Z</time></trkpt><trkpt lat="43.78168803390331" lon="7.217868498970971"><ele>72.0</ele><time>2026-04-21T07:57:13Z</time></trkpt><trkpt lat="43.78145166357497" lon="7.217871007558207"><ele>71.0</ele><time>2026-04-21T07:57:14Z</time></trkpt><trkpt lat="43.78121907082228" lon="7.217867462880862"><ele>71.33333333333334</ele><time>2026-04-21T07:57:15Z</time></trkpt><trkpt lat="43.780991902020794" lon="7.217863922890923"><ele>71.66666666666667</ele><time>2026-04-21T07:57:16Z</time></trkpt><trkpt lat="43.78077203398404" lon="7.217855148060981"><ele>72.0</ele><time>2026-04-21T07:57:17Z</time></trkpt><trkpt lat="43.780547117112874" lon="7.217840244665093"><ele>72.0</ele><time>2026-04-21T07:57:18Z</time></trkpt><trkpt lat="43.780319243091895" lon="7.217815804026748"><ele>72.0</ele><time>2026-04-21T07:57:19Z</time></trkpt><trkpt lat="43.78008996187773" lon="7.217782085282203"><ele>72.5</ele><time>2026-04-21T07:57:20Z</time></trkpt><trkpt lat="43.7798603316083" lon="7.217743611575633"><ele>73.0</ele><time>2026-04-21T07:57:21Z</time></trkpt><trkpt lat="43.77963210452532" lon="7.2177072345482"><ele>73.0</ele><time>2026-04-21T07:57:22Z</time></trkpt><trkpt lat="43.77940114414141" lon="7.217670688062033"><ele>73.0</ele><time>2026-04-21T07:57:23Z</time></trkpt><trkpt lat="43.779174627076415" lon="7.217630432411206"><ele>73.5</ele><time>2026-04-21T07:57:24Z</time></trkpt><trkpt lat="43.77894690973092" lon="7.2175816924659015"><ele>74.0</ele><time>2026-04-21T07:57:25Z</time></trkpt><trkpt lat="43.77871779075391" lon="7.217528211485487"><ele>74.0</ele><time>2026-04-21T07:57:26Z</time></trkpt><trkpt lat="43.778487412282296" lon="7.217469114088046"><ele>74.0</ele><time>2026-04-21T07:57:27Z</time></trkpt><trkpt lat="43.77825689312841" lon="7.217403556714739"><ele>74.0</ele><time>2026-04-21T07:57:28Z</time></trkpt><trkpt lat="43.778028643528195" lon="7.217330290443107"><ele>74.0</ele><time>2026-04-21T07:57:29Z</time></trkpt><trkpt lat="43.77780205724282" lon="7.217255266046804"><ele>72.0</ele><time>2026-04-21T07:57:30Z</time></trkpt><trkpt lat="43.77757690224698" lon="7.217178909174565"><ele>70.0</ele><time>2026-04-21T07:57:31Z</time></trkpt><trkpt lat="43.77735740134255" lon="7.217100869802421"><ele>70.0</ele><time>2026-04-21T07:57:32Z</time></trkpt><trkpt lat="43.77714063765554" lon="7.217018618241019"><ele>70.0</ele><time>2026-04-21T07:57:33Z</time></trkpt><trkpt lat="43.77692743043148" lon="7.2169301579646215"><ele>70.0</ele><time>2026-04-21T07:57:34Z</time></trkpt><trkpt lat="43.77671779531686" lon="7.2168402628294785"><ele>70.33333333333333</ele><time>2026-04-21T07:57:35Z</time></trkpt><trkpt lat="43.77650710384995" lon="7.216749191698435"><ele>70.66666666666667</ele><time>2026-04-21T07:57:36Z</time></trkpt><trkpt lat="43.77629715792334" lon="7.2166588859331116"><ele>71.0</ele><time>2026-04-21T07:57:37Z</time></trkpt><trkpt lat="43.77609159288839" lon="7.216562464698998"><ele>70.33333333333334</ele><time>2026-04-21T07:57:38Z</time></trkpt><trkpt lat="43.77589058054644" lon="7.216464906343834"><ele>69.66666666666667</ele><time>2026-04-21T07:57:39Z</time></trkpt><trkpt lat="43.775699714671724" lon="7.216366020031589"><ele>69.0</ele><time>2026-04-21T07:57:40Z</time></trkpt><trkpt lat="43.7755084304268" lon="7.2162653947461655"><ele>69.0</ele><time>2026-04-21T07:57:41Z</time></trkpt><trkpt lat="43.77531962689639" lon="7.216162363629122"><ele>69.0</ele><time>2026-04-21T07:57:42Z</time></trkpt><trkpt lat="43.775135055010466" lon="7.216058196121515"><ele>69.0</ele><time>2026-04-21T07:57:43Z</time></trkpt><trkpt lat="43.77495643135925" lon="7.215949897625449"><ele>69.33333333333333</ele><time>2026-04-21T07:57:44Z</time></trkpt><trkpt lat="43.774779176974455" lon="7.215836636524514"><ele>69.66666666666666</ele><time>2026-04-21T07:57:45Z</time></trkpt><trkpt lat="43.77460052201742" lon="7.215722300104968"><ele>70.0</ele><time>2026-04-21T07:57:46Z</time></trkpt><trkpt lat="43.77441985478198" lon="7.215606784521862"><ele>70.0</ele><time>2026-04-21T07:57:47Z</time></trkpt><trkpt lat="43.77423795604404" lon="7.21548788122275"><ele>70.0</ele><time>2026-04-21T07:57:48Z</time></trkpt><trkpt lat="43.77406621550499" lon="7.215371054955453"><ele>70.0</ele><time>2026-04-21T07:57:49Z</time></trkpt><trkpt lat="43.77390205896375" lon="7.2152533187936765"><ele>70.0</ele><time>2026-04-21T07:57:50Z</time></trkpt><trkpt lat="43.77373229014387" lon="7.215126832200395"><ele>70.0</ele><time>2026-04-21T07:57:51Z</time></trkpt><trkpt lat="43.77355473181648" lon="7.2149900032294845"><ele>70.0</ele><time>2026-04-21T07:57:52Z</time></trkpt><trkpt lat="43.7733831749552" lon="7.214854211412212"><ele>68.66666666666666</ele><time>2026-04-21T07:57:53Z</time></trkpt><trkpt lat="43.77321033943365" lon="7.214719199336933"><ele>67.33333333333333</ele><time>2026-04-21T07:57:54Z</time></trkpt><trkpt lat="43.77304250273621" lon="7.214591046105494"><ele>66.0</ele><time>2026-04-21T07:57:55Z</time></trkpt><trkpt lat="43.77288165595786" lon="7.214464263863368"><ele>66.0</ele><time>2026-04-21T07:57:56Z</time></trkpt><trkpt lat="43.77272843382448" lon="7.214335069407649"><ele>66.0</ele><time>2026-04-21T07:57:57Z</time></trkpt><trkpt lat="43.772575080102364" lon="7.214199870709466"><ele>66.0</ele><time>2026-04-21T07:57:58Z</time></trkpt><trkpt lat="43.77243198748233" lon="7.214074703094762"><ele>65.25</ele><time>2026-04-21T07:57:59Z</time></trkpt><trkpt lat="43.772295091914195" lon="7.213953370342641"><ele>64.5</ele><time>2026-04-21T07:58:00Z</time></trkpt><trkpt lat="43.77216761265001" lon="7.21384501037506"><ele>63.75</ele><time>2026-04-21T07:58:01Z</time></trkpt><trkpt lat="43.77205378753869" lon="7.213756355937762"><ele>63.0</ele><time>2026-04-21T07:58:02Z</time></trkpt><trkpt lat="43.771944982978475" lon="7.213682828954809"><ele>63.75</ele><time>2026-04-21T07:58:03Z</time></trkpt><trkpt lat="43.7718518018011" lon="7.213616468218436"><ele>64.5</ele><time>2026-04-21T07:58:04Z</time></trkpt><trkpt lat="43.771769630347976" lon="7.213501768297384"><ele>65.25</ele><time>2026-04-21T07:58:05Z</time></trkpt><trkpt lat="43.77166161902011" lon="7.21342256673022"><ele>66.0</ele><time>2026-04-21T07:58:06Z</time></trkpt><trkpt lat="43.771557727241756" lon="7.213304721828063"><ele>66.0</ele><time>2026-04-21T07:58:07Z</time></trkpt><trkpt lat="43.77144618486231" lon="7.213164436825226"><ele>66.0</ele><time>2026-04-21T07:58:08Z</time></trkpt><trkpt lat="43.77132795228736" lon="7.213023777055825"><ele>66.0</ele><time>2026-04-21T07:58:09Z</time></trkpt><trkpt lat="43.771195853549955" lon="7.212880981561231"><ele>66.33333333333333</ele><time>2026-04-21T07:58:10Z</time></trkpt><trkpt lat="43.771052635863796" lon="7.212731547831312"><ele>66.66666666666666</ele><time>2026-04-21T07:58:11Z</time></trkpt><trkpt lat="43.770897963484906" lon="7.212583878206662"><ele>67.0</ele><time>2026-04-21T07:58:12Z</time></trkpt><trkpt lat="43.77073834621637" lon="7.212427577533785"><ele>66.66666666666666</ele><time>2026-04-21T07:58:13Z</time></trkpt><trkpt lat="43.77058572946657" lon="7.212244364140019"><ele>66.33333333333333</ele><time>2026-04-21T07:58:14Z</time></trkpt><trkpt lat="43.7704243589192" lon="7.212076529726698"><ele>66.0</ele><time>2026-04-21T07:58:15Z</time></trkpt><trkpt lat="43.7702461043566" lon="7.211920006179719"><ele>65.66666666666667</ele><time>2026-04-21T07:58:16Z</time></trkpt><trkpt lat="43.770074297688176" lon="7.211736191478693"><ele>65.33333333333334</ele><time>2026-04-21T07:58:17Z</time></trkpt><trkpt lat="43.769896609922945" lon="7.211549596539992"><ele>65.0</ele><time>2026-04-21T07:58:18Z</time></trkpt><trkpt lat="43.76971458865936" lon="7.211356131466629"><ele>65.5</ele><time>2026-04-21T07:58:19Z</time></trkpt><trkpt lat="43.769529104464524" lon="7.211154045996222"><ele>66.0</ele><time>2026-04-21T07:58:20Z</time></trkpt><trkpt lat="43.76933946314098" lon="7.21094754251404"><ele>66.0</ele><time>2026-04-21T07:58:21Z</time></trkpt><trkpt lat="43.76914677167847" lon="7.210744937626944"><ele>66.0</ele><time>2026-04-21T07:58:22Z</time></trkpt><trkpt lat="43.76895629299494" lon="7.210539211890238"><ele>65.0</ele><time>2026-04-21T07:58:23Z</time></trkpt><trkpt lat="43.76876527838727" lon="7.2103394228883"><ele>64.0</ele><time>2026-04-21T07:58:24Z</time></trkpt><trkpt lat="43.76858551096881" lon="7.210149593814348"><ele>64.5</ele><time>2026-04-21T07:58:25Z</time></trkpt><trkpt lat="43.76838886740298" lon="7.20993751425155"><ele>65.0</ele><time>2026-04-21T07:58:26Z</time></trkpt><trkpt lat="43.768208402889" lon="7.209747451856143"><ele>64.33333333333334</ele><time>2026-04-21T07:58:27Z</time></trkpt><trkpt lat="43.76803102378972" lon="7.209561934443936"><ele>63.66666666666667</ele><time>2026-04-21T07:58:28Z</time></trkpt><trkpt lat="43.767854406529196" lon="7.209372422329355"><ele>63.0</ele><time>2026-04-21T07:58:29Z</time></trkpt><trkpt lat="43.76768187205794" lon="7.209181179598998"><ele>62.66666666666667</ele><time>2026-04-21T07:58:30Z</time></trkpt><trkpt lat="43.767517150156685" lon="7.2089952989896116"><ele>62.333333333333336</ele><time>2026-04-21T07:58:31Z</time></trkpt><trkpt lat="43.767353729233385" lon="7.2088040425570625"><ele>62.0</ele><time>2026-04-21T07:58:32Z</time></trkpt><trkpt lat="43.76719459993322" lon="7.2086211235374185"><ele>62.0</ele><time>2026-04-21T07:58:33Z</time></trkpt><trkpt lat="43.76703994494707" lon="7.208446112410236"><ele>62.0</ele><time>2026-04-21T07:58:34Z</time></trkpt><trkpt lat="43.76687972542005" lon="7.2082633192840895"><ele>62.0</ele><time>2026-04-21T07:58:35Z</time></trkpt><trkpt lat="43.76671416677266" lon="7.208076773609811"><ele>62.0</ele><time>2026-04-21T07:58:36Z</time></trkpt><trkpt lat="43.76654404304012" lon="7.207888614024847"><ele>62.0</ele><time>2026-04-21T07:58:37Z</time></trkpt><trkpt lat="43.76636779565047" lon="7.207701818152914"><ele>62.0</ele><time>2026-04-21T07:58:38Z</time></trkpt><trkpt lat="43.76619019731274" lon="7.207515717901723"><ele>62.66666666666667</ele><time>2026-04-21T07:58:39Z</time></trkpt><trkpt lat="43.76602078939645" lon="7.207335926931753"><ele>63.33333333333333</ele><time>2026-04-21T07:58:40Z</time></trkpt><trkpt lat="43.76586054766781" lon="7.207165094667243"><ele>64.0</ele><time>2026-04-21T07:58:41Z</time></trkpt><trkpt lat="43.765711670772184" lon="7.20700327650374"><ele>64.33333333333333</ele><time>2026-04-21T07:58:42Z</time></trkpt><trkpt lat="43.765569643971055" lon="7.2068475788772215"><ele>64.66666666666667</ele><time>2026-04-21T07:58:43Z</time></trkpt><trkpt lat="43.76542681807057" lon="7.206693475804306"><ele>65.0</ele><time>2026-04-21T07:58:44Z</time></trkpt><trkpt lat="43.76528524913984" lon="7.206534762027673"><ele>64.0</ele><time>2026-04-21T07:58:45Z</time></trkpt><trkpt lat="43.76515069599123" lon="7.206379702831688"><ele>63.0</ele><time>2026-04-21T07:58:46Z</time></trkpt><trkpt lat="43.765018903799934" lon="7.206229494925355"><ele>62.0</ele><time>2026-04-21T07:58:47Z</time></trkpt><trkpt lat="43.76489652896896" lon="7.206096330276735"><ele>62.0</ele><time>2026-04-21T07:58:48Z</time></trkpt><trkpt lat="43.76477192010772" lon="7.205963342966309"><ele>62.0</ele><time>2026-04-21T07:58:49Z</time></trkpt><trkpt lat="43.764647981814534" lon="7.20582811948667"><ele>62.0</ele><time>2026-04-21T07:58:50Z</time></trkpt><trkpt lat="43.764524871203015" lon="7.205693608685929"><ele>62.0</ele><time>2026-04-21T07:58:51Z</time></trkpt><trkpt lat="43.76438398172269" lon="7.205548207574162"><ele>62.0</ele><time>2026-04-21T07:58:52Z</time></trkpt><trkpt lat="43.7642350867218" lon="7.20539795613556"><ele>62.0</ele><time>2026-04-21T07:58:53Z</time></trkpt><trkpt lat="43.764081139047825" lon="7.2052483855998855"><ele>62.0</ele><time>2026-04-21T07:58:54Z</time></trkpt><trkpt lat="43.763922146645726" lon="7.205097727006511"><ele>62.0</ele><time>2026-04-21T07:58:55Z</time></trkpt><trkpt lat="43.763766453345326" lon="7.204945768291528"><ele>62.0</ele><time>2026-04-21T07:58:56Z</time></trkpt><trkpt lat="43.76361785320094" lon="7.204791495248805"><ele>61.66666666666667</ele><time>2026-04-21T07:58:57Z</time></trkpt><trkpt lat="43.76346884809737" lon="7.204640697752139"><ele>61.33333333333333</ele><time>2026-04-21T07:58:58Z</time></trkpt><trkpt lat="43.763316309654115" lon="7.204485704062938"><ele>61.0</ele><time>2026-04-21T07:58:59Z</time></trkpt><trkpt lat="43.763161922312115" lon="7.204322524557132"><ele>61.0</ele><time>2026-04-21T07:59:00Z</time></trkpt><trkpt lat="43.76300137381286" lon="7.204153734308737"><ele>61.0</ele><time>2026-04-21T07:59:01Z</time></trkpt><trkpt lat="43.76283649332059" lon="7.203977139591076"><ele>61.0</ele><time>2026-04-21T07:59:02Z</time></trkpt><trkpt lat="43.762683500811825" lon="7.203776789092096"><ele>61.0</ele><time>2026-04-21T07:59:03Z</time></trkpt><trkpt lat="43.76251897034365" lon="7.203590754216474"><ele>61.0</ele><time>2026-04-21T07:59:04Z</time></trkpt><trkpt lat="43.7623526638734" lon="7.203406861636532"><ele>61.0</ele><time>2026-04-21T07:59:05Z</time></trkpt><trkpt lat="43.76218263194705" lon="7.203227395024727"><ele>61.0</ele><time>2026-04-21T07:59:06Z</time></trkpt><trkpt lat="43.76200117090747" lon="7.203069015106594"><ele>61.0</ele><time>2026-04-21T07:59:07Z</time></trkpt><trkpt lat="43.76183015135501" lon="7.2028956568861275"><ele>61.0</ele><time>2026-04-21T07:59:08Z</time></trkpt><trkpt lat="43.761660874043436" lon="7.202716579462747"><ele>61.0</ele><time>2026-04-21T07:59:09Z</time></trkpt><trkpt lat="43.76148860361118" lon="7.202537685094992"><ele>61.0</ele><time>2026-04-21T07:59:10Z</time></trkpt><trkpt lat="43.76131451951705" lon="7.202359713422568"><ele>61.0</ele><time>2026-04-21T07:59:11Z</time></trkpt><trkpt lat="43.761140829465724" lon="7.202177905135861"><ele>61.0</ele><time>2026-04-21T07:59:12Z</time></trkpt><trkpt lat="43.7609672185526" lon="7.201996959653246"><ele>61.0</ele><time>2026-04-21T07:59:13Z</time></trkpt><trkpt lat="43.760793781432945" lon="7.201816978469459"><ele>61.0</ele><time>2026-04-21T07:59:14Z</time></trkpt><trkpt lat="43.76061819407622" lon="7.201638732033336"><ele>61.0</ele><time>2026-04-21T07:59:15Z</time></trkpt><trkpt lat="43.76044084366707" lon="7.201458888015085"><ele>61.0</ele><time>2026-04-21T07:59:16Z</time></trkpt><trkpt lat="43.760262381738066" lon="7.201276824074201"><ele>61.0</ele><time>2026-04-21T07:59:17Z</time></trkpt><trkpt lat="43.76008392771236" lon="7.201091357050396"><ele>61.0</ele><time>2026-04-21T07:59:18Z</time></trkpt><trkpt lat="43.75990635025871" lon="7.200904938112421"><ele>61.0</ele><time>2026-04-21T07:59:19Z</time></trkpt><trkpt lat="43.759728337809854" lon="7.200718613479273"><ele>61.0</ele><time>2026-04-21T07:59:20Z</time></trkpt><trkpt lat="43.759547076303654" lon="7.200538013835227"><ele>60.666666666666664</ele><time>2026-04-21T07:59:21Z</time></trkpt><trkpt lat="43.75936483025132" lon="7.200357467855661"><ele>60.33333333333333</ele><time>2026-04-21T07:59:22Z</time></trkpt><trkpt lat="43.7591820063043" lon="7.200179995522975"><ele>60.0</ele><time>2026-04-21T07:59:23Z</time></trkpt><trkpt lat="43.75899860998505" lon="7.200000969357721"><ele>59.0</ele><time>2026-04-21T07:59:24Z</time></trkpt><trkpt lat="43.758815262649605" lon="7.199819761053726"><ele>58.0</ele><time>2026-04-21T07:59:25Z</time></trkpt><trkpt lat="43.75863157497071" lon="7.1996321200350755"><ele>59.0</ele><time>2026-04-21T07:59:26Z</time></trkpt><trkpt lat="43.75844586294986" lon="7.199446088831454"><ele>60.0</ele><time>2026-04-21T07:59:27Z</time></trkpt><trkpt lat="43.75826071501194" lon="7.199259506276466"><ele>60.0</ele><time>2026-04-21T07:59:28Z</time></trkpt><trkpt lat="43.75807442520837" lon="7.199073269444468"><ele>60.0</ele><time>2026-04-21T07:59:29Z</time></trkpt><trkpt lat="43.757888594007554" lon="7.198888776977057"><ele>59.66666666666667</ele><time>2026-04-21T07:59:30Z</time></trkpt><trkpt lat="43.75770916298435" lon="7.198710967330122"><ele>59.333333333333336</ele><time>2026-04-21T07:59:31Z</time></trkpt><trkpt lat="43.757545322442056" lon="7.198543917217474"><ele>59.0</ele><time>2026-04-21T07:59:32Z</time></trkpt><trkpt lat="43.7573811442243" lon="7.198390401765316"><ele>59.0</ele><time>2026-04-21T07:59:33Z</time></trkpt><trkpt lat="43.757224691753585" lon="7.1982575825944215"><ele>59.0</ele><time>2026-04-21T07:59:34Z</time></trkpt><trkpt lat="43.75707782812729" lon="7.198139102122673"><ele>59.0</ele><time>2026-04-21T07:59:35Z</time></trkpt><trkpt lat="43.756948672869456" lon="7.198044595172758"><ele>58.333333333333336</ele><time>2026-04-21T07:59:36Z</time></trkpt><trkpt lat="43.7568493622843" lon="7.1979746465478565"><ele>57.66666666666667</ele><time>2026-04-21T07:59:37Z</time></trkpt><trkpt lat="43.75676498535785" lon="7.1979223123644696"><ele>57.0</ele><time>2026-04-21T07:59:38Z</time></trkpt><trkpt lat="43.756702829194104" lon="7.197873554026006"><ele>56.33333333333333</ele><time>2026-04-21T07:59:39Z</time></trkpt><trkpt lat="43.756651668470745" lon="7.197819043639249"><ele>55.666666666666664</ele><time>2026-04-21T07:59:40Z</time></trkpt><trkpt lat="43.75660207719794" lon="7.197753748595094"><ele>55.0</ele><time>2026-04-21T07:59:41Z</time></trkpt><trkpt lat="43.75653646786243" lon="7.197628025561502"><ele>55.0</ele><time>2026-04-21T07:59:42Z</time></trkpt><trkpt lat="43.756483561018044" lon="7.1975806508451985"><ele>55.0</ele><time>2026-04-21T07:59:43Z</time></trkpt><trkpt lat="43.75639800658537" lon="7.197518145865499"><ele>55.0</ele><time>2026-04-21T07:59:44Z</time></trkpt><trkpt lat="43.75627929255595" lon="7.197469004553495"><ele>55.0</ele><time>2026-04-21T07:59:45Z</time></trkpt><trkpt lat="43.756195461523326" lon="7.197365918481823"><ele>55.0</ele><time>2026-04-21T07:59:46Z</time></trkpt><trkpt lat="43.75612009314489" lon="7.197266632036776"><ele>55.0</ele><time>2026-04-21T07:59:47Z</time></trkpt><trkpt lat="43.75603736441423" lon="7.19715932940948"><ele>55.0</ele><time>2026-04-21T07:59:48Z</time></trkpt><trkpt lat="43.75592525592848" lon="7.1970347250665565"><ele>55.0</ele><time>2026-04-21T07:59:49Z</time></trkpt><trkpt lat="43.75580447030772" lon="7.196910448268014"><ele>55.0</ele><time>2026-04-21T07:59:50Z</time></trkpt><trkpt lat="43.7556726747611" lon="7.196761986238642"><ele>55.0</ele><time>2026-04-21T07:59:51Z</time></trkpt><trkpt lat="43.755518771717696" lon="7.1966176575242065"><ele>55.0</ele><time>2026-04-21T07:59:52Z</time></trkpt><trkpt lat="43.755363088320685" lon="7.196450451388097"><ele>55.0</ele><time>2026-04-21T07:59:53Z</time></trkpt><trkpt lat="43.755202727644175" lon="7.196282888337906"><ele>55.0</ele><time>2026-04-21T07:59:54Z</time></trkpt><trkpt lat="43.75503302599315" lon="7.196105078026775"><ele>55.0</ele><time>2026-04-21T07:59:55Z</time></trkpt><trkpt lat="43.75485321890358" lon="7.195920835677798"><ele>55.0</ele><time>2026-04-21T07:59:56Z</time></trkpt><trkpt lat="43.75466838364863" lon="7.195731926093215"><ele>55.5</ele><time>2026-04-21T07:59:57Z</time></trkpt><trkpt lat="43.75448784385458" lon="7.195543343120053"><ele>56.0</ele><time>2026-04-21T07:59:58Z</time></trkpt><trkpt lat="43.754298437035274" lon="7.195346754423995"><ele>56.0</ele><time>2026-04-21T07:59:59Z</time></trkpt><trkpt lat="43.75410330043302" lon="7.195146399968189"><ele>56.0</ele><time>2026-04-21T08:00:00Z</time></trkpt><trkpt lat="43.75390689063766" lon="7.1949439412631815"><ele>55.5</ele><time>2026-04-21T08:00:01Z</time></trkpt><trkpt lat="43.75371354424687" lon="7.194740630279123"><ele>55.0</ele><time>2026-04-21T08:00:02Z</time></trkpt><trkpt lat="43.75351473313326" lon="7.194531526237138"><ele>54.5</ele><time>2026-04-21T08:00:03Z</time></trkpt><trkpt lat="43.753315278326156" lon="7.1943236593317135"><ele>54.0</ele><time>2026-04-21T08:00:04Z</time></trkpt><trkpt lat="43.7531190614731" lon="7.194120105024857"><ele>53.5</ele><time>2026-04-21T08:00:05Z</time></trkpt><trkpt lat="43.75292361664388" lon="7.193917919658878"><ele>53.0</ele><time>2026-04-21T08:00:06Z</time></trkpt><trkpt lat="43.752727929141" lon="7.193717605918573"><ele>53.5</ele><time>2026-04-21T08:00:07Z</time></trkpt><trkpt lat="43.752532444859995" lon="7.193518298354086"><ele>54.0</ele><time>2026-04-21T08:00:08Z</time></trkpt><trkpt lat="43.75234030538184" lon="7.193317098947463"><ele>52.5</ele><time>2026-04-21T08:00:09Z</time></trkpt><trkpt lat="43.7521481285605" lon="7.193115609810199"><ele>51.0</ele><time>2026-04-21T08:00:10Z</time></trkpt><trkpt lat="43.75195515801397" lon="7.192914623297105"><ele>52.5</ele><time>2026-04-21T08:00:11Z</time></trkpt><trkpt lat="43.7517629200673" lon="7.192715311494081"><ele>54.0</ele><time>2026-04-21T08:00:12Z</time></trkpt><trkpt lat="43.751569678520525" lon="7.192517931074615"><ele>53.5</ele><time>2026-04-21T08:00:13Z</time></trkpt><trkpt lat="43.75137815773941" lon="7.192320320634612"><ele>53.0</ele><time>2026-04-21T08:00:14Z</time></trkpt><trkpt lat="43.75118618381692" lon="7.192123869642235"><ele>52.5</ele><time>2026-04-21T08:00:15Z</time></trkpt><trkpt lat="43.75099487749189" lon="7.19192858721891"><ele>52.0</ele><time>2026-04-21T08:00:16Z</time></trkpt><trkpt lat="43.75080512512637" lon="7.191732207626848"><ele>52.0</ele><time>2026-04-21T08:00:17Z</time></trkpt><trkpt lat="43.75061799580067" lon="7.191535592219472"><ele>52.0</ele><time>2026-04-21T08:00:18Z</time></trkpt><trkpt lat="43.75043163303331" lon="7.191343913025473"><ele>52.0</ele><time>2026-04-21T08:00:19Z</time></trkpt><trkpt lat="43.75024661683887" lon="7.191150869221319"><ele>52.0</ele><time>2026-04-21T08:00:20Z</time></trkpt><trkpt lat="43.75006408147542" lon="7.190956223776561"><ele>52.5</ele><time>2026-04-21T08:00:21Z</time></trkpt><trkpt lat="43.74988042269876" lon="7.190764728074671"><ele>53.0</ele><time>2026-04-21T08:00:22Z</time></trkpt><trkpt lat="43.7496958191233" lon="7.19057685838174"><ele>53.0</ele><time>2026-04-21T08:00:23Z</time></trkpt><trkpt lat="43.74951295928365" lon="7.190393431677688"><ele>53.0</ele><time>2026-04-21T08:00:24Z</time></trkpt><trkpt lat="43.74934241786212" lon="7.190217944887681"><ele>53.0</ele><time>2026-04-21T08:00:25Z</time></trkpt><trkpt lat="43.749183434220036" lon="7.190051989493111"><ele>53.0</ele><time>2026-04-21T08:00:26Z</time></trkpt><trkpt lat="43.74903373920122" lon="7.189895197007268"><ele>53.0</ele><time>2026-04-21T08:00:27Z</time></trkpt><trkpt lat="43.74887964247899" lon="7.189738740602646"><ele>53.0</ele><time>2026-04-21T08:00:28Z</time></trkpt><trkpt lat="43.7487280196044" lon="7.189582131075447"><ele>52.66666666666667</ele><time>2026-04-21T08:00:29Z</time></trkpt><trkpt lat="43.74859010709104" lon="7.189442926827585"><ele>52.33333333333333</ele><time>2026-04-21T08:00:30Z</time></trkpt><trkpt lat="43.74845447130828" lon="7.189317218941786"><ele>52.0</ele><time>2026-04-21T08:00:31Z</time></trkpt><trkpt lat="43.74832754917617" lon="7.189210277913083"><ele>52.0</ele><time>2026-04-21T08:00:32Z</time></trkpt><trkpt lat="43.74822194930576" lon="7.189120953825089"><ele>52.0</ele><time>2026-04-21T08:00:33Z</time></trkpt><trkpt lat="43.7481295430675" lon="7.1890472509290095"><ele>52.0</ele><time>2026-04-21T08:00:34Z</time></trkpt><trkpt lat="43.74804640230659" lon="7.188988463969002"><ele>52.0</ele><time>2026-04-21T08:00:35Z</time></trkpt><trkpt lat="43.74797059194509" lon="7.188939954152539"><ele>52.0</ele><time>2026-04-21T08:00:36Z</time></trkpt><trkpt lat="43.747906160236084" lon="7.188881534358965"><ele>51.8</ele><time>2026-04-21T08:00:37Z</time></trkpt><trkpt lat="43.747844316139734" lon="7.188796387034769"><ele>51.6</ele><time>2026-04-21T08:00:38Z</time></trkpt><trkpt lat="43.74781072266101" lon="7.188693179615503"><ele>51.4</ele><time>2026-04-21T08:00:39Z</time></trkpt><trkpt lat="43.74775496115576" lon="7.188612162268896"><ele>51.199999999999996</ele><time>2026-04-21T08:00:40Z</time></trkpt><trkpt lat="43.74766573826353" lon="7.188564304554806"><ele>51.0</ele><time>2026-04-21T08:00:41Z</time></trkpt><trkpt lat="43.74756304071089" lon="7.188540078640163"><ele>51.0</ele><time>2026-04-21T08:00:42Z</time></trkpt><trkpt lat="43.74746399292125" lon="7.188451178675484"><ele>51.0</ele><time>2026-04-21T08:00:43Z</time></trkpt><trkpt lat="43.74736023861382" lon="7.1883228174453695"><ele>51.0</ele><time>2026-04-21T08:00:44Z</time></trkpt><trkpt lat="43.747247237398135" lon="7.188177961762258"><ele>51.0</ele><time>2026-04-21T08:00:45Z</time></trkpt><trkpt lat="43.74711543389876" lon="7.188027702453624"><ele>50.66666666666667</ele><time>2026-04-21T08:00:46Z</time></trkpt><trkpt lat="43.746966359727196" lon="7.187874237636772"><ele>50.333333333333336</ele><time>2026-04-21T08:00:47Z</time></trkpt><trkpt lat="43.74681314562305" lon="7.187722784493318"><ele>50.0</ele><time>2026-04-21T08:00:48Z</time></trkpt><trkpt lat="43.746638610178564" lon="7.18757835729812"><ele>50.0</ele><time>2026-04-21T08:00:49Z</time></trkpt><trkpt lat="43.746451544914464" lon="7.187432806025262"><ele>50.0</ele><time>2026-04-21T08:00:50Z</time></trkpt><trkpt lat="43.74625513085655" lon="7.187282541313866"><ele>50.0</ele><time>2026-04-21T08:00:51Z</time></trkpt><trkpt lat="43.74605327266845" lon="7.187125700777075"><ele>49.0</ele><time>2026-04-21T08:00:52Z</time></trkpt><trkpt lat="43.745850428060464" lon="7.186969949874696"><ele>48.0</ele><time>2026-04-21T08:00:53Z</time></trkpt><trkpt lat="43.745635660712246" lon="7.186814899894832"><ele>48.0</ele><time>2026-04-21T08:00:54Z</time></trkpt><trkpt lat="43.74541149648365" lon="7.186663386096107"><ele>48.0</ele><time>2026-04-21T08:00:55Z</time></trkpt><trkpt lat="43.74518690438286" lon="7.186515757131762"><ele>48.5</ele><time>2026-04-21T08:00:56Z</time></trkpt><trkpt lat="43.74496288627226" lon="7.186369178778627"><ele>49.0</ele><time>2026-04-21T08:00:57Z</time></trkpt><trkpt lat="43.74474041315301" lon="7.1862284132349314"><ele>49.0</ele><time>2026-04-21T08:00:58Z</time></trkpt><trkpt lat="43.74451537940404" lon="7.18608994947812"><ele>49.0</ele><time>2026-04-21T08:00:59Z</time></trkpt><trkpt lat="43.74428753016016" lon="7.185957040337847"><ele>49.0</ele><time>2026-04-21T08:01:00Z</time></trkpt><trkpt lat="43.74405653088632" lon="7.185830110322658"><ele>49.0</ele><time>2026-04-21T08:01:01Z</time></trkpt><trkpt lat="43.74382271378105" lon="7.1857057877839745"><ele>49.0</ele><time>2026-04-21T08:01:02Z</time></trkpt><trkpt lat="43.74358696202864" lon="7.185580303947219"><ele>49.0</ele><time>2026-04-21T08:01:03Z</time></trkpt><trkpt lat="43.74335075667065" lon="7.185458540110812"><ele>49.0</ele><time>2026-04-21T08:01:04Z</time></trkpt><trkpt lat="43.74311172440831" lon="7.185343239069355"><ele>49.0</ele><time>2026-04-21T08:01:05Z</time></trkpt><trkpt lat="43.74287065134381" lon="7.185235251467512"><ele>48.0</ele><time>2026-04-21T08:01:06Z</time></trkpt><trkpt lat="43.74262720064506" lon="7.18513438097237"><ele>47.0</ele><time>2026-04-21T08:01:07Z</time></trkpt><trkpt lat="43.74238278034021" lon="7.18503669035113"><ele>47.0</ele><time>2026-04-21T08:01:08Z</time></trkpt><trkpt lat="43.742136880492296" lon="7.184937865571912"><ele>47.0</ele><time>2026-04-21T08:01:09Z</time></trkpt><trkpt lat="43.7418917747792" lon="7.184845028367702"><ele>44.5</ele><time>2026-04-21T08:01:10Z</time></trkpt><trkpt lat="43.741646113424025" lon="7.184755784387848"><ele>42.0</ele><time>2026-04-21T08:01:11Z</time></trkpt><trkpt lat="43.74140233245891" lon="7.184670142601032"><ele>42.0</ele><time>2026-04-21T08:01:12Z</time></trkpt><trkpt lat="43.74115595360546" lon="7.184594893982822"><ele>42.0</ele><time>2026-04-21T08:01:13Z</time></trkpt><trkpt lat="43.74090783982755" lon="7.184527360746428"><ele>42.0</ele><time>2026-04-21T08:01:14Z</time></trkpt><trkpt lat="43.74066063397144" lon="7.184459789066837"><ele>42.0</ele><time>2026-04-21T08:01:15Z</time></trkpt><trkpt lat="43.74041448167544" lon="7.184397682987396"><ele>43.5</ele><time>2026-04-21T08:01:16Z</time></trkpt><trkpt lat="43.74017008711974" lon="7.184341032833159"><ele>45.0</ele><time>2026-04-21T08:01:17Z</time></trkpt><trkpt lat="43.73992426494625" lon="7.18428703470319"><ele>45.0</ele><time>2026-04-21T08:01:18Z</time></trkpt><trkpt lat="43.739677537964795" lon="7.184238197358819"><ele>45.0</ele><time>2026-04-21T08:01:19Z</time></trkpt><trkpt lat="43.739429921397175" lon="7.184193081197305"><ele>45.5</ele><time>2026-04-21T08:01:20Z</time></trkpt><trkpt lat="43.73918085053247" lon="7.18415401676533"><ele>46.0</ele><time>2026-04-21T08:01:21Z</time></trkpt><trkpt lat="43.738930502850316" lon="7.184122776384261"><ele>46.0</ele><time>2026-04-21T08:01:22Z</time></trkpt><trkpt lat="43.738679189091634" lon="7.184093129330274"><ele>46.0</ele><time>2026-04-21T08:01:23Z</time></trkpt><trkpt lat="43.738426190623485" lon="7.184067275184238"><ele>46.5</ele><time>2026-04-21T08:01:24Z</time></trkpt><trkpt lat="43.738172092586346" lon="7.184046375542356"><ele>47.0</ele><time>2026-04-21T08:01:25Z</time></trkpt><trkpt lat="43.737916566884984" lon="7.184034856882128"><ele>46.0</ele><time>2026-04-21T08:01:26Z</time></trkpt><trkpt lat="43.73766200954964" lon="7.184029301051591"><ele>45.0</ele><time>2026-04-21T08:01:27Z</time></trkpt><trkpt lat="43.7374056021043" lon="7.184030278204333"><ele>45.0</ele><time>2026-04-21T08:01:28Z</time></trkpt><trkpt lat="43.73714900090324" lon="7.184035799979951"><ele>45.0</ele><time>2026-04-21T08:01:29Z</time></trkpt><trkpt lat="43.736892723206736" lon="7.184045641388646"><ele>45.0</ele><time>2026-04-21T08:01:30Z</time></trkpt><trkpt lat="43.736636937352785" lon="7.184054993114921"><ele>45.0</ele><time>2026-04-21T08:01:31Z</time></trkpt><trkpt lat="43.73638313161901" lon="7.184069610503583"><ele>45.0</ele><time>2026-04-21T08:01:32Z</time></trkpt><trkpt lat="43.736132540238344" lon="7.1840885320384364"><ele>45.0</ele><time>2026-04-21T08:01:33Z</time></trkpt><trkpt lat="43.73588391244036" lon="7.184108386011271"><ele>43.0</ele><time>2026-04-21T08:01:34Z</time></trkpt><trkpt lat="43.73564395814136" lon="7.184134718583437"><ele>41.0</ele><time>2026-04-21T08:01:35Z</time></trkpt><trkpt lat="43.7354152164978" lon="7.184162053256603"><ele>41.33333333333333</ele><time>2026-04-21T08:01:36Z</time></trkpt><trkpt lat="43.73520642132417" lon="7.1841876922469545"><ele>41.666666666666664</ele><time>2026-04-21T08:01:37Z</time></trkpt><trkpt lat="43.73500740806328" lon="7.184215104398101"><ele>42.0</ele><time>2026-04-21T08:01:38Z</time></trkpt><trkpt lat="43.73482229596617" lon="7.184245746863419"><ele>42.0</ele><time>2026-04-21T08:01:39Z</time></trkpt><trkpt lat="43.73463455174904" lon="7.184284453083029"><ele>42.0</ele><time>2026-04-21T08:01:40Z</time></trkpt><trkpt lat="43.73444277353264" lon="7.184333062253435"><ele>42.0</ele><time>2026-04-21T08:01:41Z</time></trkpt><trkpt lat="43.73425079647744" lon="7.184380361767432"><ele>41.666666666666664</ele><time>2026-04-21T08:01:42Z</time></trkpt><trkpt lat="43.73406768496823" lon="7.184426375458473"><ele>41.33333333333333</ele><time>2026-04-21T08:01:43Z</time></trkpt><trkpt lat="43.73389026074096" lon="7.184469685059259"><ele>41.0</ele><time>2026-04-21T08:01:44Z</time></trkpt><trkpt lat="43.73371671477694" lon="7.184508572558324"><ele>41.0</ele><time>2026-04-21T08:01:45Z</time></trkpt><trkpt lat="43.73356729502744" lon="7.184561432979262"><ele>41.0</ele><time>2026-04-21T08:01:46Z</time></trkpt><trkpt lat="43.733403503509265" lon="7.184583959258618"><ele>41.0</ele><time>2026-04-21T08:01:47Z</time></trkpt><trkpt lat="43.73326647201538" lon="7.184577470742237"><ele>40.5</ele><time>2026-04-21T08:01:48Z</time></trkpt><trkpt lat="43.73313978718618" lon="7.184566561609396"><ele>40.0</ele><time>2026-04-21T08:01:49Z</time></trkpt><trkpt lat="43.73299640793686" lon="7.184619101798865"><ele>39.5</ele><time>2026-04-21T08:01:50Z</time></trkpt><trkpt lat="43.732845208605255" lon="7.184664283253684"><ele>39.0</ele><time>2026-04-21T08:01:51Z</time></trkpt><trkpt lat="43.732675457268975" lon="7.18467474228959"><ele>38.0</ele><time>2026-04-21T08:01:52Z</time></trkpt><trkpt lat="43.732496584558284" lon="7.184665903706979"><ele>37.0</ele><time>2026-04-21T08:01:53Z</time></trkpt><trkpt lat="43.73230790214042" lon="7.184658140718166"><ele>36.0</ele><time>2026-04-21T08:01:54Z</time></trkpt><trkpt lat="43.73211922475933" lon="7.184656814477996"><ele>36.0</ele><time>2026-04-21T08:01:55Z</time></trkpt><trkpt lat="43.73194410074576" lon="7.1846594114296884"><ele>36.0</ele><time>2026-04-21T08:01:56Z</time></trkpt><trkpt lat="43.731777461591605" lon="7.18467091510496"><ele>36.0</ele><time>2026-04-21T08:01:57Z</time></trkpt><trkpt lat="43.731611248339824" lon="7.184690213257044"><ele>35.666666666666664</ele><time>2026-04-21T08:01:58Z</time></trkpt><trkpt lat="43.73144187032919" lon="7.184713442728112"><ele>35.33333333333333</ele><time>2026-04-21T08:01:59Z</time></trkpt><trkpt lat="43.731270181858356" lon="7.184731089711349"><ele>35.0</ele><time>2026-04-21T08:02:00Z</time></trkpt><trkpt lat="43.73108500295464" lon="7.18474722540751"><ele>34.666666666666664</ele><time>2026-04-21T08:02:01Z</time></trkpt><trkpt lat="43.73090071394544" lon="7.184771044242386"><ele>34.333333333333336</ele><time>2026-04-21T08:02:02Z</time></trkpt><trkpt lat="43.73073267463657" lon="7.184793637988695"><ele>34.0</ele><time>2026-04-21T08:02:03Z</time></trkpt><trkpt lat="43.73056724320743" lon="7.1848197350296665"><ele>35.0</ele><time>2026-04-21T08:02:04Z</time></trkpt><trkpt lat="43.73038775892507" lon="7.1848516184594216"><ele>36.0</ele><time>2026-04-21T08:02:05Z</time></trkpt><trkpt lat="43.73021319414976" lon="7.184884193709532"><ele>37.0</ele><time>2026-04-21T08:02:06Z</time></trkpt><trkpt lat="43.73005168947792" lon="7.184914607377284"><ele>37.0</ele><time>2026-04-21T08:02:07Z</time></trkpt><trkpt lat="43.72988027764362" lon="7.184943739651075"><ele>37.0</ele><time>2026-04-21T08:02:08Z</time></trkpt><trkpt lat="43.72970155782425" lon="7.184972926684788"><ele>37.0</ele><time>2026-04-21T08:02:09Z</time></trkpt><trkpt lat="43.72950901158548" lon="7.1850000023829494"><ele>37.0</ele><time>2026-04-21T08:02:10Z</time></trkpt><trkpt lat="43.72931158744193" lon="7.185028793617363"><ele>37.0</ele><time>2026-04-21T08:02:11Z</time></trkpt><trkpt lat="43.72910882722323" lon="7.1850628040027615"><ele>37.0</ele><time>2026-04-21T08:02:12Z</time></trkpt><trkpt lat="43.72889822266737" lon="7.185103600425288"><ele>37.0</ele><time>2026-04-21T08:02:13Z</time></trkpt><trkpt lat="43.728681247890485" lon="7.185141296881696"><ele>37.0</ele><time>2026-04-21T08:02:14Z</time></trkpt><trkpt lat="43.72845441184934" lon="7.185174496286001"><ele>37.0</ele><time>2026-04-21T08:02:15Z</time></trkpt><trkpt lat="43.72822296017188" lon="7.185208775858085"><ele>36.5</ele><time>2026-04-21T08:02:16Z</time></trkpt><trkpt lat="43.727992541003914" lon="7.185241389344922"><ele>36.0</ele><time>2026-04-21T08:02:17Z</time></trkpt><trkpt lat="43.72776528877086" lon="7.185273308135421"><ele>35.0</ele><time>2026-04-21T08:02:18Z</time></trkpt><trkpt lat="43.727536861514714" lon="7.185302179280955"><ele>34.0</ele><time>2026-04-21T08:02:19Z</time></trkpt><trkpt lat="43.727305342050045" lon="7.185328785423829"><ele>34.0</ele><time>2026-04-21T08:02:20Z</time></trkpt><trkpt lat="43.727071111911634" lon="7.185357515044424"><ele>34.0</ele><time>2026-04-21T08:02:21Z</time></trkpt><trkpt lat="43.72683550530385" lon="7.185384887942577"><ele>32.5</ele><time>2026-04-21T08:02:22Z</time></trkpt><trkpt lat="43.72659951992201" lon="7.1854107531129205"><ele>31.0</ele><time>2026-04-21T08:02:23Z</time></trkpt><trkpt lat="43.72635886001056" lon="7.185439669785448"><ele>31.0</ele><time>2026-04-21T08:02:24Z</time></trkpt><trkpt lat="43.72611797052228" lon="7.185471997361976"><ele>31.0</ele><time>2026-04-21T08:02:25Z</time></trkpt><trkpt lat="43.72587342469481" lon="7.18550368532511"><ele>31.0</ele><time>2026-04-21T08:02:26Z</time></trkpt><trkpt lat="43.72562753760863" lon="7.185536785468023"><ele>31.0</ele><time>2026-04-21T08:02:27Z</time></trkpt><trkpt lat="43.725380361530036" lon="7.18557164296453"><ele>29.5</ele><time>2026-04-21T08:02:28Z</time></trkpt><trkpt lat="43.72513188415067" lon="7.185607704659911"><ele>28.0</ele><time>2026-04-21T08:02:29Z</time></trkpt><trkpt lat="43.724883122196765" lon="7.185642572023582"><ele>28.0</ele><time>2026-04-21T08:02:30Z</time></trkpt><trkpt lat="43.72463601555935" lon="7.185674230215413"><ele>28.0</ele><time>2026-04-21T08:02:31Z</time></trkpt><trkpt lat="43.72439588528353" lon="7.185708278448983"><ele>32.0</ele><time>2026-04-21T08:02:32Z</time></trkpt><trkpt lat="43.724155529538216" lon="7.185748578717509"><ele>36.0</ele><time>2026-04-21T08:02:33Z</time></trkpt><trkpt lat="43.72391702416454" lon="7.18579959212195"><ele>36.0</ele><time>2026-04-21T08:02:34Z</time></trkpt><trkpt lat="43.72368376971411" lon="7.185862684324431"><ele>36.0</ele><time>2026-04-21T08:02:35Z</time></trkpt><trkpt lat="43.7234533657243" lon="7.18592798940574"><ele>35.5</ele><time>2026-04-21T08:02:36Z</time></trkpt><trkpt lat="43.723223595662276" lon="7.185988173126611"><ele>35.0</ele><time>2026-04-21T08:02:37Z</time></trkpt><trkpt lat="43.72300057919102" lon="7.186041699172302"><ele>35.0</ele><time>2026-04-21T08:02:38Z</time></trkpt><trkpt lat="43.72277675833294" lon="7.186083077973561"><ele>35.0</ele><time>2026-04-21T08:02:39Z</time></trkpt><trkpt lat="43.72254959334363" lon="7.186103775257525"><ele>34.5</ele><time>2026-04-21T08:02:40Z</time></trkpt><trkpt lat="43.72232018600666" lon="7.186115820680242"><ele>34.0</ele><time>2026-04-21T08:02:41Z</time></trkpt><trkpt lat="43.72208437824188" lon="7.186128279159429"><ele>32.5</ele><time>2026-04-21T08:02:42Z</time></trkpt><trkpt lat="43.72184632479803" lon="7.186143977117742"><ele>31.0</ele><time>2026-04-21T08:02:43Z</time></trkpt><trkpt lat="43.72160813262078" lon="7.186157138466435"><ele>31.0</ele><time>2026-04-21T08:02:44Z</time></trkpt><trkpt lat="43.72136917057574" lon="7.186167705827648"><ele>31.0</ele><time>2026-04-21T08:02:45Z</time></trkpt><trkpt lat="43.72112663397371" lon="7.186181388722298"><ele>29.5</ele><time>2026-04-21T08:02:46Z</time></trkpt><trkpt lat="43.72088422732196" lon="7.18619300470892"><ele>28.0</ele><time>2026-04-21T08:02:47Z</time></trkpt><trkpt lat="43.72064811524997" lon="7.186200485001496"><ele>28.0</ele><time>2026-04-21T08:02:48Z</time></trkpt><trkpt lat="43.720402888054366" lon="7.1862150076550515"><ele>28.0</ele><time>2026-04-21T08:02:49Z</time></trkpt><trkpt lat="43.72015595824235" lon="7.186239387396545"><ele>27.0</ele><time>2026-04-21T08:02:50Z</time></trkpt><trkpt lat="43.719917034976284" lon="7.186267939926882"><ele>26.0</ele><time>2026-04-21T08:02:51Z</time></trkpt><trkpt lat="43.71970467971923" lon="7.186296694446053"><ele>26.0</ele><time>2026-04-21T08:02:52Z</time></trkpt><trkpt lat="43.719516511968585" lon="7.186323556128425"><ele>26.0</ele><time>2026-04-21T08:02:53Z</time></trkpt><trkpt lat="43.71934955561224" lon="7.186347592513027"><ele>26.0</ele><time>2026-04-21T08:02:54Z</time></trkpt><trkpt lat="43.71918183805564" lon="7.1863717466779145"><ele>25.666666666666664</ele><time>2026-04-21T08:02:55Z</time></trkpt><trkpt lat="43.719000478526496" lon="7.186399068273746"><ele>25.333333333333336</ele><time>2026-04-21T08:02:56Z</time></trkpt><trkpt lat="43.71880525580468" lon="7.18643010962855"><ele>25.0</ele><time>2026-04-21T08:02:57Z</time></trkpt><trkpt lat="43.71859897006532" lon="7.186460358558722"><ele>24.666666666666668</ele><time>2026-04-21T08:02:58Z</time></trkpt><trkpt lat="43.71838436500224" lon="7.1864874570948505"><ele>24.333333333333336</ele><time>2026-04-21T08:02:59Z</time></trkpt><trkpt lat="43.718163370328114" lon="7.186514698499866"><ele>24.0</ele><time>2026-04-21T08:03:00Z</time></trkpt><trkpt lat="43.71794154657709" lon="7.186543911383721"><ele>28.5</ele><time>2026-04-21T08:03:01Z</time></trkpt><trkpt lat="43.71770856804436" lon="7.1865752532724025"><ele>33.0</ele><time>2026-04-21T08:03:02Z</time></trkpt><trkpt lat="43.717468674915295" lon="7.186608516264599"><ele>33.0</ele><time>2026-04-21T08:03:03Z</time></trkpt><trkpt lat="43.717222098213824" lon="7.186642224728808"><ele>33.0</ele><time>2026-04-21T08:03:04Z</time></trkpt><trkpt lat="43.716971462439325" lon="7.186678375558881"><ele>31.5</ele><time>2026-04-21T08:03:05Z</time></trkpt><trkpt lat="43.71671824322008" lon="7.18671560343306"><ele>30.0</ele><time>2026-04-21T08:03:06Z</time></trkpt><trkpt lat="43.71646204020465" lon="7.186752655326079"><ele>30.0</ele><time>2026-04-21T08:03:07Z</time></trkpt><trkpt lat="43.71620638594028" lon="7.186787336988625"><ele>30.0</ele><time>2026-04-21T08:03:08Z</time></trkpt><trkpt lat="43.71596025192348" lon="7.18682103552461"><ele>29.5</ele><time>2026-04-21T08:03:09Z</time></trkpt><trkpt lat="43.71571148205444" lon="7.186853136125475"><ele>29.0</ele><time>2026-04-21T08:03:10Z</time></trkpt><trkpt lat="43.71547148404254" lon="7.18688504931148"><ele>29.0</ele><time>2026-04-21T08:03:11Z</time></trkpt><trkpt lat="43.71524194433672" lon="7.186916620232182"><ele>29.0</ele><time>2026-04-21T08:03:12Z</time></trkpt><trkpt lat="43.71501495166055" lon="7.186949606692616"><ele>27.5</ele><time>2026-04-21T08:03:13Z</time></trkpt><trkpt lat="43.71478936572237" lon="7.186983276151195"><ele>26.0</ele><time>2026-04-21T08:03:14Z</time></trkpt><trkpt lat="43.714564858324465" lon="7.187016753824785"><ele>25.333333333333332</ele><time>2026-04-21T08:03:15Z</time></trkpt><trkpt lat="43.71434058820327" lon="7.187048643094638"><ele>24.666666666666664</ele><time>2026-04-21T08:03:16Z</time></trkpt><trkpt lat="43.71411816603623" lon="7.187079226191627"><ele>24.0</ele><time>2026-04-21T08:03:17Z</time></trkpt><trkpt lat="43.71389547803245" lon="7.1871086676832165"><ele>24.0</ele><time>2026-04-21T08:03:18Z</time></trkpt><trkpt lat="43.71368120656944" lon="7.18713838160938"><ele>24.0</ele><time>2026-04-21T08:03:19Z</time></trkpt><trkpt lat="43.7134757027188" lon="7.1871664685286065"><ele>24.0</ele><time>2026-04-21T08:03:20Z</time></trkpt><trkpt lat="43.71327806838418" lon="7.187194500236689"><ele>24.0</ele><time>2026-04-21T08:03:21Z</time></trkpt><trkpt lat="43.713083659960816" lon="7.187220605048685"><ele>24.0</ele><time>2026-04-21T08:03:22Z</time></trkpt><trkpt lat="43.712888937345966" lon="7.187246258625334"><ele>24.0</ele><time>2026-04-21T08:03:23Z</time></trkpt><trkpt lat="43.71268981808279" lon="7.187276905700786"><ele>23.666666666666668</ele><time>2026-04-21T08:03:24Z</time></trkpt><trkpt lat="43.71248296682223" lon="7.187313540605466"><ele>23.333333333333336</ele><time>2026-04-21T08:03:25Z</time></trkpt><trkpt lat="43.712272723524094" lon="7.187358741744763"><ele>23.0</ele><time>2026-04-21T08:03:26Z</time></trkpt><trkpt lat="43.71205806119818" lon="7.18740781339099"><ele>25.0</ele><time>2026-04-21T08:03:27Z</time></trkpt><trkpt lat="43.71183682453669" lon="7.18745650358368"><ele>27.0</ele><time>2026-04-21T08:03:28Z</time></trkpt><trkpt lat="43.71161205359686" lon="7.187503129326465"><ele>27.0</ele><time>2026-04-21T08:03:29Z</time></trkpt><trkpt lat="43.711381296701234" lon="7.187544447532328"><ele>27.0</ele><time>2026-04-21T08:03:30Z</time></trkpt><trkpt lat="43.71114630508415" lon="7.18758183790525"><ele>27.0</ele><time>2026-04-21T08:03:31Z</time></trkpt><trkpt lat="43.71091080206299" lon="7.187618201821642"><ele>27.0</ele><time>2026-04-21T08:03:32Z</time></trkpt><trkpt lat="43.71068269414037" lon="7.187652846649106"><ele>27.0</ele><time>2026-04-21T08:03:33Z</time></trkpt><trkpt lat="43.7104635903147" lon="7.187684385205042"><ele>27.0</ele><time>2026-04-21T08:03:34Z</time></trkpt><trkpt lat="43.71024701368487" lon="7.187714695527525"><ele>27.0</ele><time>2026-04-21T08:03:35Z</time></trkpt><trkpt lat="43.71003150810621" lon="7.187744815872739"><ele>27.333333333333336</ele><time>2026-04-21T08:03:36Z</time></trkpt><trkpt lat="43.70981761821761" lon="7.187773097274046"><ele>27.666666666666668</ele><time>2026-04-21T08:03:37Z</time></trkpt><trkpt lat="43.70959600226822" lon="7.18779967539927"><ele>28.0</ele><time>2026-04-21T08:03:38Z</time></trkpt><trkpt lat="43.70937636320456" lon="7.187829974916643"><ele>27.0</ele><time>2026-04-21T08:03:39Z</time></trkpt><trkpt lat="43.709150580055656" lon="7.187862212124526"><ele>26.0</ele><time>2026-04-21T08:03:40Z</time></trkpt><trkpt lat="43.7089203355524" lon="7.187895802339521"><ele>26.0</ele><time>2026-04-21T08:03:41Z</time></trkpt><trkpt lat="43.70869271470881" lon="7.187930901980876"><ele>26.0</ele><time>2026-04-21T08:03:42Z</time></trkpt><trkpt lat="43.708461815800334" lon="7.187964207521345"><ele>25.0</ele><time>2026-04-21T08:03:43Z</time></trkpt><trkpt lat="43.70822955989172" lon="7.18799483189452"><ele>24.0</ele><time>2026-04-21T08:03:44Z</time></trkpt><trkpt lat="43.707996466950455" lon="7.188025733368027"><ele>24.0</ele><time>2026-04-21T08:03:45Z</time></trkpt><trkpt lat="43.70776561807362" lon="7.188055143311212"><ele>24.0</ele><time>2026-04-21T08:03:46Z</time></trkpt><trkpt lat="43.70753334221195" lon="7.188083167990738"><ele>22.5</ele><time>2026-04-21T08:03:47Z</time></trkpt><trkpt lat="43.707310506527925" lon="7.1881119224499335"><ele>21.0</ele><time>2026-04-21T08:03:48Z</time></trkpt><trkpt lat="43.70708480970191" lon="7.1881232456983035"><ele>20.5</ele><time>2026-04-21T08:03:49Z</time></trkpt><trkpt lat="43.70686019322945" lon="7.188158425535752"><ele>20.0</ele><time>2026-04-21T08:03:50Z</time></trkpt><trkpt lat="43.70663181601137" lon="7.188202708092982"><ele>23.0</ele><time>2026-04-21T08:03:51Z</time></trkpt><trkpt lat="43.70640304966323" lon="7.188268112947872"><ele>26.0</ele><time>2026-04-21T08:03:52Z</time></trkpt><trkpt lat="43.70618686127976" lon="7.188349165459946"><ele>25.666666666666664</ele><time>2026-04-21T08:03:53Z</time></trkpt><trkpt lat="43.705978492389725" lon="7.188456231810714"><ele>25.333333333333336</ele><time>2026-04-21T08:03:54Z</time></trkpt><trkpt lat="43.70576036147913" lon="7.188526690118312"><ele>25.0</ele><time>2026-04-21T08:03:55Z</time></trkpt><trkpt lat="43.705559475647355" lon="7.188639903691134"><ele>25.0</ele><time>2026-04-21T08:03:56Z</time></trkpt><trkpt lat="43.70535721696809" lon="7.18872757850847"><ele>25.0</ele><time>2026-04-21T08:03:57Z</time></trkpt><trkpt lat="43.70515008045377" lon="7.188809755142649"><ele>25.0</ele><time>2026-04-21T08:03:58Z</time></trkpt><trkpt lat="43.7049488311511" lon="7.188857668562454"><ele>25.0</ele><time>2026-04-21T08:03:59Z</time></trkpt><trkpt lat="43.7047737855258" lon="7.188907426795624"><ele>25.0</ele><time>2026-04-21T08:04:00Z</time></trkpt><trkpt lat="43.70459030804544" lon="7.188948711693908"><ele>25.0</ele><time>2026-04-21T08:04:01Z</time></trkpt><trkpt lat="43.70439613370801" lon="7.188959612106976"><ele>24.666666666666668</ele><time>2026-04-21T08:04:02Z</time></trkpt><trkpt lat="43.70419343147847" lon="7.188953040463014"><ele>24.333333333333336</ele><time>2026-04-21T08:04:03Z</time></trkpt><trkpt lat="43.70399810041164" lon="7.188940425774013"><ele>24.0</ele><time>2026-04-21T08:04:04Z</time></trkpt><trkpt lat="43.70380675525876" lon="7.188931123639382"><ele>24.0</ele><time>2026-04-21T08:04:05Z</time></trkpt><trkpt lat="43.703633670999615" lon="7.18889027421707"><ele>24.0</ele><time>2026-04-21T08:04:06Z</time></trkpt><trkpt lat="43.70347933158064" lon="7.188872284650154"><ele>24.0</ele><time>2026-04-21T08:04:07Z</time></trkpt><trkpt lat="43.70334134376562" lon="7.1889042427129795"><ele>24.0</ele><time>2026-04-21T08:04:08Z</time></trkpt><trkpt lat="43.70322815311233" lon="7.188906992118304"><ele>24.0</ele><time>2026-04-21T08:04:09Z</time></trkpt><trkpt lat="43.70312518463816" lon="7.18891785416031"><ele>24.0</ele><time>2026-04-21T08:04:10Z</time></trkpt><trkpt lat="43.70303676408137" lon="7.1889411970618795"><ele>24.0</ele><time>2026-04-21T08:04:11Z</time></trkpt><trkpt lat="43.702948292762855" lon="7.188953834008589"><ele>24.0</ele><time>2026-04-21T08:04:12Z</time></trkpt><trkpt lat="43.70285348935719" lon="7.188942381780466"><ele>24.0</ele><time>2026-04-21T08:04:13Z</time></trkpt><trkpt lat="43.702755143666984" lon="7.188903950102251"><ele>24.0</ele><time>2026-04-21T08:04:14Z</time></trkpt><trkpt lat="43.70266899671786" lon="7.188861829158686"><ele>24.0</ele><time>2026-04-21T08:04:15Z</time></trkpt><trkpt lat="43.70254006821807" lon="7.188844745233916"><ele>24.0</ele><time>2026-04-21T08:04:17Z</time></trkpt><trkpt lat="43.70245973578487" lon="7.188882327033142"><ele>24.0</ele><time>2026-04-21T08:04:18Z</time></trkpt><trkpt lat="43.702380702613105" lon="7.188919030942746"><ele>24.166666666666668</ele><time>2026-04-21T08:04:19Z</time></trkpt><trkpt lat="43.702352681053426" lon="7.189042614477986"><ele>24.333333333333336</ele><time>2026-04-21T08:04:20Z</time></trkpt><trkpt lat="43.702323351136535" lon="7.189152945328579"><ele>24.5</ele><time>2026-04-21T08:04:21Z</time></trkpt><trkpt lat="43.70232059339538" lon="7.189273196730436"><ele>24.666666666666668</ele><time>2026-04-21T08:04:22Z</time></trkpt><trkpt lat="43.70234654609758" lon="7.189389573299774"><ele>24.833333333333336</ele><time>2026-04-21T08:04:23Z</time></trkpt><trkpt lat="43.70240090058523" lon="7.189492037513643"><ele>25.0</ele><time>2026-04-21T08:04:24Z</time></trkpt><trkpt lat="43.70247820284633" lon="7.189573149731731"><ele>25.0</ele><time>2026-04-21T08:04:25Z</time></trkpt><trkpt lat="43.70257362789732" lon="7.1896416959945775"><ele>25.0</ele><time>2026-04-21T08:04:26Z</time></trkpt><trkpt lat="43.7026819401185" lon="7.189661308545641"><ele>25.0</ele><time>2026-04-21T08:04:27Z</time></trkpt><trkpt lat="43.702781328252065" lon="7.189787308682283"><ele>25.0</ele><time>2026-04-21T08:04:28Z</time></trkpt><trkpt lat="43.702882589757444" lon="7.189878718305896"><ele>25.333333333333336</ele><time>2026-04-21T08:04:29Z</time></trkpt><trkpt lat="43.70300130495965" lon="7.189976731155008"><ele>25.666666666666664</ele><time>2026-04-21T08:04:30Z</time></trkpt><trkpt lat="43.70313553012918" lon="7.190074475081844"><ele>26.0</ele><time>2026-04-21T08:04:31Z</time></trkpt><trkpt lat="43.703278617631945" lon="7.190180083734198"><ele>26.0</ele><time>2026-04-21T08:04:32Z</time></trkpt><trkpt lat="43.703417794889766" lon="7.190295599159265"><ele>26.0</ele><time>2026-04-21T08:04:33Z</time></trkpt><trkpt lat="43.70357030280551" lon="7.190387997110778"><ele>26.0</ele><time>2026-04-21T08:04:34Z</time></trkpt><trkpt lat="43.70371636393948" lon="7.190484306074875"><ele>26.25</ele><time>2026-04-21T08:04:35Z</time></trkpt><trkpt lat="43.70385581012914" lon="7.190552723450121"><ele>26.5</ele><time>2026-04-21T08:04:36Z</time></trkpt><trkpt lat="43.70399852075295" lon="7.190598395463318"><ele>26.75</ele><time>2026-04-21T08:04:37Z</time></trkpt><trkpt lat="43.70415059226144" lon="7.190623072444769"><ele>27.0</ele><time>2026-04-21T08:04:38Z</time></trkpt><trkpt lat="43.70431366119575" lon="7.190629962071755"><ele>26.666666666666664</ele><time>2026-04-21T08:04:39Z</time></trkpt><trkpt lat="43.704475262733666" lon="7.19061131845369"><ele>26.333333333333332</ele><time>2026-04-21T08:04:40Z</time></trkpt><trkpt lat="43.704645008895255" lon="7.190569372617912"><ele>26.0</ele><time>2026-04-21T08:04:41Z</time></trkpt><trkpt lat="43.70481820138779" lon="7.190510302813083"><ele>26.0</ele><time>2026-04-21T08:04:42Z</time></trkpt><trkpt lat="43.70498353313408" lon="7.190442679824435"><ele>26.0</ele><time>2026-04-21T08:04:43Z</time></trkpt><trkpt lat="43.705145225707746" lon="7.190367703591736"><ele>26.0</ele><time>2026-04-21T08:04:44Z</time></trkpt><trkpt lat="43.705290395464516" lon="7.190318414350532"><ele>26.0</ele><time>2026-04-21T08:04:45Z</time></trkpt><trkpt lat="43.70542163180203" lon="7.190268891315191"><ele>26.0</ele><time>2026-04-21T08:04:46Z</time></trkpt><trkpt lat="43.705552822555966" lon="7.1902867941312785"><ele>26.0</ele><time>2026-04-21T08:04:47Z</time></trkpt><trkpt lat="43.70567373408386" lon="7.190305973405018"><ele>26.0</ele><time>2026-04-21T08:04:48Z</time></trkpt><trkpt lat="43.705785229265935" lon="7.190342809684516"><ele>26.0</ele><time>2026-04-21T08:04:49Z</time></trkpt><trkpt lat="43.70589501404186" lon="7.190352812944552"><ele>26.0</ele><time>2026-04-21T08:04:50Z</time></trkpt><trkpt lat="43.705991882027874" lon="7.190386836118749"><ele>26.0</ele><time>2026-04-21T08:04:51Z</time></trkpt><trkpt lat="43.70608050785924" lon="7.190421003793419"><ele>26.0</ele><time>2026-04-21T08:04:52Z</time></trkpt><trkpt lat="43.70616275813166" lon="7.190454112375282"><ele>26.0</ele><time>2026-04-21T08:04:53Z</time></trkpt><trkpt lat="43.70622990475193" lon="7.190522665513006"><ele>26.666666666666664</ele><time>2026-04-21T08:04:54Z</time></trkpt><trkpt lat="43.70629679564753" lon="7.190557044737874"><ele>27.333333333333332</ele><time>2026-04-21T08:04:55Z</time></trkpt><trkpt lat="43.70636946975927" lon="7.190601119671877"><ele>28.0</ele><time>2026-04-21T08:04:57Z</time></trkpt><trkpt lat="43.70644035020261" lon="7.190629209766881"><ele>28.666666666666664</ele><time>2026-04-21T08:04:59Z</time></trkpt><trkpt lat="43.70651664456023" lon="7.190673920304871"><ele>29.333333333333332</ele><time>2026-04-21T08:05:01Z</time></trkpt><trkpt lat="43.706610448841836" lon="7.19075753392521"><ele>30.0</ele><time>2026-04-21T08:05:22Z</time></trkpt><trkpt lat="43.7066767970607" lon="7.190823031347886"><ele>30.25</ele><time>2026-04-21T08:05:23Z</time></trkpt><trkpt lat="43.70675840602735" lon="7.190907577243659"><ele>30.5</ele><time>2026-04-21T08:05:24Z</time></trkpt><trkpt lat="43.706849585913446" lon="7.191015433065768"><ele>30.75</ele><time>2026-04-21T08:05:25Z</time></trkpt><trkpt lat="43.70695653573972" lon="7.191174740876101"><ele>31.0</ele><time>2026-04-21T08:05:26Z</time></trkpt><trkpt lat="43.70707960579661" lon="7.191311630269012"><ele>31.0</ele><time>2026-04-21T08:05:27Z</time></trkpt><trkpt lat="43.70720364254155" lon="7.191460166288862"><ele>31.0</ele><time>2026-04-21T08:05:28Z</time></trkpt><trkpt lat="43.70732874607886" lon="7.191627635368811"><ele>31.0</ele><time>2026-04-21T08:05:29Z</time></trkpt><trkpt lat="43.707440764888666" lon="7.191785870714574"><ele>31.0</ele><time>2026-04-21T08:05:30Z</time></trkpt><trkpt lat="43.70753744230878" lon="7.191934170972279"><ele>31.0</ele><time>2026-04-21T08:05:31Z</time></trkpt><trkpt lat="43.707643820481394" lon="7.1920985079049355"><ele>31.0</ele><time>2026-04-21T08:05:32Z</time></trkpt><trkpt lat="43.707759332831465" lon="7.192270927045477"><ele>30.666666666666668</ele><time>2026-04-21T08:05:33Z</time></trkpt><trkpt lat="43.70787306874657" lon="7.192448490934521"><ele>30.333333333333336</ele><time>2026-04-21T08:05:34Z</time></trkpt><trkpt lat="43.70798451379425" lon="7.192639978956686"><ele>30.0</ele><time>2026-04-21T08:05:35Z</time></trkpt><trkpt lat="43.7080947691232" lon="7.192845936930856"><ele>30.0</ele><time>2026-04-21T08:05:36Z</time></trkpt><trkpt lat="43.70820387292649" lon="7.193052429931751"><ele>30.0</ele><time>2026-04-21T08:05:37Z</time></trkpt><trkpt lat="43.70831070058737" lon="7.193272816111834"><ele>30.0</ele><time>2026-04-21T08:05:38Z</time></trkpt><trkpt lat="43.70841987585949" lon="7.193505369353731"><ele>30.0</ele><time>2026-04-21T08:05:39Z</time></trkpt><trkpt lat="43.70852537833081" lon="7.193740785740433"><ele>30.0</ele><time>2026-04-21T08:05:40Z</time></trkpt><trkpt lat="43.70862617999912" lon="7.193980826891055"><ele>30.0</ele><time>2026-04-21T08:05:41Z</time></trkpt><trkpt lat="43.70872565042064" lon="7.194228515473488"><ele>31.0</ele><time>2026-04-21T08:05:42Z</time></trkpt><trkpt lat="43.70881872358396" lon="7.194476538033766"><ele>32.0</ele><time>2026-04-21T08:05:43Z</time></trkpt><trkpt lat="43.708909628524594" lon="7.194726614290568"><ele>33.0</ele><time>2026-04-21T08:05:44Z</time></trkpt><trkpt lat="43.70899779843714" lon="7.194983758649155"><ele>33.0</ele><time>2026-04-21T08:05:45Z</time></trkpt><trkpt lat="43.70908613647232" lon="7.195243091382713"><ele>33.0</ele><time>2026-04-21T08:05:46Z</time></trkpt><trkpt lat="43.70917218774185" lon="7.195494505442746"><ele>33.0</ele><time>2026-04-21T08:05:47Z</time></trkpt><trkpt lat="43.70925608572474" lon="7.195752207317886"><ele>32.666666666666664</ele><time>2026-04-21T08:05:48Z</time></trkpt><trkpt lat="43.709336205396625" lon="7.196007241267853"><ele>32.33333333333333</ele><time>2026-04-21T08:05:49Z</time></trkpt><trkpt lat="43.709417636683234" lon="7.196261206962195"><ele>32.0</ele><time>2026-04-21T08:05:50Z</time></trkpt><trkpt lat="43.70949896022437" lon="7.196510011640027"><ele>33.666666666666664</ele><time>2026-04-21T08:05:51Z</time></trkpt><trkpt lat="43.70958069744414" lon="7.196757686650801"><ele>35.333333333333336</ele><time>2026-04-21T08:05:52Z</time></trkpt><trkpt lat="43.709662476200755" lon="7.197008070617705"><ele>37.0</ele><time>2026-04-21T08:05:53Z</time></trkpt><trkpt lat="43.70974470342525" lon="7.197260890955858"><ele>42.0</ele><time>2026-04-21T08:05:54Z</time></trkpt><trkpt lat="43.709826666510466" lon="7.197518734866959"><ele>47.0</ele><time>2026-04-21T08:05:55Z</time></trkpt><trkpt lat="43.70991137092089" lon="7.197781409814986"><ele>52.0</ele><time>2026-04-21T08:05:56Z</time></trkpt><trkpt lat="43.709992714817375" lon="7.198038111595222"><ele>58.0</ele><time>2026-04-21T08:05:57Z</time></trkpt><trkpt lat="43.7100739602876" lon="7.198293735749855"><ele>64.0</ele><time>2026-04-21T08:05:58Z</time></trkpt><trkpt lat="43.710151433878174" lon="7.198543442971487"><ele>70.0</ele><time>2026-04-21T08:05:58.999Z</time></trkpt><trkpt lat="43.71022353354938" lon="7.198801104776042"><ele>66.66666666666666</ele><time>2026-04-21T08:05:59.999Z</time></trkpt><trkpt lat="43.710290152326486" lon="7.19907269271298"><ele>63.33333333333333</ele><time>2026-04-21T08:06:00.999Z</time></trkpt><trkpt lat="43.71034827395433" lon="7.1993526369958"><ele>60.0</ele><time>2026-04-21T08:06:01.999Z</time></trkpt><trkpt lat="43.71040062470993" lon="7.199632314377232"><ele>62.33333333333333</ele><time>2026-04-21T08:06:02.999Z</time></trkpt><trkpt lat="43.71044588865589" lon="7.19991865476133"><ele>64.66666666666666</ele><time>2026-04-21T08:06:03.999Z</time></trkpt><trkpt lat="43.710473024238624" lon="7.200205189444031"><ele>67.0</ele><time>2026-04-21T08:06:04.999Z</time></trkpt><trkpt lat="43.71048170622749" lon="7.200470609321652"><ele>67.66666666666666</ele><time>2026-04-21T08:06:05.999Z</time></trkpt><trkpt lat="43.710479761025525" lon="7.200730786638309"><ele>68.33333333333333</ele><time>2026-04-21T08:06:06.999Z</time></trkpt><trkpt lat="43.71047190395286" lon="7.200996705559201"><ele>69.0</ele><time>2026-04-21T08:06:07.999Z</time></trkpt><trkpt lat="43.710455520430784" lon="7.201268528524015"><ele>68.66666666666667</ele><time>2026-04-21T08:06:08.999Z</time></trkpt><trkpt lat="43.71043632975737" lon="7.201545901019045"><ele>68.33333333333334</ele><time>2026-04-21T08:06:09.999Z</time></trkpt><trkpt lat="43.710418123498684" lon="7.201830658644795"><ele>68.0</ele><time>2026-04-21T08:06:10.999Z</time></trkpt><trkpt lat="43.7103935972026" lon="7.2021214546184655"><ele>69.66666666666667</ele><time>2026-04-21T08:06:11.999Z</time></trkpt><trkpt lat="43.71036227477689" lon="7.202415778279566"><ele>71.33333333333333</ele><time>2026-04-21T08:06:12.999Z</time></trkpt><trkpt lat="43.71032933165638" lon="7.202714534261111"><ele>73.0</ele><time>2026-04-21T08:06:13.999Z</time></trkpt><trkpt lat="43.71028910263076" lon="7.203013331843304"><ele>84.33333333333333</ele><time>2026-04-21T08:06:14.999Z</time></trkpt><trkpt lat="43.71023991038645" lon="7.203314791801229"><ele>95.66666666666666</ele><time>2026-04-21T08:06:15.999Z</time></trkpt><trkpt lat="43.71018224702384" lon="7.203615289611455"><ele>107.0</ele><time>2026-04-21T08:06:16.999Z</time></trkpt><trkpt lat="43.71011253371808" lon="7.203916819421057"><ele>106.0</ele><time>2026-04-21T08:06:17.999Z</time></trkpt><trkpt lat="43.710029729887445" lon="7.204219187214586"><ele>105.0</ele><time>2026-04-21T08:06:18.999Z</time></trkpt><trkpt lat="43.70993667895121" lon="7.20452216377462"><ele>105.0</ele><time>2026-04-21T08:06:19.999Z</time></trkpt><trkpt lat="43.70983775608643" lon="7.204825905937801"><ele>105.0</ele><time>2026-04-21T08:06:20.999Z</time></trkpt><trkpt lat="43.70973695699524" lon="7.205130999998769"><ele>99.5</ele><time>2026-04-21T08:06:21.999Z</time></trkpt><trkpt lat="43.70963741211533" lon="7.205435760676686"><ele>94.0</ele><time>2026-04-21T08:06:22.999Z</time></trkpt><trkpt lat="43.70954032672301" lon="7.205737310407668"><ele>91.5</ele><time>2026-04-21T08:06:24Z</time></trkpt><trkpt lat="43.7094489920666" lon="7.206033281491534"><ele>89.0</ele><time>2026-04-21T08:06:25Z</time></trkpt><trkpt lat="43.70937129040927" lon="7.206339111355263"><ele>106.0</ele><time>2026-04-21T08:06:26Z</time></trkpt><trkpt lat="43.709306474652955" lon="7.2066478597230414"><ele>123.0</ele><time>2026-04-21T08:06:27Z</time></trkpt><trkpt lat="43.70926400083332" lon="7.206947617374418"><ele>123.0</ele><time>2026-04-21T08:06:28Z</time></trkpt><trkpt lat="43.709240121589524" lon="7.207253516199628"><ele>123.0</ele><time>2026-04-21T08:06:29Z</time></trkpt><trkpt lat="43.70923474319156" lon="7.207562835044211"><ele>123.0</ele><time>2026-04-21T08:06:30Z</time></trkpt><trkpt lat="43.70924837685403" lon="7.207874839810305"><ele>125.0</ele><time>2026-04-21T08:06:31Z</time></trkpt><trkpt lat="43.709274539145724" lon="7.208187445983001"><ele>127.0</ele><time>2026-04-21T08:06:32Z</time></trkpt><trkpt lat="43.709316016796635" lon="7.2084972574308965"><ele>127.0</ele><time>2026-04-21T08:06:33Z</time></trkpt><trkpt lat="43.70937142211897" lon="7.2088030614451135"><ele>127.0</ele><time>2026-04-21T08:06:34Z</time></trkpt><trkpt lat="43.70943919551148" lon="7.209106773464211"><ele>113.5</ele><time>2026-04-21T08:06:35Z</time></trkpt><trkpt lat="43.70951808778492" lon="7.20940512753698"><ele>100.0</ele><time>2026-04-21T08:06:36Z</time></trkpt><trkpt lat="43.709607283083166" lon="7.209699141157959"><ele>109.0</ele><time>2026-04-21T08:06:37Z</time></trkpt><trkpt lat="43.70970980060463" lon="7.209986520125969"><ele>118.0</ele><time>2026-04-21T08:06:38Z</time></trkpt><trkpt lat="43.70982541943552" lon="7.2102615907150795"><ele>118.0</ele><time>2026-04-21T08:06:39Z</time></trkpt><trkpt lat="43.709951837164" lon="7.210527008524245"><ele>118.0</ele><time>2026-04-21T08:06:40Z</time></trkpt><trkpt lat="43.71009098844221" lon="7.2107813858177305"><ele>113.5</ele><time>2026-04-21T08:06:41Z</time></trkpt><trkpt lat="43.71023860944937" lon="7.211023985058912"><ele>109.0</ele><time>2026-04-21T08:06:42Z</time></trkpt><trkpt lat="43.71039454397084" lon="7.211259176062859"><ele>109.0</ele><time>2026-04-21T08:06:43Z</time></trkpt><trkpt lat="43.710557045768496" lon="7.21148530487959"><ele>109.0</ele><time>2026-04-21T08:06:44Z</time></trkpt><trkpt lat="43.710723509620834" lon="7.211705717659822"><ele>117.0</ele><time>2026-04-21T08:06:45Z</time></trkpt><trkpt lat="43.71089370632801" lon="7.211918275645422"><ele>125.0</ele><time>2026-04-21T08:06:46Z</time></trkpt><trkpt lat="43.711069633813345" lon="7.212128322025509"><ele>128.0</ele><time>2026-04-21T08:06:47Z</time></trkpt><trkpt lat="43.711250101128044" lon="7.212333237648511"><ele>131.0</ele><time>2026-04-21T08:06:48Z</time></trkpt><trkpt lat="43.7114385384234" lon="7.212527664199906"><ele>131.0</ele><time>2026-04-21T08:06:49Z</time></trkpt><trkpt lat="43.7116325380328" lon="7.212708853690193"><ele>131.0</ele><time>2026-04-21T08:06:50Z</time></trkpt><trkpt lat="43.71183340573633" lon="7.21287965711892"><ele>125.0</ele><time>2026-04-21T08:06:51Z</time></trkpt><trkpt lat="43.712040458497704" lon="7.213031255993262"><ele>119.0</ele><time>2026-04-21T08:06:52Z</time></trkpt><trkpt lat="43.712254336203486" lon="7.2131680611971225"><ele>134.0</ele><time>2026-04-21T08:06:53Z</time></trkpt><trkpt lat="43.71247440740544" lon="7.213285339135279"><ele>149.0</ele><time>2026-04-21T08:06:54Z</time></trkpt><trkpt lat="43.71269903158379" lon="7.213385851053169"><ele>149.5</ele><time>2026-04-21T08:06:55Z</time></trkpt><trkpt lat="43.71292696823051" lon="7.21347214615267"><ele>150.0</ele><time>2026-04-21T08:06:56Z</time></trkpt><trkpt lat="43.71315850510287" lon="7.213541035818705"><ele>150.0</ele><time>2026-04-21T08:06:57Z</time></trkpt><trkpt lat="43.713392611973106" lon="7.213592041999816"><ele>150.0</ele><time>2026-04-21T08:06:58Z</time></trkpt><trkpt lat="43.71362840236633" lon="7.213623241187207"><ele>146.0</ele><time>2026-04-21T08:06:59Z</time></trkpt><trkpt lat="43.71386500108554" lon="7.213639835950007"><ele>142.0</ele><time>2026-04-21T08:07:00Z</time></trkpt><trkpt lat="43.71410229200384" lon="7.213640706277756"><ele>142.0</ele><time>2026-04-21T08:07:01Z</time></trkpt><trkpt lat="43.71434174291511" lon="7.213629805879512"><ele>142.0</ele><time>2026-04-21T08:07:02Z</time></trkpt><trkpt lat="43.714581910367286" lon="7.21361805211344"><ele>147.5</ele><time>2026-04-21T08:07:03Z</time></trkpt><trkpt lat="43.71482303792813" lon="7.21360471212673"><ele>153.0</ele><time>2026-04-21T08:07:04Z</time></trkpt><trkpt lat="43.71506452564119" lon="7.213580978955192"><ele>156.0</ele><time>2026-04-21T08:07:05Z</time></trkpt><trkpt lat="43.71530633051078" lon="7.213549342538085"><ele>159.0</ele><time>2026-04-21T08:07:06Z</time></trkpt><trkpt lat="43.71554851642112" lon="7.21352285650566"><ele>159.0</ele><time>2026-04-21T08:07:07Z</time></trkpt><trkpt lat="43.715787098853816" lon="7.2134998828894785"><ele>159.0</ele><time>2026-04-21T08:07:08Z</time></trkpt><trkpt lat="43.71602256175399" lon="7.213476943395032"><ele>163.0</ele><time>2026-04-21T08:07:09Z</time></trkpt><trkpt lat="43.71626258459989" lon="7.213461808788361"><ele>167.0</ele><time>2026-04-21T08:07:10Z</time></trkpt><trkpt lat="43.716500327999825" lon="7.213451871368701"><ele>167.0</ele><time>2026-04-21T08:07:11Z</time></trkpt><trkpt lat="43.71673969905352" lon="7.213455807018682"><ele>167.0</ele><time>2026-04-21T08:07:12Z</time></trkpt><trkpt lat="43.716973923214056" lon="7.213479809539274"><ele>171.0</ele><time>2026-04-21T08:07:13Z</time></trkpt><trkpt lat="43.7172019739355" lon="7.2135250529772375"><ele>175.0</ele><time>2026-04-21T08:07:14Z</time></trkpt><trkpt lat="43.71742664923576" lon="7.213589493203773"><ele>175.0</ele><time>2026-04-21T08:07:15Z</time></trkpt><trkpt lat="43.71763455532505" lon="7.213678537277502"><ele>175.0</ele><time>2026-04-21T08:07:16Z</time></trkpt><trkpt lat="43.717834492041504" lon="7.213790917338695"><ele>175.0</ele><time>2026-04-21T08:07:17Z</time></trkpt><trkpt lat="43.718033454978006" lon="7.213925798318654"><ele>194.0</ele><time>2026-04-21T08:07:18Z</time></trkpt><trkpt lat="43.71822665887256" lon="7.214080081774688"><ele>213.0</ele><time>2026-04-21T08:07:19Z</time></trkpt><trkpt lat="43.71841781144906" lon="7.214254572984548"><ele>217.5</ele><time>2026-04-21T08:07:20Z</time></trkpt><trkpt lat="43.71860515016155" lon="7.214447904202379"><ele>222.0</ele><time>2026-04-21T08:07:21Z</time></trkpt><trkpt lat="43.7187913984502" lon="7.214653760507202"><ele>232.0</ele><time>2026-04-21T08:07:22Z</time></trkpt><trkpt lat="43.718978681894356" lon="7.214865820491488"><ele>242.0</ele><time>2026-04-21T08:07:23Z</time></trkpt><trkpt lat="43.7191773382221" lon="7.2151006885362055"><ele>242.0</ele><time>2026-04-21T08:07:24.066Z</time></trkpt><trkpt lat="43.719360868283225" lon="7.215328642859689"><ele>242.0</ele><time>2026-04-21T08:07:25.059Z</time></trkpt><trkpt lat="43.719544331245125" lon="7.215556797580763"><ele>218.0</ele><time>2026-04-21T08:07:26.061Z</time></trkpt><trkpt lat="43.721411213739124" lon="7.2177477261701535"><ele>218.0</ele><time>2026-04-21T08:07:36Z</time></trkpt><trkpt lat="43.721544664682014" lon="7.218043368482866"><ele>218.0</ele><time>2026-04-21T08:07:37Z</time></trkpt><trkpt lat="43.721665134785205" lon="7.2183335253732865"><ele>213.33333333333334</ele><time>2026-04-21T08:07:38Z</time></trkpt><trkpt lat="43.721752880975295" lon="7.218604547882158"><ele>208.66666666666669</ele><time>2026-04-21T08:07:39Z</time></trkpt><trkpt lat="43.72183676258875" lon="7.218903692191493"><ele>204.0</ele><time>2026-04-21T08:07:40Z</time></trkpt><trkpt lat="43.72190007401345" lon="7.21921640890423"><ele>204.0</ele><time>2026-04-21T08:07:41Z</time></trkpt><trkpt lat="43.72193897024951" lon="7.219535412769986"><ele>204.0</ele><time>2026-04-21T08:07:42Z</time></trkpt><trkpt lat="43.721979109637445" lon="7.219863209727956"><ele>192.5</ele><time>2026-04-21T08:07:43Z</time></trkpt><trkpt lat="43.72202083597698" lon="7.220189469546914"><ele>181.0</ele><time>2026-04-21T08:07:44Z</time></trkpt><trkpt lat="43.72205725104097" lon="7.220516587456598"><ele>165.5</ele><time>2026-04-21T08:07:45Z</time></trkpt><trkpt lat="43.72209218214223" lon="7.2208485578334765"><ele>150.0</ele><time>2026-04-21T08:07:46Z</time></trkpt><trkpt lat="43.72212876592933" lon="7.221185272286098"><ele>129.5</ele><time>2026-04-21T08:07:47Z</time></trkpt><trkpt lat="43.72216201336437" lon="7.221521965464505"><ele>109.0</ele><time>2026-04-21T08:07:48Z</time></trkpt><trkpt lat="43.72219712372612" lon="7.221859620148437"><ele>109.0</ele><time>2026-04-21T08:07:49Z</time></trkpt><trkpt lat="43.722234324838126" lon="7.222197500830276"><ele>109.0</ele><time>2026-04-21T08:07:50Z</time></trkpt><trkpt lat="43.72227477466732" lon="7.222533458610419"><ele>108.5</ele><time>2026-04-21T08:07:51Z</time></trkpt><trkpt lat="43.72231202486363" lon="7.222867552936653"><ele>108.0</ele><time>2026-04-21T08:07:52Z</time></trkpt><trkpt lat="43.72235147380241" lon="7.223202418369192"><ele>108.0</ele><time>2026-04-21T08:07:53Z</time></trkpt><trkpt lat="43.722388753996285" lon="7.223538890359277"><ele>108.0</ele><time>2026-04-21T08:07:54Z</time></trkpt><trkpt lat="43.722423849600474" lon="7.223873328656273"><ele>129.5</ele><time>2026-04-21T08:07:55Z</time></trkpt><trkpt lat="43.72245813082679" lon="7.224205653788998"><ele>151.0</ele><time>2026-04-21T08:07:56Z</time></trkpt><trkpt lat="43.72249307970938" lon="7.224536692682123"><ele>164.5</ele><time>2026-04-21T08:07:57Z</time></trkpt><trkpt lat="43.72253010376797" lon="7.224863752052641"><ele>178.0</ele><time>2026-04-21T08:07:58Z</time></trkpt><trkpt lat="43.722565933859" lon="7.225188881572292"><ele>178.0</ele><time>2026-04-21T08:07:59Z</time></trkpt><trkpt lat="43.722599593399565" lon="7.225497665641628"><ele>178.0</ele><time>2026-04-21T08:08:00Z</time></trkpt><trkpt lat="43.7226348495028" lon="7.225813071047624"><ele>189.5</ele><time>2026-04-21T08:08:01Z</time></trkpt><trkpt lat="43.7226714746734" lon="7.226125330004107"><ele>201.0</ele><time>2026-04-21T08:08:02Z</time></trkpt><trkpt lat="43.722717758273596" lon="7.2264279683272585"><ele>200.5</ele><time>2026-04-21T08:08:03Z</time></trkpt><trkpt lat="43.722783439613416" lon="7.226730752634343"><ele>200.0</ele><time>2026-04-21T08:08:03.999Z</time></trkpt><trkpt lat="43.72286448480974" lon="7.227025893184981"><ele>208.5</ele><time>2026-04-21T08:08:04.999Z</time></trkpt><trkpt lat="43.72295904306809" lon="7.227315856806719"><ele>217.0</ele><time>2026-04-21T08:08:05.999Z</time></trkpt><trkpt lat="43.72306598722111" lon="7.227598307858269"><ele>217.0</ele><time>2026-04-21T08:08:06.999Z</time></trkpt><trkpt lat="43.72318414566479" lon="7.2278662446628585"><ele>217.0</ele><time>2026-04-21T08:08:07.999Z</time></trkpt><trkpt lat="43.723319231213196" lon="7.22812081866263"><ele>217.5</ele><time>2026-04-21T08:08:08.999Z</time></trkpt><trkpt lat="43.723470175184715" lon="7.228366278392398"><ele>218.0</ele><time>2026-04-21T08:08:09.999Z</time></trkpt><trkpt lat="43.72363544076178" lon="7.228598660645252"><ele>220.0</ele><time>2026-04-21T08:08:10.999Z</time></trkpt><trkpt lat="43.723813846265365" lon="7.228814353196326"><ele>222.0</ele><time>2026-04-21T08:08:11.999Z</time></trkpt><trkpt lat="43.72400395056729" lon="7.229015826274489"><ele>218.0</ele><time>2026-04-21T08:08:12.999Z</time></trkpt><trkpt lat="43.72420260845662" lon="7.229206431199601"><ele>214.0</ele><time>2026-04-21T08:08:13.999Z</time></trkpt><trkpt lat="43.72440063497296" lon="7.229394286150948"><ele>225.0</ele><time>2026-04-21T08:08:14.999Z</time></trkpt><trkpt lat="43.72459981463345" lon="7.229590902707537"><ele>236.0</ele><time>2026-04-21T08:08:15.999Z</time></trkpt><trkpt lat="43.72479363794437" lon="7.229787272583769"><ele>226.0</ele><time>2026-04-21T08:08:16.999Z</time></trkpt><trkpt lat="43.72498492331967" lon="7.229977880631112"><ele>216.0</ele><time>2026-04-21T08:08:17.999Z</time></trkpt><trkpt lat="43.72517787822211" lon="7.23018144470779"><ele>218.5</ele><time>2026-04-21T08:08:18.999Z</time></trkpt><trkpt lat="43.725363105665394" lon="7.230407938631787"><ele>221.0</ele><time>2026-04-21T08:08:19.999Z</time></trkpt><trkpt lat="43.72554091334029" lon="7.230656078803289"><ele>221.0</ele><time>2026-04-21T08:08:20.999Z</time></trkpt><trkpt lat="43.725714273410716" lon="7.230916177051839"><ele>221.0</ele><time>2026-04-21T08:08:21.999Z</time></trkpt><trkpt lat="43.7258907332145" lon="7.231178101404989"><ele>226.5</ele><time>2026-04-21T08:08:22.999Z</time></trkpt><trkpt lat="43.72606477801522" lon="7.231441380025343"><ele>232.0</ele><time>2026-04-21T08:08:23.999Z</time></trkpt><trkpt lat="43.726229650243276" lon="7.231697910031529"><ele>236.5</ele><time>2026-04-21T08:08:24.999Z</time></trkpt><trkpt lat="43.7263957144457" lon="7.231959844341399"><ele>241.0</ele><time>2026-04-21T08:08:25.999Z</time></trkpt><trkpt lat="43.72656577334709" lon="7.2322192048481115"><ele>237.0</ele><time>2026-04-21T08:08:26.999Z</time></trkpt><trkpt lat="43.72674046249793" lon="7.232472963642752"><ele>233.0</ele><time>2026-04-21T08:08:27.999Z</time></trkpt><trkpt lat="43.72691838817904" lon="7.232724949156129"><ele>227.0</ele><time>2026-04-21T08:08:28.999Z</time></trkpt><trkpt lat="43.7271876028612" lon="7.233014402707715"><ele>221.0</ele><time>2026-04-21T08:08:29.999Z</time></trkpt><trkpt lat="43.7273723610538" lon="7.233275602941711"><ele>220.0</ele><time>2026-04-21T08:08:30.999Z</time></trkpt><trkpt lat="43.727494570733015" lon="7.233406077451667"><ele>219.0</ele><time>2026-04-21T08:08:31.999Z</time></trkpt><trkpt lat="43.72768971461851" lon="7.233557565376296"><ele>218.0</ele><time>2026-04-21T08:08:32.999Z</time></trkpt><trkpt lat="43.72787930273279" lon="7.233731767058738"><ele>218.0</ele><time>2026-04-21T08:08:33.999Z</time></trkpt><trkpt lat="43.72807640056225" lon="7.233931425516917"><ele>218.0</ele><time>2026-04-21T08:08:35Z</time></trkpt><trkpt lat="43.7282981413719" lon="7.234130379325911"><ele>214.5</ele><time>2026-04-21T08:08:36Z</time></trkpt><trkpt lat="43.728500936186165" lon="7.234334429472956"><ele>211.0</ele><time>2026-04-21T08:08:37Z</time></trkpt><trkpt lat="43.72869786979698" lon="7.234538853990478"><ele>210.5</ele><time>2026-04-21T08:08:38Z</time></trkpt><trkpt lat="43.728885376569814" lon="7.234734055548308"><ele>210.0</ele><time>2026-04-21T08:08:39Z</time></trkpt><trkpt lat="43.729068294153166" lon="7.234921995102448"><ele>210.0</ele><time>2026-04-21T08:08:40Z</time></trkpt><trkpt lat="43.72925151748262" lon="7.235106453702718"><ele>210.0</ele><time>2026-04-21T08:08:41Z</time></trkpt><trkpt lat="43.72944251975236" lon="7.2352999908874756"><ele>212.5</ele><time>2026-04-21T08:08:42Z</time></trkpt><trkpt lat="43.729625915624396" lon="7.235488503472651"><ele>215.0</ele><time>2026-04-21T08:08:43Z</time></trkpt><trkpt lat="43.729818886049394" lon="7.23568402865212"><ele>215.0</ele><time>2026-04-21T08:08:44Z</time></trkpt><trkpt lat="43.73001076413715" lon="7.235879654842654"><ele>215.0</ele><time>2026-04-21T08:08:45Z</time></trkpt><trkpt lat="43.730205503529" lon="7.236079265262036"><ele>218.0</ele><time>2026-04-21T08:08:46Z</time></trkpt><trkpt lat="43.730400431021295" lon="7.2362727260458755"><ele>221.0</ele><time>2026-04-21T08:08:47Z</time></trkpt><trkpt lat="43.730600316694954" lon="7.236465293281049"><ele>231.0</ele><time>2026-04-21T08:08:48Z</time></trkpt><trkpt lat="43.73079915737215" lon="7.236654005874399"><ele>241.0</ele><time>2026-04-21T08:08:49Z</time></trkpt><trkpt lat="43.7309920231486" lon="7.2368351815525775"><ele>249.0</ele><time>2026-04-21T08:08:50Z</time></trkpt><trkpt lat="43.73119077702292" lon="7.2370242812654695"><ele>257.0</ele><time>2026-04-21T08:08:51.063Z</time></trkpt><trkpt lat="43.731370449066674" lon="7.237203733838039"><ele>261.0</ele><time>2026-04-21T08:08:52.055Z</time></trkpt><trkpt lat="43.73153098688188" lon="7.23741567657427"><ele>265.0</ele><time>2026-04-21T08:08:53.055Z</time></trkpt><trkpt lat="43.73169203286859" lon="7.237604643693933"><ele>269.0</ele><time>2026-04-21T08:08:54.055Z</time></trkpt><trkpt lat="43.73361032755279" lon="7.240917398611031"><ele>238.33333333333334</ele><time>2026-04-21T08:09:08Z</time></trkpt><trkpt lat="43.73372613979494" lon="7.241168702927938"><ele>207.66666666666669</ele><time>2026-04-21T08:09:09Z</time></trkpt><trkpt lat="43.73390224638383" lon="7.241352391273724"><ele>177.0</ele><time>2026-04-21T08:09:10Z</time></trkpt><trkpt lat="43.73399094610125" lon="7.241651601193244"><ele>173.0</ele><time>2026-04-21T08:09:11Z</time></trkpt><trkpt lat="43.734094149604054" lon="7.241927852183727"><ele>169.0</ele><time>2026-04-21T08:09:12Z</time></trkpt><trkpt lat="43.73419510608315" lon="7.24220560945971"><ele>165.0</ele><time>2026-04-21T08:09:13Z</time></trkpt><trkpt lat="43.734289429877656" lon="7.242486650760501"><ele>165.0</ele><time>2026-04-21T08:09:14Z</time></trkpt><trkpt lat="43.73437947527667" lon="7.242767589108409"><ele>165.0</ele><time>2026-04-21T08:09:15Z</time></trkpt><trkpt lat="43.73446622030568" lon="7.243043990119165"><ele>165.0</ele><time>2026-04-21T08:09:16Z</time></trkpt><trkpt lat="43.73454425208129" lon="7.243325062770096"><ele>165.66666666666666</ele><time>2026-04-21T08:09:17Z</time></trkpt><trkpt lat="43.73461914756817" lon="7.243617516841214"><ele>166.33333333333331</ele><time>2026-04-21T08:09:18Z</time></trkpt><trkpt lat="43.73468272689447" lon="7.243908222885075"><ele>167.0</ele><time>2026-04-21T08:09:19Z</time></trkpt><trkpt lat="43.73473236006042" lon="7.244198412340282"><ele>165.33333333333331</ele><time>2026-04-21T08:09:20Z</time></trkpt><trkpt lat="43.734770817794" lon="7.244496378720246"><ele>163.66666666666666</ele><time>2026-04-21T08:09:21Z</time></trkpt><trkpt lat="43.73479926816434" lon="7.244795890487964"><ele>162.0</ele><time>2026-04-21T08:09:22Z</time></trkpt><trkpt lat="43.73482309608594" lon="7.245097370171978"><ele>169.33333333333334</ele><time>2026-04-21T08:09:23Z</time></trkpt><trkpt lat="43.73484161138493" lon="7.245393732994469"><ele>176.66666666666669</ele><time>2026-04-21T08:09:24Z</time></trkpt><trkpt lat="43.73484830049342" lon="7.245686079443893"><ele>184.0</ele><time>2026-04-21T08:09:25Z</time></trkpt><trkpt lat="43.7348509487685" lon="7.245981880853631"><ele>190.66666666666669</ele><time>2026-04-21T08:09:26Z</time></trkpt><trkpt lat="43.73484712682652" lon="7.246280644315293"><ele>197.33333333333334</ele><time>2026-04-21T08:09:27Z</time></trkpt><trkpt lat="43.73483645392233" lon="7.24659186800106"><ele>204.0</ele><time>2026-04-21T08:09:28.053Z</time></trkpt><trkpt lat="43.73482706662141" lon="7.246874667743714"><ele>210.66666666666669</ele><time>2026-04-21T08:09:29.046Z</time></trkpt><trkpt lat="43.73481592477536" lon="7.24715658119436"><ele>217.33333333333334</ele><time>2026-04-21T08:09:30.046Z</time></trkpt><trkpt lat="43.73480292489621" lon="7.247439144195594"><ele>224.0</ele><time>2026-04-21T08:09:31.048Z</time></trkpt><trkpt lat="43.731250946691766" lon="7.2557091075078"><ele>185.33333333333334</ele><time>2026-04-21T08:10:09Z</time></trkpt><trkpt lat="43.73105505958999" lon="7.255807959239497"><ele>146.66666666666669</ele><time>2026-04-21T08:10:10Z</time></trkpt><trkpt lat="43.73086345477573" lon="7.255918822205017"><ele>108.0</ele><time>2026-04-21T08:10:11.001Z</time></trkpt><trkpt lat="43.73067477506085" lon="7.256040805522498"><ele>108.0</ele><time>2026-04-21T08:10:12.001Z</time></trkpt><trkpt lat="43.73049056693236" lon="7.256164628292761"><ele>108.0</ele><time>2026-04-21T08:10:13.001Z</time></trkpt><trkpt lat="43.73031254150297" lon="7.256300308154343"><ele>108.0</ele><time>2026-04-21T08:10:14.001Z</time></trkpt><trkpt lat="43.73014791075233" lon="7.256450263456291"><ele>108.66666666666666</ele><time>2026-04-21T08:10:15Z</time></trkpt><trkpt lat="43.72999752356166" lon="7.256604323996281"><ele>109.33333333333333</ele><time>2026-04-21T08:10:16Z</time></trkpt><trkpt lat="43.72984717926124" lon="7.256771331585312"><ele>110.0</ele><time>2026-04-21T08:10:17Z</time></trkpt><trkpt lat="43.72970126357032" lon="7.256945878282955"><ele>110.0</ele><time>2026-04-21T08:10:18Z</time></trkpt><trkpt lat="43.72955867186428" lon="7.257130415948214"><ele>110.0</ele><time>2026-04-21T08:10:19Z</time></trkpt><trkpt lat="43.729419204572125" lon="7.2573310845870616"><ele>110.0</ele><time>2026-04-21T08:10:20Z</time></trkpt><trkpt lat="43.729287993866365" lon="7.257544239958371"><ele>109.0</ele><time>2026-04-21T08:10:21Z</time></trkpt><trkpt lat="43.72916627749583" lon="7.257759871411972"><ele>108.0</ele><time>2026-04-21T08:10:22Z</time></trkpt><trkpt lat="43.72905799242187" lon="7.257982409987188"><ele>107.0</ele><time>2026-04-21T08:10:23Z</time></trkpt><trkpt lat="43.72895831220891" lon="7.258213413978258"><ele>109.33333333333333</ele><time>2026-04-21T08:10:24Z</time></trkpt><trkpt lat="43.72887361253172" lon="7.2584572224503345"><ele>111.66666666666666</ele><time>2026-04-21T08:10:25Z</time></trkpt><trkpt lat="43.72879991568037" lon="7.258709590370668"><ele>114.0</ele><time>2026-04-21T08:10:26Z</time></trkpt><trkpt lat="43.72872497587973" lon="7.25896324801466"><ele>115.33333333333334</ele><time>2026-04-21T08:10:27Z</time></trkpt><trkpt lat="43.72865899865871" lon="7.25921777402172"><ele>116.66666666666667</ele><time>2026-04-21T08:10:28Z</time></trkpt><trkpt lat="43.72861099273578" lon="7.259482073488701"><ele>118.0</ele><time>2026-04-21T08:10:29Z</time></trkpt><trkpt lat="43.7285735601135" lon="7.259747141894792"><ele>120.66666666666667</ele><time>2026-04-21T08:10:30Z</time></trkpt><trkpt lat="43.72854915688825" lon="7.2600123781408925"><ele>123.33333333333334</ele><time>2026-04-21T08:10:31Z</time></trkpt><trkpt lat="43.72852962386194" lon="7.260284163916783"><ele>126.0</ele><time>2026-04-21T08:10:32Z</time></trkpt><trkpt lat="43.728517642348116" lon="7.2605600766281135"><ele>129.33333333333334</ele><time>2026-04-21T08:10:33Z</time></trkpt><trkpt lat="43.72851911461172" lon="7.260829399218318"><ele>132.66666666666669</ele><time>2026-04-21T08:10:34Z</time></trkpt><trkpt lat="43.72853256421252" lon="7.261084319813762"><ele>136.0</ele><time>2026-04-21T08:10:35Z</time></trkpt><trkpt lat="43.72855045071538" lon="7.261338498308765"><ele>140.0</ele><time>2026-04-21T08:10:36Z</time></trkpt><trkpt lat="43.72857735934029" lon="7.261607542469865"><ele>144.0</ele><time>2026-04-21T08:10:37Z</time></trkpt><trkpt lat="43.728605595459015" lon="7.261879866096878"><ele>148.0</ele><time>2026-04-21T08:10:38Z</time></trkpt><trkpt lat="43.72864485029866" lon="7.262155927266042"><ele>148.33333333333334</ele><time>2026-04-21T08:10:39Z</time></trkpt><trkpt lat="43.72868789394655" lon="7.262441588204201"><ele>148.66666666666666</ele><time>2026-04-21T08:10:40Z</time></trkpt><trkpt lat="43.728729177812895" lon="7.262732800161663"><ele>149.0</ele><time>2026-04-21T08:10:41Z</time></trkpt><trkpt lat="43.728767610625574" lon="7.263018205891507"><ele>149.33333333333331</ele><time>2026-04-21T08:10:42Z</time></trkpt><trkpt lat="43.728805923427345" lon="7.263279088307549"><ele>149.66666666666666</ele><time>2026-04-21T08:10:43Z</time></trkpt><trkpt lat="43.728845097688556" lon="7.263530926855728"><ele>150.0</ele><time>2026-04-21T08:10:44Z</time></trkpt><trkpt lat="43.72889020175899" lon="7.26379760635465"><ele>149.33333333333334</ele><time>2026-04-21T08:10:45Z</time></trkpt><trkpt lat="43.72894318010902" lon="7.264071099878846"><ele>148.66666666666669</ele><time>2026-04-21T08:10:46Z</time></trkpt><trkpt lat="43.72900265110082" lon="7.264344361733998"><ele>148.0</ele><time>2026-04-21T08:10:47Z</time></trkpt><trkpt lat="43.729072021771906" lon="7.264618948725676"><ele>143.33333333333334</ele><time>2026-04-21T08:10:48Z</time></trkpt><trkpt lat="43.72915075090363" lon="7.264887687661591"><ele>138.66666666666666</ele><time>2026-04-21T08:10:49Z</time></trkpt><trkpt lat="43.72924932806073" lon="7.265150661592783"><ele>134.0</ele><time>2026-04-21T08:10:50Z</time></trkpt><trkpt lat="43.72937291287344" lon="7.265399087958165"><ele>139.33333333333331</ele><time>2026-04-21T08:10:51Z</time></trkpt><trkpt lat="43.72950972037618" lon="7.265638481929614"><ele>144.66666666666666</ele><time>2026-04-21T08:10:52Z</time></trkpt><trkpt lat="43.72966232421077" lon="7.2658712897662685"><ele>150.0</ele><time>2026-04-21T08:10:53Z</time></trkpt><trkpt lat="43.72982003710247" lon="7.266088739209712"><ele>150.0</ele><time>2026-04-21T08:10:54Z</time></trkpt><trkpt lat="43.72999144247389" lon="7.266303269550267"><ele>150.0</ele><time>2026-04-21T08:10:55Z</time></trkpt><trkpt lat="43.73017187430306" lon="7.266513529259967"><ele>148.5</ele><time>2026-04-21T08:10:56Z</time></trkpt><trkpt lat="43.730357839711004" lon="7.266718558747964"><ele>147.0</ele><time>2026-04-21T08:10:57Z</time></trkpt><trkpt lat="43.7305441154955" lon="7.266925655323886"><ele>147.0</ele><time>2026-04-21T08:10:58Z</time></trkpt><trkpt lat="43.730728387333826" lon="7.267126328114545"><ele>147.0</ele><time>2026-04-21T08:10:59Z</time></trkpt><trkpt lat="43.7309064134318" lon="7.267335087998291"><ele>145.33333333333334</ele><time>2026-04-21T08:11:00.001Z</time></trkpt><trkpt lat="43.731073849974024" lon="7.267544083858672"><ele>143.66666666666669</ele><time>2026-04-21T08:11:01.001Z</time></trkpt><trkpt lat="43.73122213508029" lon="7.267760549078473"><ele>142.0</ele><time>2026-04-21T08:11:02.001Z</time></trkpt><trkpt lat="43.73134934584738" lon="7.267980242874323"><ele>140.0</ele><time>2026-04-21T08:11:03.001Z</time></trkpt><trkpt lat="43.73146848424695" lon="7.268216274327935"><ele>138.0</ele><time>2026-04-21T08:11:04.001Z</time></trkpt><trkpt lat="43.731575515668155" lon="7.268465887609308"><ele>136.0</ele><time>2026-04-21T08:11:05.001Z</time></trkpt><trkpt lat="43.731666264655026" lon="7.268722836042894"><ele>133.66666666666669</ele><time>2026-04-21T08:11:06.001Z</time></trkpt><trkpt lat="43.731741313878686" lon="7.2689992049069945"><ele>131.33333333333334</ele><time>2026-04-21T08:11:07.001Z</time></trkpt><trkpt lat="43.73179996446807" lon="7.269293018711713"><ele>129.0</ele><time>2026-04-21T08:11:08.001Z</time></trkpt><trkpt lat="43.7318444545932" lon="7.269609042544497"><ele>123.5</ele><time>2026-04-21T08:11:09.001Z</time></trkpt><trkpt lat="43.73187264013575" lon="7.269938817945794"><ele>118.0</ele><time>2026-04-21T08:11:10.001Z</time></trkpt><trkpt lat="43.731882760097186" lon="7.270283533809167"><ele>114.5</ele><time>2026-04-21T08:11:11.001Z</time></trkpt><trkpt lat="43.73188107925975" lon="7.270637336513457"><ele>111.0</ele><time>2026-04-21T08:11:12.001Z</time></trkpt><trkpt lat="43.73187749570368" lon="7.270994217053255"><ele>111.0</ele><time>2026-04-21T08:11:13.001Z</time></trkpt><trkpt lat="43.731879210544015" lon="7.271349464397706"><ele>111.0</ele><time>2026-04-21T08:11:14.001Z</time></trkpt><trkpt lat="43.73188387162385" lon="7.2716886402594385"><ele>111.0</ele><time>2026-04-21T08:11:15.001Z</time></trkpt><trkpt lat="43.731887456946616" lon="7.272016059440856"><ele>111.0</ele><time>2026-04-21T08:11:16.001Z</time></trkpt><trkpt lat="43.731891592653305" lon="7.272334330445005"><ele>117.5</ele><time>2026-04-21T08:11:17.001Z</time></trkpt><trkpt lat="43.731893736632266" lon="7.272648654703951"><ele>124.0</ele><time>2026-04-21T08:11:18.001Z</time></trkpt><trkpt lat="43.73189657023097" lon="7.272974004340398"><ele>135.0</ele><time>2026-04-21T08:11:19.001Z</time></trkpt><trkpt lat="43.731900657891885" lon="7.273316193964676"><ele>146.0</ele><time>2026-04-21T08:11:20.001Z</time></trkpt><trkpt lat="43.73189980881549" lon="7.2736660451038"><ele>149.0</ele><time>2026-04-21T08:11:21.001Z</time></trkpt><trkpt lat="43.73189245783316" lon="7.27401280083758"><ele>152.0</ele><time>2026-04-21T08:11:22.001Z</time></trkpt><trkpt lat="43.73187935418314" lon="7.274364115909947"><ele>152.0</ele><time>2026-04-21T08:11:23.001Z</time></trkpt><trkpt lat="43.73186178759844" lon="7.274721136276002"><ele>152.0</ele><time>2026-04-21T08:11:24.001Z</time></trkpt><trkpt lat="43.731841391694424" lon="7.275074166837275"><ele>157.0</ele><time>2026-04-21T08:11:25.001Z</time></trkpt><trkpt lat="43.73182220548125" lon="7.275437085708657"><ele>162.0</ele><time>2026-04-21T08:11:26.06Z</time></trkpt><trkpt lat="43.73178620336666" lon="7.2757666337939115"><ele>163.0</ele><time>2026-04-21T08:11:27.059Z</time></trkpt><trkpt lat="43.73174806051059" lon="7.276080641337077"><ele>164.0</ele><time>2026-04-21T08:11:28.059Z</time></trkpt><trkpt lat="43.73171164472789" lon="7.276392569986282"><ele>114.0</ele><time>2026-04-21T08:11:29.057Z</time></trkpt><trkpt lat="43.73176976056044" lon="7.278416889830245"><ele>114.0</ele><time>2026-04-21T08:11:37.001Z</time></trkpt><trkpt lat="43.73183940978248" lon="7.278671394921585"><ele>114.0</ele><time>2026-04-21T08:11:38.001Z</time></trkpt><trkpt lat="43.73193065799491" lon="7.278932458509648"><ele>114.0</ele><time>2026-04-21T08:11:39.001Z</time></trkpt><trkpt lat="43.7320389589134" lon="7.279184543199042"><ele>116.5</ele><time>2026-04-21T08:11:40.001Z</time></trkpt><trkpt lat="43.73214312775525" lon="7.279459658469904"><ele>119.0</ele><time>2026-04-21T08:11:41.001Z</time></trkpt><trkpt lat="43.73225527152233" lon="7.27973572044152"><ele>116.66666666666666</ele><time>2026-04-21T08:11:42.001Z</time></trkpt><trkpt lat="43.73236605295129" lon="7.280004779686006"><ele>114.33333333333334</ele><time>2026-04-21T08:11:43.001Z</time></trkpt><trkpt lat="43.73247669208975" lon="7.2802736686442575"><ele>112.0</ele><time>2026-04-21T08:11:44.001Z</time></trkpt><trkpt lat="43.732896973266485" lon="7.281407095463364"><ele>90.0</ele><time>2026-04-21T08:11:48.001Z</time></trkpt><trkpt lat="43.7329971738291" lon="7.281731562884132"><ele>68.0</ele><time>2026-04-21T08:11:49.066Z</time></trkpt><trkpt lat="43.733477104604965" lon="7.284271896034999"><ele>68.0</ele><time>2026-04-21T08:11:57.001Z</time></trkpt><trkpt lat="43.73352825972304" lon="7.284582041036922"><ele>68.0</ele><time>2026-04-21T08:11:58.001Z</time></trkpt><trkpt lat="43.73357288000099" lon="7.284913530740034"><ele>63.0</ele><time>2026-04-21T08:11:59.001Z</time></trkpt><trkpt lat="43.73361534477723" lon="7.285228232366672"><ele>58.0</ele><time>2026-04-21T08:12:00.001Z</time></trkpt><trkpt lat="43.73364913292515" lon="7.285574950213594"><ele>56.0</ele><time>2026-04-21T08:12:01.001Z</time></trkpt><trkpt lat="43.73367386245955" lon="7.285932113694228"><ele>54.0</ele><time>2026-04-21T08:12:02.001Z</time></trkpt><trkpt lat="43.73368785951309" lon="7.286265905858997"><ele>53.0</ele><time>2026-04-21T08:12:03.001Z</time></trkpt><trkpt lat="43.73368087249308" lon="7.286625543621819"><ele>52.0</ele><time>2026-04-21T08:12:04.001Z</time></trkpt><trkpt lat="43.73366075426477" lon="7.286983214914946"><ele>54.0</ele><time>2026-04-21T08:12:05.001Z</time></trkpt><trkpt lat="43.73362638886723" lon="7.287329161873257"><ele>56.0</ele><time>2026-04-21T08:12:06.001Z</time></trkpt><trkpt lat="43.73358084838484" lon="7.2876835941954825"><ele>55.5</ele><time>2026-04-21T08:12:07.001Z</time></trkpt><trkpt lat="43.73352278092794" lon="7.2880369866435775"><ele>55.0</ele><time>2026-04-21T08:12:08.001Z</time></trkpt><trkpt lat="43.733444261000336" lon="7.288389805344427"><ele>54.0</ele><time>2026-04-21T08:12:09.001Z</time></trkpt><trkpt lat="43.73336024704179" lon="7.28873347385133"><ele>53.0</ele><time>2026-04-21T08:12:10.001Z</time></trkpt><trkpt lat="43.73328084248613" lon="7.289084919639315"><ele>53.0</ele><time>2026-04-21T08:12:11.001Z</time></trkpt><trkpt lat="43.733206848922165" lon="7.289432711479655"><ele>53.0</ele><time>2026-04-21T08:12:12.001Z</time></trkpt><trkpt lat="43.73312881034942" lon="7.289779493019654"><ele>51.5</ele><time>2026-04-21T08:12:13.001Z</time></trkpt><trkpt lat="43.733054713520005" lon="7.290127010788225"><ele>50.0</ele><time>2026-04-21T08:12:14.001Z</time></trkpt><trkpt lat="43.73298694532163" lon="7.290472216416116"><ele>50.0</ele><time>2026-04-21T08:12:15.001Z</time></trkpt><trkpt lat="43.73292443387181" lon="7.290817255928576"><ele>50.0</ele><time>2026-04-21T08:12:16.001Z</time></trkpt><trkpt lat="43.73286697107888" lon="7.291158858940285"><ele>49.5</ele><time>2026-04-21T08:12:17.001Z</time></trkpt><trkpt lat="43.73281072568917" lon="7.291501544924754"><ele>49.0</ele><time>2026-04-21T08:12:18.001Z</time></trkpt><trkpt lat="43.73275614966893" lon="7.291838074112246"><ele>51.0</ele><time>2026-04-21T08:12:19.001Z</time></trkpt><trkpt lat="43.73270603040971" lon="7.2921735894788355"><ele>53.0</ele><time>2026-04-21T08:12:20Z</time></trkpt><trkpt lat="43.73265707485495" lon="7.292507899272095"><ele>60.0</ele><time>2026-04-21T08:12:21Z</time></trkpt><trkpt lat="43.73260782143311" lon="7.292836992552885"><ele>67.0</ele><time>2026-04-21T08:12:22Z</time></trkpt><trkpt lat="43.73256279559985" lon="7.293167413886449"><ele>73.5</ele><time>2026-04-21T08:12:23Z</time></trkpt><trkpt lat="43.73252287182523" lon="7.293496921719306"><ele>80.0</ele><time>2026-04-21T08:12:24Z</time></trkpt><trkpt lat="43.73248544420113" lon="7.293825769005259"><ele>82.0</ele><time>2026-04-21T08:12:25Z</time></trkpt><trkpt lat="43.73244653522139" lon="7.294152382726541"><ele>84.0</ele><time>2026-04-21T08:12:26Z</time></trkpt><trkpt lat="43.73241147014311" lon="7.294481930198029"><ele>86.0</ele><time>2026-04-21T08:12:27Z</time></trkpt><trkpt lat="43.73238168747783" lon="7.294813958752131"><ele>88.0</ele><time>2026-04-21T08:12:28Z</time></trkpt><trkpt lat="43.73235054969618" lon="7.29514567335048"><ele>88.0</ele><time>2026-04-21T08:12:29Z</time></trkpt><trkpt lat="43.732318221536005" lon="7.295481348977281"><ele>88.0</ele><time>2026-04-21T08:12:30Z</time></trkpt><trkpt lat="43.73228488357129" lon="7.295818259062566"><ele>100.5</ele><time>2026-04-21T08:12:31Z</time></trkpt><trkpt lat="43.73225106168005" lon="7.296156833214116"><ele>113.0</ele><time>2026-04-21T08:12:32Z</time></trkpt><trkpt lat="43.732217835536744" lon="7.296495026209119"><ele>114.0</ele><time>2026-04-21T08:12:33Z</time></trkpt><trkpt lat="43.732188379621434" lon="7.296830284216247"><ele>115.0</ele><time>2026-04-21T08:12:34Z</time></trkpt><trkpt lat="43.73216130227999" lon="7.297182739110964"><ele>111.0</ele><time>2026-04-21T08:12:35.067Z</time></trkpt><trkpt lat="43.73213321267652" lon="7.29751410053089"><ele>107.0</ele><time>2026-04-21T08:12:36.064Z</time></trkpt><trkpt lat="43.732112305090645" lon="7.297836964889746"><ele>85.0</ele><time>2026-04-21T08:12:37.061Z</time></trkpt><trkpt lat="43.73199201924181" lon="7.300563926345376"><ele>83.5</ele><time>2026-04-21T08:12:45Z</time></trkpt><trkpt lat="43.73199194469256" lon="7.3009157690867506"><ele>82.0</ele><time>2026-04-21T08:12:46Z</time></trkpt><trkpt lat="43.73199269258615" lon="7.3012717924120185"><ele>83.0</ele><time>2026-04-21T08:12:47Z</time></trkpt><trkpt lat="43.732005362961075" lon="7.301621478035751"><ele>84.0</ele><time>2026-04-21T08:12:48Z</time></trkpt><trkpt lat="43.73200419295971" lon="7.30197752408231"><ele>87.0</ele><time>2026-04-21T08:12:49Z</time></trkpt><trkpt lat="43.7320070574975" lon="7.302319804181228"><ele>90.0</ele><time>2026-04-21T08:12:50Z</time></trkpt><trkpt lat="43.732009171391454" lon="7.302666574881924"><ele>90.0</ele><time>2026-04-21T08:12:51Z</time></trkpt><trkpt lat="43.73200016372963" lon="7.303021828806223"><ele>90.0</ele><time>2026-04-21T08:12:52Z</time></trkpt><trkpt lat="43.73199928138117" lon="7.303384525419732"><ele>93.0</ele><time>2026-04-21T08:12:53Z</time></trkpt><trkpt lat="43.73199340693726" lon="7.303727611913171"><ele>96.0</ele><time>2026-04-21T08:12:54Z</time></trkpt><trkpt lat="43.73198874706248" lon="7.304079629387868"><ele>96.0</ele><time>2026-04-21T08:12:55Z</time></trkpt><trkpt lat="43.73198272164334" lon="7.3044228451035025"><ele>96.0</ele><time>2026-04-21T08:12:56Z</time></trkpt><trkpt lat="43.73198102925742" lon="7.304767000996239"><ele>96.0</ele><time>2026-04-21T08:12:57Z</time></trkpt><trkpt lat="43.73198567248312" lon="7.305109316915564"><ele>96.0</ele><time>2026-04-21T08:12:58Z</time></trkpt><trkpt lat="43.73199490107569" lon="7.305450272058988"><ele>90.0</ele><time>2026-04-21T08:12:59Z</time></trkpt><trkpt lat="43.73200747153582" lon="7.305791699439014"><ele>84.0</ele><time>2026-04-21T08:13:00Z</time></trkpt><trkpt lat="43.73202347675613" lon="7.306130947563956"><ele>78.5</ele><time>2026-04-21T08:13:01Z</time></trkpt><trkpt lat="43.73204098190314" lon="7.306466676795613"><ele>73.0</ele><time>2026-04-21T08:13:02Z</time></trkpt><trkpt lat="43.732060624514155" lon="7.306800432051999"><ele>73.0</ele><time>2026-04-21T08:13:03Z</time></trkpt><trkpt lat="43.732083088384265" lon="7.307131746547952"><ele>73.0</ele><time>2026-04-21T08:13:04Z</time></trkpt><trkpt lat="43.73211079649113" lon="7.3074627621770745"><ele>72.5</ele><time>2026-04-21T08:13:05Z</time></trkpt><trkpt lat="43.732141050552215" lon="7.30778800996072"><ele>72.0</ele><time>2026-04-21T08:13:06Z</time></trkpt><trkpt lat="43.73217462118064" lon="7.308109755114345"><ele>77.0</ele><time>2026-04-21T08:13:07Z</time></trkpt><trkpt lat="43.732210033247135" lon="7.308429009025003"><ele>82.0</ele><time>2026-04-21T08:13:08Z</time></trkpt><trkpt lat="43.73224722308218" lon="7.308745033244097"><ele>88.0</ele><time>2026-04-21T08:13:09Z</time></trkpt><trkpt lat="43.7322863847008" lon="7.309060278222902"><ele>94.0</ele><time>2026-04-21T08:13:10Z</time></trkpt><trkpt lat="43.732328426337354" lon="7.309368954025114"><ele>94.0</ele><time>2026-04-21T08:13:11.001Z</time></trkpt><trkpt lat="43.732373898604905" lon="7.309675405137468"><ele>94.0</ele><time>2026-04-21T08:13:12.001Z</time></trkpt><trkpt lat="43.7324226357485" lon="7.309981117027113"><ele>100.0</ele><time>2026-04-21T08:13:13.001Z</time></trkpt><trkpt lat="43.73247633746587" lon="7.310287617868088"><ele>106.0</ele><time>2026-04-21T08:13:14.001Z</time></trkpt><trkpt lat="43.732533436278544" lon="7.310595200694178"><ele>112.0</ele><time>2026-04-21T08:13:15.001Z</time></trkpt><trkpt lat="43.73259127345928" lon="7.310904533937"><ele>118.0</ele><time>2026-04-21T08:13:16.001Z</time></trkpt><trkpt lat="43.732649963004285" lon="7.311215466441763"><ele>123.0</ele><time>2026-04-21T08:13:17.001Z</time></trkpt><trkpt lat="43.732709149884315" lon="7.3115273687759"><ele>128.0</ele><time>2026-04-21T08:13:18.001Z</time></trkpt><trkpt lat="43.73277307212279" lon="7.311838264222626"><ele>135.5</ele><time>2026-04-21T08:13:19.001Z</time></trkpt><trkpt lat="43.73284014121015" lon="7.312149592762882"><ele>143.0</ele><time>2026-04-21T08:13:20.001Z</time></trkpt><trkpt lat="43.73291016625045" lon="7.312459749039495"><ele>145.5</ele><time>2026-04-21T08:13:21.001Z</time></trkpt><trkpt lat="43.73298310131237" lon="7.312768154421676"><ele>148.0</ele><time>2026-04-21T08:13:22.001Z</time></trkpt><trkpt lat="43.73305780444004" lon="7.3130764722737185"><ele>150.0</ele><time>2026-04-21T08:13:23.001Z</time></trkpt><trkpt lat="43.73313161632647" lon="7.313381622454349"><ele>152.0</ele><time>2026-04-21T08:13:24.001Z</time></trkpt><trkpt lat="43.733204335217195" lon="7.313683169983136"><ele>156.5</ele><time>2026-04-21T08:13:25.001Z</time></trkpt><trkpt lat="43.733276184610375" lon="7.313984706660678"><ele>161.0</ele><time>2026-04-21T08:13:26.001Z</time></trkpt><trkpt lat="43.73334632629475" lon="7.3142880642023185"><ele>161.0</ele><time>2026-04-21T08:13:27.001Z</time></trkpt><trkpt lat="43.733417886372244" lon="7.314589315159311"><ele>161.0</ele><time>2026-04-21T08:13:28.001Z</time></trkpt><trkpt lat="43.733490136224496" lon="7.314890698594683"><ele>147.0</ele><time>2026-04-21T08:13:29.001Z</time></trkpt><trkpt lat="43.733563113804664" lon="7.315191714428028"><ele>133.0</ele><time>2026-04-21T08:13:30.001Z</time></trkpt><trkpt lat="43.733638678250955" lon="7.31549007512297"><ele>134.5</ele><time>2026-04-21T08:13:31.001Z</time></trkpt><trkpt lat="43.73371566380493" lon="7.315787569629215"><ele>136.0</ele><time>2026-04-21T08:13:32.001Z</time></trkpt><trkpt lat="43.73379699560846" lon="7.316083854541885"><ele>136.0</ele><time>2026-04-21T08:13:33.001Z</time></trkpt><trkpt lat="43.73388299975969" lon="7.3163764771611755"><ele>136.0</ele><time>2026-04-21T08:13:34.001Z</time></trkpt><trkpt lat="43.73397431971758" lon="7.316663992136627"><ele>138.5</ele><time>2026-04-21T08:13:35.001Z</time></trkpt><trkpt lat="43.73407113369096" lon="7.316949550177803"><ele>141.0</ele><time>2026-04-21T08:13:36.001Z</time></trkpt><trkpt lat="43.734173283537764" lon="7.317234669655275"><ele>147.0</ele><time>2026-04-21T08:13:37.001Z</time></trkpt><trkpt lat="43.734282791050184" lon="7.317517138544647"><ele>153.0</ele><time>2026-04-21T08:13:38.001Z</time></trkpt><trkpt lat="43.734401320182855" lon="7.317793217055534"><ele>162.5</ele><time>2026-04-21T08:13:39.001Z</time></trkpt><trkpt lat="43.73452273020176" lon="7.318068526636343"><ele>172.0</ele><time>2026-04-21T08:13:40.001Z</time></trkpt><trkpt lat="43.734649320939496" lon="7.318342866016636"><ele>172.0</ele><time>2026-04-21T08:13:41.001Z</time></trkpt><trkpt lat="43.73477847119546" lon="7.3186158385561475"><ele>172.0</ele><time>2026-04-21T08:13:42.001Z</time></trkpt><trkpt lat="43.734916224507856" lon="7.3188816590708425"><ele>179.0</ele><time>2026-04-21T08:13:43.001Z</time></trkpt><trkpt lat="43.73505964291345" lon="7.319144427780111"><ele>186.0</ele><time>2026-04-21T08:13:44.001Z</time></trkpt><trkpt lat="43.735213078797436" lon="7.319397180053564"><ele>183.0</ele><time>2026-04-21T08:13:45.001Z</time></trkpt><trkpt lat="43.73536884308299" lon="7.319647932998178"><ele>180.0</ele><time>2026-04-21T08:13:46.001Z</time></trkpt><trkpt lat="43.735526773498925" lon="7.319894962184821"><ele>186.0</ele><time>2026-04-21T08:13:47.001Z</time></trkpt><trkpt lat="43.73568742369712" lon="7.320138500136837"><ele>192.0</ele><time>2026-04-21T08:13:48.001Z</time></trkpt><trkpt lat="43.73585162313081" lon="7.320378512796697"><ele>196.0</ele><time>2026-04-21T08:13:49.001Z</time></trkpt><trkpt lat="43.73601458559829" lon="7.32062008289061"><ele>200.0</ele><time>2026-04-21T08:13:50.001Z</time></trkpt><trkpt lat="43.73617388822708" lon="7.3208502854961015"><ele>200.0</ele><time>2026-04-21T08:13:51.001Z</time></trkpt><trkpt lat="43.736329219390704" lon="7.321070849341111"><ele>200.0</ele><time>2026-04-21T08:13:52.001Z</time></trkpt><trkpt lat="43.73648012310185" lon="7.321291742722765"><ele>200.0</ele><time>2026-04-21T08:13:53.001Z</time></trkpt><trkpt lat="43.73662888755223" lon="7.3215085183454605"><ele>208.0</ele><time>2026-04-21T08:13:54.001Z</time></trkpt><trkpt lat="43.7367793148891" lon="7.321725106625959"><ele>216.0</ele><time>2026-04-21T08:13:55.001Z</time></trkpt><trkpt lat="43.73692956818601" lon="7.321939535318943"><ele>224.0</ele><time>2026-04-21T08:13:56.001Z</time></trkpt><trkpt lat="43.73707955530453" lon="7.3221526666852785"><ele>236.0</ele><time>2026-04-21T08:13:57.001Z</time></trkpt><trkpt lat="43.73722908723545" lon="7.322365205840535"><ele>248.0</ele><time>2026-04-21T08:13:58.001Z</time></trkpt><trkpt lat="43.73737468308012" lon="7.322582729571495"><ele>260.0</ele><time>2026-04-21T08:13:59.001Z</time></trkpt><trkpt lat="43.73752127472953" lon="7.322800932272774"><ele>260.0</ele><time>2026-04-21T08:14:00.001Z</time></trkpt><trkpt lat="43.737670160154664" lon="7.323016598527504"><ele>260.0</ele><time>2026-04-21T08:14:01.001Z</time></trkpt><trkpt lat="43.73782215820251" lon="7.323235987118422"><ele>260.0</ele><time>2026-04-21T08:14:02.001Z</time></trkpt><trkpt lat="43.73797434853358" lon="7.323454622414378"><ele>241.0</ele><time>2026-04-21T08:14:03.001Z</time></trkpt><trkpt lat="43.73813697947591" lon="7.3236701795732895"><ele>222.0</ele><time>2026-04-21T08:14:04.001Z</time></trkpt><trkpt lat="43.73832423979836" lon="7.323982347543794"><ele>216.0</ele><time>2026-04-21T08:14:05.001Z</time></trkpt><trkpt lat="43.738450920040975" lon="7.324145028296334"><ele>210.0</ele><time>2026-04-21T08:14:06.001Z</time></trkpt><trkpt lat="43.73860863457959" lon="7.324361673798828"><ele>204.0</ele><time>2026-04-21T08:14:07.001Z</time></trkpt><trkpt lat="43.73876719908216" lon="7.324580616003457"><ele>195.0</ele><time>2026-04-21T08:14:08.001Z</time></trkpt><trkpt lat="43.73892450953533" lon="7.324795764772768"><ele>186.0</ele><time>2026-04-21T08:14:09.001Z</time></trkpt><trkpt lat="43.73907425486081" lon="7.325019281000354"><ele>177.0</ele><time>2026-04-21T08:14:10.001Z</time></trkpt><trkpt lat="43.73922877102516" lon="7.325233021829821"><ele>177.0</ele><time>2026-04-21T08:14:11.001Z</time></trkpt><trkpt lat="43.73937916012601" lon="7.325452508919056"><ele>177.0</ele><time>2026-04-21T08:14:12.001Z</time></trkpt><trkpt lat="43.739532279269255" lon="7.325675571229652"><ele>177.0</ele><time>2026-04-21T08:14:13.001Z</time></trkpt><trkpt lat="43.73968911643499" lon="7.325897547715733"><ele>196.5</ele><time>2026-04-21T08:14:14.001Z</time></trkpt><trkpt lat="43.73984421638731" lon="7.326122638988876"><ele>216.0</ele><time>2026-04-21T08:14:15.001Z</time></trkpt><trkpt lat="43.73999786834582" lon="7.326352355134211"><ele>217.66666666666669</ele><time>2026-04-21T08:14:16.001Z</time></trkpt><trkpt lat="43.74014854545153" lon="7.326581648538111"><ele>219.33333333333334</ele><time>2026-04-21T08:14:17.001Z</time></trkpt><trkpt lat="43.740289460779806" lon="7.32681060887823"><ele>221.0</ele><time>2026-04-21T08:14:18.001Z</time></trkpt><trkpt lat="43.74042370863035" lon="7.327056179518272"><ele>227.66666666666669</ele><time>2026-04-21T08:14:19.001Z</time></trkpt><trkpt lat="43.740550928103005" lon="7.327309271136565"><ele>234.33333333333331</ele><time>2026-04-21T08:14:20.001Z</time></trkpt><trkpt lat="43.740664192919475" lon="7.327572371047716"><ele>241.0</ele><time>2026-04-21T08:14:21.001Z</time></trkpt><trkpt lat="43.74076080935936" lon="7.327853673753421"><ele>248.0</ele><time>2026-04-21T08:14:22.001Z</time></trkpt><trkpt lat="43.74084296277875" lon="7.328147992193475"><ele>255.0</ele><time>2026-04-21T08:14:23.001Z</time></trkpt><trkpt lat="43.74091873092233" lon="7.328449320121014"><ele>255.0</ele><time>2026-04-21T08:14:24.001Z</time></trkpt><trkpt lat="43.74099333377589" lon="7.328752516103795"><ele>255.0</ele><time>2026-04-21T08:14:25.001Z</time></trkpt><trkpt lat="43.741058096116326" lon="7.3290615526782545"><ele>240.5</ele><time>2026-04-21T08:14:26Z</time></trkpt><trkpt lat="43.74111632388775" lon="7.329376760632623"><ele>226.0</ele><time>2026-04-21T08:14:27Z</time></trkpt><trkpt lat="43.741172731075785" lon="7.329694687620114"><ele>228.0</ele><time>2026-04-21T08:14:28Z</time></trkpt><trkpt lat="43.74122241891616" lon="7.330016591742435"><ele>230.0</ele><time>2026-04-21T08:14:29Z</time></trkpt><trkpt lat="43.74126125668041" lon="7.3303419356400745"><ele>234.0</ele><time>2026-04-21T08:14:30Z</time></trkpt><trkpt lat="43.741295185704644" lon="7.330665982318347"><ele>238.0</ele><time>2026-04-21T08:14:31Z</time></trkpt><trkpt lat="43.74133565660261" lon="7.330987511580084"><ele>238.0</ele><time>2026-04-21T08:14:32Z</time></trkpt><trkpt lat="43.74137563803052" lon="7.331307532284119"><ele>238.0</ele><time>2026-04-21T08:14:33Z</time></trkpt><trkpt lat="43.74141551648451" lon="7.331627680372059"><ele>244.0</ele><time>2026-04-21T08:14:34Z</time></trkpt><trkpt lat="43.741457475182386" lon="7.331948046268344"><ele>250.0</ele><time>2026-04-21T08:14:35Z</time></trkpt><trkpt lat="43.74150648010003" lon="7.3322595366003975"><ele>257.5</ele><time>2026-04-21T08:14:36Z</time></trkpt><trkpt lat="43.74156571749887" lon="7.33256515647101"><ele>265.0</ele><time>2026-04-21T08:14:37Z</time></trkpt><trkpt lat="43.74162954952438" lon="7.3328699011147505"><ele>274.5</ele><time>2026-04-21T08:14:38Z</time></trkpt><trkpt lat="43.74170199518666" lon="7.333171795236561"><ele>284.0</ele><time>2026-04-21T08:14:39Z</time></trkpt><trkpt lat="43.74178876853247" lon="7.333472229081232"><ele>284.0</ele><time>2026-04-21T08:14:40Z</time></trkpt><trkpt lat="43.7418804292435" lon="7.333769616699805"><ele>284.0</ele><time>2026-04-21T08:14:41Z</time></trkpt><trkpt lat="43.74197972946178" lon="7.33405945537875"><ele>276.0</ele><time>2026-04-21T08:14:42Z</time></trkpt><trkpt lat="43.74208932803047" lon="7.334345041724778"><ele>268.0</ele><time>2026-04-21T08:14:43Z</time></trkpt><trkpt lat="43.742202063233094" lon="7.33461889707576"><ele>276.0</ele><time>2026-04-21T08:14:44Z</time></trkpt><trkpt lat="43.742319551336955" lon="7.33488792021607"><ele>284.0</ele><time>2026-04-21T08:14:45Z</time></trkpt><trkpt lat="43.7424435402181" lon="7.33515205953252"><ele>284.0</ele><time>2026-04-21T08:14:46Z</time></trkpt><trkpt lat="43.742573986478526" lon="7.335416564258838"><ele>284.0</ele><time>2026-04-21T08:14:47Z</time></trkpt><trkpt lat="43.7427030652536" lon="7.335683976557717"><ele>289.5</ele><time>2026-04-21T08:14:48Z</time></trkpt><trkpt lat="43.74283309811462" lon="7.335949910872105"><ele>295.0</ele><time>2026-04-21T08:14:49Z</time></trkpt><trkpt lat="43.74296092054704" lon="7.336221882359521"><ele>296.0</ele><time>2026-04-21T08:14:50Z</time></trkpt><trkpt lat="43.7430735924075" lon="7.33650643832248"><ele>297.0</ele><time>2026-04-21T08:14:51Z</time></trkpt><trkpt lat="43.74318200855512" lon="7.336795206560324"><ele>297.0</ele><time>2026-04-21T08:14:52Z</time></trkpt><trkpt lat="43.74329098150089" lon="7.33708488517497"><ele>297.0</ele><time>2026-04-21T08:14:53Z</time></trkpt><trkpt lat="43.74338862538166" lon="7.337382093456432"><ele>300.5</ele><time>2026-04-21T08:14:54Z</time></trkpt><trkpt lat="43.74346774352036" lon="7.337687842886016"><ele>304.0</ele><time>2026-04-21T08:14:55Z</time></trkpt><trkpt lat="43.74352187902004" lon="7.337998095442963"><ele>305.0</ele><time>2026-04-21T08:14:56Z</time></trkpt><trkpt lat="43.743554640059166" lon="7.338307031959434"><ele>306.0</ele><time>2026-04-21T08:14:57Z</time></trkpt><trkpt lat="43.74356983396101" lon="7.338616520387146"><ele>308.5</ele><time>2026-04-21T08:14:58Z</time></trkpt><trkpt lat="43.74356618359713" lon="7.338926710217025"><ele>311.0</ele><time>2026-04-21T08:14:59Z</time></trkpt><trkpt lat="43.743546724910026" lon="7.339237601863569"><ele>311.0</ele><time>2026-04-21T08:15:00Z</time></trkpt><trkpt lat="43.74350964316841" lon="7.339550665848539"><ele>311.0</ele><time>2026-04-21T08:15:01Z</time></trkpt><trkpt lat="43.74346263522502" lon="7.339861859053807"><ele>308.0</ele><time>2026-04-21T08:15:02Z</time></trkpt><trkpt lat="43.74339841951195" lon="7.340171418523536"><ele>305.0</ele><time>2026-04-21T08:15:03Z</time></trkpt><trkpt lat="43.74331820592166" lon="7.3404769046224345"><ele>303.5</ele><time>2026-04-21T08:15:04Z</time></trkpt><trkpt lat="43.743237490676485" lon="7.340785757745136"><ele>302.0</ele><time>2026-04-21T08:15:05Z</time></trkpt><trkpt lat="43.743168338967735" lon="7.3411032384598505"><ele>300.0</ele><time>2026-04-21T08:15:06Z</time></trkpt><trkpt lat="43.743098877882694" lon="7.3414227363141595"><ele>298.0</ele><time>2026-04-21T08:15:07Z</time></trkpt><trkpt lat="43.743031783988364" lon="7.341729280078719"><ele>298.0</ele><time>2026-04-21T08:15:08Z</time></trkpt><trkpt lat="43.742974940747374" lon="7.342036711522948"><ele>298.0</ele><time>2026-04-21T08:15:09Z</time></trkpt><trkpt lat="43.742931075451985" lon="7.342351596756873"><ele>298.0</ele><time>2026-04-21T08:15:10Z</time></trkpt><trkpt lat="43.74290155603204" lon="7.342670998955325"><ele>298.0</ele><time>2026-04-21T08:15:11Z</time></trkpt><trkpt lat="43.74289460317993" lon="7.342975951611275"><ele>302.0</ele><time>2026-04-21T08:15:12Z</time></trkpt><trkpt lat="43.74290564432715" lon="7.343284837748884"><ele>306.0</ele><time>2026-04-21T08:15:13Z</time></trkpt><trkpt lat="43.74293640436879" lon="7.3435950424132335"><ele>310.5</ele><time>2026-04-21T08:15:14Z</time></trkpt><trkpt lat="43.74298427544162" lon="7.343900400791614"><ele>315.0</ele><time>2026-04-21T08:15:15Z</time></trkpt><trkpt lat="43.743051283843776" lon="7.3441987705478935"><ele>315.0</ele><time>2026-04-21T08:15:16Z</time></trkpt><trkpt lat="43.74313080979883" lon="7.3444940000698935"><ele>315.0</ele><time>2026-04-21T08:15:17Z</time></trkpt><trkpt lat="43.743223645052865" lon="7.344782573038261"><ele>317.5</ele><time>2026-04-21T08:15:18Z</time></trkpt><trkpt lat="43.74332581801659" lon="7.345069497136519"><ele>320.0</ele><time>2026-04-21T08:15:19Z</time></trkpt><trkpt lat="43.74343303957853" lon="7.34535514557382"><ele>324.5</ele><time>2026-04-21T08:15:20Z</time></trkpt><trkpt lat="43.74354292690145" lon="7.345639438492801"><ele>329.0</ele><time>2026-04-21T08:15:21Z</time></trkpt><trkpt lat="43.743648659625" lon="7.345932302895365"><ele>320.0</ele><time>2026-04-21T08:15:22Z</time></trkpt><trkpt lat="43.74374530493847" lon="7.3462365682335165"><ele>311.0</ele><time>2026-04-21T08:15:23Z</time></trkpt><trkpt lat="43.74383468114117" lon="7.346542422716008"><ele>311.0</ele><time>2026-04-21T08:15:24Z</time></trkpt><trkpt lat="43.74391454250397" lon="7.346843350592856"><ele>311.0</ele><time>2026-04-21T08:15:25Z</time></trkpt><trkpt lat="43.743987247531926" lon="7.347148499727529"><ele>316.0</ele><time>2026-04-21T08:15:26Z</time></trkpt><trkpt lat="43.744045619653335" lon="7.347462606810539"><ele>321.0</ele><time>2026-04-21T08:15:27Z</time></trkpt><trkpt lat="43.74408721395168" lon="7.347785262977703"><ele>323.0</ele><time>2026-04-21T08:15:28Z</time></trkpt><trkpt lat="43.74410897329598" lon="7.348111714697962"><ele>325.0</ele><time>2026-04-21T08:15:29Z</time></trkpt><trkpt lat="43.74411732712037" lon="7.348440766357945"><ele>325.0</ele><time>2026-04-21T08:15:30Z</time></trkpt><trkpt lat="43.744114087895056" lon="7.348768252821217"><ele>325.0</ele><time>2026-04-21T08:15:31Z</time></trkpt><trkpt lat="43.74409503452029" lon="7.349081956520165"><ele>324.5</ele><time>2026-04-21T08:15:32Z</time></trkpt><trkpt lat="43.74406307858395" lon="7.349394469395028"><ele>324.0</ele><time>2026-04-21T08:15:33Z</time></trkpt><trkpt lat="43.744017204903784" lon="7.349707029672493"><ele>324.5</ele><time>2026-04-21T08:15:34Z</time></trkpt><trkpt lat="43.74396181141577" lon="7.35001644034241"><ele>325.0</ele><time>2026-04-21T08:15:35Z</time></trkpt><trkpt lat="43.74389706623547" lon="7.3503293623089805"><ele>325.0</ele><time>2026-04-21T08:15:36Z</time></trkpt><trkpt lat="43.743819635616966" lon="7.35063931542945"><ele>325.0</ele><time>2026-04-21T08:15:37Z</time></trkpt><trkpt lat="43.743742058136114" lon="7.350943523138113"><ele>325.0</ele><time>2026-04-21T08:15:38Z</time></trkpt><trkpt lat="43.743677910838194" lon="7.3512535944502675"><ele>325.0</ele><time>2026-04-21T08:15:39Z</time></trkpt><trkpt lat="43.74362082327872" lon="7.351564361085118"><ele>326.66666666666663</ele><time>2026-04-21T08:15:40.001Z</time></trkpt><trkpt lat="43.743565014115624" lon="7.351854044467434"><ele>328.3333333333333</ele><time>2026-04-21T08:15:41.001Z</time></trkpt><trkpt lat="43.74350814805953" lon="7.352137274793762"><ele>330.0</ele><time>2026-04-21T08:15:42.001Z</time></trkpt><trkpt lat="43.74345492762117" lon="7.352422018868408"><ele>346.0</ele><time>2026-04-21T08:15:43.001Z</time></trkpt><trkpt lat="43.74340590002845" lon="7.352711975915821"><ele>362.0</ele><time>2026-04-21T08:15:44.001Z</time></trkpt><trkpt lat="43.74336041184229" lon="7.353005304518964"><ele>378.0</ele><time>2026-04-21T08:15:45.001Z</time></trkpt><trkpt lat="43.74331641646534" lon="7.353297219983792"><ele>385.0</ele><time>2026-04-21T08:15:46.001Z</time></trkpt><trkpt lat="43.74327424804843" lon="7.353580542971665"><ele>392.0</ele><time>2026-04-21T08:15:47.001Z</time></trkpt><trkpt lat="43.743256640431674" lon="7.353871065024485"><ele>399.0</ele><time>2026-04-21T08:15:48.001Z</time></trkpt><trkpt lat="43.743245085731964" lon="7.35416087492238"><ele>407.0</ele><time>2026-04-21T08:15:49.001Z</time></trkpt><trkpt lat="43.743235183907736" lon="7.354444044670329"><ele>415.0</ele><time>2026-04-21T08:15:50.001Z</time></trkpt><trkpt lat="43.743227897127724" lon="7.354727652467779"><ele>423.0</ele><time>2026-04-21T08:15:51.001Z</time></trkpt><trkpt lat="43.74322305459001" lon="7.355015561448745"><ele>426.66666666666663</ele><time>2026-04-21T08:15:52.001Z</time></trkpt><trkpt lat="43.74322508414391" lon="7.355291034820139"><ele>430.3333333333333</ele><time>2026-04-21T08:15:53.001Z</time></trkpt><trkpt lat="43.74323200773948" lon="7.355549089154703"><ele>434.0</ele><time>2026-04-21T08:15:54.001Z</time></trkpt><trkpt lat="43.74324371623541" lon="7.355786439340467"><ele>435.0</ele><time>2026-04-21T08:15:55.001Z</time></trkpt><trkpt lat="43.743258572448624" lon="7.356018308651189"><ele>436.0</ele><time>2026-04-21T08:15:56.001Z</time></trkpt><trkpt lat="43.743274425129805" lon="7.356256773319019"><ele>437.0</ele><time>2026-04-21T08:15:57.001Z</time></trkpt><trkpt lat="43.74329316486634" lon="7.356501303194722"><ele>437.66666666666663</ele><time>2026-04-21T08:15:58.001Z</time></trkpt><trkpt lat="43.74331471886778" lon="7.3567523928000185"><ele>438.33333333333337</ele><time>2026-04-21T08:15:59.001Z</time></trkpt><trkpt lat="43.74334394438114" lon="7.35701401738944"><ele>439.0</ele><time>2026-04-21T08:16:00.001Z</time></trkpt><trkpt lat="43.74337750073281" lon="7.357278418112858"><ele>444.0</ele><time>2026-04-21T08:16:01.001Z</time></trkpt><trkpt lat="43.74341028800812" lon="7.35752379623636"><ele>449.0</ele><time>2026-04-21T08:16:02.001Z</time></trkpt><trkpt lat="43.74344358693986" lon="7.357731623572253"><ele>454.0</ele><time>2026-04-21T08:16:03.001Z</time></trkpt><trkpt lat="43.743480298422625" lon="7.357932598620516"><ele>458.6666666666667</ele><time>2026-04-21T08:16:04.001Z</time></trkpt><trkpt lat="43.743524604943985" lon="7.358164157306115"><ele>463.33333333333337</ele><time>2026-04-21T08:16:05.001Z</time></trkpt><trkpt lat="43.74357053989535" lon="7.358404226621844"><ele>468.0</ele><time>2026-04-21T08:16:06.001Z</time></trkpt><trkpt lat="43.74360914536118" lon="7.358586968193452"><ele>449.75</ele><time>2026-04-21T08:16:07.001Z</time></trkpt><trkpt lat="43.743635925130114" lon="7.358708369633928"><ele>431.5</ele><time>2026-04-21T08:16:08.001Z</time></trkpt><trkpt lat="43.743683957973865" lon="7.358918088489638"><ele>413.25</ele><time>2026-04-21T08:16:09.001Z</time></trkpt><trkpt lat="43.743734066014376" lon="7.359122974631922"><ele>395.0</ele><time>2026-04-21T08:16:10.001Z</time></trkpt><trkpt lat="43.74377994939709" lon="7.359298899519953"><ele>395.0</ele><time>2026-04-21T08:16:11.001Z</time></trkpt><trkpt lat="43.743824410274286" lon="7.359459878407197"><ele>395.0</ele><time>2026-04-21T08:16:12.001Z</time></trkpt><trkpt lat="43.74386158983102" lon="7.359591786204252"><ele>395.0</ele><time>2026-04-21T08:16:13.001Z</time></trkpt><trkpt lat="43.74389441195738" lon="7.359703196792158"><ele>395.0</ele><time>2026-04-21T08:16:14.001Z</time></trkpt><trkpt lat="43.74392931688176" lon="7.359818534752681"><ele>395.0</ele><time>2026-04-21T08:16:15.001Z</time></trkpt><trkpt lat="43.74397160522561" lon="7.359953325497647"><ele>377.0</ele><time>2026-04-21T08:16:16.001Z</time></trkpt><trkpt lat="43.74469463140911" lon="7.361809987301684"><ele>377.0</ele><time>2026-04-21T08:16:17.001Z</time></trkpt><trkpt lat="43.74481355525572" lon="7.362052452794503"><ele>377.0</ele><time>2026-04-21T08:16:18.001Z</time></trkpt><trkpt lat="43.74491268639353" lon="7.362301363275642"><ele>377.0</ele><time>2026-04-21T08:16:19.001Z</time></trkpt><trkpt lat="43.74499811004656" lon="7.362547834978125"><ele>379.6666666666667</ele><time>2026-04-21T08:16:20.001Z</time></trkpt><trkpt lat="43.74506874272102" lon="7.3627858851720305"><ele>382.33333333333337</ele><time>2026-04-21T08:16:21.001Z</time></trkpt><trkpt lat="43.745138607538166" lon="7.363034087167261"><ele>385.0</ele><time>2026-04-21T08:16:22.001Z</time></trkpt><trkpt lat="43.7451936192732" lon="7.363295148392533"><ele>387.0</ele><time>2026-04-21T08:16:23.001Z</time></trkpt><trkpt lat="43.74524751694664" lon="7.363568034222777"><ele>389.0</ele><time>2026-04-21T08:16:24.001Z</time></trkpt><trkpt lat="43.7452974608829" lon="7.3638535484191125"><ele>391.0</ele><time>2026-04-21T08:16:25.001Z</time></trkpt><trkpt lat="43.745333068659406" lon="7.3641407941061825"><ele>391.0</ele><time>2026-04-21T08:16:26.001Z</time></trkpt><trkpt lat="43.74536210042075" lon="7.364424553682588"><ele>391.0</ele><time>2026-04-21T08:16:27.001Z</time></trkpt><trkpt lat="43.745389017434746" lon="7.364711890842617"><ele>391.0</ele><time>2026-04-21T08:16:28.001Z</time></trkpt><trkpt lat="43.74540633062166" lon="7.365011924628926"><ele>395.0</ele><time>2026-04-21T08:16:29.001Z</time></trkpt><trkpt lat="43.74540622845772" lon="7.365310736918001"><ele>399.0</ele><time>2026-04-21T08:16:30.001Z</time></trkpt><trkpt lat="43.7453907744086" lon="7.365611970075383"><ele>403.0</ele><time>2026-04-21T08:16:31.001Z</time></trkpt><trkpt lat="43.745355400437326" lon="7.365909718473984"><ele>403.6666666666667</ele><time>2026-04-21T08:16:32Z</time></trkpt><trkpt lat="43.745295070453096" lon="7.36619251874808"><ele>404.33333333333337</ele><time>2026-04-21T08:16:33Z</time></trkpt><trkpt lat="43.74521597107441" lon="7.366452106114822"><ele>405.0</ele><time>2026-04-21T08:16:34Z</time></trkpt><trkpt lat="43.745135982945726" lon="7.366720761587253"><ele>405.66666666666663</ele><time>2026-04-21T08:16:35Z</time></trkpt><trkpt lat="43.74505727805095" lon="7.366973901967632"><ele>406.3333333333333</ele><time>2026-04-21T08:16:36Z</time></trkpt><trkpt lat="43.74499856609258" lon="7.367205318689078"><ele>407.0</ele><time>2026-04-21T08:16:37Z</time></trkpt><trkpt lat="43.74492173352876" lon="7.3673898757604706"><ele>407.0</ele><time>2026-04-21T08:16:38Z</time></trkpt><trkpt lat="43.744851235327424" lon="7.367596543244084"><ele>407.0</ele><time>2026-04-21T08:16:39Z</time></trkpt><trkpt lat="43.74477379783792" lon="7.367805498711103"><ele>407.0</ele><time>2026-04-21T08:16:40Z</time></trkpt><trkpt lat="43.74470359263385" lon="7.367997339147158"><ele>404.5</ele><time>2026-04-21T08:16:41Z</time></trkpt><trkpt lat="43.74463928436905" lon="7.368175560377036"><ele>402.0</ele><time>2026-04-21T08:16:42Z</time></trkpt><trkpt lat="43.74457818256919" lon="7.368344551077847"><ele>399.5</ele><time>2026-04-21T08:16:43Z</time></trkpt><trkpt lat="43.744516620869526" lon="7.368506926974616"><ele>397.0</ele><time>2026-04-21T08:16:44Z</time></trkpt><trkpt lat="43.74445167497794" lon="7.36867777417488"><ele>397.0</ele><time>2026-04-21T08:16:45Z</time></trkpt><trkpt lat="43.744393698873004" lon="7.368852661446506"><ele>397.0</ele><time>2026-04-21T08:16:46Z</time></trkpt><trkpt lat="43.74434223432771" lon="7.369027064296353"><ele>397.0</ele><time>2026-04-21T08:16:47Z</time></trkpt><trkpt lat="43.744297960042324" lon="7.369215496564601"><ele>397.0</ele><time>2026-04-21T08:16:48Z</time></trkpt><trkpt lat="43.74426285602645" lon="7.369402897874754"><ele>404.0</ele><time>2026-04-21T08:16:49Z</time></trkpt><trkpt lat="43.74425181129565" lon="7.369584714889493"><ele>411.0</ele><time>2026-04-21T08:16:50Z</time></trkpt><trkpt lat="43.744257757832905" lon="7.369776921300192"><ele>418.0</ele><time>2026-04-21T08:16:51Z</time></trkpt><trkpt lat="43.74427887827003" lon="7.369975973639022"><ele>425.0</ele><time>2026-04-21T08:16:52Z</time></trkpt><trkpt lat="43.744283213589604" lon="7.370171146077896"><ele>425.0</ele><time>2026-04-21T08:16:53Z</time></trkpt><trkpt lat="43.74429964754138" lon="7.370348556988713"><ele>425.0</ele><time>2026-04-21T08:16:54Z</time></trkpt><trkpt lat="43.744326768865086" lon="7.370556211422047"><ele>425.0</ele><time>2026-04-21T08:16:55Z</time></trkpt><trkpt lat="43.74446789678055" lon="7.3706910209422345"><ele>415.0</ele><time>2026-04-21T08:16:56Z</time></trkpt><trkpt lat="43.7445630864971" lon="7.370818171421919"><ele>405.0</ele><time>2026-04-21T08:16:57Z</time></trkpt><trkpt lat="43.74462088482043" lon="7.370963950985312"><ele>395.0</ele><time>2026-04-21T08:16:58Z</time></trkpt><trkpt lat="43.74467555834014" lon="7.371112186270208"><ele>385.0</ele><time>2026-04-21T08:16:59Z</time></trkpt><trkpt lat="43.74472895370724" lon="7.371257510683188"><ele>386.0</ele><time>2026-04-21T08:17:00Z</time></trkpt><trkpt lat="43.74478372605018" lon="7.371400392429178"><ele>387.0</ele><time>2026-04-21T08:17:01Z</time></trkpt><trkpt lat="43.74482744336307" lon="7.371543288344917"><ele>388.0</ele><time>2026-04-21T08:17:02Z</time></trkpt><trkpt lat="43.74485968296877" lon="7.3716910661448445"><ele>389.0</ele><time>2026-04-21T08:17:03Z</time></trkpt><trkpt lat="43.744891390619635" lon="7.371831817448287"><ele>390.0</ele><time>2026-04-21T08:17:04Z</time></trkpt><trkpt lat="43.74492927725716" lon="7.371966443955125"><ele>390.0</ele><time>2026-04-21T08:17:05Z</time></trkpt><trkpt lat="43.744952845810104" lon="7.372103406429533"><ele>390.0</ele><time>2026-04-21T08:17:06Z</time></trkpt><trkpt lat="43.74497362431973" lon="7.372229145107826"><ele>390.0</ele><time>2026-04-21T08:17:07Z</time></trkpt><trkpt lat="43.74498186449895" lon="7.3723414711194"><ele>390.0</ele><time>2026-04-21T08:17:08Z</time></trkpt><trkpt lat="43.744973881250104" lon="7.37243392858437"><ele>390.0</ele><time>2026-04-21T08:17:09Z</time></trkpt><trkpt lat="43.74499584101223" lon="7.372533849564406"><ele>390.0</ele><time>2026-04-21T08:17:10Z</time></trkpt><trkpt lat="43.7449835247689" lon="7.372619413015175"><ele>390.25</ele><time>2026-04-21T08:17:11Z</time></trkpt><trkpt lat="43.74498330982115" lon="7.372711467074583"><ele>390.5</ele><time>2026-04-21T08:17:32Z</time></trkpt><trkpt lat="43.74498202508243" lon="7.37290964950595"><ele>390.75</ele><time>2026-04-21T08:17:34Z</time></trkpt><trkpt lat="43.744980306722404" lon="7.373100274015551"><ele>391.0</ele><time>2026-04-21T08:17:35Z</time></trkpt><trkpt lat="43.74496774978894" lon="7.373258089814928"><ele>391.0</ele><time>2026-04-21T08:17:36Z</time></trkpt><trkpt lat="43.744958598514614" lon="7.373432443114931"><ele>391.0</ele><time>2026-04-21T08:17:37Z</time></trkpt><trkpt lat="43.74491240452567" lon="7.373635855329239"><ele>391.0</ele><time>2026-04-21T08:17:38Z</time></trkpt><trkpt lat="43.744869514752956" lon="7.373828957399081"><ele>391.0</ele><time>2026-04-21T08:17:39Z</time></trkpt><trkpt lat="43.74482806341099" lon="7.373999468048229"><ele>388.75</ele><time>2026-04-21T08:17:40Z</time></trkpt><trkpt lat="43.74479222552612" lon="7.374155172035224"><ele>386.5</ele><time>2026-04-21T08:17:41Z</time></trkpt><trkpt lat="43.744759178691965" lon="7.3743141694971035"><ele>384.25</ele><time>2026-04-21T08:17:42Z</time></trkpt><trkpt lat="43.74473746229361" lon="7.374466134548928"><ele>382.0</ele><time>2026-04-21T08:17:43Z</time></trkpt><trkpt lat="43.74472201794407" lon="7.374645167871457"><ele>380.75</ele><time>2026-04-21T08:17:44Z</time></trkpt><trkpt lat="43.74471620289735" lon="7.374821152247584"><ele>379.5</ele><time>2026-04-21T08:17:45Z</time></trkpt><trkpt lat="43.744721843056595" lon="7.375000276142428"><ele>378.25</ele><time>2026-04-21T08:17:46Z</time></trkpt><trkpt lat="43.7447352610537" lon="7.3751742136722624"><ele>377.0</ele><time>2026-04-21T08:17:47Z</time></trkpt><trkpt lat="43.744761738031144" lon="7.3753446094039825"><ele>377.0</ele><time>2026-04-21T08:17:48Z</time></trkpt><trkpt lat="43.74479794344196" lon="7.375518006297143"><ele>377.0</ele><time>2026-04-21T08:17:49Z</time></trkpt><trkpt lat="43.744839511661475" lon="7.375704506423077"><ele>377.0</ele><time>2026-04-21T08:17:50Z</time></trkpt><trkpt lat="43.744891927271574" lon="7.375882786193479"><ele>377.0</ele><time>2026-04-21T08:17:51Z</time></trkpt><trkpt lat="43.74496294961243" lon="7.37606947575466"><ele>377.0</ele><time>2026-04-21T08:17:52Z</time></trkpt><trkpt lat="43.74504708801677" lon="7.376244822608854"><ele>377.0</ele><time>2026-04-21T08:17:53Z</time></trkpt><trkpt lat="43.74513447106791" lon="7.376421086406286"><ele>377.0</ele><time>2026-04-21T08:17:54Z</time></trkpt><trkpt lat="43.74524714766884" lon="7.376590778262797"><ele>371.33333333333337</ele><time>2026-04-21T08:17:55Z</time></trkpt><trkpt lat="43.74536729391233" lon="7.376744038144263"><ele>365.6666666666667</ele><time>2026-04-21T08:17:56Z</time></trkpt><trkpt lat="43.745491231536384" lon="7.3768857542363016"><ele>360.0</ele><time>2026-04-21T08:17:57.001Z</time></trkpt><trkpt lat="43.745613212013545" lon="7.3770205245320755"><ele>360.0</ele><time>2026-04-21T08:17:58.001Z</time></trkpt><trkpt lat="43.74574636469938" lon="7.377167392598041"><ele>360.0</ele><time>2026-04-21T08:17:59.001Z</time></trkpt><trkpt lat="43.745873476617774" lon="7.377329841147031"><ele>360.0</ele><time>2026-04-21T08:18:00.001Z</time></trkpt><trkpt lat="43.74599461058266" lon="7.37749820735409"><ele>357.6666666666667</ele><time>2026-04-21T08:18:01.001Z</time></trkpt><trkpt lat="43.746107526988624" lon="7.3777012844227805"><ele>355.33333333333337</ele><time>2026-04-21T08:18:02.001Z</time></trkpt><trkpt lat="43.746199250485674" lon="7.377924224568066"><ele>353.0</ele><time>2026-04-21T08:18:03.001Z</time></trkpt><trkpt lat="43.74627440624989" lon="7.378147571770382"><ele>353.0</ele><time>2026-04-21T08:18:04.001Z</time></trkpt><trkpt lat="43.74633016988106" lon="7.378377914676976"><ele>353.0</ele><time>2026-04-21T08:18:05.001Z</time></trkpt><trkpt lat="43.74635807524939" lon="7.378620730931305"><ele>353.0</ele><time>2026-04-21T08:18:06.001Z</time></trkpt><trkpt lat="43.746376448815674" lon="7.37884775549949"><ele>354.0</ele><time>2026-04-21T08:18:07.001Z</time></trkpt><trkpt lat="43.7463853237511" lon="7.379079626679969"><ele>355.0</ele><time>2026-04-21T08:18:08.001Z</time></trkpt><trkpt lat="43.74637330097647" lon="7.379318370644835"><ele>356.0</ele><time>2026-04-21T08:18:09.001Z</time></trkpt><trkpt lat="43.74634177162519" lon="7.379563031838998"><ele>360.0</ele><time>2026-04-21T08:18:10.001Z</time></trkpt><trkpt lat="43.74629533302201" lon="7.3797988665280965"><ele>364.0</ele><time>2026-04-21T08:18:11.001Z</time></trkpt><trkpt lat="43.74623437089071" lon="7.380042246139203"><ele>368.0</ele><time>2026-04-21T08:18:12.001Z</time></trkpt><trkpt lat="43.746165289219" lon="7.380279819736613"><ele>368.0</ele><time>2026-04-21T08:18:13.001Z</time></trkpt><trkpt lat="43.74609154021554" lon="7.380514157173327"><ele>368.0</ele><time>2026-04-21T08:18:14.001Z</time></trkpt><trkpt lat="43.74601739772067" lon="7.380753943796605"><ele>368.0</ele><time>2026-04-21T08:18:15.001Z</time></trkpt><trkpt lat="43.745914192558274" lon="7.380964144930888"><ele>381.0</ele><time>2026-04-21T08:18:16.001Z</time></trkpt><trkpt lat="43.74581614397003" lon="7.381176181235229"><ele>394.0</ele><time>2026-04-21T08:18:17.001Z</time></trkpt><trkpt lat="43.745705548948344" lon="7.381387977158621"><ele>407.0</ele><time>2026-04-21T08:18:18.074Z</time></trkpt><trkpt lat="43.74559798139988" lon="7.3815782258262335"><ele>411.66666666666663</ele><time>2026-04-21T08:18:19.064Z</time></trkpt><trkpt lat="43.74548602273128" lon="7.381761626364324"><ele>416.33333333333337</ele><time>2026-04-21T08:18:20.061Z</time></trkpt><trkpt lat="43.74537127337313" lon="7.381936139333874"><ele>421.0</ele><time>2026-04-21T08:18:21.059Z</time></trkpt><trkpt lat="43.744921708617234" lon="7.382534310216399"><ele>429.33333333333337</ele><time>2026-04-21T08:18:24.458Z</time></trkpt><trkpt lat="43.74476162258047" lon="7.382671498515225"><ele>437.66666666666663</ele><time>2026-04-21T08:18:25.455Z</time></trkpt><trkpt lat="43.744617911908016" lon="7.3828431696681065"><ele>446.0</ele><time>2026-04-21T08:18:26.459Z</time></trkpt><trkpt lat="43.744453155448255" lon="7.382971017328581"><ele>455.3333333333333</ele><time>2026-04-21T08:18:27.458Z</time></trkpt><trkpt lat="43.74429342514047" lon="7.3831053866357506"><ele>464.66666666666663</ele><time>2026-04-21T08:18:28.458Z</time></trkpt><trkpt lat="43.744135035730594" lon="7.383248920650482"><ele>474.0</ele><time>2026-04-21T08:18:29.459Z</time></trkpt><trkpt lat="43.74395835325544" lon="7.383339049390964"><ele>474.0</ele><time>2026-04-21T08:18:30.455Z</time></trkpt><trkpt lat="43.74378594787042" lon="7.383446395762187"><ele>474.0</ele><time>2026-04-21T08:18:31.459Z</time></trkpt><trkpt lat="43.74361151461937" lon="7.383542575776252"><ele>474.0</ele><time>2026-04-21T08:18:32.459Z</time></trkpt><trkpt lat="43.743433422641395" lon="7.383619677555928"><ele>479.0</ele><time>2026-04-21T08:18:33.457Z</time></trkpt><trkpt lat="43.743251656073035" lon="7.3836854083028065"><ele>484.0</ele><time>2026-04-21T08:18:34.455Z</time></trkpt><trkpt lat="43.74306758071761" lon="7.383744850274632"><ele>489.0</ele><time>2026-04-21T08:18:35.459Z</time></trkpt><trkpt lat="43.74288430579508" lon="7.38379896806675"><ele>503.66666666666663</ele><time>2026-04-21T08:18:36.455Z</time></trkpt><trkpt lat="43.74270106472673" lon="7.38386736232976"><ele>518.3333333333333</ele><time>2026-04-21T08:18:37.459Z</time></trkpt><trkpt lat="43.742512011518635" lon="7.383887007783203"><ele>533.0</ele><time>2026-04-21T08:18:38.459Z</time></trkpt><trkpt lat="43.74232618822638" lon="7.383932071918169"><ele>284.0</ele><time>2026-04-21T08:18:39.459Z</time></trkpt><trkpt lat="43.73361830086506" lon="7.387592304041518"><ele>275.6666666666667</ele><time>2026-04-21T08:19:20.001Z</time></trkpt><trkpt lat="43.73348579015609" lon="7.38781503834948"><ele>267.3333333333333</ele><time>2026-04-21T08:19:21.001Z</time></trkpt><trkpt lat="43.73337509992262" lon="7.388084532950994"><ele>259.0</ele><time>2026-04-21T08:19:22.001Z</time></trkpt><trkpt lat="43.73328729643528" lon="7.388321761204142"><ele>259.0</ele><time>2026-04-21T08:19:23.001Z</time></trkpt><trkpt lat="43.733210537410706" lon="7.38858429001807"><ele>259.0</ele><time>2026-04-21T08:19:24.001Z</time></trkpt><trkpt lat="43.733162931422875" lon="7.388840792229889"><ele>259.0</ele><time>2026-04-21T08:19:25.001Z</time></trkpt><trkpt lat="43.733118266946654" lon="7.389103768761497"><ele>259.0</ele><time>2026-04-21T08:19:26Z</time></trkpt><trkpt lat="43.73307866705726" lon="7.389351932408206"><ele>259.0</ele><time>2026-04-21T08:19:27Z</time></trkpt><trkpt lat="43.73304334634823" lon="7.389584060210048"><ele>259.0</ele><time>2026-04-21T08:19:28Z</time></trkpt><trkpt lat="43.732994660231206" lon="7.389769643570278"><ele>259.0</ele><time>2026-04-21T08:19:29Z</time></trkpt><trkpt lat="43.732931105108285" lon="7.389924711226135"><ele>259.0</ele><time>2026-04-21T08:19:30Z</time></trkpt><trkpt lat="43.7328407693971" lon="7.390083409745482"><ele>259.0</ele><time>2026-04-21T08:19:31Z</time></trkpt><trkpt lat="43.73272854891422" lon="7.390211372810674"><ele>259.0</ele><time>2026-04-21T08:19:32Z</time></trkpt><trkpt lat="43.73262551161923" lon="7.390326019253199"><ele>255.0</ele><time>2026-04-21T08:19:33Z</time></trkpt><trkpt lat="43.73249772732502" lon="7.390395847878738"><ele>251.0</ele><time>2026-04-21T08:19:34Z</time></trkpt><trkpt lat="43.73236164381683" lon="7.390443935509104"><ele>247.0</ele><time>2026-04-21T08:19:35Z</time></trkpt><trkpt lat="43.73221050098761" lon="7.390471319739048"><ele>243.0</ele><time>2026-04-21T08:19:36Z</time></trkpt><trkpt lat="43.73205442389484" lon="7.390472732248074"><ele>243.0</ele><time>2026-04-21T08:19:37Z</time></trkpt><trkpt lat="43.731902531653844" lon="7.390446717862389"><ele>243.0</ele><time>2026-04-21T08:19:38Z</time></trkpt><trkpt lat="43.731764328705445" lon="7.390405692391085"><ele>243.0</ele><time>2026-04-21T08:19:39Z</time></trkpt><trkpt lat="43.73161949565903" lon="7.390375712966757"><ele>243.0</ele><time>2026-04-21T08:19:40Z</time></trkpt><trkpt lat="43.73146828385172" lon="7.390320436654032"><ele>241.33333333333331</ele><time>2026-04-21T08:19:41Z</time></trkpt><trkpt lat="43.731298463655634" lon="7.39027792727684"><ele>239.66666666666666</ele><time>2026-04-21T08:19:42Z</time></trkpt><trkpt lat="43.73113367585384" lon="7.390240437711171"><ele>238.0</ele><time>2026-04-21T08:19:43Z</time></trkpt><trkpt lat="43.73098760392351" lon="7.390217320343654"><ele>238.0</ele><time>2026-04-21T08:19:44Z</time></trkpt><trkpt lat="43.730836504062985" lon="7.390232185073506"><ele>238.0</ele><time>2026-04-21T08:19:45Z</time></trkpt><trkpt lat="43.730686684000226" lon="7.390266113146144"><ele>238.0</ele><time>2026-04-21T08:19:46Z</time></trkpt><trkpt lat="43.73053558997813" lon="7.390319610394104"><ele>238.0</ele><time>2026-04-21T08:19:47Z</time></trkpt><trkpt lat="43.730382663788134" lon="7.390390824723889"><ele>238.0</ele><time>2026-04-21T08:19:48Z</time></trkpt><trkpt lat="43.73021570661237" lon="7.390478958894928"><ele>238.0</ele><time>2026-04-21T08:19:49Z</time></trkpt><trkpt lat="43.73004445355242" lon="7.390604264952159"><ele>240.0</ele><time>2026-04-21T08:19:50Z</time></trkpt><trkpt lat="43.729883349575296" lon="7.390726719718564"><ele>242.0</ele><time>2026-04-21T08:19:51Z</time></trkpt><trkpt lat="43.72973135002966" lon="7.390831044429705"><ele>244.0</ele><time>2026-04-21T08:19:52Z</time></trkpt><trkpt lat="43.72958431677256" lon="7.390909202535007"><ele>244.0</ele><time>2026-04-21T08:19:53Z</time></trkpt><trkpt lat="43.72944206778624" lon="7.390967606505338"><ele>244.0</ele><time>2026-04-21T08:19:54Z</time></trkpt><trkpt lat="43.72930139458471" lon="7.390999745859881"><ele>244.0</ele><time>2026-04-21T08:19:55Z</time></trkpt><trkpt lat="43.729162645646944" lon="7.391007332466147"><ele>244.0</ele><time>2026-04-21T08:19:56Z</time></trkpt><trkpt lat="43.72902505555431" lon="7.390996775613629"><ele>241.0</ele><time>2026-04-21T08:19:57Z</time></trkpt><trkpt lat="43.72887661241103" lon="7.390988692793278"><ele>238.0</ele><time>2026-04-21T08:19:58Z</time></trkpt><trkpt lat="43.72873011557672" lon="7.390964173937627"><ele>235.0</ele><time>2026-04-21T08:19:59Z</time></trkpt><trkpt lat="43.728597793906104" lon="7.390911214833691"><ele>232.0</ele><time>2026-04-21T08:20:00Z</time></trkpt><trkpt lat="43.7284721184687" lon="7.390842476155502"><ele>232.0</ele><time>2026-04-21T08:20:01Z</time></trkpt><trkpt lat="43.728349850825225" lon="7.390763759185073"><ele>232.0</ele><time>2026-04-21T08:20:02Z</time></trkpt><trkpt lat="43.728235241684295" lon="7.390684207491259"><ele>232.0</ele><time>2026-04-21T08:20:03Z</time></trkpt><trkpt lat="43.72812173239233" lon="7.3905915445992365"><ele>232.0</ele><time>2026-04-21T08:20:04Z</time></trkpt><trkpt lat="43.728001217115995" lon="7.390480320701881"><ele>228.25</ele><time>2026-04-21T08:20:05Z</time></trkpt><trkpt lat="43.727883148766516" lon="7.39036878303531"><ele>224.5</ele><time>2026-04-21T08:20:06Z</time></trkpt><trkpt lat="43.727768498985306" lon="7.3902622633541535"><ele>220.75</ele><time>2026-04-21T08:20:07Z</time></trkpt><trkpt lat="43.72764919146444" lon="7.3901527694216576"><ele>217.0</ele><time>2026-04-21T08:20:08Z</time></trkpt><trkpt lat="43.727520259441555" lon="7.390038421548285"><ele>217.0</ele><time>2026-04-21T08:20:09Z</time></trkpt><trkpt lat="43.72739341758374" lon="7.389919817219637"><ele>217.0</ele><time>2026-04-21T08:20:10Z</time></trkpt><trkpt lat="43.72727770031973" lon="7.389787032692166"><ele>217.0</ele><time>2026-04-21T08:20:11Z</time></trkpt><trkpt lat="43.72717422824925" lon="7.389634635439735"><ele>218.25</ele><time>2026-04-21T08:20:12Z</time></trkpt><trkpt lat="43.72708396493639" lon="7.389486731257969"><ele>219.5</ele><time>2026-04-21T08:20:13Z</time></trkpt><trkpt lat="43.72700309695136" lon="7.389355507995852"><ele>220.75</ele><time>2026-04-21T08:20:14Z</time></trkpt><trkpt lat="43.726921937318416" lon="7.3892341184483"><ele>222.0</ele><time>2026-04-21T08:20:15Z</time></trkpt><trkpt lat="43.726829339681515" lon="7.389118237619765"><ele>222.0</ele><time>2026-04-21T08:20:16Z</time></trkpt><trkpt lat="43.72673041313289" lon="7.38901691837132"><ele>222.0</ele><time>2026-04-21T08:20:17Z</time></trkpt><trkpt lat="43.72662315646345" lon="7.38893864761182"><ele>222.0</ele><time>2026-04-21T08:20:18Z</time></trkpt><trkpt lat="43.726502396335285" lon="7.388876122171832"><ele>222.0</ele><time>2026-04-21T08:20:19Z</time></trkpt><trkpt lat="43.726378619377165" lon="7.388831428898003"><ele>221.25</ele><time>2026-04-21T08:20:20Z</time></trkpt><trkpt lat="43.726251545543796" lon="7.388814993862831"><ele>220.5</ele><time>2026-04-21T08:20:21Z</time></trkpt><trkpt lat="43.726118767432936" lon="7.388811193770442"><ele>219.75</ele><time>2026-04-21T08:20:22Z</time></trkpt><trkpt lat="43.72598801772239" lon="7.388844253090216"><ele>219.0</ele><time>2026-04-21T08:20:23Z</time></trkpt><trkpt lat="43.72585718082711" lon="7.388899539089485"><ele>219.0</ele><time>2026-04-21T08:20:24Z</time></trkpt><trkpt lat="43.7257244024614" lon="7.38898048867169"><ele>219.0</ele><time>2026-04-21T08:20:25Z</time></trkpt><trkpt lat="43.72559692305048" lon="7.389083957806531"><ele>219.0</ele><time>2026-04-21T08:20:26Z</time></trkpt><trkpt lat="43.725488277345505" lon="7.38920985897237"><ele>219.0</ele><time>2026-04-21T08:20:27Z</time></trkpt><trkpt lat="43.72539540648816" lon="7.3893462199761135"><ele>219.0</ele><time>2026-04-21T08:20:28Z</time></trkpt><trkpt lat="43.72532297680898" lon="7.389500063230536"><ele>219.0</ele><time>2026-04-21T08:20:29Z</time></trkpt><trkpt lat="43.72526881338939" lon="7.38966013750565"><ele>219.0</ele><time>2026-04-21T08:20:30Z</time></trkpt><trkpt lat="43.725217021806614" lon="7.3898522602934795"><ele>219.0</ele><time>2026-04-21T08:20:31Z</time></trkpt><trkpt lat="43.725173001389045" lon="7.390049707514379"><ele>212.5</ele><time>2026-04-21T08:20:32Z</time></trkpt><trkpt lat="43.725136998308805" lon="7.390233874313583"><ele>206.0</ele><time>2026-04-21T08:20:33Z</time></trkpt><trkpt lat="43.725096863570705" lon="7.390395759327233"><ele>199.5</ele><time>2026-04-21T08:20:34Z</time></trkpt><trkpt lat="43.72506749152574" lon="7.390560133187108"><ele>193.0</ele><time>2026-04-21T08:20:35Z</time></trkpt><trkpt lat="43.72501649275585" lon="7.3907422875681545"><ele>193.0</ele><time>2026-04-21T08:20:36Z</time></trkpt><trkpt lat="43.724976924845876" lon="7.390925561399024"><ele>193.0</ele><time>2026-04-21T08:20:37Z</time></trkpt><trkpt lat="43.724929662781946" lon="7.391095395002911"><ele>193.0</ele><time>2026-04-21T08:20:38Z</time></trkpt><trkpt lat="43.72488543215938" lon="7.3912374024413685"><ele>193.0</ele><time>2026-04-21T08:20:39Z</time></trkpt><trkpt lat="43.724848436787596" lon="7.391368636270252"><ele>192.99999999999997</ele><time>2026-04-21T08:20:40Z</time></trkpt><trkpt lat="43.72481543422582" lon="7.391485128157837"><ele>193.0</ele><time>2026-04-21T08:20:41Z</time></trkpt><trkpt lat="43.724788658777044" lon="7.3915992855482555"><ele>193.0</ele><time>2026-04-21T08:20:42Z</time></trkpt><trkpt lat="43.72476892309112" lon="7.391706275931236"><ele>193.0</ele><time>2026-04-21T08:20:43Z</time></trkpt><trkpt lat="43.72475264920703" lon="7.391792198917581"><ele>192.99999999999997</ele><time>2026-04-21T08:20:44Z</time></trkpt><trkpt lat="43.72472730460383" lon="7.391908107731996"><ele>193.0</ele><time>2026-04-21T08:20:46Z</time></trkpt><trkpt lat="43.72470036624087" lon="7.392004882433182"><ele>192.99999999999997</ele><time>2026-04-21T08:20:48Z</time></trkpt><trkpt lat="43.724681915795344" lon="7.392089873377438"><ele>193.0</ele><time>2026-04-21T08:20:49Z</time></trkpt><trkpt lat="43.72466389750711" lon="7.392193945405749"><ele>193.0</ele><time>2026-04-21T08:20:50Z</time></trkpt><trkpt lat="43.72464194297767" lon="7.3923100102926735"><ele>193.0</ele><time>2026-04-21T08:20:51Z</time></trkpt><trkpt lat="43.7246246051145" lon="7.3924299936489986"><ele>192.99999999999997</ele><time>2026-04-21T08:20:52Z</time></trkpt><trkpt lat="43.72461104104869" lon="7.392538912153564"><ele>193.0</ele><time>2026-04-21T08:20:53Z</time></trkpt><trkpt lat="43.724597729629856" lon="7.3926511851484324"><ele>192.99999999999997</ele><time>2026-04-21T08:20:55Z</time></trkpt><trkpt lat="43.72460018494615" lon="7.392764526676434"><ele>193.0</ele><time>2026-04-21T08:20:58Z</time></trkpt><trkpt lat="43.724606610672225" lon="7.392918012132056"><ele>193.0</ele><time>2026-04-21T08:21:00Z</time></trkpt><trkpt lat="43.72461482399335" lon="7.393011662955595"><ele>193.0</ele><time>2026-04-21T08:21:01Z</time></trkpt><trkpt lat="43.72462949872311" lon="7.3931142356746165"><ele>192.99999999999997</ele><time>2026-04-21T08:21:02Z</time></trkpt><trkpt lat="43.72464786347136" lon="7.393223401370296"><ele>193.0</ele><time>2026-04-21T08:21:03Z</time></trkpt><trkpt lat="43.7246709037985" lon="7.39333781121071"><ele>191.99999999999997</ele><time>2026-04-21T08:21:04Z</time></trkpt><trkpt lat="43.72468983969453" lon="7.3934562561725095"><ele>191.0</ele><time>2026-04-21T08:21:05Z</time></trkpt><trkpt lat="43.724708158430374" lon="7.393553477620037"><ele>190.0</ele><time>2026-04-21T08:21:06Z</time></trkpt><trkpt lat="43.7247290563879" lon="7.393647568612099"><ele>189.0</ele><time>2026-04-21T08:21:07Z</time></trkpt><trkpt lat="43.72475362767739" lon="7.393740910948695"><ele>188.0</ele><time>2026-04-21T08:21:08Z</time></trkpt><trkpt lat="43.72478203372957" lon="7.393837647383851"><ele>187.0</ele><time>2026-04-21T08:21:09Z</time></trkpt><trkpt lat="43.72481256620847" lon="7.393931033212654"><ele>185.16666666666669</ele><time>2026-04-21T08:21:10Z</time></trkpt><trkpt lat="43.72484451964949" lon="7.394014525876235"><ele>183.33333333333334</ele><time>2026-04-21T08:21:11Z</time></trkpt><trkpt lat="43.724899267552274" lon="7.394150703622993"><ele>181.5</ele><time>2026-04-21T08:21:13Z</time></trkpt><trkpt lat="43.7249399373458" lon="7.394239735643055"><ele>179.66666666666666</ele><time>2026-04-21T08:21:15Z</time></trkpt><trkpt lat="43.724981874399184" lon="7.394325967646744"><ele>177.83333333333331</ele><time>2026-04-21T08:21:17Z</time></trkpt><trkpt lat="43.725026320119426" lon="7.394394832111344"><ele>176.0</ele><time>2026-04-21T08:21:18Z</time></trkpt><trkpt lat="43.725070029689796" lon="7.39450837522041"><ele>176.0</ele><time>2026-04-21T08:21:19Z</time></trkpt><trkpt lat="43.72515494306979" lon="7.394627911834552"><ele>176.0</ele><time>2026-04-21T08:21:20Z</time></trkpt><trkpt lat="43.725238465303775" lon="7.394755691072059"><ele>176.0</ele><time>2026-04-21T08:21:21Z</time></trkpt><trkpt lat="43.725325699481935" lon="7.394885836061307"><ele>176.0</ele><time>2026-04-21T08:21:22Z</time></trkpt><trkpt lat="43.72540980432555" lon="7.395004019494887"><ele>176.8</ele><time>2026-04-21T08:21:23Z</time></trkpt><trkpt lat="43.72548302838574" lon="7.39511964089838"><ele>177.60000000000002</ele><time>2026-04-21T08:21:24Z</time></trkpt><trkpt lat="43.72554612445658" lon="7.395217243439064"><ele>178.4</ele><time>2026-04-21T08:21:25Z</time></trkpt><trkpt lat="43.72561169291634" lon="7.395309083109772"><ele>179.2</ele><time>2026-04-21T08:21:26Z</time></trkpt><trkpt lat="43.72567822998919" lon="7.395409388610194"><ele>180.0</ele><time>2026-04-21T08:21:27Z</time></trkpt><trkpt lat="43.725723908548645" lon="7.395525080156836"><ele>180.0</ele><time>2026-04-21T08:21:28Z</time></trkpt><trkpt lat="43.72577868762815" lon="7.395638192257109"><ele>180.0</ele><time>2026-04-21T08:21:29Z</time></trkpt><trkpt lat="43.72583233140819" lon="7.395757310162369"><ele>180.0</ele><time>2026-04-21T08:21:30Z</time></trkpt><trkpt lat="43.72587708113079" lon="7.3958722488639195"><ele>180.0</ele><time>2026-04-21T08:21:31Z</time></trkpt><trkpt lat="43.72590745285858" lon="7.395972455847052"><ele>180.0</ele><time>2026-04-21T08:21:32Z</time></trkpt><trkpt lat="43.72594745538284" lon="7.396060814165488"><ele>180.0</ele><time>2026-04-21T08:21:33Z</time></trkpt><trkpt lat="43.72597120297027" lon="7.396153376881578"><ele>180.0</ele><time>2026-04-21T08:21:34Z</time></trkpt><trkpt lat="43.725992810233436" lon="7.396257516775348"><ele>180.0</ele><time>2026-04-21T08:21:35Z</time></trkpt><trkpt lat="43.726009868811424" lon="7.396349318944433"><ele>180.0</ele><time>2026-04-21T08:21:36Z</time></trkpt><trkpt lat="43.726033476383456" lon="7.396505096871072"><ele>180.0</ele><time>2026-04-21T08:21:38Z</time></trkpt><trkpt lat="43.72603576744437" lon="7.396669174299044"><ele>180.0</ele><time>2026-04-21T08:21:40Z</time></trkpt><trkpt lat="43.72604007752528" lon="7.39677220832043"><ele>177.33333333333334</ele><time>2026-04-21T08:21:41Z</time></trkpt><trkpt lat="43.726056788777555" lon="7.396888500116157"><ele>174.66666666666666</ele><time>2026-04-21T08:21:42Z</time></trkpt><trkpt lat="43.72603637988316" lon="7.397002518888624"><ele>172.0</ele><time>2026-04-21T08:21:43Z</time></trkpt><trkpt lat="43.72602955081177" lon="7.3971207182961365"><ele>169.33333333333331</ele><time>2026-04-21T08:21:44Z</time></trkpt><trkpt lat="43.72601767124657" lon="7.397248446153905"><ele>166.66666666666666</ele><time>2026-04-21T08:21:45Z</time></trkpt><trkpt lat="43.72599947990355" lon="7.397379246191001"><ele>164.0</ele><time>2026-04-21T08:21:46Z</time></trkpt><trkpt lat="43.72598249114038" lon="7.397500409700008"><ele>163.5</ele><time>2026-04-21T08:21:47Z</time></trkpt><trkpt lat="43.725961934347815" lon="7.397632520247638"><ele>163.0</ele><time>2026-04-21T08:21:48Z</time></trkpt><trkpt lat="43.725943614627376" lon="7.397758344077878"><ele>162.5</ele><time>2026-04-21T08:21:49Z</time></trkpt><trkpt lat="43.725927862518795" lon="7.397862739317005"><ele>162.0</ele><time>2026-04-21T08:21:50Z</time></trkpt><trkpt lat="43.725907560779405" lon="7.3979930031993835"><ele>161.5</ele><time>2026-04-21T08:21:52Z</time></trkpt><trkpt lat="43.72590965477704" lon="7.398092134813261"><ele>161.0</ele><time>2026-04-21T08:21:54Z</time></trkpt><trkpt lat="43.72588624433796" lon="7.398235197967944"><ele>161.0</ele><time>2026-04-21T08:21:56Z</time></trkpt><trkpt lat="43.725857534305796" lon="7.398424732770933"><ele>161.0</ele><time>2026-04-21T08:21:58Z</time></trkpt><trkpt lat="43.72583659268192" lon="7.398542250858565"><ele>161.0</ele><time>2026-04-21T08:21:59Z</time></trkpt><trkpt lat="43.725814436588664" lon="7.398671896269485"><ele>161.0</ele><time>2026-04-21T08:22:00Z</time></trkpt><trkpt lat="43.72579309753729" lon="7.398800027160519"><ele>161.0</ele><time>2026-04-21T08:22:01Z</time></trkpt><trkpt lat="43.72576478960112" lon="7.398941296444862"><ele>162.0</ele><time>2026-04-21T08:22:02Z</time></trkpt><trkpt lat="43.72573934391249" lon="7.39908401216382"><ele>163.0</ele><time>2026-04-21T08:22:03Z</time></trkpt><trkpt lat="43.72570609311725" lon="7.399218529390928"><ele>164.0</ele><time>2026-04-21T08:22:04Z</time></trkpt><trkpt lat="43.72569128043926" lon="7.399322306537561"><ele>165.0</ele><time>2026-04-21T08:22:05Z</time></trkpt><trkpt lat="43.72564409476116" lon="7.399436714213168"><ele>166.0</ele><time>2026-04-21T08:22:06Z</time></trkpt><trkpt lat="43.7256066638194" lon="7.399560573146741"><ele>167.33333333333334</ele><time>2026-04-21T08:22:07Z</time></trkpt><trkpt lat="43.72556746564313" lon="7.399686239900072"><ele>168.66666666666669</ele><time>2026-04-21T08:22:08Z</time></trkpt><trkpt lat="43.72553229467985" lon="7.399800540944718"><ele>170.0</ele><time>2026-04-21T08:22:09Z</time></trkpt><trkpt lat="43.72549851516152" lon="7.399905602907324"><ele>171.33333333333334</ele><time>2026-04-21T08:22:10Z</time></trkpt><trkpt lat="43.72548499539732" lon="7.399999887233455"><ele>172.66666666666666</ele><time>2026-04-21T08:22:11Z</time></trkpt><trkpt lat="43.72544754819297" lon="7.400089215929374"><ele>174.0</ele><time>2026-04-21T08:22:13Z</time></trkpt><trkpt lat="43.72540911943616" lon="7.400196677080884"><ele>174.0</ele><time>2026-04-21T08:22:17Z</time></trkpt><trkpt lat="43.725358597479804" lon="7.400331452716396"><ele>174.0</ele><time>2026-04-21T08:22:19Z</time></trkpt><trkpt lat="43.72531102375168" lon="7.400505328727772"><ele>174.0</ele><time>2026-04-21T08:22:21Z</time></trkpt><trkpt lat="43.72528011401425" lon="7.400610484456171"><ele>174.0</ele><time>2026-04-21T08:22:22Z</time></trkpt><trkpt lat="43.72524677622398" lon="7.400714538749787"><ele>174.0</ele><time>2026-04-21T08:22:23Z</time></trkpt><trkpt lat="43.72521557912175" lon="7.400815055826945"><ele>168.6</ele><time>2026-04-21T08:22:24Z</time></trkpt><trkpt lat="43.72518373069984" lon="7.400916557539678"><ele>163.2</ele><time>2026-04-21T08:22:25Z</time></trkpt><trkpt lat="43.72514337377875" lon="7.401013053511918"><ele>157.79999999999998</ele><time>2026-04-21T08:22:26Z</time></trkpt><trkpt lat="43.72509049771791" lon="7.4011167389793036"><ele>152.39999999999998</ele><time>2026-04-21T08:22:27Z</time></trkpt><trkpt lat="43.7250311080047" lon="7.401226150195734"><ele>147.0</ele><time>2026-04-21T08:22:28Z</time></trkpt><trkpt lat="43.72496585117124" lon="7.401331516514781"><ele>148.66666666666666</ele><time>2026-04-21T08:22:29Z</time></trkpt><trkpt lat="43.724911049086224" lon="7.401416498929528"><ele>150.33333333333334</ele><time>2026-04-21T08:22:30Z</time></trkpt><trkpt lat="43.72485400667704" lon="7.40149979805938"><ele>152.0</ele><time>2026-04-21T08:22:31Z</time></trkpt><trkpt lat="43.724790535444264" lon="7.401590347126236"><ele>153.66666666666669</ele><time>2026-04-21T08:22:32Z</time></trkpt><trkpt lat="43.72472427585533" lon="7.401682631604789"><ele>155.33333333333334</ele><time>2026-04-21T08:22:33Z</time></trkpt><trkpt lat="43.724658465047064" lon="7.401781649512947"><ele>157.0</ele><time>2026-04-21T08:22:34Z</time></trkpt><trkpt lat="43.72459854861247" lon="7.401876235857288"><ele>157.0</ele><time>2026-04-21T08:22:35Z</time></trkpt><trkpt lat="43.72454045106999" lon="7.401968874109322"><ele>157.0</ele><time>2026-04-21T08:22:36Z</time></trkpt><trkpt lat="43.724492679413295" lon="7.402075060523474"><ele>157.0</ele><time>2026-04-21T08:22:37Z</time></trkpt><trkpt lat="43.72445461218154" lon="7.402191034316996"><ele>157.0</ele><time>2026-04-21T08:22:38Z</time></trkpt><trkpt lat="43.72443135450557" lon="7.40232465983644"><ele>157.0</ele><time>2026-04-21T08:22:39Z</time></trkpt><trkpt lat="43.724389801231325" lon="7.40249373197995"><ele>151.0</ele><time>2026-04-21T08:22:40Z</time></trkpt><trkpt lat="43.7243839497376" lon="7.4026929922499685"><ele>145.0</ele><time>2026-04-21T08:22:41Z</time></trkpt><trkpt lat="43.724385208960264" lon="7.402913197972711"><ele>139.0</ele><time>2026-04-21T08:22:42Z</time></trkpt><trkpt lat="43.72438690105453" lon="7.403152365844782"><ele>138.75</ele><time>2026-04-21T08:22:43Z</time></trkpt><trkpt lat="43.72436422941074" lon="7.4033730895247505"><ele>138.5</ele><time>2026-04-21T08:22:44Z</time></trkpt><trkpt lat="43.72433300838931" lon="7.403569060273062"><ele>138.25</ele><time>2026-04-21T08:22:45Z</time></trkpt><trkpt lat="43.724285617978666" lon="7.403754826121643"><ele>138.0</ele><time>2026-04-21T08:22:46Z</time></trkpt><trkpt lat="43.72423722100236" lon="7.403933263829901"><ele>138.0</ele><time>2026-04-21T08:22:47Z</time></trkpt><trkpt lat="43.72419646514867" lon="7.404107732138339"><ele>138.0</ele><time>2026-04-21T08:22:48Z</time></trkpt><trkpt lat="43.72416404115745" lon="7.404282992903561"><ele>138.0</ele><time>2026-04-21T08:22:49Z</time></trkpt><trkpt lat="43.72413678189567" lon="7.404455292317065"><ele>138.0</ele><time>2026-04-21T08:22:50Z</time></trkpt><trkpt lat="43.72411307827495" lon="7.404627611140077"><ele>140.25</ele><time>2026-04-21T08:22:51Z</time></trkpt><trkpt lat="43.724094327087" lon="7.404792782325169"><ele>142.5</ele><time>2026-04-21T08:22:52Z</time></trkpt><trkpt lat="43.724080704013566" lon="7.404952922801727"><ele>144.75</ele><time>2026-04-21T08:22:53Z</time></trkpt><trkpt lat="43.724075359575856" lon="7.405108614716754"><ele>147.0</ele><time>2026-04-21T08:22:54Z</time></trkpt><trkpt lat="43.72408378551003" lon="7.4052583847108755"><ele>147.0</ele><time>2026-04-21T08:22:55Z</time></trkpt><trkpt lat="43.724109286926506" lon="7.405407494724232"><ele>147.0</ele><time>2026-04-21T08:22:56Z</time></trkpt><trkpt lat="43.724149144754776" lon="7.405550212582812"><ele>147.0</ele><time>2026-04-21T08:22:57Z</time></trkpt><trkpt lat="43.7242027159995" lon="7.405687123997368"><ele>147.0</ele><time>2026-04-21T08:22:58Z</time></trkpt><trkpt lat="43.72426805039734" lon="7.4058186639990335"><ele>147.0</ele><time>2026-04-21T08:22:59Z</time></trkpt><trkpt lat="43.72434543155496" lon="7.405954831841445"><ele>151.2</ele><time>2026-04-21T08:23:00Z</time></trkpt><trkpt lat="43.72442334633957" lon="7.406082541532949"><ele>155.39999999999998</ele><time>2026-04-21T08:23:01Z</time></trkpt><trkpt lat="43.72450082604619" lon="7.4061978328074005"><ele>159.60000000000002</ele><time>2026-04-21T08:23:02Z</time></trkpt><trkpt lat="43.724573618656414" lon="7.406305977531009"><ele>163.8</ele><time>2026-04-21T08:23:03Z</time></trkpt><trkpt lat="43.72464508817895" lon="7.40639175928129"><ele>168.0</ele><time>2026-04-21T08:23:04Z</time></trkpt><trkpt lat="43.72472404455531" lon="7.406470169079324"><ele>159.4</ele><time>2026-04-21T08:23:05Z</time></trkpt><trkpt lat="43.72481763409146" lon="7.4065468171352915"><ele>150.8</ele><time>2026-04-21T08:23:06Z</time></trkpt><trkpt lat="43.72491184542209" lon="7.4066078376772975"><ele>142.2</ele><time>2026-04-21T08:23:07Z</time></trkpt><trkpt lat="43.72500244925229" lon="7.406653584777874"><ele>133.6</ele><time>2026-04-21T08:23:08Z</time></trkpt><trkpt lat="43.725093063143774" lon="7.406688914812017"><ele>125.0</ele><time>2026-04-21T08:23:09Z</time></trkpt><trkpt lat="43.725184037363654" lon="7.4067202848663545"><ele>125.8</ele><time>2026-04-21T08:23:10Z</time></trkpt><trkpt lat="43.725272391707236" lon="7.406758317844933"><ele>126.6</ele><time>2026-04-21T08:23:11Z</time></trkpt><trkpt lat="43.72537378889683" lon="7.4068034110494665"><ele>127.4</ele><time>2026-04-21T08:23:12Z</time></trkpt><trkpt lat="43.725474467911425" lon="7.4068387034082965"><ele>128.2</ele><time>2026-04-21T08:23:13Z</time></trkpt><trkpt lat="43.72557099788397" lon="7.406870538443231"><ele>129.0</ele><time>2026-04-21T08:23:14Z</time></trkpt><trkpt lat="43.72566207353198" lon="7.406907566767365"><ele>129.0</ele><time>2026-04-21T08:23:15Z</time></trkpt><trkpt lat="43.72575694359611" lon="7.406946850734142"><ele>129.0</ele><time>2026-04-21T08:23:16Z</time></trkpt><trkpt lat="43.7258576493634" lon="7.406983203613149"><ele>129.0</ele><time>2026-04-21T08:23:17Z</time></trkpt><trkpt lat="43.72594275295972" lon="7.407015478730881"><ele>129.0</ele><time>2026-04-21T08:23:18Z</time></trkpt><trkpt lat="43.72602392517005" lon="7.407043619803035"><ele>129.0</ele><time>2026-04-21T08:23:19Z</time></trkpt><trkpt lat="43.726116365091976" lon="7.407072491443172"><ele>133.4</ele><time>2026-04-21T08:23:20Z</time></trkpt><trkpt lat="43.726203434170905" lon="7.407103646510119"><ele>137.8</ele><time>2026-04-21T08:23:21Z</time></trkpt><trkpt lat="43.72629409975014" lon="7.407137647147812"><ele>142.2</ele><time>2026-04-21T08:23:22Z</time></trkpt><trkpt lat="43.72639780734129" lon="7.40716535427123"><ele>146.6</ele><time>2026-04-21T08:23:23Z</time></trkpt><trkpt lat="43.72650943052599" lon="7.407195718869206"><ele>151.0</ele><time>2026-04-21T08:23:24Z</time></trkpt><trkpt lat="43.72663437904651" lon="7.407224690852236"><ele>143.25</ele><time>2026-04-21T08:23:25Z</time></trkpt><trkpt lat="43.72675676775017" lon="7.407249701233361"><ele>135.5</ele><time>2026-04-21T08:23:26Z</time></trkpt><trkpt lat="43.726875275706604" lon="7.407272446044044"><ele>127.75</ele><time>2026-04-21T08:23:27Z</time></trkpt><trkpt lat="43.726988448000185" lon="7.407295903288499"><ele>120.0</ele><time>2026-04-21T08:23:28Z</time></trkpt><trkpt lat="43.72710426518271" lon="7.407315051417581"><ele>120.0</ele><time>2026-04-21T08:23:29Z</time></trkpt><trkpt lat="43.72721418200267" lon="7.4073379619867525"><ele>120.0</ele><time>2026-04-21T08:23:30Z</time></trkpt><trkpt lat="43.72732429141596" lon="7.407373161040605"><ele>120.0</ele><time>2026-04-21T08:23:31Z</time></trkpt><trkpt lat="43.7274316361925" lon="7.407418947335016"><ele>120.0</ele><time>2026-04-21T08:23:32Z</time></trkpt><trkpt lat="43.727528177602366" lon="7.407478643301625"><ele>120.0</ele><time>2026-04-21T08:23:33Z</time></trkpt><trkpt lat="43.72762473002843" lon="7.407554443276729"><ele>120.0</ele><time>2026-04-21T08:23:34Z</time></trkpt><trkpt lat="43.7277177728776" lon="7.4076489610304455"><ele>120.0</ele><time>2026-04-21T08:23:35Z</time></trkpt><trkpt lat="43.727799822572045" lon="7.40774410997284"><ele>120.0</ele><time>2026-04-21T08:23:36Z</time></trkpt><trkpt lat="43.72787633933176" lon="7.40784466440747"><ele>120.0</ele><time>2026-04-21T08:23:37Z</time></trkpt><trkpt lat="43.72795698721698" lon="7.407945580721963"><ele>120.0</ele><time>2026-04-21T08:23:38Z</time></trkpt><trkpt lat="43.72803452834424" lon="7.408038255374426"><ele>119.0</ele><time>2026-04-21T08:23:39Z</time></trkpt><trkpt lat="43.72811550720125" lon="7.408121394593195"><ele>118.0</ele><time>2026-04-21T08:23:40Z</time></trkpt><trkpt lat="43.728201059022055" lon="7.408191697899433"><ele>117.0</ele><time>2026-04-21T08:23:41Z</time></trkpt><trkpt lat="43.7282812501093" lon="7.408237707686708"><ele>116.0</ele><time>2026-04-21T08:23:42Z</time></trkpt><trkpt lat="43.72835678877332" lon="7.408275785158344"><ele>115.0</ele><time>2026-04-21T08:23:43Z</time></trkpt><trkpt lat="43.728434794843636" lon="7.408300305715572"><ele>114.0</ele><time>2026-04-21T08:23:44Z</time></trkpt><trkpt lat="43.72853808120737" lon="7.408327492296114"><ele>116.83333333333333</ele><time>2026-04-21T08:23:46Z</time></trkpt><trkpt lat="43.7286160702722" lon="7.408354512116061"><ele>119.66666666666666</ele><time>2026-04-21T08:23:49Z</time></trkpt><trkpt lat="43.72868933215444" lon="7.408379417784067"><ele>122.5</ele><time>2026-04-21T08:23:51Z</time></trkpt><trkpt lat="43.72878535838747" lon="7.40844048879487"><ele>125.33333333333333</ele><time>2026-04-21T08:23:53Z</time></trkpt><trkpt lat="43.72888902494987" lon="7.408525890697344"><ele>128.16666666666666</ele><time>2026-04-21T08:23:55Z</time></trkpt><trkpt lat="43.728946437236324" lon="7.408573401668923"><ele>131.0</ele><time>2026-04-21T08:23:56Z</time></trkpt><trkpt lat="43.729018593965286" lon="7.4086093852940795"><ele>131.0</ele><time>2026-04-21T08:23:57Z</time></trkpt><trkpt lat="43.729098100877934" lon="7.408631116113249"><ele>131.0</ele><time>2026-04-21T08:23:58Z</time></trkpt><trkpt lat="43.72918361087491" lon="7.408642291181852"><ele>131.0</ele><time>2026-04-21T08:23:59Z</time></trkpt><trkpt lat="43.72926276240405" lon="7.408652134343674"><ele>131.0</ele><time>2026-04-21T08:24:00Z</time></trkpt><trkpt lat="43.72933153231858" lon="7.408679356545556"><ele>131.0</ele><time>2026-04-21T08:24:01Z</time></trkpt><trkpt lat="43.72944523322126" lon="7.40874823709804"><ele>131.0</ele><time>2026-04-21T08:24:03Z</time></trkpt><trkpt lat="43.72951441862386" lon="7.408795921220616"><ele>128.4</ele><time>2026-04-21T08:24:04Z</time></trkpt><trkpt lat="43.72959908041493" lon="7.408847034600406"><ele>125.8</ele><time>2026-04-21T08:24:05Z</time></trkpt><trkpt lat="43.729683243080174" lon="7.40889926122269"><ele>123.20000000000002</ele><time>2026-04-21T08:24:06Z</time></trkpt><trkpt lat="43.72977010019618" lon="7.408956258257342"><ele>120.60000000000001</ele><time>2026-04-21T08:24:07Z</time></trkpt><trkpt lat="43.72985193099349" lon="7.409010580334716"><ele>118.0</ele><time>2026-04-21T08:24:08Z</time></trkpt><trkpt lat="43.72992407520085" lon="7.409061241374673"><ele>118.00000000000001</ele><time>2026-04-21T08:24:09Z</time></trkpt><trkpt lat="43.72999631930851" lon="7.409108279040463"><ele>118.0</ele><time>2026-04-21T08:24:10Z</time></trkpt><trkpt lat="43.73007783372627" lon="7.409156335913289"><ele>118.0</ele><time>2026-04-21T08:24:11Z</time></trkpt><trkpt lat="43.73015452568412" lon="7.409206483496053"><ele>118.0</ele><time>2026-04-21T08:24:12Z</time></trkpt><trkpt lat="43.73022496123162" lon="7.409261767134218"><ele>118.00000000000001</ele><time>2026-04-21T08:24:13Z</time></trkpt><trkpt lat="43.73030246750619" lon="7.409323493104723"><ele>118.0</ele><time>2026-04-21T08:24:14Z</time></trkpt><trkpt lat="43.730381839601506" lon="7.409397567082731"><ele>120.2</ele><time>2026-04-21T08:24:15Z</time></trkpt><trkpt lat="43.730459426321374" lon="7.409480615414288"><ele>122.4</ele><time>2026-04-21T08:24:16Z</time></trkpt><trkpt lat="43.73053847859851" lon="7.409546051257691"><ele>124.60000000000001</ele><time>2026-04-21T08:24:17Z</time></trkpt><trkpt lat="43.73060370508323" lon="7.409632834742758"><ele>126.80000000000001</ele><time>2026-04-21T08:24:18Z</time></trkpt><trkpt lat="43.730676290228566" lon="7.409707424521852"><ele>129.0</ele><time>2026-04-21T08:24:19Z</time></trkpt><trkpt lat="43.73075026955671" lon="7.4098015547717"><ele>129.0</ele><time>2026-04-21T08:24:20Z</time></trkpt><trkpt lat="43.730823145308584" lon="7.40989212171522"><ele>129.0</ele><time>2026-04-21T08:24:21Z</time></trkpt><trkpt lat="43.73089162642715" lon="7.409992177098885"><ele>129.0</ele><time>2026-04-21T08:24:22Z</time></trkpt><trkpt lat="43.73094128952532" lon="7.410095088555368"><ele>129.0</ele><time>2026-04-21T08:24:23Z</time></trkpt><trkpt lat="43.73097919140159" lon="7.410199177133865"><ele>129.0</ele><time>2026-04-21T08:24:24Z</time></trkpt><trkpt lat="43.73100843082665" lon="7.41030379679665"><ele>129.0</ele><time>2026-04-21T08:24:25Z</time></trkpt><trkpt lat="43.73103556645438" lon="7.4104136284768645"><ele>129.0</ele><time>2026-04-21T08:24:26Z</time></trkpt><trkpt lat="43.73105945803322" lon="7.4105084283768035"><ele>129.0</ele><time>2026-04-21T08:24:27Z</time></trkpt><trkpt lat="43.73107630708235" lon="7.410596837121354"><ele>129.0</ele><time>2026-04-21T08:24:28Z</time></trkpt><trkpt lat="43.73109244722603" lon="7.4106929020969465"><ele>129.0</ele><time>2026-04-21T08:24:29Z</time></trkpt><trkpt lat="43.731112532163095" lon="7.4107820660715"><ele>129.0</ele><time>2026-04-21T08:24:30Z</time></trkpt><trkpt lat="43.731159790117275" lon="7.410979481045776"><ele>133.6</ele><time>2026-04-21T08:24:32Z</time></trkpt><trkpt lat="43.731175870818376" lon="7.411107013401111"><ele>138.2</ele><time>2026-04-21T08:24:33Z</time></trkpt><trkpt lat="43.731207981822415" lon="7.411224133250114"><ele>142.79999999999998</ele><time>2026-04-21T08:24:34Z</time></trkpt><trkpt lat="43.731251640287205" lon="7.411337988410191"><ele>147.4</ele><time>2026-04-21T08:24:35Z</time></trkpt><trkpt lat="43.731307292178506" lon="7.411431670447664"><ele>152.0</ele><time>2026-04-21T08:24:36Z</time></trkpt><trkpt lat="43.7313806736257" lon="7.411510937394285"><ele>152.0</ele><time>2026-04-21T08:24:37Z</time></trkpt><trkpt lat="43.73148477330773" lon="7.411559568389801"><ele>152.0</ele><time>2026-04-21T08:24:38Z</time></trkpt><trkpt lat="43.73160926862555" lon="7.411570466295211"><ele>152.0</ele><time>2026-04-21T08:24:39Z</time></trkpt><trkpt lat="43.73175246476051" lon="7.4116064642677815"><ele>152.0</ele><time>2026-04-21T08:24:40Z</time></trkpt><trkpt lat="43.731894248511274" lon="7.411595974958645"><ele>163.66666666666666</ele><time>2026-04-21T08:24:41Z</time></trkpt><trkpt lat="43.73204998677786" lon="7.411584840329324"><ele>175.33333333333334</ele><time>2026-04-21T08:24:42Z</time></trkpt><trkpt lat="43.73221256909218" lon="7.411558223994912"><ele>187.0</ele><time>2026-04-21T08:24:43Z</time></trkpt><trkpt lat="43.73237881540782" lon="7.411504133150036"><ele>187.0</ele><time>2026-04-21T08:24:44.066Z</time></trkpt><trkpt lat="43.73253823078588" lon="7.411438756926908"><ele>187.0</ele><time>2026-04-21T08:24:45.052Z</time></trkpt><trkpt lat="43.733228890131564" lon="7.410940669253994"><ele>196.0</ele><time>2026-04-21T08:24:49.458Z</time></trkpt><trkpt lat="43.73338402109844" lon="7.410823179299705"><ele>205.0</ele><time>2026-04-21T08:24:50.459Z</time></trkpt><trkpt lat="43.733539900066404" lon="7.410706943417004"><ele>214.0</ele><time>2026-04-21T08:24:51.46Z</time></trkpt><trkpt lat="43.733694654728446" lon="7.410589464160535"><ele>222.33333333333331</ele><time>2026-04-21T08:24:52.458Z</time></trkpt><trkpt lat="43.73384878439777" lon="7.410469234155183"><ele>230.66666666666669</ele><time>2026-04-21T08:24:53.459Z</time></trkpt><trkpt lat="43.73400289988584" lon="7.4103494449224625"><ele>239.0</ele><time>2026-04-21T08:24:54.459Z</time></trkpt><trkpt lat="43.734158607082776" lon="7.410235353948649"><ele>239.0</ele><time>2026-04-21T08:24:55.456Z</time></trkpt><trkpt lat="43.73431112218471" lon="7.410109928127157"><ele>239.0</ele><time>2026-04-21T08:24:56.46Z</time></trkpt><trkpt lat="43.734453798742166" lon="7.409965640531648"><ele>239.0</ele><time>2026-04-21T08:24:57.46Z</time></trkpt><trkpt lat="43.73458560705331" lon="7.4098029415968485"><ele>250.0</ele><time>2026-04-21T08:24:58.46Z</time></trkpt><trkpt lat="43.73470302511042" lon="7.409620246073204"><ele>261.0</ele><time>2026-04-21T08:24:59.461Z</time></trkpt><trkpt lat="43.73480813896884" lon="7.409423872562947"><ele>272.0</ele><time>2026-04-21T08:25:00.462Z</time></trkpt><trkpt lat="43.73489913267822" lon="7.409215386670534"><ele>272.0</ele><time>2026-04-21T08:25:01.459Z</time></trkpt><trkpt lat="43.734975957604085" lon="7.408995841319725"><ele>272.0</ele><time>2026-04-21T08:25:02.459Z</time></trkpt><trkpt lat="43.73503803785976" lon="7.408768176964122"><ele>272.0</ele><time>2026-04-21T08:25:03.456Z</time></trkpt><trkpt lat="43.735081182522876" lon="7.408530557106149"><ele>284.0</ele><time>2026-04-21T08:25:04.46Z</time></trkpt><trkpt lat="43.73510503159289" lon="7.408288892973329"><ele>296.0</ele><time>2026-04-21T08:25:05.46Z</time></trkpt><trkpt lat="43.73511357268679" lon="7.408045158518094"><ele>308.0</ele><time>2026-04-21T08:25:06.46Z</time></trkpt><trkpt lat="43.73510669304521" lon="7.407801440898523"><ele>320.33333333333337</ele><time>2026-04-21T08:25:07.46Z</time></trkpt><trkpt lat="43.73508306891354" lon="7.40756010612201"><ele>332.6666666666667</ele><time>2026-04-21T08:25:08.458Z</time></trkpt><trkpt lat="43.73504205810418" lon="7.407322443796413"><ele>345.0</ele><time>2026-04-21T08:25:09.46Z</time></trkpt><trkpt lat="43.73498390709016" lon="7.40709214577722"><ele>355.3333333333333</ele><time>2026-04-21T08:25:10.46Z</time></trkpt><trkpt lat="43.73490981710309" lon="7.406871217122284"><ele>365.66666666666663</ele><time>2026-04-21T08:25:11.457Z</time></trkpt><trkpt lat="43.73481902760173" lon="7.4066614362494985"><ele>376.0</ele><time>2026-04-21T08:25:12.459Z</time></trkpt><trkpt lat="43.734709427280755" lon="7.406470060397998"><ele>389.66666666666663</ele><time>2026-04-21T08:25:13.46Z</time></trkpt><trkpt lat="43.734580834895254" lon="7.406302509286112"><ele>403.3333333333333</ele><time>2026-04-21T08:25:14.46Z</time></trkpt><trkpt lat="43.7344464335509" lon="7.406144586024951"><ele>417.0</ele><time>2026-04-21T08:25:15.458Z</time></trkpt><trkpt lat="43.734305499154324" lon="7.4059976396574125"><ele>417.0</ele><time>2026-04-21T08:25:16.457Z</time></trkpt><trkpt lat="43.73415721939999" lon="7.405863028258162"><ele>417.0</ele><time>2026-04-21T08:25:17.46Z</time></trkpt><trkpt lat="43.734002528154754" lon="7.405744759556855"><ele>417.0</ele><time>2026-04-21T08:25:18.46Z</time></trkpt><trkpt lat="43.73383827304616" lon="7.405654645429423"><ele>417.0</ele><time>2026-04-21T08:25:19.46Z</time></trkpt><trkpt lat="43.73366779689147" lon="7.405592530007792"><ele>417.0</ele><time>2026-04-21T08:25:20.457Z</time></trkpt><trkpt lat="43.733493041662015" lon="7.4055547012200735"><ele>417.0</ele><time>2026-04-21T08:25:21.458Z</time></trkpt><trkpt lat="43.7333167057041" lon="7.405542077854111"><ele>414.0</ele><time>2026-04-21T08:25:22.456Z</time></trkpt><trkpt lat="43.733139485176224" lon="7.405544984505541"><ele>411.0</ele><time>2026-04-21T08:25:23.458Z</time></trkpt><trkpt lat="43.732964166175314" lon="7.405580376772988"><ele>408.0</ele><time>2026-04-21T08:25:24.46Z</time></trkpt><trkpt lat="43.73279177875455" lon="7.405634918301081"><ele>405.0</ele><time>2026-04-21T08:25:25.46Z</time></trkpt><trkpt lat="43.73262466192134" lon="7.405711972394116"><ele>402.0</ele><time>2026-04-21T08:25:26.457Z</time></trkpt><trkpt lat="43.73246629493857" lon="7.405820593950507"><ele>399.0</ele><time>2026-04-21T08:25:27.456Z</time></trkpt><trkpt lat="43.732312207375486" lon="7.40594030868169"><ele>399.0</ele><time>2026-04-21T08:25:28.456Z</time></trkpt><trkpt lat="43.732168579590684" lon="7.406084162590226"><ele>399.0</ele><time>2026-04-21T08:25:29.46Z</time></trkpt><trkpt lat="43.7320357464396" lon="7.406245312557313"><ele>399.0</ele><time>2026-04-21T08:25:30.46Z</time></trkpt><trkpt lat="43.73191580706834" lon="7.406423221740295"><ele>372.0</ele><time>2026-04-21T08:25:31.457Z</time></trkpt><trkpt lat="43.731809256578664" lon="7.406618983759246"><ele>345.0</ele><time>2026-04-21T08:25:32.46Z</time></trkpt><trkpt lat="43.73171517215684" lon="7.406825620120554"><ele>318.0</ele><time>2026-04-21T08:25:33.46Z</time></trkpt><trkpt lat="43.73163791276309" lon="7.4070449054805865"><ele>303.3333333333333</ele><time>2026-04-21T08:25:34.46Z</time></trkpt><trkpt lat="43.73157766374346" lon="7.407273655302777"><ele>288.66666666666663</ele><time>2026-04-21T08:25:35.458Z</time></trkpt><trkpt lat="43.731531822871744" lon="7.407508637930992"><ele>274.0</ele><time>2026-04-21T08:25:36.456Z</time></trkpt><trkpt lat="43.73150301467294" lon="7.407749580992954"><ele>262.3333333333333</ele><time>2026-04-21T08:25:37.457Z</time></trkpt><trkpt lat="43.73149143901011" lon="7.407993460333745"><ele>250.66666666666669</ele><time>2026-04-21T08:25:38.459Z</time></trkpt><trkpt lat="43.73149768080196" lon="7.4082378860978695"><ele>239.0</ele><time>2026-04-21T08:25:39.462Z</time></trkpt><trkpt lat="43.73152279375015" lon="7.4084788308404015"><ele>239.0</ele><time>2026-04-21T08:25:40.46Z</time></trkpt><trkpt lat="43.73155995710341" lon="7.408716325671529"><ele>239.0</ele><time>2026-04-21T08:25:41.456Z</time></trkpt><trkpt lat="43.731611459764416" lon="7.4089497016637464"><ele>239.0</ele><time>2026-04-21T08:25:42.456Z</time></trkpt><trkpt lat="43.73166846475615" lon="7.409181875326611"><ele>230.33333333333334</ele><time>2026-04-21T08:25:43.46Z</time></trkpt><trkpt lat="43.73172648297847" lon="7.409412008564299"><ele>221.66666666666669</ele><time>2026-04-21T08:25:44.459Z</time></trkpt><trkpt lat="43.731774673773664" lon="7.409646854114849"><ele>213.0</ele><time>2026-04-21T08:25:45.459Z</time></trkpt><trkpt lat="43.73181119389542" lon="7.409885676660829"><ele>204.66666666666666</ele><time>2026-04-21T08:25:46.459Z</time></trkpt><trkpt lat="43.73182902631917" lon="7.410127661332061"><ele>196.33333333333331</ele><time>2026-04-21T08:25:47.457Z</time></trkpt><trkpt lat="43.73183051616466" lon="7.410372145716567"><ele>188.0</ele><time>2026-04-21T08:25:48.459Z</time></trkpt><trkpt lat="43.73180999889964" lon="7.410614451958045"><ele>181.33333333333331</ele><time>2026-04-21T08:25:49.459Z</time></trkpt><trkpt lat="43.73177484351497" lon="7.410853301489837"><ele>174.66666666666666</ele><time>2026-04-21T08:25:50.458Z</time></trkpt><trkpt lat="43.7317209296824" lon="7.411085260310067"><ele>168.0</ele><time>2026-04-21T08:25:51.457Z</time></trkpt><trkpt lat="43.73165532695356" lon="7.411311714911316"><ele>162.66666666666666</ele><time>2026-04-21T08:25:52.456Z</time></trkpt><trkpt lat="43.7315760889596" lon="7.411529951983655"><ele>157.33333333333331</ele><time>2026-04-21T08:25:53.457Z</time></trkpt><trkpt lat="43.731472485469986" lon="7.41172685851138"><ele>152.0</ele><time>2026-04-21T08:25:54.46Z</time></trkpt><trkpt lat="43.73136083453365" lon="7.411915224675467"><ele>152.0</ele><time>2026-04-21T08:25:55.458Z</time></trkpt><trkpt lat="43.731235037421186" lon="7.412086726894956"><ele>152.0</ele><time>2026-04-21T08:25:56.458Z</time></trkpt><trkpt lat="43.731097298840716" lon="7.412239935860418"><ele>152.0</ele><time>2026-04-21T08:25:57.458Z</time></trkpt><trkpt lat="43.73094980670484" lon="7.412375394559775"><ele>133.33333333333331</ele><time>2026-04-21T08:25:58.46Z</time></trkpt><trkpt lat="43.73079434535967" lon="7.412490715237633"><ele>114.66666666666666</ele><time>2026-04-21T08:25:59.458Z</time></trkpt><trkpt lat="43.73063024724846" lon="7.4125829544991415"><ele>96.0</ele><time>2026-04-21T08:26:00.46Z</time></trkpt><trkpt lat="43.73046154720318" lon="7.412653760921472"><ele>96.0</ele><time>2026-04-21T08:26:01.457Z</time></trkpt><trkpt lat="43.73028931678311" lon="7.412712438560013"><ele>96.0</ele><time>2026-04-21T08:26:02.46Z</time></trkpt><trkpt lat="43.73011571893722" lon="7.412758994770124"><ele>96.0</ele><time>2026-04-21T08:26:03.459Z</time></trkpt><trkpt lat="43.7299410714888" lon="7.412799913671289"><ele>75.0</ele><time>2026-04-21T08:26:04.46Z</time></trkpt><trkpt lat="43.72976565783788" lon="7.4128294928741605"><ele>54.0</ele><time>2026-04-21T08:26:05.459Z</time></trkpt><trkpt lat="43.729109562229446" lon="7.412674196853263"><ele>54.0</ele><time>2026-04-21T08:26:19.297Z</time></trkpt><trkpt lat="43.729423305588455" lon="7.412774529215305"><ele>54.0</ele><time>2026-04-21T08:26:25Z</time></trkpt><trkpt lat="43.72932005519144" lon="7.412734380698036"><ele>54.0</ele><time>2026-04-21T08:26:26Z</time></trkpt><trkpt lat="43.72923971678199" lon="7.4126777109448945"><ele>50.166666666666664</ele><time>2026-04-21T08:26:28Z</time></trkpt><trkpt lat="43.729181550684" lon="7.412613286994454"><ele>46.333333333333336</ele><time>2026-04-21T08:26:31Z</time></trkpt><trkpt lat="43.729117784269256" lon="7.412574349872132"><ele>42.5</ele><time>2026-04-21T08:26:33Z</time></trkpt><trkpt lat="43.72903001703982" lon="7.4125176094516645"><ele>38.66666666666667</ele><time>2026-04-21T08:26:35Z</time></trkpt><trkpt lat="43.728945013424884" lon="7.412474838405245"><ele>34.833333333333336</ele><time>2026-04-21T08:26:37Z</time></trkpt><trkpt lat="43.728834699506486" lon="7.412441519668191"><ele>31.0</ele><time>2026-04-21T08:26:39Z</time></trkpt><trkpt lat="43.72874545423322" lon="7.412375650337119"><ele>31.0</ele><time>2026-04-21T08:26:41Z</time></trkpt><trkpt lat="43.72868029277933" lon="7.412329182958361"><ele>31.0</ele><time>2026-04-21T08:26:43Z</time></trkpt><trkpt lat="43.72860586314706" lon="7.412363230179828"><ele>31.0</ele><time>2026-04-21T08:26:45Z</time></trkpt><trkpt lat="43.728622647271294" lon="7.412513692479661"><ele>31.0</ele><time>2026-04-21T08:26:48Z</time></trkpt><trkpt lat="43.72874117831214" lon="7.41256734732373"><ele>31.0</ele><time>2026-04-21T08:26:50Z</time></trkpt><trkpt lat="43.7288128384707" lon="7.4125887448144585"><ele>31.0</ele><time>2026-04-21T08:26:51Z</time></trkpt><trkpt lat="43.728888420837926" lon="7.412625283551742"><ele>31.0</ele><time>2026-04-21T08:26:52Z</time></trkpt><trkpt lat="43.72896611942475" lon="7.41266749976648"><ele>31.0</ele><time>2026-04-21T08:26:53Z</time></trkpt><trkpt lat="43.72905399658899" lon="7.412721442728361"><ele>31.0</ele><time>2026-04-21T08:26:54Z</time></trkpt><trkpt lat="43.72914884780524" lon="7.412776146557121"><ele>31.0</ele><time>2026-04-21T08:26:55Z</time></trkpt><trkpt lat="43.729242688067984" lon="7.412832291328204"><ele>31.000000000000004</ele><time>2026-04-21T08:26:56Z</time></trkpt><trkpt lat="43.72932933047525" lon="7.41287768872476"><ele>31.0</ele><time>2026-04-21T08:26:57Z</time></trkpt><trkpt lat="43.72941682599614" lon="7.412916904991009"><ele>31.0</ele><time>2026-04-21T08:26:58Z</time></trkpt><trkpt lat="43.72949636470954" lon="7.412946866384193"><ele>31.0</ele><time>2026-04-21T08:26:59Z</time></trkpt><trkpt lat="43.72957231705218" lon="7.412975934797055"><ele>31.000000000000004</ele><time>2026-04-21T08:27:00Z</time></trkpt><trkpt lat="43.72964105605356" lon="7.412993737458632"><ele>31.0</ele><time>2026-04-21T08:27:01Z</time></trkpt><trkpt lat="43.72970835580617" lon="7.413007619075104"><ele>32.5</ele><time>2026-04-21T08:27:02Z</time></trkpt><trkpt lat="43.72977323558171" lon="7.413029101767193"><ele>34.0</ele><time>2026-04-21T08:27:03Z</time></trkpt><trkpt lat="43.729846613177244" lon="7.413057447753776"><ele>35.5</ele><time>2026-04-21T08:27:04Z</time></trkpt><trkpt lat="43.72992078145586" lon="7.413104778272462"><ele>37.0</ele><time>2026-04-21T08:27:05Z</time></trkpt><trkpt lat="43.72997778546873" lon="7.413171396883181"><ele>38.5</ele><time>2026-04-21T08:27:06Z</time></trkpt><trkpt lat="43.730026635238055" lon="7.413259303227436"><ele>40.0</ele><time>2026-04-21T08:27:07Z</time></trkpt><trkpt lat="43.73006809217638" lon="7.413362668563334"><ele>40.0</ele><time>2026-04-21T08:27:08Z</time></trkpt><trkpt lat="43.7301044818322" lon="7.413474561326737"><ele>40.0</ele><time>2026-04-21T08:27:09Z</time></trkpt><trkpt lat="43.73013399707868" lon="7.413590322803255"><ele>40.0</ele><time>2026-04-21T08:27:10Z</time></trkpt><trkpt lat="43.730164397057166" lon="7.413709387341438"><ele>40.0</ele><time>2026-04-21T08:27:11Z</time></trkpt><trkpt lat="43.73019143194304" lon="7.413814910153097"><ele>40.0</ele><time>2026-04-21T08:27:12Z</time></trkpt><trkpt lat="43.73021646874799" lon="7.413911641759327"><ele>40.0</ele><time>2026-04-21T08:27:13Z</time></trkpt><trkpt lat="43.73024522926316" lon="7.4140014256892535"><ele>50.25</ele><time>2026-04-21T08:27:14Z</time></trkpt><trkpt lat="43.730347273884" lon="7.414135795667945"><ele>60.5</ele><time>2026-04-21T08:27:16Z</time></trkpt><trkpt lat="43.730398605810485" lon="7.414248715008252"><ele>70.75</ele><time>2026-04-21T08:27:17Z</time></trkpt><trkpt lat="43.73045495249031" lon="7.414421915102979"><ele>81.0</ele><time>2026-04-21T08:27:19Z</time></trkpt><trkpt lat="43.730502836241186" lon="7.414516228737011"><ele>81.0</ele><time>2026-04-21T08:27:20Z</time></trkpt><trkpt lat="43.7305510625952" lon="7.414599804572447"><ele>81.0</ele><time>2026-04-21T08:27:21Z</time></trkpt><trkpt lat="43.73060021656082" lon="7.4146764207955975"><ele>81.0</ele><time>2026-04-21T08:27:22Z</time></trkpt><trkpt lat="43.730650657170294" lon="7.414770657360337"><ele>81.0</ele><time>2026-04-21T08:27:23Z</time></trkpt><trkpt lat="43.730699900203916" lon="7.414867685709435"><ele>81.0</ele><time>2026-04-21T08:27:24Z</time></trkpt><trkpt lat="43.73074966930003" lon="7.414971919161214"><ele>81.0</ele><time>2026-04-21T08:27:25Z</time></trkpt><trkpt lat="43.730811256240045" lon="7.41508795543644"><ele>73.5</ele><time>2026-04-21T08:27:26Z</time></trkpt><trkpt lat="43.73087989057374" lon="7.415208215956614"><ele>66.0</ele><time>2026-04-21T08:27:27Z</time></trkpt><trkpt lat="43.730956736528086" lon="7.415339028427401"><ele>58.5</ele><time>2026-04-21T08:27:28Z</time></trkpt><trkpt lat="43.731029174273395" lon="7.4154740160510535"><ele>51.0</ele><time>2026-04-21T08:27:29Z</time></trkpt><trkpt lat="43.73109349679947" lon="7.415616353692748"><ele>50.5</ele><time>2026-04-21T08:27:30Z</time></trkpt><trkpt lat="43.73115037670255" lon="7.415771466855987"><ele>50.0</ele><time>2026-04-21T08:27:31Z</time></trkpt><trkpt lat="43.73120642223128" lon="7.415955082089131"><ele>49.5</ele><time>2026-04-21T08:27:32.07Z</time></trkpt><trkpt lat="43.731246272081506" lon="7.416120110937977"><ele>49.0</ele><time>2026-04-21T08:27:33.056Z</time></trkpt><trkpt lat="43.731278319470334" lon="7.416289570418459"><ele>40.0</ele><time>2026-04-21T08:27:34.053Z</time></trkpt><trkpt lat="43.73129886590344" lon="7.416475365571092"><ele>31.0</ele><time>2026-04-21T08:27:35.056Z</time></trkpt><trkpt lat="43.73136769004904" lon="7.41713573081985"><ele>29.666666666666668</ele><time>2026-04-21T08:27:48Z</time></trkpt><trkpt lat="43.731443377249214" lon="7.417175075454553"><ele>28.333333333333336</ele><time>2026-04-21T08:27:50Z</time></trkpt><trkpt lat="43.731479869315024" lon="7.41725259514302"><ele>27.0</ele><time>2026-04-21T08:27:53Z</time></trkpt><trkpt lat="43.73153642027638" lon="7.417338722214876"><ele>25.666666666666668</ele><time>2026-04-21T08:27:56Z</time></trkpt><trkpt lat="43.73159350120912" lon="7.41738825832344"><ele>24.333333333333336</ele><time>2026-04-21T08:27:58Z</time></trkpt><trkpt lat="43.731684499709466" lon="7.417392480894949"><ele>23.0</ele><time>2026-04-21T08:28:01Z</time></trkpt><trkpt lat="43.73171035048001" lon="7.417512570460156"><ele>23.0</ele><time>2026-04-21T08:28:02Z</time></trkpt><trkpt lat="43.731746036566086" lon="7.4176220622604925"><ele>23.0</ele><time>2026-04-21T08:28:04Z</time></trkpt><trkpt lat="43.73178835532791" lon="7.417777803082919"><ele>23.0</ele><time>2026-04-21T08:28:06Z</time></trkpt><trkpt lat="43.731823508231166" lon="7.417871168223644"><ele>23.0</ele><time>2026-04-21T08:28:07Z</time></trkpt><trkpt lat="43.731872624532166" lon="7.418008103111431"><ele>23.0</ele><time>2026-04-21T08:28:09Z</time></trkpt><trkpt lat="43.73189337926314" lon="7.4181137641710615"><ele>24.2</ele><time>2026-04-21T08:28:22Z</time></trkpt><trkpt lat="43.731916532655845" lon="7.418220620418578"><ele>25.4</ele><time>2026-04-21T08:28:24Z</time></trkpt><trkpt lat="43.731930804012805" lon="7.4183976361384945"><ele>26.599999999999998</ele><time>2026-04-21T08:28:26Z</time></trkpt><trkpt lat="43.731932921234694" lon="7.418508820434977"><ele>27.799999999999997</ele><time>2026-04-21T08:28:27Z</time></trkpt><trkpt lat="43.73193531846393" lon="7.418634454620217"><ele>29.0</ele><time>2026-04-21T08:28:28Z</time></trkpt><trkpt lat="43.73193297474208" lon="7.4187608914814955"><ele>28.4</ele><time>2026-04-21T08:28:29Z</time></trkpt><trkpt lat="43.73193184663835" lon="7.418892577426134"><ele>27.799999999999997</ele><time>2026-04-21T08:28:30Z</time></trkpt><trkpt lat="43.73193447042225" lon="7.41903173485821"><ele>27.200000000000003</ele><time>2026-04-21T08:28:31Z</time></trkpt><trkpt lat="43.73193891260374" lon="7.419183344243203"><ele>26.6</ele><time>2026-04-21T08:28:32Z</time></trkpt><trkpt lat="43.731938429371574" lon="7.4193389032819"><ele>26.0</ele><time>2026-04-21T08:28:33Z</time></trkpt><trkpt lat="43.731935384683354" lon="7.41948615423896"><ele>26.0</ele><time>2026-04-21T08:28:34Z</time></trkpt><trkpt lat="43.73195244449823" lon="7.419623954533152"><ele>26.0</ele><time>2026-04-21T08:28:35Z</time></trkpt><trkpt lat="43.73194810887425" lon="7.419770301803656"><ele>26.0</ele><time>2026-04-21T08:28:36.075Z</time></trkpt><trkpt lat="43.731965240044644" lon="7.419896155127828"><ele>26.0</ele><time>2026-04-21T08:28:37.051Z</time></trkpt><trkpt lat="43.73196506073873" lon="7.420018365758004"><ele>26.0</ele><time>2026-04-21T08:28:38.039Z</time></trkpt><trkpt lat="43.731973095468696" lon="7.420134183865659"><ele>24.0</ele><time>2026-04-21T08:28:39.03Z</time></trkpt><trkpt lat="43.732003012087375" lon="7.420237483527554"><ele>22.0</ele><time>2026-04-21T08:28:40.028Z</time></trkpt><trkpt lat="43.7320257576529" lon="7.4203395411247035"><ele>20.0</ele><time>2026-04-21T08:28:41.029Z</time></trkpt><trkpt lat="43.73218290230404" lon="7.42085640049203"><ele>19.833333333333336</ele><time>2026-04-21T08:28:48Z</time></trkpt><trkpt lat="43.73217620312011" lon="7.4209485619659326"><ele>19.666666666666668</ele><time>2026-04-21T08:28:49Z</time></trkpt><trkpt lat="43.732185752342254" lon="7.42104701150114"><ele>19.5</ele><time>2026-04-21T08:28:50Z</time></trkpt><trkpt lat="43.732157673755246" lon="7.421152413125342"><ele>19.333333333333332</ele><time>2026-04-21T08:28:50.999Z</time></trkpt><trkpt lat="43.73213749582525" lon="7.421252614794663"><ele>19.166666666666664</ele><time>2026-04-21T08:28:51.999Z</time></trkpt><trkpt lat="43.73211295201304" lon="7.421356420907163"><ele>19.0</ele><time>2026-04-21T08:28:52.999Z</time></trkpt><trkpt lat="43.732053910100284" lon="7.4214815437698824"><ele>18.599999999999998</ele><time>2026-04-21T08:28:54.999Z</time></trkpt><trkpt lat="43.73204456643544" lon="7.4216341413305145"><ele>18.2</ele><time>2026-04-21T08:28:56.999Z</time></trkpt><trkpt lat="43.73205130078715" lon="7.421768259353974"><ele>17.799999999999997</ele><time>2026-04-21T08:28:58.998Z</time></trkpt><trkpt lat="43.73207694584945" lon="7.421917801129547"><ele>17.4</ele><time>2026-04-21T08:29:00.998Z</time></trkpt><trkpt lat="43.73211416831583" lon="7.422067656237469"><ele>17.0</ele><time>2026-04-21T08:29:02.998Z</time></trkpt><trkpt lat="43.73215438479852" lon="7.422191342774264"><ele>16.166666666666668</ele><time>2026-04-21T08:29:04.998Z</time></trkpt><trkpt lat="43.73224349648862" lon="7.42233568064907"><ele>15.333333333333334</ele><time>2026-04-21T08:29:06.998Z</time></trkpt><trkpt lat="43.73230418625012" lon="7.422396660633199"><ele>14.5</ele><time>2026-04-21T08:29:07.998Z</time></trkpt><trkpt lat="43.7323648629237" lon="7.422435257326621"><ele>13.666666666666668</ele><time>2026-04-21T08:29:08.998Z</time></trkpt><trkpt lat="43.732430243660566" lon="7.422452890023807"><ele>12.833333333333334</ele><time>2026-04-21T08:29:09.998Z</time></trkpt><trkpt lat="43.73250909650348" lon="7.422447314369671"><ele>12.0</ele><time>2026-04-21T08:29:10.998Z</time></trkpt><trkpt lat="43.73260720737804" lon="7.422406801946311"><ele>12.0</ele><time>2026-04-21T08:29:11.998Z</time></trkpt><trkpt lat="43.73271569236667" lon="7.422329655762514"><ele>12.0</ele><time>2026-04-21T08:29:12.998Z</time></trkpt><trkpt lat="43.73281968180778" lon="7.4222362266271995"><ele>12.0</ele><time>2026-04-21T08:29:13.997Z</time></trkpt><trkpt lat="43.73292199757781" lon="7.4221396847696415"><ele>12.0</ele><time>2026-04-21T08:29:14.997Z</time></trkpt><trkpt lat="43.73301933193679" lon="7.422053426004551"><ele>11.666666666666666</ele><time>2026-04-21T08:29:15.997Z</time></trkpt><trkpt lat="43.73311019701035" lon="7.421986943162402"><ele>11.333333333333334</ele><time>2026-04-21T08:29:16.997Z</time></trkpt><trkpt lat="43.733197094670814" lon="7.421930325081037"><ele>11.0</ele><time>2026-04-21T08:29:17.997Z</time></trkpt><trkpt lat="43.73326783036128" lon="7.421884945425469"><ele>10.666666666666668</ele><time>2026-04-21T08:29:18.997Z</time></trkpt><trkpt lat="43.73333531373129" lon="7.421853900873931"><ele>10.333333333333334</ele><time>2026-04-21T08:29:19.997Z</time></trkpt><trkpt lat="43.73342350176326" lon="7.4217952151172035"><ele>10.0</ele><time>2026-04-21T08:29:20.997Z</time></trkpt><trkpt lat="43.733528259593875" lon="7.4217426580257495"><ele>9.6</ele><time>2026-04-21T08:29:21.997Z</time></trkpt><trkpt lat="43.73362421337276" lon="7.421712972897759"><ele>9.2</ele><time>2026-04-21T08:29:22.997Z</time></trkpt><trkpt lat="43.733696768509716" lon="7.421677570538901"><ele>8.8</ele><time>2026-04-21T08:29:23.997Z</time></trkpt><trkpt lat="43.73378055456572" lon="7.421642380176921"><ele>8.4</ele><time>2026-04-21T08:29:24.997Z</time></trkpt><trkpt lat="43.73388400402433" lon="7.421596219754254"><ele>8.0</ele><time>2026-04-21T08:29:25.997Z</time></trkpt><trkpt lat="43.734008106039795" lon="7.421542409701286"><ele>8.0</ele><time>2026-04-21T08:29:26.997Z</time></trkpt><trkpt lat="43.73414600579637" lon="7.421475491058057"><ele>8.0</ele><time>2026-04-21T08:29:27.997Z</time></trkpt><trkpt lat="43.73428789426535" lon="7.421424704386038"><ele>8.0</ele><time>2026-04-21T08:29:28.997Z</time></trkpt><trkpt lat="43.73441481087268" lon="7.421380314872563"><ele>8.0</ele><time>2026-04-21T08:29:29.997Z</time></trkpt><trkpt lat="43.7345135046457" lon="7.421350377719243"><ele>7.333333333333333</ele><time>2026-04-21T08:29:30.997Z</time></trkpt><trkpt lat="43.734601640682506" lon="7.421335138374402"><ele>6.666666666666666</ele><time>2026-04-21T08:29:31.997Z</time></trkpt><trkpt lat="43.73466510309186" lon="7.421331531969717"><ele>6.0</ele><time>2026-04-21T08:29:32.997Z</time></trkpt><trkpt lat="43.73475765418549" lon="7.421310856333719"><ele>5.333333333333333</ele><time>2026-04-21T08:29:34.997Z</time></trkpt><trkpt lat="43.73484845660469" lon="7.421288221102995"><ele>4.666666666666666</ele><time>2026-04-21T08:29:36.997Z</time></trkpt><trkpt lat="43.73492617707229" lon="7.421276832268046"><ele>4.0</ele><time>2026-04-21T08:29:38.997Z</time></trkpt><trkpt lat="43.73501516800168" lon="7.421260765675503"><ele>5.666666666666666</ele><time>2026-04-21T08:29:40.997Z</time></trkpt><trkpt lat="43.73508443587353" lon="7.421251479446954"><ele>7.333333333333334</ele><time>2026-04-21T08:29:42.997Z</time></trkpt><trkpt lat="43.73516338807056" lon="7.421245472070905"><ele>9.0</ele><time>2026-04-21T08:29:46.997Z</time></trkpt><trkpt lat="43.73523407010016" lon="7.421235760492691"><ele>10.666666666666668</ele><time>2026-04-21T08:29:52.997Z</time></trkpt><trkpt lat="43.73533738078086" lon="7.421219847341629"><ele>12.333333333333334</ele><time>2026-04-21T08:29:54.997Z</time></trkpt><trkpt lat="43.735452768002226" lon="7.421206724922788"><ele>14.0</ele><time>2026-04-21T08:29:56.997Z</time></trkpt><trkpt lat="43.735588812915765" lon="7.421191358190051"><ele>14.000000000000002</ele><time>2026-04-21T08:29:58.997Z</time></trkpt><trkpt lat="43.735666075024966" lon="7.4211858480780535"><ele>14.0</ele><time>2026-04-21T08:29:59.997Z</time></trkpt><trkpt lat="43.735735688960055" lon="7.421189487338269"><ele>14.0</ele><time>2026-04-21T08:30:00.997Z</time></trkpt><trkpt lat="43.735802400616215" lon="7.421197776508459"><ele>14.0</ele><time>2026-04-21T08:30:01.997Z</time></trkpt><trkpt lat="43.735873145294484" lon="7.421212165919586"><ele>14.000000000000002</ele><time>2026-04-21T08:30:02.997Z</time></trkpt><trkpt lat="43.73594955019571" lon="7.421226539206223"><ele>14.0</ele><time>2026-04-21T08:30:03.997Z</time></trkpt><trkpt lat="43.736040319159784" lon="7.421241756443822"><ele>14.000000000000002</ele><time>2026-04-21T08:30:04.997Z</time></trkpt><trkpt lat="43.73612956005364" lon="7.4212633236295895"><ele>14.0</ele><time>2026-04-21T08:30:05.997Z</time></trkpt><trkpt lat="43.73620905129381" lon="7.421288737251254"><ele>14.0</ele><time>2026-04-21T08:30:06.997Z</time></trkpt><trkpt lat="43.73628612878613" lon="7.421317322560748"><ele>14.0</ele><time>2026-04-21T08:30:07.997Z</time></trkpt><trkpt lat="43.736362244306214" lon="7.421350632210434"><ele>14.000000000000002</ele><time>2026-04-21T08:30:08.997Z</time></trkpt><trkpt lat="43.736432809447734" lon="7.421396891582026"><ele>14.0</ele><time>2026-04-21T08:30:09.997Z</time></trkpt><trkpt lat="43.73650079006288" lon="7.4214357922288725"><ele>14.000000000000002</ele><time>2026-04-21T08:30:10.997Z</time></trkpt><trkpt lat="43.73659847854901" lon="7.421483843094354"><ele>14.0</ele><time>2026-04-21T08:30:12.997Z</time></trkpt><trkpt lat="43.736674521230306" lon="7.421525987310708"><ele>14.0</ele><time>2026-04-21T08:30:15.997Z</time></trkpt><trkpt lat="43.73674050442362" lon="7.4215717383712665"><ele>14.0</ele><time>2026-04-21T08:30:18.997Z</time></trkpt><trkpt lat="43.73681137398715" lon="7.421632684579693"><ele>14.000000000000002</ele><time>2026-04-21T08:30:20.997Z</time></trkpt><trkpt lat="43.7368844786689" lon="7.421727526430228"><ele>14.0</ele><time>2026-04-21T08:30:22.997Z</time></trkpt><trkpt lat="43.73694925078281" lon="7.4218517848173455"><ele>16.666666666666668</ele><time>2026-04-21T08:30:24.997Z</time></trkpt><trkpt lat="43.73697526006231" lon="7.421934724048134"><ele>19.333333333333336</ele><time>2026-04-21T08:30:25.997Z</time></trkpt><trkpt lat="43.73699584234022" lon="7.422039081925867"><ele>22.0</ele><time>2026-04-21T08:30:26.997Z</time></trkpt><trkpt lat="43.73700801502954" lon="7.422155322706003"><ele>24.666666666666668</ele><time>2026-04-21T08:30:27.997Z</time></trkpt><trkpt lat="43.73701628595438" lon="7.422256426847618"><ele>27.333333333333332</ele><time>2026-04-21T08:30:28.997Z</time></trkpt><trkpt lat="43.73702731209377" lon="7.422363469322385"><ele>30.0</ele><time>2026-04-21T08:30:29.997Z</time></trkpt><trkpt lat="43.73704027949716" lon="7.422480048189306"><ele>30.0</ele><time>2026-04-21T08:30:30.997Z</time></trkpt><trkpt lat="43.73705432288647" lon="7.422605013847423"><ele>30.0</ele><time>2026-04-21T08:30:31.997Z</time></trkpt><trkpt lat="43.73706864573004" lon="7.42272419802673"><ele>30.0</ele><time>2026-04-21T08:30:32.997Z</time></trkpt><trkpt lat="43.73708521579305" lon="7.4228386856820725"><ele>30.0</ele><time>2026-04-21T08:30:33.997Z</time></trkpt><trkpt lat="43.73710310072069" lon="7.422953774010729"><ele>30.0</ele><time>2026-04-21T08:30:34.997Z</time></trkpt><trkpt lat="43.73712303741113" lon="7.423063549350186"><ele>30.0</ele><time>2026-04-21T08:30:35.997Z</time></trkpt><trkpt lat="43.73714821143675" lon="7.423170439273741"><ele>31.333333333333332</ele><time>2026-04-21T08:30:36.997Z</time></trkpt><trkpt lat="43.73717175931471" lon="7.423272740227892"><ele>32.666666666666664</ele><time>2026-04-21T08:30:37.997Z</time></trkpt><trkpt lat="43.73719418907463" lon="7.423380651977594"><ele>34.0</ele><time>2026-04-21T08:30:38.997Z</time></trkpt><trkpt lat="43.737215816923324" lon="7.423482800625835"><ele>35.33333333333333</ele><time>2026-04-21T08:30:39.997Z</time></trkpt><trkpt lat="43.737240644202025" lon="7.423580977653649"><ele>36.666666666666664</ele><time>2026-04-21T08:30:40.997Z</time></trkpt><trkpt lat="43.73726268010028" lon="7.423675604244784"><ele>38.0</ele><time>2026-04-21T08:30:41.996Z</time></trkpt><trkpt lat="43.737280546082765" lon="7.423770657545718"><ele>37.57142857142857</ele><time>2026-04-21T08:30:42.996Z</time></trkpt><trkpt lat="43.737300546865725" lon="7.4238624597989515"><ele>37.142857142857146</ele><time>2026-04-21T08:30:43.997Z</time></trkpt><trkpt lat="43.73732110047679" lon="7.423951475108134"><ele>36.714285714285715</ele><time>2026-04-21T08:30:44.997Z</time></trkpt><trkpt lat="43.73733786570618" lon="7.42404619745436"><ele>36.285714285714285</ele><time>2026-04-21T08:30:45.997Z</time></trkpt><trkpt lat="43.737353424449424" lon="7.424150541909459"><ele>35.85714285714286</ele><time>2026-04-21T08:30:46.997Z</time></trkpt><trkpt lat="43.73736821160172" lon="7.424243471030162"><ele>35.42857142857143</ele><time>2026-04-21T08:30:47.997Z</time></trkpt><trkpt lat="43.73738203211089" lon="7.424344105881005"><ele>35.0</ele><time>2026-04-21T08:30:48.998Z</time></trkpt><trkpt lat="43.737391693122284" lon="7.424450538391538"><ele>35.0</ele><time>2026-04-21T08:30:49.998Z</time></trkpt><trkpt lat="43.73739815305273" lon="7.424539481046222"><ele>35.0</ele><time>2026-04-21T08:30:50.998Z</time></trkpt><trkpt lat="43.73740710574185" lon="7.4246257864192575"><ele>35.0</ele><time>2026-04-21T08:30:51.998Z</time></trkpt><trkpt lat="43.737416669557476" lon="7.424717179946307"><ele>35.0</ele><time>2026-04-21T08:30:52.998Z</time></trkpt><trkpt lat="43.73742986856917" lon="7.424813699743258"><ele>35.0</ele><time>2026-04-21T08:30:53.998Z</time></trkpt><trkpt lat="43.73744448940426" lon="7.424915374682961"><ele>35.0</ele><time>2026-04-21T08:30:54.998Z</time></trkpt><trkpt lat="43.73746274031777" lon="7.425016200672924"><ele>35.0</ele><time>2026-04-21T08:30:55.998Z</time></trkpt><trkpt lat="43.73748821582979" lon="7.425100259750825"><ele>34.166666666666664</ele><time>2026-04-21T08:30:56.998Z</time></trkpt><trkpt lat="43.73754610111679" lon="7.42525273578701"><ele>33.33333333333333</ele><time>2026-04-21T08:30:58.999Z</time></trkpt><trkpt lat="43.73758137188126" lon="7.425344063413931"><ele>32.5</ele><time>2026-04-21T08:30:59.999Z</time></trkpt><trkpt lat="43.737614666927215" lon="7.425439902637332"><ele>31.666666666666664</ele><time>2026-04-21T08:31:00.999Z</time></trkpt><trkpt lat="43.73764584287847" lon="7.425535246122675"><ele>30.833333333333332</ele><time>2026-04-21T08:31:01.999Z</time></trkpt><trkpt lat="43.73767525163677" lon="7.425622992682198"><ele>30.0</ele><time>2026-04-21T08:31:02.999Z</time></trkpt><trkpt lat="43.737706873264294" lon="7.425719881835635"><ele>33.666666666666664</ele><time>2026-04-21T08:31:03.999Z</time></trkpt><trkpt lat="43.737740464287285" lon="7.4258161126181195"><ele>37.33333333333333</ele><time>2026-04-21T08:31:04.999Z</time></trkpt><trkpt lat="43.73776758022189" lon="7.425914158160496"><ele>41.0</ele><time>2026-04-21T08:31:05.999Z</time></trkpt><trkpt lat="43.73779050777136" lon="7.426013670641848"><ele>44.666666666666664</ele><time>2026-04-21T08:31:06.999Z</time></trkpt><trkpt lat="43.73780988753597" lon="7.4261147676201"><ele>48.33333333333333</ele><time>2026-04-21T08:31:07.999Z</time></trkpt><trkpt lat="43.73783090978745" lon="7.426216327059555"><ele>52.0</ele><time>2026-04-21T08:31:08.999Z</time></trkpt><trkpt lat="43.7378537578807" lon="7.426316981633187"><ele>51.99999999999999</ele><time>2026-04-21T08:31:09.999Z</time></trkpt><trkpt lat="43.73787472466898" lon="7.426414706086279"><ele>52.0</ele><time>2026-04-21T08:31:10.999Z</time></trkpt><trkpt lat="43.737915553661196" lon="7.426590774586966"><ele>52.0</ele><time>2026-04-21T08:31:12.999Z</time></trkpt><trkpt lat="43.737941156151926" lon="7.42668181108184"><ele>52.0</ele><time>2026-04-21T08:31:13.999Z</time></trkpt><trkpt lat="43.73794467137056" lon="7.426769197153586"><ele>51.99999999999999</ele><time>2026-04-21T08:31:14.999Z</time></trkpt><trkpt lat="43.73801070363154" lon="7.426813509297004"><ele>52.0</ele><time>2026-04-21T08:31:15.999Z</time></trkpt><trkpt lat="43.738115321740004" lon="7.426921155817449"><ele>51.99999999999999</ele><time>2026-04-21T08:31:18Z</time></trkpt><trkpt lat="43.738177020400975" lon="7.426960396509839"><ele>52.0</ele><time>2026-04-21T08:31:19Z</time></trkpt><trkpt lat="43.73824176302617" lon="7.426976030827106"><ele>52.0</ele><time>2026-04-21T08:31:20Z</time></trkpt><trkpt lat="43.73836134486307" lon="7.426952966816172"><ele>52.0</ele><time>2026-04-21T08:31:22Z</time></trkpt><trkpt lat="43.73842146525302" lon="7.426915365464882"><ele>51.99999999999999</ele><time>2026-04-21T08:31:23Z</time></trkpt><trkpt lat="43.73847367737095" lon="7.426854365241216"><ele>52.0</ele><time>2026-04-21T08:31:24Z</time></trkpt><trkpt lat="43.738544055983695" lon="7.426735104845629"><ele>52.99999999999999</ele><time>2026-04-21T08:31:26Z</time></trkpt><trkpt lat="43.73860267823881" lon="7.426626173412149"><ele>54.0</ele><time>2026-04-21T08:31:28Z</time></trkpt><trkpt lat="43.73864716953228" lon="7.4265503270288855"><ele>55.0</ele><time>2026-04-21T08:31:30Z</time></trkpt><trkpt lat="43.73868933986059" lon="7.426469017523313"><ele>56.0</ele><time>2026-04-21T08:31:39Z</time></trkpt><trkpt lat="43.7387383556629" lon="7.426384181735712"><ele>56.99999999999999</ele><time>2026-04-21T08:31:41Z</time></trkpt><trkpt lat="43.73879784472725" lon="7.426281350533133"><ele>58.0</ele><time>2026-04-21T08:31:43Z</time></trkpt><trkpt lat="43.73885631344468" lon="7.426186860700816"><ele>58.4</ele><time>2026-04-21T08:31:45Z</time></trkpt><trkpt lat="43.73891836655317" lon="7.426076695781"><ele>58.8</ele><time>2026-04-21T08:31:47Z</time></trkpt><trkpt lat="43.73897833312639" lon="7.425962513272957"><ele>59.2</ele><time>2026-04-21T08:31:49Z</time></trkpt><trkpt lat="43.73907087788408" lon="7.425841090298607"><ele>59.6</ele><time>2026-04-21T08:31:51Z</time></trkpt><trkpt lat="43.73913624801968" lon="7.425776299420158"><ele>60.0</ele><time>2026-04-21T08:31:52Z</time></trkpt><trkpt lat="43.739250644034875" lon="7.425726335079714"><ele>60.0</ele><time>2026-04-21T08:31:54Z</time></trkpt><trkpt lat="43.73931566181098" lon="7.425727738459305"><ele>60.0</ele><time>2026-04-21T08:31:55Z</time></trkpt><trkpt lat="43.739440524152485" lon="7.42575450525762"><ele>60.0</ele><time>2026-04-21T08:31:57Z</time></trkpt><trkpt lat="43.739558205189894" lon="7.4257176488366055"><ele>60.0</ele><time>2026-04-21T08:32:00Z</time></trkpt><trkpt lat="43.73959341716933" lon="7.42561817970569"><ele>60.0</ele><time>2026-04-21T08:32:01Z</time></trkpt><trkpt lat="43.73961552435438" lon="7.425526745734634"><ele>60.833333333333336</ele><time>2026-04-21T08:32:02Z</time></trkpt><trkpt lat="43.7396338230191" lon="7.425441281007071"><ele>61.66666666666667</ele><time>2026-04-21T08:32:03Z</time></trkpt><trkpt lat="43.73966376770773" lon="7.4253562803076605"><ele>62.5</ele><time>2026-04-21T08:32:04Z</time></trkpt><trkpt lat="43.739704344036596" lon="7.425286936516924"><ele>63.333333333333336</ele><time>2026-04-21T08:32:05Z</time></trkpt><trkpt lat="43.73981904853453" lon="7.425227403023141"><ele>64.16666666666667</ele><time>2026-04-21T08:32:07Z</time></trkpt><trkpt lat="43.73990573257859" lon="7.425324843817291"><ele>65.0</ele><time>2026-04-21T08:32:09Z</time></trkpt><trkpt lat="43.73999879057823" lon="7.425384476880415"><ele>65.0</ele><time>2026-04-21T08:32:11Z</time></trkpt><trkpt lat="43.74008287091305" lon="7.425428757681968"><ele>65.0</ele><time>2026-04-21T08:32:41Z</time></trkpt><trkpt lat="43.74016554429982" lon="7.425470454530274"><ele>65.0</ele><time>2026-04-21T08:32:43Z</time></trkpt><trkpt lat="43.74023395611716" lon="7.425530154341743"><ele>65.0</ele><time>2026-04-21T08:32:46Z</time></trkpt><trkpt lat="43.74026051755015" lon="7.425612073228279"><ele>65.0</ele><time>2026-04-21T08:32:48.999Z</time></trkpt><trkpt lat="43.740194708716324" lon="7.425725261026658"><ele>65.0</ele><time>2026-04-21T08:32:50.999Z</time></trkpt><trkpt lat="43.74013526744253" lon="7.425831020333069"><ele>63.50000000000001</ele><time>2026-04-21T08:32:52.999Z</time></trkpt><trkpt lat="43.740067363299715" lon="7.425920283037378"><ele>62.0</ele><time>2026-04-21T08:32:54.999Z</time></trkpt><trkpt lat="43.740036698222575" lon="7.425996421617526"><ele>60.5</ele><time>2026-04-21T08:32:56.999Z</time></trkpt><trkpt lat="43.7399742582336" lon="7.426053336505761"><ele>59.0</ele><time>2026-04-21T08:33:04.999Z</time></trkpt><trkpt lat="43.739917872675086" lon="7.425889964487791"><ele>57.50000000000001</ele><time>2026-04-21T08:33:09Z</time></trkpt><trkpt lat="43.73997699345394" lon="7.4258587908624625"><ele>56.0</ele><time>2026-04-21T08:33:11Z</time></trkpt><trkpt lat="43.74005101879735" lon="7.4258206499495545"><ele>56.0</ele><time>2026-04-21T08:33:16Z</time></trkpt><trkpt lat="43.740118408663605" lon="7.425762637233822"><ele>56.0</ele><time>2026-04-21T08:33:21.046Z</time></trkpt><trkpt lat="43.740175335064194" lon="7.425722259296775"><ele>56.0</ele><time>2026-04-21T08:33:23.031Z</time></trkpt><trkpt lat="43.73992745533598" lon="7.427332484286616"><ele>55.16666666666667</ele><time>2026-04-21T08:38:39.001Z</time></trkpt><trkpt lat="43.73984866962657" lon="7.427355264661101"><ele>54.333333333333336</ele><time>2026-04-21T08:38:43.001Z</time></trkpt><trkpt lat="43.739769934661446" lon="7.427349758334791"><ele>53.5</ele><time>2026-04-21T08:38:44.998Z</time></trkpt><trkpt lat="43.73975748598455" lon="7.4271781012624185"><ele>52.66666666666667</ele><time>2026-04-21T08:38:48.998Z</time></trkpt><trkpt lat="43.73979881895598" lon="7.427090744593226"><ele>51.833333333333336</ele><time>2026-04-21T08:38:49.998Z</time></trkpt><trkpt lat="43.73985004170874" lon="7.427008218509698"><ele>51.0</ele><time>2026-04-21T08:38:50.998Z</time></trkpt><trkpt lat="43.739914313264606" lon="7.4269159858115"><ele>51.0</ele><time>2026-04-21T08:38:51.998Z</time></trkpt><trkpt lat="43.739983756978205" lon="7.426806363036391"><ele>51.0</ele><time>2026-04-21T08:38:52.998Z</time></trkpt><trkpt lat="43.740050798985074" lon="7.426681629092623"><ele>51.0</ele><time>2026-04-21T08:38:53.998Z</time></trkpt><trkpt lat="43.74011271272566" lon="7.426556334630947"><ele>51.0</ele><time>2026-04-21T08:38:54.998Z</time></trkpt><trkpt lat="43.74017492895723" lon="7.426439619011578"><ele>51.0</ele><time>2026-04-21T08:38:55.998Z</time></trkpt><trkpt lat="43.74022987923718" lon="7.426341996424696"><ele>53.833333333333336</ele><time>2026-04-21T08:38:56.999Z</time></trkpt><trkpt lat="43.74027505614605" lon="7.426260468012932"><ele>56.66666666666667</ele><time>2026-04-21T08:38:57.999Z</time></trkpt><trkpt lat="43.74032881499097" lon="7.4261801600834705"><ele>59.5</ele><time>2026-04-21T08:38:58.999Z</time></trkpt><trkpt lat="43.74037186696069" lon="7.4260798255154175"><ele>62.333333333333336</ele><time>2026-04-21T08:38:59.999Z</time></trkpt><trkpt lat="43.74041221499557" lon="7.426002027050015"><ele>65.16666666666667</ele><time>2026-04-21T08:39:00.999Z</time></trkpt><trkpt lat="43.74046989194605" lon="7.425901431444729"><ele>68.0</ele><time>2026-04-21T08:39:02.999Z</time></trkpt><trkpt lat="43.74051042500989" lon="7.425816798567096"><ele>68.0</ele><time>2026-04-21T08:39:04.999Z</time></trkpt><trkpt lat="43.74051328369363" lon="7.425712263201052"><ele>68.0</ele><time>2026-04-21T08:39:18.999Z</time></trkpt><trkpt lat="43.74047518376715" lon="7.425589230139846"><ele>68.0</ele><time>2026-04-21T08:39:20.999Z</time></trkpt><trkpt lat="43.740411666147416" lon="7.425573811844059"><ele>68.0</ele><time>2026-04-21T08:39:21.999Z</time></trkpt><trkpt lat="43.740323258910415" lon="7.425533614485454"><ele>68.0</ele><time>2026-04-21T08:39:23.999Z</time></trkpt><trkpt lat="43.74021527149312" lon="7.425475425463364"><ele>68.0</ele><time>2026-04-21T08:39:25.999Z</time></trkpt><trkpt lat="43.740143721409396" lon="7.425429257292868"><ele>67.5</ele><time>2026-04-21T08:39:26.999Z</time></trkpt><trkpt lat="43.74007094254327" lon="7.4253770362684595"><ele>67.0</ele><time>2026-04-21T08:39:27.999Z</time></trkpt><trkpt lat="43.74001160261671" lon="7.425341078499144"><ele>66.5</ele><time>2026-04-21T08:39:28.999Z</time></trkpt><trkpt lat="43.739918024227144" lon="7.425282563798113"><ele>66.0</ele><time>2026-04-21T08:39:30.999Z</time></trkpt><trkpt lat="43.73986011098552" lon="7.425243225359857"><ele>65.5</ele><time>2026-04-21T08:39:33Z</time></trkpt><trkpt lat="43.739794244363146" lon="7.425217421183613"><ele>65.0</ele><time>2026-04-21T08:39:36Z</time></trkpt><trkpt lat="43.73970518313101" lon="7.425245507576149"><ele>65.0</ele><time>2026-04-21T08:39:38Z</time></trkpt><trkpt lat="43.73965266486181" lon="7.425307009721981"><ele>65.0</ele><time>2026-04-21T08:39:39Z</time></trkpt><trkpt lat="43.739604037240554" lon="7.425388852713409"><ele>65.0</ele><time>2026-04-21T08:39:40Z</time></trkpt><trkpt lat="43.73956362459031" lon="7.425485613849002"><ele>65.0</ele><time>2026-04-21T08:39:41Z</time></trkpt><trkpt lat="43.739547898589386" lon="7.4255717040203955"><ele>65.0</ele><time>2026-04-21T08:39:42Z</time></trkpt><trkpt lat="43.739476335400724" lon="7.425684250740512"><ele>65.0</ele><time>2026-04-21T08:39:44Z</time></trkpt><trkpt lat="43.73935774941008" lon="7.4256857967072225"><ele>64.16666666666667</ele><time>2026-04-21T08:39:46Z</time></trkpt><trkpt lat="43.73927998248394" lon="7.4256653200254386"><ele>63.333333333333336</ele><time>2026-04-21T08:39:47Z</time></trkpt><trkpt lat="43.73920798090757" lon="7.425620633549006"><ele>62.5</ele><time>2026-04-21T08:39:48Z</time></trkpt><trkpt lat="43.73912258462152" lon="7.425694773482011"><ele>61.66666666666667</ele><time>2026-04-21T08:39:49Z</time></trkpt><trkpt lat="43.739068587642805" lon="7.425761600771837"><ele>60.833333333333336</ele><time>2026-04-21T08:39:51Z</time></trkpt><trkpt lat="43.739011168000076" lon="7.425833710308294"><ele>60.0</ele><time>2026-04-21T08:39:53Z</time></trkpt><trkpt lat="43.73896180497907" lon="7.425895935898958"><ele>60.0</ele><time>2026-04-21T08:39:54Z</time></trkpt><trkpt lat="43.73890539434336" lon="7.425987380083167"><ele>60.0</ele><time>2026-04-21T08:39:55Z</time></trkpt><trkpt lat="43.73885181341973" lon="7.426099126033061"><ele>60.0</ele><time>2026-04-21T08:39:56Z</time></trkpt><trkpt lat="43.7387984299275" lon="7.426197593138414"><ele>60.0</ele><time>2026-04-21T08:39:57Z</time></trkpt><trkpt lat="43.73875454221459" lon="7.426296315381816"><ele>60.0</ele><time>2026-04-21T08:39:58Z</time></trkpt><trkpt lat="43.73870693728081" lon="7.4263783499662575"><ele>60.0</ele><time>2026-04-21T08:39:59Z</time></trkpt><trkpt lat="43.73865515998081" lon="7.426468965044047"><ele>59.666666666666664</ele><time>2026-04-21T08:40:00Z</time></trkpt><trkpt lat="43.73860620741239" lon="7.4265648716940555"><ele>59.33333333333333</ele><time>2026-04-21T08:40:01Z</time></trkpt><trkpt lat="43.73856368058851" lon="7.426651794263636"><ele>59.0</ele><time>2026-04-21T08:40:02Z</time></trkpt><trkpt lat="43.73852199095118" lon="7.426733878776304"><ele>58.666666666666664</ele><time>2026-04-21T08:40:03Z</time></trkpt><trkpt lat="43.738476598263325" lon="7.426806004338548"><ele>58.33333333333333</ele><time>2026-04-21T08:40:04Z</time></trkpt><trkpt lat="43.738423239661216" lon="7.426875598108159"><ele>58.0</ele><time>2026-04-21T08:40:05Z</time></trkpt><trkpt lat="43.738348698162206" lon="7.426916326320683"><ele>56.99999999999999</ele><time>2026-04-21T08:40:06Z</time></trkpt><trkpt lat="43.73827638121433" lon="7.426941051114938"><ele>56.0</ele><time>2026-04-21T08:40:07Z</time></trkpt><trkpt lat="43.73820361812786" lon="7.426966051537124"><ele>55.0</ele><time>2026-04-21T08:40:08Z</time></trkpt><trkpt lat="43.73812625098208" lon="7.426930618607846"><ele>54.0</ele><time>2026-04-21T08:40:09Z</time></trkpt><trkpt lat="43.738051962158764" lon="7.426858072192982"><ele>52.99999999999999</ele><time>2026-04-21T08:40:10Z</time></trkpt><trkpt lat="43.737997292405986" lon="7.426763198341548"><ele>52.0</ele><time>2026-04-21T08:40:11Z</time></trkpt><trkpt lat="43.737961436492235" lon="7.426663046269276"><ele>52.0</ele><time>2026-04-21T08:40:12Z</time></trkpt><trkpt lat="43.73794291743836" lon="7.426506692532454"><ele>52.0</ele><time>2026-04-21T08:40:14Z</time></trkpt><trkpt lat="43.73790861508498" lon="7.426359919803888"><ele>52.0</ele><time>2026-04-21T08:40:16Z</time></trkpt><trkpt lat="43.73787672510617" lon="7.4262545135923865"><ele>52.0</ele><time>2026-04-21T08:40:17Z</time></trkpt><trkpt lat="43.73784486284192" lon="7.426128190774232"><ele>52.0</ele><time>2026-04-21T08:40:18Z</time></trkpt><trkpt lat="43.737813380947244" lon="7.425978145565557"><ele>52.6</ele><time>2026-04-21T08:40:19Z</time></trkpt><trkpt lat="43.73777226686559" lon="7.425823805290469"><ele>53.2</ele><time>2026-04-21T08:40:20Z</time></trkpt><trkpt lat="43.73772737417227" lon="7.425675956751518"><ele>53.8</ele><time>2026-04-21T08:40:21Z</time></trkpt><trkpt lat="43.737681884572105" lon="7.425542737471362"><ele>54.4</ele><time>2026-04-21T08:40:22Z</time></trkpt><trkpt lat="43.73763311521049" lon="7.425419526535206"><ele>55.0</ele><time>2026-04-21T08:40:23Z</time></trkpt><trkpt lat="43.73758932599452" lon="7.42530255352337"><ele>50.83333333333333</ele><time>2026-04-21T08:40:24Z</time></trkpt><trkpt lat="43.73754500956459" lon="7.425167758812499"><ele>46.666666666666664</ele><time>2026-04-21T08:40:29Z</time></trkpt><trkpt lat="43.73750354337744" lon="7.425027343505427"><ele>42.5</ele><time>2026-04-21T08:40:31Z</time></trkpt><trkpt lat="43.73750483439103" lon="7.424938941377652"><ele>38.33333333333333</ele><time>2026-04-21T08:40:35Z</time></trkpt><trkpt lat="43.73745586446153" lon="7.424864143766998"><ele>34.166666666666664</ele><time>2026-04-21T08:41:07.999Z</time></trkpt><trkpt lat="43.737445957316915" lon="7.424763414689096"><ele>30.0</ele><time>2026-04-21T08:41:31Z</time></trkpt><trkpt lat="43.73743964229163" lon="7.424648898879717"><ele>30.833333333333332</ele><time>2026-04-21T08:41:35Z</time></trkpt><trkpt lat="43.73742837388481" lon="7.424517853001351"><ele>31.666666666666664</ele><time>2026-04-21T08:41:38Z</time></trkpt><trkpt lat="43.73741962934042" lon="7.424423239821204"><ele>32.5</ele><time>2026-04-21T08:41:50Z</time></trkpt><trkpt lat="43.737409921015384" lon="7.424332063931949"><ele>33.33333333333333</ele><time>2026-04-21T08:41:53Z</time></trkpt><trkpt lat="43.737392365807835" lon="7.424200609928377"><ele>34.166666666666664</ele><time>2026-04-21T08:41:56Z</time></trkpt><trkpt lat="43.73737396098885" lon="7.424076479062253"><ele>35.0</ele><time>2026-04-21T08:41:58Z</time></trkpt><trkpt lat="43.73734685404359" lon="7.4239242132050185"><ele>35.6</ele><time>2026-04-21T08:42:00Z</time></trkpt><trkpt lat="43.737307256014944" lon="7.423754761551761"><ele>36.2</ele><time>2026-04-21T08:42:02Z</time></trkpt><trkpt lat="43.737276287677595" lon="7.423589017743257"><ele>36.8</ele><time>2026-04-21T08:42:04Z</time></trkpt><trkpt lat="43.73725839191858" lon="7.423502983965008"><ele>37.4</ele><time>2026-04-21T08:42:05Z</time></trkpt><trkpt lat="43.73724059440271" lon="7.423412995211385"><ele>38.0</ele><time>2026-04-21T08:42:06Z</time></trkpt><trkpt lat="43.73721857078506" lon="7.423316412391452"><ele>38.0</ele><time>2026-04-21T08:42:07Z</time></trkpt><trkpt lat="43.737197359054186" lon="7.42321479326413"><ele>38.0</ele><time>2026-04-21T08:42:08Z</time></trkpt><trkpt lat="43.73717882906468" lon="7.423125530836627"><ele>38.0</ele><time>2026-04-21T08:42:09Z</time></trkpt><trkpt lat="43.73716349030854" lon="7.423040947627536"><ele>38.0</ele><time>2026-04-21T08:42:10Z</time></trkpt><trkpt lat="43.73714525869971" lon="7.4229574596675505"><ele>38.0</ele><time>2026-04-21T08:42:11Z</time></trkpt><trkpt lat="43.73712848577896" lon="7.422868355702704"><ele>38.0</ele><time>2026-04-21T08:42:12Z</time></trkpt><trkpt lat="43.73710901196178" lon="7.422716117071993"><ele>38.0</ele><time>2026-04-21T08:42:14Z</time></trkpt><trkpt lat="43.737094518219926" lon="7.4225565011614005"><ele>36.83333333333333</ele><time>2026-04-21T08:42:16Z</time></trkpt><trkpt lat="43.73708212677751" lon="7.422431151636486"><ele>35.666666666666664</ele><time>2026-04-21T08:42:18Z</time></trkpt><trkpt lat="43.73706554043881" lon="7.422337221834052"><ele>34.5</ele><time>2026-04-21T08:42:20Z</time></trkpt><trkpt lat="43.737060658763404" lon="7.422242955545477"><ele>33.333333333333336</ele><time>2026-04-21T08:42:22Z</time></trkpt><trkpt lat="43.73705130521318" lon="7.4221235633504286"><ele>32.16666666666667</ele><time>2026-04-21T08:42:24Z</time></trkpt><trkpt lat="43.73703701922448" lon="7.421988228357514"><ele>31.0</ele><time>2026-04-21T08:42:26Z</time></trkpt><trkpt lat="43.73701923463557" lon="7.421891242020289"><ele>31.000000000000004</ele><time>2026-04-21T08:42:29Z</time></trkpt><trkpt lat="43.73700132784769" lon="7.4217965251397615"><ele>31.0</ele><time>2026-04-21T08:42:32Z</time></trkpt><trkpt lat="43.73698286545816" lon="7.421696117613165"><ele>31.0</ele><time>2026-04-21T08:42:37Z</time></trkpt><trkpt lat="43.73698431229005" lon="7.421576834812381"><ele>31.0</ele><time>2026-04-21T08:42:39Z</time></trkpt><trkpt lat="43.736921227253134" lon="7.421457607360835"><ele>31.000000000000004</ele><time>2026-04-21T08:42:41Z</time></trkpt><trkpt lat="43.73683939445157" lon="7.421501731130744"><ele>31.0</ele><time>2026-04-21T08:42:42Z</time></trkpt><trkpt lat="43.73679826424053" lon="7.42157225104492"><ele>31.000000000000004</ele><time>2026-04-21T08:42:44Z</time></trkpt><trkpt lat="43.73684108654074" lon="7.421690853813864"><ele>31.0</ele><time>2026-04-21T08:42:46Z</time></trkpt><trkpt lat="43.736893074045916" lon="7.421745448379879"><ele>31.0</ele><time>2026-04-21T08:42:47Z</time></trkpt><trkpt lat="43.73695583141608" lon="7.4218612217069"><ele>31.0</ele><time>2026-04-21T08:42:49Z</time></trkpt><trkpt lat="43.73698231246716" lon="7.4219472638742285"><ele>31.000000000000004</ele><time>2026-04-21T08:42:50Z</time></trkpt><trkpt lat="43.73700889167111" lon="7.422094215806361"><ele>31.0</ele><time>2026-04-21T08:42:52Z</time></trkpt><trkpt lat="43.73701823067425" lon="7.422218119856551"><ele>30.857142857142858</ele><time>2026-04-21T08:42:54Z</time></trkpt><trkpt lat="43.73702996572076" lon="7.422325094217494"><ele>30.714285714285715</ele><time>2026-04-21T08:42:55.999Z</time></trkpt><trkpt lat="43.73704293823015" lon="7.422427556797292"><ele>30.571428571428573</ele><time>2026-04-21T08:42:57.999Z</time></trkpt><trkpt lat="43.73705646107631" lon="7.422529176077028"><ele>30.42857142857143</ele><time>2026-04-21T08:42:59.999Z</time></trkpt><trkpt lat="43.73706754441154" lon="7.422616847362139"><ele>30.285714285714285</ele><time>2026-04-21T08:43:02.999Z</time></trkpt><trkpt lat="43.73708305012678" lon="7.42270343691263"><ele>30.142857142857146</ele><time>2026-04-21T08:43:05.999Z</time></trkpt><trkpt lat="43.73709720706315" lon="7.422803258635582"><ele>30.0</ele><time>2026-04-21T08:43:08.999Z</time></trkpt><trkpt lat="43.737113373673715" lon="7.422910206843944"><ele>31.6</ele><time>2026-04-21T08:43:11.999Z</time></trkpt><trkpt lat="43.73714512708557" lon="7.422994162354016"><ele>33.2</ele><time>2026-04-21T08:43:12.999Z</time></trkpt><trkpt lat="43.737170192362754" lon="7.423102321468526"><ele>34.8</ele><time>2026-04-21T08:43:13.999Z</time></trkpt><trkpt lat="43.737195014552185" lon="7.423232498774157"><ele>36.4</ele><time>2026-04-21T08:43:15Z</time></trkpt><trkpt lat="43.7372277367912" lon="7.4233736466892895"><ele>38.0</ele><time>2026-04-21T08:43:16Z</time></trkpt><trkpt lat="43.737253482053234" lon="7.423520536997877"><ele>38.0</ele><time>2026-04-21T08:43:17Z</time></trkpt><trkpt lat="43.73727141683111" lon="7.423645306420719"><ele>38.0</ele><time>2026-04-21T08:43:18Z</time></trkpt><trkpt lat="43.73729197262341" lon="7.423746351316053"><ele>38.0</ele><time>2026-04-21T08:43:19Z</time></trkpt><trkpt lat="43.73730539499779" lon="7.423832908578003"><ele>38.0</ele><time>2026-04-21T08:43:20Z</time></trkpt><trkpt lat="43.7373289360801" lon="7.423967130160627"><ele>38.0</ele><time>2026-04-21T08:43:22Z</time></trkpt><trkpt lat="43.737355744583326" lon="7.424111103927559"><ele>38.0</ele><time>2026-04-21T08:43:24Z</time></trkpt><trkpt lat="43.73737136476645" lon="7.424198942942721"><ele>37.5</ele><time>2026-04-21T08:43:25Z</time></trkpt><trkpt lat="43.73738069063408" lon="7.424294250730116"><ele>37.0</ele><time>2026-04-21T08:43:26Z</time></trkpt><trkpt lat="43.737390088208585" lon="7.424385434587784"><ele>36.5</ele><time>2026-04-21T08:43:27Z</time></trkpt><trkpt lat="43.737401875081936" lon="7.424524730299241"><ele>36.0</ele><time>2026-04-21T08:43:29Z</time></trkpt><trkpt lat="43.73741592856551" lon="7.424646436724278"><ele>35.5</ele><time>2026-04-21T08:43:31Z</time></trkpt><trkpt lat="43.73743039507067" lon="7.424799537408377"><ele>35.0</ele><time>2026-04-21T08:43:33Z</time></trkpt><trkpt lat="43.73744365408109" lon="7.42489825335607"><ele>34.166666666666664</ele><time>2026-04-21T08:43:34Z</time></trkpt><trkpt lat="43.73746972596932" lon="7.424997518983342"><ele>33.33333333333333</ele><time>2026-04-21T08:43:35Z</time></trkpt><trkpt lat="43.737503827633034" lon="7.425106978879132"><ele>32.5</ele><time>2026-04-21T08:43:36Z</time></trkpt><trkpt lat="43.73753744280748" lon="7.425206904961056"><ele>31.666666666666664</ele><time>2026-04-21T08:43:37Z</time></trkpt><trkpt lat="43.737571339247346" lon="7.425302904063331"><ele>30.833333333333332</ele><time>2026-04-21T08:43:38Z</time></trkpt><trkpt lat="43.7376031023272" lon="7.425393493979967"><ele>30.0</ele><time>2026-04-21T08:43:39Z</time></trkpt><trkpt lat="43.73763439936083" lon="7.425481851988646"><ele>29.166666666666668</ele><time>2026-04-21T08:43:40Z</time></trkpt><trkpt lat="43.73767030371159" lon="7.425582011003861"><ele>28.333333333333336</ele><time>2026-04-21T08:43:41Z</time></trkpt><trkpt lat="43.7377109465149" lon="7.425700950948693"><ele>27.5</ele><time>2026-04-21T08:43:42.001Z</time></trkpt><trkpt lat="43.73774268906473" lon="7.425808817184123"><ele>26.666666666666668</ele><time>2026-04-21T08:43:43.001Z</time></trkpt><trkpt lat="43.73777106103465" lon="7.425903598993043"><ele>25.833333333333336</ele><time>2026-04-21T08:43:44.001Z</time></trkpt><trkpt lat="43.73779217938695" lon="7.4260018400916605"><ele>25.0</ele><time>2026-04-21T08:43:45.001Z</time></trkpt><trkpt lat="43.73780849255985" lon="7.426100798869265"><ele>28.85714285714286</ele><time>2026-04-21T08:43:46.001Z</time></trkpt><trkpt lat="43.73782383502023" lon="7.426199188839566"><ele>32.714285714285715</ele><time>2026-04-21T08:43:47.001Z</time></trkpt><trkpt lat="43.737839778252265" lon="7.426294337704848"><ele>36.57142857142857</ele><time>2026-04-21T08:43:48.001Z</time></trkpt><trkpt lat="43.73785143667051" lon="7.426390097857461"><ele>40.42857142857143</ele><time>2026-04-21T08:43:49.001Z</time></trkpt><trkpt lat="43.737873251007784" lon="7.426477884691338"><ele>44.28571428571429</ele><time>2026-04-21T08:43:50.001Z</time></trkpt><trkpt lat="43.73789134567185" lon="7.4265621976656835"><ele>48.14285714285714</ele><time>2026-04-21T08:43:51.001Z</time></trkpt><trkpt lat="43.73790992082812" lon="7.42670029441332"><ele>52.0</ele><time>2026-04-21T08:43:53.001Z</time></trkpt><trkpt lat="43.737916180838724" lon="7.426787130830752"><ele>51.99999999999999</ele><time>2026-04-21T08:45:14Z</time></trkpt><trkpt lat="43.73799231414393" lon="7.426808394256598"><ele>52.0</ele><time>2026-04-21T08:45:16Z</time></trkpt><trkpt lat="43.73804616292617" lon="7.426860716188281"><ele>52.0</ele><time>2026-04-21T08:45:17Z</time></trkpt><trkpt lat="43.738102465344525" lon="7.426927523887462"><ele>52.0</ele><time>2026-04-21T08:45:18Z</time></trkpt><trkpt lat="43.73818252619438" lon="7.42697533879039"><ele>51.99999999999999</ele><time>2026-04-21T08:45:19Z</time></trkpt><trkpt lat="43.73825964312377" lon="7.426984119590975"><ele>52.0</ele><time>2026-04-21T08:45:20Z</time></trkpt><trkpt lat="43.73834275516812" lon="7.426967048987254"><ele>51.99999999999999</ele><time>2026-04-21T08:45:21Z</time></trkpt><trkpt lat="43.73841359790813" lon="7.426912863148405"><ele>52.0</ele><time>2026-04-21T08:45:22Z</time></trkpt><trkpt lat="43.73847506561149" lon="7.426832021043982"><ele>52.0</ele><time>2026-04-21T08:45:23Z</time></trkpt><trkpt lat="43.73851485005822" lon="7.426756743527061"><ele>52.0</ele><time>2026-04-21T08:45:24Z</time></trkpt><trkpt lat="43.73856984637776" lon="7.426671869118485"><ele>51.99999999999999</ele><time>2026-04-21T08:45:25Z</time></trkpt><trkpt lat="43.738619090913936" lon="7.42657970590754"><ele>52.0</ele><time>2026-04-21T08:45:26Z</time></trkpt><trkpt lat="43.73866931723908" lon="7.4264890362711435"><ele>52.99999999999999</ele><time>2026-04-21T08:45:27Z</time></trkpt><trkpt lat="43.73872064923754" lon="7.426407550183102"><ele>54.0</ele><time>2026-04-21T08:45:28Z</time></trkpt><trkpt lat="43.738791654673484" lon="7.4263008507034645"><ele>55.0</ele><time>2026-04-21T08:45:30Z</time></trkpt><trkpt lat="43.738853007185725" lon="7.4261942574225905"><ele>56.0</ele><time>2026-04-21T08:45:32Z</time></trkpt><trkpt lat="43.738893239040856" lon="7.42611218261527"><ele>56.99999999999999</ele><time>2026-04-21T08:45:34Z</time></trkpt><trkpt lat="43.73893847959736" lon="7.426047154688023"><ele>58.0</ele><time>2026-04-21T08:45:37Z</time></trkpt><trkpt lat="43.7389992924134" lon="7.425928051626531"><ele>58.33333333333333</ele><time>2026-04-21T08:45:42Z</time></trkpt><trkpt lat="43.73904081220774" lon="7.425851949722657"><ele>58.666666666666664</ele><time>2026-04-21T08:45:43Z</time></trkpt><trkpt lat="43.739105430498455" lon="7.4257870301605235"><ele>59.0</ele><time>2026-04-21T08:45:44Z</time></trkpt><trkpt lat="43.73918164316306" lon="7.425737625006927"><ele>59.33333333333333</ele><time>2026-04-21T08:45:45Z</time></trkpt><trkpt lat="43.73926253179291" lon="7.425716351990218"><ele>59.666666666666664</ele><time>2026-04-21T08:45:46Z</time></trkpt><trkpt lat="43.73933467403724" lon="7.425724583210277"><ele>60.0</ele><time>2026-04-21T08:45:47Z</time></trkpt><trkpt lat="43.73940253802801" lon="7.425739137760435"><ele>59.2</ele><time>2026-04-21T08:45:48Z</time></trkpt><trkpt lat="43.73950883908521" lon="7.425752292441082"><ele>58.4</ele><time>2026-04-21T08:45:50Z</time></trkpt><trkpt lat="43.7395678405646" lon="7.425689774490883"><ele>57.599999999999994</ele><time>2026-04-21T08:45:51Z</time></trkpt><trkpt lat="43.73959309312687" lon="7.425569564667123"><ele>56.8</ele><time>2026-04-21T08:45:52Z</time></trkpt><trkpt lat="43.739616346099936" lon="7.425444212164083"><ele>56.0</ele><time>2026-04-21T08:45:54Z</time></trkpt><trkpt lat="43.739681057184335" lon="7.425356392315553"><ele>57.50000000000001</ele><time>2026-04-21T08:45:58.001Z</time></trkpt><trkpt lat="43.73975142671707" lon="7.425281323437091"><ele>59.0</ele><time>2026-04-21T08:46:00.001Z</time></trkpt><trkpt lat="43.73985466153847" lon="7.425279504696481"><ele>60.5</ele><time>2026-04-21T08:46:02.001Z</time></trkpt><trkpt lat="43.73994589442633" lon="7.425350784143114"><ele>62.0</ele><time>2026-04-21T08:46:04.001Z</time></trkpt><trkpt lat="43.74002557565538" lon="7.425398616050795"><ele>63.50000000000001</ele><time>2026-04-21T08:46:06.001Z</time></trkpt><trkpt lat="43.74008540869124" lon="7.425430067191036"><ele>65.0</ele><time>2026-04-21T08:46:09.001Z</time></trkpt><trkpt lat="43.74017030697885" lon="7.425471080497624"><ele>65.5</ele><time>2026-04-21T08:47:20Z</time></trkpt><trkpt lat="43.740248731267805" lon="7.4255235811640645"><ele>66.0</ele><time>2026-04-21T08:47:22Z</time></trkpt><trkpt lat="43.740307337517315" lon="7.425555567158993"><ele>66.5</ele><time>2026-04-21T08:47:23Z</time></trkpt><trkpt lat="43.74036797278223" lon="7.42558718434383"><ele>67.0</ele><time>2026-04-21T08:47:24Z</time></trkpt><trkpt lat="43.740437334066904" lon="7.425625232818377"><ele>67.5</ele><time>2026-04-21T08:47:25Z</time></trkpt><trkpt lat="43.7405120388921" lon="7.425666105484986"><ele>68.0</ele><time>2026-04-21T08:47:26Z</time></trkpt><trkpt lat="43.74059077980286" lon="7.425707976266092"><ele>67.99999999999999</ele><time>2026-04-21T08:47:27Z</time></trkpt><trkpt lat="43.740669239744015" lon="7.425752660996077"><ele>68.0</ele><time>2026-04-21T08:47:28Z</time></trkpt><trkpt lat="43.74074208640539" lon="7.4258018781780395"><ele>68.0</ele><time>2026-04-21T08:47:29Z</time></trkpt><trkpt lat="43.74080801858029" lon="7.425847098283916"><ele>68.0</ele><time>2026-04-21T08:47:30Z</time></trkpt><trkpt lat="43.740865324609736" lon="7.425893502962673"><ele>68.0</ele><time>2026-04-21T08:47:31Z</time></trkpt><trkpt lat="43.74091918743445" lon="7.425942208038033"><ele>67.99999999999999</ele><time>2026-04-21T08:47:32Z</time></trkpt><trkpt lat="43.74098008665235" lon="7.425994513026488"><ele>68.0</ele><time>2026-04-21T08:47:33Z</time></trkpt><trkpt lat="43.74104298288305" lon="7.426063238418655"><ele>68.66666666666667</ele><time>2026-04-21T08:47:34Z</time></trkpt><trkpt lat="43.74109652000259" lon="7.426133101586584"><ele>69.33333333333334</ele><time>2026-04-21T08:47:35Z</time></trkpt><trkpt lat="43.74114458895596" lon="7.42620038331376"><ele>70.0</ele><time>2026-04-21T08:47:36Z</time></trkpt><trkpt lat="43.741234988040794" lon="7.426314676566383"><ele>70.66666666666667</ele><time>2026-04-21T08:47:38Z</time></trkpt><trkpt lat="43.741305846118465" lon="7.426411243904315"><ele>71.33333333333333</ele><time>2026-04-21T08:47:40Z</time></trkpt><trkpt lat="43.74135927109964" lon="7.42650038504654"><ele>72.0</ele><time>2026-04-21T08:47:44Z</time></trkpt><trkpt lat="43.74140663174174" lon="7.426577962443193"><ele>72.0</ele><time>2026-04-21T08:47:46Z</time></trkpt><trkpt lat="43.74145492822121" lon="7.426671844794816"><ele>72.0</ele><time>2026-04-21T08:47:55Z</time></trkpt><trkpt lat="43.741538397242955" lon="7.42677029566587"><ele>72.0</ele><time>2026-04-21T08:47:57Z</time></trkpt><trkpt lat="43.74160926202564" lon="7.426848486177762"><ele>72.0</ele><time>2026-04-21T08:48:00.001Z</time></trkpt><trkpt lat="43.74162971837542" lon="7.426749065624414"><ele>72.0</ele><time>2026-04-21T08:48:03.001Z</time></trkpt><trkpt lat="43.74165365781547" lon="7.426633859666031"><ele>72.0</ele><time>2026-04-21T08:48:05.001Z</time></trkpt><trkpt lat="43.74163924129753" lon="7.4265448935707"><ele>72.0</ele><time>2026-04-21T08:48:07.001Z</time></trkpt><trkpt lat="43.74163928130098" lon="7.42641687509147"><ele>72.0</ele><time>2026-04-21T08:48:29.001Z</time></trkpt><trkpt lat="43.741654226018056" lon="7.426238476444451"><ele>72.0</ele><time>2026-04-21T08:48:31.001Z</time></trkpt><trkpt lat="43.741662673380326" lon="7.426134648840086"><ele>72.0</ele><time>2026-04-21T08:48:32.001Z</time></trkpt><trkpt lat="43.74167126590791" lon="7.426028699929268"><ele>72.0</ele><time>2026-04-21T08:48:33.001Z</time></trkpt><trkpt lat="43.741670896799654" lon="7.425919900761489"><ele>73.0</ele><time>2026-04-21T08:48:34.001Z</time></trkpt><trkpt lat="43.741660761287235" lon="7.42581105196798"><ele>74.0</ele><time>2026-04-21T08:48:35.001Z</time></trkpt><trkpt lat="43.741637723645596" lon="7.425705899142262"><ele>75.0</ele><time>2026-04-21T08:48:36.001Z</time></trkpt><trkpt lat="43.7416005036725" lon="7.4256154642881835"><ele>76.0</ele><time>2026-04-21T08:48:37.001Z</time></trkpt><trkpt lat="43.74151598572277" lon="7.425506108692175"><ele>77.0</ele><time>2026-04-21T08:48:39.001Z</time></trkpt><trkpt lat="43.74143134369947" lon="7.425426636382431"><ele>77.4</ele><time>2026-04-21T08:48:41.001Z</time></trkpt><trkpt lat="43.74138120395047" lon="7.425357296398693"><ele>77.80000000000001</ele><time>2026-04-21T08:48:44.001Z</time></trkpt><trkpt lat="43.74129996533961" lon="7.42531304851485"><ele>78.2</ele><time>2026-04-21T08:49:13.001Z</time></trkpt><trkpt lat="43.74138024535586" lon="7.425179658806499"><ele>78.60000000000001</ele><time>2026-04-21T08:49:18Z</time></trkpt><trkpt lat="43.7414539749649" lon="7.425318766967662"><ele>79.0</ele><time>2026-04-21T08:49:20Z</time></trkpt><trkpt lat="43.741515045808534" lon="7.425390762940704"><ele>79.0</ele><time>2026-04-21T08:49:22Z</time></trkpt><trkpt lat="43.7415675377412" lon="7.425445043025916"><ele>79.0</ele><time>2026-04-21T08:49:24Z</time></trkpt><trkpt lat="43.74164991244773" lon="7.425544188452862"><ele>79.0</ele><time>2026-04-21T08:49:26Z</time></trkpt><trkpt lat="43.74169211838325" lon="7.425610158910663"><ele>79.0</ele><time>2026-04-21T08:49:27Z</time></trkpt><trkpt lat="43.741730026254025" lon="7.425681872933065"><ele>79.0</ele><time>2026-04-21T08:49:28Z</time></trkpt><trkpt lat="43.741803044686094" lon="7.425804134651708"><ele>79.0</ele><time>2026-04-21T08:49:30Z</time></trkpt><trkpt lat="43.741853897992" lon="7.425871442185148"><ele>79.57142857142858</ele><time>2026-04-21T08:49:31Z</time></trkpt><trkpt lat="43.741905878997386" lon="7.425936271115607"><ele>80.14285714285714</ele><time>2026-04-21T08:49:32Z</time></trkpt><trkpt lat="43.74196036797178" lon="7.425989077446178"><ele>80.71428571428572</ele><time>2026-04-21T08:49:33Z</time></trkpt><trkpt lat="43.74204120436248" lon="7.426041214219153"><ele>81.28571428571429</ele><time>2026-04-21T08:49:35Z</time></trkpt><trkpt lat="43.74210213924271" lon="7.426063749693271"><ele>81.85714285714286</ele><time>2026-04-21T08:49:38Z</time></trkpt><trkpt lat="43.74215969939594" lon="7.426099709248921"><ele>82.42857142857143</ele><time>2026-04-21T08:49:41Z</time></trkpt><trkpt lat="43.74222973613311" lon="7.426139868501342"><ele>83.0</ele><time>2026-04-21T08:49:52.001Z</time></trkpt><trkpt lat="43.74230855763162" lon="7.426200371477277"><ele>83.0</ele><time>2026-04-21T08:49:57.001Z</time></trkpt><trkpt lat="43.74237067180656" lon="7.426296345845687"><ele>83.0</ele><time>2026-04-21T08:49:59.001Z</time></trkpt><trkpt lat="43.74245314158271" lon="7.426411994446213"><ele>83.0</ele><time>2026-04-21T08:50:01.001Z</time></trkpt><trkpt lat="43.7425182307883" lon="7.426507079439384"><ele>83.0</ele><time>2026-04-21T08:50:03.001Z</time></trkpt><trkpt lat="43.74258398906005" lon="7.426599081373485"><ele>83.0</ele><time>2026-04-21T08:50:05.001Z</time></trkpt><trkpt lat="43.742646701728184" lon="7.4266824399295235"><ele>83.2</ele><time>2026-04-21T08:50:07.001Z</time></trkpt><trkpt lat="43.74273540601201" lon="7.426734184519677"><ele>83.4</ele><time>2026-04-21T08:50:09.001Z</time></trkpt><trkpt lat="43.74281876170526" lon="7.426750473615699"><ele>83.60000000000001</ele><time>2026-04-21T08:50:11.001Z</time></trkpt><trkpt lat="43.742930906859364" lon="7.426791120829493"><ele>83.80000000000001</ele><time>2026-04-21T08:50:13.001Z</time></trkpt><trkpt lat="43.74298616908375" lon="7.4268391168255965"><ele>84.0</ele><time>2026-04-21T08:50:16.001Z</time></trkpt><trkpt lat="43.743071736790206" lon="7.426897162037258"><ele>84.0</ele><time>2026-04-21T08:50:19.001Z</time></trkpt><trkpt lat="43.743145764168354" lon="7.426947309217751"><ele>84.0</ele><time>2026-04-21T08:50:24.001Z</time></trkpt><trkpt lat="43.743224975875705" lon="7.427013188420546"><ele>84.0</ele><time>2026-04-21T08:50:26.001Z</time></trkpt><trkpt lat="43.743302437307804" lon="7.427139730172808"><ele>84.0</ele><time>2026-04-21T08:50:28.001Z</time></trkpt><trkpt lat="43.743337424579124" lon="7.427216868360822"><ele>84.0</ele><time>2026-04-21T08:50:29.001Z</time></trkpt><trkpt lat="43.74340023486784" lon="7.4273664051341735"><ele>84.5</ele><time>2026-04-21T08:50:31.001Z</time></trkpt><trkpt lat="43.74347733991061" lon="7.427492495799408"><ele>85.0</ele><time>2026-04-21T08:50:33.001Z</time></trkpt><trkpt lat="43.743522355813276" lon="7.427564241889858"><ele>85.5</ele><time>2026-04-21T08:50:34.001Z</time></trkpt><trkpt lat="43.74357595187308" lon="7.427636087976181"><ele>86.0</ele><time>2026-04-21T08:50:35.001Z</time></trkpt><trkpt lat="43.74363291989284" lon="7.4277091784722815"><ele>86.5</ele><time>2026-04-21T08:50:36.001Z</time></trkpt><trkpt lat="43.743683203915914" lon="7.427770619724534"><ele>87.0</ele><time>2026-04-21T08:50:37.001Z</time></trkpt><trkpt lat="43.74376339010809" lon="7.427865511901212"><ele>87.0</ele><time>2026-04-21T08:50:39.001Z</time></trkpt><trkpt lat="43.74383802578371" lon="7.4279603703069474"><ele>87.0</ele><time>2026-04-21T08:50:51.001Z</time></trkpt><trkpt lat="43.74394339674177" lon="7.428053923684135"><ele>87.0</ele><time>2026-04-21T08:50:53.001Z</time></trkpt><trkpt lat="43.74400387361265" lon="7.428079162885803"><ele>87.0</ele><time>2026-04-21T08:50:54.001Z</time></trkpt><trkpt lat="43.74406562351796" lon="7.428099680659392"><ele>87.0</ele><time>2026-04-21T08:50:55.001Z</time></trkpt><trkpt lat="43.74413122782225" lon="7.428107325951521"><ele>87.0</ele><time>2026-04-21T08:50:56.001Z</time></trkpt><trkpt lat="43.74422448529254" lon="7.428119079029959"><ele>86.83333333333333</ele><time>2026-04-21T08:50:58.001Z</time></trkpt><trkpt lat="43.744319247421124" lon="7.42812062504708"><ele>86.66666666666667</ele><time>2026-04-21T08:51:00.001Z</time></trkpt><trkpt lat="43.74441746907423" lon="7.428126195931697"><ele>86.5</ele><time>2026-04-21T08:51:02.001Z</time></trkpt><trkpt lat="43.7444873526618" lon="7.428135692811959"><ele>86.33333333333334</ele><time>2026-04-21T08:51:04.001Z</time></trkpt><trkpt lat="43.74455958455929" lon="7.428152318049415"><ele>86.16666666666667</ele><time>2026-04-21T08:51:11.002Z</time></trkpt><trkpt lat="43.744539162824516" lon="7.428025777528551"><ele>86.0</ele><time>2026-04-21T08:51:17.002Z</time></trkpt><trkpt lat="43.74447182699778" lon="7.4280417092440185"><ele>86.16666666666667</ele><time>2026-04-21T08:51:18.002Z</time></trkpt><trkpt lat="43.7443728686083" lon="7.428040933322845"><ele>86.33333333333334</ele><time>2026-04-21T08:51:20Z</time></trkpt><trkpt lat="43.74429285282747" lon="7.428028952186759"><ele>86.5</ele><time>2026-04-21T08:51:22Z</time></trkpt><trkpt lat="43.74420441457221" lon="7.428019109181848"><ele>86.66666666666667</ele><time>2026-04-21T08:51:25Z</time></trkpt><trkpt lat="43.74415794547652" lon="7.427953392271013"><ele>86.83333333333333</ele><time>2026-04-21T08:51:27Z</time></trkpt><trkpt lat="43.74416376102685" lon="7.427865483798998"><ele>87.0</ele><time>2026-04-21T08:51:29Z</time></trkpt><trkpt lat="43.74420356851051" lon="7.427744147907119"><ele>87.0</ele><time>2026-04-21T08:51:31Z</time></trkpt><trkpt lat="43.74419946705997" lon="7.4276290317687605"><ele>87.0</ele><time>2026-04-21T08:51:34Z</time></trkpt><trkpt lat="43.74417336487018" lon="7.427525017661659"><ele>87.0</ele><time>2026-04-21T08:51:37Z</time></trkpt><trkpt lat="43.74416844640589" lon="7.4274212556417005"><ele>87.0</ele><time>2026-04-21T08:51:40Z</time></trkpt><trkpt lat="43.74427068212206" lon="7.427431920337637"><ele>87.0</ele><time>2026-04-21T08:51:43Z</time></trkpt><trkpt lat="43.744368869135876" lon="7.427504679076168"><ele>89.6</ele><time>2026-04-21T08:51:45Z</time></trkpt><trkpt lat="43.74446600593754" lon="7.427556572035101"><ele>92.19999999999999</ele><time>2026-04-21T08:51:47Z</time></trkpt><trkpt lat="43.744554110610174" lon="7.4275982696777145"><ele>94.8</ele><time>2026-04-21T08:51:49Z</time></trkpt><trkpt lat="43.74462876772701" lon="7.42762587303472"><ele>97.4</ele><time>2026-04-21T08:51:51Z</time></trkpt><trkpt lat="43.744681420037516" lon="7.427559020404877"><ele>100.0</ele><time>2026-04-21T08:51:53Z</time></trkpt><trkpt lat="43.74466987804653" lon="7.427411507436219"><ele>100.00000000000001</ele><time>2026-04-21T08:51:55Z</time></trkpt><trkpt lat="43.74463930726769" lon="7.427273314514125"><ele>100.0</ele><time>2026-04-21T08:51:57Z</time></trkpt><trkpt lat="43.74459394261729" lon="7.427186024121104"><ele>100.0</ele><time>2026-04-21T08:51:59Z</time></trkpt><trkpt lat="43.744522146801934" lon="7.427119958334956"><ele>100.0</ele><time>2026-04-21T08:52:01.999Z</time></trkpt><trkpt lat="43.74454804590151" lon="7.427009933427023"><ele>100.00000000000001</ele><time>2026-04-21T08:52:04.999Z</time></trkpt><trkpt lat="43.74461930581406" lon="7.427089777032412"><ele>100.0</ele><time>2026-04-21T08:52:06.999Z</time></trkpt><trkpt lat="43.74468463856492" lon="7.427141883677859"><ele>100.0</ele><time>2026-04-21T08:52:07.999Z</time></trkpt><trkpt lat="43.74475133078644" lon="7.4271935056272875"><ele>100.0</ele><time>2026-04-21T08:52:09Z</time></trkpt><trkpt lat="43.74484553355662" lon="7.4272471385836765"><ele>100.0</ele><time>2026-04-21T08:52:10Z</time></trkpt><trkpt lat="43.74494881679426" lon="7.427307001331459"><ele>100.0</ele><time>2026-04-21T08:52:11Z</time></trkpt><trkpt lat="43.74505538571147" lon="7.427366335623424"><ele>100.0</ele><time>2026-04-21T08:52:12Z</time></trkpt><trkpt lat="43.74516119350711" lon="7.4274294286373586"><ele>102.6</ele><time>2026-04-21T08:52:13Z</time></trkpt><trkpt lat="43.745255321658014" lon="7.427479072502419"><ele>105.2</ele><time>2026-04-21T08:52:14Z</time></trkpt><trkpt lat="43.74534327037072" lon="7.427519586323396"><ele>107.80000000000001</ele><time>2026-04-21T08:52:15Z</time></trkpt><trkpt lat="43.74543135632256" lon="7.427546292554119"><ele>110.4</ele><time>2026-04-21T08:52:16Z</time></trkpt><trkpt lat="43.74551027647037" lon="7.427564140241838"><ele>113.0</ele><time>2026-04-21T08:52:17Z</time></trkpt><trkpt lat="43.74559833824706" lon="7.427586445221963"><ele>112.99999999999999</ele><time>2026-04-21T08:52:18Z</time></trkpt><trkpt lat="43.74568033978963" lon="7.427612010935812"><ele>113.0</ele><time>2026-04-21T08:52:19Z</time></trkpt><trkpt lat="43.74574732861388" lon="7.427631257263769"><ele>113.0</ele><time>2026-04-21T08:52:20Z</time></trkpt><trkpt lat="43.74583368143003" lon="7.427647439547802"><ele>113.0</ele><time>2026-04-21T08:52:22Z</time></trkpt><trkpt lat="43.74595177685788" lon="7.427631233495868"><ele>112.99999999999999</ele><time>2026-04-21T08:52:24Z</time></trkpt><trkpt lat="43.746023744412966" lon="7.427602300672379"><ele>113.0</ele><time>2026-04-21T08:52:25Z</time></trkpt><trkpt lat="43.74609954551419" lon="7.42757002426222"><ele>111.60000000000001</ele><time>2026-04-21T08:52:26Z</time></trkpt><trkpt lat="43.746183075391905" lon="7.42754518149843"><ele>110.20000000000002</ele><time>2026-04-21T08:52:27Z</time></trkpt><trkpt lat="43.74627339063446" lon="7.427511083460681"><ele>108.8</ele><time>2026-04-21T08:52:28Z</time></trkpt><trkpt lat="43.74636993292744" lon="7.427457823497087"><ele>107.4</ele><time>2026-04-21T08:52:29Z</time></trkpt><trkpt lat="43.746458729595886" lon="7.427410320645441"><ele>106.0</ele><time>2026-04-21T08:52:30Z</time></trkpt><trkpt lat="43.74654547518325" lon="7.4273629655997455"><ele>106.00000000000001</ele><time>2026-04-21T08:52:31Z</time></trkpt><trkpt lat="43.74661831765528" lon="7.427317894406454"><ele>106.0</ele><time>2026-04-21T08:52:32Z</time></trkpt><trkpt lat="43.74667893550993" lon="7.427277326584505"><ele>106.0</ele><time>2026-04-21T08:52:33Z</time></trkpt><trkpt lat="43.74674423667619" lon="7.427235958486448"><ele>106.0</ele><time>2026-04-21T08:52:34Z</time></trkpt><trkpt lat="43.74680603454709" lon="7.427187819975675"><ele>106.00000000000001</ele><time>2026-04-21T08:52:35Z</time></trkpt><trkpt lat="43.74686032112383" lon="7.427136363317327"><ele>106.0</ele><time>2026-04-21T08:52:36Z</time></trkpt><trkpt lat="43.74688763415866" lon="7.427005517081132"><ele>106.00000000000001</ele><time>2026-04-21T08:52:38Z</time></trkpt><trkpt lat="43.74684007144132" lon="7.426914256815692"><ele>106.0</ele><time>2026-04-21T08:52:40Z</time></trkpt><trkpt lat="43.74675613548741" lon="7.426942106078218"><ele>106.0</ele><time>2026-04-21T08:52:41Z</time></trkpt><trkpt lat="43.746690523397426" lon="7.427003997991159"><ele>106.0</ele><time>2026-04-21T08:52:42Z</time></trkpt><trkpt lat="43.746637539795216" lon="7.4270672746576425"><ele>106.00000000000001</ele><time>2026-04-21T08:52:43Z</time></trkpt><trkpt lat="43.746555460431374" lon="7.4271634000494355"><ele>106.0</ele><time>2026-04-21T08:52:45Z</time></trkpt><trkpt lat="43.74643366839981" lon="7.42719005707512"><ele>106.0</ele><time>2026-04-21T08:52:47Z</time></trkpt><trkpt lat="43.74632101072596" lon="7.4272086077529735"><ele>106.0</ele><time>2026-04-21T08:52:49Z</time></trkpt><trkpt lat="43.746187919912735" lon="7.4272501856127855"><ele>106.0</ele><time>2026-04-21T08:52:51Z</time></trkpt><trkpt lat="43.746111296517014" lon="7.427260976053436"><ele>106.0</ele><time>2026-04-21T08:52:52Z</time></trkpt><trkpt lat="43.74603631951341" lon="7.42729630624799"><ele>106.0</ele><time>2026-04-21T08:52:53Z</time></trkpt><trkpt lat="43.74595303376682" lon="7.4273052452519535"><ele>107.16666666666667</ele><time>2026-04-21T08:52:54Z</time></trkpt><trkpt lat="43.74587291954217" lon="7.427315903064157"><ele>108.33333333333334</ele><time>2026-04-21T08:52:55Z</time></trkpt><trkpt lat="43.745800433343014" lon="7.4273209180905715"><ele>109.5</ele><time>2026-04-21T08:52:56Z</time></trkpt><trkpt lat="43.74573356250346" lon="7.427320720409511"><ele>110.66666666666666</ele><time>2026-04-21T08:52:57Z</time></trkpt><trkpt lat="43.74562835803995" lon="7.427276059797491"><ele>111.83333333333333</ele><time>2026-04-21T08:52:59Z</time></trkpt><trkpt lat="43.745579346165634" lon="7.42719503280908"><ele>113.0</ele><time>2026-04-21T08:53:01Z</time></trkpt><trkpt lat="43.7456096392261" lon="7.427101193543467"><ele>113.0</ele><time>2026-04-21T08:53:03Z</time></trkpt><trkpt lat="43.74570947788284" lon="7.427097887747667"><ele>113.00000000000001</ele><time>2026-04-21T08:53:05Z</time></trkpt><trkpt lat="43.745805421021295" lon="7.427185290986482"><ele>113.00000000000001</ele><time>2026-04-21T08:53:07Z</time></trkpt><trkpt lat="43.745873672578334" lon="7.4272235875066475"><ele>113.0</ele><time>2026-04-21T08:53:08Z</time></trkpt><trkpt lat="43.74598174560006" lon="7.427230199155077"><ele>113.0</ele><time>2026-04-21T08:53:10Z</time></trkpt><trkpt lat="43.746024005522074" lon="7.42711798951491"><ele>118.60000000000001</ele><time>2026-04-21T08:53:12Z</time></trkpt><trkpt lat="43.745943981104716" lon="7.427026610750567"><ele>124.20000000000002</ele><time>2026-04-21T08:53:14Z</time></trkpt><trkpt lat="43.74587763599893" lon="7.427029737196065"><ele>129.8</ele><time>2026-04-21T08:53:15Z</time></trkpt><trkpt lat="43.74580642401092" lon="7.42703757429021"><ele>135.4</ele><time>2026-04-21T08:53:16Z</time></trkpt><trkpt lat="43.745716217024615" lon="7.427037535550982"><ele>141.0</ele><time>2026-04-21T08:53:18Z</time></trkpt><trkpt lat="43.74559959992722" lon="7.426952715258486"><ele>141.0</ele><time>2026-04-21T08:53:20Z</time></trkpt><trkpt lat="43.74553212727085" lon="7.426870430518592"><ele>141.0</ele><time>2026-04-21T08:53:21Z</time></trkpt><trkpt lat="43.74546712535394" lon="7.426760869852353"><ele>141.0</ele><time>2026-04-21T08:53:22Z</time></trkpt><trkpt lat="43.74540136257449" lon="7.4266287510604565"><ele>141.0</ele><time>2026-04-21T08:53:23Z</time></trkpt><trkpt lat="43.745339846977686" lon="7.42648740528322"><ele>141.0</ele><time>2026-04-21T08:53:24Z</time></trkpt><trkpt lat="43.745277491078845" lon="7.42633611359624"><ele>139.75</ele><time>2026-04-21T08:53:25Z</time></trkpt><trkpt lat="43.745207091719024" lon="7.426176557830704"><ele>138.5</ele><time>2026-04-21T08:53:25.999Z</time></trkpt><trkpt lat="43.74514308736637" lon="7.426029137498824"><ele>137.25</ele><time>2026-04-21T08:53:26.999Z</time></trkpt><trkpt lat="43.745096425300645" lon="7.42589556465193"><ele>136.0</ele><time>2026-04-21T08:53:27.999Z</time></trkpt><trkpt lat="43.74505569691423" lon="7.425762470939613"><ele>136.0</ele><time>2026-04-21T08:53:28.999Z</time></trkpt><trkpt lat="43.74501608041383" lon="7.425624291734904"><ele>136.0</ele><time>2026-04-21T08:53:29.999Z</time></trkpt><trkpt lat="43.74497752933625" lon="7.425487991538156"><ele>136.0</ele><time>2026-04-21T08:53:30.999Z</time></trkpt><trkpt lat="43.744941567836" lon="7.425360520947912"><ele>136.0</ele><time>2026-04-21T08:53:31.999Z</time></trkpt><trkpt lat="43.744915414205465" lon="7.425270936082324"><ele>136.0</ele><time>2026-04-21T08:53:32.999Z</time></trkpt><trkpt lat="43.74485906607152" lon="7.425131709273411"><ele>138.5</ele><time>2026-04-21T08:53:34.999Z</time></trkpt><trkpt lat="43.74482809364861" lon="7.4250308191499235"><ele>141.0</ele><time>2026-04-21T08:53:36Z</time></trkpt><trkpt lat="43.74479026420236" lon="7.4249287355461435"><ele>143.5</ele><time>2026-04-21T08:53:37Z</time></trkpt><trkpt lat="43.74475880480052" lon="7.424850643739527"><ele>146.0</ele><time>2026-04-21T08:53:38Z</time></trkpt><trkpt lat="43.744735541510885" lon="7.4247470943647205"><ele>148.5</ele><time>2026-04-21T08:53:40Z</time></trkpt><trkpt lat="43.74477500598416" lon="7.424677384938621"><ele>151.0</ele><time>2026-04-21T08:53:42Z</time></trkpt><trkpt lat="43.74485765039679" lon="7.4247385347087675"><ele>151.0</ele><time>2026-04-21T08:53:44Z</time></trkpt><trkpt lat="43.74484904012733" lon="7.424836408833185"><ele>151.0</ele><time>2026-04-21T08:53:45Z</time></trkpt><trkpt lat="43.74487571177369" lon="7.424939571560216"><ele>151.0</ele><time>2026-04-21T08:53:46Z</time></trkpt><trkpt lat="43.74492047466671" lon="7.425038195041818"><ele>151.0</ele><time>2026-04-21T08:53:47Z</time></trkpt><trkpt lat="43.74495763202871" lon="7.425162067469863"><ele>151.0</ele><time>2026-04-21T08:53:48Z</time></trkpt><trkpt lat="43.745000472540575" lon="7.425286860793039"><ele>151.0</ele><time>2026-04-21T08:53:49Z</time></trkpt><trkpt lat="43.74505875410085" lon="7.425399636175331"><ele>153.8</ele><time>2026-04-21T08:53:50Z</time></trkpt><trkpt lat="43.745128980425484" lon="7.425503367715442"><ele>156.6</ele><time>2026-04-21T08:53:51Z</time></trkpt><trkpt lat="43.745205169994534" lon="7.425614868843921"><ele>159.4</ele><time>2026-04-21T08:53:52Z</time></trkpt><trkpt lat="43.74528165219089" lon="7.425728992821384"><ele>162.2</ele><time>2026-04-21T08:53:53Z</time></trkpt><trkpt lat="43.74536472135544" lon="7.425833660814662"><ele>165.0</ele><time>2026-04-21T08:53:54Z</time></trkpt><trkpt lat="43.74545024442826" lon="7.425941769797127"><ele>165.0</ele><time>2026-04-21T08:53:55Z</time></trkpt><trkpt lat="43.74554164846645" lon="7.426046913901227"><ele>165.0</ele><time>2026-04-21T08:53:56Z</time></trkpt><trkpt lat="43.74563958426689" lon="7.4261408718596895"><ele>165.0</ele><time>2026-04-21T08:53:57Z</time></trkpt><trkpt lat="43.745745427695596" lon="7.426234876042866"><ele>165.0</ele><time>2026-04-21T08:53:58Z</time></trkpt><trkpt lat="43.745842719003434" lon="7.426313767343342"><ele>160.2</ele><time>2026-04-21T08:53:59Z</time></trkpt><trkpt lat="43.74594137211251" lon="7.4263898816299765"><ele>155.4</ele><time>2026-04-21T08:54:00Z</time></trkpt><trkpt lat="43.74604559248548" lon="7.426452643876636"><ele>150.6</ele><time>2026-04-21T08:54:01Z</time></trkpt><trkpt lat="43.74614034823503" lon="7.426498498184752"><ele>145.8</ele><time>2026-04-21T08:54:02Z</time></trkpt><trkpt lat="43.74623120380899" lon="7.426533415557055"><ele>141.0</ele><time>2026-04-21T08:54:03Z</time></trkpt><trkpt lat="43.74631635355195" lon="7.426550600257212"><ele>139.8</ele><time>2026-04-21T08:54:04Z</time></trkpt><trkpt lat="43.74641839564981" lon="7.426550161546462"><ele>138.6</ele><time>2026-04-21T08:54:06.001Z</time></trkpt><trkpt lat="43.746492177933895" lon="7.4265025860335765"><ele>137.4</ele><time>2026-04-21T08:54:08.001Z</time></trkpt><trkpt lat="43.74650299826952" lon="7.42637991579243"><ele>136.2</ele><time>2026-04-21T08:54:10.001Z</time></trkpt><trkpt lat="43.746402735700265" lon="7.426315178870722"><ele>135.0</ele><time>2026-04-21T08:54:12.001Z</time></trkpt><trkpt lat="43.74632827774599" lon="7.4263229904783"><ele>135.0</ele><time>2026-04-21T08:54:13.001Z</time></trkpt><trkpt lat="43.746244932260446" lon="7.426333104457639"><ele>135.0</ele><time>2026-04-21T08:54:14.001Z</time></trkpt><trkpt lat="43.746151161627395" lon="7.426309301963072"><ele>135.0</ele><time>2026-04-21T08:54:15.001Z</time></trkpt><trkpt lat="43.74605881015832" lon="7.426257637441133"><ele>135.0</ele><time>2026-04-21T08:54:16.001Z</time></trkpt><trkpt lat="43.74597380938569" lon="7.426170504732708"><ele>135.0</ele><time>2026-04-21T08:54:17.001Z</time></trkpt><trkpt lat="43.745899407170924" lon="7.426055873208124"><ele>140.0</ele><time>2026-04-21T08:54:18.001Z</time></trkpt><trkpt lat="43.74583247775768" lon="7.425931795792637"><ele>145.0</ele><time>2026-04-21T08:54:19.001Z</time></trkpt><trkpt lat="43.745763999991645" lon="7.425821897491416"><ele>150.0</ele><time>2026-04-21T08:54:20.001Z</time></trkpt><trkpt lat="43.745700013854176" lon="7.425740038474189"><ele>155.0</ele><time>2026-04-21T08:54:21.001Z</time></trkpt><trkpt lat="43.745657516132205" lon="7.425673390544409"><ele>160.0</ele><time>2026-04-21T08:54:22.001Z</time></trkpt><trkpt lat="43.74563411403616" lon="7.4255739575247315"><ele>165.0</ele><time>2026-04-21T08:54:24.001Z</time></trkpt><trkpt lat="43.74566745779408" lon="7.425480606617875"><ele>165.0</ele><time>2026-04-21T08:54:27.001Z</time></trkpt><trkpt lat="43.745774019779596" lon="7.425687702668167"><ele>165.0</ele><time>2026-04-21T08:54:29.001Z</time></trkpt><trkpt lat="43.745836582810306" lon="7.425778078848702"><ele>165.0</ele><time>2026-04-21T08:54:30.001Z</time></trkpt><trkpt lat="43.74590353860992" lon="7.425899715125659"><ele>165.0</ele><time>2026-04-21T08:54:31.001Z</time></trkpt><trkpt lat="43.74598524224472" lon="7.426012666902207"><ele>166.25</ele><time>2026-04-21T08:54:32.001Z</time></trkpt><trkpt lat="43.74607943077863" lon="7.426109289822233"><ele>167.5</ele><time>2026-04-21T08:54:33.001Z</time></trkpt><trkpt lat="43.74618258622812" lon="7.426177337642197"><ele>168.75</ele><time>2026-04-21T08:54:34.001Z</time></trkpt><trkpt lat="43.74629781239287" lon="7.426211970992542"><ele>170.0</ele><time>2026-04-21T08:54:35.001Z</time></trkpt><trkpt lat="43.746421063101764" lon="7.426217937176149"><ele>170.0</ele><time>2026-04-21T08:54:36.001Z</time></trkpt><trkpt lat="43.74654973761934" lon="7.426192176261101"><ele>170.0</ele><time>2026-04-21T08:54:37.001Z</time></trkpt><trkpt lat="43.74667548396596" lon="7.426142749193085"><ele>170.0</ele><time>2026-04-21T08:54:38.001Z</time></trkpt><trkpt lat="43.74679403225712" lon="7.426066089232152"><ele>170.0</ele><time>2026-04-21T08:54:39.001Z</time></trkpt><trkpt lat="43.746890565224454" lon="7.425965510248134"><ele>168.0</ele><time>2026-04-21T08:54:40.001Z</time></trkpt><trkpt lat="43.74697204752325" lon="7.425841646431153"><ele>166.0</ele><time>2026-04-21T08:54:41.001Z</time></trkpt><trkpt lat="43.747037217092824" lon="7.425697885563509"><ele>164.0</ele><time>2026-04-21T08:54:42.001Z</time></trkpt><trkpt lat="43.747087041770655" lon="7.4255409256610605"><ele>162.0</ele><time>2026-04-21T08:54:43.001Z</time></trkpt><trkpt lat="43.74713357890517" lon="7.425377442271867"><ele>162.0</ele><time>2026-04-21T08:54:44.001Z</time></trkpt><trkpt lat="43.747183128682664" lon="7.4252262992138265"><ele>162.0</ele><time>2026-04-21T08:54:45.001Z</time></trkpt><trkpt lat="43.74722645403651" lon="7.425102538105071"><ele>162.0</ele><time>2026-04-21T08:54:46.001Z</time></trkpt><trkpt lat="43.74726369399124" lon="7.424981473952955"><ele>162.0</ele><time>2026-04-21T08:54:47.001Z</time></trkpt><trkpt lat="43.7472972166875" lon="7.424867645505746"><ele>162.0</ele><time>2026-04-21T08:54:48.001Z</time></trkpt><trkpt lat="43.747328059466376" lon="7.42475671577084"><ele>162.0</ele><time>2026-04-21T08:54:49.001Z</time></trkpt><trkpt lat="43.74735902846464" lon="7.4246550358326235"><ele>162.0</ele><time>2026-04-21T08:54:50.001Z</time></trkpt><trkpt lat="43.74738967711207" lon="7.424561465551524"><ele>162.0</ele><time>2026-04-21T08:54:51.001Z</time></trkpt><trkpt lat="43.747421407362104" lon="7.424474531477916"><ele>162.0</ele><time>2026-04-21T08:54:52.001Z</time></trkpt><trkpt lat="43.74746314519727" lon="7.424394298516435"><ele>162.0</ele><time>2026-04-21T08:54:53.001Z</time></trkpt><trkpt lat="43.747512796627404" lon="7.424321364564895"><ele>162.0</ele><time>2026-04-21T08:54:54.001Z</time></trkpt><trkpt lat="43.747570305109114" lon="7.424266137522392"><ele>162.0</ele><time>2026-04-21T08:54:55.001Z</time></trkpt><trkpt lat="43.74763773086038" lon="7.4242207952265"><ele>165.83333333333334</ele><time>2026-04-21T08:54:56.001Z</time></trkpt><trkpt lat="43.7477177880029" lon="7.424196104129624"><ele>169.66666666666666</ele><time>2026-04-21T08:54:57.001Z</time></trkpt><trkpt lat="43.74779779420903" lon="7.424192601690018"><ele>173.5</ele><time>2026-04-21T08:54:58.001Z</time></trkpt><trkpt lat="43.74787821996667" lon="7.424210917722049"><ele>177.33333333333331</ele><time>2026-04-21T08:54:59.001Z</time></trkpt><trkpt lat="43.74795674379916" lon="7.424248860087831"><ele>181.16666666666666</ele><time>2026-04-21T08:55:00.001Z</time></trkpt><trkpt lat="43.74803186541587" lon="7.424307776447919"><ele>185.0</ele><time>2026-04-21T08:55:01.001Z</time></trkpt><trkpt lat="43.748107500844185" lon="7.424390064456184"><ele>185.0</ele><time>2026-04-21T08:55:02.001Z</time></trkpt><trkpt lat="43.748178311039624" lon="7.424487810075971"><ele>185.0</ele><time>2026-04-21T08:55:03.001Z</time></trkpt><trkpt lat="43.748246900003785" lon="7.424590446036272"><ele>185.0</ele><time>2026-04-21T08:55:04.001Z</time></trkpt><trkpt lat="43.74832549831015" lon="7.424697061614464"><ele>185.0</ele><time>2026-04-21T08:55:05.001Z</time></trkpt><trkpt lat="43.74840366731885" lon="7.42481880263425"><ele>185.0</ele><time>2026-04-21T08:55:06.001Z</time></trkpt><trkpt lat="43.74847286428269" lon="7.424949956234442"><ele>186.0</ele><time>2026-04-21T08:55:07.001Z</time></trkpt><trkpt lat="43.748532747660256" lon="7.4250965965088565"><ele>187.0</ele><time>2026-04-21T08:55:08.001Z</time></trkpt><trkpt lat="43.74858880338813" lon="7.425264616861833"><ele>188.0</ele><time>2026-04-21T08:55:09.001Z</time></trkpt><trkpt lat="43.748657738988996" lon="7.425428129042773"><ele>189.0</ele><time>2026-04-21T08:55:10.001Z</time></trkpt><trkpt lat="43.7487209652516" lon="7.425591073066851"><ele>189.0</ele><time>2026-04-21T08:55:11.001Z</time></trkpt><trkpt lat="43.748790522374556" lon="7.425741543296497"><ele>189.0</ele><time>2026-04-21T08:55:12.001Z</time></trkpt><trkpt lat="43.74886610343144" lon="7.425870542537633"><ele>189.0</ele><time>2026-04-21T08:55:13.001Z</time></trkpt><trkpt lat="43.748960232168585" lon="7.425974287628009"><ele>189.0</ele><time>2026-04-21T08:55:14.001Z</time></trkpt><trkpt lat="43.749068882036255" lon="7.4260623987736665"><ele>189.0</ele><time>2026-04-21T08:55:15.001Z</time></trkpt><trkpt lat="43.749190674860436" lon="7.426133961548064"><ele>189.0</ele><time>2026-04-21T08:55:16.001Z</time></trkpt><trkpt lat="43.749310333918814" lon="7.4261918069538435"><ele>189.0</ele><time>2026-04-21T08:55:17.002Z</time></trkpt><trkpt lat="43.74943001965684" lon="7.4262545954737895"><ele>189.0</ele><time>2026-04-21T08:55:18.002Z</time></trkpt><trkpt lat="43.7495553360745" lon="7.426317728834972"><ele>188.5</ele><time>2026-04-21T08:55:19.002Z</time></trkpt><trkpt lat="43.74968425577637" lon="7.4263918020978466"><ele>188.0</ele><time>2026-04-21T08:55:20.002Z</time></trkpt><trkpt lat="43.749797450564515" lon="7.4264557166881"><ele>187.5</ele><time>2026-04-21T08:55:21.002Z</time></trkpt><trkpt lat="43.74990497175976" lon="7.426507488443123"><ele>187.0</ele><time>2026-04-21T08:55:22.002Z</time></trkpt><trkpt lat="43.75001485789292" lon="7.426551944262459"><ele>187.0</ele><time>2026-04-21T08:55:23.002Z</time></trkpt><trkpt lat="43.75013147717948" lon="7.426574962583943"><ele>187.0</ele><time>2026-04-21T08:55:24.002Z</time></trkpt><trkpt lat="43.75024523941164" lon="7.4265737494882"><ele>187.0</ele><time>2026-04-21T08:55:25.002Z</time></trkpt><trkpt lat="43.75034514327093" lon="7.426548053579745"><ele>187.0</ele><time>2026-04-21T08:55:26.002Z</time></trkpt><trkpt lat="43.7504429806512" lon="7.4264998980673465"><ele>187.0</ele><time>2026-04-21T08:55:27.002Z</time></trkpt><trkpt lat="43.75053298078184" lon="7.426434181295704"><ele>186.0</ele><time>2026-04-21T08:55:28.002Z</time></trkpt><trkpt lat="43.750617933906604" lon="7.426354578252148"><ele>185.0</ele><time>2026-04-21T08:55:29.002Z</time></trkpt><trkpt lat="43.75070472426019" lon="7.426269427389293"><ele>184.0</ele><time>2026-04-21T08:55:30.002Z</time></trkpt><trkpt lat="43.7507981633887" lon="7.426185587594979"><ele>183.0</ele><time>2026-04-21T08:55:31.002Z</time></trkpt><trkpt lat="43.750894324482395" lon="7.426105886277695"><ele>182.0</ele><time>2026-04-21T08:55:32Z</time></trkpt><trkpt lat="43.750987359932196" lon="7.426028678095236"><ele>185.2</ele><time>2026-04-21T08:55:33Z</time></trkpt><trkpt lat="43.75107392089954" lon="7.4259534821995"><ele>188.39999999999998</ele><time>2026-04-21T08:55:34Z</time></trkpt><trkpt lat="43.75115925794907" lon="7.4258770053866785"><ele>191.60000000000002</ele><time>2026-04-21T08:55:35Z</time></trkpt><trkpt lat="43.75124376889425" lon="7.425804189991031"><ele>194.8</ele><time>2026-04-21T08:55:36Z</time></trkpt><trkpt lat="43.75133218430855" lon="7.425725433139903"><ele>198.0</ele><time>2026-04-21T08:55:37Z</time></trkpt><trkpt lat="43.75142373125422" lon="7.425650558812676"><ele>198.0</ele><time>2026-04-21T08:55:38Z</time></trkpt><trkpt lat="43.75151235267939" lon="7.4255693017968945"><ele>198.0</ele><time>2026-04-21T08:55:39Z</time></trkpt><trkpt lat="43.75159349856856" lon="7.425500412140259"><ele>198.0</ele><time>2026-04-21T08:55:40Z</time></trkpt><trkpt lat="43.75167850116154" lon="7.4254547715267405"><ele>198.0</ele><time>2026-04-21T08:55:41Z</time></trkpt><trkpt lat="43.751765326915255" lon="7.425430429757986"><ele>198.0</ele><time>2026-04-21T08:55:42Z</time></trkpt><trkpt lat="43.75185218184212" lon="7.425426812772703"><ele>203.0</ele><time>2026-04-21T08:55:43Z</time></trkpt><trkpt lat="43.75194295180546" lon="7.425446254648117"><ele>208.0</ele><time>2026-04-21T08:55:44Z</time></trkpt><trkpt lat="43.752034517803835" lon="7.425490394309382"><ele>213.0</ele><time>2026-04-21T08:55:45Z</time></trkpt><trkpt lat="43.75211247676204" lon="7.42556440918613"><ele>218.0</ele><time>2026-04-21T08:55:46Z</time></trkpt><trkpt lat="43.752173027285146" lon="7.425662663824983"><ele>223.0</ele><time>2026-04-21T08:55:47Z</time></trkpt><trkpt lat="43.752193528504186" lon="7.425829400327731"><ele>222.99999999999997</ele><time>2026-04-21T08:55:48Z</time></trkpt><trkpt lat="43.75225296966576" lon="7.42591183417791"><ele>223.0</ele><time>2026-04-21T08:55:49Z</time></trkpt><trkpt lat="43.75225350889222" lon="7.42600763041547"><ele>223.0</ele><time>2026-04-21T08:55:50Z</time></trkpt><trkpt lat="43.75225894054685" lon="7.42615424246495"><ele>223.0</ele><time>2026-04-21T08:55:52Z</time></trkpt><trkpt lat="43.752251941469" lon="7.426248299273964"><ele>222.99999999999997</ele><time>2026-04-21T08:55:54Z</time></trkpt><trkpt lat="43.75222849849292" lon="7.426344777540136"><ele>223.0</ele><time>2026-04-21T08:56:07Z</time></trkpt><trkpt lat="43.752174197881224" lon="7.4264017237939655"><ele>224.8</ele><time>2026-04-21T08:56:08Z</time></trkpt><trkpt lat="43.75213057218175" lon="7.426522342788249"><ele>226.60000000000002</ele><time>2026-04-21T08:56:10Z</time></trkpt><trkpt lat="43.752231046082926" lon="7.426687387164827"><ele>228.39999999999998</ele><time>2026-04-21T08:56:11Z</time></trkpt><trkpt lat="43.75217723847506" lon="7.426774205904748"><ele>230.2</ele><time>2026-04-21T08:56:12Z</time></trkpt><trkpt lat="43.752132738398224" lon="7.426877281155429"><ele>232.0</ele><time>2026-04-21T08:56:13Z</time></trkpt><trkpt lat="43.752100624997134" lon="7.426993970917105"><ele>232.0</ele><time>2026-04-21T08:56:14Z</time></trkpt><trkpt lat="43.752077883108186" lon="7.427108724391423"><ele>232.0</ele><time>2026-04-21T08:56:15Z</time></trkpt><trkpt lat="43.75206209429677" lon="7.427226854635149"><ele>232.0</ele><time>2026-04-21T08:56:16Z</time></trkpt><trkpt lat="43.752049856457944" lon="7.427360949351375"><ele>232.0</ele><time>2026-04-21T08:56:17Z</time></trkpt><trkpt lat="43.75204037535581" lon="7.427504378430851"><ele>232.0</ele><time>2026-04-21T08:56:18Z</time></trkpt><trkpt lat="43.75203281934324" lon="7.4276380689922945"><ele>233.33333333333331</ele><time>2026-04-21T08:56:19Z</time></trkpt><trkpt lat="43.75202880861884" lon="7.427762998886616"><ele>234.66666666666666</ele><time>2026-04-21T08:56:20.001Z</time></trkpt><trkpt lat="43.752027265292234" lon="7.427885783175844"><ele>236.0</ele><time>2026-04-21T08:56:21.001Z</time></trkpt><trkpt lat="43.75203192453599" lon="7.428010453855051"><ele>237.33333333333331</ele><time>2026-04-21T08:56:22.001Z</time></trkpt><trkpt lat="43.75203766367475" lon="7.42813187869138"><ele>238.66666666666666</ele><time>2026-04-21T08:56:23.001Z</time></trkpt><trkpt lat="43.752048138195555" lon="7.42825896167849"><ele>240.0</ele><time>2026-04-21T08:56:24.001Z</time></trkpt><trkpt lat="43.75205853222228" lon="7.428392754329666"><ele>240.25</ele><time>2026-04-21T08:56:25.001Z</time></trkpt><trkpt lat="43.752075486010966" lon="7.428534079045997"><ele>240.5</ele><time>2026-04-21T08:56:26.001Z</time></trkpt><trkpt lat="43.752100796471304" lon="7.428688804894289"><ele>240.75</ele><time>2026-04-21T08:56:27.001Z</time></trkpt><trkpt lat="43.752139227271975" lon="7.428846809371087"><ele>241.0</ele><time>2026-04-21T08:56:28.001Z</time></trkpt><trkpt lat="43.75218180778382" lon="7.428999605490382"><ele>239.0</ele><time>2026-04-21T08:56:29.001Z</time></trkpt><trkpt lat="43.75222419269976" lon="7.429138210685182"><ele>237.0</ele><time>2026-04-21T08:56:30.001Z</time></trkpt><trkpt lat="43.75227413245587" lon="7.4292835043445375"><ele>235.0</ele><time>2026-04-21T08:56:31.001Z</time></trkpt><trkpt lat="43.75233028819176" lon="7.4294293493075045"><ele>233.0</ele><time>2026-04-21T08:56:32.001Z</time></trkpt><trkpt lat="43.75239349123454" lon="7.429584304147643"><ele>230.75</ele><time>2026-04-21T08:56:33.001Z</time></trkpt><trkpt lat="43.75246243755742" lon="7.429736939515122"><ele>228.5</ele><time>2026-04-21T08:56:34.001Z</time></trkpt><trkpt lat="43.752525687140796" lon="7.429867586737939"><ele>226.25</ele><time>2026-04-21T08:56:35.001Z</time></trkpt><trkpt lat="43.75257851396555" lon="7.430004194006665"><ele>224.0</ele><time>2026-04-21T08:56:36.001Z</time></trkpt><trkpt lat="43.75262882069645" lon="7.430138205042812"><ele>224.0</ele><time>2026-04-21T08:56:37.001Z</time></trkpt><trkpt lat="43.75267744117694" lon="7.430256637673214"><ele>223.99999999999997</ele><time>2026-04-21T08:56:38.001Z</time></trkpt><trkpt lat="43.7527383285559" lon="7.430375147760754"><ele>223.99999999999997</ele><time>2026-04-21T08:56:39.001Z</time></trkpt><trkpt lat="43.7528136852728" lon="7.430491001053495"><ele>224.0</ele><time>2026-04-21T08:56:40.001Z</time></trkpt><trkpt lat="43.75289441296558" lon="7.430594059295686"><ele>224.0</ele><time>2026-04-21T08:56:41.001Z</time></trkpt><trkpt lat="43.752973497982474" lon="7.430673125159411"><ele>225.75</ele><time>2026-04-21T08:56:42.001Z</time></trkpt><trkpt lat="43.753069305946745" lon="7.430735040865858"><ele>227.5</ele><time>2026-04-21T08:56:43.001Z</time></trkpt><trkpt lat="43.753180133389336" lon="7.430772178272091"><ele>229.25</ele><time>2026-04-21T08:56:44.001Z</time></trkpt><trkpt lat="43.753294689975256" lon="7.43079606638641"><ele>231.0</ele><time>2026-04-21T08:56:45.001Z</time></trkpt><trkpt lat="43.7534227125704" lon="7.430813923402484"><ele>235.0</ele><time>2026-04-21T08:56:46.001Z</time></trkpt><trkpt lat="43.75355362466639" lon="7.430844867347756"><ele>239.0</ele><time>2026-04-21T08:56:47.001Z</time></trkpt><trkpt lat="43.75367731246221" lon="7.430873232785015"><ele>243.0</ele><time>2026-04-21T08:56:48.001Z</time></trkpt><trkpt lat="43.75381503354385" lon="7.430879623145149"><ele>247.0</ele><time>2026-04-21T08:56:49.001Z</time></trkpt><trkpt lat="43.75395908276131" lon="7.430885013260428"><ele>247.0</ele><time>2026-04-21T08:56:50.001Z</time></trkpt><trkpt lat="43.754110624176725" lon="7.430873803307195"><ele>247.0</ele><time>2026-04-21T08:56:51.001Z</time></trkpt><trkpt lat="43.75426669913419" lon="7.430841801824887"><ele>247.0</ele><time>2026-04-21T08:56:52.001Z</time></trkpt><trkpt lat="43.75442622399157" lon="7.430800738719404"><ele>247.33333333333331</ele><time>2026-04-21T08:56:53.001Z</time></trkpt><trkpt lat="43.75458211050365" lon="7.430774918156864"><ele>247.66666666666669</ele><time>2026-04-21T08:56:54.001Z</time></trkpt><trkpt lat="43.75472907622645" lon="7.430776903521885"><ele>248.0</ele><time>2026-04-21T08:56:55.001Z</time></trkpt><trkpt lat="43.754877722493674" lon="7.4308080386044075"><ele>248.0</ele><time>2026-04-21T08:56:56.001Z</time></trkpt><trkpt lat="43.75501332054032" lon="7.430862832334288"><ele>248.0</ele><time>2026-04-21T08:56:57.001Z</time></trkpt><trkpt lat="43.7551339006431" lon="7.430935638461191"><ele>248.0</ele><time>2026-04-21T08:56:58.001Z</time></trkpt><trkpt lat="43.755234391635646" lon="7.431041914361848"><ele>248.0</ele><time>2026-04-21T08:56:59.001Z</time></trkpt><trkpt lat="43.755309731790696" lon="7.431176152116839"><ele>254.5</ele><time>2026-04-21T08:57:00.001Z</time></trkpt><trkpt lat="43.755367377211854" lon="7.431341892251995"><ele>261.0</ele><time>2026-04-21T08:57:01.001Z</time></trkpt><trkpt lat="43.755390419396136" lon="7.431522159564137"><ele>267.5</ele><time>2026-04-21T08:57:02.001Z</time></trkpt><trkpt lat="43.75537625154973" lon="7.431704767581335"><ele>274.0</ele><time>2026-04-21T08:57:03.001Z</time></trkpt><trkpt lat="43.75533454623245" lon="7.431884150220033"><ele>274.0</ele><time>2026-04-21T08:57:04.001Z</time></trkpt><trkpt lat="43.75528136581754" lon="7.4320658997984985"><ele>274.0</ele><time>2026-04-21T08:57:05.001Z</time></trkpt><trkpt lat="43.755248533418154" lon="7.432233847440617"><ele>274.0</ele><time>2026-04-21T08:57:06.001Z</time></trkpt><trkpt lat="43.755220250072576" lon="7.432395890864647"><ele>274.0</ele><time>2026-04-21T08:57:07.001Z</time></trkpt><trkpt lat="43.755232465985124" lon="7.432584678109225"><ele>272.5</ele><time>2026-04-21T08:57:08.001Z</time></trkpt><trkpt lat="43.755274799865255" lon="7.432779529112533"><ele>271.0</ele><time>2026-04-21T08:57:09.001Z</time></trkpt><trkpt lat="43.75536199440238" lon="7.432941415849408"><ele>269.5</ele><time>2026-04-21T08:57:10.001Z</time></trkpt><trkpt lat="43.75545180593682" lon="7.4331036576275995"><ele>268.0</ele><time>2026-04-21T08:57:11.001Z</time></trkpt><trkpt lat="43.75555540884888" lon="7.433257180798821"><ele>268.0</ele><time>2026-04-21T08:57:12.001Z</time></trkpt><trkpt lat="43.755668963524606" lon="7.433409804285622"><ele>268.0</ele><time>2026-04-21T08:57:13.001Z</time></trkpt><trkpt lat="43.75579380609911" lon="7.433563570551483"><ele>268.0</ele><time>2026-04-21T08:57:14.001Z</time></trkpt><trkpt lat="43.75591744607472" lon="7.43370948607763"><ele>270.66666666666663</ele><time>2026-04-21T08:57:15.001Z</time></trkpt><trkpt lat="43.75604362612306" lon="7.4338608692069075"><ele>273.3333333333333</ele><time>2026-04-21T08:57:16.001Z</time></trkpt><trkpt lat="43.756174205357766" lon="7.434015397094048"><ele>276.0</ele><time>2026-04-21T08:57:17.001Z</time></trkpt><trkpt lat="43.756310408317844" lon="7.434172582331434"><ele>276.0</ele><time>2026-04-21T08:57:18.001Z</time></trkpt><trkpt lat="43.756441534850055" lon="7.434326348663249"><ele>276.0</ele><time>2026-04-21T08:57:19.001Z</time></trkpt><trkpt lat="43.75655447154462" lon="7.434461763774128"><ele>276.0</ele><time>2026-04-21T08:57:20.001Z</time></trkpt><trkpt lat="43.75666404316509" lon="7.434596432515633"><ele>270.3333333333333</ele><time>2026-04-21T08:57:21.001Z</time></trkpt><trkpt lat="43.756778588844895" lon="7.434739813791657"><ele>264.66666666666663</ele><time>2026-04-21T08:57:22.001Z</time></trkpt><trkpt lat="43.75688805634987" lon="7.434901168425402"><ele>259.0</ele><time>2026-04-21T08:57:23.001Z</time></trkpt><trkpt lat="43.756989937754774" lon="7.435077940559125"><ele>268.25</ele><time>2026-04-21T08:57:24.001Z</time></trkpt><trkpt lat="43.75708013078953" lon="7.435251149902545"><ele>277.5</ele><time>2026-04-21T08:57:25.001Z</time></trkpt><trkpt lat="43.75715491659252" lon="7.4354267658584545"><ele>286.75</ele><time>2026-04-21T08:57:26.001Z</time></trkpt><trkpt lat="43.75721213430977" lon="7.435611099621237"><ele>296.0</ele><time>2026-04-21T08:57:27.001Z</time></trkpt><trkpt lat="43.75725972047723" lon="7.435810094757331"><ele>296.0</ele><time>2026-04-21T08:57:28.001Z</time></trkpt><trkpt lat="43.75728612470969" lon="7.43602441872948"><ele>296.0</ele><time>2026-04-21T08:57:29.001Z</time></trkpt><trkpt lat="43.75730432686745" lon="7.436245406139883"><ele>296.0</ele><time>2026-04-21T08:57:30.001Z</time></trkpt><trkpt lat="43.757313455582505" lon="7.4364722856642285"><ele>293.6666666666667</ele><time>2026-04-21T08:57:31.001Z</time></trkpt><trkpt lat="43.75731786070156" lon="7.436705998665771"><ele>291.3333333333333</ele><time>2026-04-21T08:57:32.001Z</time></trkpt><trkpt lat="43.7573193240162" lon="7.436935694377116"><ele>289.0</ele><time>2026-04-21T08:57:33.001Z</time></trkpt><trkpt lat="43.757307700532174" lon="7.437143664877732"><ele>288.75</ele><time>2026-04-21T08:57:34.001Z</time></trkpt><trkpt lat="43.757277902365686" lon="7.4373405595897175"><ele>288.5</ele><time>2026-04-21T08:57:35.001Z</time></trkpt><trkpt lat="43.757228377309644" lon="7.437532330844428"><ele>288.25</ele><time>2026-04-21T08:57:36.002Z</time></trkpt><trkpt lat="43.75715372638567" lon="7.437689630994022"><ele>288.0</ele><time>2026-04-21T08:57:37.002Z</time></trkpt><trkpt lat="43.75706134144087" lon="7.437817871476945"><ele>288.0</ele><time>2026-04-21T08:57:38Z</time></trkpt><trkpt lat="43.75694701075422" lon="7.43791503532442"><ele>288.0</ele><time>2026-04-21T08:57:39Z</time></trkpt><trkpt lat="43.75681790122293" lon="7.4379705979985635"><ele>288.0</ele><time>2026-04-21T08:57:40Z</time></trkpt><trkpt lat="43.75669107733272" lon="7.437986964255427"><ele>288.0</ele><time>2026-04-21T08:57:41Z</time></trkpt><trkpt lat="43.75655579839575" lon="7.437965455688963"><ele>290.0</ele><time>2026-04-21T08:57:42Z</time></trkpt><trkpt lat="43.75642733422677" lon="7.437928063990228"><ele>292.0</ele><time>2026-04-21T08:57:43Z</time></trkpt><trkpt lat="43.75631415060003" lon="7.437912620620706"><ele>294.0</ele><time>2026-04-21T08:57:44Z</time></trkpt><trkpt lat="43.756212279047276" lon="7.437943037139578"><ele>296.0</ele><time>2026-04-21T08:57:45Z</time></trkpt><trkpt lat="43.756110312471016" lon="7.438014896686068"><ele>291.25</ele><time>2026-04-21T08:57:46Z</time></trkpt><trkpt lat="43.756012103516625" lon="7.438114642265131"><ele>286.5</ele><time>2026-04-21T08:57:47Z</time></trkpt><trkpt lat="43.7559230312402" lon="7.43824862787402"><ele>281.75</ele><time>2026-04-21T08:57:48Z</time></trkpt><trkpt lat="43.75584767422599" lon="7.438408275196353"><ele>277.0</ele><time>2026-04-21T08:57:49Z</time></trkpt><trkpt lat="43.75577737974733" lon="7.438582013888179"><ele>277.0</ele><time>2026-04-21T08:57:50Z</time></trkpt><trkpt lat="43.75572270727833" lon="7.438748616087984"><ele>277.0</ele><time>2026-04-21T08:57:51Z</time></trkpt><trkpt lat="43.75569538014972" lon="7.438911612691457"><ele>277.0</ele><time>2026-04-21T08:57:52Z</time></trkpt><trkpt lat="43.755696187756165" lon="7.439078283680455"><ele>277.0</ele><time>2026-04-21T08:57:53Z</time></trkpt><trkpt lat="43.755730747085785" lon="7.439239805848369"><ele>277.25</ele><time>2026-04-21T08:57:54Z</time></trkpt><trkpt lat="43.755795220739564" lon="7.4393955983954445"><ele>277.5</ele><time>2026-04-21T08:57:55Z</time></trkpt><trkpt lat="43.75588884800278" lon="7.439532922550925"><ele>277.75</ele><time>2026-04-21T08:57:56Z</time></trkpt><trkpt lat="43.755991317099294" lon="7.439662535207822"><ele>278.0</ele><time>2026-04-21T08:57:57Z</time></trkpt><trkpt lat="43.75607556001634" lon="7.4397897178506245"><ele>288.5</ele><time>2026-04-21T08:57:58Z</time></trkpt><trkpt lat="43.75613402279996" lon="7.439942733064856"><ele>299.0</ele><time>2026-04-21T08:57:59Z</time></trkpt><trkpt lat="43.75615940509468" lon="7.440122230863114"><ele>309.5</ele><time>2026-04-21T08:58:00Z</time></trkpt><trkpt lat="43.75616436976805" lon="7.440305020574804"><ele>320.0</ele><time>2026-04-21T08:58:01Z</time></trkpt><trkpt lat="43.75615924626587" lon="7.440485506329301"><ele>320.5</ele><time>2026-04-21T08:58:02Z</time></trkpt><trkpt lat="43.75616179204929" lon="7.440670081616428"><ele>321.0</ele><time>2026-04-21T08:58:03Z</time></trkpt><trkpt lat="43.75618503916899" lon="7.440861345343111"><ele>321.5</ele><time>2026-04-21T08:58:04Z</time></trkpt><trkpt lat="43.756234355825534" lon="7.441043258529058"><ele>322.0</ele><time>2026-04-21T08:58:05Z</time></trkpt><trkpt lat="43.7563117157858" lon="7.441221623421118"><ele>319.66666666666663</ele><time>2026-04-21T08:58:06Z</time></trkpt><trkpt lat="43.75639600995556" lon="7.441405747246704"><ele>317.3333333333333</ele><time>2026-04-21T08:58:07Z</time></trkpt><trkpt lat="43.75647049874071" lon="7.441605165038951"><ele>315.0</ele><time>2026-04-21T08:58:08Z</time></trkpt><trkpt lat="43.7565256346857" lon="7.441815740555002"><ele>315.0</ele><time>2026-04-21T08:58:09Z</time></trkpt><trkpt lat="43.756574041677794" lon="7.4420307811783015"><ele>315.0</ele><time>2026-04-21T08:58:10Z</time></trkpt><trkpt lat="43.756628878538436" lon="7.442247850060229"><ele>315.0</ele><time>2026-04-21T08:58:11Z</time></trkpt><trkpt lat="43.75668121257239" lon="7.442469771854826"><ele>313.0</ele><time>2026-04-21T08:58:12Z</time></trkpt><trkpt lat="43.75670869452432" lon="7.442682860647433"><ele>311.0</ele><time>2026-04-21T08:58:13Z</time></trkpt><trkpt lat="43.756720271535066" lon="7.442902809802044"><ele>309.0</ele><time>2026-04-21T08:58:14Z</time></trkpt><trkpt lat="43.75673341576154" lon="7.443125725371564"><ele>307.25</ele><time>2026-04-21T08:58:15Z</time></trkpt><trkpt lat="43.756747480036374" lon="7.443347107406746"><ele>305.5</ele><time>2026-04-21T08:58:16Z</time></trkpt><trkpt lat="43.75676225329447" lon="7.443549955963405"><ele>303.75</ele><time>2026-04-21T08:58:17Z</time></trkpt><trkpt lat="43.75677677516414" lon="7.443705495042196"><ele>302.0</ele><time>2026-04-21T08:58:18.001Z</time></trkpt><trkpt lat="43.756797469518645" lon="7.443820761574611"><ele>301.1666666666667</ele><time>2026-04-21T08:58:19.001Z</time></trkpt><trkpt lat="43.756836852394684" lon="7.44391792911866"><ele>300.33333333333337</ele><time>2026-04-21T08:58:20.001Z</time></trkpt><trkpt lat="43.75689214833047" lon="7.444021355286086"><ele>299.5</ele><time>2026-04-21T08:58:21.001Z</time></trkpt><trkpt lat="43.75695535748239" lon="7.444120949676863"><ele>298.6666666666667</ele><time>2026-04-21T08:58:22.001Z</time></trkpt><trkpt lat="43.75700972912757" lon="7.444203344764158"><ele>297.8333333333333</ele><time>2026-04-21T08:58:23.001Z</time></trkpt><trkpt lat="43.757069810467755" lon="7.444260865880673"><ele>297.0</ele><time>2026-04-21T08:58:24.001Z</time></trkpt><trkpt lat="43.7571334787696" lon="7.444290600945036"><ele>300.2</ele><time>2026-04-21T08:58:25.001Z</time></trkpt><trkpt lat="43.75724302495385" lon="7.4442863045886"><ele>303.4</ele><time>2026-04-21T08:58:27.001Z</time></trkpt><trkpt lat="43.75731545198455" lon="7.444291255906013"><ele>306.6</ele><time>2026-04-21T08:58:28.001Z</time></trkpt><trkpt lat="43.75739818244456" lon="7.444318301605521"><ele>309.8</ele><time>2026-04-21T08:58:29.001Z</time></trkpt><trkpt lat="43.75746806659621" lon="7.444271270058454"><ele>313.0</ele><time>2026-04-21T08:58:30.001Z</time></trkpt><trkpt lat="43.75757636306006" lon="7.444222737946376"><ele>313.0</ele><time>2026-04-21T08:58:32.001Z</time></trkpt><trkpt lat="43.75761874343667" lon="7.444120632382288"><ele>313.0</ele><time>2026-04-21T08:58:39.001Z</time></trkpt><trkpt lat="43.757730680143034" lon="7.443995988129948"><ele>313.0</ele><time>2026-04-21T08:58:41.001Z</time></trkpt><trkpt lat="43.75781706040064" lon="7.443942985868296"><ele>313.0</ele><time>2026-04-21T08:58:42.001Z</time></trkpt><trkpt lat="43.75791731397748" lon="7.443921844655465"><ele>313.0</ele><time>2026-04-21T08:58:43.001Z</time></trkpt><trkpt lat="43.75802507131739" lon="7.443939363865126"><ele>312.0</ele><time>2026-04-21T08:58:44.001Z</time></trkpt><trkpt lat="43.75815104888153" lon="7.443945096446842"><ele>311.0</ele><time>2026-04-21T08:58:45.001Z</time></trkpt><trkpt lat="43.75827897974644" lon="7.443942719797278"><ele>310.0</ele><time>2026-04-21T08:58:46.001Z</time></trkpt><trkpt lat="43.75841280759475" lon="7.4439449879028174"><ele>309.0</ele><time>2026-04-21T08:58:47.001Z</time></trkpt><trkpt lat="43.75853234928818" lon="7.443964246465928"><ele>313.0</ele><time>2026-04-21T08:58:48.001Z</time></trkpt><trkpt lat="43.75865303861468" lon="7.444005898767742"><ele>317.0</ele><time>2026-04-21T08:58:49.001Z</time></trkpt><trkpt lat="43.758778729443435" lon="7.444074665419144"><ele>321.0</ele><time>2026-04-21T08:58:50.001Z</time></trkpt><trkpt lat="43.758909669146576" lon="7.444170182021833"><ele>325.0</ele><time>2026-04-21T08:58:51.001Z</time></trkpt><trkpt lat="43.75903615342383" lon="7.444287463544423"><ele>325.0</ele><time>2026-04-21T08:58:52.001Z</time></trkpt><trkpt lat="43.75915723227478" lon="7.4444074600557295"><ele>325.0</ele><time>2026-04-21T08:58:53.001Z</time></trkpt><trkpt lat="43.759285433464605" lon="7.4445202428289035"><ele>325.0</ele><time>2026-04-21T08:58:54.001Z</time></trkpt><trkpt lat="43.75939671107894" lon="7.4446373918645605"><ele>325.0</ele><time>2026-04-21T08:58:55.001Z</time></trkpt><trkpt lat="43.75949822243054" lon="7.444786450041223"><ele>326.0</ele><time>2026-04-21T08:58:56.001Z</time></trkpt><trkpt lat="43.75959066448978" lon="7.444946258600297"><ele>327.0</ele><time>2026-04-21T08:58:57.001Z</time></trkpt><trkpt lat="43.75968237410171" lon="7.445090165479355"><ele>328.0</ele><time>2026-04-21T08:58:58.001Z</time></trkpt><trkpt lat="43.75978118225366" lon="7.445216987414248"><ele>329.0</ele><time>2026-04-21T08:58:59.001Z</time></trkpt><trkpt lat="43.75989168529093" lon="7.445321202848319"><ele>329.0</ele><time>2026-04-21T08:59:00.001Z</time></trkpt><trkpt lat="43.76002203657395" lon="7.445403205792938"><ele>329.0</ele><time>2026-04-21T08:59:01.001Z</time></trkpt><trkpt lat="43.76015355678279" lon="7.445485904194028"><ele>329.0</ele><time>2026-04-21T08:59:02.001Z</time></trkpt><trkpt lat="43.760279661606894" lon="7.445602305226489"><ele>329.0</ele><time>2026-04-21T08:59:03.001Z</time></trkpt><trkpt lat="43.76039441083295" lon="7.445747218354301"><ele>331.6666666666667</ele><time>2026-04-21T08:59:04.001Z</time></trkpt><trkpt lat="43.76050188437277" lon="7.4459080542553435"><ele>334.3333333333333</ele><time>2026-04-21T08:59:05.001Z</time></trkpt><trkpt lat="43.76061465799196" lon="7.446068267678714"><ele>337.0</ele><time>2026-04-21T08:59:06.001Z</time></trkpt><trkpt lat="43.76072451596454" lon="7.44621597467655"><ele>332.3333333333333</ele><time>2026-04-21T08:59:07.001Z</time></trkpt><trkpt lat="43.76084666099586" lon="7.446369803509801"><ele>327.6666666666667</ele><time>2026-04-21T08:59:08.001Z</time></trkpt><trkpt lat="43.76097868292977" lon="7.446531037027425"><ele>323.0</ele><time>2026-04-21T08:59:09.001Z</time></trkpt><trkpt lat="43.76111866667602" lon="7.446691477732504"><ele>321.0</ele><time>2026-04-21T08:59:10.001Z</time></trkpt><trkpt lat="43.76125802803894" lon="7.4468464734824575"><ele>319.0</ele><time>2026-04-21T08:59:11.001Z</time></trkpt><trkpt lat="43.761408980253464" lon="7.44699719420493"><ele>317.0</ele><time>2026-04-21T08:59:12.001Z</time></trkpt><trkpt lat="43.7615749889384" lon="7.447143199726807"><ele>317.0</ele><time>2026-04-21T08:59:13.001Z</time></trkpt><trkpt lat="43.76175018306492" lon="7.447279648086412"><ele>317.0</ele><time>2026-04-21T08:59:14.001Z</time></trkpt><trkpt lat="43.7619313340593" lon="7.447408083642742"><ele>317.0</ele><time>2026-04-21T08:59:15.001Z</time></trkpt><trkpt lat="43.76212021280103" lon="7.4475318101733015"><ele>322.33333333333337</ele><time>2026-04-21T08:59:16.001Z</time></trkpt><trkpt lat="43.76231786351097" lon="7.447649545000842"><ele>327.6666666666667</ele><time>2026-04-21T08:59:17.001Z</time></trkpt><trkpt lat="43.76252541496202" lon="7.447767687555913"><ele>333.0</ele><time>2026-04-21T08:59:18.001Z</time></trkpt><trkpt lat="43.76272814261084" lon="7.447892450787539"><ele>326.0</ele><time>2026-04-21T08:59:19.001Z</time></trkpt><trkpt lat="43.762933019340416" lon="7.44803084415378"><ele>319.0</ele><time>2026-04-21T08:59:20.001Z</time></trkpt><trkpt lat="43.76313303265085" lon="7.448184893609582"><ele>319.0</ele><time>2026-04-21T08:59:21.001Z</time></trkpt><trkpt lat="43.76332402583227" lon="7.448343311792205"><ele>319.0</ele><time>2026-04-21T08:59:22.001Z</time></trkpt><trkpt lat="43.76350944230104" lon="7.448505736195503"><ele>319.0</ele><time>2026-04-21T08:59:23.001Z</time></trkpt><trkpt lat="43.763691874842756" lon="7.448670351237546"><ele>316.66666666666663</ele><time>2026-04-21T08:59:24.001Z</time></trkpt><trkpt lat="43.763873654607245" lon="7.44883253378533"><ele>314.3333333333333</ele><time>2026-04-21T08:59:25.001Z</time></trkpt><trkpt lat="43.76405821080187" lon="7.448986410105626"><ele>312.0</ele><time>2026-04-21T08:59:26.001Z</time></trkpt><trkpt lat="43.764243378670464" lon="7.449135309931951"><ele>316.0</ele><time>2026-04-21T08:59:27.001Z</time></trkpt><trkpt lat="43.76443444353972" lon="7.449271872734956"><ele>320.0</ele><time>2026-04-21T08:59:28.001Z</time></trkpt><trkpt lat="43.7646339425106" lon="7.449398985398179"><ele>324.0</ele><time>2026-04-21T08:59:29.001Z</time></trkpt><trkpt lat="43.764840503527864" lon="7.449509146749644"><ele>324.0</ele><time>2026-04-21T08:59:30.001Z</time></trkpt><trkpt lat="43.76505369634833" lon="7.44960043518319"><ele>324.0</ele><time>2026-04-21T08:59:31.001Z</time></trkpt><trkpt lat="43.76527589472862" lon="7.449667238159661"><ele>309.5</ele><time>2026-04-21T08:59:32.001Z</time></trkpt><trkpt lat="43.76550237109047" lon="7.449719701932075"><ele>295.0</ele><time>2026-04-21T08:59:33.001Z</time></trkpt><trkpt lat="43.76573214677879" lon="7.449756651043227"><ele>295.0</ele><time>2026-04-21T08:59:34.001Z</time></trkpt><trkpt lat="43.765965889813515" lon="7.449768399119038"><ele>295.0</ele><time>2026-04-21T08:59:35.001Z</time></trkpt><trkpt lat="43.76620277060105" lon="7.449762536422165"><ele>296.5</ele><time>2026-04-21T08:59:36.002Z</time></trkpt><trkpt lat="43.766440269026155" lon="7.4497490100787696"><ele>298.0</ele><time>2026-04-21T08:59:37.002Z</time></trkpt><trkpt lat="43.76667775126006" lon="7.449723541691889"><ele>296.5</ele><time>2026-04-21T08:59:38.002Z</time></trkpt><trkpt lat="43.7669156862738" lon="7.44969160010288"><ele>295.0</ele><time>2026-04-21T08:59:39.002Z</time></trkpt><trkpt lat="43.76714394497046" lon="7.449646975994263"><ele>304.0</ele><time>2026-04-21T08:59:40.002Z</time></trkpt><trkpt lat="43.76737016316796" lon="7.449599275437792"><ele>313.0</ele><time>2026-04-21T08:59:41.002Z</time></trkpt><trkpt lat="43.76758479679279" lon="7.449554434421993"><ele>322.0</ele><time>2026-04-21T08:59:42.002Z</time></trkpt><trkpt lat="43.767798017836476" lon="7.449512593756037"><ele>322.0</ele><time>2026-04-21T08:59:43.002Z</time></trkpt><trkpt lat="43.768008262670804" lon="7.449482890016733"><ele>322.0</ele><time>2026-04-21T08:59:44Z</time></trkpt><trkpt lat="43.76821122487026" lon="7.449448648312542"><ele>322.0</ele><time>2026-04-21T08:59:45Z</time></trkpt><trkpt lat="43.76841831367856" lon="7.449413357374509"><ele>316.0</ele><time>2026-04-21T08:59:46Z</time></trkpt><trkpt lat="43.76862870328948" lon="7.449386329689575"><ele>310.0</ele><time>2026-04-21T08:59:47Z</time></trkpt><trkpt lat="43.76884130395278" lon="7.449372675949251"><ele>304.0</ele><time>2026-04-21T08:59:48Z</time></trkpt><trkpt lat="43.7690545108458" lon="7.44936828795153"><ele>304.0</ele><time>2026-04-21T08:59:49Z</time></trkpt><trkpt lat="43.76926388193817" lon="7.449375103206435"><ele>304.0</ele><time>2026-04-21T08:59:50Z</time></trkpt><trkpt lat="43.7694703203837" lon="7.44939696904558"><ele>304.0</ele><time>2026-04-21T08:59:51Z</time></trkpt><trkpt lat="43.76967784937589" lon="7.449435424206959"><ele>301.3333333333333</ele><time>2026-04-21T08:59:52Z</time></trkpt><trkpt lat="43.76988363202214" lon="7.449492906566087"><ele>298.6666666666667</ele><time>2026-04-21T08:59:53Z</time></trkpt><trkpt lat="43.7700880134906" lon="7.449562363597565"><ele>296.0</ele><time>2026-04-21T08:59:54Z</time></trkpt><trkpt lat="43.77029002309162" lon="7.449641689670852"><ele>294.6666666666667</ele><time>2026-04-21T08:59:55Z</time></trkpt><trkpt lat="43.770486777441334" lon="7.449734188892842"><ele>293.3333333333333</ele><time>2026-04-21T08:59:56Z</time></trkpt><trkpt lat="43.77068354209185" lon="7.449823406243394"><ele>292.0</ele><time>2026-04-21T08:59:57Z</time></trkpt><trkpt lat="43.77088113823152" lon="7.449906966393997"><ele>297.3333333333333</ele><time>2026-04-21T08:59:58Z</time></trkpt><trkpt lat="43.77107576608614" lon="7.449983198141841"><ele>302.6666666666667</ele><time>2026-04-21T08:59:59Z</time></trkpt><trkpt lat="43.77127149839717" lon="7.450047224033954"><ele>308.0</ele><time>2026-04-21T09:00:00Z</time></trkpt><trkpt lat="43.77147258914035" lon="7.450092034144715"><ele>308.0</ele><time>2026-04-21T09:00:01Z</time></trkpt><trkpt lat="43.77167358397202" lon="7.450121790905142"><ele>308.0</ele><time>2026-04-21T09:00:02Z</time></trkpt><trkpt lat="43.77187442323235" lon="7.450136146165706"><ele>308.0</ele><time>2026-04-21T09:00:03Z</time></trkpt><trkpt lat="43.772079441005964" lon="7.4501393034670595"><ele>320.33333333333337</ele><time>2026-04-21T09:00:04Z</time></trkpt><trkpt lat="43.77228309281588" lon="7.450122061630498"><ele>332.6666666666667</ele><time>2026-04-21T09:00:05Z</time></trkpt><trkpt lat="43.7724884039766" lon="7.4500898691601805"><ele>345.0</ele><time>2026-04-21T09:00:06Z</time></trkpt><trkpt lat="43.7726968611343" lon="7.450060459006679"><ele>356.6666666666667</ele><time>2026-04-21T09:00:07Z</time></trkpt><trkpt lat="43.77290831029012" lon="7.45003349154428"><ele>368.33333333333337</ele><time>2026-04-21T09:00:08Z</time></trkpt><trkpt lat="43.7731203346684" lon="7.45000874638885"><ele>380.0</ele><time>2026-04-21T09:00:09Z</time></trkpt><trkpt lat="43.773327765888666" lon="7.44998387304928"><ele>380.0</ele><time>2026-04-21T09:00:10Z</time></trkpt><trkpt lat="43.77348347498027" lon="7.449913605294722"><ele>380.0</ele><time>2026-04-21T09:00:11Z</time></trkpt><trkpt lat="43.773673645303894" lon="7.44990486059664"><ele>380.0</ele><time>2026-04-21T09:00:12Z</time></trkpt><trkpt lat="43.77383835514756" lon="7.449926549054153"><ele>373.5</ele><time>2026-04-21T09:00:13Z</time></trkpt><trkpt lat="43.773960538868394" lon="7.44989897279519"><ele>367.0</ele><time>2026-04-21T09:00:14.049Z</time></trkpt><trkpt lat="43.77694107791654" lon="7.449182832542147"><ele>328.0</ele><time>2026-04-21T09:00:18.479Z</time></trkpt><trkpt lat="43.77792162584305" lon="7.448978847476656"><ele>293.0</ele><time>2026-04-21T09:00:19.481Z</time></trkpt><trkpt lat="43.77890938706266" lon="7.44885534028319"><ele>273.0</ele><time>2026-04-21T09:00:20.483Z</time></trkpt><trkpt lat="43.77947229956701" lon="7.448975048393617"><ele>273.0</ele><time>2026-04-21T09:00:41.001Z</time></trkpt><trkpt lat="43.77975049361721" lon="7.448990093544207"><ele>273.0</ele><time>2026-04-21T09:00:42.001Z</time></trkpt><trkpt lat="43.77988887618885" lon="7.448948113175455"><ele>273.0</ele><time>2026-04-21T09:00:43.001Z</time></trkpt><trkpt lat="43.780068211668464" lon="7.448999374602779"><ele>275.6666666666667</ele><time>2026-04-21T09:00:44.001Z</time></trkpt><trkpt lat="43.78025151377616" lon="7.4490772513933265"><ele>278.33333333333337</ele><time>2026-04-21T09:00:45.001Z</time></trkpt><trkpt lat="43.780439227000635" lon="7.449149861581636"><ele>281.0</ele><time>2026-04-21T09:00:46.001Z</time></trkpt><trkpt lat="43.78062580954808" lon="7.449240523507351"><ele>281.0</ele><time>2026-04-21T09:00:47.001Z</time></trkpt><trkpt lat="43.780810230896456" lon="7.449345482024792"><ele>281.0</ele><time>2026-04-21T09:00:48.001Z</time></trkpt><trkpt lat="43.78099395251355" lon="7.449456472122497"><ele>281.0</ele><time>2026-04-21T09:00:49.001Z</time></trkpt><trkpt lat="43.781169524580946" lon="7.449579193942452"><ele>276.0</ele><time>2026-04-21T09:00:50.001Z</time></trkpt><trkpt lat="43.78134373070528" lon="7.4497157057234755"><ele>271.0</ele><time>2026-04-21T09:00:51.001Z</time></trkpt><trkpt lat="43.781522730599185" lon="7.449877769502249"><ele>266.0</ele><time>2026-04-21T09:00:52.001Z</time></trkpt><trkpt lat="43.78169083971219" lon="7.450042631205343"><ele>266.6666666666667</ele><time>2026-04-21T09:00:53.001Z</time></trkpt><trkpt lat="43.781856666820985" lon="7.450211060248351"><ele>267.3333333333333</ele><time>2026-04-21T09:00:54.001Z</time></trkpt><trkpt lat="43.78201700055316" lon="7.450395326238213"><ele>268.0</ele><time>2026-04-21T09:00:55.001Z</time></trkpt><trkpt lat="43.78217003582242" lon="7.450592486034399"><ele>260.66666666666663</ele><time>2026-04-21T09:00:56.001Z</time></trkpt><trkpt lat="43.782316263939826" lon="7.450794785705679"><ele>253.33333333333331</ele><time>2026-04-21T09:00:57.001Z</time></trkpt><trkpt lat="43.78245782160937" lon="7.451003245370092"><ele>246.0</ele><time>2026-04-21T09:00:58.001Z</time></trkpt><trkpt lat="43.78259752068349" lon="7.451225941640552"><ele>245.33333333333331</ele><time>2026-04-21T09:00:59.001Z</time></trkpt><trkpt lat="43.782733431184575" lon="7.451455473284359"><ele>244.66666666666666</ele><time>2026-04-21T09:01:00.001Z</time></trkpt><trkpt lat="43.78285896711953" lon="7.451675145614137"><ele>244.0</ele><time>2026-04-21T09:01:01.001Z</time></trkpt><trkpt lat="43.78297971670248" lon="7.451892495676654"><ele>244.0</ele><time>2026-04-21T09:01:02.001Z</time></trkpt><trkpt lat="43.78309639464542" lon="7.452115593167658"><ele>244.0</ele><time>2026-04-21T09:01:03.001Z</time></trkpt><trkpt lat="43.78321670334641" lon="7.452345945202755"><ele>244.0</ele><time>2026-04-21T09:01:04.001Z</time></trkpt><trkpt lat="43.78333887709365" lon="7.452585720545554"><ele>245.33333333333331</ele><time>2026-04-21T09:01:05.001Z</time></trkpt><trkpt lat="43.78345915075878" lon="7.4528332835125095"><ele>246.66666666666669</ele><time>2026-04-21T09:01:06.001Z</time></trkpt><trkpt lat="43.783576173701675" lon="7.453091258531029"><ele>248.0</ele><time>2026-04-21T09:01:07.001Z</time></trkpt><trkpt lat="43.78369233701139" lon="7.453353814285546"><ele>233.0</ele><time>2026-04-21T09:01:08.001Z</time></trkpt><trkpt lat="43.78380868365617" lon="7.453622391854262"><ele>218.0</ele><time>2026-04-21T09:01:09.001Z</time></trkpt><trkpt lat="43.78392116363707" lon="7.453893773687495"><ele>206.5</ele><time>2026-04-21T09:01:10.001Z</time></trkpt><trkpt lat="43.784033152484525" lon="7.454167434191475"><ele>195.0</ele><time>2026-04-21T09:01:11.001Z</time></trkpt><trkpt lat="43.78413729557803" lon="7.454445825483327"><ele>193.5</ele><time>2026-04-21T09:01:12.001Z</time></trkpt><trkpt lat="43.78423247537307" lon="7.454730014033483"><ele>192.0</ele><time>2026-04-21T09:01:13.001Z</time></trkpt><trkpt lat="43.784322490858074" lon="7.455018054847103"><ele>198.0</ele><time>2026-04-21T09:01:14.001Z</time></trkpt><trkpt lat="43.7844074654793" lon="7.455306432863503"><ele>204.0</ele><time>2026-04-21T09:01:15.001Z</time></trkpt><trkpt lat="43.78448323812216" lon="7.455598953049208"><ele>210.0</ele><time>2026-04-21T09:01:16.001Z</time></trkpt><trkpt lat="43.78454921806543" lon="7.455891214132418"><ele>212.66666666666669</ele><time>2026-04-21T09:01:17.001Z</time></trkpt><trkpt lat="43.78461238083789" lon="7.456181651704278"><ele>215.33333333333334</ele><time>2026-04-21T09:01:18.001Z</time></trkpt><trkpt lat="43.78466867891324" lon="7.456477650440015"><ele>218.0</ele><time>2026-04-21T09:01:19.001Z</time></trkpt><trkpt lat="43.784719646915974" lon="7.456775375080437"><ele>219.66666666666669</ele><time>2026-04-21T09:01:20.001Z</time></trkpt><trkpt lat="43.78476535626574" lon="7.457071374628407"><ele>221.33333333333331</ele><time>2026-04-21T09:01:21.001Z</time></trkpt><trkpt lat="43.784800979670294" lon="7.457368115546225"><ele>223.0</ele><time>2026-04-21T09:01:22.001Z</time></trkpt><trkpt lat="43.78482936708463" lon="7.457663902864579"><ele>223.33333333333331</ele><time>2026-04-21T09:01:23.001Z</time></trkpt><trkpt lat="43.784854263034774" lon="7.457960596421249"><ele>223.66666666666669</ele><time>2026-04-21T09:01:24.001Z</time></trkpt><trkpt lat="43.78487331995627" lon="7.458256833960961"><ele>224.0</ele><time>2026-04-21T09:01:25.001Z</time></trkpt><trkpt lat="43.78488586616908" lon="7.458552066976924"><ele>224.33333333333334</ele><time>2026-04-21T09:01:26.001Z</time></trkpt><trkpt lat="43.784895594258224" lon="7.4588477234965485"><ele>224.66666666666669</ele><time>2026-04-21T09:01:27.001Z</time></trkpt><trkpt lat="43.78490262738232" lon="7.459141638735312"><ele>225.0</ele><time>2026-04-21T09:01:28.001Z</time></trkpt><trkpt lat="43.78490941244604" lon="7.459434742262846"><ele>229.0</ele><time>2026-04-21T09:01:29.001Z</time></trkpt><trkpt lat="43.78491318714426" lon="7.459726761696779"><ele>233.0</ele><time>2026-04-21T09:01:30.001Z</time></trkpt><trkpt lat="43.784917428316525" lon="7.460017781924446"><ele>237.0</ele><time>2026-04-21T09:01:31.001Z</time></trkpt><trkpt lat="43.784923704129454" lon="7.46030825328665"><ele>235.33333333333331</ele><time>2026-04-21T09:01:32.001Z</time></trkpt><trkpt lat="43.784930364523284" lon="7.4605986601333365"><ele>233.66666666666666</ele><time>2026-04-21T09:01:33.001Z</time></trkpt><trkpt lat="43.784934952870444" lon="7.46088995496864"><ele>232.0</ele><time>2026-04-21T09:01:34.001Z</time></trkpt><trkpt lat="43.78494224165774" lon="7.461181728741467"><ele>228.0</ele><time>2026-04-21T09:01:35.001Z</time></trkpt><trkpt lat="43.784962121672784" lon="7.461471594463499"><ele>224.0</ele><time>2026-04-21T09:01:36.001Z</time></trkpt><trkpt lat="43.78499188409898" lon="7.461765424249798"><ele>220.0</ele><time>2026-04-21T09:01:37.001Z</time></trkpt><trkpt lat="43.785026827291055" lon="7.462061557131095"><ele>217.5</ele><time>2026-04-21T09:01:38.001Z</time></trkpt><trkpt lat="43.7850732262041" lon="7.462366336693278"><ele>215.0</ele><time>2026-04-21T09:01:39.001Z</time></trkpt><trkpt lat="43.78512995895084" lon="7.462668654789529"><ele>229.5</ele><time>2026-04-21T09:01:40.002Z</time></trkpt><trkpt lat="43.78519809061369" lon="7.462970358070536"><ele>244.0</ele><time>2026-04-21T09:01:41.002Z</time></trkpt><trkpt lat="43.78527760828261" lon="7.463277860897867"><ele>244.0</ele><time>2026-04-21T09:01:42.002Z</time></trkpt><trkpt lat="43.78536227038747" lon="7.463586771757692"><ele>244.0</ele><time>2026-04-21T09:01:43.002Z</time></trkpt><trkpt lat="43.7854507495113" lon="7.463880923359304"><ele>249.0</ele><time>2026-04-21T09:01:44.002Z</time></trkpt><trkpt lat="43.78554976997067" lon="7.464180213338087"><ele>254.0</ele><time>2026-04-21T09:01:45.002Z</time></trkpt><trkpt lat="43.78565369641814" lon="7.464473389642364"><ele>256.5</ele><time>2026-04-21T09:01:46.002Z</time></trkpt><trkpt lat="43.785764586985565" lon="7.464769727374567"><ele>259.0</ele><time>2026-04-21T09:01:47.002Z</time></trkpt><trkpt lat="43.78587881328788" lon="7.465075093241421"><ele>259.0</ele><time>2026-04-21T09:01:48.002Z</time></trkpt><trkpt lat="43.785999037172054" lon="7.465376936765505"><ele>259.0</ele><time>2026-04-21T09:01:49.002Z</time></trkpt><trkpt lat="43.786129836681695" lon="7.4656797702031605"><ele>246.0</ele><time>2026-04-21T09:01:50.001Z</time></trkpt><trkpt lat="43.786274366847515" lon="7.465990933042898"><ele>233.0</ele><time>2026-04-21T09:01:51.062Z</time></trkpt><trkpt lat="43.78642396506708" lon="7.466257295051971"><ele>224.0</ele><time>2026-04-21T09:01:52.063Z</time></trkpt><trkpt lat="43.78669389154757" lon="7.46673708307349"><ele>215.0</ele><time>2026-04-21T09:01:54.001Z</time></trkpt><trkpt lat="43.78683151014721" lon="7.46698160352357"><ele>196.5</ele><time>2026-04-21T09:01:55.001Z</time></trkpt><trkpt lat="43.786970332451084" lon="7.467240960990406"><ele>178.0</ele><time>2026-04-21T09:01:56.001Z</time></trkpt><trkpt lat="43.78711308159386" lon="7.467498910513619"><ele>178.0</ele><time>2026-04-21T09:01:57.001Z</time></trkpt><trkpt lat="43.787257748854586" lon="7.467752689781261"><ele>178.0</ele><time>2026-04-21T09:01:58.001Z</time></trkpt><trkpt lat="43.78740224178628" lon="7.468010261516381"><ele>178.5</ele><time>2026-04-21T09:01:59.001Z</time></trkpt><trkpt lat="43.78754685420981" lon="7.468265333785948"><ele>179.0</ele><time>2026-04-21T09:02:00.001Z</time></trkpt><trkpt lat="43.78767903406163" lon="7.46850667131895"><ele>166.66666666666666</ele><time>2026-04-21T09:02:01.001Z</time></trkpt><trkpt lat="43.78780747327707" lon="7.4687374856900925"><ele>154.33333333333334</ele><time>2026-04-21T09:02:02.001Z</time></trkpt><trkpt lat="43.787932912057805" lon="7.468959064181321"><ele>142.0</ele><time>2026-04-21T09:02:03.001Z</time></trkpt><trkpt lat="43.78805157478504" lon="7.469173315735781"><ele>141.33333333333334</ele><time>2026-04-21T09:02:04.001Z</time></trkpt><trkpt lat="43.78816997203671" lon="7.469376633556128"><ele>140.66666666666666</ele><time>2026-04-21T09:02:05.001Z</time></trkpt><trkpt lat="43.78828598384946" lon="7.469574484738176"><ele>140.0</ele><time>2026-04-21T09:02:06.001Z</time></trkpt><trkpt lat="43.78840832803124" lon="7.4697780792813075"><ele>147.66666666666666</ele><time>2026-04-21T09:02:07.001Z</time></trkpt><trkpt lat="43.78853281410229" lon="7.469988809498816"><ele>155.33333333333334</ele><time>2026-04-21T09:02:08.001Z</time></trkpt><trkpt lat="43.78865734858178" lon="7.470206926460906"><ele>163.0</ele><time>2026-04-21T09:02:09.001Z</time></trkpt><trkpt lat="43.78878941697366" lon="7.470432364014793"><ele>169.5</ele><time>2026-04-21T09:02:10.001Z</time></trkpt><trkpt lat="43.78893374676417" lon="7.470664236623613"><ele>176.0</ele><time>2026-04-21T09:02:11.001Z</time></trkpt><trkpt lat="43.78908130346696" lon="7.470907022481439"><ele>176.0</ele><time>2026-04-21T09:02:12.001Z</time></trkpt><trkpt lat="43.78923259619236" lon="7.471155481418924"><ele>176.0</ele><time>2026-04-21T09:02:13.001Z</time></trkpt><trkpt lat="43.789386448960514" lon="7.47140540476738"><ele>187.0</ele><time>2026-04-21T09:02:14.001Z</time></trkpt><trkpt lat="43.78953710483502" lon="7.471648444850866"><ele>198.0</ele><time>2026-04-21T09:02:15.001Z</time></trkpt><trkpt lat="43.78968596617717" lon="7.47189488014162"><ele>192.0</ele><time>2026-04-21T09:02:16.001Z</time></trkpt><trkpt lat="43.789840848081255" lon="7.472135967586355"><ele>186.0</ele><time>2026-04-21T09:02:17.001Z</time></trkpt><trkpt lat="43.789999483549565" lon="7.47237626681926"><ele>186.0</ele><time>2026-04-21T09:02:18.001Z</time></trkpt><trkpt lat="43.7901586491763" lon="7.472619206418344"><ele>186.0</ele><time>2026-04-21T09:02:19.001Z</time></trkpt><trkpt lat="43.79031833812763" lon="7.472864728276326"><ele>176.0</ele><time>2026-04-21T09:02:20.001Z</time></trkpt><trkpt lat="43.790482617804614" lon="7.4731070390197765"><ele>166.0</ele><time>2026-04-21T09:02:21.001Z</time></trkpt><trkpt lat="43.79064432266109" lon="7.473349730812898"><ele>166.0</ele><time>2026-04-21T09:02:22.001Z</time></trkpt><trkpt lat="43.7908079505856" lon="7.473586600728843"><ele>166.0</ele><time>2026-04-21T09:02:23.001Z</time></trkpt><trkpt lat="43.79097574090393" lon="7.473805941327856"><ele>176.33333333333334</ele><time>2026-04-21T09:02:24.001Z</time></trkpt><trkpt lat="43.791147083434744" lon="7.474010135572266"><ele>186.66666666666669</ele><time>2026-04-21T09:02:25.001Z</time></trkpt><trkpt lat="43.79132079241957" lon="7.474199950693347"><ele>197.0</ele><time>2026-04-21T09:02:26.001Z</time></trkpt><trkpt lat="43.791493852064214" lon="7.474377405629237"><ele>197.0</ele><time>2026-04-21T09:02:27.001Z</time></trkpt><trkpt lat="43.79167534864356" lon="7.474549854142526"><ele>197.0</ele><time>2026-04-21T09:02:28.001Z</time></trkpt><trkpt lat="43.79186786375693" lon="7.47471549732948"><ele>197.0</ele><time>2026-04-21T09:02:29.001Z</time></trkpt><trkpt lat="43.79206823285279" lon="7.4748726691184535"><ele>194.0</ele><time>2026-04-21T09:02:30.001Z</time></trkpt><trkpt lat="43.792273201915386" lon="7.475020854882689"><ele>191.0</ele><time>2026-04-21T09:02:31.001Z</time></trkpt><trkpt lat="43.79249122023068" lon="7.475160752399813"><ele>188.0</ele><time>2026-04-21T09:02:32.001Z</time></trkpt><trkpt lat="43.79272010929931" lon="7.475292156754416"><ele>185.0</ele><time>2026-04-21T09:02:33.001Z</time></trkpt><trkpt lat="43.79292673104444" lon="7.475411618519839"><ele>175.5</ele><time>2026-04-21T09:02:34.001Z</time></trkpt><trkpt lat="43.79315214899552" lon="7.475496041687555"><ele>166.0</ele><time>2026-04-21T09:02:35.001Z</time></trkpt><trkpt lat="43.793381276534994" lon="7.475580064537884"><ele>165.0</ele><time>2026-04-21T09:02:36.001Z</time></trkpt><trkpt lat="43.793619541057275" lon="7.4756505368264135"><ele>164.0</ele><time>2026-04-21T09:02:37.001Z</time></trkpt><trkpt lat="43.79385438038267" lon="7.475716323802194"><ele>164.0</ele><time>2026-04-21T09:02:38.001Z</time></trkpt><trkpt lat="43.794078125022466" lon="7.4757862014901795"><ele>164.0</ele><time>2026-04-21T09:02:39.001Z</time></trkpt><trkpt lat="43.794298950370546" lon="7.475864375050412"><ele>166.5</ele><time>2026-04-21T09:02:40.001Z</time></trkpt><trkpt lat="43.79451585469027" lon="7.47596170567689"><ele>169.0</ele><time>2026-04-21T09:02:41.001Z</time></trkpt><trkpt lat="43.794722386922494" lon="7.476076437638502"><ele>169.0</ele><time>2026-04-21T09:02:42.001Z</time></trkpt><trkpt lat="43.794916104549245" lon="7.476212641040249"><ele>169.0</ele><time>2026-04-21T09:02:43.001Z</time></trkpt><trkpt lat="43.79509661554828" lon="7.4763598877339765"><ele>169.0</ele><time>2026-04-21T09:02:44.001Z</time></trkpt><trkpt lat="43.79527143353305" lon="7.476525857083081"><ele>167.0</ele><time>2026-04-21T09:02:45.001Z</time></trkpt><trkpt lat="43.795443382062516" lon="7.4767172909309645"><ele>165.0</ele><time>2026-04-21T09:02:46.001Z</time></trkpt><trkpt lat="43.79560557431333" lon="7.476932995027506"><ele>163.0</ele><time>2026-04-21T09:02:47.001Z</time></trkpt><trkpt lat="43.79575859525076" lon="7.477162580305787"><ele>163.0</ele><time>2026-04-21T09:02:48.001Z</time></trkpt><trkpt lat="43.79589926583709" lon="7.477410446267137"><ele>163.0</ele><time>2026-04-21T09:02:49.001Z</time></trkpt><trkpt lat="43.796032310986256" lon="7.477678731873016"><ele>157.5</ele><time>2026-04-21T09:02:50.001Z</time></trkpt><trkpt lat="43.79615284018742" lon="7.47796216334799"><ele>152.0</ele><time>2026-04-21T09:02:51.001Z</time></trkpt><trkpt lat="43.79625923018083" lon="7.4782457806115215"><ele>152.0</ele><time>2026-04-21T09:02:52.001Z</time></trkpt><trkpt lat="43.796355738357846" lon="7.478539065859052"><ele>152.0</ele><time>2026-04-21T09:02:53.001Z</time></trkpt><trkpt lat="43.79644323983102" lon="7.478839037507099"><ele>142.0</ele><time>2026-04-21T09:02:54.001Z</time></trkpt><trkpt lat="43.79652064038523" lon="7.479142398814695"><ele>132.0</ele><time>2026-04-21T09:02:55.001Z</time></trkpt><trkpt lat="43.796590414002374" lon="7.479451766240914"><ele>121.0</ele><time>2026-04-21T09:02:56.001Z</time></trkpt><trkpt lat="43.79665792796932" lon="7.4797655115955255"><ele>110.0</ele><time>2026-04-21T09:02:57.001Z</time></trkpt><trkpt lat="43.79671745649735" lon="7.480059073492128"><ele>110.0</ele><time>2026-04-21T09:02:58.001Z</time></trkpt><trkpt lat="43.79677715636451" lon="7.480352102435545"><ele>110.0</ele><time>2026-04-21T09:02:59.001Z</time></trkpt><trkpt lat="43.79683478604033" lon="7.480651883056037"><ele>110.0</ele><time>2026-04-21T09:03:00.001Z</time></trkpt><trkpt lat="43.796891114343566" lon="7.480949039211087"><ele>126.5</ele><time>2026-04-21T09:03:01.001Z</time></trkpt><trkpt lat="43.79694575300577" lon="7.481263383356695"><ele>143.0</ele><time>2026-04-21T09:03:02.001Z</time></trkpt><trkpt lat="43.796989723279424" lon="7.48158904083848"><ele>149.0</ele><time>2026-04-21T09:03:03.001Z</time></trkpt><trkpt lat="43.79702792853169" lon="7.481921807619343"><ele>155.0</ele><time>2026-04-21T09:03:04.001Z</time></trkpt><trkpt lat="43.79706074791548" lon="7.482257997440589"><ele>155.0</ele><time>2026-04-21T09:03:05.001Z</time></trkpt><trkpt lat="43.79708911845598" lon="7.4825933804443885"><ele>155.0</ele><time>2026-04-21T09:03:06.001Z</time></trkpt><trkpt lat="43.79710999702614" lon="7.482931803560881"><ele>150.0</ele><time>2026-04-21T09:03:07.001Z</time></trkpt><trkpt lat="43.797129467907084" lon="7.483264106269326"><ele>145.0</ele><time>2026-04-21T09:03:08.001Z</time></trkpt><trkpt lat="43.79714982723009" lon="7.4835800653691305"><ele>141.5</ele><time>2026-04-21T09:03:09.001Z</time></trkpt><trkpt lat="43.7971659377492" lon="7.483903096756119"><ele>138.0</ele><time>2026-04-21T09:03:10.001Z</time></trkpt><trkpt lat="43.797175888932394" lon="7.484228224968752"><ele>138.0</ele><time>2026-04-21T09:03:11.001Z</time></trkpt><trkpt lat="43.79718107383066" lon="7.484558516035198"><ele>138.0</ele><time>2026-04-21T09:03:12.001Z</time></trkpt><trkpt lat="43.797185227489855" lon="7.484892586294892"><ele>136.0</ele><time>2026-04-21T09:03:13.001Z</time></trkpt><trkpt lat="43.7971857548974" lon="7.485229237838792"><ele>134.0</ele><time>2026-04-21T09:03:14.001Z</time></trkpt><trkpt lat="43.79718237652745" lon="7.485565770769274"><ele>131.0</ele><time>2026-04-21T09:03:15.001Z</time></trkpt><trkpt lat="43.797175565957595" lon="7.48590031336162"><ele>128.0</ele><time>2026-04-21T09:03:16.001Z</time></trkpt><trkpt lat="43.797159775312814" lon="7.486229588953254"><ele>124.0</ele><time>2026-04-21T09:03:17.001Z</time></trkpt><trkpt lat="43.79713874907585" lon="7.486549231303471"><ele>120.0</ele><time>2026-04-21T09:03:18.001Z</time></trkpt><trkpt lat="43.79711921774721" lon="7.48688114734652"><ele>114.5</ele><time>2026-04-21T09:03:19.001Z</time></trkpt><trkpt lat="43.797097276553664" lon="7.4872115349976"><ele>109.0</ele><time>2026-04-21T09:03:20.001Z</time></trkpt><trkpt lat="43.797067146046786" lon="7.487544605717999"><ele>109.0</ele><time>2026-04-21T09:03:21.001Z</time></trkpt><trkpt lat="43.79702974469729" lon="7.4878781179508085"><ele>109.0</ele><time>2026-04-21T09:03:22.001Z</time></trkpt><trkpt lat="43.79699048746906" lon="7.488213516467351"><ele>100.5</ele><time>2026-04-21T09:03:23.001Z</time></trkpt><trkpt lat="43.796951022596915" lon="7.488547296665413"><ele>92.0</ele><time>2026-04-21T09:03:24.001Z</time></trkpt><trkpt lat="43.79690448145497" lon="7.488875201207935"><ele>83.0</ele><time>2026-04-21T09:03:25.001Z</time></trkpt><trkpt lat="43.79685194088877" lon="7.4892050538998305"><ele>74.0</ele><time>2026-04-21T09:03:26.001Z</time></trkpt><trkpt lat="43.79679796068816" lon="7.489518184234545"><ele>70.0</ele><time>2026-04-21T09:03:27.001Z</time></trkpt><trkpt lat="43.79673686121785" lon="7.489823768158996"><ele>66.0</ele><time>2026-04-21T09:03:28.001Z</time></trkpt><trkpt lat="43.79666860996614" lon="7.490121574246598"><ele>66.0</ele><time>2026-04-21T09:03:29.001Z</time></trkpt><trkpt lat="43.79659471168374" lon="7.490418070331649"><ele>66.0</ele><time>2026-04-21T09:03:30.001Z</time></trkpt><trkpt lat="43.79651470557072" lon="7.490708573738831"><ele>79.0</ele><time>2026-04-21T09:03:31.001Z</time></trkpt><trkpt lat="43.79643000387616" lon="7.490998882665009"><ele>92.0</ele><time>2026-04-21T09:03:32.001Z</time></trkpt><trkpt lat="43.796336114764614" lon="7.49128877855181"><ele>109.5</ele><time>2026-04-21T09:03:33.001Z</time></trkpt><trkpt lat="43.79623319698841" lon="7.4915753781583305"><ele>127.0</ele><time>2026-04-21T09:03:34.001Z</time></trkpt><trkpt lat="43.796125366777574" lon="7.491859492687678"><ele>129.0</ele><time>2026-04-21T09:03:35.001Z</time></trkpt><trkpt lat="43.79601290269316" lon="7.492143630169866"><ele>131.0</ele><time>2026-04-21T09:03:36.001Z</time></trkpt><trkpt lat="43.79589702911328" lon="7.492422806396416"><ele>131.0</ele><time>2026-04-21T09:03:37.001Z</time></trkpt><trkpt lat="43.79578337221644" lon="7.492687443373306"><ele>131.0</ele><time>2026-04-21T09:03:38.001Z</time></trkpt><trkpt lat="43.79566560320211" lon="7.492950432832881"><ele>131.0</ele><time>2026-04-21T09:03:39.001Z</time></trkpt><trkpt lat="43.795543948601406" lon="7.4932113624380206"><ele>138.0</ele><time>2026-04-21T09:03:40.001Z</time></trkpt><trkpt lat="43.795424468588465" lon="7.493472190054361"><ele>145.0</ele><time>2026-04-21T09:03:41.001Z</time></trkpt><trkpt lat="43.795305311404164" lon="7.493734741403917"><ele>152.0</ele><time>2026-04-21T09:03:42.001Z</time></trkpt><trkpt lat="43.795181896643115" lon="7.494003504332154"><ele>154.5</ele><time>2026-04-21T09:03:43.001Z</time></trkpt><trkpt lat="43.795055355562226" lon="7.494272080796847"><ele>157.0</ele><time>2026-04-21T09:03:44.001Z</time></trkpt><trkpt lat="43.79493061110245" lon="7.494545332720916"><ele>172.0</ele><time>2026-04-21T09:03:45.001Z</time></trkpt><trkpt lat="43.79480699785739" lon="7.4948214131654"><ele>187.0</ele><time>2026-04-21T09:03:46.001Z</time></trkpt><trkpt lat="43.794684006671005" lon="7.495098644172733"><ele>187.0</ele><time>2026-04-21T09:03:47.001Z</time></trkpt><trkpt lat="43.79455571015504" lon="7.495394105322752"><ele>187.0</ele><time>2026-04-21T09:03:48.061Z</time></trkpt><trkpt lat="43.793653877649945" lon="7.499091361826525"><ele>136.0</ele><time>2026-04-21T09:03:52.482Z</time></trkpt><trkpt lat="43.79352787441574" lon="7.500846077266089"><ele>138.5</ele><time>2026-04-21T09:04:05.002Z</time></trkpt><trkpt lat="43.79343231577323" lon="7.501053676066309"><ele>141.0</ele><time>2026-04-21T09:04:06.002Z</time></trkpt><trkpt lat="43.79353607427651" lon="7.5014905938729415"><ele>146.5</ele><time>2026-04-21T09:04:07.002Z</time></trkpt><trkpt lat="43.79352093619991" lon="7.501811423656368"><ele>152.0</ele><time>2026-04-21T09:04:08.002Z</time></trkpt><trkpt lat="43.79352619027229" lon="7.502130077397562"><ele>161.5</ele><time>2026-04-21T09:04:09.002Z</time></trkpt><trkpt lat="43.793520398209886" lon="7.502445702188298"><ele>171.0</ele><time>2026-04-21T09:04:10.002Z</time></trkpt><trkpt lat="43.79350675361927" lon="7.502757926054159"><ele>174.5</ele><time>2026-04-21T09:04:11.001Z</time></trkpt><trkpt lat="43.79348663351608" lon="7.503067583831938"><ele>178.0</ele><time>2026-04-21T09:04:12.001Z</time></trkpt><trkpt lat="43.79355207997119" lon="7.503400320578285"><ele>178.0</ele><time>2026-04-21T09:04:13.001Z</time></trkpt><trkpt lat="43.7935536960224" lon="7.503709158408545"><ele>178.0</ele><time>2026-04-21T09:04:14.001Z</time></trkpt><trkpt lat="43.793549576633694" lon="7.504032747104678"><ele>183.0</ele><time>2026-04-21T09:04:15.001Z</time></trkpt><trkpt lat="43.79354229150266" lon="7.504354628767981"><ele>188.0</ele><time>2026-04-21T09:04:16.001Z</time></trkpt><trkpt lat="43.79353696603675" lon="7.504682822624574"><ele>188.0</ele><time>2026-04-21T09:04:17.001Z</time></trkpt><trkpt lat="43.79352881044358" lon="7.505011610685199"><ele>188.0</ele><time>2026-04-21T09:04:18.001Z</time></trkpt><trkpt lat="43.793516278092596" lon="7.505348086418237"><ele>164.0</ele><time>2026-04-21T09:04:19.001Z</time></trkpt><trkpt lat="43.79349812444756" lon="7.505679495579425"><ele>140.0</ele><time>2026-04-21T09:04:20.001Z</time></trkpt><trkpt lat="43.793482206930584" lon="7.506002019478405"><ele>145.0</ele><time>2026-04-21T09:04:21.001Z</time></trkpt><trkpt lat="43.793462470157266" lon="7.506323584199112"><ele>150.0</ele><time>2026-04-21T09:04:22.001Z</time></trkpt><trkpt lat="43.79343954844865" lon="7.506641365656267"><ele>150.0</ele><time>2026-04-21T09:04:23.001Z</time></trkpt><trkpt lat="43.79341813751945" lon="7.506947431150305"><ele>150.0</ele><time>2026-04-21T09:04:24.001Z</time></trkpt><trkpt lat="43.79339269405203" lon="7.507252985013989"><ele>150.0</ele><time>2026-04-21T09:04:25.001Z</time></trkpt><trkpt lat="43.793363245080855" lon="7.507555302266072"><ele>158.33333333333334</ele><time>2026-04-21T09:04:26.001Z</time></trkpt><trkpt lat="43.7933353973166" lon="7.507856447280284"><ele>166.66666666666669</ele><time>2026-04-21T09:04:27.001Z</time></trkpt><trkpt lat="43.79330921422549" lon="7.5081598585044285"><ele>175.0</ele><time>2026-04-21T09:04:28.001Z</time></trkpt><trkpt lat="43.79327880158197" lon="7.5084617706038825"><ele>179.5</ele><time>2026-04-21T09:04:29.001Z</time></trkpt><trkpt lat="43.79324036719551" lon="7.5087700113746205"><ele>184.0</ele><time>2026-04-21T09:04:30.001Z</time></trkpt><trkpt lat="43.793193412998654" lon="7.509078583522404"><ele>184.0</ele><time>2026-04-21T09:04:31.001Z</time></trkpt><trkpt lat="43.79313637811164" lon="7.509390736068144"><ele>184.0</ele><time>2026-04-21T09:04:32.001Z</time></trkpt><trkpt lat="43.7930740647065" lon="7.509690244725084"><ele>184.0</ele><time>2026-04-21T09:04:33.001Z</time></trkpt><trkpt lat="43.793003415411" lon="7.509972652620411"><ele>184.0</ele><time>2026-04-21T09:04:34.001Z</time></trkpt><trkpt lat="43.7929258420876" lon="7.510263404376523"><ele>184.0</ele><time>2026-04-21T09:04:35.001Z</time></trkpt><trkpt lat="43.79283335054629" lon="7.510554800967341"><ele>184.5</ele><time>2026-04-21T09:04:36.001Z</time></trkpt><trkpt lat="43.7927372645568" lon="7.5108424130913685"><ele>185.0</ele><time>2026-04-21T09:04:37.001Z</time></trkpt><trkpt lat="43.7926284475868" lon="7.511121584181154"><ele>182.5</ele><time>2026-04-21T09:04:38.001Z</time></trkpt><trkpt lat="43.79251369684225" lon="7.511397558668208"><ele>180.0</ele><time>2026-04-21T09:04:39.001Z</time></trkpt><trkpt lat="43.79238947763907" lon="7.511665376348908"><ele>180.0</ele><time>2026-04-21T09:04:40.001Z</time></trkpt><trkpt lat="43.79225976621728" lon="7.511929600547843"><ele>180.0</ele><time>2026-04-21T09:04:41.001Z</time></trkpt><trkpt lat="43.79212443028527" lon="7.512184635491163"><ele>192.5</ele><time>2026-04-21T09:04:42.001Z</time></trkpt><trkpt lat="43.79198468285109" lon="7.512434819012918"><ele>205.0</ele><time>2026-04-21T09:04:43.001Z</time></trkpt><trkpt lat="43.791842695688224" lon="7.51267782083475"><ele>200.0</ele><time>2026-04-21T09:04:44.001Z</time></trkpt><trkpt lat="43.79169767976438" lon="7.512920495383284"><ele>195.0</ele><time>2026-04-21T09:04:45.001Z</time></trkpt><trkpt lat="43.79156016135536" lon="7.5131501066401185"><ele>190.0</ele><time>2026-04-21T09:04:46.001Z</time></trkpt><trkpt lat="43.79142037306949" lon="7.513380131741029"><ele>190.0</ele><time>2026-04-21T09:04:47.001Z</time></trkpt><trkpt lat="43.79128297034165" lon="7.513618086743715"><ele>190.0</ele><time>2026-04-21T09:04:48.001Z</time></trkpt><trkpt lat="43.791150334067076" lon="7.5138494177809605"><ele>190.0</ele><time>2026-04-21T09:04:49.001Z</time></trkpt><trkpt lat="43.79102379312217" lon="7.514089471107784"><ele>184.0</ele><time>2026-04-21T09:04:50.001Z</time></trkpt><trkpt lat="43.79090642748175" lon="7.514315031893761"><ele>178.0</ele><time>2026-04-21T09:04:51.001Z</time></trkpt><trkpt lat="43.79079607291556" lon="7.514536869089546"><ele>172.0</ele><time>2026-04-21T09:04:52.001Z</time></trkpt><trkpt lat="43.79069011306065" lon="7.514769495125247"><ele>172.0</ele><time>2026-04-21T09:04:53.001Z</time></trkpt><trkpt lat="43.79058879007343" lon="7.515011393909582"><ele>172.0</ele><time>2026-04-21T09:04:54.001Z</time></trkpt><trkpt lat="43.79049381619834" lon="7.5152657519625725"><ele>172.0</ele><time>2026-04-21T09:04:55.001Z</time></trkpt><trkpt lat="43.79040905404222" lon="7.515527813373939"><ele>177.66666666666669</ele><time>2026-04-21T09:04:56.001Z</time></trkpt><trkpt lat="43.790333021963306" lon="7.515790991662036"><ele>183.33333333333334</ele><time>2026-04-21T09:04:57.001Z</time></trkpt><trkpt lat="43.79026771864711" lon="7.516060767575563"><ele>189.0</ele><time>2026-04-21T09:04:58.001Z</time></trkpt><trkpt lat="43.79021807900769" lon="7.516347590870448"><ele>189.0</ele><time>2026-04-21T09:04:59.001Z</time></trkpt><trkpt lat="43.79018117836664" lon="7.516642992879929"><ele>189.0</ele><time>2026-04-21T09:05:00.001Z</time></trkpt><trkpt lat="43.79015214130118" lon="7.5169431399152415"><ele>189.0</ele><time>2026-04-21T09:05:01.001Z</time></trkpt><trkpt lat="43.79013604975938" lon="7.517253399276948"><ele>189.0</ele><time>2026-04-21T09:05:02.001Z</time></trkpt><trkpt lat="43.79013496930635" lon="7.517571252891342"><ele>189.0</ele><time>2026-04-21T09:05:03.001Z</time></trkpt><trkpt lat="43.79014388489297" lon="7.517893697625927"><ele>187.5</ele><time>2026-04-21T09:05:04.001Z</time></trkpt><trkpt lat="43.79016069740901" lon="7.51822120087077"><ele>186.0</ele><time>2026-04-21T09:05:05.001Z</time></trkpt><trkpt lat="43.79018456667776" lon="7.518551102278753"><ele>205.5</ele><time>2026-04-21T09:05:06.001Z</time></trkpt><trkpt lat="43.79021424487179" lon="7.518885452805557"><ele>225.0</ele><time>2026-04-21T09:05:07.001Z</time></trkpt><trkpt lat="43.79024627473101" lon="7.5192014946683905"><ele>225.0</ele><time>2026-04-21T09:05:08.001Z</time></trkpt><trkpt lat="43.79026676750366" lon="7.519520759198076"><ele>225.0</ele><time>2026-04-21T09:05:09.001Z</time></trkpt><trkpt lat="43.79028374737604" lon="7.519843759821547"><ele>231.5</ele><time>2026-04-21T09:05:10.001Z</time></trkpt><trkpt lat="43.79029915522579" lon="7.520174893741429"><ele>238.0</ele><time>2026-04-21T09:05:11.001Z</time></trkpt><trkpt lat="43.790311903025156" lon="7.5205103321463636"><ele>241.5</ele><time>2026-04-21T09:05:12.001Z</time></trkpt><trkpt lat="43.79032045204689" lon="7.520848769559147"><ele>245.0</ele><time>2026-04-21T09:05:13.001Z</time></trkpt><trkpt lat="43.790324211680336" lon="7.521177768133159"><ele>233.5</ele><time>2026-04-21T09:05:14.001Z</time></trkpt><trkpt lat="43.790318736930914" lon="7.521501113637365"><ele>222.0</ele><time>2026-04-21T09:05:15.001Z</time></trkpt><trkpt lat="43.790320652300544" lon="7.521803784247853"><ele>223.0</ele><time>2026-04-21T09:05:16.001Z</time></trkpt><trkpt lat="43.79028280590127" lon="7.522075321172791"><ele>224.0</ele><time>2026-04-21T09:05:17.001Z</time></trkpt><trkpt lat="43.79021712352775" lon="7.5223653999788525"><ele>225.0</ele><time>2026-04-21T09:05:18.001Z</time></trkpt><trkpt lat="43.79015944765733" lon="7.522666291196607"><ele>213.66666666666666</ele><time>2026-04-21T09:05:19.001Z</time></trkpt><trkpt lat="43.79009723008416" lon="7.522953237785957"><ele>202.33333333333331</ele><time>2026-04-21T09:05:20.001Z</time></trkpt><trkpt lat="43.79002869987281" lon="7.523242302679733"><ele>191.0</ele><time>2026-04-21T09:05:21.001Z</time></trkpt><trkpt lat="43.78995355552312" lon="7.523527976426837"><ele>194.0</ele><time>2026-04-21T09:05:22.001Z</time></trkpt><trkpt lat="43.78987488132066" lon="7.523813425835636"><ele>197.0</ele><time>2026-04-21T09:05:23.001Z</time></trkpt><trkpt lat="43.78979972670462" lon="7.524098532843275"><ele>200.0</ele><time>2026-04-21T09:05:24.001Z</time></trkpt><trkpt lat="43.78972697125684" lon="7.524382577193534"><ele>207.33333333333334</ele><time>2026-04-21T09:05:25.001Z</time></trkpt><trkpt lat="43.78965223551723" lon="7.524670106669399"><ele>214.66666666666669</ele><time>2026-04-21T09:05:26.001Z</time></trkpt><trkpt lat="43.78957539093122" lon="7.524952120969998"><ele>222.0</ele><time>2026-04-21T09:05:27.001Z</time></trkpt><trkpt lat="43.7895024460067" lon="7.525223450670514"><ele>230.66666666666669</ele><time>2026-04-21T09:05:28.001Z</time></trkpt><trkpt lat="43.78943546571099" lon="7.525483272180115"><ele>239.33333333333334</ele><time>2026-04-21T09:05:29.001Z</time></trkpt><trkpt lat="43.78937241669012" lon="7.525756513237897"><ele>248.0</ele><time>2026-04-21T09:05:30.001Z</time></trkpt><trkpt lat="43.789309746679486" lon="7.526037727640853"><ele>239.66666666666669</ele><time>2026-04-21T09:05:31.001Z</time></trkpt><trkpt lat="43.78924950663804" lon="7.526327385701682"><ele>231.33333333333331</ele><time>2026-04-21T09:05:32.001Z</time></trkpt><trkpt lat="43.78919226462857" lon="7.526624365303214"><ele>223.0</ele><time>2026-04-21T09:05:33.001Z</time></trkpt><trkpt lat="43.789139052425504" lon="7.526920931578514"><ele>241.66666666666666</ele><time>2026-04-21T09:05:34.001Z</time></trkpt><trkpt lat="43.78908672145374" lon="7.527213203757268"><ele>260.3333333333333</ele><time>2026-04-21T09:05:35.001Z</time></trkpt><trkpt lat="43.789034458164366" lon="7.527506366314007"><ele>279.0</ele><time>2026-04-21T09:05:36.001Z</time></trkpt><trkpt lat="43.78897233216059" lon="7.527791555181233"><ele>279.3333333333333</ele><time>2026-04-21T09:05:37.001Z</time></trkpt><trkpt lat="43.78891170996266" lon="7.528085214156489"><ele>279.66666666666663</ele><time>2026-04-21T09:05:38.001Z</time></trkpt><trkpt lat="43.78885150765095" lon="7.52838355080623"><ele>280.0</ele><time>2026-04-21T09:05:39.001Z</time></trkpt><trkpt lat="43.78878773968639" lon="7.52868358785453"><ele>287.0</ele><time>2026-04-21T09:05:40.001Z</time></trkpt><trkpt lat="43.788719635270404" lon="7.5290051714463875"><ele>294.0</ele><time>2026-04-21T09:05:41.073Z</time></trkpt><trkpt lat="43.788658719438075" lon="7.529297679492038"><ele>163.0</ele><time>2026-04-21T09:05:42.061Z</time></trkpt><trkpt lat="43.78870380538213" lon="7.532127046659016"><ele>163.0</ele><time>2026-04-21T09:05:54.001Z</time></trkpt><trkpt lat="43.78873439803391" lon="7.532353120254511"><ele>163.0</ele><time>2026-04-21T09:05:55.001Z</time></trkpt><trkpt lat="43.78879785162871" lon="7.532565952127352"><ele>163.0</ele><time>2026-04-21T09:05:56.001Z</time></trkpt><trkpt lat="43.788836048609255" lon="7.532809262427458"><ele>162.66666666666669</ele><time>2026-04-21T09:05:57.001Z</time></trkpt><trkpt lat="43.7888816531852" lon="7.533062619914782"><ele>162.33333333333334</ele><time>2026-04-21T09:05:58.001Z</time></trkpt><trkpt lat="43.78892882933197" lon="7.53331888230968"><ele>162.0</ele><time>2026-04-21T09:05:59.001Z</time></trkpt><trkpt lat="43.788966738250785" lon="7.533570285328926"><ele>173.33333333333331</ele><time>2026-04-21T09:06:00.001Z</time></trkpt><trkpt lat="43.78900388936989" lon="7.5338269507525455"><ele>184.66666666666666</ele><time>2026-04-21T09:06:01.001Z</time></trkpt><trkpt lat="43.78904160742091" lon="7.534097202865297"><ele>196.0</ele><time>2026-04-21T09:06:02.001Z</time></trkpt><trkpt lat="43.78908450762402" lon="7.534379670855079"><ele>208.33333333333331</ele><time>2026-04-21T09:06:03.001Z</time></trkpt><trkpt lat="43.789129223333" lon="7.5346756996246675"><ele>220.66666666666669</ele><time>2026-04-21T09:06:04.001Z</time></trkpt><trkpt lat="43.789172210951406" lon="7.534980904166443"><ele>233.0</ele><time>2026-04-21T09:06:05.001Z</time></trkpt><trkpt lat="43.789212758672996" lon="7.535290288139907"><ele>257.0</ele><time>2026-04-21T09:06:06.001Z</time></trkpt><trkpt lat="43.78925371951558" lon="7.535609486376821"><ele>281.0</ele><time>2026-04-21T09:06:07.001Z</time></trkpt><trkpt lat="43.7892920206592" lon="7.5359219870788845"><ele>288.0</ele><time>2026-04-21T09:06:08.001Z</time></trkpt><trkpt lat="43.78932913051728" lon="7.536230848088455"><ele>295.0</ele><time>2026-04-21T09:06:09.001Z</time></trkpt><trkpt lat="43.789367500220266" lon="7.536566718160563"><ele>338.0</ele><time>2026-04-21T09:06:10.07Z</time></trkpt><trkpt lat="43.78976184167945" lon="7.539307313989266"><ele>217.0</ele><time>2026-04-21T09:06:13.486Z</time></trkpt><trkpt lat="43.78935491906469" lon="7.544477850047114"><ele>200.5</ele><time>2026-04-21T09:06:34.002Z</time></trkpt><trkpt lat="43.78928309072825" lon="7.544790158498434"><ele>184.0</ele><time>2026-04-21T09:06:35.002Z</time></trkpt><trkpt lat="43.7890213562336" lon="7.5449740224103845"><ele>184.0</ele><time>2026-04-21T09:06:36.002Z</time></trkpt><trkpt lat="43.78907281187411" lon="7.545368467946274"><ele>184.0</ele><time>2026-04-21T09:06:37.002Z</time></trkpt><trkpt lat="43.78897993572642" lon="7.545664408934908"><ele>188.0</ele><time>2026-04-21T09:06:38.002Z</time></trkpt><trkpt lat="43.7888844338734" lon="7.545950706056918"><ele>192.0</ele><time>2026-04-21T09:06:39.002Z</time></trkpt><trkpt lat="43.788802885861806" lon="7.546267440280215"><ele>199.0</ele><time>2026-04-21T09:06:40.001Z</time></trkpt><trkpt lat="43.788711755724364" lon="7.546571147234347"><ele>206.0</ele><time>2026-04-21T09:06:41.001Z</time></trkpt><trkpt lat="43.788602025969524" lon="7.546852970711115"><ele>193.0</ele><time>2026-04-21T09:06:42.001Z</time></trkpt><trkpt lat="43.78848843427337" lon="7.547129786596112"><ele>180.0</ele><time>2026-04-21T09:06:43.001Z</time></trkpt><trkpt lat="43.788373647837965" lon="7.547402816190088"><ele>180.0</ele><time>2026-04-21T09:06:44.001Z</time></trkpt><trkpt lat="43.788256468262084" lon="7.547673362137444"><ele>180.0</ele><time>2026-04-21T09:06:45.001Z</time></trkpt><trkpt lat="43.788135023249026" lon="7.547945302299042"><ele>184.66666666666669</ele><time>2026-04-21T09:06:46.001Z</time></trkpt><trkpt lat="43.78801785020916" lon="7.548202813783055"><ele>189.33333333333334</ele><time>2026-04-21T09:06:47.001Z</time></trkpt><trkpt lat="43.787900859177675" lon="7.548460493368095"><ele>194.0</ele><time>2026-04-21T09:06:48.001Z</time></trkpt><trkpt lat="43.78779024631436" lon="7.548707507114179"><ele>201.0</ele><time>2026-04-21T09:06:49.001Z</time></trkpt><trkpt lat="43.787686078266354" lon="7.548943153313511"><ele>208.0</ele><time>2026-04-21T09:06:50.001Z</time></trkpt><trkpt lat="43.78758400325509" lon="7.549183736510858"><ele>215.0</ele><time>2026-04-21T09:06:51.001Z</time></trkpt><trkpt lat="43.787485619111095" lon="7.54943214509465"><ele>207.33333333333334</ele><time>2026-04-21T09:06:52.001Z</time></trkpt><trkpt lat="43.78739382485539" lon="7.549681796518326"><ele>199.66666666666669</ele><time>2026-04-21T09:06:53.001Z</time></trkpt><trkpt lat="43.787305044357915" lon="7.549939999216989"><ele>192.0</ele><time>2026-04-21T09:06:54.001Z</time></trkpt><trkpt lat="43.78722586490176" lon="7.5502036864623125"><ele>197.33333333333331</ele><time>2026-04-21T09:06:55.001Z</time></trkpt><trkpt lat="43.787153271586924" lon="7.550466880792139"><ele>202.66666666666666</ele><time>2026-04-21T09:06:56.001Z</time></trkpt><trkpt lat="43.787093388780875" lon="7.550726583448105"><ele>208.0</ele><time>2026-04-21T09:06:57.001Z</time></trkpt><trkpt lat="43.78704614968403" lon="7.55099745311164"><ele>209.66666666666666</ele><time>2026-04-21T09:06:58.001Z</time></trkpt><trkpt lat="43.78701087401321" lon="7.551276468193398"><ele>211.33333333333331</ele><time>2026-04-21T09:06:59.001Z</time></trkpt><trkpt lat="43.78698623669284" lon="7.551555892817768"><ele>213.0</ele><time>2026-04-21T09:07:00.001Z</time></trkpt><trkpt lat="43.78697187304794" lon="7.551823433464758"><ele>210.0</ele><time>2026-04-21T09:07:01.001Z</time></trkpt><trkpt lat="43.78696662461617" lon="7.552093447513817"><ele>207.0</ele><time>2026-04-21T09:07:02.001Z</time></trkpt><trkpt lat="43.786974952476825" lon="7.55236907669769"><ele>204.0</ele><time>2026-04-21T09:07:03.001Z</time></trkpt><trkpt lat="43.786997132352646" lon="7.552649857875903"><ele>198.33333333333334</ele><time>2026-04-21T09:07:04.001Z</time></trkpt><trkpt lat="43.78703328621626" lon="7.552934417776976"><ele>192.66666666666669</ele><time>2026-04-21T09:07:05.001Z</time></trkpt><trkpt lat="43.78708438992711" lon="7.553213242407754"><ele>187.0</ele><time>2026-04-21T09:07:06.001Z</time></trkpt><trkpt lat="43.78714623456835" lon="7.553489437857187"><ele>180.0</ele><time>2026-04-21T09:07:07.001Z</time></trkpt><trkpt lat="43.78722068724662" lon="7.553760351999346"><ele>173.0</ele><time>2026-04-21T09:07:08.001Z</time></trkpt><trkpt lat="43.787305219709374" lon="7.554020038149389"><ele>166.0</ele><time>2026-04-21T09:07:09.001Z</time></trkpt><trkpt lat="43.78739152875045" lon="7.554285426422915"><ele>171.66666666666669</ele><time>2026-04-21T09:07:10.001Z</time></trkpt><trkpt lat="43.78751817948088" lon="7.554540665878512"><ele>177.33333333333334</ele><time>2026-04-21T09:07:11.001Z</time></trkpt><trkpt lat="43.78763056085125" lon="7.554786888676498"><ele>183.0</ele><time>2026-04-21T09:07:12.001Z</time></trkpt><trkpt lat="43.78776346887065" lon="7.555020581666682"><ele>183.0</ele><time>2026-04-21T09:07:13.001Z</time></trkpt><trkpt lat="43.78791387178756" lon="7.555243640726391"><ele>183.0</ele><time>2026-04-21T09:07:14.001Z</time></trkpt><trkpt lat="43.788075128104666" lon="7.55545951797348"><ele>183.0</ele><time>2026-04-21T09:07:15.001Z</time></trkpt><trkpt lat="43.78824144279775" lon="7.555651319146961"><ele>184.0</ele><time>2026-04-21T09:07:16.001Z</time></trkpt><trkpt lat="43.78841855110645" lon="7.555830246620455"><ele>185.0</ele><time>2026-04-21T09:07:17.001Z</time></trkpt><trkpt lat="43.7886041885002" lon="7.555991172098601"><ele>186.0</ele><time>2026-04-21T09:07:18.001Z</time></trkpt><trkpt lat="43.78879915208297" lon="7.556143874469926"><ele>167.0</ele><time>2026-04-21T09:07:19.001Z</time></trkpt><trkpt lat="43.78899850251971" lon="7.556288074113618"><ele>148.0</ele><time>2026-04-21T09:07:20.001Z</time></trkpt><trkpt lat="43.78920706106303" lon="7.556405513107082"><ele>150.0</ele><time>2026-04-21T09:07:21.001Z</time></trkpt><trkpt lat="43.78942304371294" lon="7.556501541371694"><ele>152.0</ele><time>2026-04-21T09:07:22.001Z</time></trkpt><trkpt lat="43.7896484866993" lon="7.556584023255797"><ele>152.0</ele><time>2026-04-21T09:07:23.001Z</time></trkpt><trkpt lat="43.78987596891365" lon="7.556651887097852"><ele>152.0</ele><time>2026-04-21T09:07:24.001Z</time></trkpt><trkpt lat="43.79011520682594" lon="7.556717755866596"><ele>159.5</ele><time>2026-04-21T09:07:25.001Z</time></trkpt><trkpt lat="43.79036271122638" lon="7.556778884935098"><ele>167.0</ele><time>2026-04-21T09:07:26.001Z</time></trkpt><trkpt lat="43.790598497361216" lon="7.556838034706088"><ele>167.0</ele><time>2026-04-21T09:07:27.001Z</time></trkpt><trkpt lat="43.7908283518023" lon="7.556892542009186"><ele>167.0</ele><time>2026-04-21T09:07:28.001Z</time></trkpt><trkpt lat="43.79106035799365" lon="7.556948229631719"><ele>175.0</ele><time>2026-04-21T09:07:29.001Z</time></trkpt><trkpt lat="43.79129549054765" lon="7.557003677209803"><ele>183.0</ele><time>2026-04-21T09:07:30.001Z</time></trkpt><trkpt lat="43.79153525930928" lon="7.55705677588303"><ele>183.0</ele><time>2026-04-21T09:07:31.001Z</time></trkpt><trkpt lat="43.791779514070214" lon="7.557110269719829"><ele>183.0</ele><time>2026-04-21T09:07:32.001Z</time></trkpt><trkpt lat="43.79202875452967" lon="7.557168169809735"><ele>186.0</ele><time>2026-04-21T09:07:33.001Z</time></trkpt><trkpt lat="43.79227944623593" lon="7.557234259264432"><ele>189.0</ele><time>2026-04-21T09:07:34.001Z</time></trkpt><trkpt lat="43.79254473146674" lon="7.557310104969576"><ele>185.0</ele><time>2026-04-21T09:07:35.06Z</time></trkpt><trkpt lat="43.79278631450032" lon="7.557374567340581"><ele>181.0</ele><time>2026-04-21T09:07:36.062Z</time></trkpt><trkpt lat="43.79301683166722" lon="7.557471031736644"><ele>133.0</ele><time>2026-04-21T09:07:37.062Z</time></trkpt><trkpt lat="43.79405250960072" lon="7.558076949344732"><ele>133.0</ele><time>2026-04-21T09:07:42.001Z</time></trkpt><trkpt lat="43.794269838112896" lon="7.558200444050276"><ele>133.0</ele><time>2026-04-21T09:07:43.001Z</time></trkpt><trkpt lat="43.79448820435593" lon="7.558360953140457"><ele>141.0</ele><time>2026-04-21T09:07:44.001Z</time></trkpt><trkpt lat="43.794702991873734" lon="7.558515379969299"><ele>149.0</ele><time>2026-04-21T09:07:45.001Z</time></trkpt><trkpt lat="43.794915856405815" lon="7.5586498139424405"><ele>138.5</ele><time>2026-04-21T09:07:46.001Z</time></trkpt><trkpt lat="43.79512638269851" lon="7.558789720878371"><ele>128.0</ele><time>2026-04-21T09:07:47.001Z</time></trkpt><trkpt lat="43.795316067416515" lon="7.558944907882714"><ele>128.0</ele><time>2026-04-21T09:07:48.001Z</time></trkpt><trkpt lat="43.79551183206845" lon="7.559082777645858"><ele>128.0</ele><time>2026-04-21T09:07:49.001Z</time></trkpt><trkpt lat="43.79572324531799" lon="7.559222952315318"><ele>128.0</ele><time>2026-04-21T09:07:50.001Z</time></trkpt><trkpt lat="43.79593755754849" lon="7.559362879736902"><ele>128.0</ele><time>2026-04-21T09:07:51.001Z</time></trkpt><trkpt lat="43.796148112676875" lon="7.559499641309219"><ele>114.0</ele><time>2026-04-21T09:07:52.001Z</time></trkpt><trkpt lat="43.7963491700153" lon="7.559637628853346"><ele>100.0</ele><time>2026-04-21T09:07:53.001Z</time></trkpt><trkpt lat="43.79655279801496" lon="7.559781193926384"><ele>100.0</ele><time>2026-04-21T09:07:54.001Z</time></trkpt><trkpt lat="43.79675592777116" lon="7.559930885262495"><ele>100.0</ele><time>2026-04-21T09:07:55.001Z</time></trkpt><trkpt lat="43.79695499255592" lon="7.560094630697979"><ele>82.0</ele><time>2026-04-21T09:07:56.001Z</time></trkpt><trkpt lat="43.79715472329741" lon="7.560269544827076"><ele>64.0</ele><time>2026-04-21T09:07:57.001Z</time></trkpt><trkpt lat="43.797351694974324" lon="7.560463395479275"><ele>64.0</ele><time>2026-04-21T09:07:58.001Z</time></trkpt><trkpt lat="43.79753988059249" lon="7.560662254410641"><ele>64.0</ele><time>2026-04-21T09:07:59.001Z</time></trkpt><trkpt lat="43.797724087174664" lon="7.560880940638629"><ele>54.5</ele><time>2026-04-21T09:08:00.001Z</time></trkpt><trkpt lat="43.797901816095745" lon="7.561120025353931"><ele>45.0</ele><time>2026-04-21T09:08:01.001Z</time></trkpt><trkpt lat="43.79806675853985" lon="7.561376258730564"><ele>41.5</ele><time>2026-04-21T09:08:02.001Z</time></trkpt><trkpt lat="43.798224890041006" lon="7.561651196607375"><ele>38.0</ele><time>2026-04-21T09:08:03.001Z</time></trkpt><trkpt lat="43.79836669676917" lon="7.561944026692404"><ele>38.0</ele><time>2026-04-21T09:08:04.001Z</time></trkpt><trkpt lat="43.79849751505226" lon="7.562253651261426"><ele>38.0</ele><time>2026-04-21T09:08:05.001Z</time></trkpt><trkpt lat="43.798622527849034" lon="7.562575015892401"><ele>42.0</ele><time>2026-04-21T09:08:06.001Z</time></trkpt><trkpt lat="43.79873086919827" lon="7.562893874548178"><ele>46.0</ele><time>2026-04-21T09:08:07.001Z</time></trkpt><trkpt lat="43.79882390387682" lon="7.563217301423217"><ele>46.0</ele><time>2026-04-21T09:08:08.001Z</time></trkpt><trkpt lat="43.7989043624904" lon="7.5635369656902"><ele>46.0</ele><time>2026-04-21T09:08:09.001Z</time></trkpt><trkpt lat="43.79897032130224" lon="7.5638600614072695"><ele>60.0</ele><time>2026-04-21T09:08:10.001Z</time></trkpt><trkpt lat="43.79902019088949" lon="7.564175392169399"><ele>74.0</ele><time>2026-04-21T09:08:11.001Z</time></trkpt><trkpt lat="43.799054653268215" lon="7.56448882834284"><ele>82.0</ele><time>2026-04-21T09:08:12.001Z</time></trkpt><trkpt lat="43.799073566206914" lon="7.5647998931581055"><ele>90.0</ele><time>2026-04-21T09:08:13.001Z</time></trkpt><trkpt lat="43.79908822771124" lon="7.565116661894948"><ele>93.0</ele><time>2026-04-21T09:08:14.001Z</time></trkpt><trkpt lat="43.79908730617176" lon="7.5654412121212475"><ele>96.0</ele><time>2026-04-21T09:08:15.001Z</time></trkpt><trkpt lat="43.79907665470513" lon="7.56574971023933"><ele>96.0</ele><time>2026-04-21T09:08:16.001Z</time></trkpt><trkpt lat="43.79905093356134" lon="7.566068668492414"><ele>96.0</ele><time>2026-04-21T09:08:17.001Z</time></trkpt><trkpt lat="43.79901426929564" lon="7.566401383248914"><ele>101.0</ele><time>2026-04-21T09:08:18.001Z</time></trkpt><trkpt lat="43.79896161467779" lon="7.566744692746343"><ele>106.0</ele><time>2026-04-21T09:08:19.001Z</time></trkpt><trkpt lat="43.79890547262551" lon="7.567101612805168"><ele>117.0</ele><time>2026-04-21T09:08:20.001Z</time></trkpt><trkpt lat="43.798859838533055" lon="7.567450334914909"><ele>128.0</ele><time>2026-04-21T09:08:21.001Z</time></trkpt><trkpt lat="43.798789091604064" lon="7.567783668019424"><ele>139.5</ele><time>2026-04-21T09:08:22.001Z</time></trkpt><trkpt lat="43.79868111569099" lon="7.568095907622679"><ele>151.0</ele><time>2026-04-21T09:08:23.001Z</time></trkpt><trkpt lat="43.79856394109035" lon="7.568411651136868"><ele>140.0</ele><time>2026-04-21T09:08:24.001Z</time></trkpt><trkpt lat="43.79843612553027" lon="7.568719850934239"><ele>129.0</ele><time>2026-04-21T09:08:25.058Z</time></trkpt><trkpt lat="43.79830496366127" lon="7.569031115560415"><ele>76.0</ele><time>2026-04-21T09:08:26.056Z</time></trkpt><trkpt lat="43.797636346344696" lon="7.57049247878714"><ele>76.0</ele><time>2026-04-21T09:08:32.001Z</time></trkpt><trkpt lat="43.79751142830827" lon="7.57077173789052"><ele>76.0</ele><time>2026-04-21T09:08:33.001Z</time></trkpt><trkpt lat="43.797370581428964" lon="7.571031549763989"><ele>81.33333333333333</ele><time>2026-04-21T09:08:34.001Z</time></trkpt><trkpt lat="43.79725939793938" lon="7.571277598628699"><ele>86.66666666666667</ele><time>2026-04-21T09:08:35.001Z</time></trkpt><trkpt lat="43.7971587436817" lon="7.571541916026746"><ele>92.0</ele><time>2026-04-21T09:08:36.001Z</time></trkpt><trkpt lat="43.79704909620418" lon="7.571837003620903"><ele>99.0</ele><time>2026-04-21T09:08:37.001Z</time></trkpt><trkpt lat="43.796966548656606" lon="7.572146773574826"><ele>106.0</ele><time>2026-04-21T09:08:38.001Z</time></trkpt><trkpt lat="43.79687578488091" lon="7.572456256886388"><ele>103.5</ele><time>2026-04-21T09:08:39.001Z</time></trkpt><trkpt lat="43.79677943290301" lon="7.572771362132729"><ele>101.0</ele><time>2026-04-21T09:08:40.001Z</time></trkpt><trkpt lat="43.79669439036972" lon="7.573098783688258"><ele>101.0</ele><time>2026-04-21T09:08:41.001Z</time></trkpt><trkpt lat="43.796619634835736" lon="7.573436535743895"><ele>101.0</ele><time>2026-04-21T09:08:42.001Z</time></trkpt><trkpt lat="43.79655854670622" lon="7.573782956578564"><ele>113.0</ele><time>2026-04-21T09:08:43.001Z</time></trkpt><trkpt lat="43.79650628598434" lon="7.5741292562847455"><ele>125.0</ele><time>2026-04-21T09:08:44.001Z</time></trkpt><trkpt lat="43.79645023659145" lon="7.574464600259073"><ele>135.5</ele><time>2026-04-21T09:08:45.001Z</time></trkpt><trkpt lat="43.7964032199093" lon="7.574836970033526"><ele>146.0</ele><time>2026-04-21T09:08:46.063Z</time></trkpt><trkpt lat="43.79636361288574" lon="7.57520679119879"><ele>152.0</ele><time>2026-04-21T09:08:47.066Z</time></trkpt><trkpt lat="43.79633459503639" lon="7.575581301680775"><ele>158.0</ele><time>2026-04-21T09:08:48.067Z</time></trkpt><trkpt lat="43.799403724655875" lon="7.591145869254443"><ele>112.66666666666666</ele><time>2026-04-21T09:09:35.001Z</time></trkpt><trkpt lat="43.79946020247036" lon="7.5913908550413645"><ele>67.33333333333333</ele><time>2026-04-21T09:09:36.001Z</time></trkpt><trkpt lat="43.79956766055277" lon="7.591656553921546"><ele>22.0</ele><time>2026-04-21T09:09:37.001Z</time></trkpt><trkpt lat="43.7995933206334" lon="7.591847852868811"><ele>22.25</ele><time>2026-04-21T09:09:38.001Z</time></trkpt><trkpt lat="43.79964335147577" lon="7.59202394174769"><ele>22.5</ele><time>2026-04-21T09:09:39.001Z</time></trkpt><trkpt lat="43.79968258735966" lon="7.592152112270151"><ele>22.75</ele><time>2026-04-21T09:09:40.001Z</time></trkpt><trkpt lat="43.79971884351353" lon="7.592323387119761"><ele>23.0</ele><time>2026-04-21T09:09:41.001Z</time></trkpt><trkpt lat="43.79974339603945" lon="7.592492345509155"><ele>23.0</ele><time>2026-04-21T09:09:42.001Z</time></trkpt><trkpt lat="43.7997613552656" lon="7.592640121472017"><ele>23.0</ele><time>2026-04-21T09:09:43.001Z</time></trkpt><trkpt lat="43.79979122990058" lon="7.592780551312446"><ele>23.0</ele><time>2026-04-21T09:09:44.001Z</time></trkpt><trkpt lat="43.799832651994045" lon="7.5929336114703485"><ele>23.0</ele><time>2026-04-21T09:09:45.001Z</time></trkpt><trkpt lat="43.79987697036329" lon="7.593078636599642"><ele>23.0</ele><time>2026-04-21T09:09:46.001Z</time></trkpt><trkpt lat="43.799912270576556" lon="7.593206208082237"><ele>23.333333333333336</ele><time>2026-04-21T09:09:47.001Z</time></trkpt><trkpt lat="43.79993498676323" lon="7.593303763777478"><ele>23.666666666666668</ele><time>2026-04-21T09:09:49.001Z</time></trkpt><trkpt lat="43.79996790917208" lon="7.593425752641185"><ele>24.0</ele><time>2026-04-21T09:09:54.001Z</time></trkpt><trkpt lat="43.79998471699379" lon="7.593526331505159"><ele>24.333333333333336</ele><time>2026-04-21T09:09:58.001Z</time></trkpt><trkpt lat="43.80001685866697" lon="7.593609677354045"><ele>24.666666666666668</ele><time>2026-04-21T09:10:16.001Z</time></trkpt><trkpt lat="43.800038706187244" lon="7.593696952227323"><ele>25.0</ele><time>2026-04-21T09:10:22.001Z</time></trkpt><trkpt lat="43.80004396936245" lon="7.5937990858373405"><ele>25.0</ele><time>2026-04-21T09:10:31.001Z</time></trkpt><trkpt lat="43.80009498987621" lon="7.594006094138729"><ele>25.0</ele><time>2026-04-21T09:10:33.001Z</time></trkpt><trkpt lat="43.80012729633329" lon="7.594139454955046"><ele>25.0</ele><time>2026-04-21T09:10:34.001Z</time></trkpt><trkpt lat="43.80017283100349" lon="7.594293701588493"><ele>25.0</ele><time>2026-04-21T09:10:35.001Z</time></trkpt><trkpt lat="43.80023341679778" lon="7.594483513353242"><ele>23.666666666666668</ele><time>2026-04-21T09:10:36.001Z</time></trkpt><trkpt lat="43.80029464034763" lon="7.594677742131977"><ele>22.333333333333336</ele><time>2026-04-21T09:10:37.001Z</time></trkpt><trkpt lat="43.80036265617462" lon="7.594894737984272"><ele>21.0</ele><time>2026-04-21T09:10:38.001Z</time></trkpt><trkpt lat="43.80045083584677" lon="7.595131136459276"><ele>18.666666666666668</ele><time>2026-04-21T09:10:39.001Z</time></trkpt><trkpt lat="43.80053481258378" lon="7.595355329670404"><ele>16.333333333333336</ele><time>2026-04-21T09:10:40.001Z</time></trkpt><trkpt lat="43.800612535067444" lon="7.5955916493653035"><ele>14.0</ele><time>2026-04-21T09:10:41.001Z</time></trkpt><trkpt lat="43.80068382130161" lon="7.59582234449317"><ele>14.0</ele><time>2026-04-21T09:10:42.001Z</time></trkpt><trkpt lat="43.800748581050755" lon="7.596062633574834"><ele>14.0</ele><time>2026-04-21T09:10:43.001Z</time></trkpt><trkpt lat="43.80081120190152" lon="7.5963072589465845"><ele>14.0</ele><time>2026-04-21T09:10:44.001Z</time></trkpt><trkpt lat="43.800871490625724" lon="7.596534533375809"><ele>13.333333333333334</ele><time>2026-04-21T09:10:45.001Z</time></trkpt><trkpt lat="43.800929360350665" lon="7.596749089622156"><ele>12.666666666666668</ele><time>2026-04-21T09:10:46.001Z</time></trkpt><trkpt lat="43.80098076476117" lon="7.5969517411913134"><ele>12.0</ele><time>2026-04-21T09:10:47.001Z</time></trkpt><trkpt lat="43.80102379938745" lon="7.5971510900185635"><ele>12.0</ele><time>2026-04-21T09:10:48.001Z</time></trkpt><trkpt lat="43.801072313534135" lon="7.597337868957731"><ele>12.0</ele><time>2026-04-21T09:10:49.001Z</time></trkpt><trkpt lat="43.8011278587068" lon="7.597540613390566"><ele>12.0</ele><time>2026-04-21T09:10:50.001Z</time></trkpt><trkpt lat="43.801182475566826" lon="7.5977725016522335"><ele>12.666666666666668</ele><time>2026-04-21T09:10:51.001Z</time></trkpt><trkpt lat="43.80124023041038" lon="7.598034067622859"><ele>13.333333333333334</ele><time>2026-04-21T09:10:52.001Z</time></trkpt><trkpt lat="43.80130478545042" lon="7.598293167952791"><ele>14.0</ele><time>2026-04-21T09:10:53.001Z</time></trkpt><trkpt lat="43.80136371277904" lon="7.59853861558563"><ele>14.666666666666668</ele><time>2026-04-21T09:10:54.001Z</time></trkpt><trkpt lat="43.80141887665937" lon="7.598770068945974"><ele>15.333333333333332</ele><time>2026-04-21T09:10:55.001Z</time></trkpt><trkpt lat="43.80147820056497" lon="7.599013439640564"><ele>16.0</ele><time>2026-04-21T09:10:56.001Z</time></trkpt><trkpt lat="43.801535730048634" lon="7.599255827688268"><ele>28.0</ele><time>2026-04-21T09:10:57.001Z</time></trkpt><trkpt lat="43.80159341701057" lon="7.5995070901404915"><ele>40.0</ele><time>2026-04-21T09:10:58.001Z</time></trkpt><trkpt lat="43.80164987274542" lon="7.5997652557311755"><ele>52.0</ele><time>2026-04-21T09:10:59.001Z</time></trkpt><trkpt lat="43.80170831210508" lon="7.6000397413723775"><ele>52.0</ele><time>2026-04-21T09:11:00.001Z</time></trkpt><trkpt lat="43.80176064269709" lon="7.600324494678754"><ele>52.0</ele><time>2026-04-21T09:11:01.001Z</time></trkpt><trkpt lat="43.801814459284756" lon="7.600607331590635"><ele>52.0</ele><time>2026-04-21T09:11:02.001Z</time></trkpt><trkpt lat="43.80186577810737" lon="7.600889675455731"><ele>96.0</ele><time>2026-04-21T09:11:03.001Z</time></trkpt><trkpt lat="43.80191876457757" lon="7.601180924248847"><ele>140.0</ele><time>2026-04-21T09:11:04.001Z</time></trkpt><trkpt lat="43.80197121507627" lon="7.601468007675383"><ele>184.0</ele><time>2026-04-21T09:11:05.001Z</time></trkpt><trkpt lat="43.80202395527602" lon="7.6017611772432705"><ele>194.0</ele><time>2026-04-21T09:11:06.001Z</time></trkpt><trkpt lat="43.802079478330505" lon="7.602074283615146"><ele>204.0</ele><time>2026-04-21T09:11:07.067Z</time></trkpt><trkpt lat="43.80213042720346" lon="7.602367258217767"><ele>204.0</ele><time>2026-04-21T09:11:08.064Z</time></trkpt><trkpt lat="43.80218310546827" lon="7.602662024651582"><ele>204.0</ele><time>2026-04-21T09:11:09.057Z</time></trkpt><trkpt lat="43.80273596360094" lon="7.605355967994951"><ele>43.0</ele><time>2026-04-21T09:11:12.488Z</time></trkpt><trkpt lat="43.80217485418705" lon="7.623202768816414"><ele>43.0</ele><time>2026-04-21T09:12:06Z</time></trkpt><trkpt lat="43.80213790421246" lon="7.623560295236309"><ele>43.0</ele><time>2026-04-21T09:12:07Z</time></trkpt><trkpt lat="43.80210860135932" lon="7.623928976914033"><ele>40.5</ele><time>2026-04-21T09:12:08Z</time></trkpt><trkpt lat="43.802076289055904" lon="7.624290424903142"><ele>38.0</ele><time>2026-04-21T09:12:09Z</time></trkpt><trkpt lat="43.802038238957614" lon="7.62464006363118"><ele>30.5</ele><time>2026-04-21T09:12:10Z</time></trkpt><trkpt lat="43.80199802732669" lon="7.6249878432353055"><ele>23.0</ele><time>2026-04-21T09:12:11Z</time></trkpt><trkpt lat="43.801950790103675" lon="7.625328663910169"><ele>17.5</ele><time>2026-04-21T09:12:12Z</time></trkpt><trkpt lat="43.80191091925127" lon="7.625668846630347"><ele>12.0</ele><time>2026-04-21T09:12:13Z</time></trkpt><trkpt lat="43.80186912114107" lon="7.626003604294668"><ele>12.0</ele><time>2026-04-21T09:12:14Z</time></trkpt><trkpt lat="43.801823573647" lon="7.626333151104549"><ele>12.0</ele><time>2026-04-21T09:12:15Z</time></trkpt><trkpt lat="43.801780844427256" lon="7.626668164779613"><ele>13.0</ele><time>2026-04-21T09:12:16Z</time></trkpt><trkpt lat="43.80174188485433" lon="7.626998381278341"><ele>14.0</ele><time>2026-04-21T09:12:17Z</time></trkpt><trkpt lat="43.80170384546186" lon="7.627330666297778"><ele>14.0</ele><time>2026-04-21T09:12:18Z</time></trkpt><trkpt lat="43.80166549847372" lon="7.627659606364403"><ele>14.0</ele><time>2026-04-21T09:12:19Z</time></trkpt><trkpt lat="43.80162644891562" lon="7.627985917469833"><ele>14.5</ele><time>2026-04-21T09:12:20Z</time></trkpt><trkpt lat="43.801587216060746" lon="7.628313389283992"><ele>15.0</ele><time>2026-04-21T09:12:21Z</time></trkpt><trkpt lat="43.80154658427861" lon="7.628639448468187"><ele>14.5</ele><time>2026-04-21T09:12:22Z</time></trkpt><trkpt lat="43.80150545222921" lon="7.6289675976976445"><ele>14.0</ele><time>2026-04-21T09:12:23.001Z</time></trkpt><trkpt lat="43.80146470429785" lon="7.629293585273659"><ele>13.0</ele><time>2026-04-21T09:12:24.001Z</time></trkpt><trkpt lat="43.80142658619464" lon="7.6296220409883775"><ele>12.0</ele><time>2026-04-21T09:12:25.001Z</time></trkpt><trkpt lat="43.801389680956525" lon="7.6299427339677734"><ele>12.0</ele><time>2026-04-21T09:12:26.001Z</time></trkpt><trkpt lat="43.8013492401698" lon="7.630271134230249"><ele>12.0</ele><time>2026-04-21T09:12:27.001Z</time></trkpt><trkpt lat="43.80130663101691" lon="7.630596876398727"><ele>13.0</ele><time>2026-04-21T09:12:28.001Z</time></trkpt><trkpt lat="43.80126522837895" lon="7.630920648809378"><ele>14.0</ele><time>2026-04-21T09:12:29.001Z</time></trkpt><trkpt lat="43.80122237940501" lon="7.631246235001753"><ele>14.5</ele><time>2026-04-21T09:12:30.001Z</time></trkpt><trkpt lat="43.80118725142414" lon="7.631571508430475"><ele>15.0</ele><time>2026-04-21T09:12:31.001Z</time></trkpt><trkpt lat="43.801151748513966" lon="7.63189754846575"><ele>19.0</ele><time>2026-04-21T09:12:32.001Z</time></trkpt><trkpt lat="43.80111596936905" lon="7.632218293878283"><ele>23.0</ele><time>2026-04-21T09:12:33.001Z</time></trkpt><trkpt lat="43.801084964489995" lon="7.632545893068831"><ele>33.0</ele><time>2026-04-21T09:12:34.001Z</time></trkpt><trkpt lat="43.80104995242671" lon="7.632868866926075"><ele>43.0</ele><time>2026-04-21T09:12:35.001Z</time></trkpt><trkpt lat="43.80101216449354" lon="7.633188559010518"><ele>47.0</ele><time>2026-04-21T09:12:36.001Z</time></trkpt><trkpt lat="43.800968048338326" lon="7.633506907685003"><ele>51.0</ele><time>2026-04-21T09:12:37.001Z</time></trkpt><trkpt lat="43.80091951000746" lon="7.633826399503301"><ele>51.0</ele><time>2026-04-21T09:12:38.001Z</time></trkpt><trkpt lat="43.80086636234512" lon="7.634147625072975"><ele>51.0</ele><time>2026-04-21T09:12:39.001Z</time></trkpt><trkpt lat="43.800809727982845" lon="7.634464993170701"><ele>63.5</ele><time>2026-04-21T09:12:40.001Z</time></trkpt><trkpt lat="43.800753203415034" lon="7.63479087682462"><ele>76.0</ele><time>2026-04-21T09:12:41.001Z</time></trkpt><trkpt lat="43.800701868276214" lon="7.635112587724919"><ele>93.0</ele><time>2026-04-21T09:12:42.001Z</time></trkpt><trkpt lat="43.800650205469054" lon="7.635444979700723"><ele>110.0</ele><time>2026-04-21T09:12:43.001Z</time></trkpt><trkpt lat="43.8006026091321" lon="7.635731647964526"><ele>110.0</ele><time>2026-04-21T09:12:44.001Z</time></trkpt><trkpt lat="43.80055669800339" lon="7.6360212674388155"><ele>110.0</ele><time>2026-04-21T09:12:45.001Z</time></trkpt><trkpt lat="43.80050847832461" lon="7.636306206419538"><ele>110.0</ele><time>2026-04-21T09:12:46.001Z</time></trkpt><trkpt lat="43.80046023505053" lon="7.636597185793196"><ele>120.0</ele><time>2026-04-21T09:12:47.001Z</time></trkpt><trkpt lat="43.800414278284926" lon="7.636882398761838"><ele>130.0</ele><time>2026-04-21T09:12:48.001Z</time></trkpt><trkpt lat="43.80036678163159" lon="7.637183081764601"><ele>140.0</ele><time>2026-04-21T09:12:49.061Z</time></trkpt><trkpt lat="43.80032184920879" lon="7.637475593630185"><ele>151.0</ele><time>2026-04-21T09:12:50.062Z</time></trkpt><trkpt lat="43.800276178918516" lon="7.6377614874616055"><ele>162.0</ele><time>2026-04-21T09:12:51.065Z</time></trkpt><trkpt lat="43.80023066559013" lon="7.638041436270236"><ele>173.0</ele><time>2026-04-21T09:12:52.063Z</time></trkpt><trkpt lat="43.79979705492062" lon="7.6407659322082715"><ele>224.0</ele><time>2026-04-21T09:12:55.487Z</time></trkpt><trkpt lat="43.79976574150375" lon="7.642007641881268"><ele>219.0</ele><time>2026-04-21T09:12:56.487Z</time></trkpt><trkpt lat="43.79983453697912" lon="7.643242157964215"><ele>123.0</ele><time>2026-04-21T09:12:57.484Z</time></trkpt><trkpt lat="43.79999108506052" lon="7.644469013312403"><ele>67.0</ele><time>2026-04-21T09:12:58.487Z</time></trkpt><trkpt lat="43.800289099623576" lon="7.646151030122846"><ele>67.0</ele><time>2026-04-21T09:13:14.001Z</time></trkpt><trkpt lat="43.8003499265109" lon="7.646472515977028"><ele>67.0</ele><time>2026-04-21T09:13:15.001Z</time></trkpt><trkpt lat="43.80040326405735" lon="7.646797453323527"><ele>53.0</ele><time>2026-04-21T09:13:16.001Z</time></trkpt><trkpt lat="43.80045250978831" lon="7.6471196905967265"><ele>39.0</ele><time>2026-04-21T09:13:17.001Z</time></trkpt><trkpt lat="43.80050433439739" lon="7.647448146149325"><ele>39.0</ele><time>2026-04-21T09:13:18.001Z</time></trkpt><trkpt lat="43.80055529574314" lon="7.647762748956678"><ele>39.0</ele><time>2026-04-21T09:13:19.001Z</time></trkpt><trkpt lat="43.800611514203645" lon="7.648079265392323"><ele>37.0</ele><time>2026-04-21T09:13:20Z</time></trkpt><trkpt lat="43.80066487569351" lon="7.648402037129426"><ele>35.0</ele><time>2026-04-21T09:13:21Z</time></trkpt><trkpt lat="43.80072593951512" lon="7.648719861839103"><ele>35.0</ele><time>2026-04-21T09:13:22Z</time></trkpt><trkpt lat="43.80077413308372" lon="7.649039753686115"><ele>35.0</ele><time>2026-04-21T09:13:23Z</time></trkpt><trkpt lat="43.80082693218431" lon="7.64936244304867"><ele>42.5</ele><time>2026-04-21T09:13:24Z</time></trkpt><trkpt lat="43.80087354028017" lon="7.64968553532421"><ele>50.0</ele><time>2026-04-21T09:13:25Z</time></trkpt><trkpt lat="43.800919508885215" lon="7.650000810855257"><ele>58.0</ele><time>2026-04-21T09:13:26Z</time></trkpt><trkpt lat="43.8009606847795" lon="7.650327015723452"><ele>66.0</ele><time>2026-04-21T09:13:27Z</time></trkpt><trkpt lat="43.80099992502313" lon="7.650649437229254"><ele>67.5</ele><time>2026-04-21T09:13:28Z</time></trkpt><trkpt lat="43.80103446029422" lon="7.650972144555651"><ele>69.0</ele><time>2026-04-21T09:13:29Z</time></trkpt><trkpt lat="43.80105790826647" lon="7.651296386537823"><ele>81.0</ele><time>2026-04-21T09:13:30Z</time></trkpt><trkpt lat="43.80107770598187" lon="7.651617721297409"><ele>93.0</ele><time>2026-04-21T09:13:31Z</time></trkpt><trkpt lat="43.80109734274011" lon="7.651939631991816"><ele>107.5</ele><time>2026-04-21T09:13:32Z</time></trkpt><trkpt lat="43.80111153221267" lon="7.652262228136584"><ele>122.0</ele><time>2026-04-21T09:13:33Z</time></trkpt><trkpt lat="43.80112013880259" lon="7.652584444202361"><ele>133.0</ele><time>2026-04-21T09:13:34Z</time></trkpt><trkpt lat="43.801126265420514" lon="7.652904718179266"><ele>144.0</ele><time>2026-04-21T09:13:35Z</time></trkpt><trkpt lat="43.80112876369593" lon="7.6532275499306115"><ele>144.0</ele><time>2026-04-21T09:13:36Z</time></trkpt><trkpt lat="43.801134805850545" lon="7.653548417757099"><ele>144.0</ele><time>2026-04-21T09:13:37Z</time></trkpt><trkpt lat="43.80114010453642" lon="7.653870155210974"><ele>148.5</ele><time>2026-04-21T09:13:38Z</time></trkpt><trkpt lat="43.801144941576275" lon="7.654194333484938"><ele>153.0</ele><time>2026-04-21T09:13:39Z</time></trkpt><trkpt lat="43.80115380620629" lon="7.654537015115421"><ele>160.5</ele><time>2026-04-21T09:13:40.061Z</time></trkpt><trkpt lat="43.80114680535626" lon="7.654842952194928"><ele>168.0</ele><time>2026-04-21T09:13:41.063Z</time></trkpt><trkpt lat="43.801119684860794" lon="7.655158565319673"><ele>175.5</ele><time>2026-04-21T09:13:42.062Z</time></trkpt><trkpt lat="43.801092038699764" lon="7.655483209820839"><ele>183.0</ele><time>2026-04-21T09:13:43.061Z</time></trkpt><trkpt lat="43.801065164681305" lon="7.655807697912616"><ele>121.0</ele><time>2026-04-21T09:13:44.059Z</time></trkpt><trkpt lat="43.800763981245495" lon="7.658405634702138"><ele>116.0</ele><time>2026-04-21T09:13:52Z</time></trkpt><trkpt lat="43.80072881661065" lon="7.6586750306395555"><ele>111.0</ele><time>2026-04-21T09:13:53Z</time></trkpt><trkpt lat="43.800700663407035" lon="7.658942617613512"><ele>106.0</ele><time>2026-04-21T09:13:54Z</time></trkpt><trkpt lat="43.80066287511033" lon="7.659204226192403"><ele>101.33333333333334</ele><time>2026-04-21T09:13:55Z</time></trkpt><trkpt lat="43.80063952266499" lon="7.659503286647411"><ele>96.66666666666667</ele><time>2026-04-21T09:13:56Z</time></trkpt><trkpt lat="43.80060788305424" lon="7.659807296281465"><ele>92.0</ele><time>2026-04-21T09:13:57Z</time></trkpt><trkpt lat="43.800559671952904" lon="7.660102954461698"><ele>88.33333333333334</ele><time>2026-04-21T09:13:58Z</time></trkpt><trkpt lat="43.80053410401212" lon="7.660402280291284"><ele>84.66666666666667</ele><time>2026-04-21T09:13:59Z</time></trkpt><trkpt lat="43.80050833558266" lon="7.660685968637601"><ele>81.0</ele><time>2026-04-21T09:14:00Z</time></trkpt><trkpt lat="43.800469683465195" lon="7.660980802980221"><ele>76.33333333333333</ele><time>2026-04-21T09:14:01Z</time></trkpt><trkpt lat="43.80042865923023" lon="7.661273778984499"><ele>71.66666666666666</ele><time>2026-04-21T09:14:02Z</time></trkpt><trkpt lat="43.80038947637375" lon="7.661581168920077"><ele>67.0</ele><time>2026-04-21T09:14:03Z</time></trkpt><trkpt lat="43.80035244205336" lon="7.661888725330541"><ele>62.33333333333333</ele><time>2026-04-21T09:14:04Z</time></trkpt><trkpt lat="43.80031558940791" lon="7.662202228028854"><ele>57.66666666666667</ele><time>2026-04-21T09:14:05Z</time></trkpt><trkpt lat="43.80027891520175" lon="7.662501468935729"><ele>53.0</ele><time>2026-04-21T09:14:06Z</time></trkpt><trkpt lat="43.800253465149304" lon="7.662791026471287"><ele>52.0</ele><time>2026-04-21T09:14:07Z</time></trkpt><trkpt lat="43.80021337567869" lon="7.663086618702771"><ele>51.0</ele><time>2026-04-21T09:14:08Z</time></trkpt><trkpt lat="43.800180112895994" lon="7.663374730388864"><ele>50.0</ele><time>2026-04-21T09:14:09Z</time></trkpt><trkpt lat="43.80014333648327" lon="7.663666773826116"><ele>57.0</ele><time>2026-04-21T09:14:10Z</time></trkpt><trkpt lat="43.800106764021564" lon="7.663960285029546"><ele>64.0</ele><time>2026-04-21T09:14:11Z</time></trkpt><trkpt lat="43.800072591131524" lon="7.664256933859979"><ele>71.0</ele><time>2026-04-21T09:14:12Z</time></trkpt><trkpt lat="43.80003269281604" lon="7.664564825707126"><ele>80.0</ele><time>2026-04-21T09:14:13Z</time></trkpt><trkpt lat="43.79998812534321" lon="7.664865979639746"><ele>89.0</ele><time>2026-04-21T09:14:14Z</time></trkpt><trkpt lat="43.79994026768231" lon="7.665162305368611"><ele>98.0</ele><time>2026-04-21T09:14:15Z</time></trkpt><trkpt lat="43.79989623275384" lon="7.6654491438963195"><ele>104.0</ele><time>2026-04-21T09:14:16Z</time></trkpt><trkpt lat="43.79985647042697" lon="7.665732079427087"><ele>110.0</ele><time>2026-04-21T09:14:17Z</time></trkpt><trkpt lat="43.79982011502278" lon="7.666006143480168"><ele>116.0</ele><time>2026-04-21T09:14:18Z</time></trkpt><trkpt lat="43.79978366289502" lon="7.666282180155362"><ele>122.0</ele><time>2026-04-21T09:14:19Z</time></trkpt><trkpt lat="43.799752245356444" lon="7.666566091567926"><ele>128.0</ele><time>2026-04-21T09:14:20Z</time></trkpt><trkpt lat="43.799720629402124" lon="7.666852906525295"><ele>134.0</ele><time>2026-04-21T09:14:21Z</time></trkpt><trkpt lat="43.7996870531151" lon="7.667136353565186"><ele>137.33333333333331</ele><time>2026-04-21T09:14:22Z</time></trkpt><trkpt lat="43.79965047059944" lon="7.667421510826985"><ele>140.66666666666666</ele><time>2026-04-21T09:14:23Z</time></trkpt><trkpt lat="43.79961063274073" lon="7.667714590714323"><ele>144.0</ele><time>2026-04-21T09:14:24Z</time></trkpt><trkpt lat="43.79956741547086" lon="7.668007711915179"><ele>149.66666666666666</ele><time>2026-04-21T09:14:25Z</time></trkpt><trkpt lat="43.79951896317808" lon="7.668299328652009"><ele>155.33333333333331</ele><time>2026-04-21T09:14:26Z</time></trkpt><trkpt lat="43.79945689746367" lon="7.668587738160728"><ele>161.0</ele><time>2026-04-21T09:14:27Z</time></trkpt><trkpt lat="43.799388243733404" lon="7.668870044656777"><ele>160.33333333333331</ele><time>2026-04-21T09:14:28Z</time></trkpt><trkpt lat="43.799321366387304" lon="7.669127275326318"><ele>159.66666666666666</ele><time>2026-04-21T09:14:29Z</time></trkpt><trkpt lat="43.799249955520274" lon="7.669368837330514"><ele>159.0</ele><time>2026-04-21T09:14:30Z</time></trkpt><trkpt lat="43.79917138556403" lon="7.669605641829475"><ele>152.66666666666666</ele><time>2026-04-21T09:14:31Z</time></trkpt><trkpt lat="43.79908683643194" lon="7.669844227400355"><ele>146.33333333333331</ele><time>2026-04-21T09:14:32Z</time></trkpt><trkpt lat="43.799002034200186" lon="7.670073820962919"><ele>140.0</ele><time>2026-04-21T09:14:33Z</time></trkpt><trkpt lat="43.79891323756407" lon="7.670305246844293"><ele>131.66666666666666</ele><time>2026-04-21T09:14:34Z</time></trkpt><trkpt lat="43.798819904985905" lon="7.670546761306224"><ele>123.33333333333334</ele><time>2026-04-21T09:14:35Z</time></trkpt><trkpt lat="43.79872170429912" lon="7.670792549890022"><ele>115.0</ele><time>2026-04-21T09:14:36Z</time></trkpt><trkpt lat="43.79861404439279" lon="7.671037958541417"><ele>110.66666666666667</ele><time>2026-04-21T09:14:37Z</time></trkpt><trkpt lat="43.798492648009656" lon="7.6712779406112"><ele>106.33333333333334</ele><time>2026-04-21T09:14:38Z</time></trkpt><trkpt lat="43.79836252233737" lon="7.671516360917361"><ele>102.0</ele><time>2026-04-21T09:14:39Z</time></trkpt><trkpt lat="43.798225752811646" lon="7.671759651900968"><ele>107.66666666666666</ele><time>2026-04-21T09:14:40Z</time></trkpt><trkpt lat="43.79808945480155" lon="7.672001474300441"><ele>113.33333333333333</ele><time>2026-04-21T09:14:41Z</time></trkpt><trkpt lat="43.797953388958746" lon="7.672242397841849"><ele>119.0</ele><time>2026-04-21T09:14:42Z</time></trkpt><trkpt lat="43.797818717582494" lon="7.672489223082779"><ele>119.0</ele><time>2026-04-21T09:14:43Z</time></trkpt><trkpt lat="43.79768398435079" lon="7.67273883162373"><ele>119.0</ele><time>2026-04-21T09:14:44Z</time></trkpt><trkpt lat="43.79754397497107" lon="7.6729944975470215"><ele>134.0</ele><time>2026-04-21T09:14:45Z</time></trkpt><trkpt lat="43.797404779329675" lon="7.673248617242413"><ele>149.0</ele><time>2026-04-21T09:14:46Z</time></trkpt><trkpt lat="43.7972645610161" lon="7.673506177782004"><ele>159.5</ele><time>2026-04-21T09:14:47Z</time></trkpt><trkpt lat="43.79712157809263" lon="7.673764022148967"><ele>170.0</ele><time>2026-04-21T09:14:48Z</time></trkpt><trkpt lat="43.79697984805592" lon="7.6740243971097275"><ele>170.0</ele><time>2026-04-21T09:14:49Z</time></trkpt><trkpt lat="43.79683837013408" lon="7.674283147697051"><ele>170.0</ele><time>2026-04-21T09:14:50Z</time></trkpt><trkpt lat="43.79669570403687" lon="7.674533344129561"><ele>175.0</ele><time>2026-04-21T09:14:51Z</time></trkpt><trkpt lat="43.7965568393375" lon="7.674782506740796"><ele>180.0</ele><time>2026-04-21T09:14:52Z</time></trkpt><trkpt lat="43.796413696214515" lon="7.675030019859799"><ele>194.5</ele><time>2026-04-21T09:14:53Z</time></trkpt><trkpt lat="43.7962767977893" lon="7.675279555880913"><ele>209.0</ele><time>2026-04-21T09:14:54Z</time></trkpt><trkpt lat="43.79613273643629" lon="7.675527024801187"><ele>206.5</ele><time>2026-04-21T09:14:55Z</time></trkpt><trkpt lat="43.79598797458119" lon="7.675779102928802"><ele>204.0</ele><time>2026-04-21T09:14:56Z</time></trkpt><trkpt lat="43.795842724721695" lon="7.676029762738457"><ele>210.0</ele><time>2026-04-21T09:14:57Z</time></trkpt><trkpt lat="43.795697856440704" lon="7.676279259490439"><ele>216.0</ele><time>2026-04-21T09:14:58Z</time></trkpt><trkpt lat="43.795555231017815" lon="7.67651706335526"><ele>216.0</ele><time>2026-04-21T09:14:59Z</time></trkpt><trkpt lat="43.79541273903314" lon="7.676773086172619"><ele>216.0</ele><time>2026-04-21T09:15:00Z</time></trkpt><trkpt lat="43.795257818866325" lon="7.677037869243895"><ele>186.0</ele><time>2026-04-21T09:15:01.064Z</time></trkpt><trkpt lat="43.79426915267398" lon="7.678905589843586"><ele>186.0</ele><time>2026-04-21T09:15:08Z</time></trkpt><trkpt lat="43.79411741734369" lon="7.679169312107754"><ele>186.0</ele><time>2026-04-21T09:15:09Z</time></trkpt><trkpt lat="43.7939712145208" lon="7.679428289088427"><ele>189.0</ele><time>2026-04-21T09:15:10Z</time></trkpt><trkpt lat="43.793841909338404" lon="7.679675102172927"><ele>192.0</ele><time>2026-04-21T09:15:11Z</time></trkpt><trkpt lat="43.79370529477891" lon="7.679923700051489"><ele>195.0</ele><time>2026-04-21T09:15:12Z</time></trkpt><trkpt lat="43.7935860184084" lon="7.68017078220661"><ele>192.33333333333334</ele><time>2026-04-21T09:15:13Z</time></trkpt><trkpt lat="43.793474301047" lon="7.680416481803794"><ele>189.66666666666669</ele><time>2026-04-21T09:15:14Z</time></trkpt><trkpt lat="43.793372860932" lon="7.68066220122251"><ele>187.0</ele><time>2026-04-21T09:15:15Z</time></trkpt><trkpt lat="43.793282659402735" lon="7.68090969062557"><ele>193.0</ele><time>2026-04-21T09:15:16Z</time></trkpt><trkpt lat="43.79319872781968" lon="7.681155990970739"><ele>199.0</ele><time>2026-04-21T09:15:17Z</time></trkpt><trkpt lat="43.79312732513044" lon="7.68139160499879"><ele>205.0</ele><time>2026-04-21T09:15:18Z</time></trkpt><trkpt lat="43.79306651542905" lon="7.681624849699383"><ele>205.0</ele><time>2026-04-21T09:15:19Z</time></trkpt><trkpt lat="43.793017767218295" lon="7.681850580793612"><ele>205.0</ele><time>2026-04-21T09:15:20Z</time></trkpt><trkpt lat="43.7929767263764" lon="7.682076419122178"><ele>205.0</ele><time>2026-04-21T09:15:21Z</time></trkpt><trkpt lat="43.79293586771771" lon="7.682311613959719"><ele>210.66666666666666</ele><time>2026-04-21T09:15:22Z</time></trkpt><trkpt lat="43.79290748290247" lon="7.682537787077987"><ele>216.33333333333331</ele><time>2026-04-21T09:15:23Z</time></trkpt><trkpt lat="43.792881853510664" lon="7.682767206900408"><ele>222.0</ele><time>2026-04-21T09:15:24Z</time></trkpt><trkpt lat="43.79285594878874" lon="7.682986290754644"><ele>228.0</ele><time>2026-04-21T09:15:25Z</time></trkpt><trkpt lat="43.7928334485501" lon="7.683204902896965"><ele>234.0</ele><time>2026-04-21T09:15:26Z</time></trkpt><trkpt lat="43.792811315536035" lon="7.6834262448552435"><ele>240.0</ele><time>2026-04-21T09:15:27Z</time></trkpt><trkpt lat="43.79279163324879" lon="7.68364579638051"><ele>244.0</ele><time>2026-04-21T09:15:28Z</time></trkpt><trkpt lat="43.79279550962013" lon="7.6838633141793595"><ele>248.0</ele><time>2026-04-21T09:15:29Z</time></trkpt><trkpt lat="43.79280605069843" lon="7.684071135902825"><ele>252.0</ele><time>2026-04-21T09:15:30Z</time></trkpt><trkpt lat="43.79282114300536" lon="7.68429209987596"><ele>253.33333333333331</ele><time>2026-04-21T09:15:31.066Z</time></trkpt><trkpt lat="43.79283780848196" lon="7.684492487278906"><ele>254.66666666666666</ele><time>2026-04-21T09:15:32.066Z</time></trkpt><trkpt lat="43.79286478129181" lon="7.6846895210714115"><ele>256.0</ele><time>2026-04-21T09:15:33.064Z</time></trkpt><trkpt lat="43.79373200135183" lon="7.687217745601937"><ele>206.0</ele><time>2026-04-21T09:15:36.483Z</time></trkpt><trkpt lat="43.79403776167687" lon="7.687774005524518"><ele>206.0</ele><time>2026-04-21T09:15:49Z</time></trkpt><trkpt lat="43.79414719436396" lon="7.687924688501743"><ele>206.0</ele><time>2026-04-21T09:15:50Z</time></trkpt><trkpt lat="43.794257925620826" lon="7.688080913176256"><ele>206.0</ele><time>2026-04-21T09:15:51Z</time></trkpt><trkpt lat="43.794373750161704" lon="7.68822487147438"><ele>208.66666666666669</ele><time>2026-04-21T09:15:52Z</time></trkpt><trkpt lat="43.79449956380482" lon="7.688366603018541"><ele>211.33333333333331</ele><time>2026-04-21T09:15:53Z</time></trkpt><trkpt lat="43.79463078067966" lon="7.688505206701364"><ele>214.0</ele><time>2026-04-21T09:15:54Z</time></trkpt><trkpt lat="43.79475914193663" lon="7.688636513492961"><ele>214.0</ele><time>2026-04-21T09:15:55Z</time></trkpt><trkpt lat="43.79489144051623" lon="7.688753169385485"><ele>214.0</ele><time>2026-04-21T09:15:56Z</time></trkpt><trkpt lat="43.79502788427994" lon="7.688861683720028"><ele>214.0</ele><time>2026-04-21T09:15:57Z</time></trkpt><trkpt lat="43.79516570891786" lon="7.68896234227107"><ele>214.33333333333331</ele><time>2026-04-21T09:15:58Z</time></trkpt><trkpt lat="43.79530987712714" lon="7.689065882880369"><ele>214.66666666666669</ele><time>2026-04-21T09:15:59Z</time></trkpt><trkpt lat="43.79546010790365" lon="7.689169635073092"><ele>215.0</ele><time>2026-04-21T09:16:00Z</time></trkpt><trkpt lat="43.795614306191744" lon="7.689278488017473"><ele>215.0</ele><time>2026-04-21T09:16:01Z</time></trkpt><trkpt lat="43.795770635806385" lon="7.689388666349644"><ele>215.0</ele><time>2026-04-21T09:16:02Z</time></trkpt><trkpt lat="43.7959238645708" lon="7.68950192947057"><ele>215.0</ele><time>2026-04-21T09:16:03Z</time></trkpt><trkpt lat="43.79608566394259" lon="7.689609367948562"><ele>214.0</ele><time>2026-04-21T09:16:04Z</time></trkpt><trkpt lat="43.796252515023966" lon="7.6897122156350655"><ele>213.0</ele><time>2026-04-21T09:16:05Z</time></trkpt><trkpt lat="43.79641408818698" lon="7.689808090769169"><ele>212.0</ele><time>2026-04-21T09:16:06Z</time></trkpt><trkpt lat="43.796566063101906" lon="7.689899617085892"><ele>212.0</ele><time>2026-04-21T09:16:07Z</time></trkpt><trkpt lat="43.796706516834135" lon="7.6899884271701335"><ele>212.0</ele><time>2026-04-21T09:16:08Z</time></trkpt><trkpt lat="43.796827831315774" lon="7.690069701081034"><ele>212.0</ele><time>2026-04-21T09:16:09Z</time></trkpt><trkpt lat="43.79693376334602" lon="7.690152815061771"><ele>212.0</ele><time>2026-04-21T09:16:10Z</time></trkpt><trkpt lat="43.79702316103974" lon="7.690240737441098"><ele>212.0</ele><time>2026-04-21T09:16:11Z</time></trkpt><trkpt lat="43.79709744791154" lon="7.69033409639526"><ele>212.0</ele><time>2026-04-21T09:16:12Z</time></trkpt><trkpt lat="43.79716756093487" lon="7.690420781435991"><ele>212.0</ele><time>2026-04-21T09:16:13Z</time></trkpt><trkpt lat="43.7972408890426" lon="7.69048660236983"><ele>212.0</ele><time>2026-04-21T09:16:14Z</time></trkpt><trkpt lat="43.797319531900264" lon="7.690538159624403"><ele>212.0</ele><time>2026-04-21T09:16:15Z</time></trkpt><trkpt lat="43.797400063264746" lon="7.6905891515102125"><ele>212.00000000000003</ele><time>2026-04-21T09:16:16Z</time></trkpt><trkpt lat="43.797477445097925" lon="7.690650407968848"><ele>212.0</ele><time>2026-04-21T09:16:17Z</time></trkpt><trkpt lat="43.797556687125564" lon="7.690717153118589"><ele>212.0</ele><time>2026-04-21T09:16:18Z</time></trkpt><trkpt lat="43.79763320004488" lon="7.690774734448311"><ele>212.0</ele><time>2026-04-21T09:16:19Z</time></trkpt><trkpt lat="43.79770236874173" lon="7.690827747406711"><ele>212.00000000000003</ele><time>2026-04-21T09:16:20Z</time></trkpt><trkpt lat="43.79779092114254" lon="7.690888207402799"><ele>212.0</ele><time>2026-04-21T09:16:22Z</time></trkpt><trkpt lat="43.797888956072725" lon="7.6909254290732205"><ele>211.33333333333334</ele><time>2026-04-21T09:16:24Z</time></trkpt><trkpt lat="43.79797335376061" lon="7.690970694020358"><ele>210.66666666666669</ele><time>2026-04-21T09:16:26Z</time></trkpt><trkpt lat="43.79804398334449" lon="7.691011425375393"><ele>210.0</ele><time>2026-04-21T09:16:28Z</time></trkpt><trkpt lat="43.79803904712605" lon="7.691108339362077"><ele>209.33333333333331</ele><time>2026-04-21T09:19:17.001Z</time></trkpt><trkpt lat="43.79795364557422" lon="7.691160334106434"><ele>208.66666666666666</ele><time>2026-04-21T09:19:28.001Z</time></trkpt><trkpt lat="43.79795813460334" lon="7.691301251996216"><ele>208.0</ele><time>2026-04-21T09:19:35.001Z</time></trkpt><trkpt lat="43.798143086005794" lon="7.6913534787048174"><ele>208.0</ele><time>2026-04-21T09:19:39.001Z</time></trkpt><trkpt lat="43.79810549365023" lon="7.691453946021935"><ele>208.0</ele><time>2026-04-21T09:19:42.001Z</time></trkpt><trkpt lat="43.79803803424249" lon="7.69173156026107"><ele>208.0</ele><time>2026-04-21T09:19:43.001Z</time></trkpt><trkpt lat="43.798013616773424" lon="7.691603718141085"><ele>208.0</ele><time>2026-04-21T09:19:45.001Z</time></trkpt><trkpt lat="43.79795516161433" lon="7.691414872885106"><ele>207.99999999999997</ele><time>2026-04-21T09:19:46.001Z</time></trkpt><trkpt lat="43.7979471906642" lon="7.691314944444066"><ele>208.0</ele><time>2026-04-21T09:19:47.001Z</time></trkpt><trkpt lat="43.79791350620253" lon="7.691407056265182"><ele>208.0</ele><time>2026-04-21T09:19:56.001Z</time></trkpt><trkpt lat="43.79786754208794" lon="7.691322569597458"><ele>208.0</ele><time>2026-04-21T09:19:58.001Z</time></trkpt><trkpt lat="43.79781441920084" lon="7.691275445125547"><ele>207.99999999999997</ele><time>2026-04-21T09:20:00.001Z</time></trkpt><trkpt lat="43.79771480535892" lon="7.691280098908581"><ele>208.0</ele><time>2026-04-21T09:20:02.001Z</time></trkpt><trkpt lat="43.79774304834168" lon="7.691383092284633"><ele>208.0</ele><time>2026-04-21T09:20:08.001Z</time></trkpt><trkpt lat="43.7977111254865" lon="7.6914751767827445"><ele>208.0</ele><time>2026-04-21T09:20:09.066Z</time></trkpt><trkpt lat="43.79774214141316" lon="7.691369931858212"><ele>208.0</ele><time>2026-04-21T09:20:11.031Z</time></trkpt><trkpt lat="43.79798319755919" lon="7.691108521701749"><ele>207.99999999999997</ele><time>2026-04-21T09:20:22.799Z</time></trkpt><trkpt lat="43.79807313036981" lon="7.6910644256421"><ele>208.0</ele><time>2026-04-21T09:20:40.001Z</time></trkpt><trkpt lat="43.79814587117384" lon="7.691086343159986"><ele>208.0</ele><time>2026-04-21T09:21:16.001Z</time></trkpt><trkpt lat="43.79819347827886" lon="7.691163994225944"><ele>208.0</ele><time>2026-04-21T09:21:18.001Z</time></trkpt><trkpt lat="43.79823312950886" lon="7.691249165729296"><ele>207.99999999999997</ele><time>2026-04-21T09:21:20.001Z</time></trkpt><trkpt lat="43.798345901851384" lon="7.691282726784984"><ele>208.0</ele><time>2026-04-21T09:45:24.999Z</time></trkpt><trkpt lat="43.7984632232031" lon="7.691251973962442"><ele>208.2</ele><time>2026-04-21T09:45:26.999Z</time></trkpt><trkpt lat="43.798531131618105" lon="7.691278291348708"><ele>208.4</ele><time>2026-04-21T09:45:27.999Z</time></trkpt><trkpt lat="43.79860287232839" lon="7.691333368010132"><ele>208.6</ele><time>2026-04-21T09:45:28.999Z</time></trkpt><trkpt lat="43.79869461347197" lon="7.691417263207536"><ele>208.79999999999998</ele><time>2026-04-21T09:45:29.999Z</time></trkpt><trkpt lat="43.79880260390321" lon="7.691497777934252"><ele>209.0</ele><time>2026-04-21T09:45:30.999Z</time></trkpt><trkpt lat="43.79892406181305" lon="7.6915939288864825"><ele>209.0</ele><time>2026-04-21T09:45:31.999Z</time></trkpt><trkpt lat="43.799057729269" lon="7.691700512664949"><ele>209.0</ele><time>2026-04-21T09:45:32.999Z</time></trkpt><trkpt lat="43.799201566019796" lon="7.691825543326876"><ele>209.0</ele><time>2026-04-21T09:45:33.999Z</time></trkpt><trkpt lat="43.799351324076476" lon="7.6919606294985865"><ele>211.33333333333334</ele><time>2026-04-21T09:45:34.999Z</time></trkpt><trkpt lat="43.799511489433854" lon="7.692101745595078"><ele>213.66666666666669</ele><time>2026-04-21T09:45:35.999Z</time></trkpt><trkpt lat="43.79967949969191" lon="7.692262550097328"><ele>216.0</ele><time>2026-04-21T09:45:36.999Z</time></trkpt><trkpt lat="43.79984282485884" lon="7.692433650970506"><ele>216.0</ele><time>2026-04-21T09:45:37.999Z</time></trkpt><trkpt lat="43.8000147039137" lon="7.692614162365622"><ele>216.0</ele><time>2026-04-21T09:45:38.999Z</time></trkpt><trkpt lat="43.80018620741139" lon="7.692805095975252"><ele>216.0</ele><time>2026-04-21T09:45:39.999Z</time></trkpt><trkpt lat="43.800355258398575" lon="7.693002140668674"><ele>215.5</ele><time>2026-04-21T09:45:40.999Z</time></trkpt><trkpt lat="43.80052364438974" lon="7.693207707442792"><ele>215.0</ele><time>2026-04-21T09:45:41.999Z</time></trkpt><trkpt lat="43.80068992979715" lon="7.6934189174228615"><ele>213.66666666666669</ele><time>2026-04-21T09:45:42.999Z</time></trkpt><trkpt lat="43.800854216052564" lon="7.693631147547847"><ele>212.33333333333331</ele><time>2026-04-21T09:45:43.999Z</time></trkpt><trkpt lat="43.80100933335452" lon="7.6938358901699075"><ele>211.0</ele><time>2026-04-21T09:45:44.999Z</time></trkpt><trkpt lat="43.80115715608878" lon="7.69403625956787"><ele>211.0</ele><time>2026-04-21T09:45:45.999Z</time></trkpt><trkpt lat="43.801304459061654" lon="7.69423966575137"><ele>211.0</ele><time>2026-04-21T09:45:46.999Z</time></trkpt><trkpt lat="43.80144366602665" lon="7.694451929569967"><ele>211.0</ele><time>2026-04-21T09:45:47.999Z</time></trkpt><trkpt lat="43.80158001486866" lon="7.694665364463184"><ele>210.0</ele><time>2026-04-21T09:45:48.999Z</time></trkpt><trkpt lat="43.80171226142193" lon="7.6948707246981085"><ele>209.0</ele><time>2026-04-21T09:45:49.999Z</time></trkpt><trkpt lat="43.80184472629169" lon="7.6950799560436955"><ele>208.0</ele><time>2026-04-21T09:45:50.999Z</time></trkpt><trkpt lat="43.801975841325046" lon="7.695300979479909"><ele>208.0</ele><time>2026-04-21T09:45:52Z</time></trkpt><trkpt lat="43.80210733814571" lon="7.695529082855508"><ele>208.0</ele><time>2026-04-21T09:45:53Z</time></trkpt><trkpt lat="43.80224110154996" lon="7.695765442120605"><ele>208.0</ele><time>2026-04-21T09:45:54Z</time></trkpt><trkpt lat="43.802376572288544" lon="7.696005264871179"><ele>211.0</ele><time>2026-04-21T09:45:55Z</time></trkpt><trkpt lat="43.8025054067324" lon="7.696250881003709"><ele>214.0</ele><time>2026-04-21T09:45:56Z</time></trkpt><trkpt lat="43.80262918803969" lon="7.6965062457284485"><ele>217.0</ele><time>2026-04-21T09:45:57Z</time></trkpt><trkpt lat="43.80275428726601" lon="7.696766869255017"><ele>212.5</ele><time>2026-04-21T09:45:58Z</time></trkpt><trkpt lat="43.80288206561104" lon="7.697037484906875"><ele>208.0</ele><time>2026-04-21T09:45:59Z</time></trkpt><trkpt lat="43.803010229043906" lon="7.697312945936537"><ele>208.0</ele><time>2026-04-21T09:46:00Z</time></trkpt><trkpt lat="43.80313687562594" lon="7.6975955145891"><ele>208.0</ele><time>2026-04-21T09:46:01Z</time></trkpt><trkpt lat="43.803259612014735" lon="7.6978900975301805"><ele>210.5</ele><time>2026-04-21T09:46:02Z</time></trkpt><trkpt lat="43.80338724633572" lon="7.698182720128297"><ele>213.0</ele><time>2026-04-21T09:46:03Z</time></trkpt><trkpt lat="43.80351386398426" lon="7.69846212499327"><ele>205.33333333333334</ele><time>2026-04-21T09:46:04Z</time></trkpt><trkpt lat="43.80363596710529" lon="7.698725905867978"><ele>197.66666666666669</ele><time>2026-04-21T09:46:05Z</time></trkpt><trkpt lat="43.80375044261721" lon="7.698982685469396"><ele>190.0</ele><time>2026-04-21T09:46:06Z</time></trkpt><trkpt lat="43.803862158522996" lon="7.699237114833947"><ele>184.33333333333334</ele><time>2026-04-21T09:46:07Z</time></trkpt><trkpt lat="43.80397855235601" lon="7.699490279138601"><ele>178.66666666666666</ele><time>2026-04-21T09:46:08Z</time></trkpt><trkpt lat="43.80409787429406" lon="7.699740921143206"><ele>173.0</ele><time>2026-04-21T09:46:09Z</time></trkpt><trkpt lat="43.80421494351273" lon="7.6999902110861305"><ele>173.0</ele><time>2026-04-21T09:46:10Z</time></trkpt><trkpt lat="43.80432956927053" lon="7.700243068613777"><ele>173.0</ele><time>2026-04-21T09:46:11Z</time></trkpt><trkpt lat="43.80444870751375" lon="7.700493889609679"><ele>173.0</ele><time>2026-04-21T09:46:12Z</time></trkpt><trkpt lat="43.80457725847207" lon="7.7007456120948685"><ele>180.5</ele><time>2026-04-21T09:46:13Z</time></trkpt><trkpt lat="43.8047135850362" lon="7.700993333890344"><ele>188.0</ele><time>2026-04-21T09:46:14Z</time></trkpt><trkpt lat="43.80485152136056" lon="7.701247536918049"><ele>189.5</ele><time>2026-04-21T09:46:15Z</time></trkpt><trkpt lat="43.80498730541804" lon="7.70150784329871"><ele>191.0</ele><time>2026-04-21T09:46:16Z</time></trkpt><trkpt lat="43.80512559898234" lon="7.701770389496915"><ele>206.0</ele><time>2026-04-21T09:46:17Z</time></trkpt><trkpt lat="43.805264414141604" lon="7.702030834611439"><ele>221.0</ele><time>2026-04-21T09:46:18Z</time></trkpt><trkpt lat="43.80540120623968" lon="7.702290359383938"><ele>221.0</ele><time>2026-04-21T09:46:19Z</time></trkpt><trkpt lat="43.80553379794003" lon="7.702538635136938"><ele>221.0</ele><time>2026-04-21T09:46:20Z</time></trkpt><trkpt lat="43.80565706778985" lon="7.702768977801948"><ele>221.0</ele><time>2026-04-21T09:46:21Z</time></trkpt><trkpt lat="43.80577506105299" lon="7.7029904868674075"><ele>218.0</ele><time>2026-04-21T09:46:22Z</time></trkpt><trkpt lat="43.80589821522767" lon="7.703222099116979"><ele>215.0</ele><time>2026-04-21T09:46:23Z</time></trkpt><trkpt lat="43.80602584679652" lon="7.703458095761604"><ele>212.0</ele><time>2026-04-21T09:46:24Z</time></trkpt><trkpt lat="43.80615716261317" lon="7.703699332546661"><ele>212.0</ele><time>2026-04-21T09:46:25Z</time></trkpt><trkpt lat="43.80628909953316" lon="7.703944140930689"><ele>212.0</ele><time>2026-04-21T09:46:26Z</time></trkpt><trkpt lat="43.80642329101187" lon="7.704194433969601"><ele>212.0</ele><time>2026-04-21T09:46:27Z</time></trkpt><trkpt lat="43.80655737897298" lon="7.704447985842812"><ele>205.0</ele><time>2026-04-21T09:46:28Z</time></trkpt><trkpt lat="43.80669496009851" lon="7.70470452041793"><ele>198.0</ele><time>2026-04-21T09:46:29Z</time></trkpt><trkpt lat="43.806834033022405" lon="7.7049627432546925"><ele>198.0</ele><time>2026-04-21T09:46:30Z</time></trkpt><trkpt lat="43.806974164702694" lon="7.705226454886711"><ele>198.0</ele><time>2026-04-21T09:46:31Z</time></trkpt><trkpt lat="43.80711378137253" lon="7.705490765053263"><ele>196.5</ele><time>2026-04-21T09:46:32Z</time></trkpt><trkpt lat="43.807251616438656" lon="7.705760314180952"><ele>195.0</ele><time>2026-04-21T09:46:33Z</time></trkpt><trkpt lat="43.807379757195015" lon="7.706034151518979"><ele>196.5</ele><time>2026-04-21T09:46:34Z</time></trkpt><trkpt lat="43.80750306829779" lon="7.706307071704917"><ele>198.0</ele><time>2026-04-21T09:46:35Z</time></trkpt><trkpt lat="43.8076195703793" lon="7.706583625391834"><ele>198.5</ele><time>2026-04-21T09:46:36Z</time></trkpt><trkpt lat="43.807732153199574" lon="7.706863530681841"><ele>199.0</ele><time>2026-04-21T09:46:37Z</time></trkpt><trkpt lat="43.807847258564486" lon="7.707139613832306"><ele>199.0</ele><time>2026-04-21T09:46:38Z</time></trkpt><trkpt lat="43.80795694518051" lon="7.707419130710988"><ele>199.0</ele><time>2026-04-21T09:46:39Z</time></trkpt><trkpt lat="43.808061310092675" lon="7.7077009853860226"><ele>189.5</ele><time>2026-04-21T09:46:40Z</time></trkpt><trkpt lat="43.80816264107272" lon="7.707985565054219"><ele>180.0</ele><time>2026-04-21T09:46:41Z</time></trkpt><trkpt lat="43.80826426969025" lon="7.7082680970409685"><ele>180.0</ele><time>2026-04-21T09:46:42Z</time></trkpt><trkpt lat="43.80836691821608" lon="7.708545018513199"><ele>180.0</ele><time>2026-04-21T09:46:43Z</time></trkpt><trkpt lat="43.808471423160796" lon="7.7088233492533575"><ele>200.0</ele><time>2026-04-21T09:46:44Z</time></trkpt><trkpt lat="43.80857140837882" lon="7.70910556935979"><ele>220.0</ele><time>2026-04-21T09:46:45Z</time></trkpt><trkpt lat="43.80867140836599" lon="7.709391496999309"><ele>237.5</ele><time>2026-04-21T09:46:46Z</time></trkpt><trkpt lat="43.80877415368916" lon="7.709679175651508"><ele>255.0</ele><time>2026-04-21T09:46:47Z</time></trkpt><trkpt lat="43.80887987222252" lon="7.709972441783259"><ele>256.0</ele><time>2026-04-21T09:46:48Z</time></trkpt><trkpt lat="43.80898274609292" lon="7.710271327620731"><ele>257.0</ele><time>2026-04-21T09:46:49Z</time></trkpt><trkpt lat="43.80908661462466" lon="7.710574052891896"><ele>257.0</ele><time>2026-04-21T09:46:50Z</time></trkpt><trkpt lat="43.80919456114815" lon="7.710880757821205"><ele>257.0</ele><time>2026-04-21T09:46:51Z</time></trkpt><trkpt lat="43.80930579814893" lon="7.711191692452931"><ele>257.0</ele><time>2026-04-21T09:46:52Z</time></trkpt><trkpt lat="43.80942293644228" lon="7.711523424548665"><ele>257.0</ele><time>2026-04-21T09:46:53.06Z</time></trkpt><trkpt lat="43.809533609102225" lon="7.711835036724764"><ele>246.5</ele><time>2026-04-21T09:46:54.056Z</time></trkpt><trkpt lat="43.809647281192724" lon="7.712151215217567"><ele>236.0</ele><time>2026-04-21T09:46:55.059Z</time></trkpt><trkpt lat="43.80975947672959" lon="7.712466680489145"><ele>236.0</ele><time>2026-04-21T09:46:56.054Z</time></trkpt><trkpt lat="43.80987393803729" lon="7.712636460192933"><ele>236.0</ele><time>2026-04-21T09:46:57Z</time></trkpt><trkpt lat="43.809982995558364" lon="7.712939669229543"><ele>236.0</ele><time>2026-04-21T09:46:57.998Z</time></trkpt><trkpt lat="43.81006907485696" lon="7.713249934677986"><ele>233.0</ele><time>2026-04-21T09:46:58.998Z</time></trkpt><trkpt lat="43.81017454275504" lon="7.7135523185127886"><ele>230.0</ele><time>2026-04-21T09:46:59.998Z</time></trkpt><trkpt lat="43.81029428276926" lon="7.713845603492277"><ele>230.0</ele><time>2026-04-21T09:47:00.998Z</time></trkpt><trkpt lat="43.81040320953015" lon="7.714115652260253"><ele>230.0</ele><time>2026-04-21T09:47:01.998Z</time></trkpt><trkpt lat="43.81050978850048" lon="7.7144012743472485"><ele>229.5</ele><time>2026-04-21T09:47:02.998Z</time></trkpt><trkpt lat="43.8106071752587" lon="7.714687169163395"><ele>229.0</ele><time>2026-04-21T09:47:03.998Z</time></trkpt><trkpt lat="43.810703208890175" lon="7.714968547927875"><ele>229.0</ele><time>2026-04-21T09:47:04.998Z</time></trkpt><trkpt lat="43.81080635093515" lon="7.715245411035132"><ele>229.0</ele><time>2026-04-21T09:47:05.998Z</time></trkpt><trkpt lat="43.81091256092962" lon="7.715526255792605"><ele>233.33333333333331</ele><time>2026-04-21T09:47:06.998Z</time></trkpt><trkpt lat="43.811016188917364" lon="7.715808379005976"><ele>237.66666666666669</ele><time>2026-04-21T09:47:07.998Z</time></trkpt><trkpt lat="43.81111569008924" lon="7.716079565891623"><ele>242.0</ele><time>2026-04-21T09:47:08.998Z</time></trkpt><trkpt lat="43.81120557267248" lon="7.716332736153437"><ele>242.0</ele><time>2026-04-21T09:47:09.998Z</time></trkpt><trkpt lat="43.81129020212311" lon="7.716577590826269"><ele>242.0</ele><time>2026-04-21T09:47:10.998Z</time></trkpt><trkpt lat="43.81138004277983" lon="7.716827320665398"><ele>242.0</ele><time>2026-04-21T09:47:11.998Z</time></trkpt><trkpt lat="43.811472988609154" lon="7.717082375744278"><ele>237.66666666666669</ele><time>2026-04-21T09:47:12.998Z</time></trkpt><trkpt lat="43.81156769902501" lon="7.717344233728509"><ele>233.33333333333331</ele><time>2026-04-21T09:47:13.998Z</time></trkpt><trkpt lat="43.811661070162884" lon="7.717609063162155"><ele>229.0</ele><time>2026-04-21T09:47:14.998Z</time></trkpt><trkpt lat="43.81175576784991" lon="7.717880010543979"><ele>227.33333333333331</ele><time>2026-04-21T09:47:15.998Z</time></trkpt><trkpt lat="43.81185122140136" lon="7.718156275529088"><ele>225.66666666666669</ele><time>2026-04-21T09:47:16.999Z</time></trkpt><trkpt lat="43.811944447456106" lon="7.718438028921307"><ele>224.0</ele><time>2026-04-21T09:47:17.999Z</time></trkpt><trkpt lat="43.812035139354506" lon="7.718727878967775"><ele>212.5</ele><time>2026-04-21T09:47:18.999Z</time></trkpt><trkpt lat="43.81212547918363" lon="7.719018792073904"><ele>201.0</ele><time>2026-04-21T09:47:19.999Z</time></trkpt><trkpt lat="43.81221403917949" lon="7.719308858509933"><ele>191.0</ele><time>2026-04-21T09:47:20.999Z</time></trkpt><trkpt lat="43.81229977532547" lon="7.719604841936448"><ele>181.0</ele><time>2026-04-21T09:47:21.999Z</time></trkpt><trkpt lat="43.812379121822595" lon="7.719903359572744"><ele>181.0</ele><time>2026-04-21T09:47:22.999Z</time></trkpt><trkpt lat="43.81245740266631" lon="7.720209155169388"><ele>181.0</ele><time>2026-04-21T09:47:23.999Z</time></trkpt><trkpt lat="43.81253362446182" lon="7.720516315668069"><ele>191.0</ele><time>2026-04-21T09:47:24.999Z</time></trkpt><trkpt lat="43.81260835555244" lon="7.720823604894993"><ele>201.0</ele><time>2026-04-21T09:47:25.999Z</time></trkpt><trkpt lat="43.81267798890334" lon="7.721133642476114"><ele>231.5</ele><time>2026-04-21T09:47:26.999Z</time></trkpt><trkpt lat="43.81274440527263" lon="7.721444885699101"><ele>262.0</ele><time>2026-04-21T09:47:27.999Z</time></trkpt><trkpt lat="43.812811206938626" lon="7.721757979729938"><ele>265.5</ele><time>2026-04-21T09:47:28.999Z</time></trkpt><trkpt lat="43.812876134407944" lon="7.722071732294149"><ele>269.0</ele><time>2026-04-21T09:47:29.999Z</time></trkpt><trkpt lat="43.81294050449012" lon="7.722387000851781"><ele>269.0</ele><time>2026-04-21T09:47:30.999Z</time></trkpt><trkpt lat="43.813000623745076" lon="7.722702367384552"><ele>269.0</ele><time>2026-04-21T09:47:31.999Z</time></trkpt><trkpt lat="43.81306186436698" lon="7.723011688383514"><ele>266.5</ele><time>2026-04-21T09:47:32.999Z</time></trkpt><trkpt lat="43.813125386314596" lon="7.723323081382126"><ele>264.0</ele><time>2026-04-21T09:47:33.999Z</time></trkpt><trkpt lat="43.81319050847737" lon="7.723631636705493"><ele>260.0</ele><time>2026-04-21T09:47:34.999Z</time></trkpt><trkpt lat="43.813254852275996" lon="7.723936123202272"><ele>256.0</ele><time>2026-04-21T09:47:35.999Z</time></trkpt><trkpt lat="43.81331846344054" lon="7.724240739121021"><ele>253.0</ele><time>2026-04-21T09:47:36.999Z</time></trkpt><trkpt lat="43.81338231502115" lon="7.724546428777741"><ele>250.0</ele><time>2026-04-21T09:47:37.999Z</time></trkpt><trkpt lat="43.81344633779088" lon="7.7248534707392125"><ele>262.0</ele><time>2026-04-21T09:47:38.999Z</time></trkpt><trkpt lat="43.81351013430625" lon="7.725164226711589"><ele>274.0</ele><time>2026-04-21T09:47:39.999Z</time></trkpt><trkpt lat="43.813574537612" lon="7.7254770212229875"><ele>274.0</ele><time>2026-04-21T09:47:40.999Z</time></trkpt><trkpt lat="43.813638680922935" lon="7.725793023197532"><ele>274.0</ele><time>2026-04-21T09:47:41.999Z</time></trkpt><trkpt lat="43.81370203701922" lon="7.726108555942082"><ele>272.5</ele><time>2026-04-21T09:47:42.999Z</time></trkpt><trkpt lat="43.81376332789507" lon="7.7264236588221085"><ele>271.0</ele><time>2026-04-21T09:47:43.999Z</time></trkpt><trkpt lat="43.81382390269286" lon="7.7267323172103"><ele>269.3333333333333</ele><time>2026-04-21T09:47:44.999Z</time></trkpt><trkpt lat="43.813886952867975" lon="7.727035355682358"><ele>267.6666666666667</ele><time>2026-04-21T09:47:45.999Z</time></trkpt><trkpt lat="43.81395768616328" lon="7.727325174577844"><ele>266.0</ele><time>2026-04-21T09:47:46.999Z</time></trkpt><trkpt lat="43.814029128892834" lon="7.727615680141196"><ele>263.33333333333337</ele><time>2026-04-21T09:47:47.999Z</time></trkpt><trkpt lat="43.81410849460205" lon="7.727901548774816"><ele>260.6666666666667</ele><time>2026-04-21T09:47:48.999Z</time></trkpt><trkpt lat="43.81418397765227" lon="7.728193242389154"><ele>258.0</ele><time>2026-04-21T09:47:49.999Z</time></trkpt><trkpt lat="43.814272050527435" lon="7.728480885530636"><ele>264.0</ele><time>2026-04-21T09:47:50.999Z</time></trkpt><trkpt lat="43.81437151313139" lon="7.7287599858525615"><ele>270.0</ele><time>2026-04-21T09:47:51.999Z</time></trkpt><trkpt lat="43.81447583376816" lon="7.729026427788998"><ele>276.0</ele><time>2026-04-21T09:47:52.999Z</time></trkpt><trkpt lat="43.8146063302556" lon="7.729272488134293"><ele>277.3333333333333</ele><time>2026-04-21T09:47:53.999Z</time></trkpt><trkpt lat="43.814743649511335" lon="7.729516464903497"><ele>278.66666666666663</ele><time>2026-04-21T09:47:54.999Z</time></trkpt><trkpt lat="43.81488180086207" lon="7.729747812059349"><ele>280.0</ele><time>2026-04-21T09:47:55.999Z</time></trkpt><trkpt lat="43.815035471230544" lon="7.7299669593534315"><ele>276.66666666666663</ele><time>2026-04-21T09:47:56.999Z</time></trkpt><trkpt lat="43.81520148135579" lon="7.73017001326288"><ele>273.3333333333333</ele><time>2026-04-21T09:47:57.999Z</time></trkpt><trkpt lat="43.815374456951574" lon="7.730358433135124"><ele>270.0</ele><time>2026-04-21T09:47:58.999Z</time></trkpt><trkpt lat="43.81555662699006" lon="7.730530254343571"><ele>270.0</ele><time>2026-04-21T09:47:59.999Z</time></trkpt><trkpt lat="43.81574459448152" lon="7.7306871723827335"><ele>270.0</ele><time>2026-04-21T09:48:00.999Z</time></trkpt><trkpt lat="43.81591164403023" lon="7.730809899785669"><ele>270.0</ele><time>2026-04-21T09:48:01.999Z</time></trkpt><trkpt lat="43.81612638689229" lon="7.730973764950658"><ele>264.6666666666667</ele><time>2026-04-21T09:48:02.999Z</time></trkpt><trkpt lat="43.81630602862951" lon="7.731113220499634"><ele>259.33333333333337</ele><time>2026-04-21T09:48:03.999Z</time></trkpt><trkpt lat="43.816497709435616" lon="7.73121312235275"><ele>254.0</ele><time>2026-04-21T09:48:05Z</time></trkpt><trkpt lat="43.81668802831744" lon="7.7313014312196024"><ele>254.66666666666669</ele><time>2026-04-21T09:48:06Z</time></trkpt><trkpt lat="43.81688005857204" lon="7.731375255689782"><ele>255.33333333333331</ele><time>2026-04-21T09:48:07Z</time></trkpt><trkpt lat="43.81706644483286" lon="7.731433442598351"><ele>256.0</ele><time>2026-04-21T09:48:08Z</time></trkpt><trkpt lat="43.81725291192868" lon="7.731489325360684"><ele>256.0</ele><time>2026-04-21T09:48:09Z</time></trkpt><trkpt lat="43.81743511265422" lon="7.731543421095753"><ele>256.0</ele><time>2026-04-21T09:48:10Z</time></trkpt><trkpt lat="43.8176157654168" lon="7.7315991158619735"><ele>256.0</ele><time>2026-04-21T09:48:11Z</time></trkpt><trkpt lat="43.81780489954863" lon="7.73165409774546"><ele>257.0</ele><time>2026-04-21T09:48:12Z</time></trkpt><trkpt lat="43.81800230733383" lon="7.731704996017489"><ele>258.0</ele><time>2026-04-21T09:48:13Z</time></trkpt><trkpt lat="43.81820288493447" lon="7.731752662595367"><ele>259.0</ele><time>2026-04-21T09:48:14Z</time></trkpt><trkpt lat="43.8184068090624" lon="7.73180125342666"><ele>260.0</ele><time>2026-04-21T09:48:15Z</time></trkpt><trkpt lat="43.818612735148086" lon="7.731853657004496"><ele>261.0</ele><time>2026-04-21T09:48:16Z</time></trkpt><trkpt lat="43.818821350915684" lon="7.73191193050628"><ele>262.0</ele><time>2026-04-21T09:48:17Z</time></trkpt><trkpt lat="43.81903153917799" lon="7.731979685482243"><ele>257.3333333333333</ele><time>2026-04-21T09:48:18Z</time></trkpt><trkpt lat="43.819242876805085" lon="7.7320582799620405"><ele>252.66666666666669</ele><time>2026-04-21T09:48:19Z</time></trkpt><trkpt lat="43.819454419139255" lon="7.7321486370636325"><ele>248.0</ele><time>2026-04-21T09:48:20Z</time></trkpt><trkpt lat="43.819662227118556" lon="7.732253518356606"><ele>248.0</ele><time>2026-04-21T09:48:21Z</time></trkpt><trkpt lat="43.81986745256415" lon="7.732371073705293"><ele>248.0</ele><time>2026-04-21T09:48:22Z</time></trkpt><trkpt lat="43.82006883553461" lon="7.732501257372672"><ele>248.0</ele><time>2026-04-21T09:48:23Z</time></trkpt><trkpt lat="43.820264288265115" lon="7.732645293152878"><ele>259.6666666666667</ele><time>2026-04-21T09:48:24Z</time></trkpt><trkpt lat="43.820455730042575" lon="7.732800108529639"><ele>271.3333333333333</ele><time>2026-04-21T09:48:25Z</time></trkpt><trkpt lat="43.82063892939468" lon="7.732971115515503"><ele>283.0</ele><time>2026-04-21T09:48:26Z</time></trkpt><trkpt lat="43.82081638685593" lon="7.733151651979867"><ele>296.0</ele><time>2026-04-21T09:48:27Z</time></trkpt><trkpt lat="43.82098775789314" lon="7.733343337808581"><ele>309.0</ele><time>2026-04-21T09:48:28Z</time></trkpt><trkpt lat="43.82115136991874" lon="7.733543699155337"><ele>322.0</ele><time>2026-04-21T09:48:29Z</time></trkpt><trkpt lat="43.82130733794546" lon="7.733755210941622"><ele>322.3333333333333</ele><time>2026-04-21T09:48:30Z</time></trkpt><trkpt lat="43.82145632968753" lon="7.73397701509755"><ele>322.6666666666667</ele><time>2026-04-21T09:48:31Z</time></trkpt><trkpt lat="43.821591764617374" lon="7.734205295289472"><ele>323.0</ele><time>2026-04-21T09:48:32Z</time></trkpt><trkpt lat="43.82171171869504" lon="7.734449116799009"><ele>320.6666666666667</ele><time>2026-04-21T09:48:33.06Z</time></trkpt><trkpt lat="43.82181471765261" lon="7.734676221994048"><ele>318.3333333333333</ele><time>2026-04-21T09:48:34.061Z</time></trkpt><trkpt lat="43.821910524445705" lon="7.73490834577458"><ele>316.0</ele><time>2026-04-21T09:48:35.06Z</time></trkpt><trkpt lat="43.821990191727906" lon="7.735147480104206"><ele>306.0</ele><time>2026-04-21T09:48:36.056Z</time></trkpt><trkpt lat="43.822068960520006" lon="7.735384673119227"><ele>296.0</ele><time>2026-04-21T09:48:37.056Z</time></trkpt><trkpt lat="43.8221455207014" lon="7.73561250641916"><ele>286.0</ele><time>2026-04-21T09:48:38.029Z</time></trkpt><trkpt lat="43.82279694502399" lon="7.737534045938778"><ele>264.66666666666663</ele><time>2026-04-21T09:48:45Z</time></trkpt><trkpt lat="43.82288124512622" lon="7.737787420354248"><ele>243.33333333333331</ele><time>2026-04-21T09:48:46Z</time></trkpt><trkpt lat="43.82296076967642" lon="7.7380332650994355"><ele>222.0</ele><time>2026-04-21T09:48:47Z</time></trkpt><trkpt lat="43.82304426337017" lon="7.738250530532865"><ele>222.0</ele><time>2026-04-21T09:48:48Z</time></trkpt><trkpt lat="43.82313119306103" lon="7.7384669079045185"><ele>222.0</ele><time>2026-04-21T09:48:49Z</time></trkpt><trkpt lat="43.82322351334041" lon="7.738706511084334"><ele>222.0</ele><time>2026-04-21T09:48:50Z</time></trkpt><trkpt lat="43.823303826400526" lon="7.738957291338741"><ele>219.66666666666669</ele><time>2026-04-21T09:48:51Z</time></trkpt><trkpt lat="43.823384455452185" lon="7.739215779126231"><ele>217.33333333333334</ele><time>2026-04-21T09:48:52Z</time></trkpt><trkpt lat="43.82346484447843" lon="7.739477111767659"><ele>215.0</ele><time>2026-04-21T09:48:53Z</time></trkpt><trkpt lat="43.82354865751965" lon="7.739744972326193"><ele>224.33333333333334</ele><time>2026-04-21T09:48:54Z</time></trkpt><trkpt lat="43.82363540972326" lon="7.740026141325897"><ele>233.66666666666669</ele><time>2026-04-21T09:48:55Z</time></trkpt><trkpt lat="43.8237235445346" lon="7.740309541791444"><ele>243.0</ele><time>2026-04-21T09:48:56Z</time></trkpt><trkpt lat="43.823910087860575" lon="7.740881178841344"><ele>240.66666666666669</ele><time>2026-04-21T09:48:58Z</time></trkpt><trkpt lat="43.824011064352646" lon="7.741158333765417"><ele>238.33333333333334</ele><time>2026-04-21T09:48:59Z</time></trkpt><trkpt lat="43.824114020740396" lon="7.741419156440147"><ele>236.0</ele><time>2026-04-21T09:49:00Z</time></trkpt><trkpt lat="43.8242186296155" lon="7.74166754650047"><ele>238.66666666666669</ele><time>2026-04-21T09:49:01Z</time></trkpt><trkpt lat="43.82432981095974" lon="7.741910572248935"><ele>241.33333333333331</ele><time>2026-04-21T09:49:02Z</time></trkpt><trkpt lat="43.824452096291594" lon="7.742154442405335"><ele>244.0</ele><time>2026-04-21T09:49:03Z</time></trkpt><trkpt lat="43.82458047998771" lon="7.742401212379796"><ele>244.0</ele><time>2026-04-21T09:49:03.999Z</time></trkpt><trkpt lat="43.8247168963328" lon="7.742647390935201"><ele>244.0</ele><time>2026-04-21T09:49:04.999Z</time></trkpt><trkpt lat="43.82485669151511" lon="7.742880156294801"><ele>244.0</ele><time>2026-04-21T09:49:05.999Z</time></trkpt><trkpt lat="43.82500100416816" lon="7.743101807010144"><ele>235.0</ele><time>2026-04-21T09:49:06.999Z</time></trkpt><trkpt lat="43.825149320369334" lon="7.743311644077416"><ele>226.0</ele><time>2026-04-21T09:49:07.999Z</time></trkpt><trkpt lat="43.8253003896053" lon="7.743514681959461"><ele>217.0</ele><time>2026-04-21T09:49:08.999Z</time></trkpt><trkpt lat="43.825459583547826" lon="7.743714103518267"><ele>210.66666666666666</ele><time>2026-04-21T09:49:09.999Z</time></trkpt><trkpt lat="43.82562666973228" lon="7.7439120531897885"><ele>204.33333333333331</ele><time>2026-04-21T09:49:10.999Z</time></trkpt><trkpt lat="43.825801693877395" lon="7.744106739168451"><ele>198.0</ele><time>2026-04-21T09:49:11.999Z</time></trkpt><trkpt lat="43.82598135958317" lon="7.744300446209766"><ele>191.66666666666666</ele><time>2026-04-21T09:49:12.999Z</time></trkpt><trkpt lat="43.826152947677265" lon="7.744483809737602"><ele>185.33333333333331</ele><time>2026-04-21T09:49:13.999Z</time></trkpt><trkpt lat="43.82632762048985" lon="7.744655217291387"><ele>179.0</ele><time>2026-04-21T09:49:14.999Z</time></trkpt><trkpt lat="43.82650472233519" lon="7.744814835306265"><ele>179.0</ele><time>2026-04-21T09:49:15.999Z</time></trkpt><trkpt lat="43.82668370716985" lon="7.744958614252852"><ele>179.0</ele><time>2026-04-21T09:49:16.999Z</time></trkpt><trkpt lat="43.82686518216669" lon="7.745090629806003"><ele>179.0</ele><time>2026-04-21T09:49:17.999Z</time></trkpt><trkpt lat="43.827048512393006" lon="7.745210282739637"><ele>189.0</ele><time>2026-04-21T09:49:18.999Z</time></trkpt><trkpt lat="43.827234540722316" lon="7.745321288426409"><ele>199.0</ele><time>2026-04-21T09:49:19.999Z</time></trkpt><trkpt lat="43.82742484648313" lon="7.745429167663811"><ele>209.0</ele><time>2026-04-21T09:49:20.999Z</time></trkpt><trkpt lat="43.82761818573021" lon="7.745530595712768"><ele>218.0</ele><time>2026-04-21T09:49:21.999Z</time></trkpt><trkpt lat="43.827817481944166" lon="7.745624335135807"><ele>227.0</ele><time>2026-04-21T09:49:22.999Z</time></trkpt><trkpt lat="43.82802837309408" lon="7.745705946399519"><ele>236.0</ele><time>2026-04-21T09:49:23.999Z</time></trkpt><trkpt lat="43.82824468427836" lon="7.745776411320913"><ele>236.0</ele><time>2026-04-21T09:49:24.999Z</time></trkpt><trkpt lat="43.82846624407849" lon="7.745836970036384"><ele>236.0</ele><time>2026-04-21T09:49:25.999Z</time></trkpt><trkpt lat="43.828696671517406" lon="7.745885885709746"><ele>249.0</ele><time>2026-04-21T09:49:26.999Z</time></trkpt><trkpt lat="43.82892786836578" lon="7.745930950164582"><ele>262.0</ele><time>2026-04-21T09:49:27.999Z</time></trkpt><trkpt lat="43.82916427374238" lon="7.745966660114795"><ele>273.5</ele><time>2026-04-21T09:49:28.999Z</time></trkpt><trkpt lat="43.829408368219546" lon="7.7459871265843825"><ele>285.0</ele><time>2026-04-21T09:49:29.999Z</time></trkpt><trkpt lat="43.82964539703281" lon="7.745992897008091"><ele>285.0</ele><time>2026-04-21T09:49:30.999Z</time></trkpt><trkpt lat="43.82987209091759" lon="7.745988161381411"><ele>285.0</ele><time>2026-04-21T09:49:31.999Z</time></trkpt><trkpt lat="43.830110787506484" lon="7.745969517978775"><ele>280.5</ele><time>2026-04-21T09:49:33.066Z</time></trkpt><trkpt lat="43.83034788591266" lon="7.7459389484973205"><ele>276.0</ele><time>2026-04-21T09:49:34.063Z</time></trkpt><trkpt lat="43.83058965796883" lon="7.745902275399562"><ele>276.0</ele><time>2026-04-21T09:49:35.061Z</time></trkpt><trkpt lat="43.83083797272343" lon="7.745856522837794"><ele>276.0</ele><time>2026-04-21T09:49:36.064Z</time></trkpt><trkpt lat="43.83108875827796" lon="7.745806227508203"><ele>264.0</ele><time>2026-04-21T09:49:37.064Z</time></trkpt><trkpt lat="43.83133347985919" lon="7.745754446909105"><ele>252.0</ele><time>2026-04-21T09:49:38.029Z</time></trkpt><trkpt lat="43.83157848831407" lon="7.745708925313485"><ele>228.0</ele><time>2026-04-21T09:49:39.026Z</time></trkpt><trkpt lat="43.83230749079555" lon="7.74550628802213"><ele>228.0</ele><time>2026-04-21T09:49:43Z</time></trkpt><trkpt lat="43.83253140905123" lon="7.74544474139569"><ele>228.0</ele><time>2026-04-21T09:49:44Z</time></trkpt><trkpt lat="43.83274685916896" lon="7.745406806461388"><ele>228.0</ele><time>2026-04-21T09:49:45Z</time></trkpt><trkpt lat="43.832958616468204" lon="7.745357803670637"><ele>230.5</ele><time>2026-04-21T09:49:46Z</time></trkpt><trkpt lat="43.83318874457041" lon="7.745325411535919"><ele>233.0</ele><time>2026-04-21T09:49:47Z</time></trkpt><trkpt lat="43.83342065792376" lon="7.745285204768063"><ele>230.33333333333334</ele><time>2026-04-21T09:49:48Z</time></trkpt><trkpt lat="43.83363179991452" lon="7.745244331876124"><ele>227.66666666666669</ele><time>2026-04-21T09:49:49Z</time></trkpt><trkpt lat="43.83384333843746" lon="7.745200067534137"><ele>225.0</ele><time>2026-04-21T09:49:50Z</time></trkpt><trkpt lat="43.83405399800183" lon="7.745160458255535"><ele>227.33333333333331</ele><time>2026-04-21T09:49:51Z</time></trkpt><trkpt lat="43.834259820628226" lon="7.745129935499912"><ele>229.66666666666666</ele><time>2026-04-21T09:49:52Z</time></trkpt><trkpt lat="43.834459904159004" lon="7.74511106878314"><ele>232.0</ele><time>2026-04-21T09:49:53Z</time></trkpt><trkpt lat="43.834648090169985" lon="7.745099259529207"><ele>232.0</ele><time>2026-04-21T09:49:54Z</time></trkpt><trkpt lat="43.83482408533258" lon="7.745095113361151"><ele>232.0</ele><time>2026-04-21T09:49:55Z</time></trkpt><trkpt lat="43.83500527397501" lon="7.745096252870449"><ele>232.0</ele><time>2026-04-21T09:49:56Z</time></trkpt><trkpt lat="43.83519278774349" lon="7.745107283579546"><ele>225.66666666666666</ele><time>2026-04-21T09:49:57Z</time></trkpt><trkpt lat="43.83538448136501" lon="7.745131177247603"><ele>219.33333333333331</ele><time>2026-04-21T09:49:58Z</time></trkpt><trkpt lat="43.835574416493266" lon="7.745164546088063"><ele>213.0</ele><time>2026-04-21T09:49:59Z</time></trkpt><trkpt lat="43.83576354963431" lon="7.74520534103532"><ele>210.66666666666669</ele><time>2026-04-21T09:50:00Z</time></trkpt><trkpt lat="43.83595101289738" lon="7.745257631706091"><ele>208.33333333333334</ele><time>2026-04-21T09:50:01Z</time></trkpt><trkpt lat="43.83613704733323" lon="7.745320979147306"><ele>206.0</ele><time>2026-04-21T09:50:02Z</time></trkpt><trkpt lat="43.836317179855435" lon="7.745391456857765"><ele>206.0</ele><time>2026-04-21T09:50:03Z</time></trkpt><trkpt lat="43.83648329691739" lon="7.74546884491692"><ele>206.0</ele><time>2026-04-21T09:50:04Z</time></trkpt><trkpt lat="43.836646351083125" lon="7.745554504802887"><ele>206.0</ele><time>2026-04-21T09:50:05Z</time></trkpt><trkpt lat="43.83681587537251" lon="7.745649501625165"><ele>211.66666666666669</ele><time>2026-04-21T09:50:06Z</time></trkpt><trkpt lat="43.83698379032909" lon="7.7457570416528325"><ele>217.33333333333331</ele><time>2026-04-21T09:50:07Z</time></trkpt><trkpt lat="43.83714949849313" lon="7.74587152498812"><ele>223.0</ele><time>2026-04-21T09:50:08Z</time></trkpt><trkpt lat="43.83730754544856" lon="7.745993234675653"><ele>227.0</ele><time>2026-04-21T09:50:09Z</time></trkpt><trkpt lat="43.83746122918903" lon="7.746116951091353"><ele>231.0</ele><time>2026-04-21T09:50:10Z</time></trkpt><trkpt lat="43.837609271666786" lon="7.746248547073303"><ele>235.0</ele><time>2026-04-21T09:50:11Z</time></trkpt><trkpt lat="43.83775365420894" lon="7.746386280107246"><ele>241.0</ele><time>2026-04-21T09:50:12Z</time></trkpt><trkpt lat="43.83789669501294" lon="7.746532993802967"><ele>247.0</ele><time>2026-04-21T09:50:13Z</time></trkpt><trkpt lat="43.83803534884899" lon="7.746689938834845"><ele>253.0</ele><time>2026-04-21T09:50:14Z</time></trkpt><trkpt lat="43.8381718801292" lon="7.746851481231402"><ele>254.33333333333331</ele><time>2026-04-21T09:50:15Z</time></trkpt><trkpt lat="43.83830563702413" lon="7.747023208949482"><ele>255.66666666666669</ele><time>2026-04-21T09:50:16Z</time></trkpt><trkpt lat="43.83843255516018" lon="7.747191725423499"><ele>257.0</ele><time>2026-04-21T09:50:17Z</time></trkpt><trkpt lat="43.838550100535144" lon="7.747362592682657"><ele>261.0</ele><time>2026-04-21T09:50:18Z</time></trkpt><trkpt lat="43.83866522920883" lon="7.747536620968798"><ele>265.0</ele><time>2026-04-21T09:50:19Z</time></trkpt><trkpt lat="43.8387746087177" lon="7.747712860413276"><ele>269.0</ele><time>2026-04-21T09:50:20Z</time></trkpt><trkpt lat="43.838880449081714" lon="7.74789824692653"><ele>269.0</ele><time>2026-04-21T09:50:21Z</time></trkpt><trkpt lat="43.83898589067302" lon="7.748097196637874"><ele>269.0</ele><time>2026-04-21T09:50:22Z</time></trkpt><trkpt lat="43.839090653599904" lon="7.748301104710866"><ele>269.0</ele><time>2026-04-21T09:50:23Z</time></trkpt><trkpt lat="43.8391902182606" lon="7.748506884868527"><ele>268.0</ele><time>2026-04-21T09:50:24Z</time></trkpt><trkpt lat="43.839279991677046" lon="7.748719269848696"><ele>267.0</ele><time>2026-04-21T09:50:25Z</time></trkpt><trkpt lat="43.83937021974659" lon="7.74892873062802"><ele>266.0</ele><time>2026-04-21T09:50:26Z</time></trkpt><trkpt lat="43.839454052619274" lon="7.749134937284713"><ele>279.6666666666667</ele><time>2026-04-21T09:50:27Z</time></trkpt><trkpt lat="43.83953708370135" lon="7.749352235249827"><ele>293.3333333333333</ele><time>2026-04-21T09:50:28Z</time></trkpt><trkpt lat="43.83961795894321" lon="7.749574397764415"><ele>307.0</ele><time>2026-04-21T09:50:29Z</time></trkpt><trkpt lat="43.8396958149453" lon="7.749796567533498"><ele>307.0</ele><time>2026-04-21T09:50:30Z</time></trkpt><trkpt lat="43.839772603171625" lon="7.750016242780526"><ele>307.0</ele><time>2026-04-21T09:50:31Z</time></trkpt><trkpt lat="43.83984738664857" lon="7.750230354292364"><ele>307.0</ele><time>2026-04-21T09:50:32Z</time></trkpt><trkpt lat="43.839895333956804" lon="7.750470617548433"><ele>307.5</ele><time>2026-04-21T09:50:33.064Z</time></trkpt><trkpt lat="43.83993513179586" lon="7.75069577345233"><ele>308.0</ele><time>2026-04-21T09:50:34.059Z</time></trkpt><trkpt lat="43.839943097315455" lon="7.7534948366315914"><ele>271.0</ele><time>2026-04-21T09:50:37.5Z</time></trkpt><trkpt lat="43.83994958222607" lon="7.752733143348469"><ele>289.5</ele><time>2026-04-21T09:50:43Z</time></trkpt><trkpt lat="43.840270489641185" lon="7.752747094079297"><ele>308.0</ele><time>2026-04-21T09:50:44Z</time></trkpt><trkpt lat="43.840162725735155" lon="7.752844777820072"><ele>295.6666666666667</ele><time>2026-04-21T09:50:45Z</time></trkpt><trkpt lat="43.83997053864227" lon="7.752956797784536"><ele>283.3333333333333</ele><time>2026-04-21T09:50:46Z</time></trkpt><trkpt lat="43.83995277686866" lon="7.7531603083180896"><ele>271.0</ele><time>2026-04-21T09:54:15.001Z</time></trkpt><trkpt lat="43.839946346010706" lon="7.753309553939241"><ele>271.0</ele><time>2026-04-21T09:54:16.001Z</time></trkpt><trkpt lat="43.83992478709258" lon="7.753486769862947"><ele>271.0</ele><time>2026-04-21T09:54:17.001Z</time></trkpt><trkpt lat="43.83989863357615" lon="7.753688818817764"><ele>271.0</ele><time>2026-04-21T09:54:18.001Z</time></trkpt><trkpt lat="43.839870443368426" lon="7.753912880641473"><ele>271.0</ele><time>2026-04-21T09:54:19.001Z</time></trkpt><trkpt lat="43.83982904692446" lon="7.754155307726077"><ele>269.0</ele><time>2026-04-21T09:54:20.001Z</time></trkpt><trkpt lat="43.839777328219355" lon="7.754405312752977"><ele>267.0</ele><time>2026-04-21T09:54:21.001Z</time></trkpt><trkpt lat="43.83971254869267" lon="7.754657791628698"><ele>265.0</ele><time>2026-04-21T09:54:22.001Z</time></trkpt><trkpt lat="43.839639764253015" lon="7.754920353831242"><ele>268.0</ele><time>2026-04-21T09:54:23.001Z</time></trkpt><trkpt lat="43.83955561258574" lon="7.755321977226995"><ele>271.0</ele><time>2026-04-21T09:54:24.001Z</time></trkpt><trkpt lat="43.839441084876036" lon="7.755622900499668"><ele>271.0</ele><time>2026-04-21T09:54:25.002Z</time></trkpt><trkpt lat="43.839334066385234" lon="7.755925215671096"><ele>271.0</ele><time>2026-04-21T09:54:26.002Z</time></trkpt><trkpt lat="43.839219183306774" lon="7.756213571558136"><ele>261.0</ele><time>2026-04-21T09:54:27.002Z</time></trkpt><trkpt lat="43.83909923952764" lon="7.756500393501126"><ele>251.0</ele><time>2026-04-21T09:54:28.002Z</time></trkpt><trkpt lat="43.83897545208226" lon="7.756785898277828"><ele>256.5</ele><time>2026-04-21T09:54:29.002Z</time></trkpt><trkpt lat="43.83885725190235" lon="7.757059258137776"><ele>262.0</ele><time>2026-04-21T09:54:30.002Z</time></trkpt><trkpt lat="43.83873711414877" lon="7.757341443832224"><ele>262.0</ele><time>2026-04-21T09:54:31.002Z</time></trkpt><trkpt lat="43.8386130408494" lon="7.757627588785413"><ele>262.0</ele><time>2026-04-21T09:54:32.002Z</time></trkpt><trkpt lat="43.83849016179909" lon="7.7579167538476295"><ele>252.0</ele><time>2026-04-21T09:54:33.002Z</time></trkpt><trkpt lat="43.83836952072575" lon="7.758204279454241"><ele>242.0</ele><time>2026-04-21T09:54:34.002Z</time></trkpt><trkpt lat="43.83825438796309" lon="7.758485286898329"><ele>249.5</ele><time>2026-04-21T09:54:35.002Z</time></trkpt><trkpt lat="43.83813879715996" lon="7.758769239070694"><ele>257.0</ele><time>2026-04-21T09:54:36.002Z</time></trkpt><trkpt lat="43.83801969452753" lon="7.759055649232036"><ele>257.0</ele><time>2026-04-21T09:54:37.002Z</time></trkpt><trkpt lat="43.83790011705409" lon="7.759343838658408"><ele>257.0</ele><time>2026-04-21T09:54:38.002Z</time></trkpt><trkpt lat="43.83777680031678" lon="7.7596374507210095"><ele>263.0</ele><time>2026-04-21T09:54:39.002Z</time></trkpt><trkpt lat="43.83765466481134" lon="7.759927910363447"><ele>269.0</ele><time>2026-04-21T09:54:40.002Z</time></trkpt><trkpt lat="43.83753199553121" lon="7.760214882568177"><ele>249.0</ele><time>2026-04-21T09:54:41.002Z</time></trkpt><trkpt lat="43.837408135336034" lon="7.760498559895317"><ele>229.0</ele><time>2026-04-21T09:54:42.002Z</time></trkpt><trkpt lat="43.837286572220414" lon="7.76078366850086"><ele>223.5</ele><time>2026-04-21T09:54:43.002Z</time></trkpt><trkpt lat="43.83716285681956" lon="7.761073957127664"><ele>218.0</ele><time>2026-04-21T09:54:44.002Z</time></trkpt><trkpt lat="43.837040759334016" lon="7.761371178506796"><ele>218.0</ele><time>2026-04-21T09:54:45.002Z</time></trkpt><trkpt lat="43.836918344892226" lon="7.761668624795894"><ele>218.0</ele><time>2026-04-21T09:54:46.002Z</time></trkpt><trkpt lat="43.83679347610666" lon="7.761964153293643"><ele>208.5</ele><time>2026-04-21T09:54:47.002Z</time></trkpt><trkpt lat="43.83667282139531" lon="7.762261975544663"><ele>199.0</ele><time>2026-04-21T09:54:48.002Z</time></trkpt><trkpt lat="43.83655690993102" lon="7.7625490225362865"><ele>202.33333333333331</ele><time>2026-04-21T09:54:49.002Z</time></trkpt><trkpt lat="43.83644764993429" lon="7.762822038405305"><ele>205.66666666666669</ele><time>2026-04-21T09:54:50.002Z</time></trkpt><trkpt lat="43.83634380246936" lon="7.7630886871323534"><ele>209.0</ele><time>2026-04-21T09:54:51.002Z</time></trkpt><trkpt lat="43.83624217593111" lon="7.763367139637416"><ele>216.5</ele><time>2026-04-21T09:54:52.002Z</time></trkpt><trkpt lat="43.83614276608771" lon="7.763655516947222"><ele>224.0</ele><time>2026-04-21T09:54:53.002Z</time></trkpt><trkpt lat="43.8360439630942" lon="7.763954688334443"><ele>219.0</ele><time>2026-04-21T09:54:54.002Z</time></trkpt><trkpt lat="43.835944170180866" lon="7.764262107864103"><ele>214.0</ele><time>2026-04-21T09:54:55.002Z</time></trkpt><trkpt lat="43.835844869691805" lon="7.764577477112164"><ele>224.5</ele><time>2026-04-21T09:54:56.002Z</time></trkpt><trkpt lat="43.83574981297814" lon="7.764898214002643"><ele>235.0</ele><time>2026-04-21T09:54:57.002Z</time></trkpt><trkpt lat="43.83565691281828" lon="7.765221745225133"><ele>250.5</ele><time>2026-04-21T09:54:58.002Z</time></trkpt><trkpt lat="43.83556896371869" lon="7.765548292421172"><ele>266.0</ele><time>2026-04-21T09:54:59.002Z</time></trkpt><trkpt lat="43.83548643514232" lon="7.765879026257754"><ele>273.0</ele><time>2026-04-21T09:55:00.002Z</time></trkpt><trkpt lat="43.83541119641009" lon="7.766214926919305"><ele>280.0</ele><time>2026-04-21T09:55:01.002Z</time></trkpt><trkpt lat="43.83534077379578" lon="7.766554880933204"><ele>276.0</ele><time>2026-04-21T09:55:02.002Z</time></trkpt><trkpt lat="43.83527340672248" lon="7.7668983069748565"><ele>272.0</ele><time>2026-04-21T09:55:03.002Z</time></trkpt><trkpt lat="43.83520890670289" lon="7.767269290192104"><ele>272.0</ele><time>2026-04-21T09:55:04.066Z</time></trkpt><trkpt lat="43.83515700084811" lon="7.767623490418818"><ele>272.0</ele><time>2026-04-21T09:55:05.065Z</time></trkpt><trkpt lat="43.83511097769516" lon="7.767982095979331"><ele>265.0</ele><time>2026-04-21T09:55:06.064Z</time></trkpt><trkpt lat="43.83504691276571" lon="7.76834214309735"><ele>258.0</ele><time>2026-04-21T09:55:07.066Z</time></trkpt><trkpt lat="43.8349886722593" lon="7.768699415215313"><ele>228.0</ele><time>2026-04-21T09:55:08.06Z</time></trkpt><trkpt lat="43.83406530420264" lon="7.772480505636346"><ele>242.5</ele><time>2026-04-21T09:55:14.002Z</time></trkpt><trkpt lat="43.83401404576115" lon="7.772819203704876"><ele>257.0</ele><time>2026-04-21T09:55:15.002Z</time></trkpt><trkpt lat="43.83372419993407" lon="7.7715778002704"><ele>242.5</ele><time>2026-04-21T09:55:16.002Z</time></trkpt><trkpt lat="43.83411284530607" lon="7.77157297308794"><ele>228.0</ele><time>2026-04-21T09:55:17.002Z</time></trkpt><trkpt lat="43.834173322150455" lon="7.771872297793176"><ele>228.0</ele><time>2026-04-21T09:55:18.002Z</time></trkpt><trkpt lat="43.83414922400737" lon="7.772068773330962"><ele>228.0</ele><time>2026-04-21T09:55:19.002Z</time></trkpt><trkpt lat="43.83417379214856" lon="7.772434619960562"><ele>228.0</ele><time>2026-04-21T09:55:20.002Z</time></trkpt><trkpt lat="43.83387019344409" lon="7.775720621982957"><ele>191.5</ele><time>2026-04-21T09:55:29.001Z</time></trkpt><trkpt lat="43.83381627368081" lon="7.776061229725383"><ele>155.0</ele><time>2026-04-21T09:55:30.001Z</time></trkpt><trkpt lat="43.83374423857898" lon="7.77640903177674"><ele>155.0</ele><time>2026-04-21T09:55:31.001Z</time></trkpt><trkpt lat="43.83367461618605" lon="7.776729809099017"><ele>155.0</ele><time>2026-04-21T09:55:32.001Z</time></trkpt><trkpt lat="43.833624259937864" lon="7.777055019873288"><ele>153.0</ele><time>2026-04-21T09:55:33.001Z</time></trkpt><trkpt lat="43.83357358058426" lon="7.777385770455762"><ele>151.0</ele><time>2026-04-21T09:55:34.001Z</time></trkpt><trkpt lat="43.83352523037104" lon="7.777712776971036"><ele>149.0</ele><time>2026-04-21T09:55:35.001Z</time></trkpt><trkpt lat="43.833480840702755" lon="7.7780362989885"><ele>147.0</ele><time>2026-04-21T09:55:36.001Z</time></trkpt><trkpt lat="43.83343199081986" lon="7.778352078877574"><ele>156.5</ele><time>2026-04-21T09:55:37.001Z</time></trkpt><trkpt lat="43.833381223592724" lon="7.778666746924929"><ele>166.0</ele><time>2026-04-21T09:55:38.001Z</time></trkpt><trkpt lat="43.833332554749305" lon="7.778983985133177"><ele>166.0</ele><time>2026-04-21T09:55:39.001Z</time></trkpt><trkpt lat="43.83327919385637" lon="7.779295874782503"><ele>166.0</ele><time>2026-04-21T09:55:40.001Z</time></trkpt><trkpt lat="43.833233257354834" lon="7.7796196559290305"><ele>176.5</ele><time>2026-04-21T09:55:41.001Z</time></trkpt><trkpt lat="43.8331836026141" lon="7.779941901628145"><ele>187.0</ele><time>2026-04-21T09:55:42.001Z</time></trkpt><trkpt lat="43.83313429793138" lon="7.780261216001301"><ele>192.5</ele><time>2026-04-21T09:55:43.001Z</time></trkpt><trkpt lat="43.83307903064992" lon="7.780584873875023"><ele>198.0</ele><time>2026-04-21T09:55:44.001Z</time></trkpt><trkpt lat="43.833027843854914" lon="7.780913988623344"><ele>202.0</ele><time>2026-04-21T09:55:45.001Z</time></trkpt><trkpt lat="43.83299235640647" lon="7.7812389294010975"><ele>206.0</ele><time>2026-04-21T09:55:46.001Z</time></trkpt><trkpt lat="43.83294594170413" lon="7.781568338745631"><ele>208.5</ele><time>2026-04-21T09:55:47.001Z</time></trkpt><trkpt lat="43.83289198160448" lon="7.781895172579508"><ele>211.0</ele><time>2026-04-21T09:55:48.001Z</time></trkpt><trkpt lat="43.83284424654558" lon="7.78222776376773"><ele>211.0</ele><time>2026-04-21T09:55:49.001Z</time></trkpt><trkpt lat="43.83279426216882" lon="7.7825579504458124"><ele>211.0</ele><time>2026-04-21T09:55:50.001Z</time></trkpt><trkpt lat="43.832740983597695" lon="7.782885700185142"><ele>218.0</ele><time>2026-04-21T09:55:51.001Z</time></trkpt><trkpt lat="43.832690457026565" lon="7.783218501860655"><ele>225.0</ele><time>2026-04-21T09:55:52.001Z</time></trkpt><trkpt lat="43.832640309679086" lon="7.783550085728683"><ele>236.0</ele><time>2026-04-21T09:55:53.001Z</time></trkpt><trkpt lat="43.83259054612586" lon="7.7838802741195465"><ele>247.0</ele><time>2026-04-21T09:55:54.001Z</time></trkpt><trkpt lat="43.83250902080097" lon="7.784196897466629"><ele>248.0</ele><time>2026-04-21T09:55:55.001Z</time></trkpt><trkpt lat="43.83245097527924" lon="7.7845309026767175"><ele>249.0</ele><time>2026-04-21T09:55:56.001Z</time></trkpt><trkpt lat="43.8323843528981" lon="7.784887335881955"><ele>244.0</ele><time>2026-04-21T09:55:57.065Z</time></trkpt><trkpt lat="43.83232638750707" lon="7.7852109511001775"><ele>239.0</ele><time>2026-04-21T09:55:58.057Z</time></trkpt><trkpt lat="43.83226227875859" lon="7.788007936131705"><ele>178.0</ele><time>2026-04-21T09:56:01.505Z</time></trkpt><trkpt lat="43.83236715317476" lon="7.789176998886078"><ele>178.0</ele><time>2026-04-21T09:56:09.001Z</time></trkpt><trkpt lat="43.83227907836069" lon="7.788771480332062"><ele>178.0</ele><time>2026-04-21T09:56:10.001Z</time></trkpt><trkpt lat="43.832370293788635" lon="7.789181441299695"><ele>170.0</ele><time>2026-04-21T09:56:11.001Z</time></trkpt><trkpt lat="43.83243812564873" lon="7.789624224616603"><ele>162.0</ele><time>2026-04-21T09:56:12.001Z</time></trkpt><trkpt lat="43.83253166684839" lon="7.790067064554071"><ele>158.5</ele><time>2026-04-21T09:56:13.001Z</time></trkpt><trkpt lat="43.83263336979925" lon="7.79047663799642"><ele>155.0</ele><time>2026-04-21T09:56:14.001Z</time></trkpt><trkpt lat="43.832746551854996" lon="7.790904684489622"><ele>164.5</ele><time>2026-04-21T09:56:15.001Z</time></trkpt><trkpt lat="43.83285075043465" lon="7.791325119240771"><ele>174.0</ele><time>2026-04-21T09:56:16.001Z</time></trkpt><trkpt lat="43.83294051426884" lon="7.791738937240282"><ele>167.5</ele><time>2026-04-21T09:56:17.001Z</time></trkpt><trkpt lat="43.83302371689027" lon="7.7920720877537555"><ele>161.0</ele><time>2026-04-21T09:56:18.001Z</time></trkpt><trkpt lat="43.83310720932137" lon="7.792389840135204"><ele>150.0</ele><time>2026-04-21T09:56:19.001Z</time></trkpt><trkpt lat="43.833192621221954" lon="7.792714801432281"><ele>139.0</ele><time>2026-04-21T09:56:20.001Z</time></trkpt><trkpt lat="43.83328102855901" lon="7.7930413439367605"><ele>139.0</ele><time>2026-04-21T09:56:21.001Z</time></trkpt><trkpt lat="43.83337192829744" lon="7.793368043427313"><ele>139.0</ele><time>2026-04-21T09:56:22.001Z</time></trkpt><trkpt lat="43.833464132080216" lon="7.7936915971815"><ele>125.5</ele><time>2026-04-21T09:56:23.001Z</time></trkpt><trkpt lat="43.83355528027013" lon="7.794015744775017"><ele>112.0</ele><time>2026-04-21T09:56:24.001Z</time></trkpt><trkpt lat="43.83364639993326" lon="7.794346181403095"><ele>102.5</ele><time>2026-04-21T09:56:25.001Z</time></trkpt><trkpt lat="43.83373494296445" lon="7.79467814622009"><ele>93.0</ele><time>2026-04-21T09:56:26.001Z</time></trkpt><trkpt lat="43.83381835212188" lon="7.795014024622619"><ele>87.0</ele><time>2026-04-21T09:56:27.001Z</time></trkpt><trkpt lat="43.83390066095739" lon="7.795346029883971"><ele>81.0</ele><time>2026-04-21T09:56:28.001Z</time></trkpt><trkpt lat="43.833989937913174" lon="7.795681356912454"><ele>76.0</ele><time>2026-04-21T09:56:29.001Z</time></trkpt><trkpt lat="43.83407984918951" lon="7.796019240216371"><ele>71.0</ele><time>2026-04-21T09:56:30.001Z</time></trkpt><trkpt lat="43.834169046263504" lon="7.796358533703565"><ele>71.0</ele><time>2026-04-21T09:56:31.001Z</time></trkpt><trkpt lat="43.83425451959704" lon="7.7966986759298"><ele>71.0</ele><time>2026-04-21T09:56:32.001Z</time></trkpt><trkpt lat="43.83434367751701" lon="7.797043793427177"><ele>86.5</ele><time>2026-04-21T09:56:33.001Z</time></trkpt><trkpt lat="43.83442965009334" lon="7.7973844022169185"><ele>102.0</ele><time>2026-04-21T09:56:34.001Z</time></trkpt><trkpt lat="43.834511508478215" lon="7.797729900113576"><ele>117.5</ele><time>2026-04-21T09:56:35.001Z</time></trkpt><trkpt lat="43.83458898978322" lon="7.798073663187423"><ele>133.0</ele><time>2026-04-21T09:56:36.001Z</time></trkpt><trkpt lat="43.834660476840014" lon="7.798416892429767"><ele>144.0</ele><time>2026-04-21T09:56:37.002Z</time></trkpt><trkpt lat="43.83473589122781" lon="7.798755385403288"><ele>155.0</ele><time>2026-04-21T09:56:38.002Z</time></trkpt><trkpt lat="43.834818828604995" lon="7.799092766964683"><ele>168.0</ele><time>2026-04-21T09:56:39.002Z</time></trkpt><trkpt lat="43.83490765600514" lon="7.799426466855907"><ele>181.0</ele><time>2026-04-21T09:56:40.002Z</time></trkpt><trkpt lat="43.83499646031473" lon="7.799760535261047"><ele>181.0</ele><time>2026-04-21T09:56:41.002Z</time></trkpt><trkpt lat="43.835080995044784" lon="7.800089327596973"><ele>181.0</ele><time>2026-04-21T09:56:42.002Z</time></trkpt><trkpt lat="43.83516419912817" lon="7.800420710730137"><ele>184.5</ele><time>2026-04-21T09:56:43.002Z</time></trkpt><trkpt lat="43.83524872816875" lon="7.80076213858728"><ele>188.0</ele><time>2026-04-21T09:56:44.002Z</time></trkpt><trkpt lat="43.835338316079145" lon="7.80111794286068"><ele>188.0</ele><time>2026-04-21T09:56:45.066Z</time></trkpt><trkpt lat="43.83542264625569" lon="7.801449037164046"><ele>188.0</ele><time>2026-04-21T09:56:46.06Z</time></trkpt><trkpt lat="43.83611459764418" lon="7.804169288186814"><ele>148.0</ele><time>2026-04-21T09:56:54.002Z</time></trkpt><trkpt lat="43.836199350560065" lon="7.804504707224617"><ele>108.0</ele><time>2026-04-21T09:56:55.002Z</time></trkpt><trkpt lat="43.836294296855165" lon="7.804831347460207"><ele>113.5</ele><time>2026-04-21T09:56:56.002Z</time></trkpt><trkpt lat="43.83638043088458" lon="7.805175146967188"><ele>119.0</ele><time>2026-04-21T09:56:57.002Z</time></trkpt><trkpt lat="43.836484770860245" lon="7.80552354185177"><ele>119.0</ele><time>2026-04-21T09:56:58.002Z</time></trkpt><trkpt lat="43.836576524115245" lon="7.805849763510407"><ele>119.0</ele><time>2026-04-21T09:56:59.002Z</time></trkpt><trkpt lat="43.8366578826965" lon="7.806168669436419"><ele>123.0</ele><time>2026-04-21T09:57:00.002Z</time></trkpt><trkpt lat="43.836747132668926" lon="7.806498339897483"><ele>127.0</ele><time>2026-04-21T09:57:01.002Z</time></trkpt><trkpt lat="43.8368345927288" lon="7.8068210006476075"><ele>139.5</ele><time>2026-04-21T09:57:02.002Z</time></trkpt><trkpt lat="43.83692854323019" lon="7.807138566010893"><ele>152.0</ele><time>2026-04-21T09:57:03.002Z</time></trkpt><trkpt lat="43.83702126325734" lon="7.807451388572051"><ele>159.5</ele><time>2026-04-21T09:57:04.002Z</time></trkpt><trkpt lat="43.837122857191815" lon="7.807773702713842"><ele>167.0</ele><time>2026-04-21T09:57:05.002Z</time></trkpt><trkpt lat="43.8372316660083" lon="7.808089484560099"><ele>167.0</ele><time>2026-04-21T09:57:06.002Z</time></trkpt><trkpt lat="43.83734807464273" lon="7.808404760246127"><ele>167.0</ele><time>2026-04-21T09:57:07.002Z</time></trkpt><trkpt lat="43.837462571701714" lon="7.80871868026467"><ele>165.5</ele><time>2026-04-21T09:57:08.002Z</time></trkpt><trkpt lat="43.8375877244232" lon="7.809051596073716"><ele>164.0</ele><time>2026-04-21T09:57:09.002Z</time></trkpt><trkpt lat="43.837716479436324" lon="7.809390046226264"><ele>156.5</ele><time>2026-04-21T09:57:10.062Z</time></trkpt><trkpt lat="43.83786925397558" lon="7.809678023309573"><ele>149.0</ele><time>2026-04-21T09:57:11.068Z</time></trkpt><trkpt lat="43.8396278268907" lon="7.811861420705254"><ele>132.33333333333331</ele><time>2026-04-21T09:57:21.002Z</time></trkpt><trkpt lat="43.839808201973156" lon="7.812050817603606"><ele>115.66666666666666</ele><time>2026-04-21T09:57:22.002Z</time></trkpt><trkpt lat="43.83999611575889" lon="7.812209171129016"><ele>99.0</ele><time>2026-04-21T09:57:23.002Z</time></trkpt><trkpt lat="43.840183808197" lon="7.8123738311987685"><ele>92.5</ele><time>2026-04-21T09:57:24.002Z</time></trkpt><trkpt lat="43.84036708051297" lon="7.81254168075501"><ele>86.0</ele><time>2026-04-21T09:57:25.002Z</time></trkpt><trkpt lat="43.84055245158812" lon="7.8127363116096005"><ele>80.0</ele><time>2026-04-21T09:57:26.002Z</time></trkpt><trkpt lat="43.840737611522336" lon="7.812916110340655"><ele>74.0</ele><time>2026-04-21T09:57:27.002Z</time></trkpt><trkpt lat="43.84091844829706" lon="7.813115684605907"><ele>68.5</ele><time>2026-04-21T09:57:28.001Z</time></trkpt><trkpt lat="43.84109847611766" lon="7.813319098787085"><ele>63.0</ele><time>2026-04-21T09:57:29.001Z</time></trkpt><trkpt lat="43.841276678050306" lon="7.813526574445841"><ele>62.5</ele><time>2026-04-21T09:57:30.001Z</time></trkpt><trkpt lat="43.841453513315926" lon="7.8137302981124614"><ele>62.0</ele><time>2026-04-21T09:57:31.001Z</time></trkpt><trkpt lat="43.84162956136694" lon="7.813932603507692"><ele>63.0</ele><time>2026-04-21T09:57:32.001Z</time></trkpt><trkpt lat="43.84180394077478" lon="7.814140838485213"><ele>64.0</ele><time>2026-04-21T09:57:33.001Z</time></trkpt><trkpt lat="43.841968882372356" lon="7.814358371812423"><ele>66.0</ele><time>2026-04-21T09:57:34.001Z</time></trkpt><trkpt lat="43.84213207921661" lon="7.8145840116793845"><ele>68.0</ele><time>2026-04-21T09:57:35.001Z</time></trkpt><trkpt lat="43.84228794592967" lon="7.814812668494342"><ele>68.0</ele><time>2026-04-21T09:57:36.001Z</time></trkpt><trkpt lat="43.84245305032891" lon="7.815053021783907"><ele>68.0</ele><time>2026-04-21T09:57:37.001Z</time></trkpt><trkpt lat="43.842591613856705" lon="7.815311226834287"><ele>85.0</ele><time>2026-04-21T09:57:38.001Z</time></trkpt><trkpt lat="43.8427341489664" lon="7.815570042813913"><ele>102.0</ele><time>2026-04-21T09:57:39.001Z</time></trkpt><trkpt lat="43.8428749241201" lon="7.815833167270656"><ele>117.5</ele><time>2026-04-21T09:57:40.001Z</time></trkpt><trkpt lat="43.8430096843321" lon="7.816099010653333"><ele>133.0</ele><time>2026-04-21T09:57:41.001Z</time></trkpt><trkpt lat="43.84314615435065" lon="7.816365659857152"><ele>133.0</ele><time>2026-04-21T09:57:42.001Z</time></trkpt><trkpt lat="43.843276528673435" lon="7.81663631629389"><ele>133.0</ele><time>2026-04-21T09:57:43.001Z</time></trkpt><trkpt lat="43.84339785433432" lon="7.816914451060505"><ele>149.0</ele><time>2026-04-21T09:57:44.001Z</time></trkpt><trkpt lat="43.84351243240617" lon="7.8171959288201185"><ele>165.0</ele><time>2026-04-21T09:57:45.001Z</time></trkpt><trkpt lat="43.843625735218964" lon="7.817479458279151"><ele>159.0</ele><time>2026-04-21T09:57:46.001Z</time></trkpt><trkpt lat="43.84373341262682" lon="7.817766457537188"><ele>153.0</ele><time>2026-04-21T09:57:47.001Z</time></trkpt><trkpt lat="43.84383615359802" lon="7.818058913386516"><ele>153.0</ele><time>2026-04-21T09:57:48.001Z</time></trkpt><trkpt lat="43.84392796580347" lon="7.818358528626544"><ele>153.0</ele><time>2026-04-21T09:57:49.001Z</time></trkpt><trkpt lat="43.84401270929712" lon="7.818662128191739"><ele>143.5</ele><time>2026-04-21T09:57:50.001Z</time></trkpt><trkpt lat="43.84409353368783" lon="7.818967492887658"><ele>134.0</ele><time>2026-04-21T09:57:51.001Z</time></trkpt><trkpt lat="43.84416657768417" lon="7.81927562154563"><ele>136.5</ele><time>2026-04-21T09:57:52.001Z</time></trkpt><trkpt lat="43.844233984960326" lon="7.81958378368611"><ele>139.0</ele><time>2026-04-21T09:57:53.001Z</time></trkpt><trkpt lat="43.84429748654899" lon="7.819882797820549"><ele>133.66666666666669</ele><time>2026-04-21T09:57:54.001Z</time></trkpt><trkpt lat="43.84434945470795" lon="7.8201650943309495"><ele>128.33333333333334</ele><time>2026-04-21T09:57:55.001Z</time></trkpt><trkpt lat="43.8443966595974" lon="7.820443646421138"><ele>123.0</ele><time>2026-04-21T09:57:56.001Z</time></trkpt><trkpt lat="43.84444094649933" lon="7.820725692993626"><ele>129.33333333333334</ele><time>2026-04-21T09:57:57.001Z</time></trkpt><trkpt lat="43.84449055680616" lon="7.821017076664478"><ele>135.66666666666669</ele><time>2026-04-21T09:57:58.001Z</time></trkpt><trkpt lat="43.84453264457543" lon="7.821315437395715"><ele>142.0</ele><time>2026-04-21T09:57:59.001Z</time></trkpt><trkpt lat="43.84456295776907" lon="7.8216164921675615"><ele>149.66666666666669</ele><time>2026-04-21T09:58:00.001Z</time></trkpt><trkpt lat="43.84458032500385" lon="7.821924122433138"><ele>157.33333333333334</ele><time>2026-04-21T09:58:01.001Z</time></trkpt><trkpt lat="43.844591560598545" lon="7.822235872649952"><ele>165.0</ele><time>2026-04-21T09:58:02.001Z</time></trkpt><trkpt lat="43.84460474060383" lon="7.822552310331806"><ele>167.5</ele><time>2026-04-21T09:58:03.001Z</time></trkpt><trkpt lat="43.84460229930085" lon="7.8228735743497015"><ele>170.0</ele><time>2026-04-21T09:58:04.001Z</time></trkpt><trkpt lat="43.844588860734994" lon="7.823200132801875"><ele>173.0</ele><time>2026-04-21T09:58:05.001Z</time></trkpt><trkpt lat="43.844578594652425" lon="7.823531799378843"><ele>176.0</ele><time>2026-04-21T09:58:06.001Z</time></trkpt><trkpt lat="43.84457346062422" lon="7.823860684068551"><ele>176.0</ele><time>2026-04-21T09:58:07.001Z</time></trkpt><trkpt lat="43.84456801876951" lon="7.824191616488979"><ele>176.0</ele><time>2026-04-21T09:58:08.001Z</time></trkpt><trkpt lat="43.84456327406109" lon="7.8245237138082695"><ele>177.0</ele><time>2026-04-21T09:58:09.001Z</time></trkpt><trkpt lat="43.84456048548618" lon="7.824851890717351"><ele>178.0</ele><time>2026-04-21T09:58:10.001Z</time></trkpt><trkpt lat="43.84455785124794" lon="7.825180399293019"><ele>176.0</ele><time>2026-04-21T09:58:11.001Z</time></trkpt><trkpt lat="43.84455639612123" lon="7.825507763733462"><ele>174.0</ele><time>2026-04-21T09:58:12.001Z</time></trkpt><trkpt lat="43.84455150342972" lon="7.825833916552276"><ele>174.0</ele><time>2026-04-21T09:58:13.001Z</time></trkpt><trkpt lat="43.844547033003" lon="7.8261585478433116"><ele>174.0</ele><time>2026-04-21T09:58:14.001Z</time></trkpt><trkpt lat="43.84454435555431" lon="7.826483420106554"><ele>174.0</ele><time>2026-04-21T09:58:15.001Z</time></trkpt><trkpt lat="43.84453864220769" lon="7.826808436826496"><ele>174.0</ele><time>2026-04-21T09:58:16.001Z</time></trkpt><trkpt lat="43.84453559752408" lon="7.827131723549249"><ele>180.5</ele><time>2026-04-21T09:58:17.001Z</time></trkpt><trkpt lat="43.844533677642204" lon="7.8274543390036895"><ele>187.0</ele><time>2026-04-21T09:58:18.001Z</time></trkpt><trkpt lat="43.84452984819685" lon="7.82777454507409"><ele>188.0</ele><time>2026-04-21T09:58:19.001Z</time></trkpt><trkpt lat="43.84453000907458" lon="7.828097045985302"><ele>189.0</ele><time>2026-04-21T09:58:20.001Z</time></trkpt><trkpt lat="43.84452248648222" lon="7.828416552085321"><ele>190.0</ele><time>2026-04-21T09:58:21.001Z</time></trkpt><trkpt lat="43.844519115525124" lon="7.828734326096909"><ele>191.0</ele><time>2026-04-21T09:58:22.001Z</time></trkpt><trkpt lat="43.84451577466295" lon="7.829060767963554"><ele>195.0</ele><time>2026-04-21T09:58:23.001Z</time></trkpt><trkpt lat="43.844514304291366" lon="7.829384356377179"><ele>199.0</ele><time>2026-04-21T09:58:24.001Z</time></trkpt><trkpt lat="43.84451776242635" lon="7.829717783959586"><ele>199.0</ele><time>2026-04-21T09:58:25.001Z</time></trkpt><trkpt lat="43.84453133024596" lon="7.830045239588501"><ele>199.0</ele><time>2026-04-21T09:58:26.001Z</time></trkpt><trkpt lat="43.844551105198654" lon="7.830363671029446"><ele>199.0</ele><time>2026-04-21T09:58:27.001Z</time></trkpt><trkpt lat="43.84457705317729" lon="7.8306880929367"><ele>199.0</ele><time>2026-04-21T09:58:28.001Z</time></trkpt><trkpt lat="43.84461036176596" lon="7.831011647767992"><ele>201.0</ele><time>2026-04-21T09:58:29.001Z</time></trkpt><trkpt lat="43.84465258710791" lon="7.831330355693303"><ele>203.0</ele><time>2026-04-21T09:58:30.001Z</time></trkpt><trkpt lat="43.84470796378939" lon="7.831645045843402"><ele>210.0</ele><time>2026-04-21T09:58:31.001Z</time></trkpt><trkpt lat="43.84477030182576" lon="7.831958256474163"><ele>217.0</ele><time>2026-04-21T09:58:32.001Z</time></trkpt><trkpt lat="43.844836564132244" lon="7.832265760916379"><ele>217.0</ele><time>2026-04-21T09:58:33.001Z</time></trkpt><trkpt lat="43.84490766893153" lon="7.832573735128494"><ele>217.0</ele><time>2026-04-21T09:58:34.001Z</time></trkpt><trkpt lat="43.84498293922715" lon="7.8328799723119"><ele>227.5</ele><time>2026-04-21T09:58:35.001Z</time></trkpt><trkpt lat="43.84506552318398" lon="7.833184828304339"><ele>238.0</ele><time>2026-04-21T09:58:36.001Z</time></trkpt><trkpt lat="43.84515459365773" lon="7.833484267308974"><ele>260.5</ele><time>2026-04-21T09:58:37.001Z</time></trkpt><trkpt lat="43.845252152309406" lon="7.833778109883597"><ele>283.0</ele><time>2026-04-21T09:58:38.001Z</time></trkpt><trkpt lat="43.845365629419284" lon="7.834083187925565"><ele>287.5</ele><time>2026-04-21T09:58:39.065Z</time></trkpt><trkpt lat="43.84547706912382" lon="7.834364180994081"><ele>292.0</ele><time>2026-04-21T09:58:40.058Z</time></trkpt><trkpt lat="43.845595287722325" lon="7.834646257912256"><ele>196.0</ele><time>2026-04-21T09:58:41.062Z</time></trkpt><trkpt lat="43.84730483016027" lon="7.837303792610371"><ele>176.0</ele><time>2026-04-21T09:58:45.555Z</time></trkpt><trkpt lat="43.8479489689371" lon="7.837917582887959"><ele>176.0</ele><time>2026-04-21T09:58:55.001Z</time></trkpt><trkpt lat="43.84814974965163" lon="7.838089482580835"><ele>176.0</ele><time>2026-04-21T09:58:56.001Z</time></trkpt><trkpt lat="43.84834487130002" lon="7.838252183151312"><ele>175.0</ele><time>2026-04-21T09:58:57.001Z</time></trkpt><trkpt lat="43.8485474482526" lon="7.838406031991344"><ele>174.0</ele><time>2026-04-21T09:58:58.001Z</time></trkpt><trkpt lat="43.848761818785825" lon="7.838529948240748"><ele>169.5</ele><time>2026-04-21T09:58:59.001Z</time></trkpt><trkpt lat="43.84897841927919" lon="7.8386420663007454"><ele>165.0</ele><time>2026-04-21T09:59:00.001Z</time></trkpt><trkpt lat="43.84920139329054" lon="7.8387440576846075"><ele>159.5</ele><time>2026-04-21T09:59:01.002Z</time></trkpt><trkpt lat="43.849427254660895" lon="7.83884672063724"><ele>154.0</ele><time>2026-04-21T09:59:02.002Z</time></trkpt><trkpt lat="43.84964834401242" lon="7.838947548496757"><ele>154.0</ele><time>2026-04-21T09:59:03.002Z</time></trkpt><trkpt lat="43.849863903243715" lon="7.839034105768033"><ele>154.0</ele><time>2026-04-21T09:59:04.002Z</time></trkpt><trkpt lat="43.85008584757884" lon="7.839108810056648"><ele>160.0</ele><time>2026-04-21T09:59:05.002Z</time></trkpt><trkpt lat="43.85031567299279" lon="7.8391736613730085"><ele>166.0</ele><time>2026-04-21T09:59:06.002Z</time></trkpt><trkpt lat="43.850551055817604" lon="7.839233819982652"><ele>166.0</ele><time>2026-04-21T09:59:07.002Z</time></trkpt><trkpt lat="43.850793810693816" lon="7.8392868971587655"><ele>166.0</ele><time>2026-04-21T09:59:08.002Z</time></trkpt><trkpt lat="43.851039567954274" lon="7.839331505465317"><ele>160.0</ele><time>2026-04-21T09:59:09.002Z</time></trkpt><trkpt lat="43.8512893468896" lon="7.839364316652031"><ele>154.0</ele><time>2026-04-21T09:59:10.002Z</time></trkpt><trkpt lat="43.851540225874395" lon="7.839397837272133"><ele>153.0</ele><time>2026-04-21T09:59:11.002Z</time></trkpt><trkpt lat="43.85179948361367" lon="7.839432071563543"><ele>152.0</ele><time>2026-04-21T09:59:12.002Z</time></trkpt><trkpt lat="43.85205658743999" lon="7.839462205766882"><ele>152.0</ele><time>2026-04-21T09:59:13.002Z</time></trkpt><trkpt lat="43.852313053675594" lon="7.839498932317231"><ele>152.0</ele><time>2026-04-21T09:59:14.002Z</time></trkpt><trkpt lat="43.85256808459766" lon="7.8395358543541915"><ele>150.5</ele><time>2026-04-21T09:59:15.002Z</time></trkpt><trkpt lat="43.852821189286914" lon="7.839570657427348"><ele>149.0</ele><time>2026-04-21T09:59:16.002Z</time></trkpt><trkpt lat="43.853073270148066" lon="7.839609882170378"><ele>149.0</ele><time>2026-04-21T09:59:17.002Z</time></trkpt><trkpt lat="43.85332808685403" lon="7.839650208456477"><ele>149.0</ele><time>2026-04-21T09:59:18.002Z</time></trkpt><trkpt lat="43.85358758800187" lon="7.839694680193682"><ele>149.5</ele><time>2026-04-21T09:59:19.002Z</time></trkpt><trkpt lat="43.85384456060021" lon="7.8397535459902175"><ele>150.0</ele><time>2026-04-21T09:59:20.002Z</time></trkpt><trkpt lat="43.854097056545086" lon="7.839829107988636"><ele>144.0</ele><time>2026-04-21T09:59:21.002Z</time></trkpt><trkpt lat="43.854343931052846" lon="7.839916251875475"><ele>138.0</ele><time>2026-04-21T09:59:22.002Z</time></trkpt><trkpt lat="43.85458313461827" lon="7.840028033196435"><ele>135.5</ele><time>2026-04-21T09:59:23.002Z</time></trkpt><trkpt lat="43.854821215788654" lon="7.840159103286732"><ele>133.0</ele><time>2026-04-21T09:59:24.002Z</time></trkpt><trkpt lat="43.855048096893206" lon="7.840287081877719"><ele>142.5</ele><time>2026-04-21T09:59:25.002Z</time></trkpt><trkpt lat="43.85526796659215" lon="7.840420426888837"><ele>152.0</ele><time>2026-04-21T09:59:26.002Z</time></trkpt><trkpt lat="43.8554836869474" lon="7.840559874177734"><ele>152.0</ele><time>2026-04-21T09:59:27.002Z</time></trkpt><trkpt lat="43.855681674094825" lon="7.8407036236127325"><ele>152.0</ele><time>2026-04-21T09:59:28.002Z</time></trkpt><trkpt lat="43.85587373788608" lon="7.840859414723408"><ele>152.0</ele><time>2026-04-21T09:59:29.002Z</time></trkpt><trkpt lat="43.856066617112035" lon="7.841015515858316"><ele>139.0</ele><time>2026-04-21T09:59:30.002Z</time></trkpt><trkpt lat="43.85626197896957" lon="7.841177879213659"><ele>126.0</ele><time>2026-04-21T09:59:31.002Z</time></trkpt><trkpt lat="43.85645405092571" lon="7.841338371961556"><ele>126.0</ele><time>2026-04-21T09:59:32.002Z</time></trkpt><trkpt lat="43.8566448141851" lon="7.841497408868133"><ele>126.0</ele><time>2026-04-21T09:59:33.002Z</time></trkpt><trkpt lat="43.85683520022515" lon="7.841660297067407"><ele>126.0</ele><time>2026-04-21T09:59:34.001Z</time></trkpt><trkpt lat="43.85703183717857" lon="7.841825853638801"><ele>112.0</ele><time>2026-04-21T09:59:35.001Z</time></trkpt><trkpt lat="43.85722377927606" lon="7.841992736880762"><ele>98.0</ele><time>2026-04-21T09:59:36.001Z</time></trkpt><trkpt lat="43.85740818411838" lon="7.842169306106012"><ele>98.0</ele><time>2026-04-21T09:59:37.001Z</time></trkpt><trkpt lat="43.85759199724586" lon="7.842346229058616"><ele>98.0</ele><time>2026-04-21T09:59:38.001Z</time></trkpt><trkpt lat="43.85778099722002" lon="7.842520043467946"><ele>124.5</ele><time>2026-04-21T09:59:39.001Z</time></trkpt><trkpt lat="43.85797594487942" lon="7.842692458787758"><ele>151.0</ele><time>2026-04-21T09:59:40.001Z</time></trkpt><trkpt lat="43.85817589890157" lon="7.842856274574844"><ele>151.0</ele><time>2026-04-21T09:59:41.001Z</time></trkpt><trkpt lat="43.858381239757115" lon="7.843019004552629"><ele>151.0</ele><time>2026-04-21T09:59:42.001Z</time></trkpt><trkpt lat="43.85858850468361" lon="7.843190026706745"><ele>158.5</ele><time>2026-04-21T09:59:43.001Z</time></trkpt><trkpt lat="43.85879441987519" lon="7.843365198658296"><ele>166.0</ele><time>2026-04-21T09:59:44.001Z</time></trkpt><trkpt lat="43.8589992473881" lon="7.843542986833374"><ele>166.0</ele><time>2026-04-21T09:59:45.001Z</time></trkpt><trkpt lat="43.85920866056925" lon="7.843719561487032"><ele>166.0</ele><time>2026-04-21T09:59:46.001Z</time></trkpt><trkpt lat="43.85942150627041" lon="7.843896361450807"><ele>161.5</ele><time>2026-04-21T09:59:47.001Z</time></trkpt><trkpt lat="43.85963543369445" lon="7.844076571587329"><ele>157.0</ele><time>2026-04-21T09:59:48.001Z</time></trkpt><trkpt lat="43.85986714992886" lon="7.844269740106919"><ele>149.0</ele><time>2026-04-21T09:59:49.065Z</time></trkpt><trkpt lat="43.86028151171819" lon="7.8446348048580115"><ele>149.0</ele><time>2026-04-21T09:59:51.001Z</time></trkpt><trkpt lat="43.860507963944265" lon="7.844830123696102"><ele>149.0</ele><time>2026-04-21T09:59:52.001Z</time></trkpt><trkpt lat="43.86072339182253" lon="7.844996791432337"><ele>142.0</ele><time>2026-04-21T09:59:53.001Z</time></trkpt><trkpt lat="43.86094109607405" lon="7.845156747279645"><ele>135.0</ele><time>2026-04-21T09:59:54.001Z</time></trkpt><trkpt lat="43.86115743299263" lon="7.845324334573896"><ele>133.0</ele><time>2026-04-21T09:59:55.001Z</time></trkpt><trkpt lat="43.86136707634499" lon="7.845493372552547"><ele>131.0</ele><time>2026-04-21T09:59:56.001Z</time></trkpt><trkpt lat="43.861574041520186" lon="7.845669557656203"><ele>131.0</ele><time>2026-04-21T09:59:57.001Z</time></trkpt><trkpt lat="43.86177833580005" lon="7.845847491324983"><ele>131.0</ele><time>2026-04-21T09:59:58.001Z</time></trkpt><trkpt lat="43.86198352285537" lon="7.846027857694405"><ele>141.5</ele><time>2026-04-21T09:59:59.001Z</time></trkpt><trkpt lat="43.862189009650145" lon="7.846206972436081"><ele>152.0</ele><time>2026-04-21T10:00:00.001Z</time></trkpt><trkpt lat="43.862397541629846" lon="7.846385107529969"><ele>152.0</ele><time>2026-04-21T10:00:01.001Z</time></trkpt><trkpt lat="43.86260567197722" lon="7.846564439053043"><ele>152.0</ele><time>2026-04-21T10:00:02.001Z</time></trkpt><trkpt lat="43.86281598927838" lon="7.8467448662525925"><ele>150.5</ele><time>2026-04-21T10:00:03.001Z</time></trkpt><trkpt lat="43.863025337954504" lon="7.846927911486937"><ele>149.0</ele><time>2026-04-21T10:00:04.001Z</time></trkpt><trkpt lat="43.86323201512955" lon="7.847116633439314"><ele>149.0</ele><time>2026-04-21T10:00:05.001Z</time></trkpt><trkpt lat="43.86343940637423" lon="7.847308345672798"><ele>149.0</ele><time>2026-04-21T10:00:06.001Z</time></trkpt><trkpt lat="43.863645706769155" lon="7.847504645339425"><ele>162.5</ele><time>2026-04-21T10:00:07.001Z</time></trkpt><trkpt lat="43.863853128782594" lon="7.847701775523981"><ele>176.0</ele><time>2026-04-21T10:00:08.001Z</time></trkpt><trkpt lat="43.864059119877176" lon="7.847903108092126"><ele>176.0</ele><time>2026-04-21T10:00:09.001Z</time></trkpt><trkpt lat="43.864266164725755" lon="7.848102301105793"><ele>176.0</ele><time>2026-04-21T10:00:10.001Z</time></trkpt><trkpt lat="43.86447701188594" lon="7.848299043075705"><ele>176.0</ele><time>2026-04-21T10:00:11.001Z</time></trkpt><trkpt lat="43.86469108955646" lon="7.84849201938575"><ele>176.0</ele><time>2026-04-21T10:00:12.001Z</time></trkpt><trkpt lat="43.86490449795404" lon="7.8486776630962245"><ele>181.0</ele><time>2026-04-21T10:00:13.001Z</time></trkpt><trkpt lat="43.8651292126925" lon="7.8488688174671415"><ele>186.0</ele><time>2026-04-21T10:00:14.063Z</time></trkpt><trkpt lat="43.86534675070198" lon="7.8490434282826005"><ele>186.0</ele><time>2026-04-21T10:00:15.065Z</time></trkpt><trkpt lat="43.86556568399836" lon="7.849214722418883"><ele>186.0</ele><time>2026-04-21T10:00:16.061Z</time></trkpt><trkpt lat="43.8657888009155" lon="7.8493841891361775"><ele>180.5</ele><time>2026-04-21T10:00:17.06Z</time></trkpt><trkpt lat="43.866013789391985" lon="7.849549337235976"><ele>175.0</ele><time>2026-04-21T10:00:18.06Z</time></trkpt><trkpt lat="43.86623777307196" lon="7.8497103913330415"><ele>175.0</ele><time>2026-04-21T10:00:19.059Z</time></trkpt><trkpt lat="43.86645204096671" lon="7.849864270347765"><ele>175.0</ele><time>2026-04-21T10:00:20.026Z</time></trkpt><trkpt lat="43.86773890194262" lon="7.85102291762882"><ele>139.0</ele><time>2026-04-21T10:00:26.001Z</time></trkpt><trkpt lat="43.867969828147764" lon="7.8511902170107595"><ele>103.0</ele><time>2026-04-21T10:00:27.001Z</time></trkpt><trkpt lat="43.86825870164753" lon="7.851347508787348"><ele>117.0</ele><time>2026-04-21T10:00:28.001Z</time></trkpt><trkpt lat="43.86848580933674" lon="7.851548208794569"><ele>131.0</ele><time>2026-04-21T10:00:29.001Z</time></trkpt><trkpt lat="43.86868830894895" lon="7.851721372381589"><ele>124.0</ele><time>2026-04-21T10:00:30.001Z</time></trkpt><trkpt lat="43.868887137917824" lon="7.851918064786958"><ele>117.0</ele><time>2026-04-21T10:00:31.001Z</time></trkpt><trkpt lat="43.869064600868285" lon="7.852117046156737"><ele>117.0</ele><time>2026-04-21T10:00:32.001Z</time></trkpt><trkpt lat="43.869233634034025" lon="7.852323060875881"><ele>117.0</ele><time>2026-04-21T10:00:33.001Z</time></trkpt><trkpt lat="43.86939157206019" lon="7.852537544598366"><ele>117.0</ele><time>2026-04-21T10:00:34.001Z</time></trkpt><trkpt lat="43.8695472651234" lon="7.852759455509173"><ele>119.66666666666666</ele><time>2026-04-21T10:00:35.001Z</time></trkpt><trkpt lat="43.86969442034838" lon="7.852991808755965"><ele>122.33333333333333</ele><time>2026-04-21T10:00:36.001Z</time></trkpt><trkpt lat="43.86982145107677" lon="7.8532436450529355"><ele>125.0</ele><time>2026-04-21T10:00:37.001Z</time></trkpt><trkpt lat="43.86993971236262" lon="7.853512707543887"><ele>114.0</ele><time>2026-04-21T10:00:38.001Z</time></trkpt><trkpt lat="43.87005010223273" lon="7.853795576168022"><ele>103.0</ele><time>2026-04-21T10:00:39.001Z</time></trkpt><trkpt lat="43.87014183018119" lon="7.854089938971776"><ele>88.5</ele><time>2026-04-21T10:00:40.001Z</time></trkpt><trkpt lat="43.87022515162339" lon="7.854387863659477"><ele>74.0</ele><time>2026-04-21T10:00:41.001Z</time></trkpt><trkpt lat="43.87029923889816" lon="7.854697436100867"><ele>74.0</ele><time>2026-04-21T10:00:42.001Z</time></trkpt><trkpt lat="43.87035764181256" lon="7.8550144042409915"><ele>74.0</ele><time>2026-04-21T10:00:43.001Z</time></trkpt><trkpt lat="43.8703998431429" lon="7.855340824838643"><ele>60.0</ele><time>2026-04-21T10:00:44.001Z</time></trkpt><trkpt lat="43.87042845436447" lon="7.855669422779142"><ele>46.0</ele><time>2026-04-21T10:00:45.001Z</time></trkpt><trkpt lat="43.870446278862865" lon="7.855997370845676"><ele>42.5</ele><time>2026-04-21T10:00:46.001Z</time></trkpt><trkpt lat="43.870449395669986" lon="7.85632373856426"><ele>39.0</ele><time>2026-04-21T10:00:47.001Z</time></trkpt><trkpt lat="43.870441987088256" lon="7.856633749349591"><ele>44.33333333333333</ele><time>2026-04-21T10:00:48.001Z</time></trkpt><trkpt lat="43.870425770605564" lon="7.856936661433122"><ele>49.666666666666664</ele><time>2026-04-21T10:00:49.001Z</time></trkpt><trkpt lat="43.87039186975378" lon="7.857232405737714"><ele>55.0</ele><time>2026-04-21T10:00:50.001Z</time></trkpt><trkpt lat="43.8703457168176" lon="7.857529050816132"><ele>62.0</ele><time>2026-04-21T10:00:51.001Z</time></trkpt><trkpt lat="43.87029087087742" lon="7.857828077336043"><ele>69.0</ele><time>2026-04-21T10:00:52.001Z</time></trkpt><trkpt lat="43.87022163813683" lon="7.8581214790493075"><ele>76.0</ele><time>2026-04-21T10:00:53.001Z</time></trkpt><trkpt lat="43.8701382592488" lon="7.858412111960512"><ele>81.66666666666666</ele><time>2026-04-21T10:00:54.001Z</time></trkpt><trkpt lat="43.870050090282" lon="7.858682266751498"><ele>87.33333333333333</ele><time>2026-04-21T10:00:55.001Z</time></trkpt><trkpt lat="43.86995805006526" lon="7.858934881692289"><ele>93.0</ele><time>2026-04-21T10:00:56.001Z</time></trkpt><trkpt lat="43.86985445123972" lon="7.859184964344078"><ele>100.33333333333334</ele><time>2026-04-21T10:00:57.001Z</time></trkpt><trkpt lat="43.86973719796695" lon="7.859432392742044"><ele>107.66666666666667</ele><time>2026-04-21T10:00:58.001Z</time></trkpt><trkpt lat="43.869610391653865" lon="7.859673025284008"><ele>115.0</ele><time>2026-04-21T10:00:59.001Z</time></trkpt><trkpt lat="43.86948307549366" lon="7.859888170132536"><ele>115.0</ele><time>2026-04-21T10:01:00.001Z</time></trkpt><trkpt lat="43.86935494858167" lon="7.860091702040775"><ele>115.0</ele><time>2026-04-21T10:01:01.001Z</time></trkpt><trkpt lat="43.86921821895476" lon="7.860297172439872"><ele>115.0</ele><time>2026-04-21T10:01:02.001Z</time></trkpt><trkpt lat="43.86907608301733" lon="7.860482022914119"><ele>119.33333333333334</ele><time>2026-04-21T10:01:03.001Z</time></trkpt><trkpt lat="43.86893612681761" lon="7.86064984582087"><ele>123.66666666666666</ele><time>2026-04-21T10:01:04.001Z</time></trkpt><trkpt lat="43.86882028867363" lon="7.860778819858905"><ele>128.0</ele><time>2026-04-21T10:01:05.001Z</time></trkpt><trkpt lat="43.86869803154646" lon="7.860911331228994"><ele>132.75</ele><time>2026-04-21T10:01:06.001Z</time></trkpt><trkpt lat="43.8685793465942" lon="7.861018515823523"><ele>137.5</ele><time>2026-04-21T10:01:07.001Z</time></trkpt><trkpt lat="43.86848764343182" lon="7.861087946013056"><ele>142.25</ele><time>2026-04-21T10:01:08.001Z</time></trkpt><trkpt lat="43.86839322318032" lon="7.86116356841117"><ele>147.0</ele><time>2026-04-21T10:01:09.001Z</time></trkpt><trkpt lat="43.868294096115655" lon="7.861236426746104"><ele>147.0</ele><time>2026-04-21T10:01:10.001Z</time></trkpt><trkpt lat="43.86817465101716" lon="7.86131359417548"><ele>147.0</ele><time>2026-04-21T10:01:11.001Z</time></trkpt><trkpt lat="43.8680471973968" lon="7.861407602639208"><ele>147.0</ele><time>2026-04-21T10:01:12.001Z</time></trkpt><trkpt lat="43.86790611181514" lon="7.861506233556518"><ele>147.0</ele><time>2026-04-21T10:01:13.001Z</time></trkpt><trkpt lat="43.86775381752781" lon="7.861607244277207"><ele>148.0</ele><time>2026-04-21T10:01:14.001Z</time></trkpt><trkpt lat="43.86759106054109" lon="7.8617186297732"><ele>149.0</ele><time>2026-04-21T10:01:15.001Z</time></trkpt><trkpt lat="43.867424529796764" lon="7.861831582325778"><ele>150.0</ele><time>2026-04-21T10:01:16.001Z</time></trkpt><trkpt lat="43.86725061544271" lon="7.861948934803962"><ele>150.0</ele><time>2026-04-21T10:01:17.001Z</time></trkpt><trkpt lat="43.86707160583614" lon="7.862062488292586"><ele>150.0</ele><time>2026-04-21T10:01:18.001Z</time></trkpt><trkpt lat="43.8668857871479" lon="7.862178275091473"><ele>150.0</ele><time>2026-04-21T10:01:19.001Z</time></trkpt><trkpt lat="43.86669256151357" lon="7.862302034493634"><ele>154.0</ele><time>2026-04-21T10:01:20.001Z</time></trkpt><trkpt lat="43.86650054614235" lon="7.862423683681897"><ele>158.0</ele><time>2026-04-21T10:01:21.001Z</time></trkpt><trkpt lat="43.866302637442814" lon="7.862549703407776"><ele>162.0</ele><time>2026-04-21T10:01:22.001Z</time></trkpt><trkpt lat="43.86610067306514" lon="7.8626763859295465"><ele>160.5</ele><time>2026-04-21T10:01:23.001Z</time></trkpt><trkpt lat="43.86589641067482" lon="7.862808421427871"><ele>159.0</ele><time>2026-04-21T10:01:24.001Z</time></trkpt><trkpt lat="43.86568822348622" lon="7.86294541892982"><ele>159.0</ele><time>2026-04-21T10:01:25.001Z</time></trkpt><trkpt lat="43.86548044276268" lon="7.863082350374925"><ele>159.0</ele><time>2026-04-21T10:01:26.001Z</time></trkpt><trkpt lat="43.865275570614095" lon="7.8632173104235985"><ele>163.0</ele><time>2026-04-21T10:01:27.001Z</time></trkpt><trkpt lat="43.8650690469817" lon="7.863364600094303"><ele>167.0</ele><time>2026-04-21T10:01:28.001Z</time></trkpt><trkpt lat="43.86486414936432" lon="7.863517084116929"><ele>167.0</ele><time>2026-04-21T10:01:29.001Z</time></trkpt><trkpt lat="43.86465831782552" lon="7.8636690407045196"><ele>167.0</ele><time>2026-04-21T10:01:30.001Z</time></trkpt><trkpt lat="43.86444892039192" lon="7.863817009888012"><ele>154.5</ele><time>2026-04-21T10:01:31.001Z</time></trkpt><trkpt lat="43.86423831150686" lon="7.863961644365963"><ele>142.0</ele><time>2026-04-21T10:01:32.001Z</time></trkpt><trkpt lat="43.86402600541522" lon="7.864104212509686"><ele>142.0</ele><time>2026-04-21T10:01:33.001Z</time></trkpt><trkpt lat="43.8638131509367" lon="7.864252228705672"><ele>142.0</ele><time>2026-04-21T10:01:34.002Z</time></trkpt><trkpt lat="43.8636042110213" lon="7.864403706154781"><ele>141.0</ele><time>2026-04-21T10:01:35.002Z</time></trkpt><trkpt lat="43.86339937037201" lon="7.864560231433482"><ele>140.0</ele><time>2026-04-21T10:01:36.002Z</time></trkpt><trkpt lat="43.86320069717889" lon="7.86472666899566"><ele>140.0</ele><time>2026-04-21T10:01:37.002Z</time></trkpt><trkpt lat="43.86300443336115" lon="7.864905271170043"><ele>140.0</ele><time>2026-04-21T10:01:38.002Z</time></trkpt><trkpt lat="43.86281200000653" lon="7.865087833983075"><ele>148.5</ele><time>2026-04-21T10:01:39.002Z</time></trkpt><trkpt lat="43.86262316050037" lon="7.8652800475771025"><ele>157.0</ele><time>2026-04-21T10:01:40.001Z</time></trkpt><trkpt lat="43.86243736133488" lon="7.865481993945936"><ele>161.5</ele><time>2026-04-21T10:01:41.001Z</time></trkpt><trkpt lat="43.862256104401524" lon="7.865693379306659"><ele>166.0</ele><time>2026-04-21T10:01:42.001Z</time></trkpt><trkpt lat="43.862080840178905" lon="7.865916324439813"><ele>163.5</ele><time>2026-04-21T10:01:43.001Z</time></trkpt><trkpt lat="43.8619119364114" lon="7.866144126941863"><ele>161.0</ele><time>2026-04-21T10:01:44.001Z</time></trkpt><trkpt lat="43.8617526612477" lon="7.866381019278619"><ele>161.0</ele><time>2026-04-21T10:01:45.001Z</time></trkpt><trkpt lat="43.86159938852268" lon="7.866624239283599"><ele>161.0</ele><time>2026-04-21T10:01:46.001Z</time></trkpt><trkpt lat="43.861452674646046" lon="7.86687504424507"><ele>172.5</ele><time>2026-04-21T10:01:47.001Z</time></trkpt><trkpt lat="43.86131399323991" lon="7.867136117479848"><ele>184.0</ele><time>2026-04-21T10:01:48.001Z</time></trkpt><trkpt lat="43.86118150245681" lon="7.867401327584938"><ele>187.0</ele><time>2026-04-21T10:01:49.001Z</time></trkpt><trkpt lat="43.86105484768226" lon="7.867671070869247"><ele>190.0</ele><time>2026-04-21T10:01:50.001Z</time></trkpt><trkpt lat="43.86093570023692" lon="7.867948066439143"><ele>190.0</ele><time>2026-04-21T10:01:51.001Z</time></trkpt><trkpt lat="43.86082539560118" lon="7.868231145163736"><ele>190.0</ele><time>2026-04-21T10:01:52.001Z</time></trkpt><trkpt lat="43.86071864654613" lon="7.868521669554537"><ele>203.0</ele><time>2026-04-21T10:01:53.001Z</time></trkpt><trkpt lat="43.86061842138552" lon="7.86881663411946"><ele>216.0</ele><time>2026-04-21T10:01:54.001Z</time></trkpt><trkpt lat="43.860526195892255" lon="7.869116906766949"><ele>223.0</ele><time>2026-04-21T10:01:55.001Z</time></trkpt><trkpt lat="43.86044182280402" lon="7.869421987786407"><ele>230.0</ele><time>2026-04-21T10:01:56.001Z</time></trkpt><trkpt lat="43.86036320823487" lon="7.869730200826733"><ele>230.0</ele><time>2026-04-21T10:01:57.001Z</time></trkpt><trkpt lat="43.860289503019395" lon="7.870041488834083"><ele>230.0</ele><time>2026-04-21T10:01:58.001Z</time></trkpt><trkpt lat="43.860219315302714" lon="7.870375702054931"><ele>219.5</ele><time>2026-04-21T10:01:59.061Z</time></trkpt><trkpt lat="43.86016100474272" lon="7.870696650574352"><ele>209.0</ele><time>2026-04-21T10:02:00.061Z</time></trkpt><trkpt lat="43.86010554932944" lon="7.871018031635885"><ele>165.0</ele><time>2026-04-21T10:02:01.058Z</time></trkpt><trkpt lat="43.86002965630385" lon="7.873068828785291"><ele>165.0</ele><time>2026-04-21T10:02:07.001Z</time></trkpt><trkpt lat="43.86001506763622" lon="7.87340338674971"><ele>165.0</ele><time>2026-04-21T10:02:08.001Z</time></trkpt><trkpt lat="43.859975036264736" lon="7.873750527350215"><ele>162.5</ele><time>2026-04-21T10:02:09.001Z</time></trkpt><trkpt lat="43.85993484028149" lon="7.874062894034922"><ele>160.0</ele><time>2026-04-21T10:02:10.001Z</time></trkpt><trkpt lat="43.8599061702347" lon="7.874376107240843"><ele>166.0</ele><time>2026-04-21T10:02:11.001Z</time></trkpt><trkpt lat="43.859885161840126" lon="7.874689452723869"><ele>172.0</ele><time>2026-04-21T10:02:12.001Z</time></trkpt><trkpt lat="43.85987470880066" lon="7.875000245417049"><ele>176.5</ele><time>2026-04-21T10:02:13.001Z</time></trkpt><trkpt lat="43.859856950885636" lon="7.875315525307825"><ele>181.0</ele><time>2026-04-21T10:02:14.001Z</time></trkpt><trkpt lat="43.85984214277163" lon="7.87562826269076"><ele>182.0</ele><time>2026-04-21T10:02:15.001Z</time></trkpt><trkpt lat="43.85982739775482" lon="7.875944229347885"><ele>183.0</ele><time>2026-04-21T10:02:16.001Z</time></trkpt><trkpt lat="43.85980691136019" lon="7.8762570633437665"><ele>183.0</ele><time>2026-04-21T10:02:17.001Z</time></trkpt><trkpt lat="43.859789215190474" lon="7.876570189874771"><ele>183.0</ele><time>2026-04-21T10:02:18.001Z</time></trkpt><trkpt lat="43.85976980558276" lon="7.876880934115406"><ele>185.5</ele><time>2026-04-21T10:02:19.001Z</time></trkpt><trkpt lat="43.85974786659545" lon="7.877193161644946"><ele>188.0</ele><time>2026-04-21T10:02:20.001Z</time></trkpt><trkpt lat="43.859726869286256" lon="7.877508335070195"><ele>190.5</ele><time>2026-04-21T10:02:21.001Z</time></trkpt><trkpt lat="43.859702972383914" lon="7.877827146874023"><ele>193.0</ele><time>2026-04-21T10:02:22.001Z</time></trkpt><trkpt lat="43.859676515310724" lon="7.878145674881925"><ele>198.5</ele><time>2026-04-21T10:02:23.001Z</time></trkpt><trkpt lat="43.85964162346625" lon="7.878464093247036"><ele>204.0</ele><time>2026-04-21T10:02:24.001Z</time></trkpt><trkpt lat="43.8595973212608" lon="7.878780935700596"><ele>204.0</ele><time>2026-04-21T10:02:25.001Z</time></trkpt><trkpt lat="43.85955156041857" lon="7.8790981172585015"><ele>204.0</ele><time>2026-04-21T10:02:26.001Z</time></trkpt><trkpt lat="43.85950354119988" lon="7.879416265249466"><ele>210.5</ele><time>2026-04-21T10:02:27.001Z</time></trkpt><trkpt lat="43.85945615654026" lon="7.879722207820607"><ele>217.0</ele><time>2026-04-21T10:02:28.001Z</time></trkpt><trkpt lat="43.85940575581088" lon="7.880027618859808"><ele>219.66666666666666</ele><time>2026-04-21T10:02:29.001Z</time></trkpt><trkpt lat="43.85935294068038" lon="7.880325530847362"><ele>222.33333333333331</ele><time>2026-04-21T10:02:30.001Z</time></trkpt><trkpt lat="43.85929939119305" lon="7.880606390846739"><ele>225.0</ele><time>2026-04-21T10:02:31.001Z</time></trkpt><trkpt lat="43.85924386866667" lon="7.8808724436802295"><ele>213.33333333333334</ele><time>2026-04-21T10:02:32.001Z</time></trkpt><trkpt lat="43.859185679665416" lon="7.881138623921558"><ele>201.66666666666669</ele><time>2026-04-21T10:02:33.001Z</time></trkpt><trkpt lat="43.85912914714042" lon="7.8814109843633195"><ele>190.0</ele><time>2026-04-21T10:02:34.001Z</time></trkpt><trkpt lat="43.85907057301372" lon="7.881688680339354"><ele>184.66666666666669</ele><time>2026-04-21T10:02:35.001Z</time></trkpt><trkpt lat="43.85900730921833" lon="7.881969891555814"><ele>179.33333333333334</ele><time>2026-04-21T10:02:36.001Z</time></trkpt><trkpt lat="43.85894058774675" lon="7.882255865138488"><ele>174.0</ele><time>2026-04-21T10:02:37.001Z</time></trkpt><trkpt lat="43.85886871842512" lon="7.882552221641404"><ele>163.5</ele><time>2026-04-21T10:02:38.001Z</time></trkpt><trkpt lat="43.858796461316714" lon="7.882853927642141"><ele>153.0</ele><time>2026-04-21T10:02:39.001Z</time></trkpt><trkpt lat="43.85872297524504" lon="7.8831591842930395"><ele>158.0</ele><time>2026-04-21T10:02:40.001Z</time></trkpt><trkpt lat="43.858650207932016" lon="7.883469358694035"><ele>163.0</ele><time>2026-04-21T10:02:41.001Z</time></trkpt><trkpt lat="43.858576353773245" lon="7.883780704655952"><ele>163.0</ele><time>2026-04-21T10:02:42.001Z</time></trkpt><trkpt lat="43.85850113552365" lon="7.884092951446321"><ele>163.0</ele><time>2026-04-21T10:02:43.001Z</time></trkpt><trkpt lat="43.85842168262068" lon="7.884407198714945"><ele>172.5</ele><time>2026-04-21T10:02:44.001Z</time></trkpt><trkpt lat="43.858343605023315" lon="7.884722093574092"><ele>182.0</ele><time>2026-04-21T10:02:45.001Z</time></trkpt><trkpt lat="43.8582652711602" lon="7.885041941865211"><ele>198.0</ele><time>2026-04-21T10:02:46.001Z</time></trkpt><trkpt lat="43.85818746495954" lon="7.885362755421447"><ele>214.0</ele><time>2026-04-21T10:02:47.001Z</time></trkpt><trkpt lat="43.85810664178295" lon="7.885692021929813"><ele>232.0</ele><time>2026-04-21T10:02:48.001Z</time></trkpt><trkpt lat="43.85802034217521" lon="7.886025862141928"><ele>250.0</ele><time>2026-04-21T10:02:49.001Z</time></trkpt><trkpt lat="43.85793333637535" lon="7.886354125530377"><ele>250.0</ele><time>2026-04-21T10:02:50.001Z</time></trkpt><trkpt lat="43.857841334477314" lon="7.886686417896699"><ele>250.0</ele><time>2026-04-21T10:02:51.001Z</time></trkpt><trkpt lat="43.857749255320286" lon="7.887014884612338"><ele>265.0</ele><time>2026-04-21T10:02:52.001Z</time></trkpt><trkpt lat="43.85766255857065" lon="7.8873336161374255"><ele>280.0</ele><time>2026-04-21T10:02:53.001Z</time></trkpt><trkpt lat="43.85757522343939" lon="7.887653459135064"><ele>285.0</ele><time>2026-04-21T10:02:54.001Z</time></trkpt><trkpt lat="43.85747803660881" lon="7.887991637214981"><ele>290.0</ele><time>2026-04-21T10:02:55.066Z</time></trkpt><trkpt lat="43.857406298637024" lon="7.888326914362397"><ele>290.0</ele><time>2026-04-21T10:02:56.06Z</time></trkpt><trkpt lat="43.857330218668984" lon="7.888654731118131"><ele>290.0</ele><time>2026-04-21T10:02:57.064Z</time></trkpt><trkpt lat="43.85725499249577" lon="7.888978869892298"><ele>286.5</ele><time>2026-04-21T10:02:58.059Z</time></trkpt><trkpt lat="43.85717894601921" lon="7.889306543031966"><ele>283.0</ele><time>2026-04-21T10:02:59.06Z</time></trkpt><trkpt lat="43.85710467830317" lon="7.889626551446439"><ele>235.0</ele><time>2026-04-21T10:03:00.033Z</time></trkpt><trkpt lat="43.855873348943796" lon="7.893050387039129"><ele>191.0</ele><time>2026-04-21T10:03:14.199Z</time></trkpt><trkpt lat="43.855794851005825" lon="7.89539825851862"><ele>191.0</ele><time>2026-04-21T10:03:17.001Z</time></trkpt><trkpt lat="43.85569555307375" lon="7.89572258386196"><ele>191.0</ele><time>2026-04-21T10:03:18.001Z</time></trkpt><trkpt lat="43.85555448495526" lon="7.896017452902312"><ele>178.0</ele><time>2026-04-21T10:03:19.001Z</time></trkpt><trkpt lat="43.85545248134141" lon="7.896327198648675"><ele>165.0</ele><time>2026-04-21T10:03:20.001Z</time></trkpt><trkpt lat="43.85534312853103" lon="7.896625251949921"><ele>160.0</ele><time>2026-04-21T10:03:21.001Z</time></trkpt><trkpt lat="43.855239994876975" lon="7.896903568864706"><ele>155.0</ele><time>2026-04-21T10:03:22.001Z</time></trkpt><trkpt lat="43.85513409867561" lon="7.897183415747473"><ele>155.5</ele><time>2026-04-21T10:03:23.001Z</time></trkpt><trkpt lat="43.85501848370302" lon="7.897469952698702"><ele>156.0</ele><time>2026-04-21T10:03:24.001Z</time></trkpt><trkpt lat="43.854898652565495" lon="7.8977638311936165"><ele>169.0</ele><time>2026-04-21T10:03:25.001Z</time></trkpt><trkpt lat="43.85477848146032" lon="7.898057376802414"><ele>182.0</ele><time>2026-04-21T10:03:26.001Z</time></trkpt><trkpt lat="43.854660233950455" lon="7.89835525087955"><ele>198.5</ele><time>2026-04-21T10:03:27.001Z</time></trkpt><trkpt lat="43.85454244814163" lon="7.898656565087551"><ele>215.0</ele><time>2026-04-21T10:03:28.001Z</time></trkpt><trkpt lat="43.85442539878232" lon="7.898958616031739"><ele>231.0</ele><time>2026-04-21T10:03:29.001Z</time></trkpt><trkpt lat="43.854307099829086" lon="7.899267703731325"><ele>247.0</ele><time>2026-04-21T10:03:30.001Z</time></trkpt><trkpt lat="43.854188800711256" lon="7.8995779161853035"><ele>247.0</ele><time>2026-04-21T10:03:31.001Z</time></trkpt><trkpt lat="43.85407016257065" lon="7.899890276156911"><ele>247.0</ele><time>2026-04-21T10:03:32.001Z</time></trkpt><trkpt lat="43.853952467804824" lon="7.900207553587116"><ele>258.0</ele><time>2026-04-21T10:03:33.001Z</time></trkpt><trkpt lat="43.85383484821562" lon="7.9005296877584215"><ele>269.0</ele><time>2026-04-21T10:03:34.001Z</time></trkpt><trkpt lat="43.85371185563727" lon="7.900875896089619"><ele>272.5</ele><time>2026-04-21T10:03:35.059Z</time></trkpt><trkpt lat="43.85359778412265" lon="7.901207478856793"><ele>276.0</ele><time>2026-04-21T10:03:36.06Z</time></trkpt><trkpt lat="43.853485608737564" lon="7.901543986838316"><ele>258.5</ele><time>2026-04-21T10:03:37.058Z</time></trkpt><trkpt lat="43.853355287140374" lon="7.901870821574253"><ele>241.0</ele><time>2026-04-21T10:03:38.059Z</time></trkpt><trkpt lat="43.85255859686561" lon="7.903770056218831"><ele>223.0</ele><time>2026-04-21T10:03:45.001Z</time></trkpt><trkpt lat="43.85246669171406" lon="7.904071976297784"><ele>205.0</ele><time>2026-04-21T10:03:46.001Z</time></trkpt><trkpt lat="43.852364990193095" lon="7.904396466385667"><ele>205.0</ele><time>2026-04-21T10:03:47.001Z</time></trkpt><trkpt lat="43.852288562203675" lon="7.904702821465918"><ele>205.0</ele><time>2026-04-21T10:03:48.001Z</time></trkpt><trkpt lat="43.852206310551146" lon="7.905015540491087"><ele>204.0</ele><time>2026-04-21T10:03:49.001Z</time></trkpt><trkpt lat="43.85213291868464" lon="7.9053243960946045"><ele>203.0</ele><time>2026-04-21T10:03:50.001Z</time></trkpt><trkpt lat="43.8520722206194" lon="7.905641216922682"><ele>193.5</ele><time>2026-04-21T10:03:51.001Z</time></trkpt><trkpt lat="43.85200702453863" lon="7.905955920509023"><ele>184.0</ele><time>2026-04-21T10:03:52.001Z</time></trkpt><trkpt lat="43.851943521186065" lon="7.906269819666485"><ele>184.0</ele><time>2026-04-21T10:03:53.001Z</time></trkpt><trkpt lat="43.85188276673065" lon="7.9065829671697445"><ele>184.0</ele><time>2026-04-21T10:03:54.001Z</time></trkpt><trkpt lat="43.8518253932989" lon="7.906896145289161"><ele>173.5</ele><time>2026-04-21T10:03:55.001Z</time></trkpt><trkpt lat="43.85176995685533" lon="7.907212464274993"><ele>163.0</ele><time>2026-04-21T10:03:56.001Z</time></trkpt><trkpt lat="43.85171833863951" lon="7.907528484015799"><ele>175.5</ele><time>2026-04-21T10:03:57.001Z</time></trkpt><trkpt lat="43.85167062639484" lon="7.907849069739659"><ele>188.0</ele><time>2026-04-21T10:03:58.001Z</time></trkpt><trkpt lat="43.85162223280773" lon="7.908167550004462"><ele>195.5</ele><time>2026-04-21T10:03:59.001Z</time></trkpt><trkpt lat="43.85157295177965" lon="7.908486501200687"><ele>203.0</ele><time>2026-04-21T10:04:00.001Z</time></trkpt><trkpt lat="43.851519812293084" lon="7.908801256303166"><ele>203.0</ele><time>2026-04-21T10:04:01.001Z</time></trkpt><trkpt lat="43.851464786501914" lon="7.909116600199"><ele>203.0</ele><time>2026-04-21T10:04:02.001Z</time></trkpt><trkpt lat="43.85141177080887" lon="7.909435197895752"><ele>208.0</ele><time>2026-04-21T10:04:03.001Z</time></trkpt><trkpt lat="43.85136230384716" lon="7.909751596098449"><ele>213.0</ele><time>2026-04-21T10:04:04.001Z</time></trkpt><trkpt lat="43.85131656950665" lon="7.910066439200914"><ele>210.5</ele><time>2026-04-21T10:04:05.001Z</time></trkpt><trkpt lat="43.851272843113215" lon="7.9103858222016505"><ele>208.0</ele><time>2026-04-21T10:04:06.001Z</time></trkpt><trkpt lat="43.851228951670905" lon="7.910706455351096"><ele>208.5</ele><time>2026-04-21T10:04:07.001Z</time></trkpt><trkpt lat="43.85118131104714" lon="7.911028035455924"><ele>209.0</ele><time>2026-04-21T10:04:08.001Z</time></trkpt><trkpt lat="43.85113412544738" lon="7.911345814004375"><ele>209.0</ele><time>2026-04-21T10:04:09.001Z</time></trkpt><trkpt lat="43.85108821367161" lon="7.911664403672047"><ele>209.0</ele><time>2026-04-21T10:04:10.001Z</time></trkpt><trkpt lat="43.85103760062088" lon="7.911986505429766"><ele>208.5</ele><time>2026-04-21T10:04:11.001Z</time></trkpt><trkpt lat="43.850984820605326" lon="7.912311894347905"><ele>208.0</ele><time>2026-04-21T10:04:12.001Z</time></trkpt><trkpt lat="43.850928410564784" lon="7.912640034135302"><ele>208.0</ele><time>2026-04-21T10:04:13.001Z</time></trkpt><trkpt lat="43.85087121523309" lon="7.912971938821363"><ele>208.0</ele><time>2026-04-21T10:04:14.001Z</time></trkpt><trkpt lat="43.85081340605043" lon="7.913306872542227"><ele>197.0</ele><time>2026-04-21T10:04:15.001Z</time></trkpt><trkpt lat="43.85075446221209" lon="7.913641440030937"><ele>186.0</ele><time>2026-04-21T10:04:16.001Z</time></trkpt><trkpt lat="43.85070451477701" lon="7.913957783282725"><ele>174.0</ele><time>2026-04-21T10:04:17.001Z</time></trkpt><trkpt lat="43.85063203539371" lon="7.9142830261849655"><ele>162.0</ele><time>2026-04-21T10:04:18.001Z</time></trkpt><trkpt lat="43.850583998145446" lon="7.914611933066227"><ele>162.0</ele><time>2026-04-21T10:04:19.001Z</time></trkpt><trkpt lat="43.85053091769914" lon="7.914937929424158"><ele>162.0</ele><time>2026-04-21T10:04:20.001Z</time></trkpt><trkpt lat="43.850475167974935" lon="7.915265052561103"><ele>165.5</ele><time>2026-04-21T10:04:21.001Z</time></trkpt><trkpt lat="43.85042445370998" lon="7.91559401449043"><ele>169.0</ele><time>2026-04-21T10:04:22.001Z</time></trkpt><trkpt lat="43.85037148298318" lon="7.915921518321092"><ele>188.5</ele><time>2026-04-21T10:04:23.001Z</time></trkpt><trkpt lat="43.850319546530315" lon="7.916250145717514"><ele>208.0</ele><time>2026-04-21T10:04:24.001Z</time></trkpt><trkpt lat="43.85026651809608" lon="7.916574854337425"><ele>222.5</ele><time>2026-04-21T10:04:25.001Z</time></trkpt><trkpt lat="43.85021294166634" lon="7.9169033612915305"><ele>237.0</ele><time>2026-04-21T10:04:26.001Z</time></trkpt><trkpt lat="43.850158587795526" lon="7.917220636862417"><ele>230.5</ele><time>2026-04-21T10:04:27.001Z</time></trkpt><trkpt lat="43.8501010220924" lon="7.917540990333374"><ele>224.0</ele><time>2026-04-21T10:04:28.001Z</time></trkpt><trkpt lat="43.850040501806966" lon="7.9178550971367"><ele>220.0</ele><time>2026-04-21T10:04:29.001Z</time></trkpt><trkpt lat="43.849980205470274" lon="7.918160120094593"><ele>216.0</ele><time>2026-04-21T10:04:30.001Z</time></trkpt><trkpt lat="43.849920502277165" lon="7.918462765826541"><ele>207.5</ele><time>2026-04-21T10:04:31.001Z</time></trkpt><trkpt lat="43.849860603098094" lon="7.918776051792599"><ele>199.0</ele><time>2026-04-21T10:04:32.001Z</time></trkpt><trkpt lat="43.84983852877214" lon="7.9191641273415225"><ele>186.0</ele><time>2026-04-21T10:04:33.001Z</time></trkpt><trkpt lat="43.84981150331661" lon="7.919540441288029"><ele>173.0</ele><time>2026-04-21T10:04:34.001Z</time></trkpt><trkpt lat="43.84977253330648" lon="7.919889439062022"><ele>172.0</ele><time>2026-04-21T10:04:35.001Z</time></trkpt><trkpt lat="43.849736885882145" lon="7.920231782717122"><ele>171.0</ele><time>2026-04-21T10:04:36.001Z</time></trkpt><trkpt lat="43.84970611369191" lon="7.92057328734397"><ele>185.5</ele><time>2026-04-21T10:04:37.001Z</time></trkpt><trkpt lat="43.84967979848157" lon="7.920912958156522"><ele>200.0</ele><time>2026-04-21T10:04:38.001Z</time></trkpt><trkpt lat="43.84965606288642" lon="7.921251266211857"><ele>200.0</ele><time>2026-04-21T10:04:39.001Z</time></trkpt><trkpt lat="43.84963779490922" lon="7.9215870663408925"><ele>200.0</ele><time>2026-04-21T10:04:40.001Z</time></trkpt><trkpt lat="43.84962308996531" lon="7.921926148472984"><ele>210.5</ele><time>2026-04-21T10:04:41.001Z</time></trkpt><trkpt lat="43.84961227249668" lon="7.922268809465694"><ele>221.0</ele><time>2026-04-21T10:04:42.001Z</time></trkpt><trkpt lat="43.849599419523884" lon="7.922610446804744"><ele>222.0</ele><time>2026-04-21T10:04:43.001Z</time></trkpt><trkpt lat="43.84958575434316" lon="7.922951428330736"><ele>223.0</ele><time>2026-04-21T10:04:44.001Z</time></trkpt><trkpt lat="43.84957722982443" lon="7.923293606971554"><ele>217.5</ele><time>2026-04-21T10:04:45.001Z</time></trkpt><trkpt lat="43.84957037894935" lon="7.9236350334528325"><ele>212.0</ele><time>2026-04-21T10:04:46.001Z</time></trkpt><trkpt lat="43.8495623493232" lon="7.92397705823431"><ele>205.5</ele><time>2026-04-21T10:04:47.001Z</time></trkpt><trkpt lat="43.84955139308104" lon="7.924318622193543"><ele>199.0</ele><time>2026-04-21T10:04:48.001Z</time></trkpt><trkpt lat="43.849539698566474" lon="7.924663206846325"><ele>199.0</ele><time>2026-04-21T10:04:49.001Z</time></trkpt><trkpt lat="43.84952744844804" lon="7.925004776946047"><ele>199.0</ele><time>2026-04-21T10:04:50.001Z</time></trkpt><trkpt lat="43.84951714318823" lon="7.925342804378518"><ele>200.5</ele><time>2026-04-21T10:04:51.001Z</time></trkpt><trkpt lat="43.849506526106495" lon="7.925682709279292"><ele>202.0</ele><time>2026-04-21T10:04:52.001Z</time></trkpt><trkpt lat="43.84949854241672" lon="7.926019535378986"><ele>205.5</ele><time>2026-04-21T10:04:53.001Z</time></trkpt><trkpt lat="43.849488754802294" lon="7.9263562440577875"><ele>209.0</ele><time>2026-04-21T10:04:54.001Z</time></trkpt><trkpt lat="43.84947935948569" lon="7.926692941584071"><ele>214.5</ele><time>2026-04-21T10:04:55.001Z</time></trkpt><trkpt lat="43.84946973518888" lon="7.927027802721503"><ele>220.0</ele><time>2026-04-21T10:04:56.001Z</time></trkpt><trkpt lat="43.84946126230155" lon="7.927360192833232"><ele>218.0</ele><time>2026-04-21T10:04:57.001Z</time></trkpt><trkpt lat="43.849451615548126" lon="7.927692767700474"><ele>216.0</ele><time>2026-04-21T10:04:58.001Z</time></trkpt><trkpt lat="43.84944267696274" lon="7.928025492392731"><ele>216.0</ele><time>2026-04-21T10:04:59.001Z</time></trkpt><trkpt lat="43.84943327433534" lon="7.928354575234077"><ele>216.0</ele><time>2026-04-21T10:05:00.001Z</time></trkpt><trkpt lat="43.849423415815956" lon="7.9286895250468"><ele>214.0</ele><time>2026-04-21T10:05:01.001Z</time></trkpt><trkpt lat="43.84941200173799" lon="7.929025677669143"><ele>212.0</ele><time>2026-04-21T10:05:02.001Z</time></trkpt><trkpt lat="43.849400821387036" lon="7.9293629390122025"><ele>212.0</ele><time>2026-04-21T10:05:03.001Z</time></trkpt><trkpt lat="43.84938953809408" lon="7.929701619978005"><ele>212.0</ele><time>2026-04-21T10:05:04.001Z</time></trkpt><trkpt lat="43.849377224379516" lon="7.9300413053100005"><ele>211.5</ele><time>2026-04-21T10:05:05.001Z</time></trkpt><trkpt lat="43.849366225647586" lon="7.930383879253952"><ele>211.0</ele><time>2026-04-21T10:05:06.001Z</time></trkpt><trkpt lat="43.849358290662806" lon="7.930727040269512"><ele>216.5</ele><time>2026-04-21T10:05:07.001Z</time></trkpt><trkpt lat="43.849350981828024" lon="7.931071029616784"><ele>222.0</ele><time>2026-04-21T10:05:08.001Z</time></trkpt><trkpt lat="43.84934911884267" lon="7.931407626400341"><ele>217.5</ele><time>2026-04-21T10:05:09.001Z</time></trkpt><trkpt lat="43.84935383045433" lon="7.931745034945716"><ele>213.0</ele><time>2026-04-21T10:05:10.001Z</time></trkpt><trkpt lat="43.84936779368397" lon="7.932085683138708"><ele>213.0</ele><time>2026-04-21T10:05:11.001Z</time></trkpt><trkpt lat="43.84939178879281" lon="7.93242757911859"><ele>213.0</ele><time>2026-04-21T10:05:12.001Z</time></trkpt><trkpt lat="43.84942976900913" lon="7.932757860061903"><ele>206.5</ele><time>2026-04-21T10:05:13.001Z</time></trkpt><trkpt lat="43.84948100987194" lon="7.933099709050069"><ele>200.0</ele><time>2026-04-21T10:05:14.065Z</time></trkpt><trkpt lat="43.84953952601424" lon="7.933416102023838"><ele>192.5</ele><time>2026-04-21T10:05:15.066Z</time></trkpt><trkpt lat="43.849608836541805" lon="7.933728419659456"><ele>185.0</ele><time>2026-04-21T10:05:16.06Z</time></trkpt><trkpt lat="43.849675654472605" lon="7.934015556204162"><ele>181.33333333333331</ele><time>2026-04-21T10:05:17.001Z</time></trkpt><trkpt lat="43.849721211428054" lon="7.934249004497778"><ele>177.66666666666666</ele><time>2026-04-21T10:05:18.001Z</time></trkpt><trkpt lat="43.8498150412991" lon="7.934563469129255"><ele>174.0</ele><time>2026-04-21T10:05:19.001Z</time></trkpt><trkpt lat="43.84990003904404" lon="7.934880346179466"><ele>169.0</ele><time>2026-04-21T10:05:20.001Z</time></trkpt><trkpt lat="43.84999635392325" lon="7.9352004131229235"><ele>164.0</ele><time>2026-04-21T10:05:21.001Z</time></trkpt><trkpt lat="43.850097318058594" lon="7.935524713547536"><ele>172.5</ele><time>2026-04-21T10:05:22.001Z</time></trkpt><trkpt lat="43.85019812569068" lon="7.935853511669544"><ele>181.0</ele><time>2026-04-21T10:05:23.001Z</time></trkpt><trkpt lat="43.850297474880534" lon="7.936181940087347"><ele>180.5</ele><time>2026-04-21T10:05:24.001Z</time></trkpt><trkpt lat="43.850400130486975" lon="7.936513022930557"><ele>180.0</ele><time>2026-04-21T10:05:25.001Z</time></trkpt><trkpt lat="43.85050408124544" lon="7.936845344814459"><ele>180.0</ele><time>2026-04-21T10:05:26.001Z</time></trkpt><trkpt lat="43.85060976081627" lon="7.937174357661915"><ele>180.0</ele><time>2026-04-21T10:05:27.001Z</time></trkpt><trkpt lat="43.850710676474705" lon="7.937506889150241"><ele>173.0</ele><time>2026-04-21T10:05:28.001Z</time></trkpt><trkpt lat="43.85081204726176" lon="7.937843139921725"><ele>166.0</ele><time>2026-04-21T10:05:29.001Z</time></trkpt><trkpt lat="43.850914896182644" lon="7.938178773027162"><ele>168.0</ele><time>2026-04-21T10:05:30.001Z</time></trkpt><trkpt lat="43.851015511906894" lon="7.938514590981823"><ele>170.0</ele><time>2026-04-21T10:05:31.001Z</time></trkpt><trkpt lat="43.85110979731573" lon="7.938841794938751"><ele>170.0</ele><time>2026-04-21T10:05:32.001Z</time></trkpt><trkpt lat="43.851204390145035" lon="7.9391665376190526"><ele>170.0</ele><time>2026-04-21T10:05:33.001Z</time></trkpt><trkpt lat="43.8513030491063" lon="7.939486811899089"><ele>162.0</ele><time>2026-04-21T10:05:34.001Z</time></trkpt><trkpt lat="43.85140414129818" lon="7.939808019112307"><ele>154.0</ele><time>2026-04-21T10:05:35.001Z</time></trkpt><trkpt lat="43.85150679503912" lon="7.94012850620068"><ele>147.0</ele><time>2026-04-21T10:05:36.001Z</time></trkpt><trkpt lat="43.851610431329526" lon="7.940450246310282"><ele>140.0</ele><time>2026-04-21T10:05:37.001Z</time></trkpt><trkpt lat="43.85171142805867" lon="7.940770596734979"><ele>142.5</ele><time>2026-04-21T10:05:38.001Z</time></trkpt><trkpt lat="43.85181190132407" lon="7.941093984254031"><ele>145.0</ele><time>2026-04-21T10:05:39.001Z</time></trkpt><trkpt lat="43.85191513065419" lon="7.941418883601262"><ele>143.5</ele><time>2026-04-21T10:05:40.001Z</time></trkpt><trkpt lat="43.852016465060586" lon="7.9417430168702285"><ele>142.0</ele><time>2026-04-21T10:05:41.001Z</time></trkpt><trkpt lat="43.852117995451806" lon="7.942069955969295"><ele>142.0</ele><time>2026-04-21T10:05:42.001Z</time></trkpt><trkpt lat="43.852222520075244" lon="7.942393720015216"><ele>142.0</ele><time>2026-04-21T10:05:43.001Z</time></trkpt><trkpt lat="43.85233136629647" lon="7.942704042576999"><ele>140.0</ele><time>2026-04-21T10:05:44.001Z</time></trkpt><trkpt lat="43.85244541716283" lon="7.943006291633101"><ele>138.0</ele><time>2026-04-21T10:05:45.001Z</time></trkpt><trkpt lat="43.85257022922597" lon="7.943304054483658"><ele>148.5</ele><time>2026-04-21T10:05:46.001Z</time></trkpt><trkpt lat="43.85270815743629" lon="7.943595240925676"><ele>159.0</ele><time>2026-04-21T10:05:47.001Z</time></trkpt><trkpt lat="43.85285666447587" lon="7.943880320415383"><ele>159.0</ele><time>2026-04-21T10:05:48.001Z</time></trkpt><trkpt lat="43.8530133638023" lon="7.944159370681577"><ele>159.0</ele><time>2026-04-21T10:05:49.001Z</time></trkpt><trkpt lat="43.85317408241975" lon="7.944422475883566"><ele>162.5</ele><time>2026-04-21T10:05:50.001Z</time></trkpt><trkpt lat="43.85333771619566" lon="7.9446609307166645"><ele>166.0</ele><time>2026-04-21T10:05:51.001Z</time></trkpt><trkpt lat="43.85350615269547" lon="7.944887640901047"><ele>163.0</ele><time>2026-04-21T10:05:52.001Z</time></trkpt><trkpt lat="43.853684710876834" lon="7.945111431758899"><ele>160.0</ele><time>2026-04-21T10:05:53.001Z</time></trkpt><trkpt lat="43.85386967814621" lon="7.945331115123311"><ele>160.0</ele><time>2026-04-21T10:05:54.001Z</time></trkpt><trkpt lat="43.85406585142184" lon="7.945540320271392"><ele>160.0</ele><time>2026-04-21T10:05:55.001Z</time></trkpt><trkpt lat="43.854274095582284" lon="7.9457378208688105"><ele>160.5</ele><time>2026-04-21T10:05:56.001Z</time></trkpt><trkpt lat="43.85449402356929" lon="7.945919249866612"><ele>161.0</ele><time>2026-04-21T10:05:57.001Z</time></trkpt><trkpt lat="43.854734258210975" lon="7.946102524945503"><ele>161.0</ele><time>2026-04-21T10:05:58.065Z</time></trkpt><trkpt lat="43.854961537051885" lon="7.9462591959963005"><ele>161.0</ele><time>2026-04-21T10:05:59.064Z</time></trkpt><trkpt lat="43.855194224675" lon="7.946414937667175"><ele>151.5</ele><time>2026-04-21T10:06:00.059Z</time></trkpt><trkpt lat="43.85542914615946" lon="7.946567542605144"><ele>142.0</ele><time>2026-04-21T10:06:01.061Z</time></trkpt><trkpt lat="43.85565892202611" lon="7.946711400930549"><ele>140.33333333333334</ele><time>2026-04-21T10:06:02.062Z</time></trkpt><trkpt lat="43.85589307056075" lon="7.946860469816158"><ele>138.66666666666666</ele><time>2026-04-21T10:06:03.049Z</time></trkpt><trkpt lat="43.856035318309075" lon="7.947026106454237"><ele>137.0</ele><time>2026-04-21T10:06:04.001Z</time></trkpt><trkpt lat="43.856289846835764" lon="7.947188352059859"><ele>133.0</ele><time>2026-04-21T10:06:05.001Z</time></trkpt><trkpt lat="43.85659969452646" lon="7.947355599012437"><ele>129.0</ele><time>2026-04-21T10:06:06.001Z</time></trkpt><trkpt lat="43.85684441426172" lon="7.947488193809116"><ele>121.5</ele><time>2026-04-21T10:06:07.001Z</time></trkpt><trkpt lat="43.85708563874258" lon="7.947626261239894"><ele>114.0</ele><time>2026-04-21T10:06:08.001Z</time></trkpt><trkpt lat="43.85728103006236" lon="7.947798079021156"><ele>114.0</ele><time>2026-04-21T10:06:09.001Z</time></trkpt><trkpt lat="43.85751415985236" lon="7.947941814532216"><ele>114.0</ele><time>2026-04-21T10:06:10.001Z</time></trkpt><trkpt lat="43.857748141057726" lon="7.948085374861631"><ele>115.5</ele><time>2026-04-21T10:06:11.001Z</time></trkpt><trkpt lat="43.85798079164598" lon="7.948234486493309"><ele>117.0</ele><time>2026-04-21T10:06:12.001Z</time></trkpt><trkpt lat="43.85821510881969" lon="7.948395164228683"><ele>116.5</ele><time>2026-04-21T10:06:13.001Z</time></trkpt><trkpt lat="43.858443135167086" lon="7.9485696851514955"><ele>116.0</ele><time>2026-04-21T10:06:14.001Z</time></trkpt><trkpt lat="43.85866841406609" lon="7.948747619587927"><ele>116.0</ele><time>2026-04-21T10:06:15.001Z</time></trkpt><trkpt lat="43.858886203135135" lon="7.94893676546156"><ele>116.0</ele><time>2026-04-21T10:06:16.001Z</time></trkpt><trkpt lat="43.85909828995029" lon="7.949134973329339"><ele>110.5</ele><time>2026-04-21T10:06:17.001Z</time></trkpt><trkpt lat="43.85930653949512" lon="7.949338804420308"><ele>105.0</ele><time>2026-04-21T10:06:18.001Z</time></trkpt><trkpt lat="43.859514643512" lon="7.949551430584165"><ele>105.0</ele><time>2026-04-21T10:06:19.001Z</time></trkpt><trkpt lat="43.85971337645695" lon="7.949761691101087"><ele>105.0</ele><time>2026-04-21T10:06:20.001Z</time></trkpt><trkpt lat="43.85991183678922" lon="7.9499811963644875"><ele>99.0</ele><time>2026-04-21T10:06:21.001Z</time></trkpt><trkpt lat="43.860104658633524" lon="7.950210112051564"><ele>93.0</ele><time>2026-04-21T10:06:22.001Z</time></trkpt><trkpt lat="43.86028994889715" lon="7.95045192674184"><ele>90.0</ele><time>2026-04-21T10:06:23.001Z</time></trkpt><trkpt lat="43.860471021039665" lon="7.950700561942744"><ele>87.0</ele><time>2026-04-21T10:06:24.001Z</time></trkpt><trkpt lat="43.860643979429824" lon="7.950955470034378"><ele>78.5</ele><time>2026-04-21T10:06:25.001Z</time></trkpt><trkpt lat="43.860810259013384" lon="7.951217144003451"><ele>70.0</ele><time>2026-04-21T10:06:26.001Z</time></trkpt><trkpt lat="43.86096943195457" lon="7.95148414732274"><ele>56.5</ele><time>2026-04-21T10:06:27.001Z</time></trkpt><trkpt lat="43.86112284215523" lon="7.95175278716829"><ele>43.0</ele><time>2026-04-21T10:06:28.001Z</time></trkpt><trkpt lat="43.86126891119727" lon="7.952024413448559"><ele>43.0</ele><time>2026-04-21T10:06:29.001Z</time></trkpt><trkpt lat="43.86141033861809" lon="7.952301360980427"><ele>43.0</ele><time>2026-04-21T10:06:30.001Z</time></trkpt><trkpt lat="43.86154724100061" lon="7.9525823058180105"><ele>38.0</ele><time>2026-04-21T10:06:31.001Z</time></trkpt><trkpt lat="43.86168077205188" lon="7.9528674273682265"><ele>33.0</ele><time>2026-04-21T10:06:32.001Z</time></trkpt><trkpt lat="43.86181295859765" lon="7.95316124413943"><ele>30.5</ele><time>2026-04-21T10:06:33.001Z</time></trkpt><trkpt lat="43.86193623409498" lon="7.9534624878117945"><ele>28.0</ele><time>2026-04-21T10:06:34.001Z</time></trkpt><trkpt lat="43.86205174217345" lon="7.9537698538998525"><ele>28.0</ele><time>2026-04-21T10:06:35.001Z</time></trkpt><trkpt lat="43.862160322114924" lon="7.95408487002439"><ele>28.0</ele><time>2026-04-21T10:06:36.001Z</time></trkpt><trkpt lat="43.86226191735278" lon="7.9544039078601"><ele>28.5</ele><time>2026-04-21T10:06:37.001Z</time></trkpt><trkpt lat="43.862355942501424" lon="7.95472517146744"><ele>29.0</ele><time>2026-04-21T10:06:38.001Z</time></trkpt><trkpt lat="43.86244328917451" lon="7.95505119685558"><ele>29.0</ele><time>2026-04-21T10:06:39.001Z</time></trkpt><trkpt lat="43.86252602508785" lon="7.955380734975434"><ele>29.0</ele><time>2026-04-21T10:06:40.001Z</time></trkpt><trkpt lat="43.862604165000015" lon="7.955711612924163"><ele>44.0</ele><time>2026-04-21T10:06:41.001Z</time></trkpt><trkpt lat="43.862674738870595" lon="7.9560436185731085"><ele>59.0</ele><time>2026-04-21T10:06:42.001Z</time></trkpt><trkpt lat="43.862738802675196" lon="7.956377235979503"><ele>67.5</ele><time>2026-04-21T10:06:43.001Z</time></trkpt><trkpt lat="43.8627972446595" lon="7.95671327465835"><ele>76.0</ele><time>2026-04-21T10:06:44.001Z</time></trkpt><trkpt lat="43.86284606272159" lon="7.957054615042436"><ele>76.0</ele><time>2026-04-21T10:06:45.001Z</time></trkpt><trkpt lat="43.86288662697046" lon="7.957395248535878"><ele>76.0</ele><time>2026-04-21T10:06:46.001Z</time></trkpt><trkpt lat="43.8629219505982" lon="7.957736578095072"><ele>81.5</ele><time>2026-04-21T10:06:47.001Z</time></trkpt><trkpt lat="43.86295063897843" lon="7.958077525500512"><ele>87.0</ele><time>2026-04-21T10:06:48.001Z</time></trkpt><trkpt lat="43.86297471811291" lon="7.958419836239284"><ele>91.0</ele><time>2026-04-21T10:06:49.001Z</time></trkpt><trkpt lat="43.86298909487306" lon="7.95876063448722"><ele>95.0</ele><time>2026-04-21T10:06:50.001Z</time></trkpt><trkpt lat="43.862997076859656" lon="7.959101924701355"><ele>97.5</ele><time>2026-04-21T10:06:51.001Z</time></trkpt><trkpt lat="43.86300100570466" lon="7.95944585130481"><ele>100.0</ele><time>2026-04-21T10:06:52.001Z</time></trkpt><trkpt lat="43.86299890645541" lon="7.959788258524274"><ele>109.0</ele><time>2026-04-21T10:06:53.001Z</time></trkpt><trkpt lat="43.86299193495172" lon="7.96013114446151"><ele>118.0</ele><time>2026-04-21T10:06:54.001Z</time></trkpt><trkpt lat="43.86298297430466" lon="7.960477532032033"><ele>118.0</ele><time>2026-04-21T10:06:55.001Z</time></trkpt><trkpt lat="43.86297196926117" lon="7.960825009632747"><ele>118.0</ele><time>2026-04-21T10:06:56.001Z</time></trkpt><trkpt lat="43.8629604954001" lon="7.961174962164171"><ele>128.5</ele><time>2026-04-21T10:06:57.001Z</time></trkpt><trkpt lat="43.86294916260754" lon="7.96152465942231"><ele>139.0</ele><time>2026-04-21T10:06:58.001Z</time></trkpt><trkpt lat="43.86293661504113" lon="7.96187517422937"><ele>138.5</ele><time>2026-04-21T10:06:59.001Z</time></trkpt><trkpt lat="43.86292495391068" lon="7.962227731828718"><ele>138.0</ele><time>2026-04-21T10:07:00.001Z</time></trkpt><trkpt lat="43.86291486408749" lon="7.962603221170074"><ele>138.0</ele><time>2026-04-21T10:07:01.061Z</time></trkpt><trkpt lat="43.86290658898782" lon="7.962956698017379"><ele>138.0</ele><time>2026-04-21T10:07:02.06Z</time></trkpt><trkpt lat="43.86292733078921" lon="7.96330869335515"><ele>125.5</ele><time>2026-04-21T10:07:03.058Z</time></trkpt><trkpt lat="43.86293969723211" lon="7.963664427741208"><ele>113.0</ele><time>2026-04-21T10:07:04.059Z</time></trkpt><trkpt lat="43.862953738893445" lon="7.964021315932186"><ele>94.5</ele><time>2026-04-21T10:07:05.053Z</time></trkpt><trkpt lat="43.86296787672325" lon="7.9643669721935995"><ele>76.0</ele><time>2026-04-21T10:07:06.028Z</time></trkpt><trkpt lat="43.86308035512943" lon="7.965751955216006"><ele>59.0</ele><time>2026-04-21T10:07:10.001Z</time></trkpt><trkpt lat="43.86309509475803" lon="7.966107925736581"><ele>42.0</ele><time>2026-04-21T10:07:11.001Z</time></trkpt><trkpt lat="43.863103091559964" lon="7.966463335634085"><ele>35.0</ele><time>2026-04-21T10:07:12.001Z</time></trkpt><trkpt lat="43.86312062873457" lon="7.966811020683924"><ele>28.0</ele><time>2026-04-21T10:07:13.001Z</time></trkpt><trkpt lat="43.86312890206521" lon="7.9671532142157035"><ele>28.0</ele><time>2026-04-21T10:07:14.001Z</time></trkpt><trkpt lat="43.8631452228317" lon="7.967483032912286"><ele>28.0</ele><time>2026-04-21T10:07:15.001Z</time></trkpt><trkpt lat="43.863162140305164" lon="7.967809998469589"><ele>28.0</ele><time>2026-04-21T10:07:16.001Z</time></trkpt><trkpt lat="43.86317659475445" lon="7.968132597749608"><ele>28.0</ele><time>2026-04-21T10:07:17.001Z</time></trkpt><trkpt lat="43.863187839093236" lon="7.96845694170145"><ele>37.0</ele><time>2026-04-21T10:07:18.001Z</time></trkpt><trkpt lat="43.863202009012454" lon="7.968778041827941"><ele>46.0</ele><time>2026-04-21T10:07:19.001Z</time></trkpt><trkpt lat="43.863214470871526" lon="7.969100948085409"><ele>51.5</ele><time>2026-04-21T10:07:20.001Z</time></trkpt><trkpt lat="43.86322531142853" lon="7.969421256866219"><ele>57.0</ele><time>2026-04-21T10:07:21.001Z</time></trkpt><trkpt lat="43.86323595108591" lon="7.969741144173383"><ele>61.0</ele><time>2026-04-21T10:07:22.001Z</time></trkpt><trkpt lat="43.86324972817034" lon="7.970061934253473"><ele>65.0</ele><time>2026-04-21T10:07:23.001Z</time></trkpt><trkpt lat="43.86326182619713" lon="7.970384052974368"><ele>65.0</ele><time>2026-04-21T10:07:24.001Z</time></trkpt><trkpt lat="43.86327671703459" lon="7.970711123661852"><ele>65.0</ele><time>2026-04-21T10:07:25.001Z</time></trkpt><trkpt lat="43.86329644330218" lon="7.971041156037351"><ele>67.5</ele><time>2026-04-21T10:07:26.001Z</time></trkpt><trkpt lat="43.86332546587075" lon="7.9713737433441025"><ele>70.0</ele><time>2026-04-21T10:07:27.001Z</time></trkpt><trkpt lat="43.86335980250927" lon="7.971708174994277"><ele>70.0</ele><time>2026-04-21T10:07:28.001Z</time></trkpt><trkpt lat="43.863399802514486" lon="7.972043280233557"><ele>70.0</ele><time>2026-04-21T10:07:29.001Z</time></trkpt><trkpt lat="43.86344699261292" lon="7.9723776976556895"><ele>85.5</ele><time>2026-04-21T10:07:30.001Z</time></trkpt><trkpt lat="43.86350344312906" lon="7.972711222362771"><ele>101.0</ele><time>2026-04-21T10:07:31.001Z</time></trkpt><trkpt lat="43.863562276013404" lon="7.973042047166172"><ele>97.5</ele><time>2026-04-21T10:07:32.001Z</time></trkpt><trkpt lat="43.863629866512746" lon="7.973371937828013"><ele>94.0</ele><time>2026-04-21T10:07:33.001Z</time></trkpt><trkpt lat="43.86370382115797" lon="7.973697571982639"><ele>94.0</ele><time>2026-04-21T10:07:34.001Z</time></trkpt><trkpt lat="43.86378469879143" lon="7.9740182902562555"><ele>94.0</ele><time>2026-04-21T10:07:35.001Z</time></trkpt><trkpt lat="43.86387297253686" lon="7.97433722094661"><ele>87.0</ele><time>2026-04-21T10:07:36.001Z</time></trkpt><trkpt lat="43.863963599253346" lon="7.974653534416197"><ele>80.0</ele><time>2026-04-21T10:07:37.001Z</time></trkpt><trkpt lat="43.86405380078488" lon="7.974967002550016"><ele>75.5</ele><time>2026-04-21T10:07:38.001Z</time></trkpt><trkpt lat="43.86415014492097" lon="7.975277786797796"><ele>71.0</ele><time>2026-04-21T10:07:39.001Z</time></trkpt><trkpt lat="43.86424910307979" lon="7.9755898045728655"><ele>87.0</ele><time>2026-04-21T10:07:40.001Z</time></trkpt><trkpt lat="43.86434311351085" lon="7.975902091343657"><ele>103.0</ele><time>2026-04-21T10:07:41.001Z</time></trkpt><trkpt lat="43.86443682706179" lon="7.976213681292161"><ele>103.0</ele><time>2026-04-21T10:07:42.001Z</time></trkpt><trkpt lat="43.8645347468653" lon="7.976527530980135"><ele>103.0</ele><time>2026-04-21T10:07:43.001Z</time></trkpt><trkpt lat="43.864631891024096" lon="7.976846156130268"><ele>111.5</ele><time>2026-04-21T10:07:44.001Z</time></trkpt><trkpt lat="43.864730086328834" lon="7.977163496919107"><ele>120.0</ele><time>2026-04-21T10:07:45.001Z</time></trkpt><trkpt lat="43.86483172101829" lon="7.977481800258738"><ele>122.5</ele><time>2026-04-21T10:07:46.001Z</time></trkpt><trkpt lat="43.86493822658255" lon="7.977800199250337"><ele>125.0</ele><time>2026-04-21T10:07:47.001Z</time></trkpt><trkpt lat="43.8650453502596" lon="7.978115971284647"><ele>139.5</ele><time>2026-04-21T10:07:48.001Z</time></trkpt><trkpt lat="43.86515838845813" lon="7.978453811863743"><ele>154.0</ele><time>2026-04-21T10:07:49.065Z</time></trkpt><trkpt lat="43.865262372723485" lon="7.978771058467057"><ele>71.0</ele><time>2026-04-21T10:07:50.062Z</time></trkpt><trkpt lat="43.86668816365373" lon="7.982565763913295"><ele>78.5</ele><time>2026-04-21T10:08:02.001Z</time></trkpt><trkpt lat="43.86681543030166" lon="7.982884715351966"><ele>86.0</ele><time>2026-04-21T10:08:03.001Z</time></trkpt><trkpt lat="43.86692059321325" lon="7.983196869872731"><ele>88.5</ele><time>2026-04-21T10:08:04.001Z</time></trkpt><trkpt lat="43.86703184175492" lon="7.9835052096837025"><ele>91.0</ele><time>2026-04-21T10:08:05.001Z</time></trkpt><trkpt lat="43.86714180025133" lon="7.983815121147316"><ele>91.0</ele><time>2026-04-21T10:08:06.001Z</time></trkpt><trkpt lat="43.8672550341871" lon="7.984118217675114"><ele>91.0</ele><time>2026-04-21T10:08:07.001Z</time></trkpt><trkpt lat="43.86736860058455" lon="7.984421727974463"><ele>97.0</ele><time>2026-04-21T10:08:08.001Z</time></trkpt><trkpt lat="43.867482041774494" lon="7.984727484827376"><ele>103.0</ele><time>2026-04-21T10:08:09.001Z</time></trkpt><trkpt lat="43.86760021322898" lon="7.985034684843069"><ele>122.0</ele><time>2026-04-21T10:08:10.001Z</time></trkpt><trkpt lat="43.86771881463534" lon="7.985344522276957"><ele>141.0</ele><time>2026-04-21T10:08:11.001Z</time></trkpt><trkpt lat="43.867836737600356" lon="7.985655727243279"><ele>146.5</ele><time>2026-04-21T10:08:12.001Z</time></trkpt><trkpt lat="43.86795667690473" lon="7.985968072176206"><ele>152.0</ele><time>2026-04-21T10:08:13.001Z</time></trkpt><trkpt lat="43.868077924586835" lon="7.986280074791195"><ele>152.0</ele><time>2026-04-21T10:08:14.001Z</time></trkpt><trkpt lat="43.86820906972554" lon="7.986610931252173"><ele>152.0</ele><time>2026-04-21T10:08:15.061Z</time></trkpt><trkpt lat="43.86833601753078" lon="7.9869263333242735"><ele>148.5</ele><time>2026-04-21T10:08:16.06Z</time></trkpt><trkpt lat="43.86846864936288" lon="7.987241948645317"><ele>145.0</ele><time>2026-04-21T10:08:17.063Z</time></trkpt><trkpt lat="43.86860200971866" lon="7.987555408516111"><ele>68.0</ele><time>2026-04-21T10:08:18.06Z</time></trkpt><trkpt lat="43.870395126126326" lon="7.990513945659145"><ele>68.0</ele><time>2026-04-21T10:08:30.001Z</time></trkpt><trkpt lat="43.870643910125516" lon="7.990772608168644"><ele>68.0</ele><time>2026-04-21T10:08:31.001Z</time></trkpt><trkpt lat="43.870841441004515" lon="7.99097287463357"><ele>58.0</ele><time>2026-04-21T10:08:32.001Z</time></trkpt><trkpt lat="43.871031481872386" lon="7.991146089536068"><ele>48.0</ele><time>2026-04-21T10:08:33.001Z</time></trkpt><trkpt lat="43.871223718580886" lon="7.991322531655317"><ele>48.0</ele><time>2026-04-21T10:08:34.001Z</time></trkpt><trkpt lat="43.8714243192654" lon="7.991500812928726"><ele>48.0</ele><time>2026-04-21T10:08:35.001Z</time></trkpt><trkpt lat="43.87162729794389" lon="7.991680412797136"><ele>42.0</ele><time>2026-04-21T10:08:36.001Z</time></trkpt><trkpt lat="43.87182765114974" lon="7.991853986029709"><ele>36.0</ele><time>2026-04-21T10:08:37.001Z</time></trkpt><trkpt lat="43.87203260708629" lon="7.992023769103397"><ele>36.0</ele><time>2026-04-21T10:08:38.001Z</time></trkpt><trkpt lat="43.87223456812958" lon="7.992190790939176"><ele>36.0</ele><time>2026-04-21T10:08:39.001Z</time></trkpt><trkpt lat="43.87243739724893" lon="7.992361363947486"><ele>24.5</ele><time>2026-04-21T10:08:40.001Z</time></trkpt><trkpt lat="43.87264054671987" lon="7.9925286072490245"><ele>13.0</ele><time>2026-04-21T10:08:41.001Z</time></trkpt><trkpt lat="43.87284658679719" lon="7.992693827158291"><ele>13.0</ele><time>2026-04-21T10:08:42.001Z</time></trkpt><trkpt lat="43.873051036187064" lon="7.992859282386249"><ele>13.0</ele><time>2026-04-21T10:08:43.001Z</time></trkpt><trkpt lat="43.8732569452969" lon="7.993028254672956"><ele>10.5</ele><time>2026-04-21T10:08:44.001Z</time></trkpt><trkpt lat="43.873461016439975" lon="7.993200144193389"><ele>8.0</ele><time>2026-04-21T10:08:45.001Z</time></trkpt><trkpt lat="43.87366466197955" lon="7.9933727439766615"><ele>8.0</ele><time>2026-04-21T10:08:46.001Z</time></trkpt><trkpt lat="43.87386881088763" lon="7.993545700586246"><ele>8.0</ele><time>2026-04-21T10:08:47.001Z</time></trkpt><trkpt lat="43.87407338249738" lon="7.993716246571374"><ele>9.5</ele><time>2026-04-21T10:08:48.001Z</time></trkpt><trkpt lat="43.87427983672399" lon="7.993887547338279"><ele>11.0</ele><time>2026-04-21T10:08:49.001Z</time></trkpt><trkpt lat="43.87448582555069" lon="7.994059598621731"><ele>11.5</ele><time>2026-04-21T10:08:50.001Z</time></trkpt><trkpt lat="43.874690743128454" lon="7.9942338277297145"><ele>12.0</ele><time>2026-04-21T10:08:51.001Z</time></trkpt><trkpt lat="43.8748961433547" lon="7.994410888778678"><ele>16.0</ele><time>2026-04-21T10:08:52.001Z</time></trkpt><trkpt lat="43.875104298445606" lon="7.994583598806895"><ele>20.0</ele><time>2026-04-21T10:08:53.001Z</time></trkpt><trkpt lat="43.875313118311425" lon="7.994754937840364"><ele>20.0</ele><time>2026-04-21T10:08:54.001Z</time></trkpt><trkpt lat="43.87551943584695" lon="7.994927143778321"><ele>20.0</ele><time>2026-04-21T10:08:55.001Z</time></trkpt><trkpt lat="43.87572840580328" lon="7.995101590574574"><ele>26.5</ele><time>2026-04-21T10:08:56.001Z</time></trkpt><trkpt lat="43.87593897967504" lon="7.995278339157484"><ele>33.0</ele><time>2026-04-21T10:08:57.001Z</time></trkpt><trkpt lat="43.87614721898053" lon="7.9954541342983845"><ele>33.0</ele><time>2026-04-21T10:08:58.001Z</time></trkpt><trkpt lat="43.87635599696707" lon="7.995633273139807"><ele>33.0</ele><time>2026-04-21T10:08:59.001Z</time></trkpt><trkpt lat="43.876563184264015" lon="7.995818164616055"><ele>40.5</ele><time>2026-04-21T10:09:00.001Z</time></trkpt><trkpt lat="43.876772832762406" lon="7.996006177317936"><ele>48.0</ele><time>2026-04-21T10:09:01.001Z</time></trkpt><trkpt lat="43.876975810851654" lon="7.9961985368447985"><ele>48.0</ele><time>2026-04-21T10:09:02.001Z</time></trkpt><trkpt lat="43.87717831181137" lon="7.99640080707904"><ele>48.0</ele><time>2026-04-21T10:09:03.001Z</time></trkpt><trkpt lat="43.87737160963056" lon="7.996609461055247"><ele>47.5</ele><time>2026-04-21T10:09:04.001Z</time></trkpt><trkpt lat="43.877564229827975" lon="7.996825416915659"><ele>47.0</ele><time>2026-04-21T10:09:05.001Z</time></trkpt><trkpt lat="43.877753256548324" lon="7.99704493952038"><ele>47.0</ele><time>2026-04-21T10:09:06.001Z</time></trkpt><trkpt lat="43.877939024392276" lon="7.99727137172707"><ele>47.0</ele><time>2026-04-21T10:09:07.001Z</time></trkpt><trkpt lat="43.87811803548784" lon="7.997506229922672"><ele>45.0</ele><time>2026-04-21T10:09:08.001Z</time></trkpt><trkpt lat="43.878293740684455" lon="7.997747872006994"><ele>43.0</ele><time>2026-04-21T10:09:09.001Z</time></trkpt><trkpt lat="43.878463277916474" lon="7.9979912051847295"><ele>34.5</ele><time>2026-04-21T10:09:10.001Z</time></trkpt><trkpt lat="43.8786190617993" lon="7.998241325450454"><ele>26.0</ele><time>2026-04-21T10:09:11.001Z</time></trkpt><trkpt lat="43.87876649224814" lon="7.998493897115511"><ele>26.0</ele><time>2026-04-21T10:09:12.001Z</time></trkpt><trkpt lat="43.87895229869033" lon="7.998745190602765"><ele>26.0</ele><time>2026-04-21T10:09:13.001Z</time></trkpt><trkpt lat="43.8791052828837" lon="7.999005637493044"><ele>22.0</ele><time>2026-04-21T10:09:14.001Z</time></trkpt><trkpt lat="43.87925866978853" lon="7.999258360620673"><ele>18.0</ele><time>2026-04-21T10:09:15.001Z</time></trkpt><trkpt lat="43.87941395428044" lon="7.999505920067287"><ele>17.0</ele><time>2026-04-21T10:09:16.001Z</time></trkpt><trkpt lat="43.87956592652174" lon="7.999748188903562"><ele>16.0</ele><time>2026-04-21T10:09:17.001Z</time></trkpt><trkpt lat="43.87971512559324" lon="7.999990147044254"><ele>16.0</ele><time>2026-04-21T10:09:18.001Z</time></trkpt><trkpt lat="43.879863144672086" lon="8.000229404883003"><ele>16.0</ele><time>2026-04-21T10:09:19.001Z</time></trkpt><trkpt lat="43.88000798313996" lon="8.000463969756185"><ele>16.666666666666664</ele><time>2026-04-21T10:09:20.001Z</time></trkpt><trkpt lat="43.88015124034747" lon="8.000695876082705"><ele>17.333333333333332</ele><time>2026-04-21T10:09:21.001Z</time></trkpt><trkpt lat="43.88029116448522" lon="8.000925045443415"><ele>18.0</ele><time>2026-04-21T10:09:22.001Z</time></trkpt><trkpt lat="43.8804293741489" lon="8.001155407296205"><ele>18.666666666666668</ele><time>2026-04-21T10:09:23.001Z</time></trkpt><trkpt lat="43.88057029118183" lon="8.001386185638054"><ele>19.333333333333336</ele><time>2026-04-21T10:09:24.001Z</time></trkpt><trkpt lat="43.8807078709192" lon="8.001613105722946"><ele>20.0</ele><time>2026-04-21T10:09:25.001Z</time></trkpt><trkpt lat="43.8808446336545" lon="8.00183575678157"><ele>24.666666666666668</ele><time>2026-04-21T10:09:26.001Z</time></trkpt><trkpt lat="43.880980747640386" lon="8.002060007928192"><ele>29.333333333333336</ele><time>2026-04-21T10:09:27.001Z</time></trkpt><trkpt lat="43.88111724455231" lon="8.002284694762597"><ele>34.0</ele><time>2026-04-21T10:09:28.001Z</time></trkpt><trkpt lat="43.88125647285106" lon="8.002512671021162"><ele>35.66666666666667</ele><time>2026-04-21T10:09:29.001Z</time></trkpt><trkpt lat="43.881398817143626" lon="8.002742478832223"><ele>37.333333333333336</ele><time>2026-04-21T10:09:30.001Z</time></trkpt><trkpt lat="43.881542633546985" lon="8.002975195719655"><ele>39.0</ele><time>2026-04-21T10:09:31.001Z</time></trkpt><trkpt lat="43.881687384310354" lon="8.003213822181266"><ele>52.0</ele><time>2026-04-21T10:09:32.001Z</time></trkpt><trkpt lat="43.88183327587701" lon="8.003457489089953"><ele>65.0</ele><time>2026-04-21T10:09:33.001Z</time></trkpt><trkpt lat="43.881982455610284" lon="8.003702295735069"><ele>65.0</ele><time>2026-04-21T10:09:34.001Z</time></trkpt><trkpt lat="43.88213482471177" lon="8.003947123945643"><ele>65.0</ele><time>2026-04-21T10:09:35.001Z</time></trkpt><trkpt lat="43.88228855837287" lon="8.004192470985593"><ele>63.0</ele><time>2026-04-21T10:09:36.001Z</time></trkpt><trkpt lat="43.88244505391225" lon="8.004441793061348"><ele>61.0</ele><time>2026-04-21T10:09:37.001Z</time></trkpt><trkpt lat="43.88259822509084" lon="8.004690375667524"><ele>66.5</ele><time>2026-04-21T10:09:38.001Z</time></trkpt><trkpt lat="43.88275009211595" lon="8.00494326865957"><ele>72.0</ele><time>2026-04-21T10:09:39.001Z</time></trkpt><trkpt lat="43.88290051535796" lon="8.005195962699593"><ele>72.0</ele><time>2026-04-21T10:09:40.001Z</time></trkpt><trkpt lat="43.88304836671446" lon="8.00545404270278"><ele>72.0</ele><time>2026-04-21T10:09:41.001Z</time></trkpt><trkpt lat="43.88319293094905" lon="8.005714169487558"><ele>68.0</ele><time>2026-04-21T10:09:42.001Z</time></trkpt><trkpt lat="43.883338122575516" lon="8.005975815498674"><ele>64.0</ele><time>2026-04-21T10:09:43.001Z</time></trkpt><trkpt lat="43.88347953625073" lon="8.006227959368866"><ele>74.0</ele><time>2026-04-21T10:09:44.001Z</time></trkpt><trkpt lat="43.88362010483714" lon="8.006475825462573"><ele>84.0</ele><time>2026-04-21T10:09:45.001Z</time></trkpt><trkpt lat="43.88376836352732" lon="8.006726460712223"><ele>84.0</ele><time>2026-04-21T10:09:46.001Z</time></trkpt><trkpt lat="43.88391917718448" lon="8.006979089737989"><ele>84.0</ele><time>2026-04-21T10:09:47.001Z</time></trkpt><trkpt lat="43.884069620123284" lon="8.007235235215003"><ele>93.0</ele><time>2026-04-21T10:09:48.001Z</time></trkpt><trkpt lat="43.88422037765532" lon="8.007499391604336"><ele>102.0</ele><time>2026-04-21T10:09:49.001Z</time></trkpt><trkpt lat="43.88437130822106" lon="8.007768651617532"><ele>105.5</ele><time>2026-04-21T10:09:50.001Z</time></trkpt><trkpt lat="43.884522887026336" lon="8.008040111712925"><ele>109.0</ele><time>2026-04-21T10:09:51.001Z</time></trkpt><trkpt lat="43.88468629444341" lon="8.008332055992971"><ele>110.0</ele><time>2026-04-21T10:09:52.064Z</time></trkpt><trkpt lat="43.88484053057863" lon="8.008610521128247"><ele>111.0</ele><time>2026-04-21T10:09:53.063Z</time></trkpt><trkpt lat="43.88501150331359" lon="8.008872580149042"><ele>111.0</ele><time>2026-04-21T10:09:54.065Z</time></trkpt><trkpt lat="43.885174627610496" lon="8.009138356080088"><ele>111.0</ele><time>2026-04-21T10:09:55.066Z</time></trkpt><trkpt lat="43.88533965582242" lon="8.00941012873423"><ele>95.5</ele><time>2026-04-21T10:09:56.064Z</time></trkpt><trkpt lat="43.885656154882675" lon="8.009844121702983"><ele>80.0</ele><time>2026-04-21T10:09:58.001Z</time></trkpt><trkpt lat="43.88578625126966" lon="8.010107688805515"><ele>70.5</ele><time>2026-04-21T10:09:59.001Z</time></trkpt><trkpt lat="43.88592617391915" lon="8.010370118661697"><ele>61.0</ele><time>2026-04-21T10:10:00.001Z</time></trkpt><trkpt lat="43.88607058357186" lon="8.010641343415694"><ele>60.0</ele><time>2026-04-21T10:10:01.001Z</time></trkpt><trkpt lat="43.88621242327954" lon="8.010915132930917"><ele>59.0</ele><time>2026-04-21T10:10:02.001Z</time></trkpt><trkpt lat="43.88634973034907" lon="8.011184743102298"><ele>59.0</ele><time>2026-04-21T10:10:03.001Z</time></trkpt><trkpt lat="43.88648705144218" lon="8.011451222720593"><ele>59.0</ele><time>2026-04-21T10:10:04.001Z</time></trkpt><trkpt lat="43.88661936402402" lon="8.011720765995976"><ele>65.0</ele><time>2026-04-21T10:10:05.001Z</time></trkpt><trkpt lat="43.886745523904956" lon="8.011996038621906"><ele>71.0</ele><time>2026-04-21T10:10:06.001Z</time></trkpt><trkpt lat="43.88686653040668" lon="8.01227123752218"><ele>78.0</ele><time>2026-04-21T10:10:07.001Z</time></trkpt><trkpt lat="43.88698696927588" lon="8.012543792409163"><ele>85.0</ele><time>2026-04-21T10:10:08.001Z</time></trkpt><trkpt lat="43.88710212983208" lon="8.012820610823505"><ele>85.0</ele><time>2026-04-21T10:10:09.001Z</time></trkpt><trkpt lat="43.88721778579491" lon="8.013096152718068"><ele>85.0</ele><time>2026-04-21T10:10:10.001Z</time></trkpt><trkpt lat="43.88733006349688" lon="8.013376769033886"><ele>88.5</ele><time>2026-04-21T10:10:11.001Z</time></trkpt><trkpt lat="43.88743741888204" lon="8.013669445184721"><ele>92.0</ele><time>2026-04-21T10:10:12.001Z</time></trkpt><trkpt lat="43.887547270363754" lon="8.013969248589927"><ele>102.5</ele><time>2026-04-21T10:10:13Z</time></trkpt><trkpt lat="43.88765936847882" lon="8.014272920997787"><ele>113.0</ele><time>2026-04-21T10:10:14Z</time></trkpt><trkpt lat="43.88777020885366" lon="8.014586760590522"><ele>113.0</ele><time>2026-04-21T10:10:15Z</time></trkpt><trkpt lat="43.88787853966064" lon="8.014905427043836"><ele>113.0</ele><time>2026-04-21T10:10:16Z</time></trkpt><trkpt lat="43.887980170195085" lon="8.015225054672813"><ele>117.0</ele><time>2026-04-21T10:10:17Z</time></trkpt><trkpt lat="43.88807474837522" lon="8.015548037331914"><ele>121.0</ele><time>2026-04-21T10:10:18Z</time></trkpt><trkpt lat="43.88816981446793" lon="8.015892304973844"><ele>121.5</ele><time>2026-04-21T10:10:19.063Z</time></trkpt><trkpt lat="43.88825377945587" lon="8.016217149168963"><ele>122.0</ele><time>2026-04-21T10:10:20.065Z</time></trkpt><trkpt lat="43.888334017954804" lon="8.016543087718"><ele>118.5</ele><time>2026-04-21T10:10:21.065Z</time></trkpt><trkpt lat="43.888413834870356" lon="8.016868560848554"><ele>115.0</ele><time>2026-04-21T10:10:22.064Z</time></trkpt><trkpt lat="43.88859291743642" lon="8.017307790355197"><ele>108.5</ele><time>2026-04-21T10:10:24Z</time></trkpt><trkpt lat="43.88866811944426" lon="8.017602146225808"><ele>102.0</ele><time>2026-04-21T10:10:25Z</time></trkpt><trkpt lat="43.88872401187978" lon="8.017909896348465"><ele>102.0</ele><time>2026-04-21T10:10:26Z</time></trkpt><trkpt lat="43.888791514236395" lon="8.018211330730967"><ele>102.0</ele><time>2026-04-21T10:10:27Z</time></trkpt><trkpt lat="43.88884971193614" lon="8.018519727861555"><ele>94.0</ele><time>2026-04-21T10:10:28Z</time></trkpt><trkpt lat="43.88890841406875" lon="8.01882471525597"><ele>86.0</ele><time>2026-04-21T10:10:29Z</time></trkpt><trkpt lat="43.88896182398872" lon="8.019127417401094"><ele>85.0</ele><time>2026-04-21T10:10:30Z</time></trkpt><trkpt lat="43.88901168648174" lon="8.019432008737734"><ele>84.0</ele><time>2026-04-21T10:10:31Z</time></trkpt><trkpt lat="43.88906471952063" lon="8.019736190307926"><ele>90.0</ele><time>2026-04-21T10:10:32Z</time></trkpt><trkpt lat="43.88912243305701" lon="8.020039740517952"><ele>96.0</ele><time>2026-04-21T10:10:33Z</time></trkpt><trkpt lat="43.889181143172706" lon="8.020342153994106"><ele>96.0</ele><time>2026-04-21T10:10:34Z</time></trkpt><trkpt lat="43.88923911577866" lon="8.020646535405673"><ele>96.0</ele><time>2026-04-21T10:10:35Z</time></trkpt><trkpt lat="43.889295095522705" lon="8.020953622560837"><ele>113.5</ele><time>2026-04-21T10:10:36Z</time></trkpt><trkpt lat="43.8893544107812" lon="8.021263075953854"><ele>131.0</ele><time>2026-04-21T10:10:37Z</time></trkpt><trkpt lat="43.88941531198149" lon="8.02157511755607"><ele>129.0</ele><time>2026-04-21T10:10:38Z</time></trkpt><trkpt lat="43.88947904858677" lon="8.021886806749613"><ele>127.0</ele><time>2026-04-21T10:10:39Z</time></trkpt><trkpt lat="43.88954127583109" lon="8.02219995327206"><ele>121.5</ele><time>2026-04-21T10:10:40Z</time></trkpt><trkpt lat="43.8896007077534" lon="8.022508794438876"><ele>116.0</ele><time>2026-04-21T10:10:41Z</time></trkpt><trkpt lat="43.88966045533095" lon="8.022823652108361"><ele>116.0</ele><time>2026-04-21T10:10:42Z</time></trkpt><trkpt lat="43.88971949391397" lon="8.023143043056509"><ele>116.0</ele><time>2026-04-21T10:10:43Z</time></trkpt><trkpt lat="43.88978328525513" lon="8.023466979690268"><ele>112.0</ele><time>2026-04-21T10:10:44Z</time></trkpt><trkpt lat="43.88984874111651" lon="8.02378827557816"><ele>108.0</ele><time>2026-04-21T10:10:45Z</time></trkpt><trkpt lat="43.889921478807324" lon="8.024106065077588"><ele>106.0</ele><time>2026-04-21T10:10:46Z</time></trkpt><trkpt lat="43.89000427361685" lon="8.024412684451814"><ele>104.0</ele><time>2026-04-21T10:10:47Z</time></trkpt><trkpt lat="43.89009308450932" lon="8.024713937561279"><ele>119.5</ele><time>2026-04-21T10:10:48Z</time></trkpt><trkpt lat="43.89019489724235" lon="8.025008057632514"><ele>135.0</ele><time>2026-04-21T10:10:49Z</time></trkpt><trkpt lat="43.890305399030666" lon="8.025296227858483"><ele>135.0</ele><time>2026-04-21T10:10:50Z</time></trkpt><trkpt lat="43.89042559689912" lon="8.025577136440932"><ele>135.0</ele><time>2026-04-21T10:10:51Z</time></trkpt><trkpt lat="43.89055532485582" lon="8.025844930284233"><ele>136.0</ele><time>2026-04-21T10:10:52Z</time></trkpt><trkpt lat="43.89069315400336" lon="8.026100056004625"><ele>137.0</ele><time>2026-04-21T10:10:53Z</time></trkpt><trkpt lat="43.890840451368895" lon="8.02634420448357"><ele>136.0</ele><time>2026-04-21T10:10:54Z</time></trkpt><trkpt lat="43.8910005994856" lon="8.026580039555016"><ele>135.0</ele><time>2026-04-21T10:10:55Z</time></trkpt><trkpt lat="43.891165487442365" lon="8.026803895862471"><ele>125.0</ele><time>2026-04-21T10:10:56Z</time></trkpt><trkpt lat="43.891323136894755" lon="8.027055944802704"><ele>115.0</ele><time>2026-04-21T10:10:57Z</time></trkpt><trkpt lat="43.89150021938173" lon="8.027241917464874"><ele>115.0</ele><time>2026-04-21T10:10:58Z</time></trkpt><trkpt lat="43.8916964168449" lon="8.027430289809875"><ele>115.0</ele><time>2026-04-21T10:10:59Z</time></trkpt><trkpt lat="43.89189180217801" lon="8.027611406995886"><ele>114.0</ele><time>2026-04-21T10:11:00Z</time></trkpt><trkpt lat="43.8920975454966" lon="8.027775739450776"><ele>113.0</ele><time>2026-04-21T10:11:01Z</time></trkpt><trkpt lat="43.892307518883854" lon="8.027927298961181"><ele>113.0</ele><time>2026-04-21T10:11:02Z</time></trkpt><trkpt lat="43.89252456197258" lon="8.028063998075726"><ele>113.0</ele><time>2026-04-21T10:11:03Z</time></trkpt><trkpt lat="43.892743983754336" lon="8.028187428933236"><ele>113.5</ele><time>2026-04-21T10:11:04Z</time></trkpt><trkpt lat="43.89296871048678" lon="8.028296978145564"><ele>114.0</ele><time>2026-04-21T10:11:05Z</time></trkpt><trkpt lat="43.89320125805909" lon="8.028395374762152"><ele>110.5</ele><time>2026-04-21T10:11:06Z</time></trkpt><trkpt lat="43.89344079547704" lon="8.028476317239031"><ele>107.0</ele><time>2026-04-21T10:11:07Z</time></trkpt><trkpt lat="43.893683571134794" lon="8.028546734621857"><ele>107.0</ele><time>2026-04-21T10:11:08Z</time></trkpt><trkpt lat="43.8938976475371" lon="8.028579171139915"><ele>107.0</ele><time>2026-04-21T10:11:09Z</time></trkpt><trkpt lat="43.89414029204313" lon="8.028584354463414"><ele>108.5</ele><time>2026-04-21T10:11:10Z</time></trkpt><trkpt lat="43.8943833413141" lon="8.028581246946812"><ele>110.0</ele><time>2026-04-21T10:11:11Z</time></trkpt><trkpt lat="43.89462189525422" lon="8.028572777080718"><ele>110.0</ele><time>2026-04-21T10:11:12Z</time></trkpt><trkpt lat="43.89485796606655" lon="8.028542028043853"><ele>110.0</ele><time>2026-04-21T10:11:13Z</time></trkpt><trkpt lat="43.895094226901314" lon="8.028495870127047"><ele>101.0</ele><time>2026-04-21T10:11:14Z</time></trkpt><trkpt lat="43.89533098972872" lon="8.028436256209126"><ele>92.0</ele><time>2026-04-21T10:11:15Z</time></trkpt><trkpt lat="43.895566597215385" lon="8.028375484316193"><ele>92.0</ele><time>2026-04-21T10:11:16Z</time></trkpt><trkpt lat="43.89580156448646" lon="8.028312697378066"><ele>92.0</ele><time>2026-04-21T10:11:17Z</time></trkpt><trkpt lat="43.89604101105886" lon="8.028249125778284"><ele>96.5</ele><time>2026-04-21T10:11:18Z</time></trkpt><trkpt lat="43.89628689190121" lon="8.028154701582729"><ele>101.0</ele><time>2026-04-21T10:11:19Z</time></trkpt><trkpt lat="43.89652515646197" lon="8.028077677858276"><ele>95.5</ele><time>2026-04-21T10:11:20.001Z</time></trkpt><trkpt lat="43.896763660750224" lon="8.02799901912487"><ele>90.0</ele><time>2026-04-21T10:11:21.001Z</time></trkpt><trkpt lat="43.89700153160957" lon="8.027921786070493"><ele>90.0</ele><time>2026-04-21T10:11:22.001Z</time></trkpt><trkpt lat="43.897238505489064" lon="8.027843632049912"><ele>90.0</ele><time>2026-04-21T10:11:23.001Z</time></trkpt><trkpt lat="43.89747394442812" lon="8.02776510783944"><ele>89.5</ele><time>2026-04-21T10:11:24.001Z</time></trkpt><trkpt lat="43.897710793493296" lon="8.027689100147443"><ele>89.0</ele><time>2026-04-21T10:11:25.001Z</time></trkpt><trkpt lat="43.89794773836623" lon="8.027616695093819"><ele>89.0</ele><time>2026-04-21T10:11:26.001Z</time></trkpt><trkpt lat="43.89818728990804" lon="8.02754113626012"><ele>89.0</ele><time>2026-04-21T10:11:27.001Z</time></trkpt><trkpt lat="43.898427302271784" lon="8.02746847484505"><ele>89.0</ele><time>2026-04-21T10:11:28.001Z</time></trkpt><trkpt lat="43.89866964396107" lon="8.027395990041258"><ele>89.0</ele><time>2026-04-21T10:11:29.001Z</time></trkpt><trkpt lat="43.89891252788652" lon="8.027325510510467"><ele>89.0</ele><time>2026-04-21T10:11:30.001Z</time></trkpt><trkpt lat="43.89915613813804" lon="8.027253092056542"><ele>89.0</ele><time>2026-04-21T10:11:31.001Z</time></trkpt><trkpt lat="43.89939964941848" lon="8.02718261284495"><ele>75.0</ele><time>2026-04-21T10:11:32.001Z</time></trkpt><trkpt lat="43.89963740783318" lon="8.027115557844567"><ele>61.0</ele><time>2026-04-21T10:11:33.001Z</time></trkpt><trkpt lat="43.899880526282494" lon="8.02705222910272"><ele>42.0</ele><time>2026-04-21T10:11:34.001Z</time></trkpt><trkpt lat="43.9001226269743" lon="8.026998994529322"><ele>23.0</ele><time>2026-04-21T10:11:35.001Z</time></trkpt><trkpt lat="43.90036412756657" lon="8.026953394834171"><ele>23.0</ele><time>2026-04-21T10:11:36.001Z</time></trkpt><trkpt lat="43.90060420217855" lon="8.026919153964206"><ele>23.0</ele><time>2026-04-21T10:11:37.001Z</time></trkpt><trkpt lat="43.90084459684834" lon="8.026890537722819"><ele>20.5</ele><time>2026-04-21T10:11:38.001Z</time></trkpt><trkpt lat="43.901082821245126" lon="8.026878968036185"><ele>18.0</ele><time>2026-04-21T10:11:39.001Z</time></trkpt><trkpt lat="43.901320886375" lon="8.02687594154485"><ele>18.0</ele><time>2026-04-21T10:11:40.001Z</time></trkpt><trkpt lat="43.90155589206868" lon="8.026885528204573"><ele>18.0</ele><time>2026-04-21T10:11:41.001Z</time></trkpt><trkpt lat="43.901792557518725" lon="8.026900716605068"><ele>17.0</ele><time>2026-04-21T10:11:42.001Z</time></trkpt><trkpt lat="43.902029277391634" lon="8.02693292221261"><ele>16.0</ele><time>2026-04-21T10:11:43.001Z</time></trkpt><trkpt lat="43.90226254967994" lon="8.026977841260791"><ele>16.0</ele><time>2026-04-21T10:11:44.001Z</time></trkpt><trkpt lat="43.90249938901343" lon="8.027039659711122"><ele>16.0</ele><time>2026-04-21T10:11:45.001Z</time></trkpt><trkpt lat="43.902733777628505" lon="8.027119298522482"><ele>16.5</ele><time>2026-04-21T10:11:46.001Z</time></trkpt><trkpt lat="43.9029595224876" lon="8.027212654735692"><ele>17.0</ele><time>2026-04-21T10:11:47.001Z</time></trkpt><trkpt lat="43.903185835002795" lon="8.027323015272502"><ele>17.0</ele><time>2026-04-21T10:11:48.001Z</time></trkpt><trkpt lat="43.9034094966766" lon="8.027444637051225"><ele>17.0</ele><time>2026-04-21T10:11:49.001Z</time></trkpt><trkpt lat="43.90362941834369" lon="8.027577561201012"><ele>32.5</ele><time>2026-04-21T10:11:50.001Z</time></trkpt><trkpt lat="43.90384543695704" lon="8.027723325380439"><ele>48.0</ele><time>2026-04-21T10:11:51.001Z</time></trkpt><trkpt lat="43.90405657918135" lon="8.027880254925684"><ele>48.5</ele><time>2026-04-21T10:11:52.001Z</time></trkpt><trkpt lat="43.90426250767204" lon="8.028051369046741"><ele>49.0</ele><time>2026-04-21T10:11:53.001Z</time></trkpt><trkpt lat="43.90445866931083" lon="8.028237606769508"><ele>64.0</ele><time>2026-04-21T10:11:54.001Z</time></trkpt><trkpt lat="43.90464184969032" lon="8.028433358774276"><ele>79.0</ele><time>2026-04-21T10:11:55.001Z</time></trkpt><trkpt lat="43.90481722029134" lon="8.028635019849457"><ele>79.0</ele><time>2026-04-21T10:11:56.001Z</time></trkpt><trkpt lat="43.90497857627577" lon="8.028835424303212"><ele>79.0</ele><time>2026-04-21T10:11:57.001Z</time></trkpt><trkpt lat="43.90513063673526" lon="8.029040163564124"><ele>79.0</ele><time>2026-04-21T10:11:58.001Z</time></trkpt><trkpt lat="43.90529028342512" lon="8.02926501053554"><ele>80.5</ele><time>2026-04-21T10:11:59.064Z</time></trkpt><trkpt lat="43.90543417703232" lon="8.029475503671234"><ele>82.0</ele><time>2026-04-21T10:12:00.06Z</time></trkpt><trkpt lat="43.90570221082789" lon="8.029919189982817"><ele>78.0</ele><time>2026-04-21T10:12:02.001Z</time></trkpt><trkpt lat="43.905877152794496" lon="8.03017232348743"><ele>74.0</ele><time>2026-04-21T10:12:03.001Z</time></trkpt><trkpt lat="43.90598517393447" lon="8.030478803432967"><ele>74.0</ele><time>2026-04-21T10:12:04.001Z</time></trkpt><trkpt lat="43.906098547173656" lon="8.030755777400413"><ele>74.0</ele><time>2026-04-21T10:12:05.001Z</time></trkpt><trkpt lat="43.906206935317535" lon="8.031033303889181"><ele>76.5</ele><time>2026-04-21T10:12:06.001Z</time></trkpt><trkpt lat="43.906300871699145" lon="8.031319227720465"><ele>79.0</ele><time>2026-04-21T10:12:07.001Z</time></trkpt><trkpt lat="43.90638975131109" lon="8.031605631437545"><ele>77.33333333333333</ele><time>2026-04-21T10:12:08.001Z</time></trkpt><trkpt lat="43.906464946345295" lon="8.03189241238308"><ele>75.66666666666667</ele><time>2026-04-21T10:12:09.001Z</time></trkpt><trkpt lat="43.90653482328403" lon="8.032184990124316"><ele>74.0</ele><time>2026-04-21T10:12:10.001Z</time></trkpt><trkpt lat="43.906592865417835" lon="8.032482411311967"><ele>77.66666666666667</ele><time>2026-04-21T10:12:11.001Z</time></trkpt><trkpt lat="43.90664248642672" lon="8.032784367304666"><ele>81.33333333333333</ele><time>2026-04-21T10:12:12.001Z</time></trkpt><trkpt lat="43.90668290445441" lon="8.033091243791839"><ele>85.0</ele><time>2026-04-21T10:12:13.001Z</time></trkpt><trkpt lat="43.90671303017475" lon="8.033405382645709"><ele>95.0</ele><time>2026-04-21T10:12:14.001Z</time></trkpt><trkpt lat="43.906732650317174" lon="8.033720246131834"><ele>105.0</ele><time>2026-04-21T10:12:15.001Z</time></trkpt><trkpt lat="43.90674486765325" lon="8.034028293442212"><ele>110.5</ele><time>2026-04-21T10:12:16.001Z</time></trkpt><trkpt lat="43.90674961053084" lon="8.034342644428051"><ele>116.0</ele><time>2026-04-21T10:12:17.001Z</time></trkpt><trkpt lat="43.90674218171634" lon="8.034680374257444"><ele>114.0</ele><time>2026-04-21T10:12:18.062Z</time></trkpt><trkpt lat="43.90672314944486" lon="8.03499780644655"><ele>112.0</ele><time>2026-04-21T10:12:19.061Z</time></trkpt><trkpt lat="43.90675176293904" lon="8.035502849915868"><ele>104.5</ele><time>2026-04-21T10:12:21.001Z</time></trkpt><trkpt lat="43.90671376024992" lon="8.035791564017702"><ele>97.0</ele><time>2026-04-21T10:12:22Z</time></trkpt><trkpt lat="43.906628548440956" lon="8.03610151193861"><ele>87.33333333333334</ele><time>2026-04-21T10:12:23Z</time></trkpt><trkpt lat="43.90655981032745" lon="8.036391122570437"><ele>77.66666666666667</ele><time>2026-04-21T10:12:24Z</time></trkpt><trkpt lat="43.90649940791027" lon="8.036677813903516"><ele>68.0</ele><time>2026-04-21T10:12:25Z</time></trkpt><trkpt lat="43.90643698635111" lon="8.036917992690183"><ele>65.33333333333334</ele><time>2026-04-21T10:12:26Z</time></trkpt><trkpt lat="43.90636742645731" lon="8.037116488638995"><ele>62.66666666666667</ele><time>2026-04-21T10:12:27Z</time></trkpt><trkpt lat="43.90629531071673" lon="8.03735149920995"><ele>60.0</ele><time>2026-04-21T10:12:28Z</time></trkpt><trkpt lat="43.9062168949816" lon="8.037582382391678"><ele>66.33333333333333</ele><time>2026-04-21T10:12:29Z</time></trkpt><trkpt lat="43.906138212456355" lon="8.037801821441242"><ele>72.66666666666666</ele><time>2026-04-21T10:12:30Z</time></trkpt><trkpt lat="43.90606050344808" lon="8.038005123642105"><ele>79.0</ele><time>2026-04-21T10:12:31Z</time></trkpt><trkpt lat="43.90597668526125" lon="8.038207411564263"><ele>80.33333333333333</ele><time>2026-04-21T10:12:32Z</time></trkpt><trkpt lat="43.90588613644097" lon="8.038412608189576"><ele>81.66666666666667</ele><time>2026-04-21T10:12:33Z</time></trkpt><trkpt lat="43.90578462877727" lon="8.038620332968971"><ele>83.0</ele><time>2026-04-21T10:12:34Z</time></trkpt><trkpt lat="43.90567294769758" lon="8.038833214652934"><ele>83.0</ele><time>2026-04-21T10:12:35Z</time></trkpt><trkpt lat="43.90555283951358" lon="8.039045429936962"><ele>83.0</ele><time>2026-04-21T10:12:36Z</time></trkpt><trkpt lat="43.90542272601028" lon="8.039260644769742"><ele>83.0</ele><time>2026-04-21T10:12:37Z</time></trkpt><trkpt lat="43.9052856138989" lon="8.039469582486916"><ele>83.66666666666667</ele><time>2026-04-21T10:12:38Z</time></trkpt><trkpt lat="43.90513727904608" lon="8.039677194044733"><ele>84.33333333333333</ele><time>2026-04-21T10:12:39Z</time></trkpt><trkpt lat="43.904981224809" lon="8.039883159211392"><ele>85.0</ele><time>2026-04-21T10:12:40Z</time></trkpt><trkpt lat="43.90481633086599" lon="8.040084610314553"><ele>95.5</ele><time>2026-04-21T10:12:41Z</time></trkpt><trkpt lat="43.90464254802631" lon="8.040279293442163"><ele>106.0</ele><time>2026-04-21T10:12:42Z</time></trkpt><trkpt lat="43.90446043800517" lon="8.040468977249377"><ele>106.0</ele><time>2026-04-21T10:12:43Z</time></trkpt><trkpt lat="43.90427676285762" lon="8.040661003730145"><ele>106.0</ele><time>2026-04-21T10:12:44Z</time></trkpt><trkpt lat="43.90408909862744" lon="8.040852065530741"><ele>110.5</ele><time>2026-04-21T10:12:45Z</time></trkpt><trkpt lat="43.90390209978902" lon="8.041042664696226"><ele>115.0</ele><time>2026-04-21T10:12:46Z</time></trkpt><trkpt lat="43.90371402402302" lon="8.041225937827003"><ele>115.0</ele><time>2026-04-21T10:12:47Z</time></trkpt><trkpt lat="43.903523342624645" lon="8.041409393181562"><ele>115.0</ele><time>2026-04-21T10:12:48Z</time></trkpt><trkpt lat="43.90332995120992" lon="8.041592850455752"><ele>102.0</ele><time>2026-04-21T10:12:49Z</time></trkpt><trkpt lat="43.903136020820426" lon="8.041775147118456"><ele>89.0</ele><time>2026-04-21T10:12:50Z</time></trkpt><trkpt lat="43.902938893148864" lon="8.041955801081576"><ele>89.0</ele><time>2026-04-21T10:12:51Z</time></trkpt><trkpt lat="43.90274269439124" lon="8.042137481781214"><ele>89.0</ele><time>2026-04-21T10:12:52Z</time></trkpt><trkpt lat="43.9025524875909" lon="8.042322862884086"><ele>94.5</ele><time>2026-04-21T10:12:53Z</time></trkpt><trkpt lat="43.902359700575666" lon="8.042503875843561"><ele>100.0</ele><time>2026-04-21T10:12:54Z</time></trkpt><trkpt lat="43.90216328955564" lon="8.04267577446547"><ele>100.0</ele><time>2026-04-21T10:12:55Z</time></trkpt><trkpt lat="43.901965146168614" lon="8.042846862212569"><ele>100.0</ele><time>2026-04-21T10:12:56Z</time></trkpt><trkpt lat="43.901765007207416" lon="8.0430197045175"><ele>99.0</ele><time>2026-04-21T10:12:57Z</time></trkpt><trkpt lat="43.90156648861409" lon="8.043189791161204"><ele>98.0</ele><time>2026-04-21T10:12:58Z</time></trkpt><trkpt lat="43.901369881935324" lon="8.043353864335067"><ele>104.5</ele><time>2026-04-21T10:12:59Z</time></trkpt><trkpt lat="43.90117259427183" lon="8.043523344802162"><ele>111.0</ele><time>2026-04-21T10:13:00Z</time></trkpt><trkpt lat="43.90098056946785" lon="8.043701942044057"><ele>106.0</ele><time>2026-04-21T10:13:01Z</time></trkpt><trkpt lat="43.9008007352132" lon="8.043887457025566"><ele>101.0</ele><time>2026-04-21T10:13:02Z</time></trkpt><trkpt lat="43.900621596295814" lon="8.04408621582332"><ele>109.0</ele><time>2026-04-21T10:13:03Z</time></trkpt><trkpt lat="43.90044681206911" lon="8.04429592971602"><ele>117.0</ele><time>2026-04-21T10:13:04Z</time></trkpt><trkpt lat="43.900275697654585" lon="8.044518558336648"><ele>117.0</ele><time>2026-04-21T10:13:05Z</time></trkpt><trkpt lat="43.90010973291055" lon="8.044755323386118"><ele>117.0</ele><time>2026-04-21T10:13:06Z</time></trkpt><trkpt lat="43.899950996350164" lon="8.045009899363576"><ele>131.0</ele><time>2026-04-21T10:13:07Z</time></trkpt><trkpt lat="43.89980083204649" lon="8.045283560188125"><ele>145.0</ele><time>2026-04-21T10:13:08Z</time></trkpt><trkpt lat="43.899658810598886" lon="8.045575396269593"><ele>153.5</ele><time>2026-04-21T10:13:09Z</time></trkpt><trkpt lat="43.89952725487201" lon="8.045882722944365"><ele>162.0</ele><time>2026-04-21T10:13:10Z</time></trkpt><trkpt lat="43.89940564086776" lon="8.046214656099423"><ele>162.0</ele><time>2026-04-21T10:13:11.064Z</time></trkpt><trkpt lat="43.89931225598467" lon="8.046530930182751"><ele>162.0</ele><time>2026-04-21T10:13:12.059Z</time></trkpt><trkpt lat="43.89923037862697" lon="8.0468607833809"><ele>155.5</ele><time>2026-04-21T10:13:13.059Z</time></trkpt><trkpt lat="43.89915965981291" lon="8.047198438023955"><ele>149.0</ele><time>2026-04-21T10:13:14.06Z</time></trkpt><trkpt lat="43.8990995165282" lon="8.047537592635441"><ele>134.5</ele><time>2026-04-21T10:13:15.059Z</time></trkpt><trkpt lat="43.8990534093997" lon="8.047869733579345"><ele>120.0</ele><time>2026-04-21T10:13:16.034Z</time></trkpt><trkpt lat="43.899001016029246" lon="8.048220336588011"><ele>115.0</ele><time>2026-04-21T10:13:17.032Z</time></trkpt><trkpt lat="43.898912514595985" lon="8.048333892428532"><ele>110.0</ele><time>2026-04-21T10:13:18Z</time></trkpt><trkpt lat="43.89888266913837" lon="8.048668128654432"><ele>105.0</ele><time>2026-04-21T10:13:19Z</time></trkpt><trkpt lat="43.898879301829126" lon="8.049032630831805"><ele>102.5</ele><time>2026-04-21T10:13:20Z</time></trkpt><trkpt lat="43.89887327602791" lon="8.049360364713447"><ele>100.0</ele><time>2026-04-21T10:13:21Z</time></trkpt><trkpt lat="43.898900565766375" lon="8.049683081485568"><ele>103.0</ele><time>2026-04-21T10:13:22Z</time></trkpt><trkpt lat="43.89892481771665" lon="8.05000369139245"><ele>106.0</ele><time>2026-04-21T10:13:23Z</time></trkpt><trkpt lat="43.89896351934059" lon="8.050327768625513"><ele>106.0</ele><time>2026-04-21T10:13:24Z</time></trkpt><trkpt lat="43.89900689782565" lon="8.050643670145462"><ele>106.0</ele><time>2026-04-21T10:13:25Z</time></trkpt><trkpt lat="43.89906449064652" lon="8.050960643498412"><ele>119.5</ele><time>2026-04-21T10:13:26Z</time></trkpt><trkpt lat="43.899138455450064" lon="8.051272436309533"><ele>133.0</ele><time>2026-04-21T10:13:27Z</time></trkpt><trkpt lat="43.899228471043855" lon="8.051580084485208"><ele>147.5</ele><time>2026-04-21T10:13:28Z</time></trkpt><trkpt lat="43.899332195394365" lon="8.051882140357591"><ele>162.0</ele><time>2026-04-21T10:13:29Z</time></trkpt><trkpt lat="43.8994501308176" lon="8.05217517593386"><ele>176.0</ele><time>2026-04-21T10:13:30Z</time></trkpt><trkpt lat="43.8995885618064" lon="8.052477081105371"><ele>190.0</ele><time>2026-04-21T10:13:31.064Z</time></trkpt><trkpt lat="43.899728837785105" lon="8.052757112980842"><ele>214.0</ele><time>2026-04-21T10:13:32.061Z</time></trkpt><trkpt lat="43.901435705821065" lon="8.056043441515818"><ele>193.0</ele><time>2026-04-21T10:13:36.514Z</time></trkpt><trkpt lat="43.90197648417457" lon="8.057037336523708"><ele>179.0</ele><time>2026-04-21T10:13:37.513Z</time></trkpt><trkpt lat="43.90251478629909" lon="8.0580359724108"><ele>154.0</ele><time>2026-04-21T10:13:38.514Z</time></trkpt><trkpt lat="43.903051228313174" lon="8.059028509392023"><ele>114.0</ele><time>2026-04-21T10:13:39.509Z</time></trkpt><trkpt lat="43.903593204816396" lon="8.060029279320549"><ele>93.0</ele><time>2026-04-21T10:13:40.514Z</time></trkpt><trkpt lat="43.90441343055308" lon="8.061630047305133"><ele>93.0</ele><time>2026-04-21T10:14:03.001Z</time></trkpt><trkpt lat="43.904591656920346" lon="8.06192325150721"><ele>93.0</ele><time>2026-04-21T10:14:04.001Z</time></trkpt><trkpt lat="43.90474500932402" lon="8.062231755149872"><ele>87.0</ele><time>2026-04-21T10:14:05.001Z</time></trkpt><trkpt lat="43.90490146540875" lon="8.062528692081141"><ele>81.0</ele><time>2026-04-21T10:14:06.001Z</time></trkpt><trkpt lat="43.90506125677623" lon="8.062825679461302"><ele>84.5</ele><time>2026-04-21T10:14:07.001Z</time></trkpt><trkpt lat="43.905222644071635" lon="8.063123667873155"><ele>88.0</ele><time>2026-04-21T10:14:08.001Z</time></trkpt><trkpt lat="43.905345166789424" lon="8.063344170431316"><ele>88.0</ele><time>2026-04-21T10:14:09.001Z</time></trkpt><trkpt lat="43.90549507696022" lon="8.06360498825955"><ele>88.0</ele><time>2026-04-21T10:14:10.001Z</time></trkpt><trkpt lat="43.905638862554234" lon="8.063876378538826"><ele>90.0</ele><time>2026-04-21T10:14:11.001Z</time></trkpt><trkpt lat="43.9057886276799" lon="8.0641333777822"><ele>92.0</ele><time>2026-04-21T10:14:12.001Z</time></trkpt><trkpt lat="43.905943600574204" lon="8.064392537661544"><ele>92.0</ele><time>2026-04-21T10:14:13.001Z</time></trkpt><trkpt lat="43.90610738899818" lon="8.064639932764809"><ele>92.0</ele><time>2026-04-21T10:14:14.001Z</time></trkpt><trkpt lat="43.90627563707637" lon="8.064881493198156"><ele>85.0</ele><time>2026-04-21T10:14:15.001Z</time></trkpt><trkpt lat="43.90644086749627" lon="8.065120400169812"><ele>78.0</ele><time>2026-04-21T10:14:16.001Z</time></trkpt><trkpt lat="43.90661791476032" lon="8.065343248631336"><ele>74.5</ele><time>2026-04-21T10:14:17.001Z</time></trkpt><trkpt lat="43.906798499224095" lon="8.065565838977534"><ele>71.0</ele><time>2026-04-21T10:14:18.001Z</time></trkpt><trkpt lat="43.90698134629113" lon="8.065786931266643"><ele>69.0</ele><time>2026-04-21T10:14:19.001Z</time></trkpt><trkpt lat="43.907167232168824" lon="8.066000809612301"><ele>67.0</ele><time>2026-04-21T10:14:20.001Z</time></trkpt><trkpt lat="43.90736185571357" lon="8.066200763457081"><ele>67.0</ele><time>2026-04-21T10:14:21.001Z</time></trkpt><trkpt lat="43.90755632050405" lon="8.066401215210071"><ele>67.0</ele><time>2026-04-21T10:14:22.001Z</time></trkpt><trkpt lat="43.90775554063356" lon="8.06659510094146"><ele>57.5</ele><time>2026-04-21T10:14:23.001Z</time></trkpt><trkpt lat="43.90795603833998" lon="8.066778378817569"><ele>48.0</ele><time>2026-04-21T10:14:24.001Z</time></trkpt><trkpt lat="43.908163656696566" lon="8.066954731622737"><ele>48.0</ele><time>2026-04-21T10:14:25.001Z</time></trkpt><trkpt lat="43.90837360521827" lon="8.067123925219272"><ele>48.0</ele><time>2026-04-21T10:14:26.001Z</time></trkpt><trkpt lat="43.908587786213104" lon="8.067281880317081"><ele>42.5</ele><time>2026-04-21T10:14:27Z</time></trkpt><trkpt lat="43.908802917363914" lon="8.067431511447372"><ele>37.0</ele><time>2026-04-21T10:14:28Z</time></trkpt><trkpt lat="43.90901794465165" lon="8.067576063732867"><ele>37.0</ele><time>2026-04-21T10:14:29Z</time></trkpt><trkpt lat="43.90923810073136" lon="8.067713215560577"><ele>37.0</ele><time>2026-04-21T10:14:30Z</time></trkpt><trkpt lat="43.909458960686266" lon="8.067841634893506"><ele>42.5</ele><time>2026-04-21T10:14:31Z</time></trkpt><trkpt lat="43.90968637220066" lon="8.067958436987936"><ele>48.0</ele><time>2026-04-21T10:14:32Z</time></trkpt><trkpt lat="43.90992203221061" lon="8.068059089002078"><ele>54.5</ele><time>2026-04-21T10:14:33Z</time></trkpt><trkpt lat="43.91015116476105" lon="8.068166023571914"><ele>61.0</ele><time>2026-04-21T10:14:34Z</time></trkpt><trkpt lat="43.910387166274866" lon="8.068252361255139"><ele>67.0</ele><time>2026-04-21T10:14:35Z</time></trkpt><trkpt lat="43.91061981496283" lon="8.068336113571977"><ele>73.0</ele><time>2026-04-21T10:14:36Z</time></trkpt><trkpt lat="43.91085412241686" lon="8.068407354721623"><ele>74.0</ele><time>2026-04-21T10:14:37Z</time></trkpt><trkpt lat="43.91109083855225" lon="8.068482903524139"><ele>75.0</ele><time>2026-04-21T10:14:38Z</time></trkpt><trkpt lat="43.91132721734129" lon="8.068556250095536"><ele>75.0</ele><time>2026-04-21T10:14:39Z</time></trkpt><trkpt lat="43.91156270622933" lon="8.068630010892605"><ele>75.0</ele><time>2026-04-21T10:14:40Z</time></trkpt><trkpt lat="43.911795662778154" lon="8.068702920656904"><ele>68.5</ele><time>2026-04-21T10:14:41Z</time></trkpt><trkpt lat="43.91204538183294" lon="8.068780040849106"><ele>62.0</ele><time>2026-04-21T10:14:42.069Z</time></trkpt><trkpt lat="43.91228041177395" lon="8.06884910166661"><ele>59.0</ele><time>2026-04-21T10:14:43.065Z</time></trkpt><trkpt lat="43.912886268932326" lon="8.068884257620159"><ele>59.0</ele><time>2026-04-21T10:14:45Z</time></trkpt><trkpt lat="43.91312667670901" lon="8.068963789328585"><ele>59.0</ele><time>2026-04-21T10:14:46Z</time></trkpt><trkpt lat="43.913382266855564" lon="8.06902751840065"><ele>55.0</ele><time>2026-04-21T10:14:47Z</time></trkpt><trkpt lat="43.913633913460274" lon="8.069089262792525"><ele>51.0</ele><time>2026-04-21T10:14:48Z</time></trkpt><trkpt lat="43.913887426784264" lon="8.06914531869525"><ele>39.0</ele><time>2026-04-21T10:14:49Z</time></trkpt><trkpt lat="43.91413614965024" lon="8.06920290425379"><ele>27.0</ele><time>2026-04-21T10:14:50Z</time></trkpt><trkpt lat="43.91438424823698" lon="8.06925477284486"><ele>23.0</ele><time>2026-04-21T10:14:51Z</time></trkpt><trkpt lat="43.91463336205228" lon="8.06930732474477"><ele>19.0</ele><time>2026-04-21T10:14:52Z</time></trkpt><trkpt lat="43.914879257488224" lon="8.069360695930186"><ele>19.5</ele><time>2026-04-21T10:14:53Z</time></trkpt><trkpt lat="43.91512406897363" lon="8.069415894599219"><ele>20.0</ele><time>2026-04-21T10:14:54Z</time></trkpt><trkpt lat="43.91536647969566" lon="8.069474436993097"><ele>20.0</ele><time>2026-04-21T10:14:55Z</time></trkpt><trkpt lat="43.91560816447512" lon="8.069534097159421"><ele>20.0</ele><time>2026-04-21T10:14:56Z</time></trkpt><trkpt lat="43.915849810047455" lon="8.069591538029067"><ele>20.5</ele><time>2026-04-21T10:14:57Z</time></trkpt><trkpt lat="43.91608808892199" lon="8.06964252483447"><ele>21.0</ele><time>2026-04-21T10:14:58Z</time></trkpt><trkpt lat="43.91632652734426" lon="8.069697802842583"><ele>21.0</ele><time>2026-04-21T10:14:59Z</time></trkpt><trkpt lat="43.91656485761561" lon="8.069744032248725"><ele>21.0</ele><time>2026-04-21T10:15:00Z</time></trkpt><trkpt lat="43.91680751010007" lon="8.06979867708697"><ele>24.5</ele><time>2026-04-21T10:15:01Z</time></trkpt><trkpt lat="43.917050469119935" lon="8.06985588188408"><ele>28.0</ele><time>2026-04-21T10:15:02Z</time></trkpt><trkpt lat="43.91729303691326" lon="8.06990772726236"><ele>30.0</ele><time>2026-04-21T10:15:03Z</time></trkpt><trkpt lat="43.91753658696628" lon="8.069965601574317"><ele>32.0</ele><time>2026-04-21T10:15:04Z</time></trkpt><trkpt lat="43.91777689782401" lon="8.070016378802507"><ele>37.0</ele><time>2026-04-21T10:15:05Z</time></trkpt><trkpt lat="43.91800413128825" lon="8.070084731907803"><ele>42.0</ele><time>2026-04-21T10:15:06Z</time></trkpt><trkpt lat="43.918244228292004" lon="8.070161972086348"><ele>46.0</ele><time>2026-04-21T10:15:07Z</time></trkpt><trkpt lat="43.91848683983489" lon="8.070227471898207"><ele>50.0</ele><time>2026-04-21T10:15:08Z</time></trkpt><trkpt lat="43.91871950861501" lon="8.07029234800997"><ele>50.0</ele><time>2026-04-21T10:15:09Z</time></trkpt><trkpt lat="43.91895739807538" lon="8.070361810909077"><ele>50.0</ele><time>2026-04-21T10:15:10Z</time></trkpt><trkpt lat="43.91919999039361" lon="8.070494962207972"><ele>53.5</ele><time>2026-04-21T10:15:11.066Z</time></trkpt><trkpt lat="43.91941315486005" lon="8.070634374432437"><ele>57.0</ele><time>2026-04-21T10:15:12.06Z</time></trkpt><trkpt lat="43.92080508362758" lon="8.072141205441238"><ele>48.0</ele><time>2026-04-21T10:15:19Z</time></trkpt><trkpt lat="43.920976701497395" lon="8.072364639429562"><ele>39.0</ele><time>2026-04-21T10:15:20Z</time></trkpt><trkpt lat="43.92112035640891" lon="8.07260539170304"><ele>36.0</ele><time>2026-04-21T10:15:21Z</time></trkpt><trkpt lat="43.92124330535868" lon="8.072897416016707"><ele>33.0</ele><time>2026-04-21T10:15:22Z</time></trkpt><trkpt lat="43.92136554223666" lon="8.073181320990242"><ele>31.0</ele><time>2026-04-21T10:15:23Z</time></trkpt><trkpt lat="43.921494398052026" lon="8.073452919987833"><ele>29.0</ele><time>2026-04-21T10:15:24Z</time></trkpt><trkpt lat="43.92161979170143" lon="8.07372532153269"><ele>28.5</ele><time>2026-04-21T10:15:25Z</time></trkpt><trkpt lat="43.92173646799932" lon="8.074014230439573"><ele>28.0</ele><time>2026-04-21T10:15:26Z</time></trkpt><trkpt lat="43.921844460681896" lon="8.07429781286342"><ele>26.5</ele><time>2026-04-21T10:15:27Z</time></trkpt><trkpt lat="43.92193602311445" lon="8.07459121357557"><ele>25.0</ele><time>2026-04-21T10:15:28Z</time></trkpt><trkpt lat="43.922010809825025" lon="8.07490004110785"><ele>24.0</ele><time>2026-04-21T10:15:29Z</time></trkpt><trkpt lat="43.922078679255506" lon="8.07521313020533"><ele>23.0</ele><time>2026-04-21T10:15:30Z</time></trkpt><trkpt lat="43.92213897579191" lon="8.075525301539914"><ele>24.5</ele><time>2026-04-21T10:15:31Z</time></trkpt><trkpt lat="43.92219448667575" lon="8.075841016732243"><ele>26.0</ele><time>2026-04-21T10:15:32Z</time></trkpt><trkpt lat="43.922240356973354" lon="8.076156162096327"><ele>26.0</ele><time>2026-04-21T10:15:33Z</time></trkpt><trkpt lat="43.92227124364135" lon="8.076464876679013"><ele>26.0</ele><time>2026-04-21T10:15:34Z</time></trkpt><trkpt lat="43.92229496681371" lon="8.07677209974154"><ele>26.0</ele><time>2026-04-21T10:15:35Z</time></trkpt><trkpt lat="43.92231090386906" lon="8.077080132607565"><ele>28.333333333333332</ele><time>2026-04-21T10:15:36Z</time></trkpt><trkpt lat="43.92232298326304" lon="8.077385875423937"><ele>30.666666666666664</ele><time>2026-04-21T10:15:37Z</time></trkpt><trkpt lat="43.92233664190543" lon="8.07769825105855"><ele>33.0</ele><time>2026-04-21T10:15:38Z</time></trkpt><trkpt lat="43.92234707397066" lon="8.078012822916621"><ele>39.0</ele><time>2026-04-21T10:15:39Z</time></trkpt><trkpt lat="43.922356533451556" lon="8.078328876196581"><ele>45.0</ele><time>2026-04-21T10:15:40Z</time></trkpt><trkpt lat="43.92236618326098" lon="8.07865033786883"><ele>45.0</ele><time>2026-04-21T10:15:41Z</time></trkpt><trkpt lat="43.92237935581592" lon="8.078968194474623"><ele>45.0</ele><time>2026-04-21T10:15:42Z</time></trkpt><trkpt lat="43.922395905624384" lon="8.079296550983392"><ele>50.0</ele><time>2026-04-21T10:15:43Z</time></trkpt><trkpt lat="43.92240238112751" lon="8.079640422786369"><ele>55.0</ele><time>2026-04-21T10:15:44Z</time></trkpt><trkpt lat="43.92240426318106" lon="8.079987617885537"><ele>62.0</ele><time>2026-04-21T10:15:45Z</time></trkpt><trkpt lat="43.92240441961702" lon="8.080334104960007"><ele>69.0</ele><time>2026-04-21T10:15:46Z</time></trkpt><trkpt lat="43.922406019084484" lon="8.08068127160518"><ele>74.5</ele><time>2026-04-21T10:15:47Z</time></trkpt><trkpt lat="43.92240785658466" lon="8.081030354070672"><ele>80.0</ele><time>2026-04-21T10:15:48Z</time></trkpt><trkpt lat="43.92241292447994" lon="8.081399949257117"><ele>82.0</ele><time>2026-04-21T10:15:49.061Z</time></trkpt><trkpt lat="43.92242119528816" lon="8.081743602288071"><ele>84.0</ele><time>2026-04-21T10:15:50.061Z</time></trkpt><trkpt lat="43.922437682843736" lon="8.082088489644462"><ele>45.0</ele><time>2026-04-21T10:15:51.058Z</time></trkpt><trkpt lat="43.92264544814969" lon="8.084624666716229"><ele>40.5</ele><time>2026-04-21T10:15:59Z</time></trkpt><trkpt lat="43.92265966516035" lon="8.08494719481732"><ele>36.0</ele><time>2026-04-21T10:16:00Z</time></trkpt><trkpt lat="43.92262885458547" lon="8.085254584621337"><ele>36.0</ele><time>2026-04-21T10:16:01Z</time></trkpt><trkpt lat="43.92264541127106" lon="8.085567422278649"><ele>36.0</ele><time>2026-04-21T10:16:02Z</time></trkpt><trkpt lat="43.9226715720313" lon="8.085865156348904"><ele>36.0</ele><time>2026-04-21T10:16:03Z</time></trkpt><trkpt lat="43.922687698879905" lon="8.086168196775873"><ele>37.333333333333336</ele><time>2026-04-21T10:16:04Z</time></trkpt><trkpt lat="43.92269685989049" lon="8.086454905453985"><ele>38.66666666666667</ele><time>2026-04-21T10:16:05Z</time></trkpt><trkpt lat="43.92270934790033" lon="8.086748904729893"><ele>40.0</ele><time>2026-04-21T10:16:06Z</time></trkpt><trkpt lat="43.92271548528742" lon="8.08703968400599"><ele>44.333333333333336</ele><time>2026-04-21T10:16:07Z</time></trkpt><trkpt lat="43.92272443075917" lon="8.087326831918473"><ele>48.66666666666667</ele><time>2026-04-21T10:16:08Z</time></trkpt><trkpt lat="43.92273190657388" lon="8.087610816554228"><ele>53.0</ele><time>2026-04-21T10:16:09Z</time></trkpt><trkpt lat="43.922738955506155" lon="8.087896103983017"><ele>59.333333333333336</ele><time>2026-04-21T10:16:10Z</time></trkpt><trkpt lat="43.922748210892614" lon="8.088179095494002"><ele>65.66666666666667</ele><time>2026-04-21T10:16:11Z</time></trkpt><trkpt lat="43.92275685673578" lon="8.08846292774288"><ele>72.0</ele><time>2026-04-21T10:16:12Z</time></trkpt><trkpt lat="43.92277549694517" lon="8.088744551983904"><ele>75.66666666666667</ele><time>2026-04-21T10:16:13Z</time></trkpt><trkpt lat="43.922780200014955" lon="8.089027294662273"><ele>79.33333333333334</ele><time>2026-04-21T10:16:14Z</time></trkpt><trkpt lat="43.92279307772114" lon="8.089303647404934"><ele>83.0</ele><time>2026-04-21T10:16:15Z</time></trkpt><trkpt lat="43.92282029443577" lon="8.089578615029305"><ele>83.66666666666667</ele><time>2026-04-21T10:16:16Z</time></trkpt><trkpt lat="43.922853386960334" lon="8.089853649046482"><ele>84.33333333333333</ele><time>2026-04-21T10:16:17Z</time></trkpt><trkpt lat="43.92289467664132" lon="8.090131954058384"><ele>85.0</ele><time>2026-04-21T10:16:18Z</time></trkpt><trkpt lat="43.92294763047373" lon="8.090410503291578"><ele>85.0</ele><time>2026-04-21T10:16:19Z</time></trkpt><trkpt lat="43.92300844050659" lon="8.090698804299745"><ele>85.0</ele><time>2026-04-21T10:16:20Z</time></trkpt><trkpt lat="43.923069749188215" lon="8.090989900787152"><ele>85.0</ele><time>2026-04-21T10:16:21Z</time></trkpt><trkpt lat="43.92314453554802" lon="8.091276249521052"><ele>83.0</ele><time>2026-04-21T10:16:22.001Z</time></trkpt><trkpt lat="43.923222186921784" lon="8.091564211728512"><ele>81.0</ele><time>2026-04-21T10:16:23.001Z</time></trkpt><trkpt lat="43.92331199206981" lon="8.09185506344576"><ele>79.0</ele><time>2026-04-21T10:16:24.001Z</time></trkpt><trkpt lat="43.92341690973576" lon="8.092140502940524"><ele>86.0</ele><time>2026-04-21T10:16:25.001Z</time></trkpt><trkpt lat="43.92352871390378" lon="8.092417966541712"><ele>93.0</ele><time>2026-04-21T10:16:26.001Z</time></trkpt><trkpt lat="43.923657603623255" lon="8.092695714023026"><ele>93.0</ele><time>2026-04-21T10:16:27.001Z</time></trkpt><trkpt lat="43.92379446702979" lon="8.092961698556238"><ele>93.0</ele><time>2026-04-21T10:16:28.001Z</time></trkpt><trkpt lat="43.92393861990405" lon="8.093217716829795"><ele>85.5</ele><time>2026-04-21T10:16:29.001Z</time></trkpt><trkpt lat="43.92408795427731" lon="8.093463444232576"><ele>78.0</ele><time>2026-04-21T10:16:30.001Z</time></trkpt><trkpt lat="43.92424270169496" lon="8.093699821691093"><ele>70.0</ele><time>2026-04-21T10:16:31.001Z</time></trkpt><trkpt lat="43.924404076090624" lon="8.093930482128139"><ele>62.0</ele><time>2026-04-21T10:16:32Z</time></trkpt><trkpt lat="43.92457258569067" lon="8.09415287945819"><ele>58.0</ele><time>2026-04-21T10:16:33Z</time></trkpt><trkpt lat="43.92474590007883" lon="8.094365712357394"><ele>54.0</ele><time>2026-04-21T10:16:34Z</time></trkpt><trkpt lat="43.92492792401075" lon="8.094566856736808"><ele>59.5</ele><time>2026-04-21T10:16:35Z</time></trkpt><trkpt lat="43.92511297721041" lon="8.09476285631868"><ele>65.0</ele><time>2026-04-21T10:16:36Z</time></trkpt><trkpt lat="43.92530628712382" lon="8.094950988080154"><ele>73.5</ele><time>2026-04-21T10:16:37Z</time></trkpt><trkpt lat="43.925500414487274" lon="8.095133454498148"><ele>82.0</ele><time>2026-04-21T10:16:38Z</time></trkpt><trkpt lat="43.925697451692464" lon="8.09531492950762"><ele>88.0</ele><time>2026-04-21T10:16:39Z</time></trkpt><trkpt lat="43.92589701611918" lon="8.095504122523852"><ele>94.0</ele><time>2026-04-21T10:16:40Z</time></trkpt><trkpt lat="43.92609842916523" lon="8.095692435039945"><ele>90.5</ele><time>2026-04-21T10:16:41Z</time></trkpt><trkpt lat="43.9262999223791" lon="8.095887849145162"><ele>87.0</ele><time>2026-04-21T10:16:42Z</time></trkpt><trkpt lat="43.926506691361446" lon="8.09607912935903"><ele>87.0</ele><time>2026-04-21T10:16:43Z</time></trkpt><trkpt lat="43.9267159318372" lon="8.096268429825914"><ele>87.0</ele><time>2026-04-21T10:16:44Z</time></trkpt><trkpt lat="43.926925264441195" lon="8.09646169614629"><ele>81.5</ele><time>2026-04-21T10:16:45Z</time></trkpt><trkpt lat="43.92713141268068" lon="8.09665548189458"><ele>76.0</ele><time>2026-04-21T10:16:46Z</time></trkpt><trkpt lat="43.927341273449834" lon="8.096848797306201"><ele>76.0</ele><time>2026-04-21T10:16:47Z</time></trkpt><trkpt lat="43.927553850955064" lon="8.097043001996829"><ele>76.0</ele><time>2026-04-21T10:16:48Z</time></trkpt><trkpt lat="43.92776777360915" lon="8.097238405768719"><ele>77.0</ele><time>2026-04-21T10:16:49Z</time></trkpt><trkpt lat="43.92797703442689" lon="8.097436857853841"><ele>78.0</ele><time>2026-04-21T10:16:50Z</time></trkpt><trkpt lat="43.92818631976655" lon="8.09763551989954"><ele>78.0</ele><time>2026-04-21T10:16:51Z</time></trkpt><trkpt lat="43.928392858993625" lon="8.097833247122681"><ele>78.0</ele><time>2026-04-21T10:16:52Z</time></trkpt><trkpt lat="43.92859077943853" lon="8.09802306128454"><ele>74.0</ele><time>2026-04-21T10:16:53Z</time></trkpt><trkpt lat="43.92879013727716" lon="8.098199930006535"><ele>70.0</ele><time>2026-04-21T10:16:54Z</time></trkpt><trkpt lat="43.92899046752643" lon="8.098375898419109"><ele>70.0</ele><time>2026-04-21T10:16:55Z</time></trkpt><trkpt lat="43.929188551101085" lon="8.098558985205408"><ele>70.0</ele><time>2026-04-21T10:16:56Z</time></trkpt><trkpt lat="43.92938318221739" lon="8.098742013261889"><ele>67.0</ele><time>2026-04-21T10:16:57Z</time></trkpt><trkpt lat="43.9295795407492" lon="8.098919393029627"><ele>64.0</ele><time>2026-04-21T10:16:58Z</time></trkpt><trkpt lat="43.92977861119837" lon="8.099099309615662"><ele>55.0</ele><time>2026-04-21T10:16:59Z</time></trkpt><trkpt lat="43.92996905507073" lon="8.099293717214127"><ele>46.0</ele><time>2026-04-21T10:17:00Z</time></trkpt><trkpt lat="43.93015696857967" lon="8.099493408417667"><ele>42.0</ele><time>2026-04-21T10:17:01Z</time></trkpt><trkpt lat="43.93034557353628" lon="8.099694644325254"><ele>38.0</ele><time>2026-04-21T10:17:02Z</time></trkpt><trkpt lat="43.93052898118753" lon="8.099900322156373"><ele>35.5</ele><time>2026-04-21T10:17:03Z</time></trkpt><trkpt lat="43.93070747421079" lon="8.100111921919732"><ele>33.0</ele><time>2026-04-21T10:17:04Z</time></trkpt><trkpt lat="43.93088902577213" lon="8.100327491036833"><ele>36.0</ele><time>2026-04-21T10:17:05Z</time></trkpt><trkpt lat="43.93106899258234" lon="8.100542306251944"><ele>39.0</ele><time>2026-04-21T10:17:06Z</time></trkpt><trkpt lat="43.93124532129738" lon="8.100764506770211"><ele>48.0</ele><time>2026-04-21T10:17:07Z</time></trkpt><trkpt lat="43.93142241011763" lon="8.100991344304065"><ele>57.0</ele><time>2026-04-21T10:17:08Z</time></trkpt><trkpt lat="43.93159801115065" lon="8.10121507779142"><ele>64.0</ele><time>2026-04-21T10:17:09Z</time></trkpt><trkpt lat="43.93177326297929" lon="8.101441842333763"><ele>71.0</ele><time>2026-04-21T10:17:10Z</time></trkpt><trkpt lat="43.93195005796967" lon="8.101664680466838"><ele>73.0</ele><time>2026-04-21T10:17:11Z</time></trkpt><trkpt lat="43.93212890944077" lon="8.101885700924239"><ele>75.0</ele><time>2026-04-21T10:17:12Z</time></trkpt><trkpt lat="43.93231102207311" lon="8.102103267820626"><ele>75.0</ele><time>2026-04-21T10:17:13Z</time></trkpt><trkpt lat="43.932492283890696" lon="8.102321218672234"><ele>75.0</ele><time>2026-04-21T10:17:14Z</time></trkpt><trkpt lat="43.93267428736089" lon="8.102536109283955"><ele>70.5</ele><time>2026-04-21T10:17:15Z</time></trkpt><trkpt lat="43.9328515267067" lon="8.102753789226831"><ele>66.0</ele><time>2026-04-21T10:17:16Z</time></trkpt><trkpt lat="43.93302607539629" lon="8.102968744086182"><ele>66.0</ele><time>2026-04-21T10:17:17Z</time></trkpt><trkpt lat="43.933200841540604" lon="8.103182080979519"><ele>66.0</ele><time>2026-04-21T10:17:18Z</time></trkpt><trkpt lat="43.93337355305295" lon="8.103396799001374"><ele>55.0</ele><time>2026-04-21T10:17:19Z</time></trkpt><trkpt lat="43.933547701636286" lon="8.103612872367131"><ele>44.0</ele><time>2026-04-21T10:17:20Z</time></trkpt><trkpt lat="43.93372039172175" lon="8.103826398318946"><ele>44.0</ele><time>2026-04-21T10:17:21Z</time></trkpt><trkpt lat="43.93389388493079" lon="8.104039157865804"><ele>44.0</ele><time>2026-04-21T10:17:22Z</time></trkpt><trkpt lat="43.93406629862256" lon="8.10424848679792"><ele>36.5</ele><time>2026-04-21T10:17:23Z</time></trkpt><trkpt lat="43.93423768035041" lon="8.104456839324818"><ele>29.0</ele><time>2026-04-21T10:17:24Z</time></trkpt><trkpt lat="43.93441098843861" lon="8.104666058570588"><ele>29.0</ele><time>2026-04-21T10:17:25Z</time></trkpt><trkpt lat="43.934585786195186" lon="8.104872674351189"><ele>29.0</ele><time>2026-04-21T10:17:26Z</time></trkpt><trkpt lat="43.93475914721093" lon="8.1050810873585"><ele>31.0</ele><time>2026-04-21T10:17:27Z</time></trkpt><trkpt lat="43.934933202437215" lon="8.105289419335723"><ele>33.0</ele><time>2026-04-21T10:17:28Z</time></trkpt><trkpt lat="43.93510692192561" lon="8.105498666264705"><ele>33.0</ele><time>2026-04-21T10:17:29Z</time></trkpt><trkpt lat="43.9352816011918" lon="8.105706185091073"><ele>33.0</ele><time>2026-04-21T10:17:30Z</time></trkpt><trkpt lat="43.93545782143436" lon="8.105908871690163"><ele>45.0</ele><time>2026-04-21T10:17:31Z</time></trkpt><trkpt lat="43.93563480065789" lon="8.106106220668268"><ele>57.0</ele><time>2026-04-21T10:17:32Z</time></trkpt><trkpt lat="43.93581418051981" lon="8.10629594786595"><ele>57.66666666666667</ele><time>2026-04-21T10:17:33Z</time></trkpt><trkpt lat="43.9359950098378" lon="8.106476479567487"><ele>58.333333333333336</ele><time>2026-04-21T10:17:34Z</time></trkpt><trkpt lat="43.936178975528755" lon="8.106653140402342"><ele>59.0</ele><time>2026-04-21T10:17:35Z</time></trkpt><trkpt lat="43.93636957974719" lon="8.106822159478572"><ele>63.5</ele><time>2026-04-21T10:17:36Z</time></trkpt><trkpt lat="43.9365670483142" lon="8.106985646776325"><ele>68.0</ele><time>2026-04-21T10:17:37Z</time></trkpt><trkpt lat="43.93677200039757" lon="8.107140545874234"><ele>68.0</ele><time>2026-04-21T10:17:38Z</time></trkpt><trkpt lat="43.93697917817481" lon="8.10729238430876"><ele>68.0</ele><time>2026-04-21T10:17:39Z</time></trkpt><trkpt lat="43.93719165908987" lon="8.107437363597635"><ele>74.5</ele><time>2026-04-21T10:17:40Z</time></trkpt><trkpt lat="43.937405823344726" lon="8.10757483984956"><ele>81.0</ele><time>2026-04-21T10:17:41Z</time></trkpt><trkpt lat="43.937620744592415" lon="8.107705385247467"><ele>81.0</ele><time>2026-04-21T10:17:42Z</time></trkpt><trkpt lat="43.93783510357653" lon="8.107832027125804"><ele>81.0</ele><time>2026-04-21T10:17:43Z</time></trkpt><trkpt lat="43.938050762304506" lon="8.107958549028439"><ele>81.0</ele><time>2026-04-21T10:17:44Z</time></trkpt><trkpt lat="43.938265123829694" lon="8.108080538391526"><ele>81.0</ele><time>2026-04-21T10:17:45Z</time></trkpt><trkpt lat="43.938481304160206" lon="8.108202260218311"><ele>85.5</ele><time>2026-04-21T10:17:46Z</time></trkpt><trkpt lat="43.93869653822451" lon="8.108323190747548"><ele>90.0</ele><time>2026-04-21T10:17:47Z</time></trkpt><trkpt lat="43.938910309683614" lon="8.108446077190745"><ele>90.0</ele><time>2026-04-21T10:17:48Z</time></trkpt><trkpt lat="43.93912356591778" lon="8.108570448396216"><ele>90.0</ele><time>2026-04-21T10:17:49Z</time></trkpt><trkpt lat="43.93933433145243" lon="8.108690696237163"><ele>85.0</ele><time>2026-04-21T10:17:50Z</time></trkpt><trkpt lat="43.93954312940461" lon="8.108811901784742"><ele>80.0</ele><time>2026-04-21T10:17:51Z</time></trkpt><trkpt lat="43.93974738266402" lon="8.108939333690412"><ele>86.0</ele><time>2026-04-21T10:17:52Z</time></trkpt><trkpt lat="43.939948025199314" lon="8.109076590189611"><ele>92.0</ele><time>2026-04-21T10:17:53Z</time></trkpt><trkpt lat="43.94014615330539" lon="8.109218958832427"><ele>98.0</ele><time>2026-04-21T10:17:54Z</time></trkpt><trkpt lat="43.940340246620686" lon="8.109372511009257"><ele>98.0</ele><time>2026-04-21T10:17:55Z</time></trkpt><trkpt lat="43.94053070683155" lon="8.109534614917706"><ele>98.0</ele><time>2026-04-21T10:17:56Z</time></trkpt><trkpt lat="43.94071880830138" lon="8.109702979021845"><ele>98.0</ele><time>2026-04-21T10:17:57Z</time></trkpt><trkpt lat="43.9409048657802" lon="8.109875080219526"><ele>98.0</ele><time>2026-04-21T10:17:58Z</time></trkpt><trkpt lat="43.941088216175025" lon="8.110051454548735"><ele>98.0</ele><time>2026-04-21T10:17:59Z</time></trkpt><trkpt lat="43.941265310622946" lon="8.11023507377602"><ele>98.0</ele><time>2026-04-21T10:18:00Z</time></trkpt><trkpt lat="43.94143949679877" lon="8.110430489943514"><ele>98.0</ele><time>2026-04-21T10:18:01Z</time></trkpt><trkpt lat="43.94160834567392" lon="8.110631031131692"><ele>98.0</ele><time>2026-04-21T10:18:02Z</time></trkpt><trkpt lat="43.941773032883745" lon="8.110837229689505"><ele>98.0</ele><time>2026-04-21T10:18:03Z</time></trkpt><trkpt lat="43.94193117894936" lon="8.11105059756806"><ele>97.66666666666666</ele><time>2026-04-21T10:18:04Z</time></trkpt><trkpt lat="43.94208872582091" lon="8.111271698469302"><ele>97.33333333333334</ele><time>2026-04-21T10:18:05Z</time></trkpt><trkpt lat="43.94224341495551" lon="8.111495612660416"><ele>97.0</ele><time>2026-04-21T10:18:06Z</time></trkpt><trkpt lat="43.942394110658704" lon="8.111723255136463"><ele>98.0</ele><time>2026-04-21T10:18:07Z</time></trkpt><trkpt lat="43.94253663609256" lon="8.1119598558645"><ele>99.0</ele><time>2026-04-21T10:18:08Z</time></trkpt><trkpt lat="43.94267318056336" lon="8.112205590448323"><ele>100.0</ele><time>2026-04-21T10:18:09Z</time></trkpt><trkpt lat="43.94280651046805" lon="8.112455366244356"><ele>103.66666666666667</ele><time>2026-04-21T10:18:10Z</time></trkpt><trkpt lat="43.94293579573955" lon="8.112708394998808"><ele>107.33333333333334</ele><time>2026-04-21T10:18:11Z</time></trkpt><trkpt lat="43.94305926640296" lon="8.112967819039914"><ele>111.0</ele><time>2026-04-21T10:18:12Z</time></trkpt><trkpt lat="43.9431793987212" lon="8.113232026459626"><ele>115.0</ele><time>2026-04-21T10:18:13Z</time></trkpt><trkpt lat="43.943298894911145" lon="8.113498678203788"><ele>119.0</ele><time>2026-04-21T10:18:14Z</time></trkpt><trkpt lat="43.94341171573415" lon="8.113770441636387"><ele>121.0</ele><time>2026-04-21T10:18:15Z</time></trkpt><trkpt lat="43.94352176042898" lon="8.11405059357435"><ele>123.0</ele><time>2026-04-21T10:18:16Z</time></trkpt><trkpt lat="43.94363008891903" lon="8.114336212691875"><ele>126.5</ele><time>2026-04-21T10:18:17Z</time></trkpt><trkpt lat="43.943738781734574" lon="8.114623077163998"><ele>130.0</ele><time>2026-04-21T10:18:18Z</time></trkpt><trkpt lat="43.94385271925574" lon="8.11491572785215"><ele>137.5</ele><time>2026-04-21T10:18:19Z</time></trkpt><trkpt lat="43.94396827021757" lon="8.115219315505083"><ele>145.0</ele><time>2026-04-21T10:18:20Z</time></trkpt><trkpt lat="43.94408082490942" lon="8.115529462054905"><ele>152.5</ele><time>2026-04-21T10:18:21Z</time></trkpt><trkpt lat="43.94419406625218" lon="8.115847481236427"><ele>160.0</ele><time>2026-04-21T10:18:22Z</time></trkpt><trkpt lat="43.94431111580469" lon="8.116170091349172"><ele>160.0</ele><time>2026-04-21T10:18:23Z</time></trkpt><trkpt lat="43.94444082524912" lon="8.11651827613831"><ele>160.0</ele><time>2026-04-21T10:18:24.071Z</time></trkpt><trkpt lat="43.944563274305274" lon="8.116842463868718"><ele>98.0</ele><time>2026-04-21T10:18:25.063Z</time></trkpt><trkpt lat="43.95126759653093" lon="8.133014087188702"><ele>98.0</ele><time>2026-04-21T10:19:18.001Z</time></trkpt><trkpt lat="43.95146722005146" lon="8.133196130769125"><ele>98.0</ele><time>2026-04-21T10:19:19.001Z</time></trkpt><trkpt lat="43.95165997404655" lon="8.133377569763223"><ele>93.5</ele><time>2026-04-21T10:19:20.001Z</time></trkpt><trkpt lat="43.95187804637476" lon="8.133579966053611"><ele>89.0</ele><time>2026-04-21T10:19:21.001Z</time></trkpt><trkpt lat="43.9520935893947" lon="8.13374838546607"><ele>89.0</ele><time>2026-04-21T10:19:22.001Z</time></trkpt><trkpt lat="43.9523120237936" lon="8.133909192038296"><ele>89.0</ele><time>2026-04-21T10:19:23Z</time></trkpt><trkpt lat="43.95253684760469" lon="8.13405775186442"><ele>87.5</ele><time>2026-04-21T10:19:24Z</time></trkpt><trkpt lat="43.952761603274894" lon="8.13419195647438"><ele>86.0</ele><time>2026-04-21T10:19:25Z</time></trkpt><trkpt lat="43.952988175247654" lon="8.13431999253467"><ele>86.0</ele><time>2026-04-21T10:19:26Z</time></trkpt><trkpt lat="43.95321970373272" lon="8.134432979489832"><ele>86.0</ele><time>2026-04-21T10:19:27Z</time></trkpt><trkpt lat="43.95345620595878" lon="8.13453430145681"><ele>98.0</ele><time>2026-04-21T10:19:28Z</time></trkpt><trkpt lat="43.95369372664722" lon="8.134622126966248"><ele>110.0</ele><time>2026-04-21T10:19:29Z</time></trkpt><trkpt lat="43.95393256969493" lon="8.134698133365257"><ele>110.0</ele><time>2026-04-21T10:19:30Z</time></trkpt><trkpt lat="43.95417445456621" lon="8.13477006593098"><ele>110.0</ele><time>2026-04-21T10:19:31Z</time></trkpt><trkpt lat="43.954416272521726" lon="8.134822177186837"><ele>110.5</ele><time>2026-04-21T10:19:32Z</time></trkpt><trkpt lat="43.95465933635948" lon="8.134861857324315"><ele>111.0</ele><time>2026-04-21T10:19:33Z</time></trkpt><trkpt lat="43.95490449416529" lon="8.134893050341939"><ele>97.0</ele><time>2026-04-21T10:19:34Z</time></trkpt><trkpt lat="43.95515052489392" lon="8.134908934379881"><ele>83.0</ele><time>2026-04-21T10:19:35Z</time></trkpt><trkpt lat="43.955394970971525" lon="8.13491348565177"><ele>83.0</ele><time>2026-04-21T10:19:36Z</time></trkpt><trkpt lat="43.95563957802427" lon="8.134906059464344"><ele>83.0</ele><time>2026-04-21T10:19:37Z</time></trkpt><trkpt lat="43.95588471796361" lon="8.134886705801891"><ele>89.0</ele><time>2026-04-21T10:19:38Z</time></trkpt><trkpt lat="43.95612917081715" lon="8.134851080081134"><ele>95.0</ele><time>2026-04-21T10:19:39Z</time></trkpt><trkpt lat="43.95637199235723" lon="8.134813542801226"><ele>95.0</ele><time>2026-04-21T10:19:40Z</time></trkpt><trkpt lat="43.95661581441569" lon="8.134780870247354"><ele>95.0</ele><time>2026-04-21T10:19:41Z</time></trkpt><trkpt lat="43.956858882482535" lon="8.134754263381918"><ele>89.5</ele><time>2026-04-21T10:19:42Z</time></trkpt><trkpt lat="43.957101391714275" lon="8.134730411940373"><ele>84.0</ele><time>2026-04-21T10:19:43Z</time></trkpt><trkpt lat="43.95733712494929" lon="8.134706203278473"><ele>80.5</ele><time>2026-04-21T10:19:44Z</time></trkpt><trkpt lat="43.957570034514774" lon="8.134684000728555"><ele>77.0</ele><time>2026-04-21T10:19:45Z</time></trkpt><trkpt lat="43.95780586202689" lon="8.134667411177915"><ele>77.0</ele><time>2026-04-21T10:19:46Z</time></trkpt><trkpt lat="43.958047724785345" lon="8.134666953732284"><ele>77.0</ele><time>2026-04-21T10:19:47Z</time></trkpt><trkpt lat="43.958286013051726" lon="8.134682268171208"><ele>77.5</ele><time>2026-04-21T10:19:48Z</time></trkpt><trkpt lat="43.95852559889983" lon="8.134720319776399"><ele>78.0</ele><time>2026-04-21T10:19:49Z</time></trkpt><trkpt lat="43.95876760834786" lon="8.134773211165992"><ele>78.0</ele><time>2026-04-21T10:19:50Z</time></trkpt><trkpt lat="43.95901109270974" lon="8.134837484808088"><ele>78.0</ele><time>2026-04-21T10:19:51Z</time></trkpt><trkpt lat="43.95925337858634" lon="8.134919862793875"><ele>72.5</ele><time>2026-04-21T10:19:52Z</time></trkpt><trkpt lat="43.95949469468098" lon="8.135013100804743"><ele>67.0</ele><time>2026-04-21T10:19:53Z</time></trkpt><trkpt lat="43.959732048403644" lon="8.135123122932065"><ele>67.0</ele><time>2026-04-21T10:19:54Z</time></trkpt><trkpt lat="43.95996822345791" lon="8.13525220137683"><ele>67.0</ele><time>2026-04-21T10:19:55Z</time></trkpt><trkpt lat="43.96019947439546" lon="8.135394989364919"><ele>65.5</ele><time>2026-04-21T10:19:56Z</time></trkpt><trkpt lat="43.960424263336634" lon="8.135554420825349"><ele>64.0</ele><time>2026-04-21T10:19:57Z</time></trkpt><trkpt lat="43.96064344440067" lon="8.135729417853469"><ele>58.0</ele><time>2026-04-21T10:19:58Z</time></trkpt><trkpt lat="43.96085872091878" lon="8.135913208685292"><ele>52.0</ele><time>2026-04-21T10:19:59Z</time></trkpt><trkpt lat="43.96106652205455" lon="8.136111084755369"><ele>39.5</ele><time>2026-04-21T10:20:00Z</time></trkpt><trkpt lat="43.96126643108878" lon="8.136325161981246"><ele>27.0</ele><time>2026-04-21T10:20:01Z</time></trkpt><trkpt lat="43.961456252289516" lon="8.136552785671787"><ele>24.5</ele><time>2026-04-21T10:20:02Z</time></trkpt><trkpt lat="43.96164073451544" lon="8.13679116275525"><ele>22.0</ele><time>2026-04-21T10:20:03Z</time></trkpt><trkpt lat="43.96181924441542" lon="8.137039178134366"><ele>16.5</ele><time>2026-04-21T10:20:04Z</time></trkpt><trkpt lat="43.961993190541335" lon="8.137292381579897"><ele>11.0</ele><time>2026-04-21T10:20:05Z</time></trkpt><trkpt lat="43.96216451690197" lon="8.137551616812432"><ele>10.5</ele><time>2026-04-21T10:20:06Z</time></trkpt><trkpt lat="43.96233260103132" lon="8.137814486082307"><ele>10.0</ele><time>2026-04-21T10:20:07Z</time></trkpt><trkpt lat="43.96250120671031" lon="8.138078242947152"><ele>9.0</ele><time>2026-04-21T10:20:08Z</time></trkpt><trkpt lat="43.9626689641664" lon="8.138340788108039"><ele>8.0</ele><time>2026-04-21T10:20:09Z</time></trkpt><trkpt lat="43.962837132248566" lon="8.13860435320174"><ele>8.0</ele><time>2026-04-21T10:20:10Z</time></trkpt><trkpt lat="43.963008047136036" lon="8.138867536828718"><ele>8.0</ele><time>2026-04-21T10:20:11Z</time></trkpt><trkpt lat="43.963175060944" lon="8.13912412976884"><ele>9.0</ele><time>2026-04-21T10:20:12Z</time></trkpt><trkpt lat="43.96334134076759" lon="8.139382772678626"><ele>10.0</ele><time>2026-04-21T10:20:13Z</time></trkpt><trkpt lat="43.96350626253478" lon="8.139644815092094"><ele>11.0</ele><time>2026-04-21T10:20:14Z</time></trkpt><trkpt lat="43.963672586778415" lon="8.139903793703878"><ele>12.0</ele><time>2026-04-21T10:20:15Z</time></trkpt><trkpt lat="43.9638401725159" lon="8.14016017929765"><ele>12.0</ele><time>2026-04-21T10:20:16Z</time></trkpt><trkpt lat="43.9640089261139" lon="8.140419950373367"><ele>12.0</ele><time>2026-04-21T10:20:17Z</time></trkpt><trkpt lat="43.96417404789999" lon="8.140681837314581"><ele>11.5</ele><time>2026-04-21T10:20:18Z</time></trkpt><trkpt lat="43.964339392430105" lon="8.140943700727847"><ele>11.0</ele><time>2026-04-21T10:20:19Z</time></trkpt><trkpt lat="43.96450611835364" lon="8.14120616742286"><ele>11.0</ele><time>2026-04-21T10:20:20Z</time></trkpt><trkpt lat="43.964677735339045" lon="8.141468004146931"><ele>11.0</ele><time>2026-04-21T10:20:21Z</time></trkpt><trkpt lat="43.964857106810044" lon="8.141715794098475"><ele>13.0</ele><time>2026-04-21T10:20:22Z</time></trkpt><trkpt lat="43.965045996372325" lon="8.141951006975411"><ele>15.0</ele><time>2026-04-21T10:20:23Z</time></trkpt><trkpt lat="43.96524183742851" lon="8.142173313554084"><ele>20.5</ele><time>2026-04-21T10:20:24Z</time></trkpt><trkpt lat="43.965445414001906" lon="8.142387125431119"><ele>26.0</ele><time>2026-04-21T10:20:25Z</time></trkpt><trkpt lat="43.96565573662791" lon="8.142592156034102"><ele>23.5</ele><time>2026-04-21T10:20:26Z</time></trkpt><trkpt lat="43.96587201749417" lon="8.142784417712535"><ele>21.0</ele><time>2026-04-21T10:20:27Z</time></trkpt><trkpt lat="43.9660909127248" lon="8.142966523766033"><ele>21.0</ele><time>2026-04-21T10:20:28Z</time></trkpt><trkpt lat="43.96631700868739" lon="8.143134768137893"><ele>21.0</ele><time>2026-04-21T10:20:29Z</time></trkpt><trkpt lat="43.96655046898084" lon="8.14329426198317"><ele>24.5</ele><time>2026-04-21T10:20:30Z</time></trkpt><trkpt lat="43.96679005160275" lon="8.14344006114015"><ele>28.0</ele><time>2026-04-21T10:20:31Z</time></trkpt><trkpt lat="43.96703579305064" lon="8.143571396620278"><ele>28.0</ele><time>2026-04-21T10:20:32Z</time></trkpt><trkpt lat="43.9672862736262" lon="8.143684992401921"><ele>28.0</ele><time>2026-04-21T10:20:33Z</time></trkpt><trkpt lat="43.967540810433995" lon="8.143787602237326"><ele>31.0</ele><time>2026-04-21T10:20:34Z</time></trkpt><trkpt lat="43.96779477516792" lon="8.143877970047185"><ele>34.0</ele><time>2026-04-21T10:20:35Z</time></trkpt><trkpt lat="43.9680503195035" lon="8.143952191813701"><ele>34.0</ele><time>2026-04-21T10:20:36Z</time></trkpt><trkpt lat="43.96830970266931" lon="8.14401243927971"><ele>34.0</ele><time>2026-04-21T10:20:37Z</time></trkpt><trkpt lat="43.96857057066231" lon="8.144057016783185"><ele>43.0</ele><time>2026-04-21T10:20:38Z</time></trkpt><trkpt lat="43.96883192424632" lon="8.144083910614581"><ele>52.0</ele><time>2026-04-21T10:20:39Z</time></trkpt><trkpt lat="43.969091441646114" lon="8.144093277340517"><ele>52.5</ele><time>2026-04-21T10:20:40Z</time></trkpt><trkpt lat="43.96935148397484" lon="8.144088847173535"><ele>53.0</ele><time>2026-04-21T10:20:41Z</time></trkpt><trkpt lat="43.969608338448516" lon="8.144070764715583"><ele>47.5</ele><time>2026-04-21T10:20:42Z</time></trkpt><trkpt lat="43.96986279226705" lon="8.144038870876624"><ele>42.0</ele><time>2026-04-21T10:20:43Z</time></trkpt><trkpt lat="43.97011326036083" lon="8.143993952557251"><ele>42.0</ele><time>2026-04-21T10:20:44Z</time></trkpt><trkpt lat="43.97036321192241" lon="8.143940120548768"><ele>42.0</ele><time>2026-04-21T10:20:45Z</time></trkpt><trkpt lat="43.97060969532399" lon="8.143874898952449"><ele>42.0</ele><time>2026-04-21T10:20:46Z</time></trkpt><trkpt lat="43.97085302144958" lon="8.143787087445546"><ele>42.0</ele><time>2026-04-21T10:20:47Z</time></trkpt><trkpt lat="43.97109454285694" lon="8.14368581716663"><ele>45.5</ele><time>2026-04-21T10:20:48Z</time></trkpt><trkpt lat="43.97133404842026" lon="8.143571808171025"><ele>49.0</ele><time>2026-04-21T10:20:49Z</time></trkpt><trkpt lat="43.97156762915271" lon="8.14344610549569"><ele>48.5</ele><time>2026-04-21T10:20:50Z</time></trkpt><trkpt lat="43.97179866096798" lon="8.143314748005073"><ele>48.0</ele><time>2026-04-21T10:20:51Z</time></trkpt><trkpt lat="43.97202490870563" lon="8.143169320904285"><ele>48.0</ele><time>2026-04-21T10:20:52Z</time></trkpt><trkpt lat="43.972246818359345" lon="8.143018669434507"><ele>48.0</ele><time>2026-04-21T10:20:53Z</time></trkpt><trkpt lat="43.97246718450879" lon="8.142869300072896"><ele>56.5</ele><time>2026-04-21T10:20:54Z</time></trkpt><trkpt lat="43.97268671434235" lon="8.142719608180002"><ele>65.0</ele><time>2026-04-21T10:20:55Z</time></trkpt><trkpt lat="43.97290337329028" lon="8.142570373519465"><ele>65.0</ele><time>2026-04-21T10:20:56Z</time></trkpt><trkpt lat="43.97312273578643" lon="8.142426475942344"><ele>65.0</ele><time>2026-04-21T10:20:57Z</time></trkpt><trkpt lat="43.973345933866746" lon="8.142286095981037"><ele>64.5</ele><time>2026-04-21T10:20:58Z</time></trkpt><trkpt lat="43.973566986648954" lon="8.142145831149467"><ele>64.0</ele><time>2026-04-21T10:20:59Z</time></trkpt><trkpt lat="43.97379029842746" lon="8.142005619353538"><ele>64.0</ele><time>2026-04-21T10:21:00Z</time></trkpt><trkpt lat="43.9740156944953" lon="8.14186709157005"><ele>64.0</ele><time>2026-04-21T10:21:01Z</time></trkpt><trkpt lat="43.97423953846966" lon="8.141734727665703"><ele>66.0</ele><time>2026-04-21T10:21:02Z</time></trkpt><trkpt lat="43.97446768629806" lon="8.141607934642927"><ele>68.0</ele><time>2026-04-21T10:21:03Z</time></trkpt><trkpt lat="43.974697741992266" lon="8.141490064267902"><ele>65.0</ele><time>2026-04-21T10:21:04Z</time></trkpt><trkpt lat="43.97492822968963" lon="8.141381746475885"><ele>62.0</ele><time>2026-04-21T10:21:05Z</time></trkpt><trkpt lat="43.97516385596994" lon="8.141278907847155"><ele>62.0</ele><time>2026-04-21T10:21:06Z</time></trkpt><trkpt lat="43.975402395093674" lon="8.141173943101055"><ele>62.0</ele><time>2026-04-21T10:21:07Z</time></trkpt><trkpt lat="43.97564401869031" lon="8.14107383353193"><ele>66.0</ele><time>2026-04-21T10:21:08Z</time></trkpt><trkpt lat="43.97588749491161" lon="8.140984519614632"><ele>70.0</ele><time>2026-04-21T10:21:09Z</time></trkpt><trkpt lat="43.97613241808849" lon="8.140906607714909"><ele>70.0</ele><time>2026-04-21T10:21:10Z</time></trkpt><trkpt lat="43.97637905197365" lon="8.140832755495877"><ele>70.0</ele><time>2026-04-21T10:21:11Z</time></trkpt><trkpt lat="43.97662712526227" lon="8.140762025068094"><ele>82.5</ele><time>2026-04-21T10:21:12Z</time></trkpt><trkpt lat="43.976876039401766" lon="8.140692014199029"><ele>95.0</ele><time>2026-04-21T10:21:13Z</time></trkpt><trkpt lat="43.977126347212796" lon="8.140625482513448"><ele>95.0</ele><time>2026-04-21T10:21:14Z</time></trkpt><trkpt lat="43.97737554697052" lon="8.14056194058181"><ele>95.0</ele><time>2026-04-21T10:21:15Z</time></trkpt><trkpt lat="43.97762321528479" lon="8.140495768080381"><ele>102.0</ele><time>2026-04-21T10:21:16Z</time></trkpt><trkpt lat="43.977877575597" lon="8.140426154159215"><ele>109.0</ele><time>2026-04-21T10:21:17Z</time></trkpt><trkpt lat="43.9781312308452" lon="8.14035540403288"><ele>104.5</ele><time>2026-04-21T10:21:18Z</time></trkpt><trkpt lat="43.97838534139127" lon="8.14027402519057"><ele>100.0</ele><time>2026-04-21T10:21:19Z</time></trkpt><trkpt lat="43.97863881129907" lon="8.140180910977035"><ele>100.0</ele><time>2026-04-21T10:21:20Z</time></trkpt><trkpt lat="43.978890364215765" lon="8.140079568188403"><ele>100.0</ele><time>2026-04-21T10:21:21Z</time></trkpt><trkpt lat="43.979141779619546" lon="8.139970046925955"><ele>90.5</ele><time>2026-04-21T10:21:22Z</time></trkpt><trkpt lat="43.979377920094414" lon="8.139807744737942"><ele>81.0</ele><time>2026-04-21T10:21:23Z</time></trkpt><trkpt lat="43.97961418335497" lon="8.139659115065626"><ele>81.0</ele><time>2026-04-21T10:21:24Z</time></trkpt><trkpt lat="43.97979856592939" lon="8.139514524393393"><ele>81.0</ele><time>2026-04-21T10:21:25Z</time></trkpt><trkpt lat="43.98001188342056" lon="8.139350334374502"><ele>78.0</ele><time>2026-04-21T10:21:26Z</time></trkpt><trkpt lat="43.98022496477915" lon="8.13916806491204"><ele>75.0</ele><time>2026-04-21T10:21:27Z</time></trkpt><trkpt lat="43.98043431809211" lon="8.138983839407304"><ele>75.0</ele><time>2026-04-21T10:21:28Z</time></trkpt><trkpt lat="43.980643616784306" lon="8.138799218855056"><ele>75.0</ele><time>2026-04-21T10:21:29Z</time></trkpt><trkpt lat="43.980851101161704" lon="8.138620180187468"><ele>81.5</ele><time>2026-04-21T10:21:30Z</time></trkpt><trkpt lat="43.98105775475013" lon="8.13844122946284"><ele>88.0</ele><time>2026-04-21T10:21:31Z</time></trkpt><trkpt lat="43.9812648992851" lon="8.138263284672988"><ele>84.5</ele><time>2026-04-21T10:21:32Z</time></trkpt><trkpt lat="43.98147455022554" lon="8.138085708300009"><ele>81.0</ele><time>2026-04-21T10:21:33Z</time></trkpt><trkpt lat="43.981684657240095" lon="8.137907149194161"><ele>81.0</ele><time>2026-04-21T10:21:34Z</time></trkpt><trkpt lat="43.981894645948366" lon="8.137725756461624"><ele>81.0</ele><time>2026-04-21T10:21:35Z</time></trkpt><trkpt lat="43.982105936902926" lon="8.137547832854613"><ele>80.0</ele><time>2026-04-21T10:21:36Z</time></trkpt><trkpt lat="43.98232085464299" lon="8.137381855091906"><ele>79.0</ele><time>2026-04-21T10:21:37Z</time></trkpt><trkpt lat="43.982539056799546" lon="8.137224101397763"><ele>91.5</ele><time>2026-04-21T10:21:38Z</time></trkpt><trkpt lat="43.982761390914355" lon="8.137082965184176"><ele>104.0</ele><time>2026-04-21T10:21:39Z</time></trkpt><trkpt lat="43.98299162164762" lon="8.13695467277435"><ele>104.0</ele><time>2026-04-21T10:21:40Z</time></trkpt><trkpt lat="43.98322775473392" lon="8.136838707248472"><ele>104.0</ele><time>2026-04-21T10:21:41Z</time></trkpt><trkpt lat="43.98346350263017" lon="8.13673794223167"><ele>107.0</ele><time>2026-04-21T10:21:42Z</time></trkpt><trkpt lat="43.983705830069056" lon="8.136647893070194"><ele>110.0</ele><time>2026-04-21T10:21:43Z</time></trkpt><trkpt lat="43.98394961160052" lon="8.136575872140988"><ele>95.5</ele><time>2026-04-21T10:21:44Z</time></trkpt><trkpt lat="43.98419450084331" lon="8.136521035762158"><ele>81.0</ele><time>2026-04-21T10:21:45Z</time></trkpt><trkpt lat="43.98444052316863" lon="8.136482022025909"><ele>81.0</ele><time>2026-04-21T10:21:46Z</time></trkpt><trkpt lat="43.98468677285614" lon="8.136461610816504"><ele>81.0</ele><time>2026-04-21T10:21:47Z</time></trkpt><trkpt lat="43.9849335077967" lon="8.13645653391936"><ele>72.5</ele><time>2026-04-21T10:21:48Z</time></trkpt><trkpt lat="43.98517953770816" lon="8.136465034289841"><ele>64.0</ele><time>2026-04-21T10:21:49Z</time></trkpt><trkpt lat="43.985426300798395" lon="8.136481128558193"><ele>64.0</ele><time>2026-04-21T10:21:50Z</time></trkpt><trkpt lat="43.98566920527452" lon="8.136505687186594"><ele>64.0</ele><time>2026-04-21T10:21:51Z</time></trkpt><trkpt lat="43.985910112979205" lon="8.136530262775867"><ele>65.0</ele><time>2026-04-21T10:21:52Z</time></trkpt><trkpt lat="43.98615189373501" lon="8.1365568628957"><ele>66.0</ele><time>2026-04-21T10:21:53Z</time></trkpt><trkpt lat="43.98639481671787" lon="8.136584790880773"><ele>66.0</ele><time>2026-04-21T10:21:54Z</time></trkpt><trkpt lat="43.98663946953266" lon="8.136615359323892"><ele>66.0</ele><time>2026-04-21T10:21:55Z</time></trkpt><trkpt lat="43.98688534158295" lon="8.136646916620236"><ele>72.0</ele><time>2026-04-21T10:21:56Z</time></trkpt><trkpt lat="43.98712888059526" lon="8.136679112611217"><ele>78.0</ele><time>2026-04-21T10:21:57Z</time></trkpt><trkpt lat="43.98737327322309" lon="8.136711865522903"><ele>95.5</ele><time>2026-04-21T10:21:58Z</time></trkpt><trkpt lat="43.98761654945439" lon="8.136741866185524"><ele>113.0</ele><time>2026-04-21T10:21:59Z</time></trkpt><trkpt lat="43.98786097773935" lon="8.136774600886534"><ele>113.0</ele><time>2026-04-21T10:22:00Z</time></trkpt><trkpt lat="43.98810697460477" lon="8.13680902408171"><ele>113.0</ele><time>2026-04-21T10:22:01Z</time></trkpt><trkpt lat="43.98835438874595" lon="8.1368425682417"><ele>120.5</ele><time>2026-04-21T10:22:02Z</time></trkpt><trkpt lat="43.98859975067161" lon="8.136874895447848"><ele>128.0</ele><time>2026-04-21T10:22:03Z</time></trkpt><trkpt lat="43.988841059647534" lon="8.136905957807347"><ele>128.0</ele><time>2026-04-21T10:22:04Z</time></trkpt><trkpt lat="43.98908504363301" lon="8.13693911959296"><ele>128.0</ele><time>2026-04-21T10:22:05Z</time></trkpt><trkpt lat="43.98933050102066" lon="8.136972702614669"><ele>125.0</ele><time>2026-04-21T10:22:06Z</time></trkpt><trkpt lat="43.989576073955874" lon="8.137004449747163"><ele>122.0</ele><time>2026-04-21T10:22:07Z</time></trkpt><trkpt lat="43.9898206753676" lon="8.137030180739952"><ele>116.5</ele><time>2026-04-21T10:22:08Z</time></trkpt><trkpt lat="43.99006451952397" lon="8.13705534278411"><ele>111.0</ele><time>2026-04-21T10:22:09Z</time></trkpt><trkpt lat="43.99031101468693" lon="8.137072214030717"><ele>111.0</ele><time>2026-04-21T10:22:10Z</time></trkpt><trkpt lat="43.99056012624176" lon="8.137089995046825"><ele>111.0</ele><time>2026-04-21T10:22:11Z</time></trkpt><trkpt lat="43.990809676901364" lon="8.137105429073472"><ele>107.5</ele><time>2026-04-21T10:22:12Z</time></trkpt><trkpt lat="43.99105801336241" lon="8.137119413470655"><ele>104.0</ele><time>2026-04-21T10:22:13Z</time></trkpt><trkpt lat="43.99130798237663" lon="8.13712619503411"><ele>104.0</ele><time>2026-04-21T10:22:14Z</time></trkpt><trkpt lat="43.991558203438004" lon="8.13712542438337"><ele>104.0</ele><time>2026-04-21T10:22:15Z</time></trkpt><trkpt lat="43.99180861782077" lon="8.137116875351788"><ele>94.5</ele><time>2026-04-21T10:22:16Z</time></trkpt><trkpt lat="43.99205280991151" lon="8.137098836345368"><ele>85.0</ele><time>2026-04-21T10:22:17Z</time></trkpt><trkpt lat="43.99229507979329" lon="8.137075843835394"><ele>90.0</ele><time>2026-04-21T10:22:18Z</time></trkpt><trkpt lat="43.992534851747074" lon="8.137045963594714"><ele>95.0</ele><time>2026-04-21T10:22:19Z</time></trkpt><trkpt lat="43.992772319656886" lon="8.137010061986576"><ele>95.0</ele><time>2026-04-21T10:22:20Z</time></trkpt><trkpt lat="43.993009654603036" lon="8.136966374047033"><ele>95.0</ele><time>2026-04-21T10:22:21Z</time></trkpt><trkpt lat="43.99324054346019" lon="8.136914596728289"><ele>111.5</ele><time>2026-04-21T10:22:22Z</time></trkpt><trkpt lat="43.99346640257473" lon="8.136855862055924"><ele>128.0</ele><time>2026-04-21T10:22:23Z</time></trkpt><trkpt lat="43.993686056333246" lon="8.13678949130216"><ele>128.0</ele><time>2026-04-21T10:22:24Z</time></trkpt><trkpt lat="43.99390078496459" lon="8.136718331646266"><ele>128.0</ele><time>2026-04-21T10:22:25Z</time></trkpt><trkpt lat="43.99410977920386" lon="8.136642854508345"><ele>128.0</ele><time>2026-04-21T10:22:26Z</time></trkpt><trkpt lat="43.994371749538274" lon="8.136483974806712"><ele>136.0</ele><time>2026-04-21T10:22:27Z</time></trkpt><trkpt lat="43.994580798790565" lon="8.136381042561371"><ele>144.0</ele><time>2026-04-21T10:22:28Z</time></trkpt><trkpt lat="43.994802376179756" lon="8.136251565215183"><ele>156.0</ele><time>2026-04-21T10:22:29Z</time></trkpt><trkpt lat="43.99502333346701" lon="8.136110288282289"><ele>168.0</ele><time>2026-04-21T10:22:30Z</time></trkpt><trkpt lat="43.99523675675642" lon="8.135958174222234"><ele>168.0</ele><time>2026-04-21T10:22:31Z</time></trkpt><trkpt lat="43.99544847803027" lon="8.13579735179875"><ele>168.0</ele><time>2026-04-21T10:22:32Z</time></trkpt><trkpt lat="43.995656569763426" lon="8.135628680799302"><ele>166.0</ele><time>2026-04-21T10:22:33Z</time></trkpt><trkpt lat="43.99586359698085" lon="8.135464707826072"><ele>164.0</ele><time>2026-04-21T10:22:34Z</time></trkpt><trkpt lat="43.99606413771313" lon="8.13530497911591"><ele>164.0</ele><time>2026-04-21T10:22:35Z</time></trkpt><trkpt lat="43.99626662549538" lon="8.135148333053097"><ele>164.0</ele><time>2026-04-21T10:22:36Z</time></trkpt><trkpt lat="43.9964716926026" lon="8.134990160043495"><ele>168.5</ele><time>2026-04-21T10:22:37Z</time></trkpt><trkpt lat="43.996676830295016" lon="8.134832876075402"><ele>173.0</ele><time>2026-04-21T10:22:38Z</time></trkpt><trkpt lat="43.996884977563646" lon="8.13467898386741"><ele>173.0</ele><time>2026-04-21T10:22:39Z</time></trkpt><trkpt lat="43.99709935167716" lon="8.134526656080443"><ele>173.0</ele><time>2026-04-21T10:22:40Z</time></trkpt><trkpt lat="43.99731156369566" lon="8.134373496815538"><ele>183.0</ele><time>2026-04-21T10:22:41Z</time></trkpt><trkpt lat="43.99752486470703" lon="8.134216951003875"><ele>193.0</ele><time>2026-04-21T10:22:42Z</time></trkpt><trkpt lat="43.99773849120644" lon="8.134053367005366"><ele>206.0</ele><time>2026-04-21T10:22:43Z</time></trkpt><trkpt lat="43.997949019748326" lon="8.133887006541622"><ele>219.0</ele><time>2026-04-21T10:22:44Z</time></trkpt><trkpt lat="43.99816058256196" lon="8.13371701238682"><ele>227.5</ele><time>2026-04-21T10:22:45Z</time></trkpt><trkpt lat="43.99837339486274" lon="8.133546049039024"><ele>236.0</ele><time>2026-04-21T10:22:46Z</time></trkpt><trkpt lat="43.99858749700951" lon="8.133376324602532"><ele>237.5</ele><time>2026-04-21T10:22:47Z</time></trkpt><trkpt lat="43.99880461475844" lon="8.133210581936408"><ele>239.0</ele><time>2026-04-21T10:22:48Z</time></trkpt><trkpt lat="43.999023333741434" lon="8.13304864500017"><ele>234.0</ele><time>2026-04-21T10:22:49Z</time></trkpt><trkpt lat="43.99925705172543" lon="8.132877767425299"><ele>229.0</ele><time>2026-04-21T10:22:50.067Z</time></trkpt><trkpt lat="43.999469572862715" lon="8.132723538203889"><ele>229.0</ele><time>2026-04-21T10:22:51.054Z</time></trkpt><trkpt lat="43.99967680459226" lon="8.132575642602102"><ele>229.0</ele><time>2026-04-21T10:22:52.056Z</time></trkpt><trkpt lat="43.99988521407565" lon="8.13242905906841"><ele>163.0</ele><time>2026-04-21T10:22:53.053Z</time></trkpt><trkpt lat="44.00155779560892" lon="8.131544261226447"><ele>164.0</ele><time>2026-04-21T10:23:00Z</time></trkpt><trkpt lat="44.00180754619283" lon="8.13149045926533"><ele>165.0</ele><time>2026-04-21T10:23:01Z</time></trkpt><trkpt lat="44.00206195059976" lon="8.131443069190626"><ele>165.0</ele><time>2026-04-21T10:23:02Z</time></trkpt><trkpt lat="44.002302217318686" lon="8.131409085611978"><ele>165.0</ele><time>2026-04-21T10:23:03Z</time></trkpt><trkpt lat="44.00253976672008" lon="8.131383658681122"><ele>170.0</ele><time>2026-04-21T10:23:04Z</time></trkpt><trkpt lat="44.00277451110366" lon="8.131376634394934"><ele>175.0</ele><time>2026-04-21T10:23:05Z</time></trkpt><trkpt lat="44.00301643973704" lon="8.13137681868131"><ele>175.0</ele><time>2026-04-21T10:23:06Z</time></trkpt><trkpt lat="44.003255741317474" lon="8.131380797733803"><ele>175.0</ele><time>2026-04-21T10:23:07Z</time></trkpt><trkpt lat="44.00350291927691" lon="8.131387972446676"><ele>180.5</ele><time>2026-04-21T10:23:08Z</time></trkpt><trkpt lat="44.003746902816275" lon="8.131398202338268"><ele>186.0</ele><time>2026-04-21T10:23:09Z</time></trkpt><trkpt lat="44.0039980996606" lon="8.131402124380998"><ele>203.5</ele><time>2026-04-21T10:23:10Z</time></trkpt><trkpt lat="44.0042434213881" lon="8.131415977941932"><ele>221.0</ele><time>2026-04-21T10:23:11Z</time></trkpt><trkpt lat="44.00449213022447" lon="8.13143359236938"><ele>221.0</ele><time>2026-04-21T10:23:12Z</time></trkpt><trkpt lat="44.004741206199604" lon="8.131456147439442"><ele>221.0</ele><time>2026-04-21T10:23:13Z</time></trkpt><trkpt lat="44.004987884372724" lon="8.131483287921414"><ele>241.0</ele><time>2026-04-21T10:23:14Z</time></trkpt><trkpt lat="44.00522244509545" lon="8.13151211571206"><ele>261.0</ele><time>2026-04-21T10:23:15Z</time></trkpt><trkpt lat="44.005456190945054" lon="8.131543185374362"><ele>261.0</ele><time>2026-04-21T10:23:16Z</time></trkpt><trkpt lat="44.00570660086842" lon="8.131533735470779"><ele>261.0</ele><time>2026-04-21T10:23:17.058Z</time></trkpt><trkpt lat="44.005942783096636" lon="8.1315436228661"><ele>268.0</ele><time>2026-04-21T10:23:18.055Z</time></trkpt><trkpt lat="44.0061777406588" lon="8.131553459022461"><ele>275.0</ele><time>2026-04-21T10:23:19.059Z</time></trkpt><trkpt lat="44.00639842116551" lon="8.131562697513045"><ele>275.0</ele><time>2026-04-21T10:23:20.053Z</time></trkpt><trkpt lat="44.00662217184872" lon="8.131572064485704"><ele>275.0</ele><time>2026-04-21T10:23:21.058Z</time></trkpt><trkpt lat="44.0188614075208" lon="8.1319444156867"><ele>223.0</ele><time>2026-04-21T10:24:07.001Z</time></trkpt><trkpt lat="44.01913954688618" lon="8.131947758798336"><ele>171.0</ele><time>2026-04-21T10:24:08.001Z</time></trkpt><trkpt lat="44.01936025750542" lon="8.131865967481986"><ele>157.5</ele><time>2026-04-21T10:24:09.001Z</time></trkpt><trkpt lat="44.019634017526734" lon="8.131819681198984"><ele>144.0</ele><time>2026-04-21T10:24:10.001Z</time></trkpt><trkpt lat="44.019911271889875" lon="8.131789899090302"><ele>146.5</ele><time>2026-04-21T10:24:11.001Z</time></trkpt><trkpt lat="44.02019504552271" lon="8.131748271363366"><ele>149.0</ele><time>2026-04-21T10:24:12.001Z</time></trkpt><trkpt lat="44.02047687932005" lon="8.131698937804105"><ele>149.0</ele><time>2026-04-21T10:24:13Z</time></trkpt><trkpt lat="44.020751199039985" lon="8.131644685568553"><ele>149.0</ele><time>2026-04-21T10:24:14Z</time></trkpt><trkpt lat="44.02103430756414" lon="8.131595082549028"><ele>144.5</ele><time>2026-04-21T10:24:15Z</time></trkpt><trkpt lat="44.02131368765723" lon="8.13154347306751"><ele>140.0</ele><time>2026-04-21T10:24:16Z</time></trkpt><trkpt lat="44.02159400198222" lon="8.131486261800914"><ele>141.5</ele><time>2026-04-21T10:24:17Z</time></trkpt><trkpt lat="44.02187215835496" lon="8.131424914027523"><ele>143.0</ele><time>2026-04-21T10:24:18Z</time></trkpt><trkpt lat="44.0221546614907" lon="8.131366915647622"><ele>143.0</ele><time>2026-04-21T10:24:19Z</time></trkpt><trkpt lat="44.02242792884334" lon="8.13130606165566"><ele>143.0</ele><time>2026-04-21T10:24:20Z</time></trkpt><trkpt lat="44.02270297300706" lon="8.131245579122393"><ele>137.5</ele><time>2026-04-21T10:24:21Z</time></trkpt><trkpt lat="44.022983377629764" lon="8.131180275166322"><ele>132.0</ele><time>2026-04-21T10:24:22Z</time></trkpt><trkpt lat="44.0232629556137" lon="8.13111528013682"><ele>133.0</ele><time>2026-04-21T10:24:23Z</time></trkpt><trkpt lat="44.02354037841371" lon="8.131062787705659"><ele>134.0</ele><time>2026-04-21T10:24:24Z</time></trkpt><trkpt lat="44.02381833377374" lon="8.13101743872756"><ele>134.0</ele><time>2026-04-21T10:24:25Z</time></trkpt><trkpt lat="44.02409529647948" lon="8.130979774870555"><ele>134.0</ele><time>2026-04-21T10:24:26Z</time></trkpt><trkpt lat="44.02437214655793" lon="8.130953664509004"><ele>133.0</ele><time>2026-04-21T10:24:27Z</time></trkpt><trkpt lat="44.024652175687045" lon="8.130951107501305"><ele>132.0</ele><time>2026-04-21T10:24:28Z</time></trkpt><trkpt lat="44.02492667802999" lon="8.130959407461091"><ele>132.0</ele><time>2026-04-21T10:24:29Z</time></trkpt><trkpt lat="44.02519497940501" lon="8.130966590506459"><ele>132.0</ele><time>2026-04-21T10:24:30Z</time></trkpt><trkpt lat="44.025468529084336" lon="8.130999878814054"><ele>132.0</ele><time>2026-04-21T10:24:31Z</time></trkpt><trkpt lat="44.02573828682553" lon="8.131053399160542"><ele>132.0</ele><time>2026-04-21T10:24:32Z</time></trkpt><trkpt lat="44.026011123642014" lon="8.131103649811966"><ele>123.5</ele><time>2026-04-21T10:24:33Z</time></trkpt><trkpt lat="44.02628164053078" lon="8.131166363713593"><ele>115.0</ele><time>2026-04-21T10:24:34Z</time></trkpt><trkpt lat="44.026545831103356" lon="8.13123924332659"><ele>113.5</ele><time>2026-04-21T10:24:35Z</time></trkpt><trkpt lat="44.02680818081183" lon="8.13132519848028"><ele>112.0</ele><time>2026-04-21T10:24:36Z</time></trkpt><trkpt lat="44.027072488327896" lon="8.13141847056359"><ele>112.0</ele><time>2026-04-21T10:24:37Z</time></trkpt><trkpt lat="44.02733331874619" lon="8.131524275282349"><ele>112.0</ele><time>2026-04-21T10:24:38Z</time></trkpt><trkpt lat="44.027590945138414" lon="8.13163890577217"><ele>118.5</ele><time>2026-04-21T10:24:39Z</time></trkpt><trkpt lat="44.02784613778047" lon="8.131765523253094"><ele>125.0</ele><time>2026-04-21T10:24:40Z</time></trkpt><trkpt lat="44.02810169111965" lon="8.131904934390418"><ele>117.5</ele><time>2026-04-21T10:24:41Z</time></trkpt><trkpt lat="44.02835552673324" lon="8.132052596900255"><ele>110.0</ele><time>2026-04-21T10:24:42Z</time></trkpt><trkpt lat="44.028597152044775" lon="8.132195305506725"><ele>110.0</ele><time>2026-04-21T10:24:43Z</time></trkpt><trkpt lat="44.02883358973552" lon="8.132331348265327"><ele>110.0</ele><time>2026-04-21T10:24:44Z</time></trkpt><trkpt lat="44.02906531867763" lon="8.132452944561258"><ele>112.0</ele><time>2026-04-21T10:24:45Z</time></trkpt><trkpt lat="44.0292939931784" lon="8.132567969324475"><ele>114.0</ele><time>2026-04-21T10:24:46Z</time></trkpt><trkpt lat="44.02953049676714" lon="8.13268030799059"><ele>114.0</ele><time>2026-04-21T10:24:47Z</time></trkpt><trkpt lat="44.029777313785786" lon="8.13279543070879"><ele>114.0</ele><time>2026-04-21T10:24:48Z</time></trkpt><trkpt lat="44.03002581119575" lon="8.132917880226502"><ele>110.5</ele><time>2026-04-21T10:24:49Z</time></trkpt><trkpt lat="44.03027543326391" lon="8.133048350569316"><ele>107.0</ele><time>2026-04-21T10:24:50Z</time></trkpt><trkpt lat="44.03052521386211" lon="8.133175855249728"><ele>107.5</ele><time>2026-04-21T10:24:51Z</time></trkpt><trkpt lat="44.030775275127546" lon="8.13329737754822"><ele>108.0</ele><time>2026-04-21T10:24:52Z</time></trkpt><trkpt lat="44.03101909945992" lon="8.133406300887646"><ele>108.0</ele><time>2026-04-21T10:24:53Z</time></trkpt><trkpt lat="44.031268528240226" lon="8.133503254876285"><ele>108.0</ele><time>2026-04-21T10:24:54Z</time></trkpt><trkpt lat="44.03152758741847" lon="8.133588691284752"><ele>100.0</ele><time>2026-04-21T10:24:55Z</time></trkpt><trkpt lat="44.03179178329522" lon="8.1336682133064"><ele>92.0</ele><time>2026-04-21T10:24:56Z</time></trkpt><trkpt lat="44.03205779545354" lon="8.133739268291723"><ele>92.0</ele><time>2026-04-21T10:24:57Z</time></trkpt><trkpt lat="44.03232911801079" lon="8.133794289015283"><ele>92.0</ele><time>2026-04-21T10:24:58Z</time></trkpt><trkpt lat="44.03260109186269" lon="8.133831604598113"><ele>84.0</ele><time>2026-04-21T10:24:59Z</time></trkpt><trkpt lat="44.03287375748903" lon="8.13385718017689"><ele>76.0</ele><time>2026-04-21T10:25:00Z</time></trkpt><trkpt lat="44.03315069581012" lon="8.133871898863816"><ele>79.5</ele><time>2026-04-21T10:25:01Z</time></trkpt><trkpt lat="44.03342110928373" lon="8.133872452411023"><ele>83.0</ele><time>2026-04-21T10:25:02Z</time></trkpt><trkpt lat="44.03368673879011" lon="8.133852674943668"><ele>83.0</ele><time>2026-04-21T10:25:03Z</time></trkpt><trkpt lat="44.03395777836315" lon="8.133811910390461"><ele>83.0</ele><time>2026-04-21T10:25:04Z</time></trkpt><trkpt lat="44.03423225656285" lon="8.133764773860548"><ele>88.0</ele><time>2026-04-21T10:25:05Z</time></trkpt><trkpt lat="44.0345067295764" lon="8.133710801487016"><ele>93.0</ele><time>2026-04-21T10:25:06Z</time></trkpt><trkpt lat="44.03478666137901" lon="8.133657401910918"><ele>89.5</ele><time>2026-04-21T10:25:07Z</time></trkpt><trkpt lat="44.035062129630276" lon="8.13360525580491"><ele>86.0</ele><time>2026-04-21T10:25:08Z</time></trkpt><trkpt lat="44.03533924089331" lon="8.133553476509187"><ele>86.0</ele><time>2026-04-21T10:25:09Z</time></trkpt><trkpt lat="44.03561717583932" lon="8.1335040416623"><ele>86.0</ele><time>2026-04-21T10:25:10Z</time></trkpt><trkpt lat="44.03589435193551" lon="8.133460635800096"><ele>81.5</ele><time>2026-04-21T10:25:11Z</time></trkpt><trkpt lat="44.036167938155685" lon="8.133430414393187"><ele>77.0</ele><time>2026-04-21T10:25:12Z</time></trkpt><trkpt lat="44.0364315666988" lon="8.133413041647104"><ele>78.0</ele><time>2026-04-21T10:25:13Z</time></trkpt><trkpt lat="44.036699845004925" lon="8.133410755764713"><ele>79.0</ele><time>2026-04-21T10:25:14Z</time></trkpt><trkpt lat="44.0369709202306" lon="8.133431426093626"><ele>79.0</ele><time>2026-04-21T10:25:15Z</time></trkpt><trkpt lat="44.03724467994243" lon="8.133477297236512"><ele>79.0</ele><time>2026-04-21T10:25:16Z</time></trkpt><trkpt lat="44.037513101081025" lon="8.133548423165447"><ele>79.5</ele><time>2026-04-21T10:25:17Z</time></trkpt><trkpt lat="44.037781597468026" lon="8.133623955711018"><ele>80.0</ele><time>2026-04-21T10:25:18Z</time></trkpt><trkpt lat="44.03804208592868" lon="8.133711012263525"><ele>75.5</ele><time>2026-04-21T10:25:19Z</time></trkpt><trkpt lat="44.038304658529285" lon="8.133820564293217"><ele>71.0</ele><time>2026-04-21T10:25:20Z</time></trkpt><trkpt lat="44.03856073974684" lon="8.133949655449019"><ele>77.0</ele><time>2026-04-21T10:25:21Z</time></trkpt><trkpt lat="44.03881087291546" lon="8.134093360430349"><ele>83.0</ele><time>2026-04-21T10:25:22Z</time></trkpt><trkpt lat="44.03905768600706" lon="8.13425995661692"><ele>78.5</ele><time>2026-04-21T10:25:23Z</time></trkpt><trkpt lat="44.0392947144468" lon="8.13444320015624"><ele>74.0</ele><time>2026-04-21T10:25:24Z</time></trkpt><trkpt lat="44.03953019377938" lon="8.13465043426178"><ele>74.0</ele><time>2026-04-21T10:25:25Z</time></trkpt><trkpt lat="44.03975198540182" lon="8.13487149946821"><ele>74.0</ele><time>2026-04-21T10:25:26Z</time></trkpt><trkpt lat="44.039971456455596" lon="8.135103234587605"><ele>75.5</ele><time>2026-04-21T10:25:27Z</time></trkpt><trkpt lat="44.040185448378224" lon="8.13535430713875"><ele>77.0</ele><time>2026-04-21T10:25:28Z</time></trkpt><trkpt lat="44.0404028127471" lon="8.135615672844045"><ele>83.5</ele><time>2026-04-21T10:25:29Z</time></trkpt><trkpt lat="44.04057691347698" lon="8.135904047934911"><ele>90.0</ele><time>2026-04-21T10:25:30Z</time></trkpt><trkpt lat="44.04075548919895" lon="8.13620495977325"><ele>83.0</ele><time>2026-04-21T10:25:31Z</time></trkpt><trkpt lat="44.04092336906975" lon="8.136521536351413"><ele>76.0</ele><time>2026-04-21T10:25:32Z</time></trkpt><trkpt lat="44.04108429709703" lon="8.136851607612169"><ele>76.0</ele><time>2026-04-21T10:25:33Z</time></trkpt><trkpt lat="44.04124123384561" lon="8.137181760603816"><ele>76.0</ele><time>2026-04-21T10:25:34Z</time></trkpt><trkpt lat="44.04139176596383" lon="8.137516870546309"><ele>81.5</ele><time>2026-04-21T10:25:35Z</time></trkpt><trkpt lat="44.04154261581111" lon="8.137856039487335"><ele>87.0</ele><time>2026-04-21T10:25:36Z</time></trkpt><trkpt lat="44.041692804206725" lon="8.138195886882485"><ele>77.5</ele><time>2026-04-21T10:25:37Z</time></trkpt><trkpt lat="44.04184336786127" lon="8.138537604420721"><ele>68.0</ele><time>2026-04-21T10:25:38Z</time></trkpt><trkpt lat="44.04199730035242" lon="8.138876988319012"><ele>77.5</ele><time>2026-04-21T10:25:39Z</time></trkpt><trkpt lat="44.04215578570087" lon="8.139211386433935"><ele>87.0</ele><time>2026-04-21T10:25:40Z</time></trkpt><trkpt lat="44.04231319832064" lon="8.139547334873667"><ele>75.0</ele><time>2026-04-21T10:25:41Z</time></trkpt><trkpt lat="44.04247235368804" lon="8.139883797455289"><ele>63.0</ele><time>2026-04-21T10:25:42Z</time></trkpt><trkpt lat="44.04263202923806" lon="8.140218778572114"><ele>63.0</ele><time>2026-04-21T10:25:43Z</time></trkpt><trkpt lat="44.04279030893011" lon="8.140556042700286"><ele>63.0</ele><time>2026-04-21T10:25:44Z</time></trkpt><trkpt lat="44.042947836502" lon="8.14088294075162"><ele>70.0</ele><time>2026-04-21T10:25:45Z</time></trkpt><trkpt lat="44.04309460337279" lon="8.141199678797815"><ele>77.0</ele><time>2026-04-21T10:25:46Z</time></trkpt><trkpt lat="44.043244584999215" lon="8.14151507881649"><ele>62.5</ele><time>2026-04-21T10:25:47Z</time></trkpt><trkpt lat="44.04338928772883" lon="8.14182985889287"><ele>48.0</ele><time>2026-04-21T10:25:48Z</time></trkpt><trkpt lat="44.04352739250444" lon="8.14213142260651"><ele>49.0</ele><time>2026-04-21T10:25:49Z</time></trkpt><trkpt lat="44.043670029055015" lon="8.14243541249515"><ele>50.0</ele><time>2026-04-21T10:25:50Z</time></trkpt><trkpt lat="44.04381449548655" lon="8.142737642003508"><ele>50.0</ele><time>2026-04-21T10:25:51Z</time></trkpt><trkpt lat="44.043956403944776" lon="8.143037645134136"><ele>50.0</ele><time>2026-04-21T10:25:52Z</time></trkpt><trkpt lat="44.04409544115204" lon="8.143334929649836"><ele>45.5</ele><time>2026-04-21T10:25:53Z</time></trkpt><trkpt lat="44.04423900509854" lon="8.14362199585608"><ele>41.0</ele><time>2026-04-21T10:25:54Z</time></trkpt><trkpt lat="44.04439388590113" lon="8.143897977862622"><ele>45.5</ele><time>2026-04-21T10:25:55Z</time></trkpt><trkpt lat="44.04455065725351" lon="8.144155410256992"><ele>50.0</ele><time>2026-04-21T10:25:56Z</time></trkpt><trkpt lat="44.044717243790586" lon="8.144424332989566"><ele>50.0</ele><time>2026-04-21T10:25:57Z</time></trkpt><trkpt lat="44.04488173769881" lon="8.144689211331698"><ele>50.0</ele><time>2026-04-21T10:25:58Z</time></trkpt><trkpt lat="44.0450538231666" lon="8.144948534746193"><ele>49.5</ele><time>2026-04-21T10:25:59Z</time></trkpt><trkpt lat="44.04521817779577" lon="8.145230394841748"><ele>49.0</ele><time>2026-04-21T10:26:00Z</time></trkpt><trkpt lat="44.04538716299617" lon="8.145508847289152"><ele>60.0</ele><time>2026-04-21T10:26:01Z</time></trkpt><trkpt lat="44.045566739240954" lon="8.14579174927788"><ele>71.0</ele><time>2026-04-21T10:26:02Z</time></trkpt><trkpt lat="44.04576936367254" lon="8.146082505728328"><ele>64.5</ele><time>2026-04-21T10:26:03Z</time></trkpt><trkpt lat="44.045971222646074" lon="8.146307594973145"><ele>58.0</ele><time>2026-04-21T10:26:04Z</time></trkpt><trkpt lat="44.04617015099897" lon="8.146567833337816"><ele>58.0</ele><time>2026-04-21T10:26:05Z</time></trkpt><trkpt lat="44.046353424201435" lon="8.146814938143219"><ele>58.0</ele><time>2026-04-21T10:26:06Z</time></trkpt><trkpt lat="44.04655565457462" lon="8.147087090679504"><ele>47.0</ele><time>2026-04-21T10:26:07Z</time></trkpt><trkpt lat="44.04665518510651" lon="8.147366623925986"><ele>36.0</ele><time>2026-04-21T10:26:08Z</time></trkpt><trkpt lat="44.046870748067704" lon="8.147604668486016"><ele>36.0</ele><time>2026-04-21T10:26:09Z</time></trkpt><trkpt lat="44.04706150115018" lon="8.147870471536606"><ele>36.0</ele><time>2026-04-21T10:26:10Z</time></trkpt><trkpt lat="44.04724365521874" lon="8.148140967850182"><ele>38.5</ele><time>2026-04-21T10:26:11Z</time></trkpt><trkpt lat="44.047423858687736" lon="8.148409976195286"><ele>41.0</ele><time>2026-04-21T10:26:12Z</time></trkpt><trkpt lat="44.04759960224988" lon="8.148675987355329"><ele>33.5</ele><time>2026-04-21T10:26:13Z</time></trkpt><trkpt lat="44.04777990488232" lon="8.148937596237937"><ele>26.0</ele><time>2026-04-21T10:26:14Z</time></trkpt><trkpt lat="44.04795412039817" lon="8.149196299536463"><ele>26.0</ele><time>2026-04-21T10:26:15Z</time></trkpt><trkpt lat="44.04813136895081" lon="8.149457224592389"><ele>26.0</ele><time>2026-04-21T10:26:16Z</time></trkpt><trkpt lat="44.04831203361784" lon="8.14971227619046"><ele>25.5</ele><time>2026-04-21T10:26:17Z</time></trkpt><trkpt lat="44.04849118016195" lon="8.149964291407102"><ele>25.0</ele><time>2026-04-21T10:26:18Z</time></trkpt><trkpt lat="44.04866616044387" lon="8.150215529702317"><ele>25.0</ele><time>2026-04-21T10:26:19Z</time></trkpt><trkpt lat="44.04883919924944" lon="8.15047347943721"><ele>25.0</ele><time>2026-04-21T10:26:20Z</time></trkpt><trkpt lat="44.0490084821877" lon="8.150735602040946"><ele>25.0</ele><time>2026-04-21T10:26:21Z</time></trkpt><trkpt lat="44.04917687107321" lon="8.151000495366274"><ele>25.0</ele><time>2026-04-21T10:26:22Z</time></trkpt><trkpt lat="44.0493443898934" lon="8.151267134174741"><ele>25.0</ele><time>2026-04-21T10:26:23Z</time></trkpt><trkpt lat="44.049508875223445" lon="8.151537247395783"><ele>25.0</ele><time>2026-04-21T10:26:24Z</time></trkpt><trkpt lat="44.049672825667365" lon="8.15180609765273"><ele>24.5</ele><time>2026-04-21T10:26:25Z</time></trkpt><trkpt lat="44.049835655870375" lon="8.152077238074249"><ele>24.0</ele><time>2026-04-21T10:26:26Z</time></trkpt><trkpt lat="44.04999369922893" lon="8.152348761370522"><ele>23.0</ele><time>2026-04-21T10:26:27Z</time></trkpt><trkpt lat="44.05014962827102" lon="8.152624267406498"><ele>22.0</ele><time>2026-04-21T10:26:28Z</time></trkpt><trkpt lat="44.05030230779826" lon="8.152897152479584"><ele>22.0</ele><time>2026-04-21T10:26:29Z</time></trkpt><trkpt lat="44.05045094093608" lon="8.153176895674994"><ele>22.0</ele><time>2026-04-21T10:26:30Z</time></trkpt><trkpt lat="44.0505989080858" lon="8.153455869005155"><ele>22.0</ele><time>2026-04-21T10:26:31Z</time></trkpt><trkpt lat="44.05074247715095" lon="8.153735440745212"><ele>22.0</ele><time>2026-04-21T10:26:32Z</time></trkpt><trkpt lat="44.0508862419595" lon="8.154016940007212"><ele>22.5</ele><time>2026-04-21T10:26:33Z</time></trkpt><trkpt lat="44.0510281765142" lon="8.154296355643428"><ele>23.0</ele><time>2026-04-21T10:26:34Z</time></trkpt><trkpt lat="44.05116465069156" lon="8.15458120944387"><ele>23.0</ele><time>2026-04-21T10:26:35Z</time></trkpt><trkpt lat="44.051302367972646" lon="8.154867826347662"><ele>23.0</ele><time>2026-04-21T10:26:36Z</time></trkpt><trkpt lat="44.051435482063404" lon="8.155149386523268"><ele>22.5</ele><time>2026-04-21T10:26:37Z</time></trkpt><trkpt lat="44.051571694861096" lon="8.155431179941905"><ele>22.0</ele><time>2026-04-21T10:26:38Z</time></trkpt><trkpt lat="44.05170303970982" lon="8.155714705612155"><ele>22.0</ele><time>2026-04-21T10:26:39Z</time></trkpt><trkpt lat="44.05182981355134" lon="8.155996219329936"><ele>22.0</ele><time>2026-04-21T10:26:40Z</time></trkpt><trkpt lat="44.051955257980396" lon="8.156278367636784"><ele>22.0</ele><time>2026-04-21T10:26:41Z</time></trkpt><trkpt lat="44.05207732379351" lon="8.156551116590316"><ele>22.0</ele><time>2026-04-21T10:26:42Z</time></trkpt><trkpt lat="44.05219993708425" lon="8.156828099910651"><ele>22.0</ele><time>2026-04-21T10:26:43Z</time></trkpt><trkpt lat="44.052314628539825" lon="8.157105641413358"><ele>22.0</ele><time>2026-04-21T10:26:44Z</time></trkpt><trkpt lat="44.052422661703496" lon="8.157391218851506"><ele>21.5</ele><time>2026-04-21T10:26:45Z</time></trkpt><trkpt lat="44.05253154144534" lon="8.157679921744878"><ele>21.0</ele><time>2026-04-21T10:26:46Z</time></trkpt><trkpt lat="44.05263499668291" lon="8.157967981203669"><ele>20.5</ele><time>2026-04-21T10:26:47Z</time></trkpt><trkpt lat="44.05273724386544" lon="8.158256796115555"><ele>20.0</ele><time>2026-04-21T10:26:48Z</time></trkpt><trkpt lat="44.05284157466172" lon="8.158538809399277"><ele>20.0</ele><time>2026-04-21T10:26:49Z</time></trkpt><trkpt lat="44.0529467575813" lon="8.158819466903541"><ele>20.0</ele><time>2026-04-21T10:26:50Z</time></trkpt><trkpt lat="44.05304638937062" lon="8.15908705489764"><ele>20.0</ele><time>2026-04-21T10:26:51Z</time></trkpt><trkpt lat="44.05314497272109" lon="8.159356949301637"><ele>19.333333333333336</ele><time>2026-04-21T10:26:52Z</time></trkpt><trkpt lat="44.0532426981486" lon="8.159628826274991"><ele>18.666666666666668</ele><time>2026-04-21T10:26:53Z</time></trkpt><trkpt lat="44.05334395658963" lon="8.15989890038133"><ele>18.0</ele><time>2026-04-21T10:26:54Z</time></trkpt><trkpt lat="44.05344737959181" lon="8.160176603620231"><ele>18.0</ele><time>2026-04-21T10:26:55Z</time></trkpt><trkpt lat="44.05355519218479" lon="8.160462103694725"><ele>18.0</ele><time>2026-04-21T10:26:56Z</time></trkpt><trkpt lat="44.05366972126803" lon="8.1607484639233"><ele>18.5</ele><time>2026-04-21T10:26:57Z</time></trkpt><trkpt lat="44.053788537277256" lon="8.161037845285161"><ele>19.0</ele><time>2026-04-21T10:26:58Z</time></trkpt><trkpt lat="44.05391062617821" lon="8.16132878096274"><ele>18.0</ele><time>2026-04-21T10:26:59Z</time></trkpt><trkpt lat="44.054040159714766" lon="8.161618850370855"><ele>17.0</ele><time>2026-04-21T10:27:00Z</time></trkpt><trkpt lat="44.05417394961954" lon="8.161905514816747"><ele>18.0</ele><time>2026-04-21T10:27:01Z</time></trkpt><trkpt lat="44.0543143006572" lon="8.162203335390753"><ele>19.0</ele><time>2026-04-21T10:27:02Z</time></trkpt><trkpt lat="44.05445695370107" lon="8.16249633748711"><ele>19.0</ele><time>2026-04-21T10:27:03Z</time></trkpt><trkpt lat="44.054602140199854" lon="8.162786104437242"><ele>19.0</ele><time>2026-04-21T10:27:04Z</time></trkpt><trkpt lat="44.05475562713134" lon="8.163067137768826"><ele>18.5</ele><time>2026-04-21T10:27:05Z</time></trkpt><trkpt lat="44.054913291846574" lon="8.163346332753404"><ele>18.0</ele><time>2026-04-21T10:27:06Z</time></trkpt><trkpt lat="44.05507590862725" lon="8.163624079252187"><ele>18.0</ele><time>2026-04-21T10:27:07Z</time></trkpt><trkpt lat="44.05524187822712" lon="8.163898808539866"><ele>18.0</ele><time>2026-04-21T10:27:08Z</time></trkpt><trkpt lat="44.05540853866817" lon="8.164172436195406"><ele>18.0</ele><time>2026-04-21T10:27:09Z</time></trkpt><trkpt lat="44.055571048682516" lon="8.16443506896221"><ele>18.0</ele><time>2026-04-21T10:27:10Z</time></trkpt><trkpt lat="44.05573453431908" lon="8.164692276068147"><ele>19.0</ele><time>2026-04-21T10:27:11Z</time></trkpt><trkpt lat="44.055900467079184" lon="8.164945976291492"><ele>20.0</ele><time>2026-04-21T10:27:12Z</time></trkpt><trkpt lat="44.056068733523496" lon="8.165193782197099"><ele>20.0</ele><time>2026-04-21T10:27:13Z</time></trkpt><trkpt lat="44.05623813959962" lon="8.165438375012586"><ele>20.0</ele><time>2026-04-21T10:27:14Z</time></trkpt><trkpt lat="44.05640861628701" lon="8.165680949186704"><ele>20.0</ele><time>2026-04-21T10:27:15Z</time></trkpt><trkpt lat="44.05658436105852" lon="8.165919885080967"><ele>20.0</ele><time>2026-04-21T10:27:16Z</time></trkpt><trkpt lat="44.05676091286156" lon="8.166158838037191"><ele>20.0</ele><time>2026-04-21T10:27:17Z</time></trkpt><trkpt lat="44.05694000626777" lon="8.166390627950433"><ele>20.0</ele><time>2026-04-21T10:27:18Z</time></trkpt><trkpt lat="44.05712121401721" lon="8.166617243923215"><ele>21.0</ele><time>2026-04-21T10:27:19Z</time></trkpt><trkpt lat="44.05730485100709" lon="8.166842346349632"><ele>22.0</ele><time>2026-04-21T10:27:20Z</time></trkpt><trkpt lat="44.05748971257988" lon="8.167059611066728"><ele>24.5</ele><time>2026-04-21T10:27:21Z</time></trkpt><trkpt lat="44.05767754290557" lon="8.167270107590923"><ele>27.0</ele><time>2026-04-21T10:27:22Z</time></trkpt><trkpt lat="44.05786716519646" lon="8.167477052568598"><ele>27.0</ele><time>2026-04-21T10:27:23Z</time></trkpt><trkpt lat="44.0580638396824" lon="8.167682792768423"><ele>27.0</ele><time>2026-04-21T10:27:24Z</time></trkpt><trkpt lat="44.05825940697748" lon="8.167883689189553"><ele>33.0</ele><time>2026-04-21T10:27:25Z</time></trkpt><trkpt lat="44.05846206070963" lon="8.168081536505582"><ele>39.0</ele><time>2026-04-21T10:27:26Z</time></trkpt><trkpt lat="44.05867040693619" lon="8.168278533939757"><ele>39.0</ele><time>2026-04-21T10:27:27Z</time></trkpt><trkpt lat="44.05886550071698" lon="8.168466477313748"><ele>39.0</ele><time>2026-04-21T10:27:28Z</time></trkpt><trkpt lat="44.059072359799984" lon="8.168677158678546"><ele>33.0</ele><time>2026-04-21T10:27:29Z</time></trkpt><trkpt lat="44.05928695441641" lon="8.168847069143279"><ele>27.0</ele><time>2026-04-21T10:27:30Z</time></trkpt><trkpt lat="44.05949259515608" lon="8.169046533946974"><ele>27.0</ele><time>2026-04-21T10:27:31Z</time></trkpt><trkpt lat="44.05970335840659" lon="8.169225761642458"><ele>27.0</ele><time>2026-04-21T10:27:32Z</time></trkpt><trkpt lat="44.059913201318615" lon="8.169405884254704"><ele>32.5</ele><time>2026-04-21T10:27:33Z</time></trkpt><trkpt lat="44.060125391022154" lon="8.169584415095485"><ele>38.0</ele><time>2026-04-21T10:27:34Z</time></trkpt><trkpt lat="44.060339330941645" lon="8.169763765572153"><ele>35.5</ele><time>2026-04-21T10:27:35Z</time></trkpt><trkpt lat="44.06055290107835" lon="8.16994174230767"><ele>33.0</ele><time>2026-04-21T10:27:36Z</time></trkpt><trkpt lat="44.060771010303625" lon="8.170122862101657"><ele>29.0</ele><time>2026-04-21T10:27:37Z</time></trkpt><trkpt lat="44.06099713321194" lon="8.170286727729668"><ele>25.0</ele><time>2026-04-21T10:27:38Z</time></trkpt><trkpt lat="44.061208109669465" lon="8.170468213996784"><ele>25.0</ele><time>2026-04-21T10:27:39Z</time></trkpt><trkpt lat="44.061424659277975" lon="8.17064098962306"><ele>25.0</ele><time>2026-04-21T10:27:40Z</time></trkpt><trkpt lat="44.06164017420362" lon="8.170820077369823"><ele>22.0</ele><time>2026-04-21T10:27:41Z</time></trkpt><trkpt lat="44.06185327688071" lon="8.170997392928959"><ele>19.0</ele><time>2026-04-21T10:27:42Z</time></trkpt><trkpt lat="44.06206736274336" lon="8.17117460374772"><ele>19.0</ele><time>2026-04-21T10:27:43Z</time></trkpt><trkpt lat="44.062281999255816" lon="8.171350198762266"><ele>19.0</ele><time>2026-04-21T10:27:44Z</time></trkpt><trkpt lat="44.06249576324891" lon="8.17152288881301"><ele>18.5</ele><time>2026-04-21T10:27:45Z</time></trkpt><trkpt lat="44.06271219601872" lon="8.171696150687291"><ele>18.0</ele><time>2026-04-21T10:27:46Z</time></trkpt><trkpt lat="44.0629269089538" lon="8.171869509532252"><ele>18.0</ele><time>2026-04-21T10:27:47Z</time></trkpt><trkpt lat="44.06314344264188" lon="8.172046522418713"><ele>18.0</ele><time>2026-04-21T10:27:48Z</time></trkpt><trkpt lat="44.06335693679957" lon="8.172226369540512"><ele>16.0</ele><time>2026-04-21T10:27:49Z</time></trkpt><trkpt lat="44.063566674090296" lon="8.172409871795635"><ele>14.0</ele><time>2026-04-21T10:27:50Z</time></trkpt><trkpt lat="44.063775576338934" lon="8.17260039721149"><ele>14.0</ele><time>2026-04-21T10:27:51Z</time></trkpt><trkpt lat="44.06398028973447" lon="8.17279326357564"><ele>14.0</ele><time>2026-04-21T10:27:52Z</time></trkpt><trkpt lat="44.06418858084094" lon="8.172989792761655"><ele>14.0</ele><time>2026-04-21T10:27:53Z</time></trkpt><trkpt lat="44.06439272295828" lon="8.173191843613589"><ele>14.0</ele><time>2026-04-21T10:27:54Z</time></trkpt><trkpt lat="44.064593970209394" lon="8.173400978731355"><ele>14.0</ele><time>2026-04-21T10:27:55Z</time></trkpt><trkpt lat="44.06479491768384" lon="8.173609252257654"><ele>14.0</ele><time>2026-04-21T10:27:56Z</time></trkpt><trkpt lat="44.06499612597414" lon="8.173826870858733"><ele>16.5</ele><time>2026-04-21T10:27:57Z</time></trkpt><trkpt lat="44.06519422594835" lon="8.174046162140966"><ele>19.0</ele><time>2026-04-21T10:27:58Z</time></trkpt><trkpt lat="44.065390001049316" lon="8.174270567311954"><ele>19.0</ele><time>2026-04-21T10:27:59.001Z</time></trkpt><trkpt lat="44.06558465730721" lon="8.174498213680748"><ele>19.0</ele><time>2026-04-21T10:28:00.001Z</time></trkpt><trkpt lat="44.06577528540664" lon="8.17473255474113"><ele>21.5</ele><time>2026-04-21T10:28:01.001Z</time></trkpt><trkpt lat="44.065966388211535" lon="8.17496865621149"><ele>24.0</ele><time>2026-04-21T10:28:02.001Z</time></trkpt><trkpt lat="44.06615725048345" lon="8.175210919121055"><ele>24.0</ele><time>2026-04-21T10:28:03.001Z</time></trkpt><trkpt lat="44.06634822442754" lon="8.17545346113155"><ele>24.0</ele><time>2026-04-21T10:28:04.001Z</time></trkpt><trkpt lat="44.06653737171117" lon="8.175699237110006"><ele>23.0</ele><time>2026-04-21T10:28:05.001Z</time></trkpt><trkpt lat="44.06672630444061" lon="8.175948990939093"><ele>22.0</ele><time>2026-04-21T10:28:06.001Z</time></trkpt><trkpt lat="44.06691478462023" lon="8.176203968509702"><ele>22.0</ele><time>2026-04-21T10:28:07.001Z</time></trkpt><trkpt lat="44.067102645596336" lon="8.176458697155827"><ele>22.0</ele><time>2026-04-21T10:28:08.001Z</time></trkpt><trkpt lat="44.067291208062436" lon="8.176712124561961"><ele>23.5</ele><time>2026-04-21T10:28:09.001Z</time></trkpt><trkpt lat="44.067478331139185" lon="8.176962238307786"><ele>25.0</ele><time>2026-04-21T10:28:10.001Z</time></trkpt><trkpt lat="44.067664782096415" lon="8.177213391859908"><ele>24.5</ele><time>2026-04-21T10:28:11.001Z</time></trkpt><trkpt lat="44.06784761080296" lon="8.177463818202371"><ele>24.0</ele><time>2026-04-21T10:28:12.001Z</time></trkpt><trkpt lat="44.06802865836093" lon="8.177713954992518"><ele>24.0</ele><time>2026-04-21T10:28:13.001Z</time></trkpt><trkpt lat="44.068208319145825" lon="8.17796043438506"><ele>24.0</ele><time>2026-04-21T10:28:14.001Z</time></trkpt><trkpt lat="44.06838668905862" lon="8.178203183887376"><ele>27.0</ele><time>2026-04-21T10:28:15.001Z</time></trkpt><trkpt lat="44.06855666558528" lon="8.178435465189803"><ele>30.0</ele><time>2026-04-21T10:28:16.001Z</time></trkpt><trkpt lat="44.06872637318954" lon="8.178665318532277"><ele>30.0</ele><time>2026-04-21T10:28:17.001Z</time></trkpt><trkpt lat="44.06889691506794" lon="8.178895030163657"><ele>30.0</ele><time>2026-04-21T10:28:18.001Z</time></trkpt><trkpt lat="44.069058976325394" lon="8.179112324269473"><ele>34.5</ele><time>2026-04-21T10:28:19.001Z</time></trkpt><trkpt lat="44.069224540605916" lon="8.179338127342398"><ele>39.0</ele><time>2026-04-21T10:28:20.001Z</time></trkpt><trkpt lat="44.0693915758697" lon="8.179567199571924"><ele>39.0</ele><time>2026-04-21T10:28:21.001Z</time></trkpt><trkpt lat="44.06956079825712" lon="8.179799287740831"><ele>39.0</ele><time>2026-04-21T10:28:22.001Z</time></trkpt><trkpt lat="44.06973186693287" lon="8.180033923907956"><ele>38.5</ele><time>2026-04-21T10:28:23.001Z</time></trkpt><trkpt lat="44.06990482796688" lon="8.18026991095629"><ele>38.0</ele><time>2026-04-21T10:28:24Z</time></trkpt><trkpt lat="44.070078206447796" lon="8.180505780046152"><ele>37.0</ele><time>2026-04-21T10:28:25Z</time></trkpt><trkpt lat="44.07025277438374" lon="8.180745778963272"><ele>36.0</ele><time>2026-04-21T10:28:26Z</time></trkpt><trkpt lat="44.070430249298205" lon="8.180988148777944"><ele>36.0</ele><time>2026-04-21T10:28:27Z</time></trkpt><trkpt lat="44.07060846810174" lon="8.18123009676637"><ele>36.0</ele><time>2026-04-21T10:28:28Z</time></trkpt><trkpt lat="44.070787137527326" lon="8.181474241803647"><ele>35.5</ele><time>2026-04-21T10:28:29Z</time></trkpt><trkpt lat="44.070966796009564" lon="8.181716758048259"><ele>35.0</ele><time>2026-04-21T10:28:30Z</time></trkpt><trkpt lat="44.07114647449517" lon="8.181959905066583"><ele>35.0</ele><time>2026-04-21T10:28:31Z</time></trkpt><trkpt lat="44.071325838347654" lon="8.182201359942717"><ele>35.0</ele><time>2026-04-21T10:28:32Z</time></trkpt><trkpt lat="44.071502919869715" lon="8.18244643310638"><ele>34.0</ele><time>2026-04-21T10:28:33Z</time></trkpt><trkpt lat="44.07168140674192" lon="8.182692173938465"><ele>33.0</ele><time>2026-04-21T10:28:34Z</time></trkpt><trkpt lat="44.07185656945413" lon="8.182940555845445"><ele>32.5</ele><time>2026-04-21T10:28:35Z</time></trkpt><trkpt lat="44.07203635938776" lon="8.183188104125872"><ele>32.0</ele><time>2026-04-21T10:28:36Z</time></trkpt><trkpt lat="44.07222012343723" lon="8.183434833962236"><ele>32.0</ele><time>2026-04-21T10:28:37Z</time></trkpt><trkpt lat="44.072404311984045" lon="8.183681355953704"><ele>32.0</ele><time>2026-04-21T10:28:38Z</time></trkpt><trkpt lat="44.07258801706641" lon="8.18392897748781"><ele>30.5</ele><time>2026-04-21T10:28:39Z</time></trkpt><trkpt lat="44.07277246244211" lon="8.184179547821033"><ele>29.0</ele><time>2026-04-21T10:28:40Z</time></trkpt><trkpt lat="44.07295628946445" lon="8.184428832300014"><ele>29.0</ele><time>2026-04-21T10:28:41Z</time></trkpt><trkpt lat="44.073138257430735" lon="8.184678898394179"><ele>29.0</ele><time>2026-04-21T10:28:42Z</time></trkpt><trkpt lat="44.07332133670844" lon="8.184929661309457"><ele>28.5</ele><time>2026-04-21T10:28:43Z</time></trkpt><trkpt lat="44.07350653146294" lon="8.185178842683792"><ele>28.0</ele><time>2026-04-21T10:28:44Z</time></trkpt><trkpt lat="44.07369144011707" lon="8.18542843276622"><ele>28.0</ele><time>2026-04-21T10:28:45Z</time></trkpt><trkpt lat="44.07387714254866" lon="8.185678281492029"><ele>28.0</ele><time>2026-04-21T10:28:46Z</time></trkpt><trkpt lat="44.07406392702091" lon="8.185924707067548"><ele>27.5</ele><time>2026-04-21T10:28:47Z</time></trkpt><trkpt lat="44.07425032689929" lon="8.186169211126561"><ele>27.0</ele><time>2026-04-21T10:28:48Z</time></trkpt><trkpt lat="44.07443474817105" lon="8.186417497923257"><ele>27.5</ele><time>2026-04-21T10:28:49Z</time></trkpt><trkpt lat="44.074615790461394" lon="8.186665539593172"><ele>28.0</ele><time>2026-04-21T10:28:50Z</time></trkpt><trkpt lat="44.07479802377517" lon="8.186911255388573"><ele>28.0</ele><time>2026-04-21T10:28:51Z</time></trkpt><trkpt lat="44.07497871251622" lon="8.187156279810573"><ele>28.0</ele><time>2026-04-21T10:28:52Z</time></trkpt><trkpt lat="44.07515869340209" lon="8.187400818032664"><ele>28.0</ele><time>2026-04-21T10:28:53Z</time></trkpt><trkpt lat="44.07533812065468" lon="8.187644960976257"><ele>28.0</ele><time>2026-04-21T10:28:54Z</time></trkpt><trkpt lat="44.075515258937216" lon="8.187890642044236"><ele>28.0</ele><time>2026-04-21T10:28:55Z</time></trkpt><trkpt lat="44.07569256579629" lon="8.18813764112617"><ele>28.0</ele><time>2026-04-21T10:28:56Z</time></trkpt><trkpt lat="44.07586872721232" lon="8.188385347515114"><ele>29.0</ele><time>2026-04-21T10:28:57Z</time></trkpt><trkpt lat="44.07604294852469" lon="8.188632111680203"><ele>30.0</ele><time>2026-04-21T10:28:58Z</time></trkpt><trkpt lat="44.076216556692714" lon="8.188876806546803"><ele>30.5</ele><time>2026-04-21T10:28:59Z</time></trkpt><trkpt lat="44.076390462246486" lon="8.189121988095902"><ele>31.0</ele><time>2026-04-21T10:29:00Z</time></trkpt><trkpt lat="44.07656205697017" lon="8.189365555846699"><ele>32.5</ele><time>2026-04-21T10:29:01Z</time></trkpt><trkpt lat="44.07673341931218" lon="8.189607751545553"><ele>34.0</ele><time>2026-04-21T10:29:02Z</time></trkpt><trkpt lat="44.07690504264249" lon="8.189848580230084"><ele>35.0</ele><time>2026-04-21T10:29:03Z</time></trkpt><trkpt lat="44.07707443760509" lon="8.190091246444263"><ele>36.0</ele><time>2026-04-21T10:29:04Z</time></trkpt><trkpt lat="44.077242102317584" lon="8.19033667556312"><ele>36.0</ele><time>2026-04-21T10:29:05Z</time></trkpt><trkpt lat="44.07740869859796" lon="8.190585821813297"><ele>36.0</ele><time>2026-04-21T10:29:06Z</time></trkpt><trkpt lat="44.07757818162033" lon="8.190835624320941"><ele>36.5</ele><time>2026-04-21T10:29:07Z</time></trkpt><trkpt lat="44.07774911548913" lon="8.19108878958873"><ele>37.0</ele><time>2026-04-21T10:29:08Z</time></trkpt><trkpt lat="44.07792032084418" lon="8.1913451624611"><ele>35.5</ele><time>2026-04-21T10:29:09Z</time></trkpt><trkpt lat="44.07809085186477" lon="8.191602479599931"><ele>34.0</ele><time>2026-04-21T10:29:10Z</time></trkpt><trkpt lat="44.07826394572933" lon="8.191861645766334"><ele>34.0</ele><time>2026-04-21T10:29:11.001Z</time></trkpt><trkpt lat="44.07843778416582" lon="8.192125441267288"><ele>34.0</ele><time>2026-04-21T10:29:12.001Z</time></trkpt><trkpt lat="44.07861335628576" lon="8.192392932127815"><ele>34.0</ele><time>2026-04-21T10:29:13.001Z</time></trkpt><trkpt lat="44.07879061208717" lon="8.19266449006293"><ele>34.0</ele><time>2026-04-21T10:29:14.001Z</time></trkpt><trkpt lat="44.078965937291265" lon="8.192928721402172"><ele>34.5</ele><time>2026-04-21T10:29:15.001Z</time></trkpt><trkpt lat="44.079139750430265" lon="8.193189934338665"><ele>35.0</ele><time>2026-04-21T10:29:16.001Z</time></trkpt><trkpt lat="44.07931185523898" lon="8.193441903656822"><ele>35.0</ele><time>2026-04-21T10:29:17.001Z</time></trkpt><trkpt lat="44.07948167866409" lon="8.193694292023512"><ele>35.0</ele><time>2026-04-21T10:29:18.001Z</time></trkpt><trkpt lat="44.07965107877865" lon="8.193943677403324"><ele>34.0</ele><time>2026-04-21T10:29:19.001Z</time></trkpt><trkpt lat="44.079821753869965" lon="8.194193229114074"><ele>33.0</ele><time>2026-04-21T10:29:20.001Z</time></trkpt><trkpt lat="44.07999090127881" lon="8.194442613227679"><ele>33.0</ele><time>2026-04-21T10:29:21.001Z</time></trkpt><trkpt lat="44.08015994564695" lon="8.194690461432193"><ele>33.0</ele><time>2026-04-21T10:29:22.001Z</time></trkpt><trkpt lat="44.080327779967455" lon="8.194940044937285"><ele>30.5</ele><time>2026-04-21T10:29:23.001Z</time></trkpt><trkpt lat="44.080495901057795" lon="8.19519038306869"><ele>28.0</ele><time>2026-04-21T10:29:24.001Z</time></trkpt><trkpt lat="44.08066681676346" lon="8.195443890615374"><ele>30.5</ele><time>2026-04-21T10:29:25.001Z</time></trkpt><trkpt lat="44.08084020728771" lon="8.195696873131563"><ele>33.0</ele><time>2026-04-21T10:29:26.001Z</time></trkpt><trkpt lat="44.081015856434384" lon="8.195950075653029"><ele>33.0</ele><time>2026-04-21T10:29:27.001Z</time></trkpt><trkpt lat="44.081190880085416" lon="8.196203936000245"><ele>33.0</ele><time>2026-04-21T10:29:28.001Z</time></trkpt><trkpt lat="44.08136560982508" lon="8.196457237272249"><ele>33.5</ele><time>2026-04-21T10:29:29.001Z</time></trkpt><trkpt lat="44.08154181437614" lon="8.196712118762061"><ele>34.0</ele><time>2026-04-21T10:29:30.001Z</time></trkpt><trkpt lat="44.081717151548425" lon="8.196965175911997"><ele>34.0</ele><time>2026-04-21T10:29:31.001Z</time></trkpt><trkpt lat="44.08189226376161" lon="8.197217123365348"><ele>34.0</ele><time>2026-04-21T10:29:32.001Z</time></trkpt><trkpt lat="44.082065365168276" lon="8.197470061638668"><ele>32.0</ele><time>2026-04-21T10:29:33.001Z</time></trkpt><trkpt lat="44.08223539354353" lon="8.197723754074195"><ele>30.0</ele><time>2026-04-21T10:29:34.001Z</time></trkpt><trkpt lat="44.082404472736485" lon="8.197976663345"><ele>34.5</ele><time>2026-04-21T10:29:35.001Z</time></trkpt><trkpt lat="44.0825723522916" lon="8.198230664094929"><ele>39.0</ele><time>2026-04-21T10:29:36.001Z</time></trkpt><trkpt lat="44.08274021779454" lon="8.198482716321607"><ele>39.0</ele><time>2026-04-21T10:29:37.001Z</time></trkpt><trkpt lat="44.082911113800414" lon="8.198726699363355"><ele>39.0</ele><time>2026-04-21T10:29:38.001Z</time></trkpt><trkpt lat="44.08308176691173" lon="8.198972273716548"><ele>41.5</ele><time>2026-04-21T10:29:39.001Z</time></trkpt><trkpt lat="44.08324884432534" lon="8.199219982699098"><ele>44.0</ele><time>2026-04-21T10:29:40.001Z</time></trkpt><trkpt lat="44.083414703455595" lon="8.199466838482488"><ele>44.0</ele><time>2026-04-21T10:29:41.001Z</time></trkpt><trkpt lat="44.08357996101675" lon="8.199712309650803"><ele>44.0</ele><time>2026-04-21T10:29:42.001Z</time></trkpt><trkpt lat="44.08374429355377" lon="8.19995624067042"><ele>44.0</ele><time>2026-04-21T10:29:43.001Z</time></trkpt><trkpt lat="44.08390858955877" lon="8.200196698618518"><ele>44.0</ele><time>2026-04-21T10:29:44.001Z</time></trkpt><trkpt lat="44.08407180804645" lon="8.200439392473164"><ele>44.5</ele><time>2026-04-21T10:29:45.001Z</time></trkpt><trkpt lat="44.08423744463833" lon="8.200680637907231"><ele>45.0</ele><time>2026-04-21T10:29:46.001Z</time></trkpt><trkpt lat="44.084402086795166" lon="8.200918346523355"><ele>45.0</ele><time>2026-04-21T10:29:47.001Z</time></trkpt><trkpt lat="44.08456712238985" lon="8.2011558566102"><ele>45.0</ele><time>2026-04-21T10:29:48.001Z</time></trkpt><trkpt lat="44.084730042115595" lon="8.20139512248474"><ele>47.0</ele><time>2026-04-21T10:29:49.001Z</time></trkpt><trkpt lat="44.08489337966703" lon="8.201634103749365"><ele>49.0</ele><time>2026-04-21T10:29:50.001Z</time></trkpt><trkpt lat="44.08505816128715" lon="8.20187279338025"><ele>51.0</ele><time>2026-04-21T10:29:51.001Z</time></trkpt><trkpt lat="44.08522623081661" lon="8.202109816127988"><ele>53.0</ele><time>2026-04-21T10:29:52.001Z</time></trkpt><trkpt lat="44.08539550717741" lon="8.20234922074064"><ele>55.0</ele><time>2026-04-21T10:29:53.001Z</time></trkpt><trkpt lat="44.085566981858044" lon="8.202588306775525"><ele>57.0</ele><time>2026-04-21T10:29:54.001Z</time></trkpt><trkpt lat="44.08573030984752" lon="8.202828846772139"><ele>57.0</ele><time>2026-04-21T10:29:55.001Z</time></trkpt><trkpt lat="44.0858940059337" lon="8.203065346809113"><ele>57.0</ele><time>2026-04-21T10:29:56.001Z</time></trkpt><trkpt lat="44.08605627304644" lon="8.203303945449814"><ele>56.5</ele><time>2026-04-21T10:29:57.001Z</time></trkpt><trkpt lat="44.086221639776035" lon="8.203541193371581"><ele>56.0</ele><time>2026-04-21T10:29:58.001Z</time></trkpt><trkpt lat="44.086389692622085" lon="8.20377889599825"><ele>55.5</ele><time>2026-04-21T10:29:59.001Z</time></trkpt><trkpt lat="44.08655770105354" lon="8.204018327270843"><ele>55.0</ele><time>2026-04-21T10:30:00.001Z</time></trkpt><trkpt lat="44.08672650147221" lon="8.204254460465979"><ele>58.0</ele><time>2026-04-21T10:30:01.001Z</time></trkpt><trkpt lat="44.08689352334345" lon="8.204491276401505"><ele>61.0</ele><time>2026-04-21T10:30:02.001Z</time></trkpt><trkpt lat="44.08705914297418" lon="8.204728491873967"><ele>60.5</ele><time>2026-04-21T10:30:03.001Z</time></trkpt><trkpt lat="44.08722541192597" lon="8.2049692104465"><ele>60.0</ele><time>2026-04-21T10:30:04.001Z</time></trkpt><trkpt lat="44.087391373724444" lon="8.205207209643262"><ele>62.0</ele><time>2026-04-21T10:30:05.001Z</time></trkpt><trkpt lat="44.087563761357494" lon="8.205439561535837"><ele>64.0</ele><time>2026-04-21T10:30:06.001Z</time></trkpt><trkpt lat="44.087731823100086" lon="8.205676319481311"><ele>64.5</ele><time>2026-04-21T10:30:07.001Z</time></trkpt><trkpt lat="44.08790203817216" lon="8.205912756544361"><ele>65.0</ele><time>2026-04-21T10:30:08.001Z</time></trkpt><trkpt lat="44.08807516135511" lon="8.206149661567427"><ele>65.0</ele><time>2026-04-21T10:30:09.001Z</time></trkpt><trkpt lat="44.08824870243934" lon="8.206388788744354"><ele>65.0</ele><time>2026-04-21T10:30:10.001Z</time></trkpt><trkpt lat="44.088420567388134" lon="8.206628328023731"><ele>66.5</ele><time>2026-04-21T10:30:11.001Z</time></trkpt><trkpt lat="44.08859213987118" lon="8.20686790309335"><ele>68.0</ele><time>2026-04-21T10:30:12.001Z</time></trkpt><trkpt lat="44.08876536939644" lon="8.20711028896687"><ele>68.0</ele><time>2026-04-21T10:30:13.001Z</time></trkpt><trkpt lat="44.08893985698877" lon="8.207351193728101"><ele>68.0</ele><time>2026-04-21T10:30:14.001Z</time></trkpt><trkpt lat="44.08911252732586" lon="8.207590306994362"><ele>68.5</ele><time>2026-04-21T10:30:15.001Z</time></trkpt><trkpt lat="44.08928645573196" lon="8.207834788450542"><ele>69.0</ele><time>2026-04-21T10:30:16.001Z</time></trkpt><trkpt lat="44.08945942872576" lon="8.2080818154143"><ele>69.0</ele><time>2026-04-21T10:30:17.001Z</time></trkpt><trkpt lat="44.08963200342385" lon="8.208331101307518"><ele>69.0</ele><time>2026-04-21T10:30:18.001Z</time></trkpt><trkpt lat="44.08980567781017" lon="8.208579805837976"><ele>70.5</ele><time>2026-04-21T10:30:19.001Z</time></trkpt><trkpt lat="44.08998201026879" lon="8.20882454040368"><ele>72.0</ele><time>2026-04-21T10:30:20.001Z</time></trkpt><trkpt lat="44.09016017297297" lon="8.209073506025687"><ele>72.0</ele><time>2026-04-21T10:30:21.001Z</time></trkpt><trkpt lat="44.090341850564" lon="8.209325042497747"><ele>72.0</ele><time>2026-04-21T10:30:22.001Z</time></trkpt><trkpt lat="44.090523016598056" lon="8.209577186902926"><ele>72.5</ele><time>2026-04-21T10:30:23.001Z</time></trkpt><trkpt lat="44.09070285878981" lon="8.20982618843857"><ele>73.0</ele><time>2026-04-21T10:30:24.001Z</time></trkpt><trkpt lat="44.090874954219075" lon="8.21007588009694"><ele>73.0</ele><time>2026-04-21T10:30:25.001Z</time></trkpt><trkpt lat="44.091050473704975" lon="8.210322253399449"><ele>73.0</ele><time>2026-04-21T10:30:26.001Z</time></trkpt><trkpt lat="44.091225974502095" lon="8.210572427183044"><ele>71.5</ele><time>2026-04-21T10:30:27.001Z</time></trkpt><trkpt lat="44.09140181068453" lon="8.210824030745291"><ele>70.0</ele><time>2026-04-21T10:30:28.001Z</time></trkpt><trkpt lat="44.091581575130796" lon="8.211069943780606"><ele>69.5</ele><time>2026-04-21T10:30:29.001Z</time></trkpt><trkpt lat="44.091759637786524" lon="8.211320282770497"><ele>69.0</ele><time>2026-04-21T10:30:30Z</time></trkpt><trkpt lat="44.09193803507609" lon="8.211571565007633"><ele>67.5</ele><time>2026-04-21T10:30:31Z</time></trkpt><trkpt lat="44.09212129749273" lon="8.211816744112072"><ele>66.0</ele><time>2026-04-21T10:30:32Z</time></trkpt><trkpt lat="44.09230569899755" lon="8.212056564639015"><ele>66.5</ele><time>2026-04-21T10:30:33Z</time></trkpt><trkpt lat="44.09248749941322" lon="8.212301097774043"><ele>67.0</ele><time>2026-04-21T10:30:34Z</time></trkpt><trkpt lat="44.09266925665872" lon="8.212544679947543"><ele>66.0</ele><time>2026-04-21T10:30:35Z</time></trkpt><trkpt lat="44.092849673721126" lon="8.212790186845583"><ele>65.0</ele><time>2026-04-21T10:30:36Z</time></trkpt><trkpt lat="44.09302985792688" lon="8.213035529871883"><ele>65.0</ele><time>2026-04-21T10:30:37Z</time></trkpt><trkpt lat="44.093207245702224" lon="8.213283077143217"><ele>65.0</ele><time>2026-04-21T10:30:38Z</time></trkpt><trkpt lat="44.093381688317585" lon="8.213534029205604"><ele>64.5</ele><time>2026-04-21T10:30:39Z</time></trkpt><trkpt lat="44.09355162709124" lon="8.213791326493961"><ele>64.0</ele><time>2026-04-21T10:30:40Z</time></trkpt><trkpt lat="44.09372272268347" lon="8.214046751948224"><ele>64.0</ele><time>2026-04-21T10:30:41Z</time></trkpt><trkpt lat="44.09389700090874" lon="8.21429886764429"><ele>64.0</ele><time>2026-04-21T10:30:42Z</time></trkpt><trkpt lat="44.09407331295694" lon="8.214545585941199"><ele>64.5</ele><time>2026-04-21T10:30:43Z</time></trkpt><trkpt lat="44.09425079289941" lon="8.21479194694395"><ele>65.0</ele><time>2026-04-21T10:30:44Z</time></trkpt><trkpt lat="44.094429181157025" lon="8.215028666298139"><ele>65.0</ele><time>2026-04-21T10:30:45Z</time></trkpt><trkpt lat="44.09460578378052" lon="8.215276974030148"><ele>65.0</ele><time>2026-04-21T10:30:46Z</time></trkpt><trkpt lat="44.09478364729856" lon="8.215524953367433"><ele>62.5</ele><time>2026-04-21T10:30:47Z</time></trkpt><trkpt lat="44.09495955225375" lon="8.215771937417433"><ele>60.0</ele><time>2026-04-21T10:30:48Z</time></trkpt><trkpt lat="44.09513572332707" lon="8.216021811850618"><ele>60.0</ele><time>2026-04-21T10:30:49Z</time></trkpt><trkpt lat="44.09531071524329" lon="8.216268198455154"><ele>60.0</ele><time>2026-04-21T10:30:50Z</time></trkpt><trkpt lat="44.09548232398473" lon="8.21651820711441"><ele>59.0</ele><time>2026-04-21T10:30:51Z</time></trkpt><trkpt lat="44.09565689873643" lon="8.216764893107333"><ele>58.0</ele><time>2026-04-21T10:30:52Z</time></trkpt><trkpt lat="44.095832468914345" lon="8.217009251380235"><ele>57.5</ele><time>2026-04-21T10:30:53Z</time></trkpt><trkpt lat="44.096006880123156" lon="8.217253382457582"><ele>57.0</ele><time>2026-04-21T10:30:54Z</time></trkpt><trkpt lat="44.09618301555143" lon="8.217498165186283"><ele>57.0</ele><time>2026-04-21T10:30:55Z</time></trkpt><trkpt lat="44.09636033190614" lon="8.217745765783715"><ele>57.0</ele><time>2026-04-21T10:30:56Z</time></trkpt><trkpt lat="44.09653599053021" lon="8.21799257163189"><ele>54.0</ele><time>2026-04-21T10:30:57Z</time></trkpt><trkpt lat="44.09670975820091" lon="8.218238085658042"><ele>51.0</ele><time>2026-04-21T10:30:58Z</time></trkpt><trkpt lat="44.09688120014102" lon="8.21848337388017"><ele>51.0</ele><time>2026-04-21T10:30:59Z</time></trkpt><trkpt lat="44.097051666307394" lon="8.218724121094393"><ele>51.0</ele><time>2026-04-21T10:31:00Z</time></trkpt><trkpt lat="44.09722118764228" lon="8.218961936101548"><ele>53.5</ele><time>2026-04-21T10:31:01Z</time></trkpt><trkpt lat="44.09739070937228" lon="8.219195397633962"><ele>56.0</ele><time>2026-04-21T10:31:02Z</time></trkpt><trkpt lat="44.09756105494502" lon="8.219426595305531"><ele>56.0</ele><time>2026-04-21T10:31:03Z</time></trkpt><trkpt lat="44.09773009065224" lon="8.219659219752991"><ele>56.0</ele><time>2026-04-21T10:31:04Z</time></trkpt><trkpt lat="44.09789800355796" lon="8.219893425266616"><ele>55.5</ele><time>2026-04-21T10:31:05Z</time></trkpt><trkpt lat="44.098067339910436" lon="8.220125346609793"><ele>55.0</ele><time>2026-04-21T10:31:06Z</time></trkpt><trkpt lat="44.098231513086226" lon="8.22036407963266"><ele>63.0</ele><time>2026-04-21T10:31:07Z</time></trkpt><trkpt lat="44.09839539132721" lon="8.220603357226237"><ele>71.0</ele><time>2026-04-21T10:31:08Z</time></trkpt><trkpt lat="44.0985557619447" lon="8.220850713511583"><ele>71.0</ele><time>2026-04-21T10:31:09Z</time></trkpt><trkpt lat="44.09870717907551" lon="8.221108952124448"><ele>71.0</ele><time>2026-04-21T10:31:10Z</time></trkpt><trkpt lat="44.09885463535836" lon="8.221371230295578"><ele>70.5</ele><time>2026-04-21T10:31:11Z</time></trkpt><trkpt lat="44.099002929044424" lon="8.22163221801138"><ele>70.0</ele><time>2026-04-21T10:31:12Z</time></trkpt><trkpt lat="44.09914994598928" lon="8.221897520992146"><ele>71.5</ele><time>2026-04-21T10:31:13Z</time></trkpt><trkpt lat="44.09929491430918" lon="8.222166235146751"><ele>73.0</ele><time>2026-04-21T10:31:14Z</time></trkpt><trkpt lat="44.09943692587129" lon="8.222438230745475"><ele>73.0</ele><time>2026-04-21T10:31:15Z</time></trkpt><trkpt lat="44.09957643306955" lon="8.222715967222468"><ele>73.0</ele><time>2026-04-21T10:31:16Z</time></trkpt><trkpt lat="44.099711356580116" lon="8.22299480625363"><ele>70.0</ele><time>2026-04-21T10:31:17Z</time></trkpt><trkpt lat="44.099842255984356" lon="8.22327766279048"><ele>67.0</ele><time>2026-04-21T10:31:18Z</time></trkpt><trkpt lat="44.09997128184456" lon="8.223561789904899"><ele>69.0</ele><time>2026-04-21T10:31:19Z</time></trkpt><trkpt lat="44.100097572998074" lon="8.223850145029283"><ele>71.0</ele><time>2026-04-21T10:31:20Z</time></trkpt><trkpt lat="44.10021922408899" lon="8.224143811481442"><ele>71.0</ele><time>2026-04-21T10:31:21Z</time></trkpt><trkpt lat="44.100337238971925" lon="8.224442389297717"><ele>71.0</ele><time>2026-04-21T10:31:22Z</time></trkpt><trkpt lat="44.10044808481518" lon="8.224742381145939"><ele>66.0</ele><time>2026-04-21T10:31:23.001Z</time></trkpt><trkpt lat="44.10056036815899" lon="8.225040428944467"><ele>61.0</ele><time>2026-04-21T10:31:24.001Z</time></trkpt><trkpt lat="44.100673057784775" lon="8.22533807837797"><ele>67.0</ele><time>2026-04-21T10:31:25.001Z</time></trkpt><trkpt lat="44.10078835941139" lon="8.225633058321625"><ele>73.0</ele><time>2026-04-21T10:31:26.001Z</time></trkpt><trkpt lat="44.10090284185798" lon="8.225929513673304"><ele>73.0</ele><time>2026-04-21T10:31:27.001Z</time></trkpt><trkpt lat="44.10101771287232" lon="8.226227419166023"><ele>73.0</ele><time>2026-04-21T10:31:28.001Z</time></trkpt><trkpt lat="44.10113094296839" lon="8.226525898660325"><ele>71.5</ele><time>2026-04-21T10:31:29.001Z</time></trkpt><trkpt lat="44.10125503098756" lon="8.226817392610156"><ele>70.0</ele><time>2026-04-21T10:31:30.001Z</time></trkpt><trkpt lat="44.10138589808465" lon="8.227105690859139"><ele>67.5</ele><time>2026-04-21T10:31:31.001Z</time></trkpt><trkpt lat="44.101528414578866" lon="8.227380585312995"><ele>65.0</ele><time>2026-04-21T10:31:32.001Z</time></trkpt><trkpt lat="44.10167300148487" lon="8.227654251450167"><ele>72.5</ele><time>2026-04-21T10:31:33.001Z</time></trkpt><trkpt lat="44.101823391584645" lon="8.227922756258332"><ele>80.0</ele><time>2026-04-21T10:31:34.001Z</time></trkpt><trkpt lat="44.10197920794978" lon="8.228181710751901"><ele>80.0</ele><time>2026-04-21T10:31:35.001Z</time></trkpt><trkpt lat="44.10213949871374" lon="8.228436290739403"><ele>80.0</ele><time>2026-04-21T10:31:36.001Z</time></trkpt><trkpt lat="44.10230979808285" lon="8.228684509334155"><ele>84.5</ele><time>2026-04-21T10:31:37.001Z</time></trkpt><trkpt lat="44.10248756082656" lon="8.228926246904729"><ele>89.0</ele><time>2026-04-21T10:31:38.001Z</time></trkpt><trkpt lat="44.10266807331115" lon="8.229160863181619"><ele>89.0</ele><time>2026-04-21T10:31:39.001Z</time></trkpt><trkpt lat="44.102849740959705" lon="8.229390115460333"><ele>89.0</ele><time>2026-04-21T10:31:40.001Z</time></trkpt><trkpt lat="44.103039420232456" lon="8.22961172063187"><ele>90.5</ele><time>2026-04-21T10:31:41.001Z</time></trkpt><trkpt lat="44.10323576771585" lon="8.229830961323799"><ele>92.0</ele><time>2026-04-21T10:31:42.001Z</time></trkpt><trkpt lat="44.10343789683411" lon="8.230044717984104"><ele>110.5</ele><time>2026-04-21T10:31:43.001Z</time></trkpt><trkpt lat="44.103647172675494" lon="8.23024890597476"><ele>129.0</ele><time>2026-04-21T10:31:44.001Z</time></trkpt><trkpt lat="44.10386647600748" lon="8.230444175564974"><ele>149.0</ele><time>2026-04-21T10:31:45.001Z</time></trkpt><trkpt lat="44.10409019278618" lon="8.230638786666795"><ele>169.0</ele><time>2026-04-21T10:31:46.001Z</time></trkpt><trkpt lat="44.1043196270926" lon="8.230823785376893"><ele>177.5</ele><time>2026-04-21T10:31:47.001Z</time></trkpt><trkpt lat="44.10456701468649" lon="8.231010989025389"><ele>186.0</ele><time>2026-04-21T10:31:48.068Z</time></trkpt><trkpt lat="44.10479943041143" lon="8.231177352984218"><ele>190.5</ele><time>2026-04-21T10:31:49.061Z</time></trkpt><trkpt lat="44.105035827979485" lon="8.231341032009446"><ele>195.0</ele><time>2026-04-21T10:31:50.064Z</time></trkpt><trkpt lat="44.10792451055017" lon="8.231987016290594"><ele>78.0</ele><time>2026-04-21T10:31:54.523Z</time></trkpt><trkpt lat="44.11002362070861" lon="8.231636933718752"><ele>78.0</ele><time>2026-04-21T10:32:10.001Z</time></trkpt><trkpt lat="44.1102749863272" lon="8.231578464962997"><ele>78.0</ele><time>2026-04-21T10:32:11.001Z</time></trkpt><trkpt lat="44.11048976184999" lon="8.231456866349696"><ele>74.0</ele><time>2026-04-21T10:32:12.001Z</time></trkpt><trkpt lat="44.11071151503444" lon="8.231349726698499"><ele>70.0</ele><time>2026-04-21T10:32:13.001Z</time></trkpt><trkpt lat="44.11094002538846" lon="8.231228834108716"><ele>70.0</ele><time>2026-04-21T10:32:14.001Z</time></trkpt><trkpt lat="44.111164779720696" lon="8.231096418893015"><ele>70.0</ele><time>2026-04-21T10:32:15.001Z</time></trkpt><trkpt lat="44.11138769698102" lon="8.230946771321099"><ele>64.5</ele><time>2026-04-21T10:32:16.001Z</time></trkpt><trkpt lat="44.11161138159142" lon="8.23079154891655"><ele>59.0</ele><time>2026-04-21T10:32:17.001Z</time></trkpt><trkpt lat="44.1118334570644" lon="8.230635703309263"><ele>59.0</ele><time>2026-04-21T10:32:18.001Z</time></trkpt><trkpt lat="44.1120554950382" lon="8.230479567397715"><ele>59.0</ele><time>2026-04-21T10:32:19.001Z</time></trkpt><trkpt lat="44.11227744648392" lon="8.23031886916702"><ele>60.0</ele><time>2026-04-21T10:32:20.001Z</time></trkpt><trkpt lat="44.112503685227075" lon="8.230153105924881"><ele>61.0</ele><time>2026-04-21T10:32:21.001Z</time></trkpt><trkpt lat="44.11273033816964" lon="8.229986542549316"><ele>61.0</ele><time>2026-04-21T10:32:22.001Z</time></trkpt><trkpt lat="44.11295861614429" lon="8.229817890590144"><ele>61.0</ele><time>2026-04-21T10:32:23.001Z</time></trkpt><trkpt lat="44.11318664511596" lon="8.229649648035833"><ele>57.0</ele><time>2026-04-21T10:32:24.001Z</time></trkpt><trkpt lat="44.11341751533064" lon="8.22948212568386"><ele>53.0</ele><time>2026-04-21T10:32:25.001Z</time></trkpt><trkpt lat="44.11364841513451" lon="8.22931820442896"><ele>53.0</ele><time>2026-04-21T10:32:26.001Z</time></trkpt><trkpt lat="44.11388060125269" lon="8.229153527724575"><ele>53.0</ele><time>2026-04-21T10:32:27.001Z</time></trkpt><trkpt lat="44.11411230081107" lon="8.228987308015668"><ele>54.5</ele><time>2026-04-21T10:32:28.001Z</time></trkpt><trkpt lat="44.11434390681368" lon="8.22882300522376"><ele>56.0</ele><time>2026-04-21T10:32:29.001Z</time></trkpt><trkpt lat="44.114576619063754" lon="8.228661484480654"><ele>56.0</ele><time>2026-04-21T10:32:30.001Z</time></trkpt><trkpt lat="44.11480835728052" lon="8.228502713310869"><ele>56.0</ele><time>2026-04-21T10:32:31.001Z</time></trkpt><trkpt lat="44.11503097779278" lon="8.22834733296437"><ele>52.0</ele><time>2026-04-21T10:32:32.001Z</time></trkpt><trkpt lat="44.1152465226324" lon="8.22819510933599"><ele>48.0</ele><time>2026-04-21T10:32:33.001Z</time></trkpt><trkpt lat="44.115455529251555" lon="8.228042989711543"><ele>49.0</ele><time>2026-04-21T10:32:34.001Z</time></trkpt><trkpt lat="44.11566634374777" lon="8.227886705616937"><ele>50.0</ele><time>2026-04-21T10:32:35.001Z</time></trkpt><trkpt lat="44.11588675383774" lon="8.227729254559051"><ele>50.0</ele><time>2026-04-21T10:32:36Z</time></trkpt><trkpt lat="44.11611375306095" lon="8.227568879142048"><ele>50.0</ele><time>2026-04-21T10:32:37Z</time></trkpt><trkpt lat="44.116343225963604" lon="8.227409361063343"><ele>46.0</ele><time>2026-04-21T10:32:38Z</time></trkpt><trkpt lat="44.116575925878095" lon="8.22724596265573"><ele>42.0</ele><time>2026-04-21T10:32:39Z</time></trkpt><trkpt lat="44.116810970992454" lon="8.227079044844192"><ele>42.0</ele><time>2026-04-21T10:32:40Z</time></trkpt><trkpt lat="44.117044068696366" lon="8.226913350853456"><ele>42.0</ele><time>2026-04-21T10:32:41Z</time></trkpt><trkpt lat="44.11726639757872" lon="8.226755804520415"><ele>39.0</ele><time>2026-04-21T10:32:42Z</time></trkpt><trkpt lat="44.11749135849179" lon="8.22659839411597"><ele>36.0</ele><time>2026-04-21T10:32:43Z</time></trkpt><trkpt lat="44.11771809152853" lon="8.226444661998062"><ele>36.0</ele><time>2026-04-21T10:32:44Z</time></trkpt><trkpt lat="44.117947346349354" lon="8.226294396548198"><ele>36.0</ele><time>2026-04-21T10:32:45Z</time></trkpt><trkpt lat="44.11817043749861" lon="8.226153444161938"><ele>28.5</ele><time>2026-04-21T10:32:46Z</time></trkpt><trkpt lat="44.11838578299219" lon="8.226025228514777"><ele>21.0</ele><time>2026-04-21T10:32:47Z</time></trkpt><trkpt lat="44.11860358073918" lon="8.225904937663552"><ele>21.0</ele><time>2026-04-21T10:32:48Z</time></trkpt><trkpt lat="44.11881590267919" lon="8.225796313350367"><ele>21.0</ele><time>2026-04-21T10:32:49Z</time></trkpt><trkpt lat="44.119020482105896" lon="8.22570262736844"><ele>21.0</ele><time>2026-04-21T10:32:50Z</time></trkpt><trkpt lat="44.11921561059124" lon="8.225619827037224"><ele>21.333333333333332</ele><time>2026-04-21T10:32:51Z</time></trkpt><trkpt lat="44.119410207055786" lon="8.225543127145688"><ele>21.666666666666664</ele><time>2026-04-21T10:32:52Z</time></trkpt><trkpt lat="44.119600591594924" lon="8.22547365070862"><ele>22.0</ele><time>2026-04-21T10:32:53Z</time></trkpt><trkpt lat="44.11978364677967" lon="8.225409473705625"><ele>21.666666666666664</ele><time>2026-04-21T10:32:54Z</time></trkpt><trkpt lat="44.11996455636026" lon="8.225344718381006"><ele>21.333333333333332</ele><time>2026-04-21T10:32:55Z</time></trkpt><trkpt lat="44.12013950461856" lon="8.225289191342414"><ele>21.0</ele><time>2026-04-21T10:32:56Z</time></trkpt><trkpt lat="44.1203235776899" lon="8.225236067337379"><ele>21.0</ele><time>2026-04-21T10:32:57Z</time></trkpt><trkpt lat="44.12050921604446" lon="8.225189742861614"><ele>21.0</ele><time>2026-04-21T10:32:58Z</time></trkpt><trkpt lat="44.1206873337081" lon="8.225159688559803"><ele>21.0</ele><time>2026-04-21T10:32:59Z</time></trkpt><trkpt lat="44.12087294876449" lon="8.225136848583041"><ele>21.0</ele><time>2026-04-21T10:33:00Z</time></trkpt><trkpt lat="44.121064822663705" lon="8.225111057323561"><ele>21.0</ele><time>2026-04-21T10:33:01Z</time></trkpt><trkpt lat="44.121255260229695" lon="8.225083689261028"><ele>21.0</ele><time>2026-04-21T10:33:02Z</time></trkpt><trkpt lat="44.1214525598493" lon="8.225061204495267"><ele>21.333333333333332</ele><time>2026-04-21T10:33:03Z</time></trkpt><trkpt lat="44.121658960486215" lon="8.225049626822392"><ele>21.666666666666664</ele><time>2026-04-21T10:33:04Z</time></trkpt><trkpt lat="44.12186181712599" lon="8.225045231511839"><ele>22.0</ele><time>2026-04-21T10:33:05Z</time></trkpt><trkpt lat="44.122056832933175" lon="8.225048925959044"><ele>22.0</ele><time>2026-04-21T10:33:06Z</time></trkpt><trkpt lat="44.12225058921512" lon="8.225055965770546"><ele>22.0</ele><time>2026-04-21T10:33:07Z</time></trkpt><trkpt lat="44.12244483872269" lon="8.225069092075323"><ele>22.0</ele><time>2026-04-21T10:33:08Z</time></trkpt><trkpt lat="44.12263404447594" lon="8.225085261748855"><ele>23.0</ele><time>2026-04-21T10:33:09Z</time></trkpt><trkpt lat="44.12282165566593" lon="8.225104822929818"><ele>24.0</ele><time>2026-04-21T10:33:10Z</time></trkpt><trkpt lat="44.1230023468225" lon="8.225129482077428"><ele>25.0</ele><time>2026-04-21T10:33:11Z</time></trkpt><trkpt lat="44.12317530113596" lon="8.225157661073261"><ele>27.0</ele><time>2026-04-21T10:33:12Z</time></trkpt><trkpt lat="44.123347446677386" lon="8.225190710281513"><ele>29.0</ele><time>2026-04-21T10:33:13Z</time></trkpt><trkpt lat="44.12352029000496" lon="8.22522935561762"><ele>31.0</ele><time>2026-04-21T10:33:14Z</time></trkpt><trkpt lat="44.1236981127442" lon="8.225272981350196"><ele>31.0</ele><time>2026-04-21T10:33:15Z</time></trkpt><trkpt lat="44.123875371795634" lon="8.225318127187123"><ele>31.0</ele><time>2026-04-21T10:33:16Z</time></trkpt><trkpt lat="44.12406210962426" lon="8.22537667074758"><ele>31.0</ele><time>2026-04-21T10:33:17Z</time></trkpt><trkpt lat="44.12425834303721" lon="8.225431050252682"><ele>31.0</ele><time>2026-04-21T10:33:18Z</time></trkpt><trkpt lat="44.12445780771684" lon="8.225500686233763"><ele>31.0</ele><time>2026-04-21T10:33:19Z</time></trkpt><trkpt lat="44.12464210551747" lon="8.225575906937044"><ele>31.0</ele><time>2026-04-21T10:33:20Z</time></trkpt><trkpt lat="44.12482915840168" lon="8.225656206837806"><ele>32.66666666666667</ele><time>2026-04-21T10:33:21Z</time></trkpt><trkpt lat="44.125021395293984" lon="8.225744919538764"><ele>34.333333333333336</ele><time>2026-04-21T10:33:22Z</time></trkpt><trkpt lat="44.12521781517067" lon="8.225838106497052"><ele>36.0</ele><time>2026-04-21T10:33:23Z</time></trkpt><trkpt lat="44.12541104416729" lon="8.225934418966842"><ele>36.0</ele><time>2026-04-21T10:33:24Z</time></trkpt><trkpt lat="44.125601975880144" lon="8.226041359479883"><ele>36.0</ele><time>2026-04-21T10:33:25Z</time></trkpt><trkpt lat="44.12578861283771" lon="8.226155007518399"><ele>36.0</ele><time>2026-04-21T10:33:26Z</time></trkpt><trkpt lat="44.12596194445561" lon="8.22626729559627"><ele>36.666666666666664</ele><time>2026-04-21T10:33:27Z</time></trkpt><trkpt lat="44.12613248934645" lon="8.226384183285203"><ele>37.33333333333333</ele><time>2026-04-21T10:33:28Z</time></trkpt><trkpt lat="44.12630273119785" lon="8.226504720481122"><ele>38.0</ele><time>2026-04-21T10:33:29Z</time></trkpt><trkpt lat="44.12647260192089" lon="8.226630690528328"><ele>42.0</ele><time>2026-04-21T10:33:30Z</time></trkpt><trkpt lat="44.126638613324594" lon="8.226764135173996"><ele>46.0</ele><time>2026-04-21T10:33:31Z</time></trkpt><trkpt lat="44.12679711218919" lon="8.226898822167204"><ele>50.0</ele><time>2026-04-21T10:33:32Z</time></trkpt><trkpt lat="44.12695125511475" lon="8.227031265247657"><ele>50.0</ele><time>2026-04-21T10:33:33Z</time></trkpt><trkpt lat="44.12710709283287" lon="8.227171704385134"><ele>50.0</ele><time>2026-04-21T10:33:34Z</time></trkpt><trkpt lat="44.127254098150885" lon="8.22730926204283"><ele>50.0</ele><time>2026-04-21T10:33:35Z</time></trkpt><trkpt lat="44.12739536672987" lon="8.227445897344625"><ele>53.66666666666667</ele><time>2026-04-21T10:33:36Z</time></trkpt><trkpt lat="44.12753212805417" lon="8.227585456155781"><ele>57.33333333333333</ele><time>2026-04-21T10:33:37Z</time></trkpt><trkpt lat="44.12766549568485" lon="8.227727154319176"><ele>61.0</ele><time>2026-04-21T10:33:38Z</time></trkpt><trkpt lat="44.12780023970425" lon="8.227869339307688"><ele>61.0</ele><time>2026-04-21T10:33:39Z</time></trkpt><trkpt lat="44.127938075300754" lon="8.228020587690521"><ele>61.0</ele><time>2026-04-21T10:33:40Z</time></trkpt><trkpt lat="44.12807782692558" lon="8.228180714391728"><ele>61.0</ele><time>2026-04-21T10:33:41.001Z</time></trkpt><trkpt lat="44.1282136090824" lon="8.228342198381245"><ele>68.0</ele><time>2026-04-21T10:33:42.001Z</time></trkpt><trkpt lat="44.128347802633066" lon="8.228508607540624"><ele>75.0</ele><time>2026-04-21T10:33:43.001Z</time></trkpt><trkpt lat="44.12849075560638" lon="8.228696381926683"><ele>82.0</ele><time>2026-04-21T10:33:44.07Z</time></trkpt><trkpt lat="44.12861924200296" lon="8.228868190051047"><ele>80.0</ele><time>2026-04-21T10:33:45.058Z</time></trkpt><trkpt lat="44.12874433554861" lon="8.229044403377113"><ele>78.0</ele><time>2026-04-21T10:33:46.059Z</time></trkpt><trkpt lat="44.12948813733473" lon="8.230084133461618"><ele>73.0</ele><time>2026-04-21T10:33:52.001Z</time></trkpt><trkpt lat="44.12960607561253" lon="8.23026932297295"><ele>68.0</ele><time>2026-04-21T10:33:53.001Z</time></trkpt><trkpt lat="44.12969367597916" lon="8.230513191580501"><ele>63.0</ele><time>2026-04-21T10:33:54.001Z</time></trkpt><trkpt lat="44.12977447927379" lon="8.230742426189297"><ele>59.66666666666667</ele><time>2026-04-21T10:33:55.001Z</time></trkpt><trkpt lat="44.12985515080236" lon="8.230960107202945"><ele>56.333333333333336</ele><time>2026-04-21T10:33:56.001Z</time></trkpt><trkpt lat="44.129948621847355" lon="8.231194639670301"><ele>53.0</ele><time>2026-04-21T10:33:57.001Z</time></trkpt><trkpt lat="44.13005211565524" lon="8.231425812280479"><ele>53.0</ele><time>2026-04-21T10:33:58.001Z</time></trkpt><trkpt lat="44.13014265356906" lon="8.231639888167548"><ele>53.0</ele><time>2026-04-21T10:33:59.001Z</time></trkpt><trkpt lat="44.130233360580256" lon="8.231847005923695"><ele>53.0</ele><time>2026-04-21T10:34:00.001Z</time></trkpt><trkpt lat="44.13032109327516" lon="8.232067245170782"><ele>53.0</ele><time>2026-04-21T10:34:01.001Z</time></trkpt><trkpt lat="44.13041126589408" lon="8.23229518705929"><ele>53.0</ele><time>2026-04-21T10:34:02.001Z</time></trkpt><trkpt lat="44.13049974994899" lon="8.232528166422325"><ele>53.0</ele><time>2026-04-21T10:34:03.001Z</time></trkpt><trkpt lat="44.13058843279895" lon="8.232766517001616"><ele>56.66666666666667</ele><time>2026-04-21T10:34:04.001Z</time></trkpt><trkpt lat="44.13067483736605" lon="8.23299727053955"><ele>60.33333333333333</ele><time>2026-04-21T10:34:05.001Z</time></trkpt><trkpt lat="44.13076504051297" lon="8.233234805628172"><ele>64.0</ele><time>2026-04-21T10:34:06.001Z</time></trkpt><trkpt lat="44.13085509904415" lon="8.233482299001123"><ele>70.33333333333333</ele><time>2026-04-21T10:34:07.001Z</time></trkpt><trkpt lat="44.13094739647046" lon="8.233732354624706"><ele>76.66666666666667</ele><time>2026-04-21T10:34:08.001Z</time></trkpt><trkpt lat="44.13103982370611" lon="8.233975343853075"><ele>83.0</ele><time>2026-04-21T10:34:09.001Z</time></trkpt><trkpt lat="44.13113551941664" lon="8.234216389582539"><ele>85.0</ele><time>2026-04-21T10:34:10.001Z</time></trkpt><trkpt lat="44.131240873579145" lon="8.23447287030695"><ele>87.0</ele><time>2026-04-21T10:34:11.063Z</time></trkpt><trkpt lat="44.131346031679804" lon="8.234705079372642"><ele>89.0</ele><time>2026-04-21T10:34:12.064Z</time></trkpt><trkpt lat="44.13145493088099" lon="8.234936960057063"><ele>82.0</ele><time>2026-04-21T10:34:13.061Z</time></trkpt><trkpt lat="44.131571326482955" lon="8.235175597015845"><ele>75.0</ele><time>2026-04-21T10:34:14.062Z</time></trkpt><trkpt lat="44.13177889916622" lon="8.235584115822638"><ele>70.33333333333333</ele><time>2026-04-21T10:34:16.001Z</time></trkpt><trkpt lat="44.13188360162081" lon="8.235818117513858"><ele>65.66666666666666</ele><time>2026-04-21T10:34:17.001Z</time></trkpt><trkpt lat="44.132004533594355" lon="8.236054504629106"><ele>61.0</ele><time>2026-04-21T10:34:18.001Z</time></trkpt><trkpt lat="44.13213044828646" lon="8.236290319055188"><ele>59.666666666666664</ele><time>2026-04-21T10:34:19.001Z</time></trkpt><trkpt lat="44.13226759626972" lon="8.236532229738001"><ele>58.33333333333333</ele><time>2026-04-21T10:34:20.001Z</time></trkpt><trkpt lat="44.13240735148921" lon="8.236781322575816"><ele>57.0</ele><time>2026-04-21T10:34:21.001Z</time></trkpt><trkpt lat="44.13255322881298" lon="8.237032983736386"><ele>57.0</ele><time>2026-04-21T10:34:22.001Z</time></trkpt><trkpt lat="44.13270844258628" lon="8.237284223270642"><ele>57.0</ele><time>2026-04-21T10:34:23.001Z</time></trkpt><trkpt lat="44.13287000645087" lon="8.237531871533934"><ele>56.5</ele><time>2026-04-21T10:34:24.001Z</time></trkpt><trkpt lat="44.13303109371989" lon="8.237771424827988"><ele>56.0</ele><time>2026-04-21T10:34:25.001Z</time></trkpt><trkpt lat="44.133194738672906" lon="8.23800969517327"><ele>58.0</ele><time>2026-04-21T10:34:26.001Z</time></trkpt><trkpt lat="44.133363947539756" lon="8.238243625990034"><ele>60.0</ele><time>2026-04-21T10:34:27.001Z</time></trkpt><trkpt lat="44.13354192590318" lon="8.238480205746768"><ele>60.0</ele><time>2026-04-21T10:34:28.001Z</time></trkpt><trkpt lat="44.133722561573045" lon="8.238717686560577"><ele>60.0</ele><time>2026-04-21T10:34:29.001Z</time></trkpt><trkpt lat="44.133910720693166" lon="8.238951076893239"><ele>59.5</ele><time>2026-04-21T10:34:30.001Z</time></trkpt><trkpt lat="44.13410539228453" lon="8.239180617767326"><ele>59.0</ele><time>2026-04-21T10:34:31.001Z</time></trkpt><trkpt lat="44.13429915180062" lon="8.239403625434642"><ele>59.0</ele><time>2026-04-21T10:34:32.001Z</time></trkpt><trkpt lat="44.13449326794671" lon="8.23961834737462"><ele>59.0</ele><time>2026-04-21T10:34:33.001Z</time></trkpt><trkpt lat="44.134683941724575" lon="8.239820536442997"><ele>63.0</ele><time>2026-04-21T10:34:34.001Z</time></trkpt><trkpt lat="44.134875299382074" lon="8.2400205121775"><ele>67.0</ele><time>2026-04-21T10:34:35.001Z</time></trkpt><trkpt lat="44.13507057086695" lon="8.240219045634962"><ele>71.5</ele><time>2026-04-21T10:34:36.001Z</time></trkpt><trkpt lat="44.135271073211854" lon="8.240412133927922"><ele>76.0</ele><time>2026-04-21T10:34:37.001Z</time></trkpt><trkpt lat="44.135481318889916" lon="8.240590950671377"><ele>76.5</ele><time>2026-04-21T10:34:38.001Z</time></trkpt><trkpt lat="44.13569576241" lon="8.240762424203457"><ele>77.0</ele><time>2026-04-21T10:34:39.001Z</time></trkpt><trkpt lat="44.13591375197524" lon="8.240929561970512"><ele>78.0</ele><time>2026-04-21T10:34:40.001Z</time></trkpt><trkpt lat="44.1361466931992" lon="8.241103735298053"><ele>79.0</ele><time>2026-04-21T10:34:41.064Z</time></trkpt><trkpt lat="44.13636020779999" lon="8.241280467848352"><ele>80.0</ele><time>2026-04-21T10:34:42.059Z</time></trkpt><trkpt lat="44.13657210401494" lon="8.241462886975942"><ele>81.0</ele><time>2026-04-21T10:34:43.066Z</time></trkpt><trkpt lat="44.13677907192893" lon="8.241641326037186"><ele>76.0</ele><time>2026-04-21T10:34:44.064Z</time></trkpt><trkpt lat="44.137070466956246" lon="8.242050066782761"><ele>71.0</ele><time>2026-04-21T10:34:46Z</time></trkpt><trkpt lat="44.137267294267154" lon="8.242215333516747"><ele>64.33333333333334</ele><time>2026-04-21T10:34:47Z</time></trkpt><trkpt lat="44.13746314439663" lon="8.242335910228155"><ele>57.66666666666667</ele><time>2026-04-21T10:34:48Z</time></trkpt><trkpt lat="44.13766289165085" lon="8.242494084863665"><ele>51.0</ele><time>2026-04-21T10:34:49Z</time></trkpt><trkpt lat="44.137860089332" lon="8.24267467354306"><ele>51.0</ele><time>2026-04-21T10:34:50Z</time></trkpt><trkpt lat="44.13807156192457" lon="8.2428558703302"><ele>51.0</ele><time>2026-04-21T10:34:51Z</time></trkpt><trkpt lat="44.13829283123581" lon="8.243027043439431"><ele>54.5</ele><time>2026-04-21T10:34:52Z</time></trkpt><trkpt lat="44.13849401115777" lon="8.243201720276335"><ele>58.0</ele><time>2026-04-21T10:34:53Z</time></trkpt><trkpt lat="44.138687919484404" lon="8.243370664098666"><ele>58.0</ele><time>2026-04-21T10:34:54Z</time></trkpt><trkpt lat="44.13888842015003" lon="8.243544913922785"><ele>58.0</ele><time>2026-04-21T10:34:55Z</time></trkpt><trkpt lat="44.13909121215565" lon="8.243718811029183"><ele>60.0</ele><time>2026-04-21T10:34:56Z</time></trkpt><trkpt lat="44.13929742343277" lon="8.243897254914994"><ele>62.0</ele><time>2026-04-21T10:34:57Z</time></trkpt><trkpt lat="44.13950336178143" lon="8.244079409494727"><ele>62.0</ele><time>2026-04-21T10:34:58Z</time></trkpt><trkpt lat="44.13970884800303" lon="8.244263940176106"><ele>62.0</ele><time>2026-04-21T10:34:59Z</time></trkpt><trkpt lat="44.13991653434304" lon="8.24444927984352"><ele>64.5</ele><time>2026-04-21T10:35:00Z</time></trkpt><trkpt lat="44.1401300300244" lon="8.244629175038027"><ele>67.0</ele><time>2026-04-21T10:35:01Z</time></trkpt><trkpt lat="44.14034414669164" lon="8.244810785700935"><ele>67.5</ele><time>2026-04-21T10:35:02Z</time></trkpt><trkpt lat="44.14055781570903" lon="8.244993056837625"><ele>68.0</ele><time>2026-04-21T10:35:03Z</time></trkpt><trkpt lat="44.14077286994387" lon="8.245178449994432"><ele>69.5</ele><time>2026-04-21T10:35:04Z</time></trkpt><trkpt lat="44.14098821951717" lon="8.245365360477223"><ele>71.0</ele><time>2026-04-21T10:35:05Z</time></trkpt><trkpt lat="44.14120380415375" lon="8.245555467762747"><ele>73.5</ele><time>2026-04-21T10:35:06Z</time></trkpt><trkpt lat="44.14141925435133" lon="8.245746877840467"><ele>76.0</ele><time>2026-04-21T10:35:07Z</time></trkpt><trkpt lat="44.141637850033106" lon="8.24594125160495"><ele>78.5</ele><time>2026-04-21T10:35:08Z</time></trkpt><trkpt lat="44.141856009738014" lon="8.246138445648224"><ele>81.0</ele><time>2026-04-21T10:35:09Z</time></trkpt><trkpt lat="44.14207647716997" lon="8.246333827611327"><ele>87.5</ele><time>2026-04-21T10:35:10Z</time></trkpt><trkpt lat="44.14229474744359" lon="8.24653118847376"><ele>94.0</ele><time>2026-04-21T10:35:11Z</time></trkpt><trkpt lat="44.14250225923167" lon="8.246721705165331"><ele>100.0</ele><time>2026-04-21T10:35:12Z</time></trkpt><trkpt lat="44.142711339814575" lon="8.246916673217243"><ele>106.0</ele><time>2026-04-21T10:35:13Z</time></trkpt><trkpt lat="44.142920939428556" lon="8.24711494394756"><ele>105.5</ele><time>2026-04-21T10:35:14Z</time></trkpt><trkpt lat="44.14313085288281" lon="8.24731688618544"><ele>105.0</ele><time>2026-04-21T10:35:15Z</time></trkpt><trkpt lat="44.143341156463165" lon="8.247522740922365"><ele>106.0</ele><time>2026-04-21T10:35:16Z</time></trkpt><trkpt lat="44.1435627371433" lon="8.24774817614782"><ele>107.0</ele><time>2026-04-21T10:35:17.064Z</time></trkpt><trkpt lat="44.14396114581467" lon="8.248155775982895"><ele>100.0</ele><time>2026-04-21T10:35:19Z</time></trkpt><trkpt lat="44.14413044967681" lon="8.248375331850601"><ele>93.0</ele><time>2026-04-21T10:35:20Z</time></trkpt><trkpt lat="44.14432439778732" lon="8.248604719977397"><ele>93.0</ele><time>2026-04-21T10:35:21Z</time></trkpt><trkpt lat="44.14451799082125" lon="8.24882679347781"><ele>93.0</ele><time>2026-04-21T10:35:22Z</time></trkpt><trkpt lat="44.14470666200485" lon="8.249052610176747"><ele>97.0</ele><time>2026-04-21T10:35:23Z</time></trkpt><trkpt lat="44.14489394211719" lon="8.249281584251374"><ele>101.0</ele><time>2026-04-21T10:35:24Z</time></trkpt><trkpt lat="44.145076718161846" lon="8.249515852673177"><ele>101.0</ele><time>2026-04-21T10:35:25Z</time></trkpt><trkpt lat="44.14525695823552" lon="8.249751558223045"><ele>101.0</ele><time>2026-04-21T10:35:26Z</time></trkpt><trkpt lat="44.14543576620503" lon="8.24998765061854"><ele>97.5</ele><time>2026-04-21T10:35:27Z</time></trkpt><trkpt lat="44.1456159435088" lon="8.250222836357208"><ele>94.0</ele><time>2026-04-21T10:35:28Z</time></trkpt><trkpt lat="44.1457889940015" lon="8.250463063952548"><ele>99.5</ele><time>2026-04-21T10:35:29.001Z</time></trkpt><trkpt lat="44.145957438919986" lon="8.250709647917576"><ele>105.0</ele><time>2026-04-21T10:35:30.001Z</time></trkpt><trkpt lat="44.14612596194457" lon="8.250956225053741"><ele>105.0</ele><time>2026-04-21T10:35:31.001Z</time></trkpt><trkpt lat="44.14629350473308" lon="8.251202915287775"><ele>105.0</ele><time>2026-04-21T10:35:32.001Z</time></trkpt><trkpt lat="44.146464206502365" lon="8.251450871755825"><ele>108.0</ele><time>2026-04-21T10:35:33.001Z</time></trkpt><trkpt lat="44.14663410957686" lon="8.251700237958097"><ele>111.0</ele><time>2026-04-21T10:35:34.001Z</time></trkpt><trkpt lat="44.14680341664948" lon="8.251955521425266"><ele>111.0</ele><time>2026-04-21T10:35:35.001Z</time></trkpt><trkpt lat="44.146969001457535" lon="8.25221553141613"><ele>111.0</ele><time>2026-04-21T10:35:36.001Z</time></trkpt><trkpt lat="44.147134286968175" lon="8.25247861455453"><ele>106.0</ele><time>2026-04-21T10:35:37.001Z</time></trkpt><trkpt lat="44.14730436693446" lon="8.252743437467682"><ele>101.0</ele><time>2026-04-21T10:35:38.001Z</time></trkpt><trkpt lat="44.147475402337" lon="8.25301055184971"><ele>105.0</ele><time>2026-04-21T10:35:39.001Z</time></trkpt><trkpt lat="44.14764727374342" lon="8.253280155859676"><ele>109.0</ele><time>2026-04-21T10:35:40.001Z</time></trkpt><trkpt lat="44.1478221481629" lon="8.253550598644031"><ele>109.0</ele><time>2026-04-21T10:35:41.001Z</time></trkpt><trkpt lat="44.147996403228824" lon="8.253821598136307"><ele>109.0</ele><time>2026-04-21T10:35:42.001Z</time></trkpt><trkpt lat="44.14816796134818" lon="8.254097358105021"><ele>116.0</ele><time>2026-04-21T10:35:43.001Z</time></trkpt><trkpt lat="44.148337153888676" lon="8.254375399855158"><ele>123.0</ele><time>2026-04-21T10:35:44.001Z</time></trkpt><trkpt lat="44.14850395626117" lon="8.254656437394145"><ele>123.5</ele><time>2026-04-21T10:35:45.001Z</time></trkpt><trkpt lat="44.14867249360996" lon="8.254936440050875"><ele>124.0</ele><time>2026-04-21T10:35:46.001Z</time></trkpt><trkpt lat="44.148842221656665" lon="8.255212869108517"><ele>124.0</ele><time>2026-04-21T10:35:47.001Z</time></trkpt><trkpt lat="44.149009416522546" lon="8.255490968453435"><ele>124.0</ele><time>2026-04-21T10:35:48.001Z</time></trkpt><trkpt lat="44.14917353557422" lon="8.255772219247941"><ele>135.5</ele><time>2026-04-21T10:35:49.001Z</time></trkpt><trkpt lat="44.14933175908771" lon="8.25606092014538"><ele>147.0</ele><time>2026-04-21T10:35:50.001Z</time></trkpt><trkpt lat="44.14948528121501" lon="8.256353937232333"><ele>155.5</ele><time>2026-04-21T10:35:51.001Z</time></trkpt><trkpt lat="44.14965052794501" lon="8.256664787189443"><ele>164.0</ele><time>2026-04-21T10:35:52.069Z</time></trkpt><trkpt lat="44.149807624154505" lon="8.25694767198368"><ele>164.0</ele><time>2026-04-21T10:35:53.064Z</time></trkpt><trkpt lat="44.14996526067915" lon="8.257231570553513"><ele>164.0</ele><time>2026-04-21T10:35:54.058Z</time></trkpt><trkpt lat="44.15012232829578" lon="8.25751676762294"><ele>159.5</ele><time>2026-04-21T10:35:55.052Z</time></trkpt><trkpt lat="44.15027910859536" lon="8.257803894200558"><ele>155.0</ele><time>2026-04-21T10:35:56.05Z</time></trkpt><trkpt lat="44.15053850030248" lon="8.258352705233392"><ele>139.0</ele><time>2026-04-21T10:35:57.035Z</time></trkpt><trkpt lat="44.15071201628131" lon="8.258672572793598"><ele>123.0</ele><time>2026-04-21T10:35:58.031Z</time></trkpt><trkpt lat="44.1510001711509" lon="8.259055001286544"><ele>123.0</ele><time>2026-04-21T10:36:00.001Z</time></trkpt><trkpt lat="44.151160744424494" lon="8.259353185544812"><ele>123.0</ele><time>2026-04-21T10:36:01.001Z</time></trkpt><trkpt lat="44.15129396076435" lon="8.259628730290062"><ele>121.0</ele><time>2026-04-21T10:36:02.001Z</time></trkpt><trkpt lat="44.15144584378307" lon="8.259933689941612"><ele>119.0</ele><time>2026-04-21T10:36:03.001Z</time></trkpt><trkpt lat="44.151600083204706" lon="8.260230079312885"><ele>116.5</ele><time>2026-04-21T10:36:04.001Z</time></trkpt><trkpt lat="44.15174831339958" lon="8.260529622025976"><ele>114.0</ele><time>2026-04-21T10:36:05.001Z</time></trkpt><trkpt lat="44.151899080870415" lon="8.260835247723952"><ele>112.0</ele><time>2026-04-21T10:36:06.001Z</time></trkpt><trkpt lat="44.152048336868816" lon="8.261145016000222"><ele>110.0</ele><time>2026-04-21T10:36:07.001Z</time></trkpt><trkpt lat="44.152202061193876" lon="8.261455160022393"><ele>106.5</ele><time>2026-04-21T10:36:08.001Z</time></trkpt><trkpt lat="44.152357554200016" lon="8.261761289559592"><ele>103.0</ele><time>2026-04-21T10:36:09.001Z</time></trkpt><trkpt lat="44.15251248697737" lon="8.26206968959806"><ele>108.5</ele><time>2026-04-21T10:36:10.001Z</time></trkpt><trkpt lat="44.15266336350551" lon="8.262373658235914"><ele>114.0</ele><time>2026-04-21T10:36:11.001Z</time></trkpt><trkpt lat="44.152818231092475" lon="8.262681728725182"><ele>114.0</ele><time>2026-04-21T10:36:12.001Z</time></trkpt><trkpt lat="44.15296868940955" lon="8.263001230297053"><ele>114.0</ele><time>2026-04-21T10:36:13.001Z</time></trkpt><trkpt lat="44.15312085314169" lon="8.263314820352429"><ele>112.5</ele><time>2026-04-21T10:36:14.001Z</time></trkpt><trkpt lat="44.15327299875693" lon="8.263632864395433"><ele>111.0</ele><time>2026-04-21T10:36:15.001Z</time></trkpt><trkpt lat="44.15343656519866" lon="8.263952597672963"><ele>111.0</ele><time>2026-04-21T10:36:16.001Z</time></trkpt><trkpt lat="44.15358554601265" lon="8.264271441019032"><ele>111.0</ele><time>2026-04-21T10:36:17.001Z</time></trkpt><trkpt lat="44.1537282711467" lon="8.264575213806124"><ele>105.5</ele><time>2026-04-21T10:36:18.001Z</time></trkpt><trkpt lat="44.15386895843917" lon="8.264885164312576"><ele>100.0</ele><time>2026-04-21T10:36:19.001Z</time></trkpt><trkpt lat="44.15401333335286" lon="8.26519582904544"><ele>100.5</ele><time>2026-04-21T10:36:20.001Z</time></trkpt><trkpt lat="44.15416077296182" lon="8.265510980630337"><ele>101.0</ele><time>2026-04-21T10:36:21.001Z</time></trkpt><trkpt lat="44.15430855083876" lon="8.26582859600791"><ele>101.0</ele><time>2026-04-21T10:36:22.001Z</time></trkpt><trkpt lat="44.15445815894381" lon="8.266149346008822"><ele>101.0</ele><time>2026-04-21T10:36:23.001Z</time></trkpt><trkpt lat="44.15461075818304" lon="8.266472788717595"><ele>105.0</ele><time>2026-04-21T10:36:24.001Z</time></trkpt><trkpt lat="44.15477158246714" lon="8.266798285942409"><ele>109.0</ele><time>2026-04-21T10:36:25.001Z</time></trkpt><trkpt lat="44.15493388504259" lon="8.267122636149413"><ele>105.5</ele><time>2026-04-21T10:36:26.001Z</time></trkpt><trkpt lat="44.155050390738324" lon="8.267424342354486"><ele>102.0</ele><time>2026-04-21T10:36:27.001Z</time></trkpt><trkpt lat="44.15520489602578" lon="8.267735794444217"><ele>102.0</ele><time>2026-04-21T10:36:28.001Z</time></trkpt><trkpt lat="44.15535461891719" lon="8.268049886621286"><ele>102.0</ele><time>2026-04-21T10:36:29.001Z</time></trkpt><trkpt lat="44.15550451358551" lon="8.268364628496348"><ele>99.0</ele><time>2026-04-21T10:36:30.001Z</time></trkpt><trkpt lat="44.15565621555431" lon="8.26867079652279"><ele>96.0</ele><time>2026-04-21T10:36:31.001Z</time></trkpt><trkpt lat="44.15581210032925" lon="8.268971155341431"><ele>102.5</ele><time>2026-04-21T10:36:32.001Z</time></trkpt><trkpt lat="44.15597502383853" lon="8.269265217435215"><ele>109.0</ele><time>2026-04-21T10:36:33.001Z</time></trkpt><trkpt lat="44.15614506976342" lon="8.269553462024788"><ele>103.5</ele><time>2026-04-21T10:36:34.001Z</time></trkpt><trkpt lat="44.15631759016276" lon="8.269835708391081"><ele>98.0</ele><time>2026-04-21T10:36:35.001Z</time></trkpt><trkpt lat="44.15649481588607" lon="8.270109924323409"><ele>103.5</ele><time>2026-04-21T10:36:36.001Z</time></trkpt><trkpt lat="44.1566758531511" lon="8.270382368393946"><ele>109.0</ele><time>2026-04-21T10:36:37.001Z</time></trkpt><trkpt lat="44.15686250599426" lon="8.270651545088725"><ele>109.0</ele><time>2026-04-21T10:36:38.001Z</time></trkpt><trkpt lat="44.157054413844335" lon="8.270915146631012"><ele>109.0</ele><time>2026-04-21T10:36:39.001Z</time></trkpt><trkpt lat="44.15725217197031" lon="8.27116906683881"><ele>111.0</ele><time>2026-04-21T10:36:40.001Z</time></trkpt><trkpt lat="44.157455719629304" lon="8.271416354591313"><ele>113.0</ele><time>2026-04-21T10:36:41.001Z</time></trkpt><trkpt lat="44.15766496933172" lon="8.271659262487127"><ele>113.0</ele><time>2026-04-21T10:36:42.001Z</time></trkpt><trkpt lat="44.15787871613506" lon="8.27188950456908"><ele>113.0</ele><time>2026-04-21T10:36:43.001Z</time></trkpt><trkpt lat="44.15809631408747" lon="8.272113199739312"><ele>112.5</ele><time>2026-04-21T10:36:44.001Z</time></trkpt><trkpt lat="44.15831561091195" lon="8.272324790812975"><ele>112.0</ele><time>2026-04-21T10:36:45.001Z</time></trkpt><trkpt lat="44.15853455811629" lon="8.272530335176324"><ele>112.0</ele><time>2026-04-21T10:36:46.001Z</time></trkpt><trkpt lat="44.15875936162226" lon="8.272734832354143"><ele>112.0</ele><time>2026-04-21T10:36:47Z</time></trkpt><trkpt lat="44.158990315891906" lon="8.272923799079596"><ele>109.5</ele><time>2026-04-21T10:36:48Z</time></trkpt><trkpt lat="44.15922280571474" lon="8.273109535936877"><ele>107.0</ele><time>2026-04-21T10:36:49Z</time></trkpt><trkpt lat="44.159460711683174" lon="8.273288369299774"><ele>107.0</ele><time>2026-04-21T10:36:50Z</time></trkpt><trkpt lat="44.15970147999206" lon="8.27345954775005"><ele>107.0</ele><time>2026-04-21T10:36:51Z</time></trkpt><trkpt lat="44.15995009703771" lon="8.273624336076802"><ele>95.0</ele><time>2026-04-21T10:36:52Z</time></trkpt><trkpt lat="44.16020421965433" lon="8.273778807500229"><ele>83.0</ele><time>2026-04-21T10:36:53Z</time></trkpt><trkpt lat="44.16046236542462" lon="8.273929949792759"><ele>75.0</ele><time>2026-04-21T10:36:54Z</time></trkpt><trkpt lat="44.16073226220776" lon="8.27406066816819"><ele>67.0</ele><time>2026-04-21T10:36:55Z</time></trkpt><trkpt lat="44.16094498207609" lon="8.274235938352442"><ele>67.0</ele><time>2026-04-21T10:36:56Z</time></trkpt><trkpt lat="44.16120898628248" lon="8.274367305271486"><ele>67.0</ele><time>2026-04-21T10:36:57Z</time></trkpt><trkpt lat="44.1614822904483" lon="8.274487541133432"><ele>51.0</ele><time>2026-04-21T10:36:58Z</time></trkpt><trkpt lat="44.16175090765514" lon="8.274606892978811"><ele>35.0</ele><time>2026-04-21T10:36:59Z</time></trkpt><trkpt lat="44.16201853025253" lon="8.274728719846067"><ele>32.5</ele><time>2026-04-21T10:37:00Z</time></trkpt><trkpt lat="44.16228611005633" lon="8.274853077919014"><ele>30.0</ele><time>2026-04-21T10:37:01Z</time></trkpt><trkpt lat="44.16255449439514" lon="8.274979258891333"><ele>36.0</ele><time>2026-04-21T10:37:02Z</time></trkpt><trkpt lat="44.16282298341276" lon="8.275107502942948"><ele>42.0</ele><time>2026-04-21T10:37:03Z</time></trkpt><trkpt lat="44.16309301944926" lon="8.27523747536787"><ele>63.5</ele><time>2026-04-21T10:37:04Z</time></trkpt><trkpt lat="44.16336172904748" lon="8.275372251025955"><ele>85.0</ele><time>2026-04-21T10:37:05Z</time></trkpt><trkpt lat="44.16363554915322" lon="8.275500093057001"><ele>81.5</ele><time>2026-04-21T10:37:06Z</time></trkpt><trkpt lat="44.16391333481038" lon="8.275623582868821"><ele>78.0</ele><time>2026-04-21T10:37:07Z</time></trkpt><trkpt lat="44.164180212309745" lon="8.275743491895634"><ele>78.0</ele><time>2026-04-21T10:37:08Z</time></trkpt><trkpt lat="44.16444030417237" lon="8.275860387232278"><ele>78.0</ele><time>2026-04-21T10:37:09Z</time></trkpt><trkpt lat="44.16470891910695" lon="8.275987042711712"><ele>70.0</ele><time>2026-04-21T10:37:10Z</time></trkpt><trkpt lat="44.16496487353208" lon="8.27611153892139"><ele>62.0</ele><time>2026-04-21T10:37:11Z</time></trkpt><trkpt lat="44.165216194550425" lon="8.276247532337962"><ele>62.0</ele><time>2026-04-21T10:37:12Z</time></trkpt><trkpt lat="44.165465954950584" lon="8.276384124690807"><ele>62.0</ele><time>2026-04-21T10:37:13Z</time></trkpt><trkpt lat="44.165712145219224" lon="8.276529216047388"><ele>46.0</ele><time>2026-04-21T10:37:14Z</time></trkpt><trkpt lat="44.16595691519952" lon="8.276677835149142"><ele>30.0</ele><time>2026-04-21T10:37:15Z</time></trkpt><trkpt lat="44.1662009513005" lon="8.276845359605137"><ele>30.0</ele><time>2026-04-21T10:37:16Z</time></trkpt><trkpt lat="44.16643512236818" lon="8.277030078654944"><ele>30.0</ele><time>2026-04-21T10:37:17Z</time></trkpt><trkpt lat="44.16666345241355" lon="8.277221756868746"><ele>47.0</ele><time>2026-04-21T10:37:18Z</time></trkpt><trkpt lat="44.166875754564096" lon="8.277405532356676"><ele>64.0</ele><time>2026-04-21T10:37:19Z</time></trkpt><trkpt lat="44.16707941814317" lon="8.277592306563239"><ele>64.0</ele><time>2026-04-21T10:37:20Z</time></trkpt><trkpt lat="44.16726878340376" lon="8.27778122340957"><ele>64.0</ele><time>2026-04-21T10:37:21Z</time></trkpt><trkpt lat="44.16744456375766" lon="8.277973164446369"><ele>78.5</ele><time>2026-04-21T10:37:22.001Z</time></trkpt><trkpt lat="44.16760448164946" lon="8.278179804566397"><ele>93.0</ele><time>2026-04-21T10:37:23.001Z</time></trkpt><trkpt lat="44.16779366961081" lon="8.27838178440919"><ele>93.0</ele><time>2026-04-21T10:37:24.001Z</time></trkpt><trkpt lat="44.16798117670471" lon="8.278594064324489"><ele>93.0</ele><time>2026-04-21T10:37:25.001Z</time></trkpt><trkpt lat="44.16816594357779" lon="8.278797279661015"><ele>113.0</ele><time>2026-04-21T10:37:26.001Z</time></trkpt><trkpt lat="44.16833331849005" lon="8.279019486306348"><ele>133.0</ele><time>2026-04-21T10:37:27.001Z</time></trkpt><trkpt lat="44.16849296609614" lon="8.279267557708849"><ele>133.0</ele><time>2026-04-21T10:37:28.001Z</time></trkpt><trkpt lat="44.16864126175317" lon="8.27951577149197"><ele>133.0</ele><time>2026-04-21T10:37:29.001Z</time></trkpt><trkpt lat="44.16879819675304" lon="8.279794482904734"><ele>144.33333333333334</ele><time>2026-04-21T10:37:30.067Z</time></trkpt><trkpt lat="44.16892827306076" lon="8.280038975813987"><ele>155.66666666666666</ele><time>2026-04-21T10:37:31.064Z</time></trkpt><trkpt lat="44.16905235253824" lon="8.280293163130512"><ele>167.0</ele><time>2026-04-21T10:37:32.065Z</time></trkpt><trkpt lat="44.16916656971326" lon="8.280543104933214"><ele>186.5</ele><time>2026-04-21T10:37:33.063Z</time></trkpt><trkpt lat="44.16927734534481" lon="8.280795939986708"><ele>206.0</ele><time>2026-04-21T10:37:34.064Z</time></trkpt><trkpt lat="44.16997136008599" lon="8.283419142415683"><ele>305.0</ele><time>2026-04-21T10:37:37.522Z</time></trkpt><trkpt lat="44.17025331973935" lon="8.284608044236787"><ele>275.0</ele><time>2026-04-21T10:37:38.524Z</time></trkpt><trkpt lat="44.17053394222168" lon="8.285796521166034"><ele>237.0</ele><time>2026-04-21T10:37:39.524Z</time></trkpt><trkpt lat="44.17081610693801" lon="8.286982564065804"><ele>232.0</ele><time>2026-04-21T10:37:40.523Z</time></trkpt><trkpt lat="44.17110000181819" lon="8.28816513778739"><ele>223.0</ele><time>2026-04-21T10:37:41.52Z</time></trkpt><trkpt lat="44.17144357989475" lon="8.28932750007058"><ele>189.0</ele><time>2026-04-21T10:37:42.525Z</time></trkpt><trkpt lat="44.17188149083755" lon="8.290416210061474"><ele>146.0</ele><time>2026-04-21T10:37:43.524Z</time></trkpt><trkpt lat="44.1724092286932" lon="8.291423961393397"><ele>135.0</ele><time>2026-04-21T10:37:44.521Z</time></trkpt><trkpt lat="44.17302696633704" lon="8.29233608895832"><ele>57.0</ele><time>2026-04-21T10:37:45.523Z</time></trkpt><trkpt lat="44.17373162229993" lon="8.294701188440412"><ele>57.0</ele><time>2026-04-21T10:39:19.001Z</time></trkpt><trkpt lat="44.173685481385874" lon="8.294237936034865"><ele>57.0</ele><time>2026-04-21T10:39:20.001Z</time></trkpt><trkpt lat="44.1734894774999" lon="8.293876594727234"><ele>61.6</ele><time>2026-04-21T10:39:21.001Z</time></trkpt><trkpt lat="44.17353027078003" lon="8.29379878885151"><ele>66.2</ele><time>2026-04-21T10:39:22.001Z</time></trkpt><trkpt lat="44.17361142884592" lon="8.293722630035647"><ele>70.8</ele><time>2026-04-21T10:39:23.001Z</time></trkpt><trkpt lat="44.17367474430422" lon="8.293661036376259"><ele>75.4</ele><time>2026-04-21T10:39:24.001Z</time></trkpt><trkpt lat="44.17375649601147" lon="8.293527373481323"><ele>80.0</ele><time>2026-04-21T10:39:25.001Z</time></trkpt><trkpt lat="44.173819999845435" lon="8.29339668239318"><ele>80.0</ele><time>2026-04-21T10:39:26.001Z</time></trkpt><trkpt lat="44.173884719014126" lon="8.293308334619093"><ele>80.0</ele><time>2026-04-21T10:39:28.001Z</time></trkpt><trkpt lat="44.17398032081651" lon="8.293384196016854"><ele>80.0</ele><time>2026-04-21T10:39:31.001Z</time></trkpt><trkpt lat="44.174071365783924" lon="8.293471144389567"><ele>80.0</ele><time>2026-04-21T10:39:33.001Z</time></trkpt><trkpt lat="44.17414361914228" lon="8.293545237150353"><ele>80.0</ele><time>2026-04-21T10:39:35.001Z</time></trkpt><trkpt lat="44.174948808509136" lon="8.295532518574694"><ele>75.8</ele><time>2026-04-21T10:39:38.001Z</time></trkpt><trkpt lat="44.1750390394728" lon="8.295505636176275"><ele>71.6</ele><time>2026-04-21T10:39:42.001Z</time></trkpt><trkpt lat="44.175004202795265" lon="8.295365121318737"><ele>67.4</ele><time>2026-04-21T10:39:44.001Z</time></trkpt><trkpt lat="44.17496401483795" lon="8.295244669707628"><ele>63.2</ele><time>2026-04-21T10:39:45.001Z</time></trkpt><trkpt lat="44.174920711340135" lon="8.295119044397614"><ele>59.0</ele><time>2026-04-21T10:39:46.001Z</time></trkpt><trkpt lat="44.174910498052505" lon="8.294982793527588"><ele>59.0</ele><time>2026-04-21T10:39:47.001Z</time></trkpt><trkpt lat="44.174908568412626" lon="8.294862154315888"><ele>59.0</ele><time>2026-04-21T10:39:49.001Z</time></trkpt><trkpt lat="44.17499599760125" lon="8.294875889492857"><ele>59.0</ele><time>2026-04-21T10:39:51.001Z</time></trkpt><trkpt lat="44.175093363487974" lon="8.29587237969357"><ele>59.5</ele><time>2026-04-21T10:39:53.001Z</time></trkpt><trkpt lat="44.17516854557102" lon="8.295853305171455"><ele>60.0</ele><time>2026-04-21T10:39:55.001Z</time></trkpt><trkpt lat="44.17508526016618" lon="8.29464573819456"><ele>60.0</ele><time>2026-04-21T10:39:57.001Z</time></trkpt><trkpt lat="44.17510567857572" lon="8.29453039992217"><ele>60.0</ele><time>2026-04-21T10:39:59.001Z</time></trkpt><trkpt lat="44.17519801617888" lon="8.294406965739755"><ele>60.0</ele><time>2026-04-21T10:40:01.001Z</time></trkpt><trkpt lat="44.175264023327735" lon="8.2943876132768"><ele>60.0</ele><time>2026-04-21T10:40:03.001Z</time></trkpt><trkpt lat="44.17532667561266" lon="8.294424551660871"><ele>60.0</ele><time>2026-04-21T10:40:05.001Z</time></trkpt><trkpt lat="44.1753958767102" lon="8.294476162520361"><ele>60.0</ele><time>2026-04-21T10:40:08.001Z</time></trkpt><trkpt lat="44.175468256846" lon="8.294515108455506"><ele>60.0</ele><time>2026-04-21T10:40:10.001Z</time></trkpt><trkpt lat="44.17553417710761" lon="8.294557973001657"><ele>60.0</ele><time>2026-04-21T10:40:13.001Z</time></trkpt><trkpt lat="44.175606842204374" lon="8.294613962525787"><ele>60.0</ele><time>2026-04-21T10:40:18.001Z</time></trkpt><trkpt lat="44.17570772447748" lon="8.29468063895532"><ele>60.0</ele><time>2026-04-21T10:40:21.001Z</time></trkpt><trkpt lat="44.17576835468506" lon="8.294711166975336"><ele>60.0</ele><time>2026-04-21T10:40:24.001Z</time></trkpt><trkpt lat="44.17583431335752" lon="8.294764379629084"><ele>60.0</ele><time>2026-04-21T10:40:29.001Z</time></trkpt><trkpt lat="44.17589302098748" lon="8.294803854535692"><ele>63.333333333333336</ele><time>2026-04-21T10:40:31.001Z</time></trkpt><trkpt lat="44.17595526515669" lon="8.294844706802058"><ele>66.66666666666667</ele><time>2026-04-21T10:40:33.001Z</time></trkpt><trkpt lat="44.17602463334529" lon="8.294892100973428"><ele>70.0</ele><time>2026-04-21T10:40:35.001Z</time></trkpt><trkpt lat="44.17610426559608" lon="8.294943896787208"><ele>73.33333333333334</ele><time>2026-04-21T10:40:37.001Z</time></trkpt><trkpt lat="44.1761808894" lon="8.294995292024566"><ele>76.66666666666667</ele><time>2026-04-21T10:40:39.001Z</time></trkpt><trkpt lat="44.176263729887914" lon="8.295045741235567"><ele>80.0</ele><time>2026-04-21T10:40:41.001Z</time></trkpt><trkpt lat="44.17634322859654" lon="8.29510233909926"><ele>80.0</ele><time>2026-04-21T10:40:43.001Z</time></trkpt><trkpt lat="44.17643027110949" lon="8.295163110545444"><ele>80.0</ele><time>2026-04-21T10:40:45.001Z</time></trkpt><trkpt lat="44.17651197301928" lon="8.295219710350999"><ele>80.0</ele><time>2026-04-21T10:40:47.001Z</time></trkpt><trkpt lat="44.17660199831619" lon="8.295275742232594"><ele>80.0</ele><time>2026-04-21T10:40:49.001Z</time></trkpt><trkpt lat="44.1766978901751" lon="8.295346910877605"><ele>80.0</ele><time>2026-04-21T10:40:51.001Z</time></trkpt><trkpt lat="44.176791852057235" lon="8.295420427335806"><ele>79.66666666666667</ele><time>2026-04-21T10:40:53.001Z</time></trkpt><trkpt lat="44.176850697566074" lon="8.295465513245372"><ele>79.33333333333334</ele><time>2026-04-21T10:40:55.001Z</time></trkpt><trkpt lat="44.176921850434525" lon="8.295517391618992"><ele>79.0</ele><time>2026-04-21T10:40:57.001Z</time></trkpt><trkpt lat="44.17701091481808" lon="8.295582430130818"><ele>78.66666666666667</ele><time>2026-04-21T10:40:59.001Z</time></trkpt><trkpt lat="44.177105114219835" lon="8.295642581980891"><ele>78.33333333333333</ele><time>2026-04-21T10:41:01.001Z</time></trkpt><trkpt lat="44.177172203463016" lon="8.295691802598947"><ele>78.0</ele><time>2026-04-21T10:41:03.001Z</time></trkpt><trkpt lat="44.17723631040579" lon="8.295740203418777"><ele>80.0</ele><time>2026-04-21T10:41:05.001Z</time></trkpt><trkpt lat="44.17730873179953" lon="8.295801539881898"><ele>82.0</ele><time>2026-04-21T10:41:08.001Z</time></trkpt><trkpt lat="44.177366984673085" lon="8.295847647415174"><ele>84.0</ele><time>2026-04-21T10:41:10.001Z</time></trkpt><trkpt lat="44.177444930982325" lon="8.295904953360711"><ele>86.0</ele><time>2026-04-21T10:41:13.001Z</time></trkpt><trkpt lat="44.1775054016072" lon="8.29595922065899"><ele>88.0</ele><time>2026-04-21T10:41:18.001Z</time></trkpt><trkpt lat="44.17757367248761" lon="8.296013870759083"><ele>90.0</ele><time>2026-04-21T10:41:21.001Z</time></trkpt><trkpt lat="44.17763050944317" lon="8.296061614983682"><ele>90.0</ele><time>2026-04-21T10:41:23.001Z</time></trkpt><trkpt lat="44.17769126432521" lon="8.296115268209705"><ele>90.0</ele><time>2026-04-21T10:41:27.001Z</time></trkpt><trkpt lat="44.177763867666535" lon="8.296182762047927"><ele>90.0</ele><time>2026-04-21T10:41:32Z</time></trkpt><trkpt lat="44.17782029196841" lon="8.296230288632445"><ele>90.0</ele><time>2026-04-21T10:41:34Z</time></trkpt><trkpt lat="44.17787302801107" lon="8.296305425126949"><ele>90.0</ele><time>2026-04-21T10:41:37Z</time></trkpt><trkpt lat="44.177945315444184" lon="8.296417733514668"><ele>90.0</ele><time>2026-04-21T10:41:40.069Z</time></trkpt><trkpt lat="44.17963901125336" lon="8.298045935235812"><ele>161.0</ele><time>2026-04-21T10:41:44.526Z</time></trkpt><trkpt lat="44.180288635510706" lon="8.298715405825071"><ele>191.0</ele><time>2026-04-21T10:41:45.524Z</time></trkpt><trkpt lat="44.180940956782024" lon="8.299385329489144"><ele>200.0</ele><time>2026-04-21T10:41:46.526Z</time></trkpt><trkpt lat="44.181374453470816" lon="8.299832599484104"><ele>201.0</ele><time>2026-04-21T10:41:47.526Z</time></trkpt><trkpt lat="44.181806764124254" lon="8.300278040095643"><ele>190.0</ele><time>2026-04-21T10:41:48.522Z</time></trkpt><trkpt lat="44.182240962491704" lon="8.300725918418214"><ele>168.0</ele><time>2026-04-21T10:41:49.524Z</time></trkpt><trkpt lat="44.1826759130734" lon="8.301173812659338"><ele>161.0</ele><time>2026-04-21T10:41:50.526Z</time></trkpt><trkpt lat="44.18310849150436" lon="8.301620139273574"><ele>138.0</ele><time>2026-04-21T10:41:51.524Z</time></trkpt><trkpt lat="44.1835418912539" lon="8.30206657176415"><ele>121.0</ele><time>2026-04-21T10:41:52.523Z</time></trkpt><trkpt lat="44.18397671714748" lon="8.302513778377742"><ele>112.5</ele><time>2026-04-21T10:41:53.525Z</time></trkpt><trkpt lat="44.18430325121424" lon="8.302939176370897"><ele>104.0</ele><time>2026-04-21T10:44:31.001Z</time></trkpt><trkpt lat="44.18441747531386" lon="8.302959428054612"><ele>103.99999999999999</ele><time>2026-04-21T10:44:32.001Z</time></trkpt><trkpt lat="44.18448321653938" lon="8.303034765144352"><ele>104.0</ele><time>2026-04-21T10:44:34.001Z</time></trkpt><trkpt lat="44.18456013945803" lon="8.303106060821053"><ele>104.0</ele><time>2026-04-21T10:44:36Z</time></trkpt><trkpt lat="44.184614851790684" lon="8.303156428412086"><ele>104.0</ele><time>2026-04-21T10:44:37Z</time></trkpt><trkpt lat="44.18467341558504" lon="8.30321521228485"><ele>103.99999999999999</ele><time>2026-04-21T10:44:38Z</time></trkpt><trkpt lat="44.1847342833405" lon="8.303279717042258"><ele>104.0</ele><time>2026-04-21T10:44:39Z</time></trkpt><trkpt lat="44.18480974661292" lon="8.303342886087023"><ele>100.6</ele><time>2026-04-21T10:44:40Z</time></trkpt><trkpt lat="44.18488348031886" lon="8.303417633635323"><ele>97.2</ele><time>2026-04-21T10:44:41Z</time></trkpt><trkpt lat="44.18496070768285" lon="8.303502821511492"><ele>93.8</ele><time>2026-04-21T10:44:42Z</time></trkpt><trkpt lat="44.18502822279775" lon="8.303596651947293"><ele>90.39999999999999</ele><time>2026-04-21T10:44:43Z</time></trkpt><trkpt lat="44.185111635952445" lon="8.303683638569298"><ele>87.0</ele><time>2026-04-21T10:44:44Z</time></trkpt><trkpt lat="44.18520640751732" lon="8.303762642439416"><ele>87.0</ele><time>2026-04-21T10:44:45Z</time></trkpt><trkpt lat="44.18528282009341" lon="8.30382776914078"><ele>87.0</ele><time>2026-04-21T10:44:46Z</time></trkpt><trkpt lat="44.18534884673568" lon="8.303889101575509"><ele>87.0</ele><time>2026-04-21T10:44:47Z</time></trkpt><trkpt lat="44.185417527687385" lon="8.303953796899265"><ele>87.0</ele><time>2026-04-21T10:44:48Z</time></trkpt><trkpt lat="44.185483490227355" lon="8.30400977889215"><ele>87.0</ele><time>2026-04-21T10:44:49Z</time></trkpt><trkpt lat="44.18553770096714" lon="8.304072236824185"><ele>87.0</ele><time>2026-04-21T10:44:50Z</time></trkpt><trkpt lat="44.185619093681076" lon="8.304152082212081"><ele>84.19999999999999</ele><time>2026-04-21T10:44:52Z</time></trkpt><trkpt lat="44.185671503155696" lon="8.30420213307552"><ele>81.39999999999999</ele><time>2026-04-21T10:44:54Z</time></trkpt><trkpt lat="44.18573959139922" lon="8.304253690499886"><ele>78.6</ele><time>2026-04-21T10:45:04Z</time></trkpt><trkpt lat="44.185835849899576" lon="8.304336983193572"><ele>75.8</ele><time>2026-04-21T10:45:06Z</time></trkpt><trkpt lat="44.185957587679624" lon="8.304445683370016"><ele>73.0</ele><time>2026-04-21T10:45:08Z</time></trkpt><trkpt lat="44.186035965736984" lon="8.304511275662449"><ele>72.33333333333333</ele><time>2026-04-21T10:45:09Z</time></trkpt><trkpt lat="44.18611044187405" lon="8.304567899002063"><ele>71.66666666666666</ele><time>2026-04-21T10:45:10Z</time></trkpt><trkpt lat="44.186208051840296" lon="8.304645682407948"><ele>71.0</ele><time>2026-04-21T10:45:12Z</time></trkpt><trkpt lat="44.18631092467756" lon="8.30472614152764"><ele>70.33333333333333</ele><time>2026-04-21T10:45:14Z</time></trkpt><trkpt lat="44.18636908573459" lon="8.304767853317177"><ele>69.66666666666667</ele><time>2026-04-21T10:45:15Z</time></trkpt><trkpt lat="44.186428876288886" lon="8.304810934008051"><ele>69.0</ele><time>2026-04-21T10:45:16Z</time></trkpt><trkpt lat="44.186490725597494" lon="8.304852055269675"><ele>63.666666666666664</ele><time>2026-04-21T10:45:17Z</time></trkpt><trkpt lat="44.186556750532795" lon="8.30489751550736"><ele>58.333333333333336</ele><time>2026-04-21T10:45:18Z</time></trkpt><trkpt lat="44.18663316079158" lon="8.30494869609474"><ele>53.0</ele><time>2026-04-21T10:45:19Z</time></trkpt><trkpt lat="44.18670158487845" lon="8.30499622875076"><ele>47.66666666666667</ele><time>2026-04-21T10:45:20Z</time></trkpt><trkpt lat="44.18675868025097" lon="8.305033812448047"><ele>42.333333333333336</ele><time>2026-04-21T10:45:21Z</time></trkpt><trkpt lat="44.18683178607014" lon="8.305083243406093"><ele>37.0</ele><time>2026-04-21T10:45:22Z</time></trkpt><trkpt lat="44.18692266901949" lon="8.305134913775223"><ele>37.0</ele><time>2026-04-21T10:45:23Z</time></trkpt><trkpt lat="44.186990367619416" lon="8.30517137277348"><ele>37.0</ele><time>2026-04-21T10:45:24Z</time></trkpt><trkpt lat="44.18707384496669" lon="8.305224646798836"><ele>37.0</ele><time>2026-04-21T10:45:26Z</time></trkpt><trkpt lat="44.18713864399321" lon="8.30525898909881"><ele>37.0</ele><time>2026-04-21T10:45:30Z</time></trkpt><trkpt lat="44.187232046283114" lon="8.305300766998739"><ele>37.0</ele><time>2026-04-21T10:45:34Z</time></trkpt><trkpt lat="44.187350179432336" lon="8.305342721528508"><ele>36.4</ele><time>2026-04-21T10:45:36Z</time></trkpt><trkpt lat="44.18742022701432" lon="8.30538195176577"><ele>35.800000000000004</ele><time>2026-04-21T10:45:37Z</time></trkpt><trkpt lat="44.187530511501215" lon="8.305455894181335"><ele>35.2</ele><time>2026-04-21T10:45:39Z</time></trkpt><trkpt lat="44.18759701016387" lon="8.305515277283268"><ele>34.6</ele><time>2026-04-21T10:45:40Z</time></trkpt><trkpt lat="44.18768098491014" lon="8.305570876667531"><ele>34.0</ele><time>2026-04-21T10:45:41Z</time></trkpt><trkpt lat="44.18778340880305" lon="8.305619046610227"><ele>34.0</ele><time>2026-04-21T10:45:42Z</time></trkpt><trkpt lat="44.18790160123834" lon="8.305669573125774"><ele>34.0</ele><time>2026-04-21T10:45:43Z</time></trkpt><trkpt lat="44.18803560724572" lon="8.305727827138176"><ele>34.0</ele><time>2026-04-21T10:45:44Z</time></trkpt><trkpt lat="44.18817500988389" lon="8.305784648476559"><ele>34.0</ele><time>2026-04-21T10:45:45Z</time></trkpt><trkpt lat="44.18832407179659" lon="8.30584817211891"><ele>36.333333333333336</ele><time>2026-04-21T10:45:46Z</time></trkpt><trkpt lat="44.18848514543414" lon="8.305910992071274"><ele>38.666666666666664</ele><time>2026-04-21T10:45:47Z</time></trkpt><trkpt lat="44.188648806003854" lon="8.305967850774342"><ele>41.0</ele><time>2026-04-21T10:45:48Z</time></trkpt><trkpt lat="44.18881133084575" lon="8.30602247201693"><ele>41.0</ele><time>2026-04-21T10:45:49Z</time></trkpt><trkpt lat="44.18897253842976" lon="8.306074335745473"><ele>41.0</ele><time>2026-04-21T10:45:50Z</time></trkpt><trkpt lat="44.1891392794522" lon="8.306121953486132"><ele>41.0</ele><time>2026-04-21T10:45:51Z</time></trkpt><trkpt lat="44.189305415420144" lon="8.306161796927254"><ele>45.33333333333333</ele><time>2026-04-21T10:45:52Z</time></trkpt><trkpt lat="44.189470732934005" lon="8.306197953665633"><ele>49.666666666666664</ele><time>2026-04-21T10:45:53Z</time></trkpt><trkpt lat="44.189634868031355" lon="8.306227121134395"><ele>54.0</ele><time>2026-04-21T10:45:54Z</time></trkpt><trkpt lat="44.1897986817686" lon="8.30625219201746"><ele>58.0</ele><time>2026-04-21T10:45:55Z</time></trkpt><trkpt lat="44.18996301011649" lon="8.30627537361673"><ele>62.0</ele><time>2026-04-21T10:45:56.001Z</time></trkpt><trkpt lat="44.19013372561752" lon="8.306295909764195"><ele>66.0</ele><time>2026-04-21T10:45:57.001Z</time></trkpt><trkpt lat="44.1903071788297" lon="8.306324789304696"><ele>66.0</ele><time>2026-04-21T10:45:58.001Z</time></trkpt><trkpt lat="44.19047572367541" lon="8.306321404267388"><ele>66.0</ele><time>2026-04-21T10:45:59.001Z</time></trkpt><trkpt lat="44.19065039982138" lon="8.306334514869636"><ele>66.0</ele><time>2026-04-21T10:46:00.001Z</time></trkpt><trkpt lat="44.190828433230095" lon="8.306339213446162"><ele>70.0</ele><time>2026-04-21T10:46:01.001Z</time></trkpt><trkpt lat="44.191007736391526" lon="8.306332029823363"><ele>74.0</ele><time>2026-04-21T10:46:02.001Z</time></trkpt><trkpt lat="44.19118614714613" lon="8.306321935333203"><ele>78.0</ele><time>2026-04-21T10:46:03.001Z</time></trkpt><trkpt lat="44.191345869261" lon="8.306312416891002"><ele>78.0</ele><time>2026-04-21T10:46:04.001Z</time></trkpt><trkpt lat="44.191491460076115" lon="8.306296790241186"><ele>78.0</ele><time>2026-04-21T10:46:05.001Z</time></trkpt><trkpt lat="44.19162351056596" lon="8.306283499730506"><ele>78.0</ele><time>2026-04-21T10:46:06.001Z</time></trkpt><trkpt lat="44.19175052361024" lon="8.306266540676688"><ele>78.0</ele><time>2026-04-21T10:46:07.001Z</time></trkpt><trkpt lat="44.191877750746265" lon="8.306248230276513"><ele>81.4</ele><time>2026-04-21T10:46:08.001Z</time></trkpt><trkpt lat="44.19200435124637" lon="8.306226670623118"><ele>84.8</ele><time>2026-04-21T10:46:09.001Z</time></trkpt><trkpt lat="44.19211452714369" lon="8.306203789612399"><ele>88.2</ele><time>2026-04-21T10:46:10.001Z</time></trkpt><trkpt lat="44.19221091908021" lon="8.306188060193577"><ele>91.6</ele><time>2026-04-21T10:46:11.001Z</time></trkpt><trkpt lat="44.192311382390706" lon="8.306170080733677"><ele>95.0</ele><time>2026-04-21T10:46:12.001Z</time></trkpt><trkpt lat="44.192423899313056" lon="8.306147460777392"><ele>96.0</ele><time>2026-04-21T10:46:13.001Z</time></trkpt><trkpt lat="44.19253941058363" lon="8.306122768516419"><ele>97.0</ele><time>2026-04-21T10:46:14.001Z</time></trkpt><trkpt lat="44.192651294608204" lon="8.306100181532335"><ele>98.0</ele><time>2026-04-21T10:46:15.001Z</time></trkpt><trkpt lat="44.192766080430616" lon="8.306076630864426"><ele>99.0</ele><time>2026-04-21T10:46:16.001Z</time></trkpt><trkpt lat="44.19289060190036" lon="8.306047034226289"><ele>99.0</ele><time>2026-04-21T10:46:17.001Z</time></trkpt><trkpt lat="44.19301015502712" lon="8.306022173335478"><ele>99.0</ele><time>2026-04-21T10:46:18.001Z</time></trkpt><trkpt lat="44.19310979583654" lon="8.305996326308042"><ele>99.0</ele><time>2026-04-21T10:46:19.001Z</time></trkpt><trkpt lat="44.19320126828581" lon="8.305975416740225"><ele>99.0</ele><time>2026-04-21T10:46:20.001Z</time></trkpt><trkpt lat="44.19328539187948" lon="8.305959599735827"><ele>99.0</ele><time>2026-04-21T10:46:21.001Z</time></trkpt><trkpt lat="44.19337018568469" lon="8.305939709190818"><ele>99.42857142857143</ele><time>2026-04-21T10:46:22.001Z</time></trkpt><trkpt lat="44.19345417783818" lon="8.305921691677074"><ele>99.85714285714285</ele><time>2026-04-21T10:46:23.001Z</time></trkpt><trkpt lat="44.19352531668017" lon="8.305905968636122"><ele>100.28571428571428</ele><time>2026-04-21T10:46:24.001Z</time></trkpt><trkpt lat="44.19359818750487" lon="8.305887836452372"><ele>100.71428571428572</ele><time>2026-04-21T10:46:25.001Z</time></trkpt><trkpt lat="44.19366618821686" lon="8.30587148560305"><ele>101.14285714285714</ele><time>2026-04-21T10:46:26.001Z</time></trkpt><trkpt lat="44.19372951700829" lon="8.305855426187916"><ele>101.57142857142857</ele><time>2026-04-21T10:46:27.001Z</time></trkpt><trkpt lat="44.193794386762995" lon="8.305842343559037"><ele>102.0</ele><time>2026-04-21T10:46:28.001Z</time></trkpt><trkpt lat="44.19386546867962" lon="8.305827088009607"><ele>102.0</ele><time>2026-04-21T10:46:29.001Z</time></trkpt><trkpt lat="44.193936079090584" lon="8.305809524557354"><ele>102.0</ele><time>2026-04-21T10:46:30.001Z</time></trkpt><trkpt lat="44.19407697283203" lon="8.305772041194105"><ele>102.0</ele><time>2026-04-21T10:46:32.001Z</time></trkpt><trkpt lat="44.194149858627966" lon="8.305750962498898"><ele>102.0</ele><time>2026-04-21T10:46:33.001Z</time></trkpt><trkpt lat="44.19422434183422" lon="8.305731609687431"><ele>102.0</ele><time>2026-04-21T10:46:34.001Z</time></trkpt><trkpt lat="44.19429669177718" lon="8.305709037159824"><ele>102.0</ele><time>2026-04-21T10:46:35.001Z</time></trkpt><trkpt lat="44.19436780875513" lon="8.305673678238495"><ele>103.39999999999999</ele><time>2026-04-21T10:46:36.001Z</time></trkpt><trkpt lat="44.19444394521211" lon="8.305634536870784"><ele>104.8</ele><time>2026-04-21T10:46:37.001Z</time></trkpt><trkpt lat="44.19452877332582" lon="8.305597012275223"><ele>106.2</ele><time>2026-04-21T10:46:38.001Z</time></trkpt><trkpt lat="44.194621263040794" lon="8.30556884531216"><ele>107.6</ele><time>2026-04-21T10:46:39.001Z</time></trkpt><trkpt lat="44.194712063254784" lon="8.305555378131816"><ele>109.0</ele><time>2026-04-21T10:46:40.001Z</time></trkpt><trkpt lat="44.19480561781643" lon="8.305534083178848"><ele>106.25</ele><time>2026-04-21T10:46:41Z</time></trkpt><trkpt lat="44.19491354264031" lon="8.30550963537087"><ele>103.5</ele><time>2026-04-21T10:46:42Z</time></trkpt><trkpt lat="44.19503307380919" lon="8.305483610391137"><ele>100.75</ele><time>2026-04-21T10:46:43Z</time></trkpt><trkpt lat="44.19516187187252" lon="8.305455657072905"><ele>98.0</ele><time>2026-04-21T10:46:44Z</time></trkpt><trkpt lat="44.19528130587618" lon="8.30543093875994"><ele>98.0</ele><time>2026-04-21T10:46:45Z</time></trkpt><trkpt lat="44.19540184473833" lon="8.305407759195035"><ele>98.0</ele><time>2026-04-21T10:46:46Z</time></trkpt><trkpt lat="44.19551660708452" lon="8.305381685055858"><ele>98.0</ele><time>2026-04-21T10:46:47Z</time></trkpt><trkpt lat="44.19562953451565" lon="8.305353832649956"><ele>98.0</ele><time>2026-04-21T10:46:48Z</time></trkpt><trkpt lat="44.19574054811194" lon="8.305327179438565"><ele>100.0</ele><time>2026-04-21T10:46:49Z</time></trkpt><trkpt lat="44.19585176466648" lon="8.30530577553582"><ele>102.0</ele><time>2026-04-21T10:46:50Z</time></trkpt><trkpt lat="44.19595892688513" lon="8.30528391465224"><ele>104.00000000000001</ele><time>2026-04-21T10:46:51Z</time></trkpt><trkpt lat="44.1960672536663" lon="8.305259695556718"><ele>106.0</ele><time>2026-04-21T10:46:52Z</time></trkpt><trkpt lat="44.19617893749146" lon="8.30523533799577"><ele>108.0</ele><time>2026-04-21T10:46:53Z</time></trkpt><trkpt lat="44.19629315781392" lon="8.30521250049795"><ele>108.0</ele><time>2026-04-21T10:46:54Z</time></trkpt><trkpt lat="44.19641167013043" lon="8.305187734660832"><ele>108.0</ele><time>2026-04-21T10:46:55Z</time></trkpt><trkpt lat="44.19654210517925" lon="8.30515954304814"><ele>108.0</ele><time>2026-04-21T10:46:56Z</time></trkpt><trkpt lat="44.19667925086079" lon="8.305127321440601"><ele>108.0</ele><time>2026-04-21T10:46:57Z</time></trkpt><trkpt lat="44.19682336575104" lon="8.305120728718842"><ele>111.5</ele><time>2026-04-21T10:46:58Z</time></trkpt><trkpt lat="44.19697154869276" lon="8.305103209269015"><ele>115.0</ele><time>2026-04-21T10:46:59Z</time></trkpt><trkpt lat="44.19712160587869" lon="8.305086802921373"><ele>118.5</ele><time>2026-04-21T10:47:00Z</time></trkpt><trkpt lat="44.197269459286424" lon="8.305072756284444"><ele>122.0</ele><time>2026-04-21T10:47:01Z</time></trkpt><trkpt lat="44.197403601225304" lon="8.305063413194414"><ele>123.75</ele><time>2026-04-21T10:47:02Z</time></trkpt><trkpt lat="44.19752972600259" lon="8.305056328515027"><ele>125.5</ele><time>2026-04-21T10:47:03Z</time></trkpt><trkpt lat="44.1976517659129" lon="8.305052633819777"><ele>127.25</ele><time>2026-04-21T10:47:04Z</time></trkpt><trkpt lat="44.19777695915109" lon="8.305051133638406"><ele>129.0</ele><time>2026-04-21T10:47:05Z</time></trkpt><trkpt lat="44.197904845695135" lon="8.305052469280213"><ele>129.0</ele><time>2026-04-21T10:47:06Z</time></trkpt><trkpt lat="44.19803300568379" lon="8.30505793327226"><ele>129.0</ele><time>2026-04-21T10:47:07Z</time></trkpt><trkpt lat="44.198162811984844" lon="8.305067355840295"><ele>129.0</ele><time>2026-04-21T10:47:08Z</time></trkpt><trkpt lat="44.19829913222457" lon="8.305081336301466"><ele>129.0</ele><time>2026-04-21T10:47:09Z</time></trkpt><trkpt lat="44.198445887513905" lon="8.305099650583236"><ele>134.66666666666666</ele><time>2026-04-21T10:47:10Z</time></trkpt><trkpt lat="44.19859335235252" lon="8.305121269228184"><ele>140.33333333333331</ele><time>2026-04-21T10:47:11Z</time></trkpt><trkpt lat="44.19874639770297" lon="8.305148892580178"><ele>146.0</ele><time>2026-04-21T10:47:12Z</time></trkpt><trkpt lat="44.198908405176745" lon="8.30518205630243"><ele>154.33333333333331</ele><time>2026-04-21T10:47:13Z</time></trkpt><trkpt lat="44.19906906089299" lon="8.305218216659144"><ele>162.66666666666666</ele><time>2026-04-21T10:47:14Z</time></trkpt><trkpt lat="44.19923851454453" lon="8.305264127834525"><ele>171.0</ele><time>2026-04-21T10:47:15Z</time></trkpt><trkpt lat="44.199421823142345" lon="8.30532110633424"><ele>171.0</ele><time>2026-04-21T10:47:16.061Z</time></trkpt><trkpt lat="44.19960245063997" lon="8.305386433609675"><ele>171.0</ele><time>2026-04-21T10:47:17.059Z</time></trkpt><trkpt lat="44.20141827194784" lon="8.306656288679314"><ele>270.0</ele><time>2026-04-21T10:47:20.524Z</time></trkpt><trkpt lat="44.20208765289194" lon="8.307293697614867"><ele>277.0</ele><time>2026-04-21T10:47:21.526Z</time></trkpt><trkpt lat="44.20269918585229" lon="8.30802517107828"><ele>302.0</ele><time>2026-04-21T10:47:22.524Z</time></trkpt><trkpt lat="44.20325788969387" lon="8.308847062502348"><ele>316.0</ele><time>2026-04-21T10:47:23.528Z</time></trkpt><trkpt lat="44.20381073770475" lon="8.30966406608522"><ele>355.0</ele><time>2026-04-21T10:47:24.524Z</time></trkpt><trkpt lat="44.204368870151" lon="8.310484579962136"><ele>379.0</ele><time>2026-04-21T10:47:25.527Z</time></trkpt><trkpt lat="44.20492613319469" lon="8.311301945255273"><ele>370.0</ele><time>2026-04-21T10:47:26.527Z</time></trkpt><trkpt lat="44.20548172809536" lon="8.312119342275288"><ele>331.0</ele><time>2026-04-21T10:47:27.526Z</time></trkpt><trkpt lat="44.20603777640874" lon="8.312938851162743"><ele>323.0</ele><time>2026-04-21T10:47:28.527Z</time></trkpt><trkpt lat="44.20659439423918" lon="8.313759257087936"><ele>305.0</ele><time>2026-04-21T10:47:29.528Z</time></trkpt><trkpt lat="44.20714882028657" lon="8.314580135470553"><ele>301.0</ele><time>2026-04-21T10:47:30.528Z</time></trkpt><trkpt lat="44.207701112283935" lon="8.31539805545548"><ele>292.0</ele><time>2026-04-21T10:47:31.524Z</time></trkpt><trkpt lat="44.20825591491335" lon="8.316220126142294"><ele>288.0</ele><time>2026-04-21T10:47:32.525Z</time></trkpt><trkpt lat="44.20881281029815" lon="8.317040627617294"><ele>243.0</ele><time>2026-04-21T10:47:33.527Z</time></trkpt><trkpt lat="44.20937069319435" lon="8.317853081286222"><ele>216.0</ele><time>2026-04-21T10:47:34.525Z</time></trkpt><trkpt lat="44.20994934933532" lon="8.318645905650941"><ele>176.0</ele><time>2026-04-21T10:47:35.528Z</time></trkpt><trkpt lat="44.210742568988145" lon="8.31917877376438"><ele>176.0</ele><time>2026-04-21T10:48:58.001Z</time></trkpt><trkpt lat="44.21083172281248" lon="8.31928426205214"><ele>176.0</ele><time>2026-04-21T10:48:59.001Z</time></trkpt><trkpt lat="44.210932611352774" lon="8.319428720727608"><ele>176.0</ele><time>2026-04-21T10:49:00.001Z</time></trkpt><trkpt lat="44.21104481251893" lon="8.319772146871287"><ele>175.0</ele><time>2026-04-21T10:49:01.001Z</time></trkpt><trkpt lat="44.21118048912362" lon="8.319909331069223"><ele>174.0</ele><time>2026-04-21T10:49:03.001Z</time></trkpt><trkpt lat="44.21128105684737" lon="8.320008881213008"><ele>173.0</ele><time>2026-04-21T10:49:04Z</time></trkpt><trkpt lat="44.21138569844634" lon="8.32011520804385"><ele>172.0</ele><time>2026-04-21T10:49:05Z</time></trkpt><trkpt lat="44.21148467634381" lon="8.320256977124687"><ele>171.66666666666669</ele><time>2026-04-21T10:49:06Z</time></trkpt><trkpt lat="44.21161102654105" lon="8.320394756186333"><ele>171.33333333333334</ele><time>2026-04-21T10:49:07Z</time></trkpt><trkpt lat="44.21175865329478" lon="8.320524305980044"><ele>171.0</ele><time>2026-04-21T10:49:08Z</time></trkpt><trkpt lat="44.21191483590768" lon="8.32065484210634"><ele>168.33333333333334</ele><time>2026-04-21T10:49:09Z</time></trkpt><trkpt lat="44.2120893243715" lon="8.320792419990399"><ele>165.66666666666669</ele><time>2026-04-21T10:49:10Z</time></trkpt><trkpt lat="44.21227370017349" lon="8.320936326059499"><ele>163.0</ele><time>2026-04-21T10:49:11Z</time></trkpt><trkpt lat="44.212463376937116" lon="8.321081506532234"><ele>163.0</ele><time>2026-04-21T10:49:12Z</time></trkpt><trkpt lat="44.21266195017892" lon="8.321225573264378"><ele>163.0</ele><time>2026-04-21T10:49:13Z</time></trkpt><trkpt lat="44.21287087815088" lon="8.321371978638492"><ele>159.0</ele><time>2026-04-21T10:49:14Z</time></trkpt><trkpt lat="44.21308693302812" lon="8.321517943266091"><ele>155.0</ele><time>2026-04-21T10:49:15Z</time></trkpt><trkpt lat="44.21330898522205" lon="8.32166734845641"><ele>155.0</ele><time>2026-04-21T10:49:16Z</time></trkpt><trkpt lat="44.21353041514391" lon="8.321821130849179"><ele>155.0</ele><time>2026-04-21T10:49:17Z</time></trkpt><trkpt lat="44.21375903295237" lon="8.321977236148298"><ele>152.0</ele><time>2026-04-21T10:49:18Z</time></trkpt><trkpt lat="44.2139927978206" lon="8.32213792621384"><ele>149.0</ele><time>2026-04-21T10:49:19Z</time></trkpt><trkpt lat="44.21422909772687" lon="8.322300256313937"><ele>149.0</ele><time>2026-04-21T10:49:20Z</time></trkpt><trkpt lat="44.214460387011265" lon="8.322462945560734"><ele>149.0</ele><time>2026-04-21T10:49:21Z</time></trkpt><trkpt lat="44.21469121876338" lon="8.322627540115214"><ele>155.5</ele><time>2026-04-21T10:49:22Z</time></trkpt><trkpt lat="44.21491965696737" lon="8.322788109355061"><ele>162.0</ele><time>2026-04-21T10:49:23Z</time></trkpt><trkpt lat="44.215146254364775" lon="8.322943855178492"><ele>150.0</ele><time>2026-04-21T10:49:24Z</time></trkpt><trkpt lat="44.215374057594964" lon="8.323095148999835"><ele>138.0</ele><time>2026-04-21T10:49:25Z</time></trkpt><trkpt lat="44.21560027945635" lon="8.32324443882117"><ele>142.5</ele><time>2026-04-21T10:49:26Z</time></trkpt><trkpt lat="44.21582326153694" lon="8.32339329973569"><ele>147.0</ele><time>2026-04-21T10:49:27Z</time></trkpt><trkpt lat="44.216046250283775" lon="8.323538359769106"><ele>147.0</ele><time>2026-04-21T10:49:28Z</time></trkpt><trkpt lat="44.21626600244095" lon="8.323682315516972"><ele>147.0</ele><time>2026-04-21T10:49:29Z</time></trkpt><trkpt lat="44.21648403749551" lon="8.323822989053166"><ele>143.0</ele><time>2026-04-21T10:49:30Z</time></trkpt><trkpt lat="44.21670005361072" lon="8.323967241382848"><ele>139.0</ele><time>2026-04-21T10:49:31Z</time></trkpt><trkpt lat="44.216912547659476" lon="8.32411550188785"><ele>139.0</ele><time>2026-04-21T10:49:32Z</time></trkpt><trkpt lat="44.217124046879995" lon="8.324261332139276"><ele>139.0</ele><time>2026-04-21T10:49:33Z</time></trkpt><trkpt lat="44.21733852481186" lon="8.324406513411102"><ele>140.0</ele><time>2026-04-21T10:49:34Z</time></trkpt><trkpt lat="44.21755164656714" lon="8.324547337123581"><ele>141.0</ele><time>2026-04-21T10:49:35Z</time></trkpt><trkpt lat="44.21776475982944" lon="8.324689950687725"><ele>140.5</ele><time>2026-04-21T10:49:36Z</time></trkpt><trkpt lat="44.21797895881378" lon="8.324831730796163"><ele>140.0</ele><time>2026-04-21T10:49:37Z</time></trkpt><trkpt lat="44.21819126841979" lon="8.324970866052604"><ele>140.0</ele><time>2026-04-21T10:49:38Z</time></trkpt><trkpt lat="44.218400593714215" lon="8.325111146570622"><ele>140.0</ele><time>2026-04-21T10:49:39Z</time></trkpt><trkpt lat="44.21861161627634" lon="8.325250593748207"><ele>140.0</ele><time>2026-04-21T10:49:40Z</time></trkpt><trkpt lat="44.218819934665056" lon="8.325388355237022"><ele>140.0</ele><time>2026-04-21T10:49:41Z</time></trkpt><trkpt lat="44.21902818321594" lon="8.325529588890138"><ele>143.5</ele><time>2026-04-21T10:49:42Z</time></trkpt><trkpt lat="44.21923660838215" lon="8.325676948302087"><ele>147.0</ele><time>2026-04-21T10:49:43Z</time></trkpt><trkpt lat="44.219440945888415" lon="8.325833964056551"><ele>147.0</ele><time>2026-04-21T10:49:44Z</time></trkpt><trkpt lat="44.21964004538624" lon="8.326002716227965"><ele>147.0</ele><time>2026-04-21T10:49:45Z</time></trkpt><trkpt lat="44.21983379945167" lon="8.326183517324175"><ele>148.5</ele><time>2026-04-21T10:49:46Z</time></trkpt><trkpt lat="44.220026976022474" lon="8.326377823874099"><ele>150.0</ele><time>2026-04-21T10:49:47Z</time></trkpt><trkpt lat="44.22021117981149" lon="8.326581016892627"><ele>160.5</ele><time>2026-04-21T10:49:48Z</time></trkpt><trkpt lat="44.22039213422854" lon="8.326792024252148"><ele>171.0</ele><time>2026-04-21T10:49:49Z</time></trkpt><trkpt lat="44.22056925933285" lon="8.327012675088037"><ele>173.0</ele><time>2026-04-21T10:49:50Z</time></trkpt><trkpt lat="44.22073784532059" lon="8.327246820996281"><ele>175.0</ele><time>2026-04-21T10:49:51Z</time></trkpt><trkpt lat="44.22090392869913" lon="8.327484571997312"><ele>175.0</ele><time>2026-04-21T10:49:52Z</time></trkpt><trkpt lat="44.22106503177942" lon="8.327730575837174"><ele>175.0</ele><time>2026-04-21T10:49:53Z</time></trkpt><trkpt lat="44.22121968650915" lon="8.327991347460653"><ele>172.5</ele><time>2026-04-21T10:49:54Z</time></trkpt><trkpt lat="44.22136691633559" lon="8.328254945516104"><ele>170.0</ele><time>2026-04-21T10:49:55Z</time></trkpt><trkpt lat="44.2215057014398" lon="8.32852178241536"><ele>170.0</ele><time>2026-04-21T10:49:56Z</time></trkpt><trkpt lat="44.221635774956276" lon="8.328797140283536"><ele>170.0</ele><time>2026-04-21T10:49:57Z</time></trkpt><trkpt lat="44.22176080284486" lon="8.329074194624514"><ele>171.5</ele><time>2026-04-21T10:49:58Z</time></trkpt><trkpt lat="44.22187647782517" lon="8.32935306114149"><ele>173.0</ele><time>2026-04-21T10:49:59Z</time></trkpt><trkpt lat="44.22198776304334" lon="8.329640291638562"><ele>174.5</ele><time>2026-04-21T10:50:00Z</time></trkpt><trkpt lat="44.22208953774636" lon="8.329935525445638"><ele>176.0</ele><time>2026-04-21T10:50:01Z</time></trkpt><trkpt lat="44.222182035095145" lon="8.330234778724412"><ele>176.0</ele><time>2026-04-21T10:50:02Z</time></trkpt><trkpt lat="44.2222675597431" lon="8.330542417545852"><ele>176.0</ele><time>2026-04-21T10:50:03Z</time></trkpt><trkpt lat="44.22234798939206" lon="8.330851427116789"><ele>182.0</ele><time>2026-04-21T10:50:04Z</time></trkpt><trkpt lat="44.22242398755505" lon="8.33116186931242"><ele>188.0</ele><time>2026-04-21T10:50:05Z</time></trkpt><trkpt lat="44.22249597374438" lon="8.331474178124164"><ele>188.5</ele><time>2026-04-21T10:50:06Z</time></trkpt><trkpt lat="44.2225663137211" lon="8.331785188910207"><ele>189.0</ele><time>2026-04-21T10:50:07Z</time></trkpt><trkpt lat="44.22263539097816" lon="8.332095107551163"><ele>187.5</ele><time>2026-04-21T10:50:08Z</time></trkpt><trkpt lat="44.22270625423293" lon="8.332407743373611"><ele>186.0</ele><time>2026-04-21T10:50:09Z</time></trkpt><trkpt lat="44.22277700101883" lon="8.332723989003252"><ele>186.0</ele><time>2026-04-21T10:50:10Z</time></trkpt><trkpt lat="44.22284409749172" lon="8.333039420640214"><ele>186.0</ele><time>2026-04-21T10:50:11Z</time></trkpt><trkpt lat="44.2229092287351" lon="8.333356710336625"><ele>188.5</ele><time>2026-04-21T10:50:12Z</time></trkpt><trkpt lat="44.22297518240476" lon="8.333669333342012"><ele>191.0</ele><time>2026-04-21T10:50:13Z</time></trkpt><trkpt lat="44.22304223502965" lon="8.333975310275443"><ele>196.0</ele><time>2026-04-21T10:50:14Z</time></trkpt><trkpt lat="44.22310526562332" lon="8.334259515685932"><ele>201.0</ele><time>2026-04-21T10:50:15Z</time></trkpt><trkpt lat="44.22316129495086" lon="8.334516104032849"><ele>206.0</ele><time>2026-04-21T10:50:16Z</time></trkpt><trkpt lat="44.22321558122171" lon="8.334763399233767"><ele>213.33333333333334</ele><time>2026-04-21T10:50:17Z</time></trkpt><trkpt lat="44.223269574056474" lon="8.335000346330679"><ele>220.66666666666669</ele><time>2026-04-21T10:50:18Z</time></trkpt><trkpt lat="44.223322734957996" lon="8.335237819934509"><ele>228.0</ele><time>2026-04-21T10:50:19Z</time></trkpt><trkpt lat="44.22337405764154" lon="8.33547704508552"><ele>234.33333333333331</ele><time>2026-04-21T10:50:20Z</time></trkpt><trkpt lat="44.22343442223546" lon="8.335739915059351"><ele>240.66666666666666</ele><time>2026-04-21T10:50:21.064Z</time></trkpt><trkpt lat="44.223493977281834" lon="8.33599875929837"><ele>247.0</ele><time>2026-04-21T10:50:22.066Z</time></trkpt><trkpt lat="44.223551628017326" lon="8.33626899053283"><ele>254.0</ele><time>2026-04-21T10:50:23.06Z</time></trkpt><trkpt lat="44.223608637053495" lon="8.33655397205375"><ele>261.0</ele><time>2026-04-21T10:50:24.059Z</time></trkpt><trkpt lat="44.22366690570315" lon="8.336852379730813"><ele>268.0</ele><time>2026-04-21T10:50:25.058Z</time></trkpt><trkpt lat="44.22372664592051" lon="8.337154236052559"><ele>279.5</ele><time>2026-04-21T10:50:26.026Z</time></trkpt><trkpt lat="44.22379042857267" lon="8.337472774042638"><ele>291.0</ele><time>2026-04-21T10:50:27.026Z</time></trkpt><trkpt lat="44.224749820245236" lon="8.341322825243871"><ele>403.0</ele><time>2026-04-21T10:50:31.526Z</time></trkpt><trkpt lat="44.225020905741886" lon="8.342517923100365"><ele>376.0</ele><time>2026-04-21T10:50:32.527Z</time></trkpt><trkpt lat="44.22523587716951" lon="8.343735216980008"><ele>303.0</ele><time>2026-04-21T10:50:33.529Z</time></trkpt><trkpt lat="44.225358589233515" lon="8.344968793079806"><ele>269.0</ele><time>2026-04-21T10:50:34.525Z</time></trkpt><trkpt lat="44.225391630545104" lon="8.3462202029695"><ele>235.0</ele><time>2026-04-21T10:50:35.526Z</time></trkpt><trkpt lat="44.225300241530235" lon="8.34743757619828"><ele>235.0</ele><time>2026-04-21T10:50:57Z</time></trkpt><trkpt lat="44.22527862341951" lon="8.34776635569377"><ele>235.0</ele><time>2026-04-21T10:50:58Z</time></trkpt><trkpt lat="44.22524875987641" lon="8.348122917557294"><ele>231.5</ele><time>2026-04-21T10:50:59Z</time></trkpt><trkpt lat="44.22520833826223" lon="8.348470943921598"><ele>228.0</ele><time>2026-04-21T10:51:00Z</time></trkpt><trkpt lat="44.22515758512575" lon="8.348808863740675"><ele>220.0</ele><time>2026-04-21T10:51:01Z</time></trkpt><trkpt lat="44.225103525419414" lon="8.349155549436489"><ele>212.0</ele><time>2026-04-21T10:51:02Z</time></trkpt><trkpt lat="44.22504602981983" lon="8.349496755849032"><ele>200.0</ele><time>2026-04-21T10:51:03Z</time></trkpt><trkpt lat="44.224992904046935" lon="8.349835038807074"><ele>188.0</ele><time>2026-04-21T10:51:04Z</time></trkpt><trkpt lat="44.22493807403991" lon="8.350171559266311"><ele>188.0</ele><time>2026-04-21T10:51:05Z</time></trkpt><trkpt lat="44.224879076917624" lon="8.350503917858394"><ele>188.0</ele><time>2026-04-21T10:51:06.001Z</time></trkpt><trkpt lat="44.22482355789697" lon="8.350834501513694"><ele>177.0</ele><time>2026-04-21T10:51:07.001Z</time></trkpt><trkpt lat="44.22476457999386" lon="8.351165624075358"><ele>166.0</ele><time>2026-04-21T10:51:08.001Z</time></trkpt><trkpt lat="44.22470932293471" lon="8.351499553236012"><ele>162.5</ele><time>2026-04-21T10:51:09Z</time></trkpt><trkpt lat="44.22465582814243" lon="8.35183358016941"><ele>159.0</ele><time>2026-04-21T10:51:10Z</time></trkpt><trkpt lat="44.22461004020318" lon="8.352169960191821"><ele>161.0</ele><time>2026-04-21T10:51:11Z</time></trkpt><trkpt lat="44.22457293318272" lon="8.352510287471343"><ele>163.0</ele><time>2026-04-21T10:51:12Z</time></trkpt><trkpt lat="44.22453224695295" lon="8.352849814592345"><ele>170.5</ele><time>2026-04-21T10:51:13Z</time></trkpt><trkpt lat="44.224504317989826" lon="8.353191719201101"><ele>178.0</ele><time>2026-04-21T10:51:14Z</time></trkpt><trkpt lat="44.224488579567385" lon="8.353536112560043"><ele>189.5</ele><time>2026-04-21T10:51:15Z</time></trkpt><trkpt lat="44.224478657121594" lon="8.353881408443572"><ele>201.0</ele><time>2026-04-21T10:51:16Z</time></trkpt><trkpt lat="44.22447790865485" lon="8.354223298415343"><ele>201.0</ele><time>2026-04-21T10:51:17Z</time></trkpt><trkpt lat="44.22449002688557" lon="8.354567943471322"><ele>201.0</ele><time>2026-04-21T10:51:18Z</time></trkpt><trkpt lat="44.224503779543646" lon="8.354910969029655"><ele>201.5</ele><time>2026-04-21T10:51:19Z</time></trkpt><trkpt lat="44.22452645062718" lon="8.355254836745452"><ele>202.0</ele><time>2026-04-21T10:51:20Z</time></trkpt><trkpt lat="44.2245578051236" lon="8.355598029721197"><ele>202.0</ele><time>2026-04-21T10:51:21Z</time></trkpt><trkpt lat="44.224596076775796" lon="8.355939477689613"><ele>202.0</ele><time>2026-04-21T10:51:22Z</time></trkpt><trkpt lat="44.22464252226453" lon="8.356276823672493"><ele>198.0</ele><time>2026-04-21T10:51:23Z</time></trkpt><trkpt lat="44.22469399879618" lon="8.356616646740294"><ele>194.0</ele><time>2026-04-21T10:51:24Z</time></trkpt><trkpt lat="44.22475552700328" lon="8.356955114618643"><ele>209.5</ele><time>2026-04-21T10:51:25Z</time></trkpt><trkpt lat="44.224820585843254" lon="8.357292587347073"><ele>225.0</ele><time>2026-04-21T10:51:26Z</time></trkpt><trkpt lat="44.22489663301239" lon="8.357629896874716"><ele>225.0</ele><time>2026-04-21T10:51:27Z</time></trkpt><trkpt lat="44.22498271114906" lon="8.35796191478422"><ele>225.0</ele><time>2026-04-21T10:51:28Z</time></trkpt><trkpt lat="44.22508040479222" lon="8.358289490234808"><ele>225.0</ele><time>2026-04-21T10:51:29Z</time></trkpt><trkpt lat="44.225179347366634" lon="8.358613285311776"><ele>225.0</ele><time>2026-04-21T10:51:30Z</time></trkpt><trkpt lat="44.225287758389086" lon="8.35893381865589"><ele>226.0</ele><time>2026-04-21T10:51:31Z</time></trkpt><trkpt lat="44.225394439901606" lon="8.359254306339645"><ele>227.0</ele><time>2026-04-21T10:51:32Z</time></trkpt><trkpt lat="44.225502589280666" lon="8.359574252366928"><ele>227.0</ele><time>2026-04-21T10:51:33Z</time></trkpt><trkpt lat="44.22560385866454" lon="8.359893005271399"><ele>227.0</ele><time>2026-04-21T10:51:34Z</time></trkpt><trkpt lat="44.22571117065419" lon="8.360210600295378"><ele>230.5</ele><time>2026-04-21T10:51:35Z</time></trkpt><trkpt lat="44.22581683094067" lon="8.36052593303868"><ele>234.0</ele><time>2026-04-21T10:51:36Z</time></trkpt><trkpt lat="44.22591842437525" lon="8.360832125849786"><ele>234.0</ele><time>2026-04-21T10:51:37Z</time></trkpt><trkpt lat="44.226017927953784" lon="8.361140875325031"><ele>234.0</ele><time>2026-04-21T10:51:38Z</time></trkpt><trkpt lat="44.22611997835628" lon="8.36144550055976"><ele>240.0</ele><time>2026-04-21T10:51:39Z</time></trkpt><trkpt lat="44.22622315511656" lon="8.36175069746864"><ele>246.0</ele><time>2026-04-21T10:51:40Z</time></trkpt><trkpt lat="44.226327037762644" lon="8.362059022121052"><ele>242.5</ele><time>2026-04-21T10:51:41Z</time></trkpt><trkpt lat="44.22643162299476" lon="8.362367760440332"><ele>239.0</ele><time>2026-04-21T10:51:42Z</time></trkpt><trkpt lat="44.22653515722765" lon="8.36267649819461"><ele>239.0</ele><time>2026-04-21T10:51:43Z</time></trkpt><trkpt lat="44.22663732416352" lon="8.362985659242707"><ele>239.0</ele><time>2026-04-21T10:51:44Z</time></trkpt><trkpt lat="44.226740604456225" lon="8.363295726578707"><ele>246.5</ele><time>2026-04-21T10:51:45Z</time></trkpt><trkpt lat="44.226846819058025" lon="8.363610767980662"><ele>254.0</ele><time>2026-04-21T10:51:46Z</time></trkpt><trkpt lat="44.22695529840014" lon="8.363930496279771"><ele>269.0</ele><time>2026-04-21T10:51:47Z</time></trkpt><trkpt lat="44.2270700523367" lon="8.364252062313929"><ele>284.0</ele><time>2026-04-21T10:51:48Z</time></trkpt><trkpt lat="44.22719115883295" lon="8.364576427490054"><ele>294.5</ele><time>2026-04-21T10:51:49Z</time></trkpt><trkpt lat="44.227311246448124" lon="8.36489924005484"><ele>305.0</ele><time>2026-04-21T10:51:50Z</time></trkpt><trkpt lat="44.22744085394419" lon="8.365243991581771"><ele>301.0</ele><time>2026-04-21T10:51:51.07Z</time></trkpt><trkpt lat="44.22756857631501" lon="8.365554726076766"><ele>297.0</ele><time>2026-04-21T10:51:52.064Z</time></trkpt><trkpt lat="44.22767903174068" lon="8.365871166512996"><ele>297.0</ele><time>2026-04-21T10:51:53.065Z</time></trkpt><trkpt lat="44.227775167212386" lon="8.366193258564463"><ele>297.0</ele><time>2026-04-21T10:51:54.059Z</time></trkpt><trkpt lat="44.22786189881372" lon="8.366521472520676"><ele>283.5</ele><time>2026-04-21T10:51:55.061Z</time></trkpt><trkpt lat="44.22793357980533" lon="8.366829242370185"><ele>270.0</ele><time>2026-04-21T10:51:56.027Z</time></trkpt><trkpt lat="44.22799484929266" lon="8.367148252409148"><ele>231.0</ele><time>2026-04-21T10:51:57.026Z</time></trkpt><trkpt lat="44.22810440215539" lon="8.369422402306105"><ele>226.0</ele><time>2026-04-21T10:52:05Z</time></trkpt><trkpt lat="44.22810909636021" lon="8.369742664421725"><ele>221.0</ele><time>2026-04-21T10:52:06Z</time></trkpt><trkpt lat="44.228063817738246" lon="8.3700484151348"><ele>221.0</ele><time>2026-04-21T10:52:07Z</time></trkpt><trkpt lat="44.22800563041971" lon="8.370362455594538"><ele>221.0</ele><time>2026-04-21T10:52:08Z</time></trkpt><trkpt lat="44.22794725420931" lon="8.370687954507414"><ele>216.5</ele><time>2026-04-21T10:52:09Z</time></trkpt><trkpt lat="44.22787692278463" lon="8.371010251248386"><ele>212.0</ele><time>2026-04-21T10:52:10Z</time></trkpt><trkpt lat="44.227827762746024" lon="8.371340642661947"><ele>211.0</ele><time>2026-04-21T10:52:11Z</time></trkpt><trkpt lat="44.22775533828106" lon="8.371686538903838"><ele>210.0</ele><time>2026-04-21T10:52:12Z</time></trkpt><trkpt lat="44.2276695788448" lon="8.372043817137632"><ele>209.0</ele><time>2026-04-21T10:52:13Z</time></trkpt><trkpt lat="44.22758049781331" lon="8.372392755408523"><ele>208.0</ele><time>2026-04-21T10:52:14Z</time></trkpt><trkpt lat="44.22748034087133" lon="8.372736875068947"><ele>212.0</ele><time>2026-04-21T10:52:15Z</time></trkpt><trkpt lat="44.22738110534438" lon="8.373084401626743"><ele>216.0</ele><time>2026-04-21T10:52:16Z</time></trkpt><trkpt lat="44.227285073260525" lon="8.373432875166438"><ele>202.5</ele><time>2026-04-21T10:52:17Z</time></trkpt><trkpt lat="44.22718624142737" lon="8.373781216739768"><ele>189.0</ele><time>2026-04-21T10:52:18Z</time></trkpt><trkpt lat="44.22708622641471" lon="8.374130015761095"><ele>186.5</ele><time>2026-04-21T10:52:19Z</time></trkpt><trkpt lat="44.22699106700609" lon="8.374468953879898"><ele>184.0</ele><time>2026-04-21T10:52:20Z</time></trkpt><trkpt lat="44.226901015121506" lon="8.374800068624756"><ele>189.0</ele><time>2026-04-21T10:52:21Z</time></trkpt><trkpt lat="44.226812059553815" lon="8.375137060554577"><ele>194.0</ele><time>2026-04-21T10:52:22Z</time></trkpt><trkpt lat="44.22672521355345" lon="8.375476068809611"><ele>197.5</ele><time>2026-04-21T10:52:23Z</time></trkpt><trkpt lat="44.226640627813744" lon="8.375814386950884"><ele>201.0</ele><time>2026-04-21T10:52:24Z</time></trkpt><trkpt lat="44.22655942417462" lon="8.376150451229549"><ele>204.0</ele><time>2026-04-21T10:52:25Z</time></trkpt><trkpt lat="44.226484383435526" lon="8.376488489616497"><ele>207.0</ele><time>2026-04-21T10:52:26Z</time></trkpt><trkpt lat="44.226416993368595" lon="8.37683533735055"><ele>189.0</ele><time>2026-04-21T10:52:27Z</time></trkpt><trkpt lat="44.226359218861404" lon="8.377186969460482"><ele>171.0</ele><time>2026-04-21T10:52:28Z</time></trkpt><trkpt lat="44.22631291675546" lon="8.377545376818823"><ele>171.0</ele><time>2026-04-21T10:52:29Z</time></trkpt><trkpt lat="44.22627660714784" lon="8.37789654997265"><ele>171.0</ele><time>2026-04-21T10:52:30Z</time></trkpt><trkpt lat="44.22624646843214" lon="8.378252650385804"><ele>173.5</ele><time>2026-04-21T10:52:31Z</time></trkpt><trkpt lat="44.226223687343484" lon="8.378614287102382"><ele>176.0</ele><time>2026-04-21T10:52:32Z</time></trkpt><trkpt lat="44.22621217283858" lon="8.378972415621014"><ele>176.0</ele><time>2026-04-21T10:52:33Z</time></trkpt><trkpt lat="44.22620684007858" lon="8.379320340598586"><ele>176.0</ele><time>2026-04-21T10:52:34Z</time></trkpt><trkpt lat="44.226201212455955" lon="8.37967312776184"><ele>177.0</ele><time>2026-04-21T10:52:35Z</time></trkpt><trkpt lat="44.226196116075634" lon="8.380030173569105"><ele>178.0</ele><time>2026-04-21T10:52:36Z</time></trkpt><trkpt lat="44.226193459863325" lon="8.380392339306162"><ele>173.0</ele><time>2026-04-21T10:52:37Z</time></trkpt><trkpt lat="44.22619014660595" lon="8.380761362078275"><ele>168.0</ele><time>2026-04-21T10:52:38Z</time></trkpt><trkpt lat="44.22618838604837" lon="8.381132748860301"><ele>163.5</ele><time>2026-04-21T10:52:39Z</time></trkpt><trkpt lat="44.22618803650403" lon="8.381506992886754"><ele>159.0</ele><time>2026-04-21T10:52:40Z</time></trkpt><trkpt lat="44.22618808811794" lon="8.38188384858385"><ele>163.0</ele><time>2026-04-21T10:52:41Z</time></trkpt><trkpt lat="44.22619057482174" lon="8.382264793968197"><ele>167.0</ele><time>2026-04-21T10:52:42Z</time></trkpt><trkpt lat="44.226189834518436" lon="8.382632214359182"><ele>167.0</ele><time>2026-04-21T10:52:43Z</time></trkpt><trkpt lat="44.2261884755922" lon="8.382997318752114"><ele>167.0</ele><time>2026-04-21T10:52:44Z</time></trkpt><trkpt lat="44.2261929410155" lon="8.38335786956302"><ele>168.5</ele><time>2026-04-21T10:52:45Z</time></trkpt><trkpt lat="44.22620952895915" lon="8.383725208110144"><ele>170.0</ele><time>2026-04-21T10:52:46Z</time></trkpt><trkpt lat="44.226237571611954" lon="8.384087547685155"><ele>165.5</ele><time>2026-04-21T10:52:47Z</time></trkpt><trkpt lat="44.22627709941218" lon="8.384448809583025"><ele>161.0</ele><time>2026-04-21T10:52:48Z</time></trkpt><trkpt lat="44.22633001139341" lon="8.384808619229203"><ele>159.0</ele><time>2026-04-21T10:52:49Z</time></trkpt><trkpt lat="44.22639789155963" lon="8.385163539040478"><ele>157.0</ele><time>2026-04-21T10:52:50Z</time></trkpt><trkpt lat="44.226477389622815" lon="8.385514244729658"><ele>173.0</ele><time>2026-04-21T10:52:51Z</time></trkpt><trkpt lat="44.226566008189025" lon="8.385855294886987"><ele>189.0</ele><time>2026-04-21T10:52:52Z</time></trkpt><trkpt lat="44.22666504341112" lon="8.386190489587364"><ele>192.0</ele><time>2026-04-21T10:52:53Z</time></trkpt><trkpt lat="44.22677146354468" lon="8.386523977219056"><ele>195.0</ele><time>2026-04-21T10:52:54Z</time></trkpt><trkpt lat="44.226879994940454" lon="8.386857288873706"><ele>197.0</ele><time>2026-04-21T10:52:55Z</time></trkpt><trkpt lat="44.226987761248544" lon="8.387191098739514"><ele>199.0</ele><time>2026-04-21T10:52:56Z</time></trkpt><trkpt lat="44.22709676062552" lon="8.387526674780418"><ele>199.0</ele><time>2026-04-21T10:52:57Z</time></trkpt><trkpt lat="44.22720130736313" lon="8.387862596451924"><ele>199.0</ele><time>2026-04-21T10:52:58Z</time></trkpt><trkpt lat="44.22729425673019" lon="8.38821482986548"><ele>182.0</ele><time>2026-04-21T10:52:59Z</time></trkpt><trkpt lat="44.227383819370836" lon="8.388568288026775"><ele>165.0</ele><time>2026-04-21T10:53:00Z</time></trkpt><trkpt lat="44.22748013887813" lon="8.388953179899817"><ele>163.0</ele><time>2026-04-21T10:53:01Z</time></trkpt><trkpt lat="44.227560157019425" lon="8.389296111321068"><ele>161.0</ele><time>2026-04-21T10:53:02Z</time></trkpt><trkpt lat="44.22762630356763" lon="8.389660862794415"><ele>164.0</ele><time>2026-04-21T10:53:03Z</time></trkpt><trkpt lat="44.227688468654684" lon="8.390015814918764"><ele>167.0</ele><time>2026-04-21T10:53:04Z</time></trkpt><trkpt lat="44.22774660835014" lon="8.390360382253817"><ele>169.0</ele><time>2026-04-21T10:53:05Z</time></trkpt><trkpt lat="44.22780381389379" lon="8.390705698838921"><ele>171.0</ele><time>2026-04-21T10:53:06Z</time></trkpt><trkpt lat="44.227863974804805" lon="8.39105775650111"><ele>175.0</ele><time>2026-04-21T10:53:07.001Z</time></trkpt><trkpt lat="44.22792217908859" lon="8.391411232593816"><ele>179.0</ele><time>2026-04-21T10:53:08.001Z</time></trkpt><trkpt lat="44.2279789628284" lon="8.391768433776432"><ele>179.0</ele><time>2026-04-21T10:53:09.001Z</time></trkpt><trkpt lat="44.228036157442304" lon="8.392123132203317"><ele>179.0</ele><time>2026-04-21T10:53:10.001Z</time></trkpt><trkpt lat="44.22809411316088" lon="8.392479690854179"><ele>163.5</ele><time>2026-04-21T10:53:11.001Z</time></trkpt><trkpt lat="44.22815209256079" lon="8.392840235906903"><ele>148.0</ele><time>2026-04-21T10:53:12.001Z</time></trkpt><trkpt lat="44.22821208629989" lon="8.3932016899583"><ele>148.0</ele><time>2026-04-21T10:53:13.001Z</time></trkpt><trkpt lat="44.228272158175336" lon="8.393565344544488"><ele>148.0</ele><time>2026-04-21T10:53:14.001Z</time></trkpt><trkpt lat="44.22833328098754" lon="8.393925845665049"><ele>146.5</ele><time>2026-04-21T10:53:15Z</time></trkpt><trkpt lat="44.22839459021405" lon="8.394275198270297"><ele>145.0</ele><time>2026-04-21T10:53:16Z</time></trkpt><trkpt lat="44.2284649421914" lon="8.394609002726769"><ele>146.5</ele><time>2026-04-21T10:53:17Z</time></trkpt><trkpt lat="44.228547972885174" lon="8.39494683875617"><ele>148.0</ele><time>2026-04-21T10:53:18Z</time></trkpt><trkpt lat="44.22864019233609" lon="8.395274791043155"><ele>150.5</ele><time>2026-04-21T10:53:19Z</time></trkpt><trkpt lat="44.228744051502" lon="8.395600067984756"><ele>153.0</ele><time>2026-04-21T10:53:20Z</time></trkpt><trkpt lat="44.22886220470917" lon="8.395919376736256"><ele>144.0</ele><time>2026-04-21T10:53:21Z</time></trkpt><trkpt lat="44.22899105090517" lon="8.396229171244812"><ele>135.0</ele><time>2026-04-21T10:53:22Z</time></trkpt><trkpt lat="44.22912811790615" lon="8.396530160859047"><ele>135.0</ele><time>2026-04-21T10:53:23Z</time></trkpt><trkpt lat="44.2292751181609" lon="8.396821280600765"><ele>135.0</ele><time>2026-04-21T10:53:24Z</time></trkpt><trkpt lat="44.229431687539375" lon="8.397096284747505"><ele>139.5</ele><time>2026-04-21T10:53:25Z</time></trkpt><trkpt lat="44.22959119388634" lon="8.397352572568998"><ele>144.0</ele><time>2026-04-21T10:53:26Z</time></trkpt><trkpt lat="44.229757877850524" lon="8.397600518377553"><ele>136.0</ele><time>2026-04-21T10:53:27Z</time></trkpt><trkpt lat="44.229935736507464" lon="8.39783428883817"><ele>128.0</ele><time>2026-04-21T10:53:28Z</time></trkpt><trkpt lat="44.23012119994867" lon="8.398056952125458"><ele>128.0</ele><time>2026-04-21T10:53:29Z</time></trkpt><trkpt lat="44.230313959139025" lon="8.398269482655987"><ele>128.0</ele><time>2026-04-21T10:53:30Z</time></trkpt><trkpt lat="44.23051169133396" lon="8.398472769994441"><ele>122.5</ele><time>2026-04-21T10:53:31Z</time></trkpt><trkpt lat="44.23071553524521" lon="8.398663316825594"><ele>117.0</ele><time>2026-04-21T10:53:32Z</time></trkpt><trkpt lat="44.23092651700027" lon="8.398842338028697"><ele>110.0</ele><time>2026-04-21T10:53:33Z</time></trkpt><trkpt lat="44.23114222635856" lon="8.399002607833015"><ele>103.0</ele><time>2026-04-21T10:53:34Z</time></trkpt><trkpt lat="44.23136816918978" lon="8.399149169638331"><ele>92.5</ele><time>2026-04-21T10:53:35Z</time></trkpt><trkpt lat="44.23159830831457" lon="8.399281996255421"><ele>82.0</ele><time>2026-04-21T10:53:36Z</time></trkpt><trkpt lat="44.23183402159479" lon="8.399402270761124"><ele>82.0</ele><time>2026-04-21T10:53:37Z</time></trkpt><trkpt lat="44.23207694846951" lon="8.399504268046458"><ele>82.0</ele><time>2026-04-21T10:53:38Z</time></trkpt><trkpt lat="44.23232227696958" lon="8.39959010040058"><ele>69.5</ele><time>2026-04-21T10:53:39Z</time></trkpt><trkpt lat="44.23257067847809" lon="8.399657042199527"><ele>57.0</ele><time>2026-04-21T10:53:40Z</time></trkpt><trkpt lat="44.23282294058084" lon="8.399708975168068"><ele>55.5</ele><time>2026-04-21T10:53:41Z</time></trkpt><trkpt lat="44.233076849912756" lon="8.399745679658329"><ele>54.0</ele><time>2026-04-21T10:53:42Z</time></trkpt><trkpt lat="44.233330159077745" lon="8.39976688027341"><ele>71.5</ele><time>2026-04-21T10:53:43Z</time></trkpt><trkpt lat="44.23358566335923" lon="8.399768505094912"><ele>89.0</ele><time>2026-04-21T10:53:44Z</time></trkpt><trkpt lat="44.233840491615354" lon="8.399751036482954"><ele>95.0</ele><time>2026-04-21T10:53:45Z</time></trkpt><trkpt lat="44.23409334893731" lon="8.399715490465466"><ele>101.0</ele><time>2026-04-21T10:53:46Z</time></trkpt><trkpt lat="44.23434545296665" lon="8.39966790180758"><ele>108.5</ele><time>2026-04-21T10:53:47Z</time></trkpt><trkpt lat="44.2345967295006" lon="8.39961714361553"><ele>116.0</ele><time>2026-04-21T10:53:48Z</time></trkpt><trkpt lat="44.23484876325817" lon="8.39956330099514"><ele>119.5</ele><time>2026-04-21T10:53:49Z</time></trkpt><trkpt lat="44.235097369923054" lon="8.39950618670401"><ele>123.0</ele><time>2026-04-21T10:53:50Z</time></trkpt><trkpt lat="44.23534622399451" lon="8.399448191851295"><ele>123.0</ele><time>2026-04-21T10:53:51Z</time></trkpt><trkpt lat="44.23559627031101" lon="8.39939038875143"><ele>123.0</ele><time>2026-04-21T10:53:52Z</time></trkpt><trkpt lat="44.23584518603289" lon="8.399333513779686"><ele>121.5</ele><time>2026-04-21T10:53:53Z</time></trkpt><trkpt lat="44.236093050386465" lon="8.399277714294591"><ele>120.0</ele><time>2026-04-21T10:53:54Z</time></trkpt><trkpt lat="44.236342838722216" lon="8.399223829492419"><ele>115.0</ele><time>2026-04-21T10:53:55Z</time></trkpt><trkpt lat="44.23659361274574" lon="8.39917628001004"><ele>110.0</ele><time>2026-04-21T10:53:56Z</time></trkpt><trkpt lat="44.23684612671912" lon="8.399135613719173"><ele>110.0</ele><time>2026-04-21T10:53:57Z</time></trkpt><trkpt lat="44.237098715303574" lon="8.399107121470083"><ele>110.0</ele><time>2026-04-21T10:53:58Z</time></trkpt><trkpt lat="44.237352103137574" lon="8.399085082389174"><ele>115.5</ele><time>2026-04-21T10:53:59Z</time></trkpt><trkpt lat="44.23761782130322" lon="8.399095461926493"><ele>121.0</ele><time>2026-04-21T10:54:00Z</time></trkpt><trkpt lat="44.23788389275452" lon="8.39910103309857"><ele>139.0</ele><time>2026-04-21T10:54:01Z</time></trkpt><trkpt lat="44.238152459378206" lon="8.399109000824335"><ele>157.0</ele><time>2026-04-21T10:54:02Z</time></trkpt><trkpt lat="44.23842699563691" lon="8.399128493455587"><ele>157.0</ele><time>2026-04-21T10:54:03Z</time></trkpt><trkpt lat="44.23870685297134" lon="8.399161610485784"><ele>157.0</ele><time>2026-04-21T10:54:04Z</time></trkpt><trkpt lat="44.238986496646575" lon="8.399204676300887"><ele>182.0</ele><time>2026-04-21T10:54:05Z</time></trkpt><trkpt lat="44.239284248763894" lon="8.399257558903368"><ele>207.0</ele><time>2026-04-21T10:54:06.061Z</time></trkpt><trkpt lat="44.23956078875531" lon="8.399309535855966"><ele>232.5</ele><time>2026-04-21T10:54:07.059Z</time></trkpt><trkpt lat="44.23982642313021" lon="8.399390877831083"><ele>258.0</ele><time>2026-04-21T10:54:08.058Z</time></trkpt><trkpt lat="44.24249998330281" lon="8.401034199346261"><ele>406.0</ele><time>2026-04-21T10:54:12.531Z</time></trkpt><trkpt lat="44.24331689381711" lon="8.401559459385192"><ele>412.0</ele><time>2026-04-21T10:54:13.531Z</time></trkpt><trkpt lat="44.24413056625661" lon="8.402083288124768"><ele>384.0</ele><time>2026-04-21T10:54:14.527Z</time></trkpt><trkpt lat="44.24494833135744" lon="8.402611527963952"><ele>349.0</ele><time>2026-04-21T10:54:15.529Z</time></trkpt><trkpt lat="44.24576388315965" lon="8.403135958155865"><ele>320.0</ele><time>2026-04-21T10:54:16.528Z</time></trkpt><trkpt lat="44.24658191880441" lon="8.403661286441645"><ele>284.0</ele><time>2026-04-21T10:54:17.529Z</time></trkpt><trkpt lat="44.247399032544216" lon="8.404189011057994"><ele>237.0</ele><time>2026-04-21T10:54:18.53Z</time></trkpt><trkpt lat="44.24821474898139" lon="8.404713163427576"><ele>203.0</ele><time>2026-04-21T10:54:19.528Z</time></trkpt><trkpt lat="44.24903058716675" lon="8.405241790157698"><ele>151.0</ele><time>2026-04-21T10:54:20.528Z</time></trkpt><trkpt lat="44.24984879645461" lon="8.405769370709038"><ele>128.0</ele><time>2026-04-21T10:54:21.53Z</time></trkpt><trkpt lat="44.25067457143168" lon="8.406260315476477"><ele>151.0</ele><time>2026-04-21T10:54:22.529Z</time></trkpt><trkpt lat="44.250386785585945" lon="8.405760875159697"><ele>203.0</ele><time>2026-04-21T10:54:25.531Z</time></trkpt><trkpt lat="44.24958289506927" lon="8.40519797457602"><ele>262.0</ele><time>2026-04-21T10:54:26.531Z</time></trkpt><trkpt lat="44.24878103559106" lon="8.404630771156043"><ele>284.0</ele><time>2026-04-21T10:54:27.531Z</time></trkpt><trkpt lat="44.247978661770375" lon="8.40406322678169"><ele>320.0</ele><time>2026-04-21T10:54:28.531Z</time></trkpt><trkpt lat="44.24717685503518" lon="8.403496066429298"><ele>355.0</ele><time>2026-04-21T10:54:29.531Z</time></trkpt><trkpt lat="44.24637485914891" lon="8.402925748944018"><ele>384.0</ele><time>2026-04-21T10:54:30.531Z</time></trkpt><trkpt lat="44.24557622175911" lon="8.402362119877399"><ele>412.0</ele><time>2026-04-21T10:54:31.526Z</time></trkpt><trkpt lat="44.2447699163708" lon="8.401792362695437"><ele>408.0</ele><time>2026-04-21T10:54:32.531Z</time></trkpt><trkpt lat="44.24397143888106" lon="8.401225247197678"><ele>409.0</ele><time>2026-04-21T10:54:33.528Z</time></trkpt><trkpt lat="44.243169379136305" lon="8.400658422701285"><ele>382.0</ele><time>2026-04-21T10:54:34.527Z</time></trkpt><trkpt lat="44.242359582519505" lon="8.40010068048588"><ele>353.0</ele><time>2026-04-21T10:54:35.531Z</time></trkpt><trkpt lat="44.24152935245517" lon="8.399622110948354"><ele>312.0</ele><time>2026-04-21T10:54:36.53Z</time></trkpt><trkpt lat="44.240670567218636" lon="8.399244643091908"><ele>207.0</ele><time>2026-04-21T10:54:37.531Z</time></trkpt><trkpt lat="44.23979310797306" lon="8.398981209377666"><ele>172.0</ele><time>2026-04-21T10:54:38.529Z</time></trkpt><trkpt lat="44.23889953122531" lon="8.39882719788248"><ele>149.0</ele><time>2026-04-21T10:54:39.53Z</time></trkpt><trkpt lat="44.23799922432233" lon="8.39878518236994"><ele>100.0</ele><time>2026-04-21T10:54:40.531Z</time></trkpt><trkpt lat="44.25155888143931" lon="8.40667410711184"><ele>100.0</ele><time>2026-04-21T10:55:01.001Z</time></trkpt><trkpt lat="44.2517942989398" lon="8.406762919498055"><ele>100.0</ele><time>2026-04-21T10:55:02.001Z</time></trkpt><trkpt lat="44.252042841129466" lon="8.406843921157181"><ele>100.0</ele><time>2026-04-21T10:55:03.001Z</time></trkpt><trkpt lat="44.25226858536929" lon="8.406881823743166"><ele>100.0</ele><time>2026-04-21T10:55:04.001Z</time></trkpt><trkpt lat="44.25249299643585" lon="8.406945754566491"><ele>96.0</ele><time>2026-04-21T10:55:05.001Z</time></trkpt><trkpt lat="44.25272265061293" lon="8.406981945311363"><ele>92.0</ele><time>2026-04-21T10:55:06.001Z</time></trkpt><trkpt lat="44.25296260043476" lon="8.407002028063607"><ele>88.5</ele><time>2026-04-21T10:55:07.001Z</time></trkpt><trkpt lat="44.253201226425396" lon="8.407020257248474"><ele>85.0</ele><time>2026-04-21T10:55:08.001Z</time></trkpt><trkpt lat="44.25344908044602" lon="8.407032826565366"><ele>85.0</ele><time>2026-04-21T10:55:09.001Z</time></trkpt><trkpt lat="44.2536966335476" lon="8.407039030427283"><ele>85.0</ele><time>2026-04-21T10:55:10.001Z</time></trkpt><trkpt lat="44.253939644419134" lon="8.40704346625441"><ele>86.5</ele><time>2026-04-21T10:55:11.001Z</time></trkpt><trkpt lat="44.254195482654914" lon="8.407032078729666"><ele>88.0</ele><time>2026-04-21T10:55:12.001Z</time></trkpt><trkpt lat="44.25445078407984" lon="8.407022343543753"><ele>88.0</ele><time>2026-04-21T10:55:13.001Z</time></trkpt><trkpt lat="44.2547037779034" lon="8.407019431405244"><ele>88.0</ele><time>2026-04-21T10:55:14.001Z</time></trkpt><trkpt lat="44.254955401474085" lon="8.407016522153658"><ele>84.0</ele><time>2026-04-21T10:55:15.001Z</time></trkpt><trkpt lat="44.25520862367321" lon="8.407011719896333"><ele>80.0</ele><time>2026-04-21T10:55:16.001Z</time></trkpt><trkpt lat="44.25545444976515" lon="8.40701684101754"><ele>68.5</ele><time>2026-04-21T10:55:17.001Z</time></trkpt><trkpt lat="44.255691362378286" lon="8.407014311169329"><ele>57.0</ele><time>2026-04-21T10:55:18.001Z</time></trkpt><trkpt lat="44.25592680740597" lon="8.407013546829763"><ele>57.0</ele><time>2026-04-21T10:55:19.001Z</time></trkpt><trkpt lat="44.256156549505654" lon="8.407012099923458"><ele>57.0</ele><time>2026-04-21T10:55:20.001Z</time></trkpt><trkpt lat="44.25639718951377" lon="8.40701156300045"><ele>51.0</ele><time>2026-04-21T10:55:21Z</time></trkpt><trkpt lat="44.25663742650653" lon="8.407008811917612"><ele>45.0</ele><time>2026-04-21T10:55:22Z</time></trkpt><trkpt lat="44.25689349725204" lon="8.407006385401196"><ele>45.0</ele><time>2026-04-21T10:55:23Z</time></trkpt><trkpt lat="44.2571390394235" lon="8.40701073247521"><ele>45.0</ele><time>2026-04-21T10:55:24Z</time></trkpt><trkpt lat="44.25737915021317" lon="8.407005684758872"><ele>47.0</ele><time>2026-04-21T10:55:25Z</time></trkpt><trkpt lat="44.25760280572699" lon="8.406997053540081"><ele>49.0</ele><time>2026-04-21T10:55:26Z</time></trkpt><trkpt lat="44.25782639293601" lon="8.406993744039239"><ele>51.0</ele><time>2026-04-21T10:55:27Z</time></trkpt><trkpt lat="44.25804885226183" lon="8.406990451481791"><ele>62.5</ele><time>2026-04-21T10:55:28Z</time></trkpt><trkpt lat="44.25827112396542" lon="8.406990919726416"><ele>74.0</ele><time>2026-04-21T10:55:29Z</time></trkpt><trkpt lat="44.25849934820326" lon="8.406992636449667"><ele>74.0</ele><time>2026-04-21T10:55:30Z</time></trkpt><trkpt lat="44.25873446720658" lon="8.40699735132546"><ele>74.0</ele><time>2026-04-21T10:55:31Z</time></trkpt><trkpt lat="44.258968566435684" lon="8.407009337188427"><ele>82.0</ele><time>2026-04-21T10:55:32Z</time></trkpt><trkpt lat="44.259200150605004" lon="8.407031433464034"><ele>90.0</ele><time>2026-04-21T10:55:33Z</time></trkpt><trkpt lat="44.259429339639446" lon="8.407065310836566"><ele>90.0</ele><time>2026-04-21T10:55:34Z</time></trkpt><trkpt lat="44.25965756428625" lon="8.407111312729466"><ele>90.0</ele><time>2026-04-21T10:55:35Z</time></trkpt><trkpt lat="44.259889622704186" lon="8.407167305579481"><ele>85.5</ele><time>2026-04-21T10:55:36Z</time></trkpt><trkpt lat="44.260116417428094" lon="8.407241454690746"><ele>81.0</ele><time>2026-04-21T10:55:37Z</time></trkpt><trkpt lat="44.26034197749412" lon="8.40733311999309"><ele>81.0</ele><time>2026-04-21T10:55:38Z</time></trkpt><trkpt lat="44.260562769817746" lon="8.407429010865433"><ele>81.0</ele><time>2026-04-21T10:55:39Z</time></trkpt><trkpt lat="44.26078269840568" lon="8.407542059019868"><ele>80.0</ele><time>2026-04-21T10:55:40Z</time></trkpt><trkpt lat="44.260996992470396" lon="8.407666968176475"><ele>79.0</ele><time>2026-04-21T10:55:41Z</time></trkpt><trkpt lat="44.26120860917048" lon="8.407805858136363"><ele>79.0</ele><time>2026-04-21T10:55:42Z</time></trkpt><trkpt lat="44.261417814780614" lon="8.40795243069487"><ele>79.0</ele><time>2026-04-21T10:55:43Z</time></trkpt><trkpt lat="44.261624389615775" lon="8.408106087780311"><ele>71.5</ele><time>2026-04-21T10:55:44Z</time></trkpt><trkpt lat="44.26182459117307" lon="8.408271395848585"><ele>64.0</ele><time>2026-04-21T10:55:45Z</time></trkpt><trkpt lat="44.26201914905222" lon="8.40844742526959"><ele>64.0</ele><time>2026-04-21T10:55:46Z</time></trkpt><trkpt lat="44.262210243435504" lon="8.408633339216857"><ele>64.0</ele><time>2026-04-21T10:55:47Z</time></trkpt><trkpt lat="44.262394437896944" lon="8.408831426748968"><ele>65.5</ele><time>2026-04-21T10:55:48Z</time></trkpt><trkpt lat="44.2625739190984" lon="8.409043719181726"><ele>67.0</ele><time>2026-04-21T10:55:49Z</time></trkpt><trkpt lat="44.26274679330646" lon="8.409261443927468"><ele>67.0</ele><time>2026-04-21T10:55:50Z</time></trkpt><trkpt lat="44.26291422973819" lon="8.409490967807356"><ele>67.0</ele><time>2026-04-21T10:55:51Z</time></trkpt><trkpt lat="44.26308077527132" lon="8.409726929379739"><ele>64.5</ele><time>2026-04-21T10:55:52Z</time></trkpt><trkpt lat="44.263245443377485" lon="8.409980022811117"><ele>62.0</ele><time>2026-04-21T10:55:53Z</time></trkpt><trkpt lat="44.263407828981805" lon="8.410243940299345"><ele>57.0</ele><time>2026-04-21T10:55:54Z</time></trkpt><trkpt lat="44.26356148725773" lon="8.410519057503441"><ele>52.0</ele><time>2026-04-21T10:55:55Z</time></trkpt><trkpt lat="44.26370942738557" lon="8.41080557252996"><ele>52.0</ele><time>2026-04-21T10:55:56Z</time></trkpt><trkpt lat="44.26385404187906" lon="8.41109645649989"><ele>52.0</ele><time>2026-04-21T10:55:57Z</time></trkpt><trkpt lat="44.263991308233095" lon="8.411392159482938"><ele>56.5</ele><time>2026-04-21T10:55:58Z</time></trkpt><trkpt lat="44.26412989467466" lon="8.411690319594172"><ele>61.0</ele><time>2026-04-21T10:55:59Z</time></trkpt><trkpt lat="44.26426963986439" lon="8.411986887701785"><ele>58.5</ele><time>2026-04-21T10:56:00Z</time></trkpt><trkpt lat="44.26441095694464" lon="8.412274320026754"><ele>56.0</ele><time>2026-04-21T10:56:01Z</time></trkpt><trkpt lat="44.26455232193712" lon="8.41256540246967"><ele>56.0</ele><time>2026-04-21T10:56:02Z</time></trkpt><trkpt lat="44.26469166947018" lon="8.412853465738259"><ele>56.0</ele><time>2026-04-21T10:56:03Z</time></trkpt><trkpt lat="44.26483562915468" lon="8.413144675085913"><ele>61.5</ele><time>2026-04-21T10:56:04Z</time></trkpt><trkpt lat="44.264980929754415" lon="8.413428132311077"><ele>67.0</ele><time>2026-04-21T10:56:05Z</time></trkpt><trkpt lat="44.26513187516467" lon="8.413709399142958"><ele>60.0</ele><time>2026-04-21T10:56:06Z</time></trkpt><trkpt lat="44.26529350532917" lon="8.413993015872272"><ele>53.0</ele><time>2026-04-21T10:56:07Z</time></trkpt><trkpt lat="44.26545686315867" lon="8.414260930099347"><ele>55.5</ele><time>2026-04-21T10:56:08Z</time></trkpt><trkpt lat="44.265625812054566" lon="8.414517021892424"><ele>58.0</ele><time>2026-04-21T10:56:09Z</time></trkpt><trkpt lat="44.265802753272496" lon="8.414764620407363"><ele>58.0</ele><time>2026-04-21T10:56:10Z</time></trkpt><trkpt lat="44.26598707901741" lon="8.415007003832603"><ele>58.0</ele><time>2026-04-21T10:56:11Z</time></trkpt><trkpt lat="44.266176976996384" lon="8.41523812388091"><ele>58.0</ele><time>2026-04-21T10:56:12Z</time></trkpt><trkpt lat="44.26637162006885" lon="8.41546166167095"><ele>58.0</ele><time>2026-04-21T10:56:13Z</time></trkpt><trkpt lat="44.266575378661514" lon="8.415677608814747"><ele>61.5</ele><time>2026-04-21T10:56:14Z</time></trkpt><trkpt lat="44.266784194083" lon="8.415889405951383"><ele>65.0</ele><time>2026-04-21T10:56:15Z</time></trkpt><trkpt lat="44.26699372659345" lon="8.416097934128187"><ele>65.0</ele><time>2026-04-21T10:56:16Z</time></trkpt><trkpt lat="44.267207524460034" lon="8.416299531243311"><ele>65.0</ele><time>2026-04-21T10:56:17Z</time></trkpt><trkpt lat="44.267421151459644" lon="8.416498372507021"><ele>59.5</ele><time>2026-04-21T10:56:18Z</time></trkpt><trkpt lat="44.26763515374276" lon="8.416699605618772"><ele>54.0</ele><time>2026-04-21T10:56:19Z</time></trkpt><trkpt lat="44.26785139493288" lon="8.416900924694227"><ele>54.0</ele><time>2026-04-21T10:56:20Z</time></trkpt><trkpt lat="44.26806932925984" lon="8.417100136392229"><ele>54.0</ele><time>2026-04-21T10:56:21Z</time></trkpt><trkpt lat="44.268289610691625" lon="8.417307480904128"><ele>55.5</ele><time>2026-04-21T10:56:22Z</time></trkpt><trkpt lat="44.26850767908065" lon="8.417520810249158"><ele>57.0</ele><time>2026-04-21T10:56:23Z</time></trkpt><trkpt lat="44.26872726225763" lon="8.417731977872092"><ele>52.5</ele><time>2026-04-21T10:56:24Z</time></trkpt><trkpt lat="44.26895337225985" lon="8.4179410423562"><ele>48.0</ele><time>2026-04-21T10:56:25Z</time></trkpt><trkpt lat="44.269179788578136" lon="8.418148747455371"><ele>48.0</ele><time>2026-04-21T10:56:26Z</time></trkpt><trkpt lat="44.26940677297785" lon="8.418354470929971"><ele>48.0</ele><time>2026-04-21T10:56:27Z</time></trkpt><trkpt lat="44.26963575149194" lon="8.418560867689987"><ele>48.0</ele><time>2026-04-21T10:56:28Z</time></trkpt><trkpt lat="44.26986563436046" lon="8.418768296043778"><ele>48.0</ele><time>2026-04-21T10:56:29Z</time></trkpt><trkpt lat="44.270091297172975" lon="8.418976564112846"><ele>48.0</ele><time>2026-04-21T10:56:30Z</time></trkpt><trkpt lat="44.270323131682005" lon="8.419185915135806"><ele>48.0</ele><time>2026-04-21T10:56:31Z</time></trkpt><trkpt lat="44.27054859637892" lon="8.419394389796162"><ele>47.5</ele><time>2026-04-21T10:56:32Z</time></trkpt><trkpt lat="44.27077772365789" lon="8.419604403887607"><ele>47.0</ele><time>2026-04-21T10:56:33Z</time></trkpt><trkpt lat="44.27100477246883" lon="8.419811950493415"><ele>47.0</ele><time>2026-04-21T10:56:34Z</time></trkpt><trkpt lat="44.271231541770334" lon="8.42002388692429"><ele>47.0</ele><time>2026-04-21T10:56:35Z</time></trkpt><trkpt lat="44.2714564112509" lon="8.42024528649903"><ele>47.5</ele><time>2026-04-21T10:56:36Z</time></trkpt><trkpt lat="44.271672592314964" lon="8.420468423671089"><ele>48.0</ele><time>2026-04-21T10:56:37Z</time></trkpt><trkpt lat="44.271884988474575" lon="8.420702131139187"><ele>46.0</ele><time>2026-04-21T10:56:38Z</time></trkpt><trkpt lat="44.27209344428269" lon="8.420938717029717"><ele>44.0</ele><time>2026-04-21T10:56:39Z</time></trkpt><trkpt lat="44.272294522656104" lon="8.421187686897783"><ele>36.0</ele><time>2026-04-21T10:56:40Z</time></trkpt><trkpt lat="44.272491324462436" lon="8.421437862000506"><ele>28.0</ele><time>2026-04-21T10:56:41Z</time></trkpt><trkpt lat="44.27268108444819" lon="8.421696152203378"><ele>28.0</ele><time>2026-04-21T10:56:42Z</time></trkpt><trkpt lat="44.27286695886206" lon="8.421956354522203"><ele>28.0</ele><time>2026-04-21T10:56:43Z</time></trkpt><trkpt lat="44.27304838515612" lon="8.422218081559913"><ele>25.5</ele><time>2026-04-21T10:56:44Z</time></trkpt><trkpt lat="44.27322743086593" lon="8.422480599813422"><ele>23.0</ele><time>2026-04-21T10:56:45Z</time></trkpt><trkpt lat="44.27340186303671" lon="8.422746991552549"><ele>23.0</ele><time>2026-04-21T10:56:46Z</time></trkpt><trkpt lat="44.273573010025125" lon="8.42300550524651"><ele>23.0</ele><time>2026-04-21T10:56:47Z</time></trkpt><trkpt lat="44.273745856016745" lon="8.42326866168554"><ele>23.0</ele><time>2026-04-21T10:56:48Z</time></trkpt><trkpt lat="44.27392130538633" lon="8.42352751409535"><ele>23.0</ele><time>2026-04-21T10:56:49Z</time></trkpt><trkpt lat="44.27409712040423" lon="8.423785944244205"><ele>24.5</ele><time>2026-04-21T10:56:50Z</time></trkpt><trkpt lat="44.274272243641406" lon="8.424046794033966"><ele>26.0</ele><time>2026-04-21T10:56:51Z</time></trkpt><trkpt lat="44.2744451852935" lon="8.424307645508621"><ele>26.0</ele><time>2026-04-21T10:56:52Z</time></trkpt><trkpt lat="44.27461647105867" lon="8.424574122359438"><ele>26.0</ele><time>2026-04-21T10:56:53Z</time></trkpt><trkpt lat="44.27479388250338" lon="8.424841744859078"><ele>26.0</ele><time>2026-04-21T10:56:54Z</time></trkpt><trkpt lat="44.27497355493263" lon="8.425111737462297"><ele>26.0</ele><time>2026-04-21T10:56:55Z</time></trkpt><trkpt lat="44.27515570464145" lon="8.425379225727267"><ele>23.5</ele><time>2026-04-21T10:56:56Z</time></trkpt><trkpt lat="44.275339678480954" lon="8.425648741059938"><ele>21.0</ele><time>2026-04-21T10:56:57Z</time></trkpt><trkpt lat="44.275523814092274" lon="8.42591857693294"><ele>20.0</ele><time>2026-04-21T10:56:58Z</time></trkpt><trkpt lat="44.27570818399442" lon="8.426190734557277"><ele>19.0</ele><time>2026-04-21T10:56:59Z</time></trkpt><trkpt lat="44.275889626659364" lon="8.42645907979633"><ele>19.0</ele><time>2026-04-21T10:57:00Z</time></trkpt><trkpt lat="44.27605784627273" lon="8.426710001380515"><ele>19.0</ele><time>2026-04-21T10:57:01Z</time></trkpt><trkpt lat="44.27622440459962" lon="8.426949318061205"><ele>17.5</ele><time>2026-04-21T10:57:02Z</time></trkpt><trkpt lat="44.2763938201861" lon="8.427182288208416"><ele>16.0</ele><time>2026-04-21T10:57:03Z</time></trkpt><trkpt lat="44.27656806033859" lon="8.427407357216392"><ele>16.0</ele><time>2026-04-21T10:57:04Z</time></trkpt><trkpt lat="44.276742438310016" lon="8.42761510929725"><ele>16.0</ele><time>2026-04-21T10:57:05Z</time></trkpt><trkpt lat="44.276925129056735" lon="8.427802441617638"><ele>15.5</ele><time>2026-04-21T10:57:06Z</time></trkpt><trkpt lat="44.2771191272258" lon="8.427992239706963"><ele>15.0</ele><time>2026-04-21T10:57:07Z</time></trkpt><trkpt lat="44.27731858646197" lon="8.428172038676088"><ele>17.0</ele><time>2026-04-21T10:57:08Z</time></trkpt><trkpt lat="44.27752885378352" lon="8.428342704808419"><ele>19.0</ele><time>2026-04-21T10:57:09Z</time></trkpt><trkpt lat="44.277746944938386" lon="8.428498682889296"><ele>19.0</ele><time>2026-04-21T10:57:10Z</time></trkpt><trkpt lat="44.277970026480425" lon="8.42864674705001"><ele>19.0</ele><time>2026-04-21T10:57:11Z</time></trkpt><trkpt lat="44.27819984729219" lon="8.428779301694679"><ele>18.0</ele><time>2026-04-21T10:57:12Z</time></trkpt><trkpt lat="44.278434412966064" lon="8.428898822215006"><ele>17.0</ele><time>2026-04-21T10:57:13Z</time></trkpt><trkpt lat="44.278674348418555" lon="8.429004434043975"><ele>17.0</ele><time>2026-04-21T10:57:14Z</time></trkpt><trkpt lat="44.27892052549463" lon="8.429099819789176"><ele>17.0</ele><time>2026-04-21T10:57:15Z</time></trkpt><trkpt lat="44.2791650139005" lon="8.429190035254278"><ele>17.0</ele><time>2026-04-21T10:57:16Z</time></trkpt><trkpt lat="44.279402323115235" lon="8.42927723171564"><ele>17.0</ele><time>2026-04-21T10:57:17Z</time></trkpt><trkpt lat="44.27963996623215" lon="8.429364264517837"><ele>15.5</ele><time>2026-04-21T10:57:18Z</time></trkpt><trkpt lat="44.27987395413571" lon="8.429459857886506"><ele>14.0</ele><time>2026-04-21T10:57:19Z</time></trkpt><trkpt lat="44.28011221261339" lon="8.429550451388794"><ele>14.0</ele><time>2026-04-21T10:57:20.001Z</time></trkpt><trkpt lat="44.28035319398253" lon="8.42964004902055"><ele>14.0</ele><time>2026-04-21T10:57:21.001Z</time></trkpt><trkpt lat="44.280592614795054" lon="8.429734756970475"><ele>11.5</ele><time>2026-04-21T10:57:22.001Z</time></trkpt><trkpt lat="44.28082711990375" lon="8.429832203333405"><ele>9.0</ele><time>2026-04-21T10:57:23.001Z</time></trkpt><trkpt lat="44.28106219731522" lon="8.429941041756173"><ele>9.0</ele><time>2026-04-21T10:57:24.001Z</time></trkpt><trkpt lat="44.2812955610424" lon="8.430069703077772"><ele>9.0</ele><time>2026-04-21T10:57:25.001Z</time></trkpt><trkpt lat="44.28152069049949" lon="8.430223978017874"><ele>9.0</ele><time>2026-04-21T10:57:26Z</time></trkpt><trkpt lat="44.281742875085406" lon="8.430397344948728"><ele>9.0</ele><time>2026-04-21T10:57:27Z</time></trkpt><trkpt lat="44.28195537672803" lon="8.430590756356766"><ele>9.0</ele><time>2026-04-21T10:57:28Z</time></trkpt><trkpt lat="44.282159678525964" lon="8.430807087005933"><ele>9.0</ele><time>2026-04-21T10:57:29Z</time></trkpt><trkpt lat="44.28235886803542" lon="8.431037939321778"><ele>9.5</ele><time>2026-04-21T10:57:30Z</time></trkpt><trkpt lat="44.28255505922036" lon="8.431275392043714"><ele>10.0</ele><time>2026-04-21T10:57:31Z</time></trkpt><trkpt lat="44.28275078222934" lon="8.43151798184582"><ele>8.5</ele><time>2026-04-21T10:57:32Z</time></trkpt><trkpt lat="44.28294613799436" lon="8.431760524826045"><ele>7.0</ele><time>2026-04-21T10:57:33Z</time></trkpt><trkpt lat="44.28314097484585" lon="8.432003699359576"><ele>8.0</ele><time>2026-04-21T10:57:34Z</time></trkpt><trkpt lat="44.283334909048" lon="8.432242654703716"><ele>9.0</ele><time>2026-04-21T10:57:35Z</time></trkpt><trkpt lat="44.28352890497916" lon="8.432482227415548"><ele>9.0</ele><time>2026-04-21T10:57:36Z</time></trkpt><trkpt lat="44.28372244540134" lon="8.43272467967491"><ele>9.0</ele><time>2026-04-21T10:57:37Z</time></trkpt><trkpt lat="44.28391163755558" lon="8.432964410238183"><ele>8.5</ele><time>2026-04-21T10:57:38Z</time></trkpt><trkpt lat="44.28410118980635" lon="8.433198905889004"><ele>8.0</ele><time>2026-04-21T10:57:39Z</time></trkpt><trkpt lat="44.28427536077605" lon="8.433417918255854"><ele>8.0</ele><time>2026-04-21T10:57:40Z</time></trkpt><trkpt lat="44.284433165543845" lon="8.433619435428556"><ele>8.0</ele><time>2026-04-21T10:57:41Z</time></trkpt><trkpt lat="44.28458069596951" lon="8.43380502205459"><ele>8.0</ele><time>2026-04-21T10:57:42Z</time></trkpt><trkpt lat="44.28470614440124" lon="8.433963245758965"><ele>8.25</ele><time>2026-04-21T10:57:43Z</time></trkpt><trkpt lat="44.28482582716959" lon="8.434111003603604"><ele>8.5</ele><time>2026-04-21T10:57:44Z</time></trkpt><trkpt lat="44.284932066941366" lon="8.434243262133014"><ele>8.75</ele><time>2026-04-21T10:57:45Z</time></trkpt><trkpt lat="44.28502870837043" lon="8.434369356632793"><ele>9.0</ele><time>2026-04-21T10:57:46Z</time></trkpt><trkpt lat="44.28511228554811" lon="8.43447832066974"><ele>9.0</ele><time>2026-04-21T10:57:47Z</time></trkpt><trkpt lat="44.285192967743306" lon="8.434583692513208"><ele>9.0</ele><time>2026-04-21T10:57:48Z</time></trkpt><trkpt lat="44.28526932558026" lon="8.434684468213767"><ele>9.0</ele><time>2026-04-21T10:57:49Z</time></trkpt><trkpt lat="44.28534801482857" lon="8.434790493732134"><ele>9.0</ele><time>2026-04-21T10:57:50Z</time></trkpt><trkpt lat="44.285430715127134" lon="8.43490293306026"><ele>9.0</ele><time>2026-04-21T10:57:51Z</time></trkpt><trkpt lat="44.285506521892756" lon="8.435005160321136"><ele>8.6</ele><time>2026-04-21T10:57:52Z</time></trkpt><trkpt lat="44.28556893397722" lon="8.4350890256068"><ele>8.2</ele><time>2026-04-21T10:57:53Z</time></trkpt><trkpt lat="44.28562959183344" lon="8.435167920551995"><ele>7.799999999999999</ele><time>2026-04-21T10:57:54Z</time></trkpt><trkpt lat="44.28570321551357" lon="8.435255625214364"><ele>7.3999999999999995</ele><time>2026-04-21T10:57:55Z</time></trkpt><trkpt lat="44.28578714136965" lon="8.435356216676873"><ele>7.0</ele><time>2026-04-21T10:57:56Z</time></trkpt><trkpt lat="44.285878892486565" lon="8.435474620421088"><ele>8.25</ele><time>2026-04-21T10:57:57Z</time></trkpt><trkpt lat="44.28597591245042" lon="8.435607322872935"><ele>9.5</ele><time>2026-04-21T10:57:58Z</time></trkpt><trkpt lat="44.28607041565655" lon="8.43574787836753"><ele>10.75</ele><time>2026-04-21T10:57:59Z</time></trkpt><trkpt lat="44.286167387604145" lon="8.435893828817157"><ele>12.0</ele><time>2026-04-21T10:58:00Z</time></trkpt><trkpt lat="44.286259941529316" lon="8.43603657745006"><ele>12.0</ele><time>2026-04-21T10:58:01Z</time></trkpt><trkpt lat="44.286351618603256" lon="8.436188948969956"><ele>12.0</ele><time>2026-04-21T10:58:02Z</time></trkpt><trkpt lat="44.28644431484912" lon="8.436354275019788"><ele>12.0</ele><time>2026-04-21T10:58:03Z</time></trkpt><trkpt lat="44.28654202985311" lon="8.436535639750103"><ele>13.666666666666668</ele><time>2026-04-21T10:58:04Z</time></trkpt><trkpt lat="44.28664079167786" lon="8.436724779866719"><ele>15.333333333333334</ele><time>2026-04-21T10:58:05Z</time></trkpt><trkpt lat="44.28674711710105" lon="8.436917560487766"><ele>17.0</ele><time>2026-04-21T10:58:06Z</time></trkpt><trkpt lat="44.28685484085633" lon="8.43711881155828"><ele>16.666666666666668</ele><time>2026-04-21T10:58:07Z</time></trkpt><trkpt lat="44.286960647243625" lon="8.437326818636725"><ele>16.333333333333332</ele><time>2026-04-21T10:58:08Z</time></trkpt><trkpt lat="44.287062674350366" lon="8.437543200356759"><ele>16.0</ele><time>2026-04-21T10:58:09Z</time></trkpt><trkpt lat="44.287160248645264" lon="8.437761508108814"><ele>15.666666666666666</ele><time>2026-04-21T10:58:10Z</time></trkpt><trkpt lat="44.287258512266504" lon="8.43799666275567"><ele>15.333333333333332</ele><time>2026-04-21T10:58:11Z</time></trkpt><trkpt lat="44.28736392482793" lon="8.43824009986366"><ele>15.0</ele><time>2026-04-21T10:58:12Z</time></trkpt><trkpt lat="44.28746796317594" lon="8.438486119445027"><ele>17.666666666666668</ele><time>2026-04-21T10:58:13Z</time></trkpt><trkpt lat="44.28757235306413" lon="8.438740219259975"><ele>20.333333333333336</ele><time>2026-04-21T10:58:14Z</time></trkpt><trkpt lat="44.287676938717354" lon="8.438996446848511"><ele>23.0</ele><time>2026-04-21T10:58:15Z</time></trkpt><trkpt lat="44.28777960229353" lon="8.439253763768761"><ele>23.0</ele><time>2026-04-21T10:58:16Z</time></trkpt><trkpt lat="44.287884588661704" lon="8.439515763359632"><ele>23.0</ele><time>2026-04-21T10:58:17Z</time></trkpt><trkpt lat="44.287991744628314" lon="8.439780048634113"><ele>23.0</ele><time>2026-04-21T10:58:18Z</time></trkpt><trkpt lat="44.28809929656911" lon="8.440040842698554"><ele>23.0</ele><time>2026-04-21T10:58:19Z</time></trkpt><trkpt lat="44.28820468393542" lon="8.440293633303032"><ele>23.0</ele><time>2026-04-21T10:58:20Z</time></trkpt><trkpt lat="44.2883056875618" lon="8.440540481585945"><ele>23.0</ele><time>2026-04-21T10:58:21Z</time></trkpt><trkpt lat="44.28840606713833" lon="8.440784324578138"><ele>23.0</ele><time>2026-04-21T10:58:22Z</time></trkpt><trkpt lat="44.288505270473514" lon="8.441032729359694"><ele>23.0</ele><time>2026-04-21T10:58:23Z</time></trkpt><trkpt lat="44.28860367026598" lon="8.441287500096173"><ele>23.0</ele><time>2026-04-21T10:58:24Z</time></trkpt><trkpt lat="44.28870415548313" lon="8.441546625275146"><ele>23.333333333333336</ele><time>2026-04-21T10:58:25Z</time></trkpt><trkpt lat="44.28880591285183" lon="8.441803580340212"><ele>23.666666666666668</ele><time>2026-04-21T10:58:26Z</time></trkpt><trkpt lat="44.28891082761412" lon="8.442068424878915"><ele>24.0</ele><time>2026-04-21T10:58:27Z</time></trkpt><trkpt lat="44.28901631204224" lon="8.442326426882552"><ele>26.0</ele><time>2026-04-21T10:58:28Z</time></trkpt><trkpt lat="44.289116806643044" lon="8.442569240835061"><ele>28.0</ele><time>2026-04-21T10:58:29Z</time></trkpt><trkpt lat="44.28921084456166" lon="8.442805950493685"><ele>30.0</ele><time>2026-04-21T10:58:30Z</time></trkpt><trkpt lat="44.28930585324668" lon="8.443047104985293"><ele>31.666666666666664</ele><time>2026-04-21T10:58:31Z</time></trkpt><trkpt lat="44.289408787158465" lon="8.44329404681336"><ele>33.33333333333333</ele><time>2026-04-21T10:58:32Z</time></trkpt><trkpt lat="44.28952106368145" lon="8.443547882149241"><ele>35.0</ele><time>2026-04-21T10:58:33Z</time></trkpt><trkpt lat="44.28964332626493" lon="8.443800753270818"><ele>37.0</ele><time>2026-04-21T10:58:34Z</time></trkpt><trkpt lat="44.28976801221532" lon="8.444026539931007"><ele>39.0</ele><time>2026-04-21T10:58:35Z</time></trkpt><trkpt lat="44.28989930166302" lon="8.444248333729512"><ele>41.0</ele><time>2026-04-21T10:58:36Z</time></trkpt><trkpt lat="44.29004180290598" lon="8.444470060083896"><ele>41.33333333333333</ele><time>2026-04-21T10:58:37Z</time></trkpt><trkpt lat="44.29019331939746" lon="8.444686628188931"><ele>41.666666666666664</ele><time>2026-04-21T10:58:38Z</time></trkpt><trkpt lat="44.29035173911086" lon="8.44489394996259"><ele>42.0</ele><time>2026-04-21T10:58:39Z</time></trkpt><trkpt lat="44.29052136547312" lon="8.4450931307435"><ele>42.0</ele><time>2026-04-21T10:58:40Z</time></trkpt><trkpt lat="44.29069571112981" lon="8.445278929025402"><ele>42.0</ele><time>2026-04-21T10:58:41Z</time></trkpt><trkpt lat="44.29087071628108" lon="8.44544476231127"><ele>42.0</ele><time>2026-04-21T10:58:42Z</time></trkpt><trkpt lat="44.29104311080011" lon="8.445594743574343"><ele>42.0</ele><time>2026-04-21T10:58:43Z</time></trkpt><trkpt lat="44.291227704626365" lon="8.445739176151264"><ele>42.0</ele><time>2026-04-21T10:58:44Z</time></trkpt><trkpt lat="44.29142295114498" lon="8.445876001659641"><ele>42.0</ele><time>2026-04-21T10:58:45Z</time></trkpt><trkpt lat="44.29163011189266" lon="8.44599953320843"><ele>42.0</ele><time>2026-04-21T10:58:46Z</time></trkpt><trkpt lat="44.29184217053298" lon="8.446110295355364"><ele>42.0</ele><time>2026-04-21T10:58:47Z</time></trkpt><trkpt lat="44.292062555074544" lon="8.446210041047975"><ele>41.5</ele><time>2026-04-21T10:58:48Z</time></trkpt><trkpt lat="44.29228451864303" lon="8.446294536737255"><ele>41.0</ele><time>2026-04-21T10:58:49Z</time></trkpt><trkpt lat="44.292513665146394" lon="8.446367806607354"><ele>39.5</ele><time>2026-04-21T10:58:50Z</time></trkpt><trkpt lat="44.29274592253357" lon="8.446425679365763"><ele>38.0</ele><time>2026-04-21T10:58:51Z</time></trkpt><trkpt lat="44.29298255722607" lon="8.446463242135525"><ele>40.0</ele><time>2026-04-21T10:58:52Z</time></trkpt><trkpt lat="44.29321302670815" lon="8.446482706265671"><ele>42.0</ele><time>2026-04-21T10:58:53Z</time></trkpt><trkpt lat="44.29343430340583" lon="8.446489435152996"><ele>42.0</ele><time>2026-04-21T10:58:54Z</time></trkpt><trkpt lat="44.29365618953781" lon="8.446485280327943"><ele>42.0</ele><time>2026-04-21T10:58:55Z</time></trkpt><trkpt lat="44.29388293430214" lon="8.446477760557302"><ele>42.0</ele><time>2026-04-21T10:58:56Z</time></trkpt><trkpt lat="44.29411497229128" lon="8.446473840958117"><ele>40.5</ele><time>2026-04-21T10:58:57Z</time></trkpt><trkpt lat="44.29434823553405" lon="8.446469278611128"><ele>39.0</ele><time>2026-04-21T10:58:58Z</time></trkpt><trkpt lat="44.294578053076044" lon="8.44646275092072"><ele>36.0</ele><time>2026-04-21T10:58:59Z</time></trkpt><trkpt lat="44.294807385825415" lon="8.446452852620384"><ele>33.0</ele><time>2026-04-21T10:59:00Z</time></trkpt><trkpt lat="44.29504065697646" lon="8.446437151491196"><ele>33.0</ele><time>2026-04-21T10:59:01Z</time></trkpt><trkpt lat="44.29528233431387" lon="8.446422738731977"><ele>33.0</ele><time>2026-04-21T10:59:02Z</time></trkpt><trkpt lat="44.29552842510202" lon="8.446406345049777"><ele>29.5</ele><time>2026-04-21T10:59:03Z</time></trkpt><trkpt lat="44.29577654961014" lon="8.446394674079032"><ele>26.0</ele><time>2026-04-21T10:59:04Z</time></trkpt><trkpt lat="44.296028468162966" lon="8.446389075763367"><ele>26.0</ele><time>2026-04-21T10:59:05Z</time></trkpt><trkpt lat="44.296277455152975" lon="8.44638497760801"><ele>26.0</ele><time>2026-04-21T10:59:06Z</time></trkpt><trkpt lat="44.29652754016487" lon="8.44638307629498"><ele>28.5</ele><time>2026-04-21T10:59:07Z</time></trkpt><trkpt lat="44.29677384568941" lon="8.446381745786253"><ele>31.0</ele><time>2026-04-21T10:59:08Z</time></trkpt><trkpt lat="44.297014829971666" lon="8.446381763753594"><ele>37.0</ele><time>2026-04-21T10:59:09Z</time></trkpt><trkpt lat="44.29725289803514" lon="8.44638182485007"><ele>43.0</ele><time>2026-04-21T10:59:10Z</time></trkpt><trkpt lat="44.29748721838245" lon="8.446384270374528"><ele>43.0</ele><time>2026-04-21T10:59:11Z</time></trkpt><trkpt lat="44.29771712785913" lon="8.446390214013249"><ele>43.0</ele><time>2026-04-21T10:59:12Z</time></trkpt><trkpt lat="44.29794905294522" lon="8.446396843400162"><ele>44.0</ele><time>2026-04-21T10:59:13Z</time></trkpt><trkpt lat="44.29817692819528" lon="8.446396467507286"><ele>45.0</ele><time>2026-04-21T10:59:14Z</time></trkpt><trkpt lat="44.2984023329967" lon="8.446394609097268"><ele>45.0</ele><time>2026-04-21T10:59:15Z</time></trkpt><trkpt lat="44.2986350621085" lon="8.446394294143705"><ele>45.0</ele><time>2026-04-21T10:59:16Z</time></trkpt><trkpt lat="44.29885966381743" lon="8.446390970277537"><ele>42.5</ele><time>2026-04-21T10:59:17Z</time></trkpt><trkpt lat="44.29908764817344" lon="8.44643863595308"><ele>40.0</ele><time>2026-04-21T10:59:18Z</time></trkpt><trkpt lat="44.299318021723984" lon="8.446491112645482"><ele>40.0</ele><time>2026-04-21T10:59:19Z</time></trkpt><trkpt lat="44.29955300244362" lon="8.446553310710406"><ele>40.0</ele><time>2026-04-21T10:59:20Z</time></trkpt><trkpt lat="44.2997859566682" lon="8.446627774377907"><ele>38.0</ele><time>2026-04-21T10:59:21Z</time></trkpt><trkpt lat="44.3000070875336" lon="8.446717639622817"><ele>36.0</ele><time>2026-04-21T10:59:22Z</time></trkpt><trkpt lat="44.30022054718374" lon="8.446806414425415"><ele>36.0</ele><time>2026-04-21T10:59:23Z</time></trkpt><trkpt lat="44.30043532858356" lon="8.446913059275012"><ele>36.0</ele><time>2026-04-21T10:59:24Z</time></trkpt><trkpt lat="44.30064468446382" lon="8.447030651528435"><ele>37.666666666666664</ele><time>2026-04-21T10:59:25Z</time></trkpt><trkpt lat="44.300837994615186" lon="8.447158720353315"><ele>39.33333333333333</ele><time>2026-04-21T10:59:26Z</time></trkpt><trkpt lat="44.301015551662026" lon="8.447292730258983"><ele>41.0</ele><time>2026-04-21T10:59:27Z</time></trkpt><trkpt lat="44.30119694408438" lon="8.447435589646046"><ele>41.0</ele><time>2026-04-21T10:59:28Z</time></trkpt><trkpt lat="44.30136977739864" lon="8.44758150039444"><ele>41.0</ele><time>2026-04-21T10:59:29Z</time></trkpt><trkpt lat="44.301539811217886" lon="8.447737832039776"><ele>41.0</ele><time>2026-04-21T10:59:30Z</time></trkpt><trkpt lat="44.301706682693435" lon="8.447906435381856"><ele>38.33333333333333</ele><time>2026-04-21T10:59:31Z</time></trkpt><trkpt lat="44.30187391375964" lon="8.448080422715588"><ele>35.666666666666664</ele><time>2026-04-21T10:59:32Z</time></trkpt><trkpt lat="44.30204588672503" lon="8.448240125538062"><ele>33.0</ele><time>2026-04-21T10:59:33Z</time></trkpt><trkpt lat="44.30220313888741" lon="8.448410764198913"><ele>31.0</ele><time>2026-04-21T10:59:34Z</time></trkpt><trkpt lat="44.30234738136884" lon="8.44859970474119"><ele>29.0</ele><time>2026-04-21T10:59:35Z</time></trkpt><trkpt lat="44.302492340291195" lon="8.44880454149758"><ele>27.0</ele><time>2026-04-21T10:59:36Z</time></trkpt><trkpt lat="44.30263298833387" lon="8.449017361171268"><ele>26.0</ele><time>2026-04-21T10:59:37Z</time></trkpt><trkpt lat="44.302771037302165" lon="8.449238500181746"><ele>25.0</ele><time>2026-04-21T10:59:38Z</time></trkpt><trkpt lat="44.302903095397426" lon="8.449466324219848"><ele>24.0</ele><time>2026-04-21T10:59:39Z</time></trkpt><trkpt lat="44.303029837882164" lon="8.449698358800422"><ele>25.0</ele><time>2026-04-21T10:59:40Z</time></trkpt><trkpt lat="44.30315665452168" lon="8.449941088926028"><ele>26.0</ele><time>2026-04-21T10:59:41Z</time></trkpt><trkpt lat="44.30328678582277" lon="8.45019684436781"><ele>27.0</ele><time>2026-04-21T10:59:42Z</time></trkpt><trkpt lat="44.303411675210356" lon="8.450469603484615"><ele>27.0</ele><time>2026-04-21T10:59:43Z</time></trkpt><trkpt lat="44.30352711280429" lon="8.45075127945152"><ele>27.0</ele><time>2026-04-21T10:59:44Z</time></trkpt><trkpt lat="44.3036315175188" lon="8.451045959944658"><ele>27.0</ele><time>2026-04-21T10:59:45Z</time></trkpt><trkpt lat="44.30372666772463" lon="8.451354236776547"><ele>27.0</ele><time>2026-04-21T10:59:46Z</time></trkpt><trkpt lat="44.303815968237416" lon="8.451671995812536"><ele>27.0</ele><time>2026-04-21T10:59:47Z</time></trkpt><trkpt lat="44.30389631681878" lon="8.451991798364284"><ele>27.0</ele><time>2026-04-21T10:59:48Z</time></trkpt><trkpt lat="44.30396914307796" lon="8.452321689232766"><ele>31.5</ele><time>2026-04-21T10:59:49Z</time></trkpt><trkpt lat="44.30403501015883" lon="8.452655286839665"><ele>36.0</ele><time>2026-04-21T10:59:50Z</time></trkpt><trkpt lat="44.30408346910224" lon="8.452996253332845"><ele>37.5</ele><time>2026-04-21T10:59:51Z</time></trkpt><trkpt lat="44.3041180653076" lon="8.45333872849399"><ele>39.0</ele><time>2026-04-21T10:59:52Z</time></trkpt><trkpt lat="44.3041515035991" lon="8.45368004219339"><ele>38.5</ele><time>2026-04-21T10:59:53Z</time></trkpt><trkpt lat="44.30418369056188" lon="8.454023126277132"><ele>38.0</ele><time>2026-04-21T10:59:54Z</time></trkpt><trkpt lat="44.30421627731864" lon="8.454367102730298"><ele>39.5</ele><time>2026-04-21T10:59:55Z</time></trkpt><trkpt lat="44.30425508903564" lon="8.454721069679529"><ele>41.0</ele><time>2026-04-21T10:59:56Z</time></trkpt><trkpt lat="44.304294683238425" lon="8.455073954976527"><ele>41.0</ele><time>2026-04-21T10:59:57Z</time></trkpt><trkpt lat="44.30433355227029" lon="8.455424009127192"><ele>41.0</ele><time>2026-04-21T10:59:58Z</time></trkpt><trkpt lat="44.304372007930205" lon="8.455776201596873"><ele>42.0</ele><time>2026-04-21T10:59:59Z</time></trkpt><trkpt lat="44.304411251983794" lon="8.456128654575135"><ele>43.0</ele><time>2026-04-21T11:00:00Z</time></trkpt><trkpt lat="44.30445251523885" lon="8.456479982608894"><ele>42.0</ele><time>2026-04-21T11:00:01Z</time></trkpt><trkpt lat="44.304490644214454" lon="8.456821902109239"><ele>41.0</ele><time>2026-04-21T11:00:02Z</time></trkpt><trkpt lat="44.30452923287338" lon="8.457161503840473"><ele>41.0</ele><time>2026-04-21T11:00:03Z</time></trkpt><trkpt lat="44.30457214553451" lon="8.457500615585813"><ele>41.0</ele><time>2026-04-21T11:00:04Z</time></trkpt><trkpt lat="44.304622871492995" lon="8.457836647758874"><ele>42.5</ele><time>2026-04-21T11:00:05Z</time></trkpt><trkpt lat="44.30468444489532" lon="8.4581657362938"><ele>44.0</ele><time>2026-04-21T11:00:06Z</time></trkpt><trkpt lat="44.304750257115835" lon="8.45849514475967"><ele>50.5</ele><time>2026-04-21T11:00:07Z</time></trkpt><trkpt lat="44.304818757419206" lon="8.458824205480344"><ele>57.0</ele><time>2026-04-21T11:00:08Z</time></trkpt><trkpt lat="44.304892187379856" lon="8.459146218664158"><ele>57.0</ele><time>2026-04-21T11:00:09Z</time></trkpt><trkpt lat="44.3049746858467" lon="8.459469525957964"><ele>57.0</ele><time>2026-04-21T11:00:10Z</time></trkpt><trkpt lat="44.30506542855527" lon="8.459789012667446"><ele>57.5</ele><time>2026-04-21T11:00:11Z</time></trkpt><trkpt lat="44.305163517122125" lon="8.460107858955837"><ele>58.0</ele><time>2026-04-21T11:00:12Z</time></trkpt><trkpt lat="44.30527235371702" lon="8.460422451925103"><ele>56.0</ele><time>2026-04-21T11:00:13Z</time></trkpt><trkpt lat="44.30538533940185" lon="8.460733221685933"><ele>54.0</ele><time>2026-04-21T11:00:14Z</time></trkpt><trkpt lat="44.30549797716446" lon="8.461037297594187"><ele>58.0</ele><time>2026-04-21T11:00:15Z</time></trkpt><trkpt lat="44.30561624753688" lon="8.461339728650813"><ele>62.0</ele><time>2026-04-21T11:00:16Z</time></trkpt><trkpt lat="44.30574440922079" lon="8.461638444883093"><ele>62.0</ele><time>2026-04-21T11:00:17Z</time></trkpt><trkpt lat="44.305878695357556" lon="8.46192959493563"><ele>62.0</ele><time>2026-04-21T11:00:18Z</time></trkpt><trkpt lat="44.3060200147819" lon="8.462212417765892"><ele>59.0</ele><time>2026-04-21T11:00:19Z</time></trkpt><trkpt lat="44.306169818978695" lon="8.462494438450367"><ele>56.0</ele><time>2026-04-21T11:00:20Z</time></trkpt><trkpt lat="44.30632759158568" lon="8.462776080448448"><ele>58.0</ele><time>2026-04-21T11:00:21Z</time></trkpt><trkpt lat="44.306488091664775" lon="8.463054671606177"><ele>60.0</ele><time>2026-04-21T11:00:22Z</time></trkpt><trkpt lat="44.30665127363817" lon="8.463328037474975"><ele>60.0</ele><time>2026-04-21T11:00:23Z</time></trkpt><trkpt lat="44.3068246025989" lon="8.46359637078685"><ele>60.0</ele><time>2026-04-21T11:00:24Z</time></trkpt><trkpt lat="44.30700701336461" lon="8.463859193747414"><ele>60.5</ele><time>2026-04-21T11:00:25Z</time></trkpt><trkpt lat="44.307197579444754" lon="8.464115037429707"><ele>61.0</ele><time>2026-04-21T11:00:26Z</time></trkpt><trkpt lat="44.307391826084555" lon="8.46436128235405"><ele>61.0</ele><time>2026-04-21T11:00:27Z</time></trkpt><trkpt lat="44.30758871790328" lon="8.464596654807128"><ele>61.0</ele><time>2026-04-21T11:00:28Z</time></trkpt><trkpt lat="44.30778781635041" lon="8.464821818852277"><ele>60.5</ele><time>2026-04-21T11:00:29Z</time></trkpt><trkpt lat="44.30799056079195" lon="8.465040945778044"><ele>60.0</ele><time>2026-04-21T11:00:30Z</time></trkpt><trkpt lat="44.308198545168885" lon="8.465260999458394"><ele>56.0</ele><time>2026-04-21T11:00:31Z</time></trkpt><trkpt lat="44.30841015958328" lon="8.465467849286096"><ele>52.0</ele><time>2026-04-21T11:00:32Z</time></trkpt><trkpt lat="44.30862752030336" lon="8.465660382433278"><ele>52.0</ele><time>2026-04-21T11:00:33Z</time></trkpt><trkpt lat="44.308852104356724" lon="8.465840258887098"><ele>52.0</ele><time>2026-04-21T11:00:34Z</time></trkpt><trkpt lat="44.309085305336865" lon="8.466006534615037"><ele>48.5</ele><time>2026-04-21T11:00:35Z</time></trkpt><trkpt lat="44.3093239125862" lon="8.4661670249822"><ele>45.0</ele><time>2026-04-21T11:00:36Z</time></trkpt><trkpt lat="44.30956549730529" lon="8.46632260665718"><ele>51.5</ele><time>2026-04-21T11:00:37Z</time></trkpt><trkpt lat="44.30981088731468" lon="8.466473606339198"><ele>58.0</ele><time>2026-04-21T11:00:38Z</time></trkpt><trkpt lat="44.310056210947224" lon="8.46661477174879"><ele>58.0</ele><time>2026-04-21T11:00:39Z</time></trkpt><trkpt lat="44.310306154560266" lon="8.46674565918783"><ele>58.0</ele><time>2026-04-21T11:00:40Z</time></trkpt><trkpt lat="44.31055446149895" lon="8.466880302791006"><ele>58.5</ele><time>2026-04-21T11:00:41Z</time></trkpt><trkpt lat="44.31080426631853" lon="8.46701626750995"><ele>59.0</ele><time>2026-04-21T11:00:42Z</time></trkpt><trkpt lat="44.3110485194479" lon="8.46716100748587"><ele>52.5</ele><time>2026-04-21T11:00:43Z</time></trkpt><trkpt lat="44.31129088742155" lon="8.46731004795774"><ele>46.0</ele><time>2026-04-21T11:00:44Z</time></trkpt><trkpt lat="44.311529724203226" lon="8.467471248017153"><ele>46.0</ele><time>2026-04-21T11:00:45Z</time></trkpt><trkpt lat="44.311798518460634" lon="8.467610027735205"><ele>46.0</ele><time>2026-04-21T11:00:46Z</time></trkpt><trkpt lat="44.312047988841165" lon="8.46774770207573"><ele>44.5</ele><time>2026-04-21T11:00:47Z</time></trkpt><trkpt lat="44.3122814097783" lon="8.467882032029236"><ele>43.0</ele><time>2026-04-21T11:00:48Z</time></trkpt><trkpt lat="44.31251084908966" lon="8.46800938792785"><ele>43.0</ele><time>2026-04-21T11:00:49Z</time></trkpt><trkpt lat="44.312744712145786" lon="8.468142360450146"><ele>43.0</ele><time>2026-04-21T11:00:50Z</time></trkpt><trkpt lat="44.31297979730173" lon="8.468278417897194"><ele>52.0</ele><time>2026-04-21T11:00:51Z</time></trkpt><trkpt lat="44.313215758194126" lon="8.468418377900653"><ele>61.0</ele><time>2026-04-21T11:00:52Z</time></trkpt><trkpt lat="44.31345170632253" lon="8.468561186657093"><ele>61.0</ele><time>2026-04-21T11:00:53Z</time></trkpt><trkpt lat="44.313688465774696" lon="8.46870304534891"><ele>61.0</ele><time>2026-04-21T11:00:54Z</time></trkpt><trkpt lat="44.313930355964146" lon="8.468845360853575"><ele>64.5</ele><time>2026-04-21T11:00:55Z</time></trkpt><trkpt lat="44.3141719235673" lon="8.468989222904016"><ele>68.0</ele><time>2026-04-21T11:00:56Z</time></trkpt><trkpt lat="44.314415961684304" lon="8.469134293819462"><ele>68.0</ele><time>2026-04-21T11:00:57Z</time></trkpt><trkpt lat="44.31466001201915" lon="8.469283677560282"><ele>68.0</ele><time>2026-04-21T11:00:58Z</time></trkpt><trkpt lat="44.31490577462583" lon="8.469435994273951"><ele>70.0</ele><time>2026-04-21T11:00:59Z</time></trkpt><trkpt lat="44.31515444670182" lon="8.469590774808612"><ele>72.0</ele><time>2026-04-21T11:01:00Z</time></trkpt><trkpt lat="44.315412436006774" lon="8.469766429466997"><ele>57.5</ele><time>2026-04-21T11:01:01.066Z</time></trkpt><trkpt lat="44.31563775936464" lon="8.469943014996852"><ele>43.0</ele><time>2026-04-21T11:01:02.062Z</time></trkpt><trkpt lat="44.31609903516419" lon="8.470165208162195"><ele>33.0</ele><time>2026-04-21T11:01:04Z</time></trkpt><trkpt lat="44.31641827174079" lon="8.470260750678655"><ele>23.0</ele><time>2026-04-21T11:01:05Z</time></trkpt><trkpt lat="44.31664383737586" lon="8.470420655693328"><ele>21.5</ele><time>2026-04-21T11:01:06Z</time></trkpt><trkpt lat="44.31686634893275" lon="8.470587308438333"><ele>20.0</ele><time>2026-04-21T11:01:07Z</time></trkpt><trkpt lat="44.31707327805789" lon="8.470758180979413"><ele>18.0</ele><time>2026-04-21T11:01:08Z</time></trkpt><trkpt lat="44.31726105141064" lon="8.470951934267655"><ele>16.0</ele><time>2026-04-21T11:01:09Z</time></trkpt><trkpt lat="44.3174411206568" lon="8.471179212355745"><ele>19.5</ele><time>2026-04-21T11:01:10Z</time></trkpt><trkpt lat="44.31761754403694" lon="8.471419097322325"><ele>23.0</ele><time>2026-04-21T11:01:11Z</time></trkpt><trkpt lat="44.317776320111335" lon="8.471684109475158"><ele>23.0</ele><time>2026-04-21T11:01:12Z</time></trkpt><trkpt lat="44.31792467841837" lon="8.47196911989229"><ele>23.0</ele><time>2026-04-21T11:01:13Z</time></trkpt><trkpt lat="44.31805970177375" lon="8.472258575782188"><ele>27.0</ele><time>2026-04-21T11:01:14Z</time></trkpt><trkpt lat="44.31817736525146" lon="8.472564651297795"><ele>31.0</ele><time>2026-04-21T11:01:15Z</time></trkpt><trkpt lat="44.31827803453237" lon="8.472868383902778"><ele>37.5</ele><time>2026-04-21T11:01:16Z</time></trkpt><trkpt lat="44.318361534698404" lon="8.473160604588887"><ele>44.0</ele><time>2026-04-21T11:01:17Z</time></trkpt><trkpt lat="44.31842650226836" lon="8.473466065930806"><ele>48.0</ele><time>2026-04-21T11:01:18Z</time></trkpt><trkpt lat="44.31848698562325" lon="8.473782715649037"><ele>52.0</ele><time>2026-04-21T11:01:19Z</time></trkpt><trkpt lat="44.318539524891015" lon="8.474091164563088"><ele>52.0</ele><time>2026-04-21T11:01:20Z</time></trkpt><trkpt lat="44.318558686543675" lon="8.474374978793547"><ele>52.0</ele><time>2026-04-21T11:01:21Z</time></trkpt><trkpt lat="44.318570256910085" lon="8.474643279714474"><ele>52.0</ele><time>2026-04-21T11:01:22Z</time></trkpt><trkpt lat="44.31858359698531" lon="8.474910606442668"><ele>52.33333333333333</ele><time>2026-04-21T11:01:23Z</time></trkpt><trkpt lat="44.318601202442785" lon="8.475181109385003"><ele>52.66666666666667</ele><time>2026-04-21T11:01:24Z</time></trkpt><trkpt lat="44.31862547367505" lon="8.475469791083816"><ele>53.0</ele><time>2026-04-21T11:01:25Z</time></trkpt><trkpt lat="44.31864437788794" lon="8.475775525147807"><ele>51.5</ele><time>2026-04-21T11:01:26Z</time></trkpt><trkpt lat="44.318661803836804" lon="8.476087797834664"><ele>50.0</ele><time>2026-04-21T11:01:27Z</time></trkpt><trkpt lat="44.31867836743219" lon="8.476408856748739"><ele>53.5</ele><time>2026-04-21T11:01:28Z</time></trkpt><trkpt lat="44.318704130951375" lon="8.47673382820908"><ele>57.0</ele><time>2026-04-21T11:01:29Z</time></trkpt><trkpt lat="44.318726368747896" lon="8.477073149396276"><ele>56.5</ele><time>2026-04-21T11:01:30Z</time></trkpt><trkpt lat="44.318751457548565" lon="8.477409970907699"><ele>56.0</ele><time>2026-04-21T11:01:31Z</time></trkpt><trkpt lat="44.31876267241016" lon="8.477750225742412"><ele>53.0</ele><time>2026-04-21T11:01:32Z</time></trkpt><trkpt lat="44.318805203060734" lon="8.478076748473304"><ele>50.0</ele><time>2026-04-21T11:01:33Z</time></trkpt><trkpt lat="44.318841657344485" lon="8.478399340319442"><ele>50.0</ele><time>2026-04-21T11:01:34Z</time></trkpt><trkpt lat="44.31889719554686" lon="8.478708880997747"><ele>50.0</ele><time>2026-04-21T11:01:35Z</time></trkpt><trkpt lat="44.318941070645465" lon="8.479020173491747"><ele>55.5</ele><time>2026-04-21T11:01:36Z</time></trkpt><trkpt lat="44.31903434071205" lon="8.479308765380393"><ele>61.0</ele><time>2026-04-21T11:01:37Z</time></trkpt><trkpt lat="44.31916450142058" lon="8.479594332802305"><ele>57.5</ele><time>2026-04-21T11:01:38Z</time></trkpt><trkpt lat="44.31926657107175" lon="8.479877003687232"><ele>54.0</ele><time>2026-04-21T11:01:39Z</time></trkpt><trkpt lat="44.31939399230464" lon="8.480172982979626"><ele>54.0</ele><time>2026-04-21T11:01:40Z</time></trkpt><trkpt lat="44.319587467882805" lon="8.48041899130515"><ele>54.0</ele><time>2026-04-21T11:01:41Z</time></trkpt><trkpt lat="44.319766079163195" lon="8.48066541056459"><ele>57.0</ele><time>2026-04-21T11:01:42Z</time></trkpt><trkpt lat="44.31995298375376" lon="8.480901758749287"><ele>60.0</ele><time>2026-04-21T11:01:43Z</time></trkpt><trkpt lat="44.32016515188324" lon="8.481111085899737"><ele>62.0</ele><time>2026-04-21T11:01:44Z</time></trkpt><trkpt lat="44.320378829553206" lon="8.481351330812883"><ele>64.0</ele><time>2026-04-21T11:01:45Z</time></trkpt><trkpt lat="44.32052939658815" lon="8.481622678490702"><ele>65.5</ele><time>2026-04-21T11:01:46Z</time></trkpt><trkpt lat="44.32071446620619" lon="8.481875324872448"><ele>67.0</ele><time>2026-04-21T11:01:47Z</time></trkpt><trkpt lat="44.32086960393482" lon="8.482114558808075"><ele>69.0</ele><time>2026-04-21T11:01:48Z</time></trkpt><trkpt lat="44.3210243815718" lon="8.482366662198855"><ele>71.0</ele><time>2026-04-21T11:01:49Z</time></trkpt><trkpt lat="44.32117620235582" lon="8.482616271489823"><ele>71.0</ele><time>2026-04-21T11:01:50Z</time></trkpt><trkpt lat="44.321334092722196" lon="8.482876045405623"><ele>71.0</ele><time>2026-04-21T11:01:51Z</time></trkpt><trkpt lat="44.32148567873148" lon="8.483144621577452"><ele>74.0</ele><time>2026-04-21T11:01:52Z</time></trkpt><trkpt lat="44.321642053745094" lon="8.483423397326371"><ele>77.0</ele><time>2026-04-21T11:01:53Z</time></trkpt><trkpt lat="44.32179119071127" lon="8.483704715965862"><ele>86.0</ele><time>2026-04-21T11:01:54Z</time></trkpt><trkpt lat="44.32193078997391" lon="8.484005239824192"><ele>95.0</ele><time>2026-04-21T11:01:55Z</time></trkpt><trkpt lat="44.32206689398892" lon="8.484314741561498"><ele>101.5</ele><time>2026-04-21T11:01:56Z</time></trkpt><trkpt lat="44.32219586238405" lon="8.484639455576778"><ele>108.0</ele><time>2026-04-21T11:01:57Z</time></trkpt><trkpt lat="44.32232031466375" lon="8.484956947437569"><ele>108.5</ele><time>2026-04-21T11:01:58Z</time></trkpt><trkpt lat="44.32244333923751" lon="8.485276760706395"><ele>109.0</ele><time>2026-04-21T11:01:59Z</time></trkpt><trkpt lat="44.322537873191514" lon="8.485549695422092"><ele>102.33333333333334</ele><time>2026-04-21T11:02:00.064Z</time></trkpt><trkpt lat="44.322602073607385" lon="8.485809963174136"><ele>95.66666666666667</ele><time>2026-04-21T11:02:01.062Z</time></trkpt><trkpt lat="44.32268197524046" lon="8.486101233661179"><ele>89.0</ele><time>2026-04-21T11:02:02.06Z</time></trkpt><trkpt lat="44.322831654954754" lon="8.48664703769683"><ele>85.0</ele><time>2026-04-21T11:02:04Z</time></trkpt><trkpt lat="44.32295774855179" lon="8.487102608023612"><ele>81.0</ele><time>2026-04-21T11:02:05Z</time></trkpt><trkpt lat="44.3230418659098" lon="8.487476361407984"><ele>76.5</ele><time>2026-04-21T11:02:06Z</time></trkpt><trkpt lat="44.323124214412054" lon="8.487832197733711"><ele>72.0</ele><time>2026-04-21T11:02:07Z</time></trkpt><trkpt lat="44.32319723023858" lon="8.488196323134126"><ele>71.5</ele><time>2026-04-21T11:02:08Z</time></trkpt><trkpt lat="44.32328042027614" lon="8.488536526080102"><ele>71.0</ele><time>2026-04-21T11:02:09Z</time></trkpt><trkpt lat="44.323365673090976" lon="8.488871176924427"><ele>68.5</ele><time>2026-04-21T11:02:10Z</time></trkpt><trkpt lat="44.323461600268715" lon="8.489209521133676"><ele>66.0</ele><time>2026-04-21T11:02:11Z</time></trkpt><trkpt lat="44.3235660914496" lon="8.489537197291074"><ele>65.0</ele><time>2026-04-21T11:02:12Z</time></trkpt><trkpt lat="44.323685810427975" lon="8.489848553602005"><ele>64.0</ele><time>2026-04-21T11:02:13Z</time></trkpt><trkpt lat="44.32381417541441" lon="8.490150444645746"><ele>64.0</ele><time>2026-04-21T11:02:14Z</time></trkpt><trkpt lat="44.323954750826246" lon="8.490435292688064"><ele>64.0</ele><time>2026-04-21T11:02:15Z</time></trkpt><trkpt lat="44.324106494430545" lon="8.490690744521322"><ele>64.0</ele><time>2026-04-21T11:02:16Z</time></trkpt><trkpt lat="44.32426230238065" lon="8.49094668047996"><ele>64.0</ele><time>2026-04-21T11:02:17Z</time></trkpt><trkpt lat="44.32442652231157" lon="8.491191333782506"><ele>64.0</ele><time>2026-04-21T11:02:18Z</time></trkpt><trkpt lat="44.32459364022312" lon="8.491414547597929"><ele>64.0</ele><time>2026-04-21T11:02:19Z</time></trkpt><trkpt lat="44.32476186940953" lon="8.491631777683613"><ele>80.5</ele><time>2026-04-21T11:02:20Z</time></trkpt><trkpt lat="44.3249314093624" lon="8.491850813455759"><ele>97.0</ele><time>2026-04-21T11:02:21Z</time></trkpt><trkpt lat="44.32509874502996" lon="8.492069068998228"><ele>90.5</ele><time>2026-04-21T11:02:22Z</time></trkpt><trkpt lat="44.325239545653936" lon="8.492312371051364"><ele>84.0</ele><time>2026-04-21T11:02:23Z</time></trkpt><trkpt lat="44.325428680977744" lon="8.492543047422682"><ele>79.0</ele><time>2026-04-21T11:02:24.064Z</time></trkpt><trkpt lat="44.32560715257823" lon="8.492772045950613"><ele>74.0</ele><time>2026-04-21T11:02:25.062Z</time></trkpt><trkpt lat="44.32580352423435" lon="8.492965178976904"><ele>70.0</ele><time>2026-04-21T11:02:26Z</time></trkpt><trkpt lat="44.3260264541143" lon="8.493202569937267"><ele>66.0</ele><time>2026-04-21T11:02:27Z</time></trkpt><trkpt lat="44.32622753996334" lon="8.493440589374984"><ele>71.5</ele><time>2026-04-21T11:02:28Z</time></trkpt><trkpt lat="44.32643622964413" lon="8.493669917892884"><ele>77.0</ele><time>2026-04-21T11:02:29Z</time></trkpt><trkpt lat="44.32663113123078" lon="8.493890867849673"><ele>77.0</ele><time>2026-04-21T11:02:30Z</time></trkpt><trkpt lat="44.32682732271187" lon="8.4941170627748"><ele>77.0</ele><time>2026-04-21T11:02:31Z</time></trkpt><trkpt lat="44.32703244472286" lon="8.494355842615029"><ele>77.0</ele><time>2026-04-21T11:02:32.064Z</time></trkpt><trkpt lat="44.32722035494695" lon="8.494573824095928"><ele>77.0</ele><time>2026-04-21T11:02:33.055Z</time></trkpt><trkpt lat="44.3274093011439" lon="8.494794376614927"><ele>70.0</ele><time>2026-04-21T11:02:34.049Z</time></trkpt><trkpt lat="44.32886866139095" lon="8.49675793781252"><ele>80.0</ele><time>2026-04-21T11:02:37.534Z</time></trkpt><trkpt lat="44.329602716424525" lon="8.497683238364596"><ele>29.0</ele><time>2026-04-21T11:02:38.534Z</time></trkpt><trkpt lat="44.330640884387755" lon="8.498838312142151"><ele>29.0</ele><time>2026-04-21T11:02:49Z</time></trkpt><trkpt lat="44.33086954845364" lon="8.499036450855305"><ele>29.0</ele><time>2026-04-21T11:02:50Z</time></trkpt><trkpt lat="44.33107749686659" lon="8.499262299838577"><ele>29.0</ele><time>2026-04-21T11:02:51.001Z</time></trkpt><trkpt lat="44.331287104984796" lon="8.499425868472162"><ele>29.0</ele><time>2026-04-21T11:02:52.001Z</time></trkpt><trkpt lat="44.331516771103736" lon="8.499592862825828"><ele>40.5</ele><time>2026-04-21T11:02:53.001Z</time></trkpt><trkpt lat="44.3317578371412" lon="8.499722557901679"><ele>52.0</ele><time>2026-04-21T11:02:54.001Z</time></trkpt><trkpt lat="44.33200277302256" lon="8.499839106859161"><ele>57.5</ele><time>2026-04-21T11:02:55.001Z</time></trkpt><trkpt lat="44.3322442960323" lon="8.49994894206654"><ele>63.0</ele><time>2026-04-21T11:02:56.001Z</time></trkpt><trkpt lat="44.33248883679588" lon="8.500058526638458"><ele>63.0</ele><time>2026-04-21T11:02:57.001Z</time></trkpt><trkpt lat="44.33273164479891" lon="8.500168233906257"><ele>63.0</ele><time>2026-04-21T11:02:58.001Z</time></trkpt><trkpt lat="44.332977519888246" lon="8.500312700062462"><ele>51.5</ele><time>2026-04-21T11:02:59.056Z</time></trkpt><trkpt lat="44.3332110578498" lon="8.500475566962209"><ele>40.0</ele><time>2026-04-21T11:03:00.055Z</time></trkpt><trkpt lat="44.333427264568385" lon="8.500650925610843"><ele>21.0</ele><time>2026-04-21T11:03:01.055Z</time></trkpt><trkpt lat="44.33389936441852" lon="8.501401573012181"><ele>21.0</ele><time>2026-04-21T11:03:04.001Z</time></trkpt><trkpt lat="44.33405111734169" lon="8.501600969676995"><ele>21.0</ele><time>2026-04-21T11:03:05.001Z</time></trkpt><trkpt lat="44.33418210501494" lon="8.501693355266875"><ele>21.0</ele><time>2026-04-21T11:03:06.001Z</time></trkpt><trkpt lat="44.33432608543149" lon="8.501933132965307"><ele>17.5</ele><time>2026-04-21T11:03:07.001Z</time></trkpt><trkpt lat="44.334473767380274" lon="8.502215896992265"><ele>14.0</ele><time>2026-04-21T11:03:08.001Z</time></trkpt><trkpt lat="44.33459702140494" lon="8.502512370250056"><ele>14.0</ele><time>2026-04-21T11:03:09.001Z</time></trkpt><trkpt lat="44.334714020587455" lon="8.502794999141965"><ele>14.0</ele><time>2026-04-21T11:03:10.001Z</time></trkpt><trkpt lat="44.33481034648938" lon="8.503101490432247"><ele>12.0</ele><time>2026-04-21T11:03:11.001Z</time></trkpt><trkpt lat="44.33488450503906" lon="8.50342310607513"><ele>10.0</ele><time>2026-04-21T11:03:12.001Z</time></trkpt><trkpt lat="44.334948648952896" lon="8.503764522895528"><ele>8.5</ele><time>2026-04-21T11:03:13.001Z</time></trkpt><trkpt lat="44.33500086685674" lon="8.504106388914675"><ele>7.0</ele><time>2026-04-21T11:03:14.001Z</time></trkpt><trkpt lat="44.33502811605267" lon="8.504441741289607"><ele>6.0</ele><time>2026-04-21T11:03:15.001Z</time></trkpt><trkpt lat="44.335040201826416" lon="8.504782945833085"><ele>5.0</ele><time>2026-04-21T11:03:16.001Z</time></trkpt><trkpt lat="44.33503752282602" lon="8.505128089594804"><ele>4.5</ele><time>2026-04-21T11:03:17.001Z</time></trkpt><trkpt lat="44.33502084263693" lon="8.505483177250076"><ele>4.0</ele><time>2026-04-21T11:03:18.001Z</time></trkpt><trkpt lat="44.33500278238998" lon="8.505833626261262"><ele>4.0</ele><time>2026-04-21T11:03:19.001Z</time></trkpt><trkpt lat="44.33497978717976" lon="8.506181578916923"><ele>4.0</ele><time>2026-04-21T11:03:20.001Z</time></trkpt><trkpt lat="44.334957828786415" lon="8.506531995361794"><ele>5.0</ele><time>2026-04-21T11:03:21.001Z</time></trkpt><trkpt lat="44.33493998266951" lon="8.50686622525053"><ele>6.0</ele><time>2026-04-21T11:03:22.001Z</time></trkpt><trkpt lat="44.33492334476719" lon="8.507206445354084"><ele>6.5</ele><time>2026-04-21T11:03:23.001Z</time></trkpt><trkpt lat="44.33490749772438" lon="8.507554617393108"><ele>7.0</ele><time>2026-04-21T11:03:24.001Z</time></trkpt><trkpt lat="44.33488932027756" lon="8.507902665801142"><ele>7.0</ele><time>2026-04-21T11:03:25.001Z</time></trkpt><trkpt lat="44.33487205999891" lon="8.50823947187207"><ele>7.0</ele><time>2026-04-21T11:03:26.001Z</time></trkpt><trkpt lat="44.334854301057234" lon="8.508576086988368"><ele>7.0</ele><time>2026-04-21T11:03:27.001Z</time></trkpt><trkpt lat="44.33483774165457" lon="8.508920177335796"><ele>7.0</ele><time>2026-04-21T11:03:28.001Z</time></trkpt><trkpt lat="44.33482010343516" lon="8.509268007694509"><ele>8.0</ele><time>2026-04-21T11:03:29.001Z</time></trkpt><trkpt lat="44.33480440831134" lon="8.509616866657332"><ele>9.0</ele><time>2026-04-21T11:03:30.001Z</time></trkpt><trkpt lat="44.33479230767783" lon="8.509957999097235"><ele>9.0</ele><time>2026-04-21T11:03:31.001Z</time></trkpt><trkpt lat="44.33479465606809" lon="8.510298522190842"><ele>9.0</ele><time>2026-04-21T11:03:32.001Z</time></trkpt><trkpt lat="44.334806930562415" lon="8.510634167692533"><ele>9.0</ele><time>2026-04-21T11:03:33.001Z</time></trkpt><trkpt lat="44.33482925961538" lon="8.510964601691123"><ele>9.0</ele><time>2026-04-21T11:03:34.001Z</time></trkpt><trkpt lat="44.33485855504068" lon="8.511305738292581"><ele>9.5</ele><time>2026-04-21T11:03:35.001Z</time></trkpt><trkpt lat="44.33489449890624" lon="8.511648024024806"><ele>10.0</ele><time>2026-04-21T11:03:36.001Z</time></trkpt><trkpt lat="44.334937693954295" lon="8.511993653857926"><ele>10.5</ele><time>2026-04-21T11:03:37.001Z</time></trkpt><trkpt lat="44.33499525734471" lon="8.512339412814143"><ele>11.0</ele><time>2026-04-21T11:03:38.001Z</time></trkpt><trkpt lat="44.33505239002463" lon="8.512682478875307"><ele>10.5</ele><time>2026-04-21T11:03:39.001Z</time></trkpt><trkpt lat="44.33511466950641" lon="8.513020365294857"><ele>10.0</ele><time>2026-04-21T11:03:40.001Z</time></trkpt><trkpt lat="44.33517291112629" lon="8.513354345580337"><ele>10.0</ele><time>2026-04-21T11:03:41.001Z</time></trkpt><trkpt lat="44.33522925509885" lon="8.51368307445094"><ele>10.0</ele><time>2026-04-21T11:03:42.001Z</time></trkpt><trkpt lat="44.335286689732165" lon="8.514021099051284"><ele>10.5</ele><time>2026-04-21T11:03:43Z</time></trkpt><trkpt lat="44.33534323857683" lon="8.514365375639006"><ele>11.0</ele><time>2026-04-21T11:03:44Z</time></trkpt><trkpt lat="44.33540238142698" lon="8.51471493041731"><ele>11.0</ele><time>2026-04-21T11:03:45Z</time></trkpt><trkpt lat="44.33546554944578" lon="8.515066571825729"><ele>11.0</ele><time>2026-04-21T11:03:46Z</time></trkpt><trkpt lat="44.335527974579975" lon="8.515419705944353"><ele>10.5</ele><time>2026-04-21T11:03:47Z</time></trkpt><trkpt lat="44.3355882541177" lon="8.515766401168234"><ele>10.0</ele><time>2026-04-21T11:03:48Z</time></trkpt><trkpt lat="44.33565135082791" lon="8.516110206467989"><ele>13.0</ele><time>2026-04-21T11:03:49Z</time></trkpt><trkpt lat="44.33571257502929" lon="8.516444378605224"><ele>16.0</ele><time>2026-04-21T11:03:50Z</time></trkpt><trkpt lat="44.335767152567904" lon="8.51677463018428"><ele>24.5</ele><time>2026-04-21T11:03:51Z</time></trkpt><trkpt lat="44.335823411282746" lon="8.517102984031013"><ele>33.0</ele><time>2026-04-21T11:03:52Z</time></trkpt><trkpt lat="44.33587693025217" lon="8.517429686555653"><ele>33.0</ele><time>2026-04-21T11:03:53Z</time></trkpt><trkpt lat="44.335929003354025" lon="8.517773098967549"><ele>33.0</ele><time>2026-04-21T11:03:54Z</time></trkpt><trkpt lat="44.3359809701818" lon="8.518131681329113"><ele>34.5</ele><time>2026-04-21T11:03:55Z</time></trkpt><trkpt lat="44.33604107629269" lon="8.518508623919779"><ele>36.0</ele><time>2026-04-21T11:03:56Z</time></trkpt><trkpt lat="44.33609296072284" lon="8.518870925830587"><ele>38.0</ele><time>2026-04-21T11:03:57Z</time></trkpt><trkpt lat="44.33614824849841" lon="8.519266977672105"><ele>40.0</ele><time>2026-04-21T11:03:58Z</time></trkpt><trkpt lat="44.336201611192045" lon="8.519674887402116"><ele>53.0</ele><time>2026-04-21T11:03:59Z</time></trkpt><trkpt lat="44.33628373854163" lon="8.520295697485532"><ele>59.5</ele><time>2026-04-21T11:04:00.068Z</time></trkpt><trkpt lat="44.33634324796078" lon="8.520610138977952"><ele>66.0</ele><time>2026-04-21T11:04:01.067Z</time></trkpt><trkpt lat="44.33640357427681" lon="8.521063753279078"><ele>32.0</ele><time>2026-04-21T11:04:02.062Z</time></trkpt><trkpt lat="44.33630085343069" lon="8.52348712681169"><ele>31.5</ele><time>2026-04-21T11:04:11.001Z</time></trkpt><trkpt lat="44.33622844889449" lon="8.523809903360393"><ele>31.0</ele><time>2026-04-21T11:04:12.001Z</time></trkpt><trkpt lat="44.33615346842542" lon="8.524153359163433"><ele>31.0</ele><time>2026-04-21T11:04:13.001Z</time></trkpt><trkpt lat="44.33604149148892" lon="8.524472011650076"><ele>31.0</ele><time>2026-04-21T11:04:14.001Z</time></trkpt><trkpt lat="44.335923891963446" lon="8.5247782820087"><ele>36.0</ele><time>2026-04-21T11:04:15.001Z</time></trkpt><trkpt lat="44.335784217680754" lon="8.525073580701115"><ele>41.0</ele><time>2026-04-21T11:04:16.001Z</time></trkpt><trkpt lat="44.33566269882694" lon="8.525386988182518"><ele>44.0</ele><time>2026-04-21T11:04:17.001Z</time></trkpt><trkpt lat="44.33554320818442" lon="8.525699228160699"><ele>47.0</ele><time>2026-04-21T11:04:18.001Z</time></trkpt><trkpt lat="44.33542376629539" lon="8.526004075083724"><ele>47.5</ele><time>2026-04-21T11:04:19.001Z</time></trkpt><trkpt lat="44.33530817499721" lon="8.526295243024725"><ele>48.0</ele><time>2026-04-21T11:04:20.001Z</time></trkpt><trkpt lat="44.33520658324728" lon="8.526566283526096"><ele>48.0</ele><time>2026-04-21T11:04:21.001Z</time></trkpt><trkpt lat="44.335118366823515" lon="8.52684074919892"><ele>48.0</ele><time>2026-04-21T11:04:22.001Z</time></trkpt><trkpt lat="44.33503214023183" lon="8.527149394436313"><ele>46.5</ele><time>2026-04-21T11:04:23.001Z</time></trkpt><trkpt lat="44.33498078753971" lon="8.527467307692143"><ele>45.0</ele><time>2026-04-21T11:04:24.001Z</time></trkpt><trkpt lat="44.33493952125134" lon="8.527775600419085"><ele>42.0</ele><time>2026-04-21T11:04:25.001Z</time></trkpt><trkpt lat="44.33491297444741" lon="8.528094217524844"><ele>39.0</ele><time>2026-04-21T11:04:26.001Z</time></trkpt><trkpt lat="44.33491561922542" lon="8.528420079982226"><ele>45.5</ele><time>2026-04-21T11:04:27.001Z</time></trkpt><trkpt lat="44.33492962162539" lon="8.528735957739048"><ele>52.0</ele><time>2026-04-21T11:04:28.001Z</time></trkpt><trkpt lat="44.33496846897271" lon="8.529048166211329"><ele>52.0</ele><time>2026-04-21T11:04:29.001Z</time></trkpt><trkpt lat="44.33501971108935" lon="8.529359688076864"><ele>52.0</ele><time>2026-04-21T11:04:30.001Z</time></trkpt><trkpt lat="44.335081480376665" lon="8.529669612025774"><ele>54.0</ele><time>2026-04-21T11:04:31.001Z</time></trkpt><trkpt lat="44.33514397685281" lon="8.529972241060602"><ele>56.0</ele><time>2026-04-21T11:04:32.001Z</time></trkpt><trkpt lat="44.33520570659011" lon="8.530267820930892"><ele>58.0</ele><time>2026-04-21T11:04:33.001Z</time></trkpt><trkpt lat="44.33526627520722" lon="8.530540363023338"><ele>58.0</ele><time>2026-04-21T11:04:34.001Z</time></trkpt><trkpt lat="44.33532938457137" lon="8.530784066588199"><ele>58.0</ele><time>2026-04-21T11:04:35.001Z</time></trkpt><trkpt lat="44.33540996691734" lon="8.530999014687254"><ele>58.0</ele><time>2026-04-21T11:04:36.001Z</time></trkpt><trkpt lat="44.335457285861786" lon="8.531365257596452"><ele>50.5</ele><time>2026-04-21T11:04:37.001Z</time></trkpt><trkpt lat="44.33558578605404" lon="8.5318350027326"><ele>43.0</ele><time>2026-04-21T11:04:38.001Z</time></trkpt><trkpt lat="44.335756020442616" lon="8.532134815881752"><ele>38.0</ele><time>2026-04-21T11:04:39.001Z</time></trkpt><trkpt lat="44.33592115805406" lon="8.532384635379401"><ele>33.0</ele><time>2026-04-21T11:04:40.001Z</time></trkpt><trkpt lat="44.336085885563" lon="8.532624620338185"><ele>33.0</ele><time>2026-04-21T11:04:41.001Z</time></trkpt><trkpt lat="44.336265129766595" lon="8.532838413317746"><ele>33.0</ele><time>2026-04-21T11:04:42.001Z</time></trkpt><trkpt lat="44.336457969440545" lon="8.533032240768081"><ele>42.5</ele><time>2026-04-21T11:04:43.001Z</time></trkpt><trkpt lat="44.33666001765266" lon="8.533214104347072"><ele>52.0</ele><time>2026-04-21T11:04:44.001Z</time></trkpt><trkpt lat="44.33686050847797" lon="8.533397097236278"><ele>52.0</ele><time>2026-04-21T11:04:45.001Z</time></trkpt><trkpt lat="44.337062316177295" lon="8.533580289578364"><ele>52.0</ele><time>2026-04-21T11:04:46.001Z</time></trkpt><trkpt lat="44.33726739352694" lon="8.533766266786673"><ele>44.0</ele><time>2026-04-21T11:04:47.001Z</time></trkpt><trkpt lat="44.33747307635307" lon="8.533946904164482"><ele>36.0</ele><time>2026-04-21T11:04:48.001Z</time></trkpt><trkpt lat="44.337699402931605" lon="8.534149799668326"><ele>36.0</ele><time>2026-04-21T11:04:49.001Z</time></trkpt><trkpt lat="44.33792656182741" lon="8.534372151215141"><ele>36.0</ele><time>2026-04-21T11:04:50.001Z</time></trkpt><trkpt lat="44.33814697424415" lon="8.53459810843634"><ele>30.0</ele><time>2026-04-21T11:04:51.001Z</time></trkpt><trkpt lat="44.338368254981354" lon="8.534802725334298"><ele>24.0</ele><time>2026-04-21T11:04:52.001Z</time></trkpt><trkpt lat="44.33858769301743" lon="8.535009126339109"><ele>24.0</ele><time>2026-04-21T11:04:53.001Z</time></trkpt><trkpt lat="44.338806423079326" lon="8.535213488225681"><ele>24.0</ele><time>2026-04-21T11:04:54.001Z</time></trkpt><trkpt lat="44.33902424436632" lon="8.535415132217688"><ele>22.0</ele><time>2026-04-21T11:04:55.001Z</time></trkpt><trkpt lat="44.3392395398071" lon="8.535622852850718"><ele>20.0</ele><time>2026-04-21T11:04:56.001Z</time></trkpt><trkpt lat="44.33945722910052" lon="8.53582891075339"><ele>20.0</ele><time>2026-04-21T11:04:57.001Z</time></trkpt><trkpt lat="44.339677591047156" lon="8.536028995384573"><ele>20.0</ele><time>2026-04-21T11:04:58.001Z</time></trkpt><trkpt lat="44.339896176740204" lon="8.536231135233539"><ele>37.0</ele><time>2026-04-21T11:04:59.001Z</time></trkpt><trkpt lat="44.340115092711834" lon="8.536435146289445"><ele>54.0</ele><time>2026-04-21T11:05:00.001Z</time></trkpt><trkpt lat="44.34033185367639" lon="8.536635574487391"><ele>54.0</ele><time>2026-04-21T11:05:01.001Z</time></trkpt><trkpt lat="44.34054943557676" lon="8.536840038903355"><ele>54.0</ele><time>2026-04-21T11:05:02.001Z</time></trkpt><trkpt lat="44.34076914701869" lon="8.53704663041286"><ele>64.0</ele><time>2026-04-21T11:05:03.001Z</time></trkpt><trkpt lat="44.34099109032503" lon="8.537252055430235"><ele>74.0</ele><time>2026-04-21T11:05:04.001Z</time></trkpt><trkpt lat="44.34121591286704" lon="8.53745596448934"><ele>69.5</ele><time>2026-04-21T11:05:05.001Z</time></trkpt><trkpt lat="44.34144230496248" lon="8.537660706116487"><ele>65.0</ele><time>2026-04-21T11:05:06.001Z</time></trkpt><trkpt lat="44.34167176664691" lon="8.537864893547015"><ele>56.0</ele><time>2026-04-21T11:05:07.001Z</time></trkpt><trkpt lat="44.34188519204116" lon="8.538064242446653"><ele>47.0</ele><time>2026-04-21T11:05:08.001Z</time></trkpt><trkpt lat="44.34209395372924" lon="8.538286911854245"><ele>57.5</ele><time>2026-04-21T11:05:09.001Z</time></trkpt><trkpt lat="44.34230497600205" lon="8.538489740236834"><ele>68.0</ele><time>2026-04-21T11:05:10.001Z</time></trkpt><trkpt lat="44.34252647226021" lon="8.53869259623987"><ele>68.0</ele><time>2026-04-21T11:05:11.001Z</time></trkpt><trkpt lat="44.34274678586114" lon="8.538897605956251"><ele>68.0</ele><time>2026-04-21T11:05:12.001Z</time></trkpt><trkpt lat="44.34296831130436" lon="8.539102989197872"><ele>64.0</ele><time>2026-04-21T11:05:13.001Z</time></trkpt><trkpt lat="44.343189762608475" lon="8.539311677318187"><ele>60.0</ele><time>2026-04-21T11:05:14.001Z</time></trkpt><trkpt lat="44.343409987741" lon="8.539523024995626"><ele>51.0</ele><time>2026-04-21T11:05:15.001Z</time></trkpt><trkpt lat="44.34363385657675" lon="8.539736883126357"><ele>42.0</ele><time>2026-04-21T11:05:16.001Z</time></trkpt><trkpt lat="44.3438839938486" lon="8.53994429714139"><ele>35.0</ele><time>2026-04-21T11:05:17.001Z</time></trkpt><trkpt lat="44.34408272466989" lon="8.540153016671653"><ele>28.0</ele><time>2026-04-21T11:05:18.001Z</time></trkpt><trkpt lat="44.34430193287914" lon="8.540361557535766"><ele>26.5</ele><time>2026-04-21T11:05:19.001Z</time></trkpt><trkpt lat="44.34452250500968" lon="8.540562191260173"><ele>25.0</ele><time>2026-04-21T11:05:20.001Z</time></trkpt><trkpt lat="44.34474207483128" lon="8.540765456285262"><ele>36.5</ele><time>2026-04-21T11:05:21.001Z</time></trkpt><trkpt lat="44.34496293612505" lon="8.54096722905051"><ele>48.0</ele><time>2026-04-21T11:05:22.001Z</time></trkpt><trkpt lat="44.34518182225188" lon="8.541169724059236"><ele>50.5</ele><time>2026-04-21T11:05:23.001Z</time></trkpt><trkpt lat="44.3453973523842" lon="8.541369296967877"><ele>53.0</ele><time>2026-04-21T11:05:24.001Z</time></trkpt><trkpt lat="44.34561650549727" lon="8.541576082920772"><ele>53.0</ele><time>2026-04-21T11:05:25.001Z</time></trkpt><trkpt lat="44.345836271052576" lon="8.541785771402198"><ele>53.0</ele><time>2026-04-21T11:05:26.001Z</time></trkpt><trkpt lat="44.34605786668929" lon="8.541996656504384"><ele>41.0</ele><time>2026-04-21T11:05:27.001Z</time></trkpt><trkpt lat="44.34627695205745" lon="8.542203560484685"><ele>29.0</ele><time>2026-04-21T11:05:28.001Z</time></trkpt><trkpt lat="44.34648924759216" lon="8.542396331392164"><ele>26.5</ele><time>2026-04-21T11:05:29.001Z</time></trkpt><trkpt lat="44.34668870196547" lon="8.542584424642177"><ele>24.0</ele><time>2026-04-21T11:05:30.001Z</time></trkpt><trkpt lat="44.34687441264184" lon="8.542777055220105"><ele>22.333333333333332</ele><time>2026-04-21T11:05:31.001Z</time></trkpt><trkpt lat="44.34704321984931" lon="8.54297965902763"><ele>20.666666666666664</ele><time>2026-04-21T11:05:32.001Z</time></trkpt><trkpt lat="44.34719982031356" lon="8.543201629281986"><ele>19.0</ele><time>2026-04-21T11:05:33.001Z</time></trkpt><trkpt lat="44.34733690190717" lon="8.543436928152142"><ele>20.666666666666664</ele><time>2026-04-21T11:05:34.001Z</time></trkpt><trkpt lat="44.347464226194724" lon="8.5436814910033"><ele>22.333333333333332</ele><time>2026-04-21T11:05:35.001Z</time></trkpt><trkpt lat="44.34758707428626" lon="8.543935060491403"><ele>24.0</ele><time>2026-04-21T11:05:36.001Z</time></trkpt><trkpt lat="44.34766000326385" lon="8.544210617675772"><ele>24.0</ele><time>2026-04-21T11:05:37.001Z</time></trkpt><trkpt lat="44.34772189911712" lon="8.544499937379221"><ele>24.0</ele><time>2026-04-21T11:05:38.001Z</time></trkpt><trkpt lat="44.34776703440264" lon="8.544798093475055"><ele>24.0</ele><time>2026-04-21T11:05:39.001Z</time></trkpt><trkpt lat="44.34778375871776" lon="8.545099364017306"><ele>39.0</ele><time>2026-04-21T11:05:40.001Z</time></trkpt><trkpt lat="44.34779234154411" lon="8.545415303406816"><ele>54.0</ele><time>2026-04-21T11:05:41.001Z</time></trkpt><trkpt lat="44.34779276914038" lon="8.54573536618807"><ele>54.0</ele><time>2026-04-21T11:05:42.001Z</time></trkpt><trkpt lat="44.34779790374299" lon="8.546057422888891"><ele>54.0</ele><time>2026-04-21T11:05:43.001Z</time></trkpt><trkpt lat="44.347802708806526" lon="8.546396599180987"><ele>53.0</ele><time>2026-04-21T11:05:44.001Z</time></trkpt><trkpt lat="44.347825627490344" lon="8.546730598540796"><ele>52.0</ele><time>2026-04-21T11:05:45.001Z</time></trkpt><trkpt lat="44.347854389144715" lon="8.547076094015306"><ele>52.0</ele><time>2026-04-21T11:05:46.001Z</time></trkpt><trkpt lat="44.34784766265068" lon="8.547418342323818"><ele>52.0</ele><time>2026-04-21T11:05:47.001Z</time></trkpt><trkpt lat="44.3478347063402" lon="8.547775742198676"><ele>47.0</ele><time>2026-04-21T11:05:48.001Z</time></trkpt><trkpt lat="44.34783446060337" lon="8.548128999836631"><ele>42.0</ele><time>2026-04-21T11:05:49Z</time></trkpt><trkpt lat="44.34782593524673" lon="8.548489888127282"><ele>44.0</ele><time>2026-04-21T11:05:50Z</time></trkpt><trkpt lat="44.34782098008089" lon="8.548850890775405"><ele>46.0</ele><time>2026-04-21T11:05:51Z</time></trkpt><trkpt lat="44.34782137788768" lon="8.549211358429707"><ele>47.0</ele><time>2026-04-21T11:05:52Z</time></trkpt><trkpt lat="44.347828282363956" lon="8.549572433439888"><ele>48.0</ele><time>2026-04-21T11:05:53Z</time></trkpt><trkpt lat="44.34783629952435" lon="8.549945037576544"><ele>48.0</ele><time>2026-04-21T11:05:54Z</time></trkpt><trkpt lat="44.347840598171864" lon="8.550318594566779"><ele>48.0</ele><time>2026-04-21T11:05:55Z</time></trkpt><trkpt lat="44.347843000510416" lon="8.550686247990496"><ele>42.5</ele><time>2026-04-21T11:05:56Z</time></trkpt><trkpt lat="44.34784826546627" lon="8.551049613902856"><ele>37.0</ele><time>2026-04-21T11:05:57Z</time></trkpt><trkpt lat="44.34785887098635" lon="8.551415408682946"><ele>35.0</ele><time>2026-04-21T11:05:58Z</time></trkpt><trkpt lat="44.347866872736496" lon="8.551775244900986"><ele>33.0</ele><time>2026-04-21T11:05:59Z</time></trkpt><trkpt lat="44.34787394346194" lon="8.55213502864202"><ele>33.0</ele><time>2026-04-21T11:06:00Z</time></trkpt><trkpt lat="44.347882752537146" lon="8.55249332741183"><ele>33.0</ele><time>2026-04-21T11:06:01Z</time></trkpt><trkpt lat="44.34788444046318" lon="8.552850114803489"><ele>32.5</ele><time>2026-04-21T11:06:02Z</time></trkpt><trkpt lat="44.347888263652806" lon="8.55320499745962"><ele>32.0</ele><time>2026-04-21T11:06:03Z</time></trkpt><trkpt lat="44.34789013053345" lon="8.553556420474614"><ele>35.5</ele><time>2026-04-21T11:06:04Z</time></trkpt><trkpt lat="44.34788679677904" lon="8.553892200187637"><ele>39.0</ele><time>2026-04-21T11:06:05Z</time></trkpt><trkpt lat="44.34788321885369" lon="8.55422383868904"><ele>39.0</ele><time>2026-04-21T11:06:06Z</time></trkpt><trkpt lat="44.347882375215626" lon="8.554537849674217"><ele>39.0</ele><time>2026-04-21T11:06:07Z</time></trkpt><trkpt lat="44.34788957684956" lon="8.55482888106047"><ele>39.0</ele><time>2026-04-21T11:06:08Z</time></trkpt><trkpt lat="44.34791563189869" lon="8.555106426044102"><ele>45.0</ele><time>2026-04-21T11:06:09Z</time></trkpt><trkpt lat="44.347961965796166" lon="8.555396898823153"><ele>51.0</ele><time>2026-04-21T11:06:10Z</time></trkpt><trkpt lat="44.34803975502518" lon="8.555689168080226"><ele>57.0</ele><time>2026-04-21T11:06:11Z</time></trkpt><trkpt lat="44.34812374133956" lon="8.555965046701768"><ele>56.33333333333333</ele><time>2026-04-21T11:06:12Z</time></trkpt><trkpt lat="44.34818709761745" lon="8.556231553796726"><ele>55.666666666666664</ele><time>2026-04-21T11:06:13Z</time></trkpt><trkpt lat="44.34831125624375" lon="8.556488664558728"><ele>55.0</ele><time>2026-04-21T11:06:14Z</time></trkpt><trkpt lat="44.34843904173817" lon="8.556739544112833"><ele>55.0</ele><time>2026-04-21T11:06:15Z</time></trkpt><trkpt lat="44.348592922648486" lon="8.556976117124576"><ele>55.0</ele><time>2026-04-21T11:06:16Z</time></trkpt><trkpt lat="44.348757108999756" lon="8.557201818836115"><ele>56.5</ele><time>2026-04-21T11:06:17Z</time></trkpt><trkpt lat="44.34894101347174" lon="8.557401096612269"><ele>58.0</ele><time>2026-04-21T11:06:18Z</time></trkpt><trkpt lat="44.349125310590814" lon="8.557576088954923"><ele>58.0</ele><time>2026-04-21T11:06:19Z</time></trkpt><trkpt lat="44.349322694623886" lon="8.557728641219143"><ele>58.0</ele><time>2026-04-21T11:06:20Z</time></trkpt><trkpt lat="44.349530801253685" lon="8.557866807424242"><ele>61.5</ele><time>2026-04-21T11:06:21Z</time></trkpt><trkpt lat="44.34974152584404" lon="8.557995266918658"><ele>65.0</ele><time>2026-04-21T11:06:22Z</time></trkpt><trkpt lat="44.34996598926047" lon="8.558120199448851"><ele>65.0</ele><time>2026-04-21T11:06:23Z</time></trkpt><trkpt lat="44.350196534871756" lon="8.55825549397997"><ele>65.0</ele><time>2026-04-21T11:06:24Z</time></trkpt><trkpt lat="44.35042665288401" lon="8.558395682434886"><ele>66.0</ele><time>2026-04-21T11:06:25Z</time></trkpt><trkpt lat="44.35065957309931" lon="8.558540402211284"><ele>67.0</ele><time>2026-04-21T11:06:26Z</time></trkpt><trkpt lat="44.35089943627971" lon="8.558684405851924"><ele>61.0</ele><time>2026-04-21T11:06:27Z</time></trkpt><trkpt lat="44.35113692540145" lon="8.558829119291024"><ele>55.0</ele><time>2026-04-21T11:06:28Z</time></trkpt><trkpt lat="44.351376295653175" lon="8.558981816920431"><ele>52.5</ele><time>2026-04-21T11:06:29Z</time></trkpt><trkpt lat="44.35161025385824" lon="8.559125563473136"><ele>50.0</ele><time>2026-04-21T11:06:30Z</time></trkpt><trkpt lat="44.35182843199834" lon="8.5592573903413"><ele>50.0</ele><time>2026-04-21T11:06:31Z</time></trkpt><trkpt lat="44.352047349429995" lon="8.559391648767988"><ele>50.0</ele><time>2026-04-21T11:06:32Z</time></trkpt><trkpt lat="44.352271875824854" lon="8.559525542022156"><ele>49.5</ele><time>2026-04-21T11:06:33Z</time></trkpt><trkpt lat="44.35249662019345" lon="8.559657986923577"><ele>49.0</ele><time>2026-04-21T11:06:34Z</time></trkpt><trkpt lat="44.35270505098501" lon="8.559783818483762"><ele>49.0</ele><time>2026-04-21T11:06:35Z</time></trkpt><trkpt lat="44.35291081413425" lon="8.559910439884648"><ele>49.0</ele><time>2026-04-21T11:06:36.001Z</time></trkpt><trkpt lat="44.35312230499173" lon="8.560057980006238"><ele>50.5</ele><time>2026-04-21T11:06:37.001Z</time></trkpt><trkpt lat="44.353337585001306" lon="8.560214408259272"><ele>52.0</ele><time>2026-04-21T11:06:38.001Z</time></trkpt><trkpt lat="44.353552655372575" lon="8.560387610947835"><ele>53.5</ele><time>2026-04-21T11:06:39.001Z</time></trkpt><trkpt lat="44.35376919153114" lon="8.560564606332273"><ele>55.0</ele><time>2026-04-21T11:06:40.001Z</time></trkpt><trkpt lat="44.353988472175146" lon="8.560741447064396"><ele>55.0</ele><time>2026-04-21T11:06:41.001Z</time></trkpt><trkpt lat="44.354204899392236" lon="8.560922852990021"><ele>55.0</ele><time>2026-04-21T11:06:42.001Z</time></trkpt><trkpt lat="44.35440869588872" lon="8.561093572404191"><ele>53.666666666666664</ele><time>2026-04-21T11:06:43.001Z</time></trkpt><trkpt lat="44.35460596337162" lon="8.561251253524134"><ele>52.33333333333333</ele><time>2026-04-21T11:06:44.001Z</time></trkpt><trkpt lat="44.35479454069145" lon="8.561406015239406"><ele>51.0</ele><time>2026-04-21T11:06:45.001Z</time></trkpt><trkpt lat="44.35499211031777" lon="8.561566348039308"><ele>49.0</ele><time>2026-04-21T11:06:46.001Z</time></trkpt><trkpt lat="44.35519718038728" lon="8.561734803552762"><ele>47.0</ele><time>2026-04-21T11:06:47.001Z</time></trkpt><trkpt lat="44.355407970131694" lon="8.561910841826684"><ele>46.5</ele><time>2026-04-21T11:06:48.001Z</time></trkpt><trkpt lat="44.3556257023585" lon="8.562089867930332"><ele>46.0</ele><time>2026-04-21T11:06:49.001Z</time></trkpt><trkpt lat="44.35584681279819" lon="8.562271212169591"><ele>46.0</ele><time>2026-04-21T11:06:50.001Z</time></trkpt><trkpt lat="44.356074709619364" lon="8.56245096322984"><ele>46.0</ele><time>2026-04-21T11:06:51.001Z</time></trkpt><trkpt lat="44.356303136186284" lon="8.562629236294978"><ele>42.0</ele><time>2026-04-21T11:06:52.001Z</time></trkpt><trkpt lat="44.35652860711976" lon="8.562810342468804"><ele>38.0</ele><time>2026-04-21T11:06:53.001Z</time></trkpt><trkpt lat="44.35674534008737" lon="8.562988989399964"><ele>39.5</ele><time>2026-04-21T11:06:54.001Z</time></trkpt><trkpt lat="44.35698302848506" lon="8.563181864648374"><ele>41.0</ele><time>2026-04-21T11:06:55.001Z</time></trkpt><trkpt lat="44.357206852896624" lon="8.5633623963833"><ele>41.0</ele><time>2026-04-21T11:06:56.001Z</time></trkpt><trkpt lat="44.35743174987459" lon="8.563545838947535"><ele>41.0</ele><time>2026-04-21T11:06:57.001Z</time></trkpt><trkpt lat="44.35765796389377" lon="8.56372864868888"><ele>40.0</ele><time>2026-04-21T11:06:58.001Z</time></trkpt><trkpt lat="44.35788203602599" lon="8.563919590265455"><ele>39.0</ele><time>2026-04-21T11:06:59.001Z</time></trkpt><trkpt lat="44.35810647314587" lon="8.564103191047844"><ele>39.0</ele><time>2026-04-21T11:07:00.001Z</time></trkpt><trkpt lat="44.35833230312504" lon="8.56429240322568"><ele>39.0</ele><time>2026-04-21T11:07:01.001Z</time></trkpt><trkpt lat="44.358555340492835" lon="8.564475452995207"><ele>40.5</ele><time>2026-04-21T11:07:02.001Z</time></trkpt><trkpt lat="44.35876507032431" lon="8.564653691867425"><ele>42.0</ele><time>2026-04-21T11:07:03.001Z</time></trkpt><trkpt lat="44.358977160059105" lon="8.564831014373034"><ele>46.5</ele><time>2026-04-21T11:07:04.001Z</time></trkpt><trkpt lat="44.35918799302517" lon="8.565018574654212"><ele>51.0</ele><time>2026-04-21T11:07:05.001Z</time></trkpt><trkpt lat="44.359393914098064" lon="8.56521405692868"><ele>46.0</ele><time>2026-04-21T11:07:06.001Z</time></trkpt><trkpt lat="44.35958413969834" lon="8.565451807548808"><ele>41.0</ele><time>2026-04-21T11:07:07.001Z</time></trkpt><trkpt lat="44.359752204694644" lon="8.565719123538644"><ele>41.0</ele><time>2026-04-21T11:07:08.001Z</time></trkpt><trkpt lat="44.3599162885986" lon="8.565988975565018"><ele>41.0</ele><time>2026-04-21T11:07:09.001Z</time></trkpt><trkpt lat="44.360076458395746" lon="8.566262487132926"><ele>44.0</ele><time>2026-04-21T11:07:10.001Z</time></trkpt><trkpt lat="44.36022649054256" lon="8.566548496881513"><ele>47.0</ele><time>2026-04-21T11:07:11.001Z</time></trkpt><trkpt lat="44.36038446972498" lon="8.566845137191244"><ele>60.0</ele><time>2026-04-21T11:07:12.001Z</time></trkpt><trkpt lat="44.360548416771124" lon="8.567140846256754"><ele>73.0</ele><time>2026-04-21T11:07:13.001Z</time></trkpt><trkpt lat="44.36071240681077" lon="8.567428164312746"><ele>73.0</ele><time>2026-04-21T11:07:14.001Z</time></trkpt><trkpt lat="44.3608772975859" lon="8.567714510662904"><ele>73.0</ele><time>2026-04-21T11:07:15.001Z</time></trkpt><trkpt lat="44.36104322296265" lon="8.568003300761086"><ele>69.0</ele><time>2026-04-21T11:07:16.001Z</time></trkpt><trkpt lat="44.36119592318733" lon="8.568288830300899"><ele>65.0</ele><time>2026-04-21T11:07:17.001Z</time></trkpt><trkpt lat="44.36138112362152" lon="8.568611476894718"><ele>73.5</ele><time>2026-04-21T11:07:18.062Z</time></trkpt><trkpt lat="44.361546610050304" lon="8.568905662111872"><ele>82.0</ele><time>2026-04-21T11:07:19.062Z</time></trkpt><trkpt lat="44.361712243592436" lon="8.569205899429043"><ele>82.0</ele><time>2026-04-21T11:07:20.064Z</time></trkpt><trkpt lat="44.36187591390348" lon="8.569503687083774"><ele>82.0</ele><time>2026-04-21T11:07:21.062Z</time></trkpt><trkpt lat="44.36203815521111" lon="8.569796586140077"><ele>38.0</ele><time>2026-04-21T11:07:22.055Z</time></trkpt><trkpt lat="44.36318332669442" lon="8.57212316150316"><ele>38.5</ele><time>2026-04-21T11:07:25.535Z</time></trkpt><trkpt lat="44.36292885544802" lon="8.571626708840927"><ele>39.0</ele><time>2026-04-21T11:07:28.001Z</time></trkpt><trkpt lat="44.363085597974795" lon="8.571915404829259"><ele>38.5</ele><time>2026-04-21T11:07:29.001Z</time></trkpt><trkpt lat="44.36319127460562" lon="8.572224279685683"><ele>38.0</ele><time>2026-04-21T11:07:30.001Z</time></trkpt><trkpt lat="44.363382826121295" lon="8.572531342047164"><ele>38.0</ele><time>2026-04-21T11:07:31.001Z</time></trkpt><trkpt lat="44.363525166069756" lon="8.572803477120237"><ele>38.0</ele><time>2026-04-21T11:07:32.001Z</time></trkpt><trkpt lat="44.363658766429886" lon="8.573027905769749"><ele>34.33333333333333</ele><time>2026-04-21T11:07:33.001Z</time></trkpt><trkpt lat="44.36376101132788" lon="8.573260972723693"><ele>30.666666666666664</ele><time>2026-04-21T11:07:34.001Z</time></trkpt><trkpt lat="44.36382766543212" lon="8.57345383660196"><ele>27.0</ele><time>2026-04-21T11:07:35.001Z</time></trkpt><trkpt lat="44.36390807254674" lon="8.573690920829662"><ele>24.0</ele><time>2026-04-21T11:07:36.001Z</time></trkpt><trkpt lat="44.3639647957139" lon="8.57395460998426"><ele>21.0</ele><time>2026-04-21T11:07:37.001Z</time></trkpt><trkpt lat="44.364002593009374" lon="8.574216236794065"><ele>18.0</ele><time>2026-04-21T11:07:38.001Z</time></trkpt><trkpt lat="44.364017160453066" lon="8.574481418801753"><ele>17.666666666666668</ele><time>2026-04-21T11:07:39.001Z</time></trkpt><trkpt lat="44.36400965413527" lon="8.574762430384297"><ele>17.333333333333336</ele><time>2026-04-21T11:07:40.001Z</time></trkpt><trkpt lat="44.36397560787872" lon="8.575048151773037"><ele>17.0</ele><time>2026-04-21T11:07:41.001Z</time></trkpt><trkpt lat="44.36393348358063" lon="8.575337870604868"><ele>17.0</ele><time>2026-04-21T11:07:42.001Z</time></trkpt><trkpt lat="44.36389489205524" lon="8.575634218026845"><ele>17.0</ele><time>2026-04-21T11:07:43.001Z</time></trkpt><trkpt lat="44.36386189664714" lon="8.575936938897977"><ele>17.0</ele><time>2026-04-21T11:07:44.001Z</time></trkpt><trkpt lat="44.363826499020966" lon="8.576254712621335"><ele>20.5</ele><time>2026-04-21T11:07:45.001Z</time></trkpt><trkpt lat="44.36379404295987" lon="8.576571268467683"><ele>24.0</ele><time>2026-04-21T11:07:46.001Z</time></trkpt><trkpt lat="44.36375699857547" lon="8.576894150994343"><ele>27.5</ele><time>2026-04-21T11:07:47.001Z</time></trkpt><trkpt lat="44.363719760340835" lon="8.577224730492723"><ele>31.0</ele><time>2026-04-21T11:07:48.001Z</time></trkpt><trkpt lat="44.36368239882624" lon="8.577559087411982"><ele>31.0</ele><time>2026-04-21T11:07:49.001Z</time></trkpt><trkpt lat="44.36364781503296" lon="8.577894164291976"><ele>31.0</ele><time>2026-04-21T11:07:50.001Z</time></trkpt><trkpt lat="44.36361547512864" lon="8.578231765067025"><ele>31.0</ele><time>2026-04-21T11:07:51.001Z</time></trkpt><trkpt lat="44.36358116638117" lon="8.578568314915318"><ele>31.0</ele><time>2026-04-21T11:07:52.001Z</time></trkpt><trkpt lat="44.36354420733559" lon="8.57890851849107"><ele>32.5</ele><time>2026-04-21T11:07:53.001Z</time></trkpt><trkpt lat="44.36350667800859" lon="8.579249641834911"><ele>34.0</ele><time>2026-04-21T11:07:54.001Z</time></trkpt><trkpt lat="44.36346945438152" lon="8.579588312166857"><ele>34.0</ele><time>2026-04-21T11:07:55Z</time></trkpt><trkpt lat="44.36343506198" lon="8.579902161954504"><ele>34.0</ele><time>2026-04-21T11:07:56Z</time></trkpt><trkpt lat="44.36339761599053" lon="8.580205765666104"><ele>34.0</ele><time>2026-04-21T11:07:57Z</time></trkpt><trkpt lat="44.363367277210585" lon="8.580511311181787"><ele>41.333333333333336</ele><time>2026-04-21T11:07:58Z</time></trkpt><trkpt lat="44.363334595536465" lon="8.580838084365945"><ele>48.66666666666667</ele><time>2026-04-21T11:07:59Z</time></trkpt><trkpt lat="44.363314950722234" lon="8.581134533254767"><ele>56.0</ele><time>2026-04-21T11:08:00Z</time></trkpt><trkpt lat="44.36330310461936" lon="8.581414195217715"><ele>56.66666666666667</ele><time>2026-04-21T11:08:01Z</time></trkpt><trkpt lat="44.36330276529718" lon="8.581691248922397"><ele>57.33333333333333</ele><time>2026-04-21T11:08:02Z</time></trkpt><trkpt lat="44.36332207244403" lon="8.581970753389543"><ele>58.0</ele><time>2026-04-21T11:08:03Z</time></trkpt><trkpt lat="44.363358005349646" lon="8.582256215007162"><ele>58.0</ele><time>2026-04-21T11:08:04Z</time></trkpt><trkpt lat="44.363410105148404" lon="8.582551226104389"><ele>58.0</ele><time>2026-04-21T11:08:05Z</time></trkpt><trkpt lat="44.36347752458452" lon="8.582846458047202"><ele>58.0</ele><time>2026-04-21T11:08:06Z</time></trkpt><trkpt lat="44.363541790299884" lon="8.583137089618365"><ele>58.0</ele><time>2026-04-21T11:08:07Z</time></trkpt><trkpt lat="44.36359656056162" lon="8.583406586014961"><ele>58.0</ele><time>2026-04-21T11:08:08Z</time></trkpt><trkpt lat="44.36364401338984" lon="8.583657292566112"><ele>58.0</ele><time>2026-04-21T11:08:09Z</time></trkpt><trkpt lat="44.36368287614753" lon="8.583907109329834"><ele>58.0</ele><time>2026-04-21T11:08:10Z</time></trkpt><trkpt lat="44.3636716665232" lon="8.584175194043228"><ele>58.0</ele><time>2026-04-21T11:08:11Z</time></trkpt><trkpt lat="44.36365696115761" lon="8.584449084717603"><ele>58.0</ele><time>2026-04-21T11:08:12Z</time></trkpt><trkpt lat="44.36362211545119" lon="8.584732876748074"><ele>58.33333333333333</ele><time>2026-04-21T11:08:13Z</time></trkpt><trkpt lat="44.36356016580013" lon="8.58500949790866"><ele>58.66666666666667</ele><time>2026-04-21T11:08:14Z</time></trkpt><trkpt lat="44.36347261234883" lon="8.585286531893965"><ele>59.0</ele><time>2026-04-21T11:08:15Z</time></trkpt><trkpt lat="44.36336440378669" lon="8.585563502681369"><ele>59.0</ele><time>2026-04-21T11:08:16Z</time></trkpt><trkpt lat="44.36324995896499" lon="8.585842896304824"><ele>59.0</ele><time>2026-04-21T11:08:17Z</time></trkpt><trkpt lat="44.36313592105916" lon="8.586130614903361"><ele>55.0</ele><time>2026-04-21T11:08:18Z</time></trkpt><trkpt lat="44.36302986579707" lon="8.586415845311958"><ele>51.0</ele><time>2026-04-21T11:08:19Z</time></trkpt><trkpt lat="44.36293350511332" lon="8.586706819851864"><ele>51.0</ele><time>2026-04-21T11:08:20Z</time></trkpt><trkpt lat="44.362847817716386" lon="8.587006656521325"><ele>51.0</ele><time>2026-04-21T11:08:21Z</time></trkpt><trkpt lat="44.36278387868222" lon="8.587322472592888"><ele>51.0</ele><time>2026-04-21T11:08:22Z</time></trkpt><trkpt lat="44.36273545034315" lon="8.58765324287312"><ele>51.0</ele><time>2026-04-21T11:08:23Z</time></trkpt><trkpt lat="44.36269271628291" lon="8.587991140261945"><ele>45.0</ele><time>2026-04-21T11:08:24Z</time></trkpt><trkpt lat="44.362648800422335" lon="8.588328892169436"><ele>39.0</ele><time>2026-04-21T11:08:25Z</time></trkpt><trkpt lat="44.36260727809617" lon="8.58866912231566"><ele>36.5</ele><time>2026-04-21T11:08:26Z</time></trkpt><trkpt lat="44.362567502288734" lon="8.588994999165456"><ele>34.0</ele><time>2026-04-21T11:08:27Z</time></trkpt><trkpt lat="44.3625251136593" lon="8.589326770296488"><ele>39.5</ele><time>2026-04-21T11:08:28Z</time></trkpt><trkpt lat="44.36247935201391" lon="8.589655769931577"><ele>45.0</ele><time>2026-04-21T11:08:29Z</time></trkpt><trkpt lat="44.362435787904246" lon="8.589966054028617"><ele>45.0</ele><time>2026-04-21T11:08:30Z</time></trkpt><trkpt lat="44.36239670625638" lon="8.59025975153459"><ele>45.0</ele><time>2026-04-21T11:08:31Z</time></trkpt><trkpt lat="44.36235854899392" lon="8.590558071181372"><ele>45.0</ele><time>2026-04-21T11:08:32Z</time></trkpt><trkpt lat="44.36232332643816" lon="8.590846920262608"><ele>53.0</ele><time>2026-04-21T11:08:33Z</time></trkpt><trkpt lat="44.36230688746315" lon="8.591136184238604"><ele>61.0</ele><time>2026-04-21T11:08:34Z</time></trkpt><trkpt lat="44.36231202663183" lon="8.59143351758593"><ele>69.0</ele><time>2026-04-21T11:08:35Z</time></trkpt><trkpt lat="44.362335062122966" lon="8.591737503749387"><ele>70.66666666666667</ele><time>2026-04-21T11:08:36Z</time></trkpt><trkpt lat="44.36237605707602" lon="8.592043645082134"><ele>72.33333333333334</ele><time>2026-04-21T11:08:37Z</time></trkpt><trkpt lat="44.36243080319409" lon="8.592348870831122"><ele>74.0</ele><time>2026-04-21T11:08:38Z</time></trkpt><trkpt lat="44.362503605255746" lon="8.592647154396726"><ele>73.5</ele><time>2026-04-21T11:08:39Z</time></trkpt><trkpt lat="44.36259306246715" lon="8.592937377508415"><ele>73.0</ele><time>2026-04-21T11:08:40Z</time></trkpt><trkpt lat="44.3627052663629" lon="8.593216333948085"><ele>73.0</ele><time>2026-04-21T11:08:41Z</time></trkpt><trkpt lat="44.36283454435083" lon="8.593487161185827"><ele>73.0</ele><time>2026-04-21T11:08:42Z</time></trkpt><trkpt lat="44.3629758847615" lon="8.593749358568086"><ele>75.5</ele><time>2026-04-21T11:08:43Z</time></trkpt><trkpt lat="44.363128405662216" lon="8.594007943659095"><ele>78.0</ele><time>2026-04-21T11:08:44Z</time></trkpt><trkpt lat="44.363286358546226" lon="8.594267949165774"><ele>75.0</ele><time>2026-04-21T11:08:45Z</time></trkpt><trkpt lat="44.363444582589466" lon="8.594534832017825"><ele>72.0</ele><time>2026-04-21T11:08:46.001Z</time></trkpt><trkpt lat="44.363598426622744" lon="8.594803691502094"><ele>72.0</ele><time>2026-04-21T11:08:47.001Z</time></trkpt><trkpt lat="44.363752937886666" lon="8.595072803978091"><ele>72.0</ele><time>2026-04-21T11:08:48.001Z</time></trkpt><trkpt lat="44.36391040911041" lon="8.59534660166056"><ele>75.0</ele><time>2026-04-21T11:08:49.001Z</time></trkpt><trkpt lat="44.364073183721906" lon="8.595624679957403"><ele>78.0</ele><time>2026-04-21T11:08:50.001Z</time></trkpt><trkpt lat="44.36423783910156" lon="8.59590121094787"><ele>75.5</ele><time>2026-04-21T11:08:51.001Z</time></trkpt><trkpt lat="44.36440382425827" lon="8.596180286533667"><ele>73.0</ele><time>2026-04-21T11:08:52.001Z</time></trkpt><trkpt lat="44.36456551056492" lon="8.596464469523525"><ele>76.5</ele><time>2026-04-21T11:08:53.001Z</time></trkpt><trkpt lat="44.36472366636343" lon="8.596746117825619"><ele>80.0</ele><time>2026-04-21T11:08:54.001Z</time></trkpt><trkpt lat="44.36488680266898" lon="8.597025408732561"><ele>80.0</ele><time>2026-04-21T11:08:55.001Z</time></trkpt><trkpt lat="44.36505275867551" lon="8.597303955398939"><ele>80.0</ele><time>2026-04-21T11:08:56.001Z</time></trkpt><trkpt lat="44.36521602052402" lon="8.597578688845154"><ele>83.5</ele><time>2026-04-21T11:08:57.001Z</time></trkpt><trkpt lat="44.36537716447662" lon="8.5978493332833"><ele>87.0</ele><time>2026-04-21T11:08:58.001Z</time></trkpt><trkpt lat="44.36553532614268" lon="8.598120282168832"><ele>87.0</ele><time>2026-04-21T11:08:59.001Z</time></trkpt><trkpt lat="44.365684520669284" lon="8.59838350619434"><ele>87.0</ele><time>2026-04-21T11:09:00.001Z</time></trkpt><trkpt lat="44.36582442865151" lon="8.598630441996711"><ele>84.0</ele><time>2026-04-21T11:09:01.001Z</time></trkpt><trkpt lat="44.36595943005513" lon="8.5988884358854"><ele>81.0</ele><time>2026-04-21T11:09:02.001Z</time></trkpt><trkpt lat="44.36608367002384" lon="8.59916269843444"><ele>81.0</ele><time>2026-04-21T11:09:03.001Z</time></trkpt><trkpt lat="44.36619575652063" lon="8.599451977736635"><ele>81.0</ele><time>2026-04-21T11:09:04.001Z</time></trkpt><trkpt lat="44.36630209621985" lon="8.599751340288002"><ele>85.0</ele><time>2026-04-21T11:09:05.001Z</time></trkpt><trkpt lat="44.36639855411185" lon="8.600056684047475"><ele>89.0</ele><time>2026-04-21T11:09:06.001Z</time></trkpt><trkpt lat="44.366486356512794" lon="8.600369195977192"><ele>89.0</ele><time>2026-04-21T11:09:07.001Z</time></trkpt><trkpt lat="44.366563397463004" lon="8.600686530848545"><ele>89.0</ele><time>2026-04-21T11:09:08.001Z</time></trkpt><trkpt lat="44.36663965735877" lon="8.601007615949149"><ele>87.5</ele><time>2026-04-21T11:09:09.001Z</time></trkpt><trkpt lat="44.36672357291542" lon="8.60131254809384"><ele>86.0</ele><time>2026-04-21T11:09:10.001Z</time></trkpt><trkpt lat="44.366817482378266" lon="8.60161429492084"><ele>86.0</ele><time>2026-04-21T11:09:11.001Z</time></trkpt><trkpt lat="44.36692001620224" lon="8.601916180072763"><ele>86.0</ele><time>2026-04-21T11:09:12.001Z</time></trkpt><trkpt lat="44.36702383724199" lon="8.602210189124317"><ele>85.5</ele><time>2026-04-21T11:09:13.001Z</time></trkpt><trkpt lat="44.36713258824319" lon="8.602502555992801"><ele>85.0</ele><time>2026-04-21T11:09:14.001Z</time></trkpt><trkpt lat="44.36725003553836" lon="8.6027882956359"><ele>86.0</ele><time>2026-04-21T11:09:15.001Z</time></trkpt><trkpt lat="44.367374170104014" lon="8.603069294837516"><ele>87.0</ele><time>2026-04-21T11:09:16.001Z</time></trkpt><trkpt lat="44.36750050151539" lon="8.603351325916519"><ele>87.0</ele><time>2026-04-21T11:09:17.001Z</time></trkpt><trkpt lat="44.36762922595792" lon="8.603634562480043"><ele>87.0</ele><time>2026-04-21T11:09:18.001Z</time></trkpt><trkpt lat="44.36775821974243" lon="8.60392266191318"><ele>84.0</ele><time>2026-04-21T11:09:19.001Z</time></trkpt><trkpt lat="44.36788687507049" lon="8.604210616960605"><ele>81.0</ele><time>2026-04-21T11:09:20.001Z</time></trkpt><trkpt lat="44.36801717840286" lon="8.604502625619078"><ele>84.5</ele><time>2026-04-21T11:09:21.001Z</time></trkpt><trkpt lat="44.368143090850886" lon="8.604782332608664"><ele>88.0</ele><time>2026-04-21T11:09:22.001Z</time></trkpt><trkpt lat="44.36826521165319" lon="8.605072407840904"><ele>85.5</ele><time>2026-04-21T11:09:23.001Z</time></trkpt><trkpt lat="44.368380251472786" lon="8.605377211628838"><ele>83.0</ele><time>2026-04-21T11:09:24.001Z</time></trkpt><trkpt lat="44.3684904345954" lon="8.605690674293374"><ele>83.0</ele><time>2026-04-21T11:09:25.001Z</time></trkpt><trkpt lat="44.368594695405086" lon="8.606011116135251"><ele>83.0</ele><time>2026-04-21T11:09:26.001Z</time></trkpt><trkpt lat="44.36868626097106" lon="8.606333256852395"><ele>79.5</ele><time>2026-04-21T11:09:27.001Z</time></trkpt><trkpt lat="44.368773801229636" lon="8.606663760554225"><ele>76.0</ele><time>2026-04-21T11:09:28.001Z</time></trkpt><trkpt lat="44.368853076717706" lon="8.607008747076627"><ele>83.0</ele><time>2026-04-21T11:09:29.001Z</time></trkpt><trkpt lat="44.368925747527086" lon="8.607359199302858"><ele>90.0</ele><time>2026-04-21T11:09:30.001Z</time></trkpt><trkpt lat="44.36898911021868" lon="8.607717747002127"><ele>87.5</ele><time>2026-04-21T11:09:31.001Z</time></trkpt><trkpt lat="44.369043534254374" lon="8.608080371288862"><ele>85.0</ele><time>2026-04-21T11:09:32.001Z</time></trkpt><trkpt lat="44.36908280834829" lon="8.608444913722156"><ele>84.0</ele><time>2026-04-21T11:09:33.001Z</time></trkpt><trkpt lat="44.369117330331434" lon="8.608810408839554"><ele>83.0</ele><time>2026-04-21T11:09:34.001Z</time></trkpt><trkpt lat="44.36914889157568" lon="8.609180369334048"><ele>82.5</ele><time>2026-04-21T11:09:35.001Z</time></trkpt><trkpt lat="44.36917597741449" lon="8.609546062657838"><ele>82.0</ele><time>2026-04-21T11:09:36.001Z</time></trkpt><trkpt lat="44.36920221520894" lon="8.60989053701382"><ele>82.0</ele><time>2026-04-21T11:09:37.001Z</time></trkpt><trkpt lat="44.3692322997913" lon="8.610231261785467"><ele>82.0</ele><time>2026-04-21T11:09:38.001Z</time></trkpt><trkpt lat="44.36926264520265" lon="8.610575056612893"><ele>81.0</ele><time>2026-04-21T11:09:39.001Z</time></trkpt><trkpt lat="44.36929294253836" lon="8.610904572185836"><ele>80.0</ele><time>2026-04-21T11:09:40.001Z</time></trkpt><trkpt lat="44.36932278130488" lon="8.611216613120343"><ele>79.66666666666667</ele><time>2026-04-21T11:09:41.001Z</time></trkpt><trkpt lat="44.369354493070695" lon="8.611526160041008"><ele>79.33333333333333</ele><time>2026-04-21T11:09:42.001Z</time></trkpt><trkpt lat="44.36939339639682" lon="8.611826173974526"><ele>79.0</ele><time>2026-04-21T11:09:43.001Z</time></trkpt><trkpt lat="44.3694512152179" lon="8.612126649980778"><ele>77.0</ele><time>2026-04-21T11:09:44.001Z</time></trkpt><trkpt lat="44.369524231187235" lon="8.612423483910398"><ele>75.0</ele><time>2026-04-21T11:09:45.001Z</time></trkpt><trkpt lat="44.36961318840587" lon="8.612715165716235"><ele>78.0</ele><time>2026-04-21T11:09:46.001Z</time></trkpt><trkpt lat="44.369713263077294" lon="8.612995059237454"><ele>81.0</ele><time>2026-04-21T11:09:47.001Z</time></trkpt><trkpt lat="44.36982614053975" lon="8.613267242588526"><ele>84.0</ele><time>2026-04-21T11:09:48.001Z</time></trkpt><trkpt lat="44.36995487341105" lon="8.613533731355961"><ele>80.0</ele><time>2026-04-21T11:09:49.001Z</time></trkpt><trkpt lat="44.37009789832056" lon="8.613794245925678"><ele>76.0</ele><time>2026-04-21T11:09:50.001Z</time></trkpt><trkpt lat="44.370249997792946" lon="8.614047550176284"><ele>76.0</ele><time>2026-04-21T11:09:51.001Z</time></trkpt><trkpt lat="44.370411682272234" lon="8.61429699989814"><ele>76.0</ele><time>2026-04-21T11:09:52.001Z</time></trkpt><trkpt lat="44.37056844367759" lon="8.61454130842418"><ele>76.66666666666666</ele><time>2026-04-21T11:09:53.001Z</time></trkpt><trkpt lat="44.37071418987045" lon="8.614777541423447"><ele>77.33333333333333</ele><time>2026-04-21T11:09:54.001Z</time></trkpt><trkpt lat="44.37085306231227" lon="8.61500796767685"><ele>78.0</ele><time>2026-04-21T11:09:55.001Z</time></trkpt><trkpt lat="44.37098274327964" lon="8.615231523846594"><ele>76.33333333333333</ele><time>2026-04-21T11:09:56.001Z</time></trkpt><trkpt lat="44.37109818915831" lon="8.615452366368267"><ele>74.66666666666666</ele><time>2026-04-21T11:09:57.001Z</time></trkpt><trkpt lat="44.37120099134451" lon="8.615676495376858"><ele>73.0</ele><time>2026-04-21T11:09:58.001Z</time></trkpt><trkpt lat="44.37129108778788" lon="8.615909363353142"><ele>75.0</ele><time>2026-04-21T11:09:59.001Z</time></trkpt><trkpt lat="44.37137624915061" lon="8.616162882215058"><ele>77.0</ele><time>2026-04-21T11:10:00.001Z</time></trkpt><trkpt lat="44.3714594515155" lon="8.61642702220142"><ele>79.0</ele><time>2026-04-21T11:10:01Z</time></trkpt><trkpt lat="44.371543489979075" lon="8.61670775487259"><ele>77.5</ele><time>2026-04-21T11:10:02Z</time></trkpt><trkpt lat="44.37163006943958" lon="8.616995985561465"><ele>76.0</ele><time>2026-04-21T11:10:03Z</time></trkpt><trkpt lat="44.37172330740327" lon="8.617291538826015"><ele>76.0</ele><time>2026-04-21T11:10:04Z</time></trkpt><trkpt lat="44.37181729867412" lon="8.617581095168267"><ele>76.0</ele><time>2026-04-21T11:10:05Z</time></trkpt><trkpt lat="44.371908063052764" lon="8.617868587183947"><ele>76.33333333333333</ele><time>2026-04-21T11:10:06Z</time></trkpt><trkpt lat="44.37200289497796" lon="8.618142963966672"><ele>76.66666666666667</ele><time>2026-04-21T11:10:07Z</time></trkpt><trkpt lat="44.372113917452715" lon="8.618404431150548"><ele>77.0</ele><time>2026-04-21T11:10:08Z</time></trkpt><trkpt lat="44.372242240450326" lon="8.618657932018966"><ele>77.0</ele><time>2026-04-21T11:10:09Z</time></trkpt><trkpt lat="44.37238726577699" lon="8.618908691745943"><ele>77.0</ele><time>2026-04-21T11:10:10Z</time></trkpt><trkpt lat="44.37254441303803" lon="8.619154877267652"><ele>77.0</ele><time>2026-04-21T11:10:11Z</time></trkpt><trkpt lat="44.37271386216551" lon="8.619399885076882"><ele>77.0</ele><time>2026-04-21T11:10:12Z</time></trkpt><trkpt lat="44.37288858283124" lon="8.619642961291513"><ele>76.5</ele><time>2026-04-21T11:10:13Z</time></trkpt><trkpt lat="44.373067115904625" lon="8.61988630481964"><ele>76.0</ele><time>2026-04-21T11:10:14Z</time></trkpt><trkpt lat="44.37325018827015" lon="8.62013556623358"><ele>74.5</ele><time>2026-04-21T11:10:15Z</time></trkpt><trkpt lat="44.3734348394376" lon="8.62038990798078"><ele>73.0</ele><time>2026-04-21T11:10:16Z</time></trkpt><trkpt lat="44.37361832478454" lon="8.620640981341825"><ele>73.0</ele><time>2026-04-21T11:10:17Z</time></trkpt><trkpt lat="44.373805802556085" lon="8.620895628896857"><ele>73.0</ele><time>2026-04-21T11:10:18Z</time></trkpt><trkpt lat="44.37399582697328" lon="8.62115046601108"><ele>74.5</ele><time>2026-04-21T11:10:19Z</time></trkpt><trkpt lat="44.374183751336226" lon="8.621398052335977"><ele>76.0</ele><time>2026-04-21T11:10:20Z</time></trkpt><trkpt lat="44.37437433679448" lon="8.621646838493252"><ele>76.0</ele><time>2026-04-21T11:10:21Z</time></trkpt><trkpt lat="44.37456232117804" lon="8.62189722429828"><ele>76.0</ele><time>2026-04-21T11:10:22Z</time></trkpt><trkpt lat="44.37475162813343" lon="8.622155233853443"><ele>73.0</ele><time>2026-04-21T11:10:23Z</time></trkpt><trkpt lat="44.374941653368914" lon="8.622415725616237"><ele>70.0</ele><time>2026-04-21T11:10:24Z</time></trkpt><trkpt lat="44.37513799184862" lon="8.622674005999972"><ele>65.5</ele><time>2026-04-21T11:10:25Z</time></trkpt><trkpt lat="44.375323721506795" lon="8.622920365721543"><ele>61.0</ele><time>2026-04-21T11:10:26Z</time></trkpt><trkpt lat="44.37549983674336" lon="8.623157865465002"><ele>52.0</ele><time>2026-04-21T11:10:27Z</time></trkpt><trkpt lat="44.37567514968397" lon="8.623393651944179"><ele>43.0</ele><time>2026-04-21T11:10:28Z</time></trkpt><trkpt lat="44.37585549779593" lon="8.623637603368218"><ele>40.5</ele><time>2026-04-21T11:10:29Z</time></trkpt><trkpt lat="44.376030848746275" lon="8.623880326138053"><ele>38.0</ele><time>2026-04-21T11:10:30Z</time></trkpt><trkpt lat="44.376197698892526" lon="8.624115399814206"><ele>55.0</ele><time>2026-04-21T11:10:31Z</time></trkpt><trkpt lat="44.37635730363865" lon="8.624364758769872"><ele>72.0</ele><time>2026-04-21T11:10:32Z</time></trkpt><trkpt lat="44.37649378877627" lon="8.624617257369346"><ele>72.0</ele><time>2026-04-21T11:10:33Z</time></trkpt><trkpt lat="44.376620831780706" lon="8.624893515852424"><ele>72.0</ele><time>2026-04-21T11:10:34Z</time></trkpt><trkpt lat="44.37674389626341" lon="8.62518593647795"><ele>71.5</ele><time>2026-04-21T11:10:35Z</time></trkpt><trkpt lat="44.37686833243298" lon="8.625485049546285"><ele>71.0</ele><time>2026-04-21T11:10:36Z</time></trkpt><trkpt lat="44.3769947481667" lon="8.6257871333245"><ele>71.0</ele><time>2026-04-21T11:10:37Z</time></trkpt><trkpt lat="44.37712281488818" lon="8.626092318284128"><ele>71.0</ele><time>2026-04-21T11:10:38Z</time></trkpt><trkpt lat="44.37724834902676" lon="8.626392803559655"><ele>72.5</ele><time>2026-04-21T11:10:39Z</time></trkpt><trkpt lat="44.37736680711417" lon="8.626678091741004"><ele>74.0</ele><time>2026-04-21T11:10:40Z</time></trkpt><trkpt lat="44.37747816154037" lon="8.62694845728247"><ele>70.0</ele><time>2026-04-21T11:10:41Z</time></trkpt><trkpt lat="44.37758872694655" lon="8.627192820005808"><ele>66.0</ele><time>2026-04-21T11:10:42Z</time></trkpt><trkpt lat="44.37770769346522" lon="8.627421860798862"><ele>62.0</ele><time>2026-04-21T11:10:43Z</time></trkpt><trkpt lat="44.37784086356388" lon="8.627626043073253"><ele>62.0</ele><time>2026-04-21T11:10:44Z</time></trkpt><trkpt lat="44.37799398940754" lon="8.627808390184507"><ele>62.0</ele><time>2026-04-21T11:10:45Z</time></trkpt><trkpt lat="44.37817197072353" lon="8.627969468412367"><ele>62.0</ele><time>2026-04-21T11:10:46Z</time></trkpt><trkpt lat="44.37836737308882" lon="8.628114852355163"><ele>56.5</ele><time>2026-04-21T11:10:47Z</time></trkpt><trkpt lat="44.378571840299486" lon="8.628254047984985"><ele>51.0</ele><time>2026-04-21T11:10:48Z</time></trkpt><trkpt lat="44.37878659322765" lon="8.62839583615024"><ele>58.0</ele><time>2026-04-21T11:10:49Z</time></trkpt><trkpt lat="44.37900629068142" lon="8.628550729079308"><ele>65.0</ele><time>2026-04-21T11:10:50Z</time></trkpt><trkpt lat="44.37923143627777" lon="8.62870578569394"><ele>50.0</ele><time>2026-04-21T11:10:51Z</time></trkpt><trkpt lat="44.379448788672775" lon="8.628850603350076"><ele>35.0</ele><time>2026-04-21T11:10:52Z</time></trkpt><trkpt lat="44.37966090590046" lon="8.628986961987419"><ele>44.0</ele><time>2026-04-21T11:10:53Z</time></trkpt><trkpt lat="44.37988048287101" lon="8.629137774915284"><ele>53.0</ele><time>2026-04-21T11:10:54Z</time></trkpt><trkpt lat="44.38009594474326" lon="8.62930452579705"><ele>51.333333333333336</ele><time>2026-04-21T11:10:55Z</time></trkpt><trkpt lat="44.38031030565987" lon="8.629483528056596"><ele>49.66666666666667</ele><time>2026-04-21T11:10:56Z</time></trkpt><trkpt lat="44.380440564462795" lon="8.629656714676543"><ele>48.0</ele><time>2026-04-21T11:10:57Z</time></trkpt><trkpt lat="44.38062688857185" lon="8.629876391252889"><ele>48.0</ele><time>2026-04-21T11:10:58Z</time></trkpt><trkpt lat="44.38081250066259" lon="8.630120114877291"><ele>48.0</ele><time>2026-04-21T11:10:59Z</time></trkpt><trkpt lat="44.381006104267406" lon="8.630359668093252"><ele>36.5</ele><time>2026-04-21T11:11:00.001Z</time></trkpt><trkpt lat="44.38120576254027" lon="8.630604825578327"><ele>25.0</ele><time>2026-04-21T11:11:01.001Z</time></trkpt><trkpt lat="44.38139515860745" lon="8.630842714301764"><ele>23.0</ele><time>2026-04-21T11:11:02.001Z</time></trkpt><trkpt lat="44.38157396808312" lon="8.631065420203267"><ele>21.0</ele><time>2026-04-21T11:11:03.001Z</time></trkpt><trkpt lat="44.38175660718623" lon="8.631296457058896"><ele>21.0</ele><time>2026-04-21T11:11:04.001Z</time></trkpt><trkpt lat="44.38194183485161" lon="8.631528359259171"><ele>21.0</ele><time>2026-04-21T11:11:05.001Z</time></trkpt><trkpt lat="44.38213047725552" lon="8.631758306566372"><ele>32.0</ele><time>2026-04-21T11:11:06.001Z</time></trkpt><trkpt lat="44.3823155875529" lon="8.631985609652117"><ele>43.0</ele><time>2026-04-21T11:11:07.001Z</time></trkpt><trkpt lat="44.38251690651975" lon="8.632225056522612"><ele>43.0</ele><time>2026-04-21T11:11:08.001Z</time></trkpt><trkpt lat="44.382717061102184" lon="8.632464672868164"><ele>43.0</ele><time>2026-04-21T11:11:09.001Z</time></trkpt><trkpt lat="44.382911877581655" lon="8.632692110485314"><ele>40.0</ele><time>2026-04-21T11:11:10.001Z</time></trkpt><trkpt lat="44.383101786867186" lon="8.632911190709125"><ele>37.0</ele><time>2026-04-21T11:11:11.001Z</time></trkpt><trkpt lat="44.383284499127726" lon="8.633084158126534"><ele>37.0</ele><time>2026-04-21T11:11:12.001Z</time></trkpt><trkpt lat="44.38346462899037" lon="8.633326209811482"><ele>37.0</ele><time>2026-04-21T11:11:13.001Z</time></trkpt><trkpt lat="44.383650333160325" lon="8.633520588512386"><ele>35.5</ele><time>2026-04-21T11:11:14.001Z</time></trkpt><trkpt lat="44.383854299397676" lon="8.63370344256025"><ele>34.0</ele><time>2026-04-21T11:11:15.001Z</time></trkpt><trkpt lat="44.38406799787002" lon="8.633873518103112"><ele>34.0</ele><time>2026-04-21T11:11:16.001Z</time></trkpt><trkpt lat="44.38428924087555" lon="8.634032774447086"><ele>34.0</ele><time>2026-04-21T11:11:17.001Z</time></trkpt><trkpt lat="44.38452472361184" lon="8.63419186975939"><ele>44.0</ele><time>2026-04-21T11:11:18.001Z</time></trkpt><trkpt lat="44.38477626663631" lon="8.634330765394212"><ele>54.0</ele><time>2026-04-21T11:11:19.001Z</time></trkpt><trkpt lat="44.38502000565919" lon="8.634470115547629"><ele>41.5</ele><time>2026-04-21T11:11:20.001Z</time></trkpt><trkpt lat="44.385262622535485" lon="8.634608474554046"><ele>29.0</ele><time>2026-04-21T11:11:21.001Z</time></trkpt><trkpt lat="44.385506264190326" lon="8.634748386336257"><ele>33.5</ele><time>2026-04-21T11:11:22.001Z</time></trkpt><trkpt lat="44.38574365209301" lon="8.634886052960876"><ele>38.0</ele><time>2026-04-21T11:11:23.001Z</time></trkpt><trkpt lat="44.385980451317074" lon="8.635027612091163"><ele>38.0</ele><time>2026-04-21T11:11:24.001Z</time></trkpt><trkpt lat="44.38621569508389" lon="8.635170499695466"><ele>38.0</ele><time>2026-04-21T11:11:25.001Z</time></trkpt><trkpt lat="44.38645474363876" lon="8.635312645838969"><ele>36.0</ele><time>2026-04-21T11:11:26.001Z</time></trkpt><trkpt lat="44.38669594522056" lon="8.635452532187147"><ele>34.0</ele><time>2026-04-21T11:11:27.001Z</time></trkpt><trkpt lat="44.38693562482374" lon="8.63559615375346"><ele>34.0</ele><time>2026-04-21T11:11:28.001Z</time></trkpt><trkpt lat="44.387175801729995" lon="8.635743910029445"><ele>34.0</ele><time>2026-04-21T11:11:29.001Z</time></trkpt><trkpt lat="44.387413229193406" lon="8.635889312229999"><ele>33.0</ele><time>2026-04-21T11:11:30.001Z</time></trkpt><trkpt lat="44.38765043352704" lon="8.636038431747457"><ele>32.0</ele><time>2026-04-21T11:11:31.001Z</time></trkpt><trkpt lat="44.387877699627005" lon="8.636183330027109"><ele>28.5</ele><time>2026-04-21T11:11:32.001Z</time></trkpt><trkpt lat="44.388103161794795" lon="8.63633278316562"><ele>25.0</ele><time>2026-04-21T11:11:33.001Z</time></trkpt><trkpt lat="44.38832932500817" lon="8.636491542810253"><ele>25.0</ele><time>2026-04-21T11:11:34.001Z</time></trkpt><trkpt lat="44.388552261464596" lon="8.636664253293542"><ele>25.0</ele><time>2026-04-21T11:11:35.001Z</time></trkpt><trkpt lat="44.38877443675288" lon="8.636847991845451"><ele>22.5</ele><time>2026-04-21T11:11:36.001Z</time></trkpt><trkpt lat="44.38899027299212" lon="8.637033263137731"><ele>20.0</ele><time>2026-04-21T11:11:37.001Z</time></trkpt><trkpt lat="44.38920446174562" lon="8.637217949110811"><ele>20.0</ele><time>2026-04-21T11:11:38.001Z</time></trkpt><trkpt lat="44.3894098643201" lon="8.637400135052475"><ele>20.0</ele><time>2026-04-21T11:11:39.001Z</time></trkpt><trkpt lat="44.389601640506605" lon="8.637567409843218"><ele>32.333333333333336</ele><time>2026-04-21T11:11:40.001Z</time></trkpt><trkpt lat="44.38978425860187" lon="8.63774478149724"><ele>44.666666666666664</ele><time>2026-04-21T11:11:41.001Z</time></trkpt><trkpt lat="44.38995438633655" lon="8.63794509355925"><ele>57.0</ele><time>2026-04-21T11:11:42.001Z</time></trkpt><trkpt lat="44.39011165688057" lon="8.638166242436226"><ele>57.0</ele><time>2026-04-21T11:11:43.001Z</time></trkpt><trkpt lat="44.39026272990735" lon="8.63838997084048"><ele>57.0</ele><time>2026-04-21T11:11:44.001Z</time></trkpt><trkpt lat="44.39041321525399" lon="8.63860837804455"><ele>57.0</ele><time>2026-04-21T11:11:45.001Z</time></trkpt><trkpt lat="44.390569670597884" lon="8.638819377234137"><ele>54.5</ele><time>2026-04-21T11:11:46.001Z</time></trkpt><trkpt lat="44.39072947817455" lon="8.639023360385275"><ele>52.0</ele><time>2026-04-21T11:11:47.001Z</time></trkpt><trkpt lat="44.39089790053819" lon="8.639275639460049"><ele>42.5</ele><time>2026-04-21T11:11:48.001Z</time></trkpt><trkpt lat="44.39102500803362" lon="8.639606026254008"><ele>33.0</ele><time>2026-04-21T11:11:49.001Z</time></trkpt><trkpt lat="44.3911777604874" lon="8.639938512251016"><ele>33.0</ele><time>2026-04-21T11:11:50.001Z</time></trkpt><trkpt lat="44.39133781218368" lon="8.640239045282025"><ele>33.0</ele><time>2026-04-21T11:11:51.001Z</time></trkpt><trkpt lat="44.39148614783204" lon="8.640483999206081"><ele>36.5</ele><time>2026-04-21T11:11:52.001Z</time></trkpt><trkpt lat="44.391633508831916" lon="8.64073112623777"><ele>40.0</ele><time>2026-04-21T11:11:53.001Z</time></trkpt><trkpt lat="44.39178045677993" lon="8.64098595642887"><ele>44.0</ele><time>2026-04-21T11:11:54.001Z</time></trkpt><trkpt lat="44.39192674872816" lon="8.641228529931546"><ele>48.0</ele><time>2026-04-21T11:11:55.001Z</time></trkpt><trkpt lat="44.392056794238684" lon="8.641459047276893"><ele>52.0</ele><time>2026-04-21T11:11:56.001Z</time></trkpt><trkpt lat="44.39217496945562" lon="8.641671201679058"><ele>52.0</ele><time>2026-04-21T11:11:57.001Z</time></trkpt><trkpt lat="44.39227611815015" lon="8.641882046139951"><ele>52.0</ele><time>2026-04-21T11:11:58.001Z</time></trkpt><trkpt lat="44.39234906943329" lon="8.642094637529272"><ele>52.0</ele><time>2026-04-21T11:11:59.001Z</time></trkpt><trkpt lat="44.39239126986488" lon="8.642325799030699"><ele>52.0</ele><time>2026-04-21T11:12:00.001Z</time></trkpt><trkpt lat="44.39242083749233" lon="8.642577585976444"><ele>52.0</ele><time>2026-04-21T11:12:01.001Z</time></trkpt><trkpt lat="44.39242266180028" lon="8.642839716430244"><ele>52.0</ele><time>2026-04-21T11:12:02.001Z</time></trkpt><trkpt lat="44.39240012579858" lon="8.643099431115823"><ele>52.0</ele><time>2026-04-21T11:12:03.001Z</time></trkpt><trkpt lat="44.392341528123154" lon="8.643363584059792"><ele>52.0</ele><time>2026-04-21T11:12:04.001Z</time></trkpt><trkpt lat="44.392264324589576" lon="8.643637716408547"><ele>52.0</ele><time>2026-04-21T11:12:05.001Z</time></trkpt><trkpt lat="44.392177822550956" lon="8.643923468494602"><ele>39.5</ele><time>2026-04-21T11:12:06.001Z</time></trkpt><trkpt lat="44.39209328702541" lon="8.644216316988686"><ele>27.0</ele><time>2026-04-21T11:12:07Z</time></trkpt><trkpt lat="44.39201303331618" lon="8.64451938266044"><ele>26.5</ele><time>2026-04-21T11:12:08Z</time></trkpt><trkpt lat="44.39193344070765" lon="8.64482952898248"><ele>26.0</ele><time>2026-04-21T11:12:09Z</time></trkpt><trkpt lat="44.3918551036116" lon="8.645145050622446"><ele>33.0</ele><time>2026-04-21T11:12:10Z</time></trkpt><trkpt lat="44.391776441253924" lon="8.64545943604929"><ele>40.0</ele><time>2026-04-21T11:12:11Z</time></trkpt><trkpt lat="44.39170117049888" lon="8.645755435218842"><ele>40.0</ele><time>2026-04-21T11:12:12Z</time></trkpt><trkpt lat="44.39162969159621" lon="8.646038079689115"><ele>40.0</ele><time>2026-04-21T11:12:13Z</time></trkpt><trkpt lat="44.39156878920554" lon="8.646308738380846"><ele>40.0</ele><time>2026-04-21T11:12:14Z</time></trkpt><trkpt lat="44.39152644179902" lon="8.64656748980558"><ele>41.66666666666667</ele><time>2026-04-21T11:12:15Z</time></trkpt><trkpt lat="44.39150497157966" lon="8.646828679953884"><ele>43.333333333333336</ele><time>2026-04-21T11:12:16Z</time></trkpt><trkpt lat="44.391498377919845" lon="8.64708864365613"><ele>45.0</ele><time>2026-04-21T11:12:17Z</time></trkpt><trkpt lat="44.391504886511264" lon="8.647354333446227"><ele>45.0</ele><time>2026-04-21T11:12:18Z</time></trkpt><trkpt lat="44.391529613759644" lon="8.647634585273357"><ele>45.0</ele><time>2026-04-21T11:12:19Z</time></trkpt><trkpt lat="44.39156278224011" lon="8.647921191531955"><ele>45.0</ele><time>2026-04-21T11:12:20Z</time></trkpt><trkpt lat="44.39160187265539" lon="8.648212623407721"><ele>45.0</ele><time>2026-04-21T11:12:21Z</time></trkpt><trkpt lat="44.39165043105813" lon="8.64850145563972"><ele>45.0</ele><time>2026-04-21T11:12:22Z</time></trkpt><trkpt lat="44.39170258020241" lon="8.648802857269407"><ele>45.0</ele><time>2026-04-21T11:12:23Z</time></trkpt><trkpt lat="44.39175266068678" lon="8.649114379671865"><ele>44.5</ele><time>2026-04-21T11:12:24Z</time></trkpt><trkpt lat="44.39179834125631" lon="8.649434952169678"><ele>44.0</ele><time>2026-04-21T11:12:25Z</time></trkpt><trkpt lat="44.39184255448371" lon="8.649764219382815"><ele>39.5</ele><time>2026-04-21T11:12:26Z</time></trkpt><trkpt lat="44.39188615224229" lon="8.650099824059888"><ele>35.0</ele><time>2026-04-21T11:12:27Z</time></trkpt><trkpt lat="44.39192943269588" lon="8.650433383451887"><ele>34.5</ele><time>2026-04-21T11:12:28Z</time></trkpt><trkpt lat="44.39197514274336" lon="8.650768084689467"><ele>34.0</ele><time>2026-04-21T11:12:29Z</time></trkpt><trkpt lat="44.39202140485073" lon="8.651110791555901"><ele>35.5</ele><time>2026-04-21T11:12:30Z</time></trkpt><trkpt lat="44.3920640807534" lon="8.651457501178422"><ele>37.0</ele><time>2026-04-21T11:12:31Z</time></trkpt><trkpt lat="44.39210717244749" lon="8.651805503205647"><ele>36.5</ele><time>2026-04-21T11:12:32Z</time></trkpt><trkpt lat="44.39214977185184" lon="8.652150918770298"><ele>36.0</ele><time>2026-04-21T11:12:33Z</time></trkpt><trkpt lat="44.39218714963753" lon="8.652491864855467"><ele>46.5</ele><time>2026-04-21T11:12:34Z</time></trkpt><trkpt lat="44.39221964198613" lon="8.652823463844246"><ele>57.0</ele><time>2026-04-21T11:12:35Z</time></trkpt><trkpt lat="44.3922589655363" lon="8.653146186218075"><ele>57.0</ele><time>2026-04-21T11:12:36Z</time></trkpt><trkpt lat="44.39230979962668" lon="8.65345697953191"><ele>57.0</ele><time>2026-04-21T11:12:37Z</time></trkpt><trkpt lat="44.39237044826051" lon="8.653764558834212"><ele>53.5</ele><time>2026-04-21T11:12:38Z</time></trkpt><trkpt lat="44.39244896098777" lon="8.654069396675686"><ele>50.0</ele><time>2026-04-21T11:12:39Z</time></trkpt><trkpt lat="44.392541489354834" lon="8.654369983227568"><ele>47.0</ele><time>2026-04-21T11:12:40Z</time></trkpt><trkpt lat="44.392649650648764" lon="8.654661504120284"><ele>44.0</ele><time>2026-04-21T11:12:41Z</time></trkpt><trkpt lat="44.39276680556629" lon="8.65493913132849"><ele>44.0</ele><time>2026-04-21T11:12:42Z</time></trkpt><trkpt lat="44.392889825528485" lon="8.655214144676389"><ele>44.0</ele><time>2026-04-21T11:12:43Z</time></trkpt><trkpt lat="44.39302219983019" lon="8.655483207601623"><ele>49.0</ele><time>2026-04-21T11:12:44Z</time></trkpt><trkpt lat="44.393169763945316" lon="8.655737193536783"><ele>54.0</ele><time>2026-04-21T11:12:45Z</time></trkpt><trkpt lat="44.39333350034016" lon="8.655985159323475"><ele>60.5</ele><time>2026-04-21T11:12:46Z</time></trkpt><trkpt lat="44.39351166613003" lon="8.656226409060771"><ele>67.0</ele><time>2026-04-21T11:12:47Z</time></trkpt><trkpt lat="44.393697430155626" lon="8.656466314198328"><ele>71.0</ele><time>2026-04-21T11:12:48Z</time></trkpt><trkpt lat="44.393884154742864" lon="8.656714294431257"><ele>75.0</ele><time>2026-04-21T11:12:49Z</time></trkpt><trkpt lat="44.39407774279017" lon="8.656969118385161"><ele>84.5</ele><time>2026-04-21T11:12:50Z</time></trkpt><trkpt lat="44.39427171770548" lon="8.657217786054693"><ele>94.0</ele><time>2026-04-21T11:12:51Z</time></trkpt><trkpt lat="44.394465892798124" lon="8.657463947295716"><ele>94.0</ele><time>2026-04-21T11:12:52Z</time></trkpt><trkpt lat="44.394659544281225" lon="8.657711453821344"><ele>94.0</ele><time>2026-04-21T11:12:53Z</time></trkpt><trkpt lat="44.394854891989716" lon="8.657961379406606"><ele>99.0</ele><time>2026-04-21T11:12:54Z</time></trkpt><trkpt lat="44.39506447742433" lon="8.658225835817989"><ele>104.0</ele><time>2026-04-21T11:12:55.061Z</time></trkpt><trkpt lat="44.39626223701552" lon="8.66005917130029"><ele>66.0</ele><time>2026-04-21T11:13:02Z</time></trkpt><trkpt lat="44.39644865909652" lon="8.660307912569598"><ele>28.0</ele><time>2026-04-21T11:13:03Z</time></trkpt><trkpt lat="44.396659083436866" lon="8.660563152520627"><ele>28.0</ele><time>2026-04-21T11:13:04Z</time></trkpt><trkpt lat="44.396840391634186" lon="8.660822306547972"><ele>28.0</ele><time>2026-04-21T11:13:05Z</time></trkpt><trkpt lat="44.39701263233095" lon="8.661082937075829"><ele>32.0</ele><time>2026-04-21T11:13:06Z</time></trkpt><trkpt lat="44.397199148360066" lon="8.661311025592566"><ele>36.0</ele><time>2026-04-21T11:13:07Z</time></trkpt><trkpt lat="44.39738718450355" lon="8.661551695788344"><ele>36.0</ele><time>2026-04-21T11:13:08Z</time></trkpt><trkpt lat="44.39757446855814" lon="8.66180727623273"><ele>36.0</ele><time>2026-04-21T11:13:09Z</time></trkpt><trkpt lat="44.397755088520434" lon="8.662060341448164"><ele>41.5</ele><time>2026-04-21T11:13:10Z</time></trkpt><trkpt lat="44.39793583018192" lon="8.662318949378022"><ele>47.0</ele><time>2026-04-21T11:13:11Z</time></trkpt><trkpt lat="44.39812161624682" lon="8.662571631395473"><ele>60.0</ele><time>2026-04-21T11:13:12Z</time></trkpt><trkpt lat="44.39830348021868" lon="8.662822858975423"><ele>73.0</ele><time>2026-04-21T11:13:13Z</time></trkpt><trkpt lat="44.39849012204765" lon="8.663078572467407"><ele>73.0</ele><time>2026-04-21T11:13:14Z</time></trkpt><trkpt lat="44.39867856521444" lon="8.663341283369821"><ele>73.0</ele><time>2026-04-21T11:13:15Z</time></trkpt><trkpt lat="44.39886824962449" lon="8.663614108436695"><ele>78.0</ele><time>2026-04-21T11:13:16Z</time></trkpt><trkpt lat="44.399052253622685" lon="8.663887653637968"><ele>83.0</ele><time>2026-04-21T11:13:17Z</time></trkpt><trkpt lat="44.39923269758388" lon="8.664152909146171"><ele>83.0</ele><time>2026-04-21T11:13:18Z</time></trkpt><trkpt lat="44.3994188450778" lon="8.664422520288484"><ele>83.0</ele><time>2026-04-21T11:13:19Z</time></trkpt><trkpt lat="44.39960319073023" lon="8.664693927335252"><ele>74.0</ele><time>2026-04-21T11:13:20Z</time></trkpt><trkpt lat="44.39978652810494" lon="8.664967111894837"><ele>65.0</ele><time>2026-04-21T11:13:21Z</time></trkpt><trkpt lat="44.39997432184925" lon="8.665152162654943"><ele>64.0</ele><time>2026-04-21T11:13:22Z</time></trkpt><trkpt lat="44.400134986835624" lon="8.66543803511176"><ele>63.0</ele><time>2026-04-21T11:13:23Z</time></trkpt><trkpt lat="44.40031561269802" lon="8.665684362247497"><ele>62.5</ele><time>2026-04-21T11:13:24Z</time></trkpt><trkpt lat="44.40050421360715" lon="8.665927129270946"><ele>62.0</ele><time>2026-04-21T11:13:25Z</time></trkpt><trkpt lat="44.40069243853565" lon="8.666175927899294"><ele>60.5</ele><time>2026-04-21T11:13:26Z</time></trkpt><trkpt lat="44.40087724166844" lon="8.666420271949235"><ele>59.0</ele><time>2026-04-21T11:13:27.001Z</time></trkpt><trkpt lat="44.40106639407364" lon="8.666662333629072"><ele>59.0</ele><time>2026-04-21T11:13:28.001Z</time></trkpt><trkpt lat="44.40125814904714" lon="8.666908206962704"><ele>59.0</ele><time>2026-04-21T11:13:29.001Z</time></trkpt><trkpt lat="44.4014505584311" lon="8.667157471325439"><ele>60.0</ele><time>2026-04-21T11:13:30.001Z</time></trkpt><trkpt lat="44.40164386027643" lon="8.667410088916006"><ele>61.0</ele><time>2026-04-21T11:13:31.001Z</time></trkpt><trkpt lat="44.401836377296895" lon="8.667668405074252"><ele>61.5</ele><time>2026-04-21T11:13:32.001Z</time></trkpt><trkpt lat="44.4020271767562" lon="8.66792639604946"><ele>62.0</ele><time>2026-04-21T11:13:33.001Z</time></trkpt><trkpt lat="44.40220441922315" lon="8.668173268818716"><ele>61.0</ele><time>2026-04-21T11:13:34.001Z</time></trkpt><trkpt lat="44.40238970213529" lon="8.668427849976485"><ele>60.0</ele><time>2026-04-21T11:13:35.001Z</time></trkpt><trkpt lat="44.40256969433752" lon="8.668681390976317"><ele>58.0</ele><time>2026-04-21T11:13:36.001Z</time></trkpt><trkpt lat="44.40274331735823" lon="8.668942081556832"><ele>56.0</ele><time>2026-04-21T11:13:37.001Z</time></trkpt><trkpt lat="44.40290783518708" lon="8.669207396599298"><ele>58.5</ele><time>2026-04-21T11:13:38.001Z</time></trkpt><trkpt lat="44.40306567168786" lon="8.669484369946494"><ele>61.0</ele><time>2026-04-21T11:13:39.001Z</time></trkpt><trkpt lat="44.403218437304886" lon="8.669768444091474"><ele>61.0</ele><time>2026-04-21T11:13:40.001Z</time></trkpt><trkpt lat="44.40336649137647" lon="8.670065152193983"><ele>61.0</ele><time>2026-04-21T11:13:41.001Z</time></trkpt><trkpt lat="44.403508835760356" lon="8.670374043778164"><ele>57.5</ele><time>2026-04-21T11:13:42.001Z</time></trkpt><trkpt lat="44.40364268334267" lon="8.670692279151938"><ele>54.0</ele><time>2026-04-21T11:13:43.001Z</time></trkpt><trkpt lat="44.40376849432485" lon="8.670995339559616"><ele>52.5</ele><time>2026-04-21T11:13:44.001Z</time></trkpt><trkpt lat="44.403897076483176" lon="8.671329025760928"><ele>51.0</ele><time>2026-04-21T11:13:45.001Z</time></trkpt><trkpt lat="44.40403324402556" lon="8.671641588672673"><ele>52.0</ele><time>2026-04-21T11:13:46.001Z</time></trkpt><trkpt lat="44.40414876106131" lon="8.671969327609004"><ele>53.0</ele><time>2026-04-21T11:13:47.001Z</time></trkpt><trkpt lat="44.40426752555713" lon="8.672295314514702"><ele>53.0</ele><time>2026-04-21T11:13:48.001Z</time></trkpt><trkpt lat="44.40438637858604" lon="8.672618365578568"><ele>53.0</ele><time>2026-04-21T11:13:49.001Z</time></trkpt><trkpt lat="44.40451026040188" lon="8.672940631347176"><ele>53.0</ele><time>2026-04-21T11:13:50.001Z</time></trkpt><trkpt lat="44.404641035057104" lon="8.673259028951021"><ele>53.0</ele><time>2026-04-21T11:13:51.001Z</time></trkpt><trkpt lat="44.40477169746006" lon="8.673568589591326"><ele>52.5</ele><time>2026-04-21T11:13:52.001Z</time></trkpt><trkpt lat="44.404906593362284" lon="8.673877681640139"><ele>52.0</ele><time>2026-04-21T11:13:53.001Z</time></trkpt><trkpt lat="44.40504295669369" lon="8.674179392938132"><ele>51.0</ele><time>2026-04-21T11:13:54.001Z</time></trkpt><trkpt lat="44.40518014420551" lon="8.674479849084095"><ele>50.0</ele><time>2026-04-21T11:13:55.001Z</time></trkpt><trkpt lat="44.40532006756365" lon="8.674778655679841"><ele>50.0</ele><time>2026-04-21T11:13:56.001Z</time></trkpt><trkpt lat="44.40546264212279" lon="8.675080261330464"><ele>50.0</ele><time>2026-04-21T11:13:57.001Z</time></trkpt><trkpt lat="44.40560796740263" lon="8.675379817124242"><ele>56.0</ele><time>2026-04-21T11:13:58.001Z</time></trkpt><trkpt lat="44.405755865737184" lon="8.675677408815407"><ele>62.0</ele><time>2026-04-21T11:13:59.001Z</time></trkpt><trkpt lat="44.405904156717575" lon="8.675975916594698"><ele>56.0</ele><time>2026-04-21T11:14:00.001Z</time></trkpt><trkpt lat="44.40604937038436" lon="8.676274415101862"><ele>50.0</ele><time>2026-04-21T11:14:01.001Z</time></trkpt><trkpt lat="44.40619309992098" lon="8.676570754271763"><ele>53.0</ele><time>2026-04-21T11:14:02.001Z</time></trkpt><trkpt lat="44.40633761835721" lon="8.67686705743694"><ele>56.0</ele><time>2026-04-21T11:14:03.001Z</time></trkpt><trkpt lat="44.406482246987814" lon="8.677167218234397"><ele>56.0</ele><time>2026-04-21T11:14:04.001Z</time></trkpt><trkpt lat="44.406620562331206" lon="8.677472675405653"><ele>56.0</ele><time>2026-04-21T11:14:05.001Z</time></trkpt><trkpt lat="44.406756786010675" lon="8.677784226963405"><ele>52.5</ele><time>2026-04-21T11:14:06.001Z</time></trkpt><trkpt lat="44.40688096273583" lon="8.67810206112759"><ele>49.0</ele><time>2026-04-21T11:14:07.001Z</time></trkpt><trkpt lat="44.40700541567067" lon="8.678421182865735"><ele>52.0</ele><time>2026-04-21T11:14:08.001Z</time></trkpt><trkpt lat="44.407130468580824" lon="8.67873079554746"><ele>55.0</ele><time>2026-04-21T11:14:09.001Z</time></trkpt><trkpt lat="44.40725514148595" lon="8.679040312291034"><ele>69.5</ele><time>2026-04-21T11:14:10.001Z</time></trkpt><trkpt lat="44.40737965344176" lon="8.679350440899572"><ele>84.0</ele><time>2026-04-21T11:14:11.001Z</time></trkpt><trkpt lat="44.40749923423139" lon="8.679656114136641"><ele>84.0</ele><time>2026-04-21T11:14:12.001Z</time></trkpt><trkpt lat="44.40762166131564" lon="8.6799612821027"><ele>84.0</ele><time>2026-04-21T11:14:13Z</time></trkpt><trkpt lat="44.407747173893085" lon="8.680269200315605"><ele>83.0</ele><time>2026-04-21T11:14:14Z</time></trkpt><trkpt lat="44.40787471066373" lon="8.680577635245848"><ele>82.0</ele><time>2026-04-21T11:14:15Z</time></trkpt><trkpt lat="44.40800061450813" lon="8.680866219055034"><ele>78.0</ele><time>2026-04-21T11:14:16Z</time></trkpt><trkpt lat="44.40813086496831" lon="8.681173503015998"><ele>74.0</ele><time>2026-04-21T11:14:17Z</time></trkpt><trkpt lat="44.40825637089607" lon="8.681471697089522"><ele>74.0</ele><time>2026-04-21T11:14:18Z</time></trkpt><trkpt lat="44.40833439675694" lon="8.68177939919761"><ele>74.0</ele><time>2026-04-21T11:14:19Z</time></trkpt><trkpt lat="44.408404645418706" lon="8.682087886779868"><ele>68.5</ele><time>2026-04-21T11:14:20Z</time></trkpt><trkpt lat="44.408480414435864" lon="8.682410329540897"><ele>63.0</ele><time>2026-04-21T11:14:21Z</time></trkpt><trkpt lat="44.40854722000858" lon="8.682743242993004"><ele>57.0</ele><time>2026-04-21T11:14:22Z</time></trkpt><trkpt lat="44.408614120717715" lon="8.683078340252584"><ele>51.0</ele><time>2026-04-21T11:14:23Z</time></trkpt><trkpt lat="44.40868911949239" lon="8.683412930298305"><ele>45.0</ele><time>2026-04-21T11:14:24Z</time></trkpt><trkpt lat="44.40876397945211" lon="8.683752323690449"><ele>39.0</ele><time>2026-04-21T11:14:25Z</time></trkpt><trkpt lat="44.40883701969557" lon="8.68409412037064"><ele>52.5</ele><time>2026-04-21T11:14:26Z</time></trkpt><trkpt lat="44.40890635006706" lon="8.68443637333503"><ele>66.0</ele><time>2026-04-21T11:14:27Z</time></trkpt><trkpt lat="44.40897952215098" lon="8.68477690900715"><ele>66.0</ele><time>2026-04-21T11:14:28Z</time></trkpt><trkpt lat="44.40905234409479" lon="8.685119844031664"><ele>66.0</ele><time>2026-04-21T11:14:29Z</time></trkpt><trkpt lat="44.40912315085646" lon="8.685465269636564"><ele>70.5</ele><time>2026-04-21T11:14:30Z</time></trkpt><trkpt lat="44.4091934077174" lon="8.685813450605902"><ele>75.0</ele><time>2026-04-21T11:14:31Z</time></trkpt><trkpt lat="44.40926456470529" lon="8.686157892899615"><ele>75.0</ele><time>2026-04-21T11:14:32Z</time></trkpt><trkpt lat="44.40933690826525" lon="8.686501606933287"><ele>75.0</ele><time>2026-04-21T11:14:33Z</time></trkpt><trkpt lat="44.409408118133804" lon="8.686840867650655"><ele>71.0</ele><time>2026-04-21T11:14:34Z</time></trkpt><trkpt lat="44.409478752028065" lon="8.687176931970564"><ele>67.0</ele><time>2026-04-21T11:14:35Z</time></trkpt><trkpt lat="44.40954945532317" lon="8.687512214351521"><ele>67.0</ele><time>2026-04-21T11:14:36Z</time></trkpt><trkpt lat="44.40961824380067" lon="8.687843949578586"><ele>67.0</ele><time>2026-04-21T11:14:37Z</time></trkpt><trkpt lat="44.40968504038732" lon="8.68817027867863"><ele>72.0</ele><time>2026-04-21T11:14:38Z</time></trkpt><trkpt lat="44.40975241250099" lon="8.688494794586402"><ele>77.0</ele><time>2026-04-21T11:14:39Z</time></trkpt><trkpt lat="44.40981967546861" lon="8.688815840828905"><ele>77.0</ele><time>2026-04-21T11:14:40Z</time></trkpt><trkpt lat="44.4098895440182" lon="8.689137056779185"><ele>77.0</ele><time>2026-04-21T11:14:41Z</time></trkpt><trkpt lat="44.40995878465572" lon="8.689460675415983"><ele>75.5</ele><time>2026-04-21T11:14:42Z</time></trkpt><trkpt lat="44.41002679409128" lon="8.689785823135155"><ele>74.0</ele><time>2026-04-21T11:14:43Z</time></trkpt><trkpt lat="44.41009844633633" lon="8.690111801166362"><ele>73.5</ele><time>2026-04-21T11:14:44Z</time></trkpt><trkpt lat="44.410169262061586" lon="8.690437064716223"><ele>73.0</ele><time>2026-04-21T11:14:45Z</time></trkpt><trkpt lat="44.41023927970509" lon="8.690764189895226"><ele>81.5</ele><time>2026-04-21T11:14:46Z</time></trkpt><trkpt lat="44.410306401637335" lon="8.691091904013755"><ele>90.0</ele><time>2026-04-21T11:14:47Z</time></trkpt><trkpt lat="44.41037312559437" lon="8.69142208315803"><ele>90.0</ele><time>2026-04-21T11:14:48Z</time></trkpt><trkpt lat="44.41044312476768" lon="8.691751785936383"><ele>90.0</ele><time>2026-04-21T11:14:49Z</time></trkpt><trkpt lat="44.410521912478366" lon="8.692084363083437"><ele>98.0</ele><time>2026-04-21T11:14:50Z</time></trkpt><trkpt lat="44.41060381357683" lon="8.692413110041727"><ele>106.0</ele><time>2026-04-21T11:14:51Z</time></trkpt><trkpt lat="44.410690515572234" lon="8.692731964574541"><ele>103.0</ele><time>2026-04-21T11:14:52Z</time></trkpt><trkpt lat="44.410781661263584" lon="8.693048104732219"><ele>100.0</ele><time>2026-04-21T11:14:53Z</time></trkpt><trkpt lat="44.41087330736691" lon="8.69336108195636"><ele>94.5</ele><time>2026-04-21T11:14:54Z</time></trkpt><trkpt lat="44.41097107807354" lon="8.69367527917234"><ele>89.0</ele><time>2026-04-21T11:14:55Z</time></trkpt><trkpt lat="44.41105318240043" lon="8.69399147490608"><ele>89.0</ele><time>2026-04-21T11:14:56Z</time></trkpt><trkpt lat="44.41113225254663" lon="8.694321831502783"><ele>89.0</ele><time>2026-04-21T11:14:57Z</time></trkpt><trkpt lat="44.41114360309798" lon="8.694640621872763"><ele>85.5</ele><time>2026-04-21T11:14:58Z</time></trkpt><trkpt lat="44.41121843984318" lon="8.694956358645033"><ele>82.0</ele><time>2026-04-21T11:14:59Z</time></trkpt><trkpt lat="44.41129765492036" lon="8.695275132508769"><ele>90.5</ele><time>2026-04-21T11:15:00Z</time></trkpt><trkpt lat="44.41137884776633" lon="8.695594941510683"><ele>99.0</ele><time>2026-04-21T11:15:01Z</time></trkpt><trkpt lat="44.41146048685904" lon="8.695916023165118"><ele>94.0</ele><time>2026-04-21T11:15:02Z</time></trkpt><trkpt lat="44.41154203751209" lon="8.696241654472942"><ele>89.0</ele><time>2026-04-21T11:15:03Z</time></trkpt><trkpt lat="44.41162668640841" lon="8.696571404600878"><ele>89.0</ele><time>2026-04-21T11:15:04Z</time></trkpt><trkpt lat="44.4117145290706" lon="8.696897795749173"><ele>89.0</ele><time>2026-04-21T11:15:05Z</time></trkpt><trkpt lat="44.411802726489626" lon="8.697225431964977"><ele>88.0</ele><time>2026-04-21T11:15:06Z</time></trkpt><trkpt lat="44.41188811959674" lon="8.697554844301383"><ele>87.0</ele><time>2026-04-21T11:15:07Z</time></trkpt><trkpt lat="44.411971597875585" lon="8.697888148315592"><ele>87.0</ele><time>2026-04-21T11:15:08Z</time></trkpt><trkpt lat="44.412054672493696" lon="8.698219071297153"><ele>87.0</ele><time>2026-04-21T11:15:09Z</time></trkpt><trkpt lat="44.41213996400332" lon="8.698550375013141"><ele>92.5</ele><time>2026-04-21T11:15:10Z</time></trkpt><trkpt lat="44.41222596954931" lon="8.698883150198483"><ele>98.0</ele><time>2026-04-21T11:15:11Z</time></trkpt><trkpt lat="44.41230826101801" lon="8.69921355168099"><ele>85.0</ele><time>2026-04-21T11:15:12Z</time></trkpt><trkpt lat="44.41239062866514" lon="8.69953738843229"><ele>72.0</ele><time>2026-04-21T11:15:13Z</time></trkpt><trkpt lat="44.41247231786857" lon="8.699863478133135"><ele>72.0</ele><time>2026-04-21T11:15:14Z</time></trkpt><trkpt lat="44.41255067703062" lon="8.700175306131099"><ele>72.0</ele><time>2026-04-21T11:15:15Z</time></trkpt><trkpt lat="44.41262551602689" lon="8.7004817254984"><ele>68.33333333333333</ele><time>2026-04-21T11:15:16Z</time></trkpt><trkpt lat="44.41270149987634" lon="8.700767506012275"><ele>64.66666666666666</ele><time>2026-04-21T11:15:17Z</time></trkpt><trkpt lat="44.41277275923182" lon="8.701028077147209"><ele>61.0</ele><time>2026-04-21T11:15:18Z</time></trkpt><trkpt lat="44.412846263017435" lon="8.701264451585946"><ele>59.0</ele><time>2026-04-21T11:15:19Z</time></trkpt><trkpt lat="44.41293396450921" lon="8.701467758588992"><ele>57.0</ele><time>2026-04-21T11:15:20Z</time></trkpt><trkpt lat="44.413048272905414" lon="8.70164686860257"><ele>55.0</ele><time>2026-04-21T11:15:21Z</time></trkpt><trkpt lat="44.41318592070905" lon="8.701811204607427"><ele>59.33333333333333</ele><time>2026-04-21T11:15:22Z</time></trkpt><trkpt lat="44.41334177620353" lon="8.701962120236912"><ele>63.66666666666667</ele><time>2026-04-21T11:15:23Z</time></trkpt><trkpt lat="44.41351058963723" lon="8.702092944646981"><ele>68.0</ele><time>2026-04-21T11:15:24Z</time></trkpt><trkpt lat="44.413698894127194" lon="8.702199929326424"><ele>75.0</ele><time>2026-04-21T11:15:25Z</time></trkpt><trkpt lat="44.413895160756276" lon="8.702303074230691"><ele>82.0</ele><time>2026-04-21T11:15:26Z</time></trkpt><trkpt lat="44.41409545669386" lon="8.702413408192836"><ele>89.0</ele><time>2026-04-21T11:15:27Z</time></trkpt><trkpt lat="44.41429685798246" lon="8.702532170127087"><ele>89.0</ele><time>2026-04-21T11:15:28Z</time></trkpt><trkpt lat="44.41449876790205" lon="8.702656183443986"><ele>89.0</ele><time>2026-04-21T11:15:29Z</time></trkpt><trkpt lat="44.41470001370745" lon="8.702772020882692"><ele>89.0</ele><time>2026-04-21T11:15:30Z</time></trkpt><trkpt lat="44.41488005441131" lon="8.702875180451557"><ele>84.33333333333334</ele><time>2026-04-21T11:15:31Z</time></trkpt><trkpt lat="44.41504335155267" lon="8.702972058478203"><ele>79.66666666666667</ele><time>2026-04-21T11:15:32.001Z</time></trkpt><trkpt lat="44.41519176348368" lon="8.703078155359423"><ele>75.0</ele><time>2026-04-21T11:15:33.001Z</time></trkpt><trkpt lat="44.41532823646867" lon="8.703214842580739"><ele>75.0</ele><time>2026-04-21T11:15:34.001Z</time></trkpt><trkpt lat="44.415454088818706" lon="8.70339511005995"><ele>75.0</ele><time>2026-04-21T11:15:35.001Z</time></trkpt><trkpt lat="44.41556672928627" lon="8.703603498446231"><ele>75.0</ele><time>2026-04-21T11:15:36.001Z</time></trkpt><trkpt lat="44.415663301226175" lon="8.703836222981618"><ele>74.0</ele><time>2026-04-21T11:15:37.001Z</time></trkpt><trkpt lat="44.41573777947715" lon="8.704095679019343"><ele>73.0</ele><time>2026-04-21T11:15:38.001Z</time></trkpt><trkpt lat="44.41578995923002" lon="8.704376494473927"><ele>72.0</ele><time>2026-04-21T11:15:39.001Z</time></trkpt><trkpt lat="44.41583944419644" lon="8.704665841666852"><ele>72.0</ele><time>2026-04-21T11:15:40.001Z</time></trkpt><trkpt lat="44.41589861816632" lon="8.704962947959872"><ele>72.0</ele><time>2026-04-21T11:15:41.001Z</time></trkpt><trkpt lat="44.41596064140906" lon="8.705267041374785"><ele>72.0</ele><time>2026-04-21T11:15:42.001Z</time></trkpt><trkpt lat="44.416019528836394" lon="8.705582004161082"><ele>72.0</ele><time>2026-04-21T11:15:43.001Z</time></trkpt><trkpt lat="44.416078077576664" lon="8.70590688380748"><ele>72.0</ele><time>2026-04-21T11:15:44.001Z</time></trkpt><trkpt lat="44.41612976863704" lon="8.706230984829386"><ele>79.0</ele><time>2026-04-21T11:15:45.001Z</time></trkpt><trkpt lat="44.41618310063238" lon="8.70655135957045"><ele>86.0</ele><time>2026-04-21T11:15:46.001Z</time></trkpt><trkpt lat="44.416243442038144" lon="8.706864387804472"><ele>84.5</ele><time>2026-04-21T11:15:47.001Z</time></trkpt><trkpt lat="44.41631251910749" lon="8.70717436807028"><ele>83.0</ele><time>2026-04-21T11:15:48.001Z</time></trkpt><trkpt lat="44.41639483525292" lon="8.707471740992368"><ele>90.5</ele><time>2026-04-21T11:15:49.001Z</time></trkpt><trkpt lat="44.41649450384396" lon="8.707755828497524"><ele>98.0</ele><time>2026-04-21T11:15:50.001Z</time></trkpt><trkpt lat="44.41661069069555" lon="8.708027819813754"><ele>98.0</ele><time>2026-04-21T11:15:51.001Z</time></trkpt><trkpt lat="44.41673998881657" lon="8.70829728652867"><ele>98.0</ele><time>2026-04-21T11:15:52.001Z</time></trkpt><trkpt lat="44.416866702570836" lon="8.708573588099963"><ele>91.0</ele><time>2026-04-21T11:15:53.001Z</time></trkpt><trkpt lat="44.41699157363177" lon="8.70885746405598"><ele>84.0</ele><time>2026-04-21T11:15:54.001Z</time></trkpt><trkpt lat="44.41712062963229" lon="8.70914387408505"><ele>95.5</ele><time>2026-04-21T11:15:55.001Z</time></trkpt><trkpt lat="44.41725127072048" lon="8.709432700074112"><ele>107.0</ele><time>2026-04-21T11:15:56.001Z</time></trkpt><trkpt lat="44.41737694407067" lon="8.709726123831722"><ele>107.0</ele><time>2026-04-21T11:15:57.001Z</time></trkpt><trkpt lat="44.41750702367768" lon="8.710017817453041"><ele>107.0</ele><time>2026-04-21T11:15:58.001Z</time></trkpt><trkpt lat="44.417637646418775" lon="8.710310169544874"><ele>109.0</ele><time>2026-04-21T11:15:59.001Z</time></trkpt><trkpt lat="44.41776358462204" lon="8.710592598275804"><ele>111.0</ele><time>2026-04-21T11:16:00.001Z</time></trkpt><trkpt lat="44.417881042920456" lon="8.710860376786554"><ele>108.0</ele><time>2026-04-21T11:16:01.001Z</time></trkpt><trkpt lat="44.41800320391986" lon="8.711131733674193"><ele>105.0</ele><time>2026-04-21T11:16:02.001Z</time></trkpt><trkpt lat="44.418133714412576" lon="8.711410843255434"><ele>105.0</ele><time>2026-04-21T11:16:03.001Z</time></trkpt><trkpt lat="44.4182748592798" lon="8.711694719444626"><ele>105.0</ele><time>2026-04-21T11:16:04.001Z</time></trkpt><trkpt lat="44.41842385942974" lon="8.711970710402946"><ele>95.0</ele><time>2026-04-21T11:16:05.001Z</time></trkpt><trkpt lat="44.41857248121706" lon="8.712225609701866"><ele>85.0</ele><time>2026-04-21T11:16:06.001Z</time></trkpt><trkpt lat="44.41871348977436" lon="8.712475032805902"><ele>82.0</ele><time>2026-04-21T11:16:07.001Z</time></trkpt><trkpt lat="44.41884792381821" lon="8.712726008427287"><ele>79.0</ele><time>2026-04-21T11:16:08.001Z</time></trkpt><trkpt lat="44.418986659408006" lon="8.71298452848157"><ele>79.0</ele><time>2026-04-21T11:16:09.001Z</time></trkpt><trkpt lat="44.41912804349672" lon="8.713242674743816"><ele>79.0</ele><time>2026-04-21T11:16:10.001Z</time></trkpt><trkpt lat="44.41926596877983" lon="8.713493649693472"><ele>74.66666666666666</ele><time>2026-04-21T11:16:11.001Z</time></trkpt><trkpt lat="44.419392793818574" lon="8.713724234280287"><ele>70.33333333333333</ele><time>2026-04-21T11:16:12.001Z</time></trkpt><trkpt lat="44.41951193717485" lon="8.713941766640191"><ele>66.0</ele><time>2026-04-21T11:16:13.001Z</time></trkpt><trkpt lat="44.41961366145936" lon="8.714145925167397"><ele>72.0</ele><time>2026-04-21T11:16:14.001Z</time></trkpt><trkpt lat="44.419688764705235" lon="8.714351455879653"><ele>78.0</ele><time>2026-04-21T11:16:15.001Z</time></trkpt><trkpt lat="44.41974535453923" lon="8.714585597818365"><ele>84.0</ele><time>2026-04-21T11:16:16.001Z</time></trkpt><trkpt lat="44.41978170658742" lon="8.714834801608548"><ele>86.0</ele><time>2026-04-21T11:16:17.001Z</time></trkpt><trkpt lat="44.419791226030775" lon="8.715084062335126"><ele>88.0</ele><time>2026-04-21T11:16:18.001Z</time></trkpt><trkpt lat="44.41977719252879" lon="8.715341778447492"><ele>90.0</ele><time>2026-04-21T11:16:19Z</time></trkpt><trkpt lat="44.419736256877115" lon="8.715596790216402"><ele>90.0</ele><time>2026-04-21T11:16:20Z</time></trkpt><trkpt lat="44.41966659191109" lon="8.715848407240367"><ele>90.0</ele><time>2026-04-21T11:16:21Z</time></trkpt><trkpt lat="44.4195694657076" lon="8.716080928793398"><ele>90.0</ele><time>2026-04-21T11:16:22Z</time></trkpt><trkpt lat="44.419452345933124" lon="8.716293645542402"><ele>88.33333333333333</ele><time>2026-04-21T11:16:23Z</time></trkpt><trkpt lat="44.419319225683196" lon="8.71648271892268"><ele>86.66666666666666</ele><time>2026-04-21T11:16:24Z</time></trkpt><trkpt lat="44.41916233143814" lon="8.71664588641622"><ele>85.0</ele><time>2026-04-21T11:16:25Z</time></trkpt><trkpt lat="44.418982138525635" lon="8.716777454094697"><ele>83.66666666666666</ele><time>2026-04-21T11:16:26Z</time></trkpt><trkpt lat="44.418787806685046" lon="8.716887316501486"><ele>82.33333333333333</ele><time>2026-04-21T11:16:27Z</time></trkpt><trkpt lat="44.41858972441314" lon="8.71700015343938"><ele>81.0</ele><time>2026-04-21T11:16:28Z</time></trkpt><trkpt lat="44.418401304980236" lon="8.717121947114501"><ele>83.0</ele><time>2026-04-21T11:16:29Z</time></trkpt><trkpt lat="44.418230237434386" lon="8.717241152400925"><ele>85.0</ele><time>2026-04-21T11:16:30Z</time></trkpt><trkpt lat="44.418075246691394" lon="8.717374411748665"><ele>87.0</ele><time>2026-04-21T11:16:31Z</time></trkpt><trkpt lat="44.41793052184688" lon="8.717529361514105"><ele>87.0</ele><time>2026-04-21T11:16:32Z</time></trkpt><trkpt lat="44.41780183932137" lon="8.717705864267497"><ele>87.0</ele><time>2026-04-21T11:16:33Z</time></trkpt><trkpt lat="44.417690027130895" lon="8.717913211053133"><ele>87.0</ele><time>2026-04-21T11:16:34Z</time></trkpt><trkpt lat="44.41759601012793" lon="8.718135039712665"><ele>88.0</ele><time>2026-04-21T11:16:35Z</time></trkpt><trkpt lat="44.41753117610718" lon="8.718365889869128"><ele>89.0</ele><time>2026-04-21T11:16:36Z</time></trkpt><trkpt lat="44.417484764459395" lon="8.718617018237252"><ele>90.0</ele><time>2026-04-21T11:16:37Z</time></trkpt><trkpt lat="44.41746171487372" lon="8.71887824530561"><ele>89.66666666666667</ele><time>2026-04-21T11:16:38Z</time></trkpt><trkpt lat="44.417464410342205" lon="8.719144504160074"><ele>89.33333333333334</ele><time>2026-04-21T11:16:39Z</time></trkpt><trkpt lat="44.41748295887944" lon="8.71941654261604"><ele>89.0</ele><time>2026-04-21T11:16:40Z</time></trkpt><trkpt lat="44.417507453871515" lon="8.719688397466863"><ele>89.0</ele><time>2026-04-21T11:16:41Z</time></trkpt><trkpt lat="44.41753498290514" lon="8.71995803236779"><ele>89.0</ele><time>2026-04-21T11:16:42Z</time></trkpt><trkpt lat="44.41755673573992" lon="8.720204554282333"><ele>89.0</ele><time>2026-04-21T11:16:43Z</time></trkpt><trkpt lat="44.41756936998721" lon="8.720404554445283"><ele>88.0</ele><time>2026-04-21T11:16:44Z</time></trkpt><trkpt lat="44.41757467712496" lon="8.72055902467079"><ele>87.0</ele><time>2026-04-21T11:16:45Z</time></trkpt><trkpt lat="44.41756330736274" lon="8.720673752854067"><ele>86.0</ele><time>2026-04-21T11:16:46Z</time></trkpt><trkpt lat="44.41756722814671" lon="8.720798070350556"><ele>85.0</ele><time>2026-04-21T11:16:48Z</time></trkpt><trkpt lat="44.417574669698574" lon="8.720891851868481"><ele>84.0</ele><time>2026-04-21T11:16:51Z</time></trkpt><trkpt lat="44.41757298516301" lon="8.721003520846711"><ele>83.0</ele><time>2026-04-21T11:18:43Z</time></trkpt><trkpt lat="44.417607798819205" lon="8.721125080013316"><ele>81.25</ele><time>2026-04-21T11:18:46Z</time></trkpt><trkpt lat="44.417633078288546" lon="8.721317371400733"><ele>79.5</ele><time>2026-04-21T11:18:48Z</time></trkpt><trkpt lat="44.4176546958639" lon="8.72147261476994"><ele>77.75</ele><time>2026-04-21T11:18:49Z</time></trkpt><trkpt lat="44.417674416073595" lon="8.721660389645256"><ele>76.0</ele><time>2026-04-21T11:18:50Z</time></trkpt><trkpt lat="44.41769265430935" lon="8.721862564652339"><ele>72.33333333333333</ele><time>2026-04-21T11:18:51Z</time></trkpt><trkpt lat="44.41771608696944" lon="8.722088933590447"><ele>68.66666666666667</ele><time>2026-04-21T11:18:52Z</time></trkpt><trkpt lat="44.417743032372215" lon="8.72233383640439"><ele>65.0</ele><time>2026-04-21T11:18:53Z</time></trkpt><trkpt lat="44.41776142918495" lon="8.722584798207157"><ele>59.333333333333336</ele><time>2026-04-21T11:18:54Z</time></trkpt><trkpt lat="44.41778998209706" lon="8.722835889552798"><ele>53.66666666666667</ele><time>2026-04-21T11:18:55Z</time></trkpt><trkpt lat="44.41782187197741" lon="8.723088343496519"><ele>48.0</ele><time>2026-04-21T11:18:56Z</time></trkpt><trkpt lat="44.41785913988839" lon="8.723323436547036"><ele>48.0</ele><time>2026-04-21T11:18:57Z</time></trkpt><trkpt lat="44.417931127257134" lon="8.723554699715336"><ele>48.0</ele><time>2026-04-21T11:18:58Z</time></trkpt><trkpt lat="44.418022844955104" lon="8.723779183198328"><ele>48.0</ele><time>2026-04-21T11:18:59Z</time></trkpt><trkpt lat="44.41813457855482" lon="8.724002219044516"><ele>56.0</ele><time>2026-04-21T11:19:00Z</time></trkpt><trkpt lat="44.41826570196095" lon="8.724227860192421"><ele>64.0</ele><time>2026-04-21T11:19:01Z</time></trkpt><trkpt lat="44.41840993169041" lon="8.724449931358023"><ele>72.0</ele><time>2026-04-21T11:19:02Z</time></trkpt><trkpt lat="44.41856193115215" lon="8.72466713876435"><ele>72.0</ele><time>2026-04-21T11:19:03Z</time></trkpt><trkpt lat="44.41872046849195" lon="8.72488695116296"><ele>72.0</ele><time>2026-04-21T11:19:04Z</time></trkpt><trkpt lat="44.41887915353106" lon="8.725109253539925"><ele>72.0</ele><time>2026-04-21T11:19:05Z</time></trkpt><trkpt lat="44.41904221134119" lon="8.725338347478596"><ele>73.5</ele><time>2026-04-21T11:19:06Z</time></trkpt><trkpt lat="44.41920014485791" lon="8.725562802150108"><ele>75.0</ele><time>2026-04-21T11:19:07Z</time></trkpt><trkpt lat="44.419360218361916" lon="8.725785302117876"><ele>75.0</ele><time>2026-04-21T11:19:08Z</time></trkpt><trkpt lat="44.4195172984858" lon="8.725998744808656"><ele>75.0</ele><time>2026-04-21T11:19:09Z</time></trkpt><trkpt lat="44.41967092447085" lon="8.726197872647626"><ele>75.0</ele><time>2026-04-21T11:19:10Z</time></trkpt><trkpt lat="44.41982541481889" lon="8.726387548173834"><ele>77.33333333333333</ele><time>2026-04-21T11:19:11Z</time></trkpt><trkpt lat="44.41998157369567" lon="8.726574814736548"><ele>79.66666666666666</ele><time>2026-04-21T11:19:12Z</time></trkpt><trkpt lat="44.420146009661934" lon="8.726771607076302"><ele>82.0</ele><time>2026-04-21T11:19:13Z</time></trkpt><trkpt lat="44.420313579525036" lon="8.726974321516716"><ele>83.0</ele><time>2026-04-21T11:19:14Z</time></trkpt><trkpt lat="44.4204729306742" lon="8.72716875454173"><ele>84.0</ele><time>2026-04-21T11:19:15Z</time></trkpt><trkpt lat="44.420632518762474" lon="8.72736599863553"><ele>85.0</ele><time>2026-04-21T11:19:16Z</time></trkpt><trkpt lat="44.4207914263045" lon="8.727567125203043"><ele>77.33333333333333</ele><time>2026-04-21T11:19:17Z</time></trkpt><trkpt lat="44.420938225259675" lon="8.727775053761558"><ele>69.66666666666667</ele><time>2026-04-21T11:19:18Z</time></trkpt><trkpt lat="44.42107918156038" lon="8.728007646420858"><ele>62.0</ele><time>2026-04-21T11:19:19Z</time></trkpt><trkpt lat="44.421217472832176" lon="8.72826534837015"><ele>69.5</ele><time>2026-04-21T11:19:20Z</time></trkpt><trkpt lat="44.42136095319211" lon="8.728536913449"><ele>77.0</ele><time>2026-04-21T11:19:21Z</time></trkpt><trkpt lat="44.421508041444326" lon="8.728820389004397"><ele>77.0</ele><time>2026-04-21T11:19:22Z</time></trkpt><trkpt lat="44.42164588548837" lon="8.729098278549047"><ele>77.0</ele><time>2026-04-21T11:19:23Z</time></trkpt><trkpt lat="44.42179203201246" lon="8.72938460539456"><ele>64.5</ele><time>2026-04-21T11:19:24Z</time></trkpt><trkpt lat="44.42193769531581" lon="8.729670673608432"><ele>52.0</ele><time>2026-04-21T11:19:25Z</time></trkpt><trkpt lat="44.42207739207773" lon="8.729956628056678"><ele>62.0</ele><time>2026-04-21T11:19:26Z</time></trkpt><trkpt lat="44.42221222626878" lon="8.730245697400242"><ele>72.0</ele><time>2026-04-21T11:19:27Z</time></trkpt><trkpt lat="44.42234726350322" lon="8.730549941989953"><ele>72.0</ele><time>2026-04-21T11:19:28Z</time></trkpt><trkpt lat="44.422475556882674" lon="8.730854826041233"><ele>72.0</ele><time>2026-04-21T11:19:29Z</time></trkpt><trkpt lat="44.422604933422065" lon="8.731161309924234"><ele>66.0</ele><time>2026-04-21T11:19:30Z</time></trkpt><trkpt lat="44.42272757630976" lon="8.731450585955237"><ele>60.0</ele><time>2026-04-21T11:19:31Z</time></trkpt><trkpt lat="44.42285121321519" lon="8.73174387865627"><ele>57.5</ele><time>2026-04-21T11:19:32Z</time></trkpt><trkpt lat="44.422975305112956" lon="8.732036769380926"><ele>55.0</ele><time>2026-04-21T11:19:33Z</time></trkpt><trkpt lat="44.42310508032092" lon="8.732338097224831"><ele>76.5</ele><time>2026-04-21T11:19:34Z</time></trkpt><trkpt lat="44.423234226759256" lon="8.732640181538226"><ele>98.0</ele><time>2026-04-21T11:19:35Z</time></trkpt><trkpt lat="44.423360747349676" lon="8.732929306448955"><ele>99.5</ele><time>2026-04-21T11:19:36Z</time></trkpt><trkpt lat="44.423484967926925" lon="8.73320981114104"><ele>101.0</ele><time>2026-04-21T11:19:37Z</time></trkpt><trkpt lat="44.42360988256064" lon="8.733491195978898"><ele>97.5</ele><time>2026-04-21T11:19:38Z</time></trkpt><trkpt lat="44.42373759758" lon="8.73376867989861"><ele>94.0</ele><time>2026-04-21T11:19:39Z</time></trkpt><trkpt lat="44.42386259773203" lon="8.734037072711475"><ele>101.0</ele><time>2026-04-21T11:19:40Z</time></trkpt><trkpt lat="44.42398737506978" lon="8.73430387925762"><ele>108.0</ele><time>2026-04-21T11:19:41Z</time></trkpt><trkpt lat="44.42411911334973" lon="8.734583334274323"><ele>36.0</ele><time>2026-04-21T11:19:42.064Z</time></trkpt><trkpt lat="44.42499655217566" lon="8.736912725024956"><ele>36.0</ele><time>2026-04-21T11:19:51Z</time></trkpt><trkpt lat="44.42509662830263" lon="8.737155944319776"><ele>36.0</ele><time>2026-04-21T11:19:52Z</time></trkpt><trkpt lat="44.4251204890601" lon="8.737337346144399"><ele>36.0</ele><time>2026-04-21T11:19:53Z</time></trkpt><trkpt lat="44.42520323880087" lon="8.737555669975709"><ele>32.666666666666664</ele><time>2026-04-21T11:19:54Z</time></trkpt><trkpt lat="44.425308520142615" lon="8.73780243752403"><ele>29.333333333333332</ele><time>2026-04-21T11:19:55Z</time></trkpt><trkpt lat="44.425403078445086" lon="8.738046544129023"><ele>26.0</ele><time>2026-04-21T11:19:56Z</time></trkpt><trkpt lat="44.425547754582944" lon="8.738290113334514"><ele>30.0</ele><time>2026-04-21T11:19:57Z</time></trkpt><trkpt lat="44.42565650370984" lon="8.738531047958583"><ele>34.0</ele><time>2026-04-21T11:19:58Z</time></trkpt><trkpt lat="44.42576216590803" lon="8.738774746761768"><ele>38.0</ele><time>2026-04-21T11:19:59Z</time></trkpt><trkpt lat="44.425871241530736" lon="8.739010474088799"><ele>38.0</ele><time>2026-04-21T11:20:00.001Z</time></trkpt><trkpt lat="44.425982514212194" lon="8.739243866571732"><ele>38.0</ele><time>2026-04-21T11:20:01.001Z</time></trkpt><trkpt lat="44.42609628561985" lon="8.739468365939212"><ele>38.0</ele><time>2026-04-21T11:20:02.001Z</time></trkpt><trkpt lat="44.42621784178703" lon="8.739690459518103"><ele>39.0</ele><time>2026-04-21T11:20:03.001Z</time></trkpt><trkpt lat="44.42634364407885" lon="8.739908280882096"><ele>40.0</ele><time>2026-04-21T11:20:04.001Z</time></trkpt><trkpt lat="44.426471631701205" lon="8.740113530644438"><ele>41.0</ele><time>2026-04-21T11:20:05.001Z</time></trkpt><trkpt lat="44.42660613335182" lon="8.740305501922023"><ele>34.0</ele><time>2026-04-21T11:20:06.001Z</time></trkpt><trkpt lat="44.42674346808875" lon="8.740499401290625"><ele>27.0</ele><time>2026-04-21T11:20:07.001Z</time></trkpt><trkpt lat="44.426886287360325" lon="8.740679766809498"><ele>20.0</ele><time>2026-04-21T11:20:08.001Z</time></trkpt><trkpt lat="44.42703434213449" lon="8.740851645623154"><ele>19.333333333333336</ele><time>2026-04-21T11:20:09.001Z</time></trkpt><trkpt lat="44.42717945559015" lon="8.74099534219214"><ele>18.666666666666668</ele><time>2026-04-21T11:20:10.001Z</time></trkpt><trkpt lat="44.42732347729454" lon="8.741115737822982"><ele>18.0</ele><time>2026-04-21T11:20:11.001Z</time></trkpt><trkpt lat="44.42747252174697" lon="8.74122367072622"><ele>18.0</ele><time>2026-04-21T11:20:12.001Z</time></trkpt><trkpt lat="44.427621490747846" lon="8.74133379627126"><ele>18.0</ele><time>2026-04-21T11:20:13.001Z</time></trkpt><trkpt lat="44.42775634857186" lon="8.74144960492431"><ele>18.0</ele><time>2026-04-21T11:20:14.001Z</time></trkpt><trkpt lat="44.427870531585995" lon="8.741579751100737"><ele>17.666666666666668</ele><time>2026-04-21T11:20:15.001Z</time></trkpt><trkpt lat="44.42797710421067" lon="8.741735669432181"><ele>17.333333333333336</ele><time>2026-04-21T11:20:16.001Z</time></trkpt><trkpt lat="44.428084732726504" lon="8.741913754406417"><ele>17.0</ele><time>2026-04-21T11:20:17.001Z</time></trkpt><trkpt lat="44.42819057541706" lon="8.742108783795986"><ele>16.333333333333336</ele><time>2026-04-21T11:20:18.001Z</time></trkpt><trkpt lat="44.42829566410729" lon="8.742308877291112"><ele>15.666666666666668</ele><time>2026-04-21T11:20:19.001Z</time></trkpt><trkpt lat="44.42839799403116" lon="8.742489682043683"><ele>15.0</ele><time>2026-04-21T11:20:20.001Z</time></trkpt><trkpt lat="44.42849832335284" lon="8.7426545261029"><ele>17.333333333333332</ele><time>2026-04-21T11:20:21.001Z</time></trkpt><trkpt lat="44.428587739570915" lon="8.74281193267176"><ele>19.666666666666664</ele><time>2026-04-21T11:20:22.001Z</time></trkpt><trkpt lat="44.42868057570581" lon="8.742982517764283"><ele>22.0</ele><time>2026-04-21T11:20:23.001Z</time></trkpt><trkpt lat="44.42877620734444" lon="8.743161023137471"><ele>28.0</ele><time>2026-04-21T11:20:24.001Z</time></trkpt><trkpt lat="44.428865491974996" lon="8.743358468112794"><ele>34.0</ele><time>2026-04-21T11:20:25.001Z</time></trkpt><trkpt lat="44.42894794072422" lon="8.743583796759108"><ele>40.0</ele><time>2026-04-21T11:20:26.001Z</time></trkpt><trkpt lat="44.42901914869125" lon="8.743827970579943"><ele>41.0</ele><time>2026-04-21T11:20:27.001Z</time></trkpt><trkpt lat="44.429087550861965" lon="8.74408415412121"><ele>42.0</ele><time>2026-04-21T11:20:28.001Z</time></trkpt><trkpt lat="44.42915578633718" lon="8.744350567879483"><ele>43.0</ele><time>2026-04-21T11:20:29.001Z</time></trkpt><trkpt lat="44.42922653528296" lon="8.744628899881805"><ele>40.333333333333336</ele><time>2026-04-21T11:20:30.001Z</time></trkpt><trkpt lat="44.42930467920851" lon="8.7449168859171"><ele>37.666666666666664</ele><time>2026-04-21T11:20:30.999Z</time></trkpt><trkpt lat="44.4293847233933" lon="8.745199760588035"><ele>35.0</ele><time>2026-04-21T11:20:31.999Z</time></trkpt><trkpt lat="44.429466836485076" lon="8.7454900393498"><ele>33.666666666666664</ele><time>2026-04-21T11:20:32.999Z</time></trkpt><trkpt lat="44.429543585058155" lon="8.74578443958506"><ele>32.333333333333336</ele><time>2026-04-21T11:20:33.999Z</time></trkpt><trkpt lat="44.42962472772561" lon="8.746062782413246"><ele>31.0</ele><time>2026-04-21T11:20:34.999Z</time></trkpt><trkpt lat="44.429709970423765" lon="8.746329508251451"><ele>35.66666666666667</ele><time>2026-04-21T11:20:35.999Z</time></trkpt><trkpt lat="44.429812376790984" lon="8.746603810379423"><ele>40.333333333333336</ele><time>2026-04-21T11:20:36.999Z</time></trkpt><trkpt lat="44.42992480978094" lon="8.746874209276818"><ele>45.0</ele><time>2026-04-21T11:20:37.999Z</time></trkpt><trkpt lat="44.43004725030603" lon="8.74714973944821"><ele>45.0</ele><time>2026-04-21T11:20:38.999Z</time></trkpt><trkpt lat="44.43017542177221" lon="8.747426634293326"><ele>45.0</ele><time>2026-04-21T11:20:39.999Z</time></trkpt><trkpt lat="44.430306272091435" lon="8.747706407966959"><ele>43.5</ele><time>2026-04-21T11:20:40.999Z</time></trkpt><trkpt lat="44.430436191474435" lon="8.747993716303943"><ele>42.0</ele><time>2026-04-21T11:20:41.999Z</time></trkpt><trkpt lat="44.43056313065818" lon="8.748288701240424"><ele>53.5</ele><time>2026-04-21T11:20:42.999Z</time></trkpt><trkpt lat="44.430680318876156" lon="8.748572666053269"><ele>65.0</ele><time>2026-04-21T11:20:43.999Z</time></trkpt><trkpt lat="44.4307969879123" lon="8.748857840580111"><ele>65.0</ele><time>2026-04-21T11:20:44.999Z</time></trkpt><trkpt lat="44.430916416421994" lon="8.749147177873237"><ele>65.0</ele><time>2026-04-21T11:20:45.999Z</time></trkpt><trkpt lat="44.43102917212286" lon="8.749428536131758"><ele>55.0</ele><time>2026-04-21T11:20:46.999Z</time></trkpt><trkpt lat="44.43115202489255" lon="8.749687239864556"><ele>45.0</ele><time>2026-04-21T11:20:48.06Z</time></trkpt><trkpt lat="44.431246572561975" lon="8.749945813895788"><ele>35.0</ele><time>2026-04-21T11:20:48.999Z</time></trkpt><trkpt lat="44.43132634265146" lon="8.750125625999768"><ele>27.666666666666664</ele><time>2026-04-21T11:20:49.999Z</time></trkpt><trkpt lat="44.43140419183035" lon="8.750399378262198"><ele>20.333333333333332</ele><time>2026-04-21T11:20:50.999Z</time></trkpt><trkpt lat="44.43146544715879" lon="8.750686327351517"><ele>13.0</ele><time>2026-04-21T11:20:51.999Z</time></trkpt><trkpt lat="44.43153574361093" lon="8.750948254616885"><ele>17.333333333333332</ele><time>2026-04-21T11:20:52.999Z</time></trkpt><trkpt lat="44.431585214422" lon="8.751185939568789"><ele>21.666666666666664</ele><time>2026-04-21T11:20:53.999Z</time></trkpt><trkpt lat="44.4316285922225" lon="8.751416591903553"><ele>26.0</ele><time>2026-04-21T11:20:54.999Z</time></trkpt><trkpt lat="44.43164827022161" lon="8.751647315958316"><ele>30.333333333333332</ele><time>2026-04-21T11:20:55.999Z</time></trkpt><trkpt lat="44.431642714934604" lon="8.751891394870066"><ele>34.666666666666664</ele><time>2026-04-21T11:20:56.999Z</time></trkpt><trkpt lat="44.4316137223988" lon="8.752147032928784"><ele>39.0</ele><time>2026-04-21T11:20:58Z</time></trkpt><trkpt lat="44.43156764724779" lon="8.75240564876492"><ele>39.0</ele><time>2026-04-21T11:20:59Z</time></trkpt><trkpt lat="44.431499250485295" lon="8.752667498435933"><ele>39.0</ele><time>2026-04-21T11:21:00Z</time></trkpt><trkpt lat="44.43141231498458" lon="8.752932265769605"><ele>39.0</ele><time>2026-04-21T11:21:01Z</time></trkpt><trkpt lat="44.431315037545" lon="8.753196844324993"><ele>35.666666666666664</ele><time>2026-04-21T11:21:02Z</time></trkpt><trkpt lat="44.43121645403768" lon="8.753469333326091"><ele>32.33333333333333</ele><time>2026-04-21T11:21:03Z</time></trkpt><trkpt lat="44.431117743659904" lon="8.753746142142933"><ele>29.0</ele><time>2026-04-21T11:21:04Z</time></trkpt><trkpt lat="44.43101291879031" lon="8.754030986987162"><ele>29.0</ele><time>2026-04-21T11:21:05Z</time></trkpt><trkpt lat="44.430906384963336" lon="8.75431565892283"><ele>29.0</ele><time>2026-04-21T11:21:06Z</time></trkpt><trkpt lat="44.43080125649467" lon="8.754597480731993"><ele>33.0</ele><time>2026-04-21T11:21:07Z</time></trkpt><trkpt lat="44.430703859857864" lon="8.75486545049387"><ele>37.0</ele><time>2026-04-21T11:21:08Z</time></trkpt><trkpt lat="44.430613483180565" lon="8.755121627432938"><ele>41.0</ele><time>2026-04-21T11:21:09Z</time></trkpt><trkpt lat="44.43052221426512" lon="8.755375404812936"><ele>38.0</ele><time>2026-04-21T11:21:10Z</time></trkpt><trkpt lat="44.430434670215135" lon="8.75563898123417"><ele>35.0</ele><time>2026-04-21T11:21:11Z</time></trkpt><trkpt lat="44.4303568698349" lon="8.755906228489515"><ele>32.0</ele><time>2026-04-21T11:21:12Z</time></trkpt><trkpt lat="44.43029240619059" lon="8.756180500000573"><ele>31.666666666666664</ele><time>2026-04-21T11:21:13Z</time></trkpt><trkpt lat="44.430239517908184" lon="8.756465961826063"><ele>31.333333333333336</ele><time>2026-04-21T11:21:14Z</time></trkpt><trkpt lat="44.43019371097828" lon="8.756757718826124"><ele>31.0</ele><time>2026-04-21T11:21:15Z</time></trkpt><trkpt lat="44.430158952436756" lon="8.757057944810908"><ele>30.666666666666668</ele><time>2026-04-21T11:21:16Z</time></trkpt><trkpt lat="44.43013267301927" lon="8.757369705917961"><ele>30.333333333333336</ele><time>2026-04-21T11:21:17Z</time></trkpt><trkpt lat="44.430113593204766" lon="8.757680164001908"><ele>30.0</ele><time>2026-04-21T11:21:18Z</time></trkpt><trkpt lat="44.43010038468057" lon="8.757982414308678"><ele>30.0</ele><time>2026-04-21T11:21:19Z</time></trkpt><trkpt lat="44.43008539818683" lon="8.758255537063237"><ele>30.0</ele><time>2026-04-21T11:21:20Z</time></trkpt><trkpt lat="44.430064375049135" lon="8.75852194921158"><ele>30.0</ele><time>2026-04-21T11:21:21Z</time></trkpt><trkpt lat="44.43004825730885" lon="8.758801816030909"><ele>30.0</ele><time>2026-04-21T11:21:22Z</time></trkpt><trkpt lat="44.43004868880541" lon="8.759093835347384"><ele>30.0</ele><time>2026-04-21T11:21:23Z</time></trkpt><trkpt lat="44.43006155165069" lon="8.759400128670421"><ele>30.0</ele><time>2026-04-21T11:21:24Z</time></trkpt><trkpt lat="44.43008490849855" lon="8.759703255749415"><ele>29.5</ele><time>2026-04-21T11:21:25Z</time></trkpt><trkpt lat="44.43012007622529" lon="8.76000749587168"><ele>29.0</ele><time>2026-04-21T11:21:26Z</time></trkpt><trkpt lat="44.43018607734045" lon="8.760360543902038"><ele>29.0</ele><time>2026-04-21T11:21:27Z</time></trkpt><trkpt lat="44.43025326636646" lon="8.76068483940329"><ele>29.0</ele><time>2026-04-21T11:21:28Z</time></trkpt><trkpt lat="44.430298724799414" lon="8.761004683455116"><ele>25.5</ele><time>2026-04-21T11:21:29Z</time></trkpt><trkpt lat="44.43034585723634" lon="8.761323812958514"><ele>22.0</ele><time>2026-04-21T11:21:30Z</time></trkpt><trkpt lat="44.43038615925758" lon="8.761637787694553"><ele>20.333333333333332</ele><time>2026-04-21T11:21:31Z</time></trkpt><trkpt lat="44.43041494797927" lon="8.761937088330237"><ele>18.666666666666668</ele><time>2026-04-21T11:21:32Z</time></trkpt><trkpt lat="44.43042968305973" lon="8.762238717624736"><ele>17.0</ele><time>2026-04-21T11:21:33Z</time></trkpt><trkpt lat="44.43042322126735" lon="8.762525113150772"><ele>17.333333333333336</ele><time>2026-04-21T11:21:34Z</time></trkpt><trkpt lat="44.430416024538545" lon="8.762811451062632"><ele>17.666666666666668</ele><time>2026-04-21T11:21:35Z</time></trkpt><trkpt lat="44.430337683422195" lon="8.763121319917072"><ele>18.0</ele><time>2026-04-21T11:21:36Z</time></trkpt><trkpt lat="44.43029813696954" lon="8.763438910888713"><ele>19.0</ele><time>2026-04-21T11:21:37Z</time></trkpt><trkpt lat="44.430237063691926" lon="8.763729006836588"><ele>20.0</ele><time>2026-04-21T11:21:38Z</time></trkpt><trkpt lat="44.43017388550453" lon="8.764041158585632"><ele>21.0</ele><time>2026-04-21T11:21:39Z</time></trkpt><trkpt lat="44.43011530928716" lon="8.764389893800503"><ele>21.0</ele><time>2026-04-21T11:21:40Z</time></trkpt><trkpt lat="44.430046376207024" lon="8.764708326627895"><ele>21.0</ele><time>2026-04-21T11:21:41Z</time></trkpt><trkpt lat="44.42998781014909" lon="8.765037536125547"><ele>21.0</ele><time>2026-04-21T11:21:42Z</time></trkpt><trkpt lat="44.42992923799113" lon="8.765391043578923"><ele>21.0</ele><time>2026-04-21T11:21:43Z</time></trkpt><trkpt lat="44.42987871637002" lon="8.765723773412446"><ele>19.5</ele><time>2026-04-21T11:21:44Z</time></trkpt><trkpt lat="44.429840163892784" lon="8.766069135221752"><ele>18.0</ele><time>2026-04-21T11:21:45Z</time></trkpt><trkpt lat="44.42980320788562" lon="8.766413610143037"><ele>18.0</ele><time>2026-04-21T11:21:46Z</time></trkpt><trkpt lat="44.429780284986045" lon="8.766769913042578"><ele>18.0</ele><time>2026-04-21T11:21:47Z</time></trkpt><trkpt lat="44.429758343951455" lon="8.767119696296888"><ele>17.5</ele><time>2026-04-21T11:21:48Z</time></trkpt><trkpt lat="44.42974924062684" lon="8.767457779044944"><ele>17.0</ele><time>2026-04-21T11:21:49Z</time></trkpt><trkpt lat="44.42975734974742" lon="8.767779292063498"><ele>17.0</ele><time>2026-04-21T11:21:50Z</time></trkpt><trkpt lat="44.42979604254219" lon="8.768080571234263"><ele>17.0</ele><time>2026-04-21T11:21:51Z</time></trkpt><trkpt lat="44.42985086260085" lon="8.768391190762273"><ele>17.0</ele><time>2026-04-21T11:21:52Z</time></trkpt><trkpt lat="44.4299178796674" lon="8.768714676726333"><ele>17.5</ele><time>2026-04-21T11:21:53Z</time></trkpt><trkpt lat="44.42999576224336" lon="8.769034555485325"><ele>18.0</ele><time>2026-04-21T11:21:54Z</time></trkpt><trkpt lat="44.43006866719115" lon="8.7693563261864"><ele>23.0</ele><time>2026-04-21T11:21:55Z</time></trkpt><trkpt lat="44.43013825736346" lon="8.76967654722021"><ele>28.0</ele><time>2026-04-21T11:21:56Z</time></trkpt><trkpt lat="44.430209709264005" lon="8.769963131038185"><ele>28.0</ele><time>2026-04-21T11:21:57Z</time></trkpt><trkpt lat="44.43025673534932" lon="8.77023353218599"><ele>28.0</ele><time>2026-04-21T11:21:58Z</time></trkpt><trkpt lat="44.430300308217404" lon="8.770494853960372"><ele>28.0</ele><time>2026-04-21T11:21:59Z</time></trkpt><trkpt lat="44.43032726230959" lon="8.770760094613935"><ele>28.0</ele><time>2026-04-21T11:22:00Z</time></trkpt><trkpt lat="44.430326473927096" lon="8.771023541888574"><ele>28.0</ele><time>2026-04-21T11:22:01Z</time></trkpt><trkpt lat="44.43033022934535" lon="8.771305615692304"><ele>28.0</ele><time>2026-04-21T11:22:02Z</time></trkpt><trkpt lat="44.43033804395452" lon="8.77154662894329"><ele>29.0</ele><time>2026-04-21T11:22:03Z</time></trkpt><trkpt lat="44.43031368153287" lon="8.771824516994558"><ele>30.0</ele><time>2026-04-21T11:22:04Z</time></trkpt><trkpt lat="44.43026498687812" lon="8.772103763942983"><ele>31.0</ele><time>2026-04-21T11:22:05Z</time></trkpt><trkpt lat="44.43025837349168" lon="8.772411604154913"><ele>30.0</ele><time>2026-04-21T11:22:06Z</time></trkpt><trkpt lat="44.43024860538202" lon="8.772725719056545"><ele>29.0</ele><time>2026-04-21T11:22:07Z</time></trkpt><trkpt lat="44.430209749894786" lon="8.773055506447033"><ele>29.0</ele><time>2026-04-21T11:22:08Z</time></trkpt><trkpt lat="44.430190810913444" lon="8.773397462667983"><ele>29.0</ele><time>2026-04-21T11:22:09Z</time></trkpt><trkpt lat="44.43017295997981" lon="8.773726215848598"><ele>28.333333333333332</ele><time>2026-04-21T11:22:10Z</time></trkpt><trkpt lat="44.43014700016276" lon="8.774025835844416"><ele>27.666666666666664</ele><time>2026-04-21T11:22:11Z</time></trkpt><trkpt lat="44.430128098945865" lon="8.774305609892888"><ele>27.0</ele><time>2026-04-21T11:22:12Z</time></trkpt><trkpt lat="44.430109074642516" lon="8.774585418724019"><ele>25.666666666666668</ele><time>2026-04-21T11:22:13Z</time></trkpt><trkpt lat="44.430105291460826" lon="8.774883172562292"><ele>24.333333333333336</ele><time>2026-04-21T11:22:14Z</time></trkpt><trkpt lat="44.43009679946251" lon="8.77518867467715"><ele>23.0</ele><time>2026-04-21T11:22:15Z</time></trkpt><trkpt lat="44.430098464062624" lon="8.775504926718751"><ele>20.0</ele><time>2026-04-21T11:22:16Z</time></trkpt><trkpt lat="44.43011057580386" lon="8.775818496827357"><ele>17.0</ele><time>2026-04-21T11:22:17Z</time></trkpt><trkpt lat="44.430121611981555" lon="8.776114762420375"><ele>14.0</ele><time>2026-04-21T11:22:18Z</time></trkpt><trkpt lat="44.430126119497594" lon="8.77638458996868"><ele>15.0</ele><time>2026-04-21T11:22:19Z</time></trkpt><trkpt lat="44.43013071960149" lon="8.77663376415105"><ele>16.0</ele><time>2026-04-21T11:22:20Z</time></trkpt><trkpt lat="44.43012864228618" lon="8.776877597049134"><ele>17.0</ele><time>2026-04-21T11:22:21Z</time></trkpt><trkpt lat="44.43010769386843" lon="8.777128547761619"><ele>17.0</ele><time>2026-04-21T11:22:22Z</time></trkpt><trkpt lat="44.430066797968514" lon="8.7773881037748"><ele>17.0</ele><time>2026-04-21T11:22:23Z</time></trkpt><trkpt lat="44.43000201886044" lon="8.777636432522458"><ele>17.0</ele><time>2026-04-21T11:22:24Z</time></trkpt><trkpt lat="44.429915480461545" lon="8.777884903220054"><ele>20.0</ele><time>2026-04-21T11:22:25Z</time></trkpt><trkpt lat="44.429806306481325" lon="8.778121604321104"><ele>23.0</ele><time>2026-04-21T11:22:26Z</time></trkpt><trkpt lat="44.42967529536222" lon="8.778349950357345"><ele>26.0</ele><time>2026-04-21T11:22:27Z</time></trkpt><trkpt lat="44.429532700233565" lon="8.778583114545999"><ele>26.0</ele><time>2026-04-21T11:22:28Z</time></trkpt><trkpt lat="44.429402516286856" lon="8.778820649858213"><ele>26.0</ele><time>2026-04-21T11:22:29Z</time></trkpt><trkpt lat="44.42927992611031" lon="8.779060030781523"><ele>26.0</ele><time>2026-04-21T11:22:30Z</time></trkpt><trkpt lat="44.42917006218112" lon="8.779289361008107"><ele>28.0</ele><time>2026-04-21T11:22:31Z</time></trkpt><trkpt lat="44.42908518078471" lon="8.779492909772989"><ele>30.0</ele><time>2026-04-21T11:22:32Z</time></trkpt><trkpt lat="44.42902203560286" lon="8.77971455779572"><ele>32.0</ele><time>2026-04-21T11:22:33Z</time></trkpt><trkpt lat="44.42896951573875" lon="8.779970397160563"><ele>33.0</ele><time>2026-04-21T11:22:34Z</time></trkpt><trkpt lat="44.42893964688998" lon="8.78024741455768"><ele>34.0</ele><time>2026-04-21T11:22:35Z</time></trkpt><trkpt lat="44.428926171530186" lon="8.78053879800242"><ele>35.0</ele><time>2026-04-21T11:22:35.999Z</time></trkpt><trkpt lat="44.42888396925915" lon="8.780820282225497"><ele>36.666666666666664</ele><time>2026-04-21T11:22:36.999Z</time></trkpt><trkpt lat="44.42883890640598" lon="8.781107633096193"><ele>38.333333333333336</ele><time>2026-04-21T11:22:37.999Z</time></trkpt><trkpt lat="44.42879432832994" lon="8.781407467334681"><ele>40.0</ele><time>2026-04-21T11:22:38.999Z</time></trkpt><trkpt lat="44.428737512495424" lon="8.78170366452054"><ele>34.0</ele><time>2026-04-21T11:22:39.999Z</time></trkpt><trkpt lat="44.42872002812449" lon="8.78197589873484"><ele>28.0</ele><time>2026-04-21T11:22:40.999Z</time></trkpt><trkpt lat="44.42868472115563" lon="8.782252398595451"><ele>22.0</ele><time>2026-04-21T11:22:41.999Z</time></trkpt><trkpt lat="44.42864434947741" lon="8.78253800504436"><ele>23.666666666666664</ele><time>2026-04-21T11:22:42.999Z</time></trkpt><trkpt lat="44.428605055828484" lon="8.782833437192508"><ele>25.333333333333332</ele><time>2026-04-21T11:22:43.999Z</time></trkpt><trkpt lat="44.428563431448126" lon="8.78310576426915"><ele>27.0</ele><time>2026-04-21T11:22:44.999Z</time></trkpt><trkpt lat="44.428529819136614" lon="8.783359182374348"><ele>27.333333333333336</ele><time>2026-04-21T11:22:45.999Z</time></trkpt><trkpt lat="44.42851701816719" lon="8.783618339012014"><ele>27.666666666666668</ele><time>2026-04-21T11:22:46.999Z</time></trkpt><trkpt lat="44.42851126567108" lon="8.78387865199966"><ele>28.0</ele><time>2026-04-21T11:22:47.999Z</time></trkpt><trkpt lat="44.4285293028648" lon="8.784133769070758"><ele>26.333333333333336</ele><time>2026-04-21T11:22:48.999Z</time></trkpt><trkpt lat="44.42857883194476" lon="8.784408460428944"><ele>24.666666666666668</ele><time>2026-04-21T11:22:49.999Z</time></trkpt><trkpt lat="44.42864367669877" lon="8.78467561255412"><ele>23.0</ele><time>2026-04-21T11:22:50.999Z</time></trkpt><trkpt lat="44.428720855022945" lon="8.784945795694398"><ele>26.666666666666668</ele><time>2026-04-21T11:22:51.999Z</time></trkpt><trkpt lat="44.42881535681852" lon="8.785230948678258"><ele>30.333333333333336</ele><time>2026-04-21T11:22:52.999Z</time></trkpt><trkpt lat="44.42890326313899" lon="8.785492181701107"><ele>34.0</ele><time>2026-04-21T11:22:53.999Z</time></trkpt><trkpt lat="44.42898988513084" lon="8.785751438453342"><ele>30.0</ele><time>2026-04-21T11:22:54.999Z</time></trkpt><trkpt lat="44.42908048712472" lon="8.786049562153567"><ele>26.0</ele><time>2026-04-21T11:22:55.999Z</time></trkpt><trkpt lat="44.42918023646801" lon="8.78633743215598"><ele>26.0</ele><time>2026-04-21T11:22:56.999Z</time></trkpt><trkpt lat="44.42930280237416" lon="8.786634318462431"><ele>26.0</ele><time>2026-04-21T11:22:57.999Z</time></trkpt><trkpt lat="44.42941667126437" lon="8.786909590911245"><ele>24.666666666666664</ele><time>2026-04-21T11:22:58.999Z</time></trkpt><trkpt lat="44.42952027040736" lon="8.787152086653762"><ele>23.333333333333332</ele><time>2026-04-21T11:22:59.999Z</time></trkpt><trkpt lat="44.429631340174716" lon="8.787396648948352"><ele>22.0</ele><time>2026-04-21T11:23:00.999Z</time></trkpt><trkpt lat="44.429765053368314" lon="8.787653384520675"><ele>20.666666666666664</ele><time>2026-04-21T11:23:01.999Z</time></trkpt><trkpt lat="44.42987928545952" lon="8.787881413077537"><ele>19.333333333333332</ele><time>2026-04-21T11:23:02.999Z</time></trkpt><trkpt lat="44.429996305039" lon="8.788099875757625"><ele>18.0</ele><time>2026-04-21T11:23:03.999Z</time></trkpt><trkpt lat="44.43009739459938" lon="8.788312549832687"><ele>17.666666666666668</ele><time>2026-04-21T11:23:04.999Z</time></trkpt><trkpt lat="44.4301857342394" lon="8.78852307696313"><ele>17.333333333333336</ele><time>2026-04-21T11:23:05.999Z</time></trkpt><trkpt lat="44.43026786397027" lon="8.788705570848737"><ele>17.0</ele><time>2026-04-21T11:23:06.999Z</time></trkpt><trkpt lat="44.43032926880435" lon="8.78887511623546"><ele>17.0</ele><time>2026-04-21T11:23:08Z</time></trkpt><trkpt lat="44.43037692539651" lon="8.789056640900412"><ele>17.0</ele><time>2026-04-21T11:23:09Z</time></trkpt><trkpt lat="44.43041645057935" lon="8.789249902909123"><ele>17.0</ele><time>2026-04-21T11:23:10Z</time></trkpt><trkpt lat="44.430447009064615" lon="8.789449561343314"><ele>17.0</ele><time>2026-04-21T11:23:11Z</time></trkpt><trkpt lat="44.430464252179185" lon="8.789657730548774"><ele>16.75</ele><time>2026-04-21T11:23:12Z</time></trkpt><trkpt lat="44.43047554378606" lon="8.789866954635038"><ele>16.5</ele><time>2026-04-21T11:23:13Z</time></trkpt><trkpt lat="44.43046832814438" lon="8.79007480907282"><ele>16.25</ele><time>2026-04-21T11:23:14Z</time></trkpt><trkpt lat="44.430449431370086" lon="8.790283920753442"><ele>16.0</ele><time>2026-04-21T11:23:15Z</time></trkpt><trkpt lat="44.43041506134994" lon="8.790479376541953"><ele>18.333333333333332</ele><time>2026-04-21T11:23:16Z</time></trkpt><trkpt lat="44.430374132036256" lon="8.79067558902991"><ele>20.666666666666668</ele><time>2026-04-21T11:23:17Z</time></trkpt><trkpt lat="44.43032816048583" lon="8.790888239913118"><ele>23.0</ele><time>2026-04-21T11:23:18Z</time></trkpt><trkpt lat="44.4302794466493" lon="8.791123233313074"><ele>29.333333333333336</ele><time>2026-04-21T11:23:19Z</time></trkpt><trkpt lat="44.430232252844704" lon="8.791375829969228"><ele>35.666666666666664</ele><time>2026-04-21T11:23:20Z</time></trkpt><trkpt lat="44.430188565407896" lon="8.791626595566296"><ele>42.0</ele><time>2026-04-21T11:23:21Z</time></trkpt><trkpt lat="44.43014459436118" lon="8.791840496781266"><ele>51.66666666666667</ele><time>2026-04-21T11:23:22Z</time></trkpt><trkpt lat="44.43010807770169" lon="8.792061078144352"><ele>61.333333333333336</ele><time>2026-04-21T11:23:23Z</time></trkpt><trkpt lat="44.43006974973349" lon="8.792298523382536"><ele>71.0</ele><time>2026-04-21T11:23:24Z</time></trkpt><trkpt lat="44.430032601518086" lon="8.792524930942488"><ele>78.66666666666667</ele><time>2026-04-21T11:23:25Z</time></trkpt><trkpt lat="44.4299819874816" lon="8.792799959102403"><ele>86.33333333333333</ele><time>2026-04-21T11:23:26Z</time></trkpt><trkpt lat="44.42993097905799" lon="8.793059405062012"><ele>94.0</ele><time>2026-04-21T11:23:27Z</time></trkpt><trkpt lat="44.42987913252107" lon="8.793309966179592"><ele>94.0</ele><time>2026-04-21T11:23:28Z</time></trkpt><trkpt lat="44.429831925190776" lon="8.793549895705638"><ele>94.0</ele><time>2026-04-21T11:23:29Z</time></trkpt><trkpt lat="44.42978883737175" lon="8.793795644479642"><ele>94.0</ele><time>2026-04-21T11:23:30.062Z</time></trkpt><trkpt lat="44.42974873996257" lon="8.794034638607112"><ele>54.0</ele><time>2026-04-21T11:23:31.062Z</time></trkpt><trkpt lat="44.429414640851576" lon="8.79660030411894"><ele>72.0</ele><time>2026-04-21T11:23:34.542Z</time></trkpt><trkpt lat="44.42956758942359" lon="8.797705764093083"><ele>106.0</ele><time>2026-04-21T11:23:35.539Z</time></trkpt><trkpt lat="44.42972299535948" lon="8.79881407892183"><ele>43.0</ele><time>2026-04-21T11:23:36.538Z</time></trkpt><trkpt lat="44.429443351780456" lon="8.795788494518671"><ele>46.66666666666667</ele><time>2026-04-21T11:23:37Z</time></trkpt><trkpt lat="44.42940807384578" lon="8.796071590442642"><ele>50.333333333333336</ele><time>2026-04-21T11:23:38Z</time></trkpt><trkpt lat="44.429396161804874" lon="8.796356017754087"><ele>54.0</ele><time>2026-04-21T11:23:39Z</time></trkpt><trkpt lat="44.429404540682825" lon="8.796647050996588"><ele>57.66666666666667</ele><time>2026-04-21T11:23:40Z</time></trkpt><trkpt lat="44.4294348490946" lon="8.796888611351369"><ele>61.333333333333336</ele><time>2026-04-21T11:23:41Z</time></trkpt><trkpt lat="44.429453675669755" lon="8.797116495245701"><ele>65.0</ele><time>2026-04-21T11:23:42Z</time></trkpt><trkpt lat="44.43001662883946" lon="8.800884208551192"><ele>104.0</ele><time>2026-04-21T11:23:49.542Z</time></trkpt><trkpt lat="44.430170877488244" lon="8.801993817342249"><ele>116.0</ele><time>2026-04-21T11:23:50.542Z</time></trkpt><trkpt lat="44.430330591262475" lon="8.803100862945424"><ele>113.0</ele><time>2026-04-21T11:23:51.541Z</time></trkpt><trkpt lat="44.430480705235006" lon="8.804208789262997"><ele>82.0</ele><time>2026-04-21T11:23:52.539Z</time></trkpt><trkpt lat="44.43063201282858" lon="8.80532307390018"><ele>80.0</ele><time>2026-04-21T11:23:53.542Z</time></trkpt><trkpt lat="44.43078876921197" lon="8.806431061177369"><ele>82.0</ele><time>2026-04-21T11:23:54.542Z</time></trkpt><trkpt lat="44.43095068234438" lon="8.807536711529941"><ele>65.0</ele><time>2026-04-21T11:23:55.54Z</time></trkpt><trkpt lat="44.43127114785085" lon="8.809754907366557"><ele>73.0</ele><time>2026-04-21T11:23:57.542Z</time></trkpt><trkpt lat="44.43142794997716" lon="8.810860787273333"><ele>95.0</ele><time>2026-04-21T11:23:58.539Z</time></trkpt><trkpt lat="44.43145851272722" lon="8.811983923266371"><ele>81.0</ele><time>2026-04-21T11:23:59.539Z</time></trkpt><trkpt lat="44.4313382546828" lon="8.813105469682498"><ele>64.0</ele><time>2026-04-21T11:24:00.542Z</time></trkpt><trkpt lat="44.43121717124218" lon="8.814221042398403"><ele>73.0</ele><time>2026-04-21T11:24:01.541Z</time></trkpt><trkpt lat="44.43109511387444" lon="8.815339439315958"><ele>62.0</ele><time>2026-04-21T11:24:02.542Z</time></trkpt><trkpt lat="44.430974008373916" lon="8.816457887163274"><ele>80.0</ele><time>2026-04-21T11:24:03.542Z</time></trkpt><trkpt lat="44.4308472865213" lon="8.806582154162271"><ele>81.0</ele><time>2026-04-21T11:24:10Z</time></trkpt><trkpt lat="44.43095102285844" lon="8.806832762920818"><ele>82.0</ele><time>2026-04-21T11:24:11Z</time></trkpt><trkpt lat="44.43101633851098" lon="8.80719648089566"><ele>82.0</ele><time>2026-04-21T11:24:12Z</time></trkpt><trkpt lat="44.43102567012745" lon="8.807583929224402"><ele>82.0</ele><time>2026-04-21T11:24:13Z</time></trkpt><trkpt lat="44.43107742881147" lon="8.807933657548675"><ele>72.0</ele><time>2026-04-21T11:24:14Z</time></trkpt><trkpt lat="44.43110668854662" lon="8.80826462048437"><ele>62.0</ele><time>2026-04-21T11:24:15Z</time></trkpt><trkpt lat="44.43115098982729" lon="8.80861047584321"><ele>63.5</ele><time>2026-04-21T11:24:16Z</time></trkpt><trkpt lat="44.431185978306615" lon="8.80899045062533"><ele>65.0</ele><time>2026-04-21T11:24:17Z</time></trkpt><trkpt lat="44.43121103910005" lon="8.809346094252415"><ele>65.0</ele><time>2026-04-21T11:24:18Z</time></trkpt><trkpt lat="44.431246224562095" lon="8.809712601486702"><ele>65.0</ele><time>2026-04-21T11:24:19Z</time></trkpt><trkpt lat="44.4312858198711" lon="8.81006452057936"><ele>69.0</ele><time>2026-04-21T11:24:20Z</time></trkpt><trkpt lat="44.431330547541066" lon="8.810402978317638"><ele>73.0</ele><time>2026-04-21T11:24:21Z</time></trkpt><trkpt lat="44.43137878344533" lon="8.810729201823266"><ele>74.0</ele><time>2026-04-21T11:24:22Z</time></trkpt><trkpt lat="44.43142772801376" lon="8.811035806663163"><ele>75.0</ele><time>2026-04-21T11:24:23Z</time></trkpt><trkpt lat="44.431472239356445" lon="8.811326681183314"><ele>76.0</ele><time>2026-04-21T11:24:24Z</time></trkpt><trkpt lat="44.43147975477888" lon="8.811607180008695"><ele>82.33333333333333</ele><time>2026-04-21T11:24:25Z</time></trkpt><trkpt lat="44.431446466018166" lon="8.811838006971724"><ele>88.66666666666667</ele><time>2026-04-21T11:24:26Z</time></trkpt><trkpt lat="44.431424472547796" lon="8.812145638358757"><ele>95.0</ele><time>2026-04-21T11:24:27Z</time></trkpt><trkpt lat="44.43139214408018" lon="8.812464442789095"><ele>88.0</ele><time>2026-04-21T11:24:28Z</time></trkpt><trkpt lat="44.43136347868144" lon="8.812793798934377"><ele>81.0</ele><time>2026-04-21T11:24:29Z</time></trkpt><trkpt lat="44.43134166732777" lon="8.813141364773786"><ele>81.0</ele><time>2026-04-21T11:24:30Z</time></trkpt><trkpt lat="44.43132547469922" lon="8.813476123760797"><ele>81.0</ele><time>2026-04-21T11:24:31Z</time></trkpt><trkpt lat="44.43130924924529" lon="8.813824733246493"><ele>41.0</ele><time>2026-04-21T11:24:32.064Z</time></trkpt><trkpt lat="44.43063729663416" lon="8.818095590457988"><ele>41.0</ele><time>2026-04-21T11:24:46Z</time></trkpt><trkpt lat="44.43115084721643" lon="8.81837742854309"><ele>36.0</ele><time>2026-04-21T11:24:47Z</time></trkpt><trkpt lat="44.43090884820032" lon="8.818679995177023"><ele>31.0</ele><time>2026-04-21T11:24:48Z</time></trkpt><trkpt lat="44.4308356592286" lon="8.8189588994528"><ele>31.0</ele><time>2026-04-21T11:24:49Z</time></trkpt><trkpt lat="44.430748172159994" lon="8.819261952984299"><ele>31.0</ele><time>2026-04-21T11:24:50Z</time></trkpt><trkpt lat="44.43059710546689" lon="8.819531412609491"><ele>24.5</ele><time>2026-04-21T11:24:51Z</time></trkpt><trkpt lat="44.43044200497439" lon="8.819806047008557"><ele>18.0</ele><time>2026-04-21T11:24:51.999Z</time></trkpt><trkpt lat="44.43021359396096" lon="8.8200538667155"><ele>17.0</ele><time>2026-04-21T11:24:52.999Z</time></trkpt><trkpt lat="44.43012918143982" lon="8.820382254840938"><ele>16.0</ele><time>2026-04-21T11:24:53.999Z</time></trkpt><trkpt lat="44.43000492611564" lon="8.820690204158709"><ele>18.0</ele><time>2026-04-21T11:24:54.999Z</time></trkpt><trkpt lat="44.429893453403174" lon="8.821002547337379"><ele>20.0</ele><time>2026-04-21T11:24:55.999Z</time></trkpt><trkpt lat="44.429793214850555" lon="8.821319410602378"><ele>20.0</ele><time>2026-04-21T11:24:56.999Z</time></trkpt><trkpt lat="44.429690065837434" lon="8.82162826891744"><ele>20.0</ele><time>2026-04-21T11:24:57.999Z</time></trkpt><trkpt lat="44.429584902746676" lon="8.821931526158673"><ele>20.5</ele><time>2026-04-21T11:24:58.999Z</time></trkpt><trkpt lat="44.42948675194676" lon="8.82221968236468"><ele>21.0</ele><time>2026-04-21T11:24:59.999Z</time></trkpt><trkpt lat="44.42939536872851" lon="8.822504668554865"><ele>23.666666666666664</ele><time>2026-04-21T11:25:00.999Z</time></trkpt><trkpt lat="44.42931894449196" lon="8.822779100434811"><ele>26.333333333333332</ele><time>2026-04-21T11:25:01.999Z</time></trkpt><trkpt lat="44.42924896435335" lon="8.823058410804629"><ele>29.0</ele><time>2026-04-21T11:25:02.999Z</time></trkpt><trkpt lat="44.429180113038775" lon="8.823335953226911"><ele>31.0</ele><time>2026-04-21T11:25:03.999Z</time></trkpt><trkpt lat="44.42912764744557" lon="8.823598100793813"><ele>33.0</ele><time>2026-04-21T11:25:04.999Z</time></trkpt><trkpt lat="44.429090522876656" lon="8.823862317382059"><ele>35.0</ele><time>2026-04-21T11:25:05.999Z</time></trkpt><trkpt lat="44.429079379192146" lon="8.82413411480379"><ele>35.33333333333333</ele><time>2026-04-21T11:25:06.999Z</time></trkpt><trkpt lat="44.429081649017355" lon="8.824420007013192"><ele>35.666666666666664</ele><time>2026-04-21T11:25:07.999Z</time></trkpt><trkpt lat="44.42909947096194" lon="8.824706493789172"><ele>36.0</ele><time>2026-04-21T11:25:08.999Z</time></trkpt><trkpt lat="44.42913515910737" lon="8.824991620136453"><ele>37.0</ele><time>2026-04-21T11:25:09.999Z</time></trkpt><trkpt lat="44.42919251309907" lon="8.82527735940158"><ele>38.0</ele><time>2026-04-21T11:25:10.999Z</time></trkpt><trkpt lat="44.42926821654967" lon="8.825564860541395"><ele>39.0</ele><time>2026-04-21T11:25:11.999Z</time></trkpt><trkpt lat="44.429357515195306" lon="8.825843290162299"><ele>44.66666666666667</ele><time>2026-04-21T11:25:12.999Z</time></trkpt><trkpt lat="44.42945054559646" lon="8.826129388725816"><ele>50.333333333333336</ele><time>2026-04-21T11:25:13.999Z</time></trkpt><trkpt lat="44.42952440540014" lon="8.826405249056192"><ele>56.0</ele><time>2026-04-21T11:25:14.999Z</time></trkpt><trkpt lat="44.42958087367569" lon="8.82669449570461"><ele>56.0</ele><time>2026-04-21T11:25:15.999Z</time></trkpt><trkpt lat="44.42962278033036" lon="8.826974799519487"><ele>56.0</ele><time>2026-04-21T11:25:16.999Z</time></trkpt><trkpt lat="44.4296441624667" lon="8.827257251418807"><ele>56.0</ele><time>2026-04-21T11:25:17.999Z</time></trkpt><trkpt lat="44.42965021928942" lon="8.8275481005831"><ele>59.333333333333336</ele><time>2026-04-21T11:25:19Z</time></trkpt><trkpt lat="44.42964353525681" lon="8.827846334355014"><ele>62.66666666666667</ele><time>2026-04-21T11:25:20Z</time></trkpt><trkpt lat="44.42963286721457" lon="8.828154839267352"><ele>66.0</ele><time>2026-04-21T11:25:21Z</time></trkpt><trkpt lat="44.42962345621414" lon="8.828457301672236"><ele>71.66666666666667</ele><time>2026-04-21T11:25:22Z</time></trkpt><trkpt lat="44.42961923547607" lon="8.828752683945774"><ele>77.33333333333334</ele><time>2026-04-21T11:25:23Z</time></trkpt><trkpt lat="44.42962009272668" lon="8.829044773085005"><ele>83.0</ele><time>2026-04-21T11:25:24Z</time></trkpt><trkpt lat="44.42961364330032" lon="8.829317659284055"><ele>84.0</ele><time>2026-04-21T11:25:25Z</time></trkpt><trkpt lat="44.42960908508643" lon="8.829573167083247"><ele>85.0</ele><time>2026-04-21T11:25:26Z</time></trkpt><trkpt lat="44.42961367972082" lon="8.8298595142"><ele>86.0</ele><time>2026-04-21T11:25:27.058Z</time></trkpt><trkpt lat="44.42961847539011" lon="8.830124631869905"><ele>84.0</ele><time>2026-04-21T11:25:28.061Z</time></trkpt><trkpt lat="44.429594626004715" lon="8.830376309672515"><ele>82.0</ele><time>2026-04-21T11:25:29.058Z</time></trkpt><trkpt lat="44.42958395620804" lon="8.830634821855421"><ele>80.0</ele><time>2026-04-21T11:25:30.06Z</time></trkpt><trkpt lat="44.42957248874455" lon="8.830896997837923"><ele>73.5</ele><time>2026-04-21T11:25:31.043Z</time></trkpt><trkpt lat="44.429560652060324" lon="8.831164839630206"><ele>67.0</ele><time>2026-04-21T11:25:32.039Z</time></trkpt><trkpt lat="44.42960291849076" lon="8.833963052781204"><ele>42.0</ele><time>2026-04-21T11:25:35.541Z</time></trkpt><trkpt lat="44.42951303567887" lon="8.833075350736353"><ele>42.0</ele><time>2026-04-21T11:25:38Z</time></trkpt><trkpt lat="44.42953450756092" lon="8.833390216725705"><ele>42.0</ele><time>2026-04-21T11:25:39Z</time></trkpt><trkpt lat="44.42957438490371" lon="8.83371727741579"><ele>40.333333333333336</ele><time>2026-04-21T11:25:40Z</time></trkpt><trkpt lat="44.42963636622354" lon="8.834020801661877"><ele>38.66666666666667</ele><time>2026-04-21T11:25:41Z</time></trkpt><trkpt lat="44.42968612911741" lon="8.834310904024404"><ele>37.0</ele><time>2026-04-21T11:25:42Z</time></trkpt><trkpt lat="44.42974105358313" lon="8.834571716502367"><ele>43.0</ele><time>2026-04-21T11:25:43Z</time></trkpt><trkpt lat="44.42982358128173" lon="8.834879851925354"><ele>49.0</ele><time>2026-04-21T11:25:44Z</time></trkpt><trkpt lat="44.429927384474205" lon="8.835158276853186"><ele>49.0</ele><time>2026-04-21T11:25:45Z</time></trkpt><trkpt lat="44.42999687118701" lon="8.835489617335687"><ele>49.0</ele><time>2026-04-21T11:25:46Z</time></trkpt><trkpt lat="44.43005835373601" lon="8.835788666479745"><ele>49.33333333333333</ele><time>2026-04-21T11:25:47Z</time></trkpt><trkpt lat="44.43012308840252" lon="8.836019341912628"><ele>49.66666666666667</ele><time>2026-04-21T11:25:48Z</time></trkpt><trkpt lat="44.43017121631221" lon="8.836277277230778"><ele>50.0</ele><time>2026-04-21T11:25:49Z</time></trkpt><trkpt lat="44.430199408945306" lon="8.836551466692326"><ele>49.0</ele><time>2026-04-21T11:25:50Z</time></trkpt><trkpt lat="44.43020629331798" lon="8.836834200941388"><ele>48.0</ele><time>2026-04-21T11:25:51Z</time></trkpt><trkpt lat="44.43017351457497" lon="8.837105489428641"><ele>47.0</ele><time>2026-04-21T11:25:52Z</time></trkpt><trkpt lat="44.43013368071843" lon="8.83738471221351"><ele>44.33333333333333</ele><time>2026-04-21T11:25:53Z</time></trkpt><trkpt lat="44.430074578779504" lon="8.837678452237379"><ele>41.666666666666664</ele><time>2026-04-21T11:25:54Z</time></trkpt><trkpt lat="44.43001119537582" lon="8.837942586809676"><ele>39.0</ele><time>2026-04-21T11:25:55Z</time></trkpt><trkpt lat="44.429964620801876" lon="8.83821479864411"><ele>36.666666666666664</ele><time>2026-04-21T11:25:56Z</time></trkpt><trkpt lat="44.429936618950045" lon="8.838485782909409"><ele>34.33333333333333</ele><time>2026-04-21T11:25:57Z</time></trkpt><trkpt lat="44.429935556771724" lon="8.838766832627382"><ele>32.0</ele><time>2026-04-21T11:25:58Z</time></trkpt><trkpt lat="44.429948880486286" lon="8.839046537312434"><ele>34.33333333333333</ele><time>2026-04-21T11:25:59Z</time></trkpt><trkpt lat="44.42997854632418" lon="8.839326251260202"><ele>36.666666666666664</ele><time>2026-04-21T11:26:00Z</time></trkpt><trkpt lat="44.43002719446313" lon="8.839611221761091"><ele>39.0</ele><time>2026-04-21T11:26:01Z</time></trkpt><trkpt lat="44.43009391837409" lon="8.839903871360383"><ele>44.0</ele><time>2026-04-21T11:26:02Z</time></trkpt><trkpt lat="44.43017673018519" lon="8.840187066440267"><ele>49.0</ele><time>2026-04-21T11:26:03Z</time></trkpt><trkpt lat="44.43027568346868" lon="8.840456098500672"><ele>54.0</ele><time>2026-04-21T11:26:04Z</time></trkpt><trkpt lat="44.43038872312989" lon="8.840723669164438"><ele>58.33333333333333</ele><time>2026-04-21T11:26:05Z</time></trkpt><trkpt lat="44.43049107947719" lon="8.840988635105328"><ele>62.666666666666664</ele><time>2026-04-21T11:26:06Z</time></trkpt><trkpt lat="44.43058059478272" lon="8.841275120838533"><ele>67.0</ele><time>2026-04-21T11:26:07Z</time></trkpt><trkpt lat="44.43064968763296" lon="8.841572116221851"><ele>64.66666666666666</ele><time>2026-04-21T11:26:08Z</time></trkpt><trkpt lat="44.430695464849975" lon="8.841852969073221"><ele>62.33333333333333</ele><time>2026-04-21T11:26:09Z</time></trkpt><trkpt lat="44.43073200157285" lon="8.842149979194268"><ele>60.0</ele><time>2026-04-21T11:26:10.064Z</time></trkpt><trkpt lat="44.43075462006047" lon="8.842432590538735"><ele>34.0</ele><time>2026-04-21T11:26:11.06Z</time></trkpt><trkpt lat="44.43017816719269" lon="8.846300505989468"><ele>39.0</ele><time>2026-04-21T11:26:15.542Z</time></trkpt><trkpt lat="44.43019193839934" lon="8.847425875775897"><ele>46.0</ele><time>2026-04-21T11:26:16.542Z</time></trkpt><trkpt lat="44.430323174360524" lon="8.84853922442136"><ele>39.0</ele><time>2026-04-21T11:26:17.541Z</time></trkpt><trkpt lat="44.430387086907636" lon="8.845243963259389"><ele>39.0</ele><time>2026-04-21T11:26:20Z</time></trkpt><trkpt lat="44.430329271616465" lon="8.845624212250979"><ele>39.0</ele><time>2026-04-21T11:26:21Z</time></trkpt><trkpt lat="44.43027497946896" lon="8.845934318887286"><ele>36.5</ele><time>2026-04-21T11:26:22Z</time></trkpt><trkpt lat="44.43024867013083" lon="8.846271718190456"><ele>34.0</ele><time>2026-04-21T11:26:23Z</time></trkpt><trkpt lat="44.430211888076165" lon="8.846566475462092"><ele>36.5</ele><time>2026-04-21T11:26:24Z</time></trkpt><trkpt lat="44.43014733169724" lon="8.846877991977077"><ele>39.0</ele><time>2026-04-21T11:26:25Z</time></trkpt><trkpt lat="44.43012808114845" lon="8.8471968961052"><ele>39.0</ele><time>2026-04-21T11:26:26Z</time></trkpt><trkpt lat="44.43018124338579" lon="8.847358027296591"><ele>39.0</ele><time>2026-04-21T11:26:27Z</time></trkpt><trkpt lat="44.43021826768242" lon="8.847639128701486"><ele>39.0</ele><time>2026-04-21T11:26:28Z</time></trkpt><trkpt lat="44.430251010166366" lon="8.847925085632113"><ele>41.0</ele><time>2026-04-21T11:26:29Z</time></trkpt><trkpt lat="44.430337468725305" lon="8.848227517764808"><ele>43.0</ele><time>2026-04-21T11:26:30Z</time></trkpt><trkpt lat="44.430396172819144" lon="8.848534819142772"><ele>44.0</ele><time>2026-04-21T11:26:31Z</time></trkpt><trkpt lat="44.43046090333195" lon="8.848841838909697"><ele>45.0</ele><time>2026-04-21T11:26:32Z</time></trkpt><trkpt lat="44.43049840583444" lon="8.849145614867602"><ele>46.0</ele><time>2026-04-21T11:26:33Z</time></trkpt><trkpt lat="44.430544452925645" lon="8.84944289912934"><ele>50.0</ele><time>2026-04-21T11:26:34.06Z</time></trkpt><trkpt lat="44.43057015212307" lon="8.849724760674293"><ele>54.0</ele><time>2026-04-21T11:26:35.055Z</time></trkpt><trkpt lat="44.43058247062467" lon="8.850010619190458"><ele>58.0</ele><time>2026-04-21T11:26:36.054Z</time></trkpt><trkpt lat="44.43057879049219" lon="8.850296016595767"><ele>22.0</ele><time>2026-04-21T11:26:37.053Z</time></trkpt><trkpt lat="44.43003535069844" lon="8.853934339058757"><ele>22.0</ele><time>2026-04-21T11:26:48Z</time></trkpt><trkpt lat="44.429962976361296" lon="8.854250040123315"><ele>22.0</ele><time>2026-04-21T11:26:49Z</time></trkpt><trkpt lat="44.42988223205061" lon="8.854562485754583"><ele>21.5</ele><time>2026-04-21T11:26:50Z</time></trkpt><trkpt lat="44.429826198851146" lon="8.85486836046374"><ele>21.0</ele><time>2026-04-21T11:26:51.001Z</time></trkpt><trkpt lat="44.42976477951042" lon="8.855171985062336"><ele>24.333333333333336</ele><time>2026-04-21T11:26:52.001Z</time></trkpt><trkpt lat="44.429713206298054" lon="8.855475549173718"><ele>27.666666666666668</ele><time>2026-04-21T11:26:53.001Z</time></trkpt><trkpt lat="44.42965964147412" lon="8.855777572335834"><ele>31.0</ele><time>2026-04-21T11:26:54.001Z</time></trkpt><trkpt lat="44.42959948162586" lon="8.856080149601775"><ele>31.0</ele><time>2026-04-21T11:26:55.001Z</time></trkpt><trkpt lat="44.429543816842916" lon="8.856382463940408"><ele>31.0</ele><time>2026-04-21T11:26:56.001Z</time></trkpt><trkpt lat="44.42948880820855" lon="8.856670432491647"><ele>31.0</ele><time>2026-04-21T11:26:57.001Z</time></trkpt><trkpt lat="44.42943425790245" lon="8.856940224472561"><ele>29.0</ele><time>2026-04-21T11:26:57.999Z</time></trkpt><trkpt lat="44.42936765246183" lon="8.857197931877751"><ele>27.0</ele><time>2026-04-21T11:26:58.999Z</time></trkpt><trkpt lat="44.42928488330538" lon="8.857438795767802"><ele>25.0</ele><time>2026-04-21T11:26:59.999Z</time></trkpt><trkpt lat="44.42918886979127" lon="8.857685369540619"><ele>23.0</ele><time>2026-04-21T11:27:00.999Z</time></trkpt><trkpt lat="44.42907577194605" lon="8.857924584259063"><ele>21.0</ele><time>2026-04-21T11:27:01.999Z</time></trkpt><trkpt lat="44.42894756271864" lon="8.858152818924536"><ele>19.0</ele><time>2026-04-21T11:27:02.999Z</time></trkpt><trkpt lat="44.42881359944551" lon="8.858392118119102"><ele>18.333333333333332</ele><time>2026-04-21T11:27:03.999Z</time></trkpt><trkpt lat="44.42868515583925" lon="8.858639388831442"><ele>17.666666666666668</ele><time>2026-04-21T11:27:04.999Z</time></trkpt><trkpt lat="44.428556046023836" lon="8.85889116120703"><ele>17.0</ele><time>2026-04-21T11:27:05.999Z</time></trkpt><trkpt lat="44.42842590845759" lon="8.859143575110794"><ele>20.0</ele><time>2026-04-21T11:27:06.999Z</time></trkpt><trkpt lat="44.428294571002354" lon="8.859391745949129"><ele>23.0</ele><time>2026-04-21T11:27:07.999Z</time></trkpt><trkpt lat="44.4281667207221" lon="8.85963266338917"><ele>26.0</ele><time>2026-04-21T11:27:09Z</time></trkpt><trkpt lat="44.42803873351248" lon="8.859883149156769"><ele>41.0</ele><time>2026-04-21T11:27:10Z</time></trkpt><trkpt lat="44.42790856049086" lon="8.860138023930674"><ele>56.0</ele><time>2026-04-21T11:27:11Z</time></trkpt><trkpt lat="44.42777869402385" lon="8.860399703988122"><ele>56.0</ele><time>2026-04-21T11:27:12Z</time></trkpt><trkpt lat="44.42764830988029" lon="8.860666753369406"><ele>56.0</ele><time>2026-04-21T11:27:13Z</time></trkpt><trkpt lat="44.42751588599845" lon="8.860933473114143"><ele>58.0</ele><time>2026-04-21T11:27:14Z</time></trkpt><trkpt lat="44.42739045268464" lon="8.861196892834538"><ele>60.0</ele><time>2026-04-21T11:27:15Z</time></trkpt><trkpt lat="44.42726810769732" lon="8.861460285391516"><ele>69.66666666666667</ele><time>2026-04-21T11:27:16Z</time></trkpt><trkpt lat="44.427140723190156" lon="8.86171681583479"><ele>79.33333333333334</ele><time>2026-04-21T11:27:17Z</time></trkpt><trkpt lat="44.427014470163584" lon="8.861967259262041"><ele>89.0</ele><time>2026-04-21T11:27:18Z</time></trkpt><trkpt lat="44.42688222104259" lon="8.8622206745667"><ele>91.0</ele><time>2026-04-21T11:27:19Z</time></trkpt><trkpt lat="44.42674229434434" lon="8.862473501802253"><ele>93.0</ele><time>2026-04-21T11:27:20Z</time></trkpt><trkpt lat="44.42660433470354" lon="8.862740040726576"><ele>101.5</ele><time>2026-04-21T11:27:21Z</time></trkpt><trkpt lat="44.42646686409423" lon="8.863020324023738"><ele>110.0</ele><time>2026-04-21T11:27:22Z</time></trkpt><trkpt lat="44.42633282031463" lon="8.86331491696119"><ele>114.5</ele><time>2026-04-21T11:27:23Z</time></trkpt><trkpt lat="44.42619929913895" lon="8.863621803934947"><ele>119.0</ele><time>2026-04-21T11:27:24Z</time></trkpt><trkpt lat="44.42605980820733" lon="8.863935240534373"><ele>119.0</ele><time>2026-04-21T11:27:25Z</time></trkpt><trkpt lat="44.42590511401123" lon="8.864274357024094"><ele>119.0</ele><time>2026-04-21T11:27:26.064Z</time></trkpt><trkpt lat="44.4257576905172" lon="8.86459551931899"><ele>118.5</ele><time>2026-04-21T11:27:27.063Z</time></trkpt><trkpt lat="44.42561631509641" lon="8.864901626804198"><ele>118.0</ele><time>2026-04-21T11:27:28.062Z</time></trkpt><trkpt lat="44.425472154698284" lon="8.86521264003254"><ele>118.0</ele><time>2026-04-21T11:27:29.06Z</time></trkpt><trkpt lat="44.425327380175354" lon="8.865524580930629"><ele>118.0</ele><time>2026-04-21T11:27:30.055Z</time></trkpt><trkpt lat="44.42417422371479" lon="8.868012714345499"><ele>103.33333333333334</ele><time>2026-04-21T11:27:41Z</time></trkpt><trkpt lat="44.4241104099526" lon="8.868247696925476"><ele>88.66666666666667</ele><time>2026-04-21T11:27:42Z</time></trkpt><trkpt lat="44.424051790937796" lon="8.868504558541767"><ele>74.0</ele><time>2026-04-21T11:27:43Z</time></trkpt><trkpt lat="44.42400180605442" lon="8.86873717819964"><ele>74.0</ele><time>2026-04-21T11:27:44Z</time></trkpt><trkpt lat="44.42398353673784" lon="8.868998392148761"><ele>74.0</ele><time>2026-04-21T11:27:45Z</time></trkpt><trkpt lat="44.423979604978044" lon="8.869271335793126"><ele>74.0</ele><time>2026-04-21T11:27:46Z</time></trkpt><trkpt lat="44.42400038844413" lon="8.869539397247275"><ele>76.33333333333334</ele><time>2026-04-21T11:27:47Z</time></trkpt><trkpt lat="44.42402876575878" lon="8.869784490557805"><ele>78.66666666666667</ele><time>2026-04-21T11:27:48Z</time></trkpt><trkpt lat="44.42408072683057" lon="8.870020677902879"><ele>81.0</ele><time>2026-04-21T11:27:49Z</time></trkpt><trkpt lat="44.42415189477444" lon="8.870270539817096"><ele>84.33333333333333</ele><time>2026-04-21T11:27:50Z</time></trkpt><trkpt lat="44.4242353965113" lon="8.870527690530837"><ele>87.66666666666666</ele><time>2026-04-21T11:27:51Z</time></trkpt><trkpt lat="44.42432516243639" lon="8.870796238040892"><ele>91.0</ele><time>2026-04-21T11:27:52Z</time></trkpt><trkpt lat="44.42441864971148" lon="8.871076866343653"><ele>97.0</ele><time>2026-04-21T11:27:53Z</time></trkpt><trkpt lat="44.424515282032274" lon="8.871370831848788"><ele>103.0</ele><time>2026-04-21T11:27:54Z</time></trkpt><trkpt lat="44.424615706040754" lon="8.871676396904917"><ele>107.5</ele><time>2026-04-21T11:27:55Z</time></trkpt><trkpt lat="44.42471928609767" lon="8.871994580430387"><ele>112.0</ele><time>2026-04-21T11:27:56Z</time></trkpt><trkpt lat="44.42483596595327" lon="8.872345221084304"><ele>109.0</ele><time>2026-04-21T11:27:57.065Z</time></trkpt><trkpt lat="44.42495468900294" lon="8.872692198853196"><ele>106.0</ele><time>2026-04-21T11:27:58.058Z</time></trkpt><trkpt lat="44.42506996313975" lon="8.873037015051276"><ele>124.0</ele><time>2026-04-21T11:27:59.062Z</time></trkpt><trkpt lat="44.426123154942026" lon="8.87657775649576"><ele>134.0</ele><time>2026-04-21T11:28:03.545Z</time></trkpt><trkpt lat="44.42641480351531" lon="8.877492608997267"><ele>125.0</ele><time>2026-04-21T11:28:04.542Z</time></trkpt><trkpt lat="44.426707795204415" lon="8.878414046645586"><ele>84.0</ele><time>2026-04-21T11:28:05.546Z</time></trkpt><trkpt lat="44.4269999913001" lon="8.879328883340408"><ele>61.0</ele><time>2026-04-21T11:28:06.542Z</time></trkpt><trkpt lat="44.427292034650634" lon="8.880245277402423"><ele>41.0</ele><time>2026-04-21T11:28:07.541Z</time></trkpt><trkpt lat="44.42770090731935" lon="8.881450555844562"><ele>41.0</ele><time>2026-04-21T11:28:28Z</time></trkpt><trkpt lat="44.427759801641734" lon="8.88169015430508"><ele>41.0</ele><time>2026-04-21T11:28:29Z</time></trkpt><trkpt lat="44.42780908782053" lon="8.881982527353486"><ele>41.0</ele><time>2026-04-21T11:28:30Z</time></trkpt><trkpt lat="44.42782362249824" lon="8.88223260725302"><ele>33.666666666666664</ele><time>2026-04-21T11:28:31Z</time></trkpt><trkpt lat="44.42783928630688" lon="8.882517187867123"><ele>26.333333333333332</ele><time>2026-04-21T11:28:32Z</time></trkpt><trkpt lat="44.42783685272051" lon="8.882793448517786"><ele>19.0</ele><time>2026-04-21T11:28:33Z</time></trkpt><trkpt lat="44.427812341814956" lon="8.883073890111847"><ele>18.0</ele><time>2026-04-21T11:28:34.001Z</time></trkpt><trkpt lat="44.42777961749799" lon="8.883351848628855"><ele>17.0</ele><time>2026-04-21T11:28:35.001Z</time></trkpt><trkpt lat="44.42772098140086" lon="8.883633182165457"><ele>16.0</ele><time>2026-04-21T11:28:36.001Z</time></trkpt><trkpt lat="44.427645892884186" lon="8.883918608376774"><ele>16.0</ele><time>2026-04-21T11:28:37.001Z</time></trkpt><trkpt lat="44.42756796911355" lon="8.88420225228693"><ele>16.0</ele><time>2026-04-21T11:28:38.001Z</time></trkpt><trkpt lat="44.427469586890446" lon="8.88447373569383"><ele>16.0</ele><time>2026-04-21T11:28:39.001Z</time></trkpt><trkpt lat="44.42736837648676" lon="8.884755431726667"><ele>16.5</ele><time>2026-04-21T11:28:40.001Z</time></trkpt><trkpt lat="44.4272622919918" lon="8.885039929315381"><ele>17.0</ele><time>2026-04-21T11:28:41.001Z</time></trkpt><trkpt lat="44.42715479591469" lon="8.885325511703625"><ele>15.0</ele><time>2026-04-21T11:28:42.001Z</time></trkpt><trkpt lat="44.42703991679725" lon="8.885600718951624"><ele>13.0</ele><time>2026-04-21T11:28:43.001Z</time></trkpt><trkpt lat="44.426922442153895" lon="8.885885416153657"><ele>14.0</ele><time>2026-04-21T11:28:44.001Z</time></trkpt><trkpt lat="44.426806062499125" lon="8.886170870385842"><ele>15.0</ele><time>2026-04-21T11:28:45.001Z</time></trkpt><trkpt lat="44.426691045402166" lon="8.886459631476281"><ele>15.0</ele><time>2026-04-21T11:28:46.001Z</time></trkpt><trkpt lat="44.42657398924457" lon="8.886745914281889"><ele>15.0</ele><time>2026-04-21T11:28:47.001Z</time></trkpt><trkpt lat="44.426452818826576" lon="8.887036788476513"><ele>15.5</ele><time>2026-04-21T11:28:48.001Z</time></trkpt><trkpt lat="44.42633819751243" lon="8.887319817316756"><ele>16.0</ele><time>2026-04-21T11:28:49.001Z</time></trkpt><trkpt lat="44.42621914052184" lon="8.887606665268759"><ele>14.0</ele><time>2026-04-21T11:28:50.001Z</time></trkpt><trkpt lat="44.426109644930655" lon="8.887870711510224"><ele>12.0</ele><time>2026-04-21T11:28:51.001Z</time></trkpt><trkpt lat="44.42599858152783" lon="8.888156132077333"><ele>12.0</ele><time>2026-04-21T11:28:52.001Z</time></trkpt><trkpt lat="44.425895073021984" lon="8.888425058745453"><ele>12.0</ele><time>2026-04-21T11:28:53.001Z</time></trkpt><trkpt lat="44.425780700719756" lon="8.88869770487348"><ele>12.0</ele><time>2026-04-21T11:28:54.001Z</time></trkpt><trkpt lat="44.42566543649614" lon="8.888970982535968"><ele>13.0</ele><time>2026-04-21T11:28:55.001Z</time></trkpt><trkpt lat="44.42554940218917" lon="8.88925599893822"><ele>14.0</ele><time>2026-04-21T11:28:56.001Z</time></trkpt><trkpt lat="44.425435617999675" lon="8.889544326707053"><ele>15.5</ele><time>2026-04-21T11:28:57.001Z</time></trkpt><trkpt lat="44.42531995239457" lon="8.889832899465029"><ele>17.0</ele><time>2026-04-21T11:28:58.001Z</time></trkpt><trkpt lat="44.42520301632413" lon="8.890126570341634"><ele>17.0</ele><time>2026-04-21T11:28:59.001Z</time></trkpt><trkpt lat="44.42508267449712" lon="8.89042310722496"><ele>17.0</ele><time>2026-04-21T11:29:00.001Z</time></trkpt><trkpt lat="44.424959238935074" lon="8.890718457087425"><ele>17.5</ele><time>2026-04-21T11:29:01.001Z</time></trkpt><trkpt lat="44.42483363841211" lon="8.891009011055674"><ele>18.0</ele><time>2026-04-21T11:29:02.001Z</time></trkpt><trkpt lat="44.42471634302255" lon="8.89129173471999"><ele>17.666666666666668</ele><time>2026-04-21T11:29:03.001Z</time></trkpt><trkpt lat="44.42460617358142" lon="8.891559766245878"><ele>17.333333333333336</ele><time>2026-04-21T11:29:04Z</time></trkpt><trkpt lat="44.42449728497804" lon="8.891823919901107"><ele>17.0</ele><time>2026-04-21T11:29:05Z</time></trkpt><trkpt lat="44.424394060975764" lon="8.892055614847125"><ele>20.2</ele><time>2026-04-21T11:29:06Z</time></trkpt><trkpt lat="44.42431744237512" lon="8.892227831377015"><ele>23.4</ele><time>2026-04-21T11:29:07Z</time></trkpt><trkpt lat="44.42426347018914" lon="8.892352219840461"><ele>26.599999999999998</ele><time>2026-04-21T11:29:08Z</time></trkpt><trkpt lat="44.424227654111085" lon="8.892427271554682"><ele>29.799999999999997</ele><time>2026-04-21T11:29:09Z</time></trkpt><trkpt lat="44.42418077233599" lon="8.892582029988569"><ele>33.0</ele><time>2026-04-21T11:29:12Z</time></trkpt><trkpt lat="44.42413750851037" lon="8.892695755070733"><ele>38.4</ele><time>2026-04-21T11:29:13Z</time></trkpt><trkpt lat="44.424085712316455" lon="8.89282473223795"><ele>43.8</ele><time>2026-04-21T11:29:14Z</time></trkpt><trkpt lat="44.42402306387318" lon="8.892963730634946"><ele>49.2</ele><time>2026-04-21T11:29:15Z</time></trkpt><trkpt lat="44.423962093383196" lon="8.893099252126948"><ele>54.6</ele><time>2026-04-21T11:29:16Z</time></trkpt><trkpt lat="44.42391099218266" lon="8.893220628623238"><ele>60.0</ele><time>2026-04-21T11:29:17Z</time></trkpt><trkpt lat="44.423865420095915" lon="8.893326093078793"><ele>61.333333333333336</ele><time>2026-04-21T11:29:18Z</time></trkpt><trkpt lat="44.42381235259395" lon="8.893444363273527"><ele>62.66666666666667</ele><time>2026-04-21T11:29:19Z</time></trkpt><trkpt lat="44.42375354563744" lon="8.893547652778544"><ele>64.0</ele><time>2026-04-21T11:29:20Z</time></trkpt><trkpt lat="44.42369808806594" lon="8.893626211736803"><ele>65.33333333333334</ele><time>2026-04-21T11:29:21Z</time></trkpt><trkpt lat="44.42363862025502" lon="8.893691291278017"><ele>66.66666666666667</ele><time>2026-04-21T11:29:22Z</time></trkpt><trkpt lat="44.42356990099902" lon="8.893736530748862"><ele>68.0</ele><time>2026-04-21T11:29:23Z</time></trkpt><trkpt lat="44.42349815036558" lon="8.893751592244072"><ele>68.0</ele><time>2026-04-21T11:29:24Z</time></trkpt><trkpt lat="44.42343624789015" lon="8.893778983786726"><ele>68.0</ele><time>2026-04-21T11:29:25Z</time></trkpt><trkpt lat="44.42333327161929" lon="8.89380237269218"><ele>68.0</ele><time>2026-04-21T11:29:27Z</time></trkpt><trkpt lat="44.42322957295149" lon="8.89382818046233"><ele>68.0</ele><time>2026-04-21T11:29:29Z</time></trkpt><trkpt lat="44.42313395089421" lon="8.893863080699381"><ele>68.0</ele><time>2026-04-21T11:29:31Z</time></trkpt><trkpt lat="44.423010676231854" lon="8.893899253224886"><ele>66.16666666666667</ele><time>2026-04-21T11:29:33Z</time></trkpt><trkpt lat="44.42289483519437" lon="8.893899821083004"><ele>64.33333333333334</ele><time>2026-04-21T11:29:35Z</time></trkpt><trkpt lat="44.42278663997958" lon="8.893841867925868"><ele>62.5</ele><time>2026-04-21T11:29:37Z</time></trkpt><trkpt lat="44.42273412416549" lon="8.893786868932166"><ele>60.66666666666667</ele><time>2026-04-21T11:29:38Z</time></trkpt><trkpt lat="44.42268821355724" lon="8.893723009921768"><ele>58.833333333333336</ele><time>2026-04-21T11:29:39Z</time></trkpt><trkpt lat="44.42264954581035" lon="8.893649819442546"><ele>57.0</ele><time>2026-04-21T11:29:40Z</time></trkpt><trkpt lat="44.42261194580556" lon="8.893577297723166"><ele>52.4</ele><time>2026-04-21T11:29:41Z</time></trkpt><trkpt lat="44.42257607469113" lon="8.893407386162604"><ele>47.800000000000004</ele><time>2026-04-21T11:29:43Z</time></trkpt><trkpt lat="44.42258288260798" lon="8.893305765487467"><ele>43.2</ele><time>2026-04-21T11:29:44Z</time></trkpt><trkpt lat="44.42260050331111" lon="8.893204819036626"><ele>38.6</ele><time>2026-04-21T11:29:45Z</time></trkpt><trkpt lat="44.42262297866497" lon="8.89312117867423"><ele>34.0</ele><time>2026-04-21T11:29:46Z</time></trkpt><trkpt lat="44.422688081082434" lon="8.89298559055301"><ele>34.0</ele><time>2026-04-21T11:29:48Z</time></trkpt><trkpt lat="44.422778966556145" lon="8.892883445976492"><ele>34.0</ele><time>2026-04-21T11:29:50Z</time></trkpt><trkpt lat="44.42283852184" lon="8.892840479416742"><ele>34.0</ele><time>2026-04-21T11:29:51Z</time></trkpt><trkpt lat="44.422905690395694" lon="8.89280698055159"><ele>34.0</ele><time>2026-04-21T11:29:52Z</time></trkpt><trkpt lat="44.422970806290905" lon="8.892794436013512"><ele>34.0</ele><time>2026-04-21T11:29:53Z</time></trkpt><trkpt lat="44.423038163608254" lon="8.892800882848793"><ele>34.0</ele><time>2026-04-21T11:29:54Z</time></trkpt><trkpt lat="44.42311076781262" lon="8.892829973111484"><ele>37.0</ele><time>2026-04-21T11:29:55Z</time></trkpt><trkpt lat="44.423183212138134" lon="8.892881026914312"><ele>40.0</ele><time>2026-04-21T11:29:56Z</time></trkpt><trkpt lat="44.423250096347424" lon="8.892944955779523"><ele>43.0</ele><time>2026-04-21T11:29:57Z</time></trkpt><trkpt lat="44.423334530784054" lon="8.893089492358552"><ele>46.0</ele><time>2026-04-21T11:29:59Z</time></trkpt><trkpt lat="44.42337319873245" lon="8.89318837839623"><ele>49.0</ele><time>2026-04-21T11:30:00Z</time></trkpt><trkpt lat="44.42341039553089" lon="8.893290933208512"><ele>48.99999999999999</ele><time>2026-04-21T11:30:01Z</time></trkpt><trkpt lat="44.42344805233098" lon="8.893385880400261"><ele>49.0</ele><time>2026-04-21T11:30:02Z</time></trkpt><trkpt lat="44.42348230332433" lon="8.89347474099245"><ele>49.0</ele><time>2026-04-21T11:30:03Z</time></trkpt><trkpt lat="44.423518233155605" lon="8.893564182923443"><ele>49.0</ele><time>2026-04-21T11:30:04Z</time></trkpt><trkpt lat="44.4235509018367" lon="8.893650160415934"><ele>48.99999999999999</ele><time>2026-04-21T11:30:05Z</time></trkpt><trkpt lat="44.423620221235396" lon="8.893813978123578"><ele>49.0</ele><time>2026-04-21T11:30:07Z</time></trkpt><trkpt lat="44.42365972558428" lon="8.893913758819428"><ele>52.166666666666664</ele><time>2026-04-21T11:30:08Z</time></trkpt><trkpt lat="44.423697898215934" lon="8.894001574618086"><ele>55.33333333333333</ele><time>2026-04-21T11:30:09Z</time></trkpt><trkpt lat="44.423745233907496" lon="8.894097074156154"><ele>58.5</ele><time>2026-04-21T11:30:10Z</time></trkpt><trkpt lat="44.423801481111624" lon="8.894186100062754"><ele>61.66666666666667</ele><time>2026-04-21T11:30:11Z</time></trkpt><trkpt lat="44.4238741350329" lon="8.894258299957308"><ele>64.83333333333334</ele><time>2026-04-21T11:30:12Z</time></trkpt><trkpt lat="44.42396175033862" lon="8.894312432745524"><ele>68.0</ele><time>2026-04-21T11:30:13Z</time></trkpt><trkpt lat="44.42404951214441" lon="8.894336322988075"><ele>75.4</ele><time>2026-04-21T11:30:14Z</time></trkpt><trkpt lat="44.424146576738124" lon="8.894336299951947"><ele>82.8</ele><time>2026-04-21T11:30:15Z</time></trkpt><trkpt lat="44.42424471792784" lon="8.894313690951167"><ele>90.2</ele><time>2026-04-21T11:30:16Z</time></trkpt><trkpt lat="44.424351263127804" lon="8.894280623829765"><ele>97.6</ele><time>2026-04-21T11:30:17Z</time></trkpt><trkpt lat="44.42444886364222" lon="8.894283869697537"><ele>105.0</ele><time>2026-04-21T11:30:18Z</time></trkpt><trkpt lat="44.42455145743695" lon="8.894304291648526"><ele>101.5</ele><time>2026-04-21T11:30:19Z</time></trkpt><trkpt lat="44.424657804361715" lon="8.894356906021455"><ele>98.0</ele><time>2026-04-21T11:30:20Z</time></trkpt><trkpt lat="44.424763300677895" lon="8.89442821072754"><ele>94.5</ele><time>2026-04-21T11:30:21Z</time></trkpt><trkpt lat="44.42486877722275" lon="8.894505483342243"><ele>91.0</ele><time>2026-04-21T11:30:22Z</time></trkpt><trkpt lat="44.42497015515448" lon="8.894577475552477"><ele>91.0</ele><time>2026-04-21T11:30:23Z</time></trkpt><trkpt lat="44.42505691259273" lon="8.894656455544308"><ele>91.0</ele><time>2026-04-21T11:30:24Z</time></trkpt><trkpt lat="44.42514674856769" lon="8.894727800326322"><ele>91.0</ele><time>2026-04-21T11:30:25Z</time></trkpt><trkpt lat="44.42524770035045" lon="8.894815094806415"><ele>91.0</ele><time>2026-04-21T11:30:26Z</time></trkpt><trkpt lat="44.425347430450394" lon="8.894894034101213"><ele>91.0</ele><time>2026-04-21T11:30:27.001Z</time></trkpt><trkpt lat="44.42544389685686" lon="8.894972912722897"><ele>89.5</ele><time>2026-04-21T11:30:28.001Z</time></trkpt><trkpt lat="44.42553904633962" lon="8.895031878852446"><ele>88.0</ele><time>2026-04-21T11:30:29.001Z</time></trkpt><trkpt lat="44.42564571225299" lon="8.89508865239282"><ele>86.5</ele><time>2026-04-21T11:30:30.001Z</time></trkpt><trkpt lat="44.42576010427001" lon="8.895157839342328"><ele>85.0</ele><time>2026-04-21T11:30:31.001Z</time></trkpt><trkpt lat="44.42586703861892" lon="8.895243249907688"><ele>85.0</ele><time>2026-04-21T11:30:32.001Z</time></trkpt><trkpt lat="44.42597832346901" lon="8.89534476229307"><ele>85.0</ele><time>2026-04-21T11:30:33.001Z</time></trkpt><trkpt lat="44.42609637694486" lon="8.895457548269082"><ele>85.0</ele><time>2026-04-21T11:30:34.001Z</time></trkpt><trkpt lat="44.426215155025524" lon="8.895580488500705"><ele>85.0</ele><time>2026-04-21T11:30:35.001Z</time></trkpt><trkpt lat="44.426325743522185" lon="8.895709411775012"><ele>83.0</ele><time>2026-04-21T11:30:36.001Z</time></trkpt><trkpt lat="44.42642809242021" lon="8.895854798865361"><ele>81.0</ele><time>2026-04-21T11:30:37.001Z</time></trkpt><trkpt lat="44.42652226083639" lon="8.89602356963606"><ele>79.0</ele><time>2026-04-21T11:30:38.001Z</time></trkpt><trkpt lat="44.42661242998267" lon="8.896211652237277"><ele>79.0</ele><time>2026-04-21T11:30:39.001Z</time></trkpt><trkpt lat="44.426686582543326" lon="8.896406431475018"><ele>79.0</ele><time>2026-04-21T11:30:40.001Z</time></trkpt><trkpt lat="44.4267495883476" lon="8.896607440111787"><ele>79.0</ele><time>2026-04-21T11:30:41.001Z</time></trkpt><trkpt lat="44.42679585462489" lon="8.896818226609037"><ele>80.33333333333333</ele><time>2026-04-21T11:30:42.001Z</time></trkpt><trkpt lat="44.426835413412014" lon="8.897037375014698"><ele>81.66666666666667</ele><time>2026-04-21T11:30:43.001Z</time></trkpt><trkpt lat="44.4268732285529" lon="8.897259632832707"><ele>83.0</ele><time>2026-04-21T11:30:44.001Z</time></trkpt><trkpt lat="44.42691303773726" lon="8.897482152976744"><ele>86.33333333333334</ele><time>2026-04-21T11:30:45.001Z</time></trkpt><trkpt lat="44.42696086936028" lon="8.897705747555875"><ele>89.66666666666667</ele><time>2026-04-21T11:30:46.001Z</time></trkpt><trkpt lat="44.427022821156804" lon="8.897929828727925"><ele>93.0</ele><time>2026-04-21T11:30:47.001Z</time></trkpt><trkpt lat="44.42711018463041" lon="8.898144610894027"><ele>89.33333333333333</ele><time>2026-04-21T11:30:48.001Z</time></trkpt><trkpt lat="44.427196106328815" lon="8.89834357321366"><ele>85.66666666666666</ele><time>2026-04-21T11:30:49.001Z</time></trkpt><trkpt lat="44.427297385072755" lon="8.89853503102423"><ele>82.0</ele><time>2026-04-21T11:30:50.001Z</time></trkpt><trkpt lat="44.42740748274307" lon="8.89870944808823"><ele>89.33333333333333</ele><time>2026-04-21T11:30:51.001Z</time></trkpt><trkpt lat="44.4275361185373" lon="8.898886034223686"><ele>96.66666666666666</ele><time>2026-04-21T11:30:52.001Z</time></trkpt><trkpt lat="44.427677827224784" lon="8.899083550724274"><ele>104.0</ele><time>2026-04-21T11:30:53.001Z</time></trkpt><trkpt lat="44.427788703726264" lon="8.899260606034012"><ele>112.33333333333333</ele><time>2026-04-21T11:30:54.001Z</time></trkpt><trkpt lat="44.427930391977895" lon="8.899416589714514"><ele>120.66666666666666</ele><time>2026-04-21T11:30:55.001Z</time></trkpt><trkpt lat="44.42807883859768" lon="8.899529779140902"><ele>129.0</ele><time>2026-04-21T11:30:56.001Z</time></trkpt><trkpt lat="44.42823152212781" lon="8.899624768914977"><ele>135.66666666666666</ele><time>2026-04-21T11:30:57.001Z</time></trkpt><trkpt lat="44.42839200782088" lon="8.899706628929117"><ele>142.33333333333331</ele><time>2026-04-21T11:30:58.06Z</time></trkpt><trkpt lat="44.428539941900254" lon="8.899761646143387"><ele>149.0</ele><time>2026-04-21T11:30:59.063Z</time></trkpt><trkpt lat="44.42867962946681" lon="8.89982041815267"><ele>89.0</ele><time>2026-04-21T11:31:00.059Z</time></trkpt><trkpt lat="44.43073598300881" lon="8.8999802323145"><ele>89.0</ele><time>2026-04-21T11:31:09.001Z</time></trkpt><trkpt lat="44.430929112538266" lon="8.900005830095912"><ele>89.0</ele><time>2026-04-21T11:31:10.001Z</time></trkpt><trkpt lat="44.43113638991162" lon="8.90000122553157"><ele>89.0</ele><time>2026-04-21T11:31:11.001Z</time></trkpt><trkpt lat="44.432666204733906" lon="8.900142173885238"><ele>81.0</ele><time>2026-04-21T11:31:18Z</time></trkpt><trkpt lat="44.432887794948094" lon="8.900165509613032"><ele>73.0</ele><time>2026-04-21T11:31:19Z</time></trkpt><trkpt lat="44.433111925657705" lon="8.900201612655279"><ele>65.0</ele><time>2026-04-21T11:31:20Z</time></trkpt><trkpt lat="44.433338943342825" lon="8.900240950306038"><ele>65.0</ele><time>2026-04-21T11:31:21Z</time></trkpt><trkpt lat="44.43355573447541" lon="8.900261479824616"><ele>65.0</ele><time>2026-04-21T11:31:22Z</time></trkpt><trkpt lat="44.43377189797279" lon="8.900284781668907"><ele>65.0</ele><time>2026-04-21T11:31:23Z</time></trkpt><trkpt lat="44.43399389298654" lon="8.900304821517265"><ele>71.33333333333334</ele><time>2026-04-21T11:31:24Z</time></trkpt><trkpt lat="44.434214338806704" lon="8.900326244138025"><ele>77.66666666666667</ele><time>2026-04-21T11:31:25Z</time></trkpt><trkpt lat="44.43443770102632" lon="8.900352707285872"><ele>84.0</ele><time>2026-04-21T11:31:26Z</time></trkpt><trkpt lat="44.43466548251184" lon="8.900379829667877"><ele>91.0</ele><time>2026-04-21T11:31:27Z</time></trkpt><trkpt lat="44.43489327868164" lon="8.900406916232098"><ele>98.0</ele><time>2026-04-21T11:31:28Z</time></trkpt><trkpt lat="44.43511888141506" lon="8.900432058739897"><ele>98.0</ele><time>2026-04-21T11:31:29Z</time></trkpt><trkpt lat="44.43535298880123" lon="8.900456708008557"><ele>98.0</ele><time>2026-04-21T11:31:30Z</time></trkpt><trkpt lat="44.43557986137929" lon="8.900479993834395"><ele>62.0</ele><time>2026-04-21T11:31:31Z</time></trkpt><trkpt lat="44.437168560548706" lon="8.900944621051648"><ele>62.0</ele><time>2026-04-21T11:31:38Z</time></trkpt><trkpt lat="44.43739166030814" lon="8.901052468382652"><ele>62.0</ele><time>2026-04-21T11:31:39Z</time></trkpt><trkpt lat="44.4375957900358" lon="8.90119160949977"><ele>62.0</ele><time>2026-04-21T11:31:40Z</time></trkpt><trkpt lat="44.43780091148899" lon="8.90132710664777"><ele>62.0</ele><time>2026-04-21T11:31:41Z</time></trkpt><trkpt lat="44.43802070457944" lon="8.901470086667794"><ele>67.0</ele><time>2026-04-21T11:31:42Z</time></trkpt><trkpt lat="44.438233576140895" lon="8.901611896746942"><ele>72.0</ele><time>2026-04-21T11:31:43Z</time></trkpt><trkpt lat="44.43843710866819" lon="8.901771051262426"><ele>76.5</ele><time>2026-04-21T11:31:44Z</time></trkpt><trkpt lat="44.4386639333788" lon="8.901928867191545"><ele>81.0</ele><time>2026-04-21T11:31:45Z</time></trkpt><trkpt lat="44.43887607629976" lon="8.902105028707565"><ele>81.0</ele><time>2026-04-21T11:31:46Z</time></trkpt><trkpt lat="44.43908864865116" lon="8.902280656205015"><ele>81.0</ele><time>2026-04-21T11:31:47Z</time></trkpt><trkpt lat="44.43929163464034" lon="8.902451740568456"><ele>81.33333333333333</ele><time>2026-04-21T11:31:48Z</time></trkpt><trkpt lat="44.43948211164301" lon="8.902619752814878"><ele>81.66666666666666</ele><time>2026-04-21T11:31:49Z</time></trkpt><trkpt lat="44.43966957354212" lon="8.902779345084886"><ele>82.0</ele><time>2026-04-21T11:31:50Z</time></trkpt><trkpt lat="44.43985732261102" lon="8.902939880818577"><ele>82.0</ele><time>2026-04-21T11:31:51Z</time></trkpt><trkpt lat="44.44005099989253" lon="8.903097394116426"><ele>82.0</ele><time>2026-04-21T11:31:52Z</time></trkpt><trkpt lat="44.44025265866899" lon="8.903250097096418"><ele>82.0</ele><time>2026-04-21T11:31:53Z</time></trkpt><trkpt lat="44.440454498912985" lon="8.90339408031166"><ele>82.0</ele><time>2026-04-21T11:31:54Z</time></trkpt><trkpt lat="44.440663125026624" lon="8.903519865801208"><ele>70.5</ele><time>2026-04-21T11:31:55Z</time></trkpt><trkpt lat="44.440877627176505" lon="8.903631984904727"><ele>59.0</ele><time>2026-04-21T11:31:56Z</time></trkpt><trkpt lat="44.44109166519186" lon="8.903727398220337"><ele>55.0</ele><time>2026-04-21T11:31:57Z</time></trkpt><trkpt lat="44.44130750041174" lon="8.903804906782383"><ele>51.0</ele><time>2026-04-21T11:31:58Z</time></trkpt><trkpt lat="44.441523376871885" lon="8.903867009663273"><ele>47.0</ele><time>2026-04-21T11:31:59Z</time></trkpt><trkpt lat="44.44173644906078" lon="8.90391799010402"><ele>47.0</ele><time>2026-04-21T11:32:00Z</time></trkpt><trkpt lat="44.441961573475396" lon="8.90396333015015"><ele>47.0</ele><time>2026-04-21T11:32:01Z</time></trkpt><trkpt lat="44.44218429899248" lon="8.903981408497495"><ele>44.5</ele><time>2026-04-21T11:32:02Z</time></trkpt><trkpt lat="44.44241034772483" lon="8.903981262755538"><ele>42.0</ele><time>2026-04-21T11:32:03Z</time></trkpt><trkpt lat="44.442635195605305" lon="8.9039813800932"><ele>42.0</ele><time>2026-04-21T11:32:04Z</time></trkpt><trkpt lat="44.442856242581634" lon="8.903982314991016"><ele>42.0</ele><time>2026-04-21T11:32:05Z</time></trkpt><trkpt lat="44.44306710346989" lon="8.903976862188275"><ele>42.0</ele><time>2026-04-21T11:32:06Z</time></trkpt><trkpt lat="44.44326687331938" lon="8.903973443135591"><ele>42.333333333333336</ele><time>2026-04-21T11:32:07Z</time></trkpt><trkpt lat="44.443474999142055" lon="8.903975133837058"><ele>42.66666666666667</ele><time>2026-04-21T11:32:08Z</time></trkpt><trkpt lat="44.443685914324" lon="8.903979544842416"><ele>43.0</ele><time>2026-04-21T11:32:09Z</time></trkpt><trkpt lat="44.443896391868805" lon="8.90398234122058"><ele>51.333333333333336</ele><time>2026-04-21T11:32:10Z</time></trkpt><trkpt lat="44.444089499798515" lon="8.90398457886451"><ele>59.66666666666667</ele><time>2026-04-21T11:32:11Z</time></trkpt><trkpt lat="44.44426092840385" lon="8.90398788636643"><ele>68.0</ele><time>2026-04-21T11:32:12Z</time></trkpt><trkpt lat="44.44440650441221" lon="8.903994517943094"><ele>68.0</ele><time>2026-04-21T11:32:13Z</time></trkpt><trkpt lat="44.44452316192853" lon="8.903997631700513"><ele>68.0</ele><time>2026-04-21T11:32:14Z</time></trkpt><trkpt lat="44.444615968580585" lon="8.904005197979128"><ele>68.0</ele><time>2026-04-21T11:32:15Z</time></trkpt><trkpt lat="44.4446889057682" lon="8.904034924412489"><ele>68.0</ele><time>2026-04-21T11:32:16Z</time></trkpt><trkpt lat="44.44475842219893" lon="8.904100062731336"><ele>68.0</ele><time>2026-04-21T11:32:17Z</time></trkpt><trkpt lat="44.4448496512539" lon="8.904216985035726"><ele>68.33333333333334</ele><time>2026-04-21T11:32:18Z</time></trkpt><trkpt lat="44.444936877923" lon="8.904372549256177"><ele>68.66666666666667</ele><time>2026-04-21T11:32:19Z</time></trkpt><trkpt lat="44.44501222676743" lon="8.904553974457363"><ele>69.0</ele><time>2026-04-21T11:32:20Z</time></trkpt><trkpt lat="44.445079207108016" lon="8.904764650291197"><ele>69.0</ele><time>2026-04-21T11:32:21Z</time></trkpt><trkpt lat="44.44513040910269" lon="8.905002304781895"><ele>69.0</ele><time>2026-04-21T11:32:22Z</time></trkpt><trkpt lat="44.445180581102925" lon="8.905268895916485"><ele>69.0</ele><time>2026-04-21T11:32:23Z</time></trkpt><trkpt lat="44.44523173220233" lon="8.905537868936529"><ele>66.0</ele><time>2026-04-21T11:32:24Z</time></trkpt><trkpt lat="44.44528071410825" lon="8.905816424709617"><ele>63.0</ele><time>2026-04-21T11:32:25Z</time></trkpt><trkpt lat="44.44532957854875" lon="8.90610721886126"><ele>60.0</ele><time>2026-04-21T11:32:26Z</time></trkpt><trkpt lat="44.44537872325424" lon="8.90640780563294"><ele>58.66666666666667</ele><time>2026-04-21T11:32:27Z</time></trkpt><trkpt lat="44.44543061597488" lon="8.906712334268311"><ele>57.333333333333336</ele><time>2026-04-21T11:32:28Z</time></trkpt><trkpt lat="44.445484025504975" lon="8.907015094295957"><ele>56.0</ele><time>2026-04-21T11:32:29Z</time></trkpt><trkpt lat="44.4455382426356" lon="8.907317075814175"><ele>65.0</ele><time>2026-04-21T11:32:30Z</time></trkpt><trkpt lat="44.44558008138515" lon="8.907624711022791"><ele>74.0</ele><time>2026-04-21T11:32:31Z</time></trkpt><trkpt lat="44.44561450489988" lon="8.907925699400803"><ele>83.0</ele><time>2026-04-21T11:32:32Z</time></trkpt><trkpt lat="44.44565305249232" lon="8.90823251541679"><ele>81.0</ele><time>2026-04-21T11:32:33Z</time></trkpt><trkpt lat="44.44569695965097" lon="8.908543263931904"><ele>79.0</ele><time>2026-04-21T11:32:34Z</time></trkpt><trkpt lat="44.4456980457968" lon="8.90882553279487"><ele>77.0</ele><time>2026-04-21T11:32:35Z</time></trkpt><trkpt lat="44.445697979035145" lon="8.909105548521113"><ele>82.5</ele><time>2026-04-21T11:32:36Z</time></trkpt><trkpt lat="44.44568658653034" lon="8.909417665681236"><ele>88.0</ele><time>2026-04-21T11:32:37Z</time></trkpt><trkpt lat="44.44567106631783" lon="8.909740544847768"><ele>88.0</ele><time>2026-04-21T11:32:38Z</time></trkpt><trkpt lat="44.4456440399722" lon="8.910045298356687"><ele>88.0</ele><time>2026-04-21T11:32:39.001Z</time></trkpt><trkpt lat="44.44564109137767" lon="8.910327622050138"><ele>88.0</ele><time>2026-04-21T11:32:40.001Z</time></trkpt><trkpt lat="44.445624393903664" lon="8.910642860411507"><ele>91.5</ele><time>2026-04-21T11:32:41.001Z</time></trkpt><trkpt lat="44.44560401826126" lon="8.910965500456403"><ele>95.0</ele><time>2026-04-21T11:32:42.001Z</time></trkpt><trkpt lat="44.44558475359189" lon="8.911294303585327"><ele>95.0</ele><time>2026-04-21T11:32:43.001Z</time></trkpt><trkpt lat="44.44556755039334" lon="8.9116248813195"><ele>95.0</ele><time>2026-04-21T11:32:44.001Z</time></trkpt><trkpt lat="44.445550612186366" lon="8.911961543237096"><ele>96.0</ele><time>2026-04-21T11:32:45.001Z</time></trkpt><trkpt lat="44.44553233323485" lon="8.912300230106498"><ele>97.0</ele><time>2026-04-21T11:32:46.001Z</time></trkpt><trkpt lat="44.44551528729772" lon="8.91263946503236"><ele>101.0</ele><time>2026-04-21T11:32:47.001Z</time></trkpt><trkpt lat="44.44550033232258" lon="8.912978716444297"><ele>105.0</ele><time>2026-04-21T11:32:48.001Z</time></trkpt><trkpt lat="44.44548505486988" lon="8.913318717701639"><ele>106.5</ele><time>2026-04-21T11:32:49.001Z</time></trkpt><trkpt lat="44.44547456773817" lon="8.91365912504732"><ele>108.0</ele><time>2026-04-21T11:32:50.001Z</time></trkpt><trkpt lat="44.44547710074676" lon="8.913996050513616"><ele>105.0</ele><time>2026-04-21T11:32:51.001Z</time></trkpt><trkpt lat="44.44549447734414" lon="8.914335385853018"><ele>102.0</ele><time>2026-04-21T11:32:52.001Z</time></trkpt><trkpt lat="44.44551899138874" lon="8.914673425248084"><ele>102.0</ele><time>2026-04-21T11:32:53.001Z</time></trkpt><trkpt lat="44.44555282726175" lon="8.91500986822972"><ele>102.0</ele><time>2026-04-21T11:32:54.001Z</time></trkpt><trkpt lat="44.44559750233731" lon="8.91535275660458"><ele>103.5</ele><time>2026-04-21T11:32:55.001Z</time></trkpt><trkpt lat="44.445641400636276" lon="8.915691761326169"><ele>105.0</ele><time>2026-04-21T11:32:56.001Z</time></trkpt><trkpt lat="44.445693918123375" lon="8.916027998589634"><ele>107.0</ele><time>2026-04-21T11:32:57.001Z</time></trkpt><trkpt lat="44.44575124883379" lon="8.916359178457967"><ele>109.0</ele><time>2026-04-21T11:32:58.001Z</time></trkpt><trkpt lat="44.44580697758697" lon="8.916692802904901"><ele>108.5</ele><time>2026-04-21T11:32:59.001Z</time></trkpt><trkpt lat="44.44586062874422" lon="8.917023505546421"><ele>108.0</ele><time>2026-04-21T11:33:00.001Z</time></trkpt><trkpt lat="44.44591791547137" lon="8.917344424289151"><ele>110.0</ele><time>2026-04-21T11:33:01.001Z</time></trkpt><trkpt lat="44.445977443368406" lon="8.917655570712716"><ele>112.0</ele><time>2026-04-21T11:33:02.001Z</time></trkpt><trkpt lat="44.44603530532994" lon="8.91795372773038"><ele>112.0</ele><time>2026-04-21T11:33:03.001Z</time></trkpt><trkpt lat="44.446082803651585" lon="8.918235606853182"><ele>112.0</ele><time>2026-04-21T11:33:04.001Z</time></trkpt><trkpt lat="44.446116279501794" lon="8.918513949791372"><ele>112.0</ele><time>2026-04-21T11:33:05.001Z</time></trkpt><trkpt lat="44.44613811667151" lon="8.918806514718714"><ele>112.33333333333334</ele><time>2026-04-21T11:33:06.001Z</time></trkpt><trkpt lat="44.446141604855036" lon="8.919107005263715"><ele>112.66666666666666</ele><time>2026-04-21T11:33:07.001Z</time></trkpt><trkpt lat="44.44612640182634" lon="8.919412124707147"><ele>113.0</ele><time>2026-04-21T11:33:08.001Z</time></trkpt><trkpt lat="44.44609082863524" lon="8.91971421788351"><ele>114.66666666666666</ele><time>2026-04-21T11:33:09.001Z</time></trkpt><trkpt lat="44.446039751708604" lon="8.920014265139251"><ele>116.33333333333334</ele><time>2026-04-21T11:33:10.001Z</time></trkpt><trkpt lat="44.44597346041898" lon="8.92030279949496"><ele>118.0</ele><time>2026-04-21T11:33:11.001Z</time></trkpt><trkpt lat="44.44588880412487" lon="8.920590529664532"><ele>123.0</ele><time>2026-04-21T11:33:12.001Z</time></trkpt><trkpt lat="44.44579315838597" lon="8.920874063431418"><ele>128.0</ele><time>2026-04-21T11:33:13.001Z</time></trkpt><trkpt lat="44.44568805501279" lon="8.921154310157549"><ele>135.0</ele><time>2026-04-21T11:33:14.001Z</time></trkpt><trkpt lat="44.445577347733064" lon="8.921428083753776"><ele>142.0</ele><time>2026-04-21T11:33:15.001Z</time></trkpt><trkpt lat="44.44546793184657" lon="8.921704224333773"><ele>165.0</ele><time>2026-04-21T11:33:16.001Z</time></trkpt><trkpt lat="44.44536494951172" lon="8.92197806340092"><ele>188.0</ele><time>2026-04-21T11:33:17.001Z</time></trkpt><trkpt lat="44.44525384183918" lon="8.922276701384842"><ele>188.0</ele><time>2026-04-21T11:33:18.001Z</time></trkpt><trkpt lat="44.44514870860448" lon="8.922560586240321"><ele>188.0</ele><time>2026-04-21T11:33:19.001Z</time></trkpt><trkpt lat="44.44503790094629" lon="8.92284822059858"><ele>191.0</ele><time>2026-04-21T11:33:20Z</time></trkpt><trkpt lat="44.444933801997756" lon="8.92314180490191"><ele>194.0</ele><time>2026-04-21T11:33:21.062Z</time></trkpt><trkpt lat="44.444823346714124" lon="8.92339820839928"><ele>197.0</ele><time>2026-04-21T11:33:22.059Z</time></trkpt><trkpt lat="44.444712536967465" lon="8.92365642966242"><ele>274.0</ele><time>2026-04-21T11:33:23.058Z</time></trkpt><trkpt lat="44.44361500592428" lon="8.92603076551222"><ele>294.0</ele><time>2026-04-21T11:33:26.548Z</time></trkpt><trkpt lat="44.443199315102056" lon="8.927001965908419"><ele>349.0</ele><time>2026-04-21T11:33:27.549Z</time></trkpt><trkpt lat="44.442783907978715" lon="8.927972503483943"><ele>383.0</ele><time>2026-04-21T11:33:28.549Z</time></trkpt><trkpt lat="44.44236851001654" lon="8.928943019655762"><ele>445.0</ele><time>2026-04-21T11:33:29.549Z</time></trkpt><trkpt lat="44.441953610124436" lon="8.92991237216021"><ele>476.0</ele><time>2026-04-21T11:33:30.548Z</time></trkpt><trkpt lat="44.441537829685096" lon="8.930882804957763"><ele>424.0</ele><time>2026-04-21T11:33:31.548Z</time></trkpt><trkpt lat="44.44112200751286" lon="8.931854377228998"><ele>379.0</ele><time>2026-04-21T11:33:32.549Z</time></trkpt><trkpt lat="44.44070636245725" lon="8.932823652044624"><ele>353.0</ele><time>2026-04-21T11:33:33.548Z</time></trkpt><trkpt lat="44.44029109628081" lon="8.933790984738577"><ele>308.0</ele><time>2026-04-21T11:33:34.546Z</time></trkpt><trkpt lat="44.43987481933087" lon="8.934761393613279"><ele>286.0</ele><time>2026-04-21T11:33:35.546Z</time></trkpt><trkpt lat="44.439458513661855" lon="8.935734300534406"><ele>239.0</ele><time>2026-04-21T11:33:36.548Z</time></trkpt><trkpt lat="44.439041263917225" lon="8.936704038243631"><ele>186.0</ele><time>2026-04-21T11:33:37.549Z</time></trkpt><trkpt lat="44.438624979705956" lon="8.937674095165864"><ele>158.0</ele><time>2026-04-21T11:33:38.549Z</time></trkpt><trkpt lat="44.43820960855154" lon="8.938643472691695"><ele>147.0</ele><time>2026-04-21T11:33:39.549Z</time></trkpt><trkpt lat="44.437779029500874" lon="8.939611762825267"><ele>147.0</ele><time>2026-04-21T11:34:18Z</time></trkpt><trkpt lat="44.43748547075863" lon="8.939792463660055"><ele>147.0</ele><time>2026-04-21T11:34:19Z</time></trkpt><trkpt lat="44.43743242040837" lon="8.940132387148756"><ele>146.33333333333334</ele><time>2026-04-21T11:34:20Z</time></trkpt><trkpt lat="44.43731990619893" lon="8.940425376967081"><ele>145.66666666666669</ele><time>2026-04-21T11:34:21Z</time></trkpt><trkpt lat="44.4373117460248" lon="8.940698945512978"><ele>145.0</ele><time>2026-04-21T11:34:22Z</time></trkpt><trkpt lat="44.43721147946416" lon="8.940961061953796"><ele>142.66666666666669</ele><time>2026-04-21T11:34:23Z</time></trkpt><trkpt lat="44.43712359170742" lon="8.94122867123667"><ele>140.33333333333334</ele><time>2026-04-21T11:34:24Z</time></trkpt><trkpt lat="44.43704453859229" lon="8.94150998357586"><ele>138.0</ele><time>2026-04-21T11:34:25Z</time></trkpt><trkpt lat="44.436979875771705" lon="8.941801799642207"><ele>135.5</ele><time>2026-04-21T11:34:26Z</time></trkpt><trkpt lat="44.43693784797841" lon="8.94210464021805"><ele>133.0</ele><time>2026-04-21T11:34:27Z</time></trkpt><trkpt lat="44.43692068337895" lon="8.942430119916917"><ele>130.5</ele><time>2026-04-21T11:34:28.001Z</time></trkpt><trkpt lat="44.43691346393086" lon="8.942749627699767"><ele>128.0</ele><time>2026-04-21T11:34:29.001Z</time></trkpt><trkpt lat="44.43692288700786" lon="8.943083188431945"><ele>126.0</ele><time>2026-04-21T11:34:30.001Z</time></trkpt><trkpt lat="44.43693746560273" lon="8.943419284987204"><ele>124.0</ele><time>2026-04-21T11:34:31.001Z</time></trkpt><trkpt lat="44.436951379318714" lon="8.943761456644527"><ele>124.0</ele><time>2026-04-21T11:34:32.001Z</time></trkpt><trkpt lat="44.43696361040403" lon="8.944099711596019"><ele>124.0</ele><time>2026-04-21T11:34:33.001Z</time></trkpt><trkpt lat="44.43697473773151" lon="8.944452651283402"><ele>121.5</ele><time>2026-04-21T11:34:34.001Z</time></trkpt><trkpt lat="44.43699414275029" lon="8.944829703903745"><ele>119.0</ele><time>2026-04-21T11:34:35.001Z</time></trkpt><trkpt lat="44.43700983908807" lon="8.945184817839358"><ele>114.5</ele><time>2026-04-21T11:34:36.001Z</time></trkpt><trkpt lat="44.437035830407986" lon="8.945529627498294"><ele>110.0</ele><time>2026-04-21T11:34:37.001Z</time></trkpt><trkpt lat="44.43704498527796" lon="8.945875093419879"><ele>101.5</ele><time>2026-04-21T11:34:38.001Z</time></trkpt><trkpt lat="44.437051150391454" lon="8.9462035332013"><ele>93.0</ele><time>2026-04-21T11:34:39.001Z</time></trkpt><trkpt lat="44.43706034024054" lon="8.946532248007209"><ele>88.66666666666667</ele><time>2026-04-21T11:34:40.001Z</time></trkpt><trkpt lat="44.43707026347018" lon="8.946838999398112"><ele>84.33333333333334</ele><time>2026-04-21T11:34:41.001Z</time></trkpt><trkpt lat="44.43709122198453" lon="8.947158586321091"><ele>80.0</ele><time>2026-04-21T11:34:42.001Z</time></trkpt><trkpt lat="44.43710210313737" lon="8.947477078436597"><ele>97.0</ele><time>2026-04-21T11:34:43.001Z</time></trkpt><trkpt lat="44.4371171983022" lon="8.947814648335386"><ele>114.0</ele><time>2026-04-21T11:34:44.001Z</time></trkpt><trkpt lat="44.43712856630833" lon="8.948136166128434"><ele>120.0</ele><time>2026-04-21T11:34:45.001Z</time></trkpt><trkpt lat="44.43713853793902" lon="8.948448523989999"><ele>126.0</ele><time>2026-04-21T11:34:46.001Z</time></trkpt><trkpt lat="44.43714379454764" lon="8.948773343276626"><ele>131.0</ele><time>2026-04-21T11:34:47.001Z</time></trkpt><trkpt lat="44.437132539554014" lon="8.949084152762584"><ele>136.0</ele><time>2026-04-21T11:34:48.001Z</time></trkpt><trkpt lat="44.43709926231186" lon="8.949379749145917"><ele>141.0</ele><time>2026-04-21T11:34:49.001Z</time></trkpt><trkpt lat="44.437054530141" lon="8.949671361074056"><ele>154.0</ele><time>2026-04-21T11:34:50.001Z</time></trkpt><trkpt lat="44.436994701666244" lon="8.949957928397529"><ele>167.0</ele><time>2026-04-21T11:34:51.001Z</time></trkpt><trkpt lat="44.43693206042829" lon="8.950226364050522"><ele>180.0</ele><time>2026-04-21T11:34:52.001Z</time></trkpt><trkpt lat="44.43686720492545" lon="8.950512084844414"><ele>189.66666666666669</ele><time>2026-04-21T11:34:53.001Z</time></trkpt><trkpt lat="44.436804743492225" lon="8.950798350904158"><ele>199.33333333333334</ele><time>2026-04-21T11:34:54.001Z</time></trkpt><trkpt lat="44.4367207459163" lon="8.951073456019444"><ele>209.0</ele><time>2026-04-21T11:34:55.001Z</time></trkpt><trkpt lat="44.436630051296476" lon="8.951351056912921"><ele>218.66666666666669</ele><time>2026-04-21T11:34:56.001Z</time></trkpt><trkpt lat="44.43653167702434" lon="8.951652163413542"><ele>228.33333333333331</ele><time>2026-04-21T11:34:57.064Z</time></trkpt><trkpt lat="44.43644714617516" lon="8.951911078722429"><ele>238.0</ele><time>2026-04-21T11:34:58.063Z</time></trkpt><trkpt lat="44.436357850807156" lon="8.952184804813749"><ele>230.0</ele><time>2026-04-21T11:34:59.056Z</time></trkpt><trkpt lat="44.436270819253814" lon="8.952451591865989"><ele>222.0</ele><time>2026-04-21T11:35:00.048Z</time></trkpt><trkpt lat="44.43537183004171" lon="8.954984149877909"><ele>96.0</ele><time>2026-04-21T11:35:03.547Z</time></trkpt><trkpt lat="44.43479970356368" lon="8.956615777831766"><ele>91.5</ele><time>2026-04-21T11:35:12.001Z</time></trkpt><trkpt lat="44.434870150325594" lon="8.957185225195795"><ele>87.0</ele><time>2026-04-21T11:35:13.001Z</time></trkpt><trkpt lat="44.43463469509962" lon="8.95733609976678"><ele>75.66666666666667</ele><time>2026-04-21T11:35:14.001Z</time></trkpt><trkpt lat="44.43452618072667" lon="8.957561088105617"><ele>64.33333333333334</ele><time>2026-04-21T11:35:15.001Z</time></trkpt><trkpt lat="44.43439659632715" lon="8.957798241146413"><ele>53.0</ele><time>2026-04-21T11:35:16.001Z</time></trkpt><trkpt lat="44.43422666355906" lon="8.958014114035576"><ele>53.0</ele><time>2026-04-21T11:35:17.001Z</time></trkpt><trkpt lat="44.43406139044688" lon="8.958257835380708"><ele>53.0</ele><time>2026-04-21T11:35:18.001Z</time></trkpt><trkpt lat="44.43390833604441" lon="8.958536011133914"><ele>48.5</ele><time>2026-04-21T11:35:19.001Z</time></trkpt><trkpt lat="44.43376555459155" lon="8.958798166961907"><ele>44.0</ele><time>2026-04-21T11:35:20.001Z</time></trkpt><trkpt lat="44.43362302770371" lon="8.959052935263923"><ele>39.5</ele><time>2026-04-21T11:35:21.001Z</time></trkpt><trkpt lat="44.43347574116158" lon="8.959311463166422"><ele>35.0</ele><time>2026-04-21T11:35:22.001Z</time></trkpt><trkpt lat="44.43332904830508" lon="8.959579585739034"><ele>35.0</ele><time>2026-04-21T11:35:23.001Z</time></trkpt><trkpt lat="44.433179973019875" lon="8.959850389751265"><ele>35.0</ele><time>2026-04-21T11:35:24.001Z</time></trkpt><trkpt lat="44.433029647814074" lon="8.960118876668242"><ele>34.0</ele><time>2026-04-21T11:35:25.001Z</time></trkpt><trkpt lat="44.432881067304706" lon="8.960386518874188"><ele>33.0</ele><time>2026-04-21T11:35:26Z</time></trkpt><trkpt lat="44.43273549885701" lon="8.960647771731088"><ele>38.5</ele><time>2026-04-21T11:35:27Z</time></trkpt><trkpt lat="44.43259445926806" lon="8.960904655684867"><ele>44.0</ele><time>2026-04-21T11:35:28Z</time></trkpt><trkpt lat="44.432450662754334" lon="8.961163052894419"><ele>44.0</ele><time>2026-04-21T11:35:29Z</time></trkpt><trkpt lat="44.43230775828317" lon="8.961420549279765"><ele>44.0</ele><time>2026-04-21T11:35:30Z</time></trkpt><trkpt lat="44.43216552678402" lon="8.961678934594689"><ele>65.5</ele><time>2026-04-21T11:35:31Z</time></trkpt><trkpt lat="44.43202173719425" lon="8.961937655229999"><ele>87.0</ele><time>2026-04-21T11:35:32Z</time></trkpt><trkpt lat="44.43188139055629" lon="8.962195739929484"><ele>87.0</ele><time>2026-04-21T11:35:33Z</time></trkpt><trkpt lat="44.43174601670641" lon="8.962439932610621"><ele>87.0</ele><time>2026-04-21T11:35:34Z</time></trkpt><trkpt lat="44.43161223314663" lon="8.962678025430588"><ele>87.0</ele><time>2026-04-21T11:35:35Z</time></trkpt><trkpt lat="44.43147440938896" lon="8.962910679074788"><ele>93.0</ele><time>2026-04-21T11:35:36Z</time></trkpt><trkpt lat="44.43133447061026" lon="8.963132534286398"><ele>99.0</ele><time>2026-04-21T11:35:37Z</time></trkpt><trkpt lat="44.4311931228522" lon="8.963342849203498"><ele>105.0</ele><time>2026-04-21T11:35:38Z</time></trkpt><trkpt lat="44.43104985076945" lon="8.96356373817461"><ele>123.0</ele><time>2026-04-21T11:35:39Z</time></trkpt><trkpt lat="44.43090626237541" lon="8.963798467055556"><ele>141.0</ele><time>2026-04-21T11:35:40Z</time></trkpt><trkpt lat="44.430762899886304" lon="8.96403432975832"><ele>159.0</ele><time>2026-04-21T11:35:41Z</time></trkpt><trkpt lat="44.43062118768622" lon="8.964268507560524"><ele>169.5</ele><time>2026-04-21T11:35:42Z</time></trkpt><trkpt lat="44.430481179054176" lon="8.964507959312478"><ele>180.0</ele><time>2026-04-21T11:35:43Z</time></trkpt><trkpt lat="44.43033017475152" lon="8.964765707269423"><ele>191.5</ele><time>2026-04-21T11:35:44.065Z</time></trkpt><trkpt lat="44.430182488335845" lon="8.965006600693675"><ele>203.0</ele><time>2026-04-21T11:35:45.063Z</time></trkpt><trkpt lat="44.43003243726675" lon="8.965240970393312"><ele>207.66666666666669</ele><time>2026-04-21T11:35:46.062Z</time></trkpt><trkpt lat="44.429893174530726" lon="8.965470720378866"><ele>212.33333333333331</ele><time>2026-04-21T11:35:47.06Z</time></trkpt><trkpt lat="44.429747275170925" lon="8.965715978870787"><ele>217.0</ele><time>2026-04-21T11:35:48.059Z</time></trkpt><trkpt lat="44.4295973019511" lon="8.965970157909066"><ele>239.0</ele><time>2026-04-21T11:35:49.032Z</time></trkpt><trkpt lat="44.42947128956936" lon="8.966228110850324"><ele>261.0</ele><time>2026-04-21T11:35:50.025Z</time></trkpt><trkpt lat="44.4282788167577" lon="8.968500776127348"><ele>267.0</ele><time>2026-04-21T11:35:53.547Z</time></trkpt><trkpt lat="44.42766731036599" lon="8.969587793423532"><ele>226.0</ele><time>2026-04-21T11:35:54.547Z</time></trkpt><trkpt lat="44.427035969081004" lon="8.97067341338548"><ele>217.0</ele><time>2026-04-21T11:35:55.56Z</time></trkpt><trkpt lat="44.42637921911381" lon="8.971688498797402"><ele>188.0</ele><time>2026-04-21T11:35:56.55Z</time></trkpt><trkpt lat="44.42567932673761" lon="8.972666006876873"><ele>176.0</ele><time>2026-04-21T11:35:57.55Z</time></trkpt><trkpt lat="44.42497572780635" lon="8.973631608273834"><ele>146.0</ele><time>2026-04-21T11:35:58.547Z</time></trkpt><trkpt lat="44.42427223172005" lon="8.974601746575624"><ele>98.0</ele><time>2026-04-21T11:35:59.546Z</time></trkpt><trkpt lat="44.42321947965175" lon="8.976106764809467"><ele>98.0</ele><time>2026-04-21T11:36:34Z</time></trkpt><trkpt lat="44.423081018688514" lon="8.976300297863585"><ele>98.0</ele><time>2026-04-21T11:36:35Z</time></trkpt><trkpt lat="44.422929240232115" lon="8.97648612141871"><ele>98.0</ele><time>2026-04-21T11:36:36Z</time></trkpt><trkpt lat="44.42281268758327" lon="8.976700008167239"><ele>103.66666666666666</ele><time>2026-04-21T11:36:37Z</time></trkpt><trkpt lat="44.42265117033786" lon="8.976903926622402"><ele>109.33333333333334</ele><time>2026-04-21T11:36:38Z</time></trkpt><trkpt lat="44.42250483195112" lon="8.97711759209507"><ele>115.0</ele><time>2026-04-21T11:36:39Z</time></trkpt><trkpt lat="44.42236280213331" lon="8.977323216683432"><ele>121.66666666666667</ele><time>2026-04-21T11:36:40Z</time></trkpt><trkpt lat="44.42221662424974" lon="8.97752267192144"><ele>128.33333333333334</ele><time>2026-04-21T11:36:41Z</time></trkpt><trkpt lat="44.422057584007035" lon="8.977720364334212"><ele>135.0</ele><time>2026-04-21T11:36:42Z</time></trkpt><trkpt lat="44.421888397728054" lon="8.977911455738353"><ele>138.66666666666666</ele><time>2026-04-21T11:36:43Z</time></trkpt><trkpt lat="44.42173540930892" lon="8.978106790263748"><ele>142.33333333333331</ele><time>2026-04-21T11:36:44Z</time></trkpt><trkpt lat="44.42158388546306" lon="8.978307203095738"><ele>146.0</ele><time>2026-04-21T11:36:45Z</time></trkpt><trkpt lat="44.42142674796941" lon="8.978497670659767"><ele>158.33333333333331</ele><time>2026-04-21T11:36:46Z</time></trkpt><trkpt lat="44.421270298097255" lon="8.97868437258802"><ele>170.66666666666666</ele><time>2026-04-21T11:36:47Z</time></trkpt><trkpt lat="44.42111191124609" lon="8.978874012689314"><ele>183.0</ele><time>2026-04-21T11:36:48Z</time></trkpt><trkpt lat="44.420953524819616" lon="8.979063651763829"><ele>191.0</ele><time>2026-04-21T11:36:49Z</time></trkpt><trkpt lat="44.4207951380752" lon="8.979253290708908"><ele>199.0</ele><time>2026-04-21T11:36:50Z</time></trkpt><trkpt lat="44.4206416997229" lon="8.979474255155727"><ele>207.0</ele><time>2026-04-21T11:36:51.059Z</time></trkpt><trkpt lat="44.41924964681042" lon="8.981524406220359"><ele>244.0</ele><time>2026-04-21T11:36:54.546Z</time></trkpt><trkpt lat="44.418542732912506" lon="8.982497685744189"><ele>279.0</ele><time>2026-04-21T11:36:55.549Z</time></trkpt><trkpt lat="44.4178391482459" lon="8.9834650485513"><ele>267.0</ele><time>2026-04-21T11:36:56.547Z</time></trkpt><trkpt lat="44.41713530507731" lon="8.98443564896346"><ele>258.0</ele><time>2026-04-21T11:36:57.547Z</time></trkpt><trkpt lat="44.416428168877054" lon="8.985402174333231"><ele>200.0</ele><time>2026-04-21T11:36:58.547Z</time></trkpt><trkpt lat="44.41570938256157" lon="8.986354129117046"><ele>193.0</ele><time>2026-04-21T11:36:59.548Z</time></trkpt><trkpt lat="44.4149708576202" lon="8.987277715797399"><ele>203.0</ele><time>2026-04-21T11:37:00.55Z</time></trkpt><trkpt lat="44.414221104968505" lon="8.988173137246067"><ele>140.0</ele><time>2026-04-21T11:37:01.547Z</time></trkpt><trkpt lat="44.41346982459115" lon="8.989074611427997"><ele>97.0</ele><time>2026-04-21T11:37:02.548Z</time></trkpt><trkpt lat="44.41285876026196" lon="8.989895141489532"><ele>93.33333333333334</ele><time>2026-04-21T11:37:43.001Z</time></trkpt><trkpt lat="44.41273735804199" lon="8.990104621095043"><ele>89.66666666666667</ele><time>2026-04-21T11:37:44.002Z</time></trkpt><trkpt lat="44.41255424323972" lon="8.99030136877599"><ele>86.0</ele><time>2026-04-21T11:37:45.002Z</time></trkpt><trkpt lat="44.4123920410545" lon="8.990489303429236"><ele>86.0</ele><time>2026-04-21T11:37:46.002Z</time></trkpt><trkpt lat="44.41221270549082" lon="8.990686529348835"><ele>86.0</ele><time>2026-04-21T11:37:47.002Z</time></trkpt><trkpt lat="44.412048304929584" lon="8.990877244013479"><ele>86.0</ele><time>2026-04-21T11:37:48.002Z</time></trkpt><trkpt lat="44.41188861781787" lon="8.991061139970657"><ele>74.33333333333334</ele><time>2026-04-21T11:37:49Z</time></trkpt><trkpt lat="44.411732698522904" lon="8.991250260710244"><ele>62.66666666666667</ele><time>2026-04-21T11:37:50Z</time></trkpt><trkpt lat="44.41157971518489" lon="8.991438034068246"><ele>51.0</ele><time>2026-04-21T11:37:51Z</time></trkpt><trkpt lat="44.41142752631841" lon="8.991620343832839"><ele>69.0</ele><time>2026-04-21T11:37:52Z</time></trkpt><trkpt lat="44.41127101520541" lon="8.991800405401177"><ele>87.0</ele><time>2026-04-21T11:37:53Z</time></trkpt><trkpt lat="44.41111999104957" lon="8.991976978107415"><ele>105.0</ele><time>2026-04-21T11:37:54Z</time></trkpt><trkpt lat="44.410969349258885" lon="8.992153160570153"><ele>105.0</ele><time>2026-04-21T11:37:55Z</time></trkpt><trkpt lat="44.41081391219571" lon="8.99233545840413"><ele>105.0</ele><time>2026-04-21T11:37:56Z</time></trkpt><trkpt lat="44.410653729696975" lon="8.99251656753763"><ele>105.0</ele><time>2026-04-21T11:37:57Z</time></trkpt><trkpt lat="44.41049357310753" lon="8.992682362766987"><ele>122.33333333333334</ele><time>2026-04-21T11:37:58Z</time></trkpt><trkpt lat="44.41033130469876" lon="8.992845606958792"><ele>139.66666666666669</ele><time>2026-04-21T11:37:59Z</time></trkpt><trkpt lat="44.410174705649396" lon="8.993010442646334"><ele>157.0</ele><time>2026-04-21T11:38:00Z</time></trkpt><trkpt lat="44.41002652872994" lon="8.993171490659751"><ele>157.0</ele><time>2026-04-21T11:38:01Z</time></trkpt><trkpt lat="44.4098818518881" lon="8.993329419604201"><ele>157.0</ele><time>2026-04-21T11:38:02Z</time></trkpt><trkpt lat="44.409734772015625" lon="8.993492233543487"><ele>157.0</ele><time>2026-04-21T11:38:03Z</time></trkpt><trkpt lat="44.40959258265341" lon="8.993655955831958"><ele>169.33333333333334</ele><time>2026-04-21T11:38:04Z</time></trkpt><trkpt lat="44.409440832534216" lon="8.993834438059103"><ele>181.66666666666669</ele><time>2026-04-21T11:38:05.06Z</time></trkpt><trkpt lat="44.40929627285791" lon="8.994005151878433"><ele>194.0</ele><time>2026-04-21T11:38:06.059Z</time></trkpt><trkpt lat="44.40914405971035" lon="8.994175667785234"><ele>250.0</ele><time>2026-04-21T11:38:07.058Z</time></trkpt><trkpt lat="44.40762686647173" lon="8.996049179063043"><ele>112.0</ele><time>2026-04-21T11:38:10.551Z</time></trkpt><trkpt lat="44.40270253295698" lon="9.001784607043744"><ele>112.0</ele><time>2026-04-21T11:38:43.001Z</time></trkpt><trkpt lat="44.402608141587265" lon="9.002110304953224"><ele>112.0</ele><time>2026-04-21T11:38:44.001Z</time></trkpt><trkpt lat="44.40234806313455" lon="9.002260420280452"><ele>107.5</ele><time>2026-04-21T11:38:45.001Z</time></trkpt><trkpt lat="44.40212677163744" lon="9.002439493684507"><ele>103.0</ele><time>2026-04-21T11:38:46.001Z</time></trkpt><trkpt lat="44.40191534113244" lon="9.002639839880015"><ele>113.0</ele><time>2026-04-21T11:38:47.001Z</time></trkpt><trkpt lat="44.40170447996128" lon="9.002841541461"><ele>123.0</ele><time>2026-04-21T11:38:48.001Z</time></trkpt><trkpt lat="44.40150787666866" lon="9.0030408616685"><ele>133.0</ele><time>2026-04-21T11:38:49.001Z</time></trkpt><trkpt lat="44.401312487930404" lon="9.003231825852462"><ele>143.0</ele><time>2026-04-21T11:38:50.001Z</time></trkpt><trkpt lat="44.40111685555877" lon="9.003421323075456"><ele>153.5</ele><time>2026-04-21T11:38:51.001Z</time></trkpt><trkpt lat="44.40092330464532" lon="9.003609794694226"><ele>164.0</ele><time>2026-04-21T11:38:52.001Z</time></trkpt><trkpt lat="44.400729078338" lon="9.003799417502213"><ele>164.0</ele><time>2026-04-21T11:38:53.001Z</time></trkpt><trkpt lat="44.40053480270153" lon="9.003992098012228"><ele>164.0</ele><time>2026-04-21T11:38:54.001Z</time></trkpt><trkpt lat="44.4003396854332" lon="9.00418482757811"><ele>177.0</ele><time>2026-04-21T11:38:55.001Z</time></trkpt><trkpt lat="44.40013311839827" lon="9.004383914400238"><ele>190.0</ele><time>2026-04-21T11:38:56.06Z</time></trkpt><trkpt lat="44.399944177125455" lon="9.004575448504283"><ele>190.0</ele><time>2026-04-21T11:38:57.061Z</time></trkpt><trkpt lat="44.39975142326877" lon="9.004761218136963"><ele>190.0</ele><time>2026-04-21T11:38:58.054Z</time></trkpt><trkpt lat="44.39891666032486" lon="9.005635162010734"><ele>144.0</ele><time>2026-04-21T11:39:02.001Z</time></trkpt><trkpt lat="44.398720595476014" lon="9.005846673959445"><ele>98.0</ele><time>2026-04-21T11:39:03.001Z</time></trkpt><trkpt lat="44.39850267498877" lon="9.00605490395651"><ele>98.0</ele><time>2026-04-21T11:39:04.001Z</time></trkpt><trkpt lat="44.3982950706805" lon="9.006252292151768"><ele>98.0</ele><time>2026-04-21T11:39:05.001Z</time></trkpt><trkpt lat="44.39808906954347" lon="9.006454610785045"><ele>95.5</ele><time>2026-04-21T11:39:06.001Z</time></trkpt><trkpt lat="44.39788278112381" lon="9.006653758153812"><ele>93.0</ele><time>2026-04-21T11:39:07.001Z</time></trkpt><trkpt lat="44.397710155217055" lon="9.006848681621817"><ele>93.0</ele><time>2026-04-21T11:39:08.001Z</time></trkpt><trkpt lat="44.397508501840775" lon="9.00704807468174"><ele>93.0</ele><time>2026-04-21T11:39:09.001Z</time></trkpt><trkpt lat="44.39730643228755" lon="9.007249213840334"><ele>98.0</ele><time>2026-04-21T11:39:10.001Z</time></trkpt><trkpt lat="44.397109391532155" lon="9.007450374841229"><ele>103.0</ele><time>2026-04-21T11:39:11.001Z</time></trkpt><trkpt lat="44.39691762413573" lon="9.007646641422546"><ele>115.0</ele><time>2026-04-21T11:39:12.001Z</time></trkpt><trkpt lat="44.39670132286974" lon="9.007841993801485"><ele>127.0</ele><time>2026-04-21T11:39:13.001Z</time></trkpt><trkpt lat="44.39652893535902" lon="9.008037359971656"><ele>127.0</ele><time>2026-04-21T11:39:14.001Z</time></trkpt><trkpt lat="44.396376128271356" lon="9.008250787847263"><ele>127.0</ele><time>2026-04-21T11:39:15.001Z</time></trkpt><trkpt lat="44.396224841113884" lon="9.00850418431848"><ele>128.5</ele><time>2026-04-21T11:39:16.001Z</time></trkpt><trkpt lat="44.39608308102554" lon="9.008753387936677"><ele>130.0</ele><time>2026-04-21T11:39:17.001Z</time></trkpt><trkpt lat="44.39595420397597" lon="9.00901493533701"><ele>133.0</ele><time>2026-04-21T11:39:18.001Z</time></trkpt><trkpt lat="44.39582900822405" lon="9.009295158101592"><ele>136.0</ele><time>2026-04-21T11:39:19.001Z</time></trkpt><trkpt lat="44.395722882791546" lon="9.009582997874944"><ele>136.0</ele><time>2026-04-21T11:39:20.001Z</time></trkpt><trkpt lat="44.39563687956223" lon="9.009875748530991"><ele>136.0</ele><time>2026-04-21T11:39:21.001Z</time></trkpt><trkpt lat="44.395559082316964" lon="9.010177885262856"><ele>127.5</ele><time>2026-04-21T11:39:22.001Z</time></trkpt><trkpt lat="44.39549497167166" lon="9.010489686368894"><ele>119.0</ele><time>2026-04-21T11:39:23.001Z</time></trkpt><trkpt lat="44.395440011826146" lon="9.010815035787221"><ele>118.5</ele><time>2026-04-21T11:39:24.001Z</time></trkpt><trkpt lat="44.395401529996846" lon="9.011140003654358"><ele>118.0</ele><time>2026-04-21T11:39:25.001Z</time></trkpt><trkpt lat="44.39537568668407" lon="9.01146562702442"><ele>113.0</ele><time>2026-04-21T11:39:26.001Z</time></trkpt><trkpt lat="44.39535293237154" lon="9.011795609936463"><ele>108.0</ele><time>2026-04-21T11:39:27.001Z</time></trkpt><trkpt lat="44.39533282448429" lon="9.012127945776852"><ele>108.0</ele><time>2026-04-21T11:39:28.001Z</time></trkpt><trkpt lat="44.395315961844844" lon="9.012462233748844"><ele>108.0</ele><time>2026-04-21T11:39:29.001Z</time></trkpt><trkpt lat="44.39529631316786" lon="9.012800387907065"><ele>100.0</ele><time>2026-04-21T11:39:30.001Z</time></trkpt><trkpt lat="44.39527629986082" lon="9.013120924154222"><ele>92.0</ele><time>2026-04-21T11:39:31.001Z</time></trkpt><trkpt lat="44.39525981682489" lon="9.013462083982102"><ele>91.5</ele><time>2026-04-21T11:39:32.001Z</time></trkpt><trkpt lat="44.39524015148055" lon="9.013794691785698"><ele>91.0</ele><time>2026-04-21T11:39:33.001Z</time></trkpt><trkpt lat="44.39522173773021" lon="9.014103539472014"><ele>107.5</ele><time>2026-04-21T11:39:34.001Z</time></trkpt><trkpt lat="44.39521100398706" lon="9.014419480598017"><ele>124.0</ele><time>2026-04-21T11:39:35.001Z</time></trkpt><trkpt lat="44.395191850510734" lon="9.014756458422893"><ele>140.0</ele><time>2026-04-21T11:39:36.001Z</time></trkpt><trkpt lat="44.395167443472616" lon="9.015084617166368"><ele>156.0</ele><time>2026-04-21T11:39:37.001Z</time></trkpt><trkpt lat="44.395138155405945" lon="9.01541210152894"><ele>156.0</ele><time>2026-04-21T11:39:38.001Z</time></trkpt><trkpt lat="44.39510611113373" lon="9.015745265206311"><ele>156.0</ele><time>2026-04-21T11:39:39.001Z</time></trkpt><trkpt lat="44.395061616084604" lon="9.016063787060974"><ele>170.5</ele><time>2026-04-21T11:39:40.001Z</time></trkpt><trkpt lat="44.395022140571825" lon="9.016384546138097"><ele>185.0</ele><time>2026-04-21T11:39:41.001Z</time></trkpt><trkpt lat="44.394981301221534" lon="9.016708561817017"><ele>143.0</ele><time>2026-04-21T11:39:42.001Z</time></trkpt><trkpt lat="44.39449803640485" lon="9.01995476898245"><ele>138.5</ele><time>2026-04-21T11:39:51.001Z</time></trkpt><trkpt lat="44.39443465483692" lon="9.020298799312716"><ele>134.0</ele><time>2026-04-21T11:39:52.001Z</time></trkpt><trkpt lat="44.394373248679024" lon="9.02063605241634"><ele>139.0</ele><time>2026-04-21T11:39:53.001Z</time></trkpt><trkpt lat="44.3943143686287" lon="9.020952671607787"><ele>144.0</ele><time>2026-04-21T11:39:54.001Z</time></trkpt><trkpt lat="44.39425517326096" lon="9.021280491969236"><ele>144.0</ele><time>2026-04-21T11:39:55.001Z</time></trkpt><trkpt lat="44.394196991656635" lon="9.021603348962506"><ele>144.0</ele><time>2026-04-21T11:39:56.001Z</time></trkpt><trkpt lat="44.39413443846077" lon="9.021930732868924"><ele>154.0</ele><time>2026-04-21T11:39:57Z</time></trkpt><trkpt lat="44.39408030194408" lon="9.022263017514488"><ele>164.0</ele><time>2026-04-21T11:39:58Z</time></trkpt><trkpt lat="44.39400636501082" lon="9.02259415321568"><ele>178.0</ele><time>2026-04-21T11:39:59Z</time></trkpt><trkpt lat="44.393927302160584" lon="9.022929080563845"><ele>192.0</ele><time>2026-04-21T11:40:00Z</time></trkpt><trkpt lat="44.39385223040816" lon="9.0232600788323"><ele>229.0</ele><time>2026-04-21T11:40:01Z</time></trkpt><trkpt lat="44.393776922212496" lon="9.023591208951702"><ele>266.0</ele><time>2026-04-21T11:40:02Z</time></trkpt><trkpt lat="44.393719753115654" lon="9.02393665437001"><ele>283.0</ele><time>2026-04-21T11:40:03Z</time></trkpt><trkpt lat="44.39365421763798" lon="9.024298873787885"><ele>300.0</ele><time>2026-04-21T11:40:04.057Z</time></trkpt><trkpt lat="44.393590222146976" lon="9.024652582169654"><ele>314.5</ele><time>2026-04-21T11:40:05.056Z</time></trkpt><trkpt lat="44.39352947014956" lon="9.024988362739919"><ele>329.0</ele><time>2026-04-21T11:40:06.052Z</time></trkpt><trkpt lat="44.39346777551181" lon="9.025328002915835"><ele>329.0</ele><time>2026-04-21T11:40:07.054Z</time></trkpt><trkpt lat="44.39340614689697" lon="9.025666192178377"><ele>329.0</ele><time>2026-04-21T11:40:08.05Z</time></trkpt><trkpt lat="44.39297380772075" lon="9.028432026499875"><ele>332.0</ele><time>2026-04-21T11:40:11.553Z</time></trkpt><trkpt lat="44.39273068363414" lon="9.02977037576442"><ele>241.0</ele><time>2026-04-21T11:40:12.553Z</time></trkpt><trkpt lat="44.39248933200454" lon="9.031102886395333"><ele>227.0</ele><time>2026-04-21T11:40:13.548Z</time></trkpt><trkpt lat="44.3922801768701" lon="9.032458108169061"><ele>142.0</ele><time>2026-04-21T11:40:14.553Z</time></trkpt><trkpt lat="44.39216829748974" lon="9.034067339709573"><ele>134.0</ele><time>2026-04-21T11:40:33.001Z</time></trkpt><trkpt lat="44.392172815813446" lon="9.034400806465692"><ele>126.0</ele><time>2026-04-21T11:40:34.001Z</time></trkpt><trkpt lat="44.392163468742865" lon="9.034734425563475"><ele>120.0</ele><time>2026-04-21T11:40:35.001Z</time></trkpt><trkpt lat="44.39217010973819" lon="9.035071764793644"><ele>114.0</ele><time>2026-04-21T11:40:36.001Z</time></trkpt><trkpt lat="44.39217709477998" lon="9.035408474872817"><ele>133.5</ele><time>2026-04-21T11:40:37.001Z</time></trkpt><trkpt lat="44.392194046592195" lon="9.035746894827437"><ele>153.0</ele><time>2026-04-21T11:40:38.001Z</time></trkpt><trkpt lat="44.39221869405018" lon="9.03608842222815"><ele>165.0</ele><time>2026-04-21T11:40:39.001Z</time></trkpt><trkpt lat="44.392246678467515" lon="9.036447091736004"><ele>177.0</ele><time>2026-04-21T11:40:40.001Z</time></trkpt><trkpt lat="44.39228140070393" lon="9.036806301414872"><ele>183.5</ele><time>2026-04-21T11:40:41.001Z</time></trkpt><trkpt lat="44.39231531179461" lon="9.037164536536853"><ele>190.0</ele><time>2026-04-21T11:40:42.001Z</time></trkpt><trkpt lat="44.3923466775401" lon="9.037518525381962"><ele>190.0</ele><time>2026-04-21T11:40:43.001Z</time></trkpt><trkpt lat="44.39237792416574" lon="9.037855745538623"><ele>190.0</ele><time>2026-04-21T11:40:44.001Z</time></trkpt><trkpt lat="44.39236922018223" lon="9.038190347285223"><ele>173.5</ele><time>2026-04-21T11:40:45.001Z</time></trkpt><trkpt lat="44.392379608978516" lon="9.038534691482614"><ele>157.0</ele><time>2026-04-21T11:40:46.001Z</time></trkpt><trkpt lat="44.39239812156404" lon="9.038880850168903"><ele>149.5</ele><time>2026-04-21T11:40:47.001Z</time></trkpt><trkpt lat="44.392418618275435" lon="9.03923334817708"><ele>142.0</ele><time>2026-04-21T11:40:48.001Z</time></trkpt><trkpt lat="44.39243712976337" lon="9.039594672283007"><ele>142.0</ele><time>2026-04-21T11:40:49.001Z</time></trkpt><trkpt lat="44.39245527812363" lon="9.039956581170742"><ele>142.0</ele><time>2026-04-21T11:40:50.001Z</time></trkpt><trkpt lat="44.39247467652051" lon="9.040315524452767"><ele>131.0</ele><time>2026-04-21T11:40:51.001Z</time></trkpt><trkpt lat="44.39248940151346" lon="9.040680053747451"><ele>120.0</ele><time>2026-04-21T11:40:52.001Z</time></trkpt><trkpt lat="44.39250792792715" lon="9.041031897089875"><ele>95.5</ele><time>2026-04-21T11:40:53.001Z</time></trkpt><trkpt lat="44.39252755938467" lon="9.041387371825943"><ele>71.0</ele><time>2026-04-21T11:40:54.001Z</time></trkpt><trkpt lat="44.39254696752011" lon="9.04174206120674"><ele>65.0</ele><time>2026-04-21T11:40:55.001Z</time></trkpt><trkpt lat="44.392564508030794" lon="9.04209716163891"><ele>59.0</ele><time>2026-04-21T11:40:56.001Z</time></trkpt><trkpt lat="44.392581315265744" lon="9.042454280459664"><ele>62.5</ele><time>2026-04-21T11:40:57.001Z</time></trkpt><trkpt lat="44.392595765119644" lon="9.042802733277668"><ele>66.0</ele><time>2026-04-21T11:40:58.001Z</time></trkpt><trkpt lat="44.392611485970775" lon="9.043156504141557"><ele>76.5</ele><time>2026-04-21T11:40:59.001Z</time></trkpt><trkpt lat="44.392630540120344" lon="9.043507264449403"><ele>87.0</ele><time>2026-04-21T11:41:00.001Z</time></trkpt><trkpt lat="44.3926494168948" lon="9.0438437567972"><ele>103.5</ele><time>2026-04-21T11:41:01.001Z</time></trkpt><trkpt lat="44.392667081484234" lon="9.044184509964198"><ele>120.0</ele><time>2026-04-21T11:41:02.001Z</time></trkpt><trkpt lat="44.392683343891775" lon="9.044524011511967"><ele>120.0</ele><time>2026-04-21T11:41:03.001Z</time></trkpt><trkpt lat="44.392700702064786" lon="9.044870697618391"><ele>120.0</ele><time>2026-04-21T11:41:04.001Z</time></trkpt><trkpt lat="44.39271690490557" lon="9.045219489664358"><ele>134.5</ele><time>2026-04-21T11:41:05.001Z</time></trkpt><trkpt lat="44.3927326313807" lon="9.04557481136217"><ele>149.0</ele><time>2026-04-21T11:41:06.001Z</time></trkpt><trkpt lat="44.39274071934206" lon="9.0459188996803"><ele>151.5</ele><time>2026-04-21T11:41:07.001Z</time></trkpt><trkpt lat="44.3927461128615" lon="9.04626725570574"><ele>154.0</ele><time>2026-04-21T11:41:08.001Z</time></trkpt><trkpt lat="44.39274873020497" lon="9.046605331436476"><ele>159.0</ele><time>2026-04-21T11:41:09.001Z</time></trkpt><trkpt lat="44.392745406305245" lon="9.046947929998662"><ele>164.0</ele><time>2026-04-21T11:41:10.001Z</time></trkpt><trkpt lat="44.39272478563173" lon="9.047288386473546"><ele>174.0</ele><time>2026-04-21T11:41:11.001Z</time></trkpt><trkpt lat="44.39269588773547" lon="9.047631327657667"><ele>184.0</ele><time>2026-04-21T11:41:12.001Z</time></trkpt><trkpt lat="44.39266740101743" lon="9.047986292793382"><ele>192.5</ele><time>2026-04-21T11:41:13.001Z</time></trkpt><trkpt lat="44.392639422311035" lon="9.048342823007665"><ele>201.0</ele><time>2026-04-21T11:41:14.001Z</time></trkpt><trkpt lat="44.39261185900639" lon="9.048694126977281"><ele>201.0</ele><time>2026-04-21T11:41:15.001Z</time></trkpt><trkpt lat="44.39258294076083" lon="9.049052693807102"><ele>201.0</ele><time>2026-04-21T11:41:16.001Z</time></trkpt><trkpt lat="44.39255622420211" lon="9.049400408720055"><ele>208.0</ele><time>2026-04-21T11:41:17.001Z</time></trkpt><trkpt lat="44.39249509094193" lon="9.049745483110797"><ele>215.0</ele><time>2026-04-21T11:41:18.067Z</time></trkpt><trkpt lat="44.39243204753167" lon="9.050055384268228"><ele>221.5</ele><time>2026-04-21T11:41:19.061Z</time></trkpt><trkpt lat="44.392363473212754" lon="9.050383348933702"><ele>228.0</ele><time>2026-04-21T11:41:20.062Z</time></trkpt><trkpt lat="44.39229500395323" lon="9.050702713960655"><ele>241.5</ele><time>2026-04-21T11:41:21.059Z</time></trkpt><trkpt lat="44.39222524565734" lon="9.05102486916849"><ele>255.0</ele><time>2026-04-21T11:41:22.035Z</time></trkpt><trkpt lat="44.39157291102952" lon="9.053714491732027"><ele>383.0</ele><time>2026-04-21T11:41:25.554Z</time></trkpt><trkpt lat="44.39128639127426" lon="9.055031988709572"><ele>409.0</ele><time>2026-04-21T11:41:26.551Z</time></trkpt><trkpt lat="44.39099991898822" lon="9.056355530449528"><ele>445.0</ele><time>2026-04-21T11:41:27.552Z</time></trkpt><trkpt lat="44.39071333742023" lon="9.057678968493788"><ele>477.0</ele><time>2026-04-21T11:41:28.554Z</time></trkpt><trkpt lat="44.390426243664116" lon="9.058993868007175"><ele>423.0</ele><time>2026-04-21T11:41:29.549Z</time></trkpt><trkpt lat="44.39013878705463" lon="9.060314369203981"><ele>364.0</ele><time>2026-04-21T11:41:30.549Z</time></trkpt><trkpt lat="44.389849968304596" lon="9.061641174326462"><ele>307.0</ele><time>2026-04-21T11:41:31.553Z</time></trkpt><trkpt lat="44.38956244163748" lon="9.062962051180488"><ele>298.0</ele><time>2026-04-21T11:41:32.553Z</time></trkpt><trkpt lat="44.38927548756725" lon="9.064284055456088"><ele>280.0</ele><time>2026-04-21T11:41:33.554Z</time></trkpt><trkpt lat="44.388990966271955" lon="9.065599903276004"><ele>202.0</ele><time>2026-04-21T11:41:34.549Z</time></trkpt><trkpt lat="44.38873963660969" lon="9.066936639549139"><ele>167.0</ele><time>2026-04-21T11:41:35.551Z</time></trkpt><trkpt lat="44.38865659432375" lon="9.067947748684926"><ele>158.5</ele><time>2026-04-21T11:42:13.002Z</time></trkpt><trkpt lat="44.38866242509926" lon="9.068312426236318"><ele>150.0</ele><time>2026-04-21T11:42:14.002Z</time></trkpt><trkpt lat="44.3886654995873" lon="9.06865812647886"><ele>150.0</ele><time>2026-04-21T11:42:15.002Z</time></trkpt><trkpt lat="44.38867076101875" lon="9.069013748655866"><ele>150.0</ele><time>2026-04-21T11:42:16.002Z</time></trkpt><trkpt lat="44.388688140637456" lon="9.069362075972336"><ele>144.0</ele><time>2026-04-21T11:42:17.002Z</time></trkpt><trkpt lat="44.38870113369877" lon="9.069711778801551"><ele>138.0</ele><time>2026-04-21T11:42:18.002Z</time></trkpt><trkpt lat="44.38871921655031" lon="9.070060909961295"><ele>138.0</ele><time>2026-04-21T11:42:19.001Z</time></trkpt><trkpt lat="44.388734949736275" lon="9.070413185725144"><ele>138.0</ele><time>2026-04-21T11:42:20.001Z</time></trkpt><trkpt lat="44.38875760652299" lon="9.070761728366456"><ele>154.5</ele><time>2026-04-21T11:42:21.001Z</time></trkpt><trkpt lat="44.38878263645706" lon="9.071115698094289"><ele>171.0</ele><time>2026-04-21T11:42:22.001Z</time></trkpt><trkpt lat="44.388808871208575" lon="9.07146725802852"><ele>191.5</ele><time>2026-04-21T11:42:23.001Z</time></trkpt><trkpt lat="44.38883954179697" lon="9.071817613695735"><ele>212.0</ele><time>2026-04-21T11:42:24.001Z</time></trkpt><trkpt lat="44.38887236848608" lon="9.072165474573687"><ele>229.5</ele><time>2026-04-21T11:42:25.001Z</time></trkpt><trkpt lat="44.38890616766134" lon="9.072508374101648"><ele>247.0</ele><time>2026-04-21T11:42:26.001Z</time></trkpt><trkpt lat="44.38894335119888" lon="9.07286675829496"><ele>247.0</ele><time>2026-04-21T11:42:27.053Z</time></trkpt><trkpt lat="44.388945986386304" lon="9.073197276644818"><ele>247.0</ele><time>2026-04-21T11:42:28.057Z</time></trkpt><trkpt lat="44.38896142601339" lon="9.073519431000154"><ele>258.5</ele><time>2026-04-21T11:42:29.053Z</time></trkpt><trkpt lat="44.38897640025488" lon="9.073831874477083"><ele>270.0</ele><time>2026-04-21T11:42:30.053Z</time></trkpt><trkpt lat="44.38908993447408" lon="9.078240627166371"><ele>215.5</ele><time>2026-04-21T11:42:42.001Z</time></trkpt><trkpt lat="44.389093936571626" lon="9.078627350523371"><ele>161.0</ele><time>2026-04-21T11:42:43.001Z</time></trkpt><trkpt lat="44.38912316965548" lon="9.078979140250407"><ele>157.5</ele><time>2026-04-21T11:42:44.001Z</time></trkpt><trkpt lat="44.389155088406326" lon="9.079297970876171"><ele>154.0</ele><time>2026-04-21T11:42:45.001Z</time></trkpt><trkpt lat="44.389175257888276" lon="9.079620086849815"><ele>150.0</ele><time>2026-04-21T11:42:46.001Z</time></trkpt><trkpt lat="44.38919240268889" lon="9.079961177536264"><ele>146.0</ele><time>2026-04-21T11:42:47.001Z</time></trkpt><trkpt lat="44.38920628001023" lon="9.080302240057804"><ele>146.0</ele><time>2026-04-21T11:42:48.001Z</time></trkpt><trkpt lat="44.389221946774164" lon="9.080644317305806"><ele>146.0</ele><time>2026-04-21T11:42:49.001Z</time></trkpt><trkpt lat="44.38923948704401" lon="9.080977364829376"><ele>143.0</ele><time>2026-04-21T11:42:50.001Z</time></trkpt><trkpt lat="44.38925348171865" lon="9.081312510267875"><ele>140.0</ele><time>2026-04-21T11:42:51.001Z</time></trkpt><trkpt lat="44.38926964220063" lon="9.08164174167914"><ele>140.0</ele><time>2026-04-21T11:42:52.001Z</time></trkpt><trkpt lat="44.38927926547666" lon="9.081978010230703"><ele>140.0</ele><time>2026-04-21T11:42:53.001Z</time></trkpt><trkpt lat="44.389287188390675" lon="9.082314533243535"><ele>153.5</ele><time>2026-04-21T11:42:54.001Z</time></trkpt><trkpt lat="44.38929173577122" lon="9.082665059303652"><ele>167.0</ele><time>2026-04-21T11:42:55.001Z</time></trkpt><trkpt lat="44.38928825861031" lon="9.082992221220177"><ele>186.0</ele><time>2026-04-21T11:42:56.001Z</time></trkpt><trkpt lat="44.38927671298279" lon="9.083331027399062"><ele>205.0</ele><time>2026-04-21T11:42:57.001Z</time></trkpt><trkpt lat="44.389259138570395" lon="9.083674116069876"><ele>205.0</ele><time>2026-04-21T11:42:58.001Z</time></trkpt><trkpt lat="44.389234091077405" lon="9.08402218024673"><ele>205.0</ele><time>2026-04-21T11:42:59.001Z</time></trkpt><trkpt lat="44.38920022351364" lon="9.084375789759884"><ele>223.0</ele><time>2026-04-21T11:43:00.001Z</time></trkpt><trkpt lat="44.38916097543033" lon="9.084721883830719"><ele>241.0</ele><time>2026-04-21T11:43:01.001Z</time></trkpt><trkpt lat="44.38911622542696" lon="9.085090527017394"><ele>438.0</ele><time>2026-04-21T11:43:02.064Z</time></trkpt><trkpt lat="44.38841861549672" lon="9.088322943967446"><ele>438.0</ele><time>2026-04-21T11:43:06.554Z</time></trkpt><trkpt lat="44.38825181981825" lon="9.089036465158875"><ele>445.0</ele><time>2026-04-21T11:43:07.551Z</time></trkpt><trkpt lat="44.388083905077934" lon="9.089754812570602"><ele>408.0</ele><time>2026-04-21T11:43:08.554Z</time></trkpt><trkpt lat="44.38791662031628" lon="9.090470773370939"><ele>367.0</ele><time>2026-04-21T11:43:09.554Z</time></trkpt><trkpt lat="44.38774934157697" lon="9.091186708396288"><ele>330.0</ele><time>2026-04-21T11:43:10.554Z</time></trkpt><trkpt lat="44.387582703207215" lon="9.091902935997108"><ele>291.0</ele><time>2026-04-21T11:43:11.554Z</time></trkpt><trkpt lat="44.38741654356587" lon="9.092618765651839"><ele>255.0</ele><time>2026-04-21T11:43:12.553Z</time></trkpt><trkpt lat="44.387250717848225" lon="9.093333156735287"><ele>271.0</ele><time>2026-04-21T11:43:13.551Z</time></trkpt><trkpt lat="44.387083511080114" lon="9.094051352513807"><ele>270.0</ele><time>2026-04-21T11:43:14.553Z</time></trkpt><trkpt lat="44.38691643613532" lon="9.094767387991473"><ele>271.0</ele><time>2026-04-21T11:43:15.553Z</time></trkpt><trkpt lat="44.386749225378246" lon="9.095484005521794"><ele>263.0</ele><time>2026-04-21T11:43:16.554Z</time></trkpt><trkpt lat="44.386582017811996" lon="9.096199999641346"><ele>241.0</ele><time>2026-04-21T11:43:17.554Z</time></trkpt><trkpt lat="44.38641502685595" lon="9.096916056928775"><ele>204.0</ele><time>2026-04-21T11:43:18.554Z</time></trkpt><trkpt lat="44.38624448040887" lon="9.0976304060504"><ele>166.0</ele><time>2026-04-21T11:43:19.554Z</time></trkpt><trkpt lat="44.38602755939862" lon="9.09831960330861"><ele>138.0</ele><time>2026-04-21T11:43:20.554Z</time></trkpt><trkpt lat="44.38564922474509" lon="9.099118607339962"><ele>138.0</ele><time>2026-04-21T11:43:44.001Z</time></trkpt><trkpt lat="44.38551821664714" lon="9.099401284192167"><ele>138.0</ele><time>2026-04-21T11:43:45.001Z</time></trkpt><trkpt lat="44.38518907436904" lon="9.099443136113903"><ele>152.0</ele><time>2026-04-21T11:43:46.001Z</time></trkpt><trkpt lat="44.385181996094744" lon="9.099855432094795"><ele>166.0</ele><time>2026-04-21T11:43:47.001Z</time></trkpt><trkpt lat="44.38506934798916" lon="9.100182787042108"><ele>166.0</ele><time>2026-04-21T11:43:48.001Z</time></trkpt><trkpt lat="44.38490529202391" lon="9.100457377780863"><ele>166.0</ele><time>2026-04-21T11:43:49.001Z</time></trkpt><trkpt lat="44.38472315942811" lon="9.100721406654419"><ele>169.0</ele><time>2026-04-21T11:43:50.001Z</time></trkpt><trkpt lat="44.384553098713226" lon="9.10099309630107"><ele>172.0</ele><time>2026-04-21T11:43:51.001Z</time></trkpt><trkpt lat="44.38438975583077" lon="9.101260154131621"><ele>172.0</ele><time>2026-04-21T11:43:52.001Z</time></trkpt><trkpt lat="44.38422380716734" lon="9.101510529612453"><ele>172.0</ele><time>2026-04-21T11:43:53.001Z</time></trkpt><trkpt lat="44.38406020354623" lon="9.101754410621115"><ele>174.33333333333334</ele><time>2026-04-21T11:43:54.001Z</time></trkpt><trkpt lat="44.38390714898214" lon="9.10197964454728"><ele>176.66666666666666</ele><time>2026-04-21T11:43:55.001Z</time></trkpt><trkpt lat="44.38374661600506" lon="9.102204654354747"><ele>179.0</ele><time>2026-04-21T11:43:56.001Z</time></trkpt><trkpt lat="44.383575154580974" lon="9.102415191109658"><ele>167.5</ele><time>2026-04-21T11:43:57.001Z</time></trkpt><trkpt lat="44.38339255893123" lon="9.102623606270042"><ele>156.0</ele><time>2026-04-21T11:43:58.001Z</time></trkpt><trkpt lat="44.383197149281564" lon="9.102819966873632"><ele>164.5</ele><time>2026-04-21T11:43:59.001Z</time></trkpt><trkpt lat="44.38299071914493" lon="9.103007053690643"><ele>173.0</ele><time>2026-04-21T11:44:00.001Z</time></trkpt><trkpt lat="44.38277504820964" lon="9.103187864695267"><ele>160.5</ele><time>2026-04-21T11:44:01.001Z</time></trkpt><trkpt lat="44.38255154944006" lon="9.103364117039694"><ele>148.0</ele><time>2026-04-21T11:44:02.001Z</time></trkpt><trkpt lat="44.382328496632546" lon="9.103536331133906"><ele>156.5</ele><time>2026-04-21T11:44:03.001Z</time></trkpt><trkpt lat="44.382118312430315" lon="9.103707514817064"><ele>165.0</ele><time>2026-04-21T11:44:04.001Z</time></trkpt><trkpt lat="44.381921544201276" lon="9.103879982358835"><ele>165.0</ele><time>2026-04-21T11:44:05.002Z</time></trkpt><trkpt lat="44.38173106807828" lon="9.104070370291954"><ele>165.0</ele><time>2026-04-21T11:44:06.002Z</time></trkpt><trkpt lat="44.38154646403113" lon="9.10427736825183"><ele>167.0</ele><time>2026-04-21T11:44:07.002Z</time></trkpt><trkpt lat="44.38137746498043" lon="9.104496002120252"><ele>169.0</ele><time>2026-04-21T11:44:08.002Z</time></trkpt><trkpt lat="44.38121482362805" lon="9.10472531118421"><ele>155.5</ele><time>2026-04-21T11:44:09.002Z</time></trkpt><trkpt lat="44.3810573887985" lon="9.104967218140734"><ele>142.0</ele><time>2026-04-21T11:44:10.002Z</time></trkpt><trkpt lat="44.38090929923448" lon="9.105228745268743"><ele>142.0</ele><time>2026-04-21T11:44:11.002Z</time></trkpt><trkpt lat="44.380770036288034" lon="9.105506997294814"><ele>142.0</ele><time>2026-04-21T11:44:12.002Z</time></trkpt><trkpt lat="44.38064459482842" lon="9.105797483338785"><ele>133.5</ele><time>2026-04-21T11:44:13.002Z</time></trkpt><trkpt lat="44.38053757456512" lon="9.106097505080427"><ele>125.0</ele><time>2026-04-21T11:44:14.002Z</time></trkpt><trkpt lat="44.380447130007695" lon="9.106418255733816"><ele>113.5</ele><time>2026-04-21T11:44:15.002Z</time></trkpt><trkpt lat="44.380356120045974" lon="9.106746413163668"><ele>102.0</ele><time>2026-04-21T11:44:16.002Z</time></trkpt><trkpt lat="44.38028728050955" lon="9.107078237602229"><ele>86.5</ele><time>2026-04-21T11:44:17.002Z</time></trkpt><trkpt lat="44.38023438910926" lon="9.107418317582376"><ele>71.0</ele><time>2026-04-21T11:44:18.002Z</time></trkpt><trkpt lat="44.38019541869335" lon="9.10777159850972"><ele>71.0</ele><time>2026-04-21T11:44:19.002Z</time></trkpt><trkpt lat="44.380167966724" lon="9.1081309932029"><ele>71.0</ele><time>2026-04-21T11:44:20.002Z</time></trkpt><trkpt lat="44.380144196262066" lon="9.108495688093273"><ele>57.0</ele><time>2026-04-21T11:44:21.002Z</time></trkpt><trkpt lat="44.38011356935636" lon="9.108860867761988"><ele>43.0</ele><time>2026-04-21T11:44:22.002Z</time></trkpt><trkpt lat="44.38008002570727" lon="9.10922106032438"><ele>40.0</ele><time>2026-04-21T11:44:23.002Z</time></trkpt><trkpt lat="44.3800458807164" lon="9.109591564716572"><ele>37.0</ele><time>2026-04-21T11:44:24.002Z</time></trkpt><trkpt lat="44.380011240045576" lon="9.10996099104584"><ele>49.0</ele><time>2026-04-21T11:44:25.001Z</time></trkpt><trkpt lat="44.379977510212065" lon="9.110329198981061"><ele>61.0</ele><time>2026-04-21T11:44:26.001Z</time></trkpt><trkpt lat="44.37994322392679" lon="9.110695862806722"><ele>78.5</ele><time>2026-04-21T11:44:27.001Z</time></trkpt><trkpt lat="44.379907772016836" lon="9.111062290405139"><ele>96.0</ele><time>2026-04-21T11:44:28.001Z</time></trkpt><trkpt lat="44.37987659061911" lon="9.11142965131353"><ele>110.0</ele><time>2026-04-21T11:44:29.001Z</time></trkpt><trkpt lat="44.37984821495704" lon="9.111793261633796"><ele>124.0</ele><time>2026-04-21T11:44:30.001Z</time></trkpt><trkpt lat="44.37981696419731" lon="9.112154812981423"><ele>124.0</ele><time>2026-04-21T11:44:31.001Z</time></trkpt><trkpt lat="44.37978690300992" lon="9.112522463750942"><ele>124.0</ele><time>2026-04-21T11:44:32.001Z</time></trkpt><trkpt lat="44.379749637845755" lon="9.112878149326658"><ele>121.5</ele><time>2026-04-21T11:44:33.001Z</time></trkpt><trkpt lat="44.37971254959331" lon="9.113240155599707"><ele>119.0</ele><time>2026-04-21T11:44:34.001Z</time></trkpt><trkpt lat="44.37967790791576" lon="9.113602824074542"><ele>139.0</ele><time>2026-04-21T11:44:35.001Z</time></trkpt><trkpt lat="44.379645988534534" lon="9.11396461431304"><ele>159.0</ele><time>2026-04-21T11:44:36.001Z</time></trkpt><trkpt lat="44.37961518992451" lon="9.114320547029637"><ele>160.5</ele><time>2026-04-21T11:44:37.001Z</time></trkpt><trkpt lat="44.379587447993295" lon="9.114677141977989"><ele>162.0</ele><time>2026-04-21T11:44:38.001Z</time></trkpt><trkpt lat="44.379560281407265" lon="9.115032670586956"><ele>164.0</ele><time>2026-04-21T11:44:39.001Z</time></trkpt><trkpt lat="44.37953532991014" lon="9.115386996306233"><ele>166.0</ele><time>2026-04-21T11:44:40.001Z</time></trkpt><trkpt lat="44.37950923071449" lon="9.11573673380816"><ele>163.5</ele><time>2026-04-21T11:44:41.001Z</time></trkpt><trkpt lat="44.379479441313826" lon="9.116077216526614"><ele>161.0</ele><time>2026-04-21T11:44:42.001Z</time></trkpt><trkpt lat="44.37944762975953" lon="9.116416677171465"><ele>161.0</ele><time>2026-04-21T11:44:43.001Z</time></trkpt><trkpt lat="44.37941089254575" lon="9.116755516692564"><ele>161.0</ele><time>2026-04-21T11:44:44.001Z</time></trkpt><trkpt lat="44.379367330974624" lon="9.117092228676652"><ele>162.5</ele><time>2026-04-21T11:44:45.001Z</time></trkpt><trkpt lat="44.3793178195633" lon="9.117430977251667"><ele>164.0</ele><time>2026-04-21T11:44:46.001Z</time></trkpt><trkpt lat="44.37927120939586" lon="9.117769894634606"><ele>164.0</ele><time>2026-04-21T11:44:47.001Z</time></trkpt><trkpt lat="44.37923010611783" lon="9.118110110860004"><ele>164.0</ele><time>2026-04-21T11:44:48.001Z</time></trkpt><trkpt lat="44.379193009588754" lon="9.118454233812285"><ele>167.0</ele><time>2026-04-21T11:44:49.001Z</time></trkpt><trkpt lat="44.379156231375646" lon="9.11879985748764"><ele>170.0</ele><time>2026-04-21T11:44:50.001Z</time></trkpt><trkpt lat="44.379113160291915" lon="9.119165221206057"><ele>184.0</ele><time>2026-04-21T11:44:51.061Z</time></trkpt><trkpt lat="44.37906794936409" lon="9.119513053630667"><ele>198.0</ele><time>2026-04-21T11:44:52.065Z</time></trkpt><trkpt lat="44.379017197554994" lon="9.119854983650304"><ele>213.0</ele><time>2026-04-21T11:44:53.06Z</time></trkpt><trkpt lat="44.37898370178803" lon="9.12019984197171"><ele>228.0</ele><time>2026-04-21T11:44:54.056Z</time></trkpt><trkpt lat="44.37868972179275" lon="9.124398828077593"><ele>438.0</ele><time>2026-04-21T11:44:58.552Z</time></trkpt><trkpt lat="44.378570687079154" lon="9.125770526072099"><ele>466.0</ele><time>2026-04-21T11:44:59.553Z</time></trkpt><trkpt lat="44.37845159586257" lon="9.127142875179404"><ele>517.0</ele><time>2026-04-21T11:45:00.555Z</time></trkpt><trkpt lat="44.37833334084021" lon="9.128509696368386"><ele>520.0</ele><time>2026-04-21T11:45:01.552Z</time></trkpt><trkpt lat="44.37821375754905" lon="9.12988252516181"><ele>439.0</ele><time>2026-04-21T11:45:02.554Z</time></trkpt><trkpt lat="44.37809518123475" lon="9.13125000564392"><ele>362.0</ele><time>2026-04-21T11:45:03.552Z</time></trkpt><trkpt lat="44.377977235995004" lon="9.132623113013228"><ele>339.0</ele><time>2026-04-21T11:45:04.554Z</time></trkpt><trkpt lat="44.377858623957515" lon="9.133988725940446"><ele>282.0</ele><time>2026-04-21T11:45:05.551Z</time></trkpt><trkpt lat="44.37774276129243" lon="9.135365277642657"><ele>244.0</ele><time>2026-04-21T11:45:06.555Z</time></trkpt><trkpt lat="44.377625549657466" lon="9.136734598333456"><ele>227.0</ele><time>2026-04-21T11:45:07.554Z</time></trkpt><trkpt lat="44.37750616785673" lon="9.13810598374285"><ele>193.0</ele><time>2026-04-21T11:45:08.555Z</time></trkpt><trkpt lat="44.37738811959003" lon="9.139474502774151"><ele>162.0</ele><time>2026-04-21T11:45:09.553Z</time></trkpt><trkpt lat="44.37727107160875" lon="9.140845508216687"><ele>138.0</ele><time>2026-04-21T11:45:10.554Z</time></trkpt><trkpt lat="44.37709209666283" lon="9.142623521475425"><ele>138.0</ele><time>2026-04-21T11:45:52.001Z</time></trkpt><trkpt lat="44.37706282934087" lon="9.142990436471317"><ele>138.0</ele><time>2026-04-21T11:45:53.001Z</time></trkpt><trkpt lat="44.37701815985153" lon="9.14334361873404"><ele>130.5</ele><time>2026-04-21T11:45:54.001Z</time></trkpt><trkpt lat="44.37696319552475" lon="9.143697618388321"><ele>123.0</ele><time>2026-04-21T11:45:55.001Z</time></trkpt><trkpt lat="44.37692379528558" lon="9.144033802764778"><ele>120.5</ele><time>2026-04-21T11:45:56.001Z</time></trkpt><trkpt lat="44.37686979658829" lon="9.144342866910996"><ele>118.0</ele><time>2026-04-21T11:45:57.001Z</time></trkpt><trkpt lat="44.37679982808651" lon="9.144655096506126"><ele>115.0</ele><time>2026-04-21T11:45:58.001Z</time></trkpt><trkpt lat="44.37672137078848" lon="9.144976914588154"><ele>112.0</ele><time>2026-04-21T11:45:59.001Z</time></trkpt><trkpt lat="44.376607410516094" lon="9.145280883691076"><ele>112.0</ele><time>2026-04-21T11:46:00.001Z</time></trkpt><trkpt lat="44.376478043006614" lon="9.145581617130123"><ele>112.0</ele><time>2026-04-21T11:46:01.001Z</time></trkpt><trkpt lat="44.37633130893182" lon="9.145854897475555"><ele>122.0</ele><time>2026-04-21T11:46:02.001Z</time></trkpt><trkpt lat="44.37618597671732" lon="9.14611256083374"><ele>132.0</ele><time>2026-04-21T11:46:03.001Z</time></trkpt><trkpt lat="44.376036742132655" lon="9.146409282539214"><ele>115.5</ele><time>2026-04-21T11:46:04.001Z</time></trkpt><trkpt lat="44.37587190946802" lon="9.146715677892166"><ele>99.0</ele><time>2026-04-21T11:46:05.001Z</time></trkpt><trkpt lat="44.37569858455388" lon="9.14700484530886"><ele>99.0</ele><time>2026-04-21T11:46:06.001Z</time></trkpt><trkpt lat="44.37553854191007" lon="9.147288602038474"><ele>99.0</ele><time>2026-04-21T11:46:07.001Z</time></trkpt><trkpt lat="44.37538229072846" lon="9.147568688597225"><ele>104.5</ele><time>2026-04-21T11:46:08.001Z</time></trkpt><trkpt lat="44.375232046209426" lon="9.147839587097351"><ele>110.0</ele><time>2026-04-21T11:46:09.001Z</time></trkpt><trkpt lat="44.375090931580885" lon="9.148124297976443"><ele>100.5</ele><time>2026-04-21T11:46:10.001Z</time></trkpt><trkpt lat="44.37495009313066" lon="9.148411492658125"><ele>91.0</ele><time>2026-04-21T11:46:11.001Z</time></trkpt><trkpt lat="44.37481278338694" lon="9.148711283186255"><ele>91.0</ele><time>2026-04-21T11:46:12.001Z</time></trkpt><trkpt lat="44.37469322743388" lon="9.149031743107214"><ele>91.0</ele><time>2026-04-21T11:46:13.001Z</time></trkpt><trkpt lat="44.37456588839648" lon="9.149329222162194"><ele>71.5</ele><time>2026-04-21T11:46:14.001Z</time></trkpt><trkpt lat="44.37444788473955" lon="9.1496086832917"><ele>52.0</ele><time>2026-04-21T11:46:15.001Z</time></trkpt><trkpt lat="44.37435410908332" lon="9.149913497724508"><ele>42.0</ele><time>2026-04-21T11:46:16.001Z</time></trkpt><trkpt lat="44.37422258537527" lon="9.150195905793138"><ele>32.0</ele><time>2026-04-21T11:46:17.001Z</time></trkpt><trkpt lat="44.374076203584224" lon="9.150475444468977"><ele>28.5</ele><time>2026-04-21T11:46:18.001Z</time></trkpt><trkpt lat="44.373922778764125" lon="9.150743238244113"><ele>25.0</ele><time>2026-04-21T11:46:19.001Z</time></trkpt><trkpt lat="44.373760457513605" lon="9.151013629191544"><ele>25.0</ele><time>2026-04-21T11:46:20.001Z</time></trkpt><trkpt lat="44.37358942907429" lon="9.151269883771041"><ele>25.0</ele><time>2026-04-21T11:46:21.001Z</time></trkpt><trkpt lat="44.373412147441464" lon="9.151519347385703"><ele>27.0</ele><time>2026-04-21T11:46:22.001Z</time></trkpt><trkpt lat="44.37322820958368" lon="9.151760453725638"><ele>29.0</ele><time>2026-04-21T11:46:23.001Z</time></trkpt><trkpt lat="44.37303785238975" lon="9.151986528102695"><ele>29.0</ele><time>2026-04-21T11:46:24.001Z</time></trkpt><trkpt lat="44.372841243671004" lon="9.152200019393762"><ele>29.0</ele><time>2026-04-21T11:46:25.001Z</time></trkpt><trkpt lat="44.37264044692172" lon="9.152399832937803"><ele>43.5</ele><time>2026-04-21T11:46:26.001Z</time></trkpt><trkpt lat="44.3724365676772" lon="9.152588709373894"><ele>58.0</ele><time>2026-04-21T11:46:27.001Z</time></trkpt><trkpt lat="44.3722328832782" lon="9.152764295778749"><ele>52.5</ele><time>2026-04-21T11:46:28.001Z</time></trkpt><trkpt lat="44.37202923035552" lon="9.152929216565651"><ele>47.0</ele><time>2026-04-21T11:46:29.002Z</time></trkpt><trkpt lat="44.37182164966864" lon="9.153089165514485"><ele>67.0</ele><time>2026-04-21T11:46:30.002Z</time></trkpt><trkpt lat="44.371613423243915" lon="9.153239865763771"><ele>87.0</ele><time>2026-04-21T11:46:31.001Z</time></trkpt><trkpt lat="44.37140629860897" lon="9.15338923818875"><ele>84.66666666666667</ele><time>2026-04-21T11:46:32.001Z</time></trkpt><trkpt lat="44.371205081504456" lon="9.15353695734316"><ele>82.33333333333334</ele><time>2026-04-21T11:46:33.001Z</time></trkpt><trkpt lat="44.37101503905741" lon="9.153688656776566"><ele>80.0</ele><time>2026-04-21T11:46:34.001Z</time></trkpt><trkpt lat="44.37083263937992" lon="9.153854853020707"><ele>80.0</ele><time>2026-04-21T11:46:35.001Z</time></trkpt><trkpt lat="44.3706594323254" lon="9.15403096452449"><ele>80.0</ele><time>2026-04-21T11:46:36.001Z</time></trkpt><trkpt lat="44.3704942950802" lon="9.154220862659967"><ele>80.0</ele><time>2026-04-21T11:46:37.001Z</time></trkpt><trkpt lat="44.370339452706375" lon="9.15442469167726"><ele>84.66666666666667</ele><time>2026-04-21T11:46:38.001Z</time></trkpt><trkpt lat="44.37019526391985" lon="9.154641907717574"><ele>89.33333333333333</ele><time>2026-04-21T11:46:39.001Z</time></trkpt><trkpt lat="44.37005962560386" lon="9.154868569904657"><ele>94.0</ele><time>2026-04-21T11:46:40.001Z</time></trkpt><trkpt lat="44.36993397691258" lon="9.15510482782689"><ele>98.33333333333333</ele><time>2026-04-21T11:46:41.001Z</time></trkpt><trkpt lat="44.369820727690595" lon="9.155348193853914"><ele>102.66666666666666</ele><time>2026-04-21T11:46:42.001Z</time></trkpt><trkpt lat="44.36971699984979" lon="9.155601970080337"><ele>107.0</ele><time>2026-04-21T11:46:43.001Z</time></trkpt><trkpt lat="44.369620164938326" lon="9.15587246601674"><ele>99.66666666666666</ele><time>2026-04-21T11:46:44.001Z</time></trkpt><trkpt lat="44.369532669232804" lon="9.156147921112758"><ele>92.33333333333333</ele><time>2026-04-21T11:46:45.001Z</time></trkpt><trkpt lat="44.36945633539449" lon="9.156438642758781"><ele>85.0</ele><time>2026-04-21T11:46:46.001Z</time></trkpt><trkpt lat="44.369391388530055" lon="9.156739630233862"><ele>85.0</ele><time>2026-04-21T11:46:47.001Z</time></trkpt><trkpt lat="44.36933728415447" lon="9.157048357704356"><ele>85.0</ele><time>2026-04-21T11:46:48.001Z</time></trkpt><trkpt lat="44.36929419223974" lon="9.157362398721066"><ele>94.0</ele><time>2026-04-21T11:46:49.001Z</time></trkpt><trkpt lat="44.36925280928076" lon="9.157682859845947"><ele>103.0</ele><time>2026-04-21T11:46:50.001Z</time></trkpt><trkpt lat="44.36921087004716" lon="9.158009583610852"><ele>109.0</ele><time>2026-04-21T11:46:51.001Z</time></trkpt><trkpt lat="44.36916832829593" lon="9.158339204965069"><ele>115.0</ele><time>2026-04-21T11:46:52.001Z</time></trkpt><trkpt lat="44.36912311585311" lon="9.158671064673294"><ele>115.0</ele><time>2026-04-21T11:46:53.001Z</time></trkpt><trkpt lat="44.369069447053434" lon="9.159005285206725"><ele>115.0</ele><time>2026-04-21T11:46:54.001Z</time></trkpt><trkpt lat="44.36900641163877" lon="9.15933536944815"><ele>117.5</ele><time>2026-04-21T11:46:55.001Z</time></trkpt><trkpt lat="44.36894098556567" lon="9.159662810462455"><ele>120.0</ele><time>2026-04-21T11:46:56.001Z</time></trkpt><trkpt lat="44.36887283231041" lon="9.159988618128743"><ele>119.0</ele><time>2026-04-21T11:46:57.001Z</time></trkpt><trkpt lat="44.36880296505216" lon="9.160309307153605"><ele>118.0</ele><time>2026-04-21T11:46:58.001Z</time></trkpt><trkpt lat="44.3687363860238" lon="9.1606278544257"><ele>123.5</ele><time>2026-04-21T11:46:59.001Z</time></trkpt><trkpt lat="44.36867152953888" lon="9.160943947792394"><ele>129.0</ele><time>2026-04-21T11:47:00.001Z</time></trkpt><trkpt lat="44.368605244452006" lon="9.16126273247763"><ele>137.0</ele><time>2026-04-21T11:47:01.001Z</time></trkpt><trkpt lat="44.368540619757574" lon="9.161581088570765"><ele>145.0</ele><time>2026-04-21T11:47:02.001Z</time></trkpt><trkpt lat="44.368474938165846" lon="9.161904038863748"><ele>145.0</ele><time>2026-04-21T11:47:03.001Z</time></trkpt><trkpt lat="44.36840593712891" lon="9.162224395145403"><ele>145.0</ele><time>2026-04-21T11:47:04.001Z</time></trkpt><trkpt lat="44.368337731931376" lon="9.162540947266004"><ele>161.5</ele><time>2026-04-21T11:47:05.001Z</time></trkpt><trkpt lat="44.368261244976644" lon="9.162854695194847"><ele>178.0</ele><time>2026-04-21T11:47:06.001Z</time></trkpt><trkpt lat="44.368190391813584" lon="9.163174449427444"><ele>199.5</ele><time>2026-04-21T11:47:07.001Z</time></trkpt><trkpt lat="44.36811865076127" lon="9.163513815743633"><ele>221.0</ele><time>2026-04-21T11:47:08.067Z</time></trkpt><trkpt lat="44.36804556901612" lon="9.163838364737213"><ele>234.0</ele><time>2026-04-21T11:47:09.065Z</time></trkpt><trkpt lat="44.36797290999816" lon="9.164164838119559"><ele>247.0</ele><time>2026-04-21T11:47:10.062Z</time></trkpt><trkpt lat="44.36790330123918" lon="9.164469422775829"><ele>344.0</ele><time>2026-04-21T11:47:11.059Z</time></trkpt><trkpt lat="44.36738396994115" lon="9.16719248348957"><ele>411.0</ele><time>2026-04-21T11:47:14.555Z</time></trkpt><trkpt lat="44.36711173567617" lon="9.168518812053716"><ele>455.0</ele><time>2026-04-21T11:47:15.555Z</time></trkpt><trkpt lat="44.36683768043126" lon="9.16984108465705"><ele>530.0</ele><time>2026-04-21T11:47:16.552Z</time></trkpt><trkpt lat="44.366564711679686" lon="9.17117148485895"><ele>529.0</ele><time>2026-04-21T11:47:17.555Z</time></trkpt><trkpt lat="44.36629404397512" lon="9.172496152992908"><ele>497.0</ele><time>2026-04-21T11:47:18.553Z</time></trkpt><trkpt lat="44.366019003557064" lon="9.173824000884217"><ele>417.0</ele><time>2026-04-21T11:47:19.555Z</time></trkpt><trkpt lat="44.365750077151695" lon="9.175153162452164"><ele>414.0</ele><time>2026-04-21T11:47:20.555Z</time></trkpt><trkpt lat="44.365475366064366" lon="9.176476436760614"><ele>346.0</ele><time>2026-04-21T11:47:21.554Z</time></trkpt><trkpt lat="44.36520341788484" lon="9.177803538922369"><ele>297.0</ele><time>2026-04-21T11:47:22.554Z</time></trkpt><trkpt lat="44.36493061817731" lon="9.1791279158112"><ele>291.0</ele><time>2026-04-21T11:47:23.552Z</time></trkpt><trkpt lat="44.36465601082356" lon="9.180456375198945"><ele>201.0</ele><time>2026-04-21T11:47:24.554Z</time></trkpt><trkpt lat="44.36438202417113" lon="9.181779487386768"><ele>133.0</ele><time>2026-04-21T11:47:25.552Z</time></trkpt><trkpt lat="44.36401931447837" lon="9.183492063755109"><ele>133.0</ele><time>2026-04-21T11:48:08.001Z</time></trkpt><trkpt lat="44.36392821696111" lon="9.183813012564965"><ele>133.0</ele><time>2026-04-21T11:48:09.001Z</time></trkpt><trkpt lat="44.363783111240146" lon="9.184030204080166"><ele>128.0</ele><time>2026-04-21T11:48:10.001Z</time></trkpt><trkpt lat="44.363648176856124" lon="9.184300040089392"><ele>123.0</ele><time>2026-04-21T11:48:11.001Z</time></trkpt><trkpt lat="44.3635173122334" lon="9.184539622797717"><ele>123.0</ele><time>2026-04-21T11:48:12.001Z</time></trkpt><trkpt lat="44.36337845856293" lon="9.184811641339785"><ele>123.0</ele><time>2026-04-21T11:48:13.001Z</time></trkpt><trkpt lat="44.36324485634749" lon="9.185072546351426"><ele>122.0</ele><time>2026-04-21T11:48:14.001Z</time></trkpt><trkpt lat="44.363115190319924" lon="9.18531513853849"><ele>121.0</ele><time>2026-04-21T11:48:15.001Z</time></trkpt><trkpt lat="44.3629958659575" lon="9.185580395676856"><ele>120.0</ele><time>2026-04-21T11:48:16.001Z</time></trkpt><trkpt lat="44.36288885420897" lon="9.185870216706626"><ele>113.5</ele><time>2026-04-21T11:48:17.001Z</time></trkpt><trkpt lat="44.36279204920867" lon="9.186176175340092"><ele>107.0</ele><time>2026-04-21T11:48:18.001Z</time></trkpt><trkpt lat="44.362710137133256" lon="9.186493490277076"><ele>104.5</ele><time>2026-04-21T11:48:19.001Z</time></trkpt><trkpt lat="44.36263607125717" lon="9.186820107086502"><ele>102.0</ele><time>2026-04-21T11:48:20.001Z</time></trkpt><trkpt lat="44.36257200827331" lon="9.187159701773167"><ele>102.5</ele><time>2026-04-21T11:48:21.001Z</time></trkpt><trkpt lat="44.362511690182735" lon="9.187504362404724"><ele>103.0</ele><time>2026-04-21T11:48:22.001Z</time></trkpt><trkpt lat="44.36244657000526" lon="9.187852854207776"><ele>104.0</ele><time>2026-04-21T11:48:23.001Z</time></trkpt><trkpt lat="44.36238163700638" lon="9.188199812553222"><ele>105.0</ele><time>2026-04-21T11:48:24.001Z</time></trkpt><trkpt lat="44.362318264448945" lon="9.188538343166035"><ele>105.0</ele><time>2026-04-21T11:48:25.001Z</time></trkpt><trkpt lat="44.362254509415486" lon="9.188882686720603"><ele>105.0</ele><time>2026-04-21T11:48:26.001Z</time></trkpt><trkpt lat="44.36218955028285" lon="9.189227372623241"><ele>90.0</ele><time>2026-04-21T11:48:27.001Z</time></trkpt><trkpt lat="44.36212364210699" lon="9.189574551763249"><ele>75.0</ele><time>2026-04-21T11:48:28.001Z</time></trkpt><trkpt lat="44.362060042939255" lon="9.189919356537894"><ele>75.0</ele><time>2026-04-21T11:48:29.001Z</time></trkpt><trkpt lat="44.361996433278804" lon="9.190265915404192"><ele>75.0</ele><time>2026-04-21T11:48:30.001Z</time></trkpt><trkpt lat="44.361934829178594" lon="9.190614807785375"><ele>76.0</ele><time>2026-04-21T11:48:31.001Z</time></trkpt><trkpt lat="44.36187442472957" lon="9.190951088929353"><ele>77.0</ele><time>2026-04-21T11:48:32.001Z</time></trkpt><trkpt lat="44.36181686010398" lon="9.191275986428664"><ele>74.5</ele><time>2026-04-21T11:48:33.001Z</time></trkpt><trkpt lat="44.361758906565726" lon="9.191600378215515"><ele>72.0</ele><time>2026-04-21T11:48:34.001Z</time></trkpt><trkpt lat="44.361697814873445" lon="9.191935349060293"><ele>72.0</ele><time>2026-04-21T11:48:35.001Z</time></trkpt><trkpt lat="44.361635345325524" lon="9.192272940962003"><ele>72.0</ele><time>2026-04-21T11:48:36.001Z</time></trkpt><trkpt lat="44.36157373156902" lon="9.192613255580794"><ele>76.0</ele><time>2026-04-21T11:48:37.001Z</time></trkpt><trkpt lat="44.361515603441504" lon="9.192954694406481"><ele>80.0</ele><time>2026-04-21T11:48:38.001Z</time></trkpt><trkpt lat="44.3614641178482" lon="9.19328755024259"><ele>92.5</ele><time>2026-04-21T11:48:39.001Z</time></trkpt><trkpt lat="44.36141681061425" lon="9.19362869767385"><ele>105.0</ele><time>2026-04-21T11:48:40.001Z</time></trkpt><trkpt lat="44.36137803652477" lon="9.193977323621889"><ele>99.5</ele><time>2026-04-21T11:48:41.001Z</time></trkpt><trkpt lat="44.36134798480137" lon="9.194332163252966"><ele>94.0</ele><time>2026-04-21T11:48:42.001Z</time></trkpt><trkpt lat="44.361318575722606" lon="9.194695141339754"><ele>88.5</ele><time>2026-04-21T11:48:43.001Z</time></trkpt><trkpt lat="44.36128876624172" lon="9.195063287755419"><ele>83.0</ele><time>2026-04-21T11:48:44.001Z</time></trkpt><trkpt lat="44.36123459636752" lon="9.195387400538827"><ele>75.0</ele><time>2026-04-21T11:48:45.001Z</time></trkpt><trkpt lat="44.361215685628295" lon="9.195780141190783"><ele>67.0</ele><time>2026-04-21T11:48:46.001Z</time></trkpt><trkpt lat="44.3611736608939" lon="9.196114822317849"><ele>67.0</ele><time>2026-04-21T11:48:47.001Z</time></trkpt><trkpt lat="44.361118306011875" lon="9.196459496193029"><ele>67.0</ele><time>2026-04-21T11:48:48.001Z</time></trkpt><trkpt lat="44.36105494397839" lon="9.196797399419259"><ele>66.0</ele><time>2026-04-21T11:48:49.001Z</time></trkpt><trkpt lat="44.36097680973761" lon="9.197129785581055"><ele>65.0</ele><time>2026-04-21T11:48:50.001Z</time></trkpt><trkpt lat="44.360891303721985" lon="9.197459020434959"><ele>67.0</ele><time>2026-04-21T11:48:51.001Z</time></trkpt><trkpt lat="44.36081125381825" lon="9.197783780491527"><ele>69.0</ele><time>2026-04-21T11:48:52.001Z</time></trkpt><trkpt lat="44.36073491633248" lon="9.198104484801695"><ele>73.0</ele><time>2026-04-21T11:48:53.001Z</time></trkpt><trkpt lat="44.36067104604716" lon="9.19840873971861"><ele>77.0</ele><time>2026-04-21T11:48:54.001Z</time></trkpt><trkpt lat="44.360609078820445" lon="9.19871773291335"><ele>80.0</ele><time>2026-04-21T11:48:55.001Z</time></trkpt><trkpt lat="44.36055379844843" lon="9.199034812744417"><ele>83.0</ele><time>2026-04-21T11:48:56.001Z</time></trkpt><trkpt lat="44.36051429423759" lon="9.199354448418346"><ele>73.0</ele><time>2026-04-21T11:48:57.001Z</time></trkpt><trkpt lat="44.36048713452122" lon="9.199692744763118"><ele>63.0</ele><time>2026-04-21T11:48:58.001Z</time></trkpt><trkpt lat="44.360467706368496" lon="9.200044082237278"><ele>57.5</ele><time>2026-04-21T11:48:59.001Z</time></trkpt><trkpt lat="44.36045444881638" lon="9.200403514938214"><ele>52.0</ele><time>2026-04-21T11:49:00.001Z</time></trkpt><trkpt lat="44.360443055310526" lon="9.20077623443881"><ele>51.5</ele><time>2026-04-21T11:49:01.001Z</time></trkpt><trkpt lat="44.3604283572322" lon="9.20115473929841"><ele>51.0</ele><time>2026-04-21T11:49:02.001Z</time></trkpt><trkpt lat="44.36041343547886" lon="9.201524762664535"><ele>51.0</ele><time>2026-04-21T11:49:03.001Z</time></trkpt><trkpt lat="44.36039398681886" lon="9.201885790519452"><ele>51.0</ele><time>2026-04-21T11:49:04.001Z</time></trkpt><trkpt lat="44.360372119308025" lon="9.202252160886362"><ele>50.0</ele><time>2026-04-21T11:49:05.001Z</time></trkpt><trkpt lat="44.360351374223676" lon="9.20261549089175"><ele>49.0</ele><time>2026-04-21T11:49:06.001Z</time></trkpt><trkpt lat="44.36033042191149" lon="9.202967329990752"><ele>47.5</ele><time>2026-04-21T11:49:07.001Z</time></trkpt><trkpt lat="44.36030703275099" lon="9.203313149247453"><ele>46.0</ele><time>2026-04-21T11:49:08.001Z</time></trkpt><trkpt lat="44.36028083715361" lon="9.203646405581226"><ele>46.0</ele><time>2026-04-21T11:49:09.001Z</time></trkpt><trkpt lat="44.360247441012845" lon="9.203988656827258"><ele>46.0</ele><time>2026-04-21T11:49:10.001Z</time></trkpt><trkpt lat="44.3602005175353" lon="9.204328503802945"><ele>46.0</ele><time>2026-04-21T11:49:11.001Z</time></trkpt><trkpt lat="44.36013984553769" lon="9.204672177258994"><ele>46.0</ele><time>2026-04-21T11:49:12.001Z</time></trkpt><trkpt lat="44.36006905909858" lon="9.205019539082215"><ele>45.0</ele><time>2026-04-21T11:49:13.001Z</time></trkpt><trkpt lat="44.35998920631447" lon="9.205366996714698"><ele>44.0</ele><time>2026-04-21T11:49:14.001Z</time></trkpt><trkpt lat="44.3598949067699" lon="9.205710875152857"><ele>44.0</ele><time>2026-04-21T11:49:15.001Z</time></trkpt><trkpt lat="44.35979435608396" lon="9.206058187905949"><ele>44.0</ele><time>2026-04-21T11:49:16.001Z</time></trkpt><trkpt lat="44.3596882546421" lon="9.206402196447067"><ele>40.5</ele><time>2026-04-21T11:49:17.001Z</time></trkpt><trkpt lat="44.359579391801766" lon="9.206749533303539"><ele>37.0</ele><time>2026-04-21T11:49:18.001Z</time></trkpt><trkpt lat="44.3594692376099" lon="9.207098027651309"><ele>37.0</ele><time>2026-04-21T11:49:19.001Z</time></trkpt><trkpt lat="44.35936135896236" lon="9.207441354521087"><ele>37.0</ele><time>2026-04-21T11:49:20.001Z</time></trkpt><trkpt lat="44.35925092964871" lon="9.207772683214873"><ele>37.0</ele><time>2026-04-21T11:49:21.001Z</time></trkpt><trkpt lat="44.3591483924248" lon="9.208134076953987"><ele>37.0</ele><time>2026-04-21T11:49:22.001Z</time></trkpt><trkpt lat="44.35904752876296" lon="9.208487375143035"><ele>33.0</ele><time>2026-04-21T11:49:23.001Z</time></trkpt><trkpt lat="44.358940264023374" lon="9.2088379513428"><ele>29.0</ele><time>2026-04-21T11:49:24.001Z</time></trkpt><trkpt lat="44.358833485553475" lon="9.209189231573651"><ele>26.5</ele><time>2026-04-21T11:49:25.001Z</time></trkpt><trkpt lat="44.35873268985411" lon="9.209541153704436"><ele>24.0</ele><time>2026-04-21T11:49:26.001Z</time></trkpt><trkpt lat="44.35862140953613" lon="9.209885416060132"><ele>23.0</ele><time>2026-04-21T11:49:27.001Z</time></trkpt><trkpt lat="44.35851338081" lon="9.21024167563521"><ele>22.0</ele><time>2026-04-21T11:49:28.001Z</time></trkpt><trkpt lat="44.358412352902164" lon="9.210598288452342"><ele>25.0</ele><time>2026-04-21T11:49:29.001Z</time></trkpt><trkpt lat="44.35831242229612" lon="9.2109552673901"><ele>28.0</ele><time>2026-04-21T11:49:30.001Z</time></trkpt><trkpt lat="44.35822161577875" lon="9.211326879419"><ele>25.0</ele><time>2026-04-21T11:49:31.001Z</time></trkpt><trkpt lat="44.358131122567734" lon="9.211696524487024"><ele>22.0</ele><time>2026-04-21T11:49:32.001Z</time></trkpt><trkpt lat="44.35805701744789" lon="9.212063073565501"><ele>17.5</ele><time>2026-04-21T11:49:33.001Z</time></trkpt><trkpt lat="44.35798664906147" lon="9.21243530372233"><ele>13.0</ele><time>2026-04-21T11:49:34.001Z</time></trkpt><trkpt lat="44.35792512456332" lon="9.212822947689448"><ele>12.5</ele><time>2026-04-21T11:49:35.001Z</time></trkpt><trkpt lat="44.35786408106559" lon="9.213199365898122"><ele>12.0</ele><time>2026-04-21T11:49:36.001Z</time></trkpt><trkpt lat="44.357805962030156" lon="9.213563532100816"><ele>12.0</ele><time>2026-04-21T11:49:37.001Z</time></trkpt><trkpt lat="44.357761140642246" lon="9.213931403601006"><ele>12.0</ele><time>2026-04-21T11:49:38.001Z</time></trkpt><trkpt lat="44.3577147422231" lon="9.214304692861708"><ele>16.0</ele><time>2026-04-21T11:49:39.001Z</time></trkpt><trkpt lat="44.35766977064739" lon="9.214671758493612"><ele>20.0</ele><time>2026-04-21T11:49:40.001Z</time></trkpt><trkpt lat="44.35762691154109" lon="9.215047510406496"><ele>32.5</ele><time>2026-04-21T11:49:41.001Z</time></trkpt><trkpt lat="44.35760918515988" lon="9.2154292199735"><ele>45.0</ele><time>2026-04-21T11:49:42.001Z</time></trkpt><trkpt lat="44.35758396361662" lon="9.215797696290446"><ele>51.5</ele><time>2026-04-21T11:49:43.001Z</time></trkpt><trkpt lat="44.357545168028125" lon="9.216154285101887"><ele>58.0</ele><time>2026-04-21T11:49:44.001Z</time></trkpt><trkpt lat="44.35752599410788" lon="9.216542692576471"><ele>58.0</ele><time>2026-04-21T11:49:45.001Z</time></trkpt><trkpt lat="44.357505061315926" lon="9.216923862839243"><ele>58.0</ele><time>2026-04-21T11:49:46.001Z</time></trkpt><trkpt lat="44.357472422747804" lon="9.217294346797468"><ele>40.0</ele><time>2026-04-21T11:49:47.068Z</time></trkpt><trkpt lat="44.35738000226825" lon="9.218004435269775"><ele>35.5</ele><time>2026-04-21T11:49:49.001Z</time></trkpt><trkpt lat="44.35734011354771" lon="9.21836293601287"><ele>31.0</ele><time>2026-04-21T11:49:50.001Z</time></trkpt><trkpt lat="44.35730916975257" lon="9.218698847197647"><ele>32.5</ele><time>2026-04-21T11:49:51.001Z</time></trkpt><trkpt lat="44.35738254210374" lon="9.219048103100763"><ele>34.0</ele><time>2026-04-21T11:49:52.001Z</time></trkpt><trkpt lat="44.357412211543114" lon="9.219381107340762"><ele>34.0</ele><time>2026-04-21T11:49:53.001Z</time></trkpt><trkpt lat="44.35745094571247" lon="9.219720865534628"><ele>34.0</ele><time>2026-04-21T11:49:54.001Z</time></trkpt><trkpt lat="44.357501039796176" lon="9.220050218637706"><ele>38.0</ele><time>2026-04-21T11:49:55.001Z</time></trkpt><trkpt lat="44.357556057505" lon="9.220387412465524"><ele>42.0</ele><time>2026-04-21T11:49:56.001Z</time></trkpt><trkpt lat="44.357613726764185" lon="9.22072335526128"><ele>44.5</ele><time>2026-04-21T11:49:57.001Z</time></trkpt><trkpt lat="44.357671617236996" lon="9.221057529570832"><ele>47.0</ele><time>2026-04-21T11:49:58.001Z</time></trkpt><trkpt lat="44.357722223191786" lon="9.221399163011434"><ele>49.0</ele><time>2026-04-21T11:49:59.001Z</time></trkpt><trkpt lat="44.357771752085405" lon="9.221743056583072"><ele>51.0</ele><time>2026-04-21T11:50:00.001Z</time></trkpt><trkpt lat="44.35783009622057" lon="9.222082147850145"><ele>51.5</ele><time>2026-04-21T11:50:01.001Z</time></trkpt><trkpt lat="44.35789065893545" lon="9.222425075958396"><ele>52.0</ele><time>2026-04-21T11:50:02.001Z</time></trkpt><trkpt lat="44.35794727735951" lon="9.222758397518191"><ele>52.0</ele><time>2026-04-21T11:50:03.001Z</time></trkpt><trkpt lat="44.35800834481471" lon="9.223097510346397"><ele>52.0</ele><time>2026-04-21T11:50:04.001Z</time></trkpt><trkpt lat="44.358064709545154" lon="9.223436884056854"><ele>47.5</ele><time>2026-04-21T11:50:05.001Z</time></trkpt><trkpt lat="44.35812199847737" lon="9.223778505036103"><ele>43.0</ele><time>2026-04-21T11:50:06.001Z</time></trkpt><trkpt lat="44.35817538600085" lon="9.224123152583898"><ele>43.0</ele><time>2026-04-21T11:50:07.001Z</time></trkpt><trkpt lat="44.358230263902215" lon="9.224469061845404"><ele>43.0</ele><time>2026-04-21T11:50:08.001Z</time></trkpt><trkpt lat="44.358288594239085" lon="9.224813733361186"><ele>49.0</ele><time>2026-04-21T11:50:09.001Z</time></trkpt><trkpt lat="44.358348626857705" lon="9.225156484381527"><ele>55.0</ele><time>2026-04-21T11:50:10.001Z</time></trkpt><trkpt lat="44.358404315127686" lon="9.225502749954074"><ele>58.0</ele><time>2026-04-21T11:50:11.001Z</time></trkpt><trkpt lat="44.35845711682788" lon="9.225852298608716"><ele>61.0</ele><time>2026-04-21T11:50:12.001Z</time></trkpt><trkpt lat="44.35850151846612" lon="9.226204841827936"><ele>60.0</ele><time>2026-04-21T11:50:13.001Z</time></trkpt><trkpt lat="44.358548436259156" lon="9.226564793926746"><ele>59.0</ele><time>2026-04-21T11:50:14.001Z</time></trkpt><trkpt lat="44.358593732813" lon="9.226922414323596"><ele>59.0</ele><time>2026-04-21T11:50:15.001Z</time></trkpt><trkpt lat="44.35863210769851" lon="9.227301163115579"><ele>59.0</ele><time>2026-04-21T11:50:16.001Z</time></trkpt><trkpt lat="44.35868232884713" lon="9.227698697043309"><ele>58.0</ele><time>2026-04-21T11:50:17.065Z</time></trkpt><trkpt lat="44.35872770019384" lon="9.228074582680252"><ele>57.0</ele><time>2026-04-21T11:50:18.065Z</time></trkpt><trkpt lat="44.35886146941072" lon="9.228581883312634"><ele>68.5</ele><time>2026-04-21T11:50:20.001Z</time></trkpt><trkpt lat="44.35891409958164" lon="9.228898666795041"><ele>80.0</ele><time>2026-04-21T11:50:21.001Z</time></trkpt><trkpt lat="44.358968617706076" lon="9.229236537620524"><ele>82.5</ele><time>2026-04-21T11:50:22.001Z</time></trkpt><trkpt lat="44.359003290673996" lon="9.229579319104095"><ele>85.0</ele><time>2026-04-21T11:50:23.001Z</time></trkpt><trkpt lat="44.35903586669156" lon="9.229922658924638"><ele>96.5</ele><time>2026-04-21T11:50:24.001Z</time></trkpt><trkpt lat="44.35908880885984" lon="9.230257298464624"><ele>108.0</ele><time>2026-04-21T11:50:25.001Z</time></trkpt><trkpt lat="44.35914575239438" lon="9.230618358589917"><ele>124.0</ele><time>2026-04-21T11:50:26.001Z</time></trkpt><trkpt lat="44.359199695050485" lon="9.230971316552118"><ele>140.0</ele><time>2026-04-21T11:50:27.001Z</time></trkpt><trkpt lat="44.3592511121103" lon="9.231338308159804"><ele>143.5</ele><time>2026-04-21T11:50:28.068Z</time></trkpt><trkpt lat="44.35928941227239" lon="9.231676327746394"><ele>147.0</ele><time>2026-04-21T11:50:29.064Z</time></trkpt><trkpt lat="44.35931840460378" lon="9.232035064250748"><ele>132.5</ele><time>2026-04-21T11:50:30.062Z</time></trkpt><trkpt lat="44.3593282049269" lon="9.232391099075693"><ele>118.0</ele><time>2026-04-21T11:50:31.059Z</time></trkpt><trkpt lat="44.3593266144226" lon="9.232745444837803"><ele>118.0</ele><time>2026-04-21T11:50:32.059Z</time></trkpt><trkpt lat="44.3593347108362" lon="9.233089503169351"><ele>118.0</ele><time>2026-04-21T11:50:33.033Z</time></trkpt><trkpt lat="44.35924082050682" lon="9.23403919107902"><ele>80.0</ele><time>2026-04-21T11:50:36.001Z</time></trkpt><trkpt lat="44.35918101532708" lon="9.234370828236067"><ele>42.0</ele><time>2026-04-21T11:50:37.001Z</time></trkpt><trkpt lat="44.35909958466593" lon="9.234714963683773"><ele>35.5</ele><time>2026-04-21T11:50:38.001Z</time></trkpt><trkpt lat="44.3589827074851" lon="9.235009745024145"><ele>29.0</ele><time>2026-04-21T11:50:39.001Z</time></trkpt><trkpt lat="44.35888507423372" lon="9.23530281576041"><ele>27.5</ele><time>2026-04-21T11:50:40.001Z</time></trkpt><trkpt lat="44.3587703642086" lon="9.235594375698295"><ele>26.0</ele><time>2026-04-21T11:50:41.001Z</time></trkpt><trkpt lat="44.358672740837946" lon="9.235885129791566"><ele>38.5</ele><time>2026-04-21T11:50:42.001Z</time></trkpt><trkpt lat="44.35853948605533" lon="9.236153819739613"><ele>51.0</ele><time>2026-04-21T11:50:43Z</time></trkpt><trkpt lat="44.358390759057144" lon="9.23641431480069"><ele>66.5</ele><time>2026-04-21T11:50:44Z</time></trkpt><trkpt lat="44.358236014702" lon="9.236677932711586"><ele>82.0</ele><time>2026-04-21T11:50:45Z</time></trkpt><trkpt lat="44.3580707368679" lon="9.236932248383349"><ele>81.0</ele><time>2026-04-21T11:50:46Z</time></trkpt><trkpt lat="44.35789027728477" lon="9.237181970720348"><ele>80.0</ele><time>2026-04-21T11:50:47Z</time></trkpt><trkpt lat="44.35769744674209" lon="9.237436299183203"><ele>92.5</ele><time>2026-04-21T11:50:48Z</time></trkpt><trkpt lat="44.35750861958983" lon="9.237686974450154"><ele>105.0</ele><time>2026-04-21T11:50:49Z</time></trkpt><trkpt lat="44.35731951469627" lon="9.237935570724407"><ele>103.0</ele><time>2026-04-21T11:50:50Z</time></trkpt><trkpt lat="44.35713336473937" lon="9.238184254077412"><ele>101.0</ele><time>2026-04-21T11:50:51Z</time></trkpt><trkpt lat="44.35694613268359" lon="9.23842388849559"><ele>101.0</ele><time>2026-04-21T11:50:52Z</time></trkpt><trkpt lat="44.35676070405026" lon="9.238683900924867"><ele>101.0</ele><time>2026-04-21T11:50:53.064Z</time></trkpt><trkpt lat="44.35659675901318" lon="9.238922769894504"><ele>102.5</ele><time>2026-04-21T11:50:54.064Z</time></trkpt><trkpt lat="44.35644036840667" lon="9.239162517147179"><ele>104.0</ele><time>2026-04-21T11:50:55.069Z</time></trkpt><trkpt lat="44.356286781139225" lon="9.239401031004954"><ele>146.0</ele><time>2026-04-21T11:50:56.063Z</time></trkpt><trkpt lat="44.354773229720436" lon="9.241274586381559"><ele>112.0</ele><time>2026-04-21T11:50:59.556Z</time></trkpt><trkpt lat="44.354118205445644" lon="9.242131979661698"><ele>54.0</ele><time>2026-04-21T11:51:00.555Z</time></trkpt><trkpt lat="44.353678122781744" lon="9.242661694077688"><ele>54.0</ele><time>2026-04-21T11:51:12Z</time></trkpt><trkpt lat="44.353623473026055" lon="9.243048430054882"><ele>54.0</ele><time>2026-04-21T11:51:13Z</time></trkpt><trkpt lat="44.353384931115194" lon="9.24324759092415"><ele>50.0</ele><time>2026-04-21T11:51:14Z</time></trkpt><trkpt lat="44.35318251990618" lon="9.24345290553428"><ele>46.0</ele><time>2026-04-21T11:51:15Z</time></trkpt><trkpt lat="44.35297294814486" lon="9.243658635477367"><ele>46.0</ele><time>2026-04-21T11:51:16Z</time></trkpt><trkpt lat="44.35279320375338" lon="9.243888206941497"><ele>46.0</ele><time>2026-04-21T11:51:17Z</time></trkpt><trkpt lat="44.35261154194856" lon="9.2441117728601"><ele>61.5</ele><time>2026-04-21T11:51:18Z</time></trkpt><trkpt lat="44.352442330508204" lon="9.244328034176467"><ele>77.0</ele><time>2026-04-21T11:51:19Z</time></trkpt><trkpt lat="44.352270047128606" lon="9.24454722401117"><ele>75.0</ele><time>2026-04-21T11:51:20Z</time></trkpt><trkpt lat="44.352095269715306" lon="9.244777835243232"><ele>73.0</ele><time>2026-04-21T11:51:21Z</time></trkpt><trkpt lat="44.351923107577626" lon="9.245019789939837"><ele>86.5</ele><time>2026-04-21T11:51:22Z</time></trkpt><trkpt lat="44.351749398883626" lon="9.24525712330383"><ele>100.0</ele><time>2026-04-21T11:51:23Z</time></trkpt><trkpt lat="44.35157778694503" lon="9.245494724448083"><ele>112.5</ele><time>2026-04-21T11:51:24Z</time></trkpt><trkpt lat="44.35140605245413" lon="9.245736879334233"><ele>125.0</ele><time>2026-04-21T11:51:25Z</time></trkpt><trkpt lat="44.35123139212849" lon="9.245974294149846"><ele>125.0</ele><time>2026-04-21T11:51:26Z</time></trkpt><trkpt lat="44.35105889098414" lon="9.246214996085044"><ele>125.0</ele><time>2026-04-21T11:51:27Z</time></trkpt><trkpt lat="44.350887644575614" lon="9.24646013906005"><ele>128.0</ele><time>2026-04-21T11:51:28Z</time></trkpt><trkpt lat="44.35071354717308" lon="9.24671230673849"><ele>131.0</ele><time>2026-04-21T11:51:29Z</time></trkpt><trkpt lat="44.3505264648313" lon="9.246972233467663"><ele>98.0</ele><time>2026-04-21T11:51:30.066Z</time></trkpt><trkpt lat="44.35015880123343" lon="9.247460939575046"><ele>98.0</ele><time>2026-04-21T11:51:32Z</time></trkpt><trkpt lat="44.349963164636854" lon="9.247600528542508"><ele>98.0</ele><time>2026-04-21T11:51:33Z</time></trkpt><trkpt lat="44.34980239732665" lon="9.247813099815062"><ele>98.0</ele><time>2026-04-21T11:51:34Z</time></trkpt><trkpt lat="44.34964260757887" lon="9.248034193537071"><ele>99.0</ele><time>2026-04-21T11:51:35Z</time></trkpt><trkpt lat="44.349499376212854" lon="9.248272188646986"><ele>100.0</ele><time>2026-04-21T11:51:36Z</time></trkpt><trkpt lat="44.3493743624433" lon="9.248528047294418"><ele>101.0</ele><time>2026-04-21T11:51:37Z</time></trkpt><trkpt lat="44.34925845809564" lon="9.24879401375115"><ele>105.0</ele><time>2026-04-21T11:51:38Z</time></trkpt><trkpt lat="44.349150025243496" lon="9.249057265830485"><ele>109.0</ele><time>2026-04-21T11:51:39Z</time></trkpt><trkpt lat="44.34906221392836" lon="9.249359830485856"><ele>109.0</ele><time>2026-04-21T11:51:40Z</time></trkpt><trkpt lat="44.348976922518794" lon="9.249660761396978"><ele>109.0</ele><time>2026-04-21T11:51:41Z</time></trkpt><trkpt lat="44.348907374441964" lon="9.249971251248423"><ele>97.5</ele><time>2026-04-21T11:51:42Z</time></trkpt><trkpt lat="44.34885740862318" lon="9.250293010381245"><ele>86.0</ele><time>2026-04-21T11:51:43.001Z</time></trkpt><trkpt lat="44.34881849075297" lon="9.250617744704472"><ele>89.5</ele><time>2026-04-21T11:51:44.001Z</time></trkpt><trkpt lat="44.348785501235135" lon="9.25094044864977"><ele>93.0</ele><time>2026-04-21T11:51:45.001Z</time></trkpt><trkpt lat="44.3487640628735" lon="9.25126418554573"><ele>93.5</ele><time>2026-04-21T11:51:46.001Z</time></trkpt><trkpt lat="44.3487419056445" lon="9.251585909142904"><ele>94.0</ele><time>2026-04-21T11:51:47.001Z</time></trkpt><trkpt lat="44.34871553682616" lon="9.251907402057295"><ele>94.0</ele><time>2026-04-21T11:51:48.001Z</time></trkpt><trkpt lat="44.34868422112471" lon="9.252216399945524"><ele>94.0</ele><time>2026-04-21T11:51:49.001Z</time></trkpt><trkpt lat="44.348649396549185" lon="9.252520178386252"><ele>94.0</ele><time>2026-04-21T11:51:50.001Z</time></trkpt><trkpt lat="44.34860761252798" lon="9.25282776591711"><ele>98.66666666666666</ele><time>2026-04-21T11:51:51.001Z</time></trkpt><trkpt lat="44.34855518866767" lon="9.253134827797657"><ele>103.33333333333333</ele><time>2026-04-21T11:51:52.001Z</time></trkpt><trkpt lat="44.348495091487514" lon="9.253435902725286"><ele>108.0</ele><time>2026-04-21T11:51:53.001Z</time></trkpt><trkpt lat="44.348430443827404" lon="9.253746197099392"><ele>117.5</ele><time>2026-04-21T11:51:54.001Z</time></trkpt><trkpt lat="44.348360224358274" lon="9.254062496318745"><ele>127.0</ele><time>2026-04-21T11:51:55.001Z</time></trkpt><trkpt lat="44.34828929814405" lon="9.254377060328999"><ele>127.0</ele><time>2026-04-21T11:51:56.001Z</time></trkpt><trkpt lat="44.348219350193496" lon="9.254704809759865"><ele>127.0</ele><time>2026-04-21T11:51:57.001Z</time></trkpt><trkpt lat="44.34814809968429" lon="9.255034519555586"><ele>140.5</ele><time>2026-04-21T11:51:58.001Z</time></trkpt><trkpt lat="44.3480790886707" lon="9.255373573824212"><ele>154.0</ele><time>2026-04-21T11:51:59.001Z</time></trkpt><trkpt lat="44.34801130900201" lon="9.255712187778041"><ele>185.5</ele><time>2026-04-21T11:52:00.001Z</time></trkpt><trkpt lat="44.34794710114837" lon="9.256044538748588"><ele>217.0</ele><time>2026-04-21T11:52:01.001Z</time></trkpt><trkpt lat="44.34789201838155" lon="9.256396048777667"><ele>231.0</ele><time>2026-04-21T11:52:02.001Z</time></trkpt><trkpt lat="44.34783925585218" lon="9.256768866850532"><ele>245.0</ele><time>2026-04-21T11:52:03.068Z</time></trkpt><trkpt lat="44.34777364298951" lon="9.257105896093517"><ele>260.0</ele><time>2026-04-21T11:52:04.063Z</time></trkpt><trkpt lat="44.347702559157405" lon="9.257437228934723"><ele>275.0</ele><time>2026-04-21T11:52:05.063Z</time></trkpt><trkpt lat="44.347629473788515" lon="9.257777891204915"><ele>320.0</ele><time>2026-04-21T11:52:06.063Z</time></trkpt><trkpt lat="44.34698957337921" lon="9.260455444412884"><ele>339.0</ele><time>2026-04-21T11:52:09.556Z</time></trkpt><trkpt lat="44.346705089587196" lon="9.261776920247634"><ele>351.0</ele><time>2026-04-21T11:52:10.556Z</time></trkpt><trkpt lat="44.34642240562522" lon="9.263093520800547"><ele>305.0</ele><time>2026-04-21T11:52:11.553Z</time></trkpt><trkpt lat="44.34613512778977" lon="9.264417929464798"><ele>333.0</ele><time>2026-04-21T11:52:12.556Z</time></trkpt><trkpt lat="44.345848687897046" lon="9.265738653159447"><ele>320.0</ele><time>2026-04-21T11:52:13.556Z</time></trkpt><trkpt lat="44.34556373519764" lon="9.267056038058534"><ele>245.0</ele><time>2026-04-21T11:52:14.553Z</time></trkpt><trkpt lat="44.3452779530718" lon="9.26838154524738"><ele>231.0</ele><time>2026-04-21T11:52:15.556Z</time></trkpt><trkpt lat="44.344993565276916" lon="9.269700585286783"><ele>144.0</ele><time>2026-04-21T11:52:16.555Z</time></trkpt><trkpt lat="44.34470267728765" lon="9.271021365682087"><ele>88.0</ele><time>2026-04-21T11:52:17.556Z</time></trkpt><trkpt lat="44.3442656863351" lon="9.272471011303278"><ele>88.0</ele><time>2026-04-21T11:52:50.001Z</time></trkpt><trkpt lat="44.34417987220088" lon="9.27278996415128"><ele>88.0</ele><time>2026-04-21T11:52:51.001Z</time></trkpt><trkpt lat="44.3440556734204" lon="9.273101083769852"><ele>78.0</ele><time>2026-04-21T11:52:52.001Z</time></trkpt><trkpt lat="44.34394224908557" lon="9.27340158333912"><ele>68.0</ele><time>2026-04-21T11:52:53.001Z</time></trkpt><trkpt lat="44.34382647433418" lon="9.273699032661193"><ele>85.5</ele><time>2026-04-21T11:52:54.001Z</time></trkpt><trkpt lat="44.34370743925176" lon="9.274003833987141"><ele>103.0</ele><time>2026-04-21T11:52:55.001Z</time></trkpt><trkpt lat="44.34358713026206" lon="9.274317120665994"><ele>103.0</ele><time>2026-04-21T11:52:56Z</time></trkpt><trkpt lat="44.34347023552245" lon="9.274633588905509"><ele>103.0</ele><time>2026-04-21T11:52:57Z</time></trkpt><trkpt lat="44.343347904963686" lon="9.274951323540732"><ele>115.0</ele><time>2026-04-21T11:52:58Z</time></trkpt><trkpt lat="44.34322334839512" lon="9.275265155330946"><ele>127.0</ele><time>2026-04-21T11:52:59Z</time></trkpt><trkpt lat="44.34310273879563" lon="9.275555914043444"><ele>133.5</ele><time>2026-04-21T11:53:00Z</time></trkpt><trkpt lat="44.342972371566056" lon="9.27581723015028"><ele>140.0</ele><time>2026-04-21T11:53:01Z</time></trkpt><trkpt lat="44.34282378223516" lon="9.276073945824008"><ele>140.0</ele><time>2026-04-21T11:53:02Z</time></trkpt><trkpt lat="44.342674932043" lon="9.276336464482531"><ele>140.0</ele><time>2026-04-21T11:53:03Z</time></trkpt><trkpt lat="44.34254056600194" lon="9.276591511049235"><ele>145.0</ele><time>2026-04-21T11:53:04Z</time></trkpt><trkpt lat="44.34241465674499" lon="9.276834087107012"><ele>150.0</ele><time>2026-04-21T11:53:05Z</time></trkpt><trkpt lat="44.342296347132255" lon="9.277067855015039"><ele>155.0</ele><time>2026-04-21T11:53:06Z</time></trkpt><trkpt lat="44.34218111976079" lon="9.277305695344678"><ele>177.66666666666666</ele><time>2026-04-21T11:53:07Z</time></trkpt><trkpt lat="44.34206162174464" lon="9.277558053669747"><ele>200.33333333333331</ele><time>2026-04-21T11:53:08Z</time></trkpt><trkpt lat="44.34194089984534" lon="9.277821790585898"><ele>223.0</ele><time>2026-04-21T11:53:09Z</time></trkpt><trkpt lat="44.3418184937897" lon="9.27809723621254"><ele>241.5</ele><time>2026-04-21T11:53:10Z</time></trkpt><trkpt lat="44.341688723433144" lon="9.278393616607387"><ele>260.0</ele><time>2026-04-21T11:53:11.054Z</time></trkpt><trkpt lat="44.33998724909845" lon="9.281558469220734"><ele>349.0</ele><time>2026-04-21T11:53:15.557Z</time></trkpt><trkpt lat="44.33952162903925" lon="9.282481702212193"><ele>370.0</ele><time>2026-04-21T11:53:16.557Z</time></trkpt><trkpt lat="44.3390584848774" lon="9.28340754919402"><ele>358.0</ele><time>2026-04-21T11:53:17.557Z</time></trkpt><trkpt lat="44.33859548026124" lon="9.284326812565753"><ele>364.0</ele><time>2026-04-21T11:53:18.552Z</time></trkpt><trkpt lat="44.33812850711103" lon="9.285250088000254"><ele>342.0</ele><time>2026-04-21T11:53:19.553Z</time></trkpt><trkpt lat="44.337661633161545" lon="9.286177534098544"><ele>328.0</ele><time>2026-04-21T11:53:20.556Z</time></trkpt><trkpt lat="44.337197709275216" lon="9.287102893737238"><ele>302.0</ele><time>2026-04-21T11:53:21.557Z</time></trkpt><trkpt lat="44.33673388839733" lon="9.288028047911501"><ele>225.0</ele><time>2026-04-21T11:53:22.557Z</time></trkpt><trkpt lat="44.336265900111336" lon="9.288945442783449"><ele>177.0</ele><time>2026-04-21T11:53:23.554Z</time></trkpt><trkpt lat="44.3357767423514" lon="9.28984474789331"><ele>159.0</ele><time>2026-04-21T11:53:24.554Z</time></trkpt><trkpt lat="44.33524073587211" lon="9.290689907010206"><ele>159.0</ele><time>2026-04-21T11:53:25.554Z</time></trkpt><trkpt lat="44.334745236480366" lon="9.29133550761911"><ele>158.0</ele><time>2026-04-21T11:53:58Z</time></trkpt><trkpt lat="44.33457803445732" lon="9.291589358893026"><ele>157.0</ele><time>2026-04-21T11:53:59Z</time></trkpt><trkpt lat="44.33437655761244" lon="9.29174618439426"><ele>157.0</ele><time>2026-04-21T11:54:00Z</time></trkpt><trkpt lat="44.33419027332782" lon="9.291937249512364"><ele>157.0</ele><time>2026-04-21T11:54:01Z</time></trkpt><trkpt lat="44.3339948213871" lon="9.29212054605958"><ele>149.5</ele><time>2026-04-21T11:54:02Z</time></trkpt><trkpt lat="44.333800984966366" lon="9.2923089993417"><ele>142.0</ele><time>2026-04-21T11:54:03Z</time></trkpt><trkpt lat="44.33359232716742" lon="9.292485118771609"><ele>142.0</ele><time>2026-04-21T11:54:04Z</time></trkpt><trkpt lat="44.333403172752426" lon="9.292657829605165"><ele>142.0</ele><time>2026-04-21T11:54:05Z</time></trkpt><trkpt lat="44.3332213996602" lon="9.292829107695072"><ele>142.0</ele><time>2026-04-21T11:54:06Z</time></trkpt><trkpt lat="44.33303952498266" lon="9.293016423578717"><ele>143.0</ele><time>2026-04-21T11:54:07Z</time></trkpt><trkpt lat="44.332860389189165" lon="9.29321998026702"><ele>144.0</ele><time>2026-04-21T11:54:08Z</time></trkpt><trkpt lat="44.3326846958503" lon="9.293443557424881"><ele>144.0</ele><time>2026-04-21T11:54:09Z</time></trkpt><trkpt lat="44.33251406635481" lon="9.29368708575357"><ele>144.0</ele><time>2026-04-21T11:54:10Z</time></trkpt><trkpt lat="44.332349374849414" lon="9.293953507034088"><ele>151.0</ele><time>2026-04-21T11:54:11Z</time></trkpt><trkpt lat="44.33219048531057" lon="9.294235733641093"><ele>158.0</ele><time>2026-04-21T11:54:12Z</time></trkpt><trkpt lat="44.332041248724316" lon="9.294523345561458"><ele>145.5</ele><time>2026-04-21T11:54:13Z</time></trkpt><trkpt lat="44.331903774201486" lon="9.294812066765187"><ele>133.0</ele><time>2026-04-21T11:54:14Z</time></trkpt><trkpt lat="44.3317768468415" lon="9.295112651579652"><ele>133.0</ele><time>2026-04-21T11:54:15Z</time></trkpt><trkpt lat="44.331652116184415" lon="9.295422610382001"><ele>133.0</ele><time>2026-04-21T11:54:16Z</time></trkpt><trkpt lat="44.33154382346276" lon="9.295751034427349"><ele>139.0</ele><time>2026-04-21T11:54:17Z</time></trkpt><trkpt lat="44.33143727186984" lon="9.296084085342176"><ele>145.0</ele><time>2026-04-21T11:54:18Z</time></trkpt><trkpt lat="44.331340268000794" lon="9.296421281659509"><ele>145.0</ele><time>2026-04-21T11:54:19Z</time></trkpt><trkpt lat="44.33124299475048" lon="9.296755686156251"><ele>145.0</ele><time>2026-04-21T11:54:20Z</time></trkpt><trkpt lat="44.331153125065455" lon="9.297089679448897"><ele>141.0</ele><time>2026-04-21T11:54:21Z</time></trkpt><trkpt lat="44.33106975182768" lon="9.297425489739043"><ele>137.0</ele><time>2026-04-21T11:54:22Z</time></trkpt><trkpt lat="44.330998032450815" lon="9.297768505796485"><ele>133.0</ele><time>2026-04-21T11:54:23Z</time></trkpt><trkpt lat="44.330943777987905" lon="9.29812009094351"><ele>129.0</ele><time>2026-04-21T11:54:24Z</time></trkpt><trkpt lat="44.330899260487605" lon="9.298474534257883"><ele>129.0</ele><time>2026-04-21T11:54:25Z</time></trkpt><trkpt lat="44.33086532424124" lon="9.298830325151108"><ele>129.0</ele><time>2026-04-21T11:54:26Z</time></trkpt><trkpt lat="44.330846248857924" lon="9.299190170262108"><ele>120.5</ele><time>2026-04-21T11:54:27Z</time></trkpt><trkpt lat="44.33084685873325" lon="9.299554646613354"><ele>112.0</ele><time>2026-04-21T11:54:28Z</time></trkpt><trkpt lat="44.33086228872958" lon="9.299924645321957"><ele>108.5</ele><time>2026-04-21T11:54:29.001Z</time></trkpt><trkpt lat="44.330878960038056" lon="9.300296089263224"><ele>105.0</ele><time>2026-04-21T11:54:30.001Z</time></trkpt><trkpt lat="44.33091327746169" lon="9.300668408704134"><ele>105.0</ele><time>2026-04-21T11:54:31.001Z</time></trkpt><trkpt lat="44.33094380069834" lon="9.301025916223919"><ele>105.0</ele><time>2026-04-21T11:54:32.001Z</time></trkpt><trkpt lat="44.330973471903576" lon="9.301366913031528"><ele>107.5</ele><time>2026-04-21T11:54:33.001Z</time></trkpt><trkpt lat="44.33099283187967" lon="9.301695255730792"><ele>110.0</ele><time>2026-04-21T11:54:34.001Z</time></trkpt><trkpt lat="44.33099851080204" lon="9.302025106460198"><ele>111.0</ele><time>2026-04-21T11:54:35.001Z</time></trkpt><trkpt lat="44.330993046995765" lon="9.302362669284504"><ele>112.0</ele><time>2026-04-21T11:54:36.001Z</time></trkpt><trkpt lat="44.33097487357371" lon="9.302706553828092"><ele>112.0</ele><time>2026-04-21T11:54:37.001Z</time></trkpt><trkpt lat="44.33095533801551" lon="9.30305990402703"><ele>112.0</ele><time>2026-04-21T11:54:38.001Z</time></trkpt><trkpt lat="44.33093329464158" lon="9.303420146880969"><ele>110.0</ele><time>2026-04-21T11:54:39.001Z</time></trkpt><trkpt lat="44.33091702485391" lon="9.303784328833522"><ele>108.0</ele><time>2026-04-21T11:54:40.001Z</time></trkpt><trkpt lat="44.33091021791532" lon="9.304142165397522"><ele>106.0</ele><time>2026-04-21T11:54:41.001Z</time></trkpt><trkpt lat="44.33091462301819" lon="9.304501745963869"><ele>104.0</ele><time>2026-04-21T11:54:42.001Z</time></trkpt><trkpt lat="44.33093732695316" lon="9.304859251018367"><ele>104.0</ele><time>2026-04-21T11:54:43.001Z</time></trkpt><trkpt lat="44.330972795797464" lon="9.3052108457885"><ele>104.0</ele><time>2026-04-21T11:54:44.001Z</time></trkpt><trkpt lat="44.33100766391416" lon="9.305559312565222"><ele>107.0</ele><time>2026-04-21T11:54:45.001Z</time></trkpt><trkpt lat="44.33104515767187" lon="9.305906682252955"><ele>110.0</ele><time>2026-04-21T11:54:46.001Z</time></trkpt><trkpt lat="44.331081246731436" lon="9.306245689392316"><ele>110.0</ele><time>2026-04-21T11:54:47.001Z</time></trkpt><trkpt lat="44.33110000430516" lon="9.306582928227412"><ele>110.0</ele><time>2026-04-21T11:54:48.001Z</time></trkpt><trkpt lat="44.33109669968474" lon="9.306913601244851"><ele>106.0</ele><time>2026-04-21T11:54:49.001Z</time></trkpt><trkpt lat="44.33108344586897" lon="9.30724472123366"><ele>102.0</ele><time>2026-04-21T11:54:50.001Z</time></trkpt><trkpt lat="44.331076091961464" lon="9.307588022521518"><ele>102.0</ele><time>2026-04-21T11:54:51.001Z</time></trkpt><trkpt lat="44.33102760053721" lon="9.307928642282109"><ele>102.0</ele><time>2026-04-21T11:54:52.001Z</time></trkpt><trkpt lat="44.3309663973449" lon="9.308279061523454"><ele>97.5</ele><time>2026-04-21T11:54:53.001Z</time></trkpt><trkpt lat="44.330897769956046" lon="9.308629951349623"><ele>93.0</ele><time>2026-04-21T11:54:54.001Z</time></trkpt><trkpt lat="44.33082150487274" lon="9.308982767565132"><ele>83.5</ele><time>2026-04-21T11:54:55.001Z</time></trkpt><trkpt lat="44.330741452987006" lon="9.309345086249692"><ele>74.0</ele><time>2026-04-21T11:54:56.001Z</time></trkpt><trkpt lat="44.33065787847806" lon="9.309716647321405"><ele>77.0</ele><time>2026-04-21T11:54:57.001Z</time></trkpt><trkpt lat="44.33057435621873" lon="9.310088678821819"><ele>80.0</ele><time>2026-04-21T11:54:58.001Z</time></trkpt><trkpt lat="44.33050499369877" lon="9.310439563404806"><ele>79.0</ele><time>2026-04-21T11:54:59.001Z</time></trkpt><trkpt lat="44.33043306717648" lon="9.310777123693533"><ele>78.0</ele><time>2026-04-21T11:55:00.001Z</time></trkpt><trkpt lat="44.330356058646956" lon="9.311130601519322"><ele>78.5</ele><time>2026-04-21T11:55:01Z</time></trkpt><trkpt lat="44.330277663853984" lon="9.311490997133225"><ele>79.0</ele><time>2026-04-21T11:55:02Z</time></trkpt><trkpt lat="44.33019216564869" lon="9.311849502090844"><ele>79.0</ele><time>2026-04-21T11:55:03Z</time></trkpt><trkpt lat="44.330100919241744" lon="9.312212931522442"><ele>79.0</ele><time>2026-04-21T11:55:04Z</time></trkpt><trkpt lat="44.3300008253607" lon="9.312577355934055"><ele>72.5</ele><time>2026-04-21T11:55:05Z</time></trkpt><trkpt lat="44.32989964649666" lon="9.312943874660977"><ele>66.0</ele><time>2026-04-21T11:55:06Z</time></trkpt><trkpt lat="44.32979189061566" lon="9.313309857303826"><ele>71.0</ele><time>2026-04-21T11:55:07Z</time></trkpt><trkpt lat="44.32967824370705" lon="9.313673350200633"><ele>76.0</ele><time>2026-04-21T11:55:08Z</time></trkpt><trkpt lat="44.32956117441638" lon="9.31403339165956"><ele>76.0</ele><time>2026-04-21T11:55:09Z</time></trkpt><trkpt lat="44.32944126237889" lon="9.314399752881265"><ele>76.0</ele><time>2026-04-21T11:55:10Z</time></trkpt><trkpt lat="44.32932511339184" lon="9.314773024677837"><ele>73.5</ele><time>2026-04-21T11:55:11Z</time></trkpt><trkpt lat="44.32919956362571" lon="9.31514434555399"><ele>71.0</ele><time>2026-04-21T11:55:12Z</time></trkpt><trkpt lat="44.32907234788283" lon="9.31551271757104"><ele>74.5</ele><time>2026-04-21T11:55:13Z</time></trkpt><trkpt lat="44.3289531710159" lon="9.31589161665876"><ele>78.0</ele><time>2026-04-21T11:55:14Z</time></trkpt><trkpt lat="44.32883318583545" lon="9.316278633581717"><ele>80.0</ele><time>2026-04-21T11:55:15Z</time></trkpt><trkpt lat="44.328715017269424" lon="9.316669640708213"><ele>82.0</ele><time>2026-04-21T11:55:16Z</time></trkpt><trkpt lat="44.32859469710489" lon="9.317058950737538"><ele>69.5</ele><time>2026-04-21T11:55:17Z</time></trkpt><trkpt lat="44.32847785215723" lon="9.317447676171618"><ele>57.0</ele><time>2026-04-21T11:55:18Z</time></trkpt><trkpt lat="44.32836632559766" lon="9.317835049640138"><ele>57.0</ele><time>2026-04-21T11:55:19Z</time></trkpt><trkpt lat="44.32830271635663" lon="9.318039699105892"><ele>57.0</ele><time>2026-04-21T11:55:20Z</time></trkpt><trkpt lat="44.328168603960165" lon="9.31837650261346"><ele>57.0</ele><time>2026-04-21T11:55:21Z</time></trkpt><trkpt lat="44.328041025527206" lon="9.318709058399689"><ele>38.5</ele><time>2026-04-21T11:55:22Z</time></trkpt><trkpt lat="44.327908445892255" lon="9.319034336663908"><ele>20.0</ele><time>2026-04-21T11:55:23Z</time></trkpt><trkpt lat="44.327757921629335" lon="9.319347505295335"><ele>20.0</ele><time>2026-04-21T11:55:24Z</time></trkpt><trkpt lat="44.327601643995365" lon="9.319662055155947"><ele>20.0</ele><time>2026-04-21T11:55:25Z</time></trkpt><trkpt lat="44.32745022495409" lon="9.3199788696011"><ele>18.0</ele><time>2026-04-21T11:55:26Z</time></trkpt><trkpt lat="44.327304252015416" lon="9.320297997887526"><ele>16.0</ele><time>2026-04-21T11:55:27Z</time></trkpt><trkpt lat="44.327165709661124" lon="9.320621317919919"><ele>12.0</ele><time>2026-04-21T11:55:28Z</time></trkpt><trkpt lat="44.32703985634665" lon="9.320941451009253"><ele>8.0</ele><time>2026-04-21T11:55:29Z</time></trkpt><trkpt lat="44.32692424893291" lon="9.32126333713693"><ele>12.0</ele><time>2026-04-21T11:55:30Z</time></trkpt><trkpt lat="44.32682040027656" lon="9.321592949016491"><ele>16.0</ele><time>2026-04-21T11:55:31Z</time></trkpt><trkpt lat="44.32672579590665" lon="9.3219307695075"><ele>22.0</ele><time>2026-04-21T11:55:32Z</time></trkpt><trkpt lat="44.326642451466554" lon="9.322271244241891"><ele>28.0</ele><time>2026-04-21T11:55:33Z</time></trkpt><trkpt lat="44.32656642896746" lon="9.322615144719267"><ele>28.0</ele><time>2026-04-21T11:55:34Z</time></trkpt><trkpt lat="44.32649585098189" lon="9.322962039735204"><ele>28.0</ele><time>2026-04-21T11:55:35Z</time></trkpt><trkpt lat="44.32642945397076" lon="9.323314720941537"><ele>32.5</ele><time>2026-04-21T11:55:36Z</time></trkpt><trkpt lat="44.32636920106135" lon="9.323674974243083"><ele>37.0</ele><time>2026-04-21T11:55:37Z</time></trkpt><trkpt lat="44.32630714643264" lon="9.324036372946319"><ele>37.0</ele><time>2026-04-21T11:55:38Z</time></trkpt><trkpt lat="44.326244293594485" lon="9.324398636425366"><ele>37.0</ele><time>2026-04-21T11:55:39Z</time></trkpt><trkpt lat="44.32618534753846" lon="9.324747878227427"><ele>42.0</ele><time>2026-04-21T11:55:40Z</time></trkpt><trkpt lat="44.32612515889197" lon="9.325096797328953"><ele>47.0</ele><time>2026-04-21T11:55:41Z</time></trkpt><trkpt lat="44.32606446903272" lon="9.325446006600313"><ele>45.5</ele><time>2026-04-21T11:55:42Z</time></trkpt><trkpt lat="44.326000365981905" lon="9.325797710399812"><ele>44.0</ele><time>2026-04-21T11:55:43Z</time></trkpt><trkpt lat="44.32593479922923" lon="9.326150457881019"><ele>41.0</ele><time>2026-04-21T11:55:44Z</time></trkpt><trkpt lat="44.325871830713936" lon="9.326492288646126"><ele>38.0</ele><time>2026-04-21T11:55:45Z</time></trkpt><trkpt lat="44.32580928702846" lon="9.32682572443435"><ele>38.0</ele><time>2026-04-21T11:55:46Z</time></trkpt><trkpt lat="44.32574257182777" lon="9.327165136126668"><ele>38.0</ele><time>2026-04-21T11:55:47Z</time></trkpt><trkpt lat="44.325669266538576" lon="9.327510792743768"><ele>37.5</ele><time>2026-04-21T11:55:48Z</time></trkpt><trkpt lat="44.325593135629994" lon="9.327862383285678"><ele>37.0</ele><time>2026-04-21T11:55:49Z</time></trkpt><trkpt lat="44.325518192993854" lon="9.328220441171949"><ele>42.0</ele><time>2026-04-21T11:55:50Z</time></trkpt><trkpt lat="44.325437022428495" lon="9.328583358878166"><ele>47.0</ele><time>2026-04-21T11:55:51Z</time></trkpt><trkpt lat="44.325350899439556" lon="9.328938112142326"><ele>60.0</ele><time>2026-04-21T11:55:52Z</time></trkpt><trkpt lat="44.3252526147134" lon="9.329286188132947"><ele>73.0</ele><time>2026-04-21T11:55:53Z</time></trkpt><trkpt lat="44.325149809407634" lon="9.329632317236097"><ele>84.0</ele><time>2026-04-21T11:55:54Z</time></trkpt><trkpt lat="44.3250486170259" lon="9.329982201158803"><ele>95.0</ele><time>2026-04-21T11:55:55Z</time></trkpt><trkpt lat="44.3249480006877" lon="9.3303319595318"><ele>103.0</ele><time>2026-04-21T11:55:56Z</time></trkpt><trkpt lat="44.32484802320807" lon="9.330682164636634"><ele>111.0</ele><time>2026-04-21T11:55:57Z</time></trkpt><trkpt lat="44.3247506872008" lon="9.331033439826074"><ele>107.5</ele><time>2026-04-21T11:55:58Z</time></trkpt><trkpt lat="44.324646268214785" lon="9.331402964707161"><ele>104.0</ele><time>2026-04-21T11:55:59.067Z</time></trkpt><trkpt lat="44.324544716506566" lon="9.331746206518739"><ele>104.0</ele><time>2026-04-21T11:56:00.07Z</time></trkpt><trkpt lat="44.32444012730643" lon="9.332070300225029"><ele>104.0</ele><time>2026-04-21T11:56:01.065Z</time></trkpt><trkpt lat="44.324328555921305" lon="9.332397591293857"><ele>99.0</ele><time>2026-04-21T11:56:02.068Z</time></trkpt><trkpt lat="44.324221369681794" lon="9.332733143883889"><ele>94.0</ele><time>2026-04-21T11:56:03.062Z</time></trkpt><trkpt lat="44.32343590140578" lon="9.334522610212343"><ele>70.5</ele><time>2026-04-21T11:56:08Z</time></trkpt><trkpt lat="44.32329117781525" lon="9.33486407111947"><ele>47.0</ele><time>2026-04-21T11:56:09Z</time></trkpt><trkpt lat="44.323137606484394" lon="9.33520198664092"><ele>43.0</ele><time>2026-04-21T11:56:10Z</time></trkpt><trkpt lat="44.3229782124224" lon="9.335507014049483"><ele>39.0</ele><time>2026-04-21T11:56:11Z</time></trkpt><trkpt lat="44.32282799702817" lon="9.335829043646987"><ele>39.0</ele><time>2026-04-21T11:56:12Z</time></trkpt><trkpt lat="44.322700610335566" lon="9.336135023961434"><ele>39.0</ele><time>2026-04-21T11:56:13Z</time></trkpt><trkpt lat="44.32257308573526" lon="9.336446122211758"><ele>48.0</ele><time>2026-04-21T11:56:14Z</time></trkpt><trkpt lat="44.3224416540662" lon="9.336748133506564"><ele>57.0</ele><time>2026-04-21T11:56:15Z</time></trkpt><trkpt lat="44.32232694230975" lon="9.337065410488592"><ele>57.0</ele><time>2026-04-21T11:56:16Z</time></trkpt><trkpt lat="44.321957131757884" lon="9.337963209027407"><ele>52.0</ele><time>2026-04-21T11:56:19Z</time></trkpt><trkpt lat="44.32182826265702" lon="9.338269754618764"><ele>47.0</ele><time>2026-04-21T11:56:20Z</time></trkpt><trkpt lat="44.321719722184305" lon="9.338588078536075"><ele>45.0</ele><time>2026-04-21T11:56:21Z</time></trkpt><trkpt lat="44.321604227100515" lon="9.33895511935325"><ele>43.0</ele><time>2026-04-21T11:56:22Z</time></trkpt><trkpt lat="44.3214643417003" lon="9.339379630899325"><ele>35.0</ele><time>2026-04-21T11:56:23Z</time></trkpt><trkpt lat="44.32137377614986" lon="9.339778198005993"><ele>27.0</ele><time>2026-04-21T11:56:24Z</time></trkpt><trkpt lat="44.32125603090001" lon="9.340139938313667"><ele>27.0</ele><time>2026-04-21T11:56:25Z</time></trkpt><trkpt lat="44.32113466623376" lon="9.340494384176145"><ele>27.0</ele><time>2026-04-21T11:56:26Z</time></trkpt><trkpt lat="44.321006894823796" lon="9.340834278208535"><ele>23.5</ele><time>2026-04-21T11:56:27Z</time></trkpt><trkpt lat="44.32087714013454" lon="9.341175577502398"><ele>20.0</ele><time>2026-04-21T11:56:28Z</time></trkpt><trkpt lat="44.320751378014094" lon="9.341519110931564"><ele>15.0</ele><time>2026-04-21T11:56:29Z</time></trkpt><trkpt lat="44.32062984715814" lon="9.341858269023344"><ele>10.0</ele><time>2026-04-21T11:56:30Z</time></trkpt><trkpt lat="44.320509215850706" lon="9.342187947494704"><ele>9.0</ele><time>2026-04-21T11:56:31Z</time></trkpt><trkpt lat="44.320386717343375" lon="9.342516956385307"><ele>8.0</ele><time>2026-04-21T11:56:32Z</time></trkpt><trkpt lat="44.320266393505875" lon="9.342843356770882"><ele>9.0</ele><time>2026-04-21T11:56:33Z</time></trkpt><trkpt lat="44.320148600126714" lon="9.343168116044595"><ele>10.0</ele><time>2026-04-21T11:56:34Z</time></trkpt><trkpt lat="44.320030441793534" lon="9.343490459484446"><ele>10.0</ele><time>2026-04-21T11:56:35Z</time></trkpt><trkpt lat="44.31991388285531" lon="9.343813562393727"><ele>10.0</ele><time>2026-04-21T11:56:36Z</time></trkpt><trkpt lat="44.319795842428476" lon="9.344135469251366"><ele>8.5</ele><time>2026-04-21T11:56:37.001Z</time></trkpt><trkpt lat="44.31968133086834" lon="9.344457474471234"><ele>7.0</ele><time>2026-04-21T11:56:38.001Z</time></trkpt><trkpt lat="44.319560292156204" lon="9.344781723157892"><ele>7.0</ele><time>2026-04-21T11:56:39.001Z</time></trkpt><trkpt lat="44.31944396802158" lon="9.345104647607316"><ele>7.0</ele><time>2026-04-21T11:56:40.001Z</time></trkpt><trkpt lat="44.31932384216197" lon="9.34542573593258"><ele>7.0</ele><time>2026-04-21T11:56:41.001Z</time></trkpt><trkpt lat="44.319205739941104" lon="9.345751665188931"><ele>7.0</ele><time>2026-04-21T11:56:42.001Z</time></trkpt><trkpt lat="44.31908558817746" lon="9.346079266695705"><ele>7.0</ele><time>2026-04-21T11:56:43.001Z</time></trkpt><trkpt lat="44.318967697681686" lon="9.34640821095689"><ele>7.0</ele><time>2026-04-21T11:56:44.001Z</time></trkpt><trkpt lat="44.318847557877056" lon="9.346738403580494"><ele>8.0</ele><time>2026-04-21T11:56:45.001Z</time></trkpt><trkpt lat="44.31872801272638" lon="9.34706857689982"><ele>9.0</ele><time>2026-04-21T11:56:46.001Z</time></trkpt><trkpt lat="44.318614419231785" lon="9.347389874896493"><ele>18.0</ele><time>2026-04-21T11:56:47.001Z</time></trkpt><trkpt lat="44.318498844868586" lon="9.347683500133076"><ele>27.0</ele><time>2026-04-21T11:56:48.001Z</time></trkpt><trkpt lat="44.31838550767105" lon="9.347991838523424"><ele>31.0</ele><time>2026-04-21T11:56:49.001Z</time></trkpt><trkpt lat="44.318271825106116" lon="9.34830381540992"><ele>35.0</ele><time>2026-04-21T11:56:50.001Z</time></trkpt><trkpt lat="44.31815235865543" lon="9.348624155287999"><ele>39.5</ele><time>2026-04-21T11:56:51.001Z</time></trkpt><trkpt lat="44.31803048529894" lon="9.348949379792145"><ele>44.0</ele><time>2026-04-21T11:56:52.001Z</time></trkpt><trkpt lat="44.31790543667424" lon="9.349270651351087"><ele>44.0</ele><time>2026-04-21T11:56:53.001Z</time></trkpt><trkpt lat="44.317765993946175" lon="9.349584071821056"><ele>44.0</ele><time>2026-04-21T11:56:54.001Z</time></trkpt><trkpt lat="44.317623856831084" lon="9.3498983914411"><ele>44.0</ele><time>2026-04-21T11:56:55.001Z</time></trkpt><trkpt lat="44.3174832494759" lon="9.35020607675521"><ele>44.0</ele><time>2026-04-21T11:56:56.001Z</time></trkpt><trkpt lat="44.31734156115449" lon="9.350508900159785"><ele>36.5</ele><time>2026-04-21T11:56:57.001Z</time></trkpt><trkpt lat="44.317207998461654" lon="9.350818553880552"><ele>29.0</ele><time>2026-04-21T11:56:58.001Z</time></trkpt><trkpt lat="44.31706568683377" lon="9.35112141058203"><ele>30.5</ele><time>2026-04-21T11:56:59.001Z</time></trkpt><trkpt lat="44.31692691253826" lon="9.351424486005248"><ele>32.0</ele><time>2026-04-21T11:57:00.001Z</time></trkpt><trkpt lat="44.31679222931464" lon="9.351732096637178"><ele>32.0</ele><time>2026-04-21T11:57:01.001Z</time></trkpt><trkpt lat="44.316658172949275" lon="9.35203343972538"><ele>32.0</ele><time>2026-04-21T11:57:02.001Z</time></trkpt><trkpt lat="44.316520620848685" lon="9.352322152958637"><ele>26.0</ele><time>2026-04-21T11:57:03.001Z</time></trkpt><trkpt lat="44.31639165475077" lon="9.352601667053317"><ele>20.0</ele><time>2026-04-21T11:57:04.001Z</time></trkpt><trkpt lat="44.31625340362717" lon="9.352890245404305"><ele>25.5</ele><time>2026-04-21T11:57:05.001Z</time></trkpt><trkpt lat="44.31610119556094" lon="9.35316455502152"><ele>31.0</ele><time>2026-04-21T11:57:06.001Z</time></trkpt><trkpt lat="44.31593967673308" lon="9.35342558773966"><ele>31.0</ele><time>2026-04-21T11:57:07Z</time></trkpt><trkpt lat="44.315771790278056" lon="9.353682423935854"><ele>31.0</ele><time>2026-04-21T11:57:08Z</time></trkpt><trkpt lat="44.315604677219326" lon="9.353935794421306"><ele>34.0</ele><time>2026-04-21T11:57:09Z</time></trkpt><trkpt lat="44.31542957091523" lon="9.354186693112732"><ele>37.0</ele><time>2026-04-21T11:57:10Z</time></trkpt><trkpt lat="44.31524768291419" lon="9.35443701882966"><ele>37.0</ele><time>2026-04-21T11:57:11Z</time></trkpt><trkpt lat="44.31506347685941" lon="9.354690203552614"><ele>37.0</ele><time>2026-04-21T11:57:12Z</time></trkpt><trkpt lat="44.314883379989425" lon="9.354948968544003"><ele>46.0</ele><time>2026-04-21T11:57:13Z</time></trkpt><trkpt lat="44.314708549822925" lon="9.35520189008184"><ele>55.0</ele><time>2026-04-21T11:57:14Z</time></trkpt><trkpt lat="44.31453071026536" lon="9.355463482107"><ele>56.0</ele><time>2026-04-21T11:57:15Z</time></trkpt><trkpt lat="44.31435131266039" lon="9.355720857031237"><ele>57.0</ele><time>2026-04-21T11:57:16Z</time></trkpt><trkpt lat="44.314176494357284" lon="9.355967913096471"><ele>57.0</ele><time>2026-04-21T11:57:17Z</time></trkpt><trkpt lat="44.313999238754846" lon="9.356212259360664"><ele>57.0</ele><time>2026-04-21T11:57:18Z</time></trkpt><trkpt lat="44.31382517250443" lon="9.356450839855226"><ele>57.0</ele><time>2026-04-21T11:57:19Z</time></trkpt><trkpt lat="44.31364719130434" lon="9.35669447770502"><ele>57.0</ele><time>2026-04-21T11:57:20Z</time></trkpt><trkpt lat="44.3134713790163" lon="9.356935229349006"><ele>57.0</ele><time>2026-04-21T11:57:21Z</time></trkpt><trkpt lat="44.313295356407345" lon="9.357175538231761"><ele>57.0</ele><time>2026-04-21T11:57:22Z</time></trkpt><trkpt lat="44.3131034377565" lon="9.357434115197682"><ele>35.0</ele><time>2026-04-21T11:57:23.075Z</time></trkpt><trkpt lat="44.31274383961838" lon="9.357982946684478"><ele>36.0</ele><time>2026-04-21T11:57:25Z</time></trkpt><trkpt lat="44.312543223034254" lon="9.358273353512406"><ele>37.0</ele><time>2026-04-21T11:57:26Z</time></trkpt><trkpt lat="44.31236449744993" lon="9.358545949095706"><ele>36.0</ele><time>2026-04-21T11:57:27Z</time></trkpt><trkpt lat="44.312190106528675" lon="9.358797228808696"><ele>35.0</ele><time>2026-04-21T11:57:28Z</time></trkpt><trkpt lat="44.312028484573304" lon="9.35904615942161"><ele>38.5</ele><time>2026-04-21T11:57:29Z</time></trkpt><trkpt lat="44.31185682232123" lon="9.359294061192667"><ele>42.0</ele><time>2026-04-21T11:57:30Z</time></trkpt><trkpt lat="44.31168444011406" lon="9.359547562856834"><ele>42.5</ele><time>2026-04-21T11:57:31Z</time></trkpt><trkpt lat="44.311514046074066" lon="9.359797945824223"><ele>43.0</ele><time>2026-04-21T11:57:32Z</time></trkpt><trkpt lat="44.31134200490045" lon="9.360046703947377"><ele>50.5</ele><time>2026-04-21T11:57:33Z</time></trkpt><trkpt lat="44.3111671480554" lon="9.360291682402273"><ele>58.0</ele><time>2026-04-21T11:57:34Z</time></trkpt><trkpt lat="44.31099005633351" lon="9.36054390302026"><ele>58.0</ele><time>2026-04-21T11:57:35Z</time></trkpt><trkpt lat="44.31081572097686" lon="9.360791263859994"><ele>58.0</ele><time>2026-04-21T11:57:36Z</time></trkpt><trkpt lat="44.31063878278215" lon="9.361041678387746"><ele>56.0</ele><time>2026-04-21T11:57:37Z</time></trkpt><trkpt lat="44.31046030733473" lon="9.361290538831918"><ele>54.0</ele><time>2026-04-21T11:57:38Z</time></trkpt><trkpt lat="44.31028383597416" lon="9.361542557452816"><ele>54.0</ele><time>2026-04-21T11:57:39Z</time></trkpt><trkpt lat="44.31009957412711" lon="9.361798853639307"><ele>54.0</ele><time>2026-04-21T11:57:40Z</time></trkpt><trkpt lat="44.3099225749061" lon="9.362051429999875"><ele>53.0</ele><time>2026-04-21T11:57:41Z</time></trkpt><trkpt lat="44.309746745329896" lon="9.362298518089617"><ele>52.0</ele><time>2026-04-21T11:57:42Z</time></trkpt><trkpt lat="44.309571892420465" lon="9.362553907988266"><ele>52.0</ele><time>2026-04-21T11:57:43Z</time></trkpt><trkpt lat="44.30939585273896" lon="9.362801597232947"><ele>52.0</ele><time>2026-04-21T11:57:44Z</time></trkpt><trkpt lat="44.30922113147951" lon="9.363050442618798"><ele>56.5</ele><time>2026-04-21T11:57:45Z</time></trkpt><trkpt lat="44.3090477030167" lon="9.363291579897739"><ele>61.0</ele><time>2026-04-21T11:57:46Z</time></trkpt><trkpt lat="44.308877102907886" lon="9.363531376294983"><ele>65.5</ele><time>2026-04-21T11:57:47Z</time></trkpt><trkpt lat="44.308712223014936" lon="9.363777623116155"><ele>70.0</ele><time>2026-04-21T11:57:48Z</time></trkpt><trkpt lat="44.3085502245085" lon="9.364025942046014"><ele>70.0</ele><time>2026-04-21T11:57:49Z</time></trkpt><trkpt lat="44.3083931598462" lon="9.364283292341664"><ele>70.0</ele><time>2026-04-21T11:57:50Z</time></trkpt><trkpt lat="44.30823870621915" lon="9.364545277061156"><ele>69.5</ele><time>2026-04-21T11:57:51Z</time></trkpt><trkpt lat="44.308087830043505" lon="9.364808194048472"><ele>69.0</ele><time>2026-04-21T11:57:52Z</time></trkpt><trkpt lat="44.30792982265124" lon="9.365066914205482"><ele>76.0</ele><time>2026-04-21T11:57:53Z</time></trkpt><trkpt lat="44.307776148906655" lon="9.365332492739155"><ele>83.0</ele><time>2026-04-21T11:57:54Z</time></trkpt><trkpt lat="44.30762284814167" lon="9.365588126243102"><ele>83.0</ele><time>2026-04-21T11:57:55Z</time></trkpt><trkpt lat="44.3074701002496" lon="9.365845187357012"><ele>83.0</ele><time>2026-04-21T11:57:56Z</time></trkpt><trkpt lat="44.307323318312065" lon="9.366117564372137"><ele>93.5</ele><time>2026-04-21T11:57:57Z</time></trkpt><trkpt lat="44.30717679547741" lon="9.36638310498012"><ele>104.0</ele><time>2026-04-21T11:57:58Z</time></trkpt><trkpt lat="44.30702248562174" lon="9.366642293785508"><ele>104.0</ele><time>2026-04-21T11:57:59Z</time></trkpt><trkpt lat="44.30686274602738" lon="9.366901987486864"><ele>104.0</ele><time>2026-04-21T11:58:00Z</time></trkpt><trkpt lat="44.30670845382897" lon="9.367166038850964"><ele>102.0</ele><time>2026-04-21T11:58:01Z</time></trkpt><trkpt lat="44.30656092034682" lon="9.367419362681545"><ele>100.0</ele><time>2026-04-21T11:58:02Z</time></trkpt><trkpt lat="44.30641486410156" lon="9.367685620238626"><ele>110.0</ele><time>2026-04-21T11:58:03Z</time></trkpt><trkpt lat="44.30627043364187" lon="9.367964286776337"><ele>120.0</ele><time>2026-04-21T11:58:04Z</time></trkpt><trkpt lat="44.306131980078774" lon="9.368241939612336"><ele>120.0</ele><time>2026-04-21T11:58:05Z</time></trkpt><trkpt lat="44.305998345899354" lon="9.368504777397316"><ele>120.0</ele><time>2026-04-21T11:58:06Z</time></trkpt><trkpt lat="44.30586078893134" lon="9.368773764090086"><ele>126.5</ele><time>2026-04-21T11:58:07Z</time></trkpt><trkpt lat="44.30575859540282" lon="9.369068314655692"><ele>133.0</ele><time>2026-04-21T11:58:08Z</time></trkpt><trkpt lat="44.30565722819169" lon="9.369358884685642"><ele>137.5</ele><time>2026-04-21T11:58:09Z</time></trkpt><trkpt lat="44.30556031273309" lon="9.369665781837126"><ele>142.0</ele><time>2026-04-21T11:58:10.057Z</time></trkpt><trkpt lat="44.305479203437834" lon="9.36996007891376"><ele>144.66666666666669</ele><time>2026-04-21T11:58:11.062Z</time></trkpt><trkpt lat="44.305405486143904" lon="9.370250473328957"><ele>147.33333333333334</ele><time>2026-04-21T11:58:12.054Z</time></trkpt><trkpt lat="44.30533295957284" lon="9.370549879755261"><ele>150.0</ele><time>2026-04-21T11:58:13.057Z</time></trkpt><trkpt lat="44.305261320282185" lon="9.37084653912646"><ele>254.0</ele><time>2026-04-21T11:58:14.055Z</time></trkpt><trkpt lat="44.304674303086" lon="9.373609824067728"><ele>298.0</ele><time>2026-04-21T11:58:17.558Z</time></trkpt><trkpt lat="44.304391639857236" lon="9.374799618751883"><ele>293.0</ele><time>2026-04-21T11:58:18.558Z</time></trkpt><trkpt lat="44.30411040005938" lon="9.375990077180472"><ele>261.0</ele><time>2026-04-21T11:58:19.558Z</time></trkpt><trkpt lat="44.303825124453084" lon="9.377175176166451"><ele>215.0</ele><time>2026-04-21T11:58:20.555Z</time></trkpt><trkpt lat="44.303540982884144" lon="9.378363695649966"><ele>184.0</ele><time>2026-04-21T11:58:21.555Z</time></trkpt><trkpt lat="44.30325427182406" lon="9.379555648978764"><ele>134.0</ele><time>2026-04-21T11:58:22.558Z</time></trkpt><trkpt lat="44.302968934335816" lon="9.380740703248748"><ele>110.0</ele><time>2026-04-21T11:58:23.555Z</time></trkpt><trkpt lat="44.30255956398272" lon="9.38176349055797"><ele>110.0</ele><time>2026-04-21T11:58:46Z</time></trkpt><trkpt lat="44.30244503757049" lon="9.382019166461232"><ele>110.0</ele><time>2026-04-21T11:58:47Z</time></trkpt><trkpt lat="44.30232423487697" lon="9.382317507252735"><ele>103.5</ele><time>2026-04-21T11:58:48Z</time></trkpt><trkpt lat="44.30216163098113" lon="9.382580021913894"><ele>97.0</ele><time>2026-04-21T11:58:49Z</time></trkpt><trkpt lat="44.30199159376579" lon="9.382810174917402"><ele>101.5</ele><time>2026-04-21T11:58:50Z</time></trkpt><trkpt lat="44.30180965603115" lon="9.383028345512045"><ele>106.0</ele><time>2026-04-21T11:58:51Z</time></trkpt><trkpt lat="44.30161433731434" lon="9.383226533399071"><ele>96.5</ele><time>2026-04-21T11:58:52Z</time></trkpt><trkpt lat="44.30141173761942" lon="9.38340016504783"><ele>87.0</ele><time>2026-04-21T11:58:53Z</time></trkpt><trkpt lat="44.30120286132283" lon="9.383555036978617"><ele>87.0</ele><time>2026-04-21T11:58:54Z</time></trkpt><trkpt lat="44.300986749179046" lon="9.383690578788974"><ele>87.0</ele><time>2026-04-21T11:58:55Z</time></trkpt><trkpt lat="44.300765783487265" lon="9.383808495116005"><ele>95.5</ele><time>2026-04-21T11:58:56Z</time></trkpt><trkpt lat="44.30053341717761" lon="9.383905278658906"><ele>104.0</ele><time>2026-04-21T11:58:57Z</time></trkpt><trkpt lat="44.300298554469684" lon="9.383984280975517"><ele>104.0</ele><time>2026-04-21T11:58:58Z</time></trkpt><trkpt lat="44.300056532316866" lon="9.384039172693281"><ele>104.0</ele><time>2026-04-21T11:58:59Z</time></trkpt><trkpt lat="44.29981091411012" lon="9.384072818006409"><ele>104.5</ele><time>2026-04-21T11:59:00Z</time></trkpt><trkpt lat="44.29955989180375" lon="9.384082165868886"><ele>105.0</ele><time>2026-04-21T11:59:01Z</time></trkpt><trkpt lat="44.29930902648691" lon="9.384062790719343"><ele>105.0</ele><time>2026-04-21T11:59:02Z</time></trkpt><trkpt lat="44.29905682043655" lon="9.384025714031115"><ele>105.0</ele><time>2026-04-21T11:59:03Z</time></trkpt><trkpt lat="44.29881534334281" lon="9.383988069196741"><ele>106.66666666666666</ele><time>2026-04-21T11:59:04Z</time></trkpt><trkpt lat="44.2985919239967" lon="9.38395279828512"><ele>108.33333333333333</ele><time>2026-04-21T11:59:05Z</time></trkpt><trkpt lat="44.29837677496766" lon="9.38391631582213"><ele>110.0</ele><time>2026-04-21T11:59:06Z</time></trkpt><trkpt lat="44.2981529630901" lon="9.383885267754858"><ele>106.5</ele><time>2026-04-21T11:59:07Z</time></trkpt><trkpt lat="44.297921241966314" lon="9.383853078370487"><ele>103.0</ele><time>2026-04-21T11:59:08Z</time></trkpt><trkpt lat="44.297681706424456" lon="9.383825836753376"><ele>90.5</ele><time>2026-04-21T11:59:09Z</time></trkpt><trkpt lat="44.297441875784365" lon="9.383791449954694"><ele>78.0</ele><time>2026-04-21T11:59:10Z</time></trkpt><trkpt lat="44.29719747275203" lon="9.383754596361422"><ele>72.5</ele><time>2026-04-21T11:59:11Z</time></trkpt><trkpt lat="44.2969492711037" lon="9.383718400755068"><ele>67.0</ele><time>2026-04-21T11:59:12Z</time></trkpt><trkpt lat="44.296702172558064" lon="9.383694409989028"><ele>67.0</ele><time>2026-04-21T11:59:13Z</time></trkpt><trkpt lat="44.296453722056015" lon="9.383680846588309"><ele>67.0</ele><time>2026-04-21T11:59:14Z</time></trkpt><trkpt lat="44.296206183683935" lon="9.383687300496431"><ele>67.5</ele><time>2026-04-21T11:59:15Z</time></trkpt><trkpt lat="44.29595767908111" lon="9.383714196470462"><ele>68.0</ele><time>2026-04-21T11:59:16Z</time></trkpt><trkpt lat="44.29570921596745" lon="9.383761329683953"><ele>74.5</ele><time>2026-04-21T11:59:17Z</time></trkpt><trkpt lat="44.295464032118076" lon="9.383815108485196"><ele>81.0</ele><time>2026-04-21T11:59:18Z</time></trkpt><trkpt lat="44.29522279743273" lon="9.383881396279804"><ele>87.5</ele><time>2026-04-21T11:59:19Z</time></trkpt><trkpt lat="44.294985028192265" lon="9.383966183867125"><ele>94.0</ele><time>2026-04-21T11:59:20Z</time></trkpt><trkpt lat="44.294752123334206" lon="9.384066976526773"><ele>97.0</ele><time>2026-04-21T11:59:21Z</time></trkpt><trkpt lat="44.294518921975964" lon="9.384179780541857"><ele>100.0</ele><time>2026-04-21T11:59:22Z</time></trkpt><trkpt lat="44.294296580480136" lon="9.38430309535222"><ele>100.0</ele><time>2026-04-21T11:59:23Z</time></trkpt><trkpt lat="44.2940769241677" lon="9.38444430601902"><ele>100.0</ele><time>2026-04-21T11:59:24Z</time></trkpt><trkpt lat="44.293859822274655" lon="9.38460014758282"><ele>100.0</ele><time>2026-04-21T11:59:25Z</time></trkpt><trkpt lat="44.29364886455154" lon="9.384767298080405"><ele>100.0</ele><time>2026-04-21T11:59:26Z</time></trkpt><trkpt lat="44.29344281845378" lon="9.384946645946854"><ele>100.0</ele><time>2026-04-21T11:59:27Z</time></trkpt><trkpt lat="44.293245194216915" lon="9.385141470903324"><ele>100.0</ele><time>2026-04-21T11:59:28Z</time></trkpt><trkpt lat="44.29305162826052" lon="9.385351704668206"><ele>96.5</ele><time>2026-04-21T11:59:29Z</time></trkpt><trkpt lat="44.292858677465986" lon="9.385570802175852"><ele>93.0</ele><time>2026-04-21T11:59:30Z</time></trkpt><trkpt lat="44.29266776231615" lon="9.385794628720655"><ele>93.0</ele><time>2026-04-21T11:59:31Z</time></trkpt><trkpt lat="44.29247344154461" lon="9.38602656608821"><ele>93.0</ele><time>2026-04-21T11:59:32Z</time></trkpt><trkpt lat="44.29227616426916" lon="9.386259698886981"><ele>98.5</ele><time>2026-04-21T11:59:33Z</time></trkpt><trkpt lat="44.29208666599629" lon="9.386484120991136"><ele>104.0</ele><time>2026-04-21T11:59:34Z</time></trkpt><trkpt lat="44.291903426341776" lon="9.38670534698203"><ele>104.0</ele><time>2026-04-21T11:59:35Z</time></trkpt><trkpt lat="44.291723068092224" lon="9.386931963909001"><ele>104.0</ele><time>2026-04-21T11:59:36Z</time></trkpt><trkpt lat="44.291546199102264" lon="9.387167657339205"><ele>126.0</ele><time>2026-04-21T11:59:37Z</time></trkpt><trkpt lat="44.291372315968765" lon="9.3874156086204"><ele>148.0</ele><time>2026-04-21T11:59:38Z</time></trkpt><trkpt lat="44.291192827408324" lon="9.387670122742637"><ele>148.0</ele><time>2026-04-21T11:59:39Z</time></trkpt><trkpt lat="44.29100713777725" lon="9.38791794181079"><ele>148.0</ele><time>2026-04-21T11:59:40Z</time></trkpt><trkpt lat="44.29080855678322" lon="9.388169438571854"><ele>153.0</ele><time>2026-04-21T11:59:41Z</time></trkpt><trkpt lat="44.2906052874844" lon="9.388420960877395"><ele>158.0</ele><time>2026-04-21T11:59:42Z</time></trkpt><trkpt lat="44.29040494587586" lon="9.388669990237988"><ele>179.5</ele><time>2026-04-21T11:59:43Z</time></trkpt><trkpt lat="44.29023078690588" lon="9.388938404686124"><ele>201.0</ele><time>2026-04-21T11:59:44Z</time></trkpt><trkpt lat="44.29003065600445" lon="9.389227073813432"><ele>201.0</ele><time>2026-04-21T11:59:45.068Z</time></trkpt><trkpt lat="44.289835231140806" lon="9.389508980183262"><ele>201.0</ele><time>2026-04-21T11:59:46.065Z</time></trkpt><trkpt lat="44.28964669182509" lon="9.3897809817443"><ele>270.0</ele><time>2026-04-21T11:59:47.064Z</time></trkpt><trkpt lat="44.288287478509005" lon="9.391875206460155"><ele>102.0</ele><time>2026-04-21T11:59:50.554Z</time></trkpt><trkpt lat="44.285826356692006" lon="9.395469617622789"><ele>104.33333333333334</ele><time>2026-04-21T12:00:09Z</time></trkpt><trkpt lat="44.285667217562626" lon="9.395710950259609"><ele>106.66666666666667</ele><time>2026-04-21T12:00:10Z</time></trkpt><trkpt lat="44.28552902323484" lon="9.39593534327841"><ele>109.0</ele><time>2026-04-21T12:00:11Z</time></trkpt><trkpt lat="44.28539094729591" lon="9.396220914810241"><ele>125.5</ele><time>2026-04-21T12:00:12Z</time></trkpt><trkpt lat="44.28525273368035" lon="9.396513640933044"><ele>142.0</ele><time>2026-04-21T12:00:13Z</time></trkpt><trkpt lat="44.2851174192916" lon="9.396823675905225"><ele>142.0</ele><time>2026-04-21T12:00:14Z</time></trkpt><trkpt lat="44.28501831060994" lon="9.397162168180742"><ele>142.0</ele><time>2026-04-21T12:00:15Z</time></trkpt><trkpt lat="44.284950294632964" lon="9.39747937113119"><ele>136.0</ele><time>2026-04-21T12:00:16Z</time></trkpt><trkpt lat="44.28490065288241" lon="9.397791423726087"><ele>130.0</ele><time>2026-04-21T12:00:17Z</time></trkpt><trkpt lat="44.284859840528185" lon="9.398121222014044"><ele>120.0</ele><time>2026-04-21T12:00:18.06Z</time></trkpt><trkpt lat="44.28482124034067" lon="9.39846183925723"><ele>110.0</ele><time>2026-04-21T12:00:19.062Z</time></trkpt><trkpt lat="44.28475158925616" lon="9.399116150554265"><ele>99.0</ele><time>2026-04-21T12:00:21Z</time></trkpt><trkpt lat="44.28469956898855" lon="9.3994864744608"><ele>88.0</ele><time>2026-04-21T12:00:22Z</time></trkpt><trkpt lat="44.28472054984114" lon="9.399916614741187"><ele>85.5</ele><time>2026-04-21T12:00:23Z</time></trkpt><trkpt lat="44.28469215803324" lon="9.400294467818195"><ele>83.0</ele><time>2026-04-21T12:00:24Z</time></trkpt><trkpt lat="44.284644815108045" lon="9.40067043604779"><ele>79.5</ele><time>2026-04-21T12:00:25Z</time></trkpt><trkpt lat="44.28460351919083" lon="9.401048759684242"><ele>76.0</ele><time>2026-04-21T12:00:26Z</time></trkpt><trkpt lat="44.284561137762374" lon="9.40142413971333"><ele>74.5</ele><time>2026-04-21T12:00:27Z</time></trkpt><trkpt lat="44.28452007561622" lon="9.401799902988804"><ele>73.0</ele><time>2026-04-21T12:00:28Z</time></trkpt><trkpt lat="44.28447889268051" lon="9.402166783231948"><ele>73.0</ele><time>2026-04-21T12:00:29Z</time></trkpt><trkpt lat="44.284441015249314" lon="9.402534955018131"><ele>73.0</ele><time>2026-04-21T12:00:30Z</time></trkpt><trkpt lat="44.284403379159095" lon="9.402917253631447"><ele>75.0</ele><time>2026-04-21T12:00:31Z</time></trkpt><trkpt lat="44.284364035089546" lon="9.403304022076988"><ele>77.0</ele><time>2026-04-21T12:00:32Z</time></trkpt><trkpt lat="44.28432258843999" lon="9.403690170413281"><ele>70.5</ele><time>2026-04-21T12:00:33Z</time></trkpt><trkpt lat="44.284278348013814" lon="9.404076234537476"><ele>64.0</ele><time>2026-04-21T12:00:34Z</time></trkpt><trkpt lat="44.284236428026276" lon="9.40446226330574"><ele>64.0</ele><time>2026-04-21T12:00:35Z</time></trkpt><trkpt lat="44.28418856235755" lon="9.404839997341975"><ele>64.0</ele><time>2026-04-21T12:00:36Z</time></trkpt><trkpt lat="44.28413394087035" lon="9.405232244045834"><ele>70.0</ele><time>2026-04-21T12:00:37Z</time></trkpt><trkpt lat="44.28409266170715" lon="9.40556421526744"><ele>76.0</ele><time>2026-04-21T12:00:38Z</time></trkpt><trkpt lat="44.2840754329083" lon="9.405919482425048"><ele>76.0</ele><time>2026-04-21T12:00:39Z</time></trkpt><trkpt lat="44.284038948708364" lon="9.406256067304106"><ele>76.0</ele><time>2026-04-21T12:00:40Z</time></trkpt><trkpt lat="44.28399220785931" lon="9.40658681644074"><ele>77.33333333333333</ele><time>2026-04-21T12:00:41Z</time></trkpt><trkpt lat="44.2839358409104" lon="9.406892956940693"><ele>78.66666666666667</ele><time>2026-04-21T12:00:42Z</time></trkpt><trkpt lat="44.28386319347768" lon="9.40718621066513"><ele>80.0</ele><time>2026-04-21T12:00:43Z</time></trkpt><trkpt lat="44.28377120077828" lon="9.407480670673168"><ele>69.5</ele><time>2026-04-21T12:00:44Z</time></trkpt><trkpt lat="44.28367363585316" lon="9.407769732323827"><ele>59.0</ele><time>2026-04-21T12:00:45Z</time></trkpt><trkpt lat="44.28355509522642" lon="9.40805909850316"><ele>59.0</ele><time>2026-04-21T12:00:46Z</time></trkpt><trkpt lat="44.28342163236516" lon="9.408338775428248"><ele>59.0</ele><time>2026-04-21T12:00:47Z</time></trkpt><trkpt lat="44.28326880852632" lon="9.408616757530366"><ele>52.5</ele><time>2026-04-21T12:00:48Z</time></trkpt><trkpt lat="44.28310200917368" lon="9.40887813400778"><ele>46.0</ele><time>2026-04-21T12:00:49Z</time></trkpt><trkpt lat="44.282917089803334" lon="9.409140372264057"><ele>46.0</ele><time>2026-04-21T12:00:50Z</time></trkpt><trkpt lat="44.28271997037014" lon="9.40938915778009"><ele>46.0</ele><time>2026-04-21T12:00:51Z</time></trkpt><trkpt lat="44.2825118599065" lon="9.409627503450894"><ele>45.0</ele><time>2026-04-21T12:00:52Z</time></trkpt><trkpt lat="44.28229372539589" lon="9.409853137677235"><ele>44.0</ele><time>2026-04-21T12:00:53Z</time></trkpt><trkpt lat="44.28207698634252" lon="9.410080187417833"><ele>44.0</ele><time>2026-04-21T12:00:54Z</time></trkpt><trkpt lat="44.281867398547966" lon="9.410304056063167"><ele>44.0</ele><time>2026-04-21T12:00:55Z</time></trkpt><trkpt lat="44.28167145056026" lon="9.410514372174616"><ele>49.0</ele><time>2026-04-21T12:00:56Z</time></trkpt><trkpt lat="44.28147433833094" lon="9.410729331833702"><ele>54.0</ele><time>2026-04-21T12:00:57Z</time></trkpt><trkpt lat="44.28127767758172" lon="9.410955520321352"><ele>47.0</ele><time>2026-04-21T12:00:58Z</time></trkpt><trkpt lat="44.28111510648893" lon="9.411198799299022"><ele>40.0</ele><time>2026-04-21T12:00:59Z</time></trkpt><trkpt lat="44.28096011035648" lon="9.411460463256216"><ele>40.0</ele><time>2026-04-21T12:01:00Z</time></trkpt><trkpt lat="44.28081597639621" lon="9.411746655858133"><ele>40.0</ele><time>2026-04-21T12:01:01Z</time></trkpt><trkpt lat="44.28067832087634" lon="9.412045183010532"><ele>29.5</ele><time>2026-04-21T12:01:02Z</time></trkpt><trkpt lat="44.28054755414533" lon="9.41235237383691"><ele>19.0</ele><time>2026-04-21T12:01:03Z</time></trkpt><trkpt lat="44.28042168161426" lon="9.412654357534104"><ele>19.0</ele><time>2026-04-21T12:01:04Z</time></trkpt><trkpt lat="44.280289538610035" lon="9.412975748239692"><ele>19.0</ele><time>2026-04-21T12:01:05Z</time></trkpt><trkpt lat="44.280155750684095" lon="9.41329254496032"><ele>23.0</ele><time>2026-04-21T12:01:06Z</time></trkpt><trkpt lat="44.28002163795613" lon="9.413609018507787"><ele>27.0</ele><time>2026-04-21T12:01:07Z</time></trkpt><trkpt lat="44.27988446664551" lon="9.41392795476847"><ele>43.0</ele><time>2026-04-21T12:01:08Z</time></trkpt><trkpt lat="44.27975096132439" lon="9.41424122003777"><ele>59.0</ele><time>2026-04-21T12:01:09Z</time></trkpt><trkpt lat="44.27961524658262" lon="9.414545635384727"><ele>57.0</ele><time>2026-04-21T12:01:10Z</time></trkpt><trkpt lat="44.27947817172508" lon="9.414855692426613"><ele>55.0</ele><time>2026-04-21T12:01:11Z</time></trkpt><trkpt lat="44.27934085311837" lon="9.415156591000914"><ele>55.0</ele><time>2026-04-21T12:01:12Z</time></trkpt><trkpt lat="44.27922146875177" lon="9.415448906173129"><ele>55.0</ele><time>2026-04-21T12:01:13Z</time></trkpt><trkpt lat="44.27908977438236" lon="9.415732705481787"><ele>53.0</ele><time>2026-04-21T12:01:14Z</time></trkpt><trkpt lat="44.27892798626364" lon="9.415986581773037"><ele>51.0</ele><time>2026-04-21T12:01:15Z</time></trkpt><trkpt lat="44.2787535863649" lon="9.416237905179482"><ele>41.0</ele><time>2026-04-21T12:01:16Z</time></trkpt><trkpt lat="44.2785676526152" lon="9.41648601330926"><ele>31.0</ele><time>2026-04-21T12:01:17Z</time></trkpt><trkpt lat="44.27836749884362" lon="9.416723378907054"><ele>31.0</ele><time>2026-04-21T12:01:18Z</time></trkpt><trkpt lat="44.27816238211647" lon="9.416957510295372"><ele>31.0</ele><time>2026-04-21T12:01:19Z</time></trkpt><trkpt lat="44.277957227337296" lon="9.417191727992407"><ele>24.0</ele><time>2026-04-21T12:01:20Z</time></trkpt><trkpt lat="44.27774755756987" lon="9.417433515750634"><ele>17.0</ele><time>2026-04-21T12:01:21Z</time></trkpt><trkpt lat="44.27753645676032" lon="9.417678796112959"><ele>17.0</ele><time>2026-04-21T12:01:22Z</time></trkpt><trkpt lat="44.27732852209379" lon="9.41792434934827"><ele>17.0</ele><time>2026-04-21T12:01:23Z</time></trkpt><trkpt lat="44.277120705886574" lon="9.41816848234282"><ele>15.0</ele><time>2026-04-21T12:01:24Z</time></trkpt><trkpt lat="44.276917173119855" lon="9.418406237100163"><ele>13.0</ele><time>2026-04-21T12:01:25Z</time></trkpt><trkpt lat="44.276722273703626" lon="9.418628503331426"><ele>14.5</ele><time>2026-04-21T12:01:26Z</time></trkpt><trkpt lat="44.27652579594222" lon="9.418854496396255"><ele>16.0</ele><time>2026-04-21T12:01:27Z</time></trkpt><trkpt lat="44.27632700167478" lon="9.419084771505077"><ele>16.0</ele><time>2026-04-21T12:01:28Z</time></trkpt><trkpt lat="44.276129322526835" lon="9.419314362010489"><ele>16.0</ele><time>2026-04-21T12:01:29Z</time></trkpt><trkpt lat="44.27593300308954" lon="9.419551186363798"><ele>16.5</ele><time>2026-04-21T12:01:30Z</time></trkpt><trkpt lat="44.27574087931636" lon="9.419781308271665"><ele>17.0</ele><time>2026-04-21T12:01:31Z</time></trkpt><trkpt lat="44.2755515781567" lon="9.420002577728846"><ele>17.0</ele><time>2026-04-21T12:01:32Z</time></trkpt><trkpt lat="44.27536022485954" lon="9.42022370999572"><ele>17.0</ele><time>2026-04-21T12:01:33Z</time></trkpt><trkpt lat="44.27517445339732" lon="9.420445258078344"><ele>17.0</ele><time>2026-04-21T12:01:34Z</time></trkpt><trkpt lat="44.27499229904882" lon="9.420661326077884"><ele>17.0</ele><time>2026-04-21T12:01:35Z</time></trkpt><trkpt lat="44.27481038612718" lon="9.420876458104548"><ele>16.5</ele><time>2026-04-21T12:01:36Z</time></trkpt><trkpt lat="44.27462838919164" lon="9.42109087810407"><ele>16.0</ele><time>2026-04-21T12:01:37Z</time></trkpt><trkpt lat="44.274442554923" lon="9.42130624552371"><ele>16.5</ele><time>2026-04-21T12:01:38Z</time></trkpt><trkpt lat="44.27425286398919" lon="9.421525413248016"><ele>17.0</ele><time>2026-04-21T12:01:39Z</time></trkpt><trkpt lat="44.27405962305212" lon="9.421748117609473"><ele>20.0</ele><time>2026-04-21T12:01:40Z</time></trkpt><trkpt lat="44.2738688253787" lon="9.42197284294058"><ele>23.0</ele><time>2026-04-21T12:01:41Z</time></trkpt><trkpt lat="44.27367676911086" lon="9.42220695592184"><ele>24.5</ele><time>2026-04-21T12:01:42Z</time></trkpt><trkpt lat="44.27348695120657" lon="9.422440128565036"><ele>26.0</ele><time>2026-04-21T12:01:43Z</time></trkpt><trkpt lat="44.273291620051936" lon="9.422678111094445"><ele>25.0</ele><time>2026-04-21T12:01:44Z</time></trkpt><trkpt lat="44.273099131586086" lon="9.422915663651766"><ele>24.0</ele><time>2026-04-21T12:01:45Z</time></trkpt><trkpt lat="44.27290299705548" lon="9.423153722098235"><ele>24.0</ele><time>2026-04-21T12:01:46Z</time></trkpt><trkpt lat="44.27271154133672" lon="9.423389039724304"><ele>24.0</ele><time>2026-04-21T12:01:47Z</time></trkpt><trkpt lat="44.272528123637365" lon="9.423610504875574"><ele>26.0</ele><time>2026-04-21T12:01:48Z</time></trkpt><trkpt lat="44.27234450255265" lon="9.423828097738532"><ele>28.0</ele><time>2026-04-21T12:01:49Z</time></trkpt><trkpt lat="44.272161792963075" lon="9.424044761347552"><ele>22.5</ele><time>2026-04-21T12:01:50Z</time></trkpt><trkpt lat="44.271980101237254" lon="9.42425492900293"><ele>17.0</ele><time>2026-04-21T12:01:51Z</time></trkpt><trkpt lat="44.27179660072884" lon="9.424455287162928"><ele>17.0</ele><time>2026-04-21T12:01:52Z</time></trkpt><trkpt lat="44.271616282923496" lon="9.424645329152895"><ele>17.0</ele><time>2026-04-21T12:01:53Z</time></trkpt><trkpt lat="44.271439073021085" lon="9.424838663263479"><ele>16.5</ele><time>2026-04-21T12:01:54Z</time></trkpt><trkpt lat="44.271256439530546" lon="9.425039562697814"><ele>16.0</ele><time>2026-04-21T12:01:55Z</time></trkpt><trkpt lat="44.27106586829643" lon="9.425235803096284"><ele>16.0</ele><time>2026-04-21T12:01:56Z</time></trkpt><trkpt lat="44.27087274587173" lon="9.425436410556228"><ele>16.0</ele><time>2026-04-21T12:01:57Z</time></trkpt><trkpt lat="44.27067992976127" lon="9.425641093969121"><ele>14.0</ele><time>2026-04-21T12:01:58Z</time></trkpt><trkpt lat="44.27048538115938" lon="9.425843234296446"><ele>12.0</ele><time>2026-04-21T12:01:59Z</time></trkpt><trkpt lat="44.27029156213188" lon="9.426048377112823"><ele>12.0</ele><time>2026-04-21T12:02:00Z</time></trkpt><trkpt lat="44.27009397199603" lon="9.426251308926695"><ele>12.0</ele><time>2026-04-21T12:02:01Z</time></trkpt><trkpt lat="44.26989908678484" lon="9.42645949930619"><ele>12.0</ele><time>2026-04-21T12:02:02Z</time></trkpt><trkpt lat="44.26970525203951" lon="9.426680186046047"><ele>12.0</ele><time>2026-04-21T12:02:03Z</time></trkpt><trkpt lat="44.26951116782513" lon="9.426904584248502"><ele>12.0</ele><time>2026-04-21T12:02:04Z</time></trkpt><trkpt lat="44.269329913628596" lon="9.427132778975238"><ele>12.0</ele><time>2026-04-21T12:02:05Z</time></trkpt><trkpt lat="44.26916419639592" lon="9.427366207501725"><ele>12.5</ele><time>2026-04-21T12:02:06Z</time></trkpt><trkpt lat="44.26900113783608" lon="9.427618040705195"><ele>13.0</ele><time>2026-04-21T12:02:07Z</time></trkpt><trkpt lat="44.26884274492987" lon="9.427879303768648"><ele>13.5</ele><time>2026-04-21T12:02:08Z</time></trkpt><trkpt lat="44.26869408279851" lon="9.42815145019365"><ele>14.0</ele><time>2026-04-21T12:02:09Z</time></trkpt><trkpt lat="44.268557886721894" lon="9.428427213502111"><ele>14.0</ele><time>2026-04-21T12:02:10Z</time></trkpt><trkpt lat="44.268432873935424" lon="9.428717569642409"><ele>14.0</ele><time>2026-04-21T12:02:11Z</time></trkpt><trkpt lat="44.26831444407651" lon="9.429017393665292"><ele>16.0</ele><time>2026-04-21T12:02:12Z</time></trkpt><trkpt lat="44.26820662805836" lon="9.429323158510067"><ele>18.0</ele><time>2026-04-21T12:02:13Z</time></trkpt><trkpt lat="44.26810781631232" lon="9.429625690386604"><ele>27.0</ele><time>2026-04-21T12:02:14Z</time></trkpt><trkpt lat="44.268024525204076" lon="9.42993036081405"><ele>36.0</ele><time>2026-04-21T12:02:15Z</time></trkpt><trkpt lat="44.26794896798773" lon="9.430246805789666"><ele>40.5</ele><time>2026-04-21T12:02:16Z</time></trkpt><trkpt lat="44.26787711606224" lon="9.430566210550403"><ele>45.0</ele><time>2026-04-21T12:02:17Z</time></trkpt><trkpt lat="44.26781888104134" lon="9.430889038916366"><ele>45.0</ele><time>2026-04-21T12:02:18Z</time></trkpt><trkpt lat="44.26777261145544" lon="9.431219036865416"><ele>45.0</ele><time>2026-04-21T12:02:19Z</time></trkpt><trkpt lat="44.267735804943165" lon="9.431550467679449"><ele>45.0</ele><time>2026-04-21T12:02:20Z</time></trkpt><trkpt lat="44.26770647174051" lon="9.431882074332263"><ele>45.0</ele><time>2026-04-21T12:02:21Z</time></trkpt><trkpt lat="44.26769091550838" lon="9.432217111947852"><ele>44.5</ele><time>2026-04-21T12:02:22Z</time></trkpt><trkpt lat="44.267685945271516" lon="9.432554492937726"><ele>44.0</ele><time>2026-04-21T12:02:23Z</time></trkpt><trkpt lat="44.267689002752554" lon="9.432888584124532"><ele>45.0</ele><time>2026-04-21T12:02:24Z</time></trkpt><trkpt lat="44.26770066258936" lon="9.433222817896777"><ele>46.0</ele><time>2026-04-21T12:02:25Z</time></trkpt><trkpt lat="44.2677250692282" lon="9.433557926220953"><ele>47.5</ele><time>2026-04-21T12:02:26Z</time></trkpt><trkpt lat="44.26776125058489" lon="9.433890853598824"><ele>49.0</ele><time>2026-04-21T12:02:27Z</time></trkpt><trkpt lat="44.267804989241235" lon="9.434226844466242"><ele>49.0</ele><time>2026-04-21T12:02:28Z</time></trkpt><trkpt lat="44.26785432883075" lon="9.434560633065614"><ele>49.0</ele><time>2026-04-21T12:02:29Z</time></trkpt><trkpt lat="44.26790430867168" lon="9.434897694784047"><ele>49.0</ele><time>2026-04-21T12:02:30Z</time></trkpt><trkpt lat="44.267950525505235" lon="9.435232962187944"><ele>49.0</ele><time>2026-04-21T12:02:31Z</time></trkpt><trkpt lat="44.26799989031694" lon="9.435570026967502"><ele>49.5</ele><time>2026-04-21T12:02:32Z</time></trkpt><trkpt lat="44.2680456461666" lon="9.435885351859634"><ele>50.0</ele><time>2026-04-21T12:02:33Z</time></trkpt><trkpt lat="44.268090971242636" lon="9.436198745646783"><ele>45.0</ele><time>2026-04-21T12:02:34Z</time></trkpt><trkpt lat="44.26813671184856" lon="9.43651297688324"><ele>40.0</ele><time>2026-04-21T12:02:35Z</time></trkpt><trkpt lat="44.268182515681694" lon="9.436828541115862"><ele>43.5</ele><time>2026-04-21T12:02:36Z</time></trkpt><trkpt lat="44.2682277379272" lon="9.43714486625257"><ele>47.0</ele><time>2026-04-21T12:02:37Z</time></trkpt><trkpt lat="44.268274016210874" lon="9.43745937250891"><ele>47.0</ele><time>2026-04-21T12:02:38Z</time></trkpt><trkpt lat="44.26831722967877" lon="9.437766011687184"><ele>47.0</ele><time>2026-04-21T12:02:39Z</time></trkpt><trkpt lat="44.26835795180558" lon="9.438055977368391"><ele>47.0</ele><time>2026-04-21T12:02:40Z</time></trkpt><trkpt lat="44.26839561988628" lon="9.438343167818944"><ele>49.33333333333333</ele><time>2026-04-21T12:02:41Z</time></trkpt><trkpt lat="44.26843507633395" lon="9.43862543827412"><ele>51.666666666666664</ele><time>2026-04-21T12:02:42Z</time></trkpt><trkpt lat="44.26847419107897" lon="9.438898004683812"><ele>54.0</ele><time>2026-04-21T12:02:43Z</time></trkpt><trkpt lat="44.26851338788818" lon="9.439169034857327"><ele>55.0</ele><time>2026-04-21T12:02:44Z</time></trkpt><trkpt lat="44.26855458713065" lon="9.439447106016958"><ele>56.0</ele><time>2026-04-21T12:02:45Z</time></trkpt><trkpt lat="44.268596078815165" lon="9.439728968335167"><ele>57.0</ele><time>2026-04-21T12:02:46Z</time></trkpt><trkpt lat="44.268638267412385" lon="9.440011866969574"><ele>57.0</ele><time>2026-04-21T12:02:47Z</time></trkpt><trkpt lat="44.26867554030903" lon="9.440299646581932"><ele>57.0</ele><time>2026-04-21T12:02:48Z</time></trkpt><trkpt lat="44.26870940746955" lon="9.440589176999387"><ele>57.0</ele><time>2026-04-21T12:02:49Z</time></trkpt><trkpt lat="44.26873646438485" lon="9.440865421857804"><ele>51.333333333333336</ele><time>2026-04-21T12:02:50Z</time></trkpt><trkpt lat="44.26875664630105" lon="9.441125432572537"><ele>45.66666666666667</ele><time>2026-04-21T12:02:51Z</time></trkpt><trkpt lat="44.26876760907631" lon="9.44136932983724"><ele>40.0</ele><time>2026-04-21T12:02:52Z</time></trkpt><trkpt lat="44.26877456823992" lon="9.441603466872087"><ele>40.0</ele><time>2026-04-21T12:02:53Z</time></trkpt><trkpt lat="44.268776070573644" lon="9.441833194893098"><ele>40.0</ele><time>2026-04-21T12:02:54Z</time></trkpt><trkpt lat="44.26877362410848" lon="9.442065887132578"><ele>40.0</ele><time>2026-04-21T12:02:55Z</time></trkpt><trkpt lat="44.26877216510196" lon="9.442285727949194"><ele>50.0</ele><time>2026-04-21T12:02:56Z</time></trkpt><trkpt lat="44.26876808983615" lon="9.442493539453144"><ele>60.0</ele><time>2026-04-21T12:02:57Z</time></trkpt><trkpt lat="44.268757469466664" lon="9.442701593155371"><ele>70.0</ele><time>2026-04-21T12:02:58Z</time></trkpt><trkpt lat="44.26874525858633" lon="9.442919881222414"><ele>73.66666666666666</ele><time>2026-04-21T12:02:59Z</time></trkpt><trkpt lat="44.26872828160742" lon="9.443143126585003"><ele>77.33333333333333</ele><time>2026-04-21T12:03:00Z</time></trkpt><trkpt lat="44.26870687607336" lon="9.443379574468663"><ele>81.0</ele><time>2026-04-21T12:03:01Z</time></trkpt><trkpt lat="44.26868043246133" lon="9.44361412214537"><ele>80.33333333333333</ele><time>2026-04-21T12:03:02Z</time></trkpt><trkpt lat="44.26865398095767" lon="9.443845884153646"><ele>79.66666666666666</ele><time>2026-04-21T12:03:03Z</time></trkpt><trkpt lat="44.2686227567225" lon="9.44406554740874"><ele>79.0</ele><time>2026-04-21T12:03:04Z</time></trkpt><trkpt lat="44.268584549963364" lon="9.44429438577215"><ele>79.0</ele><time>2026-04-21T12:03:05Z</time></trkpt><trkpt lat="44.268545808120805" lon="9.44452708361539"><ele>79.0</ele><time>2026-04-21T12:03:06Z</time></trkpt><trkpt lat="44.268500047809766" lon="9.444763920225524"><ele>79.0</ele><time>2026-04-21T12:03:07Z</time></trkpt><trkpt lat="44.268453037125695" lon="9.444999851488257"><ele>78.0</ele><time>2026-04-21T12:03:08Z</time></trkpt><trkpt lat="44.26840446471529" lon="9.445234869873213"><ele>77.0</ele><time>2026-04-21T12:03:09Z</time></trkpt><trkpt lat="44.26835959387495" lon="9.445462426402194"><ele>76.0</ele><time>2026-04-21T12:03:10Z</time></trkpt><trkpt lat="44.268313440374605" lon="9.445688747867731"><ele>71.66666666666666</ele><time>2026-04-21T12:03:11Z</time></trkpt><trkpt lat="44.26827001839381" lon="9.445915640972391"><ele>67.33333333333333</ele><time>2026-04-21T12:03:12Z</time></trkpt><trkpt lat="44.26822945081256" lon="9.446139093022568"><ele>63.0</ele><time>2026-04-21T12:03:13Z</time></trkpt><trkpt lat="44.268190724816826" lon="9.446350280366145"><ele>60.33333333333333</ele><time>2026-04-21T12:03:14Z</time></trkpt><trkpt lat="44.26815753020819" lon="9.446562877294578"><ele>57.666666666666664</ele><time>2026-04-21T12:03:15Z</time></trkpt><trkpt lat="44.268126465456874" lon="9.446789397645418"><ele>55.0</ele><time>2026-04-21T12:03:16Z</time></trkpt><trkpt lat="44.26809983372267" lon="9.447025789122558"><ele>62.33333333333333</ele><time>2026-04-21T12:03:17Z</time></trkpt><trkpt lat="44.26807932419621" lon="9.447268699765308"><ele>69.66666666666667</ele><time>2026-04-21T12:03:18Z</time></trkpt><trkpt lat="44.268058860952706" lon="9.447518846963295"><ele>77.0</ele><time>2026-04-21T12:03:19Z</time></trkpt><trkpt lat="44.26804203139021" lon="9.447773844340853"><ele>70.66666666666667</ele><time>2026-04-21T12:03:20Z</time></trkpt><trkpt lat="44.26803219060864" lon="9.448036358033436"><ele>64.33333333333333</ele><time>2026-04-21T12:03:21Z</time></trkpt><trkpt lat="44.26802336157564" lon="9.44830859236625"><ele>58.0</ele><time>2026-04-21T12:03:22Z</time></trkpt><trkpt lat="44.26802080823935" lon="9.448568201792698"><ele>52.0</ele><time>2026-04-21T12:03:23Z</time></trkpt><trkpt lat="44.268028165267836" lon="9.44882096944262"><ele>46.0</ele><time>2026-04-21T12:03:24Z</time></trkpt><trkpt lat="44.26803867764729" lon="9.449079674087827"><ele>40.0</ele><time>2026-04-21T12:03:25Z</time></trkpt><trkpt lat="44.2680501270662" lon="9.449337350748818"><ele>40.0</ele><time>2026-04-21T12:03:26Z</time></trkpt><trkpt lat="44.2680685058501" lon="9.449593350586703"><ele>40.0</ele><time>2026-04-21T12:03:27Z</time></trkpt><trkpt lat="44.268095722129246" lon="9.449842275455245"><ele>40.0</ele><time>2026-04-21T12:03:28Z</time></trkpt><trkpt lat="44.26812237958277" lon="9.450087051472641"><ele>42.333333333333336</ele><time>2026-04-21T12:03:29Z</time></trkpt><trkpt lat="44.26815457051637" lon="9.450338711159121"><ele>44.666666666666664</ele><time>2026-04-21T12:03:30Z</time></trkpt><trkpt lat="44.26819548933745" lon="9.45060079808039"><ele>47.0</ele><time>2026-04-21T12:03:31Z</time></trkpt><trkpt lat="44.26823902684001" lon="9.450866747975486"><ele>54.0</ele><time>2026-04-21T12:03:32Z</time></trkpt><trkpt lat="44.2682899515277" lon="9.451136367567454"><ele>61.0</ele><time>2026-04-21T12:03:33Z</time></trkpt><trkpt lat="44.26834968387413" lon="9.451411609469123"><ele>68.0</ele><time>2026-04-21T12:03:34Z</time></trkpt><trkpt lat="44.268410961132496" lon="9.451697652444757"><ele>74.0</ele><time>2026-04-21T12:03:35Z</time></trkpt><trkpt lat="44.26846919646402" lon="9.451985401239638"><ele>80.0</ele><time>2026-04-21T12:03:36Z</time></trkpt><trkpt lat="44.268519349432765" lon="9.45225496609859"><ele>86.0</ele><time>2026-04-21T12:03:37Z</time></trkpt><trkpt lat="44.26856970458216" lon="9.45252718072738"><ele>93.0</ele><time>2026-04-21T12:03:38Z</time></trkpt><trkpt lat="44.268623838721425" lon="9.452806835138073"><ele>100.0</ele><time>2026-04-21T12:03:39Z</time></trkpt><trkpt lat="44.268677332224854" lon="9.45309332918859"><ele>107.0</ele><time>2026-04-21T12:03:40Z</time></trkpt><trkpt lat="44.26873668153606" lon="9.453402436876306"><ele>109.66666666666666</ele><time>2026-04-21T12:03:41.063Z</time></trkpt><trkpt lat="44.26879581887925" lon="9.453696380527727"><ele>112.33333333333334</ele><time>2026-04-21T12:03:42.065Z</time></trkpt><trkpt lat="44.26885735192836" lon="9.453990435788608"><ele>115.0</ele><time>2026-04-21T12:03:43.065Z</time></trkpt><trkpt lat="44.26891259798703" lon="9.45429181380836"><ele>103.66666666666667</ele><time>2026-04-21T12:03:44Z</time></trkpt><trkpt lat="44.268972936074086" lon="9.454581112460644"><ele>92.33333333333334</ele><time>2026-04-21T12:03:45Z</time></trkpt><trkpt lat="44.269028741544666" lon="9.454788991151112"><ele>81.0</ele><time>2026-04-21T12:03:46Z</time></trkpt><trkpt lat="44.269097857563935" lon="9.455074811562284"><ele>81.0</ele><time>2026-04-21T12:03:47Z</time></trkpt><trkpt lat="44.26915280340931" lon="9.455377254703109"><ele>81.0</ele><time>2026-04-21T12:03:48Z</time></trkpt><trkpt lat="44.269203370226215" lon="9.455674237885594"><ele>81.0</ele><time>2026-04-21T12:03:49Z</time></trkpt><trkpt lat="44.269275689082164" lon="9.455983686742059"><ele>87.5</ele><time>2026-04-21T12:03:50Z</time></trkpt><trkpt lat="44.26933594143388" lon="9.456289110732591"><ele>94.0</ele><time>2026-04-21T12:03:51Z</time></trkpt><trkpt lat="44.269394520448294" lon="9.456600449927453"><ele>94.0</ele><time>2026-04-21T12:03:52Z</time></trkpt><trkpt lat="44.26945072924528" lon="9.456919904488615"><ele>94.0</ele><time>2026-04-21T12:03:53Z</time></trkpt><trkpt lat="44.2695076539642" lon="9.457244238760957"><ele>88.0</ele><time>2026-04-21T12:03:54Z</time></trkpt><trkpt lat="44.26956096266119" lon="9.45757300684849"><ele>82.0</ele><time>2026-04-21T12:03:55Z</time></trkpt><trkpt lat="44.26961216913577" lon="9.45790248431254"><ele>72.0</ele><time>2026-04-21T12:03:56Z</time></trkpt><trkpt lat="44.2696613590929" lon="9.458222861395061"><ele>62.0</ele><time>2026-04-21T12:03:57Z</time></trkpt><trkpt lat="44.269712239808534" lon="9.458545781981908"><ele>55.0</ele><time>2026-04-21T12:03:58Z</time></trkpt><trkpt lat="44.26976360826332" lon="9.458873530756478"><ele>48.0</ele><time>2026-04-21T12:03:59Z</time></trkpt><trkpt lat="44.26981628446885" lon="9.459200635413858"><ele>48.0</ele><time>2026-04-21T12:04:00Z</time></trkpt><trkpt lat="44.26986720603012" lon="9.45952860680123"><ele>48.0</ele><time>2026-04-21T12:04:01Z</time></trkpt><trkpt lat="44.26991851944333" lon="9.45985573096684"><ele>53.5</ele><time>2026-04-21T12:04:02Z</time></trkpt><trkpt lat="44.269974135860224" lon="9.460180110874726"><ele>59.0</ele><time>2026-04-21T12:04:03Z</time></trkpt><trkpt lat="44.2700281293953" lon="9.460501728786046"><ele>64.5</ele><time>2026-04-21T12:04:04Z</time></trkpt><trkpt lat="44.270073256395705" lon="9.460827226052524"><ele>70.0</ele><time>2026-04-21T12:04:05Z</time></trkpt><trkpt lat="44.27012056176906" lon="9.461153327877676"><ele>77.0</ele><time>2026-04-21T12:04:06Z</time></trkpt><trkpt lat="44.270173067996254" lon="9.461477279325864"><ele>84.0</ele><time>2026-04-21T12:04:07Z</time></trkpt><trkpt lat="44.27022484946137" lon="9.461801412104542"><ele>93.5</ele><time>2026-04-21T12:04:08Z</time></trkpt><trkpt lat="44.27027439932352" lon="9.462129211706705"><ele>103.0</ele><time>2026-04-21T12:04:09Z</time></trkpt><trkpt lat="44.270327417846886" lon="9.4624560177679"><ele>103.0</ele><time>2026-04-21T12:04:10Z</time></trkpt><trkpt lat="44.27037631378327" lon="9.462784938616018"><ele>103.0</ele><time>2026-04-21T12:04:11Z</time></trkpt><trkpt lat="44.27042678816996" lon="9.463113543011946"><ele>115.0</ele><time>2026-04-21T12:04:12Z</time></trkpt><trkpt lat="44.270480327568094" lon="9.46344073746791"><ele>127.0</ele><time>2026-04-21T12:04:13Z</time></trkpt><trkpt lat="44.270536532436054" lon="9.463766822615536"><ele>124.0</ele><time>2026-04-21T12:04:14Z</time></trkpt><trkpt lat="44.2705913667283" lon="9.464092006706537"><ele>121.0</ele><time>2026-04-21T12:04:15Z</time></trkpt><trkpt lat="44.27064291304568" lon="9.464416804494038"><ele>116.0</ele><time>2026-04-21T12:04:16Z</time></trkpt><trkpt lat="44.2706936521831" lon="9.464743818471181"><ele>111.0</ele><time>2026-04-21T12:04:17Z</time></trkpt><trkpt lat="44.27074235832816" lon="9.465065305963368"><ele>111.0</ele><time>2026-04-21T12:04:18Z</time></trkpt><trkpt lat="44.27079138949652" lon="9.465373180457895"><ele>111.0</ele><time>2026-04-21T12:04:19Z</time></trkpt><trkpt lat="44.2708371336028" lon="9.465681695760722"><ele>110.0</ele><time>2026-04-21T12:04:20Z</time></trkpt><trkpt lat="44.27088191061783" lon="9.465994313673038"><ele>109.0</ele><time>2026-04-21T12:04:21Z</time></trkpt><trkpt lat="44.270928151815795" lon="9.466314594217424"><ele>109.0</ele><time>2026-04-21T12:04:22Z</time></trkpt><trkpt lat="44.27097208706803" lon="9.466638989124176"><ele>109.0</ele><time>2026-04-21T12:04:23Z</time></trkpt><trkpt lat="44.27100708837148" lon="9.466966813527026"><ele>113.5</ele><time>2026-04-21T12:04:24Z</time></trkpt><trkpt lat="44.271032691408145" lon="9.467298152049576"><ele>118.0</ele><time>2026-04-21T12:04:25Z</time></trkpt><trkpt lat="44.27105038149874" lon="9.467631091568423"><ele>123.5</ele><time>2026-04-21T12:04:26Z</time></trkpt><trkpt lat="44.27105564284046" lon="9.467966332728675"><ele>129.0</ele><time>2026-04-21T12:04:27Z</time></trkpt><trkpt lat="44.271049595454755" lon="9.468304675736919"><ele>129.0</ele><time>2026-04-21T12:04:28Z</time></trkpt><trkpt lat="44.271038305950675" lon="9.468640837266523"><ele>129.0</ele><time>2026-04-21T12:04:29Z</time></trkpt><trkpt lat="44.27102361584794" lon="9.468973599720407"><ele>126.5</ele><time>2026-04-21T12:04:30Z</time></trkpt><trkpt lat="44.27100286602569" lon="9.469300996256893"><ele>124.0</ele><time>2026-04-21T12:04:31Z</time></trkpt><trkpt lat="44.27096982080894" lon="9.469625750644717"><ele>113.5</ele><time>2026-04-21T12:04:32Z</time></trkpt><trkpt lat="44.27093201170435" lon="9.469947867701595"><ele>103.0</ele><time>2026-04-21T12:04:33Z</time></trkpt><trkpt lat="44.27088575121069" lon="9.470261826965825"><ele>102.66666666666667</ele><time>2026-04-21T12:04:34Z</time></trkpt><trkpt lat="44.27083320197027" lon="9.470569917223537"><ele>102.33333333333334</ele><time>2026-04-21T12:04:35Z</time></trkpt><trkpt lat="44.27077677495787" lon="9.470858991998885"><ele>102.0</ele><time>2026-04-21T12:04:36Z</time></trkpt><trkpt lat="44.27071110802241" lon="9.47115065091576"><ele>110.66666666666666</ele><time>2026-04-21T12:04:37Z</time></trkpt><trkpt lat="44.27064251548058" lon="9.471442823458707"><ele>119.33333333333333</ele><time>2026-04-21T12:04:38Z</time></trkpt><trkpt lat="44.27056511821565" lon="9.471731743598632"><ele>128.0</ele><time>2026-04-21T12:04:39Z</time></trkpt><trkpt lat="44.27047319828702" lon="9.472021299040401"><ele>143.66666666666666</ele><time>2026-04-21T12:04:40Z</time></trkpt><trkpt lat="44.27037894365891" lon="9.472311921772212"><ele>159.33333333333334</ele><time>2026-04-21T12:04:41Z</time></trkpt><trkpt lat="44.27027888615573" lon="9.472584844652804"><ele>175.0</ele><time>2026-04-21T12:04:42Z</time></trkpt><trkpt lat="44.270164419666536" lon="9.472856293871478"><ele>186.5</ele><time>2026-04-21T12:04:43Z</time></trkpt><trkpt lat="44.270040986070576" lon="9.473128346741083"><ele>198.0</ele><time>2026-04-21T12:04:44Z</time></trkpt><trkpt lat="44.269912930602686" lon="9.473402966596344"><ele>210.5</ele><time>2026-04-21T12:04:45Z</time></trkpt><trkpt lat="44.269766817837365" lon="9.473697445955615"><ele>223.0</ele><time>2026-04-21T12:04:46.07Z</time></trkpt><trkpt lat="44.26964582801523" lon="9.473994350353953"><ele>223.5</ele><time>2026-04-21T12:04:47.066Z</time></trkpt><trkpt lat="44.269518399944985" lon="9.474293102950902"><ele>224.0</ele><time>2026-04-21T12:04:48.065Z</time></trkpt><trkpt lat="44.26938967258604" lon="9.474594901630933"><ele>216.5</ele><time>2026-04-21T12:04:49.065Z</time></trkpt><trkpt lat="44.26926750115532" lon="9.474881330235458"><ele>209.0</ele><time>2026-04-21T12:04:50.054Z</time></trkpt><trkpt lat="44.2691415146016" lon="9.475175102094013"><ele>153.0</ele><time>2026-04-21T12:04:51.025Z</time></trkpt><trkpt lat="44.26786174602042" lon="9.478053601008524"><ele>153.0</ele><time>2026-04-21T12:05:01Z</time></trkpt><trkpt lat="44.267549756880925" lon="9.478571783719273"><ele>146.33333333333334</ele><time>2026-04-21T12:05:03Z</time></trkpt><trkpt lat="44.267404443526374" lon="9.478799934618657"><ele>139.66666666666669</ele><time>2026-04-21T12:05:04Z</time></trkpt><trkpt lat="44.267252141190575" lon="9.47901112319136"><ele>133.0</ele><time>2026-04-21T12:05:05Z</time></trkpt><trkpt lat="44.267116203463885" lon="9.479230809511542"><ele>140.0</ele><time>2026-04-21T12:05:06Z</time></trkpt><trkpt lat="44.26695808108228" lon="9.479455986894997"><ele>147.0</ele><time>2026-04-21T12:05:07Z</time></trkpt><trkpt lat="44.26678888659354" lon="9.479669509168088"><ele>147.0</ele><time>2026-04-21T12:05:08Z</time></trkpt><trkpt lat="44.26662603877003" lon="9.479894232540053"><ele>147.0</ele><time>2026-04-21T12:05:09Z</time></trkpt><trkpt lat="44.266466369632475" lon="9.48011291080188"><ele>147.33333333333334</ele><time>2026-04-21T12:05:10Z</time></trkpt><trkpt lat="44.26630841587663" lon="9.4803276198585"><ele>147.66666666666669</ele><time>2026-04-21T12:05:11Z</time></trkpt><trkpt lat="44.26614236278806" lon="9.48052854800104"><ele>148.0</ele><time>2026-04-21T12:05:12Z</time></trkpt><trkpt lat="44.265961683127856" lon="9.480745417636388"><ele>148.0</ele><time>2026-04-21T12:05:13Z</time></trkpt><trkpt lat="44.265791735556355" lon="9.48096235276041"><ele>148.0</ele><time>2026-04-21T12:05:14Z</time></trkpt><trkpt lat="44.26562308626991" lon="9.48116979174389"><ele>141.66666666666669</ele><time>2026-04-21T12:05:15Z</time></trkpt><trkpt lat="44.26544404573894" lon="9.481371236876726"><ele>135.33333333333334</ele><time>2026-04-21T12:05:16Z</time></trkpt><trkpt lat="44.26528467256933" lon="9.48157406115355"><ele>129.0</ele><time>2026-04-21T12:05:17Z</time></trkpt><trkpt lat="44.26511575450431" lon="9.481766910301484"><ele>129.0</ele><time>2026-04-21T12:05:18Z</time></trkpt><trkpt lat="44.26493555939041" lon="9.481964207919964"><ele>129.0</ele><time>2026-04-21T12:05:19Z</time></trkpt><trkpt lat="44.26475299599276" lon="9.482158429022434"><ele>135.33333333333334</ele><time>2026-04-21T12:05:20Z</time></trkpt><trkpt lat="44.26457967569668" lon="9.482337422575506"><ele>141.66666666666669</ele><time>2026-04-21T12:05:21Z</time></trkpt><trkpt lat="44.26440279234047" lon="9.482518265560582"><ele>148.0</ele><time>2026-04-21T12:05:22Z</time></trkpt><trkpt lat="44.26422407454035" lon="9.48270290490603"><ele>148.0</ele><time>2026-04-21T12:05:23Z</time></trkpt><trkpt lat="44.26403920929743" lon="9.48288201791838"><ele>148.0</ele><time>2026-04-21T12:05:24Z</time></trkpt><trkpt lat="44.26383950792022" lon="9.483040001884232"><ele>159.0</ele><time>2026-04-21T12:05:25Z</time></trkpt><trkpt lat="44.263639613409616" lon="9.483186904491241"><ele>170.0</ele><time>2026-04-21T12:05:26Z</time></trkpt><trkpt lat="44.263432066008974" lon="9.483326482267007"><ele>170.0</ele><time>2026-04-21T12:05:27Z</time></trkpt><trkpt lat="44.263219952507136" lon="9.483454741531986"><ele>170.0</ele><time>2026-04-21T12:05:28Z</time></trkpt><trkpt lat="44.263001549202535" lon="9.483570383779778"><ele>178.0</ele><time>2026-04-21T12:05:29Z</time></trkpt><trkpt lat="44.262776012637815" lon="9.48367297508676"><ele>186.0</ele><time>2026-04-21T12:05:30Z</time></trkpt><trkpt lat="44.26254566261338" lon="9.4837600960106"><ele>180.0</ele><time>2026-04-21T12:05:30.999Z</time></trkpt><trkpt lat="44.26231702181258" lon="9.483830546229445"><ele>174.0</ele><time>2026-04-21T12:05:31.999Z</time></trkpt><trkpt lat="44.26208808814928" lon="9.483881780312151"><ele>174.0</ele><time>2026-04-21T12:05:32.999Z</time></trkpt><trkpt lat="44.26185867400503" lon="9.483917703503918"><ele>174.0</ele><time>2026-04-21T12:05:33.999Z</time></trkpt><trkpt lat="44.261629648510095" lon="9.483948891792448"><ele>193.0</ele><time>2026-04-21T12:05:34.999Z</time></trkpt><trkpt lat="44.26140254321859" lon="9.48398007155512"><ele>212.0</ele><time>2026-04-21T12:05:35.999Z</time></trkpt><trkpt lat="44.26117247756216" lon="9.484008374038376"><ele>212.0</ele><time>2026-04-21T12:05:36.999Z</time></trkpt><trkpt lat="44.26094079991864" lon="9.484044227135728"><ele>212.0</ele><time>2026-04-21T12:05:37.999Z</time></trkpt><trkpt lat="44.26072377358811" lon="9.484081873012729"><ele>234.5</ele><time>2026-04-21T12:05:38.999Z</time></trkpt><trkpt lat="44.26049525866423" lon="9.484121582807287"><ele>257.0</ele><time>2026-04-21T12:05:39.999Z</time></trkpt><trkpt lat="44.26025648485942" lon="9.484167282681906"><ele>257.0</ele><time>2026-04-21T12:05:40.999Z</time></trkpt><trkpt lat="44.26002623696407" lon="9.484208395039161"><ele>257.0</ele><time>2026-04-21T12:05:41.999Z</time></trkpt><trkpt lat="44.25977726294067" lon="9.4842602792144"><ele>267.5</ele><time>2026-04-21T12:05:43.069Z</time></trkpt><trkpt lat="44.259538069586426" lon="9.484290561722943"><ele>278.0</ele><time>2026-04-21T12:05:44.06Z</time></trkpt><trkpt lat="44.25929736713279" lon="9.48432561388059"><ele>278.0</ele><time>2026-04-21T12:05:45.055Z</time></trkpt><trkpt lat="44.25906754474709" lon="9.484359146974127"><ele>278.0</ele><time>2026-04-21T12:05:46.056Z</time></trkpt><trkpt lat="44.25883840822647" lon="9.484400335572255"><ele>285.0</ele><time>2026-04-21T12:05:47.057Z</time></trkpt><trkpt lat="44.257014795195374" lon="9.48560771428167"><ele>249.0</ele><time>2026-04-21T12:05:50.56Z</time></trkpt><trkpt lat="44.25632457711141" lon="9.486409147267896"><ele>238.0</ele><time>2026-04-21T12:05:51.56Z</time></trkpt><trkpt lat="44.25573482834526" lon="9.487349328369383"><ele>177.0</ele><time>2026-04-21T12:05:52.557Z</time></trkpt><trkpt lat="44.25511798638277" lon="9.488810972830148"><ele>177.0</ele><time>2026-04-21T12:06:09Z</time></trkpt><trkpt lat="44.2550480933318" lon="9.489191587236556"><ele>177.0</ele><time>2026-04-21T12:06:10Z</time></trkpt><trkpt lat="44.25492216948216" lon="9.489355043659405"><ele>184.0</ele><time>2026-04-21T12:06:11Z</time></trkpt><trkpt lat="44.2548504307479" lon="9.489663037441545"><ele>191.0</ele><time>2026-04-21T12:06:12Z</time></trkpt><trkpt lat="44.25478038083905" lon="9.489961220940199"><ele>176.0</ele><time>2026-04-21T12:06:13Z</time></trkpt><trkpt lat="44.254733985332315" lon="9.490273737456059"><ele>161.0</ele><time>2026-04-21T12:06:14Z</time></trkpt><trkpt lat="44.25468217233145" lon="9.490576261307048"><ele>161.0</ele><time>2026-04-21T12:06:15Z</time></trkpt><trkpt lat="44.254644371579914" lon="9.490857814671946"><ele>161.0</ele><time>2026-04-21T12:06:16Z</time></trkpt><trkpt lat="44.25461319009036" lon="9.491116179464626"><ele>161.0</ele><time>2026-04-21T12:06:17Z</time></trkpt><trkpt lat="44.254590895560625" lon="9.491359738644723"><ele>162.0</ele><time>2026-04-21T12:06:18Z</time></trkpt><trkpt lat="44.25456942987772" lon="9.491609376073136"><ele>163.0</ele><time>2026-04-21T12:06:19Z</time></trkpt><trkpt lat="44.254549675406054" lon="9.491785037948787"><ele>164.0</ele><time>2026-04-21T12:06:20Z</time></trkpt><trkpt lat="44.254527582777875" lon="9.491911542499828"><ele>165.0</ele><time>2026-04-21T12:06:21Z</time></trkpt><trkpt lat="44.25454300564561" lon="9.49208237804995"><ele>167.66666666666666</ele><time>2026-04-21T12:06:23Z</time></trkpt><trkpt lat="44.254547370478875" lon="9.492187538009047"><ele>170.33333333333334</ele><time>2026-04-21T12:07:13Z</time></trkpt><trkpt lat="44.25455608255495" lon="9.49228372564196"><ele>173.0</ele><time>2026-04-21T12:07:14Z</time></trkpt><trkpt lat="44.25456408075068" lon="9.492376037822268"><ele>175.66666666666669</ele><time>2026-04-21T12:07:15Z</time></trkpt><trkpt lat="44.25457752569014" lon="9.49252876760364"><ele>178.33333333333334</ele><time>2026-04-21T12:07:17Z</time></trkpt><trkpt lat="44.25458610698099" lon="9.492647115814407"><ele>181.0</ele><time>2026-04-21T12:07:18Z</time></trkpt><trkpt lat="44.254602757457725" lon="9.492786725489784"><ele>186.25</ele><time>2026-04-21T12:07:19Z</time></trkpt><trkpt lat="44.254618857497555" lon="9.492959137468354"><ele>191.5</ele><time>2026-04-21T12:07:20Z</time></trkpt><trkpt lat="44.254621598935685" lon="9.493143686444617"><ele>196.75</ele><time>2026-04-21T12:07:21Z</time></trkpt><trkpt lat="44.25461922119043" lon="9.493310970281856"><ele>202.0</ele><time>2026-04-21T12:07:22Z</time></trkpt><trkpt lat="44.25462237717469" lon="9.493479475561946"><ele>202.0</ele><time>2026-04-21T12:07:23Z</time></trkpt><trkpt lat="44.25462655224407" lon="9.493654642743689"><ele>202.0</ele><time>2026-04-21T12:07:24Z</time></trkpt><trkpt lat="44.254627927063886" lon="9.49385501011758"><ele>202.0</ele><time>2026-04-21T12:07:25Z</time></trkpt><trkpt lat="44.25463298360337" lon="9.49408736845125"><ele>202.0</ele><time>2026-04-21T12:07:26Z</time></trkpt><trkpt lat="44.25463854484305" lon="9.494326233292535"><ele>186.0</ele><time>2026-04-21T12:07:27Z</time></trkpt><trkpt lat="44.25461152345464" lon="9.494940646320904"><ele>170.0</ele><time>2026-04-21T12:07:28Z</time></trkpt><trkpt lat="44.254622563342636" lon="9.495261757413905"><ele>168.33333333333331</ele><time>2026-04-21T12:07:29Z</time></trkpt><trkpt lat="44.25466649402206" lon="9.495555258065142"><ele>166.66666666666666</ele><time>2026-04-21T12:07:30Z</time></trkpt><trkpt lat="44.25468417511301" lon="9.495853491503325"><ele>165.0</ele><time>2026-04-21T12:07:31Z</time></trkpt><trkpt lat="44.25469493486327" lon="9.496165610097764"><ele>169.0</ele><time>2026-04-21T12:07:32Z</time></trkpt><trkpt lat="44.25470570189851" lon="9.49647383570847"><ele>173.0</ele><time>2026-04-21T12:07:33Z</time></trkpt><trkpt lat="44.25471717245835" lon="9.496788788249933"><ele>177.0</ele><time>2026-04-21T12:07:34Z</time></trkpt><trkpt lat="44.254729919861084" lon="9.497110726628245"><ele>184.5</ele><time>2026-04-21T12:07:35Z</time></trkpt><trkpt lat="44.25474341691139" lon="9.497437644733608"><ele>192.0</ele><time>2026-04-21T12:07:36Z</time></trkpt><trkpt lat="44.25475205180307" lon="9.497757083904121"><ele>202.5</ele><time>2026-04-21T12:07:36.999Z</time></trkpt><trkpt lat="44.25475995670317" lon="9.498084222380543"><ele>213.0</ele><time>2026-04-21T12:07:37.999Z</time></trkpt><trkpt lat="44.25476558566205" lon="9.498416914980131"><ele>213.0</ele><time>2026-04-21T12:07:38.999Z</time></trkpt><trkpt lat="44.254773411426065" lon="9.498737165929608"><ele>213.0</ele><time>2026-04-21T12:07:39.999Z</time></trkpt><trkpt lat="44.25478167052955" lon="9.499048606120104"><ele>227.33333333333331</ele><time>2026-04-21T12:07:40.999Z</time></trkpt><trkpt lat="44.25478941066119" lon="9.499366090056178"><ele>241.66666666666666</ele><time>2026-04-21T12:07:41.999Z</time></trkpt><trkpt lat="44.25479312301659" lon="9.499674431183209"><ele>256.0</ele><time>2026-04-21T12:07:42.999Z</time></trkpt><trkpt lat="44.25479657762482" lon="9.499973757276702"><ele>267.5</ele><time>2026-04-21T12:07:43.999Z</time></trkpt><trkpt lat="44.254806949065" lon="9.500303959107391"><ele>279.0</ele><time>2026-04-21T12:07:45.064Z</time></trkpt><trkpt lat="44.25481225513736" lon="9.500631240187417"><ele>289.5</ele><time>2026-04-21T12:07:46.055Z</time></trkpt><trkpt lat="44.25482168597933" lon="9.500950520793543"><ele>300.0</ele><time>2026-04-21T12:07:47.053Z</time></trkpt><trkpt lat="44.254673533965104" lon="9.50375806340635"><ele>210.0</ele><time>2026-04-21T12:07:50.557Z</time></trkpt><trkpt lat="44.25459822023578" lon="9.504588384990468"><ele>210.0</ele><time>2026-04-21T12:07:57.999Z</time></trkpt><trkpt lat="44.254559241375986" lon="9.504889071337567"><ele>210.0</ele><time>2026-04-21T12:07:58.999Z</time></trkpt><trkpt lat="44.25452703029774" lon="9.505199735617687"><ele>210.0</ele><time>2026-04-21T12:07:59.999Z</time></trkpt><trkpt lat="44.2544911981073" lon="9.505506134320017"><ele>215.5</ele><time>2026-04-21T12:08:00.999Z</time></trkpt><trkpt lat="44.25445839911494" lon="9.505819134766222"><ele>221.0</ele><time>2026-04-21T12:08:01.999Z</time></trkpt><trkpt lat="44.25442642522434" lon="9.506127856801362"><ele>224.0</ele><time>2026-04-21T12:08:02.999Z</time></trkpt><trkpt lat="44.254388400620655" lon="9.506425153188715"><ele>227.0</ele><time>2026-04-21T12:08:03.999Z</time></trkpt><trkpt lat="44.254347661596775" lon="9.506700507320062"><ele>230.0</ele><time>2026-04-21T12:08:04.999Z</time></trkpt><trkpt lat="44.25430213311765" lon="9.506980926634322"><ele>228.66666666666669</ele><time>2026-04-21T12:08:05.999Z</time></trkpt><trkpt lat="44.25425586168184" lon="9.50726477840676"><ele>227.33333333333331</ele><time>2026-04-21T12:08:06.999Z</time></trkpt><trkpt lat="44.25420778591891" lon="9.507558377317014"><ele>226.0</ele><time>2026-04-21T12:08:07.999Z</time></trkpt><trkpt lat="44.254154315367586" lon="9.507854503050435"><ele>231.0</ele><time>2026-04-21T12:08:08.999Z</time></trkpt><trkpt lat="44.254097577829754" lon="9.508156958794896"><ele>236.0</ele><time>2026-04-21T12:08:09.999Z</time></trkpt><trkpt lat="44.25404251574476" lon="9.508465964332748"><ele>240.33333333333334</ele><time>2026-04-21T12:08:10.999Z</time></trkpt><trkpt lat="44.253989061078435" lon="9.508760650105115"><ele>244.66666666666669</ele><time>2026-04-21T12:08:11.999Z</time></trkpt><trkpt lat="44.25393109614792" lon="9.509036172420629"><ele>249.0</ele><time>2026-04-21T12:08:12.999Z</time></trkpt><trkpt lat="44.25387046824604" lon="9.509285048878892"><ele>249.0</ele><time>2026-04-21T12:08:13.999Z</time></trkpt><trkpt lat="44.25380498838972" lon="9.509544120026266"><ele>249.0</ele><time>2026-04-21T12:08:14.999Z</time></trkpt><trkpt lat="44.25373932010343" lon="9.509803301641925"><ele>249.0</ele><time>2026-04-21T12:08:15.999Z</time></trkpt><trkpt lat="44.25367271611907" lon="9.510063389991963"><ele>256.6666666666667</ele><time>2026-04-21T12:08:16.999Z</time></trkpt><trkpt lat="44.25360336843191" lon="9.510355041550485"><ele>264.33333333333337</ele><time>2026-04-21T12:08:17.999Z</time></trkpt><trkpt lat="44.25353475434967" lon="9.51064374485156"><ele>272.0</ele><time>2026-04-21T12:08:19.063Z</time></trkpt><trkpt lat="44.2534684674296" lon="9.510917878970256"><ele>276.33333333333337</ele><time>2026-04-21T12:08:20.061Z</time></trkpt><trkpt lat="44.25339731955469" lon="9.511183122251037"><ele>280.6666666666667</ele><time>2026-04-21T12:08:21.063Z</time></trkpt><trkpt lat="44.25332587747455" lon="9.511447736723895"><ele>285.0</ele><time>2026-04-21T12:08:22.064Z</time></trkpt><trkpt lat="44.2532548105074" lon="9.511727302457217"><ele>285.0</ele><time>2026-04-21T12:08:23.061Z</time></trkpt><trkpt lat="44.253181127636175" lon="9.51200200257193"><ele>285.0</ele><time>2026-04-21T12:08:24.041Z</time></trkpt><trkpt lat="44.252611046464146" lon="9.513685629002515"><ele>265.0</ele><time>2026-04-21T12:08:29Z</time></trkpt><trkpt lat="44.252502838003146" lon="9.513945702426664"><ele>245.0</ele><time>2026-04-21T12:08:30Z</time></trkpt><trkpt lat="44.25235951580375" lon="9.514236051208517"><ele>240.33333333333334</ele><time>2026-04-21T12:08:31Z</time></trkpt><trkpt lat="44.25226560364477" lon="9.514467976307273"><ele>235.66666666666669</ele><time>2026-04-21T12:08:32Z</time></trkpt><trkpt lat="44.252167379647254" lon="9.51469500829776"><ele>231.0</ele><time>2026-04-21T12:08:33Z</time></trkpt><trkpt lat="44.252065227088714" lon="9.514945845854303"><ele>231.0</ele><time>2026-04-21T12:08:34Z</time></trkpt><trkpt lat="44.25197831778993" lon="9.515197072253684"><ele>231.0</ele><time>2026-04-21T12:08:35Z</time></trkpt><trkpt lat="44.25186608649961" lon="9.515455990941987"><ele>231.0</ele><time>2026-04-21T12:08:36Z</time></trkpt><trkpt lat="44.25175016162135" lon="9.515713187664433"><ele>232.33333333333331</ele><time>2026-04-21T12:08:37Z</time></trkpt><trkpt lat="44.251627684376764" lon="9.515965693184514"><ele>233.66666666666666</ele><time>2026-04-21T12:08:38Z</time></trkpt><trkpt lat="44.251504530371484" lon="9.51622185296792"><ele>235.0</ele><time>2026-04-21T12:08:39Z</time></trkpt><trkpt lat="44.251377335263264" lon="9.516474157538575"><ele>235.0</ele><time>2026-04-21T12:08:40Z</time></trkpt><trkpt lat="44.25124617108128" lon="9.516731805066856"><ele>235.0</ele><time>2026-04-21T12:08:41Z</time></trkpt><trkpt lat="44.2511169052507" lon="9.51698676357306"><ele>242.0</ele><time>2026-04-21T12:08:42Z</time></trkpt><trkpt lat="44.25098378251385" lon="9.517243302160137"><ele>249.0</ele><time>2026-04-21T12:08:43Z</time></trkpt><trkpt lat="44.25084750439092" lon="9.517499354967502"><ele>249.0</ele><time>2026-04-21T12:08:44Z</time></trkpt><trkpt lat="44.25070864042089" lon="9.517754277265205"><ele>249.0</ele><time>2026-04-21T12:08:45Z</time></trkpt><trkpt lat="44.250560166527734" lon="9.518006458793133"><ele>251.0</ele><time>2026-04-21T12:08:46Z</time></trkpt><trkpt lat="44.25040976861895" lon="9.518257978363037"><ele>253.0</ele><time>2026-04-21T12:08:47Z</time></trkpt><trkpt lat="44.250258434740786" lon="9.518505792411899"><ele>260.0</ele><time>2026-04-21T12:08:48Z</time></trkpt><trkpt lat="44.25010375845886" lon="9.518756333272238"><ele>267.0</ele><time>2026-04-21T12:08:49Z</time></trkpt><trkpt lat="44.24994792574403" lon="9.51900739540412"><ele>264.0</ele><time>2026-04-21T12:08:50Z</time></trkpt><trkpt lat="44.24978768399912" lon="9.519257318760966"><ele>261.0</ele><time>2026-04-21T12:08:51Z</time></trkpt><trkpt lat="44.24963099952525" lon="9.519506721121552"><ele>264.5</ele><time>2026-04-21T12:08:52Z</time></trkpt><trkpt lat="44.24947823462181" lon="9.519762620071662"><ele>268.0</ele><time>2026-04-21T12:08:53Z</time></trkpt><trkpt lat="44.24932556099565" lon="9.520019089561037"><ele>268.0</ele><time>2026-04-21T12:08:54Z</time></trkpt><trkpt lat="44.249173435180644" lon="9.520275768244664"><ele>268.0</ele><time>2026-04-21T12:08:55Z</time></trkpt><trkpt lat="44.24902887617996" lon="9.520528112274958"><ele>298.5</ele><time>2026-04-21T12:08:56Z</time></trkpt><trkpt lat="44.24888751287063" lon="9.520791282629132"><ele>329.0</ele><time>2026-04-21T12:08:57Z</time></trkpt><trkpt lat="44.24874666661991" lon="9.521066798446178"><ele>340.0</ele><time>2026-04-21T12:08:58Z</time></trkpt><trkpt lat="44.248608287905085" lon="9.52134408213197"><ele>351.0</ele><time>2026-04-21T12:08:59Z</time></trkpt><trkpt lat="44.248470959145386" lon="9.521621727614718"><ele>351.0</ele><time>2026-04-21T12:09:00Z</time></trkpt><trkpt lat="44.248338241099745" lon="9.521910689641308"><ele>351.0</ele><time>2026-04-21T12:09:01Z</time></trkpt><trkpt lat="44.248210727517545" lon="9.522209984550889"><ele>358.5</ele><time>2026-04-21T12:09:02Z</time></trkpt><trkpt lat="44.248081831234394" lon="9.522540733324337"><ele>366.0</ele><time>2026-04-21T12:09:03.059Z</time></trkpt><trkpt lat="44.24796781835506" lon="9.52286753364669"><ele>369.5</ele><time>2026-04-21T12:09:04.061Z</time></trkpt><trkpt lat="44.24786274035085" lon="9.52320485823851"><ele>373.0</ele><time>2026-04-21T12:09:05.058Z</time></trkpt><trkpt lat="44.247763868433154" lon="9.52355699170646"><ele>383.5</ele><time>2026-04-21T12:09:06.064Z</time></trkpt><trkpt lat="44.24767064432606" lon="9.523907904919133"><ele>394.0</ele><time>2026-04-21T12:09:07.051Z</time></trkpt><trkpt lat="44.24704152987219" lon="9.527885699709048"><ele>593.0</ele><time>2026-04-21T12:09:11.561Z</time></trkpt><trkpt lat="44.24686641578819" lon="9.529110430133494"><ele>573.0</ele><time>2026-04-21T12:09:12.559Z</time></trkpt><trkpt lat="44.246693694189126" lon="9.530342455267595"><ele>519.0</ele><time>2026-04-21T12:09:13.561Z</time></trkpt><trkpt lat="44.24652777799287" lon="9.531572894897224"><ele>483.0</ele><time>2026-04-21T12:09:14.561Z</time></trkpt><trkpt lat="44.24634700145951" lon="9.532793991508795"><ele>462.0</ele><time>2026-04-21T12:09:15.557Z</time></trkpt><trkpt lat="44.24616663758969" lon="9.534021640094448"><ele>440.0</ele><time>2026-04-21T12:09:16.558Z</time></trkpt><trkpt lat="44.245988418705785" lon="9.53524905016736"><ele>368.0</ele><time>2026-04-21T12:09:17.558Z</time></trkpt><trkpt lat="44.24581111169237" lon="9.536479229376026"><ele>337.0</ele><time>2026-04-21T12:09:18.56Z</time></trkpt><trkpt lat="44.245637205161024" lon="9.537709039795143"><ele>282.0</ele><time>2026-04-21T12:09:19.561Z</time></trkpt><trkpt lat="44.24544055210821" lon="9.539030464348258"><ele>282.0</ele><time>2026-04-21T12:09:52Z</time></trkpt><trkpt lat="44.24539352377001" lon="9.539366533652153"><ele>282.0</ele><time>2026-04-21T12:09:53Z</time></trkpt><trkpt lat="44.245351036565744" lon="9.539697480250453"><ele>285.5</ele><time>2026-04-21T12:09:54Z</time></trkpt><trkpt lat="44.245290825293274" lon="9.540023274690553"><ele>289.0</ele><time>2026-04-21T12:09:55Z</time></trkpt><trkpt lat="44.24524104085701" lon="9.5403608975368"><ele>288.5</ele><time>2026-04-21T12:09:56Z</time></trkpt><trkpt lat="44.2451871851254" lon="9.540702192401092"><ele>288.0</ele><time>2026-04-21T12:09:57Z</time></trkpt><trkpt lat="44.24513961257721" lon="9.541042784788663"><ele>279.5</ele><time>2026-04-21T12:09:57.999Z</time></trkpt><trkpt lat="44.24508491090977" lon="9.541358655680645"><ele>271.0</ele><time>2026-04-21T12:09:58.999Z</time></trkpt><trkpt lat="44.245023958494244" lon="9.54167025691407"><ele>271.0</ele><time>2026-04-21T12:09:59.999Z</time></trkpt><trkpt lat="44.24496444754664" lon="9.541974899167558"><ele>271.0</ele><time>2026-04-21T12:10:00.999Z</time></trkpt><trkpt lat="44.244903032297856" lon="9.54225993589443"><ele>271.0</ele><time>2026-04-21T12:10:01.999Z</time></trkpt><trkpt lat="44.244828056937635" lon="9.542560522785813"><ele>263.5</ele><time>2026-04-21T12:10:02.999Z</time></trkpt><trkpt lat="44.24474410042612" lon="9.54285000029393"><ele>256.0</ele><time>2026-04-21T12:10:03.999Z</time></trkpt><trkpt lat="44.24464536009329" lon="9.543139612453219"><ele>256.0</ele><time>2026-04-21T12:10:04.999Z</time></trkpt><trkpt lat="44.244543026436595" lon="9.543444339677913"><ele>256.0</ele><time>2026-04-21T12:10:05.999Z</time></trkpt><trkpt lat="44.24443862820658" lon="9.543746791527052"><ele>268.5</ele><time>2026-04-21T12:10:06.999Z</time></trkpt><trkpt lat="44.244327794684146" lon="9.544036710800537"><ele>281.0</ele><time>2026-04-21T12:10:07.999Z</time></trkpt><trkpt lat="44.24421202136133" lon="9.544336382479917"><ele>289.5</ele><time>2026-04-21T12:10:08.999Z</time></trkpt><trkpt lat="44.24408430702091" lon="9.544634970975666"><ele>298.0</ele><time>2026-04-21T12:10:09.999Z</time></trkpt><trkpt lat="44.243949387782806" lon="9.544922412064448"><ele>298.0</ele><time>2026-04-21T12:10:10.999Z</time></trkpt><trkpt lat="44.243818787710424" lon="9.54521499906423"><ele>298.0</ele><time>2026-04-21T12:10:11.999Z</time></trkpt><trkpt lat="44.24370169256178" lon="9.54550856014704"><ele>302.5</ele><time>2026-04-21T12:10:12.999Z</time></trkpt><trkpt lat="44.24356728005928" lon="9.545805187925433"><ele>307.0</ele><time>2026-04-21T12:10:13.999Z</time></trkpt><trkpt lat="44.24343489425704" lon="9.546103864994508"><ele>312.0</ele><time>2026-04-21T12:10:14.999Z</time></trkpt><trkpt lat="44.24330436570733" lon="9.546402061290998"><ele>317.0</ele><time>2026-04-21T12:10:15.999Z</time></trkpt><trkpt lat="44.24317398232297" lon="9.546698128374505"><ele>309.0</ele><time>2026-04-21T12:10:16.999Z</time></trkpt><trkpt lat="44.24304641402067" lon="9.546987177557519"><ele>301.0</ele><time>2026-04-21T12:10:17.999Z</time></trkpt><trkpt lat="44.24292963990164" lon="9.547272182260096"><ele>301.0</ele><time>2026-04-21T12:10:18.999Z</time></trkpt><trkpt lat="44.242807049257344" lon="9.54756411232633"><ele>301.0</ele><time>2026-04-21T12:10:19.999Z</time></trkpt><trkpt lat="44.24268512342842" lon="9.547861176709901"><ele>306.5</ele><time>2026-04-21T12:10:20.999Z</time></trkpt><trkpt lat="44.24257292457155" lon="9.548159105974868"><ele>312.0</ele><time>2026-04-21T12:10:21.999Z</time></trkpt><trkpt lat="44.24247652536799" lon="9.548475246947893"><ele>321.5</ele><time>2026-04-21T12:10:22.999Z</time></trkpt><trkpt lat="44.242376033057745" lon="9.54878626665104"><ele>331.0</ele><time>2026-04-21T12:10:23.999Z</time></trkpt><trkpt lat="44.242286143074395" lon="9.549081257304927"><ele>334.3333333333333</ele><time>2026-04-21T12:10:24.999Z</time></trkpt><trkpt lat="44.24221236727788" lon="9.549373941190156"><ele>337.6666666666667</ele><time>2026-04-21T12:10:25.999Z</time></trkpt><trkpt lat="44.24210465787572" lon="9.549649939896247"><ele>341.0</ele><time>2026-04-21T12:10:26.999Z</time></trkpt><trkpt lat="44.24204426360302" lon="9.549948007263373"><ele>347.33333333333337</ele><time>2026-04-21T12:10:27.999Z</time></trkpt><trkpt lat="44.24198966019158" lon="9.550244092842048"><ele>353.6666666666667</ele><time>2026-04-21T12:10:28.999Z</time></trkpt><trkpt lat="44.24193790788079" lon="9.55054964397606"><ele>360.0</ele><time>2026-04-21T12:10:29.999Z</time></trkpt><trkpt lat="44.24189383272657" lon="9.550864168051026"><ele>361.0</ele><time>2026-04-21T12:10:31.072Z</time></trkpt><trkpt lat="44.24185875768639" lon="9.551156194776263"><ele>362.0</ele><time>2026-04-21T12:10:32.066Z</time></trkpt><trkpt lat="44.24188447500008" lon="9.553982920492711"><ele>295.0</ele><time>2026-04-21T12:10:35.561Z</time></trkpt><trkpt lat="44.242386545317714" lon="9.55817431170337"><ele>295.0</ele><time>2026-04-21T12:10:51Z</time></trkpt><trkpt lat="44.242431863507015" lon="9.55852717536816"><ele>295.0</ele><time>2026-04-21T12:10:52Z</time></trkpt><trkpt lat="44.242473519623" lon="9.558888969163608"><ele>285.5</ele><time>2026-04-21T12:10:53Z</time></trkpt><trkpt lat="44.24250310177755" lon="9.559221301863799"><ele>276.0</ele><time>2026-04-21T12:10:54Z</time></trkpt><trkpt lat="44.242536355025074" lon="9.559551933722906"><ele>276.0</ele><time>2026-04-21T12:10:55Z</time></trkpt><trkpt lat="44.24257157626949" lon="9.559872867976157"><ele>276.0</ele><time>2026-04-21T12:10:56Z</time></trkpt><trkpt lat="44.24260371453211" lon="9.56021606364452"><ele>286.5</ele><time>2026-04-21T12:10:57Z</time></trkpt><trkpt lat="44.242631929256866" lon="9.560552165931767"><ele>297.0</ele><time>2026-04-21T12:10:58Z</time></trkpt><trkpt lat="44.24266015343413" lon="9.560886340806611"><ele>312.0</ele><time>2026-04-21T12:10:59Z</time></trkpt><trkpt lat="44.24268848114114" lon="9.561232037140046"><ele>327.0</ele><time>2026-04-21T12:11:00Z</time></trkpt><trkpt lat="44.24270782376401" lon="9.561580047859643"><ele>327.0</ele><time>2026-04-21T12:11:01Z</time></trkpt><trkpt lat="44.242715254118025" lon="9.561915751205936"><ele>327.0</ele><time>2026-04-21T12:11:02Z</time></trkpt><trkpt lat="44.2427149019836" lon="9.56224655218531"><ele>385.0</ele><time>2026-04-21T12:11:03Z</time></trkpt><trkpt lat="44.24165494109047" lon="9.5667509214142"><ele>322.0</ele><time>2026-04-21T12:11:12.56Z</time></trkpt><trkpt lat="44.24093077709792" lon="9.56816912204877"><ele>322.0</ele><time>2026-04-21T12:11:22Z</time></trkpt><trkpt lat="44.240797556937906" lon="9.568443844829236"><ele>322.0</ele><time>2026-04-21T12:11:23Z</time></trkpt><trkpt lat="44.240615100501884" lon="9.568756590252754"><ele>317.0</ele><time>2026-04-21T12:11:24Z</time></trkpt><trkpt lat="44.2404502803986" lon="9.569034556140833"><ele>312.0</ele><time>2026-04-21T12:11:25Z</time></trkpt><trkpt lat="44.24030573206281" lon="9.569297900130717"><ele>315.0</ele><time>2026-04-21T12:11:26Z</time></trkpt><trkpt lat="44.240174363551596" lon="9.56957296071536"><ele>318.0</ele><time>2026-04-21T12:11:27Z</time></trkpt><trkpt lat="44.240055239581146" lon="9.569806297338731"><ele>321.0</ele><time>2026-04-21T12:11:28Z</time></trkpt><trkpt lat="44.23992906585944" lon="9.570091548770488"><ele>321.5</ele><time>2026-04-21T12:11:29Z</time></trkpt><trkpt lat="44.23980138573355" lon="9.570376140434718"><ele>322.0</ele><time>2026-04-21T12:11:30Z</time></trkpt><trkpt lat="44.239679860669455" lon="9.57066121393453"><ele>322.0</ele><time>2026-04-21T12:11:31Z</time></trkpt><trkpt lat="44.23956807455428" lon="9.570931804556658"><ele>322.0</ele><time>2026-04-21T12:11:32Z</time></trkpt><trkpt lat="44.23946126228623" lon="9.571214968038662"><ele>332.0</ele><time>2026-04-21T12:11:33Z</time></trkpt><trkpt lat="44.23935085124918" lon="9.571511549156952"><ele>342.0</ele><time>2026-04-21T12:11:34Z</time></trkpt><trkpt lat="44.23922308216583" lon="9.571787703209798"><ele>355.0</ele><time>2026-04-21T12:11:35Z</time></trkpt><trkpt lat="44.23909971337157" lon="9.572074662172843"><ele>368.0</ele><time>2026-04-21T12:11:36Z</time></trkpt><trkpt lat="44.23897489668357" lon="9.572358585621288"><ele>372.5</ele><time>2026-04-21T12:11:37Z</time></trkpt><trkpt lat="44.23890222584691" lon="9.572661596102954"><ele>377.0</ele><time>2026-04-21T12:11:38Z</time></trkpt><trkpt lat="44.238818173252824" lon="9.572967226371462"><ele>394.5</ele><time>2026-04-21T12:11:39Z</time></trkpt><trkpt lat="44.23873045238037" lon="9.57329887456418"><ele>412.0</ele><time>2026-04-21T12:11:40.071Z</time></trkpt><trkpt lat="44.238652623764466" lon="9.573608178006044"><ele>425.5</ele><time>2026-04-21T12:11:41.061Z</time></trkpt><trkpt lat="44.23858197779105" lon="9.573920179789097"><ele>439.0</ele><time>2026-04-21T12:11:42.061Z</time></trkpt><trkpt lat="44.23851941796236" lon="9.574239200862198"><ele>451.0</ele><time>2026-04-21T12:11:43.063Z</time></trkpt><trkpt lat="44.23845594131127" lon="9.574558558856243"><ele>463.0</ele><time>2026-04-21T12:11:44.062Z</time></trkpt><trkpt lat="44.23821278166256" lon="9.57735352084339"><ele>561.0</ele><time>2026-04-21T12:11:47.56Z</time></trkpt><trkpt lat="44.23819365518131" lon="9.57860247361182"><ele>603.0</ele><time>2026-04-21T12:11:48.559Z</time></trkpt><trkpt lat="44.23825020847474" lon="9.579854017133284"><ele>598.0</ele><time>2026-04-21T12:11:49.561Z</time></trkpt><trkpt lat="44.238352343256295" lon="9.581100331826436"><ele>572.0</ele><time>2026-04-21T12:11:50.563Z</time></trkpt><trkpt lat="44.23845464306998" lon="9.582341814374976"><ele>561.0</ele><time>2026-04-21T12:11:51.561Z</time></trkpt><trkpt lat="44.23856070586058" lon="9.583587075174979"><ele>526.0</ele><time>2026-04-21T12:11:52.563Z</time></trkpt><trkpt lat="44.238666875772985" lon="9.58483010995455"><ele>513.0</ele><time>2026-04-21T12:11:53.563Z</time></trkpt><trkpt lat="44.238769563053474" lon="9.586071930974903"><ele>469.0</ele><time>2026-04-21T12:11:54.561Z</time></trkpt><trkpt lat="44.23887424631502" lon="9.587317117035214"><ele>451.0</ele><time>2026-04-21T12:11:55.563Z</time></trkpt><trkpt lat="44.2389790824764" lon="9.588559280741688"><ele>437.0</ele><time>2026-04-21T12:11:56.562Z</time></trkpt><trkpt lat="44.239090040187584" lon="9.589802685262086"><ele>423.0</ele><time>2026-04-21T12:11:57.563Z</time></trkpt><trkpt lat="44.23919413159297" lon="9.591045929857799"><ele>374.0</ele><time>2026-04-21T12:11:58.563Z</time></trkpt><trkpt lat="44.23922201676656" lon="9.592293558293735"><ele>353.0</ele><time>2026-04-21T12:11:59.56Z</time></trkpt><trkpt lat="44.239109610765354" lon="9.593668399529882"><ele>357.5</ele><time>2026-04-21T12:12:40Z</time></trkpt><trkpt lat="44.23886013102198" lon="9.593922230202441"><ele>362.0</ele><time>2026-04-21T12:12:41.001Z</time></trkpt><trkpt lat="44.238828428835625" lon="9.594251362269132"><ele>356.0</ele><time>2026-04-21T12:12:42.001Z</time></trkpt><trkpt lat="44.238885260771966" lon="9.594619029903667"><ele>350.0</ele><time>2026-04-21T12:12:43.001Z</time></trkpt><trkpt lat="44.23887412251005" lon="9.594964996262126"><ele>350.0</ele><time>2026-04-21T12:12:44.001Z</time></trkpt><trkpt lat="44.238795589257144" lon="9.595270858709146"><ele>350.0</ele><time>2026-04-21T12:12:45.001Z</time></trkpt><trkpt lat="44.23871685757064" lon="9.595579830194303"><ele>345.0</ele><time>2026-04-21T12:12:46.001Z</time></trkpt><trkpt lat="44.23862965791153" lon="9.59589293734277"><ele>340.0</ele><time>2026-04-21T12:12:47.001Z</time></trkpt><trkpt lat="44.23852703982706" lon="9.596198044080378"><ele>338.5</ele><time>2026-04-21T12:12:48.001Z</time></trkpt><trkpt lat="44.23841132526423" lon="9.596495405813934"><ele>337.0</ele><time>2026-04-21T12:12:49.001Z</time></trkpt><trkpt lat="44.2382895157173" lon="9.596792776948682"><ele>337.5</ele><time>2026-04-21T12:12:50.001Z</time></trkpt><trkpt lat="44.2381631160834" lon="9.59708777810325"><ele>338.0</ele><time>2026-04-21T12:12:51.001Z</time></trkpt><trkpt lat="44.23802514715754" lon="9.597376879102214"><ele>338.0</ele><time>2026-04-21T12:12:52.001Z</time></trkpt><trkpt lat="44.23787697500169" lon="9.597662057263069"><ele>338.0</ele><time>2026-04-21T12:12:53.001Z</time></trkpt><trkpt lat="44.237722329067914" lon="9.597939648093242"><ele>338.5</ele><time>2026-04-21T12:12:54.001Z</time></trkpt><trkpt lat="44.237559371204824" lon="9.598201086308217"><ele>339.0</ele><time>2026-04-21T12:12:55.001Z</time></trkpt><trkpt lat="44.23739383031552" lon="9.598456515002006"><ele>346.0</ele><time>2026-04-21T12:12:56.001Z</time></trkpt><trkpt lat="44.23722310624984" lon="9.598703694050023"><ele>353.0</ele><time>2026-04-21T12:12:57.001Z</time></trkpt><trkpt lat="44.23704236978107" lon="9.598938694630942"><ele>353.0</ele><time>2026-04-21T12:12:58.001Z</time></trkpt><trkpt lat="44.2368551356774" lon="9.599162893823499"><ele>353.0</ele><time>2026-04-21T12:12:59.001Z</time></trkpt><trkpt lat="44.23666007593767" lon="9.599379497248519"><ele>352.0</ele><time>2026-04-21T12:13:00.001Z</time></trkpt><trkpt lat="44.23645984870823" lon="9.599587227904669"><ele>351.0</ele><time>2026-04-21T12:13:01.001Z</time></trkpt><trkpt lat="44.23625415652971" lon="9.599789280449702"><ele>351.0</ele><time>2026-04-21T12:13:02.001Z</time></trkpt><trkpt lat="44.23604324378815" lon="9.599983372739047"><ele>351.0</ele><time>2026-04-21T12:13:03.001Z</time></trkpt><trkpt lat="44.23583047743673" lon="9.600175694643088"><ele>378.0</ele><time>2026-04-21T12:13:04.001Z</time></trkpt><trkpt lat="44.23561379237744" lon="9.600365790333704"><ele>405.0</ele><time>2026-04-21T12:13:05.001Z</time></trkpt><trkpt lat="44.23539620456642" lon="9.600558154724144"><ele>405.0</ele><time>2026-04-21T12:13:06.001Z</time></trkpt><trkpt lat="44.23517860382943" lon="9.600754003758542"><ele>405.0</ele><time>2026-04-21T12:13:07.001Z</time></trkpt><trkpt lat="44.23495962305915" lon="9.600954114595096"><ele>405.0</ele><time>2026-04-21T12:13:08.001Z</time></trkpt><trkpt lat="44.23474053855754" lon="9.601154401744745"><ele>405.0</ele><time>2026-04-21T12:13:09.001Z</time></trkpt><trkpt lat="44.2345193114649" lon="9.601352407545779"><ele>402.5</ele><time>2026-04-21T12:13:10.001Z</time></trkpt><trkpt lat="44.234297977459036" lon="9.601551398758874"><ele>400.0</ele><time>2026-04-21T12:13:11.001Z</time></trkpt><trkpt lat="44.234064041936556" lon="9.601766640641499"><ele>387.5</ele><time>2026-04-21T12:13:12.072Z</time></trkpt><trkpt lat="44.23385275884322" lon="9.601967211932998"><ele>375.0</ele><time>2026-04-21T12:13:13.065Z</time></trkpt><trkpt lat="44.233634902424086" lon="9.602168646795626"><ele>368.5</ele><time>2026-04-21T12:13:14.061Z</time></trkpt><trkpt lat="44.233409499353726" lon="9.602364310311291"><ele>362.0</ele><time>2026-04-21T12:13:15.06Z</time></trkpt><trkpt lat="44.232995662316554" lon="9.602659065683536"><ele>356.0</ele><time>2026-04-21T12:13:17.001Z</time></trkpt><trkpt lat="44.23282705532948" lon="9.60290997957733"><ele>350.0</ele><time>2026-04-21T12:13:18.001Z</time></trkpt><trkpt lat="44.232641696795504" lon="9.603156155165374"><ele>350.0</ele><time>2026-04-21T12:13:19.001Z</time></trkpt><trkpt lat="44.23245818756431" lon="9.603394471785716"><ele>350.0</ele><time>2026-04-21T12:13:20.001Z</time></trkpt><trkpt lat="44.23227720241655" lon="9.603636612297494"><ele>353.5</ele><time>2026-04-21T12:13:21.001Z</time></trkpt><trkpt lat="44.232102633171976" lon="9.603894779763905"><ele>357.0</ele><time>2026-04-21T12:13:22.001Z</time></trkpt><trkpt lat="44.231934653045585" lon="9.60415359859875"><ele>357.0</ele><time>2026-04-21T12:13:23.001Z</time></trkpt><trkpt lat="44.23176328365712" lon="9.604420602941547"><ele>357.0</ele><time>2026-04-21T12:13:24.001Z</time></trkpt><trkpt lat="44.231599297583145" lon="9.60468213322178"><ele>341.0</ele><time>2026-04-21T12:13:25.001Z</time></trkpt><trkpt lat="44.23143354870894" lon="9.604945090423348"><ele>325.0</ele><time>2026-04-21T12:13:26.001Z</time></trkpt><trkpt lat="44.23126903441709" lon="9.605219907126727"><ele>318.0</ele><time>2026-04-21T12:13:27.001Z</time></trkpt><trkpt lat="44.231101145335614" lon="9.605496497299065"><ele>311.0</ele><time>2026-04-21T12:13:28.001Z</time></trkpt><trkpt lat="44.230944187672016" lon="9.605767364145795"><ele>311.0</ele><time>2026-04-21T12:13:29.001Z</time></trkpt><trkpt lat="44.230787376356204" lon="9.60603962425904"><ele>311.0</ele><time>2026-04-21T12:13:30.001Z</time></trkpt><trkpt lat="44.2306348470575" lon="9.606301983939051"><ele>316.0</ele><time>2026-04-21T12:13:31.001Z</time></trkpt><trkpt lat="44.23048963532548" lon="9.606546740777368"><ele>321.0</ele><time>2026-04-21T12:13:32.001Z</time></trkpt><trkpt lat="44.23034713512506" lon="9.606793488823865"><ele>326.5</ele><time>2026-04-21T12:13:33.001Z</time></trkpt><trkpt lat="44.23020232529711" lon="9.607044422260055"><ele>332.0</ele><time>2026-04-21T12:13:34.001Z</time></trkpt><trkpt lat="44.23006272756456" lon="9.607284730214252"><ele>332.0</ele><time>2026-04-21T12:13:35.001Z</time></trkpt><trkpt lat="44.229929533922366" lon="9.607516374791091"><ele>332.0</ele><time>2026-04-21T12:13:36.001Z</time></trkpt><trkpt lat="44.22978623416296" lon="9.607762438304015"><ele>332.0</ele><time>2026-04-21T12:13:37.001Z</time></trkpt><trkpt lat="44.22964560917573" lon="9.608006302830224"><ele>330.0</ele><time>2026-04-21T12:13:38.001Z</time></trkpt><trkpt lat="44.22950621489551" lon="9.608244347812189"><ele>328.0</ele><time>2026-04-21T12:13:39.001Z</time></trkpt><trkpt lat="44.229364085840345" lon="9.60848418245486"><ele>326.0</ele><time>2026-04-21T12:13:40.001Z</time></trkpt><trkpt lat="44.229224210497456" lon="9.608724692028238"><ele>321.6666666666667</ele><time>2026-04-21T12:13:41.001Z</time></trkpt><trkpt lat="44.22908345374745" lon="9.608967853977326"><ele>317.3333333333333</ele><time>2026-04-21T12:13:42.001Z</time></trkpt><trkpt lat="44.228946152683235" lon="9.609206100744444"><ele>313.0</ele><time>2026-04-21T12:13:43.001Z</time></trkpt><trkpt lat="44.228823460240875" lon="9.609428685244461"><ele>319.66666666666663</ele><time>2026-04-21T12:13:44.001Z</time></trkpt><trkpt lat="44.2287017035652" lon="9.609658105130459"><ele>326.3333333333333</ele><time>2026-04-21T12:13:45.001Z</time></trkpt><trkpt lat="44.228583292533074" lon="9.609892811462068"><ele>333.0</ele><time>2026-04-21T12:13:46.001Z</time></trkpt><trkpt lat="44.22846449772241" lon="9.610144824558041"><ele>345.0</ele><time>2026-04-21T12:13:47.001Z</time></trkpt><trkpt lat="44.22835590902319" lon="9.610393902520011"><ele>357.0</ele><time>2026-04-21T12:13:48.001Z</time></trkpt><trkpt lat="44.228265841486575" lon="9.610627866604238"><ele>369.0</ele><time>2026-04-21T12:13:49.001Z</time></trkpt><trkpt lat="44.22818294721846" lon="9.610861476585518"><ele>378.33333333333337</ele><time>2026-04-21T12:13:50.001Z</time></trkpt><trkpt lat="44.22810327203016" lon="9.611107441845322"><ele>387.6666666666667</ele><time>2026-04-21T12:13:51.001Z</time></trkpt><trkpt lat="44.22802613640318" lon="9.611365339650465"><ele>397.0</ele><time>2026-04-21T12:13:52.001Z</time></trkpt><trkpt lat="44.22795677898499" lon="9.611635888649708"><ele>404.33333333333337</ele><time>2026-04-21T12:13:53.001Z</time></trkpt><trkpt lat="44.22789298338704" lon="9.611925073893026"><ele>411.66666666666663</ele><time>2026-04-21T12:13:54.074Z</time></trkpt><trkpt lat="44.2278445574101" lon="9.612195374827326"><ele>419.0</ele><time>2026-04-21T12:13:55.063Z</time></trkpt><trkpt lat="44.2278051825373" lon="9.61246669233074"><ele>318.0</ele><time>2026-04-21T12:13:56.062Z</time></trkpt><trkpt lat="44.227643475520914" lon="9.616048281281026"><ele>314.3333333333333</ele><time>2026-04-21T12:14:11.001Z</time></trkpt><trkpt lat="44.22768378184833" lon="9.616294073778045"><ele>310.66666666666663</ele><time>2026-04-21T12:14:12.001Z</time></trkpt><trkpt lat="44.22770433334601" lon="9.616550571964734"><ele>307.0</ele><time>2026-04-21T12:14:13.001Z</time></trkpt><trkpt lat="44.22773828931797" lon="9.616801852971948"><ele>310.0</ele><time>2026-04-21T12:14:14.001Z</time></trkpt><trkpt lat="44.22778524537682" lon="9.617038327235619"><ele>313.0</ele><time>2026-04-21T12:14:15.001Z</time></trkpt><trkpt lat="44.2278311877251" lon="9.617274346955979"><ele>316.0</ele><time>2026-04-21T12:14:16.001Z</time></trkpt><trkpt lat="44.22788837259722" lon="9.617508841472151"><ele>316.0</ele><time>2026-04-21T12:14:17.001Z</time></trkpt><trkpt lat="44.22795061514547" lon="9.617741282406582"><ele>316.0</ele><time>2026-04-21T12:14:18.001Z</time></trkpt><trkpt lat="44.228016456188044" lon="9.617967475281398"><ele>316.0</ele><time>2026-04-21T12:14:19.001Z</time></trkpt><trkpt lat="44.22808595069592" lon="9.61819274544443"><ele>316.0</ele><time>2026-04-21T12:14:20.001Z</time></trkpt><trkpt lat="44.22815762674932" lon="9.618411420296374"><ele>316.0</ele><time>2026-04-21T12:14:21.001Z</time></trkpt><trkpt lat="44.22822513973528" lon="9.618617484630162"><ele>316.0</ele><time>2026-04-21T12:14:22.001Z</time></trkpt><trkpt lat="44.22829214459269" lon="9.618821439962948"><ele>316.0</ele><time>2026-04-21T12:14:23.001Z</time></trkpt><trkpt lat="44.228357205280695" lon="9.61902268822047"><ele>316.0</ele><time>2026-04-21T12:14:24.001Z</time></trkpt><trkpt lat="44.2284240431393" lon="9.619228266673062"><ele>316.0</ele><time>2026-04-21T12:14:25.001Z</time></trkpt><trkpt lat="44.22849541820742" lon="9.619445421677945"><ele>317.66666666666663</ele><time>2026-04-21T12:14:26.001Z</time></trkpt><trkpt lat="44.22856692909367" lon="9.619668443762155"><ele>319.3333333333333</ele><time>2026-04-21T12:14:27.001Z</time></trkpt><trkpt lat="44.22863922426485" lon="9.619887549299962"><ele>321.0</ele><time>2026-04-21T12:14:28.001Z</time></trkpt><trkpt lat="44.228708399724205" lon="9.620118779476188"><ele>326.6666666666667</ele><time>2026-04-21T12:14:29.001Z</time></trkpt><trkpt lat="44.22878212887769" lon="9.620358021524984"><ele>332.33333333333337</ele><time>2026-04-21T12:14:30.001Z</time></trkpt><trkpt lat="44.22885470626054" lon="9.620601271108885"><ele>338.0</ele><time>2026-04-21T12:14:31.001Z</time></trkpt><trkpt lat="44.22892335265792" lon="9.620841417374573"><ele>324.0</ele><time>2026-04-21T12:14:32.001Z</time></trkpt><trkpt lat="44.22898526554064" lon="9.621078615888868"><ele>310.0</ele><time>2026-04-21T12:14:33.001Z</time></trkpt><trkpt lat="44.22903917169891" lon="9.621310101441582"><ele>296.0</ele><time>2026-04-21T12:14:34.001Z</time></trkpt><trkpt lat="44.22908843116272" lon="9.621541636401766"><ele>296.0</ele><time>2026-04-21T12:14:35.001Z</time></trkpt><trkpt lat="44.22913190195399" lon="9.621771402121718"><ele>296.0</ele><time>2026-04-21T12:14:36.001Z</time></trkpt><trkpt lat="44.229170735734876" lon="9.622011819566028"><ele>296.0</ele><time>2026-04-21T12:14:37.001Z</time></trkpt><trkpt lat="44.229205348315155" lon="9.622255532350344"><ele>297.33333333333337</ele><time>2026-04-21T12:14:38.001Z</time></trkpt><trkpt lat="44.22923840414345" lon="9.622505593057848"><ele>298.6666666666667</ele><time>2026-04-21T12:14:39.001Z</time></trkpt><trkpt lat="44.22926920073239" lon="9.622755605762343"><ele>300.0</ele><time>2026-04-21T12:14:40.001Z</time></trkpt><trkpt lat="44.229293882044445" lon="9.623001404945663"><ele>296.6666666666667</ele><time>2026-04-21T12:14:41.001Z</time></trkpt><trkpt lat="44.22931329903069" lon="9.623244643349267"><ele>293.33333333333337</ele><time>2026-04-21T12:14:42.001Z</time></trkpt><trkpt lat="44.22933158656779" lon="9.623487442701386"><ele>290.0</ele><time>2026-04-21T12:14:43.001Z</time></trkpt><trkpt lat="44.229346710747954" lon="9.623731966478772"><ele>290.0</ele><time>2026-04-21T12:14:44.001Z</time></trkpt><trkpt lat="44.229358282209525" lon="9.6239741909256"><ele>290.0</ele><time>2026-04-21T12:14:45.001Z</time></trkpt><trkpt lat="44.2293659383283" lon="9.62421379469552"><ele>290.0</ele><time>2026-04-21T12:14:46.001Z</time></trkpt><trkpt lat="44.22937348456863" lon="9.624455096739869"><ele>295.6666666666667</ele><time>2026-04-21T12:14:47.001Z</time></trkpt><trkpt lat="44.22937952686333" lon="9.624699828274093"><ele>301.3333333333333</ele><time>2026-04-21T12:14:48.001Z</time></trkpt><trkpt lat="44.229386408435005" lon="9.624949048181561"><ele>307.0</ele><time>2026-04-21T12:14:49.001Z</time></trkpt><trkpt lat="44.22939625763427" lon="9.625202270917052"><ele>309.66666666666663</ele><time>2026-04-21T12:14:50.001Z</time></trkpt><trkpt lat="44.22940789699603" lon="9.625454271405095"><ele>312.3333333333333</ele><time>2026-04-21T12:14:51.001Z</time></trkpt><trkpt lat="44.229421879343086" lon="9.625693719961246"><ele>315.0</ele><time>2026-04-21T12:14:52.001Z</time></trkpt><trkpt lat="44.22944198242473" lon="9.625937009088696"><ele>316.0</ele><time>2026-04-21T12:14:53.001Z</time></trkpt><trkpt lat="44.22946606829624" lon="9.626184341663144"><ele>317.0</ele><time>2026-04-21T12:14:54.001Z</time></trkpt><trkpt lat="44.22949511615549" lon="9.62642953054471"><ele>318.0</ele><time>2026-04-21T12:14:55.001Z</time></trkpt><trkpt lat="44.22953133898421" lon="9.62667248476917"><ele>318.0</ele><time>2026-04-21T12:14:56.001Z</time></trkpt><trkpt lat="44.2295698249367" lon="9.626913565307365"><ele>318.0</ele><time>2026-04-21T12:14:57.001Z</time></trkpt><trkpt lat="44.22961157049744" lon="9.62716501369496"><ele>318.0</ele><time>2026-04-21T12:14:58.001Z</time></trkpt><trkpt lat="44.2296589334994" lon="9.627410285580767"><ele>320.6666666666667</ele><time>2026-04-21T12:14:59.001Z</time></trkpt><trkpt lat="44.22971141809021" lon="9.627645909029455"><ele>323.33333333333337</ele><time>2026-04-21T12:15:00.001Z</time></trkpt><trkpt lat="44.22976660278638" lon="9.627870704511881"><ele>326.0</ele><time>2026-04-21T12:15:01.001Z</time></trkpt><trkpt lat="44.229826311088004" lon="9.628095337671319"><ele>314.33333333333337</ele><time>2026-04-21T12:15:02.001Z</time></trkpt><trkpt lat="44.22989002096412" lon="9.628327132377004"><ele>302.6666666666667</ele><time>2026-04-21T12:15:03.001Z</time></trkpt><trkpt lat="44.22995912300562" lon="9.628551527771453"><ele>291.0</ele><time>2026-04-21T12:15:04.001Z</time></trkpt><trkpt lat="44.23002971958032" lon="9.628773913720853"><ele>291.0</ele><time>2026-04-21T12:15:05.001Z</time></trkpt><trkpt lat="44.2301094878744" lon="9.62900176009459"><ele>291.0</ele><time>2026-04-21T12:15:06.001Z</time></trkpt><trkpt lat="44.230192495196974" lon="9.629219058534565"><ele>291.0</ele><time>2026-04-21T12:15:07.001Z</time></trkpt><trkpt lat="44.23027281453538" lon="9.62943170797424"><ele>295.6666666666667</ele><time>2026-04-21T12:15:08.001Z</time></trkpt><trkpt lat="44.230352795153706" lon="9.62963792405847"><ele>300.33333333333337</ele><time>2026-04-21T12:15:09.001Z</time></trkpt><trkpt lat="44.23043338593371" lon="9.629835490617003"><ele>305.0</ele><time>2026-04-21T12:15:10.001Z</time></trkpt><trkpt lat="44.230510270516405" lon="9.63003048844508"><ele>305.0</ele><time>2026-04-21T12:15:11.001Z</time></trkpt><trkpt lat="44.23058941990971" lon="9.630229160750282"><ele>305.0</ele><time>2026-04-21T12:15:12.001Z</time></trkpt><trkpt lat="44.230675725887856" lon="9.63044427682353"><ele>305.0</ele><time>2026-04-21T12:15:13.001Z</time></trkpt><trkpt lat="44.23076357344528" lon="9.630667797813151"><ele>303.6666666666667</ele><time>2026-04-21T12:15:14.001Z</time></trkpt><trkpt lat="44.230848174479696" lon="9.630883486868067"><ele>302.3333333333333</ele><time>2026-04-21T12:15:15.001Z</time></trkpt><trkpt lat="44.230933917685164" lon="9.631104524649603"><ele>301.0</ele><time>2026-04-21T12:15:16.001Z</time></trkpt><trkpt lat="44.23101928964777" lon="9.631319753821469"><ele>301.0</ele><time>2026-04-21T12:15:17.001Z</time></trkpt><trkpt lat="44.23110824195804" lon="9.6315372299393"><ele>301.0</ele><time>2026-04-21T12:15:18.001Z</time></trkpt><trkpt lat="44.23119318008736" lon="9.631746920048224"><ele>301.0</ele><time>2026-04-21T12:15:19.001Z</time></trkpt><trkpt lat="44.23127431133292" lon="9.631952629637292"><ele>306.0</ele><time>2026-04-21T12:15:20.001Z</time></trkpt><trkpt lat="44.2313587326041" lon="9.632168050858201"><ele>311.0</ele><time>2026-04-21T12:15:21.001Z</time></trkpt><trkpt lat="44.23144206865174" lon="9.632387656200073"><ele>316.0</ele><time>2026-04-21T12:15:22.001Z</time></trkpt><trkpt lat="44.23152135597142" lon="9.63260310163167"><ele>303.0</ele><time>2026-04-21T12:15:23.001Z</time></trkpt><trkpt lat="44.23159232616373" lon="9.632813164831873"><ele>290.0</ele><time>2026-04-21T12:15:24.001Z</time></trkpt><trkpt lat="44.23165823614768" lon="9.63301926518761"><ele>277.0</ele><time>2026-04-21T12:15:25.001Z</time></trkpt><trkpt lat="44.23172216606832" lon="9.63321842018102"><ele>277.0</ele><time>2026-04-21T12:15:26.001Z</time></trkpt><trkpt lat="44.23178578410755" lon="9.633418071045938"><ele>277.0</ele><time>2026-04-21T12:15:27.001Z</time></trkpt><trkpt lat="44.23185488892077" lon="9.633630672585515"><ele>277.0</ele><time>2026-04-21T12:15:28.001Z</time></trkpt><trkpt lat="44.231926161551804" lon="9.633847421713726"><ele>279.3333333333333</ele><time>2026-04-21T12:15:29.001Z</time></trkpt><trkpt lat="44.231994214060016" lon="9.634064477570538"><ele>281.6666666666667</ele><time>2026-04-21T12:15:30.001Z</time></trkpt><trkpt lat="44.23205660444206" lon="9.634276489701172"><ele>284.0</ele><time>2026-04-21T12:15:31.001Z</time></trkpt><trkpt lat="44.232116565312154" lon="9.634486664130414"><ele>285.33333333333337</ele><time>2026-04-21T12:15:32.001Z</time></trkpt><trkpt lat="44.23218110917108" lon="9.634710228268046"><ele>286.6666666666667</ele><time>2026-04-21T12:15:33.001Z</time></trkpt><trkpt lat="44.23224509535175" lon="9.634937837000313"><ele>288.0</ele><time>2026-04-21T12:15:34.001Z</time></trkpt><trkpt lat="44.23230682516315" lon="9.63516547026848"><ele>280.6666666666667</ele><time>2026-04-21T12:15:35.001Z</time></trkpt><trkpt lat="44.23236723081929" lon="9.635400349243033"><ele>273.33333333333337</ele><time>2026-04-21T12:15:36.001Z</time></trkpt><trkpt lat="44.2324258229896" lon="9.635644521342947"><ele>266.0</ele><time>2026-04-21T12:15:37.001Z</time></trkpt><trkpt lat="44.232478572500305" lon="9.635890546528666"><ele>266.0</ele><time>2026-04-21T12:15:38.001Z</time></trkpt><trkpt lat="44.2325348240541" lon="9.63614043225351"><ele>266.0</ele><time>2026-04-21T12:15:39.001Z</time></trkpt><trkpt lat="44.232591188286165" lon="9.636383864203456"><ele>266.0</ele><time>2026-04-21T12:15:40.001Z</time></trkpt><trkpt lat="44.23264534681969" lon="9.636620469920391"><ele>266.0</ele><time>2026-04-21T12:15:41.001Z</time></trkpt><trkpt lat="44.23269483122561" lon="9.636852964768213"><ele>266.0</ele><time>2026-04-21T12:15:42.001Z</time></trkpt><trkpt lat="44.23274230609863" lon="9.63709828968718"><ele>266.0</ele><time>2026-04-21T12:15:43.001Z</time></trkpt><trkpt lat="44.232790332753" lon="9.637351139002648"><ele>263.33333333333337</ele><time>2026-04-21T12:15:44.001Z</time></trkpt><trkpt lat="44.23283828874589" lon="9.637595228923713"><ele>260.6666666666667</ele><time>2026-04-21T12:15:45.001Z</time></trkpt><trkpt lat="44.232889946508706" lon="9.637848128473832"><ele>258.0</ele><time>2026-04-21T12:15:46.001Z</time></trkpt><trkpt lat="44.232943615300506" lon="9.63811035164951"><ele>252.0</ele><time>2026-04-21T12:15:47.001Z</time></trkpt><trkpt lat="44.2330001751225" lon="9.638382538384604"><ele>246.0</ele><time>2026-04-21T12:15:48.001Z</time></trkpt><trkpt lat="44.23306154506468" lon="9.638672589317194"><ele>240.0</ele><time>2026-04-21T12:15:49.001Z</time></trkpt><trkpt lat="44.23312579706292" lon="9.638978553100923"><ele>230.0</ele><time>2026-04-21T12:15:50.001Z</time></trkpt><trkpt lat="44.23319364151464" lon="9.639289294818347"><ele>220.0</ele><time>2026-04-21T12:15:51.001Z</time></trkpt><trkpt lat="44.233264018571404" lon="9.639613798204557"><ele>214.0</ele><time>2026-04-21T12:15:52.001Z</time></trkpt><trkpt lat="44.233335859682185" lon="9.639948714058796"><ele>208.0</ele><time>2026-04-21T12:15:53.001Z</time></trkpt><trkpt lat="44.23340843510694" lon="9.640286977422868"><ele>206.5</ele><time>2026-04-21T12:15:54.001Z</time></trkpt><trkpt lat="44.23348907442386" lon="9.640637406014333"><ele>205.0</ele><time>2026-04-21T12:15:55.001Z</time></trkpt><trkpt lat="44.233578483626914" lon="9.640991025975136"><ele>213.0</ele><time>2026-04-21T12:15:56.001Z</time></trkpt><trkpt lat="44.23367009802823" lon="9.641344431142493"><ele>221.0</ele><time>2026-04-21T12:15:57.001Z</time></trkpt><trkpt lat="44.2337683513816" lon="9.641704030039325"><ele>225.0</ele><time>2026-04-21T12:15:58.001Z</time></trkpt><trkpt lat="44.23386793708758" lon="9.642062021973283"><ele>229.0</ele><time>2026-04-21T12:15:59.001Z</time></trkpt><trkpt lat="44.23397039407446" lon="9.642407496136777"><ele>228.0</ele><time>2026-04-21T12:16:00.001Z</time></trkpt><trkpt lat="44.234073009821486" lon="9.64273799826966"><ele>227.0</ele><time>2026-04-21T12:16:01.001Z</time></trkpt><trkpt lat="44.23417878220578" lon="9.643070217689974"><ele>237.0</ele><time>2026-04-21T12:16:02.001Z</time></trkpt><trkpt lat="44.23428762090534" lon="9.643398565982382"><ele>247.0</ele><time>2026-04-21T12:16:03.001Z</time></trkpt><trkpt lat="44.23440258369802" lon="9.643733049236266"><ele>266.5</ele><time>2026-04-21T12:16:04.001Z</time></trkpt><trkpt lat="44.23452392589375" lon="9.644077207156993"><ele>286.0</ele><time>2026-04-21T12:16:05.001Z</time></trkpt><trkpt lat="44.23464620114785" lon="9.644410824291048"><ele>300.5</ele><time>2026-04-21T12:16:06.001Z</time></trkpt><trkpt lat="44.234769796404684" lon="9.644737127901607"><ele>315.0</ele><time>2026-04-21T12:16:07.001Z</time></trkpt><trkpt lat="44.23488862003504" lon="9.645053832485988"><ele>321.0</ele><time>2026-04-21T12:16:08.001Z</time></trkpt><trkpt lat="44.23499682936689" lon="9.645362769439203"><ele>327.0</ele><time>2026-04-21T12:16:09.001Z</time></trkpt><trkpt lat="44.23511175650492" lon="9.645691395940194"><ele>327.0</ele><time>2026-04-21T12:16:10.072Z</time></trkpt><trkpt lat="44.235219974354465" lon="9.645994836090395"><ele>327.0</ele><time>2026-04-21T12:16:11.067Z</time></trkpt><trkpt lat="44.235329155165736" lon="9.646291358848611"><ele>312.5</ele><time>2026-04-21T12:16:12.061Z</time></trkpt><trkpt lat="44.235435908900286" lon="9.646583593901893"><ele>298.0</ele><time>2026-04-21T12:16:13.062Z</time></trkpt><trkpt lat="44.23553232684581" lon="9.646874377009166"><ele>293.0</ele><time>2026-04-21T12:16:14.058Z</time></trkpt><trkpt lat="44.235619358074786" lon="9.647156418004185"><ele>288.0</ele><time>2026-04-21T12:16:15.03Z</time></trkpt><trkpt lat="44.235707305625404" lon="9.647451296026809"><ele>283.0</ele><time>2026-04-21T12:16:16.031Z</time></trkpt><trkpt lat="44.23571000268649" lon="9.647638060930541"><ele>268.0</ele><time>2026-04-21T12:16:17.001Z</time></trkpt><trkpt lat="44.23578990067637" lon="9.647929131237897"><ele>253.0</ele><time>2026-04-21T12:16:18.001Z</time></trkpt><trkpt lat="44.23581538639349" lon="9.648141239961323"><ele>238.0</ele><time>2026-04-21T12:16:19.001Z</time></trkpt><trkpt lat="44.235880329581555" lon="9.64843680757179"><ele>238.5</ele><time>2026-04-21T12:16:20.001Z</time></trkpt><trkpt lat="44.23593895322685" lon="9.648777797700978"><ele>239.0</ele><time>2026-04-21T12:16:21.001Z</time></trkpt><trkpt lat="44.23596741757559" lon="9.649106031026651"><ele>239.0</ele><time>2026-04-21T12:16:22.001Z</time></trkpt><trkpt lat="44.23598771690577" lon="9.649444041632462"><ele>239.0</ele><time>2026-04-21T12:16:23.001Z</time></trkpt><trkpt lat="44.235999182877855" lon="9.649788414176419"><ele>238.0</ele><time>2026-04-21T12:16:24.001Z</time></trkpt><trkpt lat="44.235998703528146" lon="9.6501235341627"><ele>237.0</ele><time>2026-04-21T12:16:25.001Z</time></trkpt><trkpt lat="44.235980914611545" lon="9.65047366818611"><ele>231.0</ele><time>2026-04-21T12:16:26.001Z</time></trkpt><trkpt lat="44.235954214668645" lon="9.65082002096451"><ele>225.0</ele><time>2026-04-21T12:16:27.001Z</time></trkpt><trkpt lat="44.23592065491286" lon="9.651176232061731"><ele>222.5</ele><time>2026-04-21T12:16:28.001Z</time></trkpt><trkpt lat="44.23587839186506" lon="9.65153639400371"><ele>220.0</ele><time>2026-04-21T12:16:29.001Z</time></trkpt><trkpt lat="44.23583035004504" lon="9.651902033946694"><ele>217.0</ele><time>2026-04-21T12:16:30.001Z</time></trkpt><trkpt lat="44.235776420686896" lon="9.652266312910735"><ele>214.0</ele><time>2026-04-21T12:16:31.001Z</time></trkpt><trkpt lat="44.23571585188457" lon="9.652616665815794"><ele>212.5</ele><time>2026-04-21T12:16:32.001Z</time></trkpt><trkpt lat="44.23565750200369" lon="9.652973497014967"><ele>211.0</ele><time>2026-04-21T12:16:33.001Z</time></trkpt><trkpt lat="44.23560142563787" lon="9.653334699019917"><ele>224.0</ele><time>2026-04-21T12:16:34.001Z</time></trkpt><trkpt lat="44.23554656204664" lon="9.65370111583441"><ele>237.0</ele><time>2026-04-21T12:16:35.001Z</time></trkpt><trkpt lat="44.23549155424703" lon="9.654069406097896"><ele>237.0</ele><time>2026-04-21T12:16:36.001Z</time></trkpt><trkpt lat="44.2354447433232" lon="9.654430336305309"><ele>237.0</ele><time>2026-04-21T12:16:37.001Z</time></trkpt><trkpt lat="44.23541177698977" lon="9.65479015370994"><ele>238.5</ele><time>2026-04-21T12:16:38.001Z</time></trkpt><trkpt lat="44.23538121274368" lon="9.655161388086821"><ele>240.0</ele><time>2026-04-21T12:16:39.001Z</time></trkpt><trkpt lat="44.235367919604435" lon="9.655540583642846"><ele>251.5</ele><time>2026-04-21T12:16:40.001Z</time></trkpt><trkpt lat="44.23536812182606" lon="9.655927035481476"><ele>263.0</ele><time>2026-04-21T12:16:41.001Z</time></trkpt><trkpt lat="44.235377843265056" lon="9.656314506989428"><ele>271.5</ele><time>2026-04-21T12:16:42.001Z</time></trkpt><trkpt lat="44.23539817918143" lon="9.656698262765692"><ele>280.0</ele><time>2026-04-21T12:16:43.001Z</time></trkpt><trkpt lat="44.235428607366735" lon="9.65707041569677"><ele>280.0</ele><time>2026-04-21T12:16:44.001Z</time></trkpt><trkpt lat="44.23546941791229" lon="9.657440613712247"><ele>280.0</ele><time>2026-04-21T12:16:45.001Z</time></trkpt><trkpt lat="44.23549173483701" lon="9.657813355881926"><ele>280.0</ele><time>2026-04-21T12:16:46.001Z</time></trkpt><trkpt lat="44.235534819841355" lon="9.658196003702754"><ele>280.0</ele><time>2026-04-21T12:16:47.057Z</time></trkpt><trkpt lat="44.23558264746391" lon="9.658542081384526"><ele>265.5</ele><time>2026-04-21T12:16:48.051Z</time></trkpt><trkpt lat="44.23563754883718" lon="9.658880641194882"><ele>251.0</ele><time>2026-04-21T12:16:49.051Z</time></trkpt><trkpt lat="44.2356981460311" lon="9.659208758071271"><ele>244.5</ele><time>2026-04-21T12:16:50.047Z</time></trkpt><trkpt lat="44.235763170813044" lon="9.659521064857106"><ele>238.0</ele><time>2026-04-21T12:16:51.025Z</time></trkpt><trkpt lat="44.23645502286094" lon="9.661957824119376"><ele>218.5</ele><time>2026-04-21T12:16:58.001Z</time></trkpt><trkpt lat="44.23657002417186" lon="9.662266480162256"><ele>199.0</ele><time>2026-04-21T12:16:59.001Z</time></trkpt><trkpt lat="44.2366929178302" lon="9.662584311649187"><ele>198.0</ele><time>2026-04-21T12:17:00.001Z</time></trkpt><trkpt lat="44.23681371378589" lon="9.662898630674796"><ele>197.0</ele><time>2026-04-21T12:17:01.001Z</time></trkpt><trkpt lat="44.23694340842776" lon="9.663199873745754"><ele>197.0</ele><time>2026-04-21T12:17:02.001Z</time></trkpt><trkpt lat="44.23704920864174" lon="9.663473998386614"><ele>197.0</ele><time>2026-04-21T12:17:03.001Z</time></trkpt><trkpt lat="44.23718818547541" lon="9.663756874858393"><ele>198.0</ele><time>2026-04-21T12:17:04.001Z</time></trkpt><trkpt lat="44.23730610834304" lon="9.66405671114124"><ele>199.0</ele><time>2026-04-21T12:17:05.001Z</time></trkpt><trkpt lat="44.23742356364288" lon="9.66436152179034"><ele>206.5</ele><time>2026-04-21T12:17:06.001Z</time></trkpt><trkpt lat="44.23754330159464" lon="9.664666019581883"><ele>214.0</ele><time>2026-04-21T12:17:07.001Z</time></trkpt><trkpt lat="44.23765376766833" lon="9.664961699245902"><ele>214.0</ele><time>2026-04-21T12:17:08.001Z</time></trkpt><trkpt lat="44.23776087916367" lon="9.665265715484274"><ele>214.0</ele><time>2026-04-21T12:17:09.001Z</time></trkpt><trkpt lat="44.23785905738297" lon="9.665576653004898"><ele>220.5</ele><time>2026-04-21T12:17:10.001Z</time></trkpt><trkpt lat="44.23794672655084" lon="9.66589427153094"><ele>227.0</ele><time>2026-04-21T12:17:11.001Z</time></trkpt><trkpt lat="44.23802681934646" lon="9.666219442166208"><ele>219.0</ele><time>2026-04-21T12:17:12.001Z</time></trkpt><trkpt lat="44.23809910349556" lon="9.666550592618801"><ele>211.0</ele><time>2026-04-21T12:17:13.001Z</time></trkpt><trkpt lat="44.238164929312624" lon="9.6668838692087"><ele>215.5</ele><time>2026-04-21T12:17:14.001Z</time></trkpt><trkpt lat="44.23822413688362" lon="9.667219849075716"><ele>220.0</ele><time>2026-04-21T12:17:15.001Z</time></trkpt><trkpt lat="44.23827440537907" lon="9.66755996638112"><ele>229.5</ele><time>2026-04-21T12:17:16.001Z</time></trkpt><trkpt lat="44.23831940230522" lon="9.667905690138934"><ele>239.0</ele><time>2026-04-21T12:17:17.001Z</time></trkpt><trkpt lat="44.238353130246985" lon="9.66824993187348"><ele>239.0</ele><time>2026-04-21T12:17:18.001Z</time></trkpt><trkpt lat="44.23838141606364" lon="9.668602418173714"><ele>239.0</ele><time>2026-04-21T12:17:19.001Z</time></trkpt><trkpt lat="44.23839905700591" lon="9.668958640390676"><ele>253.5</ele><time>2026-04-21T12:17:20.001Z</time></trkpt><trkpt lat="44.238403692623955" lon="9.669316532870843"><ele>268.0</ele><time>2026-04-21T12:17:21.001Z</time></trkpt><trkpt lat="44.23839472008437" lon="9.669678843644078"><ele>287.5</ele><time>2026-04-21T12:17:22.001Z</time></trkpt><trkpt lat="44.23836906940066" lon="9.670042248098692"><ele>307.0</ele><time>2026-04-21T12:17:23.001Z</time></trkpt><trkpt lat="44.238333180627244" lon="9.670429847765778"><ele>311.0</ele><time>2026-04-21T12:17:24.061Z</time></trkpt><trkpt lat="44.23829695913596" lon="9.670794956677009"><ele>315.0</ele><time>2026-04-21T12:17:25.06Z</time></trkpt><trkpt lat="44.23825924253048" lon="9.671167606461225"><ele>305.5</ele><time>2026-04-21T12:17:26.065Z</time></trkpt><trkpt lat="44.2382416159272" lon="9.671537891409342"><ele>296.0</ele><time>2026-04-21T12:17:27.054Z</time></trkpt><trkpt lat="44.23822931211276" lon="9.6719045986255"><ele>285.5</ele><time>2026-04-21T12:17:28.052Z</time></trkpt><trkpt lat="44.23822328510086" lon="9.672260983661387"><ele>275.0</ele><time>2026-04-21T12:17:29.033Z</time></trkpt><trkpt lat="44.23822493628054" lon="9.672615728485782"><ele>289.0</ele><time>2026-04-21T12:17:30.027Z</time></trkpt><trkpt lat="44.23861726696332" lon="9.676516352032246"><ele>249.0</ele><time>2026-04-21T12:17:45.034Z</time></trkpt><trkpt lat="44.23955140626352" lon="9.678648478495994"><ele>249.0</ele><time>2026-04-21T12:17:48.001Z</time></trkpt><trkpt lat="44.239681910729495" lon="9.67895162119267"><ele>249.0</ele><time>2026-04-21T12:17:49.001Z</time></trkpt><trkpt lat="44.23978896603377" lon="9.679285759612972"><ele>231.5</ele><time>2026-04-21T12:17:50.001Z</time></trkpt><trkpt lat="44.2398914933405" lon="9.67962387403644"><ele>214.0</ele><time>2026-04-21T12:17:51.001Z</time></trkpt><trkpt lat="44.23999422348612" lon="9.679960787169385"><ele>215.5</ele><time>2026-04-21T12:17:52.001Z</time></trkpt><trkpt lat="44.24010118509377" lon="9.680303585846284"><ele>217.0</ele><time>2026-04-21T12:17:53.001Z</time></trkpt><trkpt lat="44.24019366580178" lon="9.680659430107617"><ele>217.0</ele><time>2026-04-21T12:17:54.001Z</time></trkpt><trkpt lat="44.240281639507465" lon="9.681023525360986"><ele>217.0</ele><time>2026-04-21T12:17:55.001Z</time></trkpt><trkpt lat="44.24036304555728" lon="9.681395504044707"><ele>217.0</ele><time>2026-04-21T12:17:56.001Z</time></trkpt><trkpt lat="44.24043412897941" lon="9.681775862370221"><ele>217.0</ele><time>2026-04-21T12:17:57.001Z</time></trkpt><trkpt lat="44.24049238883279" lon="9.682159331661767"><ele>219.5</ele><time>2026-04-21T12:17:58.001Z</time></trkpt><trkpt lat="44.24054518684511" lon="9.68254206594359"><ele>222.0</ele><time>2026-04-21T12:17:59.001Z</time></trkpt><trkpt lat="44.24059296005361" lon="9.68292817441323"><ele>211.0</ele><time>2026-04-21T12:18:00.001Z</time></trkpt><trkpt lat="44.24069113045388" lon="9.683284645480864"><ele>200.0</ele><time>2026-04-21T12:18:01.001Z</time></trkpt><trkpt lat="44.24075509197808" lon="9.68365933582772"><ele>200.0</ele><time>2026-04-21T12:18:02.001Z</time></trkpt><trkpt lat="44.24081135903072" lon="9.684031907853155"><ele>200.0</ele><time>2026-04-21T12:18:03.001Z</time></trkpt><trkpt lat="44.240881944186874" lon="9.684391886944404"><ele>201.0</ele><time>2026-04-21T12:18:04.001Z</time></trkpt><trkpt lat="44.24093439263342" lon="9.68473368141636"><ele>202.0</ele><time>2026-04-21T12:18:05.001Z</time></trkpt><trkpt lat="44.24097565592487" lon="9.685075027643544"><ele>211.5</ele><time>2026-04-21T12:18:06.001Z</time></trkpt><trkpt lat="44.24100638219" lon="9.685414196491335"><ele>221.0</ele><time>2026-04-21T12:18:07.001Z</time></trkpt><trkpt lat="44.24102308548725" lon="9.685746306886314"><ele>233.5</ele><time>2026-04-21T12:18:08.001Z</time></trkpt><trkpt lat="44.24102034069533" lon="9.686119412009978"><ele>246.0</ele><time>2026-04-21T12:18:09.001Z</time></trkpt><trkpt lat="44.241032117109654" lon="9.686473872808692"><ele>246.0</ele><time>2026-04-21T12:18:10.001Z</time></trkpt><trkpt lat="44.24101891360304" lon="9.686826677987833"><ele>246.0</ele><time>2026-04-21T12:18:11.001Z</time></trkpt><trkpt lat="44.24097278024312" lon="9.687165674745744"><ele>244.0</ele><time>2026-04-21T12:18:12.001Z</time></trkpt><trkpt lat="44.240916752480366" lon="9.687483670746976"><ele>242.0</ele><time>2026-04-21T12:18:13.001Z</time></trkpt><trkpt lat="44.239682501468344" lon="9.690418386711947"><ele>220.0</ele><time>2026-04-21T12:18:18.56Z</time></trkpt><trkpt lat="44.23916401969173" lon="9.691444152698937"><ele>210.0</ele><time>2026-04-21T12:18:19.561Z</time></trkpt><trkpt lat="44.23864290472237" lon="9.692466559832944"><ele>186.0</ele><time>2026-04-21T12:18:20.563Z</time></trkpt><trkpt lat="44.23836736372878" lon="9.693468975835046"><ele>191.5</ele><time>2026-04-21T12:18:33.001Z</time></trkpt><trkpt lat="44.23823211000455" lon="9.693741750831157"><ele>197.0</ele><time>2026-04-21T12:18:34.001Z</time></trkpt><trkpt lat="44.2379470718333" lon="9.693918875640058"><ele>197.0</ele><time>2026-04-21T12:18:35.001Z</time></trkpt><trkpt lat="44.237833423106196" lon="9.694153761479615"><ele>197.0</ele><time>2026-04-21T12:18:36.001Z</time></trkpt><trkpt lat="44.23772073270146" lon="9.694402502507717"><ele>197.0</ele><time>2026-04-21T12:18:37.001Z</time></trkpt><trkpt lat="44.237601882928836" lon="9.694678437335494"><ele>189.0</ele><time>2026-04-21T12:18:38.001Z</time></trkpt><trkpt lat="44.23749567227387" lon="9.694976942902766"><ele>181.0</ele><time>2026-04-21T12:18:39.001Z</time></trkpt><trkpt lat="44.237405975696845" lon="9.69528631320766"><ele>178.5</ele><time>2026-04-21T12:18:40.001Z</time></trkpt><trkpt lat="44.23733043177743" lon="9.695601832295104"><ele>176.0</ele><time>2026-04-21T12:18:41.001Z</time></trkpt><trkpt lat="44.23726667665239" lon="9.695929550685943"><ele>197.5</ele><time>2026-04-21T12:18:42.001Z</time></trkpt><trkpt lat="44.237223526459466" lon="9.696254391661958"><ele>219.0</ele><time>2026-04-21T12:18:43.001Z</time></trkpt><trkpt lat="44.23719101880348" lon="9.696567230402355"><ele>219.0</ele><time>2026-04-21T12:18:44.001Z</time></trkpt><trkpt lat="44.237172752894885" lon="9.696896424629797"><ele>219.0</ele><time>2026-04-21T12:18:45.001Z</time></trkpt><trkpt lat="44.23716086597098" lon="9.697231857837744"><ele>217.0</ele><time>2026-04-21T12:18:46.001Z</time></trkpt><trkpt lat="44.23715284695909" lon="9.69757309128251"><ele>215.0</ele><time>2026-04-21T12:18:47.001Z</time></trkpt><trkpt lat="44.23716100958903" lon="9.697913478026248"><ele>213.5</ele><time>2026-04-21T12:18:48.001Z</time></trkpt><trkpt lat="44.23718570965843" lon="9.698249885789247"><ele>212.0</ele><time>2026-04-21T12:18:49.001Z</time></trkpt><trkpt lat="44.23721316884696" lon="9.698586994510546"><ele>222.0</ele><time>2026-04-21T12:18:50.001Z</time></trkpt><trkpt lat="44.237241951396754" lon="9.698939357684269"><ele>232.0</ele><time>2026-04-21T12:18:51.001Z</time></trkpt><trkpt lat="44.237511173275934" lon="9.703509378985975"><ele>219.0</ele><time>2026-04-21T12:18:59.564Z</time></trkpt><trkpt lat="44.23736729271639" lon="9.704738935449605"><ele>179.0</ele><time>2026-04-21T12:19:00.56Z</time></trkpt><trkpt lat="44.2371601205501" lon="9.705957753589432"><ele>144.0</ele><time>2026-04-21T12:19:01.561Z</time></trkpt><trkpt lat="44.237019837583865" lon="9.707186657161643"><ele>144.0</ele><time>2026-04-21T12:19:19.001Z</time></trkpt><trkpt lat="44.236984883852934" lon="9.707432948926101"><ele>144.0</ele><time>2026-04-21T12:19:20.001Z</time></trkpt><trkpt lat="44.23876137741636" lon="9.708726252967303"><ele>132.0</ele><time>2026-04-21T12:19:21.001Z</time></trkpt><trkpt lat="44.238832980319685" lon="9.709053201372608"><ele>120.0</ele><time>2026-04-21T12:19:22.001Z</time></trkpt><trkpt lat="44.238792140026504" lon="9.709331292930301"><ele>108.0</ele><time>2026-04-21T12:19:23.001Z</time></trkpt><trkpt lat="44.238413462934766" lon="9.70940548690412"><ele>108.66666666666666</ele><time>2026-04-21T12:19:24.001Z</time></trkpt><trkpt lat="44.23831397069402" lon="9.709615165419688"><ele>109.33333333333333</ele><time>2026-04-21T12:19:25.001Z</time></trkpt><trkpt lat="44.23818652463002" lon="9.709814373117823"><ele>110.0</ele><time>2026-04-21T12:19:26.001Z</time></trkpt><trkpt lat="44.23804451754529" lon="9.710002965925302"><ele>110.0</ele><time>2026-04-21T12:19:27.001Z</time></trkpt><trkpt lat="44.23794553945346" lon="9.710247619414343"><ele>110.0</ele><time>2026-04-21T12:19:28.001Z</time></trkpt><trkpt lat="44.23780893742789" lon="9.710480516959391"><ele>110.0</ele><time>2026-04-21T12:19:29.001Z</time></trkpt><trkpt lat="44.237694359953856" lon="9.710740340620555"><ele>110.0</ele><time>2026-04-21T12:19:30.001Z</time></trkpt><trkpt lat="44.23758221404076" lon="9.711023403722272"><ele>110.0</ele><time>2026-04-21T12:19:31.001Z</time></trkpt><trkpt lat="44.237447155004865" lon="9.711260867030807"><ele>110.0</ele><time>2026-04-21T12:19:32.001Z</time></trkpt><trkpt lat="44.23726795524508" lon="9.711456780966698"><ele>111.33333333333333</ele><time>2026-04-21T12:19:33.001Z</time></trkpt><trkpt lat="44.23715454065773" lon="9.711652601980727"><ele>112.66666666666666</ele><time>2026-04-21T12:19:34.001Z</time></trkpt><trkpt lat="44.23705798962486" lon="9.711855394832616"><ele>114.0</ele><time>2026-04-21T12:19:35.001Z</time></trkpt><trkpt lat="44.236935599734544" lon="9.712032846390114"><ele>120.66666666666666</ele><time>2026-04-21T12:19:36.001Z</time></trkpt><trkpt lat="44.236840935234866" lon="9.712231110335876"><ele>127.33333333333333</ele><time>2026-04-21T12:19:37.001Z</time></trkpt><trkpt lat="44.236748713305985" lon="9.712434666911543"><ele>134.0</ele><time>2026-04-21T12:19:38.001Z</time></trkpt><trkpt lat="44.23665422945528" lon="9.71264903233005"><ele>131.66666666666666</ele><time>2026-04-21T12:19:39.001Z</time></trkpt><trkpt lat="44.23656151075714" lon="9.71286502383541"><ele>129.33333333333334</ele><time>2026-04-21T12:19:40.001Z</time></trkpt><trkpt lat="44.23644617243744" lon="9.713060179908707"><ele>127.0</ele><time>2026-04-21T12:19:41.001Z</time></trkpt><trkpt lat="44.236384931616335" lon="9.71328011295055"><ele>127.0</ele><time>2026-04-21T12:19:42.001Z</time></trkpt><trkpt lat="44.23575037820775" lon="9.713187583728127"><ele>127.0</ele><time>2026-04-21T12:19:43.001Z</time></trkpt><trkpt lat="44.235695621223684" lon="9.713385673242517"><ele>127.0</ele><time>2026-04-21T12:19:44.001Z</time></trkpt><trkpt lat="44.23563593481938" lon="9.71359020534379"><ele>127.0</ele><time>2026-04-21T12:19:45.001Z</time></trkpt><trkpt lat="44.23556919438688" lon="9.713789668806701"><ele>124.66666666666667</ele><time>2026-04-21T12:19:46.001Z</time></trkpt><trkpt lat="44.23550102277417" lon="9.714000610345488"><ele>122.33333333333334</ele><time>2026-04-21T12:19:47.001Z</time></trkpt><trkpt lat="44.235429695370215" lon="9.714212820365779"><ele>120.0</ele><time>2026-04-21T12:19:48Z</time></trkpt><trkpt lat="44.23534799555699" lon="9.714430193813916"><ele>120.0</ele><time>2026-04-21T12:19:49Z</time></trkpt><trkpt lat="44.23526297546246" lon="9.714635601924725"><ele>120.0</ele><time>2026-04-21T12:19:50Z</time></trkpt><trkpt lat="44.23518714366626" lon="9.714815873236601"><ele>120.0</ele><time>2026-04-21T12:19:51Z</time></trkpt><trkpt lat="44.235112810535625" lon="9.715000387093834"><ele>120.0</ele><time>2026-04-21T12:19:52Z</time></trkpt><trkpt lat="44.235027133149124" lon="9.715207050446582"><ele>120.0</ele><time>2026-04-21T12:19:53Z</time></trkpt><trkpt lat="44.234934258090036" lon="9.715427991509044"><ele>120.0</ele><time>2026-04-21T12:19:54Z</time></trkpt><trkpt lat="44.23484147384534" lon="9.715627758231207"><ele>118.0</ele><time>2026-04-21T12:19:55Z</time></trkpt><trkpt lat="44.23474439996909" lon="9.715820618126923"><ele>116.0</ele><time>2026-04-21T12:19:56Z</time></trkpt><trkpt lat="44.23463934057704" lon="9.716027604355187"><ele>114.0</ele><time>2026-04-21T12:19:57Z</time></trkpt><trkpt lat="44.234526004513434" lon="9.716234007388843"><ele>112.33333333333334</ele><time>2026-04-21T12:19:58Z</time></trkpt><trkpt lat="44.23441246346421" lon="9.716455844451453"><ele>110.66666666666667</ele><time>2026-04-21T12:19:59Z</time></trkpt><trkpt lat="44.2343047898038" lon="9.71666123012523"><ele>109.0</ele><time>2026-04-21T12:20:00Z</time></trkpt><trkpt lat="44.234194773054305" lon="9.716842574205494"><ele>109.0</ele><time>2026-04-21T12:20:01Z</time></trkpt><trkpt lat="44.23408819135868" lon="9.71702785657964"><ele>109.0</ele><time>2026-04-21T12:20:02Z</time></trkpt><trkpt lat="44.233995348002225" lon="9.717217653224905"><ele>109.0</ele><time>2026-04-21T12:20:03Z</time></trkpt><trkpt lat="44.233890427133424" lon="9.717398237182564"><ele>108.66666666666667</ele><time>2026-04-21T12:20:04Z</time></trkpt><trkpt lat="44.233793437947284" lon="9.717565024664477"><ele>108.33333333333334</ele><time>2026-04-21T12:20:05Z</time></trkpt><trkpt lat="44.2336923170656" lon="9.717744345419815"><ele>108.0</ele><time>2026-04-21T12:20:06Z</time></trkpt><trkpt lat="44.23359264295119" lon="9.71792849622442"><ele>108.0</ele><time>2026-04-21T12:20:07Z</time></trkpt><trkpt lat="44.23348356069699" lon="9.71812331036452"><ele>108.0</ele><time>2026-04-21T12:20:08Z</time></trkpt><trkpt lat="44.23337914364724" lon="9.718303042008232"><ele>108.0</ele><time>2026-04-21T12:20:09Z</time></trkpt><trkpt lat="44.23328255311161" lon="9.718475920192999"><ele>107.33333333333334</ele><time>2026-04-21T12:20:10Z</time></trkpt><trkpt lat="44.23318569598811" lon="9.718649203140885"><ele>106.66666666666667</ele><time>2026-04-21T12:20:11Z</time></trkpt><trkpt lat="44.23308905932062" lon="9.718819860780426"><ele>106.0</ele><time>2026-04-21T12:20:12Z</time></trkpt><trkpt lat="44.23297974219252" lon="9.7190108478872"><ele>105.66666666666667</ele><time>2026-04-21T12:20:13Z</time></trkpt><trkpt lat="44.23286355144862" lon="9.719212742306205"><ele>105.33333333333334</ele><time>2026-04-21T12:20:14Z</time></trkpt><trkpt lat="44.23275107063089" lon="9.719414217517178"><ele>105.0</ele><time>2026-04-21T12:20:15Z</time></trkpt><trkpt lat="44.232639136793146" lon="9.719606356580002"><ele>104.66666666666666</ele><time>2026-04-21T12:20:16Z</time></trkpt><trkpt lat="44.232522651338826" lon="9.71980761512936"><ele>104.33333333333333</ele><time>2026-04-21T12:20:17Z</time></trkpt><trkpt lat="44.23239776415131" lon="9.720024782362005"><ele>104.0</ele><time>2026-04-21T12:20:18Z</time></trkpt><trkpt lat="44.23226608876259" lon="9.72025755734042"><ele>103.0</ele><time>2026-04-21T12:20:19Z</time></trkpt><trkpt lat="44.2321280867271" lon="9.720505098978833"><ele>102.0</ele><time>2026-04-21T12:20:20Z</time></trkpt><trkpt lat="44.231983687976474" lon="9.720760570634488"><ele>102.0</ele><time>2026-04-21T12:20:21Z</time></trkpt><trkpt lat="44.23183948165933" lon="9.721013910588235"><ele>102.0</ele><time>2026-04-21T12:20:22Z</time></trkpt><trkpt lat="44.23168770987838" lon="9.721283416656473"><ele>102.0</ele><time>2026-04-21T12:20:23Z</time></trkpt><trkpt lat="44.231532291095505" lon="9.721552657378014"><ele>102.0</ele><time>2026-04-21T12:20:24Z</time></trkpt><trkpt lat="44.231375493046265" lon="9.721834871849945"><ele>101.5</ele><time>2026-04-21T12:20:25Z</time></trkpt><trkpt lat="44.231214052687406" lon="9.722115220055398"><ele>101.0</ele><time>2026-04-21T12:20:26Z</time></trkpt><trkpt lat="44.23105254744964" lon="9.722401902087098"><ele>101.0</ele><time>2026-04-21T12:20:27Z</time></trkpt><trkpt lat="44.230891481984145" lon="9.722683831992592"><ele>101.0</ele><time>2026-04-21T12:20:28Z</time></trkpt><trkpt lat="44.23072679093468" lon="9.722972401383768"><ele>100.5</ele><time>2026-04-21T12:20:29Z</time></trkpt><trkpt lat="44.23056382083685" lon="9.723260543574076"><ele>100.0</ele><time>2026-04-21T12:20:30Z</time></trkpt><trkpt lat="44.23039785747319" lon="9.723547881456907"><ele>101.0</ele><time>2026-04-21T12:20:31Z</time></trkpt><trkpt lat="44.23022816489098" lon="9.723839849327382"><ele>102.0</ele><time>2026-04-21T12:20:32Z</time></trkpt><trkpt lat="44.23006115747009" lon="9.724132340393817"><ele>102.0</ele><time>2026-04-21T12:20:33Z</time></trkpt><trkpt lat="44.22989342892119" lon="9.724425031388902"><ele>102.0</ele><time>2026-04-21T12:20:34Z</time></trkpt><trkpt lat="44.229729874526704" lon="9.724713768675915"><ele>102.0</ele><time>2026-04-21T12:20:35Z</time></trkpt><trkpt lat="44.22956487030511" lon="9.725001311879302"><ele>102.0</ele><time>2026-04-21T12:20:36Z</time></trkpt><trkpt lat="44.22940019241569" lon="9.725289268008465"><ele>102.0</ele><time>2026-04-21T12:20:37Z</time></trkpt><trkpt lat="44.229235473706346" lon="9.725578188304276"><ele>102.0</ele><time>2026-04-21T12:20:38Z</time></trkpt><trkpt lat="44.229070246931144" lon="9.725867870435797"><ele>102.5</ele><time>2026-04-21T12:20:39Z</time></trkpt><trkpt lat="44.228906306195185" lon="9.72615490230797"><ele>103.0</ele><time>2026-04-21T12:20:40Z</time></trkpt><trkpt lat="44.228746534399285" lon="9.7264353424695"><ele>103.0</ele><time>2026-04-21T12:20:41Z</time></trkpt><trkpt lat="44.22859178734805" lon="9.72670619981604"><ele>103.0</ele><time>2026-04-21T12:20:42Z</time></trkpt><trkpt lat="44.2284366299387" lon="9.726985256762076"><ele>103.5</ele><time>2026-04-21T12:20:43Z</time></trkpt><trkpt lat="44.22827756657901" lon="9.727266890655269"><ele>104.0</ele><time>2026-04-21T12:20:44Z</time></trkpt><trkpt lat="44.22811755596365" lon="9.727544388456568"><ele>103.0</ele><time>2026-04-21T12:20:45Z</time></trkpt><trkpt lat="44.227957890376906" lon="9.727825511709025"><ele>102.0</ele><time>2026-04-21T12:20:46Z</time></trkpt><trkpt lat="44.227793838854986" lon="9.728114664835903"><ele>102.0</ele><time>2026-04-21T12:20:47Z</time></trkpt><trkpt lat="44.22763394193479" lon="9.728392941719074"><ele>102.0</ele><time>2026-04-21T12:20:48Z</time></trkpt><trkpt lat="44.22747095167081" lon="9.728675237657928"><ele>103.0</ele><time>2026-04-21T12:20:49Z</time></trkpt><trkpt lat="44.22730906227783" lon="9.728960390399633"><ele>104.0</ele><time>2026-04-21T12:20:50Z</time></trkpt><trkpt lat="44.22714650841201" lon="9.72924796887078"><ele>105.5</ele><time>2026-04-21T12:20:51Z</time></trkpt><trkpt lat="44.22698335302086" lon="9.729532250064214"><ele>107.0</ele><time>2026-04-21T12:20:52Z</time></trkpt><trkpt lat="44.22682192000832" lon="9.729814857571764"><ele>107.0</ele><time>2026-04-21T12:20:53Z</time></trkpt><trkpt lat="44.22666026050995" lon="9.730101721607008"><ele>107.0</ele><time>2026-04-21T12:20:54Z</time></trkpt><trkpt lat="44.22649852541945" lon="9.730384380941281"><ele>105.5</ele><time>2026-04-21T12:20:55Z</time></trkpt><trkpt lat="44.226334486384935" lon="9.73066626382155"><ele>104.0</ele><time>2026-04-21T12:20:56Z</time></trkpt><trkpt lat="44.226172450668976" lon="9.73095529974908"><ele>103.5</ele><time>2026-04-21T12:20:57Z</time></trkpt><trkpt lat="44.22600948050542" lon="9.731244127645073"><ele>103.0</ele><time>2026-04-21T12:20:58Z</time></trkpt><trkpt lat="44.22584637507398" lon="9.731532165213583"><ele>103.0</ele><time>2026-04-21T12:20:59Z</time></trkpt><trkpt lat="44.22568283902468" lon="9.731823671513762"><ele>103.0</ele><time>2026-04-21T12:21:00Z</time></trkpt><trkpt lat="44.22552029739398" lon="9.732113129176849"><ele>101.5</ele><time>2026-04-21T12:21:01Z</time></trkpt><trkpt lat="44.225355620496394" lon="9.732399691565464"><ele>100.0</ele><time>2026-04-21T12:21:02Z</time></trkpt><trkpt lat="44.22519349558921" lon="9.732686655444216"><ele>101.0</ele><time>2026-04-21T12:21:03Z</time></trkpt><trkpt lat="44.225035654661056" lon="9.732971275268333"><ele>102.0</ele><time>2026-04-21T12:21:04Z</time></trkpt><trkpt lat="44.22488889602092" lon="9.733243456136693"><ele>100.66666666666666</ele><time>2026-04-21T12:21:05Z</time></trkpt><trkpt lat="44.22475565568227" lon="9.733498814161768"><ele>99.33333333333333</ele><time>2026-04-21T12:21:06Z</time></trkpt><trkpt lat="44.22463118478977" lon="9.73375073827621"><ele>98.0</ele><time>2026-04-21T12:21:07Z</time></trkpt><trkpt lat="44.22451386120601" lon="9.734018338525052"><ele>98.0</ele><time>2026-04-21T12:21:08Z</time></trkpt><trkpt lat="44.22440499391008" lon="9.734300951806196"><ele>98.0</ele><time>2026-04-21T12:21:09Z</time></trkpt><trkpt lat="44.22430372636811" lon="9.734592873640693"><ele>99.0</ele><time>2026-04-21T12:21:10Z</time></trkpt><trkpt lat="44.22421178955933" lon="9.734893370777776"><ele>100.0</ele><time>2026-04-21T12:21:11Z</time></trkpt><trkpt lat="44.22412943783293" lon="9.735200266363808"><ele>100.5</ele><time>2026-04-21T12:21:12.001Z</time></trkpt><trkpt lat="44.22405802756854" lon="9.735517732034857"><ele>101.0</ele><time>2026-04-21T12:21:13.001Z</time></trkpt><trkpt lat="44.22400044326721" lon="9.735830892938708"><ele>96.0</ele><time>2026-04-21T12:21:14.001Z</time></trkpt><trkpt lat="44.22395453658798" lon="9.736151105307243"><ele>91.0</ele><time>2026-04-21T12:21:15.001Z</time></trkpt><trkpt lat="44.223916590081416" lon="9.736479436128459"><ele>91.0</ele><time>2026-04-21T12:21:16.001Z</time></trkpt><trkpt lat="44.22389234517424" lon="9.736813549648485"><ele>91.0</ele><time>2026-04-21T12:21:17.001Z</time></trkpt><trkpt lat="44.22388232590583" lon="9.73715297939886"><ele>90.5</ele><time>2026-04-21T12:21:18.001Z</time></trkpt><trkpt lat="44.223882608499494" lon="9.73748527944912"><ele>90.0</ele><time>2026-04-21T12:21:19.001Z</time></trkpt><trkpt lat="44.22389515360745" lon="9.737801343447659"><ele>89.0</ele><time>2026-04-21T12:21:20.001Z</time></trkpt><trkpt lat="44.223917658984696" lon="9.738115039635595"><ele>88.0</ele><time>2026-04-21T12:21:21.001Z</time></trkpt><trkpt lat="44.2239500204281" lon="9.73843065493868"><ele>89.5</ele><time>2026-04-21T12:21:22.001Z</time></trkpt><trkpt lat="44.223991885573135" lon="9.738751664315647"><ele>91.0</ele><time>2026-04-21T12:21:23.001Z</time></trkpt><trkpt lat="44.224045263263534" lon="9.739069243025327"><ele>91.0</ele><time>2026-04-21T12:21:24.001Z</time></trkpt><trkpt lat="44.22410888096836" lon="9.739383925883024"><ele>91.0</ele><time>2026-04-21T12:21:25.001Z</time></trkpt><trkpt lat="44.22417436424698" lon="9.739700456385531"><ele>91.0</ele><time>2026-04-21T12:21:26.001Z</time></trkpt><trkpt lat="44.22424441911718" lon="9.74002386835108"><ele>91.0</ele><time>2026-04-21T12:21:27.001Z</time></trkpt><trkpt lat="44.22431441916671" lon="9.74034590267672"><ele>90.5</ele><time>2026-04-21T12:21:28.001Z</time></trkpt><trkpt lat="44.224387129539274" lon="9.74066922035556"><ele>90.0</ele><time>2026-04-21T12:21:29.001Z</time></trkpt><trkpt lat="44.224459093031676" lon="9.740977932308972"><ele>89.5</ele><time>2026-04-21T12:21:30Z</time></trkpt><trkpt lat="44.22453360733922" lon="9.741288817701525"><ele>89.0</ele><time>2026-04-21T12:21:31Z</time></trkpt><trkpt lat="44.224606091947024" lon="9.741597922177238"><ele>88.5</ele><time>2026-04-21T12:21:32Z</time></trkpt><trkpt lat="44.224679223120454" lon="9.741912657448545"><ele>88.0</ele><time>2026-04-21T12:21:33Z</time></trkpt><trkpt lat="44.22475108432416" lon="9.742231789667299"><ele>88.0</ele><time>2026-04-21T12:21:34Z</time></trkpt><trkpt lat="44.22482084032483" lon="9.742555742329309"><ele>88.0</ele><time>2026-04-21T12:21:35Z</time></trkpt><trkpt lat="44.22488455609641" lon="9.742878529150168"><ele>88.0</ele><time>2026-04-21T12:21:36Z</time></trkpt><trkpt lat="44.22493969418741" lon="9.743202806341174"><ele>88.0</ele><time>2026-04-21T12:21:37Z</time></trkpt><trkpt lat="44.22497889047506" lon="9.743526004716946"><ele>88.5</ele><time>2026-04-21T12:21:38Z</time></trkpt><trkpt lat="44.225005849842894" lon="9.743845940547471"><ele>89.0</ele><time>2026-04-21T12:21:39Z</time></trkpt><trkpt lat="44.225016499628715" lon="9.744158190042599"><ele>89.33333333333334</ele><time>2026-04-21T12:21:40Z</time></trkpt><trkpt lat="44.225017953303734" lon="9.744469510504183"><ele>89.66666666666667</ele><time>2026-04-21T12:21:41Z</time></trkpt><trkpt lat="44.22501047214849" lon="9.744783209250459"><ele>90.0</ele><time>2026-04-21T12:21:42Z</time></trkpt><trkpt lat="44.22499563258153" lon="9.745101894237953"><ele>89.5</ele><time>2026-04-21T12:21:43Z</time></trkpt><trkpt lat="44.22496995502079" lon="9.7454147445461"><ele>89.0</ele><time>2026-04-21T12:21:44Z</time></trkpt><trkpt lat="44.22493428485773" lon="9.745724208767417"><ele>89.0</ele><time>2026-04-21T12:21:45Z</time></trkpt><trkpt lat="44.22488666737541" lon="9.746024375739857"><ele>89.0</ele><time>2026-04-21T12:21:46Z</time></trkpt><trkpt lat="44.224834197044096" lon="9.74632505609433"><ele>89.0</ele><time>2026-04-21T12:21:47Z</time></trkpt><trkpt lat="44.224784912219846" lon="9.746616719885623"><ele>89.0</ele><time>2026-04-21T12:21:48Z</time></trkpt><trkpt lat="44.22473621133826" lon="9.746889940164536"><ele>89.0</ele><time>2026-04-21T12:21:49Z</time></trkpt><trkpt lat="44.22468583366667" lon="9.747151281666733"><ele>89.0</ele><time>2026-04-21T12:21:50Z</time></trkpt><trkpt lat="44.22463653247432" lon="9.747414111472997"><ele>89.0</ele><time>2026-04-21T12:21:51Z</time></trkpt><trkpt lat="44.22458646035537" lon="9.747678378578275"><ele>89.0</ele><time>2026-04-21T12:21:52Z</time></trkpt><trkpt lat="44.22453748352441" lon="9.74793658549193"><ele>89.0</ele><time>2026-04-21T12:21:53Z</time></trkpt><trkpt lat="44.224492357713686" lon="9.748188827903986"><ele>89.0</ele><time>2026-04-21T12:21:54Z</time></trkpt><trkpt lat="44.224446460358486" lon="9.748440020162857"><ele>89.0</ele><time>2026-04-21T12:21:55Z</time></trkpt><trkpt lat="44.22440280591164" lon="9.748683602888477"><ele>89.0</ele><time>2026-04-21T12:21:56Z</time></trkpt><trkpt lat="44.22435589551537" lon="9.74892987845683"><ele>89.0</ele><time>2026-04-21T12:21:57Z</time></trkpt><trkpt lat="44.22431097173907" lon="9.749175458201304"><ele>89.0</ele><time>2026-04-21T12:21:58Z</time></trkpt><trkpt lat="44.22426644774094" lon="9.749413481730473"><ele>89.0</ele><time>2026-04-21T12:21:59Z</time></trkpt><trkpt lat="44.22422313289948" lon="9.749654600385826"><ele>89.33333333333334</ele><time>2026-04-21T12:22:00Z</time></trkpt><trkpt lat="44.22417541074612" lon="9.749903169242565"><ele>89.66666666666667</ele><time>2026-04-21T12:22:01Z</time></trkpt><trkpt lat="44.22412723530554" lon="9.75016174396865"><ele>90.0</ele><time>2026-04-21T12:22:02Z</time></trkpt><trkpt lat="44.22407210401719" lon="9.750406620025155"><ele>89.0</ele><time>2026-04-21T12:22:03Z</time></trkpt><trkpt lat="44.224009355230415" lon="9.750652139735578"><ele>88.0</ele><time>2026-04-21T12:22:04Z</time></trkpt><trkpt lat="44.22393741123345" lon="9.750901335613113"><ele>87.0</ele><time>2026-04-21T12:22:05Z</time></trkpt><trkpt lat="44.223859494798546" lon="9.751143728047607"><ele>93.0</ele><time>2026-04-21T12:22:06Z</time></trkpt><trkpt lat="44.2237790150656" lon="9.751374820157139"><ele>99.0</ele><time>2026-04-21T12:22:07Z</time></trkpt><trkpt lat="44.22369377963052" lon="9.75159998796613"><ele>105.0</ele><time>2026-04-21T12:22:08Z</time></trkpt><trkpt lat="44.223602358623616" lon="9.75182548294865"><ele>100.33333333333333</ele><time>2026-04-21T12:22:09Z</time></trkpt><trkpt lat="44.223503986635514" lon="9.752049987834262"><ele>95.66666666666666</ele><time>2026-04-21T12:22:10Z</time></trkpt><trkpt lat="44.223398342097646" lon="9.752278967417901"><ele>91.0</ele><time>2026-04-21T12:22:11Z</time></trkpt><trkpt lat="44.223282843797755" lon="9.752508548222444"><ele>89.66666666666666</ele><time>2026-04-21T12:22:12Z</time></trkpt><trkpt lat="44.22315775374051" lon="9.752737213718836"><ele>88.33333333333333</ele><time>2026-04-21T12:22:13Z</time></trkpt><trkpt lat="44.223022179203525" lon="9.752963087363696"><ele>87.0</ele><time>2026-04-21T12:22:14Z</time></trkpt><trkpt lat="44.22287803156969" lon="9.753179048865416"><ele>88.0</ele><time>2026-04-21T12:22:15Z</time></trkpt><trkpt lat="44.222728238978185" lon="9.7533868193099"><ele>89.0</ele><time>2026-04-21T12:22:16Z</time></trkpt><trkpt lat="44.22257755354207" lon="9.75358121560949"><ele>90.0</ele><time>2026-04-21T12:22:17.001Z</time></trkpt><trkpt lat="44.222424436613004" lon="9.753767220267918"><ele>90.0</ele><time>2026-04-21T12:22:18.001Z</time></trkpt><trkpt lat="44.22226521830359" lon="9.753954234380036"><ele>90.0</ele><time>2026-04-21T12:22:19.001Z</time></trkpt><trkpt lat="44.22210901786864" lon="9.754134344066996"><ele>90.0</ele><time>2026-04-21T12:22:20.001Z</time></trkpt><trkpt lat="44.221946054434724" lon="9.75431383254428"><ele>87.66666666666667</ele><time>2026-04-21T12:22:21.001Z</time></trkpt><trkpt lat="44.221782914085885" lon="9.754498976779916"><ele>85.33333333333334</ele><time>2026-04-21T12:22:22.001Z</time></trkpt><trkpt lat="44.22162249240011" lon="9.75468239123658"><ele>83.0</ele><time>2026-04-21T12:22:23.001Z</time></trkpt><trkpt lat="44.221465706138915" lon="9.754861608359663"><ele>82.66666666666667</ele><time>2026-04-21T12:22:24.001Z</time></trkpt><trkpt lat="44.22130950108589" lon="9.755040284765721"><ele>82.33333333333333</ele><time>2026-04-21T12:22:25.001Z</time></trkpt><trkpt lat="44.22115576614881" lon="9.75521954271361"><ele>82.0</ele><time>2026-04-21T12:22:26.001Z</time></trkpt><trkpt lat="44.22100007192531" lon="9.75539896983683"><ele>84.33333333333333</ele><time>2026-04-21T12:22:27.001Z</time></trkpt><trkpt lat="44.220840594882745" lon="9.75557973028538"><ele>86.66666666666667</ele><time>2026-04-21T12:22:28.001Z</time></trkpt><trkpt lat="44.22067984625638" lon="9.755756989080583"><ele>89.0</ele><time>2026-04-21T12:22:29.001Z</time></trkpt><trkpt lat="44.220518590025335" lon="9.755929405202599"><ele>90.66666666666667</ele><time>2026-04-21T12:22:30.001Z</time></trkpt><trkpt lat="44.22035680050911" lon="9.756109385239313"><ele>92.33333333333333</ele><time>2026-04-21T12:22:31.001Z</time></trkpt><trkpt lat="44.220197064503246" lon="9.756287452973826"><ele>94.0</ele><time>2026-04-21T12:22:32.001Z</time></trkpt><trkpt lat="44.220040736463005" lon="9.756468914421774"><ele>94.0</ele><time>2026-04-21T12:22:33.001Z</time></trkpt><trkpt lat="44.21988861934326" lon="9.75664770926281"><ele>94.0</ele><time>2026-04-21T12:22:34.001Z</time></trkpt><trkpt lat="44.21974301724384" lon="9.756833014773639"><ele>94.0</ele><time>2026-04-21T12:22:35.001Z</time></trkpt><trkpt lat="44.21960521726791" lon="9.75701804291548"><ele>97.66666666666666</ele><time>2026-04-21T12:22:36.001Z</time></trkpt><trkpt lat="44.219469882416995" lon="9.757207674203888"><ele>101.33333333333333</ele><time>2026-04-21T12:22:37.001Z</time></trkpt><trkpt lat="44.219333839368254" lon="9.75739959125276"><ele>105.0</ele><time>2026-04-21T12:22:38.001Z</time></trkpt><trkpt lat="44.21919272462742" lon="9.757598273653754"><ele>109.66666666666666</ele><time>2026-04-21T12:22:39.001Z</time></trkpt><trkpt lat="44.219052369867065" lon="9.757808425220842"><ele>114.33333333333333</ele><time>2026-04-21T12:22:40.001Z</time></trkpt><trkpt lat="44.21890746604007" lon="9.758034110174028"><ele>119.0</ele><time>2026-04-21T12:22:41.001Z</time></trkpt><trkpt lat="44.21876744519735" lon="9.758252691473462"><ele>133.66666666666666</ele><time>2026-04-21T12:22:42.001Z</time></trkpt><trkpt lat="44.21862614478683" lon="9.758471940216594"><ele>148.33333333333334</ele><time>2026-04-21T12:22:43.001Z</time></trkpt><trkpt lat="44.218485056720525" lon="9.758692471912576"><ele>163.0</ele><time>2026-04-21T12:22:44.001Z</time></trkpt><trkpt lat="44.21834346934001" lon="9.758916021331407"><ele>177.0</ele><time>2026-04-21T12:22:45.001Z</time></trkpt><trkpt lat="44.21819691809001" lon="9.759143976347804"><ele>191.0</ele><time>2026-04-21T12:22:46.001Z</time></trkpt><trkpt lat="44.2180401760807" lon="9.759388744378963"><ele>203.33333333333331</ele><time>2026-04-21T12:22:47.068Z</time></trkpt><trkpt lat="44.217894301704135" lon="9.759619948484495"><ele>215.66666666666666</ele><time>2026-04-21T12:22:48.061Z</time></trkpt><trkpt lat="44.21774454219507" lon="9.75985886557892"><ele>228.0</ele><time>2026-04-21T12:22:49.05Z</time></trkpt><trkpt lat="44.21758815088566" lon="9.760104099435766"><ele>233.0</ele><time>2026-04-21T12:22:50.051Z</time></trkpt><trkpt lat="44.21743391860251" lon="9.760341155131831"><ele>238.0</ele><time>2026-04-21T12:22:51.044Z</time></trkpt><trkpt lat="44.21728202316242" lon="9.7605695940744"><ele>213.5</ele><time>2026-04-21T12:22:52.03Z</time></trkpt><trkpt lat="44.21712956596837" lon="9.76079924284262"><ele>189.0</ele><time>2026-04-21T12:22:53.029Z</time></trkpt><trkpt lat="44.215372188114934" lon="9.763315203866616"><ele>159.33333333333334</ele><time>2026-04-21T12:23:07.001Z</time></trkpt><trkpt lat="44.21525357595123" lon="9.763492894345111"><ele>129.66666666666669</ele><time>2026-04-21T12:23:08.001Z</time></trkpt><trkpt lat="44.21510677836991" lon="9.763706479800907"><ele>100.0</ele><time>2026-04-21T12:23:09.001Z</time></trkpt><trkpt lat="44.21496767766102" lon="9.763897033790109"><ele>100.0</ele><time>2026-04-21T12:23:10.001Z</time></trkpt><trkpt lat="44.2148526735715" lon="9.764095231390806"><ele>100.0</ele><time>2026-04-21T12:23:11.001Z</time></trkpt><trkpt lat="44.21472930985802" lon="9.764284093219693"><ele>100.0</ele><time>2026-04-21T12:23:12.001Z</time></trkpt><trkpt lat="44.214611103974576" lon="9.76447688241775"><ele>97.33333333333334</ele><time>2026-04-21T12:23:13.001Z</time></trkpt><trkpt lat="44.21449125584407" lon="9.764664728959914"><ele>94.66666666666667</ele><time>2026-04-21T12:23:14.001Z</time></trkpt><trkpt lat="44.214366770664405" lon="9.764861387922476"><ele>92.0</ele><time>2026-04-21T12:23:15.001Z</time></trkpt><trkpt lat="44.2142393556555" lon="9.765057156100237"><ele>91.0</ele><time>2026-04-21T12:23:16.001Z</time></trkpt><trkpt lat="44.214110991718556" lon="9.765258557529998"><ele>90.0</ele><time>2026-04-21T12:23:17.001Z</time></trkpt><trkpt lat="44.21398382287634" lon="9.765457189763062"><ele>89.0</ele><time>2026-04-21T12:23:18.001Z</time></trkpt><trkpt lat="44.21385990926039" lon="9.765648629127941"><ele>89.0</ele><time>2026-04-21T12:23:19.001Z</time></trkpt><trkpt lat="44.21373939355094" lon="9.765836904832556"><ele>89.0</ele><time>2026-04-21T12:23:20.001Z</time></trkpt><trkpt lat="44.213615568459254" lon="9.766025723312762"><ele>89.0</ele><time>2026-04-21T12:23:21.001Z</time></trkpt><trkpt lat="44.21349223041227" lon="9.7662153800383"><ele>96.0</ele><time>2026-04-21T12:23:22.001Z</time></trkpt><trkpt lat="44.213371224712965" lon="9.766403335039662"><ele>103.0</ele><time>2026-04-21T12:23:23.001Z</time></trkpt><trkpt lat="44.21324829889594" lon="9.766592510946786"><ele>110.0</ele><time>2026-04-21T12:23:24.001Z</time></trkpt><trkpt lat="44.21312637457114" lon="9.766783241769973"><ele>123.66666666666666</ele><time>2026-04-21T12:23:25.001Z</time></trkpt><trkpt lat="44.21300342053249" lon="9.766973249442799"><ele>137.33333333333334</ele><time>2026-04-21T12:23:26.001Z</time></trkpt><trkpt lat="44.21287481498507" lon="9.767166963063227"><ele>151.0</ele><time>2026-04-21T12:23:27.001Z</time></trkpt><trkpt lat="44.212746593727665" lon="9.767366792758994"><ele>151.0</ele><time>2026-04-21T12:23:28.001Z</time></trkpt><trkpt lat="44.21262019801564" lon="9.767564724856475"><ele>151.0</ele><time>2026-04-21T12:23:29.001Z</time></trkpt><trkpt lat="44.21249513046888" lon="9.76776117820278"><ele>151.0</ele><time>2026-04-21T12:23:30.001Z</time></trkpt><trkpt lat="44.21237058520125" lon="9.767961610881274"><ele>159.0</ele><time>2026-04-21T12:23:31.001Z</time></trkpt><trkpt lat="44.21224538321835" lon="9.768170108453045"><ele>167.0</ele><time>2026-04-21T12:23:32.001Z</time></trkpt><trkpt lat="44.21211638480374" lon="9.76838999206263"><ele>175.0</ele><time>2026-04-21T12:23:33.001Z</time></trkpt><trkpt lat="44.211980226553635" lon="9.768628417453778"><ele>187.33333333333334</ele><time>2026-04-21T12:23:34.068Z</time></trkpt><trkpt lat="44.211858523940684" lon="9.768850655676758"><ele>199.66666666666669</ele><time>2026-04-21T12:23:35.055Z</time></trkpt><trkpt lat="44.21172232396657" lon="9.769046052073616"><ele>212.0</ele><time>2026-04-21T12:23:36.054Z</time></trkpt><trkpt lat="44.21158916254883" lon="9.769247319524128"><ele>321.0</ele><time>2026-04-21T12:23:37.051Z</time></trkpt><trkpt lat="44.209558857198374" lon="9.772182925544096"><ele>353.0</ele><time>2026-04-21T12:23:41.564Z</time></trkpt><trkpt lat="44.20894954512177" lon="9.773099941864585"><ele>381.0</ele><time>2026-04-21T12:23:42.561Z</time></trkpt><trkpt lat="44.20836795204035" lon="9.774052711140039"><ele>350.0</ele><time>2026-04-21T12:23:43.56Z</time></trkpt><trkpt lat="44.207836761958966" lon="9.775069033663526"><ele>267.0</ele><time>2026-04-21T12:23:44.565Z</time></trkpt><trkpt lat="44.207360340622905" lon="9.77613058166547"><ele>238.0</ele><time>2026-04-21T12:23:45.565Z</time></trkpt><trkpt lat="44.20694572212109" lon="9.777237546238817"><ele>211.0</ele><time>2026-04-21T12:23:46.563Z</time></trkpt><trkpt lat="44.20659029144117" lon="9.778389531176472"><ele>158.0</ele><time>2026-04-21T12:23:47.565Z</time></trkpt><trkpt lat="44.20629335363275" lon="9.77957019218768"><ele>117.0</ele><time>2026-04-21T12:23:48.565Z</time></trkpt><trkpt lat="44.2060629556692" lon="9.780779398511084"><ele>99.0</ele><time>2026-04-21T12:23:49.565Z</time></trkpt><trkpt lat="44.20590018629654" lon="9.781740645707089"><ele>95.0</ele><time>2026-04-21T12:24:25.001Z</time></trkpt><trkpt lat="44.20586945246942" lon="9.782000501023662"><ele>91.0</ele><time>2026-04-21T12:24:26.001Z</time></trkpt><trkpt lat="44.20583226822273" lon="9.78226976453942"><ele>87.0</ele><time>2026-04-21T12:24:27.001Z</time></trkpt><trkpt lat="44.20581568747356" lon="9.782539449148574"><ele>85.33333333333333</ele><time>2026-04-21T12:24:28.001Z</time></trkpt><trkpt lat="44.205782231605866" lon="9.782799995736235"><ele>83.66666666666666</ele><time>2026-04-21T12:24:29.001Z</time></trkpt><trkpt lat="44.20576562577088" lon="9.783057872404827"><ele>82.0</ele><time>2026-04-21T12:24:30.001Z</time></trkpt><trkpt lat="44.20575632552585" lon="9.783321371114244"><ele>80.66666666666666</ele><time>2026-04-21T12:24:31.001Z</time></trkpt><trkpt lat="44.20574523723114" lon="9.783595952321354"><ele>79.33333333333333</ele><time>2026-04-21T12:24:32.001Z</time></trkpt><trkpt lat="44.20573511340394" lon="9.783857131376333"><ele>78.0</ele><time>2026-04-21T12:24:33.001Z</time></trkpt><trkpt lat="44.20570960683647" lon="9.784149269628818"><ele>77.0</ele><time>2026-04-21T12:24:34.001Z</time></trkpt><trkpt lat="44.2057010930259" lon="9.784426430575932"><ele>76.0</ele><time>2026-04-21T12:24:35.001Z</time></trkpt><trkpt lat="44.20569051686751" lon="9.784699920159069"><ele>75.0</ele><time>2026-04-21T12:24:36.001Z</time></trkpt><trkpt lat="44.20567810094204" lon="9.784978677081988"><ele>74.0</ele><time>2026-04-21T12:24:37.001Z</time></trkpt><trkpt lat="44.20566854049093" lon="9.78526923565021"><ele>73.0</ele><time>2026-04-21T12:24:38.001Z</time></trkpt><trkpt lat="44.205656797442586" lon="9.785587812289243"><ele>72.0</ele><time>2026-04-21T12:24:39.001Z</time></trkpt><trkpt lat="44.20564698471351" lon="9.78589541989479"><ele>70.0</ele><time>2026-04-21T12:24:40.001Z</time></trkpt><trkpt lat="44.20563699973525" lon="9.786196901013602"><ele>68.0</ele><time>2026-04-21T12:24:41.001Z</time></trkpt><trkpt lat="44.20563435995206" lon="9.786503777301771"><ele>66.0</ele><time>2026-04-21T12:24:42.001Z</time></trkpt><trkpt lat="44.20562204784287" lon="9.786816104626075"><ele>65.0</ele><time>2026-04-21T12:24:43.001Z</time></trkpt><trkpt lat="44.2056083033209" lon="9.787139568427314"><ele>64.0</ele><time>2026-04-21T12:24:44.001Z</time></trkpt><trkpt lat="44.20560104291326" lon="9.78745248492196"><ele>64.33333333333333</ele><time>2026-04-21T12:24:45.001Z</time></trkpt><trkpt lat="44.20559215400749" lon="9.78775984736904"><ele>64.66666666666667</ele><time>2026-04-21T12:24:46.001Z</time></trkpt><trkpt lat="44.20558290864625" lon="9.788077466161315"><ele>65.0</ele><time>2026-04-21T12:24:47.001Z</time></trkpt><trkpt lat="44.20556525612222" lon="9.78840208457881"><ele>64.0</ele><time>2026-04-21T12:24:48Z</time></trkpt><trkpt lat="44.20557975859106" lon="9.788725446325325"><ele>63.0</ele><time>2026-04-21T12:24:49Z</time></trkpt><trkpt lat="44.20556302118048" lon="9.78905193298875"><ele>63.5</ele><time>2026-04-21T12:24:50Z</time></trkpt><trkpt lat="44.20555188018066" lon="9.78938549512061"><ele>64.0</ele><time>2026-04-21T12:24:51Z</time></trkpt><trkpt lat="44.205539962394504" lon="9.789706176733135"><ele>64.0</ele><time>2026-04-21T12:24:52Z</time></trkpt><trkpt lat="44.205530263725215" lon="9.790019070153564"><ele>64.0</ele><time>2026-04-21T12:24:53Z</time></trkpt><trkpt lat="44.2055198657882" lon="9.790339743057624"><ele>62.5</ele><time>2026-04-21T12:24:54Z</time></trkpt><trkpt lat="44.205508256930514" lon="9.790650480238373"><ele>61.0</ele><time>2026-04-21T12:24:55Z</time></trkpt><trkpt lat="44.20549464957706" lon="9.790966293433556"><ele>60.0</ele><time>2026-04-21T12:24:56Z</time></trkpt><trkpt lat="44.20548226776743" lon="9.791292767394411"><ele>59.0</ele><time>2026-04-21T12:24:57Z</time></trkpt><trkpt lat="44.20547063266898" lon="9.791623961013844"><ele>58.5</ele><time>2026-04-21T12:24:58Z</time></trkpt><trkpt lat="44.205460194542724" lon="9.791954640381498"><ele>58.0</ele><time>2026-04-21T12:24:59Z</time></trkpt><trkpt lat="44.20545013096259" lon="9.79228256799941"><ele>58.0</ele><time>2026-04-21T12:25:00Z</time></trkpt><trkpt lat="44.205439044478105" lon="9.792611626726787"><ele>58.0</ele><time>2026-04-21T12:25:01Z</time></trkpt><trkpt lat="44.20542907063244" lon="9.792940126292494"><ele>57.0</ele><time>2026-04-21T12:25:02Z</time></trkpt><trkpt lat="44.20541651060125" lon="9.793265875400335"><ele>56.0</ele><time>2026-04-21T12:25:03Z</time></trkpt><trkpt lat="44.205403328490405" lon="9.793593165912704"><ele>56.0</ele><time>2026-04-21T12:25:04Z</time></trkpt><trkpt lat="44.20539176567071" lon="9.793911707216626"><ele>56.0</ele><time>2026-04-21T12:25:05Z</time></trkpt><trkpt lat="44.20537841797732" lon="9.794214951657821"><ele>56.0</ele><time>2026-04-21T12:25:06Z</time></trkpt><trkpt lat="44.205367059261974" lon="9.794504602999941"><ele>56.0</ele><time>2026-04-21T12:25:07Z</time></trkpt><trkpt lat="44.20535637476731" lon="9.794792595845308"><ele>56.0</ele><time>2026-04-21T12:25:08Z</time></trkpt><trkpt lat="44.20534747275133" lon="9.7950770003308"><ele>56.0</ele><time>2026-04-21T12:25:09Z</time></trkpt><trkpt lat="44.20533492159076" lon="9.795364916219023"><ele>56.333333333333336</ele><time>2026-04-21T12:25:10Z</time></trkpt><trkpt lat="44.20532168981863" lon="9.795656906233647"><ele>56.66666666666667</ele><time>2026-04-21T12:25:11Z</time></trkpt><trkpt lat="44.20530814418069" lon="9.795948867524148"><ele>57.0</ele><time>2026-04-21T12:25:12Z</time></trkpt><trkpt lat="44.20529432146686" lon="9.796237303427471"><ele>57.0</ele><time>2026-04-21T12:25:13Z</time></trkpt><trkpt lat="44.20527504364949" lon="9.796514665041116"><ele>57.0</ele><time>2026-04-21T12:25:14Z</time></trkpt><trkpt lat="44.20524980052651" lon="9.796784885141342"><ele>57.0</ele><time>2026-04-21T12:25:15Z</time></trkpt><trkpt lat="44.205219133720746" lon="9.797041936221897"><ele>56.66666666666667</ele><time>2026-04-21T12:25:16Z</time></trkpt><trkpt lat="44.20518053205451" lon="9.797289463789692"><ele>56.333333333333336</ele><time>2026-04-21T12:25:17Z</time></trkpt><trkpt lat="44.20513459734401" lon="9.797534252237298"><ele>56.0</ele><time>2026-04-21T12:25:18Z</time></trkpt><trkpt lat="44.205082270744775" lon="9.79778202850844"><ele>56.0</ele><time>2026-04-21T12:25:19Z</time></trkpt><trkpt lat="44.205021097382264" lon="9.798029194557436"><ele>56.0</ele><time>2026-04-21T12:25:20Z</time></trkpt><trkpt lat="44.20495042139667" lon="9.79827307119199"><ele>56.0</ele><time>2026-04-21T12:25:21Z</time></trkpt><trkpt lat="44.204872111781995" lon="9.798515421274626"><ele>55.333333333333336</ele><time>2026-04-21T12:25:22Z</time></trkpt><trkpt lat="44.20478575168709" lon="9.79875715215825"><ele>54.66666666666667</ele><time>2026-04-21T12:25:23Z</time></trkpt><trkpt lat="44.20469040446724" lon="9.798999203958472"><ele>54.0</ele><time>2026-04-21T12:25:24Z</time></trkpt><trkpt lat="44.20458282533133" lon="9.799240092914966"><ele>53.66666666666667</ele><time>2026-04-21T12:25:25Z</time></trkpt><trkpt lat="44.20446692438288" lon="9.799490487210232"><ele>53.333333333333336</ele><time>2026-04-21T12:25:26Z</time></trkpt><trkpt lat="44.20434411687969" lon="9.799746368467348"><ele>53.0</ele><time>2026-04-21T12:25:27Z</time></trkpt><trkpt lat="44.20421522743491" lon="9.800004715277357"><ele>52.66666666666667</ele><time>2026-04-21T12:25:28Z</time></trkpt><trkpt lat="44.204089855592535" lon="9.800261784961561"><ele>52.33333333333333</ele><time>2026-04-21T12:25:29Z</time></trkpt><trkpt lat="44.20397369793415" lon="9.8005038102172"><ele>52.0</ele><time>2026-04-21T12:25:30Z</time></trkpt><trkpt lat="44.20385271406726" lon="9.800750191183775"><ele>52.0</ele><time>2026-04-21T12:25:31Z</time></trkpt><trkpt lat="44.2037313186995" lon="9.800996507196475"><ele>52.0</ele><time>2026-04-21T12:25:32Z</time></trkpt><trkpt lat="44.20360806739979" lon="9.801239893192761"><ele>52.0</ele><time>2026-04-21T12:25:33Z</time></trkpt><trkpt lat="44.20348629827432" lon="9.801486917875277"><ele>52.33333333333333</ele><time>2026-04-21T12:25:34Z</time></trkpt><trkpt lat="44.20336367740637" lon="9.801731365983631"><ele>52.66666666666667</ele><time>2026-04-21T12:25:35Z</time></trkpt><trkpt lat="44.20323777493066" lon="9.801984062339763"><ele>53.0</ele><time>2026-04-21T12:25:36Z</time></trkpt><trkpt lat="44.203115872318456" lon="9.80222755349909"><ele>53.66666666666667</ele><time>2026-04-21T12:25:37Z</time></trkpt><trkpt lat="44.20299708853138" lon="9.80246566547506"><ele>54.33333333333333</ele><time>2026-04-21T12:25:38Z</time></trkpt><trkpt lat="44.20288026410039" lon="9.802701013363299"><ele>55.0</ele><time>2026-04-21T12:25:39Z</time></trkpt><trkpt lat="44.20276047137484" lon="9.802934867268869"><ele>55.33333333333333</ele><time>2026-04-21T12:25:40Z</time></trkpt><trkpt lat="44.202640808058355" lon="9.80317431636682"><ele>55.66666666666667</ele><time>2026-04-21T12:25:41Z</time></trkpt><trkpt lat="44.202515956229675" lon="9.80342516754978"><ele>56.0</ele><time>2026-04-21T12:25:42Z</time></trkpt><trkpt lat="44.20238930453967" lon="9.80367809789604"><ele>56.66666666666667</ele><time>2026-04-21T12:25:43Z</time></trkpt><trkpt lat="44.20226281034776" lon="9.803937062115866"><ele>57.33333333333333</ele><time>2026-04-21T12:25:44Z</time></trkpt><trkpt lat="44.20214054574146" lon="9.804185985292873"><ele>58.0</ele><time>2026-04-21T12:25:45Z</time></trkpt><trkpt lat="44.20202322756033" lon="9.804422261581324"><ele>58.0</ele><time>2026-04-21T12:25:46Z</time></trkpt><trkpt lat="44.20190898235589" lon="9.804645014552593"><ele>58.0</ele><time>2026-04-21T12:25:47Z</time></trkpt><trkpt lat="44.20180512544141" lon="9.804853264631031"><ele>58.0</ele><time>2026-04-21T12:25:48Z</time></trkpt><trkpt lat="44.2017132952669" lon="9.805034053155754"><ele>57.599999999999994</ele><time>2026-04-21T12:25:49Z</time></trkpt><trkpt lat="44.201630145308684" lon="9.805188985745989"><ele>57.199999999999996</ele><time>2026-04-21T12:25:50Z</time></trkpt><trkpt lat="44.201551159453665" lon="9.805317053600207"><ele>56.8</ele><time>2026-04-21T12:25:51Z</time></trkpt><trkpt lat="44.20148843242676" lon="9.805419646105854"><ele>56.4</ele><time>2026-04-21T12:25:52Z</time></trkpt><trkpt lat="44.201436579524454" lon="9.805499986883095"><ele>56.0</ele><time>2026-04-21T12:25:53Z</time></trkpt><trkpt lat="44.20137973595112" lon="9.805601571352671"><ele>56.0</ele><time>2026-04-21T12:25:55Z</time></trkpt><trkpt lat="44.20132770117678" lon="9.805723903779409"><ele>56.0</ele><time>2026-04-21T12:35:47Z</time></trkpt><trkpt lat="44.201271695416686" lon="9.805855331744315"><ele>56.0</ele><time>2026-04-21T12:35:48Z</time></trkpt><trkpt lat="44.20121167077732" lon="9.806001096571245"><ele>56.0</ele><time>2026-04-21T12:35:49Z</time></trkpt><trkpt lat="44.201148405104945" lon="9.80617692411825"><ele>56.66666666666667</ele><time>2026-04-21T12:35:50Z</time></trkpt><trkpt lat="44.201064918414204" lon="9.806365985436619"><ele>57.33333333333333</ele><time>2026-04-21T12:35:51Z</time></trkpt><trkpt lat="44.200974729989" lon="9.806559989459014"><ele>58.0</ele><time>2026-04-21T12:35:52Z</time></trkpt><trkpt lat="44.2008758001933" lon="9.806763809023701"><ele>56.666666666666664</ele><time>2026-04-21T12:35:53Z</time></trkpt><trkpt lat="44.20077132084793" lon="9.8069716101886"><ele>55.33333333333333</ele><time>2026-04-21T12:35:54Z</time></trkpt><trkpt lat="44.200665809191854" lon="9.807171782728144"><ele>54.0</ele><time>2026-04-21T12:35:55Z</time></trkpt><trkpt lat="44.200553781494484" lon="9.807391323251888"><ele>54.0</ele><time>2026-04-21T12:35:56Z</time></trkpt><trkpt lat="44.20043985562787" lon="9.80763288477261"><ele>54.0</ele><time>2026-04-21T12:35:57Z</time></trkpt><trkpt lat="44.200317837678746" lon="9.807876835797577"><ele>54.0</ele><time>2026-04-21T12:35:58Z</time></trkpt><trkpt lat="44.20019953656051" lon="9.808120499535212"><ele>55.0</ele><time>2026-04-21T12:35:59Z</time></trkpt><trkpt lat="44.20007935323928" lon="9.808366715567315"><ele>56.0</ele><time>2026-04-21T12:36:00Z</time></trkpt><trkpt lat="44.19996460396565" lon="9.80860544825821"><ele>57.0</ele><time>2026-04-21T12:36:01Z</time></trkpt><trkpt lat="44.19984533454685" lon="9.808839869799634"><ele>56.66666666666667</ele><time>2026-04-21T12:36:02Z</time></trkpt><trkpt lat="44.199718589489116" lon="9.809090668666604"><ele>56.333333333333336</ele><time>2026-04-21T12:36:03Z</time></trkpt><trkpt lat="44.19959893156751" lon="9.80933747406921"><ele>56.0</ele><time>2026-04-21T12:36:04Z</time></trkpt><trkpt lat="44.19948207656562" lon="9.809575414818113"><ele>56.333333333333336</ele><time>2026-04-21T12:36:05Z</time></trkpt><trkpt lat="44.19936572944235" lon="9.809807350389438"><ele>56.66666666666667</ele><time>2026-04-21T12:36:06Z</time></trkpt><trkpt lat="44.19924206674848" lon="9.81005538068373"><ele>57.0</ele><time>2026-04-21T12:36:07Z</time></trkpt><trkpt lat="44.19911668187532" lon="9.810308392930562"><ele>56.0</ele><time>2026-04-21T12:36:08Z</time></trkpt><trkpt lat="44.19899422311208" lon="9.810561310316038"><ele>55.0</ele><time>2026-04-21T12:36:09Z</time></trkpt><trkpt lat="44.198872496340364" lon="9.810821894166912"><ele>54.0</ele><time>2026-04-21T12:36:10Z</time></trkpt><trkpt lat="44.198759924762584" lon="9.811085591394669"><ele>54.0</ele><time>2026-04-21T12:36:11Z</time></trkpt><trkpt lat="44.19865261594154" lon="9.811358937058575"><ele>54.0</ele><time>2026-04-21T12:36:12Z</time></trkpt><trkpt lat="44.19855320503947" lon="9.811645173350486"><ele>54.0</ele><time>2026-04-21T12:36:13Z</time></trkpt><trkpt lat="44.19846228433716" lon="9.81193776859608"><ele>54.0</ele><time>2026-04-21T12:36:14Z</time></trkpt><trkpt lat="44.198381574728124" lon="9.812237649792845"><ele>54.0</ele><time>2026-04-21T12:36:15Z</time></trkpt><trkpt lat="44.19831061493653" lon="9.812549618571875"><ele>54.0</ele><time>2026-04-21T12:36:16Z</time></trkpt><trkpt lat="44.1982449086577" lon="9.812848211900622"><ele>53.66666666666667</ele><time>2026-04-21T12:36:17Z</time></trkpt><trkpt lat="44.19820514315393" lon="9.813146296044485"><ele>53.333333333333336</ele><time>2026-04-21T12:36:18Z</time></trkpt><trkpt lat="44.19817289818504" lon="9.813459594222472"><ele>53.0</ele><time>2026-04-21T12:36:19Z</time></trkpt><trkpt lat="44.19814851827013" lon="9.813775353530794"><ele>53.0</ele><time>2026-04-21T12:36:20Z</time></trkpt><trkpt lat="44.19813463959324" lon="9.81410396506261"><ele>53.0</ele><time>2026-04-21T12:36:21Z</time></trkpt><trkpt lat="44.198132298424184" lon="9.814437855086876"><ele>52.5</ele><time>2026-04-21T12:36:22Z</time></trkpt><trkpt lat="44.19814206100237" lon="9.814775712285623"><ele>52.0</ele><time>2026-04-21T12:36:23Z</time></trkpt><trkpt lat="44.19816363438114" lon="9.815119741491724"><ele>52.0</ele><time>2026-04-21T12:36:24Z</time></trkpt><trkpt lat="44.19818646191575" lon="9.815463865230916"><ele>52.0</ele><time>2026-04-21T12:36:25Z</time></trkpt><trkpt lat="44.19820860150602" lon="9.815810433734883"><ele>52.5</ele><time>2026-04-21T12:36:26Z</time></trkpt><trkpt lat="44.19823302532241" lon="9.816161759766253"><ele>53.0</ele><time>2026-04-21T12:36:27Z</time></trkpt><trkpt lat="44.198250267610916" lon="9.816505712963512"><ele>52.0</ele><time>2026-04-21T12:36:28Z</time></trkpt><trkpt lat="44.19827529247763" lon="9.816849923348363"><ele>51.0</ele><time>2026-04-21T12:36:29Z</time></trkpt><trkpt lat="44.19830228673564" lon="9.81718624710478"><ele>51.0</ele><time>2026-04-21T12:36:30Z</time></trkpt><trkpt lat="44.198321718212135" lon="9.817518392239489"><ele>51.0</ele><time>2026-04-21T12:36:31Z</time></trkpt><trkpt lat="44.198339581129204" lon="9.817846502684827"><ele>52.5</ele><time>2026-04-21T12:36:32Z</time></trkpt><trkpt lat="44.1983582764576" lon="9.81817494333385"><ele>54.0</ele><time>2026-04-21T12:36:33Z</time></trkpt><trkpt lat="44.19837779539324" lon="9.818503222383677"><ele>56.0</ele><time>2026-04-21T12:36:34Z</time></trkpt><trkpt lat="44.19839997126784" lon="9.818841864955301"><ele>58.0</ele><time>2026-04-21T12:36:35Z</time></trkpt><trkpt lat="44.19842149353583" lon="9.819170560765274"><ele>56.5</ele><time>2026-04-21T12:36:36Z</time></trkpt><trkpt lat="44.19844155835927" lon="9.819493906259604"><ele>55.0</ele><time>2026-04-21T12:36:37Z</time></trkpt><trkpt lat="44.1984598535615" lon="9.819819779118225"><ele>53.5</ele><time>2026-04-21T12:36:38Z</time></trkpt><trkpt lat="44.19847688052088" lon="9.82015320827283"><ele>52.0</ele><time>2026-04-21T12:36:39Z</time></trkpt><trkpt lat="44.1984982850041" lon="9.820488276316444"><ele>52.0</ele><time>2026-04-21T12:36:40Z</time></trkpt><trkpt lat="44.19852065061392" lon="9.820826698533944"><ele>52.0</ele><time>2026-04-21T12:36:41Z</time></trkpt><trkpt lat="44.19854318089802" lon="9.821168961494074"><ele>52.0</ele><time>2026-04-21T12:36:42Z</time></trkpt><trkpt lat="44.198565781595995" lon="9.821514488521666"><ele>52.0</ele><time>2026-04-21T12:36:43Z</time></trkpt><trkpt lat="44.19858612316432" lon="9.821859867340983"><ele>52.0</ele><time>2026-04-21T12:36:44Z</time></trkpt><trkpt lat="44.198607589029145" lon="9.822209787893966"><ele>52.0</ele><time>2026-04-21T12:36:45Z</time></trkpt><trkpt lat="44.19862549310968" lon="9.822557605348031"><ele>51.0</ele><time>2026-04-21T12:36:46Z</time></trkpt><trkpt lat="44.19864895912713" lon="9.822904602101254"><ele>50.0</ele><time>2026-04-21T12:36:47Z</time></trkpt><trkpt lat="44.19867138572881" lon="9.823248475037188"><ele>50.0</ele><time>2026-04-21T12:36:48Z</time></trkpt><trkpt lat="44.1986950068383" lon="9.823594985246462"><ele>50.0</ele><time>2026-04-21T12:36:49Z</time></trkpt><trkpt lat="44.198717336568706" lon="9.823938196607072"><ele>50.0</ele><time>2026-04-21T12:36:50Z</time></trkpt><trkpt lat="44.19874051371929" lon="9.824280885769106"><ele>50.0</ele><time>2026-04-21T12:36:51Z</time></trkpt><trkpt lat="44.19876055281028" lon="9.824620683145747"><ele>50.5</ele><time>2026-04-21T12:36:52Z</time></trkpt><trkpt lat="44.19878100877226" lon="9.824959238078998"><ele>51.0</ele><time>2026-04-21T12:36:53Z</time></trkpt><trkpt lat="44.19880170360046" lon="9.825297187147987"><ele>51.0</ele><time>2026-04-21T12:36:54Z</time></trkpt><trkpt lat="44.198822458854636" lon="9.82562875348563"><ele>51.0</ele><time>2026-04-21T12:36:55Z</time></trkpt><trkpt lat="44.19884385428709" lon="9.825962330381584"><ele>52.0</ele><time>2026-04-21T12:36:56Z</time></trkpt><trkpt lat="44.19886609837154" lon="9.826293769176852"><ele>53.0</ele><time>2026-04-21T12:36:57Z</time></trkpt><trkpt lat="44.19888768735868" lon="9.826624824074495"><ele>51.5</ele><time>2026-04-21T12:36:58Z</time></trkpt><trkpt lat="44.19890870135188" lon="9.826960032543688"><ele>50.0</ele><time>2026-04-21T12:36:59Z</time></trkpt><trkpt lat="44.198926844316645" lon="9.827287923692104"><ele>50.0</ele><time>2026-04-21T12:37:00Z</time></trkpt><trkpt lat="44.19894665124926" lon="9.82762264776942"><ele>50.0</ele><time>2026-04-21T12:37:01Z</time></trkpt><trkpt lat="44.19896790905518" lon="9.827953059456526"><ele>49.5</ele><time>2026-04-21T12:37:02Z</time></trkpt><trkpt lat="44.198990080876825" lon="9.828285861388107"><ele>49.0</ele><time>2026-04-21T12:37:03Z</time></trkpt><trkpt lat="44.19901323731424" lon="9.82861962418143"><ele>51.5</ele><time>2026-04-21T12:37:04Z</time></trkpt><trkpt lat="44.19903644579338" lon="9.828953999473773"><ele>54.0</ele><time>2026-04-21T12:37:05Z</time></trkpt><trkpt lat="44.19905764309248" lon="9.82929102647923"><ele>53.5</ele><time>2026-04-21T12:37:06Z</time></trkpt><trkpt lat="44.199076470569814" lon="9.829628231889291"><ele>53.0</ele><time>2026-04-21T12:37:07Z</time></trkpt><trkpt lat="44.199097570295045" lon="9.829959184779698"><ele>53.5</ele><time>2026-04-21T12:37:08Z</time></trkpt><trkpt lat="44.19911856332089" lon="9.830292376023218"><ele>54.0</ele><time>2026-04-21T12:37:09Z</time></trkpt><trkpt lat="44.19914026888131" lon="9.830631702700291"><ele>54.0</ele><time>2026-04-21T12:37:10Z</time></trkpt><trkpt lat="44.19916282292061" lon="9.83096338717039"><ele>54.0</ele><time>2026-04-21T12:37:11Z</time></trkpt><trkpt lat="44.19918555823993" lon="9.831307895544565"><ele>53.5</ele><time>2026-04-21T12:37:12Z</time></trkpt><trkpt lat="44.199208824501106" lon="9.831651322199917"><ele>53.0</ele><time>2026-04-21T12:37:13Z</time></trkpt><trkpt lat="44.19923008429867" lon="9.831994109828932"><ele>51.5</ele><time>2026-04-21T12:37:14Z</time></trkpt><trkpt lat="44.199249225401424" lon="9.832336359075676"><ele>50.0</ele><time>2026-04-21T12:37:15Z</time></trkpt><trkpt lat="44.199269290572104" lon="9.83268770872432"><ele>49.0</ele><time>2026-04-21T12:37:16Z</time></trkpt><trkpt lat="44.19929062586741" lon="9.833040023104926"><ele>48.0</ele><time>2026-04-21T12:37:17Z</time></trkpt><trkpt lat="44.19931293199342" lon="9.833395648383968"><ele>47.0</ele><time>2026-04-21T12:37:18Z</time></trkpt><trkpt lat="44.19933590291027" lon="9.833741018263337"><ele>46.0</ele><time>2026-04-21T12:37:19Z</time></trkpt><trkpt lat="44.199353693597104" lon="9.83406739521499"><ele>45.5</ele><time>2026-04-21T12:37:20Z</time></trkpt><trkpt lat="44.19937546717959" lon="9.834403509709096"><ele>45.0</ele><time>2026-04-21T12:37:21Z</time></trkpt><trkpt lat="44.19940052369427" lon="9.834747239104669"><ele>45.0</ele><time>2026-04-21T12:37:22Z</time></trkpt><trkpt lat="44.19942372223059" lon="9.83509331604871"><ele>45.0</ele><time>2026-04-21T12:37:23Z</time></trkpt><trkpt lat="44.19944987266267" lon="9.835445696514226"><ele>45.0</ele><time>2026-04-21T12:37:24Z</time></trkpt><trkpt lat="44.19946926885235" lon="9.835786898022654"><ele>45.0</ele><time>2026-04-21T12:37:25Z</time></trkpt><trkpt lat="44.19949330810554" lon="9.836115861527215"><ele>45.0</ele><time>2026-04-21T12:37:26Z</time></trkpt><trkpt lat="44.199509889208706" lon="9.836439292222318"><ele>45.0</ele><time>2026-04-21T12:37:27Z</time></trkpt><trkpt lat="44.19952962362881" lon="9.836770189686947"><ele>45.0</ele><time>2026-04-21T12:37:28Z</time></trkpt><trkpt lat="44.19954816583737" lon="9.837105826366809"><ele>45.0</ele><time>2026-04-21T12:37:29Z</time></trkpt><trkpt lat="44.1995691112283" lon="9.837447097170006"><ele>44.0</ele><time>2026-04-21T12:37:30Z</time></trkpt><trkpt lat="44.199592086393345" lon="9.837792875954078"><ele>43.0</ele><time>2026-04-21T12:37:31Z</time></trkpt><trkpt lat="44.199613259890285" lon="9.838145637911033"><ele>43.5</ele><time>2026-04-21T12:37:32Z</time></trkpt><trkpt lat="44.199631307590145" lon="9.838495952494675"><ele>44.0</ele><time>2026-04-21T12:37:33Z</time></trkpt><trkpt lat="44.19964795768956" lon="9.838829314273449"><ele>44.0</ele><time>2026-04-21T12:37:34Z</time></trkpt><trkpt lat="44.19966320968838" lon="9.839168617543404"><ele>44.0</ele><time>2026-04-21T12:37:35Z</time></trkpt><trkpt lat="44.1996734154098" lon="9.839509976359828"><ele>44.0</ele><time>2026-04-21T12:37:36Z</time></trkpt><trkpt lat="44.19967731352648" lon="9.83985558694508"><ele>44.0</ele><time>2026-04-21T12:37:37Z</time></trkpt><trkpt lat="44.19967697991992" lon="9.840204779029419"><ele>44.0</ele><time>2026-04-21T12:37:38Z</time></trkpt><trkpt lat="44.19967132671459" lon="9.840556428819882"><ele>44.0</ele><time>2026-04-21T12:37:39Z</time></trkpt><trkpt lat="44.19966483538123" lon="9.840912479662645"><ele>44.0</ele><time>2026-04-21T12:37:40Z</time></trkpt><trkpt lat="44.19965306306877" lon="9.841268202206182"><ele>44.0</ele><time>2026-04-21T12:37:41Z</time></trkpt><trkpt lat="44.19963630585481" lon="9.84162529379541"><ele>43.0</ele><time>2026-04-21T12:37:42Z</time></trkpt><trkpt lat="44.19961238049409" lon="9.841982166682296"><ele>42.0</ele><time>2026-04-21T12:37:43Z</time></trkpt><trkpt lat="44.19958400433401" lon="9.84233721535146"><ele>42.5</ele><time>2026-04-21T12:37:44Z</time></trkpt><trkpt lat="44.19955116491203" lon="9.842692936781313"><ele>43.0</ele><time>2026-04-21T12:37:45Z</time></trkpt><trkpt lat="44.199516512586996" lon="9.843052465461932"><ele>43.0</ele><time>2026-04-21T12:37:46Z</time></trkpt><trkpt lat="44.1994794575051" lon="9.84340640867219"><ele>43.0</ele><time>2026-04-21T12:37:47Z</time></trkpt><trkpt lat="44.19944071943014" lon="9.843759655923497"><ele>43.5</ele><time>2026-04-21T12:37:48Z</time></trkpt><trkpt lat="44.19939649517522" lon="9.844117509840755"><ele>44.0</ele><time>2026-04-21T12:37:49Z</time></trkpt><trkpt lat="44.199353775043825" lon="9.844471826558532"><ele>44.0</ele><time>2026-04-21T12:37:50Z</time></trkpt><trkpt lat="44.19931233429352" lon="9.844827022471314"><ele>44.0</ele><time>2026-04-21T12:37:51Z</time></trkpt><trkpt lat="44.19927065588687" lon="9.8451796269835"><ele>44.5</ele><time>2026-04-21T12:37:52Z</time></trkpt><trkpt lat="44.199228499042626" lon="9.845535103571885"><ele>45.0</ele><time>2026-04-21T12:37:53Z</time></trkpt><trkpt lat="44.1991870505203" lon="9.845888534139757"><ele>45.5</ele><time>2026-04-21T12:37:54Z</time></trkpt><trkpt lat="44.199141781834584" lon="9.846242649366701"><ele>46.0</ele><time>2026-04-21T12:37:55Z</time></trkpt><trkpt lat="44.199096705399725" lon="9.846584778994098"><ele>47.5</ele><time>2026-04-21T12:37:56Z</time></trkpt><trkpt lat="44.19905947646711" lon="9.846920433985263"><ele>49.0</ele><time>2026-04-21T12:37:57Z</time></trkpt><trkpt lat="44.19901968879754" lon="9.847248904043381"><ele>44.5</ele><time>2026-04-21T12:37:58Z</time></trkpt><trkpt lat="44.198985139435315" lon="9.847572686535045"><ele>40.0</ele><time>2026-04-21T12:37:59Z</time></trkpt><trkpt lat="44.19894759417651" lon="9.84789466510993"><ele>40.0</ele><time>2026-04-21T12:38:00Z</time></trkpt><trkpt lat="44.198911600802745" lon="9.84821087578833"><ele>40.0</ele><time>2026-04-21T12:38:01Z</time></trkpt><trkpt lat="44.198879315316205" lon="9.848526082128643"><ele>39.0</ele><time>2026-04-21T12:38:02Z</time></trkpt><trkpt lat="44.19884145672322" lon="9.848838009475312"><ele>38.0</ele><time>2026-04-21T12:38:03Z</time></trkpt><trkpt lat="44.19880494472905" lon="9.849146023841"><ele>38.0</ele><time>2026-04-21T12:38:04Z</time></trkpt><trkpt lat="44.19876953621348" lon="9.84945484768733"><ele>38.0</ele><time>2026-04-21T12:38:05Z</time></trkpt><trkpt lat="44.19873385447392" lon="9.849757473838135"><ele>38.0</ele><time>2026-04-21T12:38:06Z</time></trkpt><trkpt lat="44.19869641118794" lon="9.85007641649135"><ele>37.5</ele><time>2026-04-21T12:38:07Z</time></trkpt><trkpt lat="44.19866008020071" lon="9.850401546026493"><ele>37.0</ele><time>2026-04-21T12:38:08Z</time></trkpt><trkpt lat="44.198621546468964" lon="9.85073284888182"><ele>38.5</ele><time>2026-04-21T12:38:09Z</time></trkpt><trkpt lat="44.19858394436127" lon="9.85106676175768"><ele>40.0</ele><time>2026-04-21T12:38:10Z</time></trkpt><trkpt lat="44.198545543383666" lon="9.851381642577172"><ele>40.0</ele><time>2026-04-21T12:38:11Z</time></trkpt><trkpt lat="44.198509158562885" lon="9.851683411953614"><ele>40.0</ele><time>2026-04-21T12:38:12Z</time></trkpt><trkpt lat="44.198470131802054" lon="9.851996824353611"><ele>40.0</ele><time>2026-04-21T12:38:13Z</time></trkpt><trkpt lat="44.198429049876076" lon="9.852316195290852"><ele>40.66666666666667</ele><time>2026-04-21T12:38:14Z</time></trkpt><trkpt lat="44.19839025381837" lon="9.852615555854221"><ele>41.333333333333336</ele><time>2026-04-21T12:38:15Z</time></trkpt><trkpt lat="44.19834915084888" lon="9.852902407436737"><ele>42.0</ele><time>2026-04-21T12:38:16Z</time></trkpt><trkpt lat="44.19829936265797" lon="9.853203010356234"><ele>41.666666666666664</ele><time>2026-04-21T12:38:17Z</time></trkpt><trkpt lat="44.1982447908859" lon="9.85347731341203"><ele>41.33333333333333</ele><time>2026-04-21T12:38:18Z</time></trkpt><trkpt lat="44.19818443756962" lon="9.853742797692032"><ele>41.0</ele><time>2026-04-21T12:38:19Z</time></trkpt><trkpt lat="44.198108869681256" lon="9.85401430734059"><ele>41.666666666666664</ele><time>2026-04-21T12:38:20Z</time></trkpt><trkpt lat="44.198022643527636" lon="9.85429285622703"><ele>42.333333333333336</ele><time>2026-04-21T12:38:21Z</time></trkpt><trkpt lat="44.197924648053636" lon="9.85457229916061"><ele>43.0</ele><time>2026-04-21T12:38:22Z</time></trkpt><trkpt lat="44.19782194588946" lon="9.854834347470383"><ele>43.0</ele><time>2026-04-21T12:38:23Z</time></trkpt><trkpt lat="44.19771297992353" lon="9.85507848260368"><ele>43.0</ele><time>2026-04-21T12:38:24Z</time></trkpt><trkpt lat="44.19759214264208" lon="9.855323247057564"><ele>43.0</ele><time>2026-04-21T12:38:25Z</time></trkpt><trkpt lat="44.197459890949304" lon="9.855571652723027"><ele>42.5</ele><time>2026-04-21T12:38:26Z</time></trkpt><trkpt lat="44.19731916305623" lon="9.855818179807704"><ele>42.0</ele><time>2026-04-21T12:38:27Z</time></trkpt><trkpt lat="44.19716530771493" lon="9.856056978755186"><ele>42.0</ele><time>2026-04-21T12:38:28Z</time></trkpt><trkpt lat="44.1970021715042" lon="9.856287413292435"><ele>42.0</ele><time>2026-04-21T12:38:29Z</time></trkpt><trkpt lat="44.196827591697094" lon="9.85650921218123"><ele>42.0</ele><time>2026-04-21T12:38:30Z</time></trkpt><trkpt lat="44.196646659956315" lon="9.85672032588856"><ele>42.0</ele><time>2026-04-21T12:38:31Z</time></trkpt><trkpt lat="44.1964533185143" lon="9.856913097916355"><ele>43.0</ele><time>2026-04-21T12:38:32Z</time></trkpt><trkpt lat="44.19625179531227" lon="9.85709443462213"><ele>44.0</ele><time>2026-04-21T12:38:33Z</time></trkpt><trkpt lat="44.19604280289873" lon="9.857262918785485"><ele>44.0</ele><time>2026-04-21T12:38:34Z</time></trkpt><trkpt lat="44.195824475910506" lon="9.857416345164419"><ele>44.0</ele><time>2026-04-21T12:38:35Z</time></trkpt><trkpt lat="44.19559899746775" lon="9.857556106942175"><ele>43.0</ele><time>2026-04-21T12:38:36Z</time></trkpt><trkpt lat="44.19537260727564" lon="9.857690690723441"><ele>42.0</ele><time>2026-04-21T12:38:37Z</time></trkpt><trkpt lat="44.19514344317417" lon="9.8578055996969"><ele>42.0</ele><time>2026-04-21T12:38:38Z</time></trkpt><trkpt lat="44.19490598536556" lon="9.857912241024762"><ele>42.0</ele><time>2026-04-21T12:38:39Z</time></trkpt><trkpt lat="44.19466826540573" lon="9.858016782700737"><ele>43.0</ele><time>2026-04-21T12:38:40Z</time></trkpt><trkpt lat="44.194437088948995" lon="9.858123988957917"><ele>44.0</ele><time>2026-04-21T12:38:41Z</time></trkpt><trkpt lat="44.194203104426414" lon="9.85822945710107"><ele>43.0</ele><time>2026-04-21T12:38:42Z</time></trkpt><trkpt lat="44.19396968202667" lon="9.858332036470413"><ele>42.0</ele><time>2026-04-21T12:38:43Z</time></trkpt><trkpt lat="44.19373840211625" lon="9.858433569021178"><ele>42.5</ele><time>2026-04-21T12:38:44Z</time></trkpt><trkpt lat="44.19350507223515" lon="9.858533576746837"><ele>43.0</ele><time>2026-04-21T12:38:45Z</time></trkpt><trkpt lat="44.19327409193394" lon="9.858635359944538"><ele>41.0</ele><time>2026-04-21T12:38:46Z</time></trkpt><trkpt lat="44.19304271483491" lon="9.858742868421878"><ele>39.0</ele><time>2026-04-21T12:38:47Z</time></trkpt><trkpt lat="44.19281537121972" lon="9.858849927850457"><ele>39.0</ele><time>2026-04-21T12:38:48Z</time></trkpt><trkpt lat="44.19258694842929" lon="9.858954018738904"><ele>39.0</ele><time>2026-04-21T12:38:49Z</time></trkpt><trkpt lat="44.192359579149624" lon="9.859058840193939"><ele>38.5</ele><time>2026-04-21T12:38:50Z</time></trkpt><trkpt lat="44.192129003457204" lon="9.859159463244907"><ele>38.0</ele><time>2026-04-21T12:38:51Z</time></trkpt><trkpt lat="44.1918918708402" lon="9.85926003421607"><ele>38.0</ele><time>2026-04-21T12:38:52Z</time></trkpt><trkpt lat="44.19165237372952" lon="9.859361642580916"><ele>38.0</ele><time>2026-04-21T12:38:53Z</time></trkpt><trkpt lat="44.19140978213084" lon="9.859470267428073"><ele>38.0</ele><time>2026-04-21T12:38:54Z</time></trkpt><trkpt lat="44.19116261306993" lon="9.8595782908456"><ele>38.0</ele><time>2026-04-21T12:38:55Z</time></trkpt><trkpt lat="44.19091682993239" lon="9.859687549664937"><ele>37.0</ele><time>2026-04-21T12:38:56Z</time></trkpt><trkpt lat="44.19066816845994" lon="9.859804169071868"><ele>36.0</ele><time>2026-04-21T12:38:57Z</time></trkpt><trkpt lat="44.19041761058456" lon="9.859918795028454"><ele>36.0</ele><time>2026-04-21T12:38:58Z</time></trkpt><trkpt lat="44.190167422133065" lon="9.8600320071384"><ele>36.0</ele><time>2026-04-21T12:38:59Z</time></trkpt><trkpt lat="44.189915566052136" lon="9.860141839503164"><ele>35.5</ele><time>2026-04-21T12:39:00Z</time></trkpt><trkpt lat="44.18966237831658" lon="9.860250875227463"><ele>35.0</ele><time>2026-04-21T12:39:01Z</time></trkpt><trkpt lat="44.18940854123513" lon="9.860362489921483"><ele>35.0</ele><time>2026-04-21T12:39:02Z</time></trkpt><trkpt lat="44.189154367971064" lon="9.86047585439909"><ele>35.0</ele><time>2026-04-21T12:39:03Z</time></trkpt><trkpt lat="44.18889955471935" lon="9.860591873998427"><ele>36.0</ele><time>2026-04-21T12:39:04Z</time></trkpt><trkpt lat="44.18864451686662" lon="9.860706298031987"><ele>37.0</ele><time>2026-04-21T12:39:05Z</time></trkpt><trkpt lat="44.188391387485986" lon="9.860818604452211"><ele>36.0</ele><time>2026-04-21T12:39:06Z</time></trkpt><trkpt lat="44.188140048792945" lon="9.86093037399898"><ele>35.0</ele><time>2026-04-21T12:39:07Z</time></trkpt><trkpt lat="44.18788898907294" lon="9.861043259951767"><ele>35.0</ele><time>2026-04-21T12:39:08Z</time></trkpt><trkpt lat="44.18763797084456" lon="9.86115395189869"><ele>35.0</ele><time>2026-04-21T12:39:09Z</time></trkpt><trkpt lat="44.18738584385655" lon="9.86126113467441"><ele>34.5</ele><time>2026-04-21T12:39:10Z</time></trkpt><trkpt lat="44.1871367529538" lon="9.861370014120276"><ele>34.0</ele><time>2026-04-21T12:39:11Z</time></trkpt><trkpt lat="44.18688754031925" lon="9.861480336966553"><ele>34.0</ele><time>2026-04-21T12:39:12Z</time></trkpt><trkpt lat="44.18663811989711" lon="9.861595341166678"><ele>34.0</ele><time>2026-04-21T12:39:13Z</time></trkpt><trkpt lat="44.186390136883844" lon="9.86170834241837"><ele>34.5</ele><time>2026-04-21T12:39:14Z</time></trkpt><trkpt lat="44.18614152527022" lon="9.861821098184087"><ele>35.0</ele><time>2026-04-21T12:39:15Z</time></trkpt><trkpt lat="44.18589359827284" lon="9.861934649872255"><ele>34.5</ele><time>2026-04-21T12:39:16Z</time></trkpt><trkpt lat="44.185646722420856" lon="9.862043674202082"><ele>34.0</ele><time>2026-04-21T12:39:17Z</time></trkpt><trkpt lat="44.185397947474186" lon="9.86215465053552"><ele>34.0</ele><time>2026-04-21T12:39:18Z</time></trkpt><trkpt lat="44.18514675876334" lon="9.86226458237098"><ele>34.0</ele><time>2026-04-21T12:39:19Z</time></trkpt><trkpt lat="44.18489522430749" lon="9.862374184926928"><ele>34.5</ele><time>2026-04-21T12:39:20Z</time></trkpt><trkpt lat="44.18464442977933" lon="9.862481554319443"><ele>35.0</ele><time>2026-04-21T12:39:21Z</time></trkpt><trkpt lat="44.1843956548993" lon="9.862590434790635"><ele>40.5</ele><time>2026-04-21T12:39:22Z</time></trkpt><trkpt lat="44.18414627765166" lon="9.862701432969159"><ele>46.0</ele><time>2026-04-21T12:39:23Z</time></trkpt><trkpt lat="44.183900572766454" lon="9.86281019543195"><ele>46.0</ele><time>2026-04-21T12:39:24Z</time></trkpt><trkpt lat="44.183673113655985" lon="9.862912761185555"><ele>46.0</ele><time>2026-04-21T12:39:25Z</time></trkpt><trkpt lat="44.18344447748007" lon="9.863026890271795"><ele>46.0</ele><time>2026-04-21T12:39:26Z</time></trkpt><trkpt lat="44.183208169334094" lon="9.863142098141939"><ele>46.0</ele><time>2026-04-21T12:39:27Z</time></trkpt><trkpt lat="44.18297078309998" lon="9.86326637522114"><ele>43.5</ele><time>2026-04-21T12:39:28Z</time></trkpt><trkpt lat="44.182731143221645" lon="9.863395323172627"><ele>41.0</ele><time>2026-04-21T12:39:29Z</time></trkpt><trkpt lat="44.18248915097438" lon="9.863532230580049"><ele>38.5</ele><time>2026-04-21T12:39:30Z</time></trkpt><trkpt lat="44.18224680136613" lon="9.863675135356724"><ele>36.0</ele><time>2026-04-21T12:39:31Z</time></trkpt><trkpt lat="44.18200238758262" lon="9.863825434096855"><ele>36.0</ele><time>2026-04-21T12:39:32Z</time></trkpt><trkpt lat="44.18175614365321" lon="9.863981911099124"><ele>36.0</ele><time>2026-04-21T12:39:33Z</time></trkpt><trkpt lat="44.18151062555597" lon="9.864141686470449"><ele>37.0</ele><time>2026-04-21T12:39:34Z</time></trkpt><trkpt lat="44.18126500520241" lon="9.864306077173977"><ele>38.0</ele><time>2026-04-21T12:39:35Z</time></trkpt><trkpt lat="44.181021096129406" lon="9.864457995849833"><ele>38.0</ele><time>2026-04-21T12:39:36Z</time></trkpt><trkpt lat="44.18077716471883" lon="9.86460701163989"><ele>38.0</ele><time>2026-04-21T12:39:37Z</time></trkpt><trkpt lat="44.18055568726303" lon="9.86482154984008"><ele>35.5</ele><time>2026-04-21T12:39:38Z</time></trkpt><trkpt lat="44.18032183374171" lon="9.864987115194987"><ele>33.0</ele><time>2026-04-21T12:39:39Z</time></trkpt><trkpt lat="44.18008867471544" lon="9.865144434931183"><ele>33.0</ele><time>2026-04-21T12:39:40Z</time></trkpt><trkpt lat="44.17985398991969" lon="9.865304336030793"><ele>33.0</ele><time>2026-04-21T12:39:41Z</time></trkpt><trkpt lat="44.17962027326511" lon="9.865470150740983"><ele>34.0</ele><time>2026-04-21T12:39:42Z</time></trkpt><trkpt lat="44.17938723654561" lon="9.865636297010564"><ele>35.0</ele><time>2026-04-21T12:39:43Z</time></trkpt><trkpt lat="44.17915835855587" lon="9.86580336758129"><ele>33.0</ele><time>2026-04-21T12:39:44Z</time></trkpt><trkpt lat="44.17892519911203" lon="9.865976942216594"><ele>31.0</ele><time>2026-04-21T12:39:45Z</time></trkpt><trkpt lat="44.17870124297352" lon="9.866138789859983"><ele>31.0</ele><time>2026-04-21T12:39:46Z</time></trkpt><trkpt lat="44.17848504312305" lon="9.866291322753574"><ele>31.0</ele><time>2026-04-21T12:39:47Z</time></trkpt><trkpt lat="44.178271604491734" lon="9.866444359465246"><ele>30.0</ele><time>2026-04-21T12:39:48Z</time></trkpt><trkpt lat="44.178051223688136" lon="9.866601909189278"><ele>29.0</ele><time>2026-04-21T12:39:49Z</time></trkpt><trkpt lat="44.177831019359054" lon="9.866757162753258"><ele>29.5</ele><time>2026-04-21T12:39:50Z</time></trkpt><trkpt lat="44.17760352327867" lon="9.86692388313905"><ele>30.0</ele><time>2026-04-21T12:39:51Z</time></trkpt><trkpt lat="44.177374913512146" lon="9.86708606263413"><ele>29.5</ele><time>2026-04-21T12:39:52Z</time></trkpt><trkpt lat="44.17714170486767" lon="9.867251698923516"><ele>29.0</ele><time>2026-04-21T12:39:53Z</time></trkpt><trkpt lat="44.17690174449743" lon="9.867414777024951"><ele>29.0</ele><time>2026-04-21T12:39:54Z</time></trkpt><trkpt lat="44.176659942437354" lon="9.867582664495027"><ele>29.0</ele><time>2026-04-21T12:39:55Z</time></trkpt><trkpt lat="44.17641780729392" lon="9.867759233830458"><ele>29.0</ele><time>2026-04-21T12:39:56Z</time></trkpt><trkpt lat="44.17619081646817" lon="9.867925936390046"><ele>29.0</ele><time>2026-04-21T12:39:57Z</time></trkpt><trkpt lat="44.175976262654096" lon="9.86808162115835"><ele>29.0</ele><time>2026-04-21T12:39:58Z</time></trkpt><trkpt lat="44.175760109033426" lon="9.868236679995254"><ele>29.0</ele><time>2026-04-21T12:39:59Z</time></trkpt><trkpt lat="44.17553535082073" lon="9.86839435774449"><ele>29.0</ele><time>2026-04-21T12:40:00Z</time></trkpt><trkpt lat="44.17530784176617" lon="9.868559839448716"><ele>29.0</ele><time>2026-04-21T12:40:01Z</time></trkpt><trkpt lat="44.17507867404386" lon="9.868727652867742"><ele>28.0</ele><time>2026-04-21T12:40:02Z</time></trkpt><trkpt lat="44.17484590742823" lon="9.86889624978998"><ele>27.0</ele><time>2026-04-21T12:40:03Z</time></trkpt><trkpt lat="44.17460745985011" lon="9.869066294574589"><ele>27.0</ele><time>2026-04-21T12:40:04Z</time></trkpt><trkpt lat="44.17437796452744" lon="9.869229041295872"><ele>27.0</ele><time>2026-04-21T12:40:05Z</time></trkpt><trkpt lat="44.17414943712257" lon="9.869389170742556"><ele>26.5</ele><time>2026-04-21T12:40:06Z</time></trkpt><trkpt lat="44.17391945981862" lon="9.86955436340434"><ele>26.0</ele><time>2026-04-21T12:40:07Z</time></trkpt><trkpt lat="44.17368678136653" lon="9.86972107386236"><ele>26.0</ele><time>2026-04-21T12:40:08Z</time></trkpt><trkpt lat="44.173449799179274" lon="9.86988809200795"><ele>26.0</ele><time>2026-04-21T12:40:09Z</time></trkpt><trkpt lat="44.173211522659585" lon="9.870055824582755"><ele>26.0</ele><time>2026-04-21T12:40:10Z</time></trkpt><trkpt lat="44.172976260128614" lon="9.870224490442798"><ele>26.0</ele><time>2026-04-21T12:40:11Z</time></trkpt><trkpt lat="44.17274306506864" lon="9.870394409929753"><ele>26.0</ele><time>2026-04-21T12:40:12Z</time></trkpt><trkpt lat="44.172513634862035" lon="9.870562416376151"><ele>26.0</ele><time>2026-04-21T12:40:13Z</time></trkpt><trkpt lat="44.17229043490713" lon="9.87072436742964"><ele>26.0</ele><time>2026-04-21T12:40:14Z</time></trkpt><trkpt lat="44.17206994238138" lon="9.870886026456947"><ele>26.0</ele><time>2026-04-21T12:40:15Z</time></trkpt><trkpt lat="44.171850697282345" lon="9.87106162364773"><ele>26.0</ele><time>2026-04-21T12:40:16Z</time></trkpt><trkpt lat="44.17162925919212" lon="9.871231118109826"><ele>26.0</ele><time>2026-04-21T12:40:17Z</time></trkpt><trkpt lat="44.171404810322684" lon="9.871410079391534"><ele>26.0</ele><time>2026-04-21T12:40:18Z</time></trkpt><trkpt lat="44.17117524191923" lon="9.871595613875453"><ele>26.0</ele><time>2026-04-21T12:40:19Z</time></trkpt><trkpt lat="44.170949178388994" lon="9.871781234183874"><ele>26.0</ele><time>2026-04-21T12:40:20Z</time></trkpt><trkpt lat="44.17072620574581" lon="9.871968699933156"><ele>26.0</ele><time>2026-04-21T12:40:21Z</time></trkpt><trkpt lat="44.17051774190633" lon="9.872145537148747"><ele>26.0</ele><time>2026-04-21T12:40:22Z</time></trkpt><trkpt lat="44.170311986463844" lon="9.872332208709372"><ele>26.0</ele><time>2026-04-21T12:40:23Z</time></trkpt><trkpt lat="44.17010359097749" lon="9.872518750947743"><ele>26.0</ele><time>2026-04-21T12:40:24Z</time></trkpt><trkpt lat="44.16989341700637" lon="9.87272017726095"><ele>26.0</ele><time>2026-04-21T12:40:25Z</time></trkpt><trkpt lat="44.169680083943454" lon="9.87291931020036"><ele>26.0</ele><time>2026-04-21T12:40:26Z</time></trkpt><trkpt lat="44.16946402632047" lon="9.8731239042194"><ele>26.0</ele><time>2026-04-21T12:40:27Z</time></trkpt><trkpt lat="44.16925582978629" lon="9.873328877549355"><ele>26.0</ele><time>2026-04-21T12:40:28Z</time></trkpt><trkpt lat="44.16905158493487" lon="9.873529288050635"><ele>26.0</ele><time>2026-04-21T12:40:29Z</time></trkpt><trkpt lat="44.16884566014549" lon="9.873735111636895"><ele>26.0</ele><time>2026-04-21T12:40:30Z</time></trkpt><trkpt lat="44.16864573995645" lon="9.873948828476463"><ele>26.0</ele><time>2026-04-21T12:40:31Z</time></trkpt><trkpt lat="44.16844401876599" lon="9.874157155321948"><ele>26.5</ele><time>2026-04-21T12:40:32Z</time></trkpt><trkpt lat="44.16824513765676" lon="9.874371841298014"><ele>27.0</ele><time>2026-04-21T12:40:33Z</time></trkpt><trkpt lat="44.16805615413691" lon="9.874583971362238"><ele>25.5</ele><time>2026-04-21T12:40:34Z</time></trkpt><trkpt lat="44.16786993627493" lon="9.874789243818757"><ele>24.0</ele><time>2026-04-21T12:40:35Z</time></trkpt><trkpt lat="44.1676840259813" lon="9.87500234883703"><ele>24.0</ele><time>2026-04-21T12:40:36Z</time></trkpt><trkpt lat="44.16750770358672" lon="9.87520726371633"><ele>24.0</ele><time>2026-04-21T12:40:37Z</time></trkpt><trkpt lat="44.167331709400294" lon="9.875415299038783"><ele>23.666666666666668</ele><time>2026-04-21T12:40:38Z</time></trkpt><trkpt lat="44.16716397631802" lon="9.875611864063517"><ele>23.333333333333336</ele><time>2026-04-21T12:40:39Z</time></trkpt><trkpt lat="44.16700556056831" lon="9.875809018684208"><ele>23.0</ele><time>2026-04-21T12:40:40Z</time></trkpt><trkpt lat="44.16685000490323" lon="9.876006688885498"><ele>23.0</ele><time>2026-04-21T12:40:41Z</time></trkpt><trkpt lat="44.166701993061565" lon="9.87619272154981"><ele>23.0</ele><time>2026-04-21T12:40:42Z</time></trkpt><trkpt lat="44.166556025829124" lon="9.876379459289053"><ele>23.0</ele><time>2026-04-21T12:40:43Z</time></trkpt><trkpt lat="44.166407247816515" lon="9.87657177889865"><ele>23.666666666666668</ele><time>2026-04-21T12:40:44Z</time></trkpt><trkpt lat="44.166257405734605" lon="9.876771397820134"><ele>24.333333333333336</ele><time>2026-04-21T12:40:45Z</time></trkpt><trkpt lat="44.166111010756715" lon="9.876969256329332"><ele>25.0</ele><time>2026-04-21T12:40:46Z</time></trkpt><trkpt lat="44.16595754817094" lon="9.877177409179385"><ele>25.0</ele><time>2026-04-21T12:40:47Z</time></trkpt><trkpt lat="44.16580648070694" lon="9.87738950996037"><ele>25.0</ele><time>2026-04-21T12:40:48Z</time></trkpt><trkpt lat="44.16565059717618" lon="9.877613841407653"><ele>25.0</ele><time>2026-04-21T12:40:49Z</time></trkpt><trkpt lat="44.16549243920395" lon="9.877845879483708"><ele>24.333333333333336</ele><time>2026-04-21T12:40:50Z</time></trkpt><trkpt lat="44.165336993905434" lon="9.878073306745373"><ele>23.666666666666668</ele><time>2026-04-21T12:40:51Z</time></trkpt><trkpt lat="44.165188700725764" lon="9.878293579956946"><ele>23.0</ele><time>2026-04-21T12:40:52Z</time></trkpt><trkpt lat="44.16504435388768" lon="9.8785054877664"><ele>23.0</ele><time>2026-04-21T12:40:53Z</time></trkpt><trkpt lat="44.164905802646665" lon="9.878714220913468"><ele>23.0</ele><time>2026-04-21T12:40:54Z</time></trkpt><trkpt lat="44.164766329432034" lon="9.878925759884904"><ele>23.0</ele><time>2026-04-21T12:40:55Z</time></trkpt><trkpt lat="44.16463093484689" lon="9.879138746364521"><ele>23.0</ele><time>2026-04-21T12:40:56Z</time></trkpt><trkpt lat="44.1644954180904" lon="9.879358169397795"><ele>23.0</ele><time>2026-04-21T12:40:57Z</time></trkpt><trkpt lat="44.16435864223308" lon="9.87957539945286"><ele>23.0</ele><time>2026-04-21T12:40:58Z</time></trkpt><trkpt lat="44.1642190069233" lon="9.879809245255007"><ele>23.0</ele><time>2026-04-21T12:40:59Z</time></trkpt><trkpt lat="44.16408079588299" lon="9.880058867171966"><ele>23.0</ele><time>2026-04-21T12:41:00Z</time></trkpt><trkpt lat="44.1639390620926" lon="9.880319036256333"><ele>22.5</ele><time>2026-04-21T12:41:01Z</time></trkpt><trkpt lat="44.163799147637526" lon="9.8805744122651"><ele>22.0</ele><time>2026-04-21T12:41:02Z</time></trkpt><trkpt lat="44.16366412616908" lon="9.88082800110601"><ele>22.333333333333332</ele><time>2026-04-21T12:41:03Z</time></trkpt><trkpt lat="44.163531194078644" lon="9.881077311486742"><ele>22.666666666666668</ele><time>2026-04-21T12:41:04Z</time></trkpt><trkpt lat="44.1633976345704" lon="9.88132268682194"><ele>23.0</ele><time>2026-04-21T12:41:05Z</time></trkpt><trkpt lat="44.16326874225411" lon="9.881564304282765"><ele>23.0</ele><time>2026-04-21T12:41:06Z</time></trkpt><trkpt lat="44.16313105748844" lon="9.881823838545753"><ele>23.0</ele><time>2026-04-21T12:41:07Z</time></trkpt><trkpt lat="44.16299604689905" lon="9.882087132138349"><ele>23.0</ele><time>2026-04-21T12:41:08Z</time></trkpt><trkpt lat="44.1628593618545" lon="9.88235818902895"><ele>23.0</ele><time>2026-04-21T12:41:09Z</time></trkpt><trkpt lat="44.16271873642369" lon="9.88264168876257"><ele>22.0</ele><time>2026-04-21T12:41:10Z</time></trkpt><trkpt lat="44.16257554838153" lon="9.882922804456474"><ele>21.0</ele><time>2026-04-21T12:41:11Z</time></trkpt><trkpt lat="44.16243481012024" lon="9.883217456803344"><ele>21.0</ele><time>2026-04-21T12:41:12Z</time></trkpt><trkpt lat="44.16229451772774" lon="9.88351785510587"><ele>21.0</ele><time>2026-04-21T12:41:13Z</time></trkpt><trkpt lat="44.16215430443324" lon="9.883821959591167"><ele>21.0</ele><time>2026-04-21T12:41:14Z</time></trkpt><trkpt lat="44.16201798145496" lon="9.884128054618643"><ele>21.0</ele><time>2026-04-21T12:41:15Z</time></trkpt><trkpt lat="44.16187764892832" lon="9.88444024140793"><ele>21.0</ele><time>2026-04-21T12:41:16Z</time></trkpt><trkpt lat="44.16174067395098" lon="9.884759995628182"><ele>21.0</ele><time>2026-04-21T12:41:17Z</time></trkpt><trkpt lat="44.161605739381166" lon="9.885080708270408"><ele>21.5</ele><time>2026-04-21T12:41:18Z</time></trkpt><trkpt lat="44.16147096253507" lon="9.885401181363568"><ele>22.0</ele><time>2026-04-21T12:41:19Z</time></trkpt><trkpt lat="44.16134066123515" lon="9.885718956018094"><ele>21.5</ele><time>2026-04-21T12:41:20Z</time></trkpt><trkpt lat="44.161214684461164" lon="9.88603411606093"><ele>21.0</ele><time>2026-04-21T12:41:21Z</time></trkpt><trkpt lat="44.161092652743726" lon="9.886351935950854"><ele>21.0</ele><time>2026-04-21T12:41:22Z</time></trkpt><trkpt lat="44.16097099148614" lon="9.886668712855448"><ele>21.0</ele><time>2026-04-21T12:41:23Z</time></trkpt><trkpt lat="44.16085009046653" lon="9.886989848976704"><ele>21.5</ele><time>2026-04-21T12:41:24Z</time></trkpt><trkpt lat="44.16072742064419" lon="9.887307276357136"><ele>22.0</ele><time>2026-04-21T12:41:25Z</time></trkpt><trkpt lat="44.160604356292964" lon="9.887624094086345"><ele>21.0</ele><time>2026-04-21T12:41:26Z</time></trkpt><trkpt lat="44.160481580880294" lon="9.88793600271351"><ele>20.0</ele><time>2026-04-21T12:41:27Z</time></trkpt><trkpt lat="44.16036017324083" lon="9.888250313225722"><ele>21.5</ele><time>2026-04-21T12:41:28Z</time></trkpt><trkpt lat="44.1602365734953" lon="9.888567921446464"><ele>23.0</ele><time>2026-04-21T12:41:29Z</time></trkpt><trkpt lat="44.160114750527164" lon="9.88888749355231"><ele>23.0</ele><time>2026-04-21T12:41:30Z</time></trkpt><trkpt lat="44.159997978739185" lon="9.889191320070015"><ele>23.0</ele><time>2026-04-21T12:41:31Z</time></trkpt><trkpt lat="44.15988967809543" lon="9.889481879461902"><ele>22.5</ele><time>2026-04-21T12:41:32Z</time></trkpt><trkpt lat="44.15977850290583" lon="9.88977397607672"><ele>22.0</ele><time>2026-04-21T12:41:33Z</time></trkpt><trkpt lat="44.15966471645936" lon="9.890074967337544"><ele>21.5</ele><time>2026-04-21T12:41:34Z</time></trkpt><trkpt lat="44.1595460609696" lon="9.890380529781227"><ele>21.0</ele><time>2026-04-21T12:41:35Z</time></trkpt><trkpt lat="44.1594268654064" lon="9.890697155334406"><ele>21.5</ele><time>2026-04-21T12:41:36Z</time></trkpt><trkpt lat="44.1593027902629" lon="9.89101930809898"><ele>22.0</ele><time>2026-04-21T12:41:37Z</time></trkpt><trkpt lat="44.15917866409529" lon="9.891341363509834"><ele>22.0</ele><time>2026-04-21T12:41:38Z</time></trkpt><trkpt lat="44.15905699406659" lon="9.891660178444853"><ele>22.0</ele><time>2026-04-21T12:41:39Z</time></trkpt><trkpt lat="44.158934174029675" lon="9.891982868684124"><ele>21.5</ele><time>2026-04-21T12:41:40Z</time></trkpt><trkpt lat="44.158808115552915" lon="9.892303653882644"><ele>21.0</ele><time>2026-04-21T12:41:40.999Z</time></trkpt><trkpt lat="44.15868291917104" lon="9.892626327269701"><ele>21.0</ele><time>2026-04-21T12:41:41.999Z</time></trkpt><trkpt lat="44.158561664418386" lon="9.892949345722288"><ele>21.0</ele><time>2026-04-21T12:41:42.999Z</time></trkpt><trkpt lat="44.158438535320286" lon="9.893266091969545"><ele>21.5</ele><time>2026-04-21T12:41:43.999Z</time></trkpt><trkpt lat="44.15831652572142" lon="9.893584753923527"><ele>22.0</ele><time>2026-04-21T12:41:44.999Z</time></trkpt><trkpt lat="44.158190991768784" lon="9.893907720944743"><ele>22.5</ele><time>2026-04-21T12:41:45.999Z</time></trkpt><trkpt lat="44.15806547743971" lon="9.894224145685078"><ele>23.0</ele><time>2026-04-21T12:41:46.999Z</time></trkpt><trkpt lat="44.157945747037594" lon="9.89454335693436"><ele>23.0</ele><time>2026-04-21T12:41:47.999Z</time></trkpt><trkpt lat="44.157821787158205" lon="9.894861645149017"><ele>23.0</ele><time>2026-04-21T12:41:48.999Z</time></trkpt><trkpt lat="44.157700170732404" lon="9.895176352770267"><ele>23.5</ele><time>2026-04-21T12:41:49.999Z</time></trkpt><trkpt lat="44.15758181772047" lon="9.89548001655767"><ele>24.0</ele><time>2026-04-21T12:41:50.999Z</time></trkpt><trkpt lat="44.15745817805012" lon="9.895789325212"><ele>23.0</ele><time>2026-04-21T12:41:51.999Z</time></trkpt><trkpt lat="44.15733786196032" lon="9.896094657877601"><ele>22.0</ele><time>2026-04-21T12:41:52.999Z</time></trkpt><trkpt lat="44.1572119495711" lon="9.89639671807848"><ele>22.0</ele><time>2026-04-21T12:41:53.999Z</time></trkpt><trkpt lat="44.15708956429156" lon="9.896697321203693"><ele>22.0</ele><time>2026-04-21T12:41:54.999Z</time></trkpt><trkpt lat="44.15696517801664" lon="9.896995209403554"><ele>22.5</ele><time>2026-04-21T12:41:55.999Z</time></trkpt><trkpt lat="44.15683558355405" lon="9.89729428913587"><ele>23.0</ele><time>2026-04-21T12:41:56.999Z</time></trkpt><trkpt lat="44.156700709520216" lon="9.8975848822451"><ele>23.0</ele><time>2026-04-21T12:41:57.999Z</time></trkpt><trkpt lat="44.15656362512657" lon="9.897880620235583"><ele>23.0</ele><time>2026-04-21T12:41:58.999Z</time></trkpt><trkpt lat="44.15642158372878" lon="9.898168917652184"><ele>22.5</ele><time>2026-04-21T12:41:59.999Z</time></trkpt><trkpt lat="44.156274203681654" lon="9.898458986581618"><ele>22.0</ele><time>2026-04-21T12:42:00.999Z</time></trkpt><trkpt lat="44.156120547456936" lon="9.898747738096064"><ele>22.0</ele><time>2026-04-21T12:42:01.999Z</time></trkpt><trkpt lat="44.1559636198435" lon="9.899031405689247"><ele>22.0</ele><time>2026-04-21T12:42:02.999Z</time></trkpt><trkpt lat="44.15580230383508" lon="9.899313656606632"><ele>22.0</ele><time>2026-04-21T12:42:03.999Z</time></trkpt><trkpt lat="44.15563606827715" lon="9.899593566583468"><ele>22.0</ele><time>2026-04-21T12:42:04.999Z</time></trkpt><trkpt lat="44.15546578889124" lon="9.899867769755861"><ele>23.5</ele><time>2026-04-21T12:42:05.999Z</time></trkpt><trkpt lat="44.15529261880011" lon="9.900141684229677"><ele>25.0</ele><time>2026-04-21T12:42:06.999Z</time></trkpt><trkpt lat="44.15511832039317" lon="9.900407325928125"><ele>25.0</ele><time>2026-04-21T12:42:07.999Z</time></trkpt><trkpt lat="44.154939317931515" lon="9.900668714526905"><ele>25.0</ele><time>2026-04-21T12:42:09Z</time></trkpt><trkpt lat="44.15475654894609" lon="9.900918573936854"><ele>24.5</ele><time>2026-04-21T12:42:10Z</time></trkpt><trkpt lat="44.154571287161005" lon="9.90116556779943"><ele>24.0</ele><time>2026-04-21T12:42:11Z</time></trkpt><trkpt lat="44.15438354604807" lon="9.901403222376828"><ele>24.0</ele><time>2026-04-21T12:42:12Z</time></trkpt><trkpt lat="44.154187632031764" lon="9.901638229655905"><ele>24.0</ele><time>2026-04-21T12:42:13Z</time></trkpt><trkpt lat="44.153989394622776" lon="9.901870386459906"><ele>23.0</ele><time>2026-04-21T12:42:14Z</time></trkpt><trkpt lat="44.15378892701783" lon="9.902106372376355"><ele>22.0</ele><time>2026-04-21T12:42:15Z</time></trkpt><trkpt lat="44.15358559716852" lon="9.902337496493972"><ele>22.0</ele><time>2026-04-21T12:42:16Z</time></trkpt><trkpt lat="44.15337928994393" lon="9.902561147544398"><ele>22.0</ele><time>2026-04-21T12:42:17Z</time></trkpt><trkpt lat="44.153169362937476" lon="9.902775661100312"><ele>21.0</ele><time>2026-04-21T12:42:18Z</time></trkpt><trkpt lat="44.152958944365146" lon="9.9029879167158"><ele>20.0</ele><time>2026-04-21T12:42:19Z</time></trkpt><trkpt lat="44.15275312044139" lon="9.903190069748993"><ele>20.0</ele><time>2026-04-21T12:42:20Z</time></trkpt><trkpt lat="44.15254661123353" lon="9.903382715144842"><ele>20.0</ele><time>2026-04-21T12:42:21Z</time></trkpt><trkpt lat="44.152339335046385" lon="9.903569797215548"><ele>22.0</ele><time>2026-04-21T12:42:22Z</time></trkpt><trkpt lat="44.15212820009187" lon="9.903748235510552"><ele>24.0</ele><time>2026-04-21T12:42:23Z</time></trkpt><trkpt lat="44.15191296934353" lon="9.90393355891612"><ele>24.0</ele><time>2026-04-21T12:42:24Z</time></trkpt><trkpt lat="44.15168994805942" lon="9.904116705510042"><ele>24.0</ele><time>2026-04-21T12:42:25Z</time></trkpt><trkpt lat="44.15146798197237" lon="9.904292103292857"><ele>21.0</ele><time>2026-04-21T12:42:26Z</time></trkpt><trkpt lat="44.15124211974852" lon="9.904470372880771"><ele>18.0</ele><time>2026-04-21T12:42:27Z</time></trkpt><trkpt lat="44.15101481917879" lon="9.904647745077495"><ele>18.0</ele><time>2026-04-21T12:42:28Z</time></trkpt><trkpt lat="44.15078418558589" lon="9.904826595236981"><ele>18.0</ele><time>2026-04-21T12:42:29Z</time></trkpt><trkpt lat="44.15054908182775" lon="9.905012209008556"><ele>17.5</ele><time>2026-04-21T12:42:30Z</time></trkpt><trkpt lat="44.15031543461809" lon="9.905194126445899"><ele>17.0</ele><time>2026-04-21T12:42:31Z</time></trkpt><trkpt lat="44.15008612028467" lon="9.905369837783438"><ele>16.0</ele><time>2026-04-21T12:42:32Z</time></trkpt><trkpt lat="44.14985239593146" lon="9.90554632394205"><ele>15.0</ele><time>2026-04-21T12:42:33Z</time></trkpt><trkpt lat="44.14961759332087" lon="9.905722034037261"><ele>15.0</ele><time>2026-04-21T12:42:34Z</time></trkpt><trkpt lat="44.14938394648102" lon="9.905905576138052"><ele>15.0</ele><time>2026-04-21T12:42:35Z</time></trkpt><trkpt lat="44.149145064552876" lon="9.906081257584086"><ele>15.0</ele><time>2026-04-21T12:42:36Z</time></trkpt><trkpt lat="44.148908601391796" lon="9.906250757084088"><ele>15.0</ele><time>2026-04-21T12:42:37Z</time></trkpt><trkpt lat="44.14867219736907" lon="9.906426393085196"><ele>15.0</ele><time>2026-04-21T12:42:38Z</time></trkpt><trkpt lat="44.14843576027374" lon="9.906606868282802"><ele>15.0</ele><time>2026-04-21T12:42:39Z</time></trkpt><trkpt lat="44.14819980334777" lon="9.906791951486287"><ele>15.0</ele><time>2026-04-21T12:42:40Z</time></trkpt><trkpt lat="44.14796522049438" lon="9.90697718567748"><ele>15.0</ele><time>2026-04-21T12:42:41Z</time></trkpt><trkpt lat="44.14773047016425" lon="9.907158230182876"><ele>15.0</ele><time>2026-04-21T12:42:42Z</time></trkpt><trkpt lat="44.14749559025322" lon="9.907339990876444"><ele>15.0</ele><time>2026-04-21T12:42:43Z</time></trkpt><trkpt lat="44.14726060325469" lon="9.907524519951268"><ele>14.5</ele><time>2026-04-21T12:42:44Z</time></trkpt><trkpt lat="44.14702483587552" lon="9.907711854917899"><ele>14.0</ele><time>2026-04-21T12:42:45Z</time></trkpt><trkpt lat="44.146790052888385" lon="9.907894390811718"><ele>14.0</ele><time>2026-04-21T12:42:46Z</time></trkpt><trkpt lat="44.14655461033339" lon="9.908077981071788"><ele>14.0</ele><time>2026-04-21T12:42:47Z</time></trkpt><trkpt lat="44.1463207330458" lon="9.908258193462057"><ele>13.0</ele><time>2026-04-21T12:42:48Z</time></trkpt><trkpt lat="44.146090145411286" lon="9.908439580093491"><ele>12.0</ele><time>2026-04-21T12:42:49Z</time></trkpt><trkpt lat="44.14585790395955" lon="9.908621582543645"><ele>13.5</ele><time>2026-04-21T12:42:50Z</time></trkpt><trkpt lat="44.145623506663505" lon="9.908804522712563"><ele>15.0</ele><time>2026-04-21T12:42:51Z</time></trkpt><trkpt lat="44.14539246735888" lon="9.908987678540164"><ele>15.0</ele><time>2026-04-21T12:42:52Z</time></trkpt><trkpt lat="44.14516002941161" lon="9.909171671931977"><ele>15.0</ele><time>2026-04-21T12:42:53Z</time></trkpt><trkpt lat="44.14492598860328" lon="9.909353771788012"><ele>15.5</ele><time>2026-04-21T12:42:54Z</time></trkpt><trkpt lat="44.14469307144418" lon="9.909535655146005"><ele>16.0</ele><time>2026-04-21T12:42:55Z</time></trkpt><trkpt lat="44.144462051074136" lon="9.909710229138291"><ele>16.0</ele><time>2026-04-21T12:42:56Z</time></trkpt><trkpt lat="44.14424735002836" lon="9.909873852091815"><ele>16.0</ele><time>2026-04-21T12:42:57Z</time></trkpt><trkpt lat="44.14404312918639" lon="9.9100356131211"><ele>18.0</ele><time>2026-04-21T12:42:58Z</time></trkpt><trkpt lat="44.14384827386049" lon="9.910188797511925"><ele>20.0</ele><time>2026-04-21T12:42:59Z</time></trkpt><trkpt lat="44.14364799374395" lon="9.910346876215154"><ele>20.0</ele><time>2026-04-21T12:43:00Z</time></trkpt><trkpt lat="44.14344767331046" lon="9.91051818710269"><ele>20.0</ele><time>2026-04-21T12:43:01Z</time></trkpt><trkpt lat="44.143234559059124" lon="9.910666032876083"><ele>19.0</ele><time>2026-04-21T12:43:02Z</time></trkpt><trkpt lat="44.14302681416112" lon="9.91083458333927"><ele>18.0</ele><time>2026-04-21T12:43:03Z</time></trkpt><trkpt lat="44.142810876693204" lon="9.910999613917186"><ele>18.0</ele><time>2026-04-21T12:43:04Z</time></trkpt><trkpt lat="44.142601512151124" lon="9.911162472962461"><ele>18.0</ele><time>2026-04-21T12:43:05Z</time></trkpt><trkpt lat="44.14239660134948" lon="9.911323875435528"><ele>17.0</ele><time>2026-04-21T12:43:06Z</time></trkpt><trkpt lat="44.14219159366476" lon="9.91148910011682"><ele>16.0</ele><time>2026-04-21T12:43:07Z</time></trkpt><trkpt lat="44.141993370895776" lon="9.911645486113416"><ele>15.0</ele><time>2026-04-21T12:43:08Z</time></trkpt><trkpt lat="44.14179297038013" lon="9.91180267995033"><ele>14.0</ele><time>2026-04-21T12:43:09Z</time></trkpt><trkpt lat="44.141587582636184" lon="9.911964213922111"><ele>14.5</ele><time>2026-04-21T12:43:10Z</time></trkpt><trkpt lat="44.14138261005364" lon="9.91213187938089"><ele>15.0</ele><time>2026-04-21T12:43:11Z</time></trkpt><trkpt lat="44.14117615358932" lon="9.912309458098662"><ele>15.0</ele><time>2026-04-21T12:43:12Z</time></trkpt><trkpt lat="44.140973282620216" lon="9.912492314701321"><ele>15.0</ele><time>2026-04-21T12:43:13Z</time></trkpt><trkpt lat="44.14076844508946" lon="9.912682330402635"><ele>15.5</ele><time>2026-04-21T12:43:14Z</time></trkpt><trkpt lat="44.14056368978722" lon="9.912884524541782"><ele>16.0</ele><time>2026-04-21T12:43:15Z</time></trkpt><trkpt lat="44.140363458536946" lon="9.91309281844487"><ele>16.0</ele><time>2026-04-21T12:43:16Z</time></trkpt><trkpt lat="44.14017319445183" lon="9.91329168243547"><ele>16.0</ele><time>2026-04-21T12:43:17Z</time></trkpt><trkpt lat="44.139974636744284" lon="9.913494061819133"><ele>15.0</ele><time>2026-04-21T12:43:18Z</time></trkpt><trkpt lat="44.13977393755671" lon="9.913687355092767"><ele>14.0</ele><time>2026-04-21T12:43:19Z</time></trkpt><trkpt lat="44.13957056532469" lon="9.913900829530537"><ele>14.0</ele><time>2026-04-21T12:43:20Z</time></trkpt><trkpt lat="44.1393725325798" lon="9.914122050147276"><ele>14.0</ele><time>2026-04-21T12:43:21Z</time></trkpt><trkpt lat="44.13917609214027" lon="9.9143506029992"><ele>14.0</ele><time>2026-04-21T12:43:22Z</time></trkpt><trkpt lat="44.138986550426935" lon="9.914579393906171"><ele>14.0</ele><time>2026-04-21T12:43:23Z</time></trkpt><trkpt lat="44.13879485321398" lon="9.9148135574114"><ele>14.0</ele><time>2026-04-21T12:43:24Z</time></trkpt><trkpt lat="44.13860284898645" lon="9.91505560808056"><ele>14.0</ele><time>2026-04-21T12:43:25Z</time></trkpt><trkpt lat="44.13842161973219" lon="9.91527975075878"><ele>14.0</ele><time>2026-04-21T12:43:26Z</time></trkpt><trkpt lat="44.13824028561613" lon="9.91551117890077"><ele>14.0</ele><time>2026-04-21T12:43:27Z</time></trkpt><trkpt lat="44.13806022030772" lon="9.915747926141858"><ele>14.5</ele><time>2026-04-21T12:43:28Z</time></trkpt><trkpt lat="44.13787536707857" lon="9.915987453223588"><ele>15.0</ele><time>2026-04-21T12:43:29Z</time></trkpt><trkpt lat="44.137686272816666" lon="9.916224462113242"><ele>15.0</ele><time>2026-04-21T12:43:30Z</time></trkpt><trkpt lat="44.137495526362066" lon="9.916471561527805"><ele>15.0</ele><time>2026-04-21T12:43:31Z</time></trkpt><trkpt lat="44.13730470643505" lon="9.91672249569558"><ele>14.0</ele><time>2026-04-21T12:43:32Z</time></trkpt><trkpt lat="44.13711468709675" lon="9.91697070722526"><ele>13.0</ele><time>2026-04-21T12:43:33Z</time></trkpt><trkpt lat="44.13692584912199" lon="9.917218174387163"><ele>13.0</ele><time>2026-04-21T12:43:34Z</time></trkpt><trkpt lat="44.136736359526445" lon="9.917461265736772"><ele>13.0</ele><time>2026-04-21T12:43:35Z</time></trkpt><trkpt lat="44.136550957788785" lon="9.917698968537408"><ele>12.0</ele><time>2026-04-21T12:43:36Z</time></trkpt><trkpt lat="44.1363773334286" lon="9.917913898744066"><ele>11.0</ele><time>2026-04-21T12:43:37Z</time></trkpt><trkpt lat="44.136211476815575" lon="9.91812898519995"><ele>11.0</ele><time>2026-04-21T12:43:38Z</time></trkpt><trkpt lat="44.13604350500292" lon="9.918353114683928"><ele>11.0</ele><time>2026-04-21T12:43:39Z</time></trkpt><trkpt lat="44.13587228067239" lon="9.918577562179701"><ele>12.5</ele><time>2026-04-21T12:43:40Z</time></trkpt><trkpt lat="44.1356964211516" lon="9.918800171840111"><ele>14.0</ele><time>2026-04-21T12:43:41Z</time></trkpt><trkpt lat="44.13551697883219" lon="9.919029769128793"><ele>14.0</ele><time>2026-04-21T12:43:42Z</time></trkpt><trkpt lat="44.135337272172876" lon="9.919270938204948"><ele>14.0</ele><time>2026-04-21T12:43:43Z</time></trkpt><trkpt lat="44.13515327912517" lon="9.919519510540399"><ele>14.0</ele><time>2026-04-21T12:43:44Z</time></trkpt><trkpt lat="44.134966934216685" lon="9.919774102932966"><ele>14.0</ele><time>2026-04-21T12:43:45Z</time></trkpt><trkpt lat="44.134774965698675" lon="9.92002885920283"><ele>11.5</ele><time>2026-04-21T12:43:46Z</time></trkpt><trkpt lat="44.134577972326746" lon="9.920276024088967"><ele>9.0</ele><time>2026-04-21T12:43:47Z</time></trkpt><trkpt lat="44.13437814209573" lon="9.920521856584017"><ele>9.0</ele><time>2026-04-21T12:43:48Z</time></trkpt><trkpt lat="44.13418018771242" lon="9.920771278418288"><ele>9.0</ele><time>2026-04-21T12:43:49Z</time></trkpt><trkpt lat="44.13397764778481" lon="9.921020025598365"><ele>9.5</ele><time>2026-04-21T12:43:50Z</time></trkpt><trkpt lat="44.13376846811688" lon="9.921268371703485"><ele>10.0</ele><time>2026-04-21T12:43:51Z</time></trkpt><trkpt lat="44.13355722046698" lon="9.921526329785664"><ele>10.5</ele><time>2026-04-21T12:43:52Z</time></trkpt><trkpt lat="44.13335018477029" lon="9.921787576510432"><ele>11.0</ele><time>2026-04-21T12:43:53Z</time></trkpt><trkpt lat="44.133147035468504" lon="9.92205531044662"><ele>11.5</ele><time>2026-04-21T12:43:54Z</time></trkpt><trkpt lat="44.13294627718669" lon="9.922320004719452"><ele>12.0</ele><time>2026-04-21T12:43:55Z</time></trkpt><trkpt lat="44.13274260946285" lon="9.922586475572652"><ele>12.0</ele><time>2026-04-21T12:43:56Z</time></trkpt><trkpt lat="44.132535379387825" lon="9.922855705457255"><ele>12.0</ele><time>2026-04-21T12:43:57Z</time></trkpt><trkpt lat="44.13232917601482" lon="9.923120578837382"><ele>12.0</ele><time>2026-04-21T12:43:58Z</time></trkpt><trkpt lat="44.13212372423999" lon="9.923382269017791"><ele>12.0</ele><time>2026-04-21T12:43:59Z</time></trkpt><trkpt lat="44.13191668392832" lon="9.92364373370747"><ele>12.0</ele><time>2026-04-21T12:44:00Z</time></trkpt><trkpt lat="44.13171045873289" lon="9.923908665338194"><ele>12.0</ele><time>2026-04-21T12:44:01Z</time></trkpt><trkpt lat="44.13150577102801" lon="9.92417231363025"><ele>12.0</ele><time>2026-04-21T12:44:02Z</time></trkpt><trkpt lat="44.13130121897746" lon="9.924437872258153"><ele>12.0</ele><time>2026-04-21T12:44:03Z</time></trkpt><trkpt lat="44.13109547964425" lon="9.924704484150356"><ele>12.0</ele><time>2026-04-21T12:44:04Z</time></trkpt><trkpt lat="44.130889159883004" lon="9.92496852532907"><ele>12.0</ele><time>2026-04-21T12:44:05Z</time></trkpt><trkpt lat="44.13068310166868" lon="9.92523840599837"><ele>11.5</ele><time>2026-04-21T12:44:06Z</time></trkpt><trkpt lat="44.13048206633496" lon="9.925500105314086"><ele>11.0</ele><time>2026-04-21T12:44:07Z</time></trkpt><trkpt lat="44.13027147402656" lon="9.925771560139847"><ele>11.5</ele><time>2026-04-21T12:44:08Z</time></trkpt><trkpt lat="44.130063454308434" lon="9.926040379577968"><ele>12.0</ele><time>2026-04-21T12:44:09Z</time></trkpt><trkpt lat="44.12985373641088" lon="9.92630475345079"><ele>12.0</ele><time>2026-04-21T12:44:10Z</time></trkpt><trkpt lat="44.12964570487051" lon="9.926568723767913"><ele>12.0</ele><time>2026-04-21T12:44:11Z</time></trkpt><trkpt lat="44.129434725532164" lon="9.926837721554648"><ele>12.0</ele><time>2026-04-21T12:44:12Z</time></trkpt><trkpt lat="44.12922439753315" lon="9.927113367695508"><ele>12.0</ele><time>2026-04-21T12:44:13Z</time></trkpt><trkpt lat="44.12901087602132" lon="9.927381409756716"><ele>12.0</ele><time>2026-04-21T12:44:14Z</time></trkpt><trkpt lat="44.1287958568786" lon="9.927650445451228"><ele>12.0</ele><time>2026-04-21T12:44:15Z</time></trkpt><trkpt lat="44.1285801907426" lon="9.92792403019871"><ele>12.0</ele><time>2026-04-21T12:44:16Z</time></trkpt><trkpt lat="44.12836680958151" lon="9.928202668703614"><ele>12.0</ele><time>2026-04-21T12:44:17Z</time></trkpt><trkpt lat="44.12815756589453" lon="9.928473464356845"><ele>10.5</ele><time>2026-04-21T12:44:18Z</time></trkpt><trkpt lat="44.1279466399637" lon="9.928750529037154"><ele>9.0</ele><time>2026-04-21T12:44:19Z</time></trkpt><trkpt lat="44.127736234813824" lon="9.929027365523574"><ele>10.0</ele><time>2026-04-21T12:44:20Z</time></trkpt><trkpt lat="44.12752516612816" lon="9.929295311285307"><ele>11.0</ele><time>2026-04-21T12:44:21Z</time></trkpt><trkpt lat="44.12731654283384" lon="9.929560389431852"><ele>11.0</ele><time>2026-04-21T12:44:22Z</time></trkpt><trkpt lat="44.12710332209647" lon="9.929828936443936"><ele>11.0</ele><time>2026-04-21T12:44:23Z</time></trkpt><trkpt lat="44.12689785353542" lon="9.930093415868585"><ele>11.0</ele><time>2026-04-21T12:44:24Z</time></trkpt><trkpt lat="44.12669536150868" lon="9.930349753918073"><ele>11.0</ele><time>2026-04-21T12:44:25Z</time></trkpt><trkpt lat="44.12649965317822" lon="9.930604870647754"><ele>11.0</ele><time>2026-04-21T12:44:26Z</time></trkpt><trkpt lat="44.126301665727844" lon="9.93085422705653"><ele>11.0</ele><time>2026-04-21T12:44:27Z</time></trkpt><trkpt lat="44.1261073448089" lon="9.931098886281289"><ele>11.5</ele><time>2026-04-21T12:44:28Z</time></trkpt><trkpt lat="44.12591659993439" lon="9.931339333811138"><ele>12.0</ele><time>2026-04-21T12:44:29Z</time></trkpt><trkpt lat="44.12573096378242" lon="9.931584657225196"><ele>10.5</ele><time>2026-04-21T12:44:30Z</time></trkpt><trkpt lat="44.12554488186519" lon="9.931827579903393"><ele>9.0</ele><time>2026-04-21T12:44:31Z</time></trkpt><trkpt lat="44.12536197903419" lon="9.932063568762842"><ele>9.0</ele><time>2026-04-21T12:44:32Z</time></trkpt><trkpt lat="44.12517742169771" lon="9.932299379965807"><ele>9.0</ele><time>2026-04-21T12:44:33Z</time></trkpt><trkpt lat="44.12499230712088" lon="9.932537373766756"><ele>10.0</ele><time>2026-04-21T12:44:34Z</time></trkpt><trkpt lat="44.12480717435805" lon="9.932772573956413"><ele>11.0</ele><time>2026-04-21T12:44:35Z</time></trkpt><trkpt lat="44.124622736492185" lon="9.9330063676342"><ele>11.0</ele><time>2026-04-21T12:44:36Z</time></trkpt><trkpt lat="44.12443437067652" lon="9.933245790391991"><ele>11.0</ele><time>2026-04-21T12:44:37Z</time></trkpt><trkpt lat="44.12424820970438" lon="9.933480505592426"><ele>10.5</ele><time>2026-04-21T12:44:38Z</time></trkpt><trkpt lat="44.12406029159057" lon="9.933712909729065"><ele>10.0</ele><time>2026-04-21T12:44:39Z</time></trkpt><trkpt lat="44.123868341268164" lon="9.933931105170469"><ele>10.0</ele><time>2026-04-21T12:44:40Z</time></trkpt><trkpt lat="44.123675925850584" lon="9.934137866213687"><ele>10.0</ele><time>2026-04-21T12:44:41Z</time></trkpt><trkpt lat="44.123483857997236" lon="9.934346762141269"><ele>10.0</ele><time>2026-04-21T12:44:42Z</time></trkpt><trkpt lat="44.12329039252968" lon="9.934551689130739"><ele>10.0</ele><time>2026-04-21T12:44:43Z</time></trkpt><trkpt lat="44.12309182123629" lon="9.934755480919184"><ele>9.5</ele><time>2026-04-21T12:44:44Z</time></trkpt><trkpt lat="44.12288967434592" lon="9.934956705885652"><ele>9.0</ele><time>2026-04-21T12:44:45Z</time></trkpt><trkpt lat="44.12268708773474" lon="9.93515634131414"><ele>9.0</ele><time>2026-04-21T12:44:46Z</time></trkpt><trkpt lat="44.122478671838415" lon="9.93535579983594"><ele>9.0</ele><time>2026-04-21T12:44:47Z</time></trkpt><trkpt lat="44.12226724642363" lon="9.935550599394327"><ele>9.0</ele><time>2026-04-21T12:44:48Z</time></trkpt><trkpt lat="44.12205239300575" lon="9.935744410233745"><ele>9.0</ele><time>2026-04-21T12:44:49Z</time></trkpt><trkpt lat="44.12183298453134" lon="9.935932814126534"><ele>9.0</ele><time>2026-04-21T12:44:50Z</time></trkpt><trkpt lat="44.12160771283288" lon="9.93611611562665"><ele>9.0</ele><time>2026-04-21T12:44:51Z</time></trkpt><trkpt lat="44.12138249393255" lon="9.936293494519454"><ele>8.5</ele><time>2026-04-21T12:44:52Z</time></trkpt><trkpt lat="44.121154347974176" lon="9.936472121458147"><ele>8.0</ele><time>2026-04-21T12:44:53Z</time></trkpt><trkpt lat="44.12092411305767" lon="9.936647000150575"><ele>8.5</ele><time>2026-04-21T12:44:54Z</time></trkpt><trkpt lat="44.12069534702812" lon="9.936814917677198"><ele>9.0</ele><time>2026-04-21T12:44:55Z</time></trkpt><trkpt lat="44.1204593636647" lon="9.936977083956778"><ele>9.0</ele><time>2026-04-21T12:44:56Z</time></trkpt><trkpt lat="44.120223233673585" lon="9.937135457029925"><ele>9.0</ele><time>2026-04-21T12:44:57Z</time></trkpt><trkpt lat="44.11998158431441" lon="9.937291086075755"><ele>10.0</ele><time>2026-04-21T12:44:58Z</time></trkpt><trkpt lat="44.11974477223053" lon="9.93744534463294"><ele>11.0</ele><time>2026-04-21T12:44:59Z</time></trkpt><trkpt lat="44.119503200739096" lon="9.937595075878734"><ele>11.0</ele><time>2026-04-21T12:45:00Z</time></trkpt><trkpt lat="44.11925770562807" lon="9.937740143389119"><ele>11.0</ele><time>2026-04-21T12:45:01Z</time></trkpt><trkpt lat="44.119013188342926" lon="9.937889218338878"><ele>10.5</ele><time>2026-04-21T12:45:02Z</time></trkpt><trkpt lat="44.118771920410595" lon="9.938038619131904"><ele>10.0</ele><time>2026-04-21T12:45:03Z</time></trkpt><trkpt lat="44.118522293837735" lon="9.938174927536659"><ele>10.0</ele><time>2026-04-21T12:45:04Z</time></trkpt><trkpt lat="44.11827520333723" lon="9.938315383074775"><ele>10.0</ele><time>2026-04-21T12:45:05Z</time></trkpt><trkpt lat="44.118024630155666" lon="9.9384587643029"><ele>10.0</ele><time>2026-04-21T12:45:06Z</time></trkpt><trkpt lat="44.11777429594016" lon="9.93859818630273"><ele>10.0</ele><time>2026-04-21T12:45:07Z</time></trkpt><trkpt lat="44.11752639163935" lon="9.938747386873986"><ele>9.5</ele><time>2026-04-21T12:45:08Z</time></trkpt><trkpt lat="44.117275298322355" lon="9.938896679124518"><ele>9.0</ele><time>2026-04-21T12:45:09Z</time></trkpt><trkpt lat="44.11703152805952" lon="9.93904074513289"><ele>9.0</ele><time>2026-04-21T12:45:10Z</time></trkpt><trkpt lat="44.1167865260862" lon="9.93918340037993"><ele>9.0</ele><time>2026-04-21T12:45:11Z</time></trkpt><trkpt lat="44.11654054913853" lon="9.939327445821055"><ele>9.0</ele><time>2026-04-21T12:45:12Z</time></trkpt><trkpt lat="44.116290590494955" lon="9.939469500331864"><ele>9.0</ele><time>2026-04-21T12:45:13Z</time></trkpt><trkpt lat="44.116038745635" lon="9.939615657728062"><ele>9.0</ele><time>2026-04-21T12:45:14Z</time></trkpt><trkpt lat="44.11578880556368" lon="9.93976675751504"><ele>9.0</ele><time>2026-04-21T12:45:15Z</time></trkpt><trkpt lat="44.115539430305" lon="9.93991873244393"><ele>8.0</ele><time>2026-04-21T12:45:16Z</time></trkpt><trkpt lat="44.11528933418691" lon="9.940073213717666"><ele>7.0</ele><time>2026-04-21T12:45:17Z</time></trkpt><trkpt lat="44.115028917123084" lon="9.94022517478746"><ele>6.5</ele><time>2026-04-21T12:45:18Z</time></trkpt><trkpt lat="44.114770912612016" lon="9.940368361099246"><ele>6.0</ele><time>2026-04-21T12:45:19Z</time></trkpt><trkpt lat="44.114513238995556" lon="9.940516539351083"><ele>6.0</ele><time>2026-04-21T12:45:20Z</time></trkpt><trkpt lat="44.11425151755933" lon="9.940661235872518"><ele>6.0</ele><time>2026-04-21T12:45:21Z</time></trkpt><trkpt lat="44.11398874057144" lon="9.94081262476672"><ele>7.0</ele><time>2026-04-21T12:45:22Z</time></trkpt><trkpt lat="44.11373562032354" lon="9.940966046506352"><ele>8.0</ele><time>2026-04-21T12:45:23Z</time></trkpt><trkpt lat="44.1134999721253" lon="9.941104998839108"><ele>8.0</ele><time>2026-04-21T12:45:24Z</time></trkpt><trkpt lat="44.11327349612652" lon="9.94124070209965"><ele>8.0</ele><time>2026-04-21T12:45:25Z</time></trkpt><trkpt lat="44.113041499213836" lon="9.941382724837373"><ele>8.0</ele><time>2026-04-21T12:45:26Z</time></trkpt><trkpt lat="44.11280685441515" lon="9.941518674468806"><ele>8.0</ele><time>2026-04-21T12:45:27Z</time></trkpt><trkpt lat="44.11256797400162" lon="9.941657305559035"><ele>9.0</ele><time>2026-04-21T12:45:28Z</time></trkpt><trkpt lat="44.11233863424592" lon="9.94179095022417"><ele>10.0</ele><time>2026-04-21T12:45:29Z</time></trkpt><trkpt lat="44.112117252055505" lon="9.941919808300662"><ele>10.0</ele><time>2026-04-21T12:45:30Z</time></trkpt><trkpt lat="44.111893490471836" lon="9.942048105540628"><ele>10.0</ele><time>2026-04-21T12:45:31Z</time></trkpt><trkpt lat="44.1116647439628" lon="9.9421784399183"><ele>10.0</ele><time>2026-04-21T12:45:32Z</time></trkpt><trkpt lat="44.11143981012748" lon="9.942309738623301"><ele>10.0</ele><time>2026-04-21T12:45:33Z</time></trkpt><trkpt lat="44.111226117867425" lon="9.942433119832375"><ele>10.0</ele><time>2026-04-21T12:45:33.999Z</time></trkpt><trkpt lat="44.111022631154334" lon="9.942555242120664"><ele>10.0</ele><time>2026-04-21T12:45:34.999Z</time></trkpt><trkpt lat="44.110815672360694" lon="9.942680650374728"><ele>10.0</ele><time>2026-04-21T12:45:35.999Z</time></trkpt><trkpt lat="44.110604677983225" lon="9.942802870852178"><ele>10.666666666666668</ele><time>2026-04-21T12:45:36.999Z</time></trkpt><trkpt lat="44.110408159832254" lon="9.94291865011801"><ele>11.333333333333334</ele><time>2026-04-21T12:45:37.999Z</time></trkpt><trkpt lat="44.110212410678486" lon="9.943035174377071"><ele>12.0</ele><time>2026-04-21T12:45:38.999Z</time></trkpt><trkpt lat="44.110013488004135" lon="9.943147158952872"><ele>11.5</ele><time>2026-04-21T12:45:39.999Z</time></trkpt><trkpt lat="44.10980593086946" lon="9.94326284213173"><ele>11.0</ele><time>2026-04-21T12:45:40.999Z</time></trkpt><trkpt lat="44.1095929213256" lon="9.943388532496513"><ele>10.666666666666666</ele><time>2026-04-21T12:45:41.999Z</time></trkpt><trkpt lat="44.10938293554167" lon="9.943511545126645"><ele>10.333333333333334</ele><time>2026-04-21T12:45:42.999Z</time></trkpt><trkpt lat="44.10918713203061" lon="9.94362978609381"><ele>10.0</ele><time>2026-04-21T12:45:43.999Z</time></trkpt><trkpt lat="44.108986397852874" lon="9.943748906869537"><ele>9.666666666666668</ele><time>2026-04-21T12:45:44.999Z</time></trkpt><trkpt lat="44.108784623846674" lon="9.943865602341317"><ele>9.333333333333334</ele><time>2026-04-21T12:45:45.999Z</time></trkpt><trkpt lat="44.108587581771474" lon="9.943979600124743"><ele>9.0</ele><time>2026-04-21T12:45:46.999Z</time></trkpt><trkpt lat="44.108399992881985" lon="9.9440882488938"><ele>9.0</ele><time>2026-04-21T12:45:47.999Z</time></trkpt><trkpt lat="44.10820939864681" lon="9.94419980835044"><ele>9.0</ele><time>2026-04-21T12:45:48.999Z</time></trkpt><trkpt lat="44.10801979406559" lon="9.944311150416965"><ele>9.0</ele><time>2026-04-21T12:45:49.999Z</time></trkpt><trkpt lat="44.10782718780059" lon="9.944423103932724"><ele>8.666666666666666</ele><time>2026-04-21T12:45:50.999Z</time></trkpt><trkpt lat="44.10764117591307" lon="9.944528890514523"><ele>8.333333333333332</ele><time>2026-04-21T12:45:51.999Z</time></trkpt><trkpt lat="44.10745268887599" lon="9.944632340264775"><ele>8.0</ele><time>2026-04-21T12:45:52.999Z</time></trkpt><trkpt lat="44.10728302286968" lon="9.944746198319296"><ele>7.666666666666666</ele><time>2026-04-21T12:45:53.999Z</time></trkpt><trkpt lat="44.10710691920512" lon="9.944857115234013"><ele>7.333333333333334</ele><time>2026-04-21T12:45:54.999Z</time></trkpt><trkpt lat="44.106937745408274" lon="9.944968395049989"><ele>7.0</ele><time>2026-04-21T12:45:55.999Z</time></trkpt><trkpt lat="44.10676132936774" lon="9.945086442179013"><ele>7.0</ele><time>2026-04-21T12:45:56.999Z</time></trkpt><trkpt lat="44.10658506199765" lon="9.945208588044325"><ele>7.0</ele><time>2026-04-21T12:45:57.999Z</time></trkpt><trkpt lat="44.10640581067757" lon="9.945344019388545"><ele>7.0</ele><time>2026-04-21T12:45:58.999Z</time></trkpt><trkpt lat="44.10623816910696" lon="9.945476403452885"><ele>7.0</ele><time>2026-04-21T12:45:59.999Z</time></trkpt><trkpt lat="44.10607601190709" lon="9.94561135274863"><ele>7.0</ele><time>2026-04-21T12:46:00.999Z</time></trkpt><trkpt lat="44.10591529904841" lon="9.945741453233957"><ele>7.0</ele><time>2026-04-21T12:46:01.999Z</time></trkpt><trkpt lat="44.10574908836722" lon="9.945878773541704"><ele>7.666666666666667</ele><time>2026-04-21T12:46:02.999Z</time></trkpt><trkpt lat="44.10557338739138" lon="9.946026693145809"><ele>8.333333333333334</ele><time>2026-04-21T12:46:04Z</time></trkpt><trkpt lat="44.105405415703615" lon="9.946176932045535"><ele>9.0</ele><time>2026-04-21T12:46:05Z</time></trkpt><trkpt lat="44.10524500735021" lon="9.946330031893151"><ele>9.0</ele><time>2026-04-21T12:46:06Z</time></trkpt><trkpt lat="44.105076175259164" lon="9.946489285600043"><ele>9.0</ele><time>2026-04-21T12:46:07Z</time></trkpt><trkpt lat="44.10490769052062" lon="9.946659949934181"><ele>9.0</ele><time>2026-04-21T12:46:08Z</time></trkpt><trkpt lat="44.10474255877281" lon="9.946829588240917"><ele>9.333333333333334</ele><time>2026-04-21T12:46:09Z</time></trkpt><trkpt lat="44.10457769620118" lon="9.947008087572147"><ele>9.666666666666668</ele><time>2026-04-21T12:46:10Z</time></trkpt><trkpt lat="44.104413711829594" lon="9.947184271330244"><ele>10.0</ele><time>2026-04-21T12:46:11Z</time></trkpt><trkpt lat="44.10425875658646" lon="9.947352960127162"><ele>10.0</ele><time>2026-04-21T12:46:12Z</time></trkpt><trkpt lat="44.10411106455646" lon="9.947526873921058"><ele>10.0</ele><time>2026-04-21T12:46:13Z</time></trkpt><trkpt lat="44.10396308395998" lon="9.947711910292822"><ele>10.0</ele><time>2026-04-21T12:46:14Z</time></trkpt><trkpt lat="44.103804305185314" lon="9.947910320049843"><ele>9.333333333333334</ele><time>2026-04-21T12:46:15Z</time></trkpt><trkpt lat="44.103642877193266" lon="9.94811701285941"><ele>8.666666666666666</ele><time>2026-04-21T12:46:16Z</time></trkpt><trkpt lat="44.103480294191606" lon="9.948329614443383"><ele>8.0</ele><time>2026-04-21T12:46:17Z</time></trkpt><trkpt lat="44.1033187459896" lon="9.948548687081692"><ele>7.0</ele><time>2026-04-21T12:46:18Z</time></trkpt><trkpt lat="44.10316251721209" lon="9.948768295824678"><ele>6.0</ele><time>2026-04-21T12:46:19Z</time></trkpt><trkpt lat="44.10300803631758" lon="9.948988984150285"><ele>5.0</ele><time>2026-04-21T12:46:20Z</time></trkpt><trkpt lat="44.10286117520735" lon="9.9492030789147"><ele>5.5</ele><time>2026-04-21T12:46:21Z</time></trkpt><trkpt lat="44.102712844576565" lon="9.949434493329012"><ele>6.0</ele><time>2026-04-21T12:46:22Z</time></trkpt><trkpt lat="44.10256052251908" lon="9.949677792365161"><ele>6.5</ele><time>2026-04-21T12:46:23Z</time></trkpt><trkpt lat="44.102408669273935" lon="9.94991236689418"><ele>7.0</ele><time>2026-04-21T12:46:24.001Z</time></trkpt><trkpt lat="44.102261447729006" lon="9.950162898237867"><ele>8.0</ele><time>2026-04-21T12:46:25.001Z</time></trkpt><trkpt lat="44.10211437159073" lon="9.950410116946825"><ele>9.0</ele><time>2026-04-21T12:46:26.001Z</time></trkpt><trkpt lat="44.101974449537884" lon="9.950660131579102"><ele>9.0</ele><time>2026-04-21T12:46:27.001Z</time></trkpt><trkpt lat="44.101843839161305" lon="9.950899031810541"><ele>9.0</ele><time>2026-04-21T12:46:28.001Z</time></trkpt><trkpt lat="44.10172969723426" lon="9.951111490283784"><ele>9.0</ele><time>2026-04-21T12:46:29.001Z</time></trkpt><trkpt lat="44.101626229372954" lon="9.951301285176545"><ele>8.75</ele><time>2026-04-21T12:46:30.001Z</time></trkpt><trkpt lat="44.101530163866265" lon="9.951475519160754"><ele>8.5</ele><time>2026-04-21T12:46:31.001Z</time></trkpt><trkpt lat="44.10144533124979" lon="9.951615872479987"><ele>8.25</ele><time>2026-04-21T12:46:32.001Z</time></trkpt><trkpt lat="44.101365108207034" lon="9.95172843282952"><ele>8.0</ele><time>2026-04-21T12:46:33.001Z</time></trkpt><trkpt lat="44.1012693823958" lon="9.951843861343042"><ele>8.5</ele><time>2026-04-21T12:46:34.001Z</time></trkpt><trkpt lat="44.10116540418394" lon="9.951952548448276"><ele>9.0</ele><time>2026-04-21T12:46:35.001Z</time></trkpt><trkpt lat="44.101049076037505" lon="9.952041471701563"><ele>9.5</ele><time>2026-04-21T12:46:36.001Z</time></trkpt><trkpt lat="44.100922459951406" lon="9.9521029605754"><ele>10.0</ele><time>2026-04-21T12:46:37.001Z</time></trkpt><trkpt lat="44.10079700938028" lon="9.952136537089844"><ele>9.25</ele><time>2026-04-21T12:46:38.001Z</time></trkpt><trkpt lat="44.100684525793234" lon="9.952118630465243"><ele>8.5</ele><time>2026-04-21T12:46:39.001Z</time></trkpt><trkpt lat="44.10057591844527" lon="9.952075374100511"><ele>7.75</ele><time>2026-04-21T12:46:40.001Z</time></trkpt><trkpt lat="44.100476157311675" lon="9.95201030581629"><ele>7.0</ele><time>2026-04-21T12:46:41.001Z</time></trkpt><trkpt lat="44.100378728388705" lon="9.951904432775425"><ele>7.0</ele><time>2026-04-21T12:46:42.001Z</time></trkpt><trkpt lat="44.10029691471527" lon="9.951772374405824"><ele>7.0</ele><time>2026-04-21T12:46:43.001Z</time></trkpt><trkpt lat="44.10023638844178" lon="9.951648914515536"><ele>7.0</ele><time>2026-04-21T12:46:44.001Z</time></trkpt><trkpt lat="44.10020475663861" lon="9.951502922737294"><ele>7.0</ele><time>2026-04-21T12:46:45.001Z</time></trkpt><trkpt lat="44.100196795936355" lon="9.951345248085003"><ele>7.0</ele><time>2026-04-21T12:46:46.001Z</time></trkpt><trkpt lat="44.10021327389284" lon="9.951185967670897"><ele>7.0</ele><time>2026-04-21T12:46:47.001Z</time></trkpt><trkpt lat="44.100248259496674" lon="9.951034093012206"><ele>7.0</ele><time>2026-04-21T12:46:48.001Z</time></trkpt><trkpt lat="44.100300378262936" lon="9.95088672650571"><ele>7.0</ele><time>2026-04-21T12:46:49.001Z</time></trkpt><trkpt lat="44.10035608705658" lon="9.950736908666226"><ele>6.75</ele><time>2026-04-21T12:46:50.001Z</time></trkpt><trkpt lat="44.10040399358311" lon="9.950583723980147"><ele>6.5</ele><time>2026-04-21T12:46:51.001Z</time></trkpt><trkpt lat="44.100533423000066" lon="9.950459798334432"><ele>6.25</ele><time>2026-04-21T12:46:52.001Z</time></trkpt><trkpt lat="44.100632788292785" lon="9.950334453467699"><ele>6.0</ele><time>2026-04-21T12:46:53.001Z</time></trkpt><trkpt lat="44.100740004340516" lon="9.950213781498702"><ele>6.0</ele><time>2026-04-21T12:46:54.001Z</time></trkpt><trkpt lat="44.10086305916649" lon="9.950108141056557"><ele>6.0</ele><time>2026-04-21T12:46:55.001Z</time></trkpt><trkpt lat="44.100977541437175" lon="9.950027249419222"><ele>6.0</ele><time>2026-04-21T12:46:56.001Z</time></trkpt><trkpt lat="44.1010796875748" lon="9.949960193044433"><ele>6.0</ele><time>2026-04-21T12:46:57.001Z</time></trkpt><trkpt lat="44.10116301202384" lon="9.949907656994139"><ele>5.999999999999999</ele><time>2026-04-21T12:46:58.001Z</time></trkpt><trkpt lat="44.10124650638935" lon="9.949878806675766"><ele>6.0</ele><time>2026-04-21T12:46:59.001Z</time></trkpt><trkpt lat="44.10131465698059" lon="9.949829033940567"><ele>6.0</ele><time>2026-04-21T12:47:00.001Z</time></trkpt><trkpt lat="44.10137461489449" lon="9.9497934280735"><ele>6.0</ele><time>2026-04-21T12:47:01.001Z</time></trkpt><trkpt lat="44.101441204902244" lon="9.94974954456262"><ele>6.0</ele><time>2026-04-21T12:47:03.001Z</time></trkpt><trkpt lat="44.10150360921827" lon="9.949697305489192"><ele>5.999999999999999</ele><time>2026-04-21T12:50:01Z</time></trkpt><trkpt lat="44.101565849404864" lon="9.949660246601043"><ele>6.0</ele><time>2026-04-21T12:50:02Z</time></trkpt><trkpt lat="44.10164753365883" lon="9.949630712155013"><ele>6.25</ele><time>2026-04-21T12:50:04Z</time></trkpt><trkpt lat="44.101712281617246" lon="9.949586921784846"><ele>6.5</ele><time>2026-04-21T12:50:43Z</time></trkpt><trkpt lat="44.10189084873" lon="9.949429204611231"><ele>6.75</ele><time>2026-04-21T12:50:45Z</time></trkpt><trkpt lat="44.10200752405894" lon="9.949365809828121"><ele>7.0</ele><time>2026-04-21T12:50:46Z</time></trkpt><trkpt lat="44.10214154127052" lon="9.949289410087257"><ele>7.0</ele><time>2026-04-21T12:50:47Z</time></trkpt><trkpt lat="44.10227815465247" lon="9.949211394031941"><ele>7.0</ele><time>2026-04-21T12:50:48Z</time></trkpt><trkpt lat="44.1024182766002" lon="9.949130534774262"><ele>7.0</ele><time>2026-04-21T12:50:49Z</time></trkpt><trkpt lat="44.10253065793399" lon="9.949041450914674"><ele>7.0</ele><time>2026-04-21T12:50:50Z</time></trkpt><trkpt lat="44.10262141620352" lon="9.94894980706237"><ele>6.5</ele><time>2026-04-21T12:50:51Z</time></trkpt><trkpt lat="44.10270158585905" lon="9.948835235537763"><ele>6.0</ele><time>2026-04-21T12:50:52Z</time></trkpt><trkpt lat="44.102770045399616" lon="9.948698286741914"><ele>5.5</ele><time>2026-04-21T12:50:53Z</time></trkpt><trkpt lat="44.10284685861027" lon="9.948525332266497"><ele>5.0</ele><time>2026-04-21T12:50:54Z</time></trkpt><trkpt lat="44.10292012346747" lon="9.94835610625766"><ele>5.0</ele><time>2026-04-21T12:50:55Z</time></trkpt><trkpt lat="44.10298619034133" lon="9.948215537750142"><ele>5.0</ele><time>2026-04-21T12:50:56Z</time></trkpt><trkpt lat="44.103051188590506" lon="9.948086940070153"><ele>5.0</ele><time>2026-04-21T12:50:57Z</time></trkpt><trkpt lat="44.10310375799934" lon="9.947968301342534"><ele>5.0</ele><time>2026-04-21T12:50:58Z</time></trkpt><trkpt lat="44.10314760901994" lon="9.947878856388932"><ele>5.0</ele><time>2026-04-21T12:50:59Z</time></trkpt><trkpt lat="44.103186523187865" lon="9.947801856632003"><ele>5.0</ele><time>2026-04-21T12:51:00Z</time></trkpt><trkpt lat="44.10322933760591" lon="9.947708604501694"><ele>5.0</ele><time>2026-04-21T12:51:01Z</time></trkpt><trkpt lat="44.10328033230823" lon="9.947599082452488"><ele>5.0</ele><time>2026-04-21T12:51:02Z</time></trkpt><trkpt lat="44.103332585035346" lon="9.94750089794766"><ele>5.0</ele><time>2026-04-21T12:51:03Z</time></trkpt><trkpt lat="44.103381510705226" lon="9.947406276961418"><ele>5.0</ele><time>2026-04-21T12:51:04Z</time></trkpt><trkpt lat="44.10343874899282" lon="9.947317896861346"><ele>5.0</ele><time>2026-04-21T12:51:05Z</time></trkpt><trkpt lat="44.10349977843375" lon="9.947235368436667"><ele>5.6</ele><time>2026-04-21T12:51:06Z</time></trkpt><trkpt lat="44.10357028349167" lon="9.947158307989143"><ele>6.2</ele><time>2026-04-21T12:51:07Z</time></trkpt><trkpt lat="44.10364878750804" lon="9.94709237041814"><ele>6.800000000000001</ele><time>2026-04-21T12:51:08Z</time></trkpt><trkpt lat="44.10373276573203" lon="9.947032061814983"><ele>7.4</ele><time>2026-04-21T12:51:09Z</time></trkpt><trkpt lat="44.103820472365385" lon="9.946982487735697"><ele>8.0</ele><time>2026-04-21T12:51:10Z</time></trkpt><trkpt lat="44.103922226108075" lon="9.946942010413554"><ele>8.0</ele><time>2026-04-21T12:51:11Z</time></trkpt><trkpt lat="44.10403007255442" lon="9.946915259223509"><ele>8.0</ele><time>2026-04-21T12:51:12Z</time></trkpt><trkpt lat="44.10413531514475" lon="9.946909087913786"><ele>8.0</ele><time>2026-04-21T12:51:13Z</time></trkpt><trkpt lat="44.10423995062097" lon="9.946928491974761"><ele>8.0</ele><time>2026-04-21T12:51:14Z</time></trkpt><trkpt lat="44.1043410984515" lon="9.946958629421255"><ele>8.0</ele><time>2026-04-21T12:51:15Z</time></trkpt><trkpt lat="44.10442497306937" lon="9.946999569931355"><ele>8.4</ele><time>2026-04-21T12:51:16Z</time></trkpt><trkpt lat="44.104496020034205" lon="9.94704086874679"><ele>8.8</ele><time>2026-04-21T12:51:17Z</time></trkpt><trkpt lat="44.10455252918676" lon="9.947082855501668"><ele>9.2</ele><time>2026-04-21T12:51:18Z</time></trkpt><trkpt lat="44.104676149737884" lon="9.947183946211734"><ele>9.6</ele><time>2026-04-21T12:51:20Z</time></trkpt><trkpt lat="44.10474290808504" lon="9.947276364375039"><ele>10.0</ele><time>2026-04-21T12:51:21Z</time></trkpt><trkpt lat="44.10479957018548" lon="9.947343965232855"><ele>10.0</ele><time>2026-04-21T12:51:22Z</time></trkpt><trkpt lat="44.10484828728608" lon="9.947441951910186"><ele>10.0</ele><time>2026-04-21T12:51:24Z</time></trkpt><trkpt lat="44.1049099247051" lon="9.947538927296018"><ele>10.0</ele><time>2026-04-21T12:51:26Z</time></trkpt><trkpt lat="44.10491361115182" lon="9.947657677587195"><ele>10.0</ele><time>2026-04-21T12:51:27Z</time></trkpt><trkpt lat="44.104944896626556" lon="9.9477448233211"><ele>10.0</ele><time>2026-04-21T12:51:28Z</time></trkpt><trkpt lat="44.10499257826574" lon="9.947833003021055"><ele>10.0</ele><time>2026-04-21T12:51:29Z</time></trkpt><trkpt lat="44.10506057254219" lon="9.947940806132634"><ele>9.2</ele><time>2026-04-21T12:51:30Z</time></trkpt><trkpt lat="44.10512712012218" lon="9.948054697349123"><ele>8.4</ele><time>2026-04-21T12:51:31Z</time></trkpt><trkpt lat="44.105172506945934" lon="9.948168769538885"><ele>7.6</ele><time>2026-04-21T12:51:32Z</time></trkpt><trkpt lat="44.10520858952829" lon="9.948306751764807"><ele>6.8</ele><time>2026-04-21T12:51:33Z</time></trkpt><trkpt lat="44.10525104924864" lon="9.948453502170775"><ele>6.0</ele><time>2026-04-21T12:51:34Z</time></trkpt><trkpt lat="44.10529188387625" lon="9.948618198042139"><ele>6.0</ele><time>2026-04-21T12:51:35Z</time></trkpt><trkpt lat="44.1053315334962" lon="9.948784879072468"><ele>6.0</ele><time>2026-04-21T12:51:36Z</time></trkpt><trkpt lat="44.10536516188711" lon="9.948944302704213"><ele>6.0</ele><time>2026-04-21T12:51:37Z</time></trkpt><trkpt lat="44.105408051102934" lon="9.949121772505118"><ele>6.0</ele><time>2026-04-21T12:51:38Z</time></trkpt><trkpt lat="44.10545713615673" lon="9.949305289574603"><ele>5.75</ele><time>2026-04-21T12:51:39Z</time></trkpt><trkpt lat="44.10550306946981" lon="9.94949647234902"><ele>5.5</ele><time>2026-04-21T12:51:40Z</time></trkpt><trkpt lat="44.105550592306116" lon="9.949692747369612"><ele>5.25</ele><time>2026-04-21T12:51:41Z</time></trkpt><trkpt lat="44.1055967880581" lon="9.949889000235839"><ele>5.0</ele><time>2026-04-21T12:51:42Z</time></trkpt><trkpt lat="44.10564250378893" lon="9.950082109503295"><ele>5.0</ele><time>2026-04-21T12:51:43Z</time></trkpt><trkpt lat="44.105687263018304" lon="9.950269381610713"><ele>5.0</ele><time>2026-04-21T12:51:44Z</time></trkpt><trkpt lat="44.1057345854612" lon="9.950466697496298"><ele>5.0</ele><time>2026-04-21T12:51:45Z</time></trkpt><trkpt lat="44.10578075389714" lon="9.950655615548527"><ele>5.0</ele><time>2026-04-21T12:51:46Z</time></trkpt><trkpt lat="44.10581930392689" lon="9.950832347652796"><ele>5.5</ele><time>2026-04-21T12:51:47Z</time></trkpt><trkpt lat="44.105855607513504" lon="9.951010995717267"><ele>6.0</ele><time>2026-04-21T12:51:48Z</time></trkpt><trkpt lat="44.10589754327044" lon="9.951198985202495"><ele>6.5</ele><time>2026-04-21T12:51:49Z</time></trkpt><trkpt lat="44.105942747623644" lon="9.951399804840683"><ele>7.0</ele><time>2026-04-21T12:51:50Z</time></trkpt><trkpt lat="44.105989242060765" lon="9.951610791074625"><ele>6.75</ele><time>2026-04-21T12:51:51Z</time></trkpt><trkpt lat="44.10603164552985" lon="9.951802855937634"><ele>6.5</ele><time>2026-04-21T12:51:52Z</time></trkpt><trkpt lat="44.10607535369165" lon="9.951975955346613"><ele>6.25</ele><time>2026-04-21T12:51:53Z</time></trkpt><trkpt lat="44.106121315433974" lon="9.952161065897847"><ele>6.0</ele><time>2026-04-21T12:51:54Z</time></trkpt><trkpt lat="44.106170306386424" lon="9.952356386910273"><ele>6.333333333333334</ele><time>2026-04-21T12:51:55Z</time></trkpt><trkpt lat="44.106218993790414" lon="9.952564401900696"><ele>6.666666666666667</ele><time>2026-04-21T12:51:56Z</time></trkpt><trkpt lat="44.10626589160387" lon="9.952768867204819"><ele>7.0</ele><time>2026-04-21T12:51:57Z</time></trkpt><trkpt lat="44.1063115073091" lon="9.952960388267279"><ele>7.0</ele><time>2026-04-21T12:51:58Z</time></trkpt><trkpt lat="44.10635162978537" lon="9.953123073313211"><ele>6.999999999999999</ele><time>2026-04-21T12:51:59Z</time></trkpt><trkpt lat="44.106386621346616" lon="9.953267217632881"><ele>6.999999999999999</ele><time>2026-04-21T12:52:00Z</time></trkpt><trkpt lat="44.10642133758067" lon="9.953399312541963"><ele>7.0</ele><time>2026-04-21T12:52:01Z</time></trkpt><trkpt lat="44.10645597382548" lon="9.95352929129836"><ele>7.0</ele><time>2026-04-21T12:52:02Z</time></trkpt><trkpt lat="44.106489701256926" lon="9.95365577404073"><ele>7.333333333333334</ele><time>2026-04-21T12:52:03Z</time></trkpt><trkpt lat="44.1065203470643" lon="9.953760312774273"><ele>7.666666666666667</ele><time>2026-04-21T12:52:04Z</time></trkpt><trkpt lat="44.10655758543531" lon="9.953892715310241"><ele>8.0</ele><time>2026-04-21T12:52:06Z</time></trkpt><trkpt lat="44.106584942119085" lon="9.95397699327872"><ele>8.333333333333334</ele><time>2026-04-21T12:52:08Z</time></trkpt><trkpt lat="44.10661486427651" lon="9.954060645055819"><ele>8.666666666666666</ele><time>2026-04-21T12:52:11Z</time></trkpt><trkpt lat="44.10664284761271" lon="9.954148911600356"><ele>9.0</ele><time>2026-04-21T12:52:18Z</time></trkpt><trkpt lat="44.10667858638551" lon="9.95426935995258"><ele>9.333333333333334</ele><time>2026-04-21T12:52:20Z</time></trkpt><trkpt lat="44.10669440682826" lon="9.95436293526895"><ele>9.666666666666666</ele><time>2026-04-21T12:52:22Z</time></trkpt><trkpt lat="44.106700056987265" lon="9.95445911733512"><ele>10.0</ele><time>2026-04-21T12:52:24Z</time></trkpt><trkpt lat="44.106710028904715" lon="9.954553574757329"><ele>10.333333333333332</ele><time>2026-04-21T12:52:26Z</time></trkpt><trkpt lat="44.106725809172445" lon="9.954655631661664"><ele>10.666666666666666</ele><time>2026-04-21T12:52:29Z</time></trkpt><trkpt lat="44.10676243086683" lon="9.954763411225043"><ele>11.0</ele><time>2026-04-21T12:52:32Z</time></trkpt><trkpt lat="44.106712268337475" lon="9.95489403452322"><ele>11.0</ele><time>2026-04-21T12:52:34Z</time></trkpt><trkpt lat="44.106673095289686" lon="9.955045131641317"><ele>11.0</ele><time>2026-04-21T12:52:36Z</time></trkpt><trkpt lat="44.10662689147502" lon="9.955133476721251"><ele>11.0</ele><time>2026-04-21T12:52:38Z</time></trkpt><trkpt lat="44.10658577588982" lon="9.955208303923259"><ele>11.0</ele><time>2026-04-21T12:52:40Z</time></trkpt><trkpt lat="44.10654160586656" lon="9.955293220031598"><ele>11.0</ele><time>2026-04-21T12:52:42Z</time></trkpt><trkpt lat="44.10649002951935" lon="9.95537174581535"><ele>11.0</ele><time>2026-04-21T12:52:44Z</time></trkpt><trkpt lat="44.10645226939473" lon="9.955466403299186"><ele>11.0</ele><time>2026-04-21T12:52:46Z</time></trkpt><trkpt lat="44.1064354105013" lon="9.955596664673799"><ele>11.0</ele><time>2026-04-21T12:52:48Z</time></trkpt><trkpt lat="44.106437131706926" lon="9.95572713039346"><ele>11.0</ele><time>2026-04-21T12:52:50Z</time></trkpt><trkpt lat="44.106398634434136" lon="9.955918348569858"><ele>11.0</ele><time>2026-04-21T12:52:52Z</time></trkpt><trkpt lat="44.106370547112036" lon="9.956034273652515"><ele>11.0</ele><time>2026-04-21T12:52:53Z</time></trkpt><trkpt lat="44.10634088282387" lon="9.956141588539026"><ele>11.0</ele><time>2026-04-21T12:52:54Z</time></trkpt><trkpt lat="44.106311802881564" lon="9.956239037710027"><ele>11.0</ele><time>2026-04-21T12:52:55Z</time></trkpt><trkpt lat="44.106277735448224" lon="9.956331585559468"><ele>11.0</ele><time>2026-04-21T12:52:56Z</time></trkpt><trkpt lat="44.106243941746676" lon="9.956434541079037"><ele>11.0</ele><time>2026-04-21T12:52:57Z</time></trkpt><trkpt lat="44.106194732663646" lon="9.956524484015597"><ele>11.0</ele><time>2026-04-21T12:52:58Z</time></trkpt><trkpt lat="44.106181743666795" lon="9.956610759293728"><ele>11.0</ele><time>2026-04-21T12:53:02Z</time></trkpt><trkpt lat="44.10611554127028" lon="9.956795081222896"><ele>11.0</ele><time>2026-04-21T12:53:07Z</time></trkpt><trkpt lat="44.10606728677379" lon="9.95692989432457"><ele>11.0</ele><time>2026-04-21T12:53:08Z</time></trkpt><trkpt lat="44.10601654591537" lon="9.957080077684541"><ele>11.0</ele><time>2026-04-21T12:53:09Z</time></trkpt><trkpt lat="44.10597123711312" lon="9.957214566018582"><ele>11.0</ele><time>2026-04-21T12:53:10Z</time></trkpt><trkpt lat="44.1059158064675" lon="9.957332643843294"><ele>11.0</ele><time>2026-04-21T12:53:11Z</time></trkpt><trkpt lat="44.10586549102818" lon="9.957474931968045"><ele>11.333333333333332</ele><time>2026-04-21T12:53:12Z</time></trkpt><trkpt lat="44.105802276854305" lon="9.957657830190858"><ele>11.666666666666666</ele><time>2026-04-21T12:53:13Z</time></trkpt><trkpt lat="44.10575315468339" lon="9.957867204499358"><ele>12.0</ele><time>2026-04-21T12:53:14Z</time></trkpt><trkpt lat="44.10569251904918" lon="9.958073687684434"><ele>11.75</ele><time>2026-04-21T12:53:15Z</time></trkpt><trkpt lat="44.10564785503561" lon="9.958271906457973"><ele>11.5</ele><time>2026-04-21T12:53:16Z</time></trkpt><trkpt lat="44.10561082558456" lon="9.958483708157386"><ele>11.25</ele><time>2026-04-21T12:53:17Z</time></trkpt><trkpt lat="44.105581318360635" lon="9.958672708647232"><ele>11.0</ele><time>2026-04-21T12:53:18Z</time></trkpt><trkpt lat="44.10555494543853" lon="9.95883296835251"><ele>11.0</ele><time>2026-04-21T12:53:19Z</time></trkpt><trkpt lat="44.105536939715684" lon="9.958998521264308"><ele>11.0</ele><time>2026-04-21T12:53:20Z</time></trkpt><trkpt lat="44.10552602055205" lon="9.959166689440698"><ele>11.0</ele><time>2026-04-21T12:53:21Z</time></trkpt><trkpt lat="44.105511194058614" lon="9.959334770660814"><ele>11.0</ele><time>2026-04-21T12:53:22Z</time></trkpt><trkpt lat="44.10548821214189" lon="9.95950790656614"><ele>10.75</ele><time>2026-04-21T12:53:23Z</time></trkpt><trkpt lat="44.105460183736895" lon="9.959699052542536"><ele>10.5</ele><time>2026-04-21T12:53:24Z</time></trkpt><trkpt lat="44.105416538611024" lon="9.959899486899975"><ele>10.25</ele><time>2026-04-21T12:53:25Z</time></trkpt><trkpt lat="44.10540711127866" lon="9.960097998011683"><ele>10.0</ele><time>2026-04-21T12:53:26Z</time></trkpt><trkpt lat="44.105381128770134" lon="9.960270000988869"><ele>10.0</ele><time>2026-04-21T12:53:27Z</time></trkpt><trkpt lat="44.10535785866222" lon="9.960423388510273"><ele>10.0</ele><time>2026-04-21T12:53:28Z</time></trkpt><trkpt lat="44.10533783018465" lon="9.960566665913287"><ele>10.0</ele><time>2026-04-21T12:53:29Z</time></trkpt><trkpt lat="44.1053184486257" lon="9.960699832802678"><ele>10.0</ele><time>2026-04-21T12:53:30Z</time></trkpt><trkpt lat="44.105297699863144" lon="9.960821627050993"><ele>10.0</ele><time>2026-04-21T12:53:31Z</time></trkpt><trkpt lat="44.105278539309985" lon="9.960938599424965"><ele>10.166666666666668</ele><time>2026-04-21T12:53:32Z</time></trkpt><trkpt lat="44.10526096576173" lon="9.961054705441128"><ele>10.333333333333334</ele><time>2026-04-21T12:53:33Z</time></trkpt><trkpt lat="44.10524084600712" lon="9.961185948533505"><ele>10.5</ele><time>2026-04-21T12:53:34Z</time></trkpt><trkpt lat="44.10521916239436" lon="9.961307033868229"><ele>10.666666666666666</ele><time>2026-04-21T12:53:35Z</time></trkpt><trkpt lat="44.105196665214564" lon="9.961415414302078"><ele>10.833333333333332</ele><time>2026-04-21T12:53:36Z</time></trkpt><trkpt lat="44.1051737190464" lon="9.96153242498149"><ele>11.0</ele><time>2026-04-21T12:53:37Z</time></trkpt><trkpt lat="44.10514456556997" lon="9.961646429167537"><ele>10.833333333333332</ele><time>2026-04-21T12:53:38Z</time></trkpt><trkpt lat="44.10511950886298" lon="9.961760361001984"><ele>10.666666666666666</ele><time>2026-04-21T12:53:39Z</time></trkpt><trkpt lat="44.10509606924151" lon="9.961858570782669"><ele>10.5</ele><time>2026-04-21T12:53:40Z</time></trkpt><trkpt lat="44.105071542235216" lon="9.96194836351367"><ele>10.333333333333334</ele><time>2026-04-21T12:53:41Z</time></trkpt><trkpt lat="44.105051481673605" lon="9.962034541323197"><ele>10.166666666666668</ele><time>2026-04-21T12:53:42Z</time></trkpt><trkpt lat="44.10502924360989" lon="9.9621294268412"><ele>10.0</ele><time>2026-04-21T12:53:43Z</time></trkpt><trkpt lat="44.104992114771306" lon="9.962254155104938"><ele>10.0</ele><time>2026-04-21T12:53:45Z</time></trkpt><trkpt lat="44.104959788057215" lon="9.962376413471695"><ele>10.0</ele><time>2026-04-21T12:53:48Z</time></trkpt><trkpt lat="44.104927534297914" lon="9.96249843368699"><ele>10.0</ele><time>2026-04-21T12:53:50Z</time></trkpt><trkpt lat="44.10490321560011" lon="9.962579947213785"><ele>10.0</ele><time>2026-04-21T12:53:51Z</time></trkpt><trkpt lat="44.10485530050004" lon="9.96274148097417"><ele>10.0</ele><time>2026-04-21T12:53:53Z</time></trkpt><trkpt lat="44.10480208824945" lon="9.962877575297158"><ele>10.0</ele><time>2026-04-21T12:53:55Z</time></trkpt><trkpt lat="44.10473591126543" lon="9.962980401797132"><ele>10.0</ele><time>2026-04-21T12:53:57Z</time></trkpt><trkpt lat="44.104675324661855" lon="9.963068375210096"><ele>10.0</ele><time>2026-04-21T12:53:59Z</time></trkpt><trkpt lat="44.10463360732914" lon="9.963184015745638"><ele>10.0</ele><time>2026-04-21T12:54:01Z</time></trkpt><trkpt lat="44.10462310221571" lon="9.963271387292925"><ele>10.0</ele><time>2026-04-21T12:54:02Z</time></trkpt><trkpt lat="44.104613934105785" lon="9.963380839290718"><ele>10.0</ele><time>2026-04-21T12:54:03Z</time></trkpt><trkpt lat="44.10460750571659" lon="9.963484245427727"><ele>10.0</ele><time>2026-04-21T12:54:04Z</time></trkpt><trkpt lat="44.104597007708875" lon="9.963585493913719"><ele>10.0</ele><time>2026-04-21T12:54:05Z</time></trkpt><trkpt lat="44.104580158264284" lon="9.963670890152335"><ele>10.0</ele><time>2026-04-21T12:54:06Z</time></trkpt><trkpt lat="44.10455754173955" lon="9.963763499985617"><ele>10.0</ele><time>2026-04-21T12:54:07Z</time></trkpt><trkpt lat="44.10452691369408" lon="9.963880042292816"><ele>10.0</ele><time>2026-04-21T12:54:08Z</time></trkpt><trkpt lat="44.104484593095115" lon="9.964037905265272"><ele>10.0</ele><time>2026-04-21T12:54:09Z</time></trkpt><trkpt lat="44.10443327646782" lon="9.964223502683094"><ele>10.0</ele><time>2026-04-21T12:54:10Z</time></trkpt><trkpt lat="44.10438090686967" lon="9.96441561516624"><ele>10.0</ele><time>2026-04-21T12:54:11Z</time></trkpt><trkpt lat="44.10432392352448" lon="9.964624970517235"><ele>10.0</ele><time>2026-04-21T12:54:12Z</time></trkpt><trkpt lat="44.10426364754168" lon="9.964844985697177"><ele>9.0</ele><time>2026-04-21T12:54:13Z</time></trkpt><trkpt lat="44.10419923433029" lon="9.965067805170136"><ele>8.0</ele><time>2026-04-21T12:54:14Z</time></trkpt><trkpt lat="44.1041335785414" lon="9.965308967902963"><ele>7.0</ele><time>2026-04-21T12:54:15Z</time></trkpt><trkpt lat="44.10405876450258" lon="9.965562510863032"><ele>7.0</ele><time>2026-04-21T12:54:16Z</time></trkpt><trkpt lat="44.103982487357435" lon="9.965813708839283"><ele>7.0</ele><time>2026-04-21T12:54:17Z</time></trkpt><trkpt lat="44.10390962777" lon="9.966069891030953"><ele>7.0</ele><time>2026-04-21T12:54:18Z</time></trkpt><trkpt lat="44.10383114733381" lon="9.966331254068283"><ele>6.333333333333334</ele><time>2026-04-21T12:54:19Z</time></trkpt><trkpt lat="44.103753377093234" lon="9.966603905895555"><ele>5.666666666666667</ele><time>2026-04-21T12:54:20Z</time></trkpt><trkpt lat="44.10367280589491" lon="9.966878390971104"><ele>5.0</ele><time>2026-04-21T12:54:21Z</time></trkpt><trkpt lat="44.103588274751324" lon="9.967160304585734"><ele>5.0</ele><time>2026-04-21T12:54:22Z</time></trkpt><trkpt lat="44.10351184298265" lon="9.967423715832583"><ele>5.0</ele><time>2026-04-21T12:54:23Z</time></trkpt><trkpt lat="44.10344425972722" lon="9.96766640131059"><ele>5.0</ele><time>2026-04-21T12:54:24Z</time></trkpt><trkpt lat="44.10337806214556" lon="9.967874343074522"><ele>5.2</ele><time>2026-04-21T12:54:25Z</time></trkpt><trkpt lat="44.103326720939464" lon="9.968048220954662"><ele>5.4</ele><time>2026-04-21T12:54:26Z</time></trkpt><trkpt lat="44.103287217076016" lon="9.968180071440774"><ele>5.6</ele><time>2026-04-21T12:54:27Z</time></trkpt><trkpt lat="44.10324770007009" lon="9.968293491297107"><ele>5.8</ele><time>2026-04-21T12:54:28Z</time></trkpt><trkpt lat="44.10320046347383" lon="9.968382935840538"><ele>6.0</ele><time>2026-04-21T12:54:29Z</time></trkpt><trkpt lat="44.10314660200307" lon="9.96846197839865"><ele>6.0</ele><time>2026-04-21T12:54:30Z</time></trkpt><trkpt lat="44.103103081178816" lon="9.968545715295592"><ele>6.0</ele><time>2026-04-21T12:54:31Z</time></trkpt><trkpt lat="44.10306180094027" lon="9.968672466624353"><ele>6.0</ele><time>2026-04-21T12:54:33Z</time></trkpt><trkpt lat="44.10308688569302" lon="9.968798356682134"><ele>6.0</ele><time>2026-04-21T12:54:35Z</time></trkpt><trkpt lat="44.10315874436299" lon="9.968866918862458"><ele>6.0</ele><time>2026-04-21T12:54:37Z</time></trkpt><trkpt lat="44.103267308437346" lon="9.968829488540036"><ele>6.166666666666667</ele><time>2026-04-21T12:54:46Z</time></trkpt><trkpt lat="44.10330874918969" lon="9.968759142671898"><ele>6.333333333333334</ele><time>2026-04-21T12:54:52Z</time></trkpt><trkpt lat="44.10332362933087" lon="9.968672685221634"><ele>6.5</ele><time>2026-04-21T12:55:02Z</time></trkpt><trkpt lat="44.103307524617776" lon="9.968551763093854"><ele>6.666666666666667</ele><time>2026-04-21T12:55:04Z</time></trkpt><trkpt lat="44.10330590044083" lon="9.968429074009274"><ele>6.833333333333334</ele><time>2026-04-21T12:55:06Z</time></trkpt><trkpt lat="44.103311369093994" lon="9.96834054730526"><ele>7.0</ele><time>2026-04-21T12:55:07Z</time></trkpt><trkpt lat="44.10333512780604" lon="9.968180771284693"><ele>7.000000000000001</ele><time>2026-04-21T12:55:09Z</time></trkpt><trkpt lat="44.103357123829085" lon="9.96807949837591"><ele>7.0</ele><time>2026-04-21T12:55:10Z</time></trkpt><trkpt lat="44.1033902928989" lon="9.967958288333651"><ele>7.0</ele><time>2026-04-21T12:55:11Z</time></trkpt><trkpt lat="44.10343649978157" lon="9.967822842355034"><ele>7.0</ele><time>2026-04-21T12:55:12Z</time></trkpt><trkpt lat="44.10346913503512" lon="9.967714376346636"><ele>7.000000000000001</ele><time>2026-04-21T12:55:13Z</time></trkpt><trkpt lat="44.10350458795463" lon="9.967617032483359"><ele>7.0</ele><time>2026-04-21T12:55:14Z</time></trkpt><trkpt lat="44.10353485020073" lon="9.967511814984478"><ele>6.6</ele><time>2026-04-21T12:55:16Z</time></trkpt><trkpt lat="44.10355618057552" lon="9.967421320472452"><ele>6.199999999999999</ele><time>2026-04-21T12:55:18Z</time></trkpt><trkpt lat="44.1035867443942" lon="9.967314922912669"><ele>5.8</ele><time>2026-04-21T12:55:19Z</time></trkpt><trkpt lat="44.1036286802872" lon="9.967183324060123"><ele>5.4</ele><time>2026-04-21T12:55:20Z</time></trkpt><trkpt lat="44.10367864339905" lon="9.967039153792696"><ele>5.0</ele><time>2026-04-21T12:55:21Z</time></trkpt><trkpt lat="44.103735601358444" lon="9.966895283439419"><ele>5.0</ele><time>2026-04-21T12:55:22Z</time></trkpt><trkpt lat="44.10378550645298" lon="9.966751637248677"><ele>5.0</ele><time>2026-04-21T12:55:23Z</time></trkpt><trkpt lat="44.10382568210581" lon="9.96660984729798"><ele>5.0</ele><time>2026-04-21T12:55:24Z</time></trkpt><trkpt lat="44.103861652959885" lon="9.9664707912452"><ele>5.0</ele><time>2026-04-21T12:55:25Z</time></trkpt><trkpt lat="44.103895970631065" lon="9.966335620528872"><ele>5.0</ele><time>2026-04-21T12:55:26Z</time></trkpt><trkpt lat="44.10392972241" lon="9.966216702881368"><ele>5.0</ele><time>2026-04-21T12:55:27Z</time></trkpt><trkpt lat="44.103958590625794" lon="9.966113157466939"><ele>5.0</ele><time>2026-04-21T12:55:28Z</time></trkpt><trkpt lat="44.10399341281053" lon="9.965995781373937"><ele>5.0</ele><time>2026-04-21T12:55:29Z</time></trkpt><trkpt lat="44.10402977709973" lon="9.965866960989912"><ele>5.0</ele><time>2026-04-21T12:55:30Z</time></trkpt><trkpt lat="44.10406771772762" lon="9.965733092420233"><ele>5.0</ele><time>2026-04-21T12:55:31Z</time></trkpt><trkpt lat="44.10409685484431" lon="9.965632989621309"><ele>5.2</ele><time>2026-04-21T12:55:32Z</time></trkpt><trkpt lat="44.104120182415734" lon="9.96552158403299"><ele>5.4</ele><time>2026-04-21T12:55:34Z</time></trkpt><trkpt lat="44.104158279884494" lon="9.965393538545914"><ele>5.6</ele><time>2026-04-21T12:55:39Z</time></trkpt><trkpt lat="44.10418982564784" lon="9.965303387597189"><ele>5.8</ele><time>2026-04-21T12:55:40Z</time></trkpt><trkpt lat="44.104219846873086" lon="9.965188145523229"><ele>6.0</ele><time>2026-04-21T12:55:41Z</time></trkpt><trkpt lat="44.10426135482913" lon="9.965045493002973"><ele>6.8</ele><time>2026-04-21T12:55:42Z</time></trkpt><trkpt lat="44.10430539102452" lon="9.964900815409537"><ele>7.6</ele><time>2026-04-21T12:55:43Z</time></trkpt><trkpt lat="44.10434219910904" lon="9.964756601790684"><ele>8.4</ele><time>2026-04-21T12:55:44Z</time></trkpt><trkpt lat="44.10437550137955" lon="9.964642122931977"><ele>9.2</ele><time>2026-04-21T12:55:45Z</time></trkpt><trkpt lat="44.10440618530888" lon="9.96454574460987"><ele>10.0</ele><time>2026-04-21T12:55:46Z</time></trkpt><trkpt lat="44.104433820719926" lon="9.964437402848027"><ele>10.0</ele><time>2026-04-21T12:55:47Z</time></trkpt><trkpt lat="44.104464172134676" lon="9.964346705502217"><ele>10.0</ele><time>2026-04-21T12:55:48Z</time></trkpt><trkpt lat="44.104493526789206" lon="9.964238676637887"><ele>10.0</ele><time>2026-04-21T12:55:49Z</time></trkpt><trkpt lat="44.104514426104075" lon="9.964144675359524"><ele>10.0</ele><time>2026-04-21T12:55:50Z</time></trkpt><trkpt lat="44.1045498944181" lon="9.964020494939172"><ele>10.0</ele><time>2026-04-21T12:55:52Z</time></trkpt><trkpt lat="44.10457682739517" lon="9.963919923185832"><ele>10.0</ele><time>2026-04-21T12:55:54Z</time></trkpt><trkpt lat="44.104595576547176" lon="9.963822852061556"><ele>10.0</ele><time>2026-04-21T12:55:56Z</time></trkpt><trkpt lat="44.1046248572166" lon="9.963699606067761"><ele>10.0</ele><time>2026-04-21T12:55:58Z</time></trkpt><trkpt lat="44.104669818658884" lon="9.963619060057757"><ele>10.0</ele><time>2026-04-21T12:56:01Z</time></trkpt><trkpt lat="44.10470405074477" lon="9.963529007996401"><ele>10.0</ele><time>2026-04-21T12:56:06Z</time></trkpt><trkpt lat="44.10467556701765" lon="9.963613506909804"><ele>10.0</ele><time>2026-04-21T12:58:33Z</time></trkpt><trkpt lat="44.10481612231105" lon="9.963754670379446"><ele>10.0</ele><time>2026-04-21T12:59:35Z</time></trkpt></trkseg><trkseg><trkpt lat="44.104826793321664" lon="9.96371562089486"><ele>10.0</ele><time>2026-04-21T13:57:35Z</time></trkpt><trkpt lat="44.10475680352043" lon="9.963680170827669"><ele>10.0</ele><time>2026-04-21T13:57:43Z</time></trkpt><trkpt lat="44.104742565911444" lon="9.963584541614622"><ele>10.0</ele><time>2026-04-21T13:57:48Z</time></trkpt><trkpt lat="44.10471173348685" lon="9.963504488704695"><ele>10.0</ele><time>2026-04-21T14:10:01Z</time></trkpt><trkpt lat="44.10473188340285" lon="9.963362065518586"><ele>10.0</ele><time>2026-04-21T14:10:07Z</time></trkpt><trkpt lat="44.10476470245775" lon="9.963221351051857"><ele>10.0</ele><time>2026-04-21T14:10:09Z</time></trkpt><trkpt lat="44.10479613549299" lon="9.963142217832093"><ele>10.0</ele><time>2026-04-21T14:10:10Z</time></trkpt><trkpt lat="44.104791833544795" lon="9.963032214211426"><ele>10.0</ele><time>2026-04-21T14:10:12Z</time></trkpt><trkpt lat="44.1046837444587" lon="9.963002551661317"><ele>10.0</ele><time>2026-04-21T14:10:14Z</time></trkpt><trkpt lat="44.104612533741985" lon="9.963126672392642"><ele>10.0</ele><time>2026-04-21T14:10:16Z</time></trkpt><trkpt lat="44.10460587525647" lon="9.963219907992196"><ele>10.0</ele><time>2026-04-21T14:10:17Z</time></trkpt><trkpt lat="44.104606641500716" lon="9.963325523686503"><ele>10.0</ele><time>2026-04-21T14:10:18Z</time></trkpt><trkpt lat="44.10460870174077" lon="9.963433117533944"><ele>10.0</ele><time>2026-04-21T14:10:19Z</time></trkpt><trkpt lat="44.104597649190076" lon="9.963522831607438"><ele>10.0</ele><time>2026-04-21T14:10:20Z</time></trkpt><trkpt lat="44.10457637941517" lon="9.963610310441682"><ele>10.0</ele><time>2026-04-21T14:10:21Z</time></trkpt><trkpt lat="44.10455237569617" lon="9.963706525766352"><ele>10.0</ele><time>2026-04-21T14:10:22Z</time></trkpt><trkpt lat="44.104530005427335" lon="9.963798428784674"><ele>10.0</ele><time>2026-04-21T14:10:23Z</time></trkpt><trkpt lat="44.10448007808819" lon="9.96396314584833"><ele>10.0</ele><time>2026-04-21T14:10:25Z</time></trkpt><trkpt lat="44.10444859249075" lon="9.964062492588274"><ele>10.0</ele><time>2026-04-21T14:10:26Z</time></trkpt><trkpt lat="44.104414087319796" lon="9.964193028204"><ele>10.0</ele><time>2026-04-21T14:10:27Z</time></trkpt><trkpt lat="44.10437086348006" lon="9.964335992899366"><ele>10.0</ele><time>2026-04-21T14:10:28Z</time></trkpt><trkpt lat="44.10432870652704" lon="9.96447912807065"><ele>10.0</ele><time>2026-04-21T14:10:29Z</time></trkpt><trkpt lat="44.10429178114909" lon="9.964603492057414"><ele>10.0</ele><time>2026-04-21T14:10:30Z</time></trkpt><trkpt lat="44.1042542092747" lon="9.964709498699358"><ele>10.0</ele><time>2026-04-21T14:10:31Z</time></trkpt><trkpt lat="44.104219402514715" lon="9.964816870256106"><ele>10.0</ele><time>2026-04-21T14:10:32Z</time></trkpt><trkpt lat="44.104183073505126" lon="9.96491130039425"><ele>10.0</ele><time>2026-04-21T14:10:33Z</time></trkpt><trkpt lat="44.1040999792643" lon="9.965003398146228"><ele>10.0</ele><time>2026-04-21T14:10:35Z</time></trkpt><trkpt lat="44.10402396313749" lon="9.965086723643857"><ele>10.0</ele><time>2026-04-21T14:10:37Z</time></trkpt><trkpt lat="44.10397602443165" lon="9.965154326980084"><ele>10.0</ele><time>2026-04-21T14:10:39Z</time></trkpt><trkpt lat="44.10391280599074" lon="9.965191469865557"><ele>9.4</ele><time>2026-04-21T14:12:30Z</time></trkpt><trkpt lat="44.10387657927868" lon="9.965265874378558"><ele>8.8</ele><time>2026-04-21T14:12:40Z</time></trkpt><trkpt lat="44.10393311207167" lon="9.965213251834767"><ele>8.2</ele><time>2026-04-21T14:13:31Z</time></trkpt><trkpt lat="44.103913261629124" lon="9.965403069331346"><ele>7.6</ele><time>2026-04-21T14:14:40.001Z</time></trkpt><trkpt lat="44.10394285627832" lon="9.965551163593611"><ele>7.0</ele><time>2026-04-21T14:14:42.001Z</time></trkpt><trkpt lat="44.103974819969174" lon="9.965690840787266"><ele>7.0</ele><time>2026-04-21T14:14:44Z</time></trkpt><trkpt lat="44.10397825483563" lon="9.965793627631008"><ele>6.999999999999999</ele><time>2026-04-21T14:14:45Z</time></trkpt><trkpt lat="44.10395931460694" lon="9.965912655894249"><ele>6.999999999999999</ele><time>2026-04-21T14:14:46Z</time></trkpt><trkpt lat="44.10392123775654" lon="9.966062269644018"><ele>7.0</ele><time>2026-04-21T14:14:47Z</time></trkpt><trkpt lat="44.10387210628522" lon="9.966218891800658"><ele>7.0</ele><time>2026-04-21T14:14:48Z</time></trkpt><trkpt lat="44.10381742440087" lon="9.966392731993107"><ele>6.5</ele><time>2026-04-21T14:14:49Z</time></trkpt><trkpt lat="44.10376146584353" lon="9.966571897005638"><ele>6.0</ele><time>2026-04-21T14:14:50Z</time></trkpt><trkpt lat="44.10371036592328" lon="9.966748405119455"><ele>5.5</ele><time>2026-04-21T14:14:51Z</time></trkpt><trkpt lat="44.10366997226986" lon="9.9669031245688"><ele>5.0</ele><time>2026-04-21T14:14:52Z</time></trkpt><trkpt lat="44.10362370040412" lon="9.967075002555204"><ele>5.0</ele><time>2026-04-21T14:14:53Z</time></trkpt><trkpt lat="44.10357240362386" lon="9.967236624177362"><ele>5.0</ele><time>2026-04-21T14:14:54Z</time></trkpt><trkpt lat="44.1035269303991" lon="9.967382970337077"><ele>5.0</ele><time>2026-04-21T14:14:55Z</time></trkpt><trkpt lat="44.10348379094341" lon="9.967529029503499"><ele>5.0</ele><time>2026-04-21T14:14:56Z</time></trkpt><trkpt lat="44.103450313715946" lon="9.967652039913972"><ele>5.0</ele><time>2026-04-21T14:14:57Z</time></trkpt><trkpt lat="44.10341811264552" lon="9.967785301221955"><ele>5.2</ele><time>2026-04-21T14:14:58Z</time></trkpt><trkpt lat="44.10337827481257" lon="9.96793414777673"><ele>5.4</ele><time>2026-04-21T14:14:59Z</time></trkpt><trkpt lat="44.10334118770762" lon="9.968052922817925"><ele>5.6</ele><time>2026-04-21T14:15:00Z</time></trkpt><trkpt lat="44.10331292579014" lon="9.96815163645536"><ele>5.8</ele><time>2026-04-21T14:15:01Z</time></trkpt><trkpt lat="44.10328315105548" lon="9.968237025200787"><ele>6.0</ele><time>2026-04-21T14:15:02Z</time></trkpt><trkpt lat="44.10321364481006" lon="9.968402897122996"><ele>6.0</ele><time>2026-04-21T14:15:04Z</time></trkpt><trkpt lat="44.10314489952046" lon="9.968485019777125"><ele>6.0</ele><time>2026-04-21T14:15:05Z</time></trkpt><trkpt lat="44.103086898635546" lon="9.968570736655"><ele>6.0</ele><time>2026-04-21T14:15:06Z</time></trkpt><trkpt lat="44.10305351419314" lon="9.968647137219232"><ele>6.0</ele><time>2026-04-21T14:15:07Z</time></trkpt><trkpt lat="44.10306503603338" lon="9.96878871817076"><ele>6.0</ele><time>2026-04-21T14:15:09Z</time></trkpt><trkpt lat="44.10316004976822" lon="9.968872429200204"><ele>6.0</ele><time>2026-04-21T14:15:11Z</time></trkpt><trkpt lat="44.103222380894735" lon="9.968858358753796"><ele>6.0</ele><time>2026-04-21T14:15:13Z</time></trkpt><trkpt lat="44.103315732001185" lon="9.968796024770617"><ele>6.0</ele><time>2026-04-21T14:15:20Z</time></trkpt><trkpt lat="44.10333967664235" lon="9.968681915436372"><ele>6.0</ele><time>2026-04-21T14:15:22Z</time></trkpt><trkpt lat="44.103310392062426" lon="9.968546050558865"><ele>6.0</ele><time>2026-04-21T14:15:24Z</time></trkpt><trkpt lat="44.1033004342156" lon="9.96844784164346"><ele>6.0</ele><time>2026-04-21T14:15:25Z</time></trkpt><trkpt lat="44.1033151221122" lon="9.968287371275077"><ele>6.166666666666667</ele><time>2026-04-21T14:15:27Z</time></trkpt><trkpt lat="44.103332165011174" lon="9.9681984617266"><ele>6.333333333333334</ele><time>2026-04-21T14:15:28Z</time></trkpt><trkpt lat="44.10335576462695" lon="9.96808515370391"><ele>6.5</ele><time>2026-04-21T14:15:29Z</time></trkpt><trkpt lat="44.1033896946998" lon="9.96797181966705"><ele>6.666666666666667</ele><time>2026-04-21T14:15:31Z</time></trkpt><trkpt lat="44.10342051618566" lon="9.967890198674393"><ele>6.833333333333334</ele><time>2026-04-21T14:15:34Z</time></trkpt><trkpt lat="44.103443956642415" lon="9.96780852555146"><ele>7.0</ele><time>2026-04-21T14:15:36Z</time></trkpt><trkpt lat="44.103476249499465" lon="9.967703380266995"><ele>7.000000000000001</ele><time>2026-04-21T14:15:38Z</time></trkpt><trkpt lat="44.10350579556075" lon="9.96761465569547"><ele>7.0</ele><time>2026-04-21T14:15:40Z</time></trkpt><trkpt lat="44.103554541432935" lon="9.967436811264353"><ele>7.0</ele><time>2026-04-21T14:15:42Z</time></trkpt><trkpt lat="44.103587262871336" lon="9.967323630340006"><ele>7.0</ele><time>2026-04-21T14:15:43Z</time></trkpt><trkpt lat="44.10361473080624" lon="9.967222534447647"><ele>7.000000000000001</ele><time>2026-04-21T14:15:44Z</time></trkpt><trkpt lat="44.10363898949576" lon="9.96713830964102"><ele>7.0</ele><time>2026-04-21T14:15:45Z</time></trkpt><trkpt lat="44.10368509672649" lon="9.967021299633029"><ele>6.666666666666667</ele><time>2026-04-21T14:15:47Z</time></trkpt><trkpt lat="44.1037524879217" lon="9.966870707993968"><ele>6.333333333333334</ele><time>2026-04-21T14:15:49Z</time></trkpt><trkpt lat="44.10378193431931" lon="9.966771511314475"><ele>6.0</ele><time>2026-04-21T14:15:50Z</time></trkpt><trkpt lat="44.103809907643274" lon="9.96667552846051"><ele>5.666666666666667</ele><time>2026-04-21T14:15:51Z</time></trkpt><trkpt lat="44.10383537289613" lon="9.966587100119733"><ele>5.333333333333334</ele><time>2026-04-21T14:15:52Z</time></trkpt><trkpt lat="44.10385802613042" lon="9.966489494419248"><ele>5.0</ele><time>2026-04-21T14:15:53Z</time></trkpt><trkpt lat="44.10389381830396" lon="9.966352945250424"><ele>5.0</ele><time>2026-04-21T14:15:55Z</time></trkpt><trkpt lat="44.10392036291665" lon="9.96625686204703"><ele>5.0</ele><time>2026-04-21T14:15:56Z</time></trkpt><trkpt lat="44.10394751825866" lon="9.966153994419"><ele>5.0</ele><time>2026-04-21T14:15:57Z</time></trkpt><trkpt lat="44.10397872893947" lon="9.966051918919414"><ele>5.0</ele><time>2026-04-21T14:15:58Z</time></trkpt><trkpt lat="44.104008655574205" lon="9.96593745226318"><ele>5.0</ele><time>2026-04-21T14:15:59Z</time></trkpt><trkpt lat="44.10404449790125" lon="9.965814035674232"><ele>5.0</ele><time>2026-04-21T14:16:00Z</time></trkpt><trkpt lat="44.104070822853636" lon="9.96571650178466"><ele>5.2</ele><time>2026-04-21T14:16:01Z</time></trkpt><trkpt lat="44.104095723973145" lon="9.96562635882772"><ele>5.4</ele><time>2026-04-21T14:16:02Z</time></trkpt><trkpt lat="44.104120383103684" lon="9.965503344522643"><ele>5.6</ele><time>2026-04-21T14:16:03Z</time></trkpt><trkpt lat="44.10415140999316" lon="9.965388495508604"><ele>5.8</ele><time>2026-04-21T14:16:04Z</time></trkpt><trkpt lat="44.10419479359859" lon="9.965251510488875"><ele>6.0</ele><time>2026-04-21T14:16:05Z</time></trkpt><trkpt lat="44.10424362231192" lon="9.96510563532104"><ele>6.8</ele><time>2026-04-21T14:16:06Z</time></trkpt><trkpt lat="44.10428764338663" lon="9.96495605272614"><ele>7.6</ele><time>2026-04-21T14:16:07Z</time></trkpt><trkpt lat="44.10432488382836" lon="9.964829108307693"><ele>8.4</ele><time>2026-04-21T14:16:08Z</time></trkpt><trkpt lat="44.10435910610298" lon="9.96471575569723"><ele>9.2</ele><time>2026-04-21T14:16:09Z</time></trkpt><trkpt lat="44.10438743844668" lon="9.964610185600115"><ele>10.0</ele><time>2026-04-21T14:16:10Z</time></trkpt><trkpt lat="44.10441792302307" lon="9.964508505867544"><ele>10.0</ele><time>2026-04-21T14:16:11Z</time></trkpt><trkpt lat="44.10444954327431" lon="9.964402157701103"><ele>10.0</ele><time>2026-04-21T14:16:12Z</time></trkpt><trkpt lat="44.10447619821938" lon="9.96429222883643"><ele>10.0</ele><time>2026-04-21T14:16:13Z</time></trkpt><trkpt lat="44.104504066285315" lon="9.964184560992766"><ele>10.0</ele><time>2026-04-21T14:16:14Z</time></trkpt><trkpt lat="44.10453167203579" lon="9.96408022279904"><ele>10.0</ele><time>2026-04-21T14:16:15Z</time></trkpt><trkpt lat="44.104551145064576" lon="9.963985646451906"><ele>10.0</ele><time>2026-04-21T14:16:16Z</time></trkpt><trkpt lat="44.10457876828095" lon="9.963842746443861"><ele>10.0</ele><time>2026-04-21T14:16:18Z</time></trkpt><trkpt lat="44.104610407571" lon="9.96371633529818"><ele>10.0</ele><time>2026-04-21T14:16:20Z</time></trkpt><trkpt lat="44.1046536870183" lon="9.96357953364133"><ele>10.0</ele><time>2026-04-21T14:16:22Z</time></trkpt><trkpt lat="44.104690641233105" lon="9.963455256656706"><ele>10.0</ele><time>2026-04-21T14:16:24Z</time></trkpt><trkpt lat="44.10471353389538" lon="9.963353795942822"><ele>10.0</ele><time>2026-04-21T14:16:26Z</time></trkpt><trkpt lat="44.10477077187729" lon="9.963216235731283"><ele>10.0</ele><time>2026-04-21T14:16:30Z</time></trkpt><trkpt lat="44.104812082812494" lon="9.963098638832617"><ele>10.0</ele><time>2026-04-21T14:16:32Z</time></trkpt><trkpt lat="44.104850130008145" lon="9.962904223324593"><ele>10.0</ele><time>2026-04-21T14:16:34Z</time></trkpt><trkpt lat="44.10487983854332" lon="9.962781094616128"><ele>10.0</ele><time>2026-04-21T14:16:35.001Z</time></trkpt><trkpt lat="44.10491249153296" lon="9.962625778055942"><ele>10.0</ele><time>2026-04-21T14:16:36.001Z</time></trkpt><trkpt lat="44.10495868980289" lon="9.962452648804211"><ele>10.0</ele><time>2026-04-21T14:16:37.001Z</time></trkpt><trkpt lat="44.1050112270096" lon="9.962274773528138"><ele>10.0</ele><time>2026-04-21T14:16:38.001Z</time></trkpt><trkpt lat="44.10506729016367" lon="9.96208392958985"><ele>10.0</ele><time>2026-04-21T14:16:39.001Z</time></trkpt><trkpt lat="44.105120408719685" lon="9.961886964062908"><ele>10.0</ele><time>2026-04-21T14:16:40.001Z</time></trkpt><trkpt lat="44.1051670031762" lon="9.961700265700365"><ele>10.25</ele><time>2026-04-21T14:16:41.001Z</time></trkpt><trkpt lat="44.1052083295821" lon="9.96151910760125"><ele>10.5</ele><time>2026-04-21T14:16:42.001Z</time></trkpt><trkpt lat="44.10524637269347" lon="9.961321862793923"><ele>10.75</ele><time>2026-04-21T14:16:43.001Z</time></trkpt><trkpt lat="44.105281136849385" lon="9.9611251472508"><ele>11.0</ele><time>2026-04-21T14:16:44.001Z</time></trkpt><trkpt lat="44.10531231824723" lon="9.96092334019696"><ele>10.75</ele><time>2026-04-21T14:16:45.001Z</time></trkpt><trkpt lat="44.105340905500285" lon="9.960729782805862"><ele>10.5</ele><time>2026-04-21T14:16:46.001Z</time></trkpt><trkpt lat="44.10536580854226" lon="9.960553286130798"><ele>10.25</ele><time>2026-04-21T14:16:47.001Z</time></trkpt><trkpt lat="44.105385558437234" lon="9.96038687279319"><ele>10.0</ele><time>2026-04-21T14:16:48.001Z</time></trkpt><trkpt lat="44.10540762008285" lon="9.960217456267769"><ele>10.0</ele><time>2026-04-21T14:16:49.001Z</time></trkpt><trkpt lat="44.10543592738663" lon="9.960042914846653"><ele>10.0</ele><time>2026-04-21T14:16:50Z</time></trkpt><trkpt lat="44.105464304910946" lon="9.959868202080465"><ele>10.0</ele><time>2026-04-21T14:16:51Z</time></trkpt><trkpt lat="44.10548729970558" lon="9.959691174082723"><ele>10.0</ele><time>2026-04-21T14:16:52Z</time></trkpt><trkpt lat="44.105509707996646" lon="9.959517433612195"><ele>10.0</ele><time>2026-04-21T14:16:53Z</time></trkpt><trkpt lat="44.105530789735695" lon="9.959356278543101"><ele>10.0</ele><time>2026-04-21T14:16:54Z</time></trkpt><trkpt lat="44.105551200838896" lon="9.959205021326378"><ele>10.0</ele><time>2026-04-21T14:16:55Z</time></trkpt><trkpt lat="44.1055745838512" lon="9.959052212111928"><ele>10.0</ele><time>2026-04-21T14:16:56Z</time></trkpt><trkpt lat="44.10560216445072" lon="9.958892157105009"><ele>10.25</ele><time>2026-04-21T14:16:57Z</time></trkpt><trkpt lat="44.10562569969364" lon="9.958726685855005"><ele>10.5</ele><time>2026-04-21T14:16:58Z</time></trkpt><trkpt lat="44.105651622475904" lon="9.958556822661283"><ele>10.75</ele><time>2026-04-21T14:16:59Z</time></trkpt><trkpt lat="44.10567655606441" lon="9.958395854877747"><ele>11.0</ele><time>2026-04-21T14:17:00Z</time></trkpt><trkpt lat="44.10570182320105" lon="9.958247444226352"><ele>11.200000000000001</ele><time>2026-04-21T14:17:01Z</time></trkpt><trkpt lat="44.10572595993064" lon="9.958109350396066"><ele>11.4</ele><time>2026-04-21T14:17:02Z</time></trkpt><trkpt lat="44.10576074276835" lon="9.957975470113483"><ele>11.6</ele><time>2026-04-21T14:17:03Z</time></trkpt><trkpt lat="44.10579882296131" lon="9.957841425541236"><ele>11.8</ele><time>2026-04-21T14:17:04Z</time></trkpt><trkpt lat="44.10583986884896" lon="9.957705770685754"><ele>12.0</ele><time>2026-04-21T14:17:05Z</time></trkpt><trkpt lat="44.105882549289696" lon="9.95756594511961"><ele>11.8</ele><time>2026-04-21T14:17:06Z</time></trkpt><trkpt lat="44.105929274814834" lon="9.957420767190188"><ele>11.6</ele><time>2026-04-21T14:17:07Z</time></trkpt><trkpt lat="44.10597868470107" lon="9.957275690737049"><ele>11.4</ele><time>2026-04-21T14:17:08Z</time></trkpt><trkpt lat="44.10602770973578" lon="9.957142582928531"><ele>11.200000000000001</ele><time>2026-04-21T14:17:09Z</time></trkpt><trkpt lat="44.106070103986404" lon="9.957013955203495"><ele>11.0</ele><time>2026-04-21T14:17:10Z</time></trkpt><trkpt lat="44.106110302992626" lon="9.95689610506561"><ele>11.0</ele><time>2026-04-21T14:17:11Z</time></trkpt><trkpt lat="44.1061489067313" lon="9.95678513853516"><ele>11.0</ele><time>2026-04-21T14:17:12Z</time></trkpt><trkpt lat="44.106184640395895" lon="9.956681027150063"><ele>11.0</ele><time>2026-04-21T14:17:13Z</time></trkpt><trkpt lat="44.106220019946136" lon="9.956582924970629"><ele>11.0</ele><time>2026-04-21T14:17:14Z</time></trkpt><trkpt lat="44.10625667966448" lon="9.956484440238746"><ele>11.0</ele><time>2026-04-21T14:17:15Z</time></trkpt><trkpt lat="44.10629699835889" lon="9.956376441226126"><ele>11.0</ele><time>2026-04-21T14:17:16Z</time></trkpt><trkpt lat="44.10633213573816" lon="9.956270978143017"><ele>11.0</ele><time>2026-04-21T14:17:17Z</time></trkpt><trkpt lat="44.10636458676834" lon="9.956172382433863"><ele>11.0</ele><time>2026-04-21T14:17:18Z</time></trkpt><trkpt lat="44.106396556882466" lon="9.95607078927762"><ele>11.0</ele><time>2026-04-21T14:17:19Z</time></trkpt><trkpt lat="44.106425532835246" lon="9.955977395396022"><ele>11.0</ele><time>2026-04-21T14:17:20Z</time></trkpt><trkpt lat="44.10648901590033" lon="9.95582819169951"><ele>11.0</ele><time>2026-04-21T14:17:22Z</time></trkpt><trkpt lat="44.1065699707544" lon="9.955699439559575"><ele>11.333333333333332</ele><time>2026-04-21T14:17:24Z</time></trkpt><trkpt lat="44.106649675013045" lon="9.955573069967949"><ele>11.666666666666666</ele><time>2026-04-21T14:17:26Z</time></trkpt><trkpt lat="44.106678470252" lon="9.95548883000646"><ele>12.0</ele><time>2026-04-21T14:17:27Z</time></trkpt><trkpt lat="44.10670004296652" lon="9.955395767745593"><ele>12.333333333333332</ele><time>2026-04-21T14:17:28Z</time></trkpt><trkpt lat="44.10671624907849" lon="9.955296335103748"><ele>12.666666666666666</ele><time>2026-04-21T14:17:29Z</time></trkpt><trkpt lat="44.10673154937025" lon="9.95519523648518"><ele>13.0</ele><time>2026-04-21T14:17:30Z</time></trkpt><trkpt lat="44.106752196565814" lon="9.955106617806246"><ele>12.666666666666666</ele><time>2026-04-21T14:17:31Z</time></trkpt><trkpt lat="44.10678159942985" lon="9.95502523599343"><ele>12.333333333333332</ele><time>2026-04-21T14:17:32Z</time></trkpt><trkpt lat="44.106817002640796" lon="9.954937723643473"><ele>12.0</ele><time>2026-04-21T14:17:33Z</time></trkpt><trkpt lat="44.10685813764452" lon="9.954862970656514"><ele>11.666666666666666</ele><time>2026-04-21T14:17:34Z</time></trkpt><trkpt lat="44.106949876442215" lon="9.954731610402423"><ele>11.333333333333332</ele><time>2026-04-21T14:17:36Z</time></trkpt><trkpt lat="44.10700165936492" lon="9.954670150875982"><ele>11.0</ele><time>2026-04-21T14:17:37Z</time></trkpt><trkpt lat="44.107063458877" lon="9.954531438037455"><ele>11.0</ele><time>2026-04-21T14:17:39Z</time></trkpt><trkpt lat="44.10705282606647" lon="9.954360679490684"><ele>11.0</ele><time>2026-04-21T14:17:41Z</time></trkpt><trkpt lat="44.10696593987203" lon="9.954230973855488"><ele>11.0</ele><time>2026-04-21T14:17:43Z</time></trkpt><trkpt lat="44.10689723343986" lon="9.954181670956302"><ele>11.0</ele><time>2026-04-21T14:17:44Z</time></trkpt><trkpt lat="44.106820195368456" lon="9.954130229498173"><ele>11.0</ele><time>2026-04-21T14:17:45Z</time></trkpt><trkpt lat="44.10674628938461" lon="9.954065215177275"><ele>10.8</ele><time>2026-04-21T14:17:46Z</time></trkpt><trkpt lat="44.106682464561054" lon="9.953977164457696"><ele>10.600000000000001</ele><time>2026-04-21T14:17:47Z</time></trkpt><trkpt lat="44.10663279422672" lon="9.953878733172505"><ele>10.4</ele><time>2026-04-21T14:17:48Z</time></trkpt><trkpt lat="44.10658735963948" lon="9.95375338294991"><ele>10.2</ele><time>2026-04-21T14:17:49Z</time></trkpt><trkpt lat="44.10654902050723" lon="9.953624384708107"><ele>10.0</ele><time>2026-04-21T14:17:50Z</time></trkpt><trkpt lat="44.10651024069772" lon="9.953501276239693"><ele>9.8</ele><time>2026-04-21T14:17:51Z</time></trkpt><trkpt lat="44.10646833501358" lon="9.953389500495506"><ele>9.6</ele><time>2026-04-21T14:17:52Z</time></trkpt><trkpt lat="44.10644529445523" lon="9.953283337105887"><ele>9.4</ele><time>2026-04-21T14:17:53Z</time></trkpt><trkpt lat="44.1064191907599" lon="9.953162203803824"><ele>9.2</ele><time>2026-04-21T14:17:54Z</time></trkpt><trkpt lat="44.10638767052458" lon="9.953024798061094"><ele>9.0</ele><time>2026-04-21T14:17:55Z</time></trkpt><trkpt lat="44.10635827731852" lon="9.95290017433187"><ele>8.6</ele><time>2026-04-21T14:17:56Z</time></trkpt><trkpt lat="44.1063322574431" lon="9.952786596139285"><ele>8.2</ele><time>2026-04-21T14:17:57Z</time></trkpt><trkpt lat="44.10630443048489" lon="9.952668041602282"><ele>7.799999999999999</ele><time>2026-04-21T14:17:58Z</time></trkpt><trkpt lat="44.1062719183385" lon="9.952529496382546"><ele>7.3999999999999995</ele><time>2026-04-21T14:17:59Z</time></trkpt><trkpt lat="44.10623476616382" lon="9.952379340051193"><ele>7.0</ele><time>2026-04-21T14:18:00Z</time></trkpt><trkpt lat="44.10619718390112" lon="9.95224074725165"><ele>7.0</ele><time>2026-04-21T14:18:01Z</time></trkpt><trkpt lat="44.10617215482872" lon="9.952115264834992"><ele>6.999999999999999</ele><time>2026-04-21T14:18:02Z</time></trkpt><trkpt lat="44.10614159429052" lon="9.951982663498452"><ele>6.999999999999999</ele><time>2026-04-21T14:18:03Z</time></trkpt><trkpt lat="44.106109867442974" lon="9.951846546884205"><ele>7.0</ele><time>2026-04-21T14:18:04Z</time></trkpt><trkpt lat="44.106079519037635" lon="9.951707087116404"><ele>7.0</ele><time>2026-04-21T14:18:05Z</time></trkpt><trkpt lat="44.106049160495665" lon="9.951566241298472"><ele>7.0</ele><time>2026-04-21T14:18:06Z</time></trkpt><trkpt lat="44.10601556367129" lon="9.95142251039318"><ele>6.999999999999999</ele><time>2026-04-21T14:18:07Z</time></trkpt><trkpt lat="44.10597991616459" lon="9.951276864067848"><ele>6.999999999999999</ele><time>2026-04-21T14:18:08Z</time></trkpt><trkpt lat="44.10594416550184" lon="9.95113003679033"><ele>7.0</ele><time>2026-04-21T14:18:09Z</time></trkpt><trkpt lat="44.10591117055756" lon="9.95098022523267"><ele>7.0</ele><time>2026-04-21T14:18:10Z</time></trkpt><trkpt lat="44.105877229948085" lon="9.950829084690897"><ele>7.0</ele><time>2026-04-21T14:18:11Z</time></trkpt><trkpt lat="44.10584069286236" lon="9.950683806474437"><ele>6.999999999999999</ele><time>2026-04-21T14:18:12Z</time></trkpt><trkpt lat="44.105804665625655" lon="9.950537925449666"><ele>6.999999999999999</ele><time>2026-04-21T14:18:13Z</time></trkpt><trkpt lat="44.105771764603425" lon="9.95039591164364"><ele>7.0</ele><time>2026-04-21T14:18:14Z</time></trkpt><trkpt lat="44.10573884080824" lon="9.950252828604507"><ele>7.0</ele><time>2026-04-21T14:18:15Z</time></trkpt><trkpt lat="44.105709835112826" lon="9.950108518538343"><ele>6.6</ele><time>2026-04-21T14:18:16Z</time></trkpt><trkpt lat="44.105681675548595" lon="9.949958511548678"><ele>6.199999999999999</ele><time>2026-04-21T14:18:17Z</time></trkpt><trkpt lat="44.105659712948125" lon="9.949816225766119"><ele>5.8</ele><time>2026-04-21T14:18:18Z</time></trkpt><trkpt lat="44.105640410947174" lon="9.94970615622437"><ele>5.4</ele><time>2026-04-21T14:18:19Z</time></trkpt><trkpt lat="44.10560724330829" lon="9.949549148956013"><ele>5.0</ele><time>2026-04-21T14:18:21Z</time></trkpt><trkpt lat="44.10557167256483" lon="9.949422592412505"><ele>5.0</ele><time>2026-04-21T14:20:23Z</time></trkpt><trkpt lat="44.10554577712691" lon="9.949325619443027"><ele>5.0</ele><time>2026-04-21T14:20:24Z</time></trkpt><trkpt lat="44.10551772883006" lon="9.94921315211234"><ele>5.0</ele><time>2026-04-21T14:20:25Z</time></trkpt><trkpt lat="44.105481752113505" lon="9.949081042890393"><ele>5.0</ele><time>2026-04-21T14:20:26Z</time></trkpt><trkpt lat="44.105448007287265" lon="9.948940017061341"><ele>5.0</ele><time>2026-04-21T14:20:27Z</time></trkpt><trkpt lat="44.10541164278783" lon="9.948799833885206"><ele>5.0</ele><time>2026-04-21T14:20:28Z</time></trkpt><trkpt lat="44.10537340816417" lon="9.948647080311634"><ele>5.0</ele><time>2026-04-21T14:20:29Z</time></trkpt><trkpt lat="44.10534176936389" lon="9.948515188048129"><ele>5.0</ele><time>2026-04-21T14:20:30Z</time></trkpt><trkpt lat="44.10530162849335" lon="9.948372366475937"><ele>5.0</ele><time>2026-04-21T14:20:31Z</time></trkpt><trkpt lat="44.10525754141622" lon="9.948228244472064"><ele>5.0</ele><time>2026-04-21T14:20:32Z</time></trkpt><trkpt lat="44.105221458941706" lon="9.94809582906268"><ele>5.0</ele><time>2026-04-21T14:20:33Z</time></trkpt><trkpt lat="44.10519797034897" lon="9.947977923079959"><ele>5.0</ele><time>2026-04-21T14:20:34Z</time></trkpt><trkpt lat="44.10519166525694" lon="9.947870762009307"><ele>5.0</ele><time>2026-04-21T14:20:35Z</time></trkpt><trkpt lat="44.105204468168075" lon="9.947752633626205"><ele>5.0</ele><time>2026-04-21T14:20:36Z</time></trkpt><trkpt lat="44.10521778497692" lon="9.947645750568885"><ele>5.0</ele><time>2026-04-21T14:20:37Z</time></trkpt><trkpt lat="44.10522048625603" lon="9.947551486015229"><ele>5.0</ele><time>2026-04-21T14:20:38Z</time></trkpt><trkpt lat="44.10519493026182" lon="9.947451720915996"><ele>5.4</ele><time>2026-04-21T14:20:39Z</time></trkpt><trkpt lat="44.10514995208456" lon="9.94735425599226"><ele>5.8</ele><time>2026-04-21T14:20:40Z</time></trkpt><trkpt lat="44.10509020454045" lon="9.947253447591692"><ele>6.199999999999999</ele><time>2026-04-21T14:20:41Z</time></trkpt><trkpt lat="44.10503071292542" lon="9.94714511269611"><ele>6.6</ele><time>2026-04-21T14:20:42Z</time></trkpt><trkpt lat="44.10497974529244" lon="9.947014733929306"><ele>7.0</ele><time>2026-04-21T14:20:43Z</time></trkpt><trkpt lat="44.10494225129515" lon="9.946874778037742"><ele>7.199999999999999</ele><time>2026-04-21T14:20:44Z</time></trkpt><trkpt lat="44.10490493229728" lon="9.946738779552033"><ele>7.3999999999999995</ele><time>2026-04-21T14:20:45Z</time></trkpt><trkpt lat="44.104867864572185" lon="9.946603635995466"><ele>7.6000000000000005</ele><time>2026-04-21T14:20:46Z</time></trkpt><trkpt lat="44.10483988083936" lon="9.946473834746053"><ele>7.800000000000001</ele><time>2026-04-21T14:20:47Z</time></trkpt><trkpt lat="44.10480749395027" lon="9.946342124885273"><ele>8.0</ele><time>2026-04-21T14:20:48Z</time></trkpt><trkpt lat="44.10478483130981" lon="9.946227356562266"><ele>7.999999999999999</ele><time>2026-04-21T14:20:49Z</time></trkpt><trkpt lat="44.104761434733945" lon="9.94613216158973"><ele>8.0</ele><time>2026-04-21T14:20:50Z</time></trkpt><trkpt lat="44.10473144107622" lon="9.946025697082785"><ele>8.0</ele><time>2026-04-21T14:20:51Z</time></trkpt><trkpt lat="44.10470534024584" lon="9.945914144934251"><ele>8.0</ele><time>2026-04-21T14:20:52Z</time></trkpt><trkpt lat="44.10468242784559" lon="9.945792443683404"><ele>7.999999999999999</ele><time>2026-04-21T14:20:53Z</time></trkpt><trkpt lat="44.10465786160443" lon="9.945660387420393"><ele>8.0</ele><time>2026-04-21T14:20:54Z</time></trkpt><trkpt lat="44.10462814850424" lon="9.945515308628995"><ele>8.0</ele><time>2026-04-21T14:20:55Z</time></trkpt><trkpt lat="44.10460649295641" lon="9.94535209838889"><ele>8.0</ele><time>2026-04-21T14:20:56Z</time></trkpt><trkpt lat="44.10459245418943" lon="9.94518838632294"><ele>8.0</ele><time>2026-04-21T14:20:57Z</time></trkpt><trkpt lat="44.10459078140241" lon="9.945045795449879"><ele>8.0</ele><time>2026-04-21T14:20:58Z</time></trkpt><trkpt lat="44.104598806082166" lon="9.94488204574113"><ele>8.0</ele><time>2026-04-21T14:20:59Z</time></trkpt><trkpt lat="44.10461269693471" lon="9.944701935742165"><ele>8.0</ele><time>2026-04-21T14:21:00Z</time></trkpt><trkpt lat="44.104630451149625" lon="9.944522310965231"><ele>8.0</ele><time>2026-04-21T14:21:01Z</time></trkpt><trkpt lat="44.10465267494801" lon="9.944362689367887"><ele>8.0</ele><time>2026-04-21T14:21:02Z</time></trkpt><trkpt lat="44.10468128916242" lon="9.944211875669488"><ele>7.75</ele><time>2026-04-21T14:21:03Z</time></trkpt><trkpt lat="44.1047087144954" lon="9.944054172114553"><ele>7.5</ele><time>2026-04-21T14:21:04Z</time></trkpt><trkpt lat="44.104735271544214" lon="9.943891264828812"><ele>7.25</ele><time>2026-04-21T14:21:05Z</time></trkpt><trkpt lat="44.10475943321582" lon="9.943725877605354"><ele>7.0</ele><time>2026-04-21T14:21:06Z</time></trkpt><trkpt lat="44.10478628816935" lon="9.943560874460042"><ele>7.0</ele><time>2026-04-21T14:21:07Z</time></trkpt><trkpt lat="44.1048191480014" lon="9.943396302384837"><ele>7.0</ele><time>2026-04-21T14:21:08Z</time></trkpt><trkpt lat="44.10485117534349" lon="9.943225827738424"><ele>7.0</ele><time>2026-04-21T14:21:09Z</time></trkpt><trkpt lat="44.10488207522352" lon="9.943049937096823"><ele>7.0</ele><time>2026-04-21T14:21:10Z</time></trkpt><trkpt lat="44.1049147095967" lon="9.942860064711104"><ele>7.333333333333334</ele><time>2026-04-21T14:21:11Z</time></trkpt><trkpt lat="44.104952332376406" lon="9.942653036487547"><ele>7.666666666666666</ele><time>2026-04-21T14:21:12Z</time></trkpt><trkpt lat="44.104983956842624" lon="9.942450824295108"><ele>8.0</ele><time>2026-04-21T14:21:13Z</time></trkpt><trkpt lat="44.10500752193809" lon="9.942246381358313"><ele>8.0</ele><time>2026-04-21T14:21:14Z</time></trkpt><trkpt lat="44.105053652599516" lon="9.942041938150384"><ele>8.0</ele><time>2026-04-21T14:21:15Z</time></trkpt><trkpt lat="44.1050914521295" lon="9.941828747510755"><ele>8.0</ele><time>2026-04-21T14:21:16Z</time></trkpt><trkpt lat="44.10512737980626" lon="9.941622995857477"><ele>7.75</ele><time>2026-04-21T14:21:17Z</time></trkpt><trkpt lat="44.10516341646395" lon="9.941416619949605"><ele>7.5</ele><time>2026-04-21T14:21:18Z</time></trkpt><trkpt lat="44.10518298491835" lon="9.941212557663265"><ele>7.25</ele><time>2026-04-21T14:21:19Z</time></trkpt><trkpt lat="44.105218885875196" lon="9.941018936189254"><ele>7.0</ele><time>2026-04-21T14:21:20Z</time></trkpt><trkpt lat="44.105256384668664" lon="9.940827376042852"><ele>7.0</ele><time>2026-04-21T14:21:21Z</time></trkpt><trkpt lat="44.105297414109856" lon="9.940628646223567"><ele>7.0</ele><time>2026-04-21T14:21:22Z</time></trkpt><trkpt lat="44.10534079710482" lon="9.940417522785344"><ele>7.0</ele><time>2026-04-21T14:21:23Z</time></trkpt><trkpt lat="44.10538007005112" lon="9.940204830504769"><ele>7.333333333333334</ele><time>2026-04-21T14:21:24Z</time></trkpt><trkpt lat="44.105415850669424" lon="9.939994530940496"><ele>7.666666666666666</ele><time>2026-04-21T14:21:25Z</time></trkpt><trkpt lat="44.105452347091585" lon="9.939784450848231"><ele>8.0</ele><time>2026-04-21T14:21:26Z</time></trkpt><trkpt lat="44.10549021182174" lon="9.93956958585524"><ele>8.0</ele><time>2026-04-21T14:21:27Z</time></trkpt><trkpt lat="44.10552922435693" lon="9.939351284528383"><ele>8.0</ele><time>2026-04-21T14:21:28Z</time></trkpt><trkpt lat="44.10556931839588" lon="9.939130775948774"><ele>8.0</ele><time>2026-04-21T14:21:29Z</time></trkpt><trkpt lat="44.10560765570249" lon="9.938916493639816"><ele>7.666666666666666</ele><time>2026-04-21T14:21:30Z</time></trkpt><trkpt lat="44.10564440226483" lon="9.93871087274813"><ele>7.333333333333334</ele><time>2026-04-21T14:21:31Z</time></trkpt><trkpt lat="44.10568287864501" lon="9.938498508267662"><ele>7.0</ele><time>2026-04-21T14:21:32Z</time></trkpt><trkpt lat="44.105719197481136" lon="9.9382830053593"><ele>6.75</ele><time>2026-04-21T14:21:33Z</time></trkpt><trkpt lat="44.10575343486824" lon="9.93807110243034"><ele>6.5</ele><time>2026-04-21T14:21:34Z</time></trkpt><trkpt lat="44.105786910741294" lon="9.937866167905666"><ele>6.25</ele><time>2026-04-21T14:21:35Z</time></trkpt><trkpt lat="44.10581986235602" lon="9.937673744155749"><ele>6.0</ele><time>2026-04-21T14:21:36Z</time></trkpt><trkpt lat="44.10585261755384" lon="9.937485081355794"><ele>4.75</ele><time>2026-04-21T14:21:37Z</time></trkpt><trkpt lat="44.105884801644166" lon="9.937307546277355"><ele>3.5</ele><time>2026-04-21T14:21:38Z</time></trkpt><trkpt lat="44.10592351926833" lon="9.937125605967134"><ele>2.25</ele><time>2026-04-21T14:21:39Z</time></trkpt><trkpt lat="44.105959808803284" lon="9.93694201609155"><ele>1.0</ele><time>2026-04-21T14:21:40Z</time></trkpt><trkpt lat="44.10599532984462" lon="9.936763046236154"><ele>1.4</ele><time>2026-04-21T14:21:41Z</time></trkpt><trkpt lat="44.10602779633207" lon="9.936597270706434"><ele>1.8</ele><time>2026-04-21T14:21:42Z</time></trkpt><trkpt lat="44.10605572051557" lon="9.936440528068438"><ele>2.1999999999999997</ele><time>2026-04-21T14:21:43Z</time></trkpt><trkpt lat="44.106082028896644" lon="9.936296432116105"><ele>2.6</ele><time>2026-04-21T14:21:44Z</time></trkpt><trkpt lat="44.10610394642669" lon="9.936173007055078"><ele>3.0</ele><time>2026-04-21T14:21:45Z</time></trkpt><trkpt lat="44.10612209416787" lon="9.93607447997708"><ele>3.0</ele><time>2026-04-21T14:21:46Z</time></trkpt><trkpt lat="44.106138204703136" lon="9.935982137440465"><ele>3.0</ele><time>2026-04-21T14:21:48Z</time></trkpt><trkpt lat="44.10610319977051" lon="9.936056019990751"><ele>3.0</ele><time>2026-04-21T14:22:22Z</time></trkpt><trkpt lat="44.106085057929974" lon="9.93615784390631"><ele>3.0</ele><time>2026-04-21T14:22:23Z</time></trkpt><trkpt lat="44.10599324187006" lon="9.93635941468279"><ele>3.0</ele><time>2026-04-21T14:22:24Z</time></trkpt><trkpt lat="44.10597078808373" lon="9.936545339520881"><ele>2.3333333333333335</ele><time>2026-04-21T14:22:25Z</time></trkpt><trkpt lat="44.105941402588144" lon="9.936746129442035"><ele>1.6666666666666665</ele><time>2026-04-21T14:22:26Z</time></trkpt><trkpt lat="44.10590421589507" lon="9.936964376751542"><ele>1.0</ele><time>2026-04-21T14:22:27Z</time></trkpt><trkpt lat="44.105863416812" lon="9.937199289844155"><ele>1.0</ele><time>2026-04-21T14:22:28Z</time></trkpt><trkpt lat="44.10582640663637" lon="9.937433782667464"><ele>1.0</ele><time>2026-04-21T14:22:29Z</time></trkpt><trkpt lat="44.10578353743024" lon="9.937681595362564"><ele>1.0</ele><time>2026-04-21T14:22:30Z</time></trkpt><trkpt lat="44.105741800468984" lon="9.93792616652895"><ele>2.6666666666666665</ele><time>2026-04-21T14:22:31Z</time></trkpt><trkpt lat="44.10570309419293" lon="9.93815273579099"><ele>4.333333333333333</ele><time>2026-04-21T14:22:32Z</time></trkpt><trkpt lat="44.10566122398258" lon="9.938379468487028"><ele>6.0</ele><time>2026-04-21T14:22:33Z</time></trkpt><trkpt lat="44.10561657229374" lon="9.938612435029386"><ele>6.333333333333334</ele><time>2026-04-21T14:22:34Z</time></trkpt><trkpt lat="44.105568560630964" lon="9.938855771945892"><ele>6.666666666666667</ele><time>2026-04-21T14:22:35Z</time></trkpt><trkpt lat="44.10552208510326" lon="9.93910787458214"><ele>7.0</ele><time>2026-04-21T14:22:36Z</time></trkpt><trkpt lat="44.10547634937154" lon="9.939369726102758"><ele>7.0</ele><time>2026-04-21T14:22:37Z</time></trkpt><trkpt lat="44.105433826013844" lon="9.939608974161079"><ele>7.0</ele><time>2026-04-21T14:22:38Z</time></trkpt><trkpt lat="44.1053918617979" lon="9.939845075474379"><ele>7.0</ele><time>2026-04-21T14:22:39Z</time></trkpt><trkpt lat="44.10535052013768" lon="9.940079376487935"><ele>7.0</ele><time>2026-04-21T14:22:40Z</time></trkpt><trkpt lat="44.10530904366119" lon="9.940302428911922"><ele>7.0</ele><time>2026-04-21T14:22:41Z</time></trkpt><trkpt lat="44.105270450427454" lon="9.940514316690924"><ele>7.0</ele><time>2026-04-21T14:22:42Z</time></trkpt><trkpt lat="44.1052331849479" lon="9.940726872431991"><ele>7.0</ele><time>2026-04-21T14:22:43Z</time></trkpt><trkpt lat="44.10519681916411" lon="9.940938568465315"><ele>7.0</ele><time>2026-04-21T14:22:44Z</time></trkpt><trkpt lat="44.10516023628588" lon="9.941152159808073"><ele>7.0</ele><time>2026-04-21T14:22:45Z</time></trkpt><trkpt lat="44.105122369765944" lon="9.941366496361459"><ele>7.0</ele><time>2026-04-21T14:22:46Z</time></trkpt><trkpt lat="44.10508629654931" lon="9.941568414130115"><ele>7.0</ele><time>2026-04-21T14:22:47Z</time></trkpt><trkpt lat="44.105052968477516" lon="9.941761887339553"><ele>7.0</ele><time>2026-04-21T14:22:48Z</time></trkpt><trkpt lat="44.105021252953875" lon="9.941947920714306"><ele>7.0</ele><time>2026-04-21T14:22:49Z</time></trkpt><trkpt lat="44.10498748215318" lon="9.942136578824917"><ele>7.25</ele><time>2026-04-21T14:22:50Z</time></trkpt><trkpt lat="44.104953534917875" lon="9.942326019798116"><ele>7.5</ele><time>2026-04-21T14:22:51Z</time></trkpt><trkpt lat="44.1049192695923" lon="9.942513545946024"><ele>7.75</ele><time>2026-04-21T14:22:52Z</time></trkpt><trkpt lat="44.10488621976249" lon="9.942699563601865"><ele>8.0</ele><time>2026-04-21T14:22:53Z</time></trkpt><trkpt lat="44.104855696390494" lon="9.942883290040873"><ele>8.0</ele><time>2026-04-21T14:22:54Z</time></trkpt><trkpt lat="44.10482396973109" lon="9.94306506795296"><ele>8.0</ele><time>2026-04-21T14:22:55Z</time></trkpt><trkpt lat="44.104792929935265" lon="9.943253262895585"><ele>8.0</ele><time>2026-04-21T14:22:56Z</time></trkpt><trkpt lat="44.104760138451155" lon="9.94344498250465"><ele>8.0</ele><time>2026-04-21T14:22:57Z</time></trkpt><trkpt lat="44.10471857667001" lon="9.943635420027523"><ele>8.0</ele><time>2026-04-21T14:22:58Z</time></trkpt><trkpt lat="44.104659113842494" lon="9.943832053603202"><ele>8.0</ele><time>2026-04-21T14:22:59Z</time></trkpt><trkpt lat="44.104604015710564" lon="9.944020666033095"><ele>8.0</ele><time>2026-04-21T14:23:00Z</time></trkpt><trkpt lat="44.10456089655145" lon="9.944208058864762"><ele>8.0</ele><time>2026-04-21T14:23:01Z</time></trkpt><trkpt lat="44.104521658354294" lon="9.944388989405923"><ele>8.0</ele><time>2026-04-21T14:23:02Z</time></trkpt><trkpt lat="44.10448097782932" lon="9.94456580204533"><ele>8.0</ele><time>2026-04-21T14:23:03Z</time></trkpt><trkpt lat="44.10443476128889" lon="9.94473611556603"><ele>8.0</ele><time>2026-04-21T14:23:04Z</time></trkpt><trkpt lat="44.10438369764037" lon="9.944907914723817"><ele>8.0</ele><time>2026-04-21T14:23:05Z</time></trkpt><trkpt lat="44.104330140333104" lon="9.945073738421842"><ele>8.0</ele><time>2026-04-21T14:23:06Z</time></trkpt><trkpt lat="44.1042754771563" lon="9.945234981773421"><ele>8.0</ele><time>2026-04-21T14:23:07Z</time></trkpt><trkpt lat="44.104219448302246" lon="9.945390444098075"><ele>8.0</ele><time>2026-04-21T14:23:08Z</time></trkpt><trkpt lat="44.10416441636096" lon="9.9455408370104"><ele>8.0</ele><time>2026-04-21T14:23:09Z</time></trkpt><trkpt lat="44.104109958049584" lon="9.945684384362925"><ele>7.5</ele><time>2026-04-21T14:23:10Z</time></trkpt><trkpt lat="44.10405008210027" lon="9.945835036497712"><ele>7.0</ele><time>2026-04-21T14:23:11Z</time></trkpt><trkpt lat="44.1039805776395" lon="9.94600214270175"><ele>6.5</ele><time>2026-04-21T14:23:12Z</time></trkpt><trkpt lat="44.10392507990888" lon="9.946188591681125"><ele>6.0</ele><time>2026-04-21T14:23:13Z</time></trkpt><trkpt lat="44.10383014403281" lon="9.946363807574945"><ele>6.0</ele><time>2026-04-21T14:23:14Z</time></trkpt><trkpt lat="44.103742052350285" lon="9.946551233263804"><ele>6.0</ele><time>2026-04-21T14:23:15Z</time></trkpt><trkpt lat="44.10365549428998" lon="9.94674552297694"><ele>6.0</ele><time>2026-04-21T14:23:16Z</time></trkpt><trkpt lat="44.1035711240942" lon="9.946932436278338"><ele>6.666666666666666</ele><time>2026-04-21T14:23:17Z</time></trkpt><trkpt lat="44.10348801931209" lon="9.947110538333822"><ele>7.333333333333333</ele><time>2026-04-21T14:23:18Z</time></trkpt><trkpt lat="44.103405886551364" lon="9.947279380484186"><ele>8.0</ele><time>2026-04-21T14:23:19Z</time></trkpt><trkpt lat="44.10332135912837" lon="9.947454591201463"><ele>7.0</ele><time>2026-04-21T14:23:20Z</time></trkpt><trkpt lat="44.10323518034787" lon="9.947631449333725"><ele>6.0</ele><time>2026-04-21T14:23:21Z</time></trkpt><trkpt lat="44.10314660235771" lon="9.947810087929575"><ele>5.0</ele><time>2026-04-21T14:23:22Z</time></trkpt><trkpt lat="44.103058541376654" lon="9.94799228131454"><ele>5.0</ele><time>2026-04-21T14:23:23Z</time></trkpt><trkpt lat="44.10296864717603" lon="9.948178670452856"><ele>5.0</ele><time>2026-04-21T14:23:24Z</time></trkpt><trkpt lat="44.102876154351044" lon="9.948363456113878"><ele>5.0</ele><time>2026-04-21T14:23:25Z</time></trkpt><trkpt lat="44.10278738885487" lon="9.948543310331372"><ele>5.0</ele><time>2026-04-21T14:23:26Z</time></trkpt><trkpt lat="44.10271295326485" lon="9.948689782884045"><ele>5.0</ele><time>2026-04-21T14:23:27Z</time></trkpt><trkpt lat="44.10265197906345" lon="9.948799468607087"><ele>5.0</ele><time>2026-04-21T14:23:28Z</time></trkpt><trkpt lat="44.10258802517888" lon="9.948887199395912"><ele>5.0</ele><time>2026-04-21T14:23:29Z</time></trkpt><trkpt lat="44.10250245273053" lon="9.948968932012775"><ele>5.0</ele><time>2026-04-21T14:23:30Z</time></trkpt><trkpt lat="44.10239642157082" lon="9.949031662150736"><ele>5.25</ele><time>2026-04-21T14:23:31Z</time></trkpt><trkpt lat="44.10228273913284" lon="9.949092418437521"><ele>5.5</ele><time>2026-04-21T14:23:32Z</time></trkpt><trkpt lat="44.1021752716453" lon="9.949148224381412"><ele>5.75</ele><time>2026-04-21T14:23:33Z</time></trkpt><trkpt lat="44.10207456280107" lon="9.949199735345026"><ele>6.0</ele><time>2026-04-21T14:23:34Z</time></trkpt><trkpt lat="44.10197114183126" lon="9.949256598721883"><ele>6.0</ele><time>2026-04-21T14:23:35Z</time></trkpt><trkpt lat="44.10186698392128" lon="9.949306860620364"><ele>6.0</ele><time>2026-04-21T14:23:36Z</time></trkpt><trkpt lat="44.101764931837735" lon="9.94935194781485"><ele>6.0</ele><time>2026-04-21T14:23:37Z</time></trkpt><trkpt lat="44.10166822371595" lon="9.949423289480539"><ele>6.0</ele><time>2026-04-21T14:23:38Z</time></trkpt><trkpt lat="44.101575998430356" lon="9.949478205216748"><ele>6.0</ele><time>2026-04-21T14:23:39Z</time></trkpt><trkpt lat="44.101498994321204" lon="9.949524060916367"><ele>6.0</ele><time>2026-04-21T14:23:40Z</time></trkpt><trkpt lat="44.1014332783983" lon="9.949563189209623"><ele>6.0</ele><time>2026-04-21T14:23:41Z</time></trkpt><trkpt lat="44.10135054326711" lon="9.949588292103716"><ele>6.0</ele><time>2026-04-21T14:23:43Z</time></trkpt><trkpt lat="44.10126022679861" lon="9.94966914395851"><ele>6.0</ele><time>2026-04-21T14:24:11Z</time></trkpt><trkpt lat="44.10119763322664" lon="9.949708184168905"><ele>6.0</ele><time>2026-04-21T14:24:12Z</time></trkpt><trkpt lat="44.10112484818604" lon="9.949754075099175"><ele>6.0</ele><time>2026-04-21T14:24:13Z</time></trkpt><trkpt lat="44.101022451829714" lon="9.94980380162031"><ele>6.0</ele><time>2026-04-21T14:24:14Z</time></trkpt><trkpt lat="44.10091223367502" lon="9.949908164155207"><ele>6.0</ele><time>2026-04-21T14:24:15Z</time></trkpt><trkpt lat="44.100801247272365" lon="9.950012607461424"><ele>6.0</ele><time>2026-04-21T14:24:16Z</time></trkpt><trkpt lat="44.10068258481908" lon="9.950135840470175"><ele>6.0</ele><time>2026-04-21T14:24:17Z</time></trkpt><trkpt lat="44.100570744650774" lon="9.950271954174642"><ele>6.0</ele><time>2026-04-21T14:24:18Z</time></trkpt><trkpt lat="44.10046467422722" lon="9.950409494327937"><ele>6.0</ele><time>2026-04-21T14:24:19Z</time></trkpt><trkpt lat="44.100371661610296" lon="9.950542534514764"><ele>6.0</ele><time>2026-04-21T14:24:20Z</time></trkpt><trkpt lat="44.100285333967186" lon="9.950671001296262"><ele>6.0</ele><time>2026-04-21T14:24:21Z</time></trkpt><trkpt lat="44.10019931273407" lon="9.950810872079662"><ele>6.25</ele><time>2026-04-21T14:24:22Z</time></trkpt><trkpt lat="44.10011894010739" lon="9.950976174857745"><ele>6.5</ele><time>2026-04-21T14:24:23Z</time></trkpt><trkpt lat="44.10005544500604" lon="9.951150836697227"><ele>6.75</ele><time>2026-04-21T14:24:24Z</time></trkpt><trkpt lat="44.1000039838359" lon="9.951338359341344"><ele>7.0</ele><time>2026-04-21T14:24:25Z</time></trkpt><trkpt lat="44.09997490633752" lon="9.951535463836947"><ele>7.0</ele><time>2026-04-21T14:24:26Z</time></trkpt><trkpt lat="44.0999590827194" lon="9.951735884398401"><ele>7.0</ele><time>2026-04-21T14:24:27Z</time></trkpt><trkpt lat="44.09996084225004" lon="9.951943175732515"><ele>7.0</ele><time>2026-04-21T14:24:28Z</time></trkpt><trkpt lat="44.09997913391849" lon="9.952151975015816"><ele>7.0</ele><time>2026-04-21T14:24:29Z</time></trkpt><trkpt lat="44.10001436227477" lon="9.952360313364968"><ele>6.333333333333334</ele><time>2026-04-21T14:24:30Z</time></trkpt><trkpt lat="44.10006352658023" lon="9.9525665817488"><ele>5.666666666666667</ele><time>2026-04-21T14:24:31Z</time></trkpt><trkpt lat="44.100098954238696" lon="9.952786194515252"><ele>5.0</ele><time>2026-04-21T14:24:32Z</time></trkpt><trkpt lat="44.1001508171608" lon="9.953006208033758"><ele>5.0</ele><time>2026-04-21T14:24:33Z</time></trkpt><trkpt lat="44.10019084014626" lon="9.953226788747774"><ele>5.0</ele><time>2026-04-21T14:24:34Z</time></trkpt><trkpt lat="44.10022524252808" lon="9.953461714381175"><ele>5.0</ele><time>2026-04-21T14:24:35Z</time></trkpt><trkpt lat="44.10023647793328" lon="9.953673451351511"><ele>5.0</ele><time>2026-04-21T14:24:36Z</time></trkpt><trkpt lat="44.10022531480403" lon="9.953885310337682"><ele>5.0</ele><time>2026-04-21T14:24:37Z</time></trkpt><trkpt lat="44.10018718046153" lon="9.954093713201832"><ele>5.0</ele><time>2026-04-21T14:24:38Z</time></trkpt><trkpt lat="44.100126834075326" lon="9.95430336975036"><ele>4.666666666666667</ele><time>2026-04-21T14:24:39Z</time></trkpt><trkpt lat="44.100064201063205" lon="9.954522085761178"><ele>4.333333333333333</ele><time>2026-04-21T14:24:40Z</time></trkpt><trkpt lat="44.09994848582285" lon="9.954721010071687"><ele>4.0</ele><time>2026-04-21T14:24:41Z</time></trkpt><trkpt lat="44.09984676423378" lon="9.954934772950727"><ele>4.333333333333333</ele><time>2026-04-21T14:24:42Z</time></trkpt><trkpt lat="44.09973656303858" lon="9.955156459479774"><ele>4.666666666666667</ele><time>2026-04-21T14:24:43Z</time></trkpt><trkpt lat="44.09962407535252" lon="9.955385949408956"><ele>5.0</ele><time>2026-04-21T14:24:44Z</time></trkpt><trkpt lat="44.09951048558165" lon="9.955625831698077"><ele>5.0</ele><time>2026-04-21T14:24:45Z</time></trkpt><trkpt lat="44.09939617836535" lon="9.955865769210869"><ele>5.0</ele><time>2026-04-21T14:24:46Z</time></trkpt><trkpt lat="44.09927768270361" lon="9.956113268986957"><ele>5.0</ele><time>2026-04-21T14:24:47Z</time></trkpt><trkpt lat="44.099158303406405" lon="9.95636783201156"><ele>4.666666666666667</ele><time>2026-04-21T14:24:48Z</time></trkpt><trkpt lat="44.099034878141126" lon="9.956626603548928"><ele>4.333333333333333</ele><time>2026-04-21T14:24:49Z</time></trkpt><trkpt lat="44.098910406039735" lon="9.956889762153574"><ele>4.0</ele><time>2026-04-21T14:24:50Z</time></trkpt><trkpt lat="44.09878548601668" lon="9.957155261534204"><ele>4.0</ele><time>2026-04-21T14:24:51Z</time></trkpt><trkpt lat="44.09866199509553" lon="9.957418433080962"><ele>4.0</ele><time>2026-04-21T14:24:52Z</time></trkpt><trkpt lat="44.09853342787035" lon="9.957687810639674"><ele>4.5</ele><time>2026-04-21T14:24:53Z</time></trkpt><trkpt lat="44.09840228818791" lon="9.957953157216792"><ele>5.0</ele><time>2026-04-21T14:24:54Z</time></trkpt><trkpt lat="44.09827664485363" lon="9.958210822350559"><ele>4.333333333333334</ele><time>2026-04-21T14:24:55Z</time></trkpt><trkpt lat="44.09815132315829" lon="9.958465240771012"><ele>3.666666666666667</ele><time>2026-04-21T14:24:56Z</time></trkpt><trkpt lat="44.09802507714447" lon="9.958716266749967"><ele>3.0</ele><time>2026-04-21T14:24:57Z</time></trkpt><trkpt lat="44.097901093356185" lon="9.958971315211546"><ele>3.5</ele><time>2026-04-21T14:24:58Z</time></trkpt><trkpt lat="44.097771910662324" lon="9.959231980598068"><ele>4.0</ele><time>2026-04-21T14:24:59Z</time></trkpt><trkpt lat="44.09764220117569" lon="9.959497640859544"><ele>4.0</ele><time>2026-04-21T14:25:00Z</time></trkpt><trkpt lat="44.09751144312078" lon="9.959763178185627"><ele>4.0</ele><time>2026-04-21T14:25:01Z</time></trkpt><trkpt lat="44.0973797151404" lon="9.960030615123326"><ele>4.0</ele><time>2026-04-21T14:25:02Z</time></trkpt><trkpt lat="44.09725000586925" lon="9.960297055626068"><ele>4.0</ele><time>2026-04-21T14:25:03Z</time></trkpt><trkpt lat="44.09711843590599" lon="9.960563723151758"><ele>4.0</ele><time>2026-04-21T14:25:04Z</time></trkpt><trkpt lat="44.096983962530096" lon="9.960828766875945"><ele>4.0</ele><time>2026-04-21T14:25:05Z</time></trkpt><trkpt lat="44.09685270161429" lon="9.961088875289246"><ele>4.333333333333333</ele><time>2026-04-21T14:25:06Z</time></trkpt><trkpt lat="44.09672340244262" lon="9.961345187138152"><ele>4.666666666666667</ele><time>2026-04-21T14:25:07Z</time></trkpt><trkpt lat="44.0965914545102" lon="9.961597329979906"><ele>5.0</ele><time>2026-04-21T14:25:08Z</time></trkpt><trkpt lat="44.096455586811466" lon="9.961850757714288"><ele>5.5</ele><time>2026-04-21T14:25:09Z</time></trkpt><trkpt lat="44.0963207128685" lon="9.962105408457475"><ele>6.0</ele><time>2026-04-21T14:25:10Z</time></trkpt><trkpt lat="44.09618153845871" lon="9.962361656170703"><ele>5.5</ele><time>2026-04-21T14:25:11Z</time></trkpt><trkpt lat="44.096039445745234" lon="9.962619589487772"><ele>5.0</ele><time>2026-04-21T14:25:12Z</time></trkpt><trkpt lat="44.09589614329322" lon="9.962873873763057"><ele>5.0</ele><time>2026-04-21T14:25:13Z</time></trkpt><trkpt lat="44.095751290446344" lon="9.963128121992774"><ele>5.0</ele><time>2026-04-21T14:25:13.999Z</time></trkpt><trkpt lat="44.095601862512865" lon="9.963382642521314"><ele>5.0</ele><time>2026-04-21T14:25:14.999Z</time></trkpt><trkpt lat="44.09544967249846" lon="9.963635932616748"><ele>5.0</ele><time>2026-04-21T14:25:15.999Z</time></trkpt><trkpt lat="44.0952959037348" lon="9.9638872730414"><ele>5.0</ele><time>2026-04-21T14:25:16.999Z</time></trkpt><trkpt lat="44.09514153949026" lon="9.964136653858796"><ele>5.0</ele><time>2026-04-21T14:25:17.999Z</time></trkpt><trkpt lat="44.09498822430014" lon="9.964382371688844"><ele>5.5</ele><time>2026-04-21T14:25:18.999Z</time></trkpt><trkpt lat="44.094832039575145" lon="9.964623257461358"><ele>6.0</ele><time>2026-04-21T14:25:19.999Z</time></trkpt><trkpt lat="44.09467565645367" lon="9.964863086841005"><ele>5.5</ele><time>2026-04-21T14:25:20.999Z</time></trkpt><trkpt lat="44.09451471657611" lon="9.965104388777975"><ele>5.0</ele><time>2026-04-21T14:25:21.999Z</time></trkpt><trkpt lat="44.094350679875085" lon="9.965344688533962"><ele>5.0</ele><time>2026-04-21T14:25:22.999Z</time></trkpt><trkpt lat="44.09418845213468" lon="9.965582626967636"><ele>5.0</ele><time>2026-04-21T14:25:23.999Z</time></trkpt><trkpt lat="44.09402164332315" lon="9.965820743838217"><ele>5.0</ele><time>2026-04-21T14:25:24.999Z</time></trkpt><trkpt lat="44.09385317944187" lon="9.9660556732631"><ele>5.0</ele><time>2026-04-21T14:25:25.999Z</time></trkpt><trkpt lat="44.09368258505104" lon="9.966290349754203"><ele>5.0</ele><time>2026-04-21T14:25:26.999Z</time></trkpt><trkpt lat="44.09351091368712" lon="9.966525499366972"><ele>5.0</ele><time>2026-04-21T14:25:27.999Z</time></trkpt><trkpt lat="44.09333742995454" lon="9.966757483207672"><ele>5.5</ele><time>2026-04-21T14:25:28.999Z</time></trkpt><trkpt lat="44.09316024679955" lon="9.966989471354212"><ele>6.0</ele><time>2026-04-21T14:25:30Z</time></trkpt><trkpt lat="44.09298196580797" lon="9.967220427582568"><ele>6.0</ele><time>2026-04-21T14:25:31Z</time></trkpt><trkpt lat="44.09280031940036" lon="9.967449462228778"><ele>6.0</ele><time>2026-04-21T14:25:32Z</time></trkpt><trkpt lat="44.09262137906085" lon="9.967671267924812"><ele>4.5</ele><time>2026-04-21T14:25:33Z</time></trkpt><trkpt lat="44.0924412628203" lon="9.967889720826095"><ele>3.0</ele><time>2026-04-21T14:25:34Z</time></trkpt><trkpt lat="44.09226292213118" lon="9.968103631123553"><ele>3.0</ele><time>2026-04-21T14:25:35Z</time></trkpt><trkpt lat="44.09208238338143" lon="9.968310223514216"><ele>3.0</ele><time>2026-04-21T14:25:36Z</time></trkpt><trkpt lat="44.09191095409133" lon="9.968512123384196"><ele>3.0</ele><time>2026-04-21T14:25:37Z</time></trkpt><trkpt lat="44.09173689644791" lon="9.96870874959403"><ele>3.0</ele><time>2026-04-21T14:25:38Z</time></trkpt><trkpt lat="44.09156156789727" lon="9.968900150544194"><ele>3.0</ele><time>2026-04-21T14:25:39Z</time></trkpt><trkpt lat="44.09138549320992" lon="9.969092985778138"><ele>3.333333333333333</ele><time>2026-04-21T14:25:40Z</time></trkpt><trkpt lat="44.09120937495986" lon="9.969283678576696"><ele>3.6666666666666665</ele><time>2026-04-21T14:25:41Z</time></trkpt><trkpt lat="44.09103307522133" lon="9.969466973665217"><ele>4.0</ele><time>2026-04-21T14:25:42Z</time></trkpt><trkpt lat="44.09085541889953" lon="9.969654175742608"><ele>4.0</ele><time>2026-04-21T14:25:43Z</time></trkpt><trkpt lat="44.09067756888794" lon="9.969838107113441"><ele>4.0</ele><time>2026-04-21T14:25:44Z</time></trkpt><trkpt lat="44.090497297582274" lon="9.97001812426435"><ele>4.0</ele><time>2026-04-21T14:25:45Z</time></trkpt><trkpt lat="44.090316019727986" lon="9.970195173966738"><ele>4.0</ele><time>2026-04-21T14:25:46Z</time></trkpt><trkpt lat="44.090135429134115" lon="9.97036942747279"><ele>4.0</ele><time>2026-04-21T14:25:47Z</time></trkpt><trkpt lat="44.08995326176673" lon="9.97054531818068"><ele>4.0</ele><time>2026-04-21T14:25:48Z</time></trkpt><trkpt lat="44.08977176361399" lon="9.970713500018945"><ele>4.666666666666666</ele><time>2026-04-21T14:25:49Z</time></trkpt><trkpt lat="44.08958975859354" lon="9.970882804382965"><ele>5.333333333333333</ele><time>2026-04-21T14:25:50Z</time></trkpt><trkpt lat="44.08940188936122" lon="9.971054535063493"><ele>6.0</ele><time>2026-04-21T14:25:51Z</time></trkpt><trkpt lat="44.08921172909733" lon="9.971220964517416"><ele>6.0</ele><time>2026-04-21T14:25:52Z</time></trkpt><trkpt lat="44.089016601564325" lon="9.971384326202559"><ele>6.0</ele><time>2026-04-21T14:25:53Z</time></trkpt><trkpt lat="44.088817562897944" lon="9.971552111423142"><ele>6.0</ele><time>2026-04-21T14:25:54Z</time></trkpt><trkpt lat="44.08861665195795" lon="9.971723012016792"><ele>6.0</ele><time>2026-04-21T14:25:55Z</time></trkpt><trkpt lat="44.08841196202849" lon="9.971889661567165"><ele>5.0</ele><time>2026-04-21T14:25:56Z</time></trkpt><trkpt lat="44.08820508278998" lon="9.972053647211737"><ele>4.0</ele><time>2026-04-21T14:25:57Z</time></trkpt><trkpt lat="44.08799899131302" lon="9.972220346865363"><ele>4.0</ele><time>2026-04-21T14:25:58Z</time></trkpt><trkpt lat="44.08779187541961" lon="9.972386877327107"><ele>4.0</ele><time>2026-04-21T14:25:59Z</time></trkpt><trkpt lat="44.087579017306474" lon="9.972553379825642"><ele>4.0</ele><time>2026-04-21T14:26:00Z</time></trkpt><trkpt lat="44.08736294027604" lon="9.97272067793275"><ele>4.0</ele><time>2026-04-21T14:26:01Z</time></trkpt><trkpt lat="44.08714661217818" lon="9.972889769623478"><ele>4.0</ele><time>2026-04-21T14:26:02Z</time></trkpt><trkpt lat="44.08693614277904" lon="9.973056037881095"><ele>4.0</ele><time>2026-04-21T14:26:03Z</time></trkpt><trkpt lat="44.08672468737054" lon="9.97322630089786"><ele>2.5</ele><time>2026-04-21T14:26:04Z</time></trkpt><trkpt lat="44.08650834921864" lon="9.973399665711149"><ele>1.0</ele><time>2026-04-21T14:26:05Z</time></trkpt><trkpt lat="44.08629185097336" lon="9.97357309872221"><ele>1.0</ele><time>2026-04-21T14:26:06Z</time></trkpt><trkpt lat="44.086083806663346" lon="9.973737630179702"><ele>1.0</ele><time>2026-04-21T14:26:07Z</time></trkpt><trkpt lat="44.08587506373453" lon="9.973902695779366"><ele>2.0</ele><time>2026-04-21T14:26:08Z</time></trkpt><trkpt lat="44.085664487941344" lon="9.974067019534116"><ele>3.0</ele><time>2026-04-21T14:26:09Z</time></trkpt><trkpt lat="44.08545198737873" lon="9.974231831189638"><ele>3.0</ele><time>2026-04-21T14:26:10Z</time></trkpt><trkpt lat="44.08523821871954" lon="9.974399533185073"><ele>3.0</ele><time>2026-04-21T14:26:11Z</time></trkpt><trkpt lat="44.08502336053145" lon="9.974568952009488"><ele>3.0</ele><time>2026-04-21T14:26:12Z</time></trkpt><trkpt lat="44.08480919355826" lon="9.97473870169914"><ele>3.0</ele><time>2026-04-21T14:26:13Z</time></trkpt><trkpt lat="44.08459131186695" lon="9.974912240618911"><ele>2.0</ele><time>2026-04-21T14:26:14Z</time></trkpt><trkpt lat="44.084373227130214" lon="9.975085561451339"><ele>1.0</ele><time>2026-04-21T14:26:15Z</time></trkpt><trkpt lat="44.08415616038298" lon="9.975255545760072"><ele>2.5</ele><time>2026-04-21T14:26:16Z</time></trkpt><trkpt lat="44.08393846066545" lon="9.975428300053574"><ele>4.0</ele><time>2026-04-21T14:26:17Z</time></trkpt><trkpt lat="44.08372137278986" lon="9.975602262632117"><ele>4.0</ele><time>2026-04-21T14:26:18Z</time></trkpt><trkpt lat="44.08350731645881" lon="9.975773313414335"><ele>4.0</ele><time>2026-04-21T14:26:19Z</time></trkpt><trkpt lat="44.08329431115528" lon="9.975940552651142"><ele>3.5</ele><time>2026-04-21T14:26:20Z</time></trkpt><trkpt lat="44.083082723632906" lon="9.976104673070113"><ele>3.0</ele><time>2026-04-21T14:26:21Z</time></trkpt><trkpt lat="44.08287138063686" lon="9.976271036682329"><ele>3.0</ele><time>2026-04-21T14:26:22Z</time></trkpt><trkpt lat="44.08265841606011" lon="9.976435883375228"><ele>3.0</ele><time>2026-04-21T14:26:23Z</time></trkpt><trkpt lat="44.08244593091629" lon="9.976602976298214"><ele>2.5</ele><time>2026-04-21T14:26:24Z</time></trkpt><trkpt lat="44.08223677947993" lon="9.976770071289431"><ele>2.0</ele><time>2026-04-21T14:26:25Z</time></trkpt><trkpt lat="44.08202597131561" lon="9.976931804972454"><ele>2.0</ele><time>2026-04-21T14:26:26Z</time></trkpt><trkpt lat="44.08180811816055" lon="9.977100443776164"><ele>2.0</ele><time>2026-04-21T14:26:27Z</time></trkpt><trkpt lat="44.08158741641" lon="9.977273772518762"><ele>2.0</ele><time>2026-04-21T14:26:28Z</time></trkpt><trkpt lat="44.08137453671405" lon="9.977443591100132"><ele>2.0</ele><time>2026-04-21T14:26:29Z</time></trkpt><trkpt lat="44.08116489199071" lon="9.977609974628814"><ele>2.0</ele><time>2026-04-21T14:26:30Z</time></trkpt><trkpt lat="44.08095467834434" lon="9.97777053612142"><ele>2.0</ele><time>2026-04-21T14:26:31Z</time></trkpt><trkpt lat="44.08075245245254" lon="9.977926344146503"><ele>2.0</ele><time>2026-04-21T14:26:32Z</time></trkpt><trkpt lat="44.0805541845691" lon="9.978083027091996"><ele>2.0</ele><time>2026-04-21T14:26:33Z</time></trkpt><trkpt lat="44.08035815257848" lon="9.978239343783601"><ele>2.0</ele><time>2026-04-21T14:26:34Z</time></trkpt><trkpt lat="44.08016405537329" lon="9.978394670387422"><ele>2.0</ele><time>2026-04-21T14:26:35Z</time></trkpt><trkpt lat="44.07997447507904" lon="9.978550159937303"><ele>2.0</ele><time>2026-04-21T14:26:36Z</time></trkpt><trkpt lat="44.07978407020464" lon="9.978703889318934"><ele>2.0</ele><time>2026-04-21T14:26:37Z</time></trkpt><trkpt lat="44.07959416884365" lon="9.978866427057927"><ele>2.0</ele><time>2026-04-21T14:26:38Z</time></trkpt><trkpt lat="44.07939973517108" lon="9.97903853205496"><ele>1.5</ele><time>2026-04-21T14:26:39Z</time></trkpt><trkpt lat="44.07920223594058" lon="9.979215302981256"><ele>1.0</ele><time>2026-04-21T14:26:40Z</time></trkpt><trkpt lat="44.07900188602629" lon="9.979399956914925"><ele>1.0</ele><time>2026-04-21T14:26:41Z</time></trkpt><trkpt lat="44.0788035617531" lon="9.979588191665213"><ele>1.0</ele><time>2026-04-21T14:26:42Z</time></trkpt><trkpt lat="44.07860412544317" lon="9.979786953534889"><ele>1.0</ele><time>2026-04-21T14:26:43Z</time></trkpt><trkpt lat="44.07840396522994" lon="9.979990508040544"><ele>1.0</ele><time>2026-04-21T14:26:44Z</time></trkpt><trkpt lat="44.07820545633515" lon="9.980196697575133"><ele>2.0</ele><time>2026-04-21T14:26:45Z</time></trkpt><trkpt lat="44.078008390764296" lon="9.980407872224458"><ele>3.0</ele><time>2026-04-21T14:26:46Z</time></trkpt><trkpt lat="44.0778142016544" lon="9.980622657723266"><ele>3.0</ele><time>2026-04-21T14:26:47Z</time></trkpt><trkpt lat="44.07762302172775" lon="9.980840178410268"><ele>3.0</ele><time>2026-04-21T14:26:48Z</time></trkpt><trkpt lat="44.07743153286028" lon="9.981058346975892"><ele>3.5</ele><time>2026-04-21T14:26:49Z</time></trkpt><trkpt lat="44.07724110522541" lon="9.98128350045867"><ele>4.0</ele><time>2026-04-21T14:26:50Z</time></trkpt><trkpt lat="44.077055631726886" lon="9.981511544835179"><ele>3.5</ele><time>2026-04-21T14:26:51Z</time></trkpt><trkpt lat="44.07687180008152" lon="9.981747424471628"><ele>3.0</ele><time>2026-04-21T14:26:52Z</time></trkpt><trkpt lat="44.07669008392943" lon="9.981986948462549"><ele>2.5</ele><time>2026-04-21T14:26:53Z</time></trkpt><trkpt lat="44.076507816888494" lon="9.982228444235034"><ele>2.0</ele><time>2026-04-21T14:26:54Z</time></trkpt><trkpt lat="44.07632787475376" lon="9.98247495635195"><ele>2.5</ele><time>2026-04-21T14:26:55Z</time></trkpt><trkpt lat="44.07614912289072" lon="9.982726974234184"><ele>3.0</ele><time>2026-04-21T14:26:56Z</time></trkpt><trkpt lat="44.075976336624784" lon="9.982980902592447"><ele>3.0</ele><time>2026-04-21T14:26:57Z</time></trkpt><trkpt lat="44.07581706802405" lon="9.98322064950849"><ele>3.0</ele><time>2026-04-21T14:26:58Z</time></trkpt><trkpt lat="44.07566148168008" lon="9.983459800567779"><ele>3.0</ele><time>2026-04-21T14:26:59Z</time></trkpt><trkpt lat="44.075501552180256" lon="9.983705030859761"><ele>3.0</ele><time>2026-04-21T14:27:00Z</time></trkpt><trkpt lat="44.07534018549175" lon="9.983957277520338"><ele>2.5</ele><time>2026-04-21T14:27:01Z</time></trkpt><trkpt lat="44.07518092065654" lon="9.984217578406822"><ele>2.0</ele><time>2026-04-21T14:27:02Z</time></trkpt><trkpt lat="44.07502311912227" lon="9.984485933228495"><ele>2.5</ele><time>2026-04-21T14:27:03Z</time></trkpt><trkpt lat="44.07486093691057" lon="9.984754319524889"><ele>3.0</ele><time>2026-04-21T14:27:04Z</time></trkpt><trkpt lat="44.07469865906095" lon="9.985018982856042"><ele>3.0</ele><time>2026-04-21T14:27:05Z</time></trkpt><trkpt lat="44.07453686416883" lon="9.985288174854057"><ele>3.0</ele><time>2026-04-21T14:27:06Z</time></trkpt><trkpt lat="44.074375905242796" lon="9.985556799577981"><ele>3.0</ele><time>2026-04-21T14:27:07Z</time></trkpt><trkpt lat="44.07421437801921" lon="9.985827716264554"><ele>3.0</ele><time>2026-04-21T14:27:08Z</time></trkpt><trkpt lat="44.074052007225355" lon="9.986097041595018"><ele>2.5</ele><time>2026-04-21T14:27:09Z</time></trkpt><trkpt lat="44.073893297377815" lon="9.986360388830928"><ele>2.0</ele><time>2026-04-21T14:27:10Z</time></trkpt><trkpt lat="44.07373285353683" lon="9.986626597633455"><ele>2.0</ele><time>2026-04-21T14:27:11Z</time></trkpt><trkpt lat="44.073570482713045" lon="9.986896675236897"><ele>2.0</ele><time>2026-04-21T14:27:12Z</time></trkpt><trkpt lat="44.07340652908447" lon="9.987170113610556"><ele>1.5</ele><time>2026-04-21T14:27:13Z</time></trkpt><trkpt lat="44.07324459227565" lon="9.987441573382796"><ele>1.0</ele><time>2026-04-21T14:27:14Z</time></trkpt><trkpt lat="44.07308195182927" lon="9.987707994527655"><ele>2.0</ele><time>2026-04-21T14:27:15Z</time></trkpt><trkpt lat="44.07291584101782" lon="9.987975134532936"><ele>3.0</ele><time>2026-04-21T14:27:16Z</time></trkpt><trkpt lat="44.07275201761286" lon="9.988243258823644"><ele>2.5</ele><time>2026-04-21T14:27:17Z</time></trkpt><trkpt lat="44.07258997232206" lon="9.988508506480484"><ele>2.0</ele><time>2026-04-21T14:27:18Z</time></trkpt><trkpt lat="44.07242738393026" lon="9.988775950616034"><ele>2.0</ele><time>2026-04-21T14:27:18.999Z</time></trkpt><trkpt lat="44.07226480269624" lon="9.989045016949113"><ele>2.0</ele><time>2026-04-21T14:27:19.999Z</time></trkpt><trkpt lat="44.07210440435223" lon="9.989313984924749"><ele>1.5</ele><time>2026-04-21T14:27:20.999Z</time></trkpt><trkpt lat="44.07194277529034" lon="9.98958116537799"><ele>1.0</ele><time>2026-04-21T14:27:21.999Z</time></trkpt><trkpt lat="44.07177853295661" lon="9.989844429531946"><ele>1.5</ele><time>2026-04-21T14:27:22.999Z</time></trkpt><trkpt lat="44.07161424168474" lon="9.990110263209354"><ele>2.0</ele><time>2026-04-21T14:27:23.999Z</time></trkpt><trkpt lat="44.07145230623453" lon="9.990376477471536"><ele>2.0</ele><time>2026-04-21T14:27:24.999Z</time></trkpt><trkpt lat="44.07129206113471" lon="9.990646168839088"><ele>2.0</ele><time>2026-04-21T14:27:25.999Z</time></trkpt><trkpt lat="44.07113193710262" lon="9.990911268422222"><ele>2.0</ele><time>2026-04-21T14:27:26.999Z</time></trkpt><trkpt lat="44.07097223029471" lon="9.991173735930742"><ele>2.0</ele><time>2026-04-21T14:27:27.999Z</time></trkpt><trkpt lat="44.07081505967044" lon="9.99142654292173"><ele>2.0</ele><time>2026-04-21T14:27:28.999Z</time></trkpt><trkpt lat="44.070658483097205" lon="9.99168747303509"><ele>2.0</ele><time>2026-04-21T14:27:29.999Z</time></trkpt><trkpt lat="44.07050334300754" lon="9.991946719497312"><ele>2.0</ele><time>2026-04-21T14:27:30.999Z</time></trkpt><trkpt lat="44.07034801661728" lon="9.992207408356503"><ele>2.0</ele><time>2026-04-21T14:27:31.999Z</time></trkpt><trkpt lat="44.070187012110225" lon="9.992470891052477"><ele>2.0</ele><time>2026-04-21T14:27:32.999Z</time></trkpt><trkpt lat="44.070022772661524" lon="9.992735654047461"><ele>2.0</ele><time>2026-04-21T14:27:33.999Z</time></trkpt><trkpt lat="44.06986156876061" lon="9.992999516542266"><ele>2.0</ele><time>2026-04-21T14:27:34.999Z</time></trkpt><trkpt lat="44.0697037617838" lon="9.993267612862542"><ele>2.0</ele><time>2026-04-21T14:27:35.999Z</time></trkpt><trkpt lat="44.06954766410038" lon="9.993541082651964"><ele>2.0</ele><time>2026-04-21T14:27:36.999Z</time></trkpt><trkpt lat="44.069390166227286" lon="9.993819105710724"><ele>2.0</ele><time>2026-04-21T14:27:37.999Z</time></trkpt><trkpt lat="44.0692294694697" lon="9.994097816851038"><ele>1.0</ele><time>2026-04-21T14:27:38.999Z</time></trkpt><trkpt lat="44.0690673029629" lon="9.994378160226743"><ele>0.0</ele><time>2026-04-21T14:27:39.999Z</time></trkpt><trkpt lat="44.068901398808215" lon="9.994654273275222"><ele>0.0</ele><time>2026-04-21T14:27:40.999Z</time></trkpt><trkpt lat="44.06873365995881" lon="9.994929002101426"><ele>0.0</ele><time>2026-04-21T14:27:41.999Z</time></trkpt><trkpt lat="44.06856424696878" lon="9.995204096590273"><ele>0.5</ele><time>2026-04-21T14:27:42.999Z</time></trkpt><trkpt lat="44.068394795990116" lon="9.995476639102284"><ele>1.0</ele><time>2026-04-21T14:27:43.999Z</time></trkpt><trkpt lat="44.06822287523245" lon="9.995749530591992"><ele>1.0</ele><time>2026-04-21T14:27:44.999Z</time></trkpt><trkpt lat="44.06805380196342" lon="9.996015433179421"><ele>1.0</ele><time>2026-04-21T14:27:45.999Z</time></trkpt><trkpt lat="44.06788538767566" lon="9.99627897701119"><ele>1.0</ele><time>2026-04-21T14:27:47Z</time></trkpt><trkpt lat="44.06772151855031" lon="9.996543314534753"><ele>1.0</ele><time>2026-04-21T14:27:48Z</time></trkpt><trkpt lat="44.067561154820496" lon="9.996804735571128"><ele>1.0</ele><time>2026-04-21T14:27:49Z</time></trkpt><trkpt lat="44.06740048370231" lon="9.997068051688021"><ele>1.0</ele><time>2026-04-21T14:27:50Z</time></trkpt><trkpt lat="44.067241168193476" lon="9.997332471222569"><ele>2.5</ele><time>2026-04-21T14:27:51Z</time></trkpt><trkpt lat="44.067080641336815" lon="9.99759684438484"><ele>4.0</ele><time>2026-04-21T14:27:52Z</time></trkpt><trkpt lat="44.06691937903112" lon="9.997857078390819"><ele>4.0</ele><time>2026-04-21T14:27:53Z</time></trkpt><trkpt lat="44.066757036516265" lon="9.99811828187326"><ele>4.0</ele><time>2026-04-21T14:27:54Z</time></trkpt><trkpt lat="44.06659631118905" lon="9.998383287795704"><ele>3.0</ele><time>2026-04-21T14:27:55Z</time></trkpt><trkpt lat="44.06643486130541" lon="9.99864779457917"><ele>2.0</ele><time>2026-04-21T14:27:56Z</time></trkpt><trkpt lat="44.066270887577716" lon="9.99891566708721"><ele>2.5</ele><time>2026-04-21T14:27:57Z</time></trkpt><trkpt lat="44.066108795683945" lon="9.999184562572024"><ele>3.0</ele><time>2026-04-21T14:27:58Z</time></trkpt><trkpt lat="44.065944801269985" lon="9.999454055214326"><ele>3.0</ele><time>2026-04-21T14:27:59Z</time></trkpt><trkpt lat="44.065781596210705" lon="9.999723840190816"><ele>3.0</ele><time>2026-04-21T14:28:00Z</time></trkpt><trkpt lat="44.06561734610821" lon="9.999996328149127"><ele>1.5</ele><time>2026-04-21T14:28:01Z</time></trkpt><trkpt lat="44.06545557580462" lon="10.000270735385532"><ele>0.0</ele><time>2026-04-21T14:28:02Z</time></trkpt><trkpt lat="44.0652924118575" lon="10.00054211963439"><ele>0.0</ele><time>2026-04-21T14:28:03Z</time></trkpt><trkpt lat="44.065126180103775" lon="10.000811083360626"><ele>0.0</ele><time>2026-04-21T14:28:04Z</time></trkpt><trkpt lat="44.064959820686084" lon="10.001078086352386"><ele>-0.5</ele><time>2026-04-21T14:28:05Z</time></trkpt><trkpt lat="44.06479572503166" lon="10.001346396302397"><ele>-1.0</ele><time>2026-04-21T14:28:06Z</time></trkpt><trkpt lat="44.06463245292298" lon="10.001613651743975"><ele>0.0</ele><time>2026-04-21T14:28:07Z</time></trkpt><trkpt lat="44.06447030790851" lon="10.001883635464777"><ele>1.0</ele><time>2026-04-21T14:28:08Z</time></trkpt><trkpt lat="44.06430949429793" lon="10.002154349129642"><ele>1.0</ele><time>2026-04-21T14:28:09Z</time></trkpt><trkpt lat="44.06414776782415" lon="10.00242065384057"><ele>1.0</ele><time>2026-04-21T14:28:10Z</time></trkpt><trkpt lat="44.0639838325343" lon="10.002688851223617"><ele>0.0</ele><time>2026-04-21T14:28:11Z</time></trkpt><trkpt lat="44.06382095908561" lon="10.002954387793416"><ele>-1.0</ele><time>2026-04-21T14:28:12Z</time></trkpt><trkpt lat="44.06366031694268" lon="10.003219857271016"><ele>-0.5</ele><time>2026-04-21T14:28:13Z</time></trkpt><trkpt lat="44.063498792552835" lon="10.003485323794617"><ele>0.0</ele><time>2026-04-21T14:28:14Z</time></trkpt><trkpt lat="44.063337677401464" lon="10.003750694647776"><ele>0.0</ele><time>2026-04-21T14:28:15Z</time></trkpt><trkpt lat="44.06317875750776" lon="10.004011826827966"><ele>0.0</ele><time>2026-04-21T14:28:16Z</time></trkpt><trkpt lat="44.063018654596455" lon="10.004275530015356"><ele>0.5</ele><time>2026-04-21T14:28:17Z</time></trkpt><trkpt lat="44.06285216244379" lon="10.00454821820959"><ele>1.0</ele><time>2026-04-21T14:28:18Z</time></trkpt><trkpt lat="44.0626872623417" lon="10.004820203024122"><ele>1.0</ele><time>2026-04-21T14:28:19Z</time></trkpt><trkpt lat="44.062521140510576" lon="10.005097253277762"><ele>1.0</ele><time>2026-04-21T14:28:20Z</time></trkpt><trkpt lat="44.062352620169634" lon="10.005374037246762"><ele>2.0</ele><time>2026-04-21T14:28:21Z</time></trkpt><trkpt lat="44.06218365867607" lon="10.005653461562938"><ele>3.0</ele><time>2026-04-21T14:28:22Z</time></trkpt><trkpt lat="44.062015494172456" lon="10.005929948098878"><ele>3.0</ele><time>2026-04-21T14:28:23Z</time></trkpt><trkpt lat="44.06184845932467" lon="10.00620585855945"><ele>3.0</ele><time>2026-04-21T14:28:24Z</time></trkpt><trkpt lat="44.06168140605849" lon="10.006479092385067"><ele>3.5</ele><time>2026-04-21T14:28:25Z</time></trkpt><trkpt lat="44.06151489144056" lon="10.006749798498344"><ele>4.0</ele><time>2026-04-21T14:28:26Z</time></trkpt><trkpt lat="44.06134937008509" lon="10.0070195458576"><ele>4.0</ele><time>2026-04-21T14:28:27Z</time></trkpt><trkpt lat="44.06118773073319" lon="10.007287617126496"><ele>4.0</ele><time>2026-04-21T14:28:28Z</time></trkpt><trkpt lat="44.06102664901188" lon="10.007559643945784"><ele>4.0</ele><time>2026-04-21T14:28:29Z</time></trkpt><trkpt lat="44.06086950376982" lon="10.007831584304489"><ele>4.0</ele><time>2026-04-21T14:28:30Z</time></trkpt><trkpt lat="44.060716780202064" lon="10.008107711722262"><ele>4.0</ele><time>2026-04-21T14:28:31Z</time></trkpt><trkpt lat="44.0605693304729" lon="10.008391533087357"><ele>4.0</ele><time>2026-04-21T14:28:32Z</time></trkpt><trkpt lat="44.060425629880825" lon="10.008674975298327"><ele>4.0</ele><time>2026-04-21T14:28:33Z</time></trkpt><trkpt lat="44.06028278000967" lon="10.008962820765767"><ele>4.0</ele><time>2026-04-21T14:28:34Z</time></trkpt><trkpt lat="44.0601454917577" lon="10.009247226774105"><ele>4.5</ele><time>2026-04-21T14:28:35Z</time></trkpt><trkpt lat="44.06001336805371" lon="10.009531608280325"><ele>5.0</ele><time>2026-04-21T14:28:36Z</time></trkpt><trkpt lat="44.05987929067214" lon="10.009814357810551"><ele>4.5</ele><time>2026-04-21T14:28:37Z</time></trkpt><trkpt lat="44.0597513579505" lon="10.010099577907951"><ele>4.0</ele><time>2026-04-21T14:28:38Z</time></trkpt><trkpt lat="44.05962974278081" lon="10.01038233153481"><ele>4.0</ele><time>2026-04-21T14:28:39Z</time></trkpt><trkpt lat="44.059513044132906" lon="10.01066585062353"><ele>4.0</ele><time>2026-04-21T14:28:40Z</time></trkpt><trkpt lat="44.05939653184895" lon="10.01094848125314"><ele>4.0</ele><time>2026-04-21T14:28:41Z</time></trkpt><trkpt lat="44.059281284851366" lon="10.011231473195325"><ele>4.0</ele><time>2026-04-21T14:28:42Z</time></trkpt><trkpt lat="44.05917039158168" lon="10.011515530121263"><ele>2.0</ele><time>2026-04-21T14:28:43Z</time></trkpt><trkpt lat="44.059060921068905" lon="10.011802736167418"><ele>0.0</ele><time>2026-04-21T14:28:44Z</time></trkpt><trkpt lat="44.05895608804123" lon="10.012090731630531"><ele>0.0</ele><time>2026-04-21T14:28:45Z</time></trkpt><trkpt lat="44.05885596261117" lon="10.012376142160633"><ele>0.0</ele><time>2026-04-21T14:28:46Z</time></trkpt><trkpt lat="44.058756800088354" lon="10.012667563670588"><ele>-0.5</ele><time>2026-04-21T14:28:47Z</time></trkpt><trkpt lat="44.05865979566229" lon="10.012962091427848"><ele>-1.0</ele><time>2026-04-21T14:28:48Z</time></trkpt><trkpt lat="44.05856737198674" lon="10.013262919194052"><ele>0.5</ele><time>2026-04-21T14:28:49Z</time></trkpt><trkpt lat="44.05847847453788" lon="10.0135616845132"><ele>2.0</ele><time>2026-04-21T14:28:50Z</time></trkpt><trkpt lat="44.058388987383395" lon="10.013861632771288"><ele>1.0</ele><time>2026-04-21T14:28:51Z</time></trkpt><trkpt lat="44.058305844388975" lon="10.014163537051479"><ele>0.0</ele><time>2026-04-21T14:28:52Z</time></trkpt><trkpt lat="44.05822434752928" lon="10.014466652166362"><ele>0.0</ele><time>2026-04-21T14:28:53Z</time></trkpt><trkpt lat="44.058137307837775" lon="10.014770037760464"><ele>0.0</ele><time>2026-04-21T14:28:54Z</time></trkpt><trkpt lat="44.05804692096337" lon="10.015070353021263"><ele>0.5</ele><time>2026-04-21T14:28:55Z</time></trkpt><trkpt lat="44.05795989189262" lon="10.015366125951932"><ele>1.0</ele><time>2026-04-21T14:28:56Z</time></trkpt><trkpt lat="44.05787247125234" lon="10.0156607342949"><ele>1.5</ele><time>2026-04-21T14:28:57Z</time></trkpt><trkpt lat="44.05778602956912" lon="10.015960779520842"><ele>2.0</ele><time>2026-04-21T14:28:58Z</time></trkpt><trkpt lat="44.05769998174348" lon="10.01625906780813"><ele>2.0</ele><time>2026-04-21T14:28:59Z</time></trkpt><trkpt lat="44.05761248356908" lon="10.016560332254677"><ele>2.0</ele><time>2026-04-21T14:29:00Z</time></trkpt><trkpt lat="44.057523189558744" lon="10.016856728137162"><ele>1.0</ele><time>2026-04-21T14:29:01Z</time></trkpt><trkpt lat="44.05743284935298" lon="10.017155289274692"><ele>0.0</ele><time>2026-04-21T14:29:02Z</time></trkpt><trkpt lat="44.05734262899042" lon="10.017454594874865"><ele>0.5</ele><time>2026-04-21T14:29:03Z</time></trkpt><trkpt lat="44.05725328657728" lon="10.01775385723203"><ele>1.0</ele><time>2026-04-21T14:29:04Z</time></trkpt><trkpt lat="44.05716622043436" lon="10.018055967719306"><ele>0.5</ele><time>2026-04-21T14:29:05Z</time></trkpt><trkpt lat="44.057078242505916" lon="10.018360204760947"><ele>0.0</ele><time>2026-04-21T14:29:06Z</time></trkpt><trkpt lat="44.056989853026614" lon="10.018663139389169"><ele>0.0</ele><time>2026-04-21T14:29:07Z</time></trkpt><trkpt lat="44.05690214106259" lon="10.018964914249162"><ele>0.0</ele><time>2026-04-21T14:29:08Z</time></trkpt><trkpt lat="44.05681179907213" lon="10.019266529430142"><ele>0.5</ele><time>2026-04-21T14:29:09Z</time></trkpt><trkpt lat="44.05672192235445" lon="10.019561249589492"><ele>1.0</ele><time>2026-04-21T14:29:10Z</time></trkpt><trkpt lat="44.05664041239945" lon="10.01985497089793"><ele>1.0</ele><time>2026-04-21T14:29:11Z</time></trkpt><trkpt lat="44.05655683452562" lon="10.020151871172658"><ele>1.0</ele><time>2026-04-21T14:29:12Z</time></trkpt><trkpt lat="44.05646953287914" lon="10.020447773468781"><ele>1.0</ele><time>2026-04-21T14:29:13Z</time></trkpt><trkpt lat="44.0563837950553" lon="10.020745576974225"><ele>1.0</ele><time>2026-04-21T14:29:14Z</time></trkpt><trkpt lat="44.05629399458964" lon="10.021041140452022"><ele>0.5</ele><time>2026-04-21T14:29:15Z</time></trkpt><trkpt lat="44.05620281843691" lon="10.021341938090037"><ele>0.0</ele><time>2026-04-21T14:29:16Z</time></trkpt><trkpt lat="44.056112322533004" lon="10.021643721486182"><ele>0.5</ele><time>2026-04-21T14:29:17Z</time></trkpt><trkpt lat="44.05602492709641" lon="10.021949512001772"><ele>1.0</ele><time>2026-04-21T14:29:18Z</time></trkpt><trkpt lat="44.05593783014357" lon="10.022256342392485"><ele>1.0</ele><time>2026-04-21T14:29:19Z</time></trkpt><trkpt lat="44.05585190849791" lon="10.022564435861451"><ele>1.0</ele><time>2026-04-21T14:29:20Z</time></trkpt><trkpt lat="44.05576426672167" lon="10.022859752185044"><ele>1.0</ele><time>2026-04-21T14:29:21Z</time></trkpt><trkpt lat="44.055677503709255" lon="10.023166604633055"><ele>1.0</ele><time>2026-04-21T14:29:22Z</time></trkpt><trkpt lat="44.05558959322662" lon="10.023473692660906"><ele>1.0</ele><time>2026-04-21T14:29:23Z</time></trkpt><trkpt lat="44.05550372914735" lon="10.023778089711817"><ele>1.0</ele><time>2026-04-21T14:29:24Z</time></trkpt><trkpt lat="44.05541736438056" lon="10.02408755144213"><ele>2.0</ele><time>2026-04-21T14:29:24.999Z</time></trkpt><trkpt lat="44.05532853186007" lon="10.024401849501084"><ele>3.0</ele><time>2026-04-21T14:29:25.999Z</time></trkpt><trkpt lat="44.05523732559679" lon="10.024718284067976"><ele>3.0</ele><time>2026-04-21T14:29:26.999Z</time></trkpt><trkpt lat="44.05514186656887" lon="10.025030881402223"><ele>3.0</ele><time>2026-04-21T14:29:27.999Z</time></trkpt><trkpt lat="44.055049599723844" lon="10.02535057776592"><ele>3.0</ele><time>2026-04-21T14:29:28.999Z</time></trkpt><trkpt lat="44.054956552479965" lon="10.025670415343455"><ele>3.0</ele><time>2026-04-21T14:29:29.999Z</time></trkpt><trkpt lat="44.05486585453462" lon="10.025995107769367"><ele>3.0</ele><time>2026-04-21T14:29:30.999Z</time></trkpt><trkpt lat="44.05477351361744" lon="10.026315411383813"><ele>3.0</ele><time>2026-04-21T14:29:31.999Z</time></trkpt><trkpt lat="44.05467816955761" lon="10.026639270167564"><ele>2.0</ele><time>2026-04-21T14:29:32.999Z</time></trkpt><trkpt lat="44.05457404439016" lon="10.026961625567784"><ele>1.0</ele><time>2026-04-21T14:29:33.999Z</time></trkpt><trkpt lat="44.05447835420657" lon="10.027290489896048"><ele>1.5</ele><time>2026-04-21T14:29:34.999Z</time></trkpt><trkpt lat="44.05438346466627" lon="10.027617177037266"><ele>2.0</ele><time>2026-04-21T14:29:35.999Z</time></trkpt><trkpt lat="44.05428826886769" lon="10.027944126406789"><ele>2.0</ele><time>2026-04-21T14:29:36.999Z</time></trkpt><trkpt lat="44.05419236141893" lon="10.028273750593824"><ele>2.0</ele><time>2026-04-21T14:29:37.999Z</time></trkpt><trkpt lat="44.054097817724205" lon="10.028604360135729"><ele>2.5</ele><time>2026-04-21T14:29:38.999Z</time></trkpt><trkpt lat="44.05400125351498" lon="10.028938308363868"><ele>3.0</ele><time>2026-04-21T14:29:39.999Z</time></trkpt><trkpt lat="44.0539008625286" lon="10.029271958486383"><ele>3.0</ele><time>2026-04-21T14:29:40.999Z</time></trkpt><trkpt lat="44.053799058437214" lon="10.02960562950032"><ele>3.0</ele><time>2026-04-21T14:29:41.999Z</time></trkpt><trkpt lat="44.053701661316026" lon="10.029943657528312"><ele>3.0</ele><time>2026-04-21T14:29:42.999Z</time></trkpt><trkpt lat="44.05360441555414" lon="10.030280906605531"><ele>3.0</ele><time>2026-04-21T14:29:43.999Z</time></trkpt><trkpt lat="44.053513318801016" lon="10.030619823011564"><ele>3.0</ele><time>2026-04-21T14:29:44.999Z</time></trkpt><trkpt lat="44.053415409541124" lon="10.030961209642479"><ele>3.0</ele><time>2026-04-21T14:29:45.999Z</time></trkpt><trkpt lat="44.05331585039185" lon="10.03129972957214"><ele>3.0</ele><time>2026-04-21T14:29:46.999Z</time></trkpt><trkpt lat="44.05321744180008" lon="10.031643100828555"><ele>3.0</ele><time>2026-04-21T14:29:47.999Z</time></trkpt><trkpt lat="44.053117459036635" lon="10.031982533246302"><ele>3.0</ele><time>2026-04-21T14:29:48.999Z</time></trkpt><trkpt lat="44.053017003705634" lon="10.032319861818436"><ele>3.0</ele><time>2026-04-21T14:29:49.999Z</time></trkpt><trkpt lat="44.052913106368464" lon="10.03265815748672"><ele>2.5</ele><time>2026-04-21T14:29:50.999Z</time></trkpt><trkpt lat="44.05280143121605" lon="10.032986737451848"><ele>2.0</ele><time>2026-04-21T14:29:51.999Z</time></trkpt><trkpt lat="44.05268347589702" lon="10.033312529305102"><ele>2.0</ele><time>2026-04-21T14:29:52.999Z</time></trkpt><trkpt lat="44.0525647256805" lon="10.033636705379523"><ele>2.0</ele><time>2026-04-21T14:29:53.999Z</time></trkpt><trkpt lat="44.05244454276567" lon="10.033957382178071"><ele>1.5</ele><time>2026-04-21T14:29:54.999Z</time></trkpt><trkpt lat="44.05232424467815" lon="10.034279559213626"><ele>1.0</ele><time>2026-04-21T14:29:55.999Z</time></trkpt><trkpt lat="44.05220337738419" lon="10.034598415480989"><ele>1.0</ele><time>2026-04-21T14:29:56.999Z</time></trkpt><trkpt lat="44.05207257201528" lon="10.034924450211005"><ele>1.0</ele><time>2026-04-21T14:29:57.999Z</time></trkpt><trkpt lat="44.05194874845917" lon="10.035202816909067"><ele>0.5</ele><time>2026-04-21T14:29:58.999Z</time></trkpt><trkpt lat="44.05181543599534" lon="10.035521304395438"><ele>0.0</ele><time>2026-04-21T14:29:59.999Z</time></trkpt><trkpt lat="44.05167826465325" lon="10.035831950111575"><ele>1.0</ele><time>2026-04-21T14:30:00.999Z</time></trkpt><trkpt lat="44.05154472950753" lon="10.036135972974524"><ele>2.0</ele><time>2026-04-21T14:30:01.999Z</time></trkpt><trkpt lat="44.05139849355386" lon="10.036440357669687"><ele>2.0</ele><time>2026-04-21T14:30:02.999Z</time></trkpt><trkpt lat="44.05125291322533" lon="10.03673522606581"><ele>2.0</ele><time>2026-04-21T14:30:03.999Z</time></trkpt><trkpt lat="44.05110226052192" lon="10.037023242997"><ele>2.0</ele><time>2026-04-21T14:30:04.999Z</time></trkpt><trkpt lat="44.05095342970933" lon="10.037317074918239"><ele>2.0</ele><time>2026-04-21T14:30:05.999Z</time></trkpt><trkpt lat="44.05079261142644" lon="10.037605143064102"><ele>2.0</ele><time>2026-04-21T14:30:06.999Z</time></trkpt><trkpt lat="44.05063544111532" lon="10.037894427632429"><ele>2.0</ele><time>2026-04-21T14:30:07.999Z</time></trkpt><trkpt lat="44.050477982364654" lon="10.038186722199613"><ele>2.0</ele><time>2026-04-21T14:30:08.999Z</time></trkpt><trkpt lat="44.050325995547155" lon="10.038472147427358"><ele>2.0</ele><time>2026-04-21T14:30:09.999Z</time></trkpt><trkpt lat="44.05017006162214" lon="10.03875721067059"><ele>2.0</ele><time>2026-04-21T14:30:10.999Z</time></trkpt><trkpt lat="44.05001621638461" lon="10.039043107639612"><ele>2.0</ele><time>2026-04-21T14:30:11.999Z</time></trkpt><trkpt lat="44.049864019099275" lon="10.039331164686557"><ele>1.5</ele><time>2026-04-21T14:30:12.999Z</time></trkpt><trkpt lat="44.049715478004515" lon="10.039610757216074"><ele>1.0</ele><time>2026-04-21T14:30:13.999Z</time></trkpt><trkpt lat="44.04956430777344" lon="10.03989325265628"><ele>1.0</ele><time>2026-04-21T14:30:14.999Z</time></trkpt><trkpt lat="44.049413047382366" lon="10.040165634388135"><ele>1.0</ele><time>2026-04-21T14:30:15.999Z</time></trkpt><trkpt lat="44.04926354795934" lon="10.040441913650788"><ele>1.5</ele><time>2026-04-21T14:30:17Z</time></trkpt><trkpt lat="44.04911371933563" lon="10.040711983538925"><ele>2.0</ele><time>2026-04-21T14:30:18Z</time></trkpt><trkpt lat="44.04896381817753" lon="10.04098709247134"><ele>2.5</ele><time>2026-04-21T14:30:19Z</time></trkpt><trkpt lat="44.04882032692148" lon="10.041258621235688"><ele>3.0</ele><time>2026-04-21T14:30:20Z</time></trkpt><trkpt lat="44.04867353552615" lon="10.04153925516475"><ele>3.5</ele><time>2026-04-21T14:30:21Z</time></trkpt><trkpt lat="44.04853284500149" lon="10.041818658931554"><ele>4.0</ele><time>2026-04-21T14:30:22Z</time></trkpt><trkpt lat="44.04838915806169" lon="10.042093877237994"><ele>4.0</ele><time>2026-04-21T14:30:23Z</time></trkpt><trkpt lat="44.048242883169486" lon="10.042365501019864"><ele>4.0</ele><time>2026-04-21T14:30:24Z</time></trkpt><trkpt lat="44.048098591003786" lon="10.042636273563819"><ele>5.0</ele><time>2026-04-21T14:30:25Z</time></trkpt><trkpt lat="44.04795633915361" lon="10.042905261113004"><ele>6.0</ele><time>2026-04-21T14:30:26Z</time></trkpt><trkpt lat="44.04781391777451" lon="10.043178652580519"><ele>5.5</ele><time>2026-04-21T14:30:27Z</time></trkpt><trkpt lat="44.04766917249603" lon="10.043445779015581"><ele>5.0</ele><time>2026-04-21T14:30:28Z</time></trkpt><trkpt lat="44.04752422911853" lon="10.043714442177924"><ele>4.5</ele><time>2026-04-21T14:30:29Z</time></trkpt><trkpt lat="44.04737963452538" lon="10.043983712963511"><ele>4.0</ele><time>2026-04-21T14:30:30Z</time></trkpt><trkpt lat="44.04723544305458" lon="10.04425500744303"><ele>3.5</ele><time>2026-04-21T14:30:31Z</time></trkpt><trkpt lat="44.04709058220511" lon="10.04452671062516"><ele>3.0</ele><time>2026-04-21T14:30:32Z</time></trkpt><trkpt lat="44.046946275554966" lon="10.044800540016599"><ele>4.0</ele><time>2026-04-21T14:30:33Z</time></trkpt><trkpt lat="44.04680210846563" lon="10.045072915604393"><ele>5.0</ele><time>2026-04-21T14:30:34Z</time></trkpt><trkpt lat="44.04665611690325" lon="10.045346271590038"><ele>4.5</ele><time>2026-04-21T14:30:35Z</time></trkpt><trkpt lat="44.04650772281082" lon="10.045617251229194"><ele>4.0</ele><time>2026-04-21T14:30:36Z</time></trkpt><trkpt lat="44.04635935752719" lon="10.045890448363203"><ele>3.5</ele><time>2026-04-21T14:30:37Z</time></trkpt><trkpt lat="44.04621238272738" lon="10.046168599443236"><ele>3.0</ele><time>2026-04-21T14:30:38Z</time></trkpt><trkpt lat="44.046069639670485" lon="10.046450041096842"><ele>3.5</ele><time>2026-04-21T14:30:39Z</time></trkpt><trkpt lat="44.04592478776229" lon="10.046730462242866"><ele>4.0</ele><time>2026-04-21T14:30:40Z</time></trkpt><trkpt lat="44.04577927069054" lon="10.047009294279594"><ele>4.0</ele><time>2026-04-21T14:30:41Z</time></trkpt><trkpt lat="44.04563157936972" lon="10.047292215176094"><ele>4.0</ele><time>2026-04-21T14:30:42Z</time></trkpt><trkpt lat="44.045483006602325" lon="10.047568400845945"><ele>4.5</ele><time>2026-04-21T14:30:43Z</time></trkpt><trkpt lat="44.045334625488756" lon="10.047847789248703"><ele>5.0</ele><time>2026-04-21T14:30:44Z</time></trkpt><trkpt lat="44.04518722185869" lon="10.048128846257603"><ele>5.0</ele><time>2026-04-21T14:30:45Z</time></trkpt><trkpt lat="44.045040605936606" lon="10.048408701800406"><ele>5.0</ele><time>2026-04-21T14:30:46Z</time></trkpt><trkpt lat="44.04489319017569" lon="10.048687544224803"><ele>4.5</ele><time>2026-04-21T14:30:47Z</time></trkpt><trkpt lat="44.04474454922228" lon="10.048964914793025"><ele>4.0</ele><time>2026-04-21T14:30:48Z</time></trkpt><trkpt lat="44.044595750766504" lon="10.049246240102919"><ele>4.0</ele><time>2026-04-21T14:30:49Z</time></trkpt><trkpt lat="44.04444709268274" lon="10.049530158520788"><ele>4.0</ele><time>2026-04-21T14:30:50Z</time></trkpt><trkpt lat="44.04429733942783" lon="10.049811846379784"><ele>4.5</ele><time>2026-04-21T14:30:51Z</time></trkpt><trkpt lat="44.04414698770744" lon="10.050097305341172"><ele>5.0</ele><time>2026-04-21T14:30:52Z</time></trkpt><trkpt lat="44.04399298974855" lon="10.050381408773601"><ele>5.0</ele><time>2026-04-21T14:30:53Z</time></trkpt><trkpt lat="44.04384057408551" lon="10.050669280832738"><ele>5.0</ele><time>2026-04-21T14:30:54Z</time></trkpt><trkpt lat="44.04369099589309" lon="10.050964492912868"><ele>5.0</ele><time>2026-04-21T14:30:55Z</time></trkpt><trkpt lat="44.043538753131756" lon="10.051253642508057"><ele>5.0</ele><time>2026-04-21T14:30:56Z</time></trkpt><trkpt lat="44.043387000168295" lon="10.051545377457542"><ele>6.0</ele><time>2026-04-21T14:30:57Z</time></trkpt><trkpt lat="44.04323702668207" lon="10.051839840093011"><ele>7.0</ele><time>2026-04-21T14:30:58Z</time></trkpt><trkpt lat="44.04309318498132" lon="10.052142256362137"><ele>7.0</ele><time>2026-04-21T14:30:59Z</time></trkpt><trkpt lat="44.0429539168997" lon="10.052442959970907"><ele>7.0</ele><time>2026-04-21T14:31:00Z</time></trkpt><trkpt lat="44.042817245047" lon="10.052749755285397"><ele>6.5</ele><time>2026-04-21T14:31:01Z</time></trkpt><trkpt lat="44.042679941222275" lon="10.053059487638828"><ele>6.0</ele><time>2026-04-21T14:31:02Z</time></trkpt><trkpt lat="44.0425443409292" lon="10.053366043931543"><ele>4.0</ele><time>2026-04-21T14:31:03Z</time></trkpt><trkpt lat="44.042408845169" lon="10.053676304206338"><ele>2.0</ele><time>2026-04-21T14:31:04Z</time></trkpt><trkpt lat="44.042272907637184" lon="10.05398593132688"><ele>2.5</ele><time>2026-04-21T14:31:05Z</time></trkpt><trkpt lat="44.04213585338971" lon="10.054299538574412"><ele>3.0</ele><time>2026-04-21T14:31:06Z</time></trkpt><trkpt lat="44.04199603465632" lon="10.054603873396674"><ele>3.0</ele><time>2026-04-21T14:31:07Z</time></trkpt><trkpt lat="44.04185991478137" lon="10.054911418102684"><ele>3.0</ele><time>2026-04-21T14:31:08Z</time></trkpt><trkpt lat="44.041722525201415" lon="10.05521910056063"><ele>3.0</ele><time>2026-04-21T14:31:09Z</time></trkpt><trkpt lat="44.04158604386008" lon="10.055522845884232"><ele>3.0</ele><time>2026-04-21T14:31:10Z</time></trkpt><trkpt lat="44.04145150185539" lon="10.055827212768559"><ele>3.0</ele><time>2026-04-21T14:31:11Z</time></trkpt><trkpt lat="44.04131944004212" lon="10.056130604970521"><ele>3.0</ele><time>2026-04-21T14:31:12Z</time></trkpt><trkpt lat="44.041189031774444" lon="10.056423885718479"><ele>3.0</ele><time>2026-04-21T14:31:13Z</time></trkpt><trkpt lat="44.041056817703094" lon="10.056718191152825"><ele>3.0</ele><time>2026-04-21T14:31:14Z</time></trkpt><trkpt lat="44.04092623000241" lon="10.057005314180918"><ele>3.0</ele><time>2026-04-21T14:31:15Z</time></trkpt><trkpt lat="44.04079835531248" lon="10.057297785194962"><ele>3.0</ele><time>2026-04-21T14:31:16Z</time></trkpt><trkpt lat="44.040672818908874" lon="10.05758533185236"><ele>3.0</ele><time>2026-04-21T14:31:17Z</time></trkpt><trkpt lat="44.04054585703401" lon="10.057873460494246"><ele>3.0</ele><time>2026-04-21T14:31:18Z</time></trkpt><trkpt lat="44.04042270424906" lon="10.05815565678063"><ele>4.0</ele><time>2026-04-21T14:31:19Z</time></trkpt><trkpt lat="44.04029817382653" lon="10.058438120226565"><ele>5.0</ele><time>2026-04-21T14:31:20Z</time></trkpt><trkpt lat="44.040173002171585" lon="10.058721078082383"><ele>5.0</ele><time>2026-04-21T14:31:21Z</time></trkpt><trkpt lat="44.04004936759816" lon="10.059001333930752"><ele>5.0</ele><time>2026-04-21T14:31:22Z</time></trkpt><trkpt lat="44.039925849031135" lon="10.059281245499195"><ele>4.5</ele><time>2026-04-21T14:31:23Z</time></trkpt><trkpt lat="44.03980175559661" lon="10.059560332348825"><ele>4.0</ele><time>2026-04-21T14:31:24Z</time></trkpt><trkpt lat="44.03967494207578" lon="10.059846626255615"><ele>4.5</ele><time>2026-04-21T14:31:25Z</time></trkpt><trkpt lat="44.03954721304033" lon="10.060136390482802"><ele>5.0</ele><time>2026-04-21T14:31:26Z</time></trkpt><trkpt lat="44.03941878445798" lon="10.060427064981646"><ele>5.0</ele><time>2026-04-21T14:31:27Z</time></trkpt><trkpt lat="44.03929219934614" lon="10.06071354618481"><ele>5.0</ele><time>2026-04-21T14:31:28Z</time></trkpt><trkpt lat="44.03916443613611" lon="10.061007379772287"><ele>4.5</ele><time>2026-04-21T14:31:29Z</time></trkpt><trkpt lat="44.039034481291964" lon="10.06130655275543"><ele>4.0</ele><time>2026-04-21T14:31:30Z</time></trkpt><trkpt lat="44.03890026727496" lon="10.061604171367382"><ele>4.0</ele><time>2026-04-21T14:31:30.999Z</time></trkpt><trkpt lat="44.038768220698685" lon="10.061906486096477"><ele>4.0</ele><time>2026-04-21T14:31:31.999Z</time></trkpt><trkpt lat="44.038635353705416" lon="10.0622128574466"><ele>4.0</ele><time>2026-04-21T14:31:32.999Z</time></trkpt><trkpt lat="44.038498053664405" lon="10.062519599257303"><ele>4.0</ele><time>2026-04-21T14:31:33.999Z</time></trkpt><trkpt lat="44.03835871763973" lon="10.062831038011222"><ele>3.5</ele><time>2026-04-21T14:31:34.999Z</time></trkpt><trkpt lat="44.03822216991396" lon="10.063139796385935"><ele>3.0</ele><time>2026-04-21T14:31:35.999Z</time></trkpt><trkpt lat="44.03808151849291" lon="10.06345287306905"><ele>3.0</ele><time>2026-04-21T14:31:36.999Z</time></trkpt><trkpt lat="44.03794147532461" lon="10.06376862520215"><ele>3.0</ele><time>2026-04-21T14:31:37.999Z</time></trkpt><trkpt lat="44.03780286108665" lon="10.064086082110295"><ele>3.0</ele><time>2026-04-21T14:31:38.999Z</time></trkpt><trkpt lat="44.037660523191036" lon="10.064397011254476"><ele>3.0</ele><time>2026-04-21T14:31:39.999Z</time></trkpt><trkpt lat="44.03752324267495" lon="10.064717162198711"><ele>3.5</ele><time>2026-04-21T14:31:40.999Z</time></trkpt><trkpt lat="44.03738303377649" lon="10.065035186073876"><ele>4.0</ele><time>2026-04-21T14:31:41.999Z</time></trkpt><trkpt lat="44.037244854073386" lon="10.065346623201918"><ele>4.0</ele><time>2026-04-21T14:31:42.999Z</time></trkpt><trkpt lat="44.037101593254974" lon="10.065659016991715"><ele>4.0</ele><time>2026-04-21T14:31:43.999Z</time></trkpt><trkpt lat="44.03696122741812" lon="10.065975861460766"><ele>3.5</ele><time>2026-04-21T14:31:44.999Z</time></trkpt><trkpt lat="44.03682286072958" lon="10.06629021637671"><ele>3.0</ele><time>2026-04-21T14:31:45.999Z</time></trkpt><trkpt lat="44.03668466320181" lon="10.066604710159304"><ele>4.0</ele><time>2026-04-21T14:31:46.999Z</time></trkpt><trkpt lat="44.036548223323344" lon="10.06690961223362"><ele>5.0</ele><time>2026-04-21T14:31:47.999Z</time></trkpt><trkpt lat="44.036412459223904" lon="10.067222321031307"><ele>5.0</ele><time>2026-04-21T14:31:48.999Z</time></trkpt><trkpt lat="44.03627388326333" lon="10.067531709672345"><ele>5.0</ele><time>2026-04-21T14:31:49.999Z</time></trkpt><trkpt lat="44.036143493982046" lon="10.067845179685039"><ele>5.0</ele><time>2026-04-21T14:31:50.999Z</time></trkpt><trkpt lat="44.03601176114798" lon="10.06813698722745"><ele>5.0</ele><time>2026-04-21T14:31:51.999Z</time></trkpt><trkpt lat="44.03587515897645" lon="10.068438983937993"><ele>3.5</ele><time>2026-04-21T14:31:52.999Z</time></trkpt><trkpt lat="44.03574053559687" lon="10.068742735444541"><ele>2.0</ele><time>2026-04-21T14:31:53.999Z</time></trkpt><trkpt lat="44.03560791329943" lon="10.06904937349474"><ele>2.5</ele><time>2026-04-21T14:31:54.999Z</time></trkpt><trkpt lat="44.03547353134843" lon="10.069350486618701"><ele>3.0</ele><time>2026-04-21T14:31:55.999Z</time></trkpt><trkpt lat="44.03534509980551" lon="10.06965406037864"><ele>3.5</ele><time>2026-04-21T14:31:56.999Z</time></trkpt><trkpt lat="44.03521667804628" lon="10.069959629893031"><ele>4.0</ele><time>2026-04-21T14:31:57.999Z</time></trkpt><trkpt lat="44.035094386542056" lon="10.070274378899274"><ele>4.0</ele><time>2026-04-21T14:31:58.999Z</time></trkpt><trkpt lat="44.034971485246764" lon="10.070587547725012"><ele>4.0</ele><time>2026-04-21T14:31:59.999Z</time></trkpt><trkpt lat="44.03485954154587" lon="10.070901032132658"><ele>3.5</ele><time>2026-04-21T14:32:00.999Z</time></trkpt><trkpt lat="44.03475455828713" lon="10.071223009565083"><ele>3.0</ele><time>2026-04-21T14:32:01.999Z</time></trkpt><trkpt lat="44.034650689917186" lon="10.071542009885261"><ele>3.0</ele><time>2026-04-21T14:32:02.999Z</time></trkpt><trkpt lat="44.03455251018904" lon="10.071865325902264"><ele>3.0</ele><time>2026-04-21T14:32:03.999Z</time></trkpt><trkpt lat="44.034455831087094" lon="10.072192203236465"><ele>2.5</ele><time>2026-04-21T14:32:04.999Z</time></trkpt><trkpt lat="44.0343651366573" lon="10.072518917500416"><ele>2.0</ele><time>2026-04-21T14:32:05.999Z</time></trkpt><trkpt lat="44.0342768877531" lon="10.072852808692243"><ele>2.0</ele><time>2026-04-21T14:32:06.999Z</time></trkpt><trkpt lat="44.03419251099479" lon="10.073185324264927"><ele>2.0</ele><time>2026-04-21T14:32:07.999Z</time></trkpt><trkpt lat="44.03411369513611" lon="10.073521752236658"><ele>2.0</ele><time>2026-04-21T14:32:08.999Z</time></trkpt><trkpt lat="44.03403899912487" lon="10.073863077258146"><ele>2.0</ele><time>2026-04-21T14:32:09.999Z</time></trkpt><trkpt lat="44.03396955320112" lon="10.074205858546266"><ele>2.0</ele><time>2026-04-21T14:32:10.999Z</time></trkpt><trkpt lat="44.03390498465072" lon="10.07455281124282"><ele>2.0</ele><time>2026-04-21T14:32:11.999Z</time></trkpt><trkpt lat="44.03384341385734" lon="10.074897147824299"><ele>2.5</ele><time>2026-04-21T14:32:12.999Z</time></trkpt><trkpt lat="44.033782818825266" lon="10.07524604196332"><ele>3.0</ele><time>2026-04-21T14:32:13.999Z</time></trkpt><trkpt lat="44.03372847753093" lon="10.075594715626266"><ele>3.0</ele><time>2026-04-21T14:32:14.999Z</time></trkpt><trkpt lat="44.03367952396561" lon="10.07594540780822"><ele>3.0</ele><time>2026-04-21T14:32:15.999Z</time></trkpt><trkpt lat="44.03363508283935" lon="10.076298193807611"><ele>3.0</ele><time>2026-04-21T14:32:16.999Z</time></trkpt><trkpt lat="44.03358711158131" lon="10.07665102641817"><ele>3.0</ele><time>2026-04-21T14:32:18Z</time></trkpt><trkpt lat="44.033535659421766" lon="10.077002204181047"><ele>3.0</ele><time>2026-04-21T14:32:19Z</time></trkpt><trkpt lat="44.0334850127463" lon="10.077357776055402"><ele>3.0</ele><time>2026-04-21T14:32:20Z</time></trkpt><trkpt lat="44.03343984902508" lon="10.077714944143999"><ele>2.5</ele><time>2026-04-21T14:32:21Z</time></trkpt><trkpt lat="44.03339493907735" lon="10.078071782382398"><ele>2.0</ele><time>2026-04-21T14:32:22Z</time></trkpt><trkpt lat="44.03334659855786" lon="10.078428485251964"><ele>2.0</ele><time>2026-04-21T14:32:23Z</time></trkpt><trkpt lat="44.03329642043675" lon="10.078784898470873"><ele>2.0</ele><time>2026-04-21T14:32:24Z</time></trkpt><trkpt lat="44.03324627556505" lon="10.079142286763291"><ele>2.0</ele><time>2026-04-21T14:32:25Z</time></trkpt><trkpt lat="44.03319656439871" lon="10.079497787163438"><ele>2.0</ele><time>2026-04-21T14:32:26Z</time></trkpt><trkpt lat="44.03314685989622" lon="10.079854271487207"><ele>2.5</ele><time>2026-04-21T14:32:27Z</time></trkpt><trkpt lat="44.0330961793327" lon="10.080208409536956"><ele>3.0</ele><time>2026-04-21T14:32:28Z</time></trkpt><trkpt lat="44.033046011090285" lon="10.080567639005809"><ele>2.5</ele><time>2026-04-21T14:32:29Z</time></trkpt><trkpt lat="44.0329917517459" lon="10.080920422269777"><ele>2.0</ele><time>2026-04-21T14:32:30Z</time></trkpt><trkpt lat="44.0329314539308" lon="10.081271618506117"><ele>3.0</ele><time>2026-04-21T14:32:31Z</time></trkpt><trkpt lat="44.032865028447425" lon="10.081617532049894"><ele>4.0</ele><time>2026-04-21T14:32:32Z</time></trkpt><trkpt lat="44.03279441374321" lon="10.081962065889664"><ele>4.0</ele><time>2026-04-21T14:32:33Z</time></trkpt><trkpt lat="44.032719395408314" lon="10.082300524585573"><ele>4.0</ele><time>2026-04-21T14:32:34Z</time></trkpt><trkpt lat="44.03263898446444" lon="10.082636984797652"><ele>4.5</ele><time>2026-04-21T14:32:35Z</time></trkpt><trkpt lat="44.03255347881265" lon="10.082975277972606"><ele>5.0</ele><time>2026-04-21T14:32:36Z</time></trkpt><trkpt lat="44.03246030789156" lon="10.083307802905223"><ele>3.5</ele><time>2026-04-21T14:32:37Z</time></trkpt><trkpt lat="44.03236369567409" lon="10.083643717512647"><ele>2.0</ele><time>2026-04-21T14:32:38Z</time></trkpt><trkpt lat="44.032263287487055" lon="10.083981496463295"><ele>2.5</ele><time>2026-04-21T14:32:39Z</time></trkpt><trkpt lat="44.032162249554496" lon="10.084313482969428"><ele>3.0</ele><time>2026-04-21T14:32:40Z</time></trkpt><trkpt lat="44.03205361301808" lon="10.084645302022917"><ele>4.0</ele><time>2026-04-21T14:32:41Z</time></trkpt><trkpt lat="44.03193603873123" lon="10.084974974291436"><ele>5.0</ele><time>2026-04-21T14:32:42Z</time></trkpt><trkpt lat="44.031817803421106" lon="10.08530214488219"><ele>5.0</ele><time>2026-04-21T14:32:43Z</time></trkpt><trkpt lat="44.031693320404635" lon="10.085630373080205"><ele>5.0</ele><time>2026-04-21T14:32:44Z</time></trkpt><trkpt lat="44.03156350922573" lon="10.085946112593337"><ele>3.5</ele><time>2026-04-21T14:32:45Z</time></trkpt><trkpt lat="44.0314325143521" lon="10.086256677998719"><ele>2.0</ele><time>2026-04-21T14:32:46Z</time></trkpt><trkpt lat="44.03129563513435" lon="10.086561537483458"><ele>2.5</ele><time>2026-04-21T14:32:47Z</time></trkpt><trkpt lat="44.031151378591055" lon="10.086864265483714"><ele>3.0</ele><time>2026-04-21T14:32:48Z</time></trkpt><trkpt lat="44.03100583726997" lon="10.087166222021361"><ele>2.0</ele><time>2026-04-21T14:32:49Z</time></trkpt><trkpt lat="44.03086084289102" lon="10.087462259101848"><ele>1.0</ele><time>2026-04-21T14:32:50Z</time></trkpt><trkpt lat="44.030717868625196" lon="10.087752232115223"><ele>1.0</ele><time>2026-04-21T14:32:51Z</time></trkpt><trkpt lat="44.030564742580225" lon="10.088030642161405"><ele>1.0</ele><time>2026-04-21T14:32:52Z</time></trkpt><trkpt lat="44.03040643930525" lon="10.088306057630298"><ele>1.5</ele><time>2026-04-21T14:32:53Z</time></trkpt><trkpt lat="44.03023947547653" lon="10.08858065470505"><ele>2.0</ele><time>2026-04-21T14:32:54Z</time></trkpt><trkpt lat="44.03007905031712" lon="10.088850602980948"><ele>3.0</ele><time>2026-04-21T14:32:55Z</time></trkpt><trkpt lat="44.02991358984978" lon="10.089112365833607"><ele>4.0</ele><time>2026-04-21T14:32:56Z</time></trkpt><trkpt lat="44.02974397166866" lon="10.08936950974337"><ele>4.0</ele><time>2026-04-21T14:32:57Z</time></trkpt><trkpt lat="44.02957076432438" lon="10.089631376612305"><ele>4.0</ele><time>2026-04-21T14:32:58Z</time></trkpt><trkpt lat="44.029399830638965" lon="10.089894428211801"><ele>4.5</ele><time>2026-04-21T14:32:59Z</time></trkpt><trkpt lat="44.02922786791543" lon="10.090158963564114"><ele>5.0</ele><time>2026-04-21T14:33:00Z</time></trkpt><trkpt lat="44.029049044580375" lon="10.090423465806383"><ele>5.0</ele><time>2026-04-21T14:33:01Z</time></trkpt><trkpt lat="44.028890691085365" lon="10.090691303058746"><ele>5.0</ele><time>2026-04-21T14:33:02Z</time></trkpt><trkpt lat="44.0287224837425" lon="10.090955819352159"><ele>5.5</ele><time>2026-04-21T14:33:03Z</time></trkpt><trkpt lat="44.02855363051262" lon="10.091220469901394"><ele>6.0</ele><time>2026-04-21T14:33:04Z</time></trkpt><trkpt lat="44.028382125782144" lon="10.091481355473292"><ele>5.5</ele><time>2026-04-21T14:33:05Z</time></trkpt><trkpt lat="44.028208330458696" lon="10.091747939691194"><ele>5.0</ele><time>2026-04-21T14:33:06Z</time></trkpt><trkpt lat="44.02803782451616" lon="10.09200865927711"><ele>5.0</ele><time>2026-04-21T14:33:07Z</time></trkpt><trkpt lat="44.027858805662454" lon="10.092270757744918"><ele>5.0</ele><time>2026-04-21T14:33:08Z</time></trkpt><trkpt lat="44.027686283246105" lon="10.092534455855553"><ele>5.5</ele><time>2026-04-21T14:33:09Z</time></trkpt><trkpt lat="44.02752181445311" lon="10.092801061677914"><ele>6.0</ele><time>2026-04-21T14:33:10Z</time></trkpt><trkpt lat="44.02735281039617" lon="10.093067066213042"><ele>4.5</ele><time>2026-04-21T14:33:11Z</time></trkpt><trkpt lat="44.02718354490713" lon="10.093324131758601"><ele>3.0</ele><time>2026-04-21T14:33:12Z</time></trkpt><trkpt lat="44.02701487572214" lon="10.093584296599694"><ele>3.0</ele><time>2026-04-21T14:33:13Z</time></trkpt><trkpt lat="44.0268419156212" lon="10.093845078884046"><ele>3.0</ele><time>2026-04-21T14:33:14Z</time></trkpt><trkpt lat="44.02666663666513" lon="10.094100867431042"><ele>3.0</ele><time>2026-04-21T14:33:15Z</time></trkpt><trkpt lat="44.02649241394463" lon="10.094364018493469"><ele>3.0</ele><time>2026-04-21T14:33:16Z</time></trkpt><trkpt lat="44.02631854341148" lon="10.094638141730274"><ele>3.0</ele><time>2026-04-21T14:33:17Z</time></trkpt><trkpt lat="44.02614207416895" lon="10.094907789969199"><ele>3.0</ele><time>2026-04-21T14:33:18Z</time></trkpt><trkpt lat="44.02597143391289" lon="10.095178842561406"><ele>3.0</ele><time>2026-04-21T14:33:19Z</time></trkpt><trkpt lat="44.02580033843799" lon="10.095453948375056"><ele>3.0</ele><time>2026-04-21T14:33:20Z</time></trkpt><trkpt lat="44.02561678875301" lon="10.09572696755123"><ele>2.5</ele><time>2026-04-21T14:33:21Z</time></trkpt><trkpt lat="44.025441833906065" lon="10.095998106808473"><ele>2.0</ele><time>2026-04-21T14:33:22Z</time></trkpt><trkpt lat="44.02526321796867" lon="10.096268709749765"><ele>2.0</ele><time>2026-04-21T14:33:23Z</time></trkpt><trkpt lat="44.02508565523785" lon="10.096535806365056"><ele>2.0</ele><time>2026-04-21T14:33:24Z</time></trkpt><trkpt lat="44.024905117932235" lon="10.096809391511666"><ele>2.0</ele><time>2026-04-21T14:33:25Z</time></trkpt><trkpt lat="44.024730693224654" lon="10.097079630600419"><ele>2.0</ele><time>2026-04-21T14:33:26Z</time></trkpt><trkpt lat="44.02455503975062" lon="10.097349727656068"><ele>2.0</ele><time>2026-04-21T14:33:27Z</time></trkpt><trkpt lat="44.02437941899274" lon="10.097617880494587"><ele>2.0</ele><time>2026-04-21T14:33:28Z</time></trkpt><trkpt lat="44.02420294191132" lon="10.097888430298553"><ele>2.5</ele><time>2026-04-21T14:33:29Z</time></trkpt><trkpt lat="44.0240316521274" lon="10.098160797526127"><ele>3.0</ele><time>2026-04-21T14:33:30Z</time></trkpt><trkpt lat="44.023866566656395" lon="10.098443111538298"><ele>3.5</ele><time>2026-04-21T14:33:31Z</time></trkpt><trkpt lat="44.023707372911254" lon="10.09872507643629"><ele>4.0</ele><time>2026-04-21T14:33:32Z</time></trkpt><trkpt lat="44.02355373364505" lon="10.099016737336271"><ele>4.0</ele><time>2026-04-21T14:33:33Z</time></trkpt><trkpt lat="44.023402195016814" lon="10.099312882215493"><ele>4.0</ele><time>2026-04-21T14:33:34Z</time></trkpt><trkpt lat="44.023252399781555" lon="10.099606615996038"><ele>4.0</ele><time>2026-04-21T14:33:35Z</time></trkpt><trkpt lat="44.02310700860517" lon="10.099902964614595"><ele>4.0</ele><time>2026-04-21T14:33:36Z</time></trkpt><trkpt lat="44.0229667020664" lon="10.100200335310499"><ele>3.0</ele><time>2026-04-21T14:33:36.999Z</time></trkpt><trkpt lat="44.022829646757884" lon="10.10050521803515"><ele>2.0</ele><time>2026-04-21T14:33:37.999Z</time></trkpt><trkpt lat="44.022700458663294" lon="10.10081686513369"><ele>2.0</ele><time>2026-04-21T14:33:38.999Z</time></trkpt><trkpt lat="44.02256998745614" lon="10.10113330107749"><ele>2.0</ele><time>2026-04-21T14:33:39.999Z</time></trkpt><trkpt lat="44.022446696378545" lon="10.101453108652551"><ele>2.5</ele><time>2026-04-21T14:33:40.999Z</time></trkpt><trkpt lat="44.022327641438665" lon="10.101771543111223"><ele>3.0</ele><time>2026-04-21T14:33:41.999Z</time></trkpt><trkpt lat="44.022214626795744" lon="10.102095131236469"><ele>2.5</ele><time>2026-04-21T14:33:42.999Z</time></trkpt><trkpt lat="44.02210852412808" lon="10.102420114765664"><ele>2.0</ele><time>2026-04-21T14:33:43.999Z</time></trkpt><trkpt lat="44.02200590696884" lon="10.10274448285049"><ele>2.0</ele><time>2026-04-21T14:33:44.999Z</time></trkpt><trkpt lat="44.021904602773986" lon="10.103069974207916"><ele>2.0</ele><time>2026-04-21T14:33:45.999Z</time></trkpt><trkpt lat="44.02180756353446" lon="10.10339686244235"><ele>2.5</ele><time>2026-04-21T14:33:46.999Z</time></trkpt><trkpt lat="44.021718305362235" lon="10.103724740659421"><ele>3.0</ele><time>2026-04-21T14:33:47.999Z</time></trkpt><trkpt lat="44.02163793518639" lon="10.104055566992297"><ele>2.5</ele><time>2026-04-21T14:33:48.999Z</time></trkpt><trkpt lat="44.021554975089025" lon="10.104388443927164"><ele>2.0</ele><time>2026-04-21T14:33:49.999Z</time></trkpt><trkpt lat="44.02147422561818" lon="10.104720082892976"><ele>3.0</ele><time>2026-04-21T14:33:50.999Z</time></trkpt><trkpt lat="44.02139807321094" lon="10.105056890208308"><ele>4.0</ele><time>2026-04-21T14:33:51.999Z</time></trkpt><trkpt lat="44.02133094708435" lon="10.10539199193136"><ele>4.0</ele><time>2026-04-21T14:33:52.999Z</time></trkpt><trkpt lat="44.021254526725706" lon="10.105733070858602"><ele>4.0</ele><time>2026-04-21T14:33:53.999Z</time></trkpt><trkpt lat="44.02117660408746" lon="10.106073507380595"><ele>4.0</ele><time>2026-04-21T14:33:54.999Z</time></trkpt><trkpt lat="44.021099306917954" lon="10.10641037009454"><ele>4.0</ele><time>2026-04-21T14:33:55.999Z</time></trkpt><trkpt lat="44.02102119336866" lon="10.106743456384537"><ele>4.0</ele><time>2026-04-21T14:33:56.999Z</time></trkpt><trkpt lat="44.02094651559879" lon="10.107083301625797"><ele>4.0</ele><time>2026-04-21T14:33:57.999Z</time></trkpt><trkpt lat="44.02087261711625" lon="10.107423751463234"><ele>3.0</ele><time>2026-04-21T14:33:58.999Z</time></trkpt><trkpt lat="44.02079695384973" lon="10.107768190446155"><ele>2.0</ele><time>2026-04-21T14:33:59.999Z</time></trkpt><trkpt lat="44.02072361465361" lon="10.108111701637736"><ele>3.0</ele><time>2026-04-21T14:34:00.999Z</time></trkpt><trkpt lat="44.02064858693373" lon="10.108458117478051"><ele>4.0</ele><time>2026-04-21T14:34:01.999Z</time></trkpt><trkpt lat="44.02057302223206" lon="10.10880550263042"><ele>4.0</ele><time>2026-04-21T14:34:02.999Z</time></trkpt><trkpt lat="44.020497100438625" lon="10.109149944872746"><ele>4.0</ele><time>2026-04-21T14:34:03.999Z</time></trkpt><trkpt lat="44.02041895798758" lon="10.109496662719511"><ele>4.0</ele><time>2026-04-21T14:34:04.999Z</time></trkpt><trkpt lat="44.02034199699295" lon="10.109841129107876"><ele>4.0</ele><time>2026-04-21T14:34:06Z</time></trkpt><trkpt lat="44.02026604539769" lon="10.110187504805973"><ele>3.5</ele><time>2026-04-21T14:34:07Z</time></trkpt><trkpt lat="44.02018960284224" lon="10.110533018756644"><ele>3.0</ele><time>2026-04-21T14:34:08Z</time></trkpt><trkpt lat="44.02011219871762" lon="10.110875627865672"><ele>3.0</ele><time>2026-04-21T14:34:09Z</time></trkpt><trkpt lat="44.02003297948935" lon="10.111213860425515"><ele>3.0</ele><time>2026-04-21T14:34:10Z</time></trkpt><trkpt lat="44.01995027457911" lon="10.1115499328096"><ele>3.0</ele><time>2026-04-21T14:34:11Z</time></trkpt><trkpt lat="44.019860833746485" lon="10.111880236006199"><ele>3.0</ele><time>2026-04-21T14:34:12Z</time></trkpt><trkpt lat="44.01976623685938" lon="10.112206439832821"><ele>4.0</ele><time>2026-04-21T14:34:13Z</time></trkpt><trkpt lat="44.019669741135885" lon="10.112524465050654"><ele>5.0</ele><time>2026-04-21T14:34:14Z</time></trkpt><trkpt lat="44.01956795207558" lon="10.112838941007618"><ele>5.0</ele><time>2026-04-21T14:34:15Z</time></trkpt><trkpt lat="44.019464443334364" lon="10.113147897963932"><ele>5.0</ele><time>2026-04-21T14:34:16Z</time></trkpt><trkpt lat="44.01936131951007" lon="10.113446587905887"><ele>5.0</ele><time>2026-04-21T14:34:17Z</time></trkpt><trkpt lat="44.019251375661376" lon="10.113746363707298"><ele>5.0</ele><time>2026-04-21T14:34:18Z</time></trkpt><trkpt lat="44.01913763693008" lon="10.11404508327857"><ele>4.5</ele><time>2026-04-21T14:34:19.001Z</time></trkpt><trkpt lat="44.019019401990725" lon="10.114346607707052"><ele>4.0</ele><time>2026-04-21T14:34:20.001Z</time></trkpt><trkpt lat="44.01889657160749" lon="10.114642514294456"><ele>5.0</ele><time>2026-04-21T14:34:21.001Z</time></trkpt><trkpt lat="44.01877121988672" lon="10.11493591365677"><ele>6.0</ele><time>2026-04-21T14:34:22.001Z</time></trkpt><trkpt lat="44.01864479205265" lon="10.115226205169785"><ele>6.0</ele><time>2026-04-21T14:34:23.001Z</time></trkpt><trkpt lat="44.01851314150767" lon="10.11550709368695"><ele>6.0</ele><time>2026-04-21T14:34:24.001Z</time></trkpt><trkpt lat="44.01837281119446" lon="10.11578547119883"><ele>6.5</ele><time>2026-04-21T14:34:25.001Z</time></trkpt><trkpt lat="44.018231509364085" lon="10.116063082186148"><ele>7.0</ele><time>2026-04-21T14:34:26.001Z</time></trkpt><trkpt lat="44.01809069829293" lon="10.116337769375775"><ele>7.0</ele><time>2026-04-21T14:34:27.001Z</time></trkpt><trkpt lat="44.01795134388171" lon="10.116612334653816"><ele>7.0</ele><time>2026-04-21T14:34:28.001Z</time></trkpt><trkpt lat="44.01781014072116" lon="10.116890590930513"><ele>7.0</ele><time>2026-04-21T14:34:29.001Z</time></trkpt><trkpt lat="44.01767062276334" lon="10.117170867619926"><ele>7.0</ele><time>2026-04-21T14:34:30.001Z</time></trkpt><trkpt lat="44.01752911386462" lon="10.117450477349925"><ele>7.0</ele><time>2026-04-21T14:34:31.001Z</time></trkpt><trkpt lat="44.01738549412676" lon="10.117732823914128"><ele>7.0</ele><time>2026-04-21T14:34:32.001Z</time></trkpt><trkpt lat="44.017243737067936" lon="10.118012152004107"><ele>6.5</ele><time>2026-04-21T14:34:33.001Z</time></trkpt><trkpt lat="44.01710046881792" lon="10.118294219637749"><ele>6.0</ele><time>2026-04-21T14:34:34.001Z</time></trkpt><trkpt lat="44.01695968818705" lon="10.118577128330703"><ele>6.0</ele><time>2026-04-21T14:34:35.001Z</time></trkpt><trkpt lat="44.01681793701526" lon="10.118866405056773"><ele>6.0</ele><time>2026-04-21T14:34:36.001Z</time></trkpt><trkpt lat="44.01667436806475" lon="10.119163112668883"><ele>7.5</ele><time>2026-04-21T14:34:37.001Z</time></trkpt><trkpt lat="44.01652929772343" lon="10.119466749320756"><ele>9.0</ele><time>2026-04-21T14:34:38.001Z</time></trkpt><trkpt lat="44.0163868512559" lon="10.119769042872027"><ele>8.0</ele><time>2026-04-21T14:34:39.001Z</time></trkpt><trkpt lat="44.01623850500376" lon="10.120076578064273"><ele>7.0</ele><time>2026-04-21T14:34:40.001Z</time></trkpt><trkpt lat="44.01609014389305" lon="10.12038136612723"><ele>7.0</ele><time>2026-04-21T14:34:41.001Z</time></trkpt><trkpt lat="44.015940225216994" lon="10.120691258965671"><ele>7.0</ele><time>2026-04-21T14:34:42.001Z</time></trkpt><trkpt lat="44.0157898634834" lon="10.12100056559456"><ele>5.0</ele><time>2026-04-21T14:34:43.001Z</time></trkpt><trkpt lat="44.01563909579321" lon="10.121304331978132"><ele>3.0</ele><time>2026-04-21T14:34:44.001Z</time></trkpt><trkpt lat="44.01548978328271" lon="10.121601634854024"><ele>3.0</ele><time>2026-04-21T14:34:45.001Z</time></trkpt><trkpt lat="44.01533862148854" lon="10.121897001965667"><ele>3.0</ele><time>2026-04-21T14:34:46.001Z</time></trkpt><trkpt lat="44.01519149353824" lon="10.122193006646825"><ele>2.5</ele><time>2026-04-21T14:34:47.001Z</time></trkpt><trkpt lat="44.01503796601815" lon="10.122488084143336"><ele>2.0</ele><time>2026-04-21T14:34:48.001Z</time></trkpt><trkpt lat="44.0148812246352" lon="10.122774779243612"><ele>2.0</ele><time>2026-04-21T14:34:49.001Z</time></trkpt><trkpt lat="44.01472824449933" lon="10.123065298382151"><ele>2.0</ele><time>2026-04-21T14:34:50.001Z</time></trkpt><trkpt lat="44.014572554057644" lon="10.123356357813696"><ele>2.5</ele><time>2026-04-21T14:34:51.001Z</time></trkpt><trkpt lat="44.01442017227141" lon="10.123646608875381"><ele>3.0</ele><time>2026-04-21T14:34:52.001Z</time></trkpt><trkpt lat="44.01426819351604" lon="10.123940663311311"><ele>2.5</ele><time>2026-04-21T14:34:53.001Z</time></trkpt><trkpt lat="44.014121574346404" lon="10.124234211599147"><ele>2.0</ele><time>2026-04-21T14:34:54.001Z</time></trkpt><trkpt lat="44.01397626162292" lon="10.124524692454962"><ele>2.0</ele><time>2026-04-21T14:34:55.001Z</time></trkpt><trkpt lat="44.013829081739225" lon="10.1248181134408"><ele>2.0</ele><time>2026-04-21T14:34:56.001Z</time></trkpt><trkpt lat="44.01368309413696" lon="10.125103610531808"><ele>2.0</ele><time>2026-04-21T14:34:57.001Z</time></trkpt><trkpt lat="44.013533821904446" lon="10.125410442120844"><ele>2.0</ele><time>2026-04-21T14:34:58.001Z</time></trkpt><trkpt lat="44.013390833765634" lon="10.125682925576829"><ele>2.0</ele><time>2026-04-21T14:34:59.001Z</time></trkpt><trkpt lat="44.01324359699985" lon="10.125966546829003"><ele>2.0</ele><time>2026-04-21T14:35:00.001Z</time></trkpt><trkpt lat="44.01309670715608" lon="10.126256473181469"><ele>2.0</ele><time>2026-04-21T14:35:01.001Z</time></trkpt><trkpt lat="44.01295546417243" lon="10.126539645452869"><ele>2.0</ele><time>2026-04-21T14:35:02.001Z</time></trkpt><trkpt lat="44.012808951167464" lon="10.126822314209033"><ele>2.5</ele><time>2026-04-21T14:35:03.001Z</time></trkpt><trkpt lat="44.012664731195954" lon="10.127103986438946"><ele>3.0</ele><time>2026-04-21T14:35:04.001Z</time></trkpt><trkpt lat="44.01251954797434" lon="10.127380083083976"><ele>2.0</ele><time>2026-04-21T14:35:05.001Z</time></trkpt><trkpt lat="44.01236356367464" lon="10.127661657322818"><ele>1.0</ele><time>2026-04-21T14:35:06.001Z</time></trkpt><trkpt lat="44.012210775537554" lon="10.12793125661315"><ele>1.0</ele><time>2026-04-21T14:35:07.001Z</time></trkpt><trkpt lat="44.01205454279664" lon="10.128206782838706"><ele>1.0</ele><time>2026-04-21T14:35:08.001Z</time></trkpt><trkpt lat="44.011893835787596" lon="10.128472243340774"><ele>2.0</ele><time>2026-04-21T14:35:09.001Z</time></trkpt><trkpt lat="44.01172905164427" lon="10.128736483215372"><ele>3.0</ele><time>2026-04-21T14:35:10.001Z</time></trkpt><trkpt lat="44.01155876283844" lon="10.12900180639235"><ele>3.5</ele><time>2026-04-21T14:35:11.001Z</time></trkpt><trkpt lat="44.0113915834875" lon="10.129262153124735"><ele>4.0</ele><time>2026-04-21T14:35:12.001Z</time></trkpt><trkpt lat="44.01121741191955" lon="10.129522473900417"><ele>4.0</ele><time>2026-04-21T14:35:13.001Z</time></trkpt><trkpt lat="44.01103941916717" lon="10.129774583824853"><ele>4.0</ele><time>2026-04-21T14:35:14.001Z</time></trkpt><trkpt lat="44.01086360848636" lon="10.130027950070957"><ele>3.5</ele><time>2026-04-21T14:35:15.001Z</time></trkpt><trkpt lat="44.0106826526229" lon="10.130279823092957"><ele>3.0</ele><time>2026-04-21T14:35:16.001Z</time></trkpt><trkpt lat="44.01050138517857" lon="10.13053813353412"><ele>3.5</ele><time>2026-04-21T14:35:17.001Z</time></trkpt><trkpt lat="44.01032226435579" lon="10.130798439717136"><ele>4.0</ele><time>2026-04-21T14:35:18.001Z</time></trkpt><trkpt lat="44.010144484860106" lon="10.131058245502985"><ele>3.0</ele><time>2026-04-21T14:35:19.001Z</time></trkpt><trkpt lat="44.00996481084745" lon="10.131315285162174"><ele>2.0</ele><time>2026-04-21T14:35:20.001Z</time></trkpt><trkpt lat="44.009784573935235" lon="10.131572669785013"><ele>2.0</ele><time>2026-04-21T14:35:21.001Z</time></trkpt><trkpt lat="44.00960732720161" lon="10.131833315656172"><ele>2.0</ele><time>2026-04-21T14:35:22.001Z</time></trkpt><trkpt lat="44.00943004500506" lon="10.1320926700837"><ele>2.0</ele><time>2026-04-21T14:35:23.001Z</time></trkpt><trkpt lat="44.00925082262677" lon="10.132356887766987"><ele>2.0</ele><time>2026-04-21T14:35:24.001Z</time></trkpt><trkpt lat="44.009069047304564" lon="10.132618781778692"><ele>2.0</ele><time>2026-04-21T14:35:25.001Z</time></trkpt><trkpt lat="44.00888903299324" lon="10.132886408578447"><ele>2.0</ele><time>2026-04-21T14:35:26.001Z</time></trkpt><trkpt lat="44.00871072704319" lon="10.13314947348102"><ele>2.0</ele><time>2026-04-21T14:35:27.001Z</time></trkpt><trkpt lat="44.008527575362386" lon="10.133417690403329"><ele>2.0</ele><time>2026-04-21T14:35:28.001Z</time></trkpt><trkpt lat="44.00834082747491" lon="10.133683281456658"><ele>2.0</ele><time>2026-04-21T14:35:29.001Z</time></trkpt><trkpt lat="44.0081551793282" lon="10.133949943841241"><ele>2.0</ele><time>2026-04-21T14:35:30.001Z</time></trkpt><trkpt lat="44.00796559296125" lon="10.134217983082282"><ele>2.5</ele><time>2026-04-21T14:35:31.001Z</time></trkpt><trkpt lat="44.007779391354596" lon="10.13448391836671"><ele>3.0</ele><time>2026-04-21T14:35:32.001Z</time></trkpt><trkpt lat="44.00759622436824" lon="10.134753473285885"><ele>2.5</ele><time>2026-04-21T14:35:33.001Z</time></trkpt><trkpt lat="44.00741135125831" lon="10.135022233949567"><ele>2.0</ele><time>2026-04-21T14:35:34.001Z</time></trkpt><trkpt lat="44.00722348588439" lon="10.135292723263934"><ele>2.0</ele><time>2026-04-21T14:35:35.001Z</time></trkpt><trkpt lat="44.007039674462064" lon="10.135558001031065"><ele>2.0</ele><time>2026-04-21T14:35:36.001Z</time></trkpt><trkpt lat="44.00685265524295" lon="10.135828808931656"><ele>2.0</ele><time>2026-04-21T14:35:37.001Z</time></trkpt><trkpt lat="44.006666742722935" lon="10.136096506671793"><ele>2.0</ele><time>2026-04-21T14:35:38.001Z</time></trkpt><trkpt lat="44.00648495171028" lon="10.13636412502547"><ele>2.5</ele><time>2026-04-21T14:35:39.001Z</time></trkpt><trkpt lat="44.00630117004163" lon="10.136627728914577"><ele>3.0</ele><time>2026-04-21T14:35:40.001Z</time></trkpt><trkpt lat="44.00611994732589" lon="10.136897030445361"><ele>3.0</ele><time>2026-04-21T14:35:41.001Z</time></trkpt><trkpt lat="44.00593497247162" lon="10.137163479650148"><ele>3.0</ele><time>2026-04-21T14:35:42.001Z</time></trkpt><trkpt lat="44.00575145629384" lon="10.137427757874969"><ele>3.0</ele><time>2026-04-21T14:35:43.001Z</time></trkpt><trkpt lat="44.00556845160768" lon="10.137692245081906"><ele>3.0</ele><time>2026-04-21T14:35:44.001Z</time></trkpt><trkpt lat="44.00538818312185" lon="10.137957729993003"><ele>3.0</ele><time>2026-04-21T14:35:45.001Z</time></trkpt><trkpt lat="44.00520525203933" lon="10.138222402288294"><ele>3.0</ele><time>2026-04-21T14:35:46.001Z</time></trkpt><trkpt lat="44.00502369454018" lon="10.138485138310063"><ele>2.0</ele><time>2026-04-21T14:35:47.001Z</time></trkpt><trkpt lat="44.0048397531086" lon="10.138751630313202"><ele>1.0</ele><time>2026-04-21T14:35:48.001Z</time></trkpt><trkpt lat="44.00465851933994" lon="10.139019436213378"><ele>0.5</ele><time>2026-04-21T14:35:49.001Z</time></trkpt><trkpt lat="44.00448239078735" lon="10.139285063294318"><ele>0.0</ele><time>2026-04-21T14:35:50.001Z</time></trkpt><trkpt lat="44.00428257232488" lon="10.139554798398688"><ele>0.0</ele><time>2026-04-21T14:35:51.001Z</time></trkpt><trkpt lat="44.00409528979084" lon="10.13982597624268"><ele>0.0</ele><time>2026-04-21T14:35:52.001Z</time></trkpt><trkpt lat="44.00391297269328" lon="10.140092050528803"><ele>1.5</ele><time>2026-04-21T14:35:53.001Z</time></trkpt><trkpt lat="44.00372468174394" lon="10.140357811435308"><ele>3.0</ele><time>2026-04-21T14:35:54.001Z</time></trkpt><trkpt lat="44.003538775963534" lon="10.140629055274408"><ele>3.0</ele><time>2026-04-21T14:35:55.001Z</time></trkpt><trkpt lat="44.00334891928414" lon="10.140892098928868"><ele>3.0</ele><time>2026-04-21T14:35:56.001Z</time></trkpt><trkpt lat="44.00316069472782" lon="10.141159012193917"><ele>2.5</ele><time>2026-04-21T14:35:57.001Z</time></trkpt><trkpt lat="44.00297368479548" lon="10.141428290307903"><ele>2.0</ele><time>2026-04-21T14:35:58.001Z</time></trkpt><trkpt lat="44.00278760814654" lon="10.141695832737993"><ele>2.0</ele><time>2026-04-21T14:35:59.001Z</time></trkpt><trkpt lat="44.00260312449126" lon="10.141965568702057"><ele>2.0</ele><time>2026-04-21T14:36:00.001Z</time></trkpt><trkpt lat="44.00242038185497" lon="10.14223850787158"><ele>1.5</ele><time>2026-04-21T14:36:01.001Z</time></trkpt><trkpt lat="44.00223949042905" lon="10.142505415330595"><ele>1.0</ele><time>2026-04-21T14:36:02.001Z</time></trkpt><trkpt lat="44.002056625303425" lon="10.142778069207754"><ele>1.0</ele><time>2026-04-21T14:36:03.001Z</time></trkpt><trkpt lat="44.001873190944174" lon="10.143042078472298"><ele>1.0</ele><time>2026-04-21T14:36:04.001Z</time></trkpt><trkpt lat="44.00168815608479" lon="10.14330416513348"><ele>1.5</ele><time>2026-04-21T14:36:05.001Z</time></trkpt><trkpt lat="44.00149582512029" lon="10.143552372708905"><ele>2.0</ele><time>2026-04-21T14:36:06.001Z</time></trkpt><trkpt lat="44.00129850290472" lon="10.143794602309622"><ele>2.0</ele><time>2026-04-21T14:36:07.001Z</time></trkpt><trkpt lat="44.00109746043736" lon="10.144026497019208"><ele>2.0</ele><time>2026-04-21T14:36:08.001Z</time></trkpt><trkpt lat="44.00089139929239" lon="10.144255292644624"><ele>2.0</ele><time>2026-04-21T14:36:09.001Z</time></trkpt><trkpt lat="44.000683941600414" lon="10.144468683142644"><ele>2.0</ele><time>2026-04-21T14:36:10.001Z</time></trkpt><trkpt lat="44.00047658654713" lon="10.144679415413785"><ele>2.0</ele><time>2026-04-21T14:36:11.001Z</time></trkpt><trkpt lat="44.00026191656625" lon="10.144876691548301"><ele>2.0</ele><time>2026-04-21T14:36:12.001Z</time></trkpt><trkpt lat="44.00004215494981" lon="10.145073890519926"><ele>2.5</ele><time>2026-04-21T14:36:13.001Z</time></trkpt><trkpt lat="43.99983165809227" lon="10.145263091292012"><ele>3.0</ele><time>2026-04-21T14:36:14.001Z</time></trkpt><trkpt lat="43.999618053617716" lon="10.145449449608384"><ele>3.0</ele><time>2026-04-21T14:36:15.001Z</time></trkpt><trkpt lat="43.999401631261314" lon="10.145623078835765"><ele>3.0</ele><time>2026-04-21T14:36:16.001Z</time></trkpt><trkpt lat="43.9991828575945" lon="10.14579797509507"><ele>3.0</ele><time>2026-04-21T14:36:17.001Z</time></trkpt><trkpt lat="43.99895767256098" lon="10.145965738184312"><ele>3.0</ele><time>2026-04-21T14:36:18.001Z</time></trkpt><trkpt lat="43.9987292490407" lon="10.146110049182534"><ele>3.0</ele><time>2026-04-21T14:36:19.001Z</time></trkpt><trkpt lat="43.99849827195138" lon="10.146257234577895"><ele>3.0</ele><time>2026-04-21T14:36:20.001Z</time></trkpt><trkpt lat="43.99826635838037" lon="10.146406754499196"><ele>3.0</ele><time>2026-04-21T14:36:21.001Z</time></trkpt><trkpt lat="43.998035192660915" lon="10.146555870453405"><ele>3.0</ele><time>2026-04-21T14:36:22.001Z</time></trkpt><trkpt lat="43.997805698017764" lon="10.146702126615182"><ele>3.0</ele><time>2026-04-21T14:36:23.001Z</time></trkpt><trkpt lat="43.99757554937828" lon="10.146848873773003"><ele>3.0</ele><time>2026-04-21T14:36:24.001Z</time></trkpt><trkpt lat="43.99734697428469" lon="10.146994567263565"><ele>3.5</ele><time>2026-04-21T14:36:25.001Z</time></trkpt><trkpt lat="43.99711679202049" lon="10.147145033209226"><ele>4.0</ele><time>2026-04-21T14:36:26.001Z</time></trkpt><trkpt lat="43.99688779589896" lon="10.147291766496064"><ele>3.5</ele><time>2026-04-21T14:36:27.001Z</time></trkpt><trkpt lat="43.99665789480179" lon="10.147437737456404"><ele>3.0</ele><time>2026-04-21T14:36:28.001Z</time></trkpt><trkpt lat="43.996427075213035" lon="10.147585233642246"><ele>3.0</ele><time>2026-04-21T14:36:29.001Z</time></trkpt><trkpt lat="43.9961954364786" lon="10.147734175255428"><ele>3.0</ele><time>2026-04-21T14:36:30.001Z</time></trkpt><trkpt lat="43.99596330826685" lon="10.147885193957213"><ele>3.0</ele><time>2026-04-21T14:36:31.001Z</time></trkpt><trkpt lat="43.99572725240863" lon="10.148038773637008"><ele>3.0</ele><time>2026-04-21T14:36:32.001Z</time></trkpt><trkpt lat="43.995489637162976" lon="10.148190947904704"><ele>3.5</ele><time>2026-04-21T14:36:33.001Z</time></trkpt><trkpt lat="43.995250196872334" lon="10.148343029796512"><ele>4.0</ele><time>2026-04-21T14:36:34.001Z</time></trkpt><trkpt lat="43.9950087117161" lon="10.148499809982564"><ele>4.0</ele><time>2026-04-21T14:36:35.001Z</time></trkpt><trkpt lat="43.99476508306976" lon="10.148653717332646"><ele>4.0</ele><time>2026-04-21T14:36:36.001Z</time></trkpt><trkpt lat="43.99452410334389" lon="10.148814538179419"><ele>4.0</ele><time>2026-04-21T14:36:37.001Z</time></trkpt><trkpt lat="43.99428386152169" lon="10.14897263003268"><ele>4.0</ele><time>2026-04-21T14:36:38.001Z</time></trkpt><trkpt lat="43.994045172162984" lon="10.14913128087594"><ele>4.5</ele><time>2026-04-21T14:36:39.001Z</time></trkpt><trkpt lat="43.993809486431914" lon="10.14929560095388"><ele>5.0</ele><time>2026-04-21T14:36:40.001Z</time></trkpt><trkpt lat="43.993572873430274" lon="10.149465944584582"><ele>5.0</ele><time>2026-04-21T14:36:41.001Z</time></trkpt><trkpt lat="43.99334107763236" lon="10.149642372309314"><ele>5.0</ele><time>2026-04-21T14:36:42.001Z</time></trkpt><trkpt lat="43.99311146551817" lon="10.149825127742096"><ele>4.5</ele><time>2026-04-21T14:36:43.001Z</time></trkpt><trkpt lat="43.99288527050011" lon="10.150016094636365"><ele>4.0</ele><time>2026-04-21T14:36:44.001Z</time></trkpt><trkpt lat="43.992659367747294" lon="10.150216974544264"><ele>4.5</ele><time>2026-04-21T14:36:45.001Z</time></trkpt><trkpt lat="43.992435432874174" lon="10.150415603854485"><ele>5.0</ele><time>2026-04-21T14:36:46.001Z</time></trkpt><trkpt lat="43.992213440466855" lon="10.150620843210838"><ele>4.5</ele><time>2026-04-21T14:36:47.001Z</time></trkpt><trkpt lat="43.99199567995882" lon="10.150829482362303"><ele>4.0</ele><time>2026-04-21T14:36:48.001Z</time></trkpt><trkpt lat="43.991780217031604" lon="10.151048991737229"><ele>3.5</ele><time>2026-04-21T14:36:49.001Z</time></trkpt><trkpt lat="43.99157025710311" lon="10.151273330442699"><ele>3.0</ele><time>2026-04-21T14:36:50.001Z</time></trkpt><trkpt lat="43.991364650618735" lon="10.151501552525419"><ele>3.5</ele><time>2026-04-21T14:36:51.001Z</time></trkpt><trkpt lat="43.99116215981085" lon="10.151740129805997"><ele>4.0</ele><time>2026-04-21T14:36:52.001Z</time></trkpt><trkpt lat="43.990964896490865" lon="10.151980419100449"><ele>4.0</ele><time>2026-04-21T14:36:53.001Z</time></trkpt><trkpt lat="43.9907689301175" lon="10.15222744989758"><ele>4.0</ele><time>2026-04-21T14:36:54.001Z</time></trkpt><trkpt lat="43.99057865166216" lon="10.152468561420198"><ele>4.0</ele><time>2026-04-21T14:36:55.001Z</time></trkpt><trkpt lat="43.99038971459383" lon="10.152721070006695"><ele>4.0</ele><time>2026-04-21T14:36:56.001Z</time></trkpt><trkpt lat="43.99020633142991" lon="10.152983188374849"><ele>3.5</ele><time>2026-04-21T14:36:57.001Z</time></trkpt><trkpt lat="43.99002454248196" lon="10.153244315354918"><ele>3.0</ele><time>2026-04-21T14:36:58.001Z</time></trkpt><trkpt lat="43.98984485235875" lon="10.153509632081546"><ele>2.5</ele><time>2026-04-21T14:36:59.001Z</time></trkpt><trkpt lat="43.989664754460264" lon="10.153769494797258"><ele>2.0</ele><time>2026-04-21T14:37:00.001Z</time></trkpt><trkpt lat="43.989483142227755" lon="10.154027052967468"><ele>2.0</ele><time>2026-04-21T14:37:01.001Z</time></trkpt><trkpt lat="43.98930093759066" lon="10.15428611313222"><ele>2.0</ele><time>2026-04-21T14:37:02.001Z</time></trkpt><trkpt lat="43.98912051848107" lon="10.154545565049412"><ele>2.0</ele><time>2026-04-21T14:37:03.001Z</time></trkpt><trkpt lat="43.988939471840794" lon="10.154803655053094"><ele>2.0</ele><time>2026-04-21T14:37:04.001Z</time></trkpt><trkpt lat="43.988757828757414" lon="10.155060752591442"><ele>1.5</ele><time>2026-04-21T14:37:05.001Z</time></trkpt><trkpt lat="43.98857492050077" lon="10.155318505376455"><ele>1.0</ele><time>2026-04-21T14:37:06.001Z</time></trkpt><trkpt lat="43.988393318407304" lon="10.15557741339698"><ele>1.0</ele><time>2026-04-21T14:37:07.001Z</time></trkpt><trkpt lat="43.98821221425119" lon="10.155834285187346"><ele>1.0</ele><time>2026-04-21T14:37:08.001Z</time></trkpt><trkpt lat="43.988031301820634" lon="10.156098099424401"><ele>1.0</ele><time>2026-04-21T14:37:09.001Z</time></trkpt><trkpt lat="43.98785205928087" lon="10.156361741293573"><ele>1.0</ele><time>2026-04-21T14:37:10.001Z</time></trkpt><trkpt lat="43.98767090061558" lon="10.15662660106259"><ele>1.5</ele><time>2026-04-21T14:37:11.001Z</time></trkpt><trkpt lat="43.98749052062057" lon="10.156890159220918"><ele>2.0</ele><time>2026-04-21T14:37:12.001Z</time></trkpt><trkpt lat="43.98730864971225" lon="10.15715117127495"><ele>1.0</ele><time>2026-04-21T14:37:13.001Z</time></trkpt><trkpt lat="43.98712546546275" lon="10.15741337753805"><ele>0.0</ele><time>2026-04-21T14:37:14.001Z</time></trkpt><trkpt lat="43.98694231681033" lon="10.157678874327011"><ele>0.0</ele><time>2026-04-21T14:37:15.001Z</time></trkpt><trkpt lat="43.98675924429852" lon="10.15794386072074"><ele>0.0</ele><time>2026-04-21T14:37:16.001Z</time></trkpt><trkpt lat="43.98657804463105" lon="10.158208328032508"><ele>0.5</ele><time>2026-04-21T14:37:17.001Z</time></trkpt><trkpt lat="43.986395540503" lon="10.1584731709222"><ele>1.0</ele><time>2026-04-21T14:37:18.001Z</time></trkpt><trkpt lat="43.98621131112665" lon="10.158733201955103"><ele>1.0</ele><time>2026-04-21T14:37:19.001Z</time></trkpt><trkpt lat="43.98602946593549" lon="10.158990202276335"><ele>1.0</ele><time>2026-04-21T14:37:20.001Z</time></trkpt><trkpt lat="43.98584293904483" lon="10.159254735950563"><ele>1.0</ele><time>2026-04-21T14:37:21.001Z</time></trkpt><trkpt lat="43.98566320227254" lon="10.159520724895595"><ele>1.0</ele><time>2026-04-21T14:37:22.001Z</time></trkpt><trkpt lat="43.98547992594876" lon="10.159781578678095"><ele>0.5</ele><time>2026-04-21T14:37:23.001Z</time></trkpt><trkpt lat="43.98530130969009" lon="10.160050425909604"><ele>0.0</ele><time>2026-04-21T14:37:24.001Z</time></trkpt><trkpt lat="43.98511935303006" lon="10.160306746421206"><ele>0.0</ele><time>2026-04-21T14:37:25.001Z</time></trkpt><trkpt lat="43.984937459708306" lon="10.160564877951886"><ele>0.0</ele><time>2026-04-21T14:37:26.001Z</time></trkpt><trkpt lat="43.98475839649156" lon="10.160832459537913"><ele>0.0</ele><time>2026-04-21T14:37:27.001Z</time></trkpt><trkpt lat="43.98457943258485" lon="10.161098544236559"><ele>0.0</ele><time>2026-04-21T14:37:28.001Z</time></trkpt><trkpt lat="43.984402184422095" lon="10.161352610928065"><ele>0.0</ele><time>2026-04-21T14:37:29.001Z</time></trkpt><trkpt lat="43.984226439029484" lon="10.161617594629757"><ele>0.0</ele><time>2026-04-21T14:37:30.001Z</time></trkpt><trkpt lat="43.98404570544715" lon="10.161867792831314"><ele>1.0</ele><time>2026-04-21T14:37:31.001Z</time></trkpt><trkpt lat="43.983871844857795" lon="10.162124783364863"><ele>2.0</ele><time>2026-04-21T14:37:32.001Z</time></trkpt><trkpt lat="43.98369592344088" lon="10.162380000237748"><ele>2.0</ele><time>2026-04-21T14:37:33.001Z</time></trkpt><trkpt lat="43.98352050366843" lon="10.162635364505732"><ele>2.0</ele><time>2026-04-21T14:37:34.001Z</time></trkpt><trkpt lat="43.98334607946472" lon="10.162890027712974"><ele>2.0</ele><time>2026-04-21T14:37:35.001Z</time></trkpt><trkpt lat="43.983173295689035" lon="10.163150745496473"><ele>2.0</ele><time>2026-04-21T14:37:36.001Z</time></trkpt><trkpt lat="43.98299789979612" lon="10.16339954511342"><ele>2.0</ele><time>2026-04-21T14:37:37.001Z</time></trkpt><trkpt lat="43.982820984486054" lon="10.163646321168475"><ele>2.0</ele><time>2026-04-21T14:37:38.001Z</time></trkpt><trkpt lat="43.98264829891612" lon="10.163899803893155"><ele>3.5</ele><time>2026-04-21T14:37:39.001Z</time></trkpt><trkpt lat="43.9824741298558" lon="10.164160331958758"><ele>5.0</ele><time>2026-04-21T14:37:40.001Z</time></trkpt><trkpt lat="43.982295250968896" lon="10.164421846564599"><ele>5.0</ele><time>2026-04-21T14:37:41.001Z</time></trkpt><trkpt lat="43.982112053225585" lon="10.164674130797389"><ele>5.0</ele><time>2026-04-21T14:37:42.001Z</time></trkpt><trkpt lat="43.98193693674946" lon="10.164928355240113"><ele>4.5</ele><time>2026-04-21T14:37:43.001Z</time></trkpt><trkpt lat="43.98175534322685" lon="10.16518240776976"><ele>4.0</ele><time>2026-04-21T14:37:44.001Z</time></trkpt><trkpt lat="43.98157564486868" lon="10.165443841141954"><ele>4.0</ele><time>2026-04-21T14:37:45.001Z</time></trkpt><trkpt lat="43.98139504299153" lon="10.16570420193686"><ele>4.0</ele><time>2026-04-21T14:37:46.001Z</time></trkpt><trkpt lat="43.98121410757318" lon="10.16596309809902"><ele>4.0</ele><time>2026-04-21T14:37:47.001Z</time></trkpt><trkpt lat="43.98102997255655" lon="10.16622320708018"><ele>4.0</ele><time>2026-04-21T14:37:48.001Z</time></trkpt><trkpt lat="43.98084755407739" lon="10.166481658890088"><ele>3.5</ele><time>2026-04-21T14:37:49.001Z</time></trkpt><trkpt lat="43.98066852849531" lon="10.166744927983183"><ele>3.0</ele><time>2026-04-21T14:37:50.001Z</time></trkpt><trkpt lat="43.98048817648869" lon="10.167009183130865"><ele>3.0</ele><time>2026-04-21T14:37:51.001Z</time></trkpt><trkpt lat="43.980303472747565" lon="10.167275965885946"><ele>3.0</ele><time>2026-04-21T14:37:52.001Z</time></trkpt><trkpt lat="43.98012062377988" lon="10.167541063868834"><ele>2.5</ele><time>2026-04-21T14:37:53.001Z</time></trkpt><trkpt lat="43.97993630765493" lon="10.167807268868653"><ele>2.0</ele><time>2026-04-21T14:37:54.001Z</time></trkpt><trkpt lat="43.979751922819595" lon="10.168069136567615"><ele>2.0</ele><time>2026-04-21T14:37:55.001Z</time></trkpt><trkpt lat="43.97957024650607" lon="10.168342177502335"><ele>2.0</ele><time>2026-04-21T14:37:56.001Z</time></trkpt><trkpt lat="43.97938553086504" lon="10.168608962274279"><ele>2.0</ele><time>2026-04-21T14:37:57.001Z</time></trkpt><trkpt lat="43.97920046755656" lon="10.168871810645003"><ele>2.0</ele><time>2026-04-21T14:37:58.001Z</time></trkpt><trkpt lat="43.979014094303515" lon="10.16913056258429"><ele>2.5</ele><time>2026-04-21T14:37:59.001Z</time></trkpt><trkpt lat="43.978834536389996" lon="10.16939697042221"><ele>3.0</ele><time>2026-04-21T14:38:00.001Z</time></trkpt><trkpt lat="43.978652510422904" lon="10.169665913383616"><ele>3.5</ele><time>2026-04-21T14:38:01.001Z</time></trkpt><trkpt lat="43.9784697456983" lon="10.169930055477487"><ele>4.0</ele><time>2026-04-21T14:38:02.001Z</time></trkpt><trkpt lat="43.97829024450534" lon="10.170192883112763"><ele>4.0</ele><time>2026-04-21T14:38:03.001Z</time></trkpt><trkpt lat="43.9781062163924" lon="10.170458464429512"><ele>4.0</ele><time>2026-04-21T14:38:04.001Z</time></trkpt><trkpt lat="43.9779191328687" lon="10.170721018858668"><ele>3.0</ele><time>2026-04-21T14:38:05.001Z</time></trkpt><trkpt lat="43.97774293198694" lon="10.170980538543743"><ele>2.0</ele><time>2026-04-21T14:38:06.001Z</time></trkpt><trkpt lat="43.977559755923" lon="10.17124408390577"><ele>2.0</ele><time>2026-04-21T14:38:07.001Z</time></trkpt><trkpt lat="43.97737680388183" lon="10.171499872075001"><ele>2.0</ele><time>2026-04-21T14:38:08.001Z</time></trkpt><trkpt lat="43.97719526628644" lon="10.171762106202369"><ele>2.0</ele><time>2026-04-21T14:38:09.001Z</time></trkpt><trkpt lat="43.97701416259861" lon="10.172023959628211"><ele>2.0</ele><time>2026-04-21T14:38:10.001Z</time></trkpt><trkpt lat="43.97683383901955" lon="10.172283287633533"><ele>2.5</ele><time>2026-04-21T14:38:11.001Z</time></trkpt><trkpt lat="43.97665097096685" lon="10.172542621221337"><ele>3.0</ele><time>2026-04-21T14:38:12.001Z</time></trkpt><trkpt lat="43.976470633578835" lon="10.17281165658974"><ele>3.0</ele><time>2026-04-21T14:38:13.001Z</time></trkpt><trkpt lat="43.97629176302724" lon="10.17307156163655"><ele>3.0</ele><time>2026-04-21T14:38:14.001Z</time></trkpt><trkpt lat="43.97611545604548" lon="10.17333259806201"><ele>2.5</ele><time>2026-04-21T14:38:15.001Z</time></trkpt><trkpt lat="43.975934805491114" lon="10.173595006179005"><ele>2.0</ele><time>2026-04-21T14:38:16.001Z</time></trkpt><trkpt lat="43.97575653607997" lon="10.173865595093885"><ele>2.5</ele><time>2026-04-21T14:38:17.001Z</time></trkpt><trkpt lat="43.97558311550559" lon="10.174128818754655"><ele>3.0</ele><time>2026-04-21T14:38:18.001Z</time></trkpt><trkpt lat="43.97540926469316" lon="10.174395884289309"><ele>3.0</ele><time>2026-04-21T14:38:19.001Z</time></trkpt><trkpt lat="43.9752390657316" lon="10.174666493088132"><ele>3.0</ele><time>2026-04-21T14:38:20.001Z</time></trkpt><trkpt lat="43.97506861936667" lon="10.174938423231193"><ele>1.5</ele><time>2026-04-21T14:38:21.001Z</time></trkpt><trkpt lat="43.97490182735391" lon="10.175208322396454"><ele>0.0</ele><time>2026-04-21T14:38:22.001Z</time></trkpt><trkpt lat="43.97473512772474" lon="10.175483875018932"><ele>1.0</ele><time>2026-04-21T14:38:23.001Z</time></trkpt><trkpt lat="43.97456780276362" lon="10.175753513957646"><ele>2.0</ele><time>2026-04-21T14:38:24.001Z</time></trkpt><trkpt lat="43.974400797479454" lon="10.17602507586128"><ele>2.0</ele><time>2026-04-21T14:38:25.001Z</time></trkpt><trkpt lat="43.97423384193475" lon="10.176303858625625"><ele>2.0</ele><time>2026-04-21T14:38:26.001Z</time></trkpt><trkpt lat="43.97406969625307" lon="10.176581727637519"><ele>2.0</ele><time>2026-04-21T14:38:27.001Z</time></trkpt><trkpt lat="43.97390821489452" lon="10.176867053298357"><ele>2.0</ele><time>2026-04-21T14:38:28.001Z</time></trkpt><trkpt lat="43.97374977675397" lon="10.177150833500182"><ele>2.5</ele><time>2026-04-21T14:38:29.001Z</time></trkpt><trkpt lat="43.973588816139056" lon="10.177432356182761"><ele>3.0</ele><time>2026-04-21T14:38:30.001Z</time></trkpt><trkpt lat="43.97342615849745" lon="10.177714471790456"><ele>3.0</ele><time>2026-04-21T14:38:31.001Z</time></trkpt><trkpt lat="43.9732642579401" lon="10.177994915448277"><ele>3.0</ele><time>2026-04-21T14:38:32.001Z</time></trkpt><trkpt lat="43.9731043530464" lon="10.178275256871817"><ele>3.5</ele><time>2026-04-21T14:38:33.001Z</time></trkpt><trkpt lat="43.97294649413058" lon="10.178556072315514"><ele>4.0</ele><time>2026-04-21T14:38:34.001Z</time></trkpt><trkpt lat="43.97278689505473" lon="10.17883775979864"><ele>4.0</ele><time>2026-04-21T14:38:35.001Z</time></trkpt><trkpt lat="43.97262684894598" lon="10.179121327410991"><ele>4.0</ele><time>2026-04-21T14:38:36.001Z</time></trkpt><trkpt lat="43.97246767903191" lon="10.179401110138468"><ele>3.5</ele><time>2026-04-21T14:38:37.001Z</time></trkpt><trkpt lat="43.9723086712555" lon="10.179676178779394"><ele>3.0</ele><time>2026-04-21T14:38:38.001Z</time></trkpt><trkpt lat="43.972149835112354" lon="10.179952690086738"><ele>4.0</ele><time>2026-04-21T14:38:39.001Z</time></trkpt><trkpt lat="43.97199091601206" lon="10.180229667237812"><ele>5.0</ele><time>2026-04-21T14:38:40.001Z</time></trkpt><trkpt lat="43.97182998667452" lon="10.180510582300668"><ele>4.0</ele><time>2026-04-21T14:38:41.001Z</time></trkpt><trkpt lat="43.9716763691182" lon="10.180790724818783"><ele>3.0</ele><time>2026-04-21T14:38:42.001Z</time></trkpt><trkpt lat="43.97151689675018" lon="10.18107449198515"><ele>3.0</ele><time>2026-04-21T14:38:43.001Z</time></trkpt><trkpt lat="43.97135552609687" lon="10.181355708758948"><ele>3.0</ele><time>2026-04-21T14:38:44.001Z</time></trkpt><trkpt lat="43.97119315052933" lon="10.181637394750995"><ele>3.5</ele><time>2026-04-21T14:38:45.001Z</time></trkpt><trkpt lat="43.97103566488515" lon="10.181919870276973"><ele>4.0</ele><time>2026-04-21T14:38:46.001Z</time></trkpt><trkpt lat="43.97087492988203" lon="10.182201404156665"><ele>5.0</ele><time>2026-04-21T14:38:47.001Z</time></trkpt><trkpt lat="43.9707142202386" lon="10.182481061434263"><ele>6.0</ele><time>2026-04-21T14:38:48.001Z</time></trkpt><trkpt lat="43.97054987416348" lon="10.18277035798749"><ele>6.0</ele><time>2026-04-21T14:38:49.001Z</time></trkpt><trkpt lat="43.970387173895425" lon="10.183055328120187"><ele>6.0</ele><time>2026-04-21T14:38:50.001Z</time></trkpt><trkpt lat="43.9702282551121" lon="10.183331090209979"><ele>5.5</ele><time>2026-04-21T14:38:51.001Z</time></trkpt><trkpt lat="43.970074033114926" lon="10.183605407771907"><ele>5.0</ele><time>2026-04-21T14:38:52.001Z</time></trkpt><trkpt lat="43.96990701709793" lon="10.183872434034383"><ele>5.5</ele><time>2026-04-21T14:38:53.001Z</time></trkpt><trkpt lat="43.96973854616419" lon="10.184132845422086"><ele>6.0</ele><time>2026-04-21T14:38:54.001Z</time></trkpt><trkpt lat="43.969566627974686" lon="10.184391023246995"><ele>6.0</ele><time>2026-04-21T14:38:55.001Z</time></trkpt><trkpt lat="43.969396575764534" lon="10.184655883045352"><ele>6.0</ele><time>2026-04-21T14:38:56.001Z</time></trkpt><trkpt lat="43.96921650266847" lon="10.184920853005288"><ele>5.5</ele><time>2026-04-21T14:38:57.001Z</time></trkpt><trkpt lat="43.96902529531286" lon="10.18519952292017"><ele>5.0</ele><time>2026-04-21T14:38:58.001Z</time></trkpt><trkpt lat="43.96884370884717" lon="10.185459789985421"><ele>5.0</ele><time>2026-04-21T14:38:59.001Z</time></trkpt><trkpt lat="43.96866026821955" lon="10.185717178321669"><ele>5.0</ele><time>2026-04-21T14:39:00.001Z</time></trkpt><trkpt lat="43.968478260029414" lon="10.185971393255201"><ele>5.5</ele><time>2026-04-21T14:39:01.001Z</time></trkpt><trkpt lat="43.968305809095725" lon="10.186218855924519"><ele>6.0</ele><time>2026-04-21T14:39:02.001Z</time></trkpt><trkpt lat="43.96813114879568" lon="10.186448312522696"><ele>6.0</ele><time>2026-04-21T14:39:03.001Z</time></trkpt><trkpt lat="43.967946548937945" lon="10.186655675148945"><ele>6.0</ele><time>2026-04-21T14:39:04.001Z</time></trkpt><trkpt lat="43.96775363497023" lon="10.186865750432906"><ele>6.0</ele><time>2026-04-21T14:39:05.001Z</time></trkpt><trkpt lat="43.96755569506373" lon="10.187080631891504"><ele>6.0</ele><time>2026-04-21T14:39:06.001Z</time></trkpt><trkpt lat="43.96736075090177" lon="10.187306905099542"><ele>5.0</ele><time>2026-04-21T14:39:07.001Z</time></trkpt><trkpt lat="43.96716203528725" lon="10.187533625672172"><ele>4.0</ele><time>2026-04-21T14:39:08.001Z</time></trkpt><trkpt lat="43.9669650104477" lon="10.187768974836658"><ele>4.0</ele><time>2026-04-21T14:39:09.001Z</time></trkpt><trkpt lat="43.96676566994551" lon="10.188002526739"><ele>4.0</ele><time>2026-04-21T14:39:10.001Z</time></trkpt><trkpt lat="43.966563050397475" lon="10.188237901587955"><ele>3.5</ele><time>2026-04-21T14:39:11.001Z</time></trkpt><trkpt lat="43.96635625595352" lon="10.18847442053815"><ele>3.0</ele><time>2026-04-21T14:39:12.001Z</time></trkpt><trkpt lat="43.96614474406785" lon="10.188712171467145"><ele>3.0</ele><time>2026-04-21T14:39:13.001Z</time></trkpt><trkpt lat="43.96593409107809" lon="10.188949682130989"><ele>3.0</ele><time>2026-04-21T14:39:14.001Z</time></trkpt><trkpt lat="43.96572306624083" lon="10.18918159752927"><ele>2.0</ele><time>2026-04-21T14:39:15.001Z</time></trkpt><trkpt lat="43.96550986728286" lon="10.189417455811457"><ele>1.0</ele><time>2026-04-21T14:39:16.001Z</time></trkpt><trkpt lat="43.96529209852407" lon="10.18965513251005"><ele>1.0</ele><time>2026-04-21T14:39:17.001Z</time></trkpt><trkpt lat="43.96507077873551" lon="10.189894342403534"><ele>1.0</ele><time>2026-04-21T14:39:18.001Z</time></trkpt><trkpt lat="43.96484749634992" lon="10.190141451320375"><ele>0.5</ele><time>2026-04-21T14:39:19.001Z</time></trkpt><trkpt lat="43.964624328731915" lon="10.190391884313902"><ele>0.0</ele><time>2026-04-21T14:39:20.001Z</time></trkpt><trkpt lat="43.964402825154906" lon="10.190654899268415"><ele>1.0</ele><time>2026-04-21T14:39:21.001Z</time></trkpt><trkpt lat="43.96418278456065" lon="10.190912311653125"><ele>2.0</ele><time>2026-04-21T14:39:22.001Z</time></trkpt><trkpt lat="43.96396122513754" lon="10.191175494978104"><ele>2.0</ele><time>2026-04-21T14:39:23.001Z</time></trkpt><trkpt lat="43.96375715955513" lon="10.19138261401695"><ele>2.0</ele><time>2026-04-21T14:39:24.001Z</time></trkpt><trkpt lat="43.96354266661715" lon="10.191624630577936"><ele>3.0</ele><time>2026-04-21T14:39:25.001Z</time></trkpt><trkpt lat="43.963321211392916" lon="10.191858220196096"><ele>4.0</ele><time>2026-04-21T14:39:26.001Z</time></trkpt><trkpt lat="43.96310652640926" lon="10.192094774161305"><ele>4.0</ele><time>2026-04-21T14:39:27.001Z</time></trkpt><trkpt lat="43.962885389112934" lon="10.192325119560373"><ele>4.0</ele><time>2026-04-21T14:39:28.001Z</time></trkpt><trkpt lat="43.9626647077274" lon="10.192554845560654"><ele>3.0</ele><time>2026-04-21T14:39:29.001Z</time></trkpt><trkpt lat="43.962440897803134" lon="10.192776758847275"><ele>2.0</ele><time>2026-04-21T14:39:30.001Z</time></trkpt><trkpt lat="43.9622307487146" lon="10.193007828777823"><ele>2.0</ele><time>2026-04-21T14:39:31.001Z</time></trkpt><trkpt lat="43.962024129383614" lon="10.193245139995476"><ele>2.0</ele><time>2026-04-21T14:39:32.001Z</time></trkpt><trkpt lat="43.96181763006303" lon="10.193481924057766"><ele>1.5</ele><time>2026-04-21T14:39:33.001Z</time></trkpt><trkpt lat="43.961614649945034" lon="10.193714303165105"><ele>1.0</ele><time>2026-04-21T14:39:34.001Z</time></trkpt><trkpt lat="43.96141049111136" lon="10.193948947673697"><ele>1.5</ele><time>2026-04-21T14:39:35.001Z</time></trkpt><trkpt lat="43.961201382109394" lon="10.194184387615994"><ele>2.0</ele><time>2026-04-21T14:39:36.001Z</time></trkpt><trkpt lat="43.960994192017964" lon="10.194409161177047"><ele>2.0</ele><time>2026-04-21T14:39:37.001Z</time></trkpt><trkpt lat="43.96078670786888" lon="10.194645977758396"><ele>2.0</ele><time>2026-04-21T14:39:38.001Z</time></trkpt><trkpt lat="43.96057645132352" lon="10.194882123425806"><ele>2.0</ele><time>2026-04-21T14:39:39.001Z</time></trkpt><trkpt lat="43.96036949992828" lon="10.195115361265412"><ele>2.0</ele><time>2026-04-21T14:39:40.001Z</time></trkpt><trkpt lat="43.9601582743499" lon="10.19535118889809"><ele>1.5</ele><time>2026-04-21T14:39:41.001Z</time></trkpt><trkpt lat="43.95994627272245" lon="10.195581887105114"><ele>1.0</ele><time>2026-04-21T14:39:42.001Z</time></trkpt><trkpt lat="43.95973463419911" lon="10.19581888521637"><ele>2.0</ele><time>2026-04-21T14:39:43.001Z</time></trkpt><trkpt lat="43.95952263319764" lon="10.196051106398277"><ele>3.0</ele><time>2026-04-21T14:39:44.001Z</time></trkpt><trkpt lat="43.959312184808226" lon="10.196281792507333"><ele>3.5</ele><time>2026-04-21T14:39:45.001Z</time></trkpt><trkpt lat="43.95909733021575" lon="10.196517497407058"><ele>4.0</ele><time>2026-04-21T14:39:46.001Z</time></trkpt><trkpt lat="43.958882633911635" lon="10.196749648343813"><ele>4.0</ele><time>2026-04-21T14:39:47.001Z</time></trkpt><trkpt lat="43.95867622466282" lon="10.196990284447516"><ele>4.0</ele><time>2026-04-21T14:39:48.001Z</time></trkpt><trkpt lat="43.95846484535184" lon="10.197226525330171"><ele>3.5</ele><time>2026-04-21T14:39:49.001Z</time></trkpt><trkpt lat="43.95825437022355" lon="10.19746527354181"><ele>3.0</ele><time>2026-04-21T14:39:50.001Z</time></trkpt><trkpt lat="43.95804459255782" lon="10.197704928028081"><ele>3.0</ele><time>2026-04-21T14:39:51.001Z</time></trkpt><trkpt lat="43.95783301119125" lon="10.197941367735865"><ele>3.0</ele><time>2026-04-21T14:39:52.001Z</time></trkpt><trkpt lat="43.95761724365029" lon="10.198177104396473"><ele>1.5</ele><time>2026-04-21T14:39:53.001Z</time></trkpt><trkpt lat="43.9574071312951" lon="10.198413946515576"><ele>0.0</ele><time>2026-04-21T14:39:54.001Z</time></trkpt><trkpt lat="43.9571949178209" lon="10.198650073689741"><ele>0.0</ele><time>2026-04-21T14:39:55.001Z</time></trkpt><trkpt lat="43.95698517643925" lon="10.19889037265099"><ele>0.0</ele><time>2026-04-21T14:39:56.001Z</time></trkpt><trkpt lat="43.9567738583692" lon="10.19912943421147"><ele>1.5</ele><time>2026-04-21T14:39:57.001Z</time></trkpt><trkpt lat="43.95656165624747" lon="10.199359878912622"><ele>3.0</ele><time>2026-04-21T14:39:58.001Z</time></trkpt><trkpt lat="43.95635248947486" lon="10.199589585568669"><ele>3.0</ele><time>2026-04-21T14:39:59.001Z</time></trkpt><trkpt lat="43.95613991222976" lon="10.199824487875894"><ele>3.0</ele><time>2026-04-21T14:40:00.001Z</time></trkpt><trkpt lat="43.95593407100725" lon="10.200059530113496"><ele>3.5</ele><time>2026-04-21T14:40:01.001Z</time></trkpt><trkpt lat="43.95572592798966" lon="10.200296930533213"><ele>4.0</ele><time>2026-04-21T14:40:02.001Z</time></trkpt><trkpt lat="43.95551978533594" lon="10.200530680058163"><ele>3.5</ele><time>2026-04-21T14:40:03.001Z</time></trkpt><trkpt lat="43.955307856704486" lon="10.200764696359883"><ele>3.0</ele><time>2026-04-21T14:40:04.001Z</time></trkpt><trkpt lat="43.955100706629686" lon="10.200997317527285"><ele>3.0</ele><time>2026-04-21T14:40:05.001Z</time></trkpt><trkpt lat="43.95489767902571" lon="10.201229925409352"><ele>3.0</ele><time>2026-04-21T14:40:06.001Z</time></trkpt><trkpt lat="43.95468599254963" lon="10.201465572238126"><ele>2.0</ele><time>2026-04-21T14:40:07.001Z</time></trkpt><trkpt lat="43.954475320626614" lon="10.201698204225734"><ele>1.0</ele><time>2026-04-21T14:40:08.001Z</time></trkpt><trkpt lat="43.95426334218085" lon="10.201932853686973"><ele>2.0</ele><time>2026-04-21T14:40:09.001Z</time></trkpt><trkpt lat="43.95405068339793" lon="10.202167919406918"><ele>3.0</ele><time>2026-04-21T14:40:10.001Z</time></trkpt><trkpt lat="43.953838799152734" lon="10.202403814669866"><ele>3.0</ele><time>2026-04-21T14:40:11.001Z</time></trkpt><trkpt lat="43.95362721873308" lon="10.202636937095201"><ele>3.0</ele><time>2026-04-21T14:40:12.001Z</time></trkpt><trkpt lat="43.95341234442265" lon="10.202872426824232"><ele>2.5</ele><time>2026-04-21T14:40:13.001Z</time></trkpt><trkpt lat="43.953201732676625" lon="10.203105821056162"><ele>2.0</ele><time>2026-04-21T14:40:14.001Z</time></trkpt><trkpt lat="43.952991050522975" lon="10.203342610960092"><ele>2.0</ele><time>2026-04-21T14:40:15.001Z</time></trkpt><trkpt lat="43.95278033177351" lon="10.20357701102993"><ele>2.0</ele><time>2026-04-21T14:40:16.001Z</time></trkpt><trkpt lat="43.952569717825206" lon="10.20381365531966"><ele>3.0</ele><time>2026-04-21T14:40:17.001Z</time></trkpt><trkpt lat="43.952359035427385" lon="10.204054220182053"><ele>4.0</ele><time>2026-04-21T14:40:18.001Z</time></trkpt><trkpt lat="43.952150147244666" lon="10.204293340585195"><ele>4.0</ele><time>2026-04-21T14:40:19.001Z</time></trkpt><trkpt lat="43.95194139723755" lon="10.2045325258769"><ele>4.0</ele><time>2026-04-21T14:40:20.001Z</time></trkpt><trkpt lat="43.95172957446073" lon="10.20476796230256"><ele>3.0</ele><time>2026-04-21T14:40:21.001Z</time></trkpt><trkpt lat="43.951516340523256" lon="10.205004293477188"><ele>2.0</ele><time>2026-04-21T14:40:22.001Z</time></trkpt><trkpt lat="43.95130393331758" lon="10.205237228241309"><ele>2.0</ele><time>2026-04-21T14:40:23.001Z</time></trkpt><trkpt lat="43.951090399377456" lon="10.205472308656876"><ele>2.0</ele><time>2026-04-21T14:40:24.001Z</time></trkpt><trkpt lat="43.95087792556825" lon="10.205707255717696"><ele>2.0</ele><time>2026-04-21T14:40:25.001Z</time></trkpt><trkpt lat="43.95066304734156" lon="10.20594541539259"><ele>2.0</ele><time>2026-04-21T14:40:26.001Z</time></trkpt><trkpt lat="43.95044856532351" lon="10.206181229592392"><ele>2.0</ele><time>2026-04-21T14:40:27.001Z</time></trkpt><trkpt lat="43.950240059876066" lon="10.206419128137298"><ele>2.0</ele><time>2026-04-21T14:40:28.001Z</time></trkpt><trkpt lat="43.95002749800431" lon="10.206657847418928"><ele>2.0</ele><time>2026-04-21T14:40:29.001Z</time></trkpt><trkpt lat="43.94981967322101" lon="10.206896027155329"><ele>2.0</ele><time>2026-04-21T14:40:30.001Z</time></trkpt><trkpt lat="43.94961013719665" lon="10.207132511769016"><ele>2.5</ele><time>2026-04-21T14:40:31.001Z</time></trkpt><trkpt lat="43.94940025283013" lon="10.207369360544998"><ele>3.0</ele><time>2026-04-21T14:40:32.001Z</time></trkpt><trkpt lat="43.94919458277295" lon="10.20760163444493"><ele>3.0</ele><time>2026-04-21T14:40:33.001Z</time></trkpt><trkpt lat="43.948983011685044" lon="10.207839964153786"><ele>3.0</ele><time>2026-04-21T14:40:34.001Z</time></trkpt><trkpt lat="43.94877070201425" lon="10.208076512441242"><ele>2.5</ele><time>2026-04-21T14:40:35.001Z</time></trkpt><trkpt lat="43.948557211939054" lon="10.208314639853233"><ele>2.0</ele><time>2026-04-21T14:40:36.001Z</time></trkpt><trkpt lat="43.94834275993325" lon="10.208550205687965"><ele>3.0</ele><time>2026-04-21T14:40:37.001Z</time></trkpt><trkpt lat="43.948130542259754" lon="10.208787688098486"><ele>4.0</ele><time>2026-04-21T14:40:38.001Z</time></trkpt><trkpt lat="43.94791828851819" lon="10.209029121059771"><ele>4.0</ele><time>2026-04-21T14:40:39.001Z</time></trkpt><trkpt lat="43.94770684424672" lon="10.209272919036774"><ele>4.0</ele><time>2026-04-21T14:40:40.001Z</time></trkpt><trkpt lat="43.94749670818123" lon="10.209522182960125"><ele>3.5</ele><time>2026-04-21T14:40:41.001Z</time></trkpt><trkpt lat="43.94729114353334" lon="10.20976620323828"><ele>3.0</ele><time>2026-04-21T14:40:42.001Z</time></trkpt><trkpt lat="43.947084421921495" lon="10.210005771103587"><ele>3.5</ele><time>2026-04-21T14:40:43.001Z</time></trkpt><trkpt lat="43.94687743970602" lon="10.210237913344955"><ele>4.0</ele><time>2026-04-21T14:40:44.001Z</time></trkpt><trkpt lat="43.94666819041622" lon="10.210461816168756"><ele>4.5</ele><time>2026-04-21T14:40:45.001Z</time></trkpt><trkpt lat="43.946456589263455" lon="10.210675920714305"><ele>5.0</ele><time>2026-04-21T14:40:46.001Z</time></trkpt><trkpt lat="43.946241951463016" lon="10.21088387407257"><ele>5.0</ele><time>2026-04-21T14:40:47.001Z</time></trkpt><trkpt lat="43.94603307058952" lon="10.21108904422485"><ele>5.0</ele><time>2026-04-21T14:40:48.001Z</time></trkpt><trkpt lat="43.945819754342786" lon="10.211291207578293"><ele>5.0</ele><time>2026-04-21T14:40:49.001Z</time></trkpt><trkpt lat="43.94560570216215" lon="10.211483922993155"><ele>5.0</ele><time>2026-04-21T14:40:50.001Z</time></trkpt><trkpt lat="43.94538972244911" lon="10.211668925833882"><ele>5.0</ele><time>2026-04-21T14:40:51.001Z</time></trkpt><trkpt lat="43.94516892803657" lon="10.211855581722704"><ele>5.0</ele><time>2026-04-21T14:40:52.001Z</time></trkpt><trkpt lat="43.94494675961959" lon="10.212040070553266"><ele>4.0</ele><time>2026-04-21T14:40:53.001Z</time></trkpt><trkpt lat="43.944720249550706" lon="10.21222015603375"><ele>3.0</ele><time>2026-04-21T14:40:54.001Z</time></trkpt><trkpt lat="43.944492497728476" lon="10.212395780481776"><ele>3.0</ele><time>2026-04-21T14:40:55.001Z</time></trkpt><trkpt lat="43.944257540619375" lon="10.212566246276852"><ele>3.0</ele><time>2026-04-21T14:40:56.001Z</time></trkpt><trkpt lat="43.944015144230804" lon="10.212726696376686"><ele>2.0</ele><time>2026-04-21T14:40:57.001Z</time></trkpt><trkpt lat="43.94377611465243" lon="10.212879297569382"><ele>1.0</ele><time>2026-04-21T14:40:58.001Z</time></trkpt><trkpt lat="43.943546654312435" lon="10.213033676877204"><ele>3.0</ele><time>2026-04-21T14:40:59.001Z</time></trkpt><trkpt lat="43.943320034119715" lon="10.21319089045762"><ele>5.0</ele><time>2026-04-21T14:41:00.001Z</time></trkpt><trkpt lat="43.94309382149105" lon="10.213353385014408"><ele>5.0</ele><time>2026-04-21T14:41:01.001Z</time></trkpt><trkpt lat="43.94286480607917" lon="10.213515686012189"><ele>5.0</ele><time>2026-04-21T14:41:02.001Z</time></trkpt><trkpt lat="43.94263663891062" lon="10.213670878312863"><ele>5.0</ele><time>2026-04-21T14:41:03.001Z</time></trkpt><trkpt lat="43.94240748176148" lon="10.213828198951818"><ele>5.0</ele><time>2026-04-21T14:41:04.001Z</time></trkpt><trkpt lat="43.94217828276076" lon="10.213984329249643"><ele>4.5</ele><time>2026-04-21T14:41:05.001Z</time></trkpt><trkpt lat="43.941949660084006" lon="10.214143254963407"><ele>4.0</ele><time>2026-04-21T14:41:06.001Z</time></trkpt><trkpt lat="43.94171941105573" lon="10.214303364528073"><ele>3.5</ele><time>2026-04-21T14:41:07.001Z</time></trkpt><trkpt lat="43.941490447889834" lon="10.214462036316473"><ele>3.0</ele><time>2026-04-21T14:41:08.001Z</time></trkpt><trkpt lat="43.94126187540451" lon="10.21462118115782"><ele>3.0</ele><time>2026-04-21T14:41:09.001Z</time></trkpt><trkpt lat="43.941029293267704" lon="10.214783334806338"><ele>3.0</ele><time>2026-04-21T14:41:10.001Z</time></trkpt><trkpt lat="43.94080003159467" lon="10.214942246230375"><ele>2.0</ele><time>2026-04-21T14:41:11.001Z</time></trkpt><trkpt lat="43.94056586507618" lon="10.215104257907198"><ele>1.0</ele><time>2026-04-21T14:41:12.001Z</time></trkpt><trkpt lat="43.94033334402925" lon="10.215269440087093"><ele>1.0</ele><time>2026-04-21T14:41:13.001Z</time></trkpt><trkpt lat="43.94010028903884" lon="10.21543717039826"><ele>1.0</ele><time>2026-04-21T14:41:14.001Z</time></trkpt><trkpt lat="43.93986693358129" lon="10.215603774901833"><ele>1.5</ele><time>2026-04-21T14:41:15.001Z</time></trkpt><trkpt lat="43.939635812590176" lon="10.215770122155083"><ele>2.0</ele><time>2026-04-21T14:41:16.001Z</time></trkpt><trkpt lat="43.93940291527602" lon="10.215933133884938"><ele>2.0</ele><time>2026-04-21T14:41:17.001Z</time></trkpt><trkpt lat="43.939169100965266" lon="10.216097346791615"><ele>2.0</ele><time>2026-04-21T14:41:18.001Z</time></trkpt><trkpt lat="43.93893904511523" lon="10.216261321787753"><ele>2.0</ele><time>2026-04-21T14:41:19.001Z</time></trkpt><trkpt lat="43.9387072189641" lon="10.216429100806272"><ele>2.0</ele><time>2026-04-21T14:41:20.001Z</time></trkpt><trkpt lat="43.938475773857085" lon="10.21659395578388"><ele>1.5</ele><time>2026-04-21T14:41:21.001Z</time></trkpt><trkpt lat="43.93824106283376" lon="10.216755067928489"><ele>1.0</ele><time>2026-04-21T14:41:22.001Z</time></trkpt><trkpt lat="43.93801248745763" lon="10.21691612878685"><ele>1.0</ele><time>2026-04-21T14:41:23.001Z</time></trkpt><trkpt lat="43.937782447519126" lon="10.217073909644682"><ele>1.0</ele><time>2026-04-21T14:41:24.001Z</time></trkpt><trkpt lat="43.93755375569049" lon="10.217234002677383"><ele>0.5</ele><time>2026-04-21T14:41:25.001Z</time></trkpt><trkpt lat="43.93732513259773" lon="10.217393049446104"><ele>0.0</ele><time>2026-04-21T14:41:26.001Z</time></trkpt><trkpt lat="43.93709588032837" lon="10.2175551681375"><ele>0.0</ele><time>2026-04-21T14:41:27.001Z</time></trkpt><trkpt lat="43.93686716481637" lon="10.217712020324118"><ele>0.0</ele><time>2026-04-21T14:41:28.001Z</time></trkpt><trkpt lat="43.936634305098146" lon="10.21787037158304"><ele>0.0</ele><time>2026-04-21T14:41:29.001Z</time></trkpt><trkpt lat="43.936400140136826" lon="10.218032416003354"><ele>0.0</ele><time>2026-04-21T14:41:30.001Z</time></trkpt><trkpt lat="43.936164742733965" lon="10.218198408321905"><ele>0.0</ele><time>2026-04-21T14:41:31.001Z</time></trkpt><trkpt lat="43.935934167731354" lon="10.218360829930125"><ele>0.0</ele><time>2026-04-21T14:41:32.001Z</time></trkpt><trkpt lat="43.93570799686935" lon="10.218519781686162"><ele>0.5</ele><time>2026-04-21T14:41:33.001Z</time></trkpt><trkpt lat="43.935477842338614" lon="10.218680543149238"><ele>1.0</ele><time>2026-04-21T14:41:34.001Z</time></trkpt><trkpt lat="43.93524894960008" lon="10.21883711543136"><ele>0.0</ele><time>2026-04-21T14:41:35.001Z</time></trkpt><trkpt lat="43.93501980365311" lon="10.218996140274712"><ele>-1.0</ele><time>2026-04-21T14:41:36.001Z</time></trkpt><trkpt lat="43.93479429454477" lon="10.21915674304769"><ele>-1.0</ele><time>2026-04-21T14:41:37.001Z</time></trkpt><trkpt lat="43.93456355813058" lon="10.2193171991938"><ele>-1.0</ele><time>2026-04-21T14:41:38.001Z</time></trkpt><trkpt lat="43.9343397306765" lon="10.219477383908304"><ele>-1.0</ele><time>2026-04-21T14:41:39.001Z</time></trkpt><trkpt lat="43.934111088583215" lon="10.219630498561733"><ele>-1.0</ele><time>2026-04-21T14:41:40.001Z</time></trkpt><trkpt lat="43.933883528184644" lon="10.219784864401932"><ele>0.0</ele><time>2026-04-21T14:41:41.001Z</time></trkpt><trkpt lat="43.93365853789517" lon="10.219947131419854"><ele>1.0</ele><time>2026-04-21T14:41:42.001Z</time></trkpt><trkpt lat="43.93343268014016" lon="10.220110520238723"><ele>1.0</ele><time>2026-04-21T14:41:43.001Z</time></trkpt><trkpt lat="43.933206379053544" lon="10.220271475152833"><ele>1.0</ele><time>2026-04-21T14:41:44.001Z</time></trkpt><trkpt lat="43.93298058971814" lon="10.220428740403056"><ele>1.0</ele><time>2026-04-21T14:41:45.001Z</time></trkpt><trkpt lat="43.932755770123606" lon="10.220584611118777"><ele>1.0</ele><time>2026-04-21T14:41:46.001Z</time></trkpt><trkpt lat="43.932528244506834" lon="10.220743656522169"><ele>1.0</ele><time>2026-04-21T14:41:47.001Z</time></trkpt><trkpt lat="43.932302062066164" lon="10.22090276138967"><ele>1.0</ele><time>2026-04-21T14:41:48.001Z</time></trkpt><trkpt lat="43.93207766250417" lon="10.22106153175537"><ele>1.0</ele><time>2026-04-21T14:41:49.001Z</time></trkpt><trkpt lat="43.93184932593819" lon="10.221219792563907"><ele>1.0</ele><time>2026-04-21T14:41:50.001Z</time></trkpt><trkpt lat="43.93161981603342" lon="10.22137629574474"><ele>1.5</ele><time>2026-04-21T14:41:51.001Z</time></trkpt><trkpt lat="43.93139097759996" lon="10.221531042091147"><ele>2.0</ele><time>2026-04-21T14:41:52.001Z</time></trkpt><trkpt lat="43.931162334185444" lon="10.221688713171707"><ele>2.0</ele><time>2026-04-21T14:41:53.001Z</time></trkpt><trkpt lat="43.93093466551983" lon="10.22185064053171"><ele>2.0</ele><time>2026-04-21T14:41:54.001Z</time></trkpt><trkpt lat="43.930709173335075" lon="10.222013421105881"><ele>2.0</ele><time>2026-04-21T14:41:55.001Z</time></trkpt><trkpt lat="43.930476115670395" lon="10.222176306073216"><ele>2.0</ele><time>2026-04-21T14:41:56.001Z</time></trkpt><trkpt lat="43.93025095266616" lon="10.222335218366016"><ele>2.0</ele><time>2026-04-21T14:41:57.001Z</time></trkpt><trkpt lat="43.93002264205254" lon="10.22249795703467"><ele>2.0</ele><time>2026-04-21T14:41:58.001Z</time></trkpt><trkpt lat="43.92979383029032" lon="10.222659651637473"><ele>2.0</ele><time>2026-04-21T14:41:59.001Z</time></trkpt><trkpt lat="43.92956767460571" lon="10.222821102058369"><ele>2.0</ele><time>2026-04-21T14:42:00.001Z</time></trkpt><trkpt lat="43.92933955036155" lon="10.222977379684504"><ele>2.0</ele><time>2026-04-21T14:42:01.001Z</time></trkpt><trkpt lat="43.929111004411304" lon="10.223133988857906"><ele>2.0</ele><time>2026-04-21T14:42:02.001Z</time></trkpt><trkpt lat="43.928882683063" lon="10.223293433326168"><ele>2.0</ele><time>2026-04-21T14:42:03.001Z</time></trkpt><trkpt lat="43.928652513054075" lon="10.223454789586288"><ele>2.0</ele><time>2026-04-21T14:42:04.001Z</time></trkpt><trkpt lat="43.92842510773223" lon="10.223612527028301"><ele>2.5</ele><time>2026-04-21T14:42:05.001Z</time></trkpt><trkpt lat="43.92819700192721" lon="10.223777748262899"><ele>3.0</ele><time>2026-04-21T14:42:06.001Z</time></trkpt><trkpt lat="43.927970652538534" lon="10.223939299285814"><ele>2.5</ele><time>2026-04-21T14:42:07.001Z</time></trkpt><trkpt lat="43.92774168151158" lon="10.22410487582408"><ele>2.0</ele><time>2026-04-21T14:42:08.001Z</time></trkpt><trkpt lat="43.927514005913544" lon="10.224266458142338"><ele>1.5</ele><time>2026-04-21T14:42:09.001Z</time></trkpt><trkpt lat="43.92728617375765" lon="10.224431141838387"><ele>1.0</ele><time>2026-04-21T14:42:10.001Z</time></trkpt><trkpt lat="43.92706094008013" lon="10.224593760832548"><ele>1.0</ele><time>2026-04-21T14:42:11.001Z</time></trkpt><trkpt lat="43.92683672115915" lon="10.224760544990378"><ele>1.0</ele><time>2026-04-21T14:42:12.001Z</time></trkpt><trkpt lat="43.926614520426355" lon="10.224927994199199"><ele>2.0</ele><time>2026-04-21T14:42:13.001Z</time></trkpt><trkpt lat="43.926391194057196" lon="10.225100472185133"><ele>3.0</ele><time>2026-04-21T14:42:14.001Z</time></trkpt><trkpt lat="43.92617392413564" lon="10.225265444102769"><ele>3.0</ele><time>2026-04-21T14:42:15.001Z</time></trkpt><trkpt lat="43.92596566197654" lon="10.225436212020082"><ele>3.0</ele><time>2026-04-21T14:42:16.001Z</time></trkpt><trkpt lat="43.92575945914155" lon="10.225600733164672"><ele>2.5</ele><time>2026-04-21T14:42:17.001Z</time></trkpt><trkpt lat="43.92555469646353" lon="10.225761624399992"><ele>2.0</ele><time>2026-04-21T14:42:18.001Z</time></trkpt><trkpt lat="43.92535867464416" lon="10.225916818498918"><ele>2.0</ele><time>2026-04-21T14:42:19.001Z</time></trkpt><trkpt lat="43.925162091628685" lon="10.226079507432079"><ele>2.0</ele><time>2026-04-21T14:42:20.001Z</time></trkpt><trkpt lat="43.92496503928681" lon="10.226250246409368"><ele>1.5</ele><time>2026-04-21T14:42:21.001Z</time></trkpt><trkpt lat="43.92476573896226" lon="10.226426932548454"><ele>1.0</ele><time>2026-04-21T14:42:22.001Z</time></trkpt><trkpt lat="43.92456278266888" lon="10.226607851365936"><ele>2.0</ele><time>2026-04-21T14:42:23.001Z</time></trkpt><trkpt lat="43.92436137230925" lon="10.226793018236034"><ele>3.0</ele><time>2026-04-21T14:42:24.001Z</time></trkpt><trkpt lat="43.92415829421324" lon="10.226983108376603"><ele>3.5</ele><time>2026-04-21T14:42:25.001Z</time></trkpt><trkpt lat="43.923951456222134" lon="10.227166129887209"><ele>4.0</ele><time>2026-04-21T14:42:26.001Z</time></trkpt><trkpt lat="43.923739484706616" lon="10.227349366829563"><ele>2.5</ele><time>2026-04-21T14:42:27.001Z</time></trkpt><trkpt lat="43.923527629295094" lon="10.227539782296665"><ele>1.0</ele><time>2026-04-21T14:42:28.001Z</time></trkpt><trkpt lat="43.92331609621459" lon="10.227733592448034"><ele>0.5</ele><time>2026-04-21T14:42:29.001Z</time></trkpt><trkpt lat="43.92310122770772" lon="10.227929864448491"><ele>0.0</ele><time>2026-04-21T14:42:30.001Z</time></trkpt><trkpt lat="43.92288541283979" lon="10.228126288864031"><ele>0.0</ele><time>2026-04-21T14:42:31.001Z</time></trkpt><trkpt lat="43.92266800956453" lon="10.228324710667637"><ele>0.0</ele><time>2026-04-21T14:42:32.001Z</time></trkpt><trkpt lat="43.92244891241902" lon="10.228525257839628"><ele>0.5</ele><time>2026-04-21T14:42:33.001Z</time></trkpt><trkpt lat="43.92223294131538" lon="10.228722413163647"><ele>1.0</ele><time>2026-04-21T14:42:34.001Z</time></trkpt><trkpt lat="43.92201425852741" lon="10.228926175817216"><ele>0.5</ele><time>2026-04-21T14:42:35.001Z</time></trkpt><trkpt lat="43.92179606893409" lon="10.229132674692307"><ele>0.0</ele><time>2026-04-21T14:42:36.001Z</time></trkpt><trkpt lat="43.921577187496645" lon="10.229341467627298"><ele>0.0</ele><time>2026-04-21T14:42:37.001Z</time></trkpt><trkpt lat="43.921358363030606" lon="10.229553125705442"><ele>0.0</ele><time>2026-04-21T14:42:38.001Z</time></trkpt><trkpt lat="43.9211395608261" lon="10.2297645896443"><ele>0.5</ele><time>2026-04-21T14:42:39.001Z</time></trkpt><trkpt lat="43.920920319796714" lon="10.229977186764355"><ele>1.0</ele><time>2026-04-21T14:42:40.001Z</time></trkpt><trkpt lat="43.920699379388054" lon="10.230190889057585"><ele>1.0</ele><time>2026-04-21T14:42:41.001Z</time></trkpt><trkpt lat="43.92048693778581" lon="10.230404008228728"><ele>1.0</ele><time>2026-04-21T14:42:42.001Z</time></trkpt><trkpt lat="43.920288944865085" lon="10.230627254070962"><ele>0.5</ele><time>2026-04-21T14:42:43.001Z</time></trkpt><trkpt lat="43.92008529305154" lon="10.230778017550248"><ele>0.0</ele><time>2026-04-21T14:42:44.001Z</time></trkpt><trkpt lat="43.91988277711081" lon="10.230985302342285"><ele>0.0</ele><time>2026-04-21T14:42:45.001Z</time></trkpt><trkpt lat="43.91968256251817" lon="10.231185475963207"><ele>0.0</ele><time>2026-04-21T14:42:46.001Z</time></trkpt><trkpt lat="43.91947630669392" lon="10.231385344940088"><ele>0.0</ele><time>2026-04-21T14:42:47.001Z</time></trkpt><trkpt lat="43.919266747528944" lon="10.231589457745894"><ele>0.0</ele><time>2026-04-21T14:42:48.001Z</time></trkpt><trkpt lat="43.91905818623759" lon="10.23179368459495"><ele>0.5</ele><time>2026-04-21T14:42:49.001Z</time></trkpt><trkpt lat="43.91884973871885" lon="10.231997647209218"><ele>1.0</ele><time>2026-04-21T14:42:50.001Z</time></trkpt><trkpt lat="43.918637658774976" lon="10.232201030820406"><ele>1.5</ele><time>2026-04-21T14:42:51.001Z</time></trkpt><trkpt lat="43.91842675228627" lon="10.232407082112221"><ele>2.0</ele><time>2026-04-21T14:42:52.001Z</time></trkpt><trkpt lat="43.918216142963374" lon="10.232609415216242"><ele>1.0</ele><time>2026-04-21T14:42:53.001Z</time></trkpt><trkpt lat="43.91800498113779" lon="10.23281381132476"><ele>0.0</ele><time>2026-04-21T14:42:54.001Z</time></trkpt><trkpt lat="43.917794272930244" lon="10.233019619918778"><ele>-0.5</ele><time>2026-04-21T14:42:55.001Z</time></trkpt><trkpt lat="43.917585842619765" lon="10.23322319878175"><ele>-1.0</ele><time>2026-04-21T14:42:56.001Z</time></trkpt><trkpt lat="43.917375995807426" lon="10.233427070390734"><ele>-1.0</ele><time>2026-04-21T14:42:57.001Z</time></trkpt><trkpt lat="43.9171662363496" lon="10.233635340136427"><ele>-1.0</ele><time>2026-04-21T14:42:58.001Z</time></trkpt><trkpt lat="43.91695697244643" lon="10.233841983944172"><ele>-1.0</ele><time>2026-04-21T14:42:59.001Z</time></trkpt><trkpt lat="43.91674577670718" lon="10.234046502110402"><ele>-1.0</ele><time>2026-04-21T14:43:00.001Z</time></trkpt><trkpt lat="43.91653642410359" lon="10.234254695632856"><ele>-1.0</ele><time>2026-04-21T14:43:01.001Z</time></trkpt><trkpt lat="43.91632399990141" lon="10.234462298262839"><ele>-1.0</ele><time>2026-04-21T14:43:02.001Z</time></trkpt><trkpt lat="43.91610828340264" lon="10.234667750645517"><ele>-0.5</ele><time>2026-04-21T14:43:03.001Z</time></trkpt><trkpt lat="43.915893145847676" lon="10.234871920610612"><ele>0.0</ele><time>2026-04-21T14:43:04.001Z</time></trkpt><trkpt lat="43.91568053757458" lon="10.235081304414443"><ele>0.0</ele><time>2026-04-21T14:43:05.001Z</time></trkpt><trkpt lat="43.91546752341442" lon="10.23529086672602"><ele>0.0</ele><time>2026-04-21T14:43:06.001Z</time></trkpt><trkpt lat="43.91525420016689" lon="10.235502125243288"><ele>0.5</ele><time>2026-04-21T14:43:07.001Z</time></trkpt><trkpt lat="43.915038991335976" lon="10.235712113852616"><ele>1.0</ele><time>2026-04-21T14:43:08.001Z</time></trkpt><trkpt lat="43.914822566635515" lon="10.235921411322677"><ele>1.0</ele><time>2026-04-21T14:43:09.001Z</time></trkpt><trkpt lat="43.91460409666677" lon="10.236131819634112"><ele>1.0</ele><time>2026-04-21T14:43:10.001Z</time></trkpt><trkpt lat="43.91438724920509" lon="10.236350966798565"><ele>1.0</ele><time>2026-04-21T14:43:11.001Z</time></trkpt><trkpt lat="43.91417703034981" lon="10.236565938306876"><ele>1.0</ele><time>2026-04-21T14:43:12.001Z</time></trkpt><trkpt lat="43.913965324260886" lon="10.236767528325506"><ele>1.0</ele><time>2026-04-21T14:43:13.001Z</time></trkpt><trkpt lat="43.913754860283596" lon="10.236975504611852"><ele>1.0</ele><time>2026-04-21T14:43:14.001Z</time></trkpt><trkpt lat="43.913546003124374" lon="10.237191094165741"><ele>1.5</ele><time>2026-04-21T14:43:15.001Z</time></trkpt><trkpt lat="43.91333639352418" lon="10.237410948211878"><ele>2.0</ele><time>2026-04-21T14:43:16.001Z</time></trkpt><trkpt lat="43.91312111468193" lon="10.23762876284158"><ele>2.0</ele><time>2026-04-21T14:43:17.001Z</time></trkpt><trkpt lat="43.91290542341769" lon="10.237846789821932"><ele>2.0</ele><time>2026-04-21T14:43:18.001Z</time></trkpt><trkpt lat="43.912686158343625" lon="10.238063274750127"><ele>1.0</ele><time>2026-04-21T14:43:19.001Z</time></trkpt><trkpt lat="43.91246565591807" lon="10.238275602730692"><ele>0.0</ele><time>2026-04-21T14:43:20.001Z</time></trkpt><trkpt lat="43.912244096186996" lon="10.238485765557405"><ele>0.0</ele><time>2026-04-21T14:43:21.001Z</time></trkpt><trkpt lat="43.91203161695343" lon="10.238688449570475"><ele>0.0</ele><time>2026-04-21T14:43:22.001Z</time></trkpt><trkpt lat="43.911813520308925" lon="10.23889341039069"><ele>1.0</ele><time>2026-04-21T14:43:23.001Z</time></trkpt><trkpt lat="43.911594718210715" lon="10.239096940521685"><ele>2.0</ele><time>2026-04-21T14:43:24.001Z</time></trkpt><trkpt lat="43.91137355463286" lon="10.23930511179161"><ele>2.0</ele><time>2026-04-21T14:43:25.001Z</time></trkpt><trkpt lat="43.91115092955966" lon="10.239510704468524"><ele>2.0</ele><time>2026-04-21T14:43:26.001Z</time></trkpt><trkpt lat="43.91092811904206" lon="10.2397167720777"><ele>1.5</ele><time>2026-04-21T14:43:27.001Z</time></trkpt><trkpt lat="43.910709162343956" lon="10.239922810423305"><ele>1.0</ele><time>2026-04-21T14:43:28.001Z</time></trkpt><trkpt lat="43.910488500812356" lon="10.240130641571314"><ele>1.0</ele><time>2026-04-21T14:43:29.001Z</time></trkpt><trkpt lat="43.91027041057008" lon="10.240338876356706"><ele>1.0</ele><time>2026-04-21T14:43:30.001Z</time></trkpt><trkpt lat="43.910051614667964" lon="10.240549408077484"><ele>0.5</ele><time>2026-04-21T14:43:31.001Z</time></trkpt><trkpt lat="43.90983382115823" lon="10.240764394785439"><ele>0.0</ele><time>2026-04-21T14:43:32.001Z</time></trkpt><trkpt lat="43.90961656518632" lon="10.24097915444922"><ele>0.0</ele><time>2026-04-21T14:43:33.001Z</time></trkpt><trkpt lat="43.90939922553235" lon="10.241195293459333"><ele>0.0</ele><time>2026-04-21T14:43:34.001Z</time></trkpt><trkpt lat="43.909181915905656" lon="10.241409867338154"><ele>1.0</ele><time>2026-04-21T14:43:35.001Z</time></trkpt><trkpt lat="43.908964560907876" lon="10.241624718540939"><ele>2.0</ele><time>2026-04-21T14:43:36.001Z</time></trkpt><trkpt lat="43.90874890513538" lon="10.241845796011722"><ele>2.0</ele><time>2026-04-21T14:43:37.001Z</time></trkpt><trkpt lat="43.908533578138055" lon="10.242068267967268"><ele>2.0</ele><time>2026-04-21T14:43:38.001Z</time></trkpt><trkpt lat="43.90831821049718" lon="10.242291614534812"><ele>2.0</ele><time>2026-04-21T14:43:39.001Z</time></trkpt><trkpt lat="43.908103134727504" lon="10.242518498169852"><ele>2.0</ele><time>2026-04-21T14:43:40.001Z</time></trkpt><trkpt lat="43.907889866035134" lon="10.242752448107185"><ele>2.0</ele><time>2026-04-21T14:43:41.001Z</time></trkpt><trkpt lat="43.907680417644045" lon="10.242992408524133"><ele>2.0</ele><time>2026-04-21T14:43:42.001Z</time></trkpt><trkpt lat="43.907471783885796" lon="10.243234509453936"><ele>2.0</ele><time>2026-04-21T14:43:43.001Z</time></trkpt><trkpt lat="43.907265311890896" lon="10.243477148529356"><ele>2.0</ele><time>2026-04-21T14:43:44.001Z</time></trkpt><trkpt lat="43.90705506643221" lon="10.243716700230992"><ele>2.0</ele><time>2026-04-21T14:43:45.001Z</time></trkpt><trkpt lat="43.90685409596878" lon="10.243951827885924"><ele>2.0</ele><time>2026-04-21T14:43:46.001Z</time></trkpt><trkpt lat="43.90662210743186" lon="10.24420487364317"><ele>1.5</ele><time>2026-04-21T14:43:47.001Z</time></trkpt><trkpt lat="43.90641472688455" lon="10.244447869001695"><ele>1.0</ele><time>2026-04-21T14:43:48.001Z</time></trkpt><trkpt lat="43.906197811808404" lon="10.244692239450965"><ele>1.0</ele><time>2026-04-21T14:43:49.001Z</time></trkpt><trkpt lat="43.90597947613282" lon="10.244932705300327"><ele>1.0</ele><time>2026-04-21T14:43:50.001Z</time></trkpt><trkpt lat="43.905764352761885" lon="10.245172591463737"><ele>1.0</ele><time>2026-04-21T14:43:51.001Z</time></trkpt><trkpt lat="43.905554338919735" lon="10.245416255245928"><ele>1.0</ele><time>2026-04-21T14:43:52.001Z</time></trkpt><trkpt lat="43.90534079451483" lon="10.245663373971082"><ele>1.0</ele><time>2026-04-21T14:43:53.001Z</time></trkpt><trkpt lat="43.905134984805436" lon="10.24591047821296"><ele>1.0</ele><time>2026-04-21T14:43:54.001Z</time></trkpt><trkpt lat="43.90493101219513" lon="10.246159983264604"><ele>1.0</ele><time>2026-04-21T14:43:55.001Z</time></trkpt><trkpt lat="43.90473637406689" lon="10.246402199196458"><ele>1.0</ele><time>2026-04-21T14:43:56.001Z</time></trkpt><trkpt lat="43.904551357012444" lon="10.246635822731458"><ele>1.0</ele><time>2026-04-21T14:43:57.001Z</time></trkpt><trkpt lat="43.90437582062483" lon="10.24686854179257"><ele>1.0</ele><time>2026-04-21T14:43:58.001Z</time></trkpt><trkpt lat="43.90420274954007" lon="10.247096432151464"><ele>1.0</ele><time>2026-04-21T14:43:59.001Z</time></trkpt><trkpt lat="43.903889932503446" lon="10.247355193471192"><ele>1.0</ele><time>2026-04-21T14:44:00.001Z</time></trkpt><trkpt lat="43.90368730661997" lon="10.247585976010027"><ele>1.0</ele><time>2026-04-21T14:44:01.001Z</time></trkpt><trkpt lat="43.90349022787767" lon="10.247809858292516"><ele>1.0</ele><time>2026-04-21T14:44:02.001Z</time></trkpt><trkpt lat="43.90328785696122" lon="10.248036834738986"><ele>2.0</ele><time>2026-04-21T14:44:03.001Z</time></trkpt><trkpt lat="43.90308264184663" lon="10.248263009678944"><ele>3.0</ele><time>2026-04-21T14:44:04.001Z</time></trkpt><trkpt lat="43.90288297929601" lon="10.248483082244642"><ele>3.0</ele><time>2026-04-21T14:44:05.001Z</time></trkpt><trkpt lat="43.90268058318934" lon="10.248708729035538"><ele>3.0</ele><time>2026-04-21T14:44:06.001Z</time></trkpt><trkpt lat="43.90247832339903" lon="10.248928375114211"><ele>3.0</ele><time>2026-04-21T14:44:07Z</time></trkpt><trkpt lat="43.90227781884108" lon="10.249166612725588"><ele>3.0</ele><time>2026-04-21T14:44:08Z</time></trkpt><trkpt lat="43.90208253551781" lon="10.249393838058797"><ele>3.0</ele><time>2026-04-21T14:44:09Z</time></trkpt><trkpt lat="43.90188444848207" lon="10.249623536688569"><ele>3.0</ele><time>2026-04-21T14:44:10Z</time></trkpt><trkpt lat="43.90168678504064" lon="10.249848027840756"><ele>3.0</ele><time>2026-04-21T14:44:11Z</time></trkpt><trkpt lat="43.90148274732621" lon="10.25008251253429"><ele>3.0</ele><time>2026-04-21T14:44:12Z</time></trkpt><trkpt lat="43.90127506193201" lon="10.25030256455824"><ele>3.0</ele><time>2026-04-21T14:44:13Z</time></trkpt><trkpt lat="43.90107165581841" lon="10.250533568349097"><ele>3.0</ele><time>2026-04-21T14:44:14Z</time></trkpt><trkpt lat="43.900874271319445" lon="10.250761726752035"><ele>3.5</ele><time>2026-04-21T14:44:15Z</time></trkpt><trkpt lat="43.9006732526495" lon="10.250988447720552"><ele>4.0</ele><time>2026-04-21T14:44:16Z</time></trkpt><trkpt lat="43.90047364213339" lon="10.251224229267224"><ele>4.0</ele><time>2026-04-21T14:44:17Z</time></trkpt><trkpt lat="43.9002727007601" lon="10.251450175027193"><ele>4.0</ele><time>2026-04-21T14:44:18Z</time></trkpt><trkpt lat="43.900069579478654" lon="10.25168556523631"><ele>3.5</ele><time>2026-04-21T14:44:19Z</time></trkpt><trkpt lat="43.899864505542666" lon="10.251904394595083"><ele>3.0</ele><time>2026-04-21T14:44:20Z</time></trkpt><trkpt lat="43.899657932622816" lon="10.252128717682877"><ele>3.0</ele><time>2026-04-21T14:44:21Z</time></trkpt><trkpt lat="43.89945130018039" lon="10.25234413715068"><ele>3.0</ele><time>2026-04-21T14:44:22Z</time></trkpt><trkpt lat="43.8992404213863" lon="10.25256409935791"><ele>3.0</ele><time>2026-04-21T14:44:23Z</time></trkpt><trkpt lat="43.89903476860975" lon="10.252786792372918"><ele>3.0</ele><time>2026-04-21T14:44:24Z</time></trkpt><trkpt lat="43.89882964231816" lon="10.253017032480466"><ele>3.0</ele><time>2026-04-21T14:44:25Z</time></trkpt><trkpt lat="43.89862722691353" lon="10.253251690230242"><ele>3.0</ele><time>2026-04-21T14:44:26Z</time></trkpt><trkpt lat="43.89842285798729" lon="10.253485723679427"><ele>2.0</ele><time>2026-04-21T14:44:27Z</time></trkpt><trkpt lat="43.89821866337609" lon="10.253715879329068"><ele>1.0</ele><time>2026-04-21T14:44:28Z</time></trkpt><trkpt lat="43.89801209327362" lon="10.253948152934107"><ele>0.0</ele><time>2026-04-21T14:44:29Z</time></trkpt><trkpt lat="43.897806924706195" lon="10.254180066033722"><ele>-1.0</ele><time>2026-04-21T14:44:30Z</time></trkpt><trkpt lat="43.89760068567009" lon="10.25441207001897"><ele>-0.5</ele><time>2026-04-21T14:44:31Z</time></trkpt><trkpt lat="43.89739446925805" lon="10.254642971307998"><ele>0.0</ele><time>2026-04-21T14:44:32Z</time></trkpt><trkpt lat="43.89718900377912" lon="10.254874643315622"><ele>0.0</ele><time>2026-04-21T14:44:33Z</time></trkpt><trkpt lat="43.896983521746535" lon="10.255106628636936"><ele>0.0</ele><time>2026-04-21T14:44:34Z</time></trkpt><trkpt lat="43.89677817641555" lon="10.255339922273818"><ele>0.5</ele><time>2026-04-21T14:44:35Z</time></trkpt><trkpt lat="43.89657378706779" lon="10.255575488120348"><ele>1.0</ele><time>2026-04-21T14:44:36Z</time></trkpt><trkpt lat="43.896367545395485" lon="10.255810142035884"><ele>1.5</ele><time>2026-04-21T14:44:37Z</time></trkpt><trkpt lat="43.89616153695798" lon="10.25604340845748"><ele>2.0</ele><time>2026-04-21T14:44:38Z</time></trkpt><trkpt lat="43.895954913581626" lon="10.256276614133364"><ele>0.5</ele><time>2026-04-21T14:44:39Z</time></trkpt><trkpt lat="43.89574902326476" lon="10.256503533144512"><ele>-1.0</ele><time>2026-04-21T14:44:40Z</time></trkpt><trkpt lat="43.895542584508554" lon="10.256728671816704"><ele>-1.0</ele><time>2026-04-21T14:44:41Z</time></trkpt><trkpt lat="43.895335328422114" lon="10.256951231620958"><ele>-1.0</ele><time>2026-04-21T14:44:42Z</time></trkpt><trkpt lat="43.89512801703483" lon="10.257167003734219"><ele>-0.5</ele><time>2026-04-21T14:44:43Z</time></trkpt><trkpt lat="43.89491653101254" lon="10.257371754580074"><ele>0.0</ele><time>2026-04-21T14:44:44Z</time></trkpt><trkpt lat="43.89470264331498" lon="10.25757422862897"><ele>0.0</ele><time>2026-04-21T14:44:45Z</time></trkpt><trkpt lat="43.89448796374812" lon="10.257771693273597"><ele>0.0</ele><time>2026-04-21T14:44:46Z</time></trkpt><trkpt lat="43.894269976757435" lon="10.257965819092592"><ele>0.0</ele><time>2026-04-21T14:44:47Z</time></trkpt><trkpt lat="43.89404996651032" lon="10.258150488079094"><ele>0.0</ele><time>2026-04-21T14:44:48Z</time></trkpt><trkpt lat="43.893827222112485" lon="10.258331253279012"><ele>0.0</ele><time>2026-04-21T14:44:49Z</time></trkpt><trkpt lat="43.89360598191656" lon="10.258511237247536"><ele>0.0</ele><time>2026-04-21T14:44:50Z</time></trkpt><trkpt lat="43.89338034096448" lon="10.258687649710298"><ele>-0.5</ele><time>2026-04-21T14:44:51Z</time></trkpt><trkpt lat="43.89315453070771" lon="10.258858004803075"><ele>-1.0</ele><time>2026-04-21T14:44:52Z</time></trkpt><trkpt lat="43.89292646538026" lon="10.259022737273945"><ele>-0.5</ele><time>2026-04-21T14:44:53Z</time></trkpt><trkpt lat="43.89270076463564" lon="10.259186787679829"><ele>0.0</ele><time>2026-04-21T14:44:54.001Z</time></trkpt><trkpt lat="43.89247336686454" lon="10.259353364503035"><ele>0.0</ele><time>2026-04-21T14:44:55.001Z</time></trkpt><trkpt lat="43.89224609450669" lon="10.259511743721774"><ele>0.0</ele><time>2026-04-21T14:44:56.001Z</time></trkpt><trkpt lat="43.89202070026594" lon="10.259671723001636"><ele>0.0</ele><time>2026-04-21T14:44:57.001Z</time></trkpt><trkpt lat="43.89179577390153" lon="10.259836379951501"><ele>0.0</ele><time>2026-04-21T14:44:58.001Z</time></trkpt><trkpt lat="43.89157016883809" lon="10.25999755101411"><ele>-0.5</ele><time>2026-04-21T14:44:59.001Z</time></trkpt><trkpt lat="43.89133998723182" lon="10.260155847425992"><ele>-1.0</ele><time>2026-04-21T14:45:00.001Z</time></trkpt><trkpt lat="43.891113320983045" lon="10.26031428525376"><ele>-0.5</ele><time>2026-04-21T14:45:01.001Z</time></trkpt><trkpt lat="43.89088272666383" lon="10.26046766399871"><ele>0.0</ele><time>2026-04-21T14:45:02.001Z</time></trkpt><trkpt lat="43.890654517347585" lon="10.260629592851517"><ele>0.5</ele><time>2026-04-21T14:45:03.001Z</time></trkpt><trkpt lat="43.890425807169635" lon="10.260790924295737"><ele>1.0</ele><time>2026-04-21T14:45:04.001Z</time></trkpt><trkpt lat="43.890196154117035" lon="10.260955444378624"><ele>0.0</ele><time>2026-04-21T14:45:05.001Z</time></trkpt><trkpt lat="43.889966646627656" lon="10.261119346956184"><ele>-1.0</ele><time>2026-04-21T14:45:06.001Z</time></trkpt><trkpt lat="43.88975053078072" lon="10.261275281232816"><ele>-1.0</ele><time>2026-04-21T14:45:07.001Z</time></trkpt><trkpt lat="43.88954329079897" lon="10.261421856278623"><ele>-1.0</ele><time>2026-04-21T14:45:08.001Z</time></trkpt><trkpt lat="43.88933721423746" lon="10.261569330192835"><ele>-1.0</ele><time>2026-04-21T14:45:09.001Z</time></trkpt><trkpt lat="43.88912867143129" lon="10.26172267210822"><ele>-1.0</ele><time>2026-04-21T14:45:10.001Z</time></trkpt><trkpt lat="43.888916167728176" lon="10.261873619589442"><ele>-1.0</ele><time>2026-04-21T14:45:11.001Z</time></trkpt><trkpt lat="43.88870673654128" lon="10.262021373443968"><ele>-1.0</ele><time>2026-04-21T14:45:12.001Z</time></trkpt><trkpt lat="43.88850358139599" lon="10.262168818155692"><ele>-1.0</ele><time>2026-04-21T14:45:13.001Z</time></trkpt><trkpt lat="43.88830670286186" lon="10.262314604164436"><ele>-1.0</ele><time>2026-04-21T14:45:14.001Z</time></trkpt><trkpt lat="43.88811233761549" lon="10.262454714005196"><ele>-1.0</ele><time>2026-04-21T14:45:15.001Z</time></trkpt><trkpt lat="43.887937204849166" lon="10.262573818295923"><ele>-1.0</ele><time>2026-04-21T14:45:16.001Z</time></trkpt><trkpt lat="43.88777576543704" lon="10.262677324958968"><ele>-1.0</ele><time>2026-04-21T14:45:17.001Z</time></trkpt><trkpt lat="43.887607181378264" lon="10.262768181469642"><ele>-1.0</ele><time>2026-04-21T14:45:18.001Z</time></trkpt><trkpt lat="43.88745421535398" lon="10.262846936721802"><ele>-0.6666666666666666</ele><time>2026-04-21T14:45:19.001Z</time></trkpt><trkpt lat="43.887306881521965" lon="10.262904094818657"><ele>-0.3333333333333333</ele><time>2026-04-21T14:45:20.001Z</time></trkpt><trkpt lat="43.887157532688846" lon="10.262944220340337"><ele>0.0</ele><time>2026-04-21T14:45:21.001Z</time></trkpt><trkpt lat="43.887002065632345" lon="10.26294608868993"><ele>0.0</ele><time>2026-04-21T14:45:22.001Z</time></trkpt><trkpt lat="43.88685233621396" lon="10.262919940692907"><ele>0.0</ele><time>2026-04-21T14:45:23.001Z</time></trkpt><trkpt lat="43.88671369414859" lon="10.262863443728552"><ele>0.0</ele><time>2026-04-21T14:45:24.001Z</time></trkpt><trkpt lat="43.88658791071588" lon="10.262778787391918"><ele>0.0</ele><time>2026-04-21T14:45:25.001Z</time></trkpt><trkpt lat="43.886472565359234" lon="10.262664535343507"><ele>-0.5</ele><time>2026-04-21T14:45:26.001Z</time></trkpt><trkpt lat="43.886372983428345" lon="10.262516004322597"><ele>-1.0</ele><time>2026-04-21T14:45:27.001Z</time></trkpt><trkpt lat="43.886301209142765" lon="10.262338333484985"><ele>-1.5</ele><time>2026-04-21T14:45:28.001Z</time></trkpt><trkpt lat="43.88626079177922" lon="10.262151699584772"><ele>-2.0</ele><time>2026-04-21T14:45:29.001Z</time></trkpt><trkpt lat="43.886246146662494" lon="10.261961076111385"><ele>-2.0</ele><time>2026-04-21T14:45:30.001Z</time></trkpt><trkpt lat="43.88625803926478" lon="10.261760461431855"><ele>-2.0</ele><time>2026-04-21T14:45:31.001Z</time></trkpt><trkpt lat="43.886293670678725" lon="10.261562554894347"><ele>-2.0</ele><time>2026-04-21T14:45:32.001Z</time></trkpt><trkpt lat="43.8863535209739" lon="10.26138831532367"><ele>-2.0</ele><time>2026-04-21T14:45:33.001Z</time></trkpt><trkpt lat="43.88643670255574" lon="10.261246582404008"><ele>-1.5</ele><time>2026-04-21T14:45:34.001Z</time></trkpt><trkpt lat="43.8865467921762" lon="10.26112335347148"><ele>-1.0</ele><time>2026-04-21T14:45:35.001Z</time></trkpt><trkpt lat="43.886675281846536" lon="10.261020500456114"><ele>-0.5</ele><time>2026-04-21T14:45:36.001Z</time></trkpt><trkpt lat="43.88681414005984" lon="10.260954749465748"><ele>0.0</ele><time>2026-04-21T14:45:37.001Z</time></trkpt><trkpt lat="43.88695662939529" lon="10.260929695755031"><ele>0.5</ele><time>2026-04-21T14:45:38.001Z</time></trkpt><trkpt lat="43.88709796902946" lon="10.260946588806974"><ele>1.0</ele><time>2026-04-21T14:45:39.001Z</time></trkpt><trkpt lat="43.887233001930625" lon="10.261003096114198"><ele>1.5</ele><time>2026-04-21T14:45:40.001Z</time></trkpt><trkpt lat="43.88736364351232" lon="10.261094846457558"><ele>2.0</ele><time>2026-04-21T14:45:41.001Z</time></trkpt><trkpt lat="43.88748217973199" lon="10.261219926618338"><ele>2.0</ele><time>2026-04-21T14:45:42.001Z</time></trkpt><trkpt lat="43.88758262596024" lon="10.261380334244034"><ele>2.0</ele><time>2026-04-21T14:45:43.001Z</time></trkpt><trkpt lat="43.88767303218642" lon="10.261571373646662"><ele>2.0</ele><time>2026-04-21T14:45:44.001Z</time></trkpt><trkpt lat="43.88775758027541" lon="10.261776555247899"><ele>1.6666666666666665</ele><time>2026-04-21T14:45:45.001Z</time></trkpt><trkpt lat="43.88783459894565" lon="10.26198124038162"><ele>1.3333333333333333</ele><time>2026-04-21T14:45:46.001Z</time></trkpt><trkpt lat="43.887903300244" lon="10.262174075116109"><ele>1.0</ele><time>2026-04-21T14:45:47.001Z</time></trkpt><trkpt lat="43.887970765381546" lon="10.262349588308572"><ele>0.5</ele><time>2026-04-21T14:45:48.001Z</time></trkpt><trkpt lat="43.88803759153916" lon="10.262512833514476"><ele>0.0</ele><time>2026-04-21T14:45:49.001Z</time></trkpt><trkpt lat="43.88810697066029" lon="10.262676080581734"><ele>-0.5</ele><time>2026-04-21T14:45:50.001Z</time></trkpt><trkpt lat="43.88817862629937" lon="10.262859074824673"><ele>-1.0</ele><time>2026-04-21T14:45:51.001Z</time></trkpt><trkpt lat="43.88825196707959" lon="10.263061326451735"><ele>-1.0</ele><time>2026-04-21T14:45:52.001Z</time></trkpt><trkpt lat="43.88833085855147" lon="10.263279379775906"><ele>-1.0</ele><time>2026-04-21T14:45:53.001Z</time></trkpt><trkpt lat="43.88841627036009" lon="10.263508919716402"><ele>-1.0</ele><time>2026-04-21T14:45:54.001Z</time></trkpt><trkpt lat="43.888505568231096" lon="10.26375351505882"><ele>-0.6666666666666666</ele><time>2026-04-21T14:45:55.001Z</time></trkpt><trkpt lat="43.88859806915044" lon="10.264008891443453"><ele>-0.3333333333333333</ele><time>2026-04-21T14:45:56.001Z</time></trkpt><trkpt lat="43.88869126353883" lon="10.264267787144027"><ele>0.0</ele><time>2026-04-21T14:45:57.001Z</time></trkpt><trkpt lat="43.88878924256286" lon="10.264531964863385"><ele>0.0</ele><time>2026-04-21T14:45:58.001Z</time></trkpt><trkpt lat="43.888889387022864" lon="10.264804262545255"><ele>0.0</ele><time>2026-04-21T14:45:59.001Z</time></trkpt><trkpt lat="43.888993384557885" lon="10.265083015130312"><ele>0.0</ele><time>2026-04-21T14:46:00.001Z</time></trkpt><trkpt lat="43.889099113175696" lon="10.265367322738353"><ele>0.0</ele><time>2026-04-21T14:46:01.001Z</time></trkpt><trkpt lat="43.88920175677493" lon="10.265632361523753"><ele>0.0</ele><time>2026-04-21T14:46:02.001Z</time></trkpt><trkpt lat="43.88930685159693" lon="10.265904218277186"><ele>0.0</ele><time>2026-04-21T14:46:03.001Z</time></trkpt><trkpt lat="43.88941038482001" lon="10.266179737544359"><ele>0.0</ele><time>2026-04-21T14:46:04.001Z</time></trkpt><trkpt lat="43.8895132837889" lon="10.266454461376183"><ele>0.0</ele><time>2026-04-21T14:46:05.001Z</time></trkpt><trkpt lat="43.889619324479156" lon="10.266736871048977"><ele>0.0</ele><time>2026-04-21T14:46:06.001Z</time></trkpt><trkpt lat="43.88972633750136" lon="10.267018540063004"><ele>0.0</ele><time>2026-04-21T14:46:07.001Z</time></trkpt><trkpt lat="43.889832828008025" lon="10.267299460461862"><ele>0.5</ele><time>2026-04-21T14:46:08.001Z</time></trkpt><trkpt lat="43.88993846525482" lon="10.267588936243428"><ele>1.0</ele><time>2026-04-21T14:46:09.001Z</time></trkpt><trkpt lat="43.89004484381163" lon="10.267874771641075"><ele>-0.5</ele><time>2026-04-21T14:46:10.001Z</time></trkpt><trkpt lat="43.89015288137347" lon="10.268171300088202"><ele>-2.0</ele><time>2026-04-21T14:46:11.001Z</time></trkpt><trkpt lat="43.89026089095469" lon="10.268461702602151"><ele>-2.0</ele><time>2026-04-21T14:46:12Z</time></trkpt><trkpt lat="43.89037402793681" lon="10.268762137645574"><ele>-2.0</ele><time>2026-04-21T14:46:13Z</time></trkpt><trkpt lat="43.89048460081426" lon="10.269055082707592"><ele>-1.5</ele><time>2026-04-21T14:46:14Z</time></trkpt><trkpt lat="43.89059240482206" lon="10.269361544862178"><ele>-1.0</ele><time>2026-04-21T14:46:15Z</time></trkpt><trkpt lat="43.8907060119296" lon="10.269669379104482"><ele>-2.0</ele><time>2026-04-21T14:46:16Z</time></trkpt><trkpt lat="43.89081965140625" lon="10.26998147237946"><ele>-3.0</ele><time>2026-04-21T14:46:17Z</time></trkpt><trkpt lat="43.89092733556939" lon="10.270296194155147"><ele>-3.0</ele><time>2026-04-21T14:46:18Z</time></trkpt><trkpt lat="43.89103701283886" lon="10.270613402607191"><ele>-3.0</ele><time>2026-04-21T14:46:19Z</time></trkpt><trkpt lat="43.8911487688671" lon="10.27093245926552"><ele>-3.0</ele><time>2026-04-21T14:46:20Z</time></trkpt><trkpt lat="43.891265303930645" lon="10.271251763783424"><ele>-3.0</ele><time>2026-04-21T14:46:21Z</time></trkpt><trkpt lat="43.891383921577436" lon="10.271568626180132"><ele>-3.0</ele><time>2026-04-21T14:46:22Z</time></trkpt><trkpt lat="43.89150009120563" lon="10.271874227707954"><ele>-3.0</ele><time>2026-04-21T14:46:23Z</time></trkpt><trkpt lat="43.891607466432625" lon="10.272167145469647"><ele>-3.0</ele><time>2026-04-21T14:46:24Z</time></trkpt><trkpt lat="43.89171380703286" lon="10.272458491242583"><ele>-3.0</ele><time>2026-04-21T14:46:25Z</time></trkpt><trkpt lat="43.89181982918917" lon="10.272755756971785"><ele>-3.0</ele><time>2026-04-21T14:46:26Z</time></trkpt><trkpt lat="43.891922126226525" lon="10.273052906183182"><ele>-3.0</ele><time>2026-04-21T14:46:27Z</time></trkpt><trkpt lat="43.89201721858182" lon="10.273354955327994"><ele>-2.5</ele><time>2026-04-21T14:46:28Z</time></trkpt><trkpt lat="43.89210427065374" lon="10.273665997996781"><ele>-2.0</ele><time>2026-04-21T14:46:29Z</time></trkpt><trkpt lat="43.89218103318556" lon="10.273980741421337"><ele>-2.0</ele><time>2026-04-21T14:46:30Z</time></trkpt><trkpt lat="43.8922520116419" lon="10.274304290641982"><ele>-2.0</ele><time>2026-04-21T14:46:31Z</time></trkpt><trkpt lat="43.89231213296078" lon="10.274626944247414"><ele>-2.0</ele><time>2026-04-21T14:46:32Z</time></trkpt><trkpt lat="43.89236553963967" lon="10.274955775675863"><ele>-2.0</ele><time>2026-04-21T14:46:33Z</time></trkpt><trkpt lat="43.89241177586147" lon="10.275283773499863"><ele>-2.0</ele><time>2026-04-21T14:46:34Z</time></trkpt><trkpt lat="43.89244799803835" lon="10.275615384729598"><ele>-2.0</ele><time>2026-04-21T14:46:35Z</time></trkpt><trkpt lat="43.89247895343851" lon="10.275945558797066"><ele>-2.0</ele><time>2026-04-21T14:46:36Z</time></trkpt><trkpt lat="43.892502221806566" lon="10.276274657547118"><ele>-2.0</ele><time>2026-04-21T14:46:37Z</time></trkpt><trkpt lat="43.89251401163675" lon="10.276610113473529"><ele>-2.5</ele><time>2026-04-21T14:46:38Z</time></trkpt><trkpt lat="43.89251883230819" lon="10.276947473201101"><ele>-3.0</ele><time>2026-04-21T14:46:39Z</time></trkpt><trkpt lat="43.89252353032846" lon="10.277277310242244"><ele>-3.0</ele><time>2026-04-21T14:46:40Z</time></trkpt><trkpt lat="43.892515567520476" lon="10.277609979534045"><ele>-3.0</ele><time>2026-04-21T14:46:41Z</time></trkpt><trkpt lat="43.89249862066613" lon="10.27795480980562"><ele>-2.0</ele><time>2026-04-21T14:46:42Z</time></trkpt><trkpt lat="43.892468938280274" lon="10.27828954401492"><ele>-1.0</ele><time>2026-04-21T14:46:43Z</time></trkpt><trkpt lat="43.89243505770833" lon="10.278622511029342"><ele>0.0</ele><time>2026-04-21T14:46:44Z</time></trkpt><trkpt lat="43.89238868301157" lon="10.278952425787315"><ele>1.0</ele><time>2026-04-21T14:46:45Z</time></trkpt><trkpt lat="43.89233836914442" lon="10.279285887541716"><ele>1.0</ele><time>2026-04-21T14:46:46Z</time></trkpt><trkpt lat="43.89228013396527" lon="10.279607625044154"><ele>1.0</ele><time>2026-04-21T14:46:47Z</time></trkpt><trkpt lat="43.89221027413963" lon="10.279928457335373"><ele>1.0</ele><time>2026-04-21T14:46:48Z</time></trkpt><trkpt lat="43.892132431760025" lon="10.280245645791792"><ele>1.0</ele><time>2026-04-21T14:46:49Z</time></trkpt><trkpt lat="43.892046274563754" lon="10.280559922424517"><ele>0.5</ele><time>2026-04-21T14:46:50Z</time></trkpt><trkpt lat="43.89195479318634" lon="10.280876615823068"><ele>0.0</ele><time>2026-04-21T14:46:51Z</time></trkpt><trkpt lat="43.89185423996868" lon="10.281187619913704"><ele>-1.0</ele><time>2026-04-21T14:46:52Z</time></trkpt><trkpt lat="43.891752329879104" lon="10.281497911922921"><ele>-2.0</ele><time>2026-04-21T14:46:53Z</time></trkpt><trkpt lat="43.89164355173633" lon="10.281810035889924"><ele>-2.0</ele><time>2026-04-21T14:46:54Z</time></trkpt><trkpt lat="43.89152896438331" lon="10.282119588755215"><ele>-2.0</ele><time>2026-04-21T14:46:55Z</time></trkpt><trkpt lat="43.89142467319142" lon="10.282433091304858"><ele>-1.5</ele><time>2026-04-21T14:46:56Z</time></trkpt><trkpt lat="43.89131700663584" lon="10.28275685966081"><ele>-1.0</ele><time>2026-04-21T14:46:57Z</time></trkpt><trkpt lat="43.891209964492624" lon="10.283084253732001"><ele>-1.0</ele><time>2026-04-21T14:46:58Z</time></trkpt><trkpt lat="43.89110906121904" lon="10.283391480739411"><ele>-1.0</ele><time>2026-04-21T14:46:59Z</time></trkpt><trkpt lat="43.890998406217086" lon="10.28371434120166"><ele>-1.0</ele><time>2026-04-21T14:47:00Z</time></trkpt><trkpt lat="43.89089575625676" lon="10.284028545756"><ele>-1.0</ele><time>2026-04-21T14:47:01Z</time></trkpt><trkpt lat="43.890792494717076" lon="10.284345314635251"><ele>-1.0</ele><time>2026-04-21T14:47:02Z</time></trkpt><trkpt lat="43.89068388538601" lon="10.284660892612179"><ele>-1.0</ele><time>2026-04-21T14:47:03Z</time></trkpt><trkpt lat="43.89058087474087" lon="10.284969767169713"><ele>-1.0</ele><time>2026-04-21T14:47:04Z</time></trkpt><trkpt lat="43.89046634295517" lon="10.285287909144428"><ele>-1.0</ele><time>2026-04-21T14:47:05Z</time></trkpt><trkpt lat="43.89037039244189" lon="10.285600173349223"><ele>-1.5</ele><time>2026-04-21T14:47:06Z</time></trkpt><trkpt lat="43.89026696985219" lon="10.285919507179004"><ele>-2.0</ele><time>2026-04-21T14:47:07Z</time></trkpt><trkpt lat="43.89016195335891" lon="10.286228763663743"><ele>-1.5</ele><time>2026-04-21T14:47:08Z</time></trkpt><trkpt lat="43.89005680224047" lon="10.286548502546474"><ele>-1.0</ele><time>2026-04-21T14:47:09Z</time></trkpt><trkpt lat="43.889950542580515" lon="10.286863302562232"><ele>-1.0</ele><time>2026-04-21T14:47:10Z</time></trkpt><trkpt lat="43.889844443501275" lon="10.287178303803229"><ele>-1.0</ele><time>2026-04-21T14:47:11Z</time></trkpt><trkpt lat="43.88973714197395" lon="10.287498205576346"><ele>-0.5</ele><time>2026-04-21T14:47:12Z</time></trkpt><trkpt lat="43.88962806439435" lon="10.287821428903333"><ele>0.0</ele><time>2026-04-21T14:47:13Z</time></trkpt><trkpt lat="43.88951778574497" lon="10.288144584438326"><ele>0.0</ele><time>2026-04-21T14:47:14Z</time></trkpt><trkpt lat="43.889408716308566" lon="10.2884723973104"><ele>0.0</ele><time>2026-04-21T14:47:15Z</time></trkpt><trkpt lat="43.88929797402862" lon="10.288799922154299"><ele>-1.0</ele><time>2026-04-21T14:47:16Z</time></trkpt><trkpt lat="43.88918901072169" lon="10.289127458831995"><ele>-2.0</ele><time>2026-04-21T14:47:17Z</time></trkpt><trkpt lat="43.8890784839358" lon="10.289456073231653"><ele>-1.5</ele><time>2026-04-21T14:47:18Z</time></trkpt><trkpt lat="43.888966818892705" lon="10.289790578431745"><ele>-1.0</ele><time>2026-04-21T14:47:19.001Z</time></trkpt><trkpt lat="43.888853683544994" lon="10.290124850960149"><ele>-1.0</ele><time>2026-04-21T14:47:20.001Z</time></trkpt><trkpt lat="43.88874024444514" lon="10.29045949804245"><ele>-1.0</ele><time>2026-04-21T14:47:21.001Z</time></trkpt><trkpt lat="43.88862803272784" lon="10.290794243632156"><ele>-1.0</ele><time>2026-04-21T14:47:22.001Z</time></trkpt><trkpt lat="43.888516732981365" lon="10.29113007551992"><ele>-1.0</ele><time>2026-04-21T14:47:23.001Z</time></trkpt><trkpt lat="43.888404607211974" lon="10.291464306803404"><ele>0.0</ele><time>2026-04-21T14:47:24.001Z</time></trkpt><trkpt lat="43.888291863540545" lon="10.291799903722813"><ele>1.0</ele><time>2026-04-21T14:47:25.001Z</time></trkpt><trkpt lat="43.88817953506762" lon="10.292134119497797"><ele>1.0</ele><time>2026-04-21T14:47:26.001Z</time></trkpt><trkpt lat="43.88807025856113" lon="10.292470743911547"><ele>1.0</ele><time>2026-04-21T14:47:27.001Z</time></trkpt><trkpt lat="43.887958140336124" lon="10.292809238905424"><ele>0.0</ele><time>2026-04-21T14:47:28.001Z</time></trkpt><trkpt lat="43.887845519412224" lon="10.293143275068326"><ele>-1.0</ele><time>2026-04-21T14:47:29.001Z</time></trkpt><trkpt lat="43.88773466299788" lon="10.293477974884699"><ele>-1.0</ele><time>2026-04-21T14:47:30.001Z</time></trkpt><trkpt lat="43.88762171547354" lon="10.293810297327546"><ele>-1.0</ele><time>2026-04-21T14:47:31.001Z</time></trkpt><trkpt lat="43.88750843191279" lon="10.294141153049152"><ele>0.0</ele><time>2026-04-21T14:47:32.001Z</time></trkpt><trkpt lat="43.88739746572452" lon="10.294469310513245"><ele>1.0</ele><time>2026-04-21T14:47:33.001Z</time></trkpt><trkpt lat="43.88728365481266" lon="10.294801484307577"><ele>1.0</ele><time>2026-04-21T14:47:34.001Z</time></trkpt><trkpt lat="43.887174362376165" lon="10.29513261959575"><ele>1.0</ele><time>2026-04-21T14:47:35.001Z</time></trkpt><trkpt lat="43.88706716944938" lon="10.295461518915303"><ele>1.0</ele><time>2026-04-21T14:47:36.001Z</time></trkpt><trkpt lat="43.886958799340704" lon="10.295789939812524"><ele>1.0</ele><time>2026-04-21T14:47:37.001Z</time></trkpt><trkpt lat="43.886850588856305" lon="10.29611929961474"><ele>0.0</ele><time>2026-04-21T14:47:38.001Z</time></trkpt><trkpt lat="43.886741928843946" lon="10.296448318679326"><ele>-1.0</ele><time>2026-04-21T14:47:39.001Z</time></trkpt><trkpt lat="43.88663249278516" lon="10.296785794800487"><ele>-1.0</ele><time>2026-04-21T14:47:40.001Z</time></trkpt><trkpt lat="43.886521969849106" lon="10.297099834511439"><ele>-1.0</ele><time>2026-04-21T14:47:41.001Z</time></trkpt><trkpt lat="43.88640976184415" lon="10.297424196976506"><ele>-0.5</ele><time>2026-04-21T14:47:42.001Z</time></trkpt><trkpt lat="43.886298966781744" lon="10.297749491967235"><ele>0.0</ele><time>2026-04-21T14:47:43.001Z</time></trkpt><trkpt lat="43.886189077525096" lon="10.29807506200379"><ele>-1.5</ele><time>2026-04-21T14:47:44.001Z</time></trkpt><trkpt lat="43.88608153458354" lon="10.298403721288487"><ele>-3.0</ele><time>2026-04-21T14:47:45.001Z</time></trkpt><trkpt lat="43.88597649263685" lon="10.298725946430173"><ele>-1.0</ele><time>2026-04-21T14:47:46.001Z</time></trkpt><trkpt lat="43.88587127945872" lon="10.299048339501377"><ele>1.0</ele><time>2026-04-21T14:47:47.001Z</time></trkpt><trkpt lat="43.88577674272133" lon="10.299357164909624"><ele>1.0</ele><time>2026-04-21T14:47:48.001Z</time></trkpt><trkpt lat="43.88569467382949" lon="10.299653795775624"><ele>1.0</ele><time>2026-04-21T14:47:49.001Z</time></trkpt><trkpt lat="43.885615295457434" lon="10.29996251600397"><ele>2.5</ele><time>2026-04-21T14:47:50.001Z</time></trkpt><trkpt lat="43.88554884701938" lon="10.300275785077321"><ele>4.0</ele><time>2026-04-21T14:47:51.001Z</time></trkpt><trkpt lat="43.885482513330736" lon="10.300595800682906"><ele>7.0</ele><time>2026-04-21T14:47:52.001Z</time></trkpt><trkpt lat="43.88541400853066" lon="10.300917684227404"><ele>10.0</ele><time>2026-04-21T14:47:53.001Z</time></trkpt><trkpt lat="43.885345198920625" lon="10.301240232772873"><ele>14.0</ele><time>2026-04-21T14:47:54.001Z</time></trkpt><trkpt lat="43.88527403281646" lon="10.301569196772"><ele>18.0</ele><time>2026-04-21T14:47:55.001Z</time></trkpt><trkpt lat="43.88520185334825" lon="10.30190104662559"><ele>18.0</ele><time>2026-04-21T14:47:56.001Z</time></trkpt><trkpt lat="43.88513341524433" lon="10.302232998207874"><ele>18.0</ele><time>2026-04-21T14:47:57.001Z</time></trkpt><trkpt lat="43.88506528412405" lon="10.302565703797267"><ele>18.5</ele><time>2026-04-21T14:47:58.001Z</time></trkpt><trkpt lat="43.88499587308401" lon="10.302904661466998"><ele>19.0</ele><time>2026-04-21T14:47:59.001Z</time></trkpt><trkpt lat="43.884925657331344" lon="10.303242460695094"><ele>19.0</ele><time>2026-04-21T14:48:00.001Z</time></trkpt><trkpt lat="43.88485370776579" lon="10.303575086466473"><ele>19.0</ele><time>2026-04-21T14:48:01.001Z</time></trkpt><trkpt lat="43.88477750032617" lon="10.303911017307176"><ele>22.5</ele><time>2026-04-21T14:48:02.001Z</time></trkpt><trkpt lat="43.88469966222594" lon="10.304249480179154"><ele>26.0</ele><time>2026-04-21T14:48:03.001Z</time></trkpt><trkpt lat="43.88462303211334" lon="10.304588858741145"><ele>27.0</ele><time>2026-04-21T14:48:04.001Z</time></trkpt><trkpt lat="43.884544236599346" lon="10.304927454533107"><ele>28.0</ele><time>2026-04-21T14:48:05.001Z</time></trkpt><trkpt lat="43.88446293382091" lon="10.305270330530494"><ele>32.0</ele><time>2026-04-21T14:48:06.001Z</time></trkpt><trkpt lat="43.88438744884832" lon="10.30562034110011"><ele>36.0</ele><time>2026-04-21T14:48:07.001Z</time></trkpt><trkpt lat="43.884312677302624" lon="10.305966304745494"><ele>28.5</ele><time>2026-04-21T14:48:08.001Z</time></trkpt><trkpt lat="43.88424065275744" lon="10.306307503689569"><ele>21.0</ele><time>2026-04-21T14:48:09.001Z</time></trkpt><trkpt lat="43.88416689916949" lon="10.306654793912635"><ele>21.0</ele><time>2026-04-21T14:48:10.001Z</time></trkpt><trkpt lat="43.88409031980903" lon="10.306992394187938"><ele>21.0</ele><time>2026-04-21T14:48:11.001Z</time></trkpt><trkpt lat="43.88401828927606" lon="10.30731686799101"><ele>24.5</ele><time>2026-04-21T14:48:12.001Z</time></trkpt><trkpt lat="43.88394784154898" lon="10.307638015006672"><ele>28.0</ele><time>2026-04-21T14:48:13.001Z</time></trkpt><trkpt lat="43.88388530172009" lon="10.307970114541849"><ele>34.5</ele><time>2026-04-21T14:48:14.001Z</time></trkpt><trkpt lat="43.88383276803163" lon="10.308289931698955"><ele>41.0</ele><time>2026-04-21T14:48:15.001Z</time></trkpt><trkpt lat="43.88379660983877" lon="10.308607409038045"><ele>38.5</ele><time>2026-04-21T14:48:16.001Z</time></trkpt><trkpt lat="43.88376843617491" lon="10.308937482179127"><ele>36.0</ele><time>2026-04-21T14:48:17.001Z</time></trkpt><trkpt lat="43.88375388954943" lon="10.309268932927337"><ele>36.0</ele><time>2026-04-21T14:48:18Z</time></trkpt><trkpt lat="43.883748808671506" lon="10.309604567012219"><ele>36.0</ele><time>2026-04-21T14:48:19Z</time></trkpt><trkpt lat="43.88374736154007" lon="10.309932988840321"><ele>27.0</ele><time>2026-04-21T14:48:20Z</time></trkpt><trkpt lat="43.88375738407204" lon="10.310258402468978"><ele>18.0</ele><time>2026-04-21T14:48:21Z</time></trkpt><trkpt lat="43.8837788291848" lon="10.310581077169823"><ele>11.5</ele><time>2026-04-21T14:48:22Z</time></trkpt><trkpt lat="43.88381199230799" lon="10.310903029455078"><ele>5.0</ele><time>2026-04-21T14:48:23Z</time></trkpt><trkpt lat="43.8838502772322" lon="10.31122854304501"><ele>5.0</ele><time>2026-04-21T14:48:24Z</time></trkpt><trkpt lat="43.88388650586646" lon="10.311564445154117"><ele>5.0</ele><time>2026-04-21T14:48:25Z</time></trkpt><trkpt lat="43.883918810335835" lon="10.311895084290256"><ele>5.0</ele><time>2026-04-21T14:48:26Z</time></trkpt><trkpt lat="43.88395164065729" lon="10.312215825759498"><ele>5.0</ele><time>2026-04-21T14:48:27Z</time></trkpt><trkpt lat="43.88398080020589" lon="10.312534177540641"><ele>5.5</ele><time>2026-04-21T14:48:28Z</time></trkpt><trkpt lat="43.88401099302851" lon="10.312856251924147"><ele>6.0</ele><time>2026-04-21T14:48:29Z</time></trkpt><trkpt lat="43.884041448476495" lon="10.313180270575181"><ele>6.5</ele><time>2026-04-21T14:48:30Z</time></trkpt><trkpt lat="43.88407341244568" lon="10.313494853261805"><ele>7.0</ele><time>2026-04-21T14:48:31Z</time></trkpt><trkpt lat="43.88410437961273" lon="10.313803590674505"><ele>8.5</ele><time>2026-04-21T14:48:32Z</time></trkpt><trkpt lat="43.8841366670787" lon="10.31411703003966"><ele>10.0</ele><time>2026-04-21T14:48:33Z</time></trkpt><trkpt lat="43.88416647673855" lon="10.314440267887056"><ele>15.0</ele><time>2026-04-21T14:48:34Z</time></trkpt><trkpt lat="43.884191119427086" lon="10.31477219212978"><ele>20.0</ele><time>2026-04-21T14:48:35Z</time></trkpt><trkpt lat="43.884202961669686" lon="10.31510536823042"><ele>20.0</ele><time>2026-04-21T14:48:36Z</time></trkpt><trkpt lat="43.88420028548811" lon="10.31544775377242"><ele>20.0</ele><time>2026-04-21T14:48:37Z</time></trkpt><trkpt lat="43.8841863926443" lon="10.315789872807507"><ele>26.0</ele><time>2026-04-21T14:48:38Z</time></trkpt><trkpt lat="43.88416355383644" lon="10.316136253696675"><ele>32.0</ele><time>2026-04-21T14:48:39Z</time></trkpt><trkpt lat="43.884130829486026" lon="10.316486393495166"><ele>37.0</ele><time>2026-04-21T14:48:40Z</time></trkpt><trkpt lat="43.88410081646268" lon="10.316837549837492"><ele>42.0</ele><time>2026-04-21T14:48:41Z</time></trkpt><trkpt lat="43.884072181925404" lon="10.317189035824743"><ele>44.0</ele><time>2026-04-21T14:48:42Z</time></trkpt><trkpt lat="43.8840416572986" lon="10.317536902418635"><ele>46.0</ele><time>2026-04-21T14:48:43Z</time></trkpt><trkpt lat="43.88400979835828" lon="10.317891622722014"><ele>42.5</ele><time>2026-04-21T14:48:44Z</time></trkpt><trkpt lat="43.88398003943006" lon="10.318246690468635"><ele>39.0</ele><time>2026-04-21T14:48:45Z</time></trkpt><trkpt lat="43.88394881477743" lon="10.318605980205623"><ele>35.5</ele><time>2026-04-21T14:48:46Z</time></trkpt><trkpt lat="43.88391593876936" lon="10.318961628858561"><ele>32.0</ele><time>2026-04-21T14:48:47Z</time></trkpt><trkpt lat="43.883880370644775" lon="10.319310102856274"><ele>32.0</ele><time>2026-04-21T14:48:48Z</time></trkpt><trkpt lat="43.88384589501462" lon="10.319652770570602"><ele>32.0</ele><time>2026-04-21T14:48:49Z</time></trkpt><trkpt lat="43.883814951613786" lon="10.319995815983903"><ele>39.0</ele><time>2026-04-21T14:48:50Z</time></trkpt><trkpt lat="43.883777536725226" lon="10.320339383368992"><ele>46.0</ele><time>2026-04-21T14:48:51Z</time></trkpt><trkpt lat="43.88373291333775" lon="10.320675868657949"><ele>50.5</ele><time>2026-04-21T14:48:52Z</time></trkpt><trkpt lat="43.8836826029791" lon="10.321011238640711"><ele>55.0</ele><time>2026-04-21T14:48:53Z</time></trkpt><trkpt lat="43.88362492239417" lon="10.321345441498876"><ele>54.0</ele><time>2026-04-21T14:48:54Z</time></trkpt><trkpt lat="43.8835552152807" lon="10.321666690951622"><ele>53.0</ele><time>2026-04-21T14:48:55Z</time></trkpt><trkpt lat="43.88347671858878" lon="10.321980959872503"><ele>46.5</ele><time>2026-04-21T14:48:56Z</time></trkpt><trkpt lat="43.8833926885611" lon="10.32229928820242"><ele>40.0</ele><time>2026-04-21T14:48:57Z</time></trkpt><trkpt lat="43.88330253220416" lon="10.322615944680734"><ele>40.0</ele><time>2026-04-21T14:48:58Z</time></trkpt><trkpt lat="43.88320700985649" lon="10.322932390984162"><ele>40.0</ele><time>2026-04-21T14:48:59Z</time></trkpt><trkpt lat="43.883110290046375" lon="10.323247674642975"><ele>42.0</ele><time>2026-04-21T14:49:00Z</time></trkpt><trkpt lat="43.88301926765486" lon="10.323558637359094"><ele>44.0</ele><time>2026-04-21T14:49:01Z</time></trkpt><trkpt lat="43.882930564107184" lon="10.323870219867684"><ele>44.0</ele><time>2026-04-21T14:49:02Z</time></trkpt><trkpt lat="43.88283917357367" lon="10.324182684817652"><ele>44.0</ele><time>2026-04-21T14:49:03Z</time></trkpt><trkpt lat="43.88274595533871" lon="10.324491147094397"><ele>45.0</ele><time>2026-04-21T14:49:04Z</time></trkpt><trkpt lat="43.88265253460569" lon="10.324805231490899"><ele>46.0</ele><time>2026-04-21T14:49:05Z</time></trkpt><trkpt lat="43.88256109582302" lon="10.32512091723149"><ele>46.0</ele><time>2026-04-21T14:49:06Z</time></trkpt><trkpt lat="43.882468883059516" lon="10.325436322720078"><ele>46.0</ele><time>2026-04-21T14:49:07Z</time></trkpt><trkpt lat="43.8823766361922" lon="10.32575791607238"><ele>52.0</ele><time>2026-04-21T14:49:08Z</time></trkpt><trkpt lat="43.882284012687585" lon="10.326084036303524"><ele>58.0</ele><time>2026-04-21T14:49:09Z</time></trkpt><trkpt lat="43.88218904688053" lon="10.326411028822333"><ele>59.5</ele><time>2026-04-21T14:49:10Z</time></trkpt><trkpt lat="43.88209259017688" lon="10.32673258197038"><ele>61.0</ele><time>2026-04-21T14:49:11Z</time></trkpt><trkpt lat="43.88199852780628" lon="10.327050318048832"><ele>52.0</ele><time>2026-04-21T14:49:12Z</time></trkpt><trkpt lat="43.88190750676693" lon="10.327359912994286"><ele>43.0</ele><time>2026-04-21T14:49:13Z</time></trkpt><trkpt lat="43.88181409329947" lon="10.327661191284202"><ele>42.0</ele><time>2026-04-21T14:49:14Z</time></trkpt><trkpt lat="43.88172382383739" lon="10.327959859551692"><ele>41.0</ele><time>2026-04-21T14:49:15Z</time></trkpt><trkpt lat="43.881633061790026" lon="10.32826668389276"><ele>32.5</ele><time>2026-04-21T14:49:16Z</time></trkpt><trkpt lat="43.88154071615037" lon="10.328579645228057"><ele>24.0</ele><time>2026-04-21T14:49:17Z</time></trkpt><trkpt lat="43.88144953559922" lon="10.328894241534956"><ele>24.0</ele><time>2026-04-21T14:49:18Z</time></trkpt><trkpt lat="43.88135847942524" lon="10.32920529665949"><ele>24.0</ele><time>2026-04-21T14:49:19Z</time></trkpt><trkpt lat="43.88126767957398" lon="10.329519807286967"><ele>28.5</ele><time>2026-04-21T14:49:20Z</time></trkpt><trkpt lat="43.8811803341715" lon="10.32983765099983"><ele>33.0</ele><time>2026-04-21T14:49:21Z</time></trkpt><trkpt lat="43.88109433678664" lon="10.330156708301624"><ele>33.0</ele><time>2026-04-21T14:49:22Z</time></trkpt><trkpt lat="43.88100792045365" lon="10.3304770381842"><ele>33.0</ele><time>2026-04-21T14:49:23Z</time></trkpt><trkpt lat="43.880923169350254" lon="10.33080019871136"><ele>38.0</ele><time>2026-04-21T14:49:24Z</time></trkpt><trkpt lat="43.88083876834997" lon="10.331134999012576"><ele>43.0</ele><time>2026-04-21T14:49:25Z</time></trkpt><trkpt lat="43.880762271772305" lon="10.331474074177208"><ele>48.5</ele><time>2026-04-21T14:49:26Z</time></trkpt><trkpt lat="43.880690235867114" lon="10.331818454790191"><ele>54.0</ele><time>2026-04-21T14:49:27Z</time></trkpt><trkpt lat="43.880625081510864" lon="10.332160815063855"><ele>59.5</ele><time>2026-04-21T14:49:28Z</time></trkpt><trkpt lat="43.88055954394264" lon="10.332505103523754"><ele>65.0</ele><time>2026-04-21T14:49:29Z</time></trkpt><trkpt lat="43.880507984230654" lon="10.332859452519541"><ele>63.5</ele><time>2026-04-21T14:49:30Z</time></trkpt><trkpt lat="43.880465477655164" lon="10.333206747936417"><ele>62.0</ele><time>2026-04-21T14:49:31Z</time></trkpt><trkpt lat="43.88042205821454" lon="10.333560731024438"><ele>59.5</ele><time>2026-04-21T14:49:32Z</time></trkpt><trkpt lat="43.88036716585542" lon="10.333905914798088"><ele>57.0</ele><time>2026-04-21T14:49:33Z</time></trkpt><trkpt lat="43.880316204321794" lon="10.334244590564555"><ele>57.0</ele><time>2026-04-21T14:49:34Z</time></trkpt><trkpt lat="43.88026923209111" lon="10.334578817662736"><ele>57.0</ele><time>2026-04-21T14:49:35Z</time></trkpt><trkpt lat="43.880232436515186" lon="10.334919611449692"><ele>59.0</ele><time>2026-04-21T14:49:36Z</time></trkpt><trkpt lat="43.88018982604124" lon="10.335258741455382"><ele>61.0</ele><time>2026-04-21T14:49:37Z</time></trkpt><trkpt lat="43.88014580721634" lon="10.335598905534248"><ele>64.0</ele><time>2026-04-21T14:49:38Z</time></trkpt><trkpt lat="43.88010027051788" lon="10.335941052745483"><ele>67.0</ele><time>2026-04-21T14:49:39Z</time></trkpt><trkpt lat="43.880059713028025" lon="10.336268880041029"><ele>62.5</ele><time>2026-04-21T14:49:40Z</time></trkpt><trkpt lat="43.88001868587445" lon="10.336604584547956"><ele>58.0</ele><time>2026-04-21T14:49:41Z</time></trkpt><trkpt lat="43.87997089230556" lon="10.336946039062834"><ele>61.0</ele><time>2026-04-21T14:49:42Z</time></trkpt><trkpt lat="43.87992726060111" lon="10.337291673285286"><ele>64.0</ele><time>2026-04-21T14:49:43Z</time></trkpt><trkpt lat="43.87987916673579" lon="10.337625156703954"><ele>64.0</ele><time>2026-04-21T14:49:44.001Z</time></trkpt><trkpt lat="43.87983083095388" lon="10.337963663223249"><ele>64.0</ele><time>2026-04-21T14:49:45.001Z</time></trkpt><trkpt lat="43.87978675750287" lon="10.338297132100386"><ele>63.0</ele><time>2026-04-21T14:49:46.001Z</time></trkpt><trkpt lat="43.879745376713885" lon="10.338629603802264"><ele>62.0</ele><time>2026-04-21T14:49:47.001Z</time></trkpt><trkpt lat="43.879696624902124" lon="10.338947756745196"><ele>64.5</ele><time>2026-04-21T14:49:48.001Z</time></trkpt><trkpt lat="43.87964285938145" lon="10.339264707372115"><ele>67.0</ele><time>2026-04-21T14:49:49.001Z</time></trkpt><trkpt lat="43.87957908131931" lon="10.33957772212065"><ele>71.5</ele><time>2026-04-21T14:49:50.001Z</time></trkpt><trkpt lat="43.87950071969777" lon="10.33987390007922"><ele>76.0</ele><time>2026-04-21T14:49:51.001Z</time></trkpt><trkpt lat="43.8794007235673" lon="10.340171871738049"><ele>76.0</ele><time>2026-04-21T14:49:52.001Z</time></trkpt><trkpt lat="43.87930221160691" lon="10.340452484179306"><ele>76.0</ele><time>2026-04-21T14:49:53.001Z</time></trkpt><trkpt lat="43.87920100217918" lon="10.340737152225353"><ele>67.5</ele><time>2026-04-21T14:49:54.001Z</time></trkpt><trkpt lat="43.87908714577172" lon="10.34100790932733"><ele>59.0</ele><time>2026-04-21T14:49:55.001Z</time></trkpt><trkpt lat="43.87896113336545" lon="10.341275347917763"><ele>55.0</ele><time>2026-04-21T14:49:56.001Z</time></trkpt><trkpt lat="43.87882603463582" lon="10.34154852139461"><ele>51.0</ele><time>2026-04-21T14:49:57.001Z</time></trkpt><trkpt lat="43.878685069405265" lon="10.341815327081518"><ele>51.0</ele><time>2026-04-21T14:49:58.001Z</time></trkpt><trkpt lat="43.87853672274145" lon="10.342072226435008"><ele>51.0</ele><time>2026-04-21T14:49:59.001Z</time></trkpt><trkpt lat="43.87837952470167" lon="10.342318717530613"><ele>47.5</ele><time>2026-04-21T14:50:00.001Z</time></trkpt><trkpt lat="43.87820953021562" lon="10.34256281057471"><ele>44.0</ele><time>2026-04-21T14:50:01.001Z</time></trkpt><trkpt lat="43.8780331735108" lon="10.342801523246694"><ele>44.0</ele><time>2026-04-21T14:50:02.001Z</time></trkpt><trkpt lat="43.87784601005368" lon="10.343034748045456"><ele>44.0</ele><time>2026-04-21T14:50:03.001Z</time></trkpt><trkpt lat="43.87764937422724" lon="10.343261773897815"><ele>41.5</ele><time>2026-04-21T14:50:04.001Z</time></trkpt><trkpt lat="43.87744855190373" lon="10.343480954559444"><ele>39.0</ele><time>2026-04-21T14:50:05.001Z</time></trkpt><trkpt lat="43.87724606958625" lon="10.34370490464355"><ele>42.0</ele><time>2026-04-21T14:50:06.001Z</time></trkpt><trkpt lat="43.8770443933843" lon="10.343929528324729"><ele>45.0</ele><time>2026-04-21T14:50:07.001Z</time></trkpt><trkpt lat="43.87684122987739" lon="10.344157045289693"><ele>43.5</ele><time>2026-04-21T14:50:08.001Z</time></trkpt><trkpt lat="43.87663794526083" lon="10.344383658236005"><ele>42.0</ele><time>2026-04-21T14:50:09.001Z</time></trkpt><trkpt lat="43.8764324320674" lon="10.344609413703827"><ele>45.0</ele><time>2026-04-21T14:50:10.001Z</time></trkpt><trkpt lat="43.87622578243041" lon="10.344834092542579"><ele>48.0</ele><time>2026-04-21T14:50:11.001Z</time></trkpt><trkpt lat="43.87601813783047" lon="10.345057891718078"><ele>44.0</ele><time>2026-04-21T14:50:12.001Z</time></trkpt><trkpt lat="43.875809768223974" lon="10.345280561880486"><ele>40.0</ele><time>2026-04-21T14:50:13.001Z</time></trkpt><trkpt lat="43.875602169620734" lon="10.345500805556615"><ele>41.5</ele><time>2026-04-21T14:50:14.001Z</time></trkpt><trkpt lat="43.8753953621006" lon="10.345723627911216"><ele>43.0</ele><time>2026-04-21T14:50:15.001Z</time></trkpt><trkpt lat="43.87519438793777" lon="10.345946220622638"><ele>43.5</ele><time>2026-04-21T14:50:16.001Z</time></trkpt><trkpt lat="43.87499423988946" lon="10.346169626368644"><ele>44.0</ele><time>2026-04-21T14:50:17.001Z</time></trkpt><trkpt lat="43.87479825251617" lon="10.346391495125795"><ele>51.0</ele><time>2026-04-21T14:50:18.001Z</time></trkpt><trkpt lat="43.874602720645356" lon="10.346617172033351"><ele>58.0</ele><time>2026-04-21T14:50:19.001Z</time></trkpt><trkpt lat="43.8744071867737" lon="10.346842656247235"><ele>62.0</ele><time>2026-04-21T14:50:20.001Z</time></trkpt><trkpt lat="43.87420937031608" lon="10.347062233897999"><ele>66.0</ele><time>2026-04-21T14:50:21.001Z</time></trkpt><trkpt lat="43.874009693764236" lon="10.347282607232726"><ele>72.0</ele><time>2026-04-21T14:50:22.001Z</time></trkpt><trkpt lat="43.873812083494116" lon="10.347505704698081"><ele>78.0</ele><time>2026-04-21T14:50:23.001Z</time></trkpt><trkpt lat="43.87361597622987" lon="10.347733919861927"><ele>87.0</ele><time>2026-04-21T14:50:24Z</time></trkpt><trkpt lat="43.87341804723944" lon="10.347956734173557"><ele>96.0</ele><time>2026-04-21T14:50:25Z</time></trkpt><trkpt lat="43.873214730433816" lon="10.348170637405756"><ele>101.5</ele><time>2026-04-21T14:50:26Z</time></trkpt><trkpt lat="43.87302091385335" lon="10.348379893337746"><ele>107.0</ele><time>2026-04-21T14:50:27Z</time></trkpt><trkpt lat="43.872821891732244" lon="10.348592862539984"><ele>107.0</ele><time>2026-04-21T14:50:28Z</time></trkpt><trkpt lat="43.87262352392379" lon="10.34880522130939"><ele>107.0</ele><time>2026-04-21T14:50:29Z</time></trkpt><trkpt lat="43.87242255918041" lon="10.34901720758671"><ele>99.0</ele><time>2026-04-21T14:50:30Z</time></trkpt><trkpt lat="43.87223318791364" lon="10.349220563111357"><ele>91.0</ele><time>2026-04-21T14:50:31Z</time></trkpt><trkpt lat="43.8720331605261" lon="10.349559968120845"><ele>94.0</ele><time>2026-04-21T14:50:32Z</time></trkpt><trkpt lat="43.87186446134286" lon="10.349816541916372"><ele>97.0</ele><time>2026-04-21T14:50:33Z</time></trkpt><trkpt lat="43.87170082359735" lon="10.350078722432992"><ele>94.0</ele><time>2026-04-21T14:50:34Z</time></trkpt><trkpt lat="43.87155043858645" lon="10.350353201806449"><ele>91.0</ele><time>2026-04-21T14:50:35Z</time></trkpt><trkpt lat="43.871403753809446" lon="10.350618235163376"><ele>91.0</ele><time>2026-04-21T14:50:36Z</time></trkpt><trkpt lat="43.87129210708902" lon="10.350914724644225"><ele>91.0</ele><time>2026-04-21T14:50:37Z</time></trkpt><trkpt lat="43.871186102793324" lon="10.35121055563747"><ele>93.0</ele><time>2026-04-21T14:50:38Z</time></trkpt><trkpt lat="43.871090432852085" lon="10.351506347870382"><ele>95.0</ele><time>2026-04-21T14:50:39Z</time></trkpt><trkpt lat="43.87100196817682" lon="10.351813837568518"><ele>95.0</ele><time>2026-04-21T14:50:40Z</time></trkpt><trkpt lat="43.87092777963834" lon="10.352133009348623"><ele>95.0</ele><time>2026-04-21T14:50:41Z</time></trkpt><trkpt lat="43.870860494296835" lon="10.35245140600596"><ele>106.5</ele><time>2026-04-21T14:50:42Z</time></trkpt><trkpt lat="43.87080667666551" lon="10.35276185036592"><ele>118.0</ele><time>2026-04-21T14:50:43Z</time></trkpt><trkpt lat="43.87076472786786" lon="10.353092434555208"><ele>130.0</ele><time>2026-04-21T14:50:44Z</time></trkpt><trkpt lat="43.87071809303068" lon="10.353414733349176"><ele>142.0</ele><time>2026-04-21T14:50:45Z</time></trkpt><trkpt lat="43.87067364971661" lon="10.35375795969161"><ele>140.5</ele><time>2026-04-21T14:50:46Z</time></trkpt><trkpt lat="43.870660410510816" lon="10.354088775313343"><ele>139.0</ele><time>2026-04-21T14:50:47Z</time></trkpt><trkpt lat="43.87065845705958" lon="10.354445278546233"><ele>128.0</ele><time>2026-04-21T14:50:48.068Z</time></trkpt><trkpt lat="43.87065922015845" lon="10.35478457243035"><ele>117.0</ele><time>2026-04-21T14:50:49.062Z</time></trkpt><trkpt lat="43.8706601030762" lon="10.355131670741418"><ele>117.0</ele><time>2026-04-21T14:50:50.065Z</time></trkpt><trkpt lat="43.87066096907853" lon="10.355472127896313"><ele>117.0</ele><time>2026-04-21T14:50:51.062Z</time></trkpt><trkpt lat="43.87066220059313" lon="10.35615782194622"><ele>106.5</ele><time>2026-04-21T14:50:53Z</time></trkpt><trkpt lat="43.870662300078564" lon="10.35650372190789"><ele>96.0</ele><time>2026-04-21T14:50:54Z</time></trkpt><trkpt lat="43.870660097522375" lon="10.356871189906261"><ele>96.0</ele><time>2026-04-21T14:50:55Z</time></trkpt><trkpt lat="43.87070339960384" lon="10.357189895073637"><ele>96.0</ele><time>2026-04-21T14:50:56Z</time></trkpt><trkpt lat="43.870707227109115" lon="10.357509372747122"><ele>91.0</ele><time>2026-04-21T14:50:57Z</time></trkpt><trkpt lat="43.87071008780446" lon="10.357823486970362"><ele>86.0</ele><time>2026-04-21T14:50:58Z</time></trkpt><trkpt lat="43.87070966325716" lon="10.35814469654563"><ele>86.0</ele><time>2026-04-21T14:50:59Z</time></trkpt><trkpt lat="43.8707093985464" lon="10.358463227398593"><ele>86.0</ele><time>2026-04-21T14:51:00Z</time></trkpt><trkpt lat="43.870706060132285" lon="10.35878412118207"><ele>83.5</ele><time>2026-04-21T14:51:01Z</time></trkpt><trkpt lat="43.87070203597679" lon="10.359106418733173"><ele>81.0</ele><time>2026-04-21T14:51:02Z</time></trkpt><trkpt lat="43.87069160461146" lon="10.359425627918514"><ele>74.5</ele><time>2026-04-21T14:51:03Z</time></trkpt><trkpt lat="43.8706691174906" lon="10.359745394002442"><ele>68.0</ele><time>2026-04-21T14:51:04Z</time></trkpt><trkpt lat="43.87063285705286" lon="10.360066387533488"><ele>68.0</ele><time>2026-04-21T14:51:05Z</time></trkpt><trkpt lat="43.87058301677481" lon="10.360386895928059"><ele>68.0</ele><time>2026-04-21T14:51:06Z</time></trkpt><trkpt lat="43.8705199111216" lon="10.360706111562145"><ele>61.5</ele><time>2026-04-21T14:51:07Z</time></trkpt><trkpt lat="43.87044610027946" lon="10.361025079682207"><ele>55.0</ele><time>2026-04-21T14:51:08Z</time></trkpt><trkpt lat="43.87036609934429" lon="10.361340650179269"><ele>53.0</ele><time>2026-04-21T14:51:09Z</time></trkpt><trkpt lat="43.87027556153162" lon="10.361651843101267"><ele>51.0</ele><time>2026-04-21T14:51:10Z</time></trkpt><trkpt lat="43.87017541253349" lon="10.361956989174422"><ele>62.5</ele><time>2026-04-21T14:51:11Z</time></trkpt><trkpt lat="43.870066097565456" lon="10.362255051363515"><ele>74.0</ele><time>2026-04-21T14:51:12Z</time></trkpt><trkpt lat="43.86994229793626" lon="10.36254390216001"><ele>74.0</ele><time>2026-04-21T14:51:13Z</time></trkpt><trkpt lat="43.86981260040096" lon="10.362828131794398"><ele>74.0</ele><time>2026-04-21T14:51:14Z</time></trkpt><trkpt lat="43.86967408856772" lon="10.363105846111143"><ele>83.0</ele><time>2026-04-21T14:51:15Z</time></trkpt><trkpt lat="43.869526681353925" lon="10.363372071762017"><ele>92.0</ele><time>2026-04-21T14:51:16Z</time></trkpt><trkpt lat="43.86937179584089" lon="10.363625590809688"><ele>103.0</ele><time>2026-04-21T14:51:17Z</time></trkpt><trkpt lat="43.8692103509202" lon="10.36386896892645"><ele>114.0</ele><time>2026-04-21T14:51:18Z</time></trkpt><trkpt lat="43.86904146197691" lon="10.364103405232802"><ele>114.0</ele><time>2026-04-21T14:51:19Z</time></trkpt><trkpt lat="43.868865266332975" lon="10.364326998475162"><ele>114.0</ele><time>2026-04-21T14:51:20Z</time></trkpt><trkpt lat="43.8686848197404" lon="10.364534713947826"><ele>115.5</ele><time>2026-04-21T14:51:21Z</time></trkpt><trkpt lat="43.86849701121032" lon="10.364731561751316"><ele>117.0</ele><time>2026-04-21T14:51:22Z</time></trkpt><trkpt lat="43.86830261855759" lon="10.364914405318697"><ele>104.0</ele><time>2026-04-21T14:51:23Z</time></trkpt><trkpt lat="43.86810440361977" lon="10.365082818278204"><ele>91.0</ele><time>2026-04-21T14:51:24Z</time></trkpt><trkpt lat="43.86790153409741" lon="10.36524347431566"><ele>91.0</ele><time>2026-04-21T14:51:25Z</time></trkpt><trkpt lat="43.867693485005596" lon="10.365388315474172"><ele>91.0</ele><time>2026-04-21T14:51:26Z</time></trkpt><trkpt lat="43.86748176788839" lon="10.365523608330616"><ele>83.5</ele><time>2026-04-21T14:51:27Z</time></trkpt><trkpt lat="43.867263414953904" lon="10.365648218750264"><ele>76.0</ele><time>2026-04-21T14:51:28Z</time></trkpt><trkpt lat="43.86704064569884" lon="10.365758363682861"><ele>76.0</ele><time>2026-04-21T14:51:29Z</time></trkpt><trkpt lat="43.86681133330381" lon="10.365854486521783"><ele>76.0</ele><time>2026-04-21T14:51:30Z</time></trkpt><trkpt lat="43.86657594163658" lon="10.365937120618817"><ele>76.0</ele><time>2026-04-21T14:51:31Z</time></trkpt><trkpt lat="43.866335623413896" lon="10.366009624456183"><ele>76.0</ele><time>2026-04-21T14:51:32Z</time></trkpt><trkpt lat="43.8660931028085" lon="10.366069485737897"><ele>69.5</ele><time>2026-04-21T14:51:33Z</time></trkpt><trkpt lat="43.86584661389034" lon="10.366124036535467"><ele>63.0</ele><time>2026-04-21T14:51:34Z</time></trkpt><trkpt lat="43.86559891451013" lon="10.366180730331775"><ele>63.0</ele><time>2026-04-21T14:51:35Z</time></trkpt><trkpt lat="43.86534859033059" lon="10.366238503239664"><ele>63.0</ele><time>2026-04-21T14:51:36Z</time></trkpt><trkpt lat="43.865097594646336" lon="10.366294567904182"><ele>66.5</ele><time>2026-04-21T14:51:37Z</time></trkpt><trkpt lat="43.864845646403815" lon="10.366353867438848"><ele>70.0</ele><time>2026-04-21T14:51:38Z</time></trkpt><trkpt lat="43.864591476348586" lon="10.3664182842887"><ele>83.0</ele><time>2026-04-21T14:51:39Z</time></trkpt><trkpt lat="43.8643348854627" lon="10.366482667746324"><ele>96.0</ele><time>2026-04-21T14:51:40Z</time></trkpt><trkpt lat="43.86408277049225" lon="10.366548592335992"><ele>110.0</ele><time>2026-04-21T14:51:41Z</time></trkpt><trkpt lat="43.86382645199428" lon="10.366615226712478"><ele>124.0</ele><time>2026-04-21T14:51:42Z</time></trkpt><trkpt lat="43.86356756806578" lon="10.366677397033056"><ele>124.0</ele><time>2026-04-21T14:51:43Z</time></trkpt><trkpt lat="43.86330565377626" lon="10.366742485087387"><ele>124.0</ele><time>2026-04-21T14:51:44Z</time></trkpt><trkpt lat="43.86305061424277" lon="10.36680198783963"><ele>124.0</ele><time>2026-04-21T14:51:45Z</time></trkpt><trkpt lat="43.86279612924645" lon="10.36686077160329"><ele>124.0</ele><time>2026-04-21T14:51:46Z</time></trkpt><trkpt lat="43.862539559515334" lon="10.366920963998197"><ele>125.5</ele><time>2026-04-21T14:51:47Z</time></trkpt><trkpt lat="43.86228360395661" lon="10.366979466283023"><ele>127.0</ele><time>2026-04-21T14:51:48Z</time></trkpt><trkpt lat="43.86202605815578" lon="10.367036347573977"><ele>135.5</ele><time>2026-04-21T14:51:49Z</time></trkpt><trkpt lat="43.86176960231797" lon="10.367095834155501"><ele>144.0</ele><time>2026-04-21T14:51:50Z</time></trkpt><trkpt lat="43.86151616419949" lon="10.36716137060043"><ele>150.0</ele><time>2026-04-21T14:51:51Z</time></trkpt><trkpt lat="43.86126648378094" lon="10.367227831980541"><ele>156.0</ele><time>2026-04-21T14:51:52Z</time></trkpt><trkpt lat="43.86101818557444" lon="10.36729167492293"><ele>147.5</ele><time>2026-04-21T14:51:53Z</time></trkpt><trkpt lat="43.860773968244835" lon="10.367357555693117"><ele>139.0</ele><time>2026-04-21T14:51:54.001Z</time></trkpt><trkpt lat="43.860540487172536" lon="10.367430230030486"><ele>139.0</ele><time>2026-04-21T14:51:55.001Z</time></trkpt><trkpt lat="43.86030751582779" lon="10.36752065986067"><ele>139.0</ele><time>2026-04-21T14:51:56.001Z</time></trkpt><trkpt lat="43.86007316292063" lon="10.367624046742808"><ele>134.5</ele><time>2026-04-21T14:51:57.001Z</time></trkpt><trkpt lat="43.85984436642174" lon="10.367740736461865"><ele>130.0</ele><time>2026-04-21T14:51:58.001Z</time></trkpt><trkpt lat="43.85962350785795" lon="10.36787266846503"><ele>130.0</ele><time>2026-04-21T14:51:59.001Z</time></trkpt><trkpt lat="43.85940711922068" lon="10.368023625892869"><ele>130.0</ele><time>2026-04-21T14:52:00.001Z</time></trkpt><trkpt lat="43.85919387181797" lon="10.368187874643137"><ele>140.0</ele><time>2026-04-21T14:52:01.001Z</time></trkpt><trkpt lat="43.85899053105782" lon="10.368364778587825"><ele>150.0</ele><time>2026-04-21T14:52:02.001Z</time></trkpt><trkpt lat="43.8587923033891" lon="10.368552720458657"><ele>150.0</ele><time>2026-04-21T14:52:03.001Z</time></trkpt><trkpt lat="43.85858820239134" lon="10.36874106134695"><ele>150.0</ele><time>2026-04-21T14:52:04.001Z</time></trkpt><trkpt lat="43.8583875192717" lon="10.368935906664715"><ele>140.0</ele><time>2026-04-21T14:52:05.001Z</time></trkpt><trkpt lat="43.858182231764836" lon="10.369129970826126"><ele>130.0</ele><time>2026-04-21T14:52:06.001Z</time></trkpt><trkpt lat="43.857979245253915" lon="10.369329490000915"><ele>130.0</ele><time>2026-04-21T14:52:07.001Z</time></trkpt><trkpt lat="43.85777952523092" lon="10.369534379942415"><ele>130.0</ele><time>2026-04-21T14:52:08.001Z</time></trkpt><trkpt lat="43.85757750050611" lon="10.369728904243576"><ele>123.5</ele><time>2026-04-21T14:52:09.001Z</time></trkpt><trkpt lat="43.85737148399649" lon="10.369919099083418"><ele>117.0</ele><time>2026-04-21T14:52:10.001Z</time></trkpt><trkpt lat="43.857165810226284" lon="10.3701135557006"><ele>117.0</ele><time>2026-04-21T14:52:11.001Z</time></trkpt><trkpt lat="43.856962120549504" lon="10.370310255960852"><ele>117.0</ele><time>2026-04-21T14:52:12.001Z</time></trkpt><trkpt lat="43.85675580390411" lon="10.37051145071769"><ele>127.5</ele><time>2026-04-21T14:52:13.001Z</time></trkpt><trkpt lat="43.856550570907785" lon="10.370716507248922"><ele>138.0</ele><time>2026-04-21T14:52:14.001Z</time></trkpt><trkpt lat="43.85634235948218" lon="10.37092027519195"><ele>138.0</ele><time>2026-04-21T14:52:15.001Z</time></trkpt><trkpt lat="43.85613086063764" lon="10.371127756479373"><ele>138.0</ele><time>2026-04-21T14:52:16.001Z</time></trkpt><trkpt lat="43.85591797647215" lon="10.37133847131812"><ele>145.5</ele><time>2026-04-21T14:52:17.001Z</time></trkpt><trkpt lat="43.85570416507169" lon="10.371550713443142"><ele>153.0</ele><time>2026-04-21T14:52:18.001Z</time></trkpt><trkpt lat="43.855494030835814" lon="10.371761012853936"><ele>153.0</ele><time>2026-04-21T14:52:19.001Z</time></trkpt><trkpt lat="43.85527877859132" lon="10.371972105163387"><ele>153.0</ele><time>2026-04-21T14:52:20.001Z</time></trkpt><trkpt lat="43.855063488242735" lon="10.372181899991881"><ele>155.5</ele><time>2026-04-21T14:52:21.001Z</time></trkpt><trkpt lat="43.854849611310804" lon="10.372390511803848"><ele>158.0</ele><time>2026-04-21T14:52:22.001Z</time></trkpt><trkpt lat="43.85463883062576" lon="10.372602750791554"><ele>158.0</ele><time>2026-04-21T14:52:23.001Z</time></trkpt><trkpt lat="43.85443069994485" lon="10.372817928384379"><ele>158.0</ele><time>2026-04-21T14:52:24.001Z</time></trkpt><trkpt lat="43.854229953542344" lon="10.373038910207189"><ele>151.5</ele><time>2026-04-21T14:52:25.001Z</time></trkpt><trkpt lat="43.85404546041301" lon="10.373284827727023"><ele>145.0</ele><time>2026-04-21T14:52:26.001Z</time></trkpt><trkpt lat="43.853874648073564" lon="10.373473613575351"><ele>145.0</ele><time>2026-04-21T14:52:27.001Z</time></trkpt><trkpt lat="43.8537214117884" lon="10.373703136822899"><ele>145.0</ele><time>2026-04-21T14:52:28.001Z</time></trkpt><trkpt lat="43.85357157840312" lon="10.373952462284079"><ele>141.5</ele><time>2026-04-21T14:52:29.001Z</time></trkpt><trkpt lat="43.85342913842407" lon="10.374216791871657"><ele>138.0</ele><time>2026-04-21T14:52:30Z</time></trkpt><trkpt lat="43.85329694431901" lon="10.374487281775504"><ele>150.0</ele><time>2026-04-21T14:52:31Z</time></trkpt><trkpt lat="43.853166216198126" lon="10.374771649157665"><ele>162.0</ele><time>2026-04-21T14:52:32Z</time></trkpt><trkpt lat="43.85305670906738" lon="10.375063658763"><ele>162.0</ele><time>2026-04-21T14:52:33Z</time></trkpt><trkpt lat="43.852958783997366" lon="10.375383205630582"><ele>162.0</ele><time>2026-04-21T14:52:34Z</time></trkpt><trkpt lat="43.852855208054585" lon="10.375685292421062"><ele>175.0</ele><time>2026-04-21T14:52:35Z</time></trkpt><trkpt lat="43.85275481862017" lon="10.37598819732226"><ele>188.0</ele><time>2026-04-21T14:52:36Z</time></trkpt><trkpt lat="43.85269393217204" lon="10.376308026051785"><ele>178.0</ele><time>2026-04-21T14:52:37Z</time></trkpt><trkpt lat="43.852434916365134" lon="10.380038549719766"><ele>165.0</ele><time>2026-04-21T14:52:43.388Z</time></trkpt><trkpt lat="43.852356985444274" lon="10.381406327913025"><ele>168.0</ele><time>2026-04-21T14:52:44.391Z</time></trkpt><trkpt lat="43.85233630119965" lon="10.382773961644563"><ele>170.0</ele><time>2026-04-21T14:52:45.391Z</time></trkpt><trkpt lat="43.85236645221625" lon="10.384137110444554"><ele>169.0</ele><time>2026-04-21T14:52:46.388Z</time></trkpt><trkpt lat="43.852451178024616" lon="10.385499961940075"><ele>147.0</ele><time>2026-04-21T14:52:47.388Z</time></trkpt><trkpt lat="43.85258904568639" lon="10.386854549433068"><ele>172.0</ele><time>2026-04-21T14:52:48.388Z</time></trkpt><trkpt lat="43.85278675762851" lon="10.38819834330105"><ele>153.0</ele><time>2026-04-21T14:52:49.391Z</time></trkpt><trkpt lat="43.8529399363169" lon="10.38932270829619"><ele>153.0</ele><time>2026-04-21T14:53:12Z</time></trkpt><trkpt lat="43.85297578367579" lon="10.389628665890273"><ele>153.0</ele><time>2026-04-21T14:53:13Z</time></trkpt><trkpt lat="43.85309752118377" lon="10.390078093016855"><ele>145.0</ele><time>2026-04-21T14:53:14Z</time></trkpt><trkpt lat="43.85316331303153" lon="10.390463704330555"><ele>137.0</ele><time>2026-04-21T14:53:15Z</time></trkpt><trkpt lat="43.85321521516321" lon="10.390848387180835"><ele>131.0</ele><time>2026-04-21T14:53:16Z</time></trkpt><trkpt lat="43.85327661342595" lon="10.39121618383731"><ele>125.0</ele><time>2026-04-21T14:53:17Z</time></trkpt><trkpt lat="43.85334041831396" lon="10.391582467647703"><ele>124.5</ele><time>2026-04-21T14:53:18Z</time></trkpt><trkpt lat="43.853401280483205" lon="10.391949213200181"><ele>124.0</ele><time>2026-04-21T14:53:19Z</time></trkpt><trkpt lat="43.85346136340631" lon="10.392309071296607"><ele>119.0</ele><time>2026-04-21T14:53:20Z</time></trkpt><trkpt lat="43.853517148010724" lon="10.39267430562695"><ele>114.0</ele><time>2026-04-21T14:53:21Z</time></trkpt><trkpt lat="43.85356437857202" lon="10.393046914467124"><ele>109.5</ele><time>2026-04-21T14:53:22Z</time></trkpt><trkpt lat="43.85361282882434" lon="10.393411554784366"><ele>105.0</ele><time>2026-04-21T14:53:23Z</time></trkpt><trkpt lat="43.85365090817111" lon="10.39376979083907"><ele>102.0</ele><time>2026-04-21T14:53:24Z</time></trkpt><trkpt lat="43.85368653682051" lon="10.394128873465144"><ele>99.0</ele><time>2026-04-21T14:53:25Z</time></trkpt><trkpt lat="43.85370961406945" lon="10.394497804290868"><ele>97.5</ele><time>2026-04-21T14:53:26Z</time></trkpt><trkpt lat="43.85372325671736" lon="10.394869757153556"><ele>96.0</ele><time>2026-04-21T14:53:27Z</time></trkpt><trkpt lat="43.85372571650367" lon="10.395245076411067"><ele>97.0</ele><time>2026-04-21T14:53:28Z</time></trkpt><trkpt lat="43.8537184457158" lon="10.395621125415037"><ele>98.0</ele><time>2026-04-21T14:53:29Z</time></trkpt><trkpt lat="43.853712874401566" lon="10.39600145565807"><ele>95.5</ele><time>2026-04-21T14:53:30Z</time></trkpt><trkpt lat="43.85370867883815" lon="10.396379449565982"><ele>93.0</ele><time>2026-04-21T14:53:31Z</time></trkpt><trkpt lat="43.85371223220653" lon="10.396777877179078"><ele>93.0</ele><time>2026-04-21T14:53:32Z</time></trkpt><trkpt lat="43.85370162677177" lon="10.397163849079014"><ele>93.0</ele><time>2026-04-21T14:53:33Z</time></trkpt><trkpt lat="43.8536938906203" lon="10.397552456196134"><ele>90.0</ele><time>2026-04-21T14:53:34Z</time></trkpt><trkpt lat="43.853681779226925" lon="10.39793909909896"><ele>87.0</ele><time>2026-04-21T14:53:35Z</time></trkpt><trkpt lat="43.85366938640057" lon="10.398328999381256"><ele>85.5</ele><time>2026-04-21T14:53:36Z</time></trkpt><trkpt lat="43.8536474649046" lon="10.398707696153789"><ele>84.0</ele><time>2026-04-21T14:53:37Z</time></trkpt><trkpt lat="43.853637467077036" lon="10.39907686006376"><ele>82.5</ele><time>2026-04-21T14:53:38Z</time></trkpt><trkpt lat="43.85363228408231" lon="10.399442617655671"><ele>81.0</ele><time>2026-04-21T14:53:39Z</time></trkpt><trkpt lat="43.85363170031234" lon="10.399799931628793"><ele>78.5</ele><time>2026-04-21T14:53:40Z</time></trkpt><trkpt lat="43.85363309563964" lon="10.400158846698586"><ele>76.0</ele><time>2026-04-21T14:53:41Z</time></trkpt><trkpt lat="43.853628767141224" lon="10.400526965299294"><ele>74.5</ele><time>2026-04-21T14:53:42Z</time></trkpt><trkpt lat="43.853624730756906" lon="10.40089703144641"><ele>73.0</ele><time>2026-04-21T14:53:43Z</time></trkpt><trkpt lat="43.85361951848791" lon="10.40125705292017"><ele>72.0</ele><time>2026-04-21T14:53:44Z</time></trkpt><trkpt lat="43.853612612902936" lon="10.401618520952246"><ele>71.0</ele><time>2026-04-21T14:53:45Z</time></trkpt><trkpt lat="43.85360663831411" lon="10.401979460837211"><ele>69.0</ele><time>2026-04-21T14:53:46Z</time></trkpt><trkpt lat="43.85360235161095" lon="10.402340562224563"><ele>67.0</ele><time>2026-04-21T14:53:47Z</time></trkpt><trkpt lat="43.85359795997492" lon="10.402700868713264"><ele>68.0</ele><time>2026-04-21T14:53:48Z</time></trkpt><trkpt lat="43.85359049696736" lon="10.403064918616497"><ele>69.0</ele><time>2026-04-21T14:53:49Z</time></trkpt><trkpt lat="43.85358688063214" lon="10.403434681450255"><ele>69.0</ele><time>2026-04-21T14:53:50Z</time></trkpt><trkpt lat="43.85358074455099" lon="10.403811405235661"><ele>69.0</ele><time>2026-04-21T14:53:51Z</time></trkpt><trkpt lat="43.85357592159177" lon="10.40417938152053"><ele>69.5</ele><time>2026-04-21T14:53:52Z</time></trkpt><trkpt lat="43.853570396356176" lon="10.40455626605366"><ele>70.0</ele><time>2026-04-21T14:53:53.001Z</time></trkpt><trkpt lat="43.853564775768426" lon="10.404928719481845"><ele>68.0</ele><time>2026-04-21T14:53:54.001Z</time></trkpt><trkpt lat="43.85355995280224" lon="10.405312292959897"><ele>66.0</ele><time>2026-04-21T14:53:55.001Z</time></trkpt><trkpt lat="43.85355607937026" lon="10.40569926766955"><ele>63.5</ele><time>2026-04-21T14:53:56.001Z</time></trkpt><trkpt lat="43.8535496507815" lon="10.406089326549232"><ele>61.0</ele><time>2026-04-21T14:53:57.001Z</time></trkpt><trkpt lat="43.8535429783002" lon="10.406481766536675"><ele>60.5</ele><time>2026-04-21T14:53:58.001Z</time></trkpt><trkpt lat="43.85353676921236" lon="10.406877553538283"><ele>60.0</ele><time>2026-04-21T14:53:59.001Z</time></trkpt><trkpt lat="43.85352706067795" lon="10.407271312126717"><ele>59.5</ele><time>2026-04-21T14:54:00.001Z</time></trkpt><trkpt lat="43.853514835500455" lon="10.407666939633991"><ele>59.0</ele><time>2026-04-21T14:54:01.001Z</time></trkpt><trkpt lat="43.853494498052996" lon="10.408063013061916"><ele>59.0</ele><time>2026-04-21T14:54:02.001Z</time></trkpt><trkpt lat="43.85347447407299" lon="10.408461634681839"><ele>59.0</ele><time>2026-04-21T14:54:03.001Z</time></trkpt><trkpt lat="43.853456442389856" lon="10.408855168107179"><ele>60.0</ele><time>2026-04-21T14:54:04.001Z</time></trkpt><trkpt lat="43.85344055955562" lon="10.409247091240486"><ele>61.0</ele><time>2026-04-21T14:54:05.001Z</time></trkpt><trkpt lat="43.85342779268185" lon="10.409643543957898"><ele>57.0</ele><time>2026-04-21T14:54:06.001Z</time></trkpt><trkpt lat="43.853417110962" lon="10.410041570783712"><ele>53.0</ele><time>2026-04-21T14:54:07.001Z</time></trkpt><trkpt lat="43.85340575468311" lon="10.41044314415655"><ele>50.0</ele><time>2026-04-21T14:54:08.001Z</time></trkpt><trkpt lat="43.85339868880764" lon="10.41084207257988"><ele>47.0</ele><time>2026-04-21T14:54:09.001Z</time></trkpt><trkpt lat="43.8533901683511" lon="10.41124255721945"><ele>46.0</ele><time>2026-04-21T14:54:10.001Z</time></trkpt><trkpt lat="43.85338253247743" lon="10.411647314844178"><ele>45.0</ele><time>2026-04-21T14:54:11.001Z</time></trkpt><trkpt lat="43.853371621846335" lon="10.412050832564521"><ele>43.0</ele><time>2026-04-21T14:54:12.001Z</time></trkpt><trkpt lat="43.85335956482181" lon="10.41245363711222"><ele>41.0</ele><time>2026-04-21T14:54:13.001Z</time></trkpt><trkpt lat="43.853344063936184" lon="10.412855795690735"><ele>40.0</ele><time>2026-04-21T14:54:14.001Z</time></trkpt><trkpt lat="43.8533334358884" lon="10.413257392612051"><ele>39.0</ele><time>2026-04-21T14:54:15.001Z</time></trkpt><trkpt lat="43.85332338383311" lon="10.413657776819813"><ele>38.0</ele><time>2026-04-21T14:54:16.001Z</time></trkpt><trkpt lat="43.853314927194816" lon="10.414058459510448"><ele>37.0</ele><time>2026-04-21T14:54:17.001Z</time></trkpt><trkpt lat="43.85330670036567" lon="10.414462387953217"><ele>35.0</ele><time>2026-04-21T14:54:18.001Z</time></trkpt><trkpt lat="43.85329718961056" lon="10.41486589330871"><ele>33.0</ele><time>2026-04-21T14:54:19.001Z</time></trkpt><trkpt lat="43.853289715458054" lon="10.415271475248236"><ele>32.0</ele><time>2026-04-21T14:54:20.001Z</time></trkpt><trkpt lat="43.853278777609475" lon="10.415674333385471"><ele>31.0</ele><time>2026-04-21T14:54:21.001Z</time></trkpt><trkpt lat="43.85326769569377" lon="10.41607670364753"><ele>30.5</ele><time>2026-04-21T14:54:22.001Z</time></trkpt><trkpt lat="43.85325704719656" lon="10.416473790602094"><ele>30.0</ele><time>2026-04-21T14:54:23.001Z</time></trkpt><trkpt lat="43.85324495352738" lon="10.416867320603432"><ele>29.0</ele><time>2026-04-21T14:54:24.001Z</time></trkpt><trkpt lat="43.853234639601354" lon="10.417260776424182"><ele>28.0</ele><time>2026-04-21T14:54:25.001Z</time></trkpt><trkpt lat="43.85322510010536" lon="10.417652866581177"><ele>26.5</ele><time>2026-04-21T14:54:26.001Z</time></trkpt><trkpt lat="43.853216488104074" lon="10.41804332348748"><ele>25.0</ele><time>2026-04-21T14:54:27.001Z</time></trkpt><trkpt lat="43.85320483809676" lon="10.418433090340889"><ele>24.0</ele><time>2026-04-21T14:54:28.001Z</time></trkpt><trkpt lat="43.853193297491806" lon="10.418823022998174"><ele>23.0</ele><time>2026-04-21T14:54:29.001Z</time></trkpt><trkpt lat="43.853180742809954" lon="10.419212844321736"><ele>23.0</ele><time>2026-04-21T14:54:30.001Z</time></trkpt><trkpt lat="43.85316892468677" lon="10.419604327921107"><ele>23.0</ele><time>2026-04-21T14:54:31.001Z</time></trkpt><trkpt lat="43.8531570359525" lon="10.419996480863503"><ele>23.0</ele><time>2026-04-21T14:54:32.001Z</time></trkpt><trkpt lat="43.85314646283222" lon="10.420384872624584"><ele>23.0</ele><time>2026-04-21T14:54:33.001Z</time></trkpt><trkpt lat="43.85313651398625" lon="10.420778761651922"><ele>22.0</ele><time>2026-04-21T14:54:34.001Z</time></trkpt><trkpt lat="43.853128621299525" lon="10.421172277502905"><ele>21.0</ele><time>2026-04-21T14:54:35.001Z</time></trkpt><trkpt lat="43.85311867510064" lon="10.42156675053174"><ele>20.5</ele><time>2026-04-21T14:54:36Z</time></trkpt><trkpt lat="43.85310792194884" lon="10.42196009960127"><ele>20.0</ele><time>2026-04-21T14:54:37Z</time></trkpt><trkpt lat="43.85309542791371" lon="10.422357025715062"><ele>20.0</ele><time>2026-04-21T14:54:38Z</time></trkpt><trkpt lat="43.8530848967369" lon="10.422757621076947"><ele>20.0</ele><time>2026-04-21T14:54:39Z</time></trkpt><trkpt lat="43.85307398982729" lon="10.423155655100924"><ele>19.0</ele><time>2026-04-21T14:54:40Z</time></trkpt><trkpt lat="43.853065017815474" lon="10.42354556852919"><ele>18.0</ele><time>2026-04-21T14:54:41Z</time></trkpt><trkpt lat="43.85305537228907" lon="10.423910325974088"><ele>18.0</ele><time>2026-04-21T14:54:42Z</time></trkpt><trkpt lat="43.853047150966574" lon="10.424270242245415"><ele>18.0</ele><time>2026-04-21T14:54:43Z</time></trkpt><trkpt lat="43.85303732927262" lon="10.424632057802961"><ele>18.0</ele><time>2026-04-21T14:54:44Z</time></trkpt><trkpt lat="43.85302816583013" lon="10.424994359399141"><ele>18.0</ele><time>2026-04-21T14:54:45Z</time></trkpt><trkpt lat="43.85301840335418" lon="10.425354127757855"><ele>17.5</ele><time>2026-04-21T14:54:46Z</time></trkpt><trkpt lat="43.85300800062061" lon="10.425697474860455"><ele>17.0</ele><time>2026-04-21T14:54:47Z</time></trkpt><trkpt lat="43.85299819381785" lon="10.426032328884991"><ele>16.5</ele><time>2026-04-21T14:54:48Z</time></trkpt><trkpt lat="43.85298980819063" lon="10.426370145796229"><ele>16.0</ele><time>2026-04-21T14:54:49Z</time></trkpt><trkpt lat="43.85298286887844" lon="10.426704592563913"><ele>16.0</ele><time>2026-04-21T14:54:50Z</time></trkpt><trkpt lat="43.85297174979145" lon="10.427048879273482"><ele>16.0</ele><time>2026-04-21T14:54:51Z</time></trkpt><trkpt lat="43.852964157849314" lon="10.427389579075431"><ele>16.0</ele><time>2026-04-21T14:54:52Z</time></trkpt><trkpt lat="43.85295396758937" lon="10.427737580858068"><ele>16.0</ele><time>2026-04-21T14:54:53Z</time></trkpt><trkpt lat="43.85294260130112" lon="10.428082814619346"><ele>16.5</ele><time>2026-04-21T14:54:54Z</time></trkpt><trkpt lat="43.852932897702004" lon="10.428428595815351"><ele>17.0</ele><time>2026-04-21T14:54:55Z</time></trkpt><trkpt lat="43.85292105522973" lon="10.428777709831895"><ele>17.0</ele><time>2026-04-21T14:54:56Z</time></trkpt><trkpt lat="43.85291103089032" lon="10.42913154890555"><ele>17.0</ele><time>2026-04-21T14:54:57Z</time></trkpt><trkpt lat="43.85289874289743" lon="10.429486517760166"><ele>17.0</ele><time>2026-04-21T14:54:58Z</time></trkpt><trkpt lat="43.852880767523764" lon="10.429843679714265"><ele>17.0</ele><time>2026-04-21T14:54:59Z</time></trkpt><trkpt lat="43.852859273333706" lon="10.430211174001903"><ele>16.5</ele><time>2026-04-21T14:55:00Z</time></trkpt><trkpt lat="43.85283699269963" lon="10.430583794166637"><ele>16.0</ele><time>2026-04-21T14:55:01Z</time></trkpt><trkpt lat="43.8528060243164" lon="10.430956458658997"><ele>16.0</ele><time>2026-04-21T14:55:02Z</time></trkpt><trkpt lat="43.85277265039182" lon="10.43131941770641"><ele>16.0</ele><time>2026-04-21T14:55:03Z</time></trkpt><trkpt lat="43.85273721781882" lon="10.431684906728995"><ele>16.0</ele><time>2026-04-21T14:55:04Z</time></trkpt><trkpt lat="43.85269570539688" lon="10.432049385660637"><ele>16.0</ele><time>2026-04-21T14:55:05Z</time></trkpt><trkpt lat="43.85264861245841" lon="10.432419176305626"><ele>15.5</ele><time>2026-04-21T14:55:06Z</time></trkpt><trkpt lat="43.852595959889385" lon="10.432786294869539"><ele>15.0</ele><time>2026-04-21T14:55:07Z</time></trkpt><trkpt lat="43.852539408340355" lon="10.433152559422355"><ele>15.0</ele><time>2026-04-21T14:55:08Z</time></trkpt><trkpt lat="43.85247910943361" lon="10.433516187281237"><ele>15.0</ele><time>2026-04-21T14:55:09Z</time></trkpt><trkpt lat="43.85241858913138" lon="10.433883318086668"><ele>14.0</ele><time>2026-04-21T14:55:10Z</time></trkpt><trkpt lat="43.85235501640703" lon="10.434241447926293"><ele>13.0</ele><time>2026-04-21T14:55:11Z</time></trkpt><trkpt lat="43.85228604296305" lon="10.434601753928966"><ele>13.0</ele><time>2026-04-21T14:55:12Z</time></trkpt><trkpt lat="43.852213008794585" lon="10.434955977516227"><ele>13.0</ele><time>2026-04-21T14:55:13Z</time></trkpt><trkpt lat="43.85213519821957" lon="10.43530471533672"><ele>13.5</ele><time>2026-04-21T14:55:14Z</time></trkpt><trkpt lat="43.85205427131377" lon="10.435650966444644"><ele>14.0</ele><time>2026-04-21T14:55:15Z</time></trkpt><trkpt lat="43.85197018778248" lon="10.435990688762004"><ele>14.0</ele><time>2026-04-21T14:55:16Z</time></trkpt><trkpt lat="43.85188681021283" lon="10.436320127786818"><ele>14.0</ele><time>2026-04-21T14:55:17Z</time></trkpt><trkpt lat="43.85180117567713" lon="10.436646002235829"><ele>14.5</ele><time>2026-04-21T14:55:18Z</time></trkpt><trkpt lat="43.85170933666563" lon="10.436974467307685"><ele>15.0</ele><time>2026-04-21T14:55:19Z</time></trkpt><trkpt lat="43.85162055516727" lon="10.437301458246939"><ele>15.5</ele><time>2026-04-21T14:55:20Z</time></trkpt><trkpt lat="43.851523504304915" lon="10.437624040266183"><ele>16.0</ele><time>2026-04-21T14:55:21Z</time></trkpt><trkpt lat="43.851421096940676" lon="10.437947905775415"><ele>15.5</ele><time>2026-04-21T14:55:22Z</time></trkpt><trkpt lat="43.85131616507803" lon="10.43827291788187"><ele>15.0</ele><time>2026-04-21T14:55:23Z</time></trkpt><trkpt lat="43.851204675968816" lon="10.438600831248795"><ele>14.0</ele><time>2026-04-21T14:55:24Z</time></trkpt><trkpt lat="43.85109300792331" lon="10.438921892125371"><ele>13.0</ele><time>2026-04-21T14:55:25Z</time></trkpt><trkpt lat="43.8509754984668" lon="10.439243471902751"><ele>13.0</ele><time>2026-04-21T14:55:26Z</time></trkpt><trkpt lat="43.85085593214607" lon="10.43956137552565"><ele>13.0</ele><time>2026-04-21T14:55:27Z</time></trkpt><trkpt lat="43.85073207624555" lon="10.43988207776037"><ele>13.5</ele><time>2026-04-21T14:55:28Z</time></trkpt><trkpt lat="43.85060500382383" lon="10.440197110342245"><ele>14.0</ele><time>2026-04-21T14:55:29Z</time></trkpt><trkpt lat="43.85047423194447" lon="10.440510022888668"><ele>14.0</ele><time>2026-04-21T14:55:30Z</time></trkpt><trkpt lat="43.850337382294676" lon="10.440820167612621"><ele>14.0</ele><time>2026-04-21T14:55:31Z</time></trkpt><trkpt lat="43.85020420295641" lon="10.44112720229374"><ele>13.5</ele><time>2026-04-21T14:55:32Z</time></trkpt><trkpt lat="43.85006303234834" lon="10.441436131595431"><ele>13.0</ele><time>2026-04-21T14:55:33Z</time></trkpt><trkpt lat="43.84991801158051" lon="10.441740598927048"><ele>13.0</ele><time>2026-04-21T14:55:34Z</time></trkpt><trkpt lat="43.84976825411095" lon="10.442039895434855"><ele>13.0</ele><time>2026-04-21T14:55:35Z</time></trkpt><trkpt lat="43.849614096438216" lon="10.44233892752305"><ele>12.5</ele><time>2026-04-21T14:55:36Z</time></trkpt><trkpt lat="43.84946155273453" lon="10.442641398360754"><ele>12.0</ele><time>2026-04-21T14:55:37Z</time></trkpt><trkpt lat="43.84931152546731" lon="10.44293604933266"><ele>12.5</ele><time>2026-04-21T14:55:38Z</time></trkpt><trkpt lat="43.84915878914016" lon="10.443234283648737"><ele>13.0</ele><time>2026-04-21T14:55:39Z</time></trkpt><trkpt lat="43.84900181747806" lon="10.443526841912076"><ele>13.5</ele><time>2026-04-21T14:55:40Z</time></trkpt><trkpt lat="43.84884732901073" lon="10.443817611009678"><ele>14.0</ele><time>2026-04-21T14:55:41Z</time></trkpt><trkpt lat="43.84869419485938" lon="10.444111851957992"><ele>14.0</ele><time>2026-04-21T14:55:42Z</time></trkpt><trkpt lat="43.848546438480675" lon="10.44440318337854"><ele>14.0</ele><time>2026-04-21T14:55:43Z</time></trkpt><trkpt lat="43.84839738248532" lon="10.444688326299346"><ele>14.5</ele><time>2026-04-21T14:55:44Z</time></trkpt><trkpt lat="43.84825242744178" lon="10.444972873658918"><ele>15.0</ele><time>2026-04-21T14:55:45Z</time></trkpt><trkpt lat="43.84810774838691" lon="10.44525702854593"><ele>15.5</ele><time>2026-04-21T14:55:46Z</time></trkpt><trkpt lat="43.847960154520905" lon="10.445536360906527"><ele>16.0</ele><time>2026-04-21T14:55:47Z</time></trkpt><trkpt lat="43.84781906167299" lon="10.445818975206343"><ele>16.0</ele><time>2026-04-21T14:55:48Z</time></trkpt><trkpt lat="43.84767441950326" lon="10.446095284596355"><ele>16.0</ele><time>2026-04-21T14:55:49Z</time></trkpt><trkpt lat="43.847523685082066" lon="10.446376617865972"><ele>15.0</ele><time>2026-04-21T14:55:50Z</time></trkpt><trkpt lat="43.84737753776768" lon="10.446658103394984"><ele>14.0</ele><time>2026-04-21T14:55:51Z</time></trkpt><trkpt lat="43.84723191576841" lon="10.446940993672333"><ele>14.5</ele><time>2026-04-21T14:55:52Z</time></trkpt><trkpt lat="43.84708623457201" lon="10.447226798695622"><ele>15.0</ele><time>2026-04-21T14:55:53Z</time></trkpt><trkpt lat="43.84693887637526" lon="10.447517118084832"><ele>16.0</ele><time>2026-04-21T14:55:54Z</time></trkpt><trkpt lat="43.8467891490659" lon="10.4478048152174"><ele>17.0</ele><time>2026-04-21T14:55:55Z</time></trkpt><trkpt lat="43.84663722486698" lon="10.4480943976522"><ele>18.0</ele><time>2026-04-21T14:55:56Z</time></trkpt><trkpt lat="43.84648559995235" lon="10.448384796398225"><ele>19.0</ele><time>2026-04-21T14:55:57.001Z</time></trkpt><trkpt lat="43.84633371575354" lon="10.44867506418181"><ele>17.5</ele><time>2026-04-21T14:55:58.001Z</time></trkpt><trkpt lat="43.84617971545832" lon="10.448968759199504"><ele>16.0</ele><time>2026-04-21T14:55:59.001Z</time></trkpt><trkpt lat="43.84602477756028" lon="10.449264913426019"><ele>15.5</ele><time>2026-04-21T14:56:00.001Z</time></trkpt><trkpt lat="43.845874245434544" lon="10.449567787508096"><ele>15.0</ele><time>2026-04-21T14:56:01.001Z</time></trkpt><trkpt lat="43.84573320621687" lon="10.449842202048297"><ele>15.0</ele><time>2026-04-21T14:56:02.001Z</time></trkpt><trkpt lat="43.84559309453778" lon="10.450113488300357"><ele>15.0</ele><time>2026-04-21T14:56:03.001Z</time></trkpt><trkpt lat="43.84544683904734" lon="10.450398405046792"><ele>15.0</ele><time>2026-04-21T14:56:04.001Z</time></trkpt><trkpt lat="43.84529713611391" lon="10.450685573452043"><ele>15.0</ele><time>2026-04-21T14:56:05.001Z</time></trkpt><trkpt lat="43.845143462585746" lon="10.450971596650698"><ele>14.5</ele><time>2026-04-21T14:56:06.001Z</time></trkpt><trkpt lat="43.844994265696855" lon="10.451265839496624"><ele>14.0</ele><time>2026-04-21T14:56:07.001Z</time></trkpt><trkpt lat="43.84484011412329" lon="10.451558005184813"><ele>14.0</ele><time>2026-04-21T14:56:08.001Z</time></trkpt><trkpt lat="43.84468392373964" lon="10.451848675939052"><ele>14.0</ele><time>2026-04-21T14:56:09.001Z</time></trkpt><trkpt lat="43.84452966567935" lon="10.452146789983088"><ele>13.5</ele><time>2026-04-21T14:56:10.001Z</time></trkpt><trkpt lat="43.844378579743875" lon="10.452446508758541"><ele>13.0</ele><time>2026-04-21T14:56:11.001Z</time></trkpt><trkpt lat="43.84423100101646" lon="10.45273202157637"><ele>12.5</ele><time>2026-04-21T14:56:12.001Z</time></trkpt><trkpt lat="43.84408013126391" lon="10.453018430866926"><ele>12.0</ele><time>2026-04-21T14:56:13.001Z</time></trkpt><trkpt lat="43.84393069119749" lon="10.45330994793667"><ele>12.0</ele><time>2026-04-21T14:56:14.001Z</time></trkpt><trkpt lat="43.84378094317502" lon="10.453596311339723"><ele>12.0</ele><time>2026-04-21T14:56:15.001Z</time></trkpt><trkpt lat="43.84363248291927" lon="10.453877984365601"><ele>12.0</ele><time>2026-04-21T14:56:16.001Z</time></trkpt><trkpt lat="43.843481627364326" lon="10.454159076003627"><ele>12.0</ele><time>2026-04-21T14:56:17.001Z</time></trkpt><trkpt lat="43.843335344063114" lon="10.454440909243306"><ele>12.0</ele><time>2026-04-21T14:56:18.001Z</time></trkpt><trkpt lat="43.84319227240946" lon="10.454733451988107"><ele>12.0</ele><time>2026-04-21T14:56:19.001Z</time></trkpt><trkpt lat="43.843049066128316" lon="10.455017129575992"><ele>12.0</ele><time>2026-04-21T14:56:20.001Z</time></trkpt><trkpt lat="43.84290399606137" lon="10.455297244659745"><ele>12.0</ele><time>2026-04-21T14:56:21.001Z</time></trkpt><trkpt lat="43.84275992735073" lon="10.455579003508971"><ele>11.5</ele><time>2026-04-21T14:56:22.001Z</time></trkpt><trkpt lat="43.842613541687534" lon="10.455849482247686"><ele>11.0</ele><time>2026-04-21T14:56:23.001Z</time></trkpt><trkpt lat="43.84246838487334" lon="10.456126514442808"><ele>10.5</ele><time>2026-04-21T14:56:24.001Z</time></trkpt><trkpt lat="43.842327612986026" lon="10.456395476729593"><ele>10.0</ele><time>2026-04-21T14:56:25.001Z</time></trkpt><trkpt lat="43.84218697573698" lon="10.45666480897833"><ele>10.0</ele><time>2026-04-21T14:56:26.001Z</time></trkpt><trkpt lat="43.84204940626742" lon="10.456931016660498"><ele>10.0</ele><time>2026-04-21T14:56:27.001Z</time></trkpt><trkpt lat="43.84191142424977" lon="10.457197223766281"><ele>10.5</ele><time>2026-04-21T14:56:28.001Z</time></trkpt><trkpt lat="43.841775178039335" lon="10.457467907496651"><ele>11.0</ele><time>2026-04-21T14:56:29.001Z</time></trkpt><trkpt lat="43.84164015781787" lon="10.457741635809267"><ele>11.0</ele><time>2026-04-21T14:56:30.001Z</time></trkpt><trkpt lat="43.84150568541028" lon="10.458022737001233"><ele>11.0</ele><time>2026-04-21T14:56:31.001Z</time></trkpt><trkpt lat="43.84137011546643" lon="10.458300689330368"><ele>11.0</ele><time>2026-04-21T14:56:32.001Z</time></trkpt><trkpt lat="43.841229121986416" lon="10.45857980543794"><ele>11.0</ele><time>2026-04-21T14:56:33.001Z</time></trkpt><trkpt lat="43.84108703971354" lon="10.458855053307408"><ele>11.0</ele><time>2026-04-21T14:56:34.001Z</time></trkpt><trkpt lat="43.840947150641774" lon="10.459130614255887"><ele>11.0</ele><time>2026-04-21T14:56:35.001Z</time></trkpt><trkpt lat="43.8408002193713" lon="10.45940218438582"><ele>12.0</ele><time>2026-04-21T14:56:36.001Z</time></trkpt><trkpt lat="43.840651651338014" lon="10.459677462095419"><ele>13.0</ele><time>2026-04-21T14:56:37.001Z</time></trkpt><trkpt lat="43.84050449753216" lon="10.45995879529223"><ele>13.0</ele><time>2026-04-21T14:56:38.001Z</time></trkpt><trkpt lat="43.84036038922371" lon="10.460233075294152"><ele>13.0</ele><time>2026-04-21T14:56:39.001Z</time></trkpt><trkpt lat="43.84022881661807" lon="10.46047898908201"><ele>13.0</ele><time>2026-04-21T14:56:40.001Z</time></trkpt><trkpt lat="43.84009531330067" lon="10.460734378172905"><ele>13.0</ele><time>2026-04-21T14:56:41.001Z</time></trkpt><trkpt lat="43.83996034133583" lon="10.46100068016456"><ele>13.0</ele><time>2026-04-21T14:56:42Z</time></trkpt><trkpt lat="43.83982287799587" lon="10.46127402795159"><ele>13.0</ele><time>2026-04-21T14:56:43Z</time></trkpt><trkpt lat="43.839682868173206" lon="10.461552517410382"><ele>12.5</ele><time>2026-04-21T14:56:44Z</time></trkpt><trkpt lat="43.839542051127175" lon="10.461830224718383"><ele>12.0</ele><time>2026-04-21T14:56:45Z</time></trkpt><trkpt lat="43.83939584279596" lon="10.462112390280794"><ele>13.0</ele><time>2026-04-21T14:56:46Z</time></trkpt><trkpt lat="43.83924894594259" lon="10.462396141817122"><ele>14.0</ele><time>2026-04-21T14:56:47Z</time></trkpt><trkpt lat="43.83909867223999" lon="10.462680183357113"><ele>13.5</ele><time>2026-04-21T14:56:48Z</time></trkpt><trkpt lat="43.83895256934764" lon="10.4629539729334"><ele>13.0</ele><time>2026-04-21T14:56:49Z</time></trkpt><trkpt lat="43.83880669159857" lon="10.463230328409963"><ele>13.0</ele><time>2026-04-21T14:56:50Z</time></trkpt><trkpt lat="43.83866378263444" lon="10.463505665566684"><ele>13.0</ele><time>2026-04-21T14:56:51Z</time></trkpt><trkpt lat="43.83852054704825" lon="10.463783538756301"><ele>13.5</ele><time>2026-04-21T14:56:52Z</time></trkpt><trkpt lat="43.83838021139664" lon="10.464056180414891"><ele>14.0</ele><time>2026-04-21T14:56:53Z</time></trkpt><trkpt lat="43.83824598088384" lon="10.464320925324548"><ele>14.0</ele><time>2026-04-21T14:56:54Z</time></trkpt><trkpt lat="43.838112883163284" lon="10.464588593015169"><ele>14.0</ele><time>2026-04-21T14:56:55Z</time></trkpt><trkpt lat="43.837981359249625" lon="10.46485911024812"><ele>13.5</ele><time>2026-04-21T14:56:56Z</time></trkpt><trkpt lat="43.837851536506264" lon="10.465139694138974"><ele>13.0</ele><time>2026-04-21T14:56:57Z</time></trkpt><trkpt lat="43.83773094419201" lon="10.465409738565203"><ele>13.333333333333332</ele><time>2026-04-21T14:56:58Z</time></trkpt><trkpt lat="43.83761742560163" lon="10.46567973592005"><ele>13.666666666666668</ele><time>2026-04-21T14:56:59Z</time></trkpt><trkpt lat="43.83751605406632" lon="10.465943692848022"><ele>14.0</ele><time>2026-04-21T14:57:00Z</time></trkpt><trkpt lat="43.837421130712485" lon="10.466207679808495"><ele>14.0</ele><time>2026-04-21T14:57:01Z</time></trkpt><trkpt lat="43.83733077434203" lon="10.466488020727569"><ele>14.0</ele><time>2026-04-21T14:57:02Z</time></trkpt><trkpt lat="43.837243701114815" lon="10.466782206489276"><ele>14.0</ele><time>2026-04-21T14:57:03Z</time></trkpt><trkpt lat="43.83716097826321" lon="10.467084898632711"><ele>14.0</ele><time>2026-04-21T14:57:04Z</time></trkpt><trkpt lat="43.83708049749036" lon="10.467390006392183"><ele>13.666666666666668</ele><time>2026-04-21T14:57:05Z</time></trkpt><trkpt lat="43.83700809427734" lon="10.467683433578639"><ele>13.333333333333332</ele><time>2026-04-21T14:57:06Z</time></trkpt><trkpt lat="43.836940596109486" lon="10.467966694768595"><ele>13.0</ele><time>2026-04-21T14:57:07Z</time></trkpt><trkpt lat="43.836869007446204" lon="10.468254279831434"><ele>13.0</ele><time>2026-04-21T14:57:08Z</time></trkpt><trkpt lat="43.836794585940304" lon="10.46854957165908"><ele>13.0</ele><time>2026-04-21T14:57:09Z</time></trkpt><trkpt lat="43.836718522503595" lon="10.468852168443764"><ele>13.0</ele><time>2026-04-21T14:57:10Z</time></trkpt><trkpt lat="43.8366439920774" lon="10.469156936637296"><ele>13.0</ele><time>2026-04-21T14:57:11Z</time></trkpt><trkpt lat="43.836569492019194" lon="10.46945288103206"><ele>13.0</ele><time>2026-04-21T14:57:12Z</time></trkpt><trkpt lat="43.836500408403865" lon="10.46972756751764"><ele>13.0</ele><time>2026-04-21T14:57:13Z</time></trkpt><trkpt lat="43.83643339172352" lon="10.469990271333153"><ele>13.0</ele><time>2026-04-21T14:57:14Z</time></trkpt><trkpt lat="43.83636900009127" lon="10.470247585407598"><ele>13.0</ele><time>2026-04-21T14:57:15Z</time></trkpt><trkpt lat="43.83630369130284" lon="10.470517992559019"><ele>13.0</ele><time>2026-04-21T14:57:16Z</time></trkpt><trkpt lat="43.836238422967256" lon="10.470793291510516"><ele>13.0</ele><time>2026-04-21T14:57:17Z</time></trkpt><trkpt lat="43.8361690434422" lon="10.471067116215664"><ele>12.333333333333332</ele><time>2026-04-21T14:57:18Z</time></trkpt><trkpt lat="43.83609703562942" lon="10.471352715964136"><ele>11.666666666666666</ele><time>2026-04-21T14:57:19Z</time></trkpt><trkpt lat="43.836021645073345" lon="10.471643109333082"><ele>11.0</ele><time>2026-04-21T14:57:20Z</time></trkpt><trkpt lat="43.83594856748148" lon="10.471918692588075"><ele>10.666666666666666</ele><time>2026-04-21T14:57:21Z</time></trkpt><trkpt lat="43.83588005648081" lon="10.472172334052361"><ele>10.333333333333334</ele><time>2026-04-21T14:57:22Z</time></trkpt><trkpt lat="43.83581175606128" lon="10.472411878646362"><ele>10.0</ele><time>2026-04-21T14:57:23Z</time></trkpt><trkpt lat="43.83573136816796" lon="10.472649343031902"><ele>10.0</ele><time>2026-04-21T14:57:24Z</time></trkpt><trkpt lat="43.83563364980874" lon="10.472854354178375"><ele>10.0</ele><time>2026-04-21T14:57:25Z</time></trkpt><trkpt lat="43.83551471785785" lon="10.473044856889022"><ele>10.0</ele><time>2026-04-21T14:57:26Z</time></trkpt><trkpt lat="43.835387854412005" lon="10.473218957719475"><ele>10.666666666666668</ele><time>2026-04-21T14:57:27Z</time></trkpt><trkpt lat="43.83525261275698" lon="10.473373059836344"><ele>11.333333333333334</ele><time>2026-04-21T14:57:28Z</time></trkpt><trkpt lat="43.83510266705071" lon="10.473500677876267"><ele>12.0</ele><time>2026-04-21T14:57:29Z</time></trkpt><trkpt lat="43.83493994546993" lon="10.473611458643813"><ele>12.0</ele><time>2026-04-21T14:57:30Z</time></trkpt><trkpt lat="43.83476734502393" lon="10.473704621414566"><ele>12.0</ele><time>2026-04-21T14:57:31Z</time></trkpt><trkpt lat="43.834580632047484" lon="10.473765786272486"><ele>12.0</ele><time>2026-04-21T14:57:32Z</time></trkpt><trkpt lat="43.83438923536318" lon="10.473798644823347"><ele>12.666666666666668</ele><time>2026-04-21T14:57:33Z</time></trkpt><trkpt lat="43.834191739387414" lon="10.473816024551526"><ele>13.333333333333334</ele><time>2026-04-21T14:57:34Z</time></trkpt><trkpt lat="43.833995300742686" lon="10.473830373774309"><ele>14.0</ele><time>2026-04-21T14:57:35Z</time></trkpt><trkpt lat="43.83380552606531" lon="10.473847257051922"><ele>14.0</ele><time>2026-04-21T14:57:36Z</time></trkpt><trkpt lat="43.83362259470753" lon="10.473883640569698"><ele>14.0</ele><time>2026-04-21T14:57:37Z</time></trkpt><trkpt lat="43.833445779549834" lon="10.473936814179982"><ele>14.0</ele><time>2026-04-21T14:57:38Z</time></trkpt><trkpt lat="43.83326355182156" lon="10.474007432530405"><ele>13.333333333333334</ele><time>2026-04-21T14:57:39Z</time></trkpt><trkpt lat="43.83308229773064" lon="10.47409432266422"><ele>12.666666666666668</ele><time>2026-04-21T14:57:40Z</time></trkpt><trkpt lat="43.832905022842546" lon="10.47420866366782"><ele>12.0</ele><time>2026-04-21T14:57:41Z</time></trkpt><trkpt lat="43.83272991716622" lon="10.474348987925534"><ele>12.0</ele><time>2026-04-21T14:57:42Z</time></trkpt><trkpt lat="43.8325519718219" lon="10.474510556004555"><ele>12.0</ele><time>2026-04-21T14:57:43Z</time></trkpt><trkpt lat="43.832377690347144" lon="10.474680434361618"><ele>12.0</ele><time>2026-04-21T14:57:44Z</time></trkpt><trkpt lat="43.8322275938124" lon="10.474833207085837"><ele>12.0</ele><time>2026-04-21T14:57:45Z</time></trkpt><trkpt lat="43.832101891197006" lon="10.474973155265888"><ele>12.0</ele><time>2026-04-21T14:57:46Z</time></trkpt><trkpt lat="43.83200809005723" lon="10.47510463184773"><ele>12.0</ele><time>2026-04-21T14:57:47Z</time></trkpt><trkpt lat="43.8319331264813" lon="10.475260772186328"><ele>12.0</ele><time>2026-04-21T14:57:48Z</time></trkpt><trkpt lat="43.83187955277192" lon="10.475460677651109"><ele>11.666666666666666</ele><time>2026-04-21T14:57:49Z</time></trkpt><trkpt lat="43.83184793531037" lon="10.47566505030481"><ele>11.333333333333332</ele><time>2026-04-21T14:57:50Z</time></trkpt><trkpt lat="43.831838489262275" lon="10.475870722777193"><ele>11.0</ele><time>2026-04-21T14:57:51Z</time></trkpt><trkpt lat="43.831853450235" lon="10.47608521538956"><ele>11.0</ele><time>2026-04-21T14:57:52Z</time></trkpt><trkpt lat="43.83189502493862" lon="10.476300953888591"><ele>11.0</ele><time>2026-04-21T14:57:53Z</time></trkpt><trkpt lat="43.83196259279038" lon="10.476520896455959"><ele>11.0</ele><time>2026-04-21T14:57:54Z</time></trkpt><trkpt lat="43.832043173648756" lon="10.476754023847269"><ele>11.0</ele><time>2026-04-21T14:57:55Z</time></trkpt><trkpt lat="43.83212705945633" lon="10.47699873417461"><ele>11.0</ele><time>2026-04-21T14:57:56Z</time></trkpt><trkpt lat="43.83220066661487" lon="10.47725487996005"><ele>11.0</ele><time>2026-04-21T14:57:57Z</time></trkpt><trkpt lat="43.83226000187797" lon="10.47751772707272"><ele>11.333333333333332</ele><time>2026-04-21T14:57:58Z</time></trkpt><trkpt lat="43.83229823525085" lon="10.477753252837601"><ele>11.666666666666666</ele><time>2026-04-21T14:57:59Z</time></trkpt><trkpt lat="43.83232092600736" lon="10.477982818947657"><ele>12.0</ele><time>2026-04-21T14:58:00Z</time></trkpt><trkpt lat="43.83233141344444" lon="10.478232631578129"><ele>12.0</ele><time>2026-04-21T14:58:01Z</time></trkpt><trkpt lat="43.83232105128295" lon="10.478493520196942"><ele>12.0</ele><time>2026-04-21T14:58:02Z</time></trkpt><trkpt lat="43.832298329423956" lon="10.478764242175316"><ele>12.0</ele><time>2026-04-21T14:58:03Z</time></trkpt><trkpt lat="43.832265768050185" lon="10.479040978247822"><ele>12.0</ele><time>2026-04-21T14:58:04Z</time></trkpt><trkpt lat="43.83222280293657" lon="10.479323736528416"><ele>12.0</ele><time>2026-04-21T14:58:05Z</time></trkpt><trkpt lat="43.832191678701" lon="10.479621764941934"><ele>12.0</ele><time>2026-04-21T14:58:06Z</time></trkpt><trkpt lat="43.832129183427035" lon="10.479923999925715"><ele>12.0</ele><time>2026-04-21T14:58:07Z</time></trkpt><trkpt lat="43.832085073634794" lon="10.480235149888307"><ele>12.0</ele><time>2026-04-21T14:58:08Z</time></trkpt><trkpt lat="43.83204232965365" lon="10.480557427851133"><ele>11.5</ele><time>2026-04-21T14:58:09Z</time></trkpt><trkpt lat="43.831997544113165" lon="10.48088400162649"><ele>11.0</ele><time>2026-04-21T14:58:10Z</time></trkpt><trkpt lat="43.83195345365571" lon="10.48122061676189"><ele>11.0</ele><time>2026-04-21T14:58:11Z</time></trkpt><trkpt lat="43.83190894468043" lon="10.481564669612256"><ele>11.0</ele><time>2026-04-21T14:58:12Z</time></trkpt><trkpt lat="43.831865257205294" lon="10.481905392917119"><ele>11.0</ele><time>2026-04-21T14:58:13Z</time></trkpt><trkpt lat="43.831820160413216" lon="10.482244947681552"><ele>11.0</ele><time>2026-04-21T14:58:14Z</time></trkpt><trkpt lat="43.83177815350603" lon="10.482565190870886"><ele>11.0</ele><time>2026-04-21T14:58:15Z</time></trkpt><trkpt lat="43.831731518333235" lon="10.482893408892409"><ele>11.0</ele><time>2026-04-21T14:58:16Z</time></trkpt><trkpt lat="43.83168660590564" lon="10.483220861179312"><ele>11.0</ele><time>2026-04-21T14:58:17Z</time></trkpt><trkpt lat="43.83163696638781" lon="10.483545057055693"><ele>11.0</ele><time>2026-04-21T14:58:18Z</time></trkpt><trkpt lat="43.83158469267829" lon="10.483868057172806"><ele>11.0</ele><time>2026-04-21T14:58:19Z</time></trkpt><trkpt lat="43.83153524158383" lon="10.484180195150048"><ele>11.0</ele><time>2026-04-21T14:58:20Z</time></trkpt><trkpt lat="43.83148590850561" lon="10.484486649641054"><ele>11.0</ele><time>2026-04-21T14:58:21.001Z</time></trkpt><trkpt lat="43.831438386210024" lon="10.484791136136897"><ele>11.0</ele><time>2026-04-21T14:58:22.001Z</time></trkpt><trkpt lat="43.83139425466004" lon="10.48507934537517"><ele>11.0</ele><time>2026-04-21T14:58:23.001Z</time></trkpt><trkpt lat="43.83134891646247" lon="10.485367210455578"><ele>11.0</ele><time>2026-04-21T14:58:24.001Z</time></trkpt><trkpt lat="43.831303762719116" lon="10.485662508606344"><ele>11.0</ele><time>2026-04-21T14:58:25.001Z</time></trkpt><trkpt lat="43.831258925405166" lon="10.485965663636566"><ele>11.0</ele><time>2026-04-21T14:58:26.001Z</time></trkpt><trkpt lat="43.831211502779105" lon="10.486275348294155"><ele>11.0</ele><time>2026-04-21T14:58:27.001Z</time></trkpt><trkpt lat="43.83116348616092" lon="10.486594685083572"><ele>11.0</ele><time>2026-04-21T14:58:28.001Z</time></trkpt><trkpt lat="43.83111384156584" lon="10.486917853143852"><ele>11.5</ele><time>2026-04-21T14:58:29.001Z</time></trkpt><trkpt lat="43.83106364412344" lon="10.487246667606042"><ele>12.0</ele><time>2026-04-21T14:58:30.001Z</time></trkpt><trkpt lat="43.831014184609764" lon="10.48758538452076"><ele>12.0</ele><time>2026-04-21T14:58:31.001Z</time></trkpt><trkpt lat="43.83096033622849" lon="10.48792215398027"><ele>12.0</ele><time>2026-04-21T14:58:32.001Z</time></trkpt><trkpt lat="43.83090591037011" lon="10.488267352068785"><ele>12.0</ele><time>2026-04-21T14:58:33.001Z</time></trkpt><trkpt lat="43.83085114061319" lon="10.488613136150367"><ele>12.0</ele><time>2026-04-21T14:58:34.001Z</time></trkpt><trkpt lat="43.83079698462132" lon="10.488957320821314"><ele>11.5</ele><time>2026-04-21T14:58:35.001Z</time></trkpt><trkpt lat="43.8307416280226" lon="10.489303534960657"><ele>11.0</ele><time>2026-04-21T14:58:36.001Z</time></trkpt><trkpt lat="43.830687711985696" lon="10.489647611224237"><ele>12.0</ele><time>2026-04-21T14:58:37.001Z</time></trkpt><trkpt lat="43.83063757450067" lon="10.490000875004645"><ele>13.0</ele><time>2026-04-21T14:58:38.001Z</time></trkpt><trkpt lat="43.83058925883291" lon="10.490355452296011"><ele>12.5</ele><time>2026-04-21T14:58:39.001Z</time></trkpt><trkpt lat="43.83054364461439" lon="10.490710704049562"><ele>12.0</ele><time>2026-04-21T14:58:40.001Z</time></trkpt><trkpt lat="43.83049595106507" lon="10.491061413005148"><ele>13.0</ele><time>2026-04-21T14:58:41.001Z</time></trkpt><trkpt lat="43.830443715005224" lon="10.491413362940376"><ele>14.0</ele><time>2026-04-21T14:58:42.001Z</time></trkpt><trkpt lat="43.83038859997108" lon="10.491769913287497"><ele>13.0</ele><time>2026-04-21T14:58:43.001Z</time></trkpt><trkpt lat="43.830334628242404" lon="10.492126285159287"><ele>12.0</ele><time>2026-04-21T14:58:44.001Z</time></trkpt><trkpt lat="43.830280511722755" lon="10.492477312285628"><ele>12.0</ele><time>2026-04-21T14:58:45.001Z</time></trkpt><trkpt lat="43.83022305950262" lon="10.492830099419143"><ele>12.0</ele><time>2026-04-21T14:58:46.001Z</time></trkpt><trkpt lat="43.83016841598039" lon="10.493184473687462"><ele>12.0</ele><time>2026-04-21T14:58:47.001Z</time></trkpt><trkpt lat="43.83011301580878" lon="10.493538131631373"><ele>12.0</ele><time>2026-04-21T14:58:48Z</time></trkpt><trkpt lat="43.83005643299267" lon="10.493893136274306"><ele>12.0</ele><time>2026-04-21T14:58:49Z</time></trkpt><trkpt lat="43.83000478035397" lon="10.494250364430254"><ele>12.0</ele><time>2026-04-21T14:58:50Z</time></trkpt><trkpt lat="43.82995347634826" lon="10.494607535635721"><ele>12.5</ele><time>2026-04-21T14:58:51Z</time></trkpt><trkpt lat="43.82989863057573" lon="10.494970693409016"><ele>13.0</ele><time>2026-04-21T14:58:52Z</time></trkpt><trkpt lat="43.8298439354115" lon="10.495329723602692"><ele>13.0</ele><time>2026-04-21T14:58:53Z</time></trkpt><trkpt lat="43.829790899226616" lon="10.495687686076986"><ele>13.0</ele><time>2026-04-21T14:58:54Z</time></trkpt><trkpt lat="43.829735487220645" lon="10.496046043537392"><ele>13.0</ele><time>2026-04-21T14:58:55Z</time></trkpt><trkpt lat="43.82968103466154" lon="10.496406518072682"><ele>13.0</ele><time>2026-04-21T14:58:56Z</time></trkpt><trkpt lat="43.82961972366709" lon="10.496738869974253"><ele>13.0</ele><time>2026-04-21T14:58:57Z</time></trkpt><trkpt lat="43.829562203696405" lon="10.497085865892121"><ele>13.0</ele><time>2026-04-21T14:58:58Z</time></trkpt><trkpt lat="43.82950517158036" lon="10.497432643100224"><ele>13.0</ele><time>2026-04-21T14:58:59Z</time></trkpt><trkpt lat="43.82945055288557" lon="10.497778004554307"><ele>13.0</ele><time>2026-04-21T14:59:00Z</time></trkpt><trkpt lat="43.82939693851207" lon="10.498131033624366"><ele>12.5</ele><time>2026-04-21T14:59:01Z</time></trkpt><trkpt lat="43.829344318726676" lon="10.49848551309343"><ele>12.0</ele><time>2026-04-21T14:59:02Z</time></trkpt><trkpt lat="43.82929038777191" lon="10.498840444003333"><ele>12.0</ele><time>2026-04-21T14:59:03Z</time></trkpt><trkpt lat="43.82923398601755" lon="10.499193905263184"><ele>12.0</ele><time>2026-04-21T14:59:04Z</time></trkpt><trkpt lat="43.829178087456036" lon="10.499547892341052"><ele>12.0</ele><time>2026-04-21T14:59:05Z</time></trkpt><trkpt lat="43.82912439621567" lon="10.499900012416775"><ele>12.0</ele><time>2026-04-21T14:59:06Z</time></trkpt><trkpt lat="43.82907054890918" lon="10.500256865580283"><ele>12.0</ele><time>2026-04-21T14:59:07Z</time></trkpt><trkpt lat="43.8290175641621" lon="10.500610768919767"><ele>12.0</ele><time>2026-04-21T14:59:08Z</time></trkpt><trkpt lat="43.82896520490388" lon="10.500954757926541"><ele>11.5</ele><time>2026-04-21T14:59:09Z</time></trkpt><trkpt lat="43.8289163557691" lon="10.50129661813676"><ele>11.0</ele><time>2026-04-21T14:59:10Z</time></trkpt><trkpt lat="43.82887040593778" lon="10.501636480586317"><ele>11.0</ele><time>2026-04-21T14:59:11Z</time></trkpt><trkpt lat="43.82882995804333" lon="10.501978390865052"><ele>11.0</ele><time>2026-04-21T14:59:12Z</time></trkpt><trkpt lat="43.82877487541838" lon="10.502395891997569"><ele>11.5</ele><time>2026-04-21T14:59:13Z</time></trkpt><trkpt lat="43.828737922251186" lon="10.502761553179447"><ele>12.0</ele><time>2026-04-21T14:59:14Z</time></trkpt><trkpt lat="43.828707724388444" lon="10.503123915254905"><ele>12.5</ele><time>2026-04-21T14:59:15Z</time></trkpt><trkpt lat="43.828680157836516" lon="10.50349462553033"><ele>13.0</ele><time>2026-04-21T14:59:16Z</time></trkpt><trkpt lat="43.82865634682895" lon="10.503866820242036"><ele>13.0</ele><time>2026-04-21T14:59:17Z</time></trkpt><trkpt lat="43.8286325508258" lon="10.504238443031038"><ele>13.0</ele><time>2026-04-21T14:59:18Z</time></trkpt><trkpt lat="43.828609881533275" lon="10.504613581908881"><ele>12.5</ele><time>2026-04-21T14:59:19Z</time></trkpt><trkpt lat="43.82859492415561" lon="10.504991222142424"><ele>12.0</ele><time>2026-04-21T14:59:20Z</time></trkpt><trkpt lat="43.8285852490884" lon="10.505370332808837"><ele>12.0</ele><time>2026-04-21T14:59:21Z</time></trkpt><trkpt lat="43.82857553526472" lon="10.505750245328985"><ele>12.0</ele><time>2026-04-21T14:59:22Z</time></trkpt><trkpt lat="43.82857014476482" lon="10.506126953836219"><ele>12.0</ele><time>2026-04-21T14:59:23Z</time></trkpt><trkpt lat="43.82856598566775" lon="10.506505971647954"><ele>12.0</ele><time>2026-04-21T14:59:24Z</time></trkpt><trkpt lat="43.828560469494434" lon="10.506886214562554"><ele>11.0</ele><time>2026-04-21T14:59:25Z</time></trkpt><trkpt lat="43.82855014407285" lon="10.507266002031256"><ele>10.0</ele><time>2026-04-21T14:59:26Z</time></trkpt><trkpt lat="43.82854079672088" lon="10.507643823595332"><ele>9.5</ele><time>2026-04-21T14:59:27Z</time></trkpt><trkpt lat="43.82853326788468" lon="10.508038320461472"><ele>9.0</ele><time>2026-04-21T14:59:28Z</time></trkpt><trkpt lat="43.82852307365483" lon="10.508419653483523"><ele>10.0</ele><time>2026-04-21T14:59:29Z</time></trkpt><trkpt lat="43.82851184705058" lon="10.508802702566076"><ele>11.0</ele><time>2026-04-21T14:59:30Z</time></trkpt><trkpt lat="43.828504986586054" lon="10.50918787959943"><ele>11.0</ele><time>2026-04-21T14:59:31Z</time></trkpt><trkpt lat="43.828501397353335" lon="10.509570501121054"><ele>11.0</ele><time>2026-04-21T14:59:32Z</time></trkpt><trkpt lat="43.828495366318855" lon="10.50995116840323"><ele>11.5</ele><time>2026-04-21T14:59:33Z</time></trkpt><trkpt lat="43.82848829614198" lon="10.510333731083321"><ele>12.0</ele><time>2026-04-21T14:59:34Z</time></trkpt><trkpt lat="43.82847662106557" lon="10.510709934800257"><ele>13.0</ele><time>2026-04-21T14:59:35Z</time></trkpt><trkpt lat="43.82846670367048" lon="10.511089768455804"><ele>14.0</ele><time>2026-04-21T14:59:36Z</time></trkpt><trkpt lat="43.82845715450464" lon="10.511466710888756"><ele>14.0</ele><time>2026-04-21T14:59:37Z</time></trkpt><trkpt lat="43.82844056652767" lon="10.511843918498746"><ele>14.0</ele><time>2026-04-21T14:59:38Z</time></trkpt><trkpt lat="43.828426461768245" lon="10.512225635057801"><ele>14.0</ele><time>2026-04-21T14:59:39Z</time></trkpt><trkpt lat="43.82840801869417" lon="10.512605513652156"><ele>14.0</ele><time>2026-04-21T14:59:40Z</time></trkpt><trkpt lat="43.8283910533009" lon="10.512977302804373"><ele>12.5</ele><time>2026-04-21T14:59:41Z</time></trkpt><trkpt lat="43.82838289311805" lon="10.513353711647087"><ele>11.0</ele><time>2026-04-21T14:59:42Z</time></trkpt><trkpt lat="43.828374905757215" lon="10.513727419485102"><ele>11.0</ele><time>2026-04-21T14:59:43Z</time></trkpt><trkpt lat="43.82837035229543" lon="10.514085060614109"><ele>11.0</ele><time>2026-04-21T14:59:44Z</time></trkpt><trkpt lat="43.82836517487951" lon="10.514438843325497"><ele>11.5</ele><time>2026-04-21T14:59:45Z</time></trkpt><trkpt lat="43.82835552498735" lon="10.514788640744698"><ele>12.0</ele><time>2026-04-21T14:59:46Z</time></trkpt><trkpt lat="43.828349531448936" lon="10.515138861168303"><ele>12.0</ele><time>2026-04-21T14:59:47Z</time></trkpt><trkpt lat="43.82833999847741" lon="10.515484676342128"><ele>12.0</ele><time>2026-04-21T14:59:48Z</time></trkpt><trkpt lat="43.828330811618564" lon="10.515831153068142"><ele>12.0</ele><time>2026-04-21T14:59:49Z</time></trkpt><trkpt lat="43.82832070355566" lon="10.516177311922853"><ele>12.0</ele><time>2026-04-21T14:59:50Z</time></trkpt><trkpt lat="43.828317651257855" lon="10.516525274928197"><ele>12.0</ele><time>2026-04-21T14:59:51Z</time></trkpt><trkpt lat="43.828315845866726" lon="10.516876966792543"><ele>12.0</ele><time>2026-04-21T14:59:52Z</time></trkpt><trkpt lat="43.828308804672844" lon="10.517232704061662"><ele>12.5</ele><time>2026-04-21T14:59:53Z</time></trkpt><trkpt lat="43.828299904218234" lon="10.517591686377907"><ele>13.0</ele><time>2026-04-21T14:59:54Z</time></trkpt><trkpt lat="43.82829250591562" lon="10.517950294903066"><ele>13.0</ele><time>2026-04-21T14:59:55Z</time></trkpt><trkpt lat="43.828283141548795" lon="10.518294453066268"><ele>13.0</ele><time>2026-04-21T14:59:56Z</time></trkpt><trkpt lat="43.828276334709045" lon="10.518636261649371"><ele>12.5</ele><time>2026-04-21T14:59:57Z</time></trkpt><trkpt lat="43.828270051389495" lon="10.518964786077673"><ele>12.0</ele><time>2026-04-21T14:59:58Z</time></trkpt><trkpt lat="43.828263781326754" lon="10.519294780517585"><ele>12.0</ele><time>2026-04-21T14:59:59Z</time></trkpt><trkpt lat="43.82825554157284" lon="10.519621895224349"><ele>12.0</ele><time>2026-04-21T15:00:00Z</time></trkpt><trkpt lat="43.82824692582871" lon="10.51995229032066"><ele>12.0</ele><time>2026-04-21T15:00:01Z</time></trkpt><trkpt lat="43.828237124728716" lon="10.520285462997007"><ele>12.0</ele><time>2026-04-21T15:00:02Z</time></trkpt><trkpt lat="43.82822978935257" lon="10.5206084784657"><ele>12.0</ele><time>2026-04-21T15:00:03Z</time></trkpt><trkpt lat="43.82822377556386" lon="10.520932195003889"><ele>12.0</ele><time>2026-04-21T15:00:04Z</time></trkpt><trkpt lat="43.828220746636084" lon="10.521250597688624"><ele>12.0</ele><time>2026-04-21T15:00:05Z</time></trkpt><trkpt lat="43.82822232989979" lon="10.521573850210675"><ele>12.0</ele><time>2026-04-21T15:00:06Z</time></trkpt><trkpt lat="43.828228305294694" lon="10.521913771394924"><ele>11.5</ele><time>2026-04-21T15:00:07Z</time></trkpt><trkpt lat="43.82823135857165" lon="10.522259168603966"><ele>11.0</ele><time>2026-04-21T15:00:08Z</time></trkpt><trkpt lat="43.82822680968588" lon="10.522615307876087"><ele>12.0</ele><time>2026-04-21T15:00:09Z</time></trkpt><trkpt lat="43.82821889362968" lon="10.522977750039313"><ele>13.0</ele><time>2026-04-21T15:00:10Z</time></trkpt><trkpt lat="43.82821019373428" lon="10.523350370240385"><ele>13.0</ele><time>2026-04-21T15:00:11Z</time></trkpt><trkpt lat="43.8282028534558" lon="10.523717806245521"><ele>13.0</ele><time>2026-04-21T15:00:12Z</time></trkpt><trkpt lat="43.82819621579932" lon="10.524082623857234"><ele>12.5</ele><time>2026-04-21T15:00:13Z</time></trkpt><trkpt lat="43.82818573236422" lon="10.524451295232222"><ele>12.0</ele><time>2026-04-21T15:00:14Z</time></trkpt><trkpt lat="43.82817547970529" lon="10.524815766028983"><ele>11.0</ele><time>2026-04-21T15:00:15Z</time></trkpt><trkpt lat="43.828163835499375" lon="10.525185397569032"><ele>10.0</ele><time>2026-04-21T15:00:16Z</time></trkpt><trkpt lat="43.82815283991337" lon="10.525554571831492"><ele>9.5</ele><time>2026-04-21T15:00:17Z</time></trkpt><trkpt lat="43.828145338852075" lon="10.52592854462871"><ele>9.0</ele><time>2026-04-21T15:00:18Z</time></trkpt><trkpt lat="43.82814015678874" lon="10.52630675505685"><ele>10.0</ele><time>2026-04-21T15:00:19Z</time></trkpt><trkpt lat="43.82813617361316" lon="10.526683400150425"><ele>11.0</ele><time>2026-04-21T15:00:20Z</time></trkpt><trkpt lat="43.828129499081804" lon="10.527061696690705"><ele>11.0</ele><time>2026-04-21T15:00:21Z</time></trkpt><trkpt lat="43.82812247483125" lon="10.5274368858906"><ele>11.0</ele><time>2026-04-21T15:00:22Z</time></trkpt><trkpt lat="43.82811497650852" lon="10.527808841976737"><ele>11.5</ele><time>2026-04-21T15:00:23Z</time></trkpt><trkpt lat="43.828108106586996" lon="10.528190266244712"><ele>12.0</ele><time>2026-04-21T15:00:24Z</time></trkpt><trkpt lat="43.82810145147471" lon="10.528565752927449"><ele>13.0</ele><time>2026-04-21T15:00:25Z</time></trkpt><trkpt lat="43.82809101833606" lon="10.528941122586698"><ele>14.0</ele><time>2026-04-21T15:00:26Z</time></trkpt><trkpt lat="43.82808314344089" lon="10.529314877268066"><ele>14.0</ele><time>2026-04-21T15:00:27Z</time></trkpt><trkpt lat="43.82807482944113" lon="10.529693437509017"><ele>14.0</ele><time>2026-04-21T15:00:28Z</time></trkpt><trkpt lat="43.828062853281224" lon="10.530066109054443"><ele>13.0</ele><time>2026-04-21T15:00:29Z</time></trkpt><trkpt lat="43.828052345175976" lon="10.53044413340249"><ele>12.0</ele><time>2026-04-21T15:00:30Z</time></trkpt><trkpt lat="43.828042437704454" lon="10.530814357158915"><ele>12.0</ele><time>2026-04-21T15:00:31Z</time></trkpt><trkpt lat="43.82803347977108" lon="10.531189066318989"><ele>12.0</ele><time>2026-04-21T15:00:32Z</time></trkpt><trkpt lat="43.828021368087256" lon="10.531554932433867"><ele>13.0</ele><time>2026-04-21T15:00:33Z</time></trkpt><trkpt lat="43.82800595506879" lon="10.53191488067716"><ele>14.0</ele><time>2026-04-21T15:00:34Z</time></trkpt><trkpt lat="43.827993765402105" lon="10.53227283630424"><ele>14.0</ele><time>2026-04-21T15:00:35Z</time></trkpt><trkpt lat="43.827982103761535" lon="10.532622013240523"><ele>14.0</ele><time>2026-04-21T15:00:36Z</time></trkpt><trkpt lat="43.827970373424364" lon="10.532962589547246"><ele>14.5</ele><time>2026-04-21T15:00:37Z</time></trkpt><trkpt lat="43.82796178609097" lon="10.533308470939321"><ele>15.0</ele><time>2026-04-21T15:00:38Z</time></trkpt><trkpt lat="43.827953396552175" lon="10.533659626421692"><ele>14.5</ele><time>2026-04-21T15:00:39Z</time></trkpt><trkpt lat="43.8279475624214" lon="10.534008364947082"><ele>14.0</ele><time>2026-04-21T15:00:40Z</time></trkpt><trkpt lat="43.82794202098312" lon="10.534360640865545"><ele>15.0</ele><time>2026-04-21T15:00:41Z</time></trkpt><trkpt lat="43.827937389452835" lon="10.534715649183992"><ele>16.0</ele><time>2026-04-21T15:00:42Z</time></trkpt><trkpt lat="43.82793364938684" lon="10.5350764410022"><ele>15.5</ele><time>2026-04-21T15:00:43Z</time></trkpt><trkpt lat="43.827931483209916" lon="10.535441231591996"><ele>15.0</ele><time>2026-04-21T15:00:44Z</time></trkpt><trkpt lat="43.827930476781816" lon="10.535814310002939"><ele>15.0</ele><time>2026-04-21T15:00:45Z</time></trkpt><trkpt lat="43.827928051015874" lon="10.536191420675891"><ele>15.0</ele><time>2026-04-21T15:00:46Z</time></trkpt><trkpt lat="43.827919178791234" lon="10.536560593546485"><ele>15.0</ele><time>2026-04-21T15:00:47Z</time></trkpt><trkpt lat="43.82791571445431" lon="10.536950697841965"><ele>15.0</ele><time>2026-04-21T15:00:48Z</time></trkpt><trkpt lat="43.82791103255664" lon="10.537338346737865"><ele>14.0</ele><time>2026-04-21T15:00:49Z</time></trkpt><trkpt lat="43.827907069550086" lon="10.537726326296617"><ele>13.0</ele><time>2026-04-21T15:00:50Z</time></trkpt><trkpt lat="43.82790108433889" lon="10.538110621446407"><ele>13.0</ele><time>2026-04-21T15:00:51Z</time></trkpt><trkpt lat="43.82789174259098" lon="10.538497353017135"><ele>13.0</ele><time>2026-04-21T15:00:52Z</time></trkpt><trkpt lat="43.82788006024488" lon="10.538881640493896"><ele>13.0</ele><time>2026-04-21T15:00:53Z</time></trkpt><trkpt lat="43.82786551978258" lon="10.539271839466856"><ele>13.0</ele><time>2026-04-21T15:00:54Z</time></trkpt><trkpt lat="43.82785124359391" lon="10.539657165698735"><ele>13.5</ele><time>2026-04-21T15:00:55Z</time></trkpt><trkpt lat="43.82783405283884" lon="10.540045263663474"><ele>14.0</ele><time>2026-04-21T15:00:56Z</time></trkpt><trkpt lat="43.82781539128421" lon="10.540431679323218"><ele>14.5</ele><time>2026-04-21T15:00:57Z</time></trkpt><trkpt lat="43.827800850644884" lon="10.540812744635682"><ele>15.0</ele><time>2026-04-21T15:00:58Z</time></trkpt><trkpt lat="43.82778875141707" lon="10.541198377667534"><ele>15.0</ele><time>2026-04-21T15:00:59Z</time></trkpt><trkpt lat="43.8277823436773" lon="10.541576961511653"><ele>15.0</ele><time>2026-04-21T15:01:00Z</time></trkpt><trkpt lat="43.82777816662848" lon="10.541959595674811"><ele>15.0</ele><time>2026-04-21T15:01:01Z</time></trkpt><trkpt lat="43.827770949731956" lon="10.54234370394073"><ele>15.0</ele><time>2026-04-21T15:01:02Z</time></trkpt><trkpt lat="43.827764118477724" lon="10.542727736062494"><ele>16.0</ele><time>2026-04-21T15:01:03Z</time></trkpt><trkpt lat="43.827760403075324" lon="10.543112981114714"><ele>17.0</ele><time>2026-04-21T15:01:04Z</time></trkpt><trkpt lat="43.82775529305061" lon="10.543498844280748"><ele>15.5</ele><time>2026-04-21T15:01:05Z</time></trkpt><trkpt lat="43.82775264992461" lon="10.543884475876855"><ele>14.0</ele><time>2026-04-21T15:01:06Z</time></trkpt><trkpt lat="43.8277540244611" lon="10.544266998576111"><ele>13.5</ele><time>2026-04-21T15:01:07Z</time></trkpt><trkpt lat="43.82775271782236" lon="10.54465735682898"><ele>13.0</ele><time>2026-04-21T15:01:08Z</time></trkpt><trkpt lat="43.82774974964229" lon="10.545045871783724"><ele>13.0</ele><time>2026-04-21T15:01:09Z</time></trkpt><trkpt lat="43.82774459301619" lon="10.545437877605508"><ele>13.0</ele><time>2026-04-21T15:01:10Z</time></trkpt><trkpt lat="43.827735810249045" lon="10.545826164474406"><ele>13.5</ele><time>2026-04-21T15:01:11Z</time></trkpt><trkpt lat="43.82772513899746" lon="10.546213106909304"><ele>14.0</ele><time>2026-04-21T15:01:12Z</time></trkpt><trkpt lat="43.82771396554389" lon="10.546598615039818"><ele>14.0</ele><time>2026-04-21T15:01:13Z</time></trkpt><trkpt lat="43.82770356404991" lon="10.54698398202525"><ele>14.0</ele><time>2026-04-21T15:01:14Z</time></trkpt><trkpt lat="43.82769009400368" lon="10.547367736234452"><ele>13.5</ele><time>2026-04-21T15:01:15Z</time></trkpt><trkpt lat="43.827671740866755" lon="10.54775215149308"><ele>13.0</ele><time>2026-04-21T15:01:16Z</time></trkpt><trkpt lat="43.827656235882195" lon="10.548136186881585"><ele>12.5</ele><time>2026-04-21T15:01:17Z</time></trkpt><trkpt lat="43.827645141218255" lon="10.548519216705643"><ele>12.0</ele><time>2026-04-21T15:01:18Z</time></trkpt><trkpt lat="43.827638069444916" lon="10.54890397743758"><ele>12.0</ele><time>2026-04-21T15:01:19Z</time></trkpt><trkpt lat="43.82763068128792" lon="10.549288186459105"><ele>12.0</ele><time>2026-04-21T15:01:20Z</time></trkpt><trkpt lat="43.82762257158392" lon="10.549673287219502"><ele>12.0</ele><time>2026-04-21T15:01:21Z</time></trkpt><trkpt lat="43.82761512967956" lon="10.550058895606707"><ele>12.0</ele><time>2026-04-21T15:01:22Z</time></trkpt><trkpt lat="43.82760658626203" lon="10.550444399563887"><ele>12.5</ele><time>2026-04-21T15:01:23Z</time></trkpt><trkpt lat="43.82759699482266" lon="10.550829176213918"><ele>13.0</ele><time>2026-04-21T15:01:24Z</time></trkpt><trkpt lat="43.82758397089675" lon="10.551211580422455"><ele>13.0</ele><time>2026-04-21T15:01:25Z</time></trkpt><trkpt lat="43.827570831488956" lon="10.551596646634804"><ele>13.0</ele><time>2026-04-21T15:01:26Z</time></trkpt><trkpt lat="43.82755681230951" lon="10.551982319542804"><ele>12.5</ele><time>2026-04-21T15:01:27Z</time></trkpt><trkpt lat="43.827541035017006" lon="10.552364414032446"><ele>12.0</ele><time>2026-04-21T15:01:28Z</time></trkpt><trkpt lat="43.827517211457256" lon="10.552749135827737"><ele>11.5</ele><time>2026-04-21T15:01:29Z</time></trkpt><trkpt lat="43.82749005841657" lon="10.55313079962602"><ele>11.0</ele><time>2026-04-21T15:01:30Z</time></trkpt><trkpt lat="43.827459077847934" lon="10.553515291584668"><ele>11.5</ele><time>2026-04-21T15:01:31Z</time></trkpt><trkpt lat="43.82742514881185" lon="10.553899495527878"><ele>12.0</ele><time>2026-04-21T15:01:32Z</time></trkpt><trkpt lat="43.82739003719803" lon="10.554280360358575"><ele>12.5</ele><time>2026-04-21T15:01:33Z</time></trkpt><trkpt lat="43.82735421597333" lon="10.554666614339714"><ele>13.0</ele><time>2026-04-21T15:01:34Z</time></trkpt><trkpt lat="43.82731685301843" lon="10.55505041606867"><ele>13.5</ele><time>2026-04-21T15:01:35Z</time></trkpt><trkpt lat="43.82727946525026" lon="10.555432394525747"><ele>14.0</ele><time>2026-04-21T15:01:36Z</time></trkpt><trkpt lat="43.82723844046157" lon="10.555813177527314"><ele>14.0</ele><time>2026-04-21T15:01:37Z</time></trkpt><trkpt lat="43.82719333768062" lon="10.556191673284408"><ele>14.0</ele><time>2026-04-21T15:01:38Z</time></trkpt><trkpt lat="43.8271472109762" lon="10.556566451331141"><ele>14.0</ele><time>2026-04-21T15:01:39Z</time></trkpt><trkpt lat="43.82710361795013" lon="10.5569364660932"><ele>14.0</ele><time>2026-04-21T15:01:40Z</time></trkpt><trkpt lat="43.82706274960429" lon="10.557303047735362"><ele>14.5</ele><time>2026-04-21T15:01:41Z</time></trkpt><trkpt lat="43.82701914932898" lon="10.557674968111211"><ele>15.0</ele><time>2026-04-21T15:01:42Z</time></trkpt><trkpt lat="43.82697953260111" lon="10.558042538374806"><ele>14.0</ele><time>2026-04-21T15:01:43Z</time></trkpt><trkpt lat="43.82693424289222" lon="10.558412176830483"><ele>13.0</ele><time>2026-04-21T15:01:44Z</time></trkpt><trkpt lat="43.826893030669396" lon="10.55877739580316"><ele>12.5</ele><time>2026-04-21T15:01:45Z</time></trkpt><trkpt lat="43.826850967797455" lon="10.559143489229777"><ele>12.0</ele><time>2026-04-21T15:01:46Z</time></trkpt><trkpt lat="43.82680904477102" lon="10.559506994838882"><ele>12.0</ele><time>2026-04-21T15:01:47Z</time></trkpt><trkpt lat="43.82676692556673" lon="10.559870515477831"><ele>12.0</ele><time>2026-04-21T15:01:48Z</time></trkpt><trkpt lat="43.82672352873895" lon="10.560231619313237"><ele>12.0</ele><time>2026-04-21T15:01:49Z</time></trkpt><trkpt lat="43.8266802633992" lon="10.560594992358991"><ele>12.0</ele><time>2026-04-21T15:01:50Z</time></trkpt><trkpt lat="43.8266358504046" lon="10.560957217373527"><ele>12.0</ele><time>2026-04-21T15:01:51Z</time></trkpt><trkpt lat="43.826592342361" lon="10.561319559561827"><ele>12.0</ele><time>2026-04-21T15:01:52Z</time></trkpt><trkpt lat="43.82655117875606" lon="10.56168028861559"><ele>12.0</ele><time>2026-04-21T15:01:53Z</time></trkpt><trkpt lat="43.82651290729081" lon="10.562040440456801"><ele>12.0</ele><time>2026-04-21T15:01:54Z</time></trkpt><trkpt lat="43.82647172387034" lon="10.562399781206732"><ele>12.0</ele><time>2026-04-21T15:01:55Z</time></trkpt><trkpt lat="43.826431899789775" lon="10.562760492093854"><ele>12.0</ele><time>2026-04-21T15:01:56Z</time></trkpt><trkpt lat="43.826391898557475" lon="10.563120072940999"><ele>12.0</ele><time>2026-04-21T15:01:57Z</time></trkpt><trkpt lat="43.826348509456764" lon="10.56347976072804"><ele>12.0</ele><time>2026-04-21T15:01:58Z</time></trkpt><trkpt lat="43.82630762800679" lon="10.563837939286481"><ele>12.0</ele><time>2026-04-21T15:01:59Z</time></trkpt><trkpt lat="43.826264854273866" lon="10.564196272421817"><ele>12.0</ele><time>2026-04-21T15:02:00Z</time></trkpt><trkpt lat="43.82622473549221" lon="10.564553924257273"><ele>12.0</ele><time>2026-04-21T15:02:01Z</time></trkpt><trkpt lat="43.82618698308159" lon="10.564914930602768"><ele>12.0</ele><time>2026-04-21T15:02:02Z</time></trkpt><trkpt lat="43.82614887365552" lon="10.565274909505643"><ele>11.5</ele><time>2026-04-21T15:02:03Z</time></trkpt><trkpt lat="43.82610975334424" lon="10.565638202727847"><ele>11.0</ele><time>2026-04-21T15:02:04Z</time></trkpt><trkpt lat="43.826066479217886" lon="10.566000819740065"><ele>11.0</ele><time>2026-04-21T15:02:05Z</time></trkpt><trkpt lat="43.82602308638515" lon="10.566363248270454"><ele>11.0</ele><time>2026-04-21T15:02:06Z</time></trkpt><trkpt lat="43.825979101341794" lon="10.566727295108059"><ele>11.5</ele><time>2026-04-21T15:02:07Z</time></trkpt><trkpt lat="43.82593659527138" lon="10.567085447725303"><ele>12.0</ele><time>2026-04-21T15:02:08Z</time></trkpt><trkpt lat="43.82589343757691" lon="10.567447575160617"><ele>12.0</ele><time>2026-04-21T15:02:09Z</time></trkpt><trkpt lat="43.825851760025735" lon="10.56781514724498"><ele>12.0</ele><time>2026-04-21T15:02:10Z</time></trkpt><trkpt lat="43.825807369289116" lon="10.568177743839032"><ele>12.0</ele><time>2026-04-21T15:02:11Z</time></trkpt><trkpt lat="43.825764967284826" lon="10.568534215977815"><ele>12.0</ele><time>2026-04-21T15:02:12Z</time></trkpt><trkpt lat="43.82572429114885" lon="10.568895203038382"><ele>12.0</ele><time>2026-04-21T15:02:13Z</time></trkpt><trkpt lat="43.825684427353664" lon="10.56925867678643"><ele>12.0</ele><time>2026-04-21T15:02:14Z</time></trkpt><trkpt lat="43.82564736007482" lon="10.56962332009659"><ele>11.5</ele><time>2026-04-21T15:02:15Z</time></trkpt><trkpt lat="43.825608825246604" lon="10.569982558550809"><ele>11.0</ele><time>2026-04-21T15:02:16Z</time></trkpt><trkpt lat="43.825565787059084" lon="10.570343378811318"><ele>11.0</ele><time>2026-04-21T15:02:17Z</time></trkpt><trkpt lat="43.825526610619974" lon="10.570703033927321"><ele>11.0</ele><time>2026-04-21T15:02:18Z</time></trkpt><trkpt lat="43.82548857067115" lon="10.571059880149058"><ele>11.5</ele><time>2026-04-21T15:02:19Z</time></trkpt><trkpt lat="43.825443731575554" lon="10.571420640723463"><ele>12.0</ele><time>2026-04-21T15:02:20Z</time></trkpt><trkpt lat="43.82540045024527" lon="10.571788852060001"><ele>11.5</ele><time>2026-04-21T15:02:21Z</time></trkpt><trkpt lat="43.82536315104904" lon="10.57215488093072"><ele>11.0</ele><time>2026-04-21T15:02:22Z</time></trkpt><trkpt lat="43.82532311700617" lon="10.572514201028163"><ele>11.0</ele><time>2026-04-21T15:02:23Z</time></trkpt><trkpt lat="43.825281708893826" lon="10.57287670522567"><ele>11.0</ele><time>2026-04-21T15:02:24Z</time></trkpt><trkpt lat="43.82523906138401" lon="10.573237438179069"><ele>11.0</ele><time>2026-04-21T15:02:25Z</time></trkpt><trkpt lat="43.82519749075919" lon="10.5736014468058"><ele>11.0</ele><time>2026-04-21T15:02:26Z</time></trkpt><trkpt lat="43.82515869662285" lon="10.573962552204977"><ele>10.0</ele><time>2026-04-21T15:02:27Z</time></trkpt><trkpt lat="43.82511845223152" lon="10.57432131277349"><ele>9.0</ele><time>2026-04-21T15:02:28Z</time></trkpt><trkpt lat="43.825079348011236" lon="10.574678013702135"><ele>9.0</ele><time>2026-04-21T15:02:29Z</time></trkpt><trkpt lat="43.82503924268976" lon="10.57503746774105"><ele>9.0</ele><time>2026-04-21T15:02:30Z</time></trkpt><trkpt lat="43.82499812980869" lon="10.575392547834172"><ele>10.0</ele><time>2026-04-21T15:02:31Z</time></trkpt><trkpt lat="43.82495949120965" lon="10.575759877158424"><ele>11.0</ele><time>2026-04-21T15:02:32Z</time></trkpt><trkpt lat="43.82491641978979" lon="10.576120199330619"><ele>11.5</ele><time>2026-04-21T15:02:33Z</time></trkpt><trkpt lat="43.8248777792146" lon="10.57648222952427"><ele>12.0</ele><time>2026-04-21T15:02:34Z</time></trkpt><trkpt lat="43.82484034393649" lon="10.576847667736901"><ele>12.0</ele><time>2026-04-21T15:02:35Z</time></trkpt><trkpt lat="43.82480384188644" lon="10.577211804407172"><ele>12.0</ele><time>2026-04-21T15:02:36Z</time></trkpt><trkpt lat="43.82476383731538" lon="10.57757970117735"><ele>11.0</ele><time>2026-04-21T15:02:37Z</time></trkpt><trkpt lat="43.824724236413395" lon="10.57794454120065"><ele>10.0</ele><time>2026-04-21T15:02:38Z</time></trkpt><trkpt lat="43.8246829951416" lon="10.578309712194205"><ele>10.0</ele><time>2026-04-21T15:02:39Z</time></trkpt><trkpt lat="43.82464260299661" lon="10.578676515741662"><ele>10.0</ele><time>2026-04-21T15:02:40Z</time></trkpt><trkpt lat="43.82459665279173" lon="10.579046586404383"><ele>9.5</ele><time>2026-04-21T15:02:41Z</time></trkpt><trkpt lat="43.82455018548233" lon="10.57941574652657"><ele>9.0</ele><time>2026-04-21T15:02:42Z</time></trkpt><trkpt lat="43.82450303318218" lon="10.579789721893762"><ele>9.0</ele><time>2026-04-21T15:02:43Z</time></trkpt><trkpt lat="43.824454330212646" lon="10.580165088016999"><ele>9.0</ele><time>2026-04-21T15:02:44Z</time></trkpt><trkpt lat="43.824410154285005" lon="10.580542644289677"><ele>10.0</ele><time>2026-04-21T15:02:45Z</time></trkpt><trkpt lat="43.82436810557071" lon="10.580923305430769"><ele>11.0</ele><time>2026-04-21T15:02:46Z</time></trkpt><trkpt lat="43.824323034777194" lon="10.581304382861841"><ele>12.0</ele><time>2026-04-21T15:02:47Z</time></trkpt><trkpt lat="43.8242769607718" lon="10.581684883286941"><ele>13.0</ele><time>2026-04-21T15:02:48Z</time></trkpt><trkpt lat="43.82423324735942" lon="10.58206405458775"><ele>11.0</ele><time>2026-04-21T15:02:49Z</time></trkpt><trkpt lat="43.82419183111564" lon="10.582426071512081"><ele>9.0</ele><time>2026-04-21T15:02:50Z</time></trkpt><trkpt lat="43.82414926894579" lon="10.582793258446667"><ele>10.0</ele><time>2026-04-21T15:02:51Z</time></trkpt><trkpt lat="43.82410778141218" lon="10.583158646799387"><ele>11.0</ele><time>2026-04-21T15:02:52Z</time></trkpt><trkpt lat="43.82406599547039" lon="10.583531831093332"><ele>11.0</ele><time>2026-04-21T15:02:53Z</time></trkpt><trkpt lat="43.82402907952428" lon="10.583884151512635"><ele>11.0</ele><time>2026-04-21T15:02:54Z</time></trkpt><trkpt lat="43.82399042390113" lon="10.584216167089105"><ele>11.5</ele><time>2026-04-21T15:02:55Z</time></trkpt><trkpt lat="43.82394857502995" lon="10.584542209263445"><ele>12.0</ele><time>2026-04-21T15:02:56Z</time></trkpt><trkpt lat="43.82390954218927" lon="10.584859155483718"><ele>12.0</ele><time>2026-04-21T15:02:57Z</time></trkpt><trkpt lat="43.82387211888626" lon="10.585190663299406"><ele>12.0</ele><time>2026-04-21T15:02:58Z</time></trkpt><trkpt lat="43.823836975424555" lon="10.585528605788372"><ele>13.0</ele><time>2026-04-21T15:02:59Z</time></trkpt><trkpt lat="43.82380178296569" lon="10.585878922146554"><ele>14.0</ele><time>2026-04-21T15:03:00Z</time></trkpt><trkpt lat="43.8237688705932" lon="10.586242276345235"><ele>14.0</ele><time>2026-04-21T15:03:01Z</time></trkpt><trkpt lat="43.82373321092458" lon="10.586607798947812"><ele>14.0</ele><time>2026-04-21T15:03:02Z</time></trkpt><trkpt lat="43.82369233505903" lon="10.586977643660186"><ele>12.5</ele><time>2026-04-21T15:03:03Z</time></trkpt><trkpt lat="43.82364939397248" lon="10.587353007028046"><ele>11.0</ele><time>2026-04-21T15:03:04Z</time></trkpt><trkpt lat="43.82360756183936" lon="10.587732733541765"><ele>10.0</ele><time>2026-04-21T15:03:05Z</time></trkpt><trkpt lat="43.823557798881644" lon="10.588108001065725"><ele>9.0</ele><time>2026-04-21T15:03:06Z</time></trkpt><trkpt lat="43.823503930003184" lon="10.588486724643728"><ele>9.0</ele><time>2026-04-21T15:03:07Z</time></trkpt><trkpt lat="43.82345409809445" lon="10.588865168709749"><ele>9.0</ele><time>2026-04-21T15:03:08Z</time></trkpt><trkpt lat="43.82340989301101" lon="10.589229857889084"><ele>8.5</ele><time>2026-04-21T15:03:09Z</time></trkpt><trkpt lat="43.823364785867646" lon="10.589605460429485"><ele>8.0</ele><time>2026-04-21T15:03:10Z</time></trkpt><trkpt lat="43.82332101839077" lon="10.589981868646014"><ele>8.5</ele><time>2026-04-21T15:03:11Z</time></trkpt><trkpt lat="43.82328149035779" lon="10.590359372399401"><ele>9.0</ele><time>2026-04-21T15:03:12Z</time></trkpt><trkpt lat="43.82324204280717" lon="10.59074005591668"><ele>9.0</ele><time>2026-04-21T15:03:13Z</time></trkpt><trkpt lat="43.82320578065263" lon="10.591095293967392"><ele>9.0</ele><time>2026-04-21T15:03:14Z</time></trkpt><trkpt lat="43.82316191116515" lon="10.591469358186114"><ele>9.5</ele><time>2026-04-21T15:03:15Z</time></trkpt><trkpt lat="43.82312259705773" lon="10.591841317374989"><ele>10.0</ele><time>2026-04-21T15:03:16Z</time></trkpt><trkpt lat="43.82308733696692" lon="10.592212263417306"><ele>9.0</ele><time>2026-04-21T15:03:17Z</time></trkpt><trkpt lat="43.823047833380926" lon="10.59258505541011"><ele>8.0</ele><time>2026-04-21T15:03:18Z</time></trkpt><trkpt lat="43.82300667109837" lon="10.592958341820362"><ele>8.0</ele><time>2026-04-21T15:03:19Z</time></trkpt><trkpt lat="43.822968312760885" lon="10.593331301105176"><ele>8.0</ele><time>2026-04-21T15:03:20Z</time></trkpt><trkpt lat="43.822920604650044" lon="10.593708966268833"><ele>9.0</ele><time>2026-04-21T15:03:21Z</time></trkpt><trkpt lat="43.82287093267444" lon="10.594087257355119"><ele>10.0</ele><time>2026-04-21T15:03:22Z</time></trkpt><trkpt lat="43.82282338519149" lon="10.59446502077487"><ele>9.0</ele><time>2026-04-21T15:03:23Z</time></trkpt><trkpt lat="43.82277174881327" lon="10.59484598984138"><ele>8.0</ele><time>2026-04-21T15:03:24Z</time></trkpt><trkpt lat="43.82271774334451" lon="10.595230491944921"><ele>8.0</ele><time>2026-04-21T15:03:25Z</time></trkpt><trkpt lat="43.822670970338045" lon="10.595614251043925"><ele>8.0</ele><time>2026-04-21T15:03:26Z</time></trkpt><trkpt lat="43.82262819661479" lon="10.595998217943151"><ele>8.0</ele><time>2026-04-21T15:03:27Z</time></trkpt><trkpt lat="43.82258240551506" lon="10.596389470903688"><ele>8.0</ele><time>2026-04-21T15:03:28Z</time></trkpt><trkpt lat="43.822541419573206" lon="10.596779400168828"><ele>8.0</ele><time>2026-04-21T15:03:29Z</time></trkpt><trkpt lat="43.8225012997828" lon="10.597152410630507"><ele>8.0</ele><time>2026-04-21T15:03:30Z</time></trkpt><trkpt lat="43.82245886785381" lon="10.59753372170698"><ele>9.5</ele><time>2026-04-21T15:03:31Z</time></trkpt><trkpt lat="43.82241558851172" lon="10.597915449707022"><ele>11.0</ele><time>2026-04-21T15:03:32Z</time></trkpt><trkpt lat="43.82237157392406" lon="10.598291145248385"><ele>11.0</ele><time>2026-04-21T15:03:33Z</time></trkpt><trkpt lat="43.82232628284884" lon="10.59866878404784"><ele>11.0</ele><time>2026-04-21T15:03:34Z</time></trkpt><trkpt lat="43.82227979948904" lon="10.599047859993368"><ele>11.0</ele><time>2026-04-21T15:03:35Z</time></trkpt><trkpt lat="43.822232703736596" lon="10.599422757835953"><ele>11.0</ele><time>2026-04-21T15:03:36Z</time></trkpt><trkpt lat="43.82218532816998" lon="10.599799636261857"><ele>11.0</ele><time>2026-04-21T15:03:37Z</time></trkpt><trkpt lat="43.82214632644224" lon="10.600174044753865"><ele>11.0</ele><time>2026-04-21T15:03:38Z</time></trkpt><trkpt lat="43.82210881844313" lon="10.60055214730727"><ele>11.0</ele><time>2026-04-21T15:03:39Z</time></trkpt><trkpt lat="43.8220723994745" lon="10.60092918440609"><ele>11.0</ele><time>2026-04-21T15:03:40Z</time></trkpt><trkpt lat="43.822033845315005" lon="10.601308633527061"><ele>11.0</ele><time>2026-04-21T15:03:41Z</time></trkpt><trkpt lat="43.821995662976754" lon="10.601688878225058"><ele>11.0</ele><time>2026-04-21T15:03:42Z</time></trkpt><trkpt lat="43.82195786804197" lon="10.602067885432778"><ele>10.0</ele><time>2026-04-21T15:03:43Z</time></trkpt><trkpt lat="43.8219183321191" lon="10.602444908775286"><ele>9.0</ele><time>2026-04-21T15:03:44Z</time></trkpt><trkpt lat="43.821875049200315" lon="10.602822235991292"><ele>9.0</ele><time>2026-04-21T15:03:45Z</time></trkpt><trkpt lat="43.821835911250865" lon="10.603193914004285"><ele>9.0</ele><time>2026-04-21T15:03:46Z</time></trkpt><trkpt lat="43.821792220864246" lon="10.603572146789364"><ele>10.5</ele><time>2026-04-21T15:03:47Z</time></trkpt><trkpt lat="43.821748375670914" lon="10.603948535593064"><ele>12.0</ele><time>2026-04-21T15:03:48Z</time></trkpt><trkpt lat="43.8217031149866" lon="10.604322315831691"><ele>12.5</ele><time>2026-04-21T15:03:49Z</time></trkpt><trkpt lat="43.82165569484344" lon="10.60469597144107"><ele>13.0</ele><time>2026-04-21T15:03:50Z</time></trkpt><trkpt lat="43.82160894898234" lon="10.605064748849292"><ele>11.5</ele><time>2026-04-21T15:03:51Z</time></trkpt><trkpt lat="43.821560887153616" lon="10.605436481067581"><ele>10.0</ele><time>2026-04-21T15:03:52Z</time></trkpt><trkpt lat="43.82151540752036" lon="10.60580358929781"><ele>10.0</ele><time>2026-04-21T15:03:53Z</time></trkpt><trkpt lat="43.821471851308054" lon="10.606166896033072"><ele>10.0</ele><time>2026-04-21T15:03:54Z</time></trkpt><trkpt lat="43.82143289875367" lon="10.606537015741774"><ele>10.0</ele><time>2026-04-21T15:03:55Z</time></trkpt><trkpt lat="43.82139790627869" lon="10.606909488334592"><ele>10.0</ele><time>2026-04-21T15:03:56Z</time></trkpt><trkpt lat="43.821362679776485" lon="10.607284511190926"><ele>10.0</ele><time>2026-04-21T15:03:57Z</time></trkpt><trkpt lat="43.82132231188374" lon="10.607657999814533"><ele>10.0</ele><time>2026-04-21T15:03:58Z</time></trkpt><trkpt lat="43.82127471828646" lon="10.608029619650361"><ele>9.5</ele><time>2026-04-21T15:03:59Z</time></trkpt><trkpt lat="43.82122213108116" lon="10.608404786241312"><ele>9.0</ele><time>2026-04-21T15:04:00Z</time></trkpt><trkpt lat="43.821168393657885" lon="10.608777819225988"><ele>9.0</ele><time>2026-04-21T15:04:01Z</time></trkpt><trkpt lat="43.82111988414905" lon="10.609138115622164"><ele>9.0</ele><time>2026-04-21T15:04:02Z</time></trkpt><trkpt lat="43.82107808180391" lon="10.609494960369917"><ele>9.5</ele><time>2026-04-21T15:04:03Z</time></trkpt><trkpt lat="43.82103914863007" lon="10.609852585739956"><ele>10.0</ele><time>2026-04-21T15:04:04Z</time></trkpt><trkpt lat="43.82100074002699" lon="10.610202348808247"><ele>10.0</ele><time>2026-04-21T15:04:05Z</time></trkpt><trkpt lat="43.8209618753045" lon="10.610551357231957"><ele>10.0</ele><time>2026-04-21T15:04:06Z</time></trkpt><trkpt lat="43.82092238873111" lon="10.610899554461097"><ele>11.0</ele><time>2026-04-21T15:04:07Z</time></trkpt><trkpt lat="43.82088263118084" lon="10.611248189373859"><ele>12.0</ele><time>2026-04-21T15:04:08Z</time></trkpt><trkpt lat="43.82084338794311" lon="10.611596326925655"><ele>12.0</ele><time>2026-04-21T15:04:09Z</time></trkpt><trkpt lat="43.82080512555169" lon="10.611942936681071"><ele>12.0</ele><time>2026-04-21T15:04:10Z</time></trkpt><trkpt lat="43.820769771438826" lon="10.612289032294722"><ele>12.0</ele><time>2026-04-21T15:04:11Z</time></trkpt><trkpt lat="43.82073685755923" lon="10.612643440156464"><ele>12.0</ele><time>2026-04-21T15:04:12Z</time></trkpt><trkpt lat="43.82070239920756" lon="10.612994126786814"><ele>12.0</ele><time>2026-04-21T15:04:13Z</time></trkpt><trkpt lat="43.82066156286758" lon="10.613346696936285"><ele>12.0</ele><time>2026-04-21T15:04:14Z</time></trkpt><trkpt lat="43.820620887596796" lon="10.613695918210077"><ele>11.5</ele><time>2026-04-21T15:04:15Z</time></trkpt><trkpt lat="43.8205795730861" lon="10.614047092456783"><ele>11.0</ele><time>2026-04-21T15:04:16Z</time></trkpt><trkpt lat="43.82053824882784" lon="10.614392427731554"><ele>11.0</ele><time>2026-04-21T15:04:17Z</time></trkpt><trkpt lat="43.82049705157394" lon="10.614736204998048"><ele>11.0</ele><time>2026-04-21T15:04:18Z</time></trkpt><trkpt lat="43.82045486432218" lon="10.615080565870807"><ele>12.0</ele><time>2026-04-21T15:04:19Z</time></trkpt><trkpt lat="43.820412774610546" lon="10.615423908357716"><ele>13.0</ele><time>2026-04-21T15:04:20Z</time></trkpt><trkpt lat="43.82037059914001" lon="10.615774866915963"><ele>13.0</ele><time>2026-04-21T15:04:21Z</time></trkpt><trkpt lat="43.8203283363024" lon="10.616124986467627"><ele>13.0</ele><time>2026-04-21T15:04:22Z</time></trkpt><trkpt lat="43.820286368914005" lon="10.61647199177533"><ele>13.0</ele><time>2026-04-21T15:04:23Z</time></trkpt><trkpt lat="43.82024385238906" lon="10.616826911797506"><ele>13.0</ele><time>2026-04-21T15:04:24Z</time></trkpt><trkpt lat="43.82020265326289" lon="10.617181459602815"><ele>12.5</ele><time>2026-04-21T15:04:25Z</time></trkpt><trkpt lat="43.820161703489326" lon="10.617532080954211"><ele>12.0</ele><time>2026-04-21T15:04:26Z</time></trkpt><trkpt lat="43.82012129884826" lon="10.617880440462454"><ele>11.5</ele><time>2026-04-21T15:04:27Z</time></trkpt><trkpt lat="43.820080357745226" lon="10.618232871797629"><ele>11.0</ele><time>2026-04-21T15:04:28Z</time></trkpt><trkpt lat="43.82004149922534" lon="10.618587841315431"><ele>10.5</ele><time>2026-04-21T15:04:29Z</time></trkpt><trkpt lat="43.82000082867654" lon="10.61894505633801"><ele>10.0</ele><time>2026-04-21T15:04:30Z</time></trkpt><trkpt lat="43.81995846309282" lon="10.6193039763583"><ele>10.5</ele><time>2026-04-21T15:04:31Z</time></trkpt><trkpt lat="43.81991980290447" lon="10.619653402196791"><ele>11.0</ele><time>2026-04-21T15:04:32Z</time></trkpt><trkpt lat="43.81988230172137" lon="10.620003908760236"><ele>11.0</ele><time>2026-04-21T15:04:33Z</time></trkpt><trkpt lat="43.819842920733045" lon="10.620359644009282"><ele>11.0</ele><time>2026-04-21T15:04:34Z</time></trkpt><trkpt lat="43.81980641024782" lon="10.620720973596935"><ele>11.0</ele><time>2026-04-21T15:04:35Z</time></trkpt><trkpt lat="43.81977212229416" lon="10.621083800079834"><ele>11.0</ele><time>2026-04-21T15:04:36Z</time></trkpt><trkpt lat="43.81973420676527" lon="10.621448767247047"><ele>11.0</ele><time>2026-04-21T15:04:37Z</time></trkpt><trkpt lat="43.81969645936761" lon="10.621818816783044"><ele>11.0</ele><time>2026-04-21T15:04:38Z</time></trkpt><trkpt lat="43.81965501503904" lon="10.622187527960767"><ele>11.0</ele><time>2026-04-21T15:04:39Z</time></trkpt><trkpt lat="43.81961215296808" lon="10.622555179640758"><ele>11.0</ele><time>2026-04-21T15:04:40Z</time></trkpt><trkpt lat="43.81956787452144" lon="10.622925570747247"><ele>11.0</ele><time>2026-04-21T15:04:41Z</time></trkpt><trkpt lat="43.819523718066144" lon="10.62329231793653"><ele>11.0</ele><time>2026-04-21T15:04:42Z</time></trkpt><trkpt lat="43.81948020554654" lon="10.623663383702004"><ele>11.0</ele><time>2026-04-21T15:04:43Z</time></trkpt><trkpt lat="43.81943757392622" lon="10.62402712538946"><ele>11.0</ele><time>2026-04-21T15:04:44Z</time></trkpt><trkpt lat="43.81939333261306" lon="10.624396457066448"><ele>10.5</ele><time>2026-04-21T15:04:45Z</time></trkpt><trkpt lat="43.81934197532699" lon="10.624766723376576"><ele>10.0</ele><time>2026-04-21T15:04:46Z</time></trkpt><trkpt lat="43.8192911104061" lon="10.625132115953516"><ele>10.5</ele><time>2026-04-21T15:04:47Z</time></trkpt><trkpt lat="43.81924416506534" lon="10.625503315287228"><ele>11.0</ele><time>2026-04-21T15:04:48Z</time></trkpt><trkpt lat="43.81919954996286" lon="10.625874331722821"><ele>10.5</ele><time>2026-04-21T15:04:49Z</time></trkpt><trkpt lat="43.81915605319681" lon="10.626245319948199"><ele>10.0</ele><time>2026-04-21T15:04:50Z</time></trkpt><trkpt lat="43.819113750585394" lon="10.62661434052242"><ele>9.0</ele><time>2026-04-21T15:04:51Z</time></trkpt><trkpt lat="43.819067321274616" lon="10.626987587044656"><ele>8.0</ele><time>2026-04-21T15:04:52Z</time></trkpt><trkpt lat="43.81902496282053" lon="10.62735656367752"><ele>8.0</ele><time>2026-04-21T15:04:53Z</time></trkpt><trkpt lat="43.81898290116215" lon="10.62773097380212"><ele>8.0</ele><time>2026-04-21T15:04:54Z</time></trkpt><trkpt lat="43.81893999545874" lon="10.628102301793396"><ele>9.0</ele><time>2026-04-21T15:04:55Z</time></trkpt><trkpt lat="43.81890055164302" lon="10.628475760385967"><ele>10.0</ele><time>2026-04-21T15:04:56Z</time></trkpt><trkpt lat="43.81885573435697" lon="10.628845640556857"><ele>10.0</ele><time>2026-04-21T15:04:57Z</time></trkpt><trkpt lat="43.81881191989768" lon="10.629215920530832"><ele>10.0</ele><time>2026-04-21T15:04:58Z</time></trkpt><trkpt lat="43.81876913957405" lon="10.629587640313705"><ele>9.5</ele><time>2026-04-21T15:04:59Z</time></trkpt><trkpt lat="43.81872666077758" lon="10.62995930511775"><ele>9.0</ele><time>2026-04-21T15:05:00Z</time></trkpt><trkpt lat="43.818686335591096" lon="10.6303295162912"><ele>8.0</ele><time>2026-04-21T15:05:01Z</time></trkpt><trkpt lat="43.818645312973224" lon="10.630701213911777"><ele>7.0</ele><time>2026-04-21T15:05:02Z</time></trkpt><trkpt lat="43.81860435973767" lon="10.631074593593448"><ele>7.5</ele><time>2026-04-21T15:05:03Z</time></trkpt><trkpt lat="43.818560905018686" lon="10.631443470080098"><ele>8.0</ele><time>2026-04-21T15:05:04Z</time></trkpt><trkpt lat="43.81851759794799" lon="10.63181270141518"><ele>7.5</ele><time>2026-04-21T15:05:05Z</time></trkpt><trkpt lat="43.81847426428859" lon="10.632181763936629"><ele>7.0</ele><time>2026-04-21T15:05:06Z</time></trkpt><trkpt lat="43.818435070796696" lon="10.632549570490895"><ele>7.0</ele><time>2026-04-21T15:05:07Z</time></trkpt><trkpt lat="43.818393119882174" lon="10.632915529373355"><ele>7.0</ele><time>2026-04-21T15:05:08Z</time></trkpt><trkpt lat="43.81835026758236" lon="10.633286960178232"><ele>7.5</ele><time>2026-04-21T15:05:09Z</time></trkpt><trkpt lat="43.81830672308047" lon="10.633658648014435"><ele>8.0</ele><time>2026-04-21T15:05:10Z</time></trkpt><trkpt lat="43.818265654014716" lon="10.634030283158419"><ele>8.0</ele><time>2026-04-21T15:05:11Z</time></trkpt><trkpt lat="43.81822282839621" lon="10.634404134107536"><ele>8.0</ele><time>2026-04-21T15:05:12Z</time></trkpt><trkpt lat="43.81817966207894" lon="10.634773403817336"><ele>7.5</ele><time>2026-04-21T15:05:13Z</time></trkpt><trkpt lat="43.81813787709772" lon="10.635142984992966"><ele>7.0</ele><time>2026-04-21T15:05:14Z</time></trkpt><trkpt lat="43.81809567182196" lon="10.635509493492876"><ele>7.0</ele><time>2026-04-21T15:05:15Z</time></trkpt><trkpt lat="43.81805285383724" lon="10.635880045541121"><ele>7.0</ele><time>2026-04-21T15:05:16Z</time></trkpt><trkpt lat="43.8180083349196" lon="10.636254952181051"><ele>7.0</ele><time>2026-04-21T15:05:17Z</time></trkpt><trkpt lat="43.81796524159341" lon="10.636628705002146"><ele>7.0</ele><time>2026-04-21T15:05:18Z</time></trkpt><trkpt lat="43.817920873134796" lon="10.637000845020022"><ele>7.0</ele><time>2026-04-21T15:05:19Z</time></trkpt><trkpt lat="43.817876280779004" lon="10.637366759143818"><ele>7.0</ele><time>2026-04-21T15:05:20Z</time></trkpt><trkpt lat="43.81783476380032" lon="10.637735100141338"><ele>7.0</ele><time>2026-04-21T15:05:21Z</time></trkpt><trkpt lat="43.81779380366894" lon="10.638099514205933"><ele>7.0</ele><time>2026-04-21T15:05:22Z</time></trkpt><trkpt lat="43.81775568687147" lon="10.638461333010707"><ele>7.5</ele><time>2026-04-21T15:05:23Z</time></trkpt><trkpt lat="43.81772056777617" lon="10.638824510240386"><ele>8.0</ele><time>2026-04-21T15:05:24Z</time></trkpt><trkpt lat="43.817686636833656" lon="10.639185745781047"><ele>7.5</ele><time>2026-04-21T15:05:25Z</time></trkpt><trkpt lat="43.8176506042848" lon="10.63954526377358"><ele>7.0</ele><time>2026-04-21T15:05:26Z</time></trkpt><trkpt lat="43.817614390794596" lon="10.639902199807246"><ele>7.0</ele><time>2026-04-21T15:05:27Z</time></trkpt><trkpt lat="43.81757917422735" lon="10.640260890979912"><ele>7.0</ele><time>2026-04-21T15:05:28Z</time></trkpt><trkpt lat="43.817542517571766" lon="10.640614105944156"><ele>7.0</ele><time>2026-04-21T15:05:29Z</time></trkpt><trkpt lat="43.81750342973309" lon="10.640968168255473"><ele>7.0</ele><time>2026-04-21T15:05:30Z</time></trkpt><trkpt lat="43.81746001362244" lon="10.641327016373584"><ele>7.0</ele><time>2026-04-21T15:05:31Z</time></trkpt><trkpt lat="43.81741525435371" lon="10.641688337398708"><ele>7.0</ele><time>2026-04-21T15:05:32Z</time></trkpt><trkpt lat="43.81737108736536" lon="10.642051347254617"><ele>7.0</ele><time>2026-04-21T15:05:33Z</time></trkpt><trkpt lat="43.81732789926062" lon="10.642419689674735"><ele>7.0</ele><time>2026-04-21T15:05:34Z</time></trkpt><trkpt lat="43.81728552233414" lon="10.642793126307247"><ele>7.0</ele><time>2026-04-21T15:05:35Z</time></trkpt><trkpt lat="43.81724288810338" lon="10.643170161080283"><ele>7.0</ele><time>2026-04-21T15:05:36Z</time></trkpt><trkpt lat="43.81719764512134" lon="10.643548439531019"><ele>6.5</ele><time>2026-04-21T15:05:37Z</time></trkpt><trkpt lat="43.81715032299548" lon="10.64394178054736"><ele>6.0</ele><time>2026-04-21T15:05:38Z</time></trkpt><trkpt lat="43.81710087950454" lon="10.644342571923"><ele>6.5</ele><time>2026-04-21T15:05:39Z</time></trkpt><trkpt lat="43.817048089118195" lon="10.644751694732207"><ele>7.0</ele><time>2026-04-21T15:05:40Z</time></trkpt><trkpt lat="43.81699622691838" lon="10.645169965882918"><ele>7.5</ele><time>2026-04-21T15:05:41Z</time></trkpt><trkpt lat="43.816945627597406" lon="10.645425975366821"><ele>8.0</ele><time>2026-04-21T15:05:42Z</time></trkpt><trkpt lat="43.81690022760544" lon="10.645807479872394"><ele>7.5</ele><time>2026-04-21T15:05:43Z</time></trkpt><trkpt lat="43.8168565165298" lon="10.646192226400393"><ele>7.0</ele><time>2026-04-21T15:05:44Z</time></trkpt><trkpt lat="43.816814155834486" lon="10.64657094528537"><ele>7.0</ele><time>2026-04-21T15:05:45Z</time></trkpt><trkpt lat="43.81677319081991" lon="10.646944937501232"><ele>7.0</ele><time>2026-04-21T15:05:46Z</time></trkpt><trkpt lat="43.816732143128114" lon="10.647329984769193"><ele>8.5</ele><time>2026-04-21T15:05:47Z</time></trkpt><trkpt lat="43.816687162498106" lon="10.64771130081025"><ele>10.0</ele><time>2026-04-21T15:05:48Z</time></trkpt><trkpt lat="43.816645303162645" lon="10.648086228085763"><ele>11.0</ele><time>2026-04-21T15:05:49Z</time></trkpt><trkpt lat="43.81660091937894" lon="10.64846680270058"><ele>12.0</ele><time>2026-04-21T15:05:50Z</time></trkpt><trkpt lat="43.8165524199861" lon="10.648846542936829"><ele>12.5</ele><time>2026-04-21T15:05:51Z</time></trkpt><trkpt lat="43.81650506117231" lon="10.64922281836124"><ele>13.0</ele><time>2026-04-21T15:05:52Z</time></trkpt><trkpt lat="43.816463688709604" lon="10.64960421097743"><ele>13.0</ele><time>2026-04-21T15:05:53Z</time></trkpt><trkpt lat="43.81642481012803" lon="10.649981573487782"><ele>13.0</ele><time>2026-04-21T15:05:54Z</time></trkpt><trkpt lat="43.8163828982253" lon="10.650363482384863"><ele>13.0</ele><time>2026-04-21T15:05:55Z</time></trkpt><trkpt lat="43.81634237381139" lon="10.650743253415081"><ele>13.0</ele><time>2026-04-21T15:05:56Z</time></trkpt><trkpt lat="43.816297905218036" lon="10.651132597881324"><ele>13.0</ele><time>2026-04-21T15:05:57Z</time></trkpt><trkpt lat="43.81624876513522" lon="10.6515111876426"><ele>13.0</ele><time>2026-04-21T15:05:58Z</time></trkpt><trkpt lat="43.81620372560267" lon="10.651894545734566"><ele>13.0</ele><time>2026-04-21T15:05:59Z</time></trkpt><trkpt lat="43.81615981676683" lon="10.65227355644102"><ele>13.0</ele><time>2026-04-21T15:06:00Z</time></trkpt><trkpt lat="43.816116735698145" lon="10.652646648634201"><ele>12.5</ele><time>2026-04-21T15:06:01Z</time></trkpt><trkpt lat="43.81607458902146" lon="10.653027944114264"><ele>12.0</ele><time>2026-04-21T15:06:02Z</time></trkpt><trkpt lat="43.81603896445614" lon="10.653408513311609"><ele>13.5</ele><time>2026-04-21T15:06:03Z</time></trkpt><trkpt lat="43.81600181760691" lon="10.653781854488951"><ele>15.0</ele><time>2026-04-21T15:06:04Z</time></trkpt><trkpt lat="43.81595325213893" lon="10.654155511063594"><ele>17.0</ele><time>2026-04-21T15:06:05Z</time></trkpt><trkpt lat="43.81590970106601" lon="10.654530377211485"><ele>19.0</ele><time>2026-04-21T15:06:06Z</time></trkpt><trkpt lat="43.81586537887478" lon="10.654903089398772"><ele>19.0</ele><time>2026-04-21T15:06:07Z</time></trkpt><trkpt lat="43.81581922871714" lon="10.655278563405782"><ele>19.0</ele><time>2026-04-21T15:06:08Z</time></trkpt><trkpt lat="43.81576878518013" lon="10.65565118333271"><ele>18.0</ele><time>2026-04-21T15:06:09Z</time></trkpt><trkpt lat="43.81572494896092" lon="10.656020635372943"><ele>17.0</ele><time>2026-04-21T15:06:10Z</time></trkpt><trkpt lat="43.81568284161326" lon="10.656392431096238"><ele>17.0</ele><time>2026-04-21T15:06:11Z</time></trkpt><trkpt lat="43.81564306006628" lon="10.656768221300426"><ele>17.0</ele><time>2026-04-21T15:06:12Z</time></trkpt><trkpt lat="43.81560222622722" lon="10.657143265058538"><ele>17.0</ele><time>2026-04-21T15:06:13Z</time></trkpt><trkpt lat="43.81555941539782" lon="10.657519543427949"><ele>17.0</ele><time>2026-04-21T15:06:14Z</time></trkpt><trkpt lat="43.815516571061295" lon="10.657894876250245"><ele>17.0</ele><time>2026-04-21T15:06:15Z</time></trkpt><trkpt lat="43.81547416657673" lon="10.658269590757948"><ele>17.0</ele><time>2026-04-21T15:06:16Z</time></trkpt><trkpt lat="43.815431495692145" lon="10.658644935889697"><ele>17.0</ele><time>2026-04-21T15:06:17Z</time></trkpt><trkpt lat="43.81539177598903" lon="10.659023418394707"><ele>17.0</ele><time>2026-04-21T15:06:18Z</time></trkpt><trkpt lat="43.81535092184887" lon="10.659399874824484"><ele>17.5</ele><time>2026-04-21T15:06:19Z</time></trkpt><trkpt lat="43.81530927690062" lon="10.659776175388126"><ele>18.0</ele><time>2026-04-21T15:06:20Z</time></trkpt><trkpt lat="43.81526447936498" lon="10.660149250032276"><ele>17.5</ele><time>2026-04-21T15:06:21Z</time></trkpt><trkpt lat="43.815220552602355" lon="10.660521163318416"><ele>17.0</ele><time>2026-04-21T15:06:22Z</time></trkpt><trkpt lat="43.815175935335986" lon="10.660894686116054"><ele>16.0</ele><time>2026-04-21T15:06:23Z</time></trkpt><trkpt lat="43.81512982675436" lon="10.661266417170438"><ele>15.0</ele><time>2026-04-21T15:06:24Z</time></trkpt><trkpt lat="43.815083229924156" lon="10.661638963015426"><ele>14.5</ele><time>2026-04-21T15:06:25Z</time></trkpt><trkpt lat="43.81503773467143" lon="10.662016112823897"><ele>14.0</ele><time>2026-04-21T15:06:26Z</time></trkpt><trkpt lat="43.81499435458917" lon="10.662393575179532"><ele>14.0</ele><time>2026-04-21T15:06:27Z</time></trkpt><trkpt lat="43.81495291187283" lon="10.662773906562585"><ele>14.0</ele><time>2026-04-21T15:06:28Z</time></trkpt><trkpt lat="43.81490782173072" lon="10.663154833770875"><ele>13.5</ele><time>2026-04-21T15:06:29Z</time></trkpt><trkpt lat="43.814861961264405" lon="10.663532679743277"><ele>13.0</ele><time>2026-04-21T15:06:30Z</time></trkpt><trkpt lat="43.814815283002176" lon="10.663910372250985"><ele>14.0</ele><time>2026-04-21T15:06:31Z</time></trkpt><trkpt lat="43.81477334395052" lon="10.66429152881385"><ele>15.0</ele><time>2026-04-21T15:06:32Z</time></trkpt><trkpt lat="43.814729245721146" lon="10.66466263985767"><ele>16.0</ele><time>2026-04-21T15:06:33Z</time></trkpt><trkpt lat="43.81468838343007" lon="10.665016278548375"><ele>17.0</ele><time>2026-04-21T15:06:34Z</time></trkpt><trkpt lat="43.81465201531206" lon="10.665380038426127"><ele>17.0</ele><time>2026-04-21T15:06:35Z</time></trkpt><trkpt lat="43.814622642515424" lon="10.665724288848981"><ele>17.0</ele><time>2026-04-21T15:06:36Z</time></trkpt><trkpt lat="43.8145965676359" lon="10.666069560010369"><ele>16.0</ele><time>2026-04-21T15:06:37Z</time></trkpt><trkpt lat="43.81458099573563" lon="10.666419709369876"><ele>15.0</ele><time>2026-04-21T15:06:38Z</time></trkpt><trkpt lat="43.81458511257249" lon="10.666767752176105"><ele>14.0</ele><time>2026-04-21T15:06:39Z</time></trkpt><trkpt lat="43.814594941615404" lon="10.667127967824193"><ele>13.0</ele><time>2026-04-21T15:06:40Z</time></trkpt><trkpt lat="43.814606933396135" lon="10.667452320255848"><ele>12.0</ele><time>2026-04-21T15:06:41Z</time></trkpt><trkpt lat="43.81463000630147" lon="10.667779804493058"><ele>11.0</ele><time>2026-04-21T15:06:42Z</time></trkpt><trkpt lat="43.81466231279491" lon="10.668095485518304"><ele>11.0</ele><time>2026-04-21T15:06:43Z</time></trkpt><trkpt lat="43.814704792695146" lon="10.668415046274093"><ele>11.0</ele><time>2026-04-21T15:06:44Z</time></trkpt><trkpt lat="43.81475566229409" lon="10.668735327583725"><ele>10.5</ele><time>2026-04-21T15:06:45Z</time></trkpt><trkpt lat="43.81481962258515" lon="10.669061440343336"><ele>10.0</ele><time>2026-04-21T15:06:46Z</time></trkpt><trkpt lat="43.81489062269717" lon="10.669382056393971"><ele>10.5</ele><time>2026-04-21T15:06:47Z</time></trkpt><trkpt lat="43.81497907799477" lon="10.66970288908545"><ele>11.0</ele><time>2026-04-21T15:06:48Z</time></trkpt><trkpt lat="43.81508483591283" lon="10.670026201451618"><ele>11.0</ele><time>2026-04-21T15:06:49Z</time></trkpt><trkpt lat="43.8151955335884" lon="10.670352923857443"><ele>11.0</ele><time>2026-04-21T15:06:50Z</time></trkpt><trkpt lat="43.815307319057965" lon="10.670681623234884"><ele>11.0</ele><time>2026-04-21T15:06:51Z</time></trkpt><trkpt lat="43.81542536473034" lon="10.67100550398058"><ele>11.0</ele><time>2026-04-21T15:06:52Z</time></trkpt><trkpt lat="43.81554643815181" lon="10.671329898392463"><ele>11.5</ele><time>2026-04-21T15:06:53Z</time></trkpt><trkpt lat="43.815666163922145" lon="10.671653646579573"><ele>12.0</ele><time>2026-04-21T15:06:54Z</time></trkpt><trkpt lat="43.81578267025691" lon="10.671973397270616"><ele>12.0</ele><time>2026-04-21T15:06:55Z</time></trkpt><trkpt lat="43.8158997292089" lon="10.672301344439026"><ele>12.0</ele><time>2026-04-21T15:06:56Z</time></trkpt><trkpt lat="43.8160162600189" lon="10.672627807632338"><ele>12.5</ele><time>2026-04-21T15:06:57Z</time></trkpt><trkpt lat="43.816123672713296" lon="10.672931759462944"><ele>13.0</ele><time>2026-04-21T15:06:58Z</time></trkpt><trkpt lat="43.81624048765855" lon="10.673250573914846"><ele>13.0</ele><time>2026-04-21T15:06:59Z</time></trkpt><trkpt lat="43.816354321513494" lon="10.673567233109274"><ele>13.0</ele><time>2026-04-21T15:07:00Z</time></trkpt><trkpt lat="43.81646839786159" lon="10.673885627444639"><ele>13.0</ele><time>2026-04-21T15:07:01Z</time></trkpt><trkpt lat="43.81659117593472" lon="10.674216488929218"><ele>13.0</ele><time>2026-04-21T15:07:02Z</time></trkpt><trkpt lat="43.816710430199926" lon="10.674546439643818"><ele>13.5</ele><time>2026-04-21T15:07:03Z</time></trkpt><trkpt lat="43.8168281060079" lon="10.674881985272034"><ele>14.0</ele><time>2026-04-21T15:07:04Z</time></trkpt><trkpt lat="43.81694158379683" lon="10.67522065494298"><ele>15.0</ele><time>2026-04-21T15:07:05Z</time></trkpt><trkpt lat="43.81705881061319" lon="10.67555327378389"><ele>16.0</ele><time>2026-04-21T15:07:06Z</time></trkpt><trkpt lat="43.81717935734879" lon="10.67589102095434"><ele>16.0</ele><time>2026-04-21T15:07:07Z</time></trkpt><trkpt lat="43.817302959928426" lon="10.676233810562174"><ele>16.0</ele><time>2026-04-21T15:07:08Z</time></trkpt><trkpt lat="43.81741923465634" lon="10.676568433374076"><ele>16.0</ele><time>2026-04-21T15:07:09Z</time></trkpt><trkpt lat="43.8175324495341" lon="10.676899511372762"><ele>16.0</ele><time>2026-04-21T15:07:10Z</time></trkpt><trkpt lat="43.817647564815786" lon="10.677230019523956"><ele>16.5</ele><time>2026-04-21T15:07:11Z</time></trkpt><trkpt lat="43.817755214733936" lon="10.677557612039715"><ele>17.0</ele><time>2026-04-21T15:07:12Z</time></trkpt><trkpt lat="43.81786220951428" lon="10.677883093437703"><ele>15.5</ele><time>2026-04-21T15:07:13Z</time></trkpt><trkpt lat="43.817967142502894" lon="10.678196642610152"><ele>14.0</ele><time>2026-04-21T15:07:14Z</time></trkpt><trkpt lat="43.81808057887866" lon="10.678507894382127"><ele>14.5</ele><time>2026-04-21T15:07:15Z</time></trkpt><trkpt lat="43.818194760438494" lon="10.678818794464526"><ele>15.0</ele><time>2026-04-21T15:07:16Z</time></trkpt><trkpt lat="43.81829911197819" lon="10.679110828075945"><ele>15.0</ele><time>2026-04-21T15:07:17Z</time></trkpt><trkpt lat="43.81840617586536" lon="10.67940496934222"><ele>15.0</ele><time>2026-04-21T15:07:18Z</time></trkpt><trkpt lat="43.81851056618831" lon="10.67969012877515"><ele>16.0</ele><time>2026-04-21T15:07:19Z</time></trkpt><trkpt lat="43.81860482899787" lon="10.6799602437252"><ele>17.0</ele><time>2026-04-21T15:07:20Z</time></trkpt><trkpt lat="43.818695312398695" lon="10.680219435869578"><ele>18.0</ele><time>2026-04-21T15:07:21Z</time></trkpt><trkpt lat="43.81879092359283" lon="10.680475392736088"><ele>18.333333333333332</ele><time>2026-04-21T15:07:22Z</time></trkpt><trkpt lat="43.818886120275096" lon="10.680737080111816"><ele>18.666666666666664</ele><time>2026-04-21T15:07:23Z</time></trkpt><trkpt lat="43.818978135279764" lon="10.681000249162464"><ele>19.0</ele><time>2026-04-21T15:07:24Z</time></trkpt><trkpt lat="43.8190696616642" lon="10.68126222003325"><ele>19.333333333333332</ele><time>2026-04-21T15:07:25Z</time></trkpt><trkpt lat="43.81916362533477" lon="10.681523248179147"><ele>19.666666666666668</ele><time>2026-04-21T15:07:26Z</time></trkpt><trkpt lat="43.819256835479884" lon="10.681781764319373"><ele>20.0</ele><time>2026-04-21T15:07:27Z</time></trkpt><trkpt lat="43.81935295366664" lon="10.682036989063068"><ele>20.0</ele><time>2026-04-21T15:07:28Z</time></trkpt><trkpt lat="43.819446184331234" lon="10.682287178456372"><ele>20.0</ele><time>2026-04-21T15:07:29Z</time></trkpt><trkpt lat="43.81954022836236" lon="10.68253144921331"><ele>20.0</ele><time>2026-04-21T15:07:30Z</time></trkpt><trkpt lat="43.81963888838967" lon="10.682772968857487"><ele>20.0</ele><time>2026-04-21T15:07:31Z</time></trkpt><trkpt lat="43.81974201633" lon="10.68301429056714"><ele>20.0</ele><time>2026-04-21T15:07:32Z</time></trkpt><trkpt lat="43.81984966876199" lon="10.683249790611177"><ele>20.0</ele><time>2026-04-21T15:07:33Z</time></trkpt><trkpt lat="43.819960501512554" lon="10.68348320408086"><ele>20.0</ele><time>2026-04-21T15:07:34Z</time></trkpt><trkpt lat="43.82007218537196" lon="10.683715674763338"><ele>20.0</ele><time>2026-04-21T15:07:35Z</time></trkpt><trkpt lat="43.82018321293337" lon="10.683948913031816"><ele>20.0</ele><time>2026-04-21T15:07:36Z</time></trkpt><trkpt lat="43.82029962507816" lon="10.684187759945797"><ele>20.0</ele><time>2026-04-21T15:07:37Z</time></trkpt><trkpt lat="43.820424111620135" lon="10.684426328931185"><ele>20.0</ele><time>2026-04-21T15:07:38Z</time></trkpt><trkpt lat="43.82054933425001" lon="10.684665637028766"><ele>20.0</ele><time>2026-04-21T15:07:39Z</time></trkpt><trkpt lat="43.8206783132869" lon="10.684901137204518"><ele>20.0</ele><time>2026-04-21T15:07:40Z</time></trkpt><trkpt lat="43.820809863180905" lon="10.685130602932784"><ele>20.0</ele><time>2026-04-21T15:07:41Z</time></trkpt><trkpt lat="43.82094227551463" lon="10.685358390525723"><ele>20.0</ele><time>2026-04-21T15:07:42Z</time></trkpt><trkpt lat="43.82107522691269" lon="10.68557246239874"><ele>19.666666666666668</ele><time>2026-04-21T15:07:43Z</time></trkpt><trkpt lat="43.82121413637684" lon="10.685792174257404"><ele>19.333333333333332</ele><time>2026-04-21T15:07:44Z</time></trkpt><trkpt lat="43.82136045958878" lon="10.686017935850197"><ele>19.0</ele><time>2026-04-21T15:07:45Z</time></trkpt><trkpt lat="43.8214978152557" lon="10.686237324731149"><ele>19.0</ele><time>2026-04-21T15:07:46Z</time></trkpt><trkpt lat="43.82164393801786" lon="10.686467411318905"><ele>19.0</ele><time>2026-04-21T15:07:47Z</time></trkpt><trkpt lat="43.8217935441117" lon="10.68669737875551"><ele>19.0</ele><time>2026-04-21T15:07:48Z</time></trkpt><trkpt lat="43.82194436618742" lon="10.686934680134312"><ele>20.333333333333332</ele><time>2026-04-21T15:07:49Z</time></trkpt><trkpt lat="43.822091148590246" lon="10.687163849784307"><ele>21.666666666666668</ele><time>2026-04-21T15:07:50Z</time></trkpt><trkpt lat="43.82223334948061" lon="10.687397872317867"><ele>23.0</ele><time>2026-04-21T15:07:51Z</time></trkpt><trkpt lat="43.822378998414905" lon="10.687626754569218"><ele>23.5</ele><time>2026-04-21T15:07:52Z</time></trkpt><trkpt lat="43.82252413408498" lon="10.687860739623138"><ele>24.0</ele><time>2026-04-21T15:07:53Z</time></trkpt><trkpt lat="43.822677446998924" lon="10.688092857766396"><ele>24.0</ele><time>2026-04-21T15:07:54Z</time></trkpt><trkpt lat="43.82282707384381" lon="10.688326427070391"><ele>24.0</ele><time>2026-04-21T15:07:55Z</time></trkpt><trkpt lat="43.82297632718941" lon="10.688556814024258"><ele>24.0</ele><time>2026-04-21T15:07:56Z</time></trkpt><trkpt lat="43.82313192873713" lon="10.688804238201648"><ele>22.0</ele><time>2026-04-21T15:07:57Z</time></trkpt><trkpt lat="43.82328707342955" lon="10.689049085983271"><ele>20.0</ele><time>2026-04-21T15:07:58Z</time></trkpt><trkpt lat="43.82344327727312" lon="10.689297442435414"><ele>21.0</ele><time>2026-04-21T15:07:59Z</time></trkpt><trkpt lat="43.823602064487496" lon="10.689546002828454"><ele>22.0</ele><time>2026-04-21T15:08:00Z</time></trkpt><trkpt lat="43.82375830732134" lon="10.689793063483407"><ele>22.0</ele><time>2026-04-21T15:08:01Z</time></trkpt><trkpt lat="43.82392027280481" lon="10.690041724085345"><ele>22.0</ele><time>2026-04-21T15:08:02Z</time></trkpt><trkpt lat="43.82408057920132" lon="10.69029704962411"><ele>22.5</ele><time>2026-04-21T15:08:03Z</time></trkpt><trkpt lat="43.8242403534079" lon="10.690548527654663"><ele>23.0</ele><time>2026-04-21T15:08:04Z</time></trkpt><trkpt lat="43.82440101878052" lon="10.690797124146039"><ele>23.0</ele><time>2026-04-21T15:08:05Z</time></trkpt><trkpt lat="43.82456058230216" lon="10.69104593879492"><ele>23.0</ele><time>2026-04-21T15:08:06Z</time></trkpt><trkpt lat="43.824722096687616" lon="10.691299290784011"><ele>23.0</ele><time>2026-04-21T15:08:07Z</time></trkpt><trkpt lat="43.82488194333384" lon="10.69154685805818"><ele>23.0</ele><time>2026-04-21T15:08:08Z</time></trkpt><trkpt lat="43.82504041463146" lon="10.69179783667946"><ele>22.0</ele><time>2026-04-21T15:08:09Z</time></trkpt><trkpt lat="43.82519998361048" lon="10.692044406534384"><ele>21.0</ele><time>2026-04-21T15:08:10Z</time></trkpt><trkpt lat="43.8253568250563" lon="10.692290598721453"><ele>21.0</ele><time>2026-04-21T15:08:11Z</time></trkpt><trkpt lat="43.82551486914594" lon="10.69254109530297"><ele>21.0</ele><time>2026-04-21T15:08:12Z</time></trkpt><trkpt lat="43.825671042208945" lon="10.692791544309044"><ele>20.5</ele><time>2026-04-21T15:08:13Z</time></trkpt><trkpt lat="43.82582613340259" lon="10.693041577518674"><ele>20.0</ele><time>2026-04-21T15:08:14Z</time></trkpt><trkpt lat="43.825981175467334" lon="10.693285721058102"><ele>20.0</ele><time>2026-04-21T15:08:15Z</time></trkpt><trkpt lat="43.8261356606913" lon="10.693527219618602"><ele>20.0</ele><time>2026-04-21T15:08:16Z</time></trkpt><trkpt lat="43.82629163322381" lon="10.693773893156521"><ele>20.0</ele><time>2026-04-21T15:08:17Z</time></trkpt><trkpt lat="43.8264473053721" lon="10.694016100055222"><ele>20.0</ele><time>2026-04-21T15:08:18Z</time></trkpt><trkpt lat="43.82660217138388" lon="10.694262747986004"><ele>19.5</ele><time>2026-04-21T15:08:19Z</time></trkpt><trkpt lat="43.82676186313491" lon="10.69451422520242"><ele>19.0</ele><time>2026-04-21T15:08:20Z</time></trkpt><trkpt lat="43.826922106122204" lon="10.694762562313684"><ele>18.5</ele><time>2026-04-21T15:08:21Z</time></trkpt><trkpt lat="43.82707943996637" lon="10.695010513758044"><ele>18.0</ele><time>2026-04-21T15:08:22Z</time></trkpt><trkpt lat="43.827236580466874" lon="10.69525527222749"><ele>18.0</ele><time>2026-04-21T15:08:23Z</time></trkpt><trkpt lat="43.827394735711714" lon="10.695503791252484"><ele>18.0</ele><time>2026-04-21T15:08:24Z</time></trkpt><trkpt lat="43.827554079652714" lon="10.695756456600705"><ele>17.5</ele><time>2026-04-21T15:08:25Z</time></trkpt><trkpt lat="43.82770917883405" lon="10.696011599929681"><ele>17.0</ele><time>2026-04-21T15:08:26Z</time></trkpt><trkpt lat="43.82786940353158" lon="10.69626550694911"><ele>16.5</ele><time>2026-04-21T15:08:27Z</time></trkpt><trkpt lat="43.82803088551162" lon="10.696519331195516"><ele>16.0</ele><time>2026-04-21T15:08:28Z</time></trkpt><trkpt lat="43.82819579212089" lon="10.696771359383742"><ele>16.0</ele><time>2026-04-21T15:08:29Z</time></trkpt><trkpt lat="43.82835750768551" lon="10.69702271068146"><ele>16.0</ele><time>2026-04-21T15:08:30Z</time></trkpt><trkpt lat="43.82852011371325" lon="10.697279510262527"><ele>16.5</ele><time>2026-04-21T15:08:31Z</time></trkpt><trkpt lat="43.82868360002315" lon="10.69753316608241"><ele>17.0</ele><time>2026-04-21T15:08:32Z</time></trkpt><trkpt lat="43.828846949791874" lon="10.697784215585164"><ele>17.0</ele><time>2026-04-21T15:08:33Z</time></trkpt><trkpt lat="43.82901397359927" lon="10.698043330768556"><ele>17.0</ele><time>2026-04-21T15:08:34Z</time></trkpt><trkpt lat="43.829178579133824" lon="10.698302507594876"><ele>17.5</ele><time>2026-04-21T15:08:35Z</time></trkpt><trkpt lat="43.82934318661128" lon="10.698563431304615"><ele>18.0</ele><time>2026-04-21T15:08:36Z</time></trkpt><trkpt lat="43.82951454905901" lon="10.69882996212214"><ele>19.5</ele><time>2026-04-21T15:08:37Z</time></trkpt><trkpt lat="43.82969189478006" lon="10.699096970232599"><ele>21.0</ele><time>2026-04-21T15:08:38Z</time></trkpt><trkpt lat="43.82987066322846" lon="10.699357576333332"><ele>21.0</ele><time>2026-04-21T15:08:39Z</time></trkpt><trkpt lat="43.83005324731797" lon="10.699626634004721"><ele>21.0</ele><time>2026-04-21T15:08:40Z</time></trkpt><trkpt lat="43.83023480767849" lon="10.699907759897798"><ele>21.0</ele><time>2026-04-21T15:08:41Z</time></trkpt><trkpt lat="43.83041746821946" lon="10.700183930903172"><ele>21.0</ele><time>2026-04-21T15:08:42Z</time></trkpt><trkpt lat="43.83059674334232" lon="10.700462672637428"><ele>22.0</ele><time>2026-04-21T15:08:43Z</time></trkpt><trkpt lat="43.830777159248335" lon="10.700751019445367"><ele>23.0</ele><time>2026-04-21T15:08:44Z</time></trkpt><trkpt lat="43.83096110815611" lon="10.701036851750715"><ele>24.0</ele><time>2026-04-21T15:08:45Z</time></trkpt><trkpt lat="43.83114484973481" lon="10.701327370041192"><ele>25.0</ele><time>2026-04-21T15:08:46Z</time></trkpt><trkpt lat="43.831330196332736" lon="10.70161558576408"><ele>25.0</ele><time>2026-04-21T15:08:47Z</time></trkpt><trkpt lat="43.831514155621086" lon="10.701910622853589"><ele>25.0</ele><time>2026-04-21T15:08:48Z</time></trkpt><trkpt lat="43.83169433263051" lon="10.702205566310901"><ele>23.0</ele><time>2026-04-21T15:08:49Z</time></trkpt><trkpt lat="43.83187033937935" lon="10.702484152133657"><ele>21.0</ele><time>2026-04-21T15:08:50Z</time></trkpt><trkpt lat="43.8320388529782" lon="10.702749345178303"><ele>20.0</ele><time>2026-04-21T15:08:51Z</time></trkpt><trkpt lat="43.832215947374074" lon="10.703024872973367"><ele>19.0</ele><time>2026-04-21T15:08:52Z</time></trkpt><trkpt lat="43.832393725165176" lon="10.703300955582087"><ele>19.5</ele><time>2026-04-21T15:08:53Z</time></trkpt><trkpt lat="43.832578931778585" lon="10.703583499847575"><ele>20.0</ele><time>2026-04-21T15:08:54Z</time></trkpt><trkpt lat="43.83275657828078" lon="10.703857318595702"><ele>20.5</ele><time>2026-04-21T15:08:55Z</time></trkpt><trkpt lat="43.83293369543142" lon="10.704132962601877"><ele>21.0</ele><time>2026-04-21T15:08:56Z</time></trkpt><trkpt lat="43.83310534141119" lon="10.704408579093224"><ele>20.5</ele><time>2026-04-21T15:08:57Z</time></trkpt><trkpt lat="43.8332733241743" lon="10.704679384843294"><ele>20.0</ele><time>2026-04-21T15:08:58Z</time></trkpt><trkpt lat="43.83344129496661" lon="10.704943391437075"><ele>19.5</ele><time>2026-04-21T15:08:59Z</time></trkpt><trkpt lat="43.833612748499625" lon="10.705217987361188"><ele>19.0</ele><time>2026-04-21T15:09:00Z</time></trkpt><trkpt lat="43.83378448803437" lon="10.705486847708503"><ele>18.5</ele><time>2026-04-21T15:09:01Z</time></trkpt><trkpt lat="43.833952922768" lon="10.705750400717243"><ele>18.0</ele><time>2026-04-21T15:09:02Z</time></trkpt><trkpt lat="43.83412035248667" lon="10.706017057376325"><ele>18.5</ele><time>2026-04-21T15:09:03Z</time></trkpt><trkpt lat="43.834290413755724" lon="10.706281710875693"><ele>19.0</ele><time>2026-04-21T15:09:04Z</time></trkpt><trkpt lat="43.83445757737434" lon="10.706543594559541"><ele>19.0</ele><time>2026-04-21T15:09:05Z</time></trkpt><trkpt lat="43.83463188897525" lon="10.706814333919707"><ele>19.0</ele><time>2026-04-21T15:09:06Z</time></trkpt><trkpt lat="43.834803890033605" lon="10.707087540645926"><ele>19.0</ele><time>2026-04-21T15:09:07Z</time></trkpt><trkpt lat="43.834979204430844" lon="10.707364289630277"><ele>19.0</ele><time>2026-04-21T15:09:08Z</time></trkpt><trkpt lat="43.83515905571683" lon="10.707641952086684"><ele>19.0</ele><time>2026-04-21T15:09:09Z</time></trkpt><trkpt lat="43.83533907690044" lon="10.707924031327458"><ele>19.0</ele><time>2026-04-21T15:09:10Z</time></trkpt><trkpt lat="43.83551854592244" lon="10.708206854910543"><ele>19.0</ele><time>2026-04-21T15:09:11Z</time></trkpt><trkpt lat="43.83569714858731" lon="10.708484284267907"><ele>19.0</ele><time>2026-04-21T15:09:12Z</time></trkpt><trkpt lat="43.83587954367911" lon="10.708767662381726"><ele>18.5</ele><time>2026-04-21T15:09:13Z</time></trkpt><trkpt lat="43.836060218379565" lon="10.709048017321242"><ele>18.0</ele><time>2026-04-21T15:09:14Z</time></trkpt><trkpt lat="43.836241253864735" lon="10.709334717509327"><ele>19.0</ele><time>2026-04-21T15:09:15Z</time></trkpt><trkpt lat="43.83641651654026" lon="10.709619022330559"><ele>20.0</ele><time>2026-04-21T15:09:16Z</time></trkpt><trkpt lat="43.836597325302826" lon="10.709896304357821"><ele>20.0</ele><time>2026-04-21T15:09:17Z</time></trkpt><trkpt lat="43.83677789525608" lon="10.71018036085948"><ele>20.0</ele><time>2026-04-21T15:09:18Z</time></trkpt><trkpt lat="43.83695713165962" lon="10.710461598518345"><ele>19.5</ele><time>2026-04-21T15:09:19Z</time></trkpt><trkpt lat="43.83713564562236" lon="10.710745759714541"><ele>19.0</ele><time>2026-04-21T15:09:20Z</time></trkpt><trkpt lat="43.83731726204674" lon="10.711041290064438"><ele>19.0</ele><time>2026-04-21T15:09:21Z</time></trkpt><trkpt lat="43.83749854764959" lon="10.711324306013262"><ele>19.0</ele><time>2026-04-21T15:09:22Z</time></trkpt><trkpt lat="43.83768598449457" lon="10.711616285857488"><ele>19.0</ele><time>2026-04-21T15:09:23Z</time></trkpt><trkpt lat="43.837870077642876" lon="10.711907844412762"><ele>19.0</ele><time>2026-04-21T15:09:24Z</time></trkpt><trkpt lat="43.838055137859996" lon="10.712198616935243"><ele>19.0</ele><time>2026-04-21T15:09:25Z</time></trkpt><trkpt lat="43.83824068401099" lon="10.712485280510032"><ele>19.0</ele><time>2026-04-21T15:09:26Z</time></trkpt><trkpt lat="43.83842722338405" lon="10.712775511008779"><ele>18.5</ele><time>2026-04-21T15:09:27Z</time></trkpt><trkpt lat="43.83861582436" lon="10.713069412812434"><ele>18.0</ele><time>2026-04-21T15:09:28Z</time></trkpt><trkpt lat="43.83880284429646" lon="10.71336458857281"><ele>18.0</ele><time>2026-04-21T15:09:29Z</time></trkpt><trkpt lat="43.838988272461165" lon="10.713656615195955"><ele>18.0</ele><time>2026-04-21T15:09:30Z</time></trkpt><trkpt lat="43.839174120715214" lon="10.713950420474065"><ele>18.5</ele><time>2026-04-21T15:09:31Z</time></trkpt><trkpt lat="43.83935724993665" lon="10.714238961999493"><ele>19.0</ele><time>2026-04-21T15:09:32Z</time></trkpt><trkpt lat="43.83954330988009" lon="10.714539569593098"><ele>19.0</ele><time>2026-04-21T15:09:33Z</time></trkpt><trkpt lat="43.83973084072696" lon="10.714836585461795"><ele>19.0</ele><time>2026-04-21T15:09:34Z</time></trkpt><trkpt lat="43.839917476408004" lon="10.715126875232485"><ele>19.0</ele><time>2026-04-21T15:09:35Z</time></trkpt><trkpt lat="43.840106207129665" lon="10.715420675673238"><ele>19.0</ele><time>2026-04-21T15:09:36Z</time></trkpt><trkpt lat="43.840293478818744" lon="10.715714337075504"><ele>19.5</ele><time>2026-04-21T15:09:37Z</time></trkpt><trkpt lat="43.84048010417373" lon="10.71600959841312"><ele>20.0</ele><time>2026-04-21T15:09:38Z</time></trkpt><trkpt lat="43.84066790317916" lon="10.716299629898304"><ele>20.0</ele><time>2026-04-21T15:09:39Z</time></trkpt><trkpt lat="43.84084943168972" lon="10.71658906144635"><ele>20.0</ele><time>2026-04-21T15:09:40Z</time></trkpt><trkpt lat="43.84102815162116" lon="10.716869046413729"><ele>20.5</ele><time>2026-04-21T15:09:41Z</time></trkpt><trkpt lat="43.84120861703624" lon="10.717152107969309"><ele>21.0</ele><time>2026-04-21T15:09:42Z</time></trkpt><trkpt lat="43.84138873902949" lon="10.717434175549018"><ele>21.0</ele><time>2026-04-21T15:09:43Z</time></trkpt><trkpt lat="43.841569050818556" lon="10.717718563281132"><ele>21.0</ele><time>2026-04-21T15:09:44Z</time></trkpt><trkpt lat="43.84174848360334" lon="10.717997346397617"><ele>20.5</ele><time>2026-04-21T15:09:45Z</time></trkpt><trkpt lat="43.84192831404639" lon="10.71828080463025"><ele>20.0</ele><time>2026-04-21T15:09:46Z</time></trkpt><trkpt lat="43.842106131696966" lon="10.718561628920117"><ele>20.5</ele><time>2026-04-21T15:09:47Z</time></trkpt><trkpt lat="43.84228733506301" lon="10.718841513256809"><ele>21.0</ele><time>2026-04-21T15:09:48Z</time></trkpt><trkpt lat="43.84246540742118" lon="10.719120293494594"><ele>21.5</ele><time>2026-04-21T15:09:49Z</time></trkpt><trkpt lat="43.84263882110374" lon="10.719389057236281"><ele>22.0</ele><time>2026-04-21T15:09:50Z</time></trkpt><trkpt lat="43.84279983299047" lon="10.719640386734552"><ele>22.5</ele><time>2026-04-21T15:09:51Z</time></trkpt><trkpt lat="43.84296281125153" lon="10.719895768890593"><ele>23.0</ele><time>2026-04-21T15:09:52Z</time></trkpt><trkpt lat="43.84312882409693" lon="10.720157076849866"><ele>22.5</ele><time>2026-04-21T15:09:53Z</time></trkpt><trkpt lat="43.84329710030176" lon="10.72042382905033"><ele>22.0</ele><time>2026-04-21T15:09:54Z</time></trkpt><trkpt lat="43.84346844040503" lon="10.72069556558353"><ele>21.0</ele><time>2026-04-21T15:09:55Z</time></trkpt><trkpt lat="43.843641016290356" lon="10.720973521972441"><ele>20.0</ele><time>2026-04-21T15:09:56Z</time></trkpt><trkpt lat="43.84381568895979" lon="10.721254112735307"><ele>20.0</ele><time>2026-04-21T15:09:57Z</time></trkpt><trkpt lat="43.84399252579844" lon="10.721537404899687"><ele>20.0</ele><time>2026-04-21T15:09:58Z</time></trkpt><trkpt lat="43.84417300182843" lon="10.721821431994128"><ele>20.0</ele><time>2026-04-21T15:09:59Z</time></trkpt><trkpt lat="43.84435453874788" lon="10.722107326212774"><ele>20.0</ele><time>2026-04-21T15:10:00Z</time></trkpt><trkpt lat="43.844531238251506" lon="10.722380393293008"><ele>20.0</ele><time>2026-04-21T15:10:01Z</time></trkpt><trkpt lat="43.8447094475999" lon="10.722654333319877"><ele>20.0</ele><time>2026-04-21T15:10:02Z</time></trkpt><trkpt lat="43.84489160173115" lon="10.722938190189323"><ele>20.0</ele><time>2026-04-21T15:10:03Z</time></trkpt><trkpt lat="43.84506655975526" lon="10.72321113808081"><ele>20.0</ele><time>2026-04-21T15:10:04Z</time></trkpt><trkpt lat="43.8452339849642" lon="10.723476135925653"><ele>20.5</ele><time>2026-04-21T15:10:05Z</time></trkpt><trkpt lat="43.845406155619195" lon="10.72375190816814"><ele>21.0</ele><time>2026-04-21T15:10:06Z</time></trkpt><trkpt lat="43.84557247062249" lon="10.724016502847588"><ele>21.0</ele><time>2026-04-21T15:10:07.001Z</time></trkpt><trkpt lat="43.84574522385667" lon="10.724292925343265"><ele>21.0</ele><time>2026-04-21T15:10:08.001Z</time></trkpt><trkpt lat="43.84591908239698" lon="10.724566394304905"><ele>21.0</ele><time>2026-04-21T15:10:09.001Z</time></trkpt><trkpt lat="43.84609892253758" lon="10.724843708531528"><ele>21.0</ele><time>2026-04-21T15:10:10.001Z</time></trkpt><trkpt lat="43.846274662622925" lon="10.72512176330352"><ele>20.0</ele><time>2026-04-21T15:10:11.001Z</time></trkpt><trkpt lat="43.84645414887365" lon="10.725404619319908"><ele>19.0</ele><time>2026-04-21T15:10:12.001Z</time></trkpt><trkpt lat="43.846628642572284" lon="10.725680235881262"><ele>19.5</ele><time>2026-04-21T15:10:13.001Z</time></trkpt><trkpt lat="43.84679973612317" lon="10.725948442812935"><ele>20.0</ele><time>2026-04-21T15:10:14.001Z</time></trkpt><trkpt lat="43.84696617605033" lon="10.726213628439071"><ele>20.0</ele><time>2026-04-21T15:10:15.001Z</time></trkpt><trkpt lat="43.84713461839652" lon="10.726479403244497"><ele>20.0</ele><time>2026-04-21T15:10:16.001Z</time></trkpt><trkpt lat="43.84730823824217" lon="10.726747304544311"><ele>20.0</ele><time>2026-04-21T15:10:17.001Z</time></trkpt><trkpt lat="43.84747676974105" lon="10.72700919501201"><ele>20.0</ele><time>2026-04-21T15:10:18.001Z</time></trkpt><trkpt lat="43.847644240499825" lon="10.72726738993203"><ele>20.5</ele><time>2026-04-21T15:10:19.001Z</time></trkpt><trkpt lat="43.84780545212107" lon="10.727517729768984"><ele>21.0</ele><time>2026-04-21T15:10:20.001Z</time></trkpt><trkpt lat="43.84796163902578" lon="10.727765368304356"><ele>21.5</ele><time>2026-04-21T15:10:21.001Z</time></trkpt><trkpt lat="43.848119734302614" lon="10.728017795966403"><ele>22.0</ele><time>2026-04-21T15:10:22.001Z</time></trkpt><trkpt lat="43.84828190102298" lon="10.72827503629394"><ele>22.0</ele><time>2026-04-21T15:10:23.001Z</time></trkpt><trkpt lat="43.848448457193676" lon="10.728535067025554"><ele>22.0</ele><time>2026-04-21T15:10:24.001Z</time></trkpt><trkpt lat="43.848619683582335" lon="10.728807045970491"><ele>21.5</ele><time>2026-04-21T15:10:25.001Z</time></trkpt><trkpt lat="43.8487869152925" lon="10.729072726234353"><ele>21.0</ele><time>2026-04-21T15:10:26.001Z</time></trkpt><trkpt lat="43.84894340555265" lon="10.729323990332515"><ele>21.0</ele><time>2026-04-21T15:10:27.001Z</time></trkpt><trkpt lat="43.84909683681638" lon="10.729565443735293"><ele>21.0</ele><time>2026-04-21T15:10:28.001Z</time></trkpt><trkpt lat="43.849251643841725" lon="10.729806194701473"><ele>20.5</ele><time>2026-04-21T15:10:29.001Z</time></trkpt><trkpt lat="43.84941116204724" lon="10.730052363185747"><ele>20.0</ele><time>2026-04-21T15:10:30.001Z</time></trkpt><trkpt lat="43.84957513345549" lon="10.730305554060141"><ele>19.0</ele><time>2026-04-21T15:10:31.001Z</time></trkpt><trkpt lat="43.84974013644211" lon="10.730561704834578"><ele>18.0</ele><time>2026-04-21T15:10:32.001Z</time></trkpt><trkpt lat="43.849908289261194" lon="10.730825509673519"><ele>18.0</ele><time>2026-04-21T15:10:33.001Z</time></trkpt><trkpt lat="43.850074930527214" lon="10.731092940544743"><ele>18.0</ele><time>2026-04-21T15:10:34.001Z</time></trkpt><trkpt lat="43.850240416342004" lon="10.731359430254859"><ele>18.0</ele><time>2026-04-21T15:10:35.001Z</time></trkpt><trkpt lat="43.850406464020914" lon="10.731627252700113"><ele>18.0</ele><time>2026-04-21T15:10:36.001Z</time></trkpt><trkpt lat="43.85057493324474" lon="10.73189408841338"><ele>18.5</ele><time>2026-04-21T15:10:37.001Z</time></trkpt><trkpt lat="43.85074136438639" lon="10.732153765065611"><ele>19.0</ele><time>2026-04-21T15:10:38.001Z</time></trkpt><trkpt lat="43.850909672880235" lon="10.732413784673263"><ele>18.0</ele><time>2026-04-21T15:10:39.001Z</time></trkpt><trkpt lat="43.85107119035614" lon="10.732666969425814"><ele>17.0</ele><time>2026-04-21T15:10:40.001Z</time></trkpt><trkpt lat="43.8512331911901" lon="10.732916723941438"><ele>17.0</ele><time>2026-04-21T15:10:41.001Z</time></trkpt><trkpt lat="43.85139319958664" lon="10.733167407133033"><ele>17.0</ele><time>2026-04-21T15:10:42.001Z</time></trkpt><trkpt lat="43.85155798590479" lon="10.733422510931542"><ele>17.0</ele><time>2026-04-21T15:10:43.001Z</time></trkpt><trkpt lat="43.851723648300286" lon="10.73368342753746"><ele>17.0</ele><time>2026-04-21T15:10:44.001Z</time></trkpt><trkpt lat="43.85188625587637" lon="10.733947284087444"><ele>17.0</ele><time>2026-04-21T15:10:45.001Z</time></trkpt><trkpt lat="43.85205384421094" lon="10.734213486091376"><ele>17.0</ele><time>2026-04-21T15:10:46.001Z</time></trkpt><trkpt lat="43.85222185664313" lon="10.734483859903252"><ele>16.5</ele><time>2026-04-21T15:10:47.001Z</time></trkpt><trkpt lat="43.85239195174669" lon="10.734753497733466"><ele>16.0</ele><time>2026-04-21T15:10:48.001Z</time></trkpt><trkpt lat="43.85256801766433" lon="10.735026729597932"><ele>15.5</ele><time>2026-04-21T15:10:49.001Z</time></trkpt><trkpt lat="43.85274263877058" lon="10.735298049938704"><ele>15.0</ele><time>2026-04-21T15:10:50.001Z</time></trkpt><trkpt lat="43.85292163165596" lon="10.735572154818433"><ele>15.0</ele><time>2026-04-21T15:10:51.001Z</time></trkpt><trkpt lat="43.85310016897733" lon="10.735848965714453"><ele>15.0</ele><time>2026-04-21T15:10:52.001Z</time></trkpt><trkpt lat="43.853279713944126" lon="10.736128401942649"><ele>16.0</ele><time>2026-04-21T15:10:53.001Z</time></trkpt><trkpt lat="43.85345639062854" lon="10.736408103395705"><ele>17.0</ele><time>2026-04-21T15:10:54.001Z</time></trkpt><trkpt lat="43.85363435183931" lon="10.736687128751104"><ele>18.5</ele><time>2026-04-21T15:10:55.001Z</time></trkpt><trkpt lat="43.85381147204074" lon="10.736969357328931"><ele>20.0</ele><time>2026-04-21T15:10:56.001Z</time></trkpt><trkpt lat="43.85398881069459" lon="10.73724961389423"><ele>20.0</ele><time>2026-04-21T15:10:57.001Z</time></trkpt><trkpt lat="43.85416785930954" lon="10.737532363242066"><ele>20.0</ele><time>2026-04-21T15:10:58.001Z</time></trkpt><trkpt lat="43.854347724374016" lon="10.737816238517436"><ele>18.5</ele><time>2026-04-21T15:10:59.001Z</time></trkpt><trkpt lat="43.85452642656096" lon="10.738098960197243"><ele>17.0</ele><time>2026-04-21T15:11:00.001Z</time></trkpt><trkpt lat="43.85470650714519" lon="10.738385541145565"><ele>18.5</ele><time>2026-04-21T15:11:01.001Z</time></trkpt><trkpt lat="43.854886048016674" lon="10.738667691084856"><ele>20.0</ele><time>2026-04-21T15:11:02.001Z</time></trkpt><trkpt lat="43.85506976859127" lon="10.738956403823133"><ele>18.5</ele><time>2026-04-21T15:11:03.001Z</time></trkpt><trkpt lat="43.855249259625914" lon="10.739243311310865"><ele>17.0</ele><time>2026-04-21T15:11:04.001Z</time></trkpt><trkpt lat="43.85543373272786" lon="10.739531469918546"><ele>17.0</ele><time>2026-04-21T15:11:05.001Z</time></trkpt><trkpt lat="43.85561019777423" lon="10.739812635603935"><ele>17.0</ele><time>2026-04-21T15:11:06.001Z</time></trkpt><trkpt lat="43.85579425725494" lon="10.740098480256094"><ele>17.0</ele><time>2026-04-21T15:11:07.001Z</time></trkpt><trkpt lat="43.855975266911884" lon="10.740376283875113"><ele>17.0</ele><time>2026-04-21T15:11:08.001Z</time></trkpt><trkpt lat="43.856151875738206" lon="10.740638718224002"><ele>17.0</ele><time>2026-04-21T15:11:09.001Z</time></trkpt><trkpt lat="43.85632691110962" lon="10.740884242104354"><ele>17.0</ele><time>2026-04-21T15:11:10.001Z</time></trkpt><trkpt lat="43.85652178610363" lon="10.741241500553075"><ele>17.0</ele><time>2026-04-21T15:11:11.001Z</time></trkpt><trkpt lat="43.856705464485" lon="10.74153128459928"><ele>17.0</ele><time>2026-04-21T15:11:12.001Z</time></trkpt><trkpt lat="43.85688942979139" lon="10.741813501990977"><ele>17.5</ele><time>2026-04-21T15:11:13.001Z</time></trkpt><trkpt lat="43.857070106496444" lon="10.74209060377075"><ele>18.0</ele><time>2026-04-21T15:11:14.001Z</time></trkpt><trkpt lat="43.857248516871834" lon="10.742372157317895"><ele>18.0</ele><time>2026-04-21T15:11:15.001Z</time></trkpt><trkpt lat="43.85742327527151" lon="10.742651969321187"><ele>18.0</ele><time>2026-04-21T15:11:16.001Z</time></trkpt><trkpt lat="43.85760060292838" lon="10.742925350959709"><ele>18.0</ele><time>2026-04-21T15:11:17.001Z</time></trkpt><trkpt lat="43.857776853136265" lon="10.743203724848543"><ele>18.0</ele><time>2026-04-21T15:11:18.001Z</time></trkpt><trkpt lat="43.857952341204836" lon="10.743471934842852"><ele>19.0</ele><time>2026-04-21T15:11:19.001Z</time></trkpt><trkpt lat="43.858121937776" lon="10.743748407627313"><ele>20.0</ele><time>2026-04-21T15:11:20.001Z</time></trkpt><trkpt lat="43.858295942278204" lon="10.744023934009046"><ele>19.0</ele><time>2026-04-21T15:11:21.001Z</time></trkpt><trkpt lat="43.858474196499124" lon="10.744300129500328"><ele>18.0</ele><time>2026-04-21T15:11:22.001Z</time></trkpt><trkpt lat="43.858648857978665" lon="10.744580214814158"><ele>18.0</ele><time>2026-04-21T15:11:23.001Z</time></trkpt><trkpt lat="43.85881525997962" lon="10.744841640047397"><ele>18.0</ele><time>2026-04-21T15:11:24Z</time></trkpt><trkpt lat="43.85898204394179" lon="10.74510866701816"><ele>18.0</ele><time>2026-04-21T15:11:25Z</time></trkpt><trkpt lat="43.85914646126258" lon="10.745376725178126"><ele>18.0</ele><time>2026-04-21T15:11:26Z</time></trkpt><trkpt lat="43.85930677369314" lon="10.745628983635145"><ele>18.5</ele><time>2026-04-21T15:11:27Z</time></trkpt><trkpt lat="43.859466585045496" lon="10.745872208585586"><ele>19.0</ele><time>2026-04-21T15:11:28Z</time></trkpt><trkpt lat="43.85962635941274" lon="10.746122195396163"><ele>19.5</ele><time>2026-04-21T15:11:29Z</time></trkpt><trkpt lat="43.85979070485517" lon="10.74637708782968"><ele>20.0</ele><time>2026-04-21T15:11:30Z</time></trkpt><trkpt lat="43.859957203983676" lon="10.746640894343084"><ele>18.5</ele><time>2026-04-21T15:11:31Z</time></trkpt><trkpt lat="43.86013200124993" lon="10.74690825896"><ele>17.0</ele><time>2026-04-21T15:11:32Z</time></trkpt><trkpt lat="43.8603095275615" lon="10.747175500217558"><ele>17.0</ele><time>2026-04-21T15:11:33Z</time></trkpt><trkpt lat="43.86048387330629" lon="10.747454289372609"><ele>17.0</ele><time>2026-04-21T15:11:34Z</time></trkpt><trkpt lat="43.86065018556735" lon="10.747719325437002"><ele>17.0</ele><time>2026-04-21T15:11:35Z</time></trkpt><trkpt lat="43.86080980793869" lon="10.74797449915246"><ele>17.0</ele><time>2026-04-21T15:11:36Z</time></trkpt><trkpt lat="43.86096200907129" lon="10.748220661015315"><ele>17.0</ele><time>2026-04-21T15:11:37Z</time></trkpt><trkpt lat="43.86111041703152" lon="10.748459220074016"><ele>17.0</ele><time>2026-04-21T15:11:38Z</time></trkpt><trkpt lat="43.86126291721251" lon="10.748704938583538"><ele>18.0</ele><time>2026-04-21T15:11:39Z</time></trkpt><trkpt lat="43.8614197027994" lon="10.748954060519575"><ele>19.0</ele><time>2026-04-21T15:11:40Z</time></trkpt><trkpt lat="43.86157916787033" lon="10.749204489451557"><ele>19.0</ele><time>2026-04-21T15:11:41Z</time></trkpt><trkpt lat="43.861742564289514" lon="10.749457838263606"><ele>19.0</ele><time>2026-04-21T15:11:42Z</time></trkpt><trkpt lat="43.86190336851469" lon="10.749704411193312"><ele>19.0</ele><time>2026-04-21T15:11:43Z</time></trkpt><trkpt lat="43.86205394917206" lon="10.749938900134348"><ele>19.0</ele><time>2026-04-21T15:11:44Z</time></trkpt><trkpt lat="43.86220000204016" lon="10.750166121196669"><ele>19.0</ele><time>2026-04-21T15:11:45Z</time></trkpt><trkpt lat="43.862347135203436" lon="10.75039852700132"><ele>18.666666666666664</ele><time>2026-04-21T15:11:46Z</time></trkpt><trkpt lat="43.86249058979967" lon="10.75062990241664"><ele>18.333333333333332</ele><time>2026-04-21T15:11:47Z</time></trkpt><trkpt lat="43.86263906345403" lon="10.750866486427942"><ele>18.0</ele><time>2026-04-21T15:11:48Z</time></trkpt><trkpt lat="43.86279404835445" lon="10.751106314084103"><ele>17.5</ele><time>2026-04-21T15:11:49Z</time></trkpt><trkpt lat="43.862955420350964" lon="10.751351980672883"><ele>17.0</ele><time>2026-04-21T15:11:50Z</time></trkpt><trkpt lat="43.86311805812186" lon="10.751608255483271"><ele>17.0</ele><time>2026-04-21T15:11:51Z</time></trkpt><trkpt lat="43.86328621510158" lon="10.751874470647778"><ele>17.0</ele><time>2026-04-21T15:11:52Z</time></trkpt><trkpt lat="43.86345408587765" lon="10.752140227513289"><ele>16.5</ele><time>2026-04-21T15:11:53Z</time></trkpt><trkpt lat="43.863623456803325" lon="10.752405113392687"><ele>16.0</ele><time>2026-04-21T15:11:54Z</time></trkpt><trkpt lat="43.863798815123516" lon="10.752677184779843"><ele>17.0</ele><time>2026-04-21T15:11:55Z</time></trkpt><trkpt lat="43.863971532251725" lon="10.752950099874719"><ele>18.0</ele><time>2026-04-21T15:11:56Z</time></trkpt><trkpt lat="43.86415016858835" lon="10.75323251856512"><ele>17.5</ele><time>2026-04-21T15:11:57Z</time></trkpt><trkpt lat="43.864328008553656" lon="10.753508052664614"><ele>17.0</ele><time>2026-04-21T15:11:58Z</time></trkpt><trkpt lat="43.86450621934634" lon="10.753788564385811"><ele>16.5</ele><time>2026-04-21T15:11:59Z</time></trkpt><trkpt lat="43.864681242314724" lon="10.754071451391574"><ele>16.0</ele><time>2026-04-21T15:12:00Z</time></trkpt><trkpt lat="43.86485900473539" lon="10.754353561370847"><ele>16.0</ele><time>2026-04-21T15:12:01Z</time></trkpt><trkpt lat="43.86503954441755" lon="10.75464088642727"><ele>16.0</ele><time>2026-04-21T15:12:02Z</time></trkpt><trkpt lat="43.86522200393509" lon="10.754923022752811"><ele>15.5</ele><time>2026-04-21T15:12:03Z</time></trkpt><trkpt lat="43.865408667848136" lon="10.755209243659571"><ele>15.0</ele><time>2026-04-21T15:12:04Z</time></trkpt><trkpt lat="43.86559283080056" lon="10.755498170701303"><ele>15.0</ele><time>2026-04-21T15:12:05.001Z</time></trkpt><trkpt lat="43.865774660783984" lon="10.755787941639774"><ele>15.0</ele><time>2026-04-21T15:12:06.001Z</time></trkpt><trkpt lat="43.86595741761476" lon="10.756074721300019"><ele>15.5</ele><time>2026-04-21T15:12:07.001Z</time></trkpt><trkpt lat="43.86613887786542" lon="10.756368448987288"><ele>16.0</ele><time>2026-04-21T15:12:08.001Z</time></trkpt><trkpt lat="43.86632092594058" lon="10.756663495206782"><ele>17.5</ele><time>2026-04-21T15:12:09.001Z</time></trkpt><trkpt lat="43.866504957071626" lon="10.756959352474396"><ele>19.0</ele><time>2026-04-21T15:12:10.001Z</time></trkpt><trkpt lat="43.866686577133066" lon="10.75725027735088"><ele>18.5</ele><time>2026-04-21T15:12:11.001Z</time></trkpt><trkpt lat="43.86686837406703" lon="10.757538055089565"><ele>18.0</ele><time>2026-04-21T15:12:12.001Z</time></trkpt><trkpt lat="43.86705402581771" lon="10.757826222676865"><ele>18.0</ele><time>2026-04-21T15:12:13.001Z</time></trkpt><trkpt lat="43.8672366812256" lon="10.75811551739399"><ele>18.0</ele><time>2026-04-21T15:12:14.001Z</time></trkpt><trkpt lat="43.867417615000264" lon="10.75840518085564"><ele>18.0</ele><time>2026-04-21T15:12:15.001Z</time></trkpt><trkpt lat="43.867590065189134" lon="10.758694721664531"><ele>18.0</ele><time>2026-04-21T15:12:16.001Z</time></trkpt><trkpt lat="43.867759458992865" lon="10.758985567914246"><ele>17.5</ele><time>2026-04-21T15:12:17.001Z</time></trkpt><trkpt lat="43.86793410430414" lon="10.759268669485587"><ele>17.0</ele><time>2026-04-21T15:12:18.001Z</time></trkpt><trkpt lat="43.86811018746416" lon="10.759546174409294"><ele>17.0</ele><time>2026-04-21T15:12:19.001Z</time></trkpt><trkpt lat="43.868287678344636" lon="10.759824017020964"><ele>17.0</ele><time>2026-04-21T15:12:20.001Z</time></trkpt><trkpt lat="43.86846342978537" lon="10.760104688134971"><ele>18.0</ele><time>2026-04-21T15:12:21.001Z</time></trkpt><trkpt lat="43.86864233167198" lon="10.760375075928343"><ele>19.0</ele><time>2026-04-21T15:12:22.001Z</time></trkpt><trkpt lat="43.86881914560381" lon="10.760653731317815"><ele>19.0</ele><time>2026-04-21T15:12:23.001Z</time></trkpt><trkpt lat="43.86898813578176" lon="10.760931796183067"><ele>19.0</ele><time>2026-04-21T15:12:24.001Z</time></trkpt><trkpt lat="43.8691514055896" lon="10.761204035280082"><ele>18.0</ele><time>2026-04-21T15:12:25.001Z</time></trkpt><trkpt lat="43.86930820383097" lon="10.761487228829257"><ele>17.0</ele><time>2026-04-21T15:12:26.001Z</time></trkpt><trkpt lat="43.869461278268844" lon="10.761780097584028"><ele>17.0</ele><time>2026-04-21T15:12:27.001Z</time></trkpt><trkpt lat="43.86961026442394" lon="10.762074743340794"><ele>17.0</ele><time>2026-04-21T15:12:28.001Z</time></trkpt><trkpt lat="43.86975051589625" lon="10.762377763548242"><ele>17.0</ele><time>2026-04-21T15:12:29.001Z</time></trkpt><trkpt lat="43.86988698864985" lon="10.762688633023679"><ele>17.0</ele><time>2026-04-21T15:12:30.001Z</time></trkpt><trkpt lat="43.87001730495868" lon="10.76300314586439"><ele>16.5</ele><time>2026-04-21T15:12:31.001Z</time></trkpt><trkpt lat="43.870143926312814" lon="10.763326364303008"><ele>16.0</ele><time>2026-04-21T15:12:32.001Z</time></trkpt><trkpt lat="43.87026187339935" lon="10.763656184608429"><ele>16.0</ele><time>2026-04-21T15:12:33.001Z</time></trkpt><trkpt lat="43.87037134633113" lon="10.76399190987186"><ele>16.0</ele><time>2026-04-21T15:12:34.001Z</time></trkpt><trkpt lat="43.87047197652872" lon="10.764334413027797"><ele>17.5</ele><time>2026-04-21T15:12:35.001Z</time></trkpt><trkpt lat="43.870569671327324" lon="10.764672960792275"><ele>19.0</ele><time>2026-04-21T15:12:36.001Z</time></trkpt><trkpt lat="43.87067127932142" lon="10.7650089544646"><ele>19.0</ele><time>2026-04-21T15:12:37.001Z</time></trkpt><trkpt lat="43.870776739950124" lon="10.765343546963246"><ele>19.0</ele><time>2026-04-21T15:12:38.001Z</time></trkpt><trkpt lat="43.87088514961114" lon="10.765678018565529"><ele>19.0</ele><time>2026-04-21T15:12:39.001Z</time></trkpt><trkpt lat="43.870994365489665" lon="10.766011860097834"><ele>19.0</ele><time>2026-04-21T15:12:40.001Z</time></trkpt><trkpt lat="43.87109937976526" lon="10.766347497296936"><ele>19.5</ele><time>2026-04-21T15:12:41.001Z</time></trkpt><trkpt lat="43.87120352637989" lon="10.766682978731136"><ele>20.0</ele><time>2026-04-21T15:12:42.001Z</time></trkpt><trkpt lat="43.87130969372974" lon="10.767024298342964"><ele>20.0</ele><time>2026-04-21T15:12:43.001Z</time></trkpt><trkpt lat="43.871414876614" lon="10.76736705098638"><ele>20.0</ele><time>2026-04-21T15:12:44.001Z</time></trkpt><trkpt lat="43.871518219099485" lon="10.767705132254278"><ele>19.0</ele><time>2026-04-21T15:12:45.001Z</time></trkpt><trkpt lat="43.87162239021862" lon="10.768047651141188"><ele>18.0</ele><time>2026-04-21T15:12:46.001Z</time></trkpt><trkpt lat="43.871726925235876" lon="10.768393825282041"><ele>19.0</ele><time>2026-04-21T15:12:47.001Z</time></trkpt><trkpt lat="43.871830060387744" lon="10.768743194134494"><ele>20.0</ele><time>2026-04-21T15:12:48.001Z</time></trkpt><trkpt lat="43.87193369209519" lon="10.769098760770307"><ele>19.5</ele><time>2026-04-21T15:12:49.001Z</time></trkpt><trkpt lat="43.87203826235162" lon="10.76945069519243"><ele>19.0</ele><time>2026-04-21T15:12:50.001Z</time></trkpt><trkpt lat="43.872146553716135" lon="10.76980605223711"><ele>19.0</ele><time>2026-04-21T15:12:51.001Z</time></trkpt><trkpt lat="43.87225805075876" lon="10.77015625178739"><ele>19.0</ele><time>2026-04-21T15:12:52.001Z</time></trkpt><trkpt lat="43.87236713275173" lon="10.77050839374169"><ele>19.0</ele><time>2026-04-21T15:12:53.001Z</time></trkpt><trkpt lat="43.87247836689104" lon="10.770861983087437"><ele>19.0</ele><time>2026-04-21T15:12:54.001Z</time></trkpt><trkpt lat="43.87258860742728" lon="10.77121685211336"><ele>19.0</ele><time>2026-04-21T15:12:55.001Z</time></trkpt><trkpt lat="43.87269830384863" lon="10.771573917182934"><ele>19.0</ele><time>2026-04-21T15:12:56.001Z</time></trkpt><trkpt lat="43.872808053169" lon="10.771932544945113"><ele>19.5</ele><time>2026-04-21T15:12:57.001Z</time></trkpt><trkpt lat="43.872916620709795" lon="10.77228670500386"><ele>20.0</ele><time>2026-04-21T15:12:58.001Z</time></trkpt><trkpt lat="43.873026120438894" lon="10.772640641851773"><ele>20.0</ele><time>2026-04-21T15:12:59.001Z</time></trkpt><trkpt lat="43.87313555246691" lon="10.772997193251065"><ele>20.0</ele><time>2026-04-21T15:13:00.001Z</time></trkpt><trkpt lat="43.87324718865494" lon="10.773355184179406"><ele>20.0</ele><time>2026-04-21T15:13:01.001Z</time></trkpt><trkpt lat="43.87335923268199" lon="10.77371045304105"><ele>20.0</ele><time>2026-04-21T15:13:02.001Z</time></trkpt><trkpt lat="43.8734722057652" lon="10.774067113569753"><ele>19.5</ele><time>2026-04-21T15:13:03.001Z</time></trkpt><trkpt lat="43.873585015086796" lon="10.774422236661927"><ele>19.0</ele><time>2026-04-21T15:13:04.001Z</time></trkpt><trkpt lat="43.87369752194426" lon="10.774778171992697"><ele>19.0</ele><time>2026-04-21T15:13:05.001Z</time></trkpt><trkpt lat="43.87380888040066" lon="10.775136964382952"><ele>19.0</ele><time>2026-04-21T15:13:06.001Z</time></trkpt><trkpt lat="43.87392241226675" lon="10.775492533713342"><ele>19.0</ele><time>2026-04-21T15:13:07.001Z</time></trkpt><trkpt lat="43.874032715723644" lon="10.775843867311039"><ele>19.0</ele><time>2026-04-21T15:13:08.001Z</time></trkpt><trkpt lat="43.874132540712175" lon="10.776165409988032"><ele>19.0</ele><time>2026-04-21T15:13:09.001Z</time></trkpt><trkpt lat="43.874233443267336" lon="10.77649471313082"><ele>19.0</ele><time>2026-04-21T15:13:10.001Z</time></trkpt><trkpt lat="43.87433633655426" lon="10.776827664187746"><ele>19.0</ele><time>2026-04-21T15:13:11.001Z</time></trkpt><trkpt lat="43.87443696487658" lon="10.777154592726639"><ele>19.0</ele><time>2026-04-21T15:13:12.001Z</time></trkpt><trkpt lat="43.87454142731312" lon="10.77748655652228"><ele>18.5</ele><time>2026-04-21T15:13:13.001Z</time></trkpt><trkpt lat="43.874651111113266" lon="10.777828123731236"><ele>18.0</ele><time>2026-04-21T15:13:14.001Z</time></trkpt><trkpt lat="43.87475551171647" lon="10.77816440636721"><ele>18.0</ele><time>2026-04-21T15:13:15.001Z</time></trkpt><trkpt lat="43.874862640542176" lon="10.778509114102665"><ele>18.0</ele><time>2026-04-21T15:13:16.001Z</time></trkpt><trkpt lat="43.874971390942115" lon="10.778849903997246"><ele>18.5</ele><time>2026-04-21T15:13:17.001Z</time></trkpt><trkpt lat="43.875079978050344" lon="10.779202709860577"><ele>19.0</ele><time>2026-04-21T15:13:18.001Z</time></trkpt><trkpt lat="43.87519048482648" lon="10.77955114798216"><ele>20.0</ele><time>2026-04-21T15:13:19.001Z</time></trkpt><trkpt lat="43.87530089696179" lon="10.77990152801889"><ele>21.0</ele><time>2026-04-21T15:13:20.001Z</time></trkpt><trkpt lat="43.875415167773355" lon="10.780254890732623"><ele>21.0</ele><time>2026-04-21T15:13:21.001Z</time></trkpt><trkpt lat="43.87553261687322" lon="10.78061305398246"><ele>21.0</ele><time>2026-04-21T15:13:22.001Z</time></trkpt><trkpt lat="43.8756312633075" lon="10.78095612678424"><ele>20.5</ele><time>2026-04-21T15:13:23.001Z</time></trkpt><trkpt lat="43.8757362011874" lon="10.781293188453803"><ele>20.0</ele><time>2026-04-21T15:13:24.001Z</time></trkpt><trkpt lat="43.87584288029269" lon="10.781634808148993"><ele>20.5</ele><time>2026-04-21T15:13:25.001Z</time></trkpt><trkpt lat="43.875946892368454" lon="10.781971838503214"><ele>21.0</ele><time>2026-04-21T15:13:26.001Z</time></trkpt><trkpt lat="43.87605230389413" lon="10.782317140038796"><ele>21.0</ele><time>2026-04-21T15:13:27.001Z</time></trkpt><trkpt lat="43.87616044947053" lon="10.782658655245402"><ele>21.0</ele><time>2026-04-21T15:13:28.001Z</time></trkpt><trkpt lat="43.876261728911935" lon="10.782988336251211"><ele>21.5</ele><time>2026-04-21T15:13:29.001Z</time></trkpt><trkpt lat="43.87636690082172" lon="10.783329069990721"><ele>22.0</ele><time>2026-04-21T15:13:30Z</time></trkpt><trkpt lat="43.87646231196935" lon="10.783673293438623"><ele>22.0</ele><time>2026-04-21T15:13:31Z</time></trkpt><trkpt lat="43.8765511019886" lon="10.783998420627144"><ele>22.0</ele><time>2026-04-21T15:13:32Z</time></trkpt><trkpt lat="43.87663937534881" lon="10.784325471829245"><ele>22.0</ele><time>2026-04-21T15:13:33Z</time></trkpt><trkpt lat="43.87671902017116" lon="10.784663710366624"><ele>22.0</ele><time>2026-04-21T15:13:34Z</time></trkpt><trkpt lat="43.87678254324735" lon="10.785010217979126"><ele>21.0</ele><time>2026-04-21T15:13:35Z</time></trkpt><trkpt lat="43.87682866483838" lon="10.785358509316552"><ele>20.0</ele><time>2026-04-21T15:13:36Z</time></trkpt><trkpt lat="43.87686353717007" lon="10.785715027671063"><ele>20.5</ele><time>2026-04-21T15:13:37Z</time></trkpt><trkpt lat="43.876886418278765" lon="10.78607566983148"><ele>21.0</ele><time>2026-04-21T15:13:38Z</time></trkpt><trkpt lat="43.87689934253556" lon="10.786442592728873"><ele>21.0</ele><time>2026-04-21T15:13:39Z</time></trkpt><trkpt lat="43.87690119113496" lon="10.786809457457638"><ele>21.0</ele><time>2026-04-21T15:13:40Z</time></trkpt><trkpt lat="43.87689496708489" lon="10.787182835365757"><ele>22.0</ele><time>2026-04-21T15:13:41Z</time></trkpt><trkpt lat="43.87688261081938" lon="10.787561033192029"><ele>23.0</ele><time>2026-04-21T15:13:42Z</time></trkpt><trkpt lat="43.87686763381744" lon="10.787943378177342"><ele>23.0</ele><time>2026-04-21T15:13:43Z</time></trkpt><trkpt lat="43.87685234004394" lon="10.788325829996088"><ele>23.0</ele><time>2026-04-21T15:13:44Z</time></trkpt><trkpt lat="43.87683615672792" lon="10.788710982869562"><ele>23.0</ele><time>2026-04-21T15:13:45Z</time></trkpt><trkpt lat="43.87681543258293" lon="10.789094748940117"><ele>23.0</ele><time>2026-04-21T15:13:46Z</time></trkpt><trkpt lat="43.87679846467346" lon="10.789480752887682"><ele>23.0</ele><time>2026-04-21T15:13:47Z</time></trkpt><trkpt lat="43.876784803570615" lon="10.789867817624609"><ele>23.0</ele><time>2026-04-21T15:13:48Z</time></trkpt><trkpt lat="43.87676908435128" lon="10.790251091236511"><ele>22.5</ele><time>2026-04-21T15:13:49Z</time></trkpt><trkpt lat="43.87675453995663" lon="10.790636307336284"><ele>22.0</ele><time>2026-04-21T15:13:50Z</time></trkpt><trkpt lat="43.87673344209865" lon="10.791028006702858"><ele>21.5</ele><time>2026-04-21T15:13:51Z</time></trkpt><trkpt lat="43.87672276162434" lon="10.791413945803605"><ele>21.0</ele><time>2026-04-21T15:13:52Z</time></trkpt><trkpt lat="43.87671094179264" lon="10.79179866202617"><ele>21.0</ele><time>2026-04-21T15:13:53Z</time></trkpt><trkpt lat="43.87669613884377" lon="10.792183702133624"><ele>21.0</ele><time>2026-04-21T15:13:54Z</time></trkpt><trkpt lat="43.87667966140758" lon="10.792568396034376"><ele>21.0</ele><time>2026-04-21T15:13:55Z</time></trkpt><trkpt lat="43.87666675389992" lon="10.79295539118047"><ele>21.0</ele><time>2026-04-21T15:13:56Z</time></trkpt><trkpt lat="43.87664716474238" lon="10.793338794626843"><ele>21.5</ele><time>2026-04-21T15:13:57Z</time></trkpt><trkpt lat="43.876630840690275" lon="10.79372490041729"><ele>22.0</ele><time>2026-04-21T15:13:58Z</time></trkpt><trkpt lat="43.87662080672482" lon="10.794107274747203"><ele>23.0</ele><time>2026-04-21T15:13:59Z</time></trkpt><trkpt lat="43.876603860327" lon="10.794484424266287"><ele>24.0</ele><time>2026-04-21T15:14:00Z</time></trkpt><trkpt lat="43.87658993277257" lon="10.794861507995941"><ele>24.0</ele><time>2026-04-21T15:14:01Z</time></trkpt><trkpt lat="43.87657630868309" lon="10.795234007139243"><ele>24.0</ele><time>2026-04-21T15:14:02Z</time></trkpt><trkpt lat="43.87655478479399" lon="10.795608909682455"><ele>24.0</ele><time>2026-04-21T15:14:03Z</time></trkpt><trkpt lat="43.87654235421924" lon="10.795980994486264"><ele>24.0</ele><time>2026-04-21T15:14:04Z</time></trkpt><trkpt lat="43.87652854272912" lon="10.796356291960011"><ele>23.5</ele><time>2026-04-21T15:14:05Z</time></trkpt><trkpt lat="43.876513567414065" lon="10.796725749018766"><ele>23.0</ele><time>2026-04-21T15:14:06Z</time></trkpt><trkpt lat="43.87650141796517" lon="10.797090256837501"><ele>23.0</ele><time>2026-04-21T15:14:07Z</time></trkpt><trkpt lat="43.87648688316494" lon="10.797459159583635"><ele>23.0</ele><time>2026-04-21T15:14:08Z</time></trkpt><trkpt lat="43.87646875012953" lon="10.797816105692995"><ele>22.5</ele><time>2026-04-21T15:14:09Z</time></trkpt><trkpt lat="43.87645680748995" lon="10.798141018322326"><ele>22.0</ele><time>2026-04-21T15:14:10Z</time></trkpt><trkpt lat="43.87644110910331" lon="10.798470371918977"><ele>22.0</ele><time>2026-04-21T15:14:11Z</time></trkpt><trkpt lat="43.87642575997898" lon="10.798811885416518"><ele>22.0</ele><time>2026-04-21T15:14:12Z</time></trkpt><trkpt lat="43.8764107508799" lon="10.799149523287381"><ele>22.0</ele><time>2026-04-21T15:14:13Z</time></trkpt><trkpt lat="43.87639700754892" lon="10.799490399010557"><ele>22.0</ele><time>2026-04-21T15:14:14Z</time></trkpt><trkpt lat="43.87638403410162" lon="10.799809254115868"><ele>22.0</ele><time>2026-04-21T15:14:15Z</time></trkpt><trkpt lat="43.87637199197078" lon="10.800107401847878"><ele>22.0</ele><time>2026-04-21T15:14:16Z</time></trkpt><trkpt lat="43.876362176777704" lon="10.800395055088407"><ele>22.0</ele><time>2026-04-21T15:14:17Z</time></trkpt><trkpt lat="43.87635076788463" lon="10.800685962774864"><ele>22.0</ele><time>2026-04-21T15:14:18Z</time></trkpt><trkpt lat="43.87633578753302" lon="10.800981331169474"><ele>22.0</ele><time>2026-04-21T15:14:19Z</time></trkpt><trkpt lat="43.876320404617495" lon="10.801287993346385"><ele>22.0</ele><time>2026-04-21T15:14:20Z</time></trkpt><trkpt lat="43.87630657093208" lon="10.801601818472655"><ele>22.5</ele><time>2026-04-21T15:14:21Z</time></trkpt><trkpt lat="43.876292681438656" lon="10.801924849173675"><ele>23.0</ele><time>2026-04-21T15:14:22Z</time></trkpt><trkpt lat="43.87627877754933" lon="10.802261083454137"><ele>23.0</ele><time>2026-04-21T15:14:23Z</time></trkpt><trkpt lat="43.876264993799886" lon="10.802605508711245"><ele>23.0</ele><time>2026-04-21T15:14:24Z</time></trkpt><trkpt lat="43.87624981383322" lon="10.802961481821766"><ele>23.0</ele><time>2026-04-21T15:14:25Z</time></trkpt><trkpt lat="43.87623231780888" lon="10.803307390863187"><ele>23.0</ele><time>2026-04-21T15:14:26Z</time></trkpt><trkpt lat="43.87621774682264" lon="10.803643173339664"><ele>23.0</ele><time>2026-04-21T15:14:27Z</time></trkpt><trkpt lat="43.87620323375928" lon="10.803966591394191"><ele>23.0</ele><time>2026-04-21T15:14:28Z</time></trkpt><trkpt lat="43.876191257068605" lon="10.804290618607197"><ele>22.0</ele><time>2026-04-21T15:14:29Z</time></trkpt><trkpt lat="43.876177412985065" lon="10.80460914305268"><ele>21.0</ele><time>2026-04-21T15:14:30Z</time></trkpt><trkpt lat="43.87616452182335" lon="10.804923675830537"><ele>21.0</ele><time>2026-04-21T15:14:31Z</time></trkpt><trkpt lat="43.87615041712017" lon="10.805239499396116"><ele>21.0</ele><time>2026-04-21T15:14:32Z</time></trkpt><trkpt lat="43.87613837358071" lon="10.8055637190376"><ele>21.0</ele><time>2026-04-21T15:14:33Z</time></trkpt><trkpt lat="43.8761259907065" lon="10.805879411005963"><ele>21.0</ele><time>2026-04-21T15:14:34Z</time></trkpt><trkpt lat="43.876117643185054" lon="10.806187692703652"><ele>21.0</ele><time>2026-04-21T15:14:35Z</time></trkpt><trkpt lat="43.87612126308549" lon="10.80648097968276"><ele>21.0</ele><time>2026-04-21T15:14:36Z</time></trkpt><trkpt lat="43.876145507152565" lon="10.806760037510351"><ele>21.0</ele><time>2026-04-21T15:14:37Z</time></trkpt><trkpt lat="43.87618408691693" lon="10.807047014102977"><ele>21.333333333333332</ele><time>2026-04-21T15:14:38Z</time></trkpt><trkpt lat="43.876232701326124" lon="10.807344520136322"><ele>21.666666666666664</ele><time>2026-04-21T15:14:39Z</time></trkpt><trkpt lat="43.87629315067074" lon="10.807644594950146"><ele>22.0</ele><time>2026-04-21T15:14:40Z</time></trkpt><trkpt lat="43.87637055606116" lon="10.807946668670471"><ele>22.5</ele><time>2026-04-21T15:14:41Z</time></trkpt><trkpt lat="43.87646150165276" lon="10.808244575282353"><ele>23.0</ele><time>2026-04-21T15:14:42Z</time></trkpt><trkpt lat="43.87656439307264" lon="10.808535826045048"><ele>23.5</ele><time>2026-04-21T15:14:43Z</time></trkpt><trkpt lat="43.876677498286746" lon="10.808810593312911"><ele>24.0</ele><time>2026-04-21T15:14:44Z</time></trkpt><trkpt lat="43.87681113769172" lon="10.809083478500646"><ele>22.5</ele><time>2026-04-21T15:14:45Z</time></trkpt><trkpt lat="43.87695425362479" lon="10.809342942083898"><ele>21.0</ele><time>2026-04-21T15:14:46Z</time></trkpt><trkpt lat="43.877112457545955" lon="10.809592856311433"><ele>21.0</ele><time>2026-04-21T15:14:47Z</time></trkpt><trkpt lat="43.87728082356669" lon="10.80982881057769"><ele>21.0</ele><time>2026-04-21T15:14:48Z</time></trkpt><trkpt lat="43.87746584709875" lon="10.810052450937071"><ele>22.0</ele><time>2026-04-21T15:14:49Z</time></trkpt><trkpt lat="43.87766831118141" lon="10.810265367172086"><ele>23.0</ele><time>2026-04-21T15:14:50Z</time></trkpt><trkpt lat="43.877874850186814" lon="10.810472925411728"><ele>23.0</ele><time>2026-04-21T15:14:51Z</time></trkpt><trkpt lat="43.878086556052665" lon="10.810682634016901"><ele>23.0</ele><time>2026-04-21T15:14:52Z</time></trkpt><trkpt lat="43.87829839295861" lon="10.81089865401416"><ele>24.0</ele><time>2026-04-21T15:14:53Z</time></trkpt><trkpt lat="43.878508251643105" lon="10.811120013264455"><ele>25.0</ele><time>2026-04-21T15:14:54Z</time></trkpt><trkpt lat="43.878718357944244" lon="10.811339968467214"><ele>25.0</ele><time>2026-04-21T15:14:55Z</time></trkpt><trkpt lat="43.878933588182306" lon="10.811561305897552"><ele>25.0</ele><time>2026-04-21T15:14:56Z</time></trkpt><trkpt lat="43.87914295816184" lon="10.811777565696481"><ele>26.0</ele><time>2026-04-21T15:14:57Z</time></trkpt><trkpt lat="43.87935239571284" lon="10.811994678242778"><ele>27.0</ele><time>2026-04-21T15:14:58Z</time></trkpt><trkpt lat="43.879562720952435" lon="10.812212755248812"><ele>27.0</ele><time>2026-04-21T15:14:59Z</time></trkpt><trkpt lat="43.879769458089996" lon="10.812426131768921"><ele>27.0</ele><time>2026-04-21T15:15:00Z</time></trkpt><trkpt lat="43.879974047825755" lon="10.812640291981626"><ele>26.5</ele><time>2026-04-21T15:15:01Z</time></trkpt><trkpt lat="43.880180381233046" lon="10.812859176572127"><ele>26.0</ele><time>2026-04-21T15:15:02Z</time></trkpt><trkpt lat="43.88038847864501" lon="10.813079601512843"><ele>26.0</ele><time>2026-04-21T15:15:03Z</time></trkpt><trkpt lat="43.88059898744438" lon="10.813299180216413"><ele>26.0</ele><time>2026-04-21T15:15:04Z</time></trkpt><trkpt lat="43.88080258777951" lon="10.813511927925523"><ele>25.5</ele><time>2026-04-21T15:15:05Z</time></trkpt><trkpt lat="43.88100339436627" lon="10.81371689486026"><ele>25.0</ele><time>2026-04-21T15:15:06Z</time></trkpt><trkpt lat="43.88120210637273" lon="10.81392067824631"><ele>25.0</ele><time>2026-04-21T15:15:07Z</time></trkpt><trkpt lat="43.88139996263014" lon="10.81412903753044"><ele>25.0</ele><time>2026-04-21T15:15:08Z</time></trkpt><trkpt lat="43.88160589977587" lon="10.81434059370559"><ele>24.5</ele><time>2026-04-21T15:15:09Z</time></trkpt><trkpt lat="43.881819689886036" lon="10.814559745715211"><ele>24.0</ele><time>2026-04-21T15:15:10Z</time></trkpt><trkpt lat="43.882034091845355" lon="10.814786107540423"><ele>24.0</ele><time>2026-04-21T15:15:11Z</time></trkpt><trkpt lat="43.88225220587729" lon="10.815013358116218"><ele>24.0</ele><time>2026-04-21T15:15:12Z</time></trkpt><trkpt lat="43.88247176746469" lon="10.815245423996762"><ele>25.5</ele><time>2026-04-21T15:15:13Z</time></trkpt><trkpt lat="43.882692479297845" lon="10.815473572804128"><ele>27.0</ele><time>2026-04-21T15:15:14Z</time></trkpt><trkpt lat="43.88290974216475" lon="10.815701156357227"><ele>27.0</ele><time>2026-04-21T15:15:15Z</time></trkpt><trkpt lat="43.883126681733714" lon="10.81592685114418"><ele>27.0</ele><time>2026-04-21T15:15:16Z</time></trkpt><trkpt lat="43.88334915123218" lon="10.816154331919458"><ele>30.5</ele><time>2026-04-21T15:15:17Z</time></trkpt><trkpt lat="43.88356991162178" lon="10.81638174388739"><ele>34.0</ele><time>2026-04-21T15:15:18Z</time></trkpt><trkpt lat="43.883785707726645" lon="10.816603614338486"><ele>33.5</ele><time>2026-04-21T15:15:19Z</time></trkpt><trkpt lat="43.883999045338605" lon="10.816826193470138"><ele>33.0</ele><time>2026-04-21T15:15:20Z</time></trkpt><trkpt lat="43.88420590120508" lon="10.817044176795314"><ele>36.5</ele><time>2026-04-21T15:15:21Z</time></trkpt><trkpt lat="43.884403227156" lon="10.817250264988992"><ele>40.0</ele><time>2026-04-21T15:15:22Z</time></trkpt><trkpt lat="43.884587895225096" lon="10.817442454855986"><ele>40.0</ele><time>2026-04-21T15:15:23Z</time></trkpt><trkpt lat="43.88477957104283" lon="10.817640834366294"><ele>40.0</ele><time>2026-04-21T15:15:24Z</time></trkpt><trkpt lat="43.88497284046615" lon="10.81784016084062"><ele>40.0</ele><time>2026-04-21T15:15:25Z</time></trkpt><trkpt lat="43.88517101171996" lon="10.818040906336849"><ele>40.0</ele><time>2026-04-21T15:15:26Z</time></trkpt><trkpt lat="43.885355305856216" lon="10.818238162441615"><ele>40.0</ele><time>2026-04-21T15:15:27Z</time></trkpt><trkpt lat="43.885543070714995" lon="10.818433903539734"><ele>40.0</ele><time>2026-04-21T15:15:28Z</time></trkpt><trkpt lat="43.88573200285089" lon="10.818627905455854"><ele>39.5</ele><time>2026-04-21T15:15:29Z</time></trkpt><trkpt lat="43.885921245193266" lon="10.81882732065347"><ele>39.0</ele><time>2026-04-21T15:15:30Z</time></trkpt><trkpt lat="43.886113335897434" lon="10.819024573479213"><ele>38.0</ele><time>2026-04-21T15:15:31Z</time></trkpt><trkpt lat="43.88630763380188" lon="10.819226494679002"><ele>37.0</ele><time>2026-04-21T15:15:32Z</time></trkpt><trkpt lat="43.88650603424404" lon="10.819436071007946"><ele>37.0</ele><time>2026-04-21T15:15:33Z</time></trkpt><trkpt lat="43.886704159259786" lon="10.819643822384569"><ele>37.0</ele><time>2026-04-21T15:15:34Z</time></trkpt><trkpt lat="43.886903339291415" lon="10.819854243910168"><ele>36.5</ele><time>2026-04-21T15:15:35Z</time></trkpt><trkpt lat="43.88710448264894" lon="10.820061519122355"><ele>36.0</ele><time>2026-04-21T15:15:36Z</time></trkpt><trkpt lat="43.887305657890764" lon="10.820257755564587"><ele>35.5</ele><time>2026-04-21T15:15:37Z</time></trkpt><trkpt lat="43.88750367025959" lon="10.820461579128574"><ele>35.0</ele><time>2026-04-21T15:15:38Z</time></trkpt><trkpt lat="43.88770579759957" lon="10.820672138826128"><ele>36.0</ele><time>2026-04-21T15:15:39Z</time></trkpt><trkpt lat="43.88791058228506" lon="10.82088767050075"><ele>37.0</ele><time>2026-04-21T15:15:40Z</time></trkpt><trkpt lat="43.88811878166971" lon="10.821101662664413"><ele>37.5</ele><time>2026-04-21T15:15:41Z</time></trkpt><trkpt lat="43.888328232455194" lon="10.821324660051848"><ele>38.0</ele><time>2026-04-21T15:15:42Z</time></trkpt><trkpt lat="43.8885313841388" lon="10.8215369966101"><ele>37.0</ele><time>2026-04-21T15:15:43Z</time></trkpt><trkpt lat="43.88873799781286" lon="10.821753751417567"><ele>36.0</ele><time>2026-04-21T15:15:44Z</time></trkpt><trkpt lat="43.888942311716185" lon="10.821964830141605"><ele>37.5</ele><time>2026-04-21T15:15:45Z</time></trkpt><trkpt lat="43.88914136570131" lon="10.822172465462762"><ele>39.0</ele><time>2026-04-21T15:15:46Z</time></trkpt><trkpt lat="43.88932887189362" lon="10.82237509842638"><ele>39.0</ele><time>2026-04-21T15:15:47Z</time></trkpt><trkpt lat="43.88951593776042" lon="10.822582453186056"><ele>39.0</ele><time>2026-04-21T15:15:48Z</time></trkpt><trkpt lat="43.88969186231238" lon="10.822792688890232"><ele>43.0</ele><time>2026-04-21T15:15:49Z</time></trkpt><trkpt lat="43.889860361564736" lon="10.82301113845534"><ele>47.0</ele><time>2026-04-21T15:15:50Z</time></trkpt><trkpt lat="43.890015388522826" lon="10.823238797072953"><ele>50.5</ele><time>2026-04-21T15:15:51Z</time></trkpt><trkpt lat="43.890155198588246" lon="10.823497198503338"><ele>54.0</ele><time>2026-04-21T15:15:52Z</time></trkpt><trkpt lat="43.89032740451107" lon="10.82371011114355"><ele>54.0</ele><time>2026-04-21T15:15:53Z</time></trkpt><trkpt lat="43.890477104249634" lon="10.823947030185465"><ele>54.0</ele><time>2026-04-21T15:15:54Z</time></trkpt><trkpt lat="43.89062729794816" lon="10.82418185467797"><ele>54.0</ele><time>2026-04-21T15:15:55Z</time></trkpt><trkpt lat="43.89079159344696" lon="10.824421338655949"><ele>54.0</ele><time>2026-04-21T15:15:56Z</time></trkpt><trkpt lat="43.89095712933957" lon="10.82466077074409"><ele>54.0</ele><time>2026-04-21T15:15:57Z</time></trkpt><trkpt lat="43.89111069344972" lon="10.824900099318667"><ele>54.0</ele><time>2026-04-21T15:15:58Z</time></trkpt><trkpt lat="43.89126192504161" lon="10.825115815661755"><ele>54.0</ele><time>2026-04-21T15:15:59Z</time></trkpt><trkpt lat="43.891401424339435" lon="10.825321664127392"><ele>54.33333333333333</ele><time>2026-04-21T15:16:00Z</time></trkpt><trkpt lat="43.89155007537095" lon="10.825500215832493"><ele>54.666666666666664</ele><time>2026-04-21T15:16:01Z</time></trkpt><trkpt lat="43.891701365541394" lon="10.825671061741877"><ele>55.0</ele><time>2026-04-21T15:16:02Z</time></trkpt><trkpt lat="43.89186850573368" lon="10.825835536232491"><ele>57.0</ele><time>2026-04-21T15:16:03Z</time></trkpt><trkpt lat="43.892046486265045" lon="10.825987645003543"><ele>59.0</ele><time>2026-04-21T15:16:04Z</time></trkpt><trkpt lat="43.89222567307983" lon="10.82611983258409"><ele>61.0</ele><time>2026-04-21T15:16:05Z</time></trkpt><trkpt lat="43.89241272512306" lon="10.826238921940442"><ele>63.33333333333333</ele><time>2026-04-21T15:16:06Z</time></trkpt><trkpt lat="43.892597595678396" lon="10.826337671702795"><ele>65.66666666666667</ele><time>2026-04-21T15:16:07Z</time></trkpt><trkpt lat="43.89277636700368" lon="10.82641630802439"><ele>68.0</ele><time>2026-04-21T15:16:08Z</time></trkpt><trkpt lat="43.89296034332647" lon="10.82647387924144"><ele>68.0</ele><time>2026-04-21T15:16:09Z</time></trkpt><trkpt lat="43.893151674476364" lon="10.82651793544154"><ele>68.0</ele><time>2026-04-21T15:16:10Z</time></trkpt><trkpt lat="43.893346976420766" lon="10.826545795136942"><ele>68.0</ele><time>2026-04-21T15:16:11Z</time></trkpt><trkpt lat="43.893548147491316" lon="10.826562383683552"><ele>69.33333333333334</ele><time>2026-04-21T15:16:12Z</time></trkpt><trkpt lat="43.89375248944346" lon="10.826573615410316"><ele>70.66666666666667</ele><time>2026-04-21T15:16:13Z</time></trkpt><trkpt lat="43.89396077971558" lon="10.826585136414314"><ele>72.0</ele><time>2026-04-21T15:16:14Z</time></trkpt><trkpt lat="43.89417521096043" lon="10.826605412472713"><ele>73.0</ele><time>2026-04-21T15:16:15Z</time></trkpt><trkpt lat="43.8943880620764" lon="10.826624969297335"><ele>74.0</ele><time>2026-04-21T15:16:16Z</time></trkpt><trkpt lat="43.894602192117524" lon="10.826643790850275"><ele>75.0</ele><time>2026-04-21T15:16:17Z</time></trkpt><trkpt lat="43.894817952186706" lon="10.82666013606886"><ele>75.0</ele><time>2026-04-21T15:16:18Z</time></trkpt><trkpt lat="43.89503853434271" lon="10.826679925794306"><ele>75.0</ele><time>2026-04-21T15:16:19Z</time></trkpt><trkpt lat="43.89525037183461" lon="10.826710659620547"><ele>75.0</ele><time>2026-04-21T15:16:20Z</time></trkpt><trkpt lat="43.89545725158501" lon="10.826748673822422"><ele>77.33333333333333</ele><time>2026-04-21T15:16:21Z</time></trkpt><trkpt lat="43.89566339896242" lon="10.826789878563263"><ele>79.66666666666666</ele><time>2026-04-21T15:16:22Z</time></trkpt><trkpt lat="43.89587027525099" lon="10.82683856777862"><ele>82.0</ele><time>2026-04-21T15:16:23Z</time></trkpt><trkpt lat="43.89607870250382" lon="10.826888039948972"><ele>86.33333333333333</ele><time>2026-04-21T15:16:24Z</time></trkpt><trkpt lat="43.896295647242276" lon="10.826940113432679"><ele>90.66666666666667</ele><time>2026-04-21T15:16:25Z</time></trkpt><trkpt lat="43.8965044490355" lon="10.826988767461062"><ele>95.0</ele><time>2026-04-21T15:16:26Z</time></trkpt><trkpt lat="43.89670250893818" lon="10.827034724164237"><ele>98.0</ele><time>2026-04-21T15:16:27Z</time></trkpt><trkpt lat="43.896890002733194" lon="10.827075834311728"><ele>101.0</ele><time>2026-04-21T15:16:28Z</time></trkpt><trkpt lat="43.897069330927245" lon="10.82711591895517"><ele>104.0</ele><time>2026-04-21T15:16:29Z</time></trkpt><trkpt lat="43.89725166957634" lon="10.82715862725792"><ele>104.0</ele><time>2026-04-21T15:16:30Z</time></trkpt><trkpt lat="43.89743501469631" lon="10.827202099650753"><ele>104.0</ele><time>2026-04-21T15:16:31Z</time></trkpt><trkpt lat="43.89762654780586" lon="10.827248938100668"><ele>104.0</ele><time>2026-04-21T15:16:32Z</time></trkpt><trkpt lat="43.89782319148742" lon="10.827294655753208"><ele>103.33333333333333</ele><time>2026-04-21T15:16:33Z</time></trkpt><trkpt lat="43.89802149937106" lon="10.827339132713549"><ele>102.66666666666666</ele><time>2026-04-21T15:16:34Z</time></trkpt><trkpt lat="43.898223885912465" lon="10.827382160286847"><ele>102.0</ele><time>2026-04-21T15:16:35Z</time></trkpt><trkpt lat="43.898432058943726" lon="10.827434052486664"><ele>102.0</ele><time>2026-04-21T15:16:36Z</time></trkpt><trkpt lat="43.89864354576915" lon="10.827490137158318"><ele>102.0</ele><time>2026-04-21T15:16:37Z</time></trkpt><trkpt lat="43.898860852511994" lon="10.827546866309314"><ele>102.0</ele><time>2026-04-21T15:16:38Z</time></trkpt><trkpt lat="43.899078352434195" lon="10.827610537039478"><ele>107.66666666666666</ele><time>2026-04-21T15:16:39Z</time></trkpt><trkpt lat="43.89929775164639" lon="10.827674925811479"><ele>113.33333333333333</ele><time>2026-04-21T15:16:40Z</time></trkpt><trkpt lat="43.899517659481404" lon="10.827738236382347"><ele>119.0</ele><time>2026-04-21T15:16:41Z</time></trkpt><trkpt lat="43.89973067379669" lon="10.827798773468311"><ele>119.0</ele><time>2026-04-21T15:16:42Z</time></trkpt><trkpt lat="43.89994226183212" lon="10.827865929879223"><ele>119.0</ele><time>2026-04-21T15:16:43Z</time></trkpt><trkpt lat="43.900141622236454" lon="10.827951276623242"><ele>119.0</ele><time>2026-04-21T15:16:44Z</time></trkpt><trkpt lat="43.9003372697668" lon="10.828054531219701"><ele>118.33333333333333</ele><time>2026-04-21T15:16:45Z</time></trkpt><trkpt lat="43.90052351969083" lon="10.828173524077126"><ele>117.66666666666666</ele><time>2026-04-21T15:16:46.001Z</time></trkpt><trkpt lat="43.90070594421016" lon="10.828307292457744"><ele>117.0</ele><time>2026-04-21T15:16:47.001Z</time></trkpt><trkpt lat="43.90088973836024" lon="10.828455731607256"><ele>116.33333333333334</ele><time>2026-04-21T15:16:48.001Z</time></trkpt><trkpt lat="43.901068900209" lon="10.828608416100446"><ele>115.66666666666667</ele><time>2026-04-21T15:16:49.001Z</time></trkpt><trkpt lat="43.90123244650598" lon="10.828753280283847"><ele>115.0</ele><time>2026-04-21T15:16:50.001Z</time></trkpt><trkpt lat="43.901393093410626" lon="10.828913246142584"><ele>115.0</ele><time>2026-04-21T15:16:51.001Z</time></trkpt><trkpt lat="43.901542919029076" lon="10.82909766103513"><ele>115.0</ele><time>2026-04-21T15:16:52.001Z</time></trkpt><trkpt lat="43.90167685562098" lon="10.82929932007543"><ele>115.0</ele><time>2026-04-21T15:16:53.001Z</time></trkpt><trkpt lat="43.90180558235574" lon="10.829521574335399"><ele>113.33333333333334</ele><time>2026-04-21T15:16:54.001Z</time></trkpt><trkpt lat="43.90193019053212" lon="10.829759885927945"><ele>111.66666666666666</ele><time>2026-04-21T15:16:55.001Z</time></trkpt><trkpt lat="43.90205128989463" lon="10.830010745085906"><ele>110.0</ele><time>2026-04-21T15:16:56.001Z</time></trkpt><trkpt lat="43.902168512364014" lon="10.8302759990913"><ele>110.0</ele><time>2026-04-21T15:16:57.001Z</time></trkpt><trkpt lat="43.90228656453208" lon="10.830550295610845"><ele>110.0</ele><time>2026-04-21T15:16:58.001Z</time></trkpt><trkpt lat="43.90240528853488" lon="10.83081680063778"><ele>112.33333333333333</ele><time>2026-04-21T15:16:59.001Z</time></trkpt><trkpt lat="43.90252082925783" lon="10.831075333482685"><ele>114.66666666666666</ele><time>2026-04-21T15:17:00.001Z</time></trkpt><trkpt lat="43.902639742070356" lon="10.831341132812067"><ele>117.0</ele><time>2026-04-21T15:17:01.001Z</time></trkpt><trkpt lat="43.90276183502171" lon="10.831607491578334"><ele>118.5</ele><time>2026-04-21T15:17:02.001Z</time></trkpt><trkpt lat="43.90288335342891" lon="10.831873395850465"><ele>120.0</ele><time>2026-04-21T15:17:03.001Z</time></trkpt><trkpt lat="43.90300512556906" lon="10.832148340674301"><ele>120.0</ele><time>2026-04-21T15:17:04.001Z</time></trkpt><trkpt lat="43.90312753692895" lon="10.832427743349024"><ele>120.0</ele><time>2026-04-21T15:17:05.001Z</time></trkpt><trkpt lat="43.90325159001465" lon="10.832711650626594"><ele>123.0</ele><time>2026-04-21T15:17:06.001Z</time></trkpt><trkpt lat="43.90337884818792" lon="10.832996296066387"><ele>126.0</ele><time>2026-04-21T15:17:07.001Z</time></trkpt><trkpt lat="43.90350817471303" lon="10.83328032179579"><ele>131.5</ele><time>2026-04-21T15:17:08.001Z</time></trkpt><trkpt lat="43.903639855975854" lon="10.833574262940045"><ele>137.0</ele><time>2026-04-21T15:17:09.001Z</time></trkpt><trkpt lat="43.903768720461436" lon="10.833869044694318"><ele>137.0</ele><time>2026-04-21T15:17:10.001Z</time></trkpt><trkpt lat="43.90389472711708" lon="10.834159478791697"><ele>137.0</ele><time>2026-04-21T15:17:11.001Z</time></trkpt><trkpt lat="43.90402116453276" lon="10.834451621191608"><ele>137.0</ele><time>2026-04-21T15:17:12.001Z</time></trkpt><trkpt lat="43.90415074162735" lon="10.834750670398519"><ele>137.0</ele><time>2026-04-21T15:17:13.001Z</time></trkpt><trkpt lat="43.90428066691724" lon="10.835053567682841"><ele>137.0</ele><time>2026-04-21T15:17:14.001Z</time></trkpt><trkpt lat="43.904414233857956" lon="10.83535913616379"><ele>137.0</ele><time>2026-04-21T15:17:15.064Z</time></trkpt><trkpt lat="43.904537521431614" lon="10.835633884478192"><ele>137.0</ele><time>2026-04-21T15:17:16.065Z</time></trkpt><trkpt lat="43.90466073798046" lon="10.835900929973578"><ele>137.0</ele><time>2026-04-21T15:17:17.065Z</time></trkpt><trkpt lat="43.90479085122818" lon="10.836178707582546"><ele>132.5</ele><time>2026-04-21T15:17:18.064Z</time></trkpt><trkpt lat="43.9049241628006" lon="10.836458210542398"><ele>128.0</ele><time>2026-04-21T15:17:19.06Z</time></trkpt><trkpt lat="43.90522039895089" lon="10.837123478928854"><ele>123.0</ele><time>2026-04-21T15:17:21.001Z</time></trkpt><trkpt lat="43.905352417237275" lon="10.837424288756948"><ele>118.0</ele><time>2026-04-21T15:17:22.001Z</time></trkpt><trkpt lat="43.90547808968019" lon="10.837712425757603"><ele>112.0</ele><time>2026-04-21T15:17:23.001Z</time></trkpt><trkpt lat="43.90562973429635" lon="10.838024935810086"><ele>106.0</ele><time>2026-04-21T15:17:24.001Z</time></trkpt><trkpt lat="43.905756431102226" lon="10.838301971606153"><ele>106.0</ele><time>2026-04-21T15:17:25.001Z</time></trkpt><trkpt lat="43.90588515515678" lon="10.838600567219085"><ele>106.0</ele><time>2026-04-21T15:17:26.001Z</time></trkpt><trkpt lat="43.906019405803065" lon="10.838907429147703"><ele>102.0</ele><time>2026-04-21T15:17:27.001Z</time></trkpt><trkpt lat="43.90615197641605" lon="10.839199287689196"><ele>98.0</ele><time>2026-04-21T15:17:28.001Z</time></trkpt><trkpt lat="43.906279922305295" lon="10.839487450354513"><ele>98.0</ele><time>2026-04-21T15:17:29.001Z</time></trkpt><trkpt lat="43.90640480064694" lon="10.8397780796819"><ele>98.0</ele><time>2026-04-21T15:17:30.001Z</time></trkpt><trkpt lat="43.906521951944654" lon="10.84006803959884"><ele>101.5</ele><time>2026-04-21T15:17:31.001Z</time></trkpt><trkpt lat="43.906629140865405" lon="10.840357208822919"><ele>105.0</ele><time>2026-04-21T15:17:32.001Z</time></trkpt><trkpt lat="43.90672396332508" lon="10.840660038633288"><ele>95.5</ele><time>2026-04-21T15:17:33.001Z</time></trkpt><trkpt lat="43.90681076435754" lon="10.840971792110189"><ele>86.0</ele><time>2026-04-21T15:17:34.001Z</time></trkpt><trkpt lat="43.90688694130103" lon="10.841293526719276"><ele>86.0</ele><time>2026-04-21T15:17:35.001Z</time></trkpt><trkpt lat="43.906949967919935" lon="10.841626572843138"><ele>86.0</ele><time>2026-04-21T15:17:36.001Z</time></trkpt><trkpt lat="43.907000455782544" lon="10.841972063705926"><ele>85.0</ele><time>2026-04-21T15:17:37.001Z</time></trkpt><trkpt lat="43.90704401694375" lon="10.84231995735455"><ele>84.0</ele><time>2026-04-21T15:17:38.001Z</time></trkpt><trkpt lat="43.90707597086168" lon="10.842675998546717"><ele>83.5</ele><time>2026-04-21T15:17:39.001Z</time></trkpt><trkpt lat="43.90709957210621" lon="10.843038377619584"><ele>83.0</ele><time>2026-04-21T15:17:40.001Z</time></trkpt><trkpt lat="43.90711229425894" lon="10.843398604304458"><ele>83.0</ele><time>2026-04-21T15:17:41.001Z</time></trkpt><trkpt lat="43.90711625667439" lon="10.843769814795243"><ele>83.0</ele><time>2026-04-21T15:17:42Z</time></trkpt><trkpt lat="43.907112266846184" lon="10.844144510385668"><ele>82.0</ele><time>2026-04-21T15:17:43Z</time></trkpt><trkpt lat="43.907101438063854" lon="10.844513861324616"><ele>81.0</ele><time>2026-04-21T15:17:44Z</time></trkpt><trkpt lat="43.90707847330334" lon="10.844872060856334"><ele>82.5</ele><time>2026-04-21T15:17:45Z</time></trkpt><trkpt lat="43.907058419844056" lon="10.845239119972431"><ele>84.0</ele><time>2026-04-21T15:17:46Z</time></trkpt><trkpt lat="43.90704532436941" lon="10.845604411810552"><ele>85.5</ele><time>2026-04-21T15:17:47Z</time></trkpt><trkpt lat="43.90702898680599" lon="10.84597459198753"><ele>87.0</ele><time>2026-04-21T15:17:48Z</time></trkpt><trkpt lat="43.90701105312948" lon="10.846340500731854"><ele>87.0</ele><time>2026-04-21T15:17:49Z</time></trkpt><trkpt lat="43.90699127025468" lon="10.846703920734502"><ele>87.0</ele><time>2026-04-21T15:17:50Z</time></trkpt><trkpt lat="43.90697293347992" lon="10.847074569212234"><ele>87.0</ele><time>2026-04-21T15:17:51Z</time></trkpt><trkpt lat="43.906956274095705" lon="10.847443017337431"><ele>87.0</ele><time>2026-04-21T15:17:52Z</time></trkpt><trkpt lat="43.906940207189415" lon="10.847812617406403"><ele>87.0</ele><time>2026-04-21T15:17:53Z</time></trkpt><trkpt lat="43.90692380887169" lon="10.848174665023349"><ele>87.0</ele><time>2026-04-21T15:17:54Z</time></trkpt><trkpt lat="43.906907858837606" lon="10.848537277535081"><ele>87.0</ele><time>2026-04-21T15:17:55Z</time></trkpt><trkpt lat="43.906892150076466" lon="10.848905207155777"><ele>87.0</ele><time>2026-04-21T15:17:56Z</time></trkpt><trkpt lat="43.90687785223288" lon="10.849269298701527"><ele>84.0</ele><time>2026-04-21T15:17:57Z</time></trkpt><trkpt lat="43.90686632911151" lon="10.84963644292829"><ele>81.0</ele><time>2026-04-21T15:17:58Z</time></trkpt><trkpt lat="43.90686477867226" lon="10.850005709882257"><ele>80.0</ele><time>2026-04-21T15:17:59Z</time></trkpt><trkpt lat="43.90687616030559" lon="10.850372380411887"><ele>79.0</ele><time>2026-04-21T15:18:00Z</time></trkpt><trkpt lat="43.90690067128321" lon="10.850738591006975"><ele>79.5</ele><time>2026-04-21T15:18:01Z</time></trkpt><trkpt lat="43.90693397730081" lon="10.851104468018837"><ele>80.0</ele><time>2026-04-21T15:18:02Z</time></trkpt><trkpt lat="43.90697017909219" lon="10.851466800585273"><ele>80.0</ele><time>2026-04-21T15:18:03Z</time></trkpt><trkpt lat="43.907013446791574" lon="10.85182910396258"><ele>80.0</ele><time>2026-04-21T15:18:04Z</time></trkpt><trkpt lat="43.9070677244379" lon="10.852191179279945"><ele>80.0</ele><time>2026-04-21T15:18:05Z</time></trkpt><trkpt lat="43.90713203285702" lon="10.852546634627823"><ele>80.0</ele><time>2026-04-21T15:18:06Z</time></trkpt><trkpt lat="43.90720562125075" lon="10.852900382256651"><ele>84.0</ele><time>2026-04-21T15:18:07Z</time></trkpt><trkpt lat="43.907288539753566" lon="10.853249433579922"><ele>88.0</ele><time>2026-04-21T15:18:08Z</time></trkpt><trkpt lat="43.90738192706191" lon="10.853593121776372"><ele>87.5</ele><time>2026-04-21T15:18:09Z</time></trkpt><trkpt lat="43.907482239991" lon="10.853928226248662"><ele>87.0</ele><time>2026-04-21T15:18:10Z</time></trkpt><trkpt lat="43.90759005587988" lon="10.854254044550268"><ele>86.5</ele><time>2026-04-21T15:18:11Z</time></trkpt><trkpt lat="43.90769760808866" lon="10.8545699637391"><ele>86.0</ele><time>2026-04-21T15:18:12Z</time></trkpt><trkpt lat="43.90781736201374" lon="10.854879326154075"><ele>83.0</ele><time>2026-04-21T15:18:13Z</time></trkpt><trkpt lat="43.90795281391529" lon="10.855189340786824"><ele>80.0</ele><time>2026-04-21T15:18:14Z</time></trkpt><trkpt lat="43.908095496059524" lon="10.855495400395325"><ele>80.0</ele><time>2026-04-21T15:18:15Z</time></trkpt><trkpt lat="43.908243244380195" lon="10.855799704784506"><ele>80.0</ele><time>2026-04-21T15:18:16Z</time></trkpt><trkpt lat="43.90839724717837" lon="10.856101590762758"><ele>76.5</ele><time>2026-04-21T15:18:17Z</time></trkpt><trkpt lat="43.908553024686064" lon="10.85640573953247"><ele>73.0</ele><time>2026-04-21T15:18:18Z</time></trkpt><trkpt lat="43.908717797213654" lon="10.85671766159865"><ele>73.0</ele><time>2026-04-21T15:18:19Z</time></trkpt><trkpt lat="43.90888352718579" lon="10.857024998750774"><ele>73.0</ele><time>2026-04-21T15:18:20Z</time></trkpt><trkpt lat="43.909046472592145" lon="10.857340879588289"><ele>74.5</ele><time>2026-04-21T15:18:21Z</time></trkpt><trkpt lat="43.90920795140663" lon="10.85766379071973"><ele>76.0</ele><time>2026-04-21T15:18:22Z</time></trkpt><trkpt lat="43.909368220980745" lon="10.857982951356172"><ele>76.0</ele><time>2026-04-21T15:18:23Z</time></trkpt><trkpt lat="43.90953165677254" lon="10.8583067455846"><ele>76.0</ele><time>2026-04-21T15:18:24Z</time></trkpt><trkpt lat="43.90969532684586" lon="10.85862934708722"><ele>77.5</ele><time>2026-04-21T15:18:25Z</time></trkpt><trkpt lat="43.90985902949735" lon="10.85894903350221"><ele>79.0</ele><time>2026-04-21T15:18:26Z</time></trkpt><trkpt lat="43.91001855658736" lon="10.859262536739887"><ele>74.5</ele><time>2026-04-21T15:18:27Z</time></trkpt><trkpt lat="43.91017170037578" lon="10.859557845770519"><ele>70.0</ele><time>2026-04-21T15:18:28Z</time></trkpt><trkpt lat="43.9103179477971" lon="10.859852416889426"><ele>70.0</ele><time>2026-04-21T15:18:29Z</time></trkpt><trkpt lat="43.910459407705275" lon="10.860161267452924"><ele>70.0</ele><time>2026-04-21T15:18:30Z</time></trkpt><trkpt lat="43.91058914923777" lon="10.860482260399408"><ele>70.0</ele><time>2026-04-21T15:18:31Z</time></trkpt><trkpt lat="43.91070621205438" lon="10.860814306357419"><ele>70.0</ele><time>2026-04-21T15:18:32Z</time></trkpt><trkpt lat="43.91081450219275" lon="10.861154100423109"><ele>70.0</ele><time>2026-04-21T15:18:33Z</time></trkpt><trkpt lat="43.91091473427697" lon="10.861502358408842"><ele>70.0</ele><time>2026-04-21T15:18:34Z</time></trkpt><trkpt lat="43.9110026920647" lon="10.861857964311056"><ele>69.5</ele><time>2026-04-21T15:18:35Z</time></trkpt><trkpt lat="43.9110794412954" lon="10.862219964065883"><ele>69.0</ele><time>2026-04-21T15:18:36Z</time></trkpt><trkpt lat="43.91114305371799" lon="10.862591679797564"><ele>68.5</ele><time>2026-04-21T15:18:37Z</time></trkpt><trkpt lat="43.911194192611276" lon="10.862965929923853"><ele>68.0</ele><time>2026-04-21T15:18:38Z</time></trkpt><trkpt lat="43.91123461036415" lon="10.863351365629667"><ele>68.0</ele><time>2026-04-21T15:18:39Z</time></trkpt><trkpt lat="43.91126689817911" lon="10.863738571379164"><ele>68.0</ele><time>2026-04-21T15:18:40Z</time></trkpt><trkpt lat="43.91129821443748" lon="10.864129538814161"><ele>66.0</ele><time>2026-04-21T15:18:41Z</time></trkpt><trkpt lat="43.91132997405627" lon="10.864525372861939"><ele>64.0</ele><time>2026-04-21T15:18:42Z</time></trkpt><trkpt lat="43.91136265438596" lon="10.86491809257194"><ele>63.5</ele><time>2026-04-21T15:18:43Z</time></trkpt><trkpt lat="43.91139287760622" lon="10.865285997739552"><ele>63.0</ele><time>2026-04-21T15:18:44Z</time></trkpt><trkpt lat="43.911423305400156" lon="10.865655301536638"><ele>63.5</ele><time>2026-04-21T15:18:45Z</time></trkpt><trkpt lat="43.911439445795054" lon="10.86602916005604"><ele>64.0</ele><time>2026-04-21T15:18:46Z</time></trkpt><trkpt lat="43.911443119322875" lon="10.866404142728923"><ele>64.5</ele><time>2026-04-21T15:18:47Z</time></trkpt><trkpt lat="43.91146683893165" lon="10.86679178028978"><ele>65.0</ele><time>2026-04-21T15:18:48Z</time></trkpt><trkpt lat="43.91154273597829" lon="10.86717393913323"><ele>65.0</ele><time>2026-04-21T15:18:49Z</time></trkpt><trkpt lat="43.911570400970625" lon="10.867561866268545"><ele>65.0</ele><time>2026-04-21T15:18:50Z</time></trkpt><trkpt lat="43.91160676185503" lon="10.867952387342596"><ele>64.5</ele><time>2026-04-21T15:18:51Z</time></trkpt><trkpt lat="43.91164139628549" lon="10.868339707002868"><ele>64.0</ele><time>2026-04-21T15:18:52Z</time></trkpt><trkpt lat="43.91167126089003" lon="10.868706837963016"><ele>64.0</ele><time>2026-04-21T15:18:53Z</time></trkpt><trkpt lat="43.91170170493086" lon="10.869090400016391"><ele>64.0</ele><time>2026-04-21T15:18:54Z</time></trkpt><trkpt lat="43.91173820145422" lon="10.869477262343112"><ele>62.5</ele><time>2026-04-21T15:18:55Z</time></trkpt><trkpt lat="43.9117730272837" lon="10.86986383565528"><ele>61.0</ele><time>2026-04-21T15:18:56Z</time></trkpt><trkpt lat="43.911802724862135" lon="10.8702521347544"><ele>61.0</ele><time>2026-04-21T15:18:57Z</time></trkpt><trkpt lat="43.91183221074711" lon="10.870631011226166"><ele>61.0</ele><time>2026-04-21T15:18:58Z</time></trkpt><trkpt lat="43.911856270183954" lon="10.871002726282432"><ele>62.0</ele><time>2026-04-21T15:18:59Z</time></trkpt><trkpt lat="43.91189420979958" lon="10.87135964203077"><ele>63.0</ele><time>2026-04-21T15:19:00Z</time></trkpt><trkpt lat="43.91192249316151" lon="10.871714925929298"><ele>63.0</ele><time>2026-04-21T15:19:01Z</time></trkpt><trkpt lat="43.911949715186594" lon="10.872074867347855"><ele>63.0</ele><time>2026-04-21T15:19:02Z</time></trkpt><trkpt lat="43.911973507574146" lon="10.872433131269428"><ele>63.5</ele><time>2026-04-21T15:19:03Z</time></trkpt><trkpt lat="43.91200919499208" lon="10.872795939762376"><ele>64.0</ele><time>2026-04-21T15:19:04Z</time></trkpt><trkpt lat="43.91204176580141" lon="10.873150208424292"><ele>63.0</ele><time>2026-04-21T15:19:05Z</time></trkpt><trkpt lat="43.91207021158845" lon="10.873498892194668"><ele>62.0</ele><time>2026-04-21T15:19:06Z</time></trkpt><trkpt lat="43.91209327577529" lon="10.873836915280934"><ele>62.0</ele><time>2026-04-21T15:19:07Z</time></trkpt><trkpt lat="43.912118976081864" lon="10.874156392805874"><ele>62.0</ele><time>2026-04-21T15:19:08Z</time></trkpt><trkpt lat="43.9121419858101" lon="10.874462750491128"><ele>61.5</ele><time>2026-04-21T15:19:09Z</time></trkpt><trkpt lat="43.91216890153783" lon="10.874774502159786"><ele>61.0</ele><time>2026-04-21T15:19:10Z</time></trkpt><trkpt lat="43.91220144196136" lon="10.875099093995134"><ele>61.0</ele><time>2026-04-21T15:19:11Z</time></trkpt><trkpt lat="43.91223945139032" lon="10.87543483246595"><ele>61.0</ele><time>2026-04-21T15:19:12Z</time></trkpt><trkpt lat="43.91227712696922" lon="10.87578186735471"><ele>60.5</ele><time>2026-04-21T15:19:13Z</time></trkpt><trkpt lat="43.91231150746802" lon="10.876135146138708"><ele>60.0</ele><time>2026-04-21T15:19:14Z</time></trkpt><trkpt lat="43.91234230883812" lon="10.876497694950576"><ele>60.5</ele><time>2026-04-21T15:19:15Z</time></trkpt><trkpt lat="43.91237032499501" lon="10.876868926464697"><ele>61.0</ele><time>2026-04-21T15:19:16Z</time></trkpt><trkpt lat="43.91239934490797" lon="10.87723985155491"><ele>60.5</ele><time>2026-04-21T15:19:17Z</time></trkpt><trkpt lat="43.912427073102116" lon="10.877615259073197"><ele>60.0</ele><time>2026-04-21T15:19:18Z</time></trkpt><trkpt lat="43.91245472521651" lon="10.877990255468996"><ele>60.0</ele><time>2026-04-21T15:19:19Z</time></trkpt><trkpt lat="43.91248442082276" lon="10.878360700078481"><ele>60.0</ele><time>2026-04-21T15:19:20Z</time></trkpt><trkpt lat="43.912515698775515" lon="10.878728366711552"><ele>60.5</ele><time>2026-04-21T15:19:21Z</time></trkpt><trkpt lat="43.912548753692846" lon="10.879105780845718"><ele>61.0</ele><time>2026-04-21T15:19:22Z</time></trkpt><trkpt lat="43.912582271670125" lon="10.879487562073168"><ele>61.5</ele><time>2026-04-21T15:19:23Z</time></trkpt><trkpt lat="43.912615700748155" lon="10.879871723028678"><ele>62.0</ele><time>2026-04-21T15:19:24Z</time></trkpt><trkpt lat="43.912647806297514" lon="10.880255101080596"><ele>62.0</ele><time>2026-04-21T15:19:25Z</time></trkpt><trkpt lat="43.91268009930813" lon="10.880636625582875"><ele>62.0</ele><time>2026-04-21T15:19:26Z</time></trkpt><trkpt lat="43.91270833130807" lon="10.881018928465753"><ele>61.0</ele><time>2026-04-21T15:19:27Z</time></trkpt><trkpt lat="43.91273674025334" lon="10.881406186320358"><ele>60.0</ele><time>2026-04-21T15:19:28Z</time></trkpt><trkpt lat="43.91276610312874" lon="10.88179200769808"><ele>59.0</ele><time>2026-04-21T15:19:29Z</time></trkpt><trkpt lat="43.91279620660485" lon="10.882187044878373"><ele>58.0</ele><time>2026-04-21T15:19:30Z</time></trkpt><trkpt lat="43.91282934745449" lon="10.882578157667595"><ele>58.0</ele><time>2026-04-21T15:19:31Z</time></trkpt><trkpt lat="43.91286461321453" lon="10.88296748138328"><ele>58.0</ele><time>2026-04-21T15:19:32Z</time></trkpt><trkpt lat="43.9128994188457" lon="10.88336393284955"><ele>59.0</ele><time>2026-04-21T15:19:33Z</time></trkpt><trkpt lat="43.912931981727944" lon="10.883755023304309"><ele>60.0</ele><time>2026-04-21T15:19:34Z</time></trkpt><trkpt lat="43.912964456518566" lon="10.884150300375687"><ele>59.0</ele><time>2026-04-21T15:19:35Z</time></trkpt><trkpt lat="43.91299622087769" lon="10.884549668551966"><ele>58.0</ele><time>2026-04-21T15:19:36Z</time></trkpt><trkpt lat="43.913024017782" lon="10.88494210726813"><ele>57.5</ele><time>2026-04-21T15:19:37Z</time></trkpt><trkpt lat="43.91305366403645" lon="10.885338860151549"><ele>57.0</ele><time>2026-04-21T15:19:38Z</time></trkpt><trkpt lat="43.91308419507698" lon="10.885735420698909"><ele>57.5</ele><time>2026-04-21T15:19:39Z</time></trkpt><trkpt lat="43.91311487399473" lon="10.886129081115572"><ele>58.0</ele><time>2026-04-21T15:19:40Z</time></trkpt><trkpt lat="43.91314834291536" lon="10.886522168167794"><ele>58.0</ele><time>2026-04-21T15:19:41Z</time></trkpt><trkpt lat="43.91318168216369" lon="10.886918560448136"><ele>58.0</ele><time>2026-04-21T15:19:42Z</time></trkpt><trkpt lat="43.91321498207331" lon="10.887294158351558"><ele>58.0</ele><time>2026-04-21T15:19:43Z</time></trkpt><trkpt lat="43.91324490235162" lon="10.887658176516581"><ele>58.0</ele><time>2026-04-21T15:19:44Z</time></trkpt><trkpt lat="43.91327559566331" lon="10.8880247394689"><ele>58.0</ele><time>2026-04-21T15:19:45Z</time></trkpt><trkpt lat="43.91330515795794" lon="10.888395454544577"><ele>58.0</ele><time>2026-04-21T15:19:46Z</time></trkpt><trkpt lat="43.913335344712245" lon="10.88877179350001"><ele>58.5</ele><time>2026-04-21T15:19:47Z</time></trkpt><trkpt lat="43.91336774374751" lon="10.8891457504566"><ele>59.0</ele><time>2026-04-21T15:19:48Z</time></trkpt><trkpt lat="43.91339722359311" lon="10.889529089357435"><ele>59.0</ele><time>2026-04-21T15:19:49Z</time></trkpt><trkpt lat="43.913426410037914" lon="10.889913104746194"><ele>59.0</ele><time>2026-04-21T15:19:50Z</time></trkpt><trkpt lat="43.91345514991315" lon="10.890305168403994"><ele>59.0</ele><time>2026-04-21T15:19:51Z</time></trkpt><trkpt lat="43.91348721132526" lon="10.890688775477258"><ele>59.0</ele><time>2026-04-21T15:19:52Z</time></trkpt><trkpt lat="43.91352054082165" lon="10.89108113368146"><ele>59.0</ele><time>2026-04-21T15:19:53Z</time></trkpt><trkpt lat="43.9135542112554" lon="10.891474610942623"><ele>59.0</ele><time>2026-04-21T15:19:54Z</time></trkpt><trkpt lat="43.91358757966654" lon="10.891860519270514"><ele>59.0</ele><time>2026-04-21T15:19:55Z</time></trkpt><trkpt lat="43.91362081606995" lon="10.89225509365212"><ele>59.0</ele><time>2026-04-21T15:19:56Z</time></trkpt><trkpt lat="43.9136534317889" lon="10.892649052525462"><ele>58.5</ele><time>2026-04-21T15:19:57Z</time></trkpt><trkpt lat="43.91368508286492" lon="10.893041207816143"><ele>58.0</ele><time>2026-04-21T15:19:58Z</time></trkpt><trkpt lat="43.91371631549895" lon="10.893435525171995"><ele>58.0</ele><time>2026-04-21T15:19:59Z</time></trkpt><trkpt lat="43.91374926843115" lon="10.893831562087803"><ele>58.0</ele><time>2026-04-21T15:20:00Z</time></trkpt><trkpt lat="43.913780393324735" lon="10.894226247828694"><ele>58.0</ele><time>2026-04-21T15:20:01Z</time></trkpt><trkpt lat="43.91381037237056" lon="10.894620464979115"><ele>58.0</ele><time>2026-04-21T15:20:02Z</time></trkpt><trkpt lat="43.913841120499654" lon="10.89501082086858"><ele>58.0</ele><time>2026-04-21T15:20:03Z</time></trkpt><trkpt lat="43.913870221526196" lon="10.895409879330726"><ele>58.0</ele><time>2026-04-21T15:20:04Z</time></trkpt><trkpt lat="43.91389544091092" lon="10.895807354126482"><ele>58.0</ele><time>2026-04-21T15:20:05Z</time></trkpt><trkpt lat="43.9139219755294" lon="10.89620579623503"><ele>58.0</ele><time>2026-04-21T15:20:06Z</time></trkpt><trkpt lat="43.91394805377674" lon="10.896603318706664"><ele>58.0</ele><time>2026-04-21T15:20:07Z</time></trkpt><trkpt lat="43.91397724957421" lon="10.896988907905778"><ele>58.0</ele><time>2026-04-21T15:20:08Z</time></trkpt><trkpt lat="43.91400849978644" lon="10.897371100287101"><ele>58.0</ele><time>2026-04-21T15:20:09Z</time></trkpt><trkpt lat="43.91404058317019" lon="10.897753060823721"><ele>58.0</ele><time>2026-04-21T15:20:10Z</time></trkpt><trkpt lat="43.91407352325584" lon="10.898127391519354"><ele>57.5</ele><time>2026-04-21T15:20:11Z</time></trkpt><trkpt lat="43.914105785616044" lon="10.898506351184597"><ele>57.0</ele><time>2026-04-21T15:20:12Z</time></trkpt><trkpt lat="43.91413724678168" lon="10.89888249430106"><ele>58.0</ele><time>2026-04-21T15:20:13Z</time></trkpt><trkpt lat="43.914165014148615" lon="10.899262499636627"><ele>59.0</ele><time>2026-04-21T15:20:14Z</time></trkpt><trkpt lat="43.914193483463656" lon="10.899636107208943"><ele>59.0</ele><time>2026-04-21T15:20:15Z</time></trkpt><trkpt lat="43.91422304447737" lon="10.900006157523984"><ele>59.0</ele><time>2026-04-21T15:20:16Z</time></trkpt><trkpt lat="43.91425438194489" lon="10.90037302545424"><ele>60.0</ele><time>2026-04-21T15:20:17Z</time></trkpt><trkpt lat="43.91428456989952" lon="10.900724542132325"><ele>61.0</ele><time>2026-04-21T15:20:18Z</time></trkpt><trkpt lat="43.91431471815648" lon="10.901075441815575"><ele>61.0</ele><time>2026-04-21T15:20:19Z</time></trkpt><trkpt lat="43.91434248380162" lon="10.901427733005528"><ele>61.0</ele><time>2026-04-21T15:20:20Z</time></trkpt><trkpt lat="43.91437028964732" lon="10.90177851523731"><ele>59.5</ele><time>2026-04-21T15:20:21Z</time></trkpt><trkpt lat="43.91439854012099" lon="10.902134410259972"><ele>58.0</ele><time>2026-04-21T15:20:22Z</time></trkpt><trkpt lat="43.91442608472076" lon="10.902485374228338"><ele>58.5</ele><time>2026-04-21T15:20:23Z</time></trkpt><trkpt lat="43.91445430051569" lon="10.902839724009516"><ele>59.0</ele><time>2026-04-21T15:20:24Z</time></trkpt><trkpt lat="43.914483777143374" lon="10.903196561958953"><ele>59.0</ele><time>2026-04-21T15:20:25Z</time></trkpt><trkpt lat="43.914512465314424" lon="10.903552570381496"><ele>59.0</ele><time>2026-04-21T15:20:26Z</time></trkpt><trkpt lat="43.91454203101429" lon="10.903908929987633"><ele>59.0</ele><time>2026-04-21T15:20:27Z</time></trkpt><trkpt lat="43.914573047187766" lon="10.904271483963557"><ele>59.0</ele><time>2026-04-21T15:20:28Z</time></trkpt><trkpt lat="43.914603225173934" lon="10.904627495962282"><ele>59.0</ele><time>2026-04-21T15:20:29Z</time></trkpt><trkpt lat="43.914631191065766" lon="10.904989072812468"><ele>59.0</ele><time>2026-04-21T15:20:30Z</time></trkpt><trkpt lat="43.914661334897225" lon="10.905349598038184"><ele>59.0</ele><time>2026-04-21T15:20:31Z</time></trkpt><trkpt lat="43.914691136226786" lon="10.905719553101019"><ele>59.0</ele><time>2026-04-21T15:20:32Z</time></trkpt><trkpt lat="43.91472127377662" lon="10.90609255254379"><ele>59.5</ele><time>2026-04-21T15:20:33Z</time></trkpt><trkpt lat="43.91474989009925" lon="10.906462176162808"><ele>60.0</ele><time>2026-04-21T15:20:34Z</time></trkpt><trkpt lat="43.91477700949249" lon="10.906824432495645"><ele>59.0</ele><time>2026-04-21T15:20:35Z</time></trkpt><trkpt lat="43.91480504911571" lon="10.907188691771458"><ele>58.0</ele><time>2026-04-21T15:20:36Z</time></trkpt><trkpt lat="43.91483231298434" lon="10.907559135214711"><ele>57.5</ele><time>2026-04-21T15:20:37Z</time></trkpt><trkpt lat="43.914853683855874" lon="10.907919995606969"><ele>57.0</ele><time>2026-04-21T15:20:38Z</time></trkpt><trkpt lat="43.91486444006383" lon="10.908276613805294"><ele>56.0</ele><time>2026-04-21T15:20:39Z</time></trkpt><trkpt lat="43.91486700724215" lon="10.908625837624779"><ele>55.0</ele><time>2026-04-21T15:20:40Z</time></trkpt><trkpt lat="43.914865273349136" lon="10.908974413696015"><ele>55.0</ele><time>2026-04-21T15:20:41Z</time></trkpt><trkpt lat="43.9148616569538" lon="10.909325059532241"><ele>55.0</ele><time>2026-04-21T15:20:42Z</time></trkpt><trkpt lat="43.914856260813714" lon="10.909684632644128"><ele>55.0</ele><time>2026-04-21T15:20:43Z</time></trkpt><trkpt lat="43.91484916462063" lon="10.910053083465527"><ele>55.0</ele><time>2026-04-21T15:20:44Z</time></trkpt><trkpt lat="43.914834053760096" lon="10.910421082553626"><ele>56.0</ele><time>2026-04-21T15:20:45Z</time></trkpt><trkpt lat="43.91481139524729" lon="10.910795172539082"><ele>57.0</ele><time>2026-04-21T15:20:46Z</time></trkpt><trkpt lat="43.91478213027256" lon="10.911166876190727"><ele>56.5</ele><time>2026-04-21T15:20:47Z</time></trkpt><trkpt lat="43.9147420564925" lon="10.911543183483369"><ele>56.0</ele><time>2026-04-21T15:20:48Z</time></trkpt><trkpt lat="43.91469411462239" lon="10.911913069467223"><ele>56.0</ele><time>2026-04-21T15:20:49.001Z</time></trkpt><trkpt lat="43.91464438572117" lon="10.912285620159691"><ele>56.0</ele><time>2026-04-21T15:20:50Z</time></trkpt><trkpt lat="43.914595492351545" lon="10.912655575958233"><ele>56.0</ele><time>2026-04-21T15:20:51Z</time></trkpt><trkpt lat="43.91455095016113" lon="10.913026448976554"><ele>56.0</ele><time>2026-04-21T15:20:52Z</time></trkpt><trkpt lat="43.91450761086342" lon="10.91338894978729"><ele>54.5</ele><time>2026-04-21T15:20:53Z</time></trkpt><trkpt lat="43.91446213433295" lon="10.913752700317806"><ele>53.0</ele><time>2026-04-21T15:20:54Z</time></trkpt><trkpt lat="43.91441731738188" lon="10.914111252418827"><ele>53.0</ele><time>2026-04-21T15:20:55Z</time></trkpt><trkpt lat="43.91437137286706" lon="10.914468053521022"><ele>53.0</ele><time>2026-04-21T15:20:56.001Z</time></trkpt><trkpt lat="43.91432304090856" lon="10.914824526205468"><ele>53.5</ele><time>2026-04-21T15:20:57.001Z</time></trkpt><trkpt lat="43.914277177399235" lon="10.915177402244817"><ele>54.0</ele><time>2026-04-21T15:20:58.001Z</time></trkpt><trkpt lat="43.914231146113444" lon="10.915534949448059"><ele>54.0</ele><time>2026-04-21T15:20:59.001Z</time></trkpt><trkpt lat="43.91418655346001" lon="10.915902331548422"><ele>54.0</ele><time>2026-04-21T15:21:00.001Z</time></trkpt><trkpt lat="43.914139800428636" lon="10.91627127197438"><ele>54.5</ele><time>2026-04-21T15:21:01.001Z</time></trkpt><trkpt lat="43.914092563870824" lon="10.91663792815137"><ele>55.0</ele><time>2026-04-21T15:21:02.001Z</time></trkpt><trkpt lat="43.914041982263356" lon="10.917006299894163"><ele>55.0</ele><time>2026-04-21T15:21:03.001Z</time></trkpt><trkpt lat="43.913994461410475" lon="10.917367944104791"><ele>55.0</ele><time>2026-04-21T15:21:04.001Z</time></trkpt><trkpt lat="43.913947194376064" lon="10.917737400225404"><ele>54.5</ele><time>2026-04-21T15:21:05.001Z</time></trkpt><trkpt lat="43.913899999856824" lon="10.918107901746284"><ele>54.0</ele><time>2026-04-21T15:21:06.001Z</time></trkpt><trkpt lat="43.91385538971839" lon="10.91847698920522"><ele>53.0</ele><time>2026-04-21T15:21:07.001Z</time></trkpt><trkpt lat="43.91380948633824" lon="10.918852013380736"><ele>52.0</ele><time>2026-04-21T15:21:08.001Z</time></trkpt><trkpt lat="43.91376072366619" lon="10.919228665838586"><ele>52.0</ele><time>2026-04-21T15:21:09.001Z</time></trkpt><trkpt lat="43.913712699073024" lon="10.919604781041627"><ele>52.0</ele><time>2026-04-21T15:21:10.001Z</time></trkpt><trkpt lat="43.9136628817002" lon="10.91998895595126"><ele>52.5</ele><time>2026-04-21T15:21:11.001Z</time></trkpt><trkpt lat="43.91361376083821" lon="10.920369861666263"><ele>53.0</ele><time>2026-04-21T15:21:12.001Z</time></trkpt><trkpt lat="43.91356526251992" lon="10.920754102167539"><ele>53.0</ele><time>2026-04-21T15:21:13.001Z</time></trkpt><trkpt lat="43.9135155675798" lon="10.921142824275208"><ele>53.0</ele><time>2026-04-21T15:21:14.001Z</time></trkpt><trkpt lat="43.91346691493164" lon="10.9215315545178"><ele>52.0</ele><time>2026-04-21T15:21:15.001Z</time></trkpt><trkpt lat="43.91341613045344" lon="10.921921104538514"><ele>51.0</ele><time>2026-04-21T15:21:16.001Z</time></trkpt><trkpt lat="43.91336503180664" lon="10.92231090240339"><ele>50.0</ele><time>2026-04-21T15:21:17.001Z</time></trkpt><trkpt lat="43.91331641145242" lon="10.922694378152528"><ele>49.0</ele><time>2026-04-21T15:21:18.001Z</time></trkpt><trkpt lat="43.91326983143222" lon="10.923071241507028"><ele>50.0</ele><time>2026-04-21T15:21:19.001Z</time></trkpt><trkpt lat="43.913220675322336" lon="10.923452762908902"><ele>51.0</ele><time>2026-04-21T15:21:20.001Z</time></trkpt><trkpt lat="43.91317311346187" lon="10.923830293383448"><ele>51.0</ele><time>2026-04-21T15:21:21.001Z</time></trkpt><trkpt lat="43.91312461719723" lon="10.924203172083285"><ele>51.0</ele><time>2026-04-21T15:21:22.001Z</time></trkpt><trkpt lat="43.91307738158543" lon="10.924584402713233"><ele>51.0</ele><time>2026-04-21T15:21:23.001Z</time></trkpt><trkpt lat="43.91303048222581" lon="10.924957732207933"><ele>51.0</ele><time>2026-04-21T15:21:24.001Z</time></trkpt><trkpt lat="43.9129821916199" lon="10.925330858834016"><ele>51.0</ele><time>2026-04-21T15:21:25.001Z</time></trkpt><trkpt lat="43.91293350627371" lon="10.925716465084793"><ele>51.0</ele><time>2026-04-21T15:21:26.001Z</time></trkpt><trkpt lat="43.91288417294918" lon="10.926095063934362"><ele>51.5</ele><time>2026-04-21T15:21:27.001Z</time></trkpt><trkpt lat="43.91283261037763" lon="10.926473603416788"><ele>52.0</ele><time>2026-04-21T15:21:28.001Z</time></trkpt><trkpt lat="43.912785216316394" lon="10.9268552447502"><ele>51.5</ele><time>2026-04-21T15:21:29.001Z</time></trkpt><trkpt lat="43.91273870559988" lon="10.92723018798576"><ele>51.0</ele><time>2026-04-21T15:21:30.001Z</time></trkpt><trkpt lat="43.912690157761105" lon="10.927610011334979"><ele>51.0</ele><time>2026-04-21T15:21:31.001Z</time></trkpt><trkpt lat="43.912643809048056" lon="10.92798960859495"><ele>51.0</ele><time>2026-04-21T15:21:32.001Z</time></trkpt><trkpt lat="43.912598061836675" lon="10.928368725820816"><ele>50.0</ele><time>2026-04-21T15:21:33.001Z</time></trkpt><trkpt lat="43.912549955531645" lon="10.928750235242529"><ele>49.0</ele><time>2026-04-21T15:21:34.001Z</time></trkpt><trkpt lat="43.91250305218454" lon="10.929128616019316"><ele>49.5</ele><time>2026-04-21T15:21:35.001Z</time></trkpt><trkpt lat="43.91245521424061" lon="10.929506749114951"><ele>50.0</ele><time>2026-04-21T15:21:36.001Z</time></trkpt><trkpt lat="43.91240426811296" lon="10.929884342140635"><ele>50.0</ele><time>2026-04-21T15:21:37.001Z</time></trkpt><trkpt lat="43.91235543783212" lon="10.930263402464943"><ele>50.0</ele><time>2026-04-21T15:21:38.001Z</time></trkpt><trkpt lat="43.91230946479136" lon="10.930641560300577"><ele>49.5</ele><time>2026-04-21T15:21:39.001Z</time></trkpt><trkpt lat="43.912263464838524" lon="10.931021920406796"><ele>49.0</ele><time>2026-04-21T15:21:40.001Z</time></trkpt><trkpt lat="43.91221637415135" lon="10.931398428699305"><ele>49.5</ele><time>2026-04-21T15:21:41.001Z</time></trkpt><trkpt lat="43.91216459599547" lon="10.93177750749384"><ele>50.0</ele><time>2026-04-21T15:21:42.001Z</time></trkpt><trkpt lat="43.912115318893925" lon="10.932155478064445"><ele>50.0</ele><time>2026-04-21T15:21:43.001Z</time></trkpt><trkpt lat="43.91206613431054" lon="10.932534692004792"><ele>50.0</ele><time>2026-04-21T15:21:44.001Z</time></trkpt><trkpt lat="43.91201639134631" lon="10.932912735894545"><ele>49.5</ele><time>2026-04-21T15:21:45.001Z</time></trkpt><trkpt lat="43.91196548711083" lon="10.933293999202945"><ele>49.0</ele><time>2026-04-21T15:21:46.001Z</time></trkpt><trkpt lat="43.911916738596" lon="10.933675226585065"><ele>48.5</ele><time>2026-04-21T15:21:47.001Z</time></trkpt><trkpt lat="43.91186853001762" lon="10.934059924039875"><ele>48.0</ele><time>2026-04-21T15:21:48.001Z</time></trkpt><trkpt lat="43.911822937962604" lon="10.934439581945385"><ele>48.0</ele><time>2026-04-21T15:21:49.001Z</time></trkpt><trkpt lat="43.911777311816564" lon="10.93481609248766"><ele>48.0</ele><time>2026-04-21T15:21:50.001Z</time></trkpt><trkpt lat="43.91173203335292" lon="10.935206827644707"><ele>48.0</ele><time>2026-04-21T15:21:51.001Z</time></trkpt><trkpt lat="43.911690761116226" lon="10.93559953922554"><ele>48.0</ele><time>2026-04-21T15:21:52.001Z</time></trkpt><trkpt lat="43.91165417570275" lon="10.935983433316101"><ele>48.0</ele><time>2026-04-21T15:21:53.001Z</time></trkpt><trkpt lat="43.91162330206875" lon="10.936230717343484"><ele>48.0</ele><time>2026-04-21T15:21:54Z</time></trkpt><trkpt lat="43.9115819761051" lon="10.936536239035894"><ele>48.0</ele><time>2026-04-21T15:21:55Z</time></trkpt><trkpt lat="43.911539283977454" lon="10.936854655114576"><ele>49.0</ele><time>2026-04-21T15:21:56Z</time></trkpt><trkpt lat="43.911496321771" lon="10.937165252483984"><ele>50.0</ele><time>2026-04-21T15:21:57Z</time></trkpt><trkpt lat="43.91145424876377" lon="10.93748528322631"><ele>50.0</ele><time>2026-04-21T15:21:58Z</time></trkpt><trkpt lat="43.911418451067455" lon="10.937824047799522"><ele>50.0</ele><time>2026-04-21T15:21:59Z</time></trkpt><trkpt lat="43.91138040827093" lon="10.938164670203545"><ele>50.5</ele><time>2026-04-21T15:22:00Z</time></trkpt><trkpt lat="43.91133429219884" lon="10.938512789790568"><ele>51.0</ele><time>2026-04-21T15:22:01Z</time></trkpt><trkpt lat="43.911287260635596" lon="10.938871628513244"><ele>50.5</ele><time>2026-04-21T15:22:02Z</time></trkpt><trkpt lat="43.91123972557096" lon="10.9392252748168"><ele>50.0</ele><time>2026-04-21T15:22:03Z</time></trkpt><trkpt lat="43.9111911003255" lon="10.939590913866947"><ele>50.0</ele><time>2026-04-21T15:22:04Z</time></trkpt><trkpt lat="43.91113956850177" lon="10.939958440537929"><ele>50.0</ele><time>2026-04-21T15:22:05Z</time></trkpt><trkpt lat="43.91109379962554" lon="10.940329985256877"><ele>50.0</ele><time>2026-04-21T15:22:06Z</time></trkpt><trkpt lat="43.91104701765182" lon="10.940706900737698"><ele>50.0</ele><time>2026-04-21T15:22:07Z</time></trkpt><trkpt lat="43.91100223299901" lon="10.94107385556623"><ele>49.0</ele><time>2026-04-21T15:22:08Z</time></trkpt><trkpt lat="43.910954149320595" lon="10.941444897168989"><ele>48.0</ele><time>2026-04-21T15:22:09Z</time></trkpt><trkpt lat="43.910903467430686" lon="10.94181476632259"><ele>48.0</ele><time>2026-04-21T15:22:10Z</time></trkpt><trkpt lat="43.910848549580265" lon="10.942176120828165"><ele>48.0</ele><time>2026-04-21T15:22:11Z</time></trkpt><trkpt lat="43.91078335253914" lon="10.942538193215556"><ele>48.0</ele><time>2026-04-21T15:22:12Z</time></trkpt><trkpt lat="43.91071346469288" lon="10.942902345528807"><ele>48.0</ele><time>2026-04-21T15:22:13Z</time></trkpt><trkpt lat="43.910640155872166" lon="10.943261458904871"><ele>48.0</ele><time>2026-04-21T15:22:14Z</time></trkpt><trkpt lat="43.910557524327544" lon="10.943615753179264"><ele>48.0</ele><time>2026-04-21T15:22:15Z</time></trkpt><trkpt lat="43.91047218265345" lon="10.943966716263056"><ele>48.0</ele><time>2026-04-21T15:22:16Z</time></trkpt><trkpt lat="43.91037123007246" lon="10.94430773448831"><ele>48.0</ele><time>2026-04-21T15:22:17Z</time></trkpt><trkpt lat="43.910268299267486" lon="10.94465282246708"><ele>48.0</ele><time>2026-04-21T15:22:18Z</time></trkpt><trkpt lat="43.9101657581306" lon="10.944993663272989"><ele>48.0</ele><time>2026-04-21T15:22:19Z</time></trkpt><trkpt lat="43.91006169266119" lon="10.945337030032336"><ele>47.0</ele><time>2026-04-21T15:22:20Z</time></trkpt><trkpt lat="43.90995502428126" lon="10.945674889467295"><ele>46.0</ele><time>2026-04-21T15:22:21Z</time></trkpt><trkpt lat="43.909851693456105" lon="10.946027768662336"><ele>46.0</ele><time>2026-04-21T15:22:22Z</time></trkpt><trkpt lat="43.90974387360804" lon="10.946376548580975"><ele>46.0</ele><time>2026-04-21T15:22:23Z</time></trkpt><trkpt lat="43.90964763277745" lon="10.946713976419781"><ele>45.5</ele><time>2026-04-21T15:22:24Z</time></trkpt><trkpt lat="43.90954368625624" lon="10.947060209721505"><ele>45.0</ele><time>2026-04-21T15:22:25Z</time></trkpt><trkpt lat="43.909440626561135" lon="10.947401187046093"><ele>45.0</ele><time>2026-04-21T15:22:26Z</time></trkpt><trkpt lat="43.909336332499265" lon="10.947746255108832"><ele>45.0</ele><time>2026-04-21T15:22:27Z</time></trkpt><trkpt lat="43.909231960333095" lon="10.948090177518226"><ele>45.5</ele><time>2026-04-21T15:22:28Z</time></trkpt><trkpt lat="43.909122740717734" lon="10.948437672245174"><ele>46.0</ele><time>2026-04-21T15:22:29Z</time></trkpt><trkpt lat="43.909011800162865" lon="10.94878921591474"><ele>46.0</ele><time>2026-04-21T15:22:30Z</time></trkpt><trkpt lat="43.908907444979356" lon="10.949135954205376"><ele>46.0</ele><time>2026-04-21T15:22:31Z</time></trkpt><trkpt lat="43.90880432580003" lon="10.949473365173173"><ele>45.5</ele><time>2026-04-21T15:22:32Z</time></trkpt><trkpt lat="43.90870011955509" lon="10.949814237946455"><ele>45.0</ele><time>2026-04-21T15:22:33Z</time></trkpt><trkpt lat="43.90859590972326" lon="10.95015125879657"><ele>45.0</ele><time>2026-04-21T15:22:34Z</time></trkpt><trkpt lat="43.90849067240395" lon="10.950491298981758"><ele>45.0</ele><time>2026-04-21T15:22:35Z</time></trkpt><trkpt lat="43.90838610819781" lon="10.950833316699738"><ele>45.0</ele><time>2026-04-21T15:22:36Z</time></trkpt><trkpt lat="43.90827999968325" lon="10.95117906179347"><ele>45.0</ele><time>2026-04-21T15:22:37Z</time></trkpt><trkpt lat="43.90817441112267" lon="10.951526693285485"><ele>45.5</ele><time>2026-04-21T15:22:38Z</time></trkpt><trkpt lat="43.90807003725518" lon="10.951878425503029"><ele>46.0</ele><time>2026-04-21T15:22:39Z</time></trkpt><trkpt lat="43.907963965622855" lon="10.952227408103923"><ele>46.0</ele><time>2026-04-21T15:22:40Z</time></trkpt><trkpt lat="43.90785755430615" lon="10.952581855190022"><ele>46.0</ele><time>2026-04-21T15:22:41Z</time></trkpt><trkpt lat="43.90774987725627" lon="10.95293837072623"><ele>46.0</ele><time>2026-04-21T15:22:42Z</time></trkpt><trkpt lat="43.90763774432848" lon="10.95329861788396"><ele>46.0</ele><time>2026-04-21T15:22:43Z</time></trkpt><trkpt lat="43.90752354067268" lon="10.953661057301973"><ele>45.5</ele><time>2026-04-21T15:22:44Z</time></trkpt><trkpt lat="43.90740639556291" lon="10.95402109455132"><ele>45.0</ele><time>2026-04-21T15:22:45Z</time></trkpt><trkpt lat="43.9072891699181" lon="10.954382292324535"><ele>45.0</ele><time>2026-04-21T15:22:46Z</time></trkpt><trkpt lat="43.90717186946955" lon="10.954748074174402"><ele>45.0</ele><time>2026-04-21T15:22:47Z</time></trkpt><trkpt lat="43.907059599526214" lon="10.955116257560777"><ele>45.5</ele><time>2026-04-21T15:22:48Z</time></trkpt><trkpt lat="43.90695003285816" lon="10.955487635439667"><ele>46.0</ele><time>2026-04-21T15:22:49Z</time></trkpt><trkpt lat="43.9068362121443" lon="10.955861232874977"><ele>45.0</ele><time>2026-04-21T15:22:50Z</time></trkpt><trkpt lat="43.906728233740566" lon="10.956220025535082"><ele>44.0</ele><time>2026-04-21T15:22:51Z</time></trkpt><trkpt lat="43.90661778081642" lon="10.956584098432117"><ele>44.5</ele><time>2026-04-21T15:22:52Z</time></trkpt><trkpt lat="43.90650563558226" lon="10.956944428309003"><ele>45.0</ele><time>2026-04-21T15:22:53Z</time></trkpt><trkpt lat="43.906393651811726" lon="10.957304942867307"><ele>45.5</ele><time>2026-04-21T15:22:54Z</time></trkpt><trkpt lat="43.906284540854045" lon="10.957667567572328"><ele>46.0</ele><time>2026-04-21T15:22:55Z</time></trkpt><trkpt lat="43.90617433628416" lon="10.958031889826593"><ele>45.5</ele><time>2026-04-21T15:22:56Z</time></trkpt><trkpt lat="43.90606394441274" lon="10.958394091431462"><ele>45.0</ele><time>2026-04-21T15:22:57Z</time></trkpt><trkpt lat="43.90595267653542" lon="10.958756356236048"><ele>45.0</ele><time>2026-04-21T15:22:58Z</time></trkpt><trkpt lat="43.9058426721967" lon="10.95911746352549"><ele>45.0</ele><time>2026-04-21T15:22:59Z</time></trkpt><trkpt lat="43.9057353702912" lon="10.959477828974546"><ele>45.0</ele><time>2026-04-21T15:23:00Z</time></trkpt><trkpt lat="43.90562809836898" lon="10.959840004872051"><ele>45.0</ele><time>2026-04-21T15:23:01Z</time></trkpt><trkpt lat="43.90552238499517" lon="10.960198837634586"><ele>45.0</ele><time>2026-04-21T15:23:02Z</time></trkpt><trkpt lat="43.90541433633709" lon="10.960554743066714"><ele>45.0</ele><time>2026-04-21T15:23:03Z</time></trkpt><trkpt lat="43.90530721642664" lon="10.960905587012691"><ele>43.5</ele><time>2026-04-21T15:23:04Z</time></trkpt><trkpt lat="43.90520363741148" lon="10.961260218978609"><ele>42.0</ele><time>2026-04-21T15:23:05Z</time></trkpt><trkpt lat="43.905102098006296" lon="10.96162111902381"><ele>42.5</ele><time>2026-04-21T15:23:06Z</time></trkpt><trkpt lat="43.90500189283574" lon="10.961981677524365"><ele>43.0</ele><time>2026-04-21T15:23:07Z</time></trkpt><trkpt lat="43.90489605505893" lon="10.962343578093485"><ele>43.0</ele><time>2026-04-21T15:23:08Z</time></trkpt><trkpt lat="43.90479183563229" lon="10.962698523834824"><ele>43.0</ele><time>2026-04-21T15:23:09Z</time></trkpt><trkpt lat="43.90468533859104" lon="10.963056058041513"><ele>42.5</ele><time>2026-04-21T15:23:10Z</time></trkpt><trkpt lat="43.90457400063957" lon="10.963411225655113"><ele>42.0</ele><time>2026-04-21T15:23:11Z</time></trkpt><trkpt lat="43.90446595995189" lon="10.963768119859944"><ele>42.0</ele><time>2026-04-21T15:23:12Z</time></trkpt><trkpt lat="43.90435385869156" lon="10.964124428496287"><ele>42.0</ele><time>2026-04-21T15:23:13Z</time></trkpt><trkpt lat="43.90424377302531" lon="10.964485928501114"><ele>42.5</ele><time>2026-04-21T15:23:14Z</time></trkpt><trkpt lat="43.90413604319589" lon="10.964845953246256"><ele>43.0</ele><time>2026-04-21T15:23:15Z</time></trkpt><trkpt lat="43.90402676983724" lon="10.965212895536059"><ele>43.0</ele><time>2026-04-21T15:23:16Z</time></trkpt><trkpt lat="43.90391651430542" lon="10.965567081365153"><ele>43.0</ele><time>2026-04-21T15:23:17Z</time></trkpt><trkpt lat="43.90381488670272" lon="10.965916577770212"><ele>42.5</ele><time>2026-04-21T15:23:18Z</time></trkpt><trkpt lat="43.90370328911812" lon="10.966260497193636"><ele>42.0</ele><time>2026-04-21T15:23:19Z</time></trkpt><trkpt lat="43.903594495996906" lon="10.96660730937052"><ele>42.0</ele><time>2026-04-21T15:23:20Z</time></trkpt><trkpt lat="43.90348505072526" lon="10.966963098959054"><ele>42.0</ele><time>2026-04-21T15:23:21Z</time></trkpt><trkpt lat="43.903380639526006" lon="10.96732279483179"><ele>42.0</ele><time>2026-04-21T15:23:22Z</time></trkpt><trkpt lat="43.90327576928963" lon="10.967682030166637"><ele>42.0</ele><time>2026-04-21T15:23:23Z</time></trkpt><trkpt lat="43.9031695394808" lon="10.96804428999204"><ele>42.0</ele><time>2026-04-21T15:23:24Z</time></trkpt><trkpt lat="43.90306414200841" lon="10.968402811481054"><ele>42.0</ele><time>2026-04-21T15:23:25Z</time></trkpt><trkpt lat="43.90295594701192" lon="10.968767221835481"><ele>42.0</ele><time>2026-04-21T15:23:26Z</time></trkpt><trkpt lat="43.902847128884716" lon="10.969130539813763"><ele>42.0</ele><time>2026-04-21T15:23:27Z</time></trkpt><trkpt lat="43.90273740828701" lon="10.969493403259287"><ele>42.5</ele><time>2026-04-21T15:23:28Z</time></trkpt><trkpt lat="43.90263004166293" lon="10.969862474522346"><ele>43.0</ele><time>2026-04-21T15:23:29Z</time></trkpt><trkpt lat="43.902517867094616" lon="10.970221255415751"><ele>43.0</ele><time>2026-04-21T15:23:30Z</time></trkpt><trkpt lat="43.90240779836621" lon="10.97058756203743"><ele>43.0</ele><time>2026-04-21T15:23:31Z</time></trkpt><trkpt lat="43.90229691089207" lon="10.970953836194726"><ele>42.5</ele><time>2026-04-21T15:23:32Z</time></trkpt><trkpt lat="43.90218617537781" lon="10.971314760034414"><ele>42.0</ele><time>2026-04-21T15:23:33Z</time></trkpt><trkpt lat="43.90207545108407" lon="10.97167571930549"><ele>41.5</ele><time>2026-04-21T15:23:34Z</time></trkpt><trkpt lat="43.901964226574464" lon="10.972041486287715"><ele>41.0</ele><time>2026-04-21T15:23:35Z</time></trkpt><trkpt lat="43.901853498632086" lon="10.972404376133266"><ele>41.0</ele><time>2026-04-21T15:23:36Z</time></trkpt><trkpt lat="43.90174042465439" lon="10.97276669776479"><ele>41.0</ele><time>2026-04-21T15:23:37Z</time></trkpt><trkpt lat="43.90162700945846" lon="10.973131187495829"><ele>41.0</ele><time>2026-04-21T15:23:38Z</time></trkpt><trkpt lat="43.90151539145923" lon="10.973499249733237"><ele>41.0</ele><time>2026-04-21T15:23:39Z</time></trkpt><trkpt lat="43.901406522202066" lon="10.973867297859478"><ele>41.0</ele><time>2026-04-21T15:23:40Z</time></trkpt><trkpt lat="43.90129505461272" lon="10.97423971522819"><ele>41.0</ele><time>2026-04-21T15:23:41Z</time></trkpt><trkpt lat="43.901184647446534" lon="10.97460702124955"><ele>41.0</ele><time>2026-04-21T15:23:42Z</time></trkpt><trkpt lat="43.90107362249457" lon="10.974976372623702"><ele>41.0</ele><time>2026-04-21T15:23:43Z</time></trkpt><trkpt lat="43.900963678318256" lon="10.975341934845893"><ele>41.0</ele><time>2026-04-21T15:23:44Z</time></trkpt><trkpt lat="43.90085113001392" lon="10.975704372902493"><ele>41.0</ele><time>2026-04-21T15:23:45Z</time></trkpt><trkpt lat="43.90074165254344" lon="10.976059591508783"><ele>41.0</ele><time>2026-04-21T15:23:46Z</time></trkpt><trkpt lat="43.900631019537954" lon="10.976421898405274"><ele>41.0</ele><time>2026-04-21T15:23:47Z</time></trkpt><trkpt lat="43.90052217998834" lon="10.97678172063437"><ele>41.0</ele><time>2026-04-21T15:23:48Z</time></trkpt><trkpt lat="43.90041254027649" lon="10.977138864566202"><ele>41.0</ele><time>2026-04-21T15:23:49Z</time></trkpt><trkpt lat="43.900301557842745" lon="10.977500179815033"><ele>41.0</ele><time>2026-04-21T15:23:50Z</time></trkpt><trkpt lat="43.900191716137485" lon="10.977855929022638"><ele>41.0</ele><time>2026-04-21T15:23:51Z</time></trkpt><trkpt lat="43.90007991955677" lon="10.978215569693083"><ele>41.0</ele><time>2026-04-21T15:23:52.001Z</time></trkpt><trkpt lat="43.89997032476716" lon="10.97857269240568"><ele>41.0</ele><time>2026-04-21T15:23:53.001Z</time></trkpt><trkpt lat="43.89986090450439" lon="10.978928581706608"><ele>41.5</ele><time>2026-04-21T15:23:54.001Z</time></trkpt><trkpt lat="43.89974615701701" lon="10.979287523842626"><ele>42.0</ele><time>2026-04-21T15:23:55.001Z</time></trkpt><trkpt lat="43.899634552068726" lon="10.97964324493501"><ele>42.0</ele><time>2026-04-21T15:23:56.001Z</time></trkpt><trkpt lat="43.89951919058532" lon="10.979990812492057"><ele>42.0</ele><time>2026-04-21T15:23:57.001Z</time></trkpt><trkpt lat="43.89941025184371" lon="10.980342675155464"><ele>41.5</ele><time>2026-04-21T15:23:58.001Z</time></trkpt><trkpt lat="43.89930621571081" lon="10.980688917955941"><ele>41.0</ele><time>2026-04-21T15:23:59.001Z</time></trkpt><trkpt lat="43.89919899638358" lon="10.981045752658382"><ele>41.0</ele><time>2026-04-21T15:24:00Z</time></trkpt><trkpt lat="43.89909290927088" lon="10.981406216663183"><ele>41.0</ele><time>2026-04-21T15:24:01Z</time></trkpt><trkpt lat="43.898983541398465" lon="10.98176062138535"><ele>41.0</ele><time>2026-04-21T15:24:02Z</time></trkpt><trkpt lat="43.898878750401316" lon="10.982103913858765"><ele>41.0</ele><time>2026-04-21T15:24:03Z</time></trkpt><trkpt lat="43.89877619953957" lon="10.982441564052294"><ele>42.0</ele><time>2026-04-21T15:24:04Z</time></trkpt><trkpt lat="43.89867096246265" lon="10.98278693346446"><ele>43.0</ele><time>2026-04-21T15:24:05Z</time></trkpt><trkpt lat="43.898570098768424" lon="10.983117155087703"><ele>42.5</ele><time>2026-04-21T15:24:06Z</time></trkpt><trkpt lat="43.8984691680896" lon="10.983442157994862"><ele>42.0</ele><time>2026-04-21T15:24:07Z</time></trkpt><trkpt lat="43.89836943616323" lon="10.983768643960886"><ele>42.0</ele><time>2026-04-21T15:24:08Z</time></trkpt><trkpt lat="43.898273240460036" lon="10.98409878989354"><ele>42.0</ele><time>2026-04-21T15:24:09Z</time></trkpt><trkpt lat="43.898178343701595" lon="10.984420577842975"><ele>42.0</ele><time>2026-04-21T15:24:10Z</time></trkpt><trkpt lat="43.89808095137484" lon="10.984738047161983"><ele>42.0</ele><time>2026-04-21T15:24:11Z</time></trkpt><trkpt lat="43.897985147865874" lon="10.985046874359249"><ele>41.0</ele><time>2026-04-21T15:24:12Z</time></trkpt><trkpt lat="43.8978887569477" lon="10.985364669762028"><ele>40.0</ele><time>2026-04-21T15:24:13Z</time></trkpt><trkpt lat="43.89779357444685" lon="10.985684203715863"><ele>40.5</ele><time>2026-04-21T15:24:14Z</time></trkpt><trkpt lat="43.897699395933316" lon="10.986001389624182"><ele>41.0</ele><time>2026-04-21T15:24:15Z</time></trkpt><trkpt lat="43.897604916496505" lon="10.986313806853827"><ele>40.5</ele><time>2026-04-21T15:24:16Z</time></trkpt><trkpt lat="43.897509793843554" lon="10.986616239218327"><ele>40.0</ele><time>2026-04-21T15:24:17Z</time></trkpt><trkpt lat="43.89741664451307" lon="10.98691887912575"><ele>40.0</ele><time>2026-04-21T15:24:18Z</time></trkpt><trkpt lat="43.89732082855132" lon="10.98722494296517"><ele>40.0</ele><time>2026-04-21T15:24:19Z</time></trkpt><trkpt lat="43.89722513016355" lon="10.987531422503528"><ele>40.0</ele><time>2026-04-21T15:24:20Z</time></trkpt><trkpt lat="43.89712945640027" lon="10.987843607381176"><ele>40.0</ele><time>2026-04-21T15:24:21Z</time></trkpt><trkpt lat="43.89703420239282" lon="10.988161250451657"><ele>40.5</ele><time>2026-04-21T15:24:22Z</time></trkpt><trkpt lat="43.89693888635662" lon="10.988483400763602"><ele>41.0</ele><time>2026-04-21T15:24:23Z</time></trkpt><trkpt lat="43.89684187897148" lon="10.988801368849593"><ele>41.0</ele><time>2026-04-21T15:24:24Z</time></trkpt><trkpt lat="43.89674924038404" lon="10.989105088162036"><ele>41.0</ele><time>2026-04-21T15:24:25Z</time></trkpt><trkpt lat="43.89665897831344" lon="10.989395669301484"><ele>41.0</ele><time>2026-04-21T15:24:26Z</time></trkpt><trkpt lat="43.89657001673803" lon="10.98969006103126"><ele>41.0</ele><time>2026-04-21T15:24:27Z</time></trkpt><trkpt lat="43.89648313012726" lon="10.989982728634555"><ele>40.0</ele><time>2026-04-21T15:24:28Z</time></trkpt><trkpt lat="43.89639062242995" lon="10.99028723502017"><ele>39.0</ele><time>2026-04-21T15:24:29Z</time></trkpt><trkpt lat="43.89629636143556" lon="10.990604329805928"><ele>40.0</ele><time>2026-04-21T15:24:30Z</time></trkpt><trkpt lat="43.89620092214543" lon="10.990927899976853"><ele>41.0</ele><time>2026-04-21T15:24:31Z</time></trkpt><trkpt lat="43.89610370473265" lon="10.991253603013385"><ele>41.0</ele><time>2026-04-21T15:24:32Z</time></trkpt><trkpt lat="43.896001788761886" lon="10.991587391537973"><ele>41.0</ele><time>2026-04-21T15:24:33Z</time></trkpt><trkpt lat="43.89589954418882" lon="10.991923078228318"><ele>41.0</ele><time>2026-04-21T15:24:34Z</time></trkpt><trkpt lat="43.89579988959048" lon="10.99225365084343"><ele>41.0</ele><time>2026-04-21T15:24:35Z</time></trkpt><trkpt lat="43.8956993128694" lon="10.992587334000012"><ele>41.5</ele><time>2026-04-21T15:24:36Z</time></trkpt><trkpt lat="43.8956001232058" lon="10.992913464221893"><ele>42.0</ele><time>2026-04-21T15:24:37Z</time></trkpt><trkpt lat="43.895503941140916" lon="10.99323747315151"><ele>42.0</ele><time>2026-04-21T15:24:38Z</time></trkpt><trkpt lat="43.89541020699758" lon="10.993576411696305"><ele>42.0</ele><time>2026-04-21T15:24:39Z</time></trkpt><trkpt lat="43.89531129855483" lon="10.993925596704873"><ele>41.5</ele><time>2026-04-21T15:24:40Z</time></trkpt><trkpt lat="43.89521084768781" lon="10.994266817603867"><ele>41.0</ele><time>2026-04-21T15:24:41Z</time></trkpt><trkpt lat="43.89510812178838" lon="10.994628748709198"><ele>41.0</ele><time>2026-04-21T15:24:42Z</time></trkpt><trkpt lat="43.89500044435643" lon="10.994990926541806"><ele>41.0</ele><time>2026-04-21T15:24:43Z</time></trkpt><trkpt lat="43.89488802980751" lon="10.995358219328857"><ele>41.0</ele><time>2026-04-21T15:24:44Z</time></trkpt><trkpt lat="43.89477623418918" lon="10.995724530362162"><ele>41.0</ele><time>2026-04-21T15:24:45Z</time></trkpt><trkpt lat="43.894658387948645" lon="10.996100306089035"><ele>40.5</ele><time>2026-04-21T15:24:46Z</time></trkpt><trkpt lat="43.89454396712116" lon="10.996480677250116"><ele>40.0</ele><time>2026-04-21T15:24:47Z</time></trkpt><trkpt lat="43.89443106849847" lon="10.996857911471288"><ele>40.0</ele><time>2026-04-21T15:24:48Z</time></trkpt><trkpt lat="43.89431684244743" lon="10.997233747762733"><ele>40.0</ele><time>2026-04-21T15:24:49Z</time></trkpt><trkpt lat="43.89420340689984" lon="10.997616381565322"><ele>40.0</ele><time>2026-04-21T15:24:50Z</time></trkpt><trkpt lat="43.89408854535373" lon="10.997992368112433"><ele>40.0</ele><time>2026-04-21T15:24:51Z</time></trkpt><trkpt lat="43.89397205272541" lon="10.998370534853864"><ele>40.0</ele><time>2026-04-21T15:24:52Z</time></trkpt><trkpt lat="43.893849697372865" lon="10.99875060175299"><ele>40.0</ele><time>2026-04-21T15:24:53Z</time></trkpt><trkpt lat="43.89373009409798" lon="10.999131779794372"><ele>39.5</ele><time>2026-04-21T15:24:54Z</time></trkpt><trkpt lat="43.89360463125629" lon="10.999508364774787"><ele>39.0</ele><time>2026-04-21T15:24:55Z</time></trkpt><trkpt lat="43.89348382618625" lon="10.999872092353035"><ele>39.0</ele><time>2026-04-21T15:24:56Z</time></trkpt><trkpt lat="43.89337076903807" lon="11.000231556716768"><ele>39.0</ele><time>2026-04-21T15:24:57Z</time></trkpt><trkpt lat="43.89326540056397" lon="11.000586903411914"><ele>39.5</ele><time>2026-04-21T15:24:58Z</time></trkpt><trkpt lat="43.89316331317852" lon="11.00093262649439"><ele>40.0</ele><time>2026-04-21T15:24:59Z</time></trkpt><trkpt lat="43.893059294255735" lon="11.001275442725976"><ele>40.0</ele><time>2026-04-21T15:25:00Z</time></trkpt><trkpt lat="43.89295585720897" lon="11.001621564975638"><ele>40.0</ele><time>2026-04-21T15:25:01Z</time></trkpt><trkpt lat="43.89285297396558" lon="11.001967068501306"><ele>39.0</ele><time>2026-04-21T15:25:02Z</time></trkpt><trkpt lat="43.892747368220995" lon="11.002308035837562"><ele>38.0</ele><time>2026-04-21T15:25:03Z</time></trkpt><trkpt lat="43.89264256432881" lon="11.002637101735983"><ele>38.0</ele><time>2026-04-21T15:25:04Z</time></trkpt><trkpt lat="43.892540838692845" lon="11.002969847774427"><ele>38.0</ele><time>2026-04-21T15:25:05Z</time></trkpt><trkpt lat="43.892439014611476" lon="11.003305483489415"><ele>38.5</ele><time>2026-04-21T15:25:06Z</time></trkpt><trkpt lat="43.89234054200992" lon="11.00363922395884"><ele>39.0</ele><time>2026-04-21T15:25:07Z</time></trkpt><trkpt lat="43.89224102963695" lon="11.003970800489528"><ele>39.5</ele><time>2026-04-21T15:25:08Z</time></trkpt><trkpt lat="43.89214006164057" lon="11.004305260748202"><ele>40.0</ele><time>2026-04-21T15:25:09Z</time></trkpt><trkpt lat="43.89203978795792" lon="11.004645477057"><ele>39.5</ele><time>2026-04-21T15:25:10Z</time></trkpt><trkpt lat="43.89194095421716" lon="11.004998246933907"><ele>39.0</ele><time>2026-04-21T15:25:11Z</time></trkpt><trkpt lat="43.89184242689741" lon="11.005354345070453"><ele>39.0</ele><time>2026-04-21T15:25:12Z</time></trkpt><trkpt lat="43.8917391999587" lon="11.005710088529392"><ele>39.0</ele><time>2026-04-21T15:25:13Z</time></trkpt><trkpt lat="43.89163310574643" lon="11.006071121100483"><ele>39.0</ele><time>2026-04-21T15:25:14Z</time></trkpt><trkpt lat="43.8915273774835" lon="11.006424047767055"><ele>39.0</ele><time>2026-04-21T15:25:15Z</time></trkpt><trkpt lat="43.891421040774155" lon="11.00678313479078"><ele>39.0</ele><time>2026-04-21T15:25:16Z</time></trkpt><trkpt lat="43.89131362106339" lon="11.007138406964216"><ele>39.0</ele><time>2026-04-21T15:25:17Z</time></trkpt><trkpt lat="43.89120398319489" lon="11.007496049188992"><ele>41.5</ele><time>2026-04-21T15:25:18Z</time></trkpt><trkpt lat="43.891091442650975" lon="11.00784803079299"><ele>44.0</ele><time>2026-04-21T15:25:19Z</time></trkpt><trkpt lat="43.890978548068254" lon="11.008207015846033"><ele>43.0</ele><time>2026-04-21T15:25:20Z</time></trkpt><trkpt lat="43.890874205979635" lon="11.008566406194774"><ele>42.0</ele><time>2026-04-21T15:25:21Z</time></trkpt><trkpt lat="43.89077468853146" lon="11.008933331860359"><ele>40.5</ele><time>2026-04-21T15:25:22Z</time></trkpt><trkpt lat="43.890685196200664" lon="11.00930024375844"><ele>39.0</ele><time>2026-04-21T15:25:23Z</time></trkpt><trkpt lat="43.89060179030502" lon="11.00967727481584"><ele>39.5</ele><time>2026-04-21T15:25:24Z</time></trkpt><trkpt lat="43.89052433096478" lon="11.010052512780092"><ele>40.0</ele><time>2026-04-21T15:25:25Z</time></trkpt><trkpt lat="43.89044736017031" lon="11.0104235171559"><ele>40.0</ele><time>2026-04-21T15:25:26Z</time></trkpt><trkpt lat="43.89036655653833" lon="11.01079559652059"><ele>40.0</ele><time>2026-04-21T15:25:27Z</time></trkpt><trkpt lat="43.89028470263025" lon="11.011163971408186"><ele>40.0</ele><time>2026-04-21T15:25:28Z</time></trkpt><trkpt lat="43.89019796208502" lon="11.011533006498336"><ele>40.0</ele><time>2026-04-21T15:25:29Z</time></trkpt><trkpt lat="43.89010878318401" lon="11.011897351848926"><ele>40.0</ele><time>2026-04-21T15:25:30Z</time></trkpt><trkpt lat="43.89001878101942" lon="11.012262643178394"><ele>40.0</ele><time>2026-04-21T15:25:31Z</time></trkpt><trkpt lat="43.889930656613075" lon="11.012627392657096"><ele>40.5</ele><time>2026-04-21T15:25:32Z</time></trkpt><trkpt lat="43.88984499343943" lon="11.012994499558962"><ele>41.0</ele><time>2026-04-21T15:25:33Z</time></trkpt><trkpt lat="43.88976106123344" lon="11.013366885938112"><ele>41.0</ele><time>2026-04-21T15:25:34Z</time></trkpt><trkpt lat="43.889682840365694" lon="11.013739392502371"><ele>41.0</ele><time>2026-04-21T15:25:35Z</time></trkpt><trkpt lat="43.88960360266477" lon="11.014114385375306"><ele>39.5</ele><time>2026-04-21T15:25:36Z</time></trkpt><trkpt lat="43.889522167136356" lon="11.014491851271119"><ele>38.0</ele><time>2026-04-21T15:25:37Z</time></trkpt><trkpt lat="43.88944043409311" lon="11.014869561117427"><ele>38.5</ele><time>2026-04-21T15:25:38Z</time></trkpt><trkpt lat="43.88935669894959" lon="11.015243599315182"><ele>39.0</ele><time>2026-04-21T15:25:39Z</time></trkpt><trkpt lat="43.8892748928627" lon="11.015620928960063"><ele>39.0</ele><time>2026-04-21T15:25:40Z</time></trkpt><trkpt lat="43.88919610171504" lon="11.01599968231358"><ele>39.0</ele><time>2026-04-21T15:25:41Z</time></trkpt><trkpt lat="43.88911792310057" lon="11.016375255406672"><ele>39.0</ele><time>2026-04-21T15:25:42Z</time></trkpt><trkpt lat="43.889037824241996" lon="11.016753695385388"><ele>39.0</ele><time>2026-04-21T15:25:43Z</time></trkpt><trkpt lat="43.88895528754277" lon="11.01713192326539"><ele>39.5</ele><time>2026-04-21T15:25:44Z</time></trkpt><trkpt lat="43.88886918938559" lon="11.017509158015594"><ele>40.0</ele><time>2026-04-21T15:25:45Z</time></trkpt><trkpt lat="43.88878720372669" lon="11.017886870434562"><ele>40.0</ele><time>2026-04-21T15:25:46Z</time></trkpt><trkpt lat="43.88870793429468" lon="11.018262391574298"><ele>40.0</ele><time>2026-04-21T15:25:47Z</time></trkpt><trkpt lat="43.888631213649944" lon="11.01863282018101"><ele>40.5</ele><time>2026-04-21T15:25:48Z</time></trkpt><trkpt lat="43.888553758153826" lon="11.01899801518363"><ele>41.0</ele><time>2026-04-21T15:25:49Z</time></trkpt><trkpt lat="43.88847188294016" lon="11.019359856970974"><ele>41.0</ele><time>2026-04-21T15:25:50Z</time></trkpt><trkpt lat="43.88839104652807" lon="11.019722817685146"><ele>41.0</ele><time>2026-04-21T15:25:51Z</time></trkpt><trkpt lat="43.88830939771485" lon="11.020081730329592"><ele>41.5</ele><time>2026-04-21T15:25:52Z</time></trkpt><trkpt lat="43.88822503822025" lon="11.020444815068533"><ele>42.0</ele><time>2026-04-21T15:25:53Z</time></trkpt><trkpt lat="43.888136359059175" lon="11.020800442376496"><ele>42.5</ele><time>2026-04-21T15:25:54Z</time></trkpt><trkpt lat="43.88804303851723" lon="11.02114271284802"><ele>43.0</ele><time>2026-04-21T15:25:55Z</time></trkpt><trkpt lat="43.88793857453603" lon="11.021481980671501"><ele>43.0</ele><time>2026-04-21T15:25:56Z</time></trkpt><trkpt lat="43.88782701357241" lon="11.021821198050537"><ele>43.0</ele><time>2026-04-21T15:25:57Z</time></trkpt><trkpt lat="43.8877123668328" lon="11.022161251435785"><ele>42.0</ele><time>2026-04-21T15:25:58Z</time></trkpt><trkpt lat="43.88758827943776" lon="11.022502682673386"><ele>41.0</ele><time>2026-04-21T15:25:59Z</time></trkpt><trkpt lat="43.88745526253096" lon="11.022839903961746"><ele>41.0</ele><time>2026-04-21T15:26:00Z</time></trkpt><trkpt lat="43.88731484637072" lon="11.023177503650162"><ele>41.0</ele><time>2026-04-21T15:26:01Z</time></trkpt><trkpt lat="43.887166209705306" lon="11.023510320130518"><ele>40.5</ele><time>2026-04-21T15:26:02Z</time></trkpt><trkpt lat="43.887015426897705" lon="11.023828341206745"><ele>40.0</ele><time>2026-04-21T15:26:03Z</time></trkpt><trkpt lat="43.88686344678369" lon="11.024140862792672"><ele>40.0</ele><time>2026-04-21T15:26:04Z</time></trkpt><trkpt lat="43.88670598819361" lon="11.024452689818409"><ele>40.0</ele><time>2026-04-21T15:26:05Z</time></trkpt><trkpt lat="43.88653836120519" lon="11.02476442343709"><ele>40.5</ele><time>2026-04-21T15:26:06Z</time></trkpt><trkpt lat="43.88636374888707" lon="11.025069491088859"><ele>41.0</ele><time>2026-04-21T15:26:07Z</time></trkpt><trkpt lat="43.886180084829135" lon="11.025364807777164"><ele>41.0</ele><time>2026-04-21T15:26:08Z</time></trkpt><trkpt lat="43.885988102399764" lon="11.025654659942777"><ele>41.0</ele><time>2026-04-21T15:26:09Z</time></trkpt><trkpt lat="43.88578907058916" lon="11.02594618014548"><ele>40.0</ele><time>2026-04-21T15:26:10Z</time></trkpt><trkpt lat="43.88558736072521" lon="11.026231486232938"><ele>39.0</ele><time>2026-04-21T15:26:11Z</time></trkpt><trkpt lat="43.88538087929442" lon="11.026510644171763"><ele>39.5</ele><time>2026-04-21T15:26:12Z</time></trkpt><trkpt lat="43.88516453095069" lon="11.02678123735542"><ele>40.0</ele><time>2026-04-21T15:26:13Z</time></trkpt><trkpt lat="43.884938808230736" lon="11.027040579671931"><ele>40.0</ele><time>2026-04-21T15:26:14Z</time></trkpt><trkpt lat="43.88470722081346" lon="11.027291101739888"><ele>40.0</ele><time>2026-04-21T15:26:15Z</time></trkpt><trkpt lat="43.8844711490833" lon="11.027536706741992"><ele>39.0</ele><time>2026-04-21T15:26:16Z</time></trkpt><trkpt lat="43.88423038027972" lon="11.027776873121333"><ele>38.0</ele><time>2026-04-21T15:26:17Z</time></trkpt><trkpt lat="43.88398568001393" lon="11.02801470849925"><ele>38.0</ele><time>2026-04-21T15:26:18Z</time></trkpt><trkpt lat="43.8837400082451" lon="11.028243732121467"><ele>38.0</ele><time>2026-04-21T15:26:19Z</time></trkpt><trkpt lat="43.88348890188301" lon="11.028466746422358"><ele>38.5</ele><time>2026-04-21T15:26:20Z</time></trkpt><trkpt lat="43.88323767627759" lon="11.028680174687214"><ele>39.0</ele><time>2026-04-21T15:26:21Z</time></trkpt><trkpt lat="43.88298371015795" lon="11.028897095608887"><ele>39.0</ele><time>2026-04-21T15:26:22Z</time></trkpt><trkpt lat="43.88273416399458" lon="11.029120315820757"><ele>39.0</ele><time>2026-04-21T15:26:23Z</time></trkpt><trkpt lat="43.8824851928284" lon="11.029339039806475"><ele>39.0</ele><time>2026-04-21T15:26:24Z</time></trkpt><trkpt lat="43.88224778801834" lon="11.029547601954688"><ele>39.0</ele><time>2026-04-21T15:26:25Z</time></trkpt><trkpt lat="43.88201392853314" lon="11.02975335769493"><ele>39.0</ele><time>2026-04-21T15:26:26Z</time></trkpt><trkpt lat="43.88177792342954" lon="11.029963460325357"><ele>39.0</ele><time>2026-04-21T15:26:27Z</time></trkpt><trkpt lat="43.88154098668058" lon="11.030172381129766"><ele>38.5</ele><time>2026-04-21T15:26:28Z</time></trkpt><trkpt lat="43.88130645051449" lon="11.03038020527209"><ele>38.0</ele><time>2026-04-21T15:26:29Z</time></trkpt><trkpt lat="43.88106973657186" lon="11.030585548190777"><ele>38.0</ele><time>2026-04-21T15:26:30Z</time></trkpt><trkpt lat="43.880836725575875" lon="11.030786942128321"><ele>38.0</ele><time>2026-04-21T15:26:31Z</time></trkpt><trkpt lat="43.88061406939503" lon="11.03098178842521"><ele>38.0</ele><time>2026-04-21T15:26:32Z</time></trkpt><trkpt lat="43.8803951925715" lon="11.031172322851935"><ele>38.0</ele><time>2026-04-21T15:26:33Z</time></trkpt><trkpt lat="43.88017944166136" lon="11.031366682493774"><ele>38.5</ele><time>2026-04-21T15:26:34Z</time></trkpt><trkpt lat="43.8799619419044" lon="11.031560142935337"><ele>39.0</ele><time>2026-04-21T15:26:35Z</time></trkpt><trkpt lat="43.87974067816359" lon="11.031748377810416"><ele>39.0</ele><time>2026-04-21T15:26:36Z</time></trkpt><trkpt lat="43.879524935322166" lon="11.031937783219059"><ele>39.0</ele><time>2026-04-21T15:26:37Z</time></trkpt><trkpt lat="43.879309706074324" lon="11.032131261713419"><ele>38.5</ele><time>2026-04-21T15:26:38Z</time></trkpt><trkpt lat="43.8790937460651" lon="11.032321262660199"><ele>38.0</ele><time>2026-04-21T15:26:39Z</time></trkpt><trkpt lat="43.87887514082954" lon="11.032514025622492"><ele>38.0</ele><time>2026-04-21T15:26:40Z</time></trkpt><trkpt lat="43.87865665770952" lon="11.032708694582006"><ele>38.0</ele><time>2026-04-21T15:26:41Z</time></trkpt><trkpt lat="43.87843201713147" lon="11.032909875914756"><ele>38.5</ele><time>2026-04-21T15:26:42Z</time></trkpt><trkpt lat="43.87821895866098" lon="11.033113365867683"><ele>39.0</ele><time>2026-04-21T15:26:43Z</time></trkpt><trkpt lat="43.87800123054405" lon="11.033314102855792"><ele>39.0</ele><time>2026-04-21T15:26:44Z</time></trkpt><trkpt lat="43.877775798602556" lon="11.033517495523371"><ele>39.0</ele><time>2026-04-21T15:26:45Z</time></trkpt><trkpt lat="43.877549602843004" lon="11.03371588125997"><ele>39.5</ele><time>2026-04-21T15:26:46Z</time></trkpt><trkpt lat="43.877316954332734" lon="11.033916118161663"><ele>40.0</ele><time>2026-04-21T15:26:47Z</time></trkpt><trkpt lat="43.87708478226246" lon="11.034117668502288"><ele>39.5</ele><time>2026-04-21T15:26:48Z</time></trkpt><trkpt lat="43.87685054816355" lon="11.034323170273407"><ele>39.0</ele><time>2026-04-21T15:26:49Z</time></trkpt><trkpt lat="43.87661572766811" lon="11.034530562798738"><ele>39.0</ele><time>2026-04-21T15:26:50Z</time></trkpt><trkpt lat="43.876378118779485" lon="11.034737874445545"><ele>39.0</ele><time>2026-04-21T15:26:51Z</time></trkpt><trkpt lat="43.87613681006363" lon="11.034942907994013"><ele>39.5</ele><time>2026-04-21T15:26:52Z</time></trkpt><trkpt lat="43.87589141449209" lon="11.035155057924968"><ele>40.0</ele><time>2026-04-21T15:26:53Z</time></trkpt><trkpt lat="43.87564950670272" lon="11.03536979141758"><ele>40.0</ele><time>2026-04-21T15:26:54Z</time></trkpt><trkpt lat="43.875413997387234" lon="11.035591569261385"><ele>40.0</ele><time>2026-04-21T15:26:55Z</time></trkpt><trkpt lat="43.87518803639816" lon="11.0358198937352"><ele>38.0</ele><time>2026-04-21T15:26:56Z</time></trkpt><trkpt lat="43.87496306443937" lon="11.036057357275158"><ele>36.0</ele><time>2026-04-21T15:26:57Z</time></trkpt><trkpt lat="43.87474598816619" lon="11.036297104953027"><ele>36.0</ele><time>2026-04-21T15:26:58Z</time></trkpt><trkpt lat="43.874528273380115" lon="11.036544536335597"><ele>36.0</ele><time>2026-04-21T15:26:59Z</time></trkpt><trkpt lat="43.87431248753143" lon="11.03679208257596"><ele>37.0</ele><time>2026-04-21T15:27:00Z</time></trkpt><trkpt lat="43.87410102483916" lon="11.037043994556507"><ele>38.0</ele><time>2026-04-21T15:27:01Z</time></trkpt><trkpt lat="43.873896813719234" lon="11.037288324034337"><ele>38.0</ele><time>2026-04-21T15:27:02Z</time></trkpt><trkpt lat="43.87370149369633" lon="11.037537702523787"><ele>38.0</ele><time>2026-04-21T15:27:03Z</time></trkpt><trkpt lat="43.873510993449905" lon="11.037786843639061"><ele>39.0</ele><time>2026-04-21T15:27:04Z</time></trkpt><trkpt lat="43.87332126846718" lon="11.038043576627667"><ele>40.0</ele><time>2026-04-21T15:27:05Z</time></trkpt><trkpt lat="43.87313426436058" lon="11.038299966397876"><ele>40.5</ele><time>2026-04-21T15:27:06Z</time></trkpt><trkpt lat="43.87294931058064" lon="11.038556928105454"><ele>41.0</ele><time>2026-04-21T15:27:07Z</time></trkpt><trkpt lat="43.87276697619758" lon="11.038821729739462"><ele>40.5</ele><time>2026-04-21T15:27:08Z</time></trkpt><trkpt lat="43.87258573853556" lon="11.03908515495677"><ele>40.0</ele><time>2026-04-21T15:27:09Z</time></trkpt><trkpt lat="43.87241034727371" lon="11.039348871444423"><ele>39.5</ele><time>2026-04-21T15:27:10Z</time></trkpt><trkpt lat="43.87224081859801" lon="11.039621808855967"><ele>39.0</ele><time>2026-04-21T15:27:11Z</time></trkpt><trkpt lat="43.87207896022907" lon="11.0398959101958"><ele>39.0</ele><time>2026-04-21T15:27:12Z</time></trkpt><trkpt lat="43.87192176949945" lon="11.040172278891298"><ele>39.0</ele><time>2026-04-21T15:27:13Z</time></trkpt><trkpt lat="43.87176588897887" lon="11.040451079623839"><ele>40.0</ele><time>2026-04-21T15:27:14Z</time></trkpt><trkpt lat="43.87160636164272" lon="11.040732221663076"><ele>41.0</ele><time>2026-04-21T15:27:15Z</time></trkpt><trkpt lat="43.87145112595672" lon="11.041016534363083"><ele>42.5</ele><time>2026-04-21T15:27:16Z</time></trkpt><trkpt lat="43.87129747262026" lon="11.041303981535187"><ele>44.0</ele><time>2026-04-21T15:27:17Z</time></trkpt><trkpt lat="43.871146316869954" lon="11.041597612719425"><ele>44.0</ele><time>2026-04-21T15:27:18Z</time></trkpt><trkpt lat="43.87099807895708" lon="11.041897375963728"><ele>44.0</ele><time>2026-04-21T15:27:19Z</time></trkpt><trkpt lat="43.87084663795466" lon="11.042194141350016"><ele>42.5</ele><time>2026-04-21T15:27:20Z</time></trkpt><trkpt lat="43.870704204073455" lon="11.042504040072334"><ele>41.0</ele><time>2026-04-21T15:27:21Z</time></trkpt><trkpt lat="43.87056760331106" lon="11.04282184939991"><ele>41.0</ele><time>2026-04-21T15:27:22Z</time></trkpt><trkpt lat="43.87043586574886" lon="11.043141382126969"><ele>41.0</ele><time>2026-04-21T15:27:23Z</time></trkpt><trkpt lat="43.870298624310294" lon="11.043466753630316"><ele>40.5</ele><time>2026-04-21T15:27:24Z</time></trkpt><trkpt lat="43.87015864858848" lon="11.043798689202209"><ele>40.0</ele><time>2026-04-21T15:27:25Z</time></trkpt><trkpt lat="43.87001718267134" lon="11.044121115780866"><ele>40.5</ele><time>2026-04-21T15:27:26Z</time></trkpt><trkpt lat="43.86987188567349" lon="11.044447261690033"><ele>41.0</ele><time>2026-04-21T15:27:27Z</time></trkpt><trkpt lat="43.86972743663227" lon="11.044769430163093"><ele>41.5</ele><time>2026-04-21T15:27:28Z</time></trkpt><trkpt lat="43.86958167100587" lon="11.04509508525921"><ele>42.0</ele><time>2026-04-21T15:27:29Z</time></trkpt><trkpt lat="43.86944126620836" lon="11.04542243106599"><ele>42.0</ele><time>2026-04-21T15:27:30Z</time></trkpt><trkpt lat="43.869301951634874" lon="11.045754962817778"><ele>42.0</ele><time>2026-04-21T15:27:31Z</time></trkpt><trkpt lat="43.86916311122026" lon="11.046081741995563"><ele>42.0</ele><time>2026-04-21T15:27:32Z</time></trkpt><trkpt lat="43.869018798953604" lon="11.046403909746495"><ele>42.0</ele><time>2026-04-21T15:27:33Z</time></trkpt><trkpt lat="43.86887242540862" lon="11.046721935527197"><ele>42.0</ele><time>2026-04-21T15:27:34Z</time></trkpt><trkpt lat="43.86873174097455" lon="11.047034460580965"><ele>42.0</ele><time>2026-04-21T15:27:35Z</time></trkpt><trkpt lat="43.868588825238135" lon="11.047353941556665"><ele>41.5</ele><time>2026-04-21T15:27:36Z</time></trkpt><trkpt lat="43.8684504841566" lon="11.047676044741365"><ele>41.0</ele><time>2026-04-21T15:27:37Z</time></trkpt><trkpt lat="43.868309423828165" lon="11.047989782998513"><ele>41.0</ele><time>2026-04-21T15:27:38Z</time></trkpt><trkpt lat="43.86817188809066" lon="11.04830821295106"><ele>41.0</ele><time>2026-04-21T15:27:39Z</time></trkpt><trkpt lat="43.868030531774735" lon="11.048624835700155"><ele>41.0</ele><time>2026-04-21T15:27:40Z</time></trkpt><trkpt lat="43.86788463470684" lon="11.04893492682354"><ele>41.0</ele><time>2026-04-21T15:27:41Z</time></trkpt><trkpt lat="43.86774469154457" lon="11.049255670673396"><ele>41.5</ele><time>2026-04-21T15:27:42Z</time></trkpt><trkpt lat="43.86761133101717" lon="11.049580194042807"><ele>42.0</ele><time>2026-04-21T15:27:43Z</time></trkpt><trkpt lat="43.86747716134967" lon="11.049894877480085"><ele>42.5</ele><time>2026-04-21T15:27:44Z</time></trkpt><trkpt lat="43.867341721452306" lon="11.050208390001874"><ele>43.0</ele><time>2026-04-21T15:27:45Z</time></trkpt><trkpt lat="43.867210400846155" lon="11.050503880572439"><ele>43.0</ele><time>2026-04-21T15:27:46Z</time></trkpt><trkpt lat="43.86708547829093" lon="11.05078994879067"><ele>43.0</ele><time>2026-04-21T15:27:47Z</time></trkpt><trkpt lat="43.86696024993727" lon="11.051089498235365"><ele>43.0</ele><time>2026-04-21T15:27:48Z</time></trkpt><trkpt lat="43.866833395077705" lon="11.051400340901985"><ele>43.0</ele><time>2026-04-21T15:27:49Z</time></trkpt><trkpt lat="43.86670742906065" lon="11.051711944380855"><ele>43.0</ele><time>2026-04-21T15:27:50Z</time></trkpt><trkpt lat="43.866580089072244" lon="11.052023227195418"><ele>43.0</ele><time>2026-04-21T15:27:51Z</time></trkpt><trkpt lat="43.86645346814453" lon="11.052321318774208"><ele>43.0</ele><time>2026-04-21T15:27:52Z</time></trkpt><trkpt lat="43.86632426947936" lon="11.052618943010575"><ele>43.0</ele><time>2026-04-21T15:27:53Z</time></trkpt><trkpt lat="43.86619081540505" lon="11.052921392345914"><ele>43.0</ele><time>2026-04-21T15:27:54Z</time></trkpt><trkpt lat="43.866054229554685" lon="11.053225593909483"><ele>43.0</ele><time>2026-04-21T15:27:55Z</time></trkpt><trkpt lat="43.86591633547544" lon="11.05353584166848"><ele>42.5</ele><time>2026-04-21T15:27:56Z</time></trkpt><trkpt lat="43.86578537186473" lon="11.053828810383386"><ele>42.0</ele><time>2026-04-21T15:27:57Z</time></trkpt><trkpt lat="43.86566167237629" lon="11.05410285330998"><ele>43.5</ele><time>2026-04-21T15:27:58Z</time></trkpt><trkpt lat="43.865544028794446" lon="11.054365631850164"><ele>45.0</ele><time>2026-04-21T15:27:59Z</time></trkpt><trkpt lat="43.86542674173999" lon="11.05464201126009"><ele>45.0</ele><time>2026-04-21T15:28:00Z</time></trkpt><trkpt lat="43.865305825981835" lon="11.054929233154876"><ele>45.0</ele><time>2026-04-21T15:28:01Z</time></trkpt><trkpt lat="43.865181099296485" lon="11.055221957973249"><ele>43.0</ele><time>2026-04-21T15:28:02Z</time></trkpt><trkpt lat="43.86506191300323" lon="11.055503456943859"><ele>41.0</ele><time>2026-04-21T15:28:03Z</time></trkpt><trkpt lat="43.86494247390415" lon="11.055776045342176"><ele>42.5</ele><time>2026-04-21T15:28:04Z</time></trkpt><trkpt lat="43.864821036247015" lon="11.056047678901066"><ele>44.0</ele><time>2026-04-21T15:28:05Z</time></trkpt><trkpt lat="43.86469809811324" lon="11.056324294769013"><ele>44.0</ele><time>2026-04-21T15:28:06Z</time></trkpt><trkpt lat="43.864575376922744" lon="11.056600726055416"><ele>44.0</ele><time>2026-04-21T15:28:07Z</time></trkpt><trkpt lat="43.864453306914264" lon="11.056871723980555"><ele>43.33333333333333</ele><time>2026-04-21T15:28:08Z</time></trkpt><trkpt lat="43.8643390303282" lon="11.057128671371197"><ele>42.666666666666664</ele><time>2026-04-21T15:28:09Z</time></trkpt><trkpt lat="43.86422614778278" lon="11.057389518074912"><ele>42.0</ele><time>2026-04-21T15:28:10Z</time></trkpt><trkpt lat="43.86411590361764" lon="11.057643553063164"><ele>42.0</ele><time>2026-04-21T15:28:11Z</time></trkpt><trkpt lat="43.8640006894714" lon="11.057902227035106"><ele>42.0</ele><time>2026-04-21T15:28:12Z</time></trkpt><trkpt lat="43.863877952158774" lon="11.05817579969142"><ele>43.0</ele><time>2026-04-21T15:28:13Z</time></trkpt><trkpt lat="43.863758504896616" lon="11.058465277833845"><ele>44.0</ele><time>2026-04-21T15:28:14Z</time></trkpt><trkpt lat="43.86362999865161" lon="11.058760318463218"><ele>44.0</ele><time>2026-04-21T15:28:15Z</time></trkpt><trkpt lat="43.86349999402918" lon="11.059069042375967"><ele>44.0</ele><time>2026-04-21T15:28:16Z</time></trkpt><trkpt lat="43.8633673411515" lon="11.059375950449416"><ele>43.0</ele><time>2026-04-21T15:28:17Z</time></trkpt><trkpt lat="43.863232394161976" lon="11.059681925585712"><ele>42.0</ele><time>2026-04-21T15:28:18Z</time></trkpt><trkpt lat="43.86309839702797" lon="11.059985486575327"><ele>40.5</ele><time>2026-04-21T15:28:19Z</time></trkpt><trkpt lat="43.86296325135959" lon="11.060291382039532"><ele>39.0</ele><time>2026-04-21T15:28:20Z</time></trkpt><trkpt lat="43.862825014626594" lon="11.060596615229183"><ele>39.0</ele><time>2026-04-21T15:28:21Z</time></trkpt><trkpt lat="43.86268837635061" lon="11.06090414351261"><ele>39.0</ele><time>2026-04-21T15:28:22Z</time></trkpt><trkpt lat="43.86254882490797" lon="11.061214326137078"><ele>40.0</ele><time>2026-04-21T15:28:23Z</time></trkpt><trkpt lat="43.862411554179864" lon="11.061524570744167"><ele>41.0</ele><time>2026-04-21T15:28:24Z</time></trkpt><trkpt lat="43.86227453406815" lon="11.061840247625705"><ele>41.0</ele><time>2026-04-21T15:28:25Z</time></trkpt><trkpt lat="43.862136863832106" lon="11.062158327824932"><ele>41.0</ele><time>2026-04-21T15:28:26Z</time></trkpt><trkpt lat="43.86199960215887" lon="11.062468631023735"><ele>41.0</ele><time>2026-04-21T15:28:27Z</time></trkpt><trkpt lat="43.86185941030813" lon="11.062782432526959"><ele>41.0</ele><time>2026-04-21T15:28:28Z</time></trkpt><trkpt lat="43.86172332848726" lon="11.063099316412606"><ele>41.5</ele><time>2026-04-21T15:28:29Z</time></trkpt><trkpt lat="43.861583870493845" lon="11.063415423274803"><ele>42.0</ele><time>2026-04-21T15:28:30Z</time></trkpt><trkpt lat="43.86144329177172" lon="11.063730630753518"><ele>42.0</ele><time>2026-04-21T15:28:31Z</time></trkpt><trkpt lat="43.861305283878465" lon="11.064048532995965"><ele>42.0</ele><time>2026-04-21T15:28:32Z</time></trkpt><trkpt lat="43.86116752710948" lon="11.06436180321375"><ele>42.5</ele><time>2026-04-21T15:28:33Z</time></trkpt><trkpt lat="43.861029404919506" lon="11.064673967556631"><ele>43.0</ele><time>2026-04-21T15:28:34Z</time></trkpt><trkpt lat="43.86089044660156" lon="11.064990356296484"><ele>43.0</ele><time>2026-04-21T15:28:35Z</time></trkpt><trkpt lat="43.86075224209782" lon="11.065305055645842"><ele>43.0</ele><time>2026-04-21T15:28:36Z</time></trkpt><trkpt lat="43.860611685192424" lon="11.065626718691117"><ele>44.5</ele><time>2026-04-21T15:28:37Z</time></trkpt><trkpt lat="43.86047169877874" lon="11.065944302964324"><ele>46.0</ele><time>2026-04-21T15:28:38Z</time></trkpt><trkpt lat="43.860331715385534" lon="11.066263449993249"><ele>46.0</ele><time>2026-04-21T15:28:39Z</time></trkpt><trkpt lat="43.860193551164244" lon="11.066583036431924"><ele>46.0</ele><time>2026-04-21T15:28:40Z</time></trkpt><trkpt lat="43.860055925277756" lon="11.066903314279314"><ele>46.0</ele><time>2026-04-21T15:28:41Z</time></trkpt><trkpt lat="43.85991904703025" lon="11.067217510817404"><ele>46.0</ele><time>2026-04-21T15:28:42Z</time></trkpt><trkpt lat="43.85978313362643" lon="11.067534474714227"><ele>46.0</ele><time>2026-04-21T15:28:43Z</time></trkpt><trkpt lat="43.85964682145252" lon="11.067840921233756"><ele>46.0</ele><time>2026-04-21T15:28:44Z</time></trkpt><trkpt lat="43.85950333294577" lon="11.068149755693797"><ele>45.0</ele><time>2026-04-21T15:28:45Z</time></trkpt><trkpt lat="43.85935392476193" lon="11.068465767372544"><ele>44.0</ele><time>2026-04-21T15:28:46Z</time></trkpt><trkpt lat="43.85920872713937" lon="11.068771713978196"><ele>44.0</ele><time>2026-04-21T15:28:47Z</time></trkpt><trkpt lat="43.859060665308796" lon="11.069077237793563"><ele>44.0</ele><time>2026-04-21T15:28:48Z</time></trkpt><trkpt lat="43.858917403924636" lon="11.069390071862815"><ele>44.0</ele><time>2026-04-21T15:28:49Z</time></trkpt><trkpt lat="43.85878074371338" lon="11.069711522645761"><ele>44.0</ele><time>2026-04-21T15:28:50Z</time></trkpt><trkpt lat="43.858644048802205" lon="11.070036051822521"><ele>44.0</ele><time>2026-04-21T15:28:51Z</time></trkpt><trkpt lat="43.85849794809925" lon="11.070375444301357"><ele>44.0</ele><time>2026-04-21T15:28:52Z</time></trkpt><trkpt lat="43.8583585140113" lon="11.070694627598737"><ele>42.5</ele><time>2026-04-21T15:28:53Z</time></trkpt><trkpt lat="43.8582198074473" lon="11.07102175547951"><ele>41.0</ele><time>2026-04-21T15:28:54Z</time></trkpt><trkpt lat="43.858078540795184" lon="11.071352411978918"><ele>41.0</ele><time>2026-04-21T15:28:55Z</time></trkpt><trkpt lat="43.85793924241898" lon="11.071685265245298"><ele>41.0</ele><time>2026-04-21T15:28:56Z</time></trkpt><trkpt lat="43.85780738009221" lon="11.072025217579798"><ele>41.0</ele><time>2026-04-21T15:28:57Z</time></trkpt><trkpt lat="43.85768029989755" lon="11.072369700366927"><ele>41.0</ele><time>2026-04-21T15:28:58Z</time></trkpt><trkpt lat="43.857555885403265" lon="11.072713246212079"><ele>41.5</ele><time>2026-04-21T15:28:59Z</time></trkpt><trkpt lat="43.857433483071944" lon="11.073057766007587"><ele>42.0</ele><time>2026-04-21T15:29:00Z</time></trkpt><trkpt lat="43.85731143639148" lon="11.07340116724706"><ele>43.0</ele><time>2026-04-21T15:29:01Z</time></trkpt><trkpt lat="43.85719472641519" lon="11.073746962004376"><ele>44.0</ele><time>2026-04-21T15:29:02Z</time></trkpt><trkpt lat="43.85708051548971" lon="11.074092789207842"><ele>43.5</ele><time>2026-04-21T15:29:03Z</time></trkpt><trkpt lat="43.85697082774472" lon="11.07443826454369"><ele>43.0</ele><time>2026-04-21T15:29:04Z</time></trkpt><trkpt lat="43.856864488133894" lon="11.074785953934631"><ele>42.5</ele><time>2026-04-21T15:29:05Z</time></trkpt><trkpt lat="43.85676029819563" lon="11.075138042303752"><ele>42.0</ele><time>2026-04-21T15:29:06Z</time></trkpt><trkpt lat="43.85665910752346" lon="11.075493173872871"><ele>42.5</ele><time>2026-04-21T15:29:07Z</time></trkpt><trkpt lat="43.85655920512369" lon="11.075850234480743"><ele>43.0</ele><time>2026-04-21T15:29:08Z</time></trkpt><trkpt lat="43.856463584796195" lon="11.076210176876867"><ele>43.0</ele><time>2026-04-21T15:29:09Z</time></trkpt><trkpt lat="43.85637247343737" lon="11.076573821924732"><ele>43.0</ele><time>2026-04-21T15:29:10Z</time></trkpt><trkpt lat="43.856282827755365" lon="11.076938828173406"><ele>42.0</ele><time>2026-04-21T15:29:11Z</time></trkpt><trkpt lat="43.856196445178796" lon="11.077307408720504"><ele>41.0</ele><time>2026-04-21T15:29:12Z</time></trkpt><trkpt lat="43.856113403580885" lon="11.077674933075867"><ele>41.0</ele><time>2026-04-21T15:29:13Z</time></trkpt><trkpt lat="43.8560325052562" lon="11.078048512265969"><ele>41.0</ele><time>2026-04-21T15:29:14Z</time></trkpt><trkpt lat="43.85595846068855" lon="11.078426583877977"><ele>42.0</ele><time>2026-04-21T15:29:15Z</time></trkpt><trkpt lat="43.8558849948859" lon="11.078802652417107"><ele>43.0</ele><time>2026-04-21T15:29:16Z</time></trkpt><trkpt lat="43.855816933147274" lon="11.079179050740265"><ele>43.0</ele><time>2026-04-21T15:29:17Z</time></trkpt><trkpt lat="43.855755630425065" lon="11.079539445499396"><ele>43.0</ele><time>2026-04-21T15:29:18Z</time></trkpt><trkpt lat="43.85569637846422" lon="11.079890339108175"><ele>42.5</ele><time>2026-04-21T15:29:19Z</time></trkpt><trkpt lat="43.85564142975737" lon="11.08024693642819"><ele>42.0</ele><time>2026-04-21T15:29:20Z</time></trkpt><trkpt lat="43.85558260100541" lon="11.080605709197302"><ele>42.5</ele><time>2026-04-21T15:29:21Z</time></trkpt><trkpt lat="43.85553103315302" lon="11.08096215773504"><ele>43.0</ele><time>2026-04-21T15:29:22Z</time></trkpt><trkpt lat="43.855485361411645" lon="11.081320327702839"><ele>43.0</ele><time>2026-04-21T15:29:23Z</time></trkpt><trkpt lat="43.85544589668157" lon="11.081678561415872"><ele>43.0</ele><time>2026-04-21T15:29:24Z</time></trkpt><trkpt lat="43.855406720775825" lon="11.082036630043213"><ele>43.0</ele><time>2026-04-21T15:29:25Z</time></trkpt><trkpt lat="43.855372178892715" lon="11.082393659961747"><ele>43.0</ele><time>2026-04-21T15:29:26Z</time></trkpt><trkpt lat="43.85533693323921" lon="11.082745794818655"><ele>43.5</ele><time>2026-04-21T15:29:27Z</time></trkpt><trkpt lat="43.8553023680357" lon="11.083104450867078"><ele>44.0</ele><time>2026-04-21T15:29:28Z</time></trkpt><trkpt lat="43.85527360238412" lon="11.083461315847"><ele>45.5</ele><time>2026-04-21T15:29:29Z</time></trkpt><trkpt lat="43.85524824149442" lon="11.08381876792388"><ele>47.0</ele><time>2026-04-21T15:29:30Z</time></trkpt><trkpt lat="43.85522643047429" lon="11.084176427815521"><ele>47.5</ele><time>2026-04-21T15:29:31Z</time></trkpt><trkpt lat="43.85520652477728" lon="11.08453735459957"><ele>48.0</ele><time>2026-04-21T15:29:32Z</time></trkpt><trkpt lat="43.855190921828665" lon="11.084902489284111"><ele>46.5</ele><time>2026-04-21T15:29:33Z</time></trkpt><trkpt lat="43.85517739232156" lon="11.085269690157224"><ele>45.0</ele><time>2026-04-21T15:29:34Z</time></trkpt><trkpt lat="43.85516559356167" lon="11.085641752207934"><ele>45.0</ele><time>2026-04-21T15:29:35Z</time></trkpt><trkpt lat="43.85515272435299" lon="11.0860151126799"><ele>45.0</ele><time>2026-04-21T15:29:36Z</time></trkpt><trkpt lat="43.85514442442119" lon="11.086389923021652"><ele>43.5</ele><time>2026-04-21T15:29:37Z</time></trkpt><trkpt lat="43.85514119534641" lon="11.08676553368009"><ele>42.0</ele><time>2026-04-21T15:29:38Z</time></trkpt><trkpt lat="43.85514283894283" lon="11.087147045562789"><ele>42.0</ele><time>2026-04-21T15:29:39Z</time></trkpt><trkpt lat="43.85514431322737" lon="11.087520821581556"><ele>42.0</ele><time>2026-04-21T15:29:40Z</time></trkpt><trkpt lat="43.855150180489595" lon="11.08790403450085"><ele>42.5</ele><time>2026-04-21T15:29:41Z</time></trkpt><trkpt lat="43.85515562940755" lon="11.088287243960945"><ele>43.0</ele><time>2026-04-21T15:29:42Z</time></trkpt><trkpt lat="43.8551614158143" lon="11.088666773971113"><ele>43.0</ele><time>2026-04-21T15:29:43Z</time></trkpt><trkpt lat="43.85516242399109" lon="11.089054422333547"><ele>43.0</ele><time>2026-04-21T15:29:44Z</time></trkpt><trkpt lat="43.85516604745603" lon="11.08943023246214"><ele>43.0</ele><time>2026-04-21T15:29:45Z</time></trkpt><trkpt lat="43.85516743423206" lon="11.089814529072651"><ele>43.0</ele><time>2026-04-21T15:29:46Z</time></trkpt><trkpt lat="43.85516799551964" lon="11.090198897474291"><ele>43.0</ele><time>2026-04-21T15:29:47Z</time></trkpt><trkpt lat="43.85516720073636" lon="11.090579340291226"><ele>43.0</ele><time>2026-04-21T15:29:48Z</time></trkpt><trkpt lat="43.85516243705358" lon="11.090956098583343"><ele>42.5</ele><time>2026-04-21T15:29:49Z</time></trkpt><trkpt lat="43.855156451189245" lon="11.091332718220697"><ele>42.0</ele><time>2026-04-21T15:29:50Z</time></trkpt><trkpt lat="43.855154386630666" lon="11.091706288488382"><ele>43.5</ele><time>2026-04-21T15:29:51Z</time></trkpt><trkpt lat="43.855151480766445" lon="11.092079601631495"><ele>45.0</ele><time>2026-04-21T15:29:52Z</time></trkpt><trkpt lat="43.85515166590109" lon="11.092450679059056"><ele>45.0</ele><time>2026-04-21T15:29:53Z</time></trkpt><trkpt lat="43.85515173901931" lon="11.092820570554196"><ele>45.0</ele><time>2026-04-21T15:29:54Z</time></trkpt><trkpt lat="43.85514927518611" lon="11.093192143868245"><ele>45.5</ele><time>2026-04-21T15:29:55Z</time></trkpt><trkpt lat="43.85515002694793" lon="11.093557609886064"><ele>46.0</ele><time>2026-04-21T15:29:56Z</time></trkpt><trkpt lat="43.85514743376718" lon="11.09392273576433"><ele>45.5</ele><time>2026-04-21T15:29:57Z</time></trkpt><trkpt lat="43.85514358864001" lon="11.09428732664566"><ele>45.0</ele><time>2026-04-21T15:29:58Z</time></trkpt><trkpt lat="43.85513930353231" lon="11.094641733523812"><ele>45.0</ele><time>2026-04-21T15:29:59Z</time></trkpt><trkpt lat="43.855131822417256" lon="11.095003597440094"><ele>45.0</ele><time>2026-04-21T15:30:00Z</time></trkpt><trkpt lat="43.85512456066041" lon="11.095368946113682"><ele>44.0</ele><time>2026-04-21T15:30:01Z</time></trkpt><trkpt lat="43.855116566269935" lon="11.095734330912538"><ele>43.0</ele><time>2026-04-21T15:30:02Z</time></trkpt><trkpt lat="43.85511019240487" lon="11.096099582205312"><ele>42.5</ele><time>2026-04-21T15:30:03Z</time></trkpt><trkpt lat="43.855103122755864" lon="11.09646089480763"><ele>42.0</ele><time>2026-04-21T15:30:04Z</time></trkpt><trkpt lat="43.85510122208336" lon="11.096829621272954"><ele>42.0</ele><time>2026-04-21T15:30:05Z</time></trkpt><trkpt lat="43.85510178202595" lon="11.097200990209688"><ele>42.0</ele><time>2026-04-21T15:30:06Z</time></trkpt><trkpt lat="43.855101911475685" lon="11.097570711478431"><ele>42.0</ele><time>2026-04-21T15:30:07Z</time></trkpt><trkpt lat="43.85510315848605" lon="11.097936443362997"><ele>42.0</ele><time>2026-04-21T15:30:08Z</time></trkpt><trkpt lat="43.85510497659144" lon="11.098304854394957"><ele>43.5</ele><time>2026-04-21T15:30:09Z</time></trkpt><trkpt lat="43.85510019340686" lon="11.098667284939017"><ele>45.0</ele><time>2026-04-21T15:30:10Z</time></trkpt><trkpt lat="43.85510041361175" lon="11.099033103720084"><ele>45.0</ele><time>2026-04-21T15:30:11Z</time></trkpt><trkpt lat="43.85509343911972" lon="11.099398232626509"><ele>45.0</ele><time>2026-04-21T15:30:12Z</time></trkpt><trkpt lat="43.85508858245893" lon="11.099764674340557"><ele>44.5</ele><time>2026-04-21T15:30:13Z</time></trkpt><trkpt lat="43.85508671814547" lon="11.10012367076903"><ele>44.0</ele><time>2026-04-21T15:30:14Z</time></trkpt><trkpt lat="43.85508791770091" lon="11.100482397021795"><ele>45.0</ele><time>2026-04-21T15:30:15Z</time></trkpt><trkpt lat="43.85509076410763" lon="11.100844382490285"><ele>46.0</ele><time>2026-04-21T15:30:16Z</time></trkpt><trkpt lat="43.855089668157255" lon="11.101207161277015"><ele>46.0</ele><time>2026-04-21T15:30:17Z</time></trkpt><trkpt lat="43.85508523243287" lon="11.101568485096355"><ele>46.0</ele><time>2026-04-21T15:30:18Z</time></trkpt><trkpt lat="43.85508720429584" lon="11.101927003109965"><ele>45.5</ele><time>2026-04-21T15:30:19Z</time></trkpt><trkpt lat="43.85508582341976" lon="11.102293501674325"><ele>45.0</ele><time>2026-04-21T15:30:20Z</time></trkpt><trkpt lat="43.85508561604958" lon="11.102656356071014"><ele>44.0</ele><time>2026-04-21T15:30:21Z</time></trkpt><trkpt lat="43.85507847141548" lon="11.103013513221677"><ele>43.0</ele><time>2026-04-21T15:30:22Z</time></trkpt><trkpt lat="43.8550731777223" lon="11.103372770522924"><ele>43.0</ele><time>2026-04-21T15:30:23Z</time></trkpt><trkpt lat="43.85506826945549" lon="11.103736084310649"><ele>43.0</ele><time>2026-04-21T15:30:24Z</time></trkpt><trkpt lat="43.85506672176538" lon="11.104096172032564"><ele>43.0</ele><time>2026-04-21T15:30:25Z</time></trkpt><trkpt lat="43.855072043236646" lon="11.104461201484726"><ele>43.0</ele><time>2026-04-21T15:30:26Z</time></trkpt><trkpt lat="43.85506860428922" lon="11.104824075404414"><ele>43.5</ele><time>2026-04-21T15:30:27Z</time></trkpt><trkpt lat="43.85506528997981" lon="11.105187789215185"><ele>44.0</ele><time>2026-04-21T15:30:28Z</time></trkpt><trkpt lat="43.85506257958648" lon="11.105550392232546"><ele>45.5</ele><time>2026-04-21T15:30:29Z</time></trkpt><trkpt lat="43.85506105949611" lon="11.105912106742615"><ele>47.0</ele><time>2026-04-21T15:30:30Z</time></trkpt><trkpt lat="43.85506159692596" lon="11.10627683256338"><ele>46.5</ele><time>2026-04-21T15:30:31Z</time></trkpt><trkpt lat="43.85505844452414" lon="11.1066386574613"><ele>46.0</ele><time>2026-04-21T15:30:32Z</time></trkpt><trkpt lat="43.85505567506549" lon="11.106997333410755"><ele>46.0</ele><time>2026-04-21T15:30:33Z</time></trkpt><trkpt lat="43.855055603871925" lon="11.107331513006061"><ele>46.0</ele><time>2026-04-21T15:30:34Z</time></trkpt><trkpt lat="43.85505725911186" lon="11.10765469876626"><ele>46.0</ele><time>2026-04-21T15:30:35Z</time></trkpt><trkpt lat="43.85505628952057" lon="11.107974536435616"><ele>46.0</ele><time>2026-04-21T15:30:36Z</time></trkpt><trkpt lat="43.855051702003806" lon="11.108289467358027"><ele>46.0</ele><time>2026-04-21T15:30:37Z</time></trkpt><trkpt lat="43.85504804324751" lon="11.108595856852867"><ele>46.0</ele><time>2026-04-21T15:30:38Z</time></trkpt><trkpt lat="43.85504786421902" lon="11.108909046931144"><ele>46.0</ele><time>2026-04-21T15:30:39Z</time></trkpt><trkpt lat="43.855047049997495" lon="11.10921890378477"><ele>44.5</ele><time>2026-04-21T15:30:40Z</time></trkpt><trkpt lat="43.85504580924472" lon="11.10953416909606"><ele>43.0</ele><time>2026-04-21T15:30:41Z</time></trkpt><trkpt lat="43.85504336676419" lon="11.109852094363207"><ele>43.0</ele><time>2026-04-21T15:30:42Z</time></trkpt><trkpt lat="43.85503936223541" lon="11.110176295512725"><ele>43.0</ele><time>2026-04-21T15:30:43Z</time></trkpt><trkpt lat="43.85503039969628" lon="11.11050226581462"><ele>43.0</ele><time>2026-04-21T15:30:44Z</time></trkpt><trkpt lat="43.85501326515867" lon="11.11082996327974"><ele>43.0</ele><time>2026-04-21T15:30:45Z</time></trkpt><trkpt lat="43.85499015284327" lon="11.111155685178053"><ele>43.0</ele><time>2026-04-21T15:30:46Z</time></trkpt><trkpt lat="43.854962975273466" lon="11.111480509821947"><ele>43.0</ele><time>2026-04-21T15:30:47Z</time></trkpt><trkpt lat="43.85492843404607" lon="11.11180698979579"><ele>43.5</ele><time>2026-04-21T15:30:48Z</time></trkpt><trkpt lat="43.85488673922859" lon="11.11213097684218"><ele>44.0</ele><time>2026-04-21T15:30:49Z</time></trkpt><trkpt lat="43.85483641801041" lon="11.112453983628086"><ele>44.0</ele><time>2026-04-21T15:30:50Z</time></trkpt><trkpt lat="43.854786901202466" lon="11.112769147564395"><ele>44.0</ele><time>2026-04-21T15:30:51Z</time></trkpt><trkpt lat="43.85472991683609" lon="11.113075682947649"><ele>44.0</ele><time>2026-04-21T15:30:52Z</time></trkpt><trkpt lat="43.854671727895195" lon="11.113387122387325"><ele>44.0</ele><time>2026-04-21T15:30:53Z</time></trkpt><trkpt lat="43.8546031721137" lon="11.113702608927998"><ele>44.0</ele><time>2026-04-21T15:30:54Z</time></trkpt><trkpt lat="43.85452861243099" lon="11.114009477448203"><ele>44.0</ele><time>2026-04-21T15:30:55Z</time></trkpt><trkpt lat="43.854449598433135" lon="11.114319611935267"><ele>44.0</ele><time>2026-04-21T15:30:56Z</time></trkpt><trkpt lat="43.854363248878826" lon="11.114635910284745"><ele>44.0</ele><time>2026-04-21T15:30:57Z</time></trkpt><trkpt lat="43.85427596128353" lon="11.114939296046536"><ele>45.0</ele><time>2026-04-21T15:30:58Z</time></trkpt><trkpt lat="43.85418611172642" lon="11.115237801417157"><ele>46.0</ele><time>2026-04-21T15:30:59Z</time></trkpt><trkpt lat="43.85409689894801" lon="11.115540174780014"><ele>46.5</ele><time>2026-04-21T15:31:00Z</time></trkpt><trkpt lat="43.85400904483661" lon="11.115847897904231"><ele>47.0</ele><time>2026-04-21T15:31:01Z</time></trkpt><trkpt lat="43.85391879218906" lon="11.116160814086534"><ele>47.0</ele><time>2026-04-21T15:31:02Z</time></trkpt><trkpt lat="43.85382501783547" lon="11.11647409726278"><ele>47.0</ele><time>2026-04-21T15:31:03Z</time></trkpt><trkpt lat="43.85372982364418" lon="11.116787870414477"><ele>46.5</ele><time>2026-04-21T15:31:04Z</time></trkpt><trkpt lat="43.853636840677495" lon="11.117103201456963"><ele>46.0</ele><time>2026-04-21T15:31:05Z</time></trkpt><trkpt lat="43.85354511143354" lon="11.117422837776367"><ele>47.0</ele><time>2026-04-21T15:31:06Z</time></trkpt><trkpt lat="43.853457113636985" lon="11.117730508262474"><ele>48.0</ele><time>2026-04-21T15:31:07Z</time></trkpt><trkpt lat="43.85337708799373" lon="11.118024259129447"><ele>47.666666666666664</ele><time>2026-04-21T15:31:08Z</time></trkpt><trkpt lat="43.853290725373064" lon="11.118313081967566"><ele>47.33333333333333</ele><time>2026-04-21T15:31:09Z</time></trkpt><trkpt lat="43.85320983875686" lon="11.11860114928254"><ele>47.0</ele><time>2026-04-21T15:31:10Z</time></trkpt><trkpt lat="43.85312651807183" lon="11.118886698154538"><ele>47.0</ele><time>2026-04-21T15:31:11Z</time></trkpt><trkpt lat="43.85304309307872" lon="11.11916837890783"><ele>47.0</ele><time>2026-04-21T15:31:12Z</time></trkpt><trkpt lat="43.8529598161188" lon="11.119444127668627"><ele>47.0</ele><time>2026-04-21T15:31:13Z</time></trkpt><trkpt lat="43.85287661421247" lon="11.119714753081965"><ele>47.0</ele><time>2026-04-21T15:31:14Z</time></trkpt><trkpt lat="43.852792075799854" lon="11.119967338104473"><ele>47.0</ele><time>2026-04-21T15:31:15Z</time></trkpt><trkpt lat="43.852703983629965" lon="11.120224152879684"><ele>47.0</ele><time>2026-04-21T15:31:16Z</time></trkpt><trkpt lat="43.852606009708296" lon="11.12047887386817"><ele>47.0</ele><time>2026-04-21T15:31:17Z</time></trkpt><trkpt lat="43.85250464800582" lon="11.12073015924681"><ele>47.0</ele><time>2026-04-21T15:31:18Z</time></trkpt><trkpt lat="43.85239390217976" lon="11.12097620026984"><ele>47.0</ele><time>2026-04-21T15:31:19Z</time></trkpt><trkpt lat="43.8522792257086" lon="11.121222571733268"><ele>46.666666666666664</ele><time>2026-04-21T15:31:20Z</time></trkpt><trkpt lat="43.8521620451556" lon="11.121446332111532"><ele>46.333333333333336</ele><time>2026-04-21T15:31:21Z</time></trkpt><trkpt lat="43.85204613624639" lon="11.121665237139187"><ele>46.0</ele><time>2026-04-21T15:31:22Z</time></trkpt><trkpt lat="43.85192362777545" lon="11.121879111161586"><ele>46.0</ele><time>2026-04-21T15:31:23Z</time></trkpt><trkpt lat="43.851798049783106" lon="11.122091080805728"><ele>46.0</ele><time>2026-04-21T15:31:24Z</time></trkpt><trkpt lat="43.85166706574833" lon="11.122294740601372"><ele>46.0</ele><time>2026-04-21T15:31:25Z</time></trkpt><trkpt lat="43.85152918390204" lon="11.122497888883151"><ele>46.0</ele><time>2026-04-21T15:31:26Z</time></trkpt><trkpt lat="43.85139131348827" lon="11.122706090704407"><ele>46.0</ele><time>2026-04-21T15:31:27Z</time></trkpt><trkpt lat="43.85125034981199" lon="11.122919527383882"><ele>46.0</ele><time>2026-04-21T15:31:28Z</time></trkpt><trkpt lat="43.85111084393342" lon="11.123136903106802"><ele>45.66666666666667</ele><time>2026-04-21T15:31:29Z</time></trkpt><trkpt lat="43.85097128908933" lon="11.123353302187107"><ele>45.333333333333336</ele><time>2026-04-21T15:31:30Z</time></trkpt><trkpt lat="43.85082821314192" lon="11.123569309971534"><ele>45.0</ele><time>2026-04-21T15:31:31Z</time></trkpt><trkpt lat="43.85069009061504" lon="11.123789971638006"><ele>44.666666666666664</ele><time>2026-04-21T15:31:32Z</time></trkpt><trkpt lat="43.850557037172145" lon="11.12400410248502"><ele>44.33333333333333</ele><time>2026-04-21T15:31:33Z</time></trkpt><trkpt lat="43.85042579290899" lon="11.124204815761967"><ele>44.0</ele><time>2026-04-21T15:31:34Z</time></trkpt><trkpt lat="43.850300166197" lon="11.124400719082384"><ele>44.33333333333333</ele><time>2026-04-21T15:31:35Z</time></trkpt><trkpt lat="43.85017177281696" lon="11.12459872112969"><ele>44.666666666666664</ele><time>2026-04-21T15:31:36Z</time></trkpt><trkpt lat="43.850039083164965" lon="11.124802181457621"><ele>45.0</ele><time>2026-04-21T15:31:37Z</time></trkpt><trkpt lat="43.84989793132241" lon="11.125015905885775"><ele>45.333333333333336</ele><time>2026-04-21T15:31:38Z</time></trkpt><trkpt lat="43.84975924343765" lon="11.125238572617144"><ele>45.66666666666667</ele><time>2026-04-21T15:31:39Z</time></trkpt><trkpt lat="43.84961595929486" lon="11.125462899299954"><ele>46.0</ele><time>2026-04-21T15:31:40Z</time></trkpt><trkpt lat="43.8494681715923" lon="11.125688789074673"><ele>45.66666666666667</ele><time>2026-04-21T15:31:41Z</time></trkpt><trkpt lat="43.84931907731628" lon="11.125914477701489"><ele>45.333333333333336</ele><time>2026-04-21T15:31:42Z</time></trkpt><trkpt lat="43.849168121261144" lon="11.126151765028956"><ele>45.0</ele><time>2026-04-21T15:31:43Z</time></trkpt><trkpt lat="43.84902130332058" lon="11.126384707054068"><ele>46.0</ele><time>2026-04-21T15:31:44Z</time></trkpt><trkpt lat="43.84886860792747" lon="11.126620305712692"><ele>47.0</ele><time>2026-04-21T15:31:45Z</time></trkpt><trkpt lat="43.848718587292566" lon="11.12685227690936"><ele>47.0</ele><time>2026-04-21T15:31:46Z</time></trkpt><trkpt lat="43.848578460073334" lon="11.127073970683366"><ele>47.0</ele><time>2026-04-21T15:31:47Z</time></trkpt><trkpt lat="43.848444854940304" lon="11.127283232575392"><ele>47.0</ele><time>2026-04-21T15:31:48Z</time></trkpt><trkpt lat="43.848318281272704" lon="11.12748639610082"><ele>47.0</ele><time>2026-04-21T15:31:49Z</time></trkpt><trkpt lat="43.84817654216723" lon="11.127697818975763"><ele>47.0</ele><time>2026-04-21T15:31:50Z</time></trkpt><trkpt lat="43.84803609535747" lon="11.127913451902913"><ele>47.0</ele><time>2026-04-21T15:31:51Z</time></trkpt><trkpt lat="43.847899292761106" lon="11.128129531179065"><ele>47.0</ele><time>2026-04-21T15:31:52Z</time></trkpt><trkpt lat="43.84776093445747" lon="11.128339545681273"><ele>47.0</ele><time>2026-04-21T15:31:53Z</time></trkpt><trkpt lat="43.8476241772512" lon="11.128552620895437"><ele>47.0</ele><time>2026-04-21T15:31:54Z</time></trkpt><trkpt lat="43.8474870723015" lon="11.128763771687593"><ele>47.0</ele><time>2026-04-21T15:31:55Z</time></trkpt><trkpt lat="43.84735245450842" lon="11.128976512891256"><ele>47.0</ele><time>2026-04-21T15:31:56Z</time></trkpt><trkpt lat="43.847214724264745" lon="11.129189660030569"><ele>47.0</ele><time>2026-04-21T15:31:57Z</time></trkpt><trkpt lat="43.847074647861795" lon="11.129403799376291"><ele>46.666666666666664</ele><time>2026-04-21T15:31:58Z</time></trkpt><trkpt lat="43.84692798439699" lon="11.12962211121"><ele>46.333333333333336</ele><time>2026-04-21T15:31:59Z</time></trkpt><trkpt lat="43.8467807783791" lon="11.129845039446009"><ele>46.0</ele><time>2026-04-21T15:32:00Z</time></trkpt><trkpt lat="43.846635544874566" lon="11.130072367745804"><ele>46.0</ele><time>2026-04-21T15:32:01Z</time></trkpt><trkpt lat="43.84648677112131" lon="11.130302363653906"><ele>46.0</ele><time>2026-04-21T15:32:02Z</time></trkpt><trkpt lat="43.8463419941723" lon="11.130524835547446"><ele>46.0</ele><time>2026-04-21T15:32:03Z</time></trkpt><trkpt lat="43.84620468780687" lon="11.13074309817667"><ele>46.0</ele><time>2026-04-21T15:32:04Z</time></trkpt><trkpt lat="43.84606874095359" lon="11.130956490017965"><ele>46.0</ele><time>2026-04-21T15:32:05Z</time></trkpt><trkpt lat="43.845932120261175" lon="11.13116726310047"><ele>46.0</ele><time>2026-04-21T15:32:06Z</time></trkpt><trkpt lat="43.845794374192735" lon="11.131380724203549"><ele>46.333333333333336</ele><time>2026-04-21T15:32:07Z</time></trkpt><trkpt lat="43.845654899452406" lon="11.131593430250017"><ele>46.666666666666664</ele><time>2026-04-21T15:32:08Z</time></trkpt><trkpt lat="43.845525305350655" lon="11.131789006198618"><ele>47.0</ele><time>2026-04-21T15:32:09Z</time></trkpt><trkpt lat="43.84540577633242" lon="11.131977123867172"><ele>47.0</ele><time>2026-04-21T15:32:10Z</time></trkpt><trkpt lat="43.84528675547602" lon="11.132164578111768"><ele>47.0</ele><time>2026-04-21T15:32:11Z</time></trkpt><trkpt lat="43.8451613353873" lon="11.132363842741993"><ele>47.0</ele><time>2026-04-21T15:32:12Z</time></trkpt><trkpt lat="43.84502937216665" lon="11.132565985230267"><ele>46.33333333333333</ele><time>2026-04-21T15:32:13Z</time></trkpt><trkpt lat="43.84489547910814" lon="11.132775382735193"><ele>45.666666666666664</ele><time>2026-04-21T15:32:14Z</time></trkpt><trkpt lat="43.84475618951941" lon="11.132989459865204"><ele>45.0</ele><time>2026-04-21T15:32:15Z</time></trkpt><trkpt lat="43.84461421053983" lon="11.133205715924746"><ele>45.333333333333336</ele><time>2026-04-21T15:32:16Z</time></trkpt><trkpt lat="43.84447279810679" lon="11.133429153171647"><ele>45.66666666666667</ele><time>2026-04-21T15:32:17Z</time></trkpt><trkpt lat="43.8443283119585" lon="11.133656176019164"><ele>46.0</ele><time>2026-04-21T15:32:18Z</time></trkpt><trkpt lat="43.844181194771735" lon="11.133886450670957"><ele>46.0</ele><time>2026-04-21T15:32:19Z</time></trkpt><trkpt lat="43.844029838715116" lon="11.13412128293152"><ele>46.0</ele><time>2026-04-21T15:32:20Z</time></trkpt><trkpt lat="43.84387718499303" lon="11.134355513830704"><ele>46.0</ele><time>2026-04-21T15:32:21Z</time></trkpt><trkpt lat="43.843732899204234" lon="11.134575817250383"><ele>46.0</ele><time>2026-04-21T15:32:22Z</time></trkpt><trkpt lat="43.84359229274158" lon="11.134797938649164"><ele>46.0</ele><time>2026-04-21T15:32:23Z</time></trkpt><trkpt lat="43.84344925772329" lon="11.135022956790442"><ele>45.66666666666667</ele><time>2026-04-21T15:32:24Z</time></trkpt><trkpt lat="43.84330866317391" lon="11.135234521791437"><ele>45.333333333333336</ele><time>2026-04-21T15:32:25Z</time></trkpt><trkpt lat="43.84317260840046" lon="11.135440815439352"><ele>45.0</ele><time>2026-04-21T15:32:26Z</time></trkpt><trkpt lat="43.84303341872729" lon="11.135653872961147"><ele>45.0</ele><time>2026-04-21T15:32:27Z</time></trkpt><trkpt lat="43.842892832187346" lon="11.135869742639015"><ele>45.0</ele><time>2026-04-21T15:32:28Z</time></trkpt><trkpt lat="43.84275121011136" lon="11.136090968456605"><ele>45.0</ele><time>2026-04-21T15:32:29Z</time></trkpt><trkpt lat="43.84260846904282" lon="11.13631629246605"><ele>45.0</ele><time>2026-04-21T15:32:30Z</time></trkpt><trkpt lat="43.842459811491054" lon="11.136542746816193"><ele>45.0</ele><time>2026-04-21T15:32:31Z</time></trkpt><trkpt lat="43.842319643319684" lon="11.13676193448163"><ele>45.0</ele><time>2026-04-21T15:32:32Z</time></trkpt><trkpt lat="43.84217867645535" lon="11.136983480634854"><ele>45.0</ele><time>2026-04-21T15:32:33Z</time></trkpt><trkpt lat="43.84203662802199" lon="11.137208655279004"><ele>45.0</ele><time>2026-04-21T15:32:34Z</time></trkpt><trkpt lat="43.84189377560469" lon="11.137438436698575"><ele>45.0</ele><time>2026-04-21T15:32:35Z</time></trkpt><trkpt lat="43.84174233608571" lon="11.137688826963117"><ele>45.0</ele><time>2026-04-21T15:32:36Z</time></trkpt><trkpt lat="43.84159080150303" lon="11.137905711192541"><ele>45.0</ele><time>2026-04-21T15:32:37Z</time></trkpt><trkpt lat="43.84143658611688" lon="11.138149986623652"><ele>45.0</ele><time>2026-04-21T15:32:38Z</time></trkpt><trkpt lat="43.84127957105909" lon="11.138397769553768"><ele>45.0</ele><time>2026-04-21T15:32:39Z</time></trkpt><trkpt lat="43.84112285098485" lon="11.138639137028584"><ele>45.0</ele><time>2026-04-21T15:32:40Z</time></trkpt><trkpt lat="43.84096688801762" lon="11.13888013427189"><ele>45.0</ele><time>2026-04-21T15:32:41Z</time></trkpt><trkpt lat="43.840813608456344" lon="11.139126450189936"><ele>43.5</ele><time>2026-04-21T15:32:42Z</time></trkpt><trkpt lat="43.84064940760312" lon="11.139376522866966"><ele>42.0</ele><time>2026-04-21T15:32:43Z</time></trkpt><trkpt lat="43.84048611178297" lon="11.139621511925334"><ele>42.0</ele><time>2026-04-21T15:32:44Z</time></trkpt><trkpt lat="43.84032347146422" lon="11.139866774781128"><ele>42.0</ele><time>2026-04-21T15:32:45Z</time></trkpt><trkpt lat="43.84016569815273" lon="11.14011663424939"><ele>41.0</ele><time>2026-04-21T15:32:46Z</time></trkpt><trkpt lat="43.84001608082085" lon="11.140354805282572"><ele>40.0</ele><time>2026-04-21T15:32:47Z</time></trkpt><trkpt lat="43.83986672382189" lon="11.140585997574215"><ele>40.5</ele><time>2026-04-21T15:32:48Z</time></trkpt><trkpt lat="43.839715311129524" lon="11.140821150380914"><ele>41.0</ele><time>2026-04-21T15:32:49Z</time></trkpt><trkpt lat="43.83956240167505" lon="11.141064041396383"><ele>41.0</ele><time>2026-04-21T15:32:50Z</time></trkpt><trkpt lat="43.83940646538822" lon="11.14130817948456"><ele>41.0</ele><time>2026-04-21T15:32:51Z</time></trkpt><trkpt lat="43.83924952126328" lon="11.14155610369281"><ele>41.0</ele><time>2026-04-21T15:32:52Z</time></trkpt><trkpt lat="43.839094146208964" lon="11.141804840775588"><ele>41.0</ele><time>2026-04-21T15:32:53Z</time></trkpt><trkpt lat="43.83893014769745" lon="11.142053358544628"><ele>41.0</ele><time>2026-04-21T15:32:54Z</time></trkpt><trkpt lat="43.838761878176335" lon="11.142305540170765"><ele>41.0</ele><time>2026-04-21T15:32:55Z</time></trkpt><trkpt lat="43.838590849693446" lon="11.14256054289542"><ele>41.0</ele><time>2026-04-21T15:32:56Z</time></trkpt><trkpt lat="43.83841759540162" lon="11.142816221723603"><ele>41.0</ele><time>2026-04-21T15:32:57Z</time></trkpt><trkpt lat="43.83824684697329" lon="11.14307559086117"><ele>41.5</ele><time>2026-04-21T15:32:58Z</time></trkpt><trkpt lat="43.8380804295535" lon="11.143336935629442"><ele>42.0</ele><time>2026-04-21T15:32:59Z</time></trkpt><trkpt lat="43.83791798493699" lon="11.143592277843208"><ele>42.0</ele><time>2026-04-21T15:33:00Z</time></trkpt><trkpt lat="43.83775203103223" lon="11.14385468532968"><ele>42.0</ele><time>2026-04-21T15:33:01Z</time></trkpt><trkpt lat="43.83758955847289" lon="11.144112852683032"><ele>41.5</ele><time>2026-04-21T15:33:02Z</time></trkpt><trkpt lat="43.83743069297042" lon="11.144360284433784"><ele>41.0</ele><time>2026-04-21T15:33:03Z</time></trkpt><trkpt lat="43.83726777364527" lon="11.144606774256964"><ele>41.0</ele><time>2026-04-21T15:33:04Z</time></trkpt><trkpt lat="43.83710514621954" lon="11.14485245613158"><ele>41.0</ele><time>2026-04-21T15:33:05Z</time></trkpt><trkpt lat="43.83694031337352" lon="11.145096884760619"><ele>42.0</ele><time>2026-04-21T15:33:06Z</time></trkpt><trkpt lat="43.83677391863342" lon="11.145348369677412"><ele>43.0</ele><time>2026-04-21T15:33:07Z</time></trkpt><trkpt lat="43.8366082215461" lon="11.145598023523178"><ele>43.0</ele><time>2026-04-21T15:33:08Z</time></trkpt><trkpt lat="43.83644483556463" lon="11.145849206307647"><ele>43.0</ele><time>2026-04-21T15:33:09Z</time></trkpt><trkpt lat="43.836281286248656" lon="11.14610774045434"><ele>43.0</ele><time>2026-04-21T15:33:10Z</time></trkpt><trkpt lat="43.836118703334044" lon="11.146365178364876"><ele>43.0</ele><time>2026-04-21T15:33:11Z</time></trkpt><trkpt lat="43.835954872837505" lon="11.14662092381385"><ele>42.66666666666667</ele><time>2026-04-21T15:33:12Z</time></trkpt><trkpt lat="43.83580497476805" lon="11.146859595909161"><ele>42.333333333333336</ele><time>2026-04-21T15:33:13Z</time></trkpt><trkpt lat="43.83568527432745" lon="11.147044289186091"><ele>42.0</ele><time>2026-04-21T15:33:14Z</time></trkpt><trkpt lat="43.83557782955597" lon="11.147210374045692"><ele>42.0</ele><time>2026-04-21T15:33:15Z</time></trkpt><trkpt lat="43.83549179539468" lon="11.14734378174365"><ele>42.0</ele><time>2026-04-21T15:33:16Z</time></trkpt><trkpt lat="43.835413910630635" lon="11.147470167982418"><ele>42.0</ele><time>2026-04-21T15:33:17Z</time></trkpt><trkpt lat="43.83534544758377" lon="11.14759076987545"><ele>42.0</ele><time>2026-04-21T15:33:18Z</time></trkpt><trkpt lat="43.83526723120901" lon="11.14771926887492"><ele>42.0</ele><time>2026-04-21T15:33:19Z</time></trkpt><trkpt lat="43.8351709964205" lon="11.147870488794748"><ele>42.0</ele><time>2026-04-21T15:33:20Z</time></trkpt><trkpt lat="43.83506438735955" lon="11.148035814011338"><ele>42.0</ele><time>2026-04-21T15:33:21Z</time></trkpt><trkpt lat="43.83494707912125" lon="11.148212547935717"><ele>42.0</ele><time>2026-04-21T15:33:22Z</time></trkpt><trkpt lat="43.834828207452766" lon="11.148394635863855"><ele>42.0</ele><time>2026-04-21T15:33:23Z</time></trkpt><trkpt lat="43.834705638788805" lon="11.148581182972508"><ele>42.0</ele><time>2026-04-21T15:33:24Z</time></trkpt><trkpt lat="43.8345824461195" lon="11.148776637022308"><ele>42.0</ele><time>2026-04-21T15:33:25Z</time></trkpt><trkpt lat="43.834449114346" lon="11.148979157167853"><ele>42.0</ele><time>2026-04-21T15:33:26Z</time></trkpt><trkpt lat="43.834309962838645" lon="11.149189405727098"><ele>42.0</ele><time>2026-04-21T15:33:27Z</time></trkpt><trkpt lat="43.834171779774316" lon="11.149394973837815"><ele>42.0</ele><time>2026-04-21T15:33:28Z</time></trkpt><trkpt lat="43.83403757792135" lon="11.149595523653291"><ele>42.0</ele><time>2026-04-21T15:33:29Z</time></trkpt><trkpt lat="43.83390532539903" lon="11.149788360460214"><ele>42.0</ele><time>2026-04-21T15:33:30Z</time></trkpt><trkpt lat="43.83377031138307" lon="11.14997968652798"><ele>41.333333333333336</ele><time>2026-04-21T15:33:31Z</time></trkpt><trkpt lat="43.833631346713716" lon="11.150176130510864"><ele>40.66666666666667</ele><time>2026-04-21T15:33:32Z</time></trkpt><trkpt lat="43.83349525308596" lon="11.150365680975703"><ele>40.0</ele><time>2026-04-21T15:33:33Z</time></trkpt><trkpt lat="43.83336416665458" lon="11.150555283716699"><ele>40.333333333333336</ele><time>2026-04-21T15:33:34Z</time></trkpt><trkpt lat="43.83323118324212" lon="11.150746502405411"><ele>40.666666666666664</ele><time>2026-04-21T15:33:35Z</time></trkpt><trkpt lat="43.83310054015212" lon="11.150921215778936"><ele>41.0</ele><time>2026-04-21T15:33:36Z</time></trkpt><trkpt lat="43.832982634330484" lon="11.15107091589833"><ele>41.0</ele><time>2026-04-21T15:33:37Z</time></trkpt><trkpt lat="43.83287072119657" lon="11.151207790534905"><ele>41.0</ele><time>2026-04-21T15:33:38Z</time></trkpt><trkpt lat="43.832746695718036" lon="11.151359144957713"><ele>41.0</ele><time>2026-04-21T15:33:39Z</time></trkpt><trkpt lat="43.8326250693925" lon="11.151505656726055"><ele>41.0</ele><time>2026-04-21T15:33:40Z</time></trkpt><trkpt lat="43.83252386241957" lon="11.151631504060298"><ele>41.0</ele><time>2026-04-21T15:33:41Z</time></trkpt><trkpt lat="43.832432375861025" lon="11.151746107617399"><ele>41.0</ele><time>2026-04-21T15:33:42Z</time></trkpt><trkpt lat="43.83233880132251" lon="11.151866729403865"><ele>41.0</ele><time>2026-04-21T15:33:43Z</time></trkpt><trkpt lat="43.83223940595278" lon="11.15199650487691"><ele>41.0</ele><time>2026-04-21T15:33:44Z</time></trkpt><trkpt lat="43.832129478808476" lon="11.152143194554707"><ele>41.0</ele><time>2026-04-21T15:33:45Z</time></trkpt><trkpt lat="43.8320063119535" lon="11.15229784013848"><ele>41.0</ele><time>2026-04-21T15:33:46Z</time></trkpt><trkpt lat="43.83186213627933" lon="11.152445701670574"><ele>40.0</ele><time>2026-04-21T15:33:47Z</time></trkpt><trkpt lat="43.831709438185605" lon="11.152582304171826"><ele>39.0</ele><time>2026-04-21T15:33:48Z</time></trkpt><trkpt lat="43.83156019950351" lon="11.15270695138095"><ele>38.0</ele><time>2026-04-21T15:33:49Z</time></trkpt><trkpt lat="43.83140228499967" lon="11.152833759371163"><ele>38.0</ele><time>2026-04-21T15:33:50Z</time></trkpt><trkpt lat="43.831239214147345" lon="11.152947436793097"><ele>38.0</ele><time>2026-04-21T15:33:51Z</time></trkpt><trkpt lat="43.83106908349132" lon="11.153043560680583"><ele>38.0</ele><time>2026-04-21T15:33:52Z</time></trkpt><trkpt lat="43.830897785739985" lon="11.153135193631085"><ele>38.0</ele><time>2026-04-21T15:33:53Z</time></trkpt><trkpt lat="43.83072880280306" lon="11.153217614752434"><ele>38.0</ele><time>2026-04-21T15:33:54Z</time></trkpt><trkpt lat="43.83054962954784" lon="11.153288797822027"><ele>38.0</ele><time>2026-04-21T15:33:55Z</time></trkpt><trkpt lat="43.83036165255517" lon="11.153339206279588"><ele>38.0</ele><time>2026-04-21T15:33:56Z</time></trkpt><trkpt lat="43.830168900735366" lon="11.153375814503846"><ele>38.0</ele><time>2026-04-21T15:33:57Z</time></trkpt><trkpt lat="43.82996473296263" lon="11.153394890766725"><ele>38.0</ele><time>2026-04-21T15:33:58Z</time></trkpt><trkpt lat="43.82975734238599" lon="11.153391277307906"><ele>38.33333333333333</ele><time>2026-04-21T15:33:59Z</time></trkpt><trkpt lat="43.82954836838201" lon="11.153364609391952"><ele>38.666666666666664</ele><time>2026-04-21T15:34:00Z</time></trkpt><trkpt lat="43.82933922393855" lon="11.153319318318909"><ele>39.0</ele><time>2026-04-21T15:34:01Z</time></trkpt><trkpt lat="43.82913326795682" lon="11.153260768596672"><ele>38.0</ele><time>2026-04-21T15:34:02Z</time></trkpt><trkpt lat="43.82894033133068" lon="11.15319266728369"><ele>37.0</ele><time>2026-04-21T15:34:03Z</time></trkpt><trkpt lat="43.82874798133513" lon="11.153116327365304"><ele>36.0</ele><time>2026-04-21T15:34:04Z</time></trkpt><trkpt lat="43.82855992506658" lon="11.153031709022887"><ele>36.666666666666664</ele><time>2026-04-21T15:34:05Z</time></trkpt><trkpt lat="43.828385528746296" lon="11.152940958421068"><ele>37.33333333333333</ele><time>2026-04-21T15:34:06Z</time></trkpt><trkpt lat="43.82821338188909" lon="11.152838998874762"><ele>38.0</ele><time>2026-04-21T15:34:07Z</time></trkpt><trkpt lat="43.828036976276294" lon="11.152734375048112"><ele>38.0</ele><time>2026-04-21T15:34:08Z</time></trkpt><trkpt lat="43.82785789054713" lon="11.152628873438069"><ele>38.0</ele><time>2026-04-21T15:34:09Z</time></trkpt><trkpt lat="43.82768315892236" lon="11.152522893182"><ele>38.0</ele><time>2026-04-21T15:34:10Z</time></trkpt><trkpt lat="43.82751788299017" lon="11.152416871065013"><ele>37.33333333333333</ele><time>2026-04-21T15:34:11Z</time></trkpt><trkpt lat="43.82734851801758" lon="11.152314608300259"><ele>36.666666666666664</ele><time>2026-04-21T15:34:12Z</time></trkpt><trkpt lat="43.82716246199839" lon="11.152216559381475"><ele>36.0</ele><time>2026-04-21T15:34:13Z</time></trkpt><trkpt lat="43.82696293383004" lon="11.1521278658688"><ele>36.333333333333336</ele><time>2026-04-21T15:34:14Z</time></trkpt><trkpt lat="43.826752558944925" lon="11.15203962264676"><ele>36.66666666666667</ele><time>2026-04-21T15:34:15Z</time></trkpt><trkpt lat="43.82653327588948" lon="11.151958991744962"><ele>37.0</ele><time>2026-04-21T15:34:16Z</time></trkpt><trkpt lat="43.82632681803847" lon="11.15186161356745"><ele>37.0</ele><time>2026-04-21T15:34:17Z</time></trkpt><trkpt lat="43.82609570117353" lon="11.1517765976856"><ele>37.0</ele><time>2026-04-21T15:34:18Z</time></trkpt><trkpt lat="43.82585106542259" lon="11.151704762055877"><ele>37.5</ele><time>2026-04-21T15:34:19Z</time></trkpt><trkpt lat="43.825626000378385" lon="11.151642234507976"><ele>38.0</ele><time>2026-04-21T15:34:20Z</time></trkpt><trkpt lat="43.825407651429124" lon="11.15158762251439"><ele>38.0</ele><time>2026-04-21T15:34:21Z</time></trkpt><trkpt lat="43.82518105030105" lon="11.151529086788424"><ele>38.0</ele><time>2026-04-21T15:34:22Z</time></trkpt><trkpt lat="43.824958425400915" lon="11.15148767993595"><ele>38.0</ele><time>2026-04-21T15:34:23Z</time></trkpt><trkpt lat="43.82473760120765" lon="11.151445495287506"><ele>38.0</ele><time>2026-04-21T15:34:24Z</time></trkpt><trkpt lat="43.82453705449781" lon="11.151423929965725"><ele>38.0</ele><time>2026-04-21T15:34:25Z</time></trkpt><trkpt lat="43.82433603646719" lon="11.151407438394775"><ele>37.33333333333333</ele><time>2026-04-21T15:34:26Z</time></trkpt><trkpt lat="43.82413673839232" lon="11.151399848567406"><ele>36.666666666666664</ele><time>2026-04-21T15:34:27Z</time></trkpt><trkpt lat="43.82392688469969" lon="11.151396382152772"><ele>36.0</ele><time>2026-04-21T15:34:28Z</time></trkpt><trkpt lat="43.82372384601577" lon="11.151392933153415"><ele>36.0</ele><time>2026-04-21T15:34:29Z</time></trkpt><trkpt lat="43.82351730917558" lon="11.15139153741389"><ele>36.0</ele><time>2026-04-21T15:34:30Z</time></trkpt><trkpt lat="43.823312449957506" lon="11.151397273208547"><ele>36.0</ele><time>2026-04-21T15:34:31Z</time></trkpt><trkpt lat="43.82310234139699" lon="11.151388653060707"><ele>36.0</ele><time>2026-04-21T15:34:32Z</time></trkpt><trkpt lat="43.8228866944663" lon="11.151395525934559"><ele>36.0</ele><time>2026-04-21T15:34:33Z</time></trkpt><trkpt lat="43.82265606536319" lon="11.151402377793994"><ele>36.0</ele><time>2026-04-21T15:34:34Z</time></trkpt><trkpt lat="43.82241526163538" lon="11.151410585188636"><ele>35.5</ele><time>2026-04-21T15:34:35Z</time></trkpt><trkpt lat="43.82217608333179" lon="11.15141533191448"><ele>35.0</ele><time>2026-04-21T15:34:36Z</time></trkpt><trkpt lat="43.82193669450418" lon="11.151409818728009"><ele>35.0</ele><time>2026-04-21T15:34:37Z</time></trkpt><trkpt lat="43.82168915722708" lon="11.15140971887748"><ele>35.0</ele><time>2026-04-21T15:34:38Z</time></trkpt><trkpt lat="43.82144294650507" lon="11.151411445169645"><ele>35.0</ele><time>2026-04-21T15:34:39Z</time></trkpt><trkpt lat="43.82120896684762" lon="11.151392479062718"><ele>35.0</ele><time>2026-04-21T15:34:40Z</time></trkpt><trkpt lat="43.82097279142831" lon="11.151389849880005"><ele>35.33333333333333</ele><time>2026-04-21T15:34:41Z</time></trkpt><trkpt lat="43.82074559233854" lon="11.151389235165812"><ele>35.666666666666664</ele><time>2026-04-21T15:34:42Z</time></trkpt><trkpt lat="43.82053115398094" lon="11.151390767625875"><ele>36.0</ele><time>2026-04-21T15:34:43Z</time></trkpt><trkpt lat="43.820316184445225" lon="11.151394672326129"><ele>36.0</ele><time>2026-04-21T15:34:44Z</time></trkpt><trkpt lat="43.820100714931094" lon="11.151396083046123"><ele>36.0</ele><time>2026-04-21T15:34:45Z</time></trkpt><trkpt lat="43.819893466399684" lon="11.151393922889568"><ele>36.0</ele><time>2026-04-21T15:34:46Z</time></trkpt><trkpt lat="43.81969488159481" lon="11.151388374312226"><ele>36.0</ele><time>2026-04-21T15:34:47Z</time></trkpt><trkpt lat="43.81949669634184" lon="11.15138153829138"><ele>36.0</ele><time>2026-04-21T15:34:48Z</time></trkpt><trkpt lat="43.81929647329153" lon="11.151373817805231"><ele>36.0</ele><time>2026-04-21T15:34:49Z</time></trkpt><trkpt lat="43.81909483771655" lon="11.151370747043194"><ele>36.333333333333336</ele><time>2026-04-21T15:34:50Z</time></trkpt><trkpt lat="43.81889615924436" lon="11.15136960422206"><ele>36.66666666666667</ele><time>2026-04-21T15:34:51Z</time></trkpt><trkpt lat="43.8187014354523" lon="11.151366076459704"><ele>37.0</ele><time>2026-04-21T15:34:52Z</time></trkpt><trkpt lat="43.81850578598" lon="11.151362377407777"><ele>36.0</ele><time>2026-04-21T15:34:53Z</time></trkpt><trkpt lat="43.818308233368754" lon="11.151356036124357"><ele>35.0</ele><time>2026-04-21T15:34:54Z</time></trkpt><trkpt lat="43.81810050914258" lon="11.151353594793717"><ele>34.0</ele><time>2026-04-21T15:34:55Z</time></trkpt><trkpt lat="43.817885695130855" lon="11.151353490262736"><ele>34.0</ele><time>2026-04-21T15:34:56Z</time></trkpt><trkpt lat="43.81766431203843" lon="11.15135370037599"><ele>34.0</ele><time>2026-04-21T15:34:57Z</time></trkpt><trkpt lat="43.81743736086224" lon="11.15135634961521"><ele>34.0</ele><time>2026-04-21T15:34:58Z</time></trkpt><trkpt lat="43.81720488291051" lon="11.151357356521169"><ele>34.5</ele><time>2026-04-21T15:34:59Z</time></trkpt><trkpt lat="43.816965574219196" lon="11.15135137482192"><ele>35.0</ele><time>2026-04-21T15:35:00Z</time></trkpt><trkpt lat="43.81672344375684" lon="11.151342762913556"><ele>36.0</ele><time>2026-04-21T15:35:01Z</time></trkpt><trkpt lat="43.81647494002553" lon="11.151335845985257"><ele>37.0</ele><time>2026-04-21T15:35:02Z</time></trkpt><trkpt lat="43.81622541738449" lon="11.151333326556959"><ele>35.5</ele><time>2026-04-21T15:35:03Z</time></trkpt><trkpt lat="43.81597887164802" lon="11.151336144068148"><ele>34.0</ele><time>2026-04-21T15:35:04Z</time></trkpt><trkpt lat="43.815734570283134" lon="11.151332439067321"><ele>34.0</ele><time>2026-04-21T15:35:05Z</time></trkpt><trkpt lat="43.81548702617945" lon="11.151330458279023"><ele>34.0</ele><time>2026-04-21T15:35:06Z</time></trkpt><trkpt lat="43.8152337349357" lon="11.151334067762544"><ele>34.0</ele><time>2026-04-21T15:35:07Z</time></trkpt><trkpt lat="43.81497973521909" lon="11.151331998672498"><ele>34.0</ele><time>2026-04-21T15:35:08Z</time></trkpt><trkpt lat="43.814723465913715" lon="11.151342813833327"><ele>34.0</ele><time>2026-04-21T15:35:09Z</time></trkpt><trkpt lat="43.81447392564351" lon="11.151348183674537"><ele>34.0</ele><time>2026-04-21T15:35:10Z</time></trkpt><trkpt lat="43.81422428274034" lon="11.151360917842538"><ele>34.0</ele><time>2026-04-21T15:35:11Z</time></trkpt><trkpt lat="43.813978325141036" lon="11.151372699418035"><ele>34.0</ele><time>2026-04-21T15:35:12Z</time></trkpt><trkpt lat="43.81372540888789" lon="11.151383009491944"><ele>34.0</ele><time>2026-04-21T15:35:13Z</time></trkpt><trkpt lat="43.81346759899155" lon="11.151409719933673"><ele>34.0</ele><time>2026-04-21T15:35:14Z</time></trkpt><trkpt lat="43.813206337935675" lon="11.15143745945836"><ele>34.0</ele><time>2026-04-21T15:35:15Z</time></trkpt><trkpt lat="43.81294484974766" lon="11.15147625440206"><ele>34.0</ele><time>2026-04-21T15:35:16Z</time></trkpt><trkpt lat="43.81268417966259" lon="11.15152141116204"><ele>34.5</ele><time>2026-04-21T15:35:17Z</time></trkpt><trkpt lat="43.81242450141612" lon="11.15156996269135"><ele>35.0</ele><time>2026-04-21T15:35:18Z</time></trkpt><trkpt lat="43.812161822434106" lon="11.151626460496965"><ele>35.0</ele><time>2026-04-21T15:35:19Z</time></trkpt><trkpt lat="43.81190124767087" lon="11.151691707709617"><ele>35.0</ele><time>2026-04-21T15:35:20Z</time></trkpt><trkpt lat="43.811646038852224" lon="11.151757730845421"><ele>34.5</ele><time>2026-04-21T15:35:21Z</time></trkpt><trkpt lat="43.81139541750317" lon="11.151826794197357"><ele>34.0</ele><time>2026-04-21T15:35:22Z</time></trkpt><trkpt lat="43.81114469443556" lon="11.151896342689934"><ele>34.0</ele><time>2026-04-21T15:35:23Z</time></trkpt><trkpt lat="43.81089379928565" lon="11.151971471045275"><ele>34.0</ele><time>2026-04-21T15:35:24Z</time></trkpt><trkpt lat="43.810640198524574" lon="11.152043163150907"><ele>34.0</ele><time>2026-04-21T15:35:25Z</time></trkpt><trkpt lat="43.81038231291639" lon="11.152112844146325"><ele>34.0</ele><time>2026-04-21T15:35:26Z</time></trkpt><trkpt lat="43.81012336978975" lon="11.15218396484679"><ele>36.0</ele><time>2026-04-21T15:35:27Z</time></trkpt><trkpt lat="43.80986352888406" lon="11.152261065002914"><ele>38.0</ele><time>2026-04-21T15:35:28Z</time></trkpt><trkpt lat="43.809608050253594" lon="11.152330930866036"><ele>37.5</ele><time>2026-04-21T15:35:29Z</time></trkpt><trkpt lat="43.8093643457375" lon="11.152398091857847"><ele>37.0</ele><time>2026-04-21T15:35:30Z</time></trkpt><trkpt lat="43.809128877122255" lon="11.152462214759488"><ele>36.5</ele><time>2026-04-21T15:35:31Z</time></trkpt><trkpt lat="43.808891720640325" lon="11.152528040546681"><ele>36.0</ele><time>2026-04-21T15:35:32Z</time></trkpt><trkpt lat="43.80864545350029" lon="11.152598271494199"><ele>35.0</ele><time>2026-04-21T15:35:33Z</time></trkpt><trkpt lat="43.80839562497706" lon="11.15266989859056"><ele>34.0</ele><time>2026-04-21T15:35:34Z</time></trkpt><trkpt lat="43.80814562045029" lon="11.152739143146732"><ele>34.0</ele><time>2026-04-21T15:35:35Z</time></trkpt><trkpt lat="43.80789011420991" lon="11.152810921076826"><ele>34.0</ele><time>2026-04-21T15:35:36Z</time></trkpt><trkpt lat="43.80763864771199" lon="11.152878405051371"><ele>34.0</ele><time>2026-04-21T15:35:37Z</time></trkpt><trkpt lat="43.80737922955781" lon="11.152950110818278"><ele>34.0</ele><time>2026-04-21T15:35:38Z</time></trkpt><trkpt lat="43.8071265792347" lon="11.153018860971702"><ele>34.0</ele><time>2026-04-21T15:35:39Z</time></trkpt><trkpt lat="43.80688311398868" lon="11.153089151979401"><ele>34.0</ele><time>2026-04-21T15:35:40Z</time></trkpt><trkpt lat="43.806651584926946" lon="11.153156203952424"><ele>33.5</ele><time>2026-04-21T15:35:41Z</time></trkpt><trkpt lat="43.80642042318504" lon="11.153219396213128"><ele>33.0</ele><time>2026-04-21T15:35:42Z</time></trkpt><trkpt lat="43.80618252849953" lon="11.153290247391226"><ele>33.5</ele><time>2026-04-21T15:35:43Z</time></trkpt><trkpt lat="43.80594962742873" lon="11.153350379087016"><ele>34.0</ele><time>2026-04-21T15:35:44Z</time></trkpt><trkpt lat="43.80571810417282" lon="11.153418207310965"><ele>34.0</ele><time>2026-04-21T15:35:45Z</time></trkpt><trkpt lat="43.80548267808721" lon="11.153486445071355"><ele>34.0</ele><time>2026-04-21T15:35:46Z</time></trkpt><trkpt lat="43.80524384736093" lon="11.153555592021403"><ele>35.5</ele><time>2026-04-21T15:35:47Z</time></trkpt><trkpt lat="43.80500147837" lon="11.153623423715862"><ele>37.0</ele><time>2026-04-21T15:35:48Z</time></trkpt><trkpt lat="43.80475490659969" lon="11.15369193229442"><ele>37.0</ele><time>2026-04-21T15:35:49Z</time></trkpt><trkpt lat="43.804511352292174" lon="11.153757649428064"><ele>37.0</ele><time>2026-04-21T15:35:50Z</time></trkpt><trkpt lat="43.80426848389553" lon="11.153825321993489"><ele>36.0</ele><time>2026-04-21T15:35:51Z</time></trkpt><trkpt lat="43.80402915642094" lon="11.153896592744179"><ele>35.0</ele><time>2026-04-21T15:35:52Z</time></trkpt><trkpt lat="43.80379113295878" lon="11.153963121470188"><ele>35.0</ele><time>2026-04-21T15:35:53Z</time></trkpt><trkpt lat="43.80354794438183" lon="11.154028869753825"><ele>35.0</ele><time>2026-04-21T15:35:54Z</time></trkpt><trkpt lat="43.803302737370885" lon="11.1540979359672"><ele>34.5</ele><time>2026-04-21T15:35:55Z</time></trkpt><trkpt lat="43.8030540109723" lon="11.154168870111585"><ele>34.0</ele><time>2026-04-21T15:35:56Z</time></trkpt><trkpt lat="43.80280676933853" lon="11.154235077842658"><ele>35.0</ele><time>2026-04-21T15:35:57Z</time></trkpt><trkpt lat="43.80255374288836" lon="11.154306007639693"><ele>36.0</ele><time>2026-04-21T15:35:58Z</time></trkpt><trkpt lat="43.802307582294915" lon="11.154375017947663"><ele>36.0</ele><time>2026-04-21T15:35:59Z</time></trkpt><trkpt lat="43.80205751697188" lon="11.154446226905158"><ele>36.0</ele><time>2026-04-21T15:36:00Z</time></trkpt><trkpt lat="43.8018061897124" lon="11.154516519800007"><ele>36.5</ele><time>2026-04-21T15:36:01Z</time></trkpt><trkpt lat="43.80155334919923" lon="11.154582774842599"><ele>37.0</ele><time>2026-04-21T15:36:02Z</time></trkpt><trkpt lat="43.8012971202248" lon="11.154656230590698"><ele>37.0</ele><time>2026-04-21T15:36:03Z</time></trkpt><trkpt lat="43.801042163224814" lon="11.154727328857632"><ele>37.0</ele><time>2026-04-21T15:36:04Z</time></trkpt><trkpt lat="43.80078648828003" lon="11.15479994642568"><ele>36.0</ele><time>2026-04-21T15:36:05Z</time></trkpt><trkpt lat="43.800534528617916" lon="11.154868802736967"><ele>35.0</ele><time>2026-04-21T15:36:06Z</time></trkpt><trkpt lat="43.80027922957336" lon="11.154942479586852"><ele>35.5</ele><time>2026-04-21T15:36:07Z</time></trkpt><trkpt lat="43.80003039116758" lon="11.155005976606654"><ele>36.0</ele><time>2026-04-21T15:36:08Z</time></trkpt><trkpt lat="43.79977620876559" lon="11.15507754801638"><ele>36.0</ele><time>2026-04-21T15:36:09Z</time></trkpt><trkpt lat="43.799528432316315" lon="11.155147890019427"><ele>36.0</ele><time>2026-04-21T15:36:10Z</time></trkpt><trkpt lat="43.799288472137995" lon="11.155216219679179"><ele>35.5</ele><time>2026-04-21T15:36:11Z</time></trkpt><trkpt lat="43.799072436628954" lon="11.155276696180062"><ele>35.0</ele><time>2026-04-21T15:36:12Z</time></trkpt><trkpt lat="43.79884320347754" lon="11.155344828880386"><ele>35.0</ele><time>2026-04-21T15:36:13Z</time></trkpt><trkpt lat="43.79860541090624" lon="11.15541206892148"><ele>35.0</ele><time>2026-04-21T15:36:14Z</time></trkpt><trkpt lat="43.79836327119327" lon="11.155481439517477"><ele>35.5</ele><time>2026-04-21T15:36:15Z</time></trkpt><trkpt lat="43.7981215749588" lon="11.155548917840763"><ele>36.0</ele><time>2026-04-21T15:36:16Z</time></trkpt><trkpt lat="43.79787897884311" lon="11.155614556889375"><ele>36.0</ele><time>2026-04-21T15:36:17Z</time></trkpt><trkpt lat="43.797633219322556" lon="11.155683766137795"><ele>36.0</ele><time>2026-04-21T15:36:18Z</time></trkpt><trkpt lat="43.79737676097024" lon="11.155756823685776"><ele>36.0</ele><time>2026-04-21T15:36:19Z</time></trkpt><trkpt lat="43.79711423674735" lon="11.155830997412792"><ele>36.0</ele><time>2026-04-21T15:36:20Z</time></trkpt><trkpt lat="43.79685612068472" lon="11.155904254688181"><ele>35.5</ele><time>2026-04-21T15:36:21Z</time></trkpt><trkpt lat="43.79659934800774" lon="11.1559771000679"><ele>35.0</ele><time>2026-04-21T15:36:22Z</time></trkpt><trkpt lat="43.79634852238722" lon="11.156047559123436"><ele>35.0</ele><time>2026-04-21T15:36:23Z</time></trkpt><trkpt lat="43.79610831727666" lon="11.156115498230019"><ele>35.0</ele><time>2026-04-21T15:36:24Z</time></trkpt><trkpt lat="43.7958818224987" lon="11.156177677651677"><ele>35.0</ele><time>2026-04-21T15:36:25Z</time></trkpt><trkpt lat="43.79565604945968" lon="11.156239299826302"><ele>35.0</ele><time>2026-04-21T15:36:26Z</time></trkpt><trkpt lat="43.79543219671286" lon="11.156298902402348"><ele>35.0</ele><time>2026-04-21T15:36:27Z</time></trkpt><trkpt lat="43.79521575181788" lon="11.156357598035447"><ele>35.0</ele><time>2026-04-21T15:36:28Z</time></trkpt><trkpt lat="43.79499345545585" lon="11.156419896834437"><ele>35.0</ele><time>2026-04-21T15:36:29Z</time></trkpt><trkpt lat="43.79476054393156" lon="11.156484243476184"><ele>35.0</ele><time>2026-04-21T15:36:30Z</time></trkpt><trkpt lat="43.794519795992194" lon="11.156551521849146"><ele>35.0</ele><time>2026-04-21T15:36:31Z</time></trkpt><trkpt lat="43.794275050136505" lon="11.156619125763099"><ele>35.5</ele><time>2026-04-21T15:36:32Z</time></trkpt><trkpt lat="43.79402359229795" lon="11.15668753514467"><ele>36.0</ele><time>2026-04-21T15:36:33Z</time></trkpt><trkpt lat="43.79377170830499" lon="11.156754137168315"><ele>36.0</ele><time>2026-04-21T15:36:34Z</time></trkpt><trkpt lat="43.7935259914313" lon="11.156821863341602"><ele>36.0</ele><time>2026-04-21T15:36:35Z</time></trkpt><trkpt lat="43.79327873705911" lon="11.15689061815914"><ele>37.5</ele><time>2026-04-21T15:36:36Z</time></trkpt><trkpt lat="43.7930257131434" lon="11.156962721384593"><ele>39.0</ele><time>2026-04-21T15:36:37Z</time></trkpt><trkpt lat="43.792770386907975" lon="11.157033412188559"><ele>37.5</ele><time>2026-04-21T15:36:38Z</time></trkpt><trkpt lat="43.79251199998019" lon="11.157104087781759"><ele>36.0</ele><time>2026-04-21T15:36:39Z</time></trkpt><trkpt lat="43.79225150944338" lon="11.157175919061727"><ele>36.0</ele><time>2026-04-21T15:36:40Z</time></trkpt><trkpt lat="43.79198861759982" lon="11.15725003486895"><ele>36.0</ele><time>2026-04-21T15:36:41Z</time></trkpt><trkpt lat="43.79172359833125" lon="11.157324446198242"><ele>37.5</ele><time>2026-04-21T15:36:42Z</time></trkpt><trkpt lat="43.79145940917076" lon="11.15740084969811"><ele>39.0</ele><time>2026-04-21T15:36:43Z</time></trkpt><trkpt lat="43.79120075562318" lon="11.157474079778488"><ele>38.0</ele><time>2026-04-21T15:36:44Z</time></trkpt><trkpt lat="43.790939233644515" lon="11.157549373856805"><ele>37.0</ele><time>2026-04-21T15:36:45Z</time></trkpt><trkpt lat="43.79067501874317" lon="11.157623308393383"><ele>37.0</ele><time>2026-04-21T15:36:46Z</time></trkpt><trkpt lat="43.7904091234092" lon="11.15769744438057"><ele>37.0</ele><time>2026-04-21T15:36:47Z</time></trkpt><trkpt lat="43.79014217893289" lon="11.157772869103631"><ele>37.0</ele><time>2026-04-21T15:36:48Z</time></trkpt><trkpt lat="43.78988099519846" lon="11.15784473685889"><ele>37.0</ele><time>2026-04-21T15:36:49Z</time></trkpt><trkpt lat="43.78961861418807" lon="11.157916402523048"><ele>37.0</ele><time>2026-04-21T15:36:50Z</time></trkpt><trkpt lat="43.78935812959632" lon="11.157987087421205"><ele>37.0</ele><time>2026-04-21T15:36:51Z</time></trkpt><trkpt lat="43.789093715411134" lon="11.158061103372134"><ele>36.5</ele><time>2026-04-21T15:36:52Z</time></trkpt><trkpt lat="43.78883311632306" lon="11.158137573577505"><ele>36.0</ele><time>2026-04-21T15:36:53Z</time></trkpt><trkpt lat="43.788571315992826" lon="11.158211442357914"><ele>37.5</ele><time>2026-04-21T15:36:54Z</time></trkpt><trkpt lat="43.788313141721204" lon="11.158282552779664"><ele>39.0</ele><time>2026-04-21T15:36:55Z</time></trkpt><trkpt lat="43.78805865061402" lon="11.158351696663532"><ele>39.0</ele><time>2026-04-21T15:36:56Z</time></trkpt><trkpt lat="43.78780393662386" lon="11.158423120270484"><ele>39.0</ele><time>2026-04-21T15:36:57Z</time></trkpt><trkpt lat="43.78754590699376" lon="11.15849428680303"><ele>38.5</ele><time>2026-04-21T15:36:58Z</time></trkpt><trkpt lat="43.787288417485" lon="11.158568547801329"><ele>38.0</ele><time>2026-04-21T15:36:59Z</time></trkpt><trkpt lat="43.78702795869064" lon="11.158638696810044"><ele>37.0</ele><time>2026-04-21T15:37:00Z</time></trkpt><trkpt lat="43.786776872526126" lon="11.158708394098182"><ele>36.0</ele><time>2026-04-21T15:37:01Z</time></trkpt><trkpt lat="43.78652300300785" lon="11.158777212163859"><ele>36.0</ele><time>2026-04-21T15:37:02Z</time></trkpt><trkpt lat="43.78626777842149" lon="11.158847413631733"><ele>36.0</ele><time>2026-04-21T15:37:03Z</time></trkpt><trkpt lat="43.78601869649174" lon="11.158920560828179"><ele>36.5</ele><time>2026-04-21T15:37:04Z</time></trkpt><trkpt lat="43.78576874508048" lon="11.158997534228998"><ele>37.0</ele><time>2026-04-21T15:37:05Z</time></trkpt><trkpt lat="43.78551947343914" lon="11.159079277691529"><ele>37.5</ele><time>2026-04-21T15:37:06Z</time></trkpt><trkpt lat="43.785260625545355" lon="11.159158369122727"><ele>38.0</ele><time>2026-04-21T15:37:07Z</time></trkpt><trkpt lat="43.785024977618704" lon="11.159204622869439"><ele>38.0</ele><time>2026-04-21T15:37:08Z</time></trkpt><trkpt lat="43.784768307727326" lon="11.159262299119039"><ele>38.0</ele><time>2026-04-21T15:37:09Z</time></trkpt><trkpt lat="43.78449625604666" lon="11.159364080283565"><ele>37.5</ele><time>2026-04-21T15:37:10Z</time></trkpt><trkpt lat="43.78423116950603" lon="11.159429776409935"><ele>37.0</ele><time>2026-04-21T15:37:11Z</time></trkpt><trkpt lat="43.78395964407913" lon="11.159502140140622"><ele>37.0</ele><time>2026-04-21T15:37:12Z</time></trkpt><trkpt lat="43.7836982128061" lon="11.15957633607376"><ele>37.0</ele><time>2026-04-21T15:37:13Z</time></trkpt><trkpt lat="43.78343214950147" lon="11.15965537586293"><ele>37.0</ele><time>2026-04-21T15:37:14Z</time></trkpt><trkpt lat="43.7831672372911" lon="11.159730320747336"><ele>37.0</ele><time>2026-04-21T15:37:15Z</time></trkpt><trkpt lat="43.78289922709788" lon="11.159806026907287"><ele>36.0</ele><time>2026-04-21T15:37:16Z</time></trkpt><trkpt lat="43.782626908094315" lon="11.159883614490694"><ele>35.0</ele><time>2026-04-21T15:37:17Z</time></trkpt><trkpt lat="43.78235199460114" lon="11.159958188369616"><ele>35.0</ele><time>2026-04-21T15:37:18Z</time></trkpt><trkpt lat="43.782076081216736" lon="11.160036822513742"><ele>35.0</ele><time>2026-04-21T15:37:19Z</time></trkpt><trkpt lat="43.78179977346156" lon="11.160105594201696"><ele>34.5</ele><time>2026-04-21T15:37:20Z</time></trkpt><trkpt lat="43.78152415375175" lon="11.16017466065681"><ele>34.0</ele><time>2026-04-21T15:37:21Z</time></trkpt><trkpt lat="43.781243484801394" lon="11.160254039645903"><ele>35.0</ele><time>2026-04-21T15:37:22Z</time></trkpt><trkpt lat="43.78096355445004" lon="11.160333807888394"><ele>36.0</ele><time>2026-04-21T15:37:23Z</time></trkpt><trkpt lat="43.78068936527773" lon="11.160407574246562"><ele>36.0</ele><time>2026-04-21T15:37:24Z</time></trkpt><trkpt lat="43.78041555010617" lon="11.160488642689042"><ele>36.0</ele><time>2026-04-21T15:37:25Z</time></trkpt><trkpt lat="43.780149157929536" lon="11.160564932722236"><ele>36.0</ele><time>2026-04-21T15:37:26Z</time></trkpt><trkpt lat="43.779880597685974" lon="11.160635270183574"><ele>36.0</ele><time>2026-04-21T15:37:27Z</time></trkpt><trkpt lat="43.7796110928216" lon="11.160717933139601"><ele>36.5</ele><time>2026-04-21T15:37:28Z</time></trkpt><trkpt lat="43.77934022736783" lon="11.160790420309748"><ele>37.0</ele><time>2026-04-21T15:37:29Z</time></trkpt><trkpt lat="43.77906927242082" lon="11.160866748557082"><ele>37.0</ele><time>2026-04-21T15:37:30Z</time></trkpt><trkpt lat="43.77880358330749" lon="11.160936613584136"><ele>37.0</ele><time>2026-04-21T15:37:31Z</time></trkpt><trkpt lat="43.778535982499065" lon="11.161007191532347"><ele>36.0</ele><time>2026-04-21T15:37:32Z</time></trkpt><trkpt lat="43.778271768451184" lon="11.161085063023615"><ele>35.0</ele><time>2026-04-21T15:37:33Z</time></trkpt><trkpt lat="43.778011200807846" lon="11.161157926751933"><ele>35.0</ele><time>2026-04-21T15:37:34Z</time></trkpt><trkpt lat="43.777746115746076" lon="11.161236032067366"><ele>35.0</ele><time>2026-04-21T15:37:35Z</time></trkpt><trkpt lat="43.77747993795517" lon="11.16129860640958"><ele>34.5</ele><time>2026-04-21T15:37:36Z</time></trkpt><trkpt lat="43.77721862765528" lon="11.161372950787342"><ele>34.0</ele><time>2026-04-21T15:37:37Z</time></trkpt><trkpt lat="43.77695858171455" lon="11.161444357522242"><ele>35.0</ele><time>2026-04-21T15:37:38Z</time></trkpt><trkpt lat="43.77669005005575" lon="11.161520733945796"><ele>36.0</ele><time>2026-04-21T15:37:39Z</time></trkpt><trkpt lat="43.77642455608726" lon="11.161594780399623"><ele>36.5</ele><time>2026-04-21T15:37:40Z</time></trkpt><trkpt lat="43.77616125305379" lon="11.16167023520981"><ele>37.0</ele><time>2026-04-21T15:37:41Z</time></trkpt><trkpt lat="43.77589359714159" lon="11.161746849369623"><ele>35.5</ele><time>2026-04-21T15:37:42Z</time></trkpt><trkpt lat="43.77562847569053" lon="11.161821320097191"><ele>34.0</ele><time>2026-04-21T15:37:43Z</time></trkpt><trkpt lat="43.77535771037692" lon="11.161898821264787"><ele>34.5</ele><time>2026-04-21T15:37:44Z</time></trkpt><trkpt lat="43.77508831711326" lon="11.161976650904613"><ele>35.0</ele><time>2026-04-21T15:37:45Z</time></trkpt><trkpt lat="43.774812856437485" lon="11.162056160880526"><ele>35.0</ele><time>2026-04-21T15:37:46Z</time></trkpt><trkpt lat="43.77453487690505" lon="11.162136247918076"><ele>35.0</ele><time>2026-04-21T15:37:47Z</time></trkpt><trkpt lat="43.77425788567165" lon="11.162214431165312"><ele>34.5</ele><time>2026-04-21T15:37:48Z</time></trkpt><trkpt lat="43.77397712284058" lon="11.16229433908645"><ele>34.0</ele><time>2026-04-21T15:37:49Z</time></trkpt><trkpt lat="43.77370390564052" lon="11.162373615909063"><ele>34.5</ele><time>2026-04-21T15:37:50Z</time></trkpt><trkpt lat="43.773440398777616" lon="11.162457590598013"><ele>35.0</ele><time>2026-04-21T15:37:51Z</time></trkpt><trkpt lat="43.77317385847726" lon="11.162544337179568"><ele>35.0</ele><time>2026-04-21T15:37:52Z</time></trkpt><trkpt lat="43.77290322011029" lon="11.16263549297296"><ele>35.0</ele><time>2026-04-21T15:37:53Z</time></trkpt><trkpt lat="43.772637578894575" lon="11.162744068226335"><ele>35.0</ele><time>2026-04-21T15:37:54Z</time></trkpt><trkpt lat="43.77237542701488" lon="11.162843330661048"><ele>35.0</ele><time>2026-04-21T15:37:55Z</time></trkpt><trkpt lat="43.77210515365976" lon="11.162947151419191"><ele>35.5</ele><time>2026-04-21T15:37:56Z</time></trkpt><trkpt lat="43.7718398184056" lon="11.163065209588204"><ele>36.0</ele><time>2026-04-21T15:37:57Z</time></trkpt><trkpt lat="43.77158034381885" lon="11.163186415576986"><ele>37.0</ele><time>2026-04-21T15:37:58Z</time></trkpt><trkpt lat="43.7713235932307" lon="11.163304673160082"><ele>38.0</ele><time>2026-04-21T15:37:59Z</time></trkpt><trkpt lat="43.77107833850511" lon="11.163438270977126"><ele>37.0</ele><time>2026-04-21T15:38:00Z</time></trkpt><trkpt lat="43.77082794639553" lon="11.163576117151923"><ele>36.0</ele><time>2026-04-21T15:38:01Z</time></trkpt><trkpt lat="43.770578839803505" lon="11.163725253309632"><ele>36.0</ele><time>2026-04-21T15:38:02Z</time></trkpt><trkpt lat="43.77033122271592" lon="11.163880607960609"><ele>36.0</ele><time>2026-04-21T15:38:03Z</time></trkpt><trkpt lat="43.770084741761295" lon="11.164024005271985"><ele>36.5</ele><time>2026-04-21T15:38:04Z</time></trkpt><trkpt lat="43.769832899288104" lon="11.164200771873743"><ele>37.0</ele><time>2026-04-21T15:38:05Z</time></trkpt><trkpt lat="43.76958639600872" lon="11.16437692216613"><ele>39.0</ele><time>2026-04-21T15:38:06Z</time></trkpt><trkpt lat="43.76933828533717" lon="11.164552513450175"><ele>41.0</ele><time>2026-04-21T15:38:07Z</time></trkpt><trkpt lat="43.769099565211036" lon="11.164729673296932"><ele>40.5</ele><time>2026-04-21T15:38:08Z</time></trkpt><trkpt lat="43.76886238179594" lon="11.164900088059257"><ele>40.0</ele><time>2026-04-21T15:38:09Z</time></trkpt><trkpt lat="43.76863357562194" lon="11.165070158359171"><ele>39.0</ele><time>2026-04-21T15:38:10Z</time></trkpt><trkpt lat="43.76840203918234" lon="11.16524570791019"><ele>38.0</ele><time>2026-04-21T15:38:11Z</time></trkpt><trkpt lat="43.76816828574198" lon="11.165417292401402"><ele>38.0</ele><time>2026-04-21T15:38:12Z</time></trkpt><trkpt lat="43.767929902785944" lon="11.165584993969228"><ele>38.0</ele><time>2026-04-21T15:38:13Z</time></trkpt><trkpt lat="43.767694442634024" lon="11.165753498140733"><ele>37.5</ele><time>2026-04-21T15:38:14Z</time></trkpt><trkpt lat="43.76746511152103" lon="11.165919271443693"><ele>37.0</ele><time>2026-04-21T15:38:15Z</time></trkpt><trkpt lat="43.76723538494951" lon="11.166087377979974"><ele>37.0</ele><time>2026-04-21T15:38:16Z</time></trkpt><trkpt lat="43.76700633663727" lon="11.166260280087087"><ele>37.0</ele><time>2026-04-21T15:38:17Z</time></trkpt><trkpt lat="43.76677724772599" lon="11.166434135899118"><ele>37.0</ele><time>2026-04-21T15:38:18Z</time></trkpt><trkpt lat="43.766546104647546" lon="11.166603356290407"><ele>37.0</ele><time>2026-04-21T15:38:19Z</time></trkpt><trkpt lat="43.766317336695494" lon="11.16677416997787"><ele>37.0</ele><time>2026-04-21T15:38:20Z</time></trkpt><trkpt lat="43.766092049481074" lon="11.166947013545142"><ele>37.0</ele><time>2026-04-21T15:38:21Z</time></trkpt><trkpt lat="43.76586128149465" lon="11.167113395281007"><ele>37.5</ele><time>2026-04-21T15:38:22Z</time></trkpt><trkpt lat="43.765633613557604" lon="11.167278802655211"><ele>38.0</ele><time>2026-04-21T15:38:23Z</time></trkpt><trkpt lat="43.765430886584056" lon="11.167437460000171"><ele>38.0</ele><time>2026-04-21T15:38:24Z</time></trkpt><trkpt lat="43.765254832287155" lon="11.167584952892403"><ele>38.0</ele><time>2026-04-21T15:38:25Z</time></trkpt><trkpt lat="43.76505881790582" lon="11.167756512795162"><ele>38.0</ele><time>2026-04-21T15:38:26Z</time></trkpt><trkpt lat="43.76485933935577" lon="11.167923533524826"><ele>37.5</ele><time>2026-04-21T15:38:27Z</time></trkpt><trkpt lat="43.76464416149794" lon="11.168098177541953"><ele>37.0</ele><time>2026-04-21T15:38:28.069Z</time></trkpt><trkpt lat="43.764443559970864" lon="11.16826166958572"><ele>38.0</ele><time>2026-04-21T15:38:29.068Z</time></trkpt><trkpt lat="43.764231226738744" lon="11.168389939316018"><ele>39.0</ele><time>2026-04-21T15:38:30.069Z</time></trkpt><trkpt lat="43.76400353134458" lon="11.168537906490265"><ele>39.0</ele><time>2026-04-21T15:38:31.065Z</time></trkpt><trkpt lat="43.76379809529038" lon="11.168655291380384"><ele>39.0</ele><time>2026-04-21T15:38:32.034Z</time></trkpt><trkpt lat="43.76361704308068" lon="11.168752446818658"><ele>39.0</ele><time>2026-04-21T15:38:33.024Z</time></trkpt><trkpt lat="43.76340462835489" lon="11.168864348463735"><ele>42.0</ele><time>2026-04-21T15:38:34.025Z</time></trkpt><trkpt lat="43.7623654242203" lon="11.16919408526276"><ele>42.0</ele><time>2026-04-21T15:38:38Z</time></trkpt><trkpt lat="43.76213603776846" lon="11.169289385807367"><ele>42.0</ele><time>2026-04-21T15:38:39Z</time></trkpt><trkpt lat="43.761845265524215" lon="11.169378823038983"><ele>41.0</ele><time>2026-04-21T15:38:40Z</time></trkpt><trkpt lat="43.76160792191552" lon="11.169475792398888"><ele>40.0</ele><time>2026-04-21T15:38:41Z</time></trkpt><trkpt lat="43.76136248772719" lon="11.169552691171068"><ele>40.0</ele><time>2026-04-21T15:38:42Z</time></trkpt><trkpt lat="43.761105150239715" lon="11.169609262389177"><ele>40.0</ele><time>2026-04-21T15:38:43Z</time></trkpt><trkpt lat="43.76085258302743" lon="11.169691424017596"><ele>40.0</ele><time>2026-04-21T15:38:44Z</time></trkpt><trkpt lat="43.76060080545741" lon="11.169743889204987"><ele>40.0</ele><time>2026-04-21T15:38:45Z</time></trkpt><trkpt lat="43.760348537839924" lon="11.169796427172669"><ele>40.0</ele><time>2026-04-21T15:38:46Z</time></trkpt><trkpt lat="43.76011721589716" lon="11.16983265102622"><ele>40.0</ele><time>2026-04-21T15:38:47Z</time></trkpt><trkpt lat="43.75988144452294" lon="11.169874544344294"><ele>40.0</ele><time>2026-04-21T15:38:48Z</time></trkpt><trkpt lat="43.759644900007515" lon="11.169919770854557"><ele>40.0</ele><time>2026-04-21T15:38:49Z</time></trkpt><trkpt lat="43.759405409267224" lon="11.169966343924848"><ele>41.0</ele><time>2026-04-21T15:38:50Z</time></trkpt><trkpt lat="43.75915169884143" lon="11.1700075950677"><ele>42.0</ele><time>2026-04-21T15:38:51Z</time></trkpt><trkpt lat="43.758911629156685" lon="11.170062329046553"><ele>42.0</ele><time>2026-04-21T15:38:52Z</time></trkpt><trkpt lat="43.75864670899946" lon="11.17010383379168"><ele>42.0</ele><time>2026-04-21T15:38:53Z</time></trkpt><trkpt lat="43.75838247933278" lon="11.17015163170638"><ele>41.5</ele><time>2026-04-21T15:38:54Z</time></trkpt><trkpt lat="43.75811980345485" lon="11.170200983097617"><ele>41.0</ele><time>2026-04-21T15:38:55Z</time></trkpt><trkpt lat="43.757868679591844" lon="11.170245869178398"><ele>41.0</ele><time>2026-04-21T15:38:56Z</time></trkpt><trkpt lat="43.75762253077626" lon="11.170289839542049"><ele>41.0</ele><time>2026-04-21T15:38:57Z</time></trkpt><trkpt lat="43.75737137220402" lon="11.17033640920696"><ele>41.0</ele><time>2026-04-21T15:38:58Z</time></trkpt><trkpt lat="43.75711565077766" lon="11.170384031902046"><ele>41.0</ele><time>2026-04-21T15:38:59Z</time></trkpt><trkpt lat="43.756859541125735" lon="11.17042988601764"><ele>42.0</ele><time>2026-04-21T15:39:00Z</time></trkpt><trkpt lat="43.756604624481525" lon="11.170478269082478"><ele>43.0</ele><time>2026-04-21T15:39:01Z</time></trkpt><trkpt lat="43.7563469834036" lon="11.170528214724783"><ele>43.0</ele><time>2026-04-21T15:39:02Z</time></trkpt><trkpt lat="43.75608649439401" lon="11.170575150333402"><ele>43.0</ele><time>2026-04-21T15:39:03Z</time></trkpt><trkpt lat="43.755825002245444" lon="11.170621642285202"><ele>43.5</ele><time>2026-04-21T15:39:04Z</time></trkpt><trkpt lat="43.75556315383856" lon="11.170679300646523"><ele>44.0</ele><time>2026-04-21T15:39:05Z</time></trkpt><trkpt lat="43.75531353467426" lon="11.170720368497742"><ele>43.5</ele><time>2026-04-21T15:39:06Z</time></trkpt><trkpt lat="43.75506027234239" lon="11.170770507846548"><ele>43.0</ele><time>2026-04-21T15:39:07Z</time></trkpt><trkpt lat="43.75481027277709" lon="11.170818850233092"><ele>43.0</ele><time>2026-04-21T15:39:08Z</time></trkpt><trkpt lat="43.75455696678269" lon="11.170866503624927"><ele>43.0</ele><time>2026-04-21T15:39:09Z</time></trkpt><trkpt lat="43.75431465388959" lon="11.17091102033238"><ele>43.5</ele><time>2026-04-21T15:39:10Z</time></trkpt><trkpt lat="43.75406944288205" lon="11.170953776527021"><ele>44.0</ele><time>2026-04-21T15:39:11Z</time></trkpt><trkpt lat="43.753825226742094" lon="11.170996448978114"><ele>44.0</ele><time>2026-04-21T15:39:12Z</time></trkpt><trkpt lat="43.753577848091176" lon="11.171043840646636"><ele>44.0</ele><time>2026-04-21T15:39:13Z</time></trkpt><trkpt lat="43.753322498400216" lon="11.171091042135854"><ele>45.0</ele><time>2026-04-21T15:39:14Z</time></trkpt><trkpt lat="43.75306842044749" lon="11.171143409300976"><ele>46.0</ele><time>2026-04-21T15:39:15Z</time></trkpt><trkpt lat="43.7528065861591" lon="11.171194035342518"><ele>45.5</ele><time>2026-04-21T15:39:16Z</time></trkpt><trkpt lat="43.75253941409351" lon="11.171239564758578"><ele>45.0</ele><time>2026-04-21T15:39:17Z</time></trkpt><trkpt lat="43.75227083575446" lon="11.171286396511961"><ele>45.0</ele><time>2026-04-21T15:39:18Z</time></trkpt><trkpt lat="43.752001839505155" lon="11.171332929726358"><ele>45.0</ele><time>2026-04-21T15:39:19Z</time></trkpt><trkpt lat="43.75172635178492" lon="11.171384351181388"><ele>45.0</ele><time>2026-04-21T15:39:20Z</time></trkpt><trkpt lat="43.751446943083984" lon="11.17143981907381"><ele>45.0</ele><time>2026-04-21T15:39:21Z</time></trkpt><trkpt lat="43.751165391590696" lon="11.171495038951338"><ele>46.0</ele><time>2026-04-21T15:39:22Z</time></trkpt><trkpt lat="43.75088205601681" lon="11.171547321121007"><ele>47.0</ele><time>2026-04-21T15:39:23Z</time></trkpt><trkpt lat="43.75059483960246" lon="11.171600632389632"><ele>47.0</ele><time>2026-04-21T15:39:24Z</time></trkpt><trkpt lat="43.75031241862791" lon="11.171651231474321"><ele>47.0</ele><time>2026-04-21T15:39:25Z</time></trkpt><trkpt lat="43.75003599359095" lon="11.171701842925318"><ele>47.0</ele><time>2026-04-21T15:39:26Z</time></trkpt><trkpt lat="43.74976254351213" lon="11.171755194144898"><ele>47.0</ele><time>2026-04-21T15:39:27Z</time></trkpt><trkpt lat="43.749489504862154" lon="11.171805944177335"><ele>48.0</ele><time>2026-04-21T15:39:28Z</time></trkpt><trkpt lat="43.749220834615535" lon="11.171853684337327"><ele>49.0</ele><time>2026-04-21T15:39:29Z</time></trkpt><trkpt lat="43.748950830157824" lon="11.171899235407933"><ele>49.0</ele><time>2026-04-21T15:39:30Z</time></trkpt><trkpt lat="43.74868283317956" lon="11.171945460253632"><ele>49.0</ele><time>2026-04-21T15:39:31Z</time></trkpt><trkpt lat="43.7484244615751" lon="11.171998161949864"><ele>49.0</ele><time>2026-04-21T15:39:32Z</time></trkpt><trkpt lat="43.74816829798646" lon="11.172064510997128"><ele>49.0</ele><time>2026-04-21T15:39:33Z</time></trkpt><trkpt lat="43.747923427194614" lon="11.17214652039169"><ele>49.0</ele><time>2026-04-21T15:39:34Z</time></trkpt><trkpt lat="43.74767909164486" lon="11.172245302819004"><ele>49.0</ele><time>2026-04-21T15:39:35Z</time></trkpt><trkpt lat="43.74744000750541" lon="11.17235917883343"><ele>49.0</ele><time>2026-04-21T15:39:36Z</time></trkpt><trkpt lat="43.74720398426703" lon="11.172492735267891"><ele>49.0</ele><time>2026-04-21T15:39:37Z</time></trkpt><trkpt lat="43.74697368696955" lon="11.172648339509843"><ele>50.5</ele><time>2026-04-21T15:39:38Z</time></trkpt><trkpt lat="43.74674680496769" lon="11.172821090489862"><ele>52.0</ele><time>2026-04-21T15:39:39Z</time></trkpt><trkpt lat="43.74653110973118" lon="11.173006498894615"><ele>52.0</ele><time>2026-04-21T15:39:40Z</time></trkpt><trkpt lat="43.74631837283235" lon="11.173209440765186"><ele>52.0</ele><time>2026-04-21T15:39:41Z</time></trkpt><trkpt lat="43.74611477957974" lon="11.17343194272538"><ele>53.5</ele><time>2026-04-21T15:39:42Z</time></trkpt><trkpt lat="43.74591921838965" lon="11.173674324213437"><ele>55.0</ele><time>2026-04-21T15:39:43Z</time></trkpt><trkpt lat="43.74573657553155" lon="11.173932585913517"><ele>54.5</ele><time>2026-04-21T15:39:44Z</time></trkpt><trkpt lat="43.74556263867455" lon="11.174203893392441"><ele>54.0</ele><time>2026-04-21T15:39:45Z</time></trkpt><trkpt lat="43.74541091239857" lon="11.174482771431462"><ele>54.0</ele><time>2026-04-21T15:39:46Z</time></trkpt><trkpt lat="43.745270806080995" lon="11.174779979225502"><ele>54.0</ele><time>2026-04-21T15:39:47Z</time></trkpt><trkpt lat="43.74513723648633" lon="11.17508923471218"><ele>54.0</ele><time>2026-04-21T15:39:48Z</time></trkpt><trkpt lat="43.74501444524193" lon="11.175405587548465"><ele>54.0</ele><time>2026-04-21T15:39:49Z</time></trkpt><trkpt lat="43.74490201162197" lon="11.175737917585325"><ele>54.0</ele><time>2026-04-21T15:39:50Z</time></trkpt><trkpt lat="43.74479660896307" lon="11.17607793303841"><ele>54.0</ele><time>2026-04-21T15:39:51Z</time></trkpt><trkpt lat="43.74469186707309" lon="11.176426229721933"><ele>56.5</ele><time>2026-04-21T15:39:52Z</time></trkpt><trkpt lat="43.74458614625033" lon="11.176780131778314"><ele>59.0</ele><time>2026-04-21T15:39:53Z</time></trkpt><trkpt lat="43.74448328393932" lon="11.177138501240046"><ele>58.5</ele><time>2026-04-21T15:39:54Z</time></trkpt><trkpt lat="43.744380401451586" lon="11.17750096701788"><ele>58.0</ele><time>2026-04-21T15:39:55Z</time></trkpt><trkpt lat="43.74427592142618" lon="11.177856209866743"><ele>59.5</ele><time>2026-04-21T15:39:56Z</time></trkpt><trkpt lat="43.7441706885035" lon="11.178194234461913"><ele>61.0</ele><time>2026-04-21T15:39:57Z</time></trkpt><trkpt lat="43.7440509105788" lon="11.178524560995823"><ele>61.0</ele><time>2026-04-21T15:39:58Z</time></trkpt><trkpt lat="43.74391820408136" lon="11.178845750153188"><ele>61.0</ele><time>2026-04-21T15:39:59Z</time></trkpt><trkpt lat="43.74377877671502" lon="11.179139305942421"><ele>61.0</ele><time>2026-04-21T15:40:00Z</time></trkpt><trkpt lat="43.74362343095286" lon="11.179423316820731"><ele>61.0</ele><time>2026-04-21T15:40:01Z</time></trkpt><trkpt lat="43.743450126295464" lon="11.179692482826287"><ele>59.5</ele><time>2026-04-21T15:40:02Z</time></trkpt><trkpt lat="43.7432606679669" lon="11.179945631731373"><ele>58.0</ele><time>2026-04-21T15:40:03Z</time></trkpt><trkpt lat="43.74305554857275" lon="11.180188043957626"><ele>58.0</ele><time>2026-04-21T15:40:04Z</time></trkpt><trkpt lat="43.74284003028816" lon="11.180416939140764"><ele>58.0</ele><time>2026-04-21T15:40:05Z</time></trkpt><trkpt lat="43.74261960624134" lon="11.180638004012172"><ele>57.5</ele><time>2026-04-21T15:40:06Z</time></trkpt><trkpt lat="43.74239461870487" lon="11.180855622450672"><ele>57.0</ele><time>2026-04-21T15:40:07Z</time></trkpt><trkpt lat="43.74216998985261" lon="11.181063905587754"><ele>57.0</ele><time>2026-04-21T15:40:08Z</time></trkpt><trkpt lat="43.74194825822228" lon="11.181246696094048"><ele>57.0</ele><time>2026-04-21T15:40:09Z</time></trkpt><trkpt lat="43.741727246158426" lon="11.181420637698743"><ele>58.0</ele><time>2026-04-21T15:40:10Z</time></trkpt><trkpt lat="43.74147706516547" lon="11.18169211516019"><ele>59.0</ele><time>2026-04-21T15:40:11Z</time></trkpt><trkpt lat="43.74126196176442" lon="11.181891091638184"><ele>59.0</ele><time>2026-04-21T15:40:12Z</time></trkpt><trkpt lat="43.741060548813515" lon="11.182075904343703"><ele>59.0</ele><time>2026-04-21T15:40:13Z</time></trkpt><trkpt lat="43.740850547762236" lon="11.18227084533662"><ele>61.0</ele><time>2026-04-21T15:40:14Z</time></trkpt><trkpt lat="43.74063963013094" lon="11.182466967582801"><ele>63.0</ele><time>2026-04-21T15:40:15Z</time></trkpt><trkpt lat="43.7404211776036" lon="11.18266978884879"><ele>67.0</ele><time>2026-04-21T15:40:16Z</time></trkpt><trkpt lat="43.7402066070386" lon="11.1828756723455"><ele>71.0</ele><time>2026-04-21T15:40:17Z</time></trkpt><trkpt lat="43.73999358065876" lon="11.183077060291945"><ele>67.0</ele><time>2026-04-21T15:40:18Z</time></trkpt><trkpt lat="43.73979286535128" lon="11.18327144487386"><ele>63.0</ele><time>2026-04-21T15:40:19Z</time></trkpt><trkpt lat="43.73959160034151" lon="11.183462890230349"><ele>63.0</ele><time>2026-04-21T15:40:20Z</time></trkpt><trkpt lat="43.739400204917" lon="11.183649921867744"><ele>63.0</ele><time>2026-04-21T15:40:21Z</time></trkpt><trkpt lat="43.739210566983544" lon="11.183839622399097"><ele>64.0</ele><time>2026-04-21T15:40:22Z</time></trkpt><trkpt lat="43.73901610445108" lon="11.184021132044531"><ele>65.0</ele><time>2026-04-21T15:40:23Z</time></trkpt><trkpt lat="43.73882632207161" lon="11.184191198562706"><ele>65.0</ele><time>2026-04-21T15:40:24Z</time></trkpt><trkpt lat="43.738635336463446" lon="11.184376015548041"><ele>65.0</ele><time>2026-04-21T15:40:25Z</time></trkpt><trkpt lat="43.738441737837455" lon="11.18457901336269"><ele>66.0</ele><time>2026-04-21T15:40:26Z</time></trkpt><trkpt lat="43.73824005959763" lon="11.184777571596902"><ele>67.0</ele><time>2026-04-21T15:40:27Z</time></trkpt><trkpt lat="43.73802922845619" lon="11.184972927007426"><ele>67.0</ele><time>2026-04-21T15:40:28Z</time></trkpt><trkpt lat="43.73781249675852" lon="11.185169842463523"><ele>67.0</ele><time>2026-04-21T15:40:29Z</time></trkpt><trkpt lat="43.73758764884559" lon="11.185349181754018"><ele>71.0</ele><time>2026-04-21T15:40:30Z</time></trkpt><trkpt lat="43.737364803918645" lon="11.185525801191632"><ele>75.0</ele><time>2026-04-21T15:40:31Z</time></trkpt><trkpt lat="43.737134833385504" lon="11.185705113727792"><ele>75.0</ele><time>2026-04-21T15:40:32Z</time></trkpt><trkpt lat="43.73689345675449" lon="11.185867354203296"><ele>75.0</ele><time>2026-04-21T15:40:33Z</time></trkpt><trkpt lat="43.736650178340255" lon="11.186025059507841"><ele>80.5</ele><time>2026-04-21T15:40:34Z</time></trkpt><trkpt lat="43.73640607516483" lon="11.18616715703959"><ele>86.0</ele><time>2026-04-21T15:40:35Z</time></trkpt><trkpt lat="43.73615967430969" lon="11.186300127855127"><ele>83.5</ele><time>2026-04-21T15:40:36Z</time></trkpt><trkpt lat="43.73591625901307" lon="11.186427613903733"><ele>81.0</ele><time>2026-04-21T15:40:37Z</time></trkpt><trkpt lat="43.735673558501375" lon="11.186553563120938"><ele>81.0</ele><time>2026-04-21T15:40:38Z</time></trkpt><trkpt lat="43.73542541198534" lon="11.186680264345023"><ele>81.0</ele><time>2026-04-21T15:40:39Z</time></trkpt><trkpt lat="43.735179114954434" lon="11.186807421436697"><ele>83.5</ele><time>2026-04-21T15:40:40Z</time></trkpt><trkpt lat="43.73493350871224" lon="11.186936008459373"><ele>86.0</ele><time>2026-04-21T15:40:41Z</time></trkpt><trkpt lat="43.73468866485032" lon="11.18706589307561"><ele>86.0</ele><time>2026-04-21T15:40:42Z</time></trkpt><trkpt lat="43.73444365930975" lon="11.187196061442398"><ele>86.0</ele><time>2026-04-21T15:40:43Z</time></trkpt><trkpt lat="43.73419767388893" lon="11.18732986614882"><ele>81.5</ele><time>2026-04-21T15:40:44Z</time></trkpt><trkpt lat="43.73395098045973" lon="11.187461151908817"><ele>77.0</ele><time>2026-04-21T15:40:45Z</time></trkpt><trkpt lat="43.733700451006754" lon="11.18759281962735"><ele>74.5</ele><time>2026-04-21T15:40:46Z</time></trkpt><trkpt lat="43.73345279560819" lon="11.187722878053092"><ele>72.0</ele><time>2026-04-21T15:40:47Z</time></trkpt><trkpt lat="43.73321141934748" lon="11.187858798451895"><ele>72.0</ele><time>2026-04-21T15:40:48Z</time></trkpt><trkpt lat="43.73297578631627" lon="11.188008876585876"><ele>72.0</ele><time>2026-04-21T15:40:49Z</time></trkpt><trkpt lat="43.73274773754123" lon="11.188170562517984"><ele>76.5</ele><time>2026-04-21T15:40:49.999Z</time></trkpt><trkpt lat="43.73252138680859" lon="11.188349089432188"><ele>81.0</ele><time>2026-04-21T15:40:50.999Z</time></trkpt><trkpt lat="43.732299751791366" lon="11.1885396634498"><ele>81.0</ele><time>2026-04-21T15:40:51.999Z</time></trkpt><trkpt lat="43.73208357607465" lon="11.188741253500908"><ele>81.0</ele><time>2026-04-21T15:40:52.999Z</time></trkpt><trkpt lat="43.731874718599364" lon="11.18895661059974"><ele>83.5</ele><time>2026-04-21T15:40:53.999Z</time></trkpt><trkpt lat="43.731673302955876" lon="11.189189560194745"><ele>86.0</ele><time>2026-04-21T15:40:54.999Z</time></trkpt><trkpt lat="43.73147751041528" lon="11.189434827228112"><ele>86.0</ele><time>2026-04-21T15:40:55.999Z</time></trkpt><trkpt lat="43.73129013909305" lon="11.189693861833588"><ele>86.0</ele><time>2026-04-21T15:40:56.999Z</time></trkpt><trkpt lat="43.73111274154691" lon="11.18996865704013"><ele>82.5</ele><time>2026-04-21T15:40:57.999Z</time></trkpt><trkpt lat="43.73094838900195" lon="11.19025689844289"><ele>79.0</ele><time>2026-04-21T15:40:58.999Z</time></trkpt><trkpt lat="43.73079210427694" lon="11.190555630478428"><ele>81.5</ele><time>2026-04-21T15:40:59.999Z</time></trkpt><trkpt lat="43.7306421838983" lon="11.19086021614329"><ele>84.0</ele><time>2026-04-21T15:41:00.999Z</time></trkpt><trkpt lat="43.7304932945596" lon="11.191166728594338"><ele>84.0</ele><time>2026-04-21T15:41:01.999Z</time></trkpt><trkpt lat="43.73034622196844" lon="11.191474810623083"><ele>84.0</ele><time>2026-04-21T15:41:02.999Z</time></trkpt><trkpt lat="43.73020063912447" lon="11.191784074971897"><ele>87.5</ele><time>2026-04-21T15:41:03.999Z</time></trkpt><trkpt lat="43.730055903618315" lon="11.192090589806151"><ele>91.0</ele><time>2026-04-21T15:41:04.999Z</time></trkpt><trkpt lat="43.72991063724813" lon="11.192393668151187"><ele>92.0</ele><time>2026-04-21T15:41:05.999Z</time></trkpt><trkpt lat="43.72976632650179" lon="11.192695113860148"><ele>93.0</ele><time>2026-04-21T15:41:06.999Z</time></trkpt><trkpt lat="43.72962336071452" lon="11.192996388830663"><ele>93.5</ele><time>2026-04-21T15:41:07.999Z</time></trkpt><trkpt lat="43.72948270149745" lon="11.19329600441664"><ele>94.0</ele><time>2026-04-21T15:41:08.999Z</time></trkpt><trkpt lat="43.72934329184412" lon="11.19359233957612"><ele>103.5</ele><time>2026-04-21T15:41:09.999Z</time></trkpt><trkpt lat="43.729200664225345" lon="11.193889468051461"><ele>113.0</ele><time>2026-04-21T15:41:10.999Z</time></trkpt><trkpt lat="43.72905976673854" lon="11.194179246661689"><ele>116.0</ele><time>2026-04-21T15:41:11.999Z</time></trkpt><trkpt lat="43.72891749236325" lon="11.194472075034994"><ele>119.0</ele><time>2026-04-21T15:41:12.999Z</time></trkpt><trkpt lat="43.72877546911766" lon="11.194773574175207"><ele>116.5</ele><time>2026-04-21T15:41:13.999Z</time></trkpt><trkpt lat="43.72863738317063" lon="11.195086819205468"><ele>114.0</ele><time>2026-04-21T15:41:15Z</time></trkpt><trkpt lat="43.72847607776393" lon="11.195462541166966"><ele>120.0</ele><time>2026-04-21T15:41:16.075Z</time></trkpt><trkpt lat="43.72833230569245" lon="11.195785572492042"><ele>126.0</ele><time>2026-04-21T15:41:17.076Z</time></trkpt><trkpt lat="43.72818387422733" lon="11.196101898667575"><ele>126.0</ele><time>2026-04-21T15:41:18.071Z</time></trkpt><trkpt lat="43.72803434032657" lon="11.196423723387724"><ele>126.0</ele><time>2026-04-21T15:41:19.075Z</time></trkpt><trkpt lat="43.727897039652355" lon="11.196737747958164"><ele>127.0</ele><time>2026-04-21T15:41:20.055Z</time></trkpt><trkpt lat="43.72775985443622" lon="11.19705086105873"><ele>128.0</ele><time>2026-04-21T15:41:21.031Z</time></trkpt><trkpt lat="43.72761755914865" lon="11.197366492820548"><ele>176.0</ele><time>2026-04-21T15:41:22.03Z</time></trkpt><trkpt lat="43.72708589543512" lon="11.20007228956379"><ele>179.0</ele><time>2026-04-21T15:41:25.399Z</time></trkpt><trkpt lat="43.72695131308854" lon="11.201421085982192"><ele>155.0</ele><time>2026-04-21T15:41:26.397Z</time></trkpt><trkpt lat="43.72692245303757" lon="11.202788436434815"><ele>142.0</ele><time>2026-04-21T15:41:27.399Z</time></trkpt><trkpt lat="43.72695292864984" lon="11.204149665739601"><ele>134.0</ele><time>2026-04-21T15:41:28.397Z</time></trkpt><trkpt lat="43.72699503079746" lon="11.205512858485156"><ele>119.0</ele><time>2026-04-21T15:41:29.396Z</time></trkpt><trkpt lat="43.72700472018401" lon="11.206626425739314"><ele>119.0</ele><time>2026-04-21T15:41:49Z</time></trkpt><trkpt lat="43.727014530403615" lon="11.206942338450242"><ele>119.0</ele><time>2026-04-21T15:41:50Z</time></trkpt><trkpt lat="43.72702008433545" lon="11.207251747488193"><ele>117.0</ele><time>2026-04-21T15:41:51Z</time></trkpt><trkpt lat="43.7270182414121" lon="11.207599054173013"><ele>115.0</ele><time>2026-04-21T15:41:52Z</time></trkpt><trkpt lat="43.72700636506636" lon="11.207931325539626"><ele>113.5</ele><time>2026-04-21T15:41:53Z</time></trkpt><trkpt lat="43.72701448947883" lon="11.208264123284064"><ele>112.0</ele><time>2026-04-21T15:41:54Z</time></trkpt><trkpt lat="43.727032589267225" lon="11.208608346299446"><ele>112.0</ele><time>2026-04-21T15:41:55Z</time></trkpt><trkpt lat="43.72702521283603" lon="11.208947719615013"><ele>112.0</ele><time>2026-04-21T15:41:56Z</time></trkpt><trkpt lat="43.72698306560789" lon="11.20928497079591"><ele>112.5</ele><time>2026-04-21T15:41:57Z</time></trkpt><trkpt lat="43.72693965509943" lon="11.209653364719363"><ele>113.0</ele><time>2026-04-21T15:41:58Z</time></trkpt><trkpt lat="43.7269099049392" lon="11.21001575054124"><ele>110.5</ele><time>2026-04-21T15:41:59Z</time></trkpt><trkpt lat="43.72688589338204" lon="11.210379096748643"><ele>108.0</ele><time>2026-04-21T15:42:00Z</time></trkpt><trkpt lat="43.72685598534016" lon="11.210736272984821"><ele>108.0</ele><time>2026-04-21T15:42:01Z</time></trkpt><trkpt lat="43.72682665726537" lon="11.211097075100547"><ele>108.0</ele><time>2026-04-21T15:42:02Z</time></trkpt><trkpt lat="43.72679922833625" lon="11.211451762220422"><ele>103.5</ele><time>2026-04-21T15:42:03Z</time></trkpt><trkpt lat="43.72677592608489" lon="11.211815402176219"><ele>99.0</ele><time>2026-04-21T15:42:04Z</time></trkpt><trkpt lat="43.72675228510072" lon="11.212168888110911"><ele>99.0</ele><time>2026-04-21T15:42:05Z</time></trkpt><trkpt lat="43.726730460368536" lon="11.212524613441598"><ele>99.0</ele><time>2026-04-21T15:42:06Z</time></trkpt><trkpt lat="43.72670705986704" lon="11.212877633377438"><ele>97.5</ele><time>2026-04-21T15:42:07Z</time></trkpt><trkpt lat="43.72668247989368" lon="11.213219783883082"><ele>96.0</ele><time>2026-04-21T15:42:08Z</time></trkpt><trkpt lat="43.7266560420774" lon="11.213566194215776"><ele>96.0</ele><time>2026-04-21T15:42:09Z</time></trkpt><trkpt lat="43.72662621334078" lon="11.213904765136142"><ele>96.0</ele><time>2026-04-21T15:42:10Z</time></trkpt><trkpt lat="43.726594293509365" lon="11.214236268742175"><ele>95.5</ele><time>2026-04-21T15:42:11Z</time></trkpt><trkpt lat="43.72655835986317" lon="11.214580823981619"><ele>95.0</ele><time>2026-04-21T15:42:12Z</time></trkpt><trkpt lat="43.72651187635363" lon="11.214931083224009"><ele>94.5</ele><time>2026-04-21T15:42:13Z</time></trkpt><trkpt lat="43.72645230052008" lon="11.215277438447073"><ele>94.0</ele><time>2026-04-21T15:42:14Z</time></trkpt><trkpt lat="43.72638514402752" lon="11.215599402185045"><ele>91.5</ele><time>2026-04-21T15:42:15Z</time></trkpt><trkpt lat="43.7263101382952" lon="11.215899404456898"><ele>89.0</ele><time>2026-04-21T15:42:16Z</time></trkpt><trkpt lat="43.7262291299791" lon="11.21619551610466"><ele>86.0</ele><time>2026-04-21T15:42:17Z</time></trkpt><trkpt lat="43.726139984595235" lon="11.21649857643048"><ele>83.0</ele><time>2026-04-21T15:42:18Z</time></trkpt><trkpt lat="43.72604179214054" lon="11.21681359593071"><ele>88.0</ele><time>2026-04-21T15:42:19Z</time></trkpt><trkpt lat="43.72593170554812" lon="11.217134893277745"><ele>93.0</ele><time>2026-04-21T15:42:20Z</time></trkpt><trkpt lat="43.72580908942209" lon="11.217454297923856"><ele>93.0</ele><time>2026-04-21T15:42:21Z</time></trkpt><trkpt lat="43.72567400582016" lon="11.217766087601035"><ele>93.0</ele><time>2026-04-21T15:42:22Z</time></trkpt><trkpt lat="43.725526478228865" lon="11.218085091229344"><ele>94.0</ele><time>2026-04-21T15:42:23Z</time></trkpt><trkpt lat="43.72535474300683" lon="11.218386046277786"><ele>95.0</ele><time>2026-04-21T15:42:24Z</time></trkpt><trkpt lat="43.725200677234646" lon="11.21870230718959"><ele>90.0</ele><time>2026-04-21T15:42:25Z</time></trkpt><trkpt lat="43.725034873553476" lon="11.219021513066902"><ele>85.0</ele><time>2026-04-21T15:42:26Z</time></trkpt><trkpt lat="43.72486180705227" lon="11.219345878053772"><ele>85.0</ele><time>2026-04-21T15:42:27Z</time></trkpt><trkpt lat="43.72468418192069" lon="11.219672856247106"><ele>85.0</ele><time>2026-04-21T15:42:28Z</time></trkpt><trkpt lat="43.72450442979754" lon="11.219990904480149"><ele>81.0</ele><time>2026-04-21T15:42:29Z</time></trkpt><trkpt lat="43.72432881096805" lon="11.220311795538889"><ele>77.0</ele><time>2026-04-21T15:42:30Z</time></trkpt><trkpt lat="43.724153669497404" lon="11.220631972496971"><ele>79.0</ele><time>2026-04-21T15:42:31Z</time></trkpt><trkpt lat="43.723981935795365" lon="11.220958599845487"><ele>81.0</ele><time>2026-04-21T15:42:32Z</time></trkpt><trkpt lat="43.723820467272695" lon="11.22129175321758"><ele>78.5</ele><time>2026-04-21T15:42:33Z</time></trkpt><trkpt lat="43.7236662990987" lon="11.221631392204715"><ele>76.0</ele><time>2026-04-21T15:42:34Z</time></trkpt><trkpt lat="43.72351951123764" lon="11.221973669530717"><ele>73.5</ele><time>2026-04-21T15:42:35Z</time></trkpt><trkpt lat="43.72338498595717" lon="11.22232357261311"><ele>71.0</ele><time>2026-04-21T15:42:36Z</time></trkpt><trkpt lat="43.723262981924684" lon="11.222669704434063"><ele>71.0</ele><time>2026-04-21T15:42:37Z</time></trkpt><trkpt lat="43.72315132659107" lon="11.223025084227718"><ele>71.0</ele><time>2026-04-21T15:42:38Z</time></trkpt><trkpt lat="43.72305066443669" lon="11.223378498837151"><ele>69.5</ele><time>2026-04-21T15:42:39Z</time></trkpt><trkpt lat="43.72295682597267" lon="11.223729080026285"><ele>68.0</ele><time>2026-04-21T15:42:40Z</time></trkpt><trkpt lat="43.722863409147614" lon="11.224083594324908"><ele>67.0</ele><time>2026-04-21T15:42:41Z</time></trkpt><trkpt lat="43.72276965348264" lon="11.224433112065055"><ele>66.0</ele><time>2026-04-21T15:42:42Z</time></trkpt><trkpt lat="43.72268271200702" lon="11.22478170446724"><ele>70.0</ele><time>2026-04-21T15:42:43Z</time></trkpt><trkpt lat="43.722596805983564" lon="11.225127323748882"><ele>74.0</ele><time>2026-04-21T15:42:44Z</time></trkpt><trkpt lat="43.7225063934467" lon="11.225462707263071"><ele>74.0</ele><time>2026-04-21T15:42:45Z</time></trkpt><trkpt lat="43.72241600937009" lon="11.225810674968686"><ele>74.0</ele><time>2026-04-21T15:42:46Z</time></trkpt><trkpt lat="43.72232440983023" lon="11.22615486122237"><ele>78.0</ele><time>2026-04-21T15:42:47Z</time></trkpt><trkpt lat="43.72223482225468" lon="11.226501648293006"><ele>82.0</ele><time>2026-04-21T15:42:48Z</time></trkpt><trkpt lat="43.72214430459728" lon="11.226847510067676"><ele>82.0</ele><time>2026-04-21T15:42:49Z</time></trkpt><trkpt lat="43.72205218237475" lon="11.227199578390664"><ele>82.0</ele><time>2026-04-21T15:42:50Z</time></trkpt><trkpt lat="43.72195487778601" lon="11.227555644311003"><ele>88.5</ele><time>2026-04-21T15:42:51Z</time></trkpt><trkpt lat="43.7218523402691" lon="11.227918498140754"><ele>95.0</ele><time>2026-04-21T15:42:52Z</time></trkpt><trkpt lat="43.72174020052787" lon="11.228274040440223"><ele>102.0</ele><time>2026-04-21T15:42:53Z</time></trkpt><trkpt lat="43.72162257425447" lon="11.22862934919569"><ele>109.0</ele><time>2026-04-21T15:42:54Z</time></trkpt><trkpt lat="43.72149969645655" lon="11.228990441865452"><ele>117.0</ele><time>2026-04-21T15:42:55Z</time></trkpt><trkpt lat="43.72141083217946" lon="11.229369385094625"><ele>125.0</ele><time>2026-04-21T15:42:56Z</time></trkpt><trkpt lat="43.721307667625986" lon="11.229764993480677"><ele>126.0</ele><time>2026-04-21T15:42:57.072Z</time></trkpt><trkpt lat="43.721210847397366" lon="11.230136764723618"><ele>127.0</ele><time>2026-04-21T15:42:58.071Z</time></trkpt><trkpt lat="43.727190765826144" lon="11.252253132866946"><ele>115.0</ele><time>2026-04-21T15:44:09Z</time></trkpt><trkpt lat="43.727385857592" lon="11.252506402312914"><ele>103.0</ele><time>2026-04-21T15:44:10Z</time></trkpt><trkpt lat="43.727610599604525" lon="11.252799987626995"><ele>102.5</ele><time>2026-04-21T15:44:11Z</time></trkpt><trkpt lat="43.72779220795307" lon="11.253039310314033"><ele>102.0</ele><time>2026-04-21T15:44:12Z</time></trkpt><trkpt lat="43.72798400166361" lon="11.25330713408115"><ele>102.0</ele><time>2026-04-21T15:44:13Z</time></trkpt><trkpt lat="43.72817546482593" lon="11.253584518061619"><ele>102.0</ele><time>2026-04-21T15:44:14Z</time></trkpt><trkpt lat="43.72835937733658" lon="11.253865337650982"><ele>100.5</ele><time>2026-04-21T15:44:15.001Z</time></trkpt><trkpt lat="43.72853553831234" lon="11.254154881139463"><ele>99.0</ele><time>2026-04-21T15:44:16.001Z</time></trkpt><trkpt lat="43.72870869012337" lon="11.254457472270362"><ele>99.0</ele><time>2026-04-21T15:44:17.001Z</time></trkpt><trkpt lat="43.72888167807054" lon="11.254764292729991"><ele>99.0</ele><time>2026-04-21T15:44:18.001Z</time></trkpt><trkpt lat="43.72904990857436" lon="11.255066278457605"><ele>98.0</ele><time>2026-04-21T15:44:19.001Z</time></trkpt><trkpt lat="43.72921850711595" lon="11.2553553843228"><ele>97.0</ele><time>2026-04-21T15:44:20.001Z</time></trkpt><trkpt lat="43.72938217951386" lon="11.255641684799755"><ele>91.5</ele><time>2026-04-21T15:44:21.001Z</time></trkpt><trkpt lat="43.72955424617768" lon="11.255938038636462"><ele>86.0</ele><time>2026-04-21T15:44:22.001Z</time></trkpt><trkpt lat="43.729727048170126" lon="11.256234862713445"><ele>87.5</ele><time>2026-04-21T15:44:23.001Z</time></trkpt><trkpt lat="43.72990033846145" lon="11.25652787389929"><ele>89.0</ele><time>2026-04-21T15:44:24.001Z</time></trkpt><trkpt lat="43.73008343380932" lon="11.25683319404328"><ele>85.5</ele><time>2026-04-21T15:44:25.001Z</time></trkpt><trkpt lat="43.7302546536413" lon="11.257128853584076"><ele>82.0</ele><time>2026-04-21T15:44:26.001Z</time></trkpt><trkpt lat="43.73042371372904" lon="11.257425398414135"><ele>82.0</ele><time>2026-04-21T15:44:27.001Z</time></trkpt><trkpt lat="43.73059702033609" lon="11.257710514872919"><ele>82.0</ele><time>2026-04-21T15:44:28.001Z</time></trkpt><trkpt lat="43.73077424764832" lon="11.258001973880845"><ele>81.5</ele><time>2026-04-21T15:44:29.001Z</time></trkpt><trkpt lat="43.730952642051456" lon="11.258298047412458"><ele>81.0</ele><time>2026-04-21T15:44:30.001Z</time></trkpt><trkpt lat="43.73113198146252" lon="11.258587521419816"><ele>83.0</ele><time>2026-04-21T15:44:31.001Z</time></trkpt><trkpt lat="43.73131648143314" lon="11.258908498176986"><ele>85.0</ele><time>2026-04-21T15:44:32.001Z</time></trkpt><trkpt lat="43.731498825780356" lon="11.259210762352104"><ele>85.0</ele><time>2026-04-21T15:44:33.001Z</time></trkpt><trkpt lat="43.73167924407006" lon="11.25951584585563"><ele>85.0</ele><time>2026-04-21T15:44:34.001Z</time></trkpt><trkpt lat="43.73186147058463" lon="11.259811514879239"><ele>83.5</ele><time>2026-04-21T15:44:35.001Z</time></trkpt><trkpt lat="43.73204079376356" lon="11.260113256100416"><ele>82.0</ele><time>2026-04-21T15:44:36.001Z</time></trkpt><trkpt lat="43.732220796525766" lon="11.260418351616764"><ele>82.0</ele><time>2026-04-21T15:44:37.001Z</time></trkpt><trkpt lat="43.73239842509806" lon="11.260723269910104"><ele>82.0</ele><time>2026-04-21T15:44:38.001Z</time></trkpt><trkpt lat="43.73256910407141" lon="11.261028339700854"><ele>82.0</ele><time>2026-04-21T15:44:39.001Z</time></trkpt><trkpt lat="43.73273916757552" lon="11.261338626656897"><ele>82.0</ele><time>2026-04-21T15:44:40.001Z</time></trkpt><trkpt lat="43.732907754297415" lon="11.261643263653175"><ele>82.0</ele><time>2026-04-21T15:44:41.001Z</time></trkpt><trkpt lat="43.73307511070499" lon="11.261940687863216"><ele>82.0</ele><time>2026-04-21T15:44:42.001Z</time></trkpt><trkpt lat="43.73324514943124" lon="11.262235386040052"><ele>83.0</ele><time>2026-04-21T15:44:43.001Z</time></trkpt><trkpt lat="43.73341400403159" lon="11.2625233237382"><ele>84.0</ele><time>2026-04-21T15:44:44.001Z</time></trkpt><trkpt lat="43.73358491682268" lon="11.26281541705785"><ele>84.0</ele><time>2026-04-21T15:44:45.001Z</time></trkpt><trkpt lat="43.733753037770434" lon="11.263099431034268"><ele>84.0</ele><time>2026-04-21T15:44:46.001Z</time></trkpt><trkpt lat="43.73392133021674" lon="11.26338200254811"><ele>87.0</ele><time>2026-04-21T15:44:47.001Z</time></trkpt><trkpt lat="43.73409026962141" lon="11.263666005970224"><ele>90.0</ele><time>2026-04-21T15:44:48.001Z</time></trkpt><trkpt lat="43.734256045719334" lon="11.263947831053123"><ele>88.0</ele><time>2026-04-21T15:44:49.001Z</time></trkpt><trkpt lat="43.734421817937026" lon="11.264230901835868"><ele>86.0</ele><time>2026-04-21T15:44:50.001Z</time></trkpt><trkpt lat="43.734587796274354" lon="11.26451328831325"><ele>87.5</ele><time>2026-04-21T15:44:51.001Z</time></trkpt><trkpt lat="43.734757912337116" lon="11.264797121998999"><ele>89.0</ele><time>2026-04-21T15:44:52.001Z</time></trkpt><trkpt lat="43.73492750503881" lon="11.26508022115238"><ele>89.0</ele><time>2026-04-21T15:44:53.001Z</time></trkpt><trkpt lat="43.73509684818899" lon="11.265367725093503"><ele>89.0</ele><time>2026-04-21T15:44:54.001Z</time></trkpt><trkpt lat="43.735264706188644" lon="11.265651584578116"><ele>86.0</ele><time>2026-04-21T15:44:55.001Z</time></trkpt><trkpt lat="43.73543361673329" lon="11.265936205814059"><ele>83.0</ele><time>2026-04-21T15:44:56.001Z</time></trkpt><trkpt lat="43.735601826336435" lon="11.266221948926583"><ele>87.0</ele><time>2026-04-21T15:44:57.001Z</time></trkpt><trkpt lat="43.73577205830491" lon="11.266512378393456"><ele>91.0</ele><time>2026-04-21T15:44:58.001Z</time></trkpt><trkpt lat="43.735942422680566" lon="11.266798874232471"><ele>89.5</ele><time>2026-04-21T15:44:59.001Z</time></trkpt><trkpt lat="43.73611529556636" lon="11.267088431078497"><ele>88.0</ele><time>2026-04-21T15:45:00.001Z</time></trkpt><trkpt lat="43.736288211504174" lon="11.267376974349846"><ele>88.0</ele><time>2026-04-21T15:45:01.001Z</time></trkpt><trkpt lat="43.736461844685074" lon="11.267667089018408"><ele>88.0</ele><time>2026-04-21T15:45:02.001Z</time></trkpt><trkpt lat="43.73663476612424" lon="11.267955245221481"><ele>89.0</ele><time>2026-04-21T15:45:03.001Z</time></trkpt><trkpt lat="43.736808494525796" lon="11.26824775858386"><ele>90.0</ele><time>2026-04-21T15:45:04.001Z</time></trkpt><trkpt lat="43.73697935806778" lon="11.268539180261337"><ele>88.5</ele><time>2026-04-21T15:45:05.001Z</time></trkpt><trkpt lat="43.73715385959793" lon="11.268830776883542"><ele>87.0</ele><time>2026-04-21T15:45:06.001Z</time></trkpt><trkpt lat="43.737330519394014" lon="11.269125185898247"><ele>87.0</ele><time>2026-04-21T15:45:07.001Z</time></trkpt><trkpt lat="43.73750431761896" lon="11.26942144818157"><ele>87.0</ele><time>2026-04-21T15:45:08.001Z</time></trkpt><trkpt lat="43.73767722290914" lon="11.269710419951718"><ele>86.0</ele><time>2026-04-21T15:45:09.001Z</time></trkpt><trkpt lat="43.737852158708364" lon="11.270009590937672"><ele>85.0</ele><time>2026-04-21T15:45:10.001Z</time></trkpt><trkpt lat="43.738028205406" lon="11.270309956179695"><ele>85.0</ele><time>2026-04-21T15:45:11.001Z</time></trkpt><trkpt lat="43.7382007226265" lon="11.270601389201628"><ele>85.0</ele><time>2026-04-21T15:45:12.001Z</time></trkpt><trkpt lat="43.738354798847496" lon="11.27087392776169"><ele>88.0</ele><time>2026-04-21T15:45:13.001Z</time></trkpt><trkpt lat="43.73851725584224" lon="11.27114664607336"><ele>91.0</ele><time>2026-04-21T15:45:14.001Z</time></trkpt><trkpt lat="43.73868208924315" lon="11.271425928527504"><ele>86.5</ele><time>2026-04-21T15:45:15.001Z</time></trkpt><trkpt lat="43.738842168644815" lon="11.271715375189435"><ele>82.0</ele><time>2026-04-21T15:45:16.001Z</time></trkpt><trkpt lat="43.73900197572422" lon="11.272008969688397"><ele>84.0</ele><time>2026-04-21T15:45:17.001Z</time></trkpt><trkpt lat="43.739158716944736" lon="11.272309792456422"><ele>86.0</ele><time>2026-04-21T15:45:18.001Z</time></trkpt><trkpt lat="43.73930258084249" lon="11.272620627024294"><ele>83.0</ele><time>2026-04-21T15:45:19.001Z</time></trkpt><trkpt lat="43.73943563540147" lon="11.272943005001952"><ele>80.0</ele><time>2026-04-21T15:45:20.001Z</time></trkpt><trkpt lat="43.73955440549012" lon="11.273270919588054"><ele>80.0</ele><time>2026-04-21T15:45:21.001Z</time></trkpt><trkpt lat="43.73965848816342" lon="11.273602244712412"><ele>80.0</ele><time>2026-04-21T15:45:22.001Z</time></trkpt><trkpt lat="43.73975002251444" lon="11.273939520563337"><ele>83.0</ele><time>2026-04-21T15:45:23.001Z</time></trkpt><trkpt lat="43.73983595964441" lon="11.274286310475558"><ele>86.0</ele><time>2026-04-21T15:45:24.001Z</time></trkpt><trkpt lat="43.739910638210254" lon="11.274643372057813"><ele>85.0</ele><time>2026-04-21T15:45:25.001Z</time></trkpt><trkpt lat="43.739970370316954" lon="11.27500593236541"><ele>84.0</ele><time>2026-04-21T15:45:26.001Z</time></trkpt><trkpt lat="43.740021262162806" lon="11.275377125514913"><ele>83.5</ele><time>2026-04-21T15:45:27.001Z</time></trkpt><trkpt lat="43.7400581861858" lon="11.275752761405304"><ele>83.0</ele><time>2026-04-21T15:45:28.001Z</time></trkpt><trkpt lat="43.74009008554313" lon="11.276130482620639"><ele>83.0</ele><time>2026-04-21T15:45:29.001Z</time></trkpt><trkpt lat="43.740122662670935" lon="11.276509915448743"><ele>83.0</ele><time>2026-04-21T15:45:30.001Z</time></trkpt><trkpt lat="43.740152414290684" lon="11.276889539380965"><ele>83.0</ele><time>2026-04-21T15:45:31.001Z</time></trkpt><trkpt lat="43.740180044738516" lon="11.277265890005815"><ele>83.0</ele><time>2026-04-21T15:45:32.001Z</time></trkpt><trkpt lat="43.7402042434296" lon="11.27764152850195"><ele>81.0</ele><time>2026-04-21T15:45:33.001Z</time></trkpt><trkpt lat="43.74023337654405" lon="11.278016993586455"><ele>79.0</ele><time>2026-04-21T15:45:34.001Z</time></trkpt><trkpt lat="43.74026285237313" lon="11.278389164000435"><ele>78.5</ele><time>2026-04-21T15:45:35.001Z</time></trkpt><trkpt lat="43.74029239045685" lon="11.278764540861378"><ele>78.0</ele><time>2026-04-21T15:45:36.001Z</time></trkpt><trkpt lat="43.74031798121899" lon="11.279137102089582"><ele>80.0</ele><time>2026-04-21T15:45:37.001Z</time></trkpt><trkpt lat="43.740346880593044" lon="11.279504045238308"><ele>82.0</ele><time>2026-04-21T15:45:38.001Z</time></trkpt><trkpt lat="43.74037800143505" lon="11.279868962186281"><ele>83.5</ele><time>2026-04-21T15:45:39.001Z</time></trkpt><trkpt lat="43.740405472034396" lon="11.28023742349833"><ele>85.0</ele><time>2026-04-21T15:45:40.001Z</time></trkpt><trkpt lat="43.74043453365605" lon="11.280604031934539"><ele>86.5</ele><time>2026-04-21T15:45:41.001Z</time></trkpt><trkpt lat="43.74045767035224" lon="11.280971405782529"><ele>88.0</ele><time>2026-04-21T15:45:42.001Z</time></trkpt><trkpt lat="43.74048073079698" lon="11.281341376324681"><ele>88.0</ele><time>2026-04-21T15:45:43.001Z</time></trkpt><trkpt lat="43.740496088078494" lon="11.281711157384022"><ele>88.0</ele><time>2026-04-21T15:45:44.001Z</time></trkpt><trkpt lat="43.74050606603011" lon="11.282083504544957"><ele>88.0</ele><time>2026-04-21T15:45:45.001Z</time></trkpt><trkpt lat="43.74050516800034" lon="11.28246100975186"><ele>88.0</ele><time>2026-04-21T15:45:46.001Z</time></trkpt><trkpt lat="43.740493699938476" lon="11.28283858218963"><ele>88.0</ele><time>2026-04-21T15:45:47.001Z</time></trkpt><trkpt lat="43.7404700439745" lon="11.283215055880127"><ele>88.0</ele><time>2026-04-21T15:45:48.001Z</time></trkpt><trkpt lat="43.740432549213175" lon="11.283589523469585"><ele>86.5</ele><time>2026-04-21T15:45:49.001Z</time></trkpt><trkpt lat="43.74038909106967" lon="11.283967737819"><ele>85.0</ele><time>2026-04-21T15:45:50.001Z</time></trkpt><trkpt lat="43.740330007835226" lon="11.284340685386523"><ele>85.0</ele><time>2026-04-21T15:45:51.001Z</time></trkpt><trkpt lat="43.74026548429266" lon="11.284713966535252"><ele>85.0</ele><time>2026-04-21T15:45:52.001Z</time></trkpt><trkpt lat="43.740193781117235" lon="11.285081654779166"><ele>88.5</ele><time>2026-04-21T15:45:53.001Z</time></trkpt><trkpt lat="43.74011235123035" lon="11.285444447258808"><ele>92.0</ele><time>2026-04-21T15:45:54.001Z</time></trkpt><trkpt lat="43.740015146789105" lon="11.285801643982497"><ele>92.0</ele><time>2026-04-21T15:45:55.001Z</time></trkpt><trkpt lat="43.73991124986416" lon="11.286155516572563"><ele>92.0</ele><time>2026-04-21T15:45:56.001Z</time></trkpt><trkpt lat="43.73980018765792" lon="11.28649802454504"><ele>90.0</ele><time>2026-04-21T15:45:57.001Z</time></trkpt><trkpt lat="43.739674753997726" lon="11.286839979970093"><ele>88.0</ele><time>2026-04-21T15:45:58.001Z</time></trkpt><trkpt lat="43.7395429521258" lon="11.287169898335645"><ele>86.0</ele><time>2026-04-21T15:45:59.001Z</time></trkpt><trkpt lat="43.73940120085961" lon="11.28750005490933"><ele>84.0</ele><time>2026-04-21T15:46:00.001Z</time></trkpt><trkpt lat="43.73925602619745" lon="11.287819393756747"><ele>88.5</ele><time>2026-04-21T15:46:01.001Z</time></trkpt><trkpt lat="43.739102167217474" lon="11.288137375162206"><ele>93.0</ele><time>2026-04-21T15:46:02.001Z</time></trkpt><trkpt lat="43.738945043079596" lon="11.288448934829274"><ele>93.0</ele><time>2026-04-21T15:46:03.001Z</time></trkpt><trkpt lat="43.738784075618504" lon="11.288764528286814"><ele>93.0</ele><time>2026-04-21T15:46:04.001Z</time></trkpt><trkpt lat="43.73862247623722" lon="11.289077711572162"><ele>100.0</ele><time>2026-04-21T15:46:05.001Z</time></trkpt><trkpt lat="43.73845714164829" lon="11.289391707494305"><ele>107.0</ele><time>2026-04-21T15:46:06.001Z</time></trkpt><trkpt lat="43.73829310238336" lon="11.289710142857597"><ele>102.0</ele><time>2026-04-21T15:46:07.001Z</time></trkpt><trkpt lat="43.73813089569877" lon="11.290037655186016"><ele>97.0</ele><time>2026-04-21T15:46:08.001Z</time></trkpt><trkpt lat="43.737971818303066" lon="11.29036634138906"><ele>92.0</ele><time>2026-04-21T15:46:09.001Z</time></trkpt><trkpt lat="43.73781482390406" lon="11.290701239503226"><ele>87.0</ele><time>2026-04-21T15:46:10.001Z</time></trkpt><trkpt lat="43.73766255817513" lon="11.29103857258674"><ele>91.5</ele><time>2026-04-21T15:46:11.001Z</time></trkpt><trkpt lat="43.73752027949344" lon="11.291383982909489"><ele>96.0</ele><time>2026-04-21T15:46:12.001Z</time></trkpt><trkpt lat="43.73739016378821" lon="11.291737225422175"><ele>96.0</ele><time>2026-04-21T15:46:13.001Z</time></trkpt><trkpt lat="43.73726447972573" lon="11.292091011001173"><ele>96.0</ele><time>2026-04-21T15:46:14.001Z</time></trkpt><trkpt lat="43.737148652211815" lon="11.292451125181183"><ele>91.0</ele><time>2026-04-21T15:46:15.001Z</time></trkpt><trkpt lat="43.73704235771915" lon="11.292818169400407"><ele>86.0</ele><time>2026-04-21T15:46:16.001Z</time></trkpt><trkpt lat="43.73694832467082" lon="11.293191033502257"><ele>85.0</ele><time>2026-04-21T15:46:17.001Z</time></trkpt><trkpt lat="43.736863880625435" lon="11.293568588332997"><ele>84.0</ele><time>2026-04-21T15:46:18.001Z</time></trkpt><trkpt lat="43.7367883994401" lon="11.293950802032912"><ele>84.0</ele><time>2026-04-21T15:46:19.001Z</time></trkpt><trkpt lat="43.73671959946796" lon="11.294330059157515"><ele>84.0</ele><time>2026-04-21T15:46:20.001Z</time></trkpt><trkpt lat="43.73665230117281" lon="11.294702518820976"><ele>84.0</ele><time>2026-04-21T15:46:21.001Z</time></trkpt><trkpt lat="43.73658413311784" lon="11.295058998967601"><ele>84.0</ele><time>2026-04-21T15:46:22.001Z</time></trkpt><trkpt lat="43.7365050407977" lon="11.295390205777425"><ele>84.0</ele><time>2026-04-21T15:46:23.001Z</time></trkpt><trkpt lat="43.73641516311379" lon="11.295709510290155"><ele>84.0</ele><time>2026-04-21T15:46:24.001Z</time></trkpt><trkpt lat="43.7363180849174" lon="11.296025884115304"><ele>84.0</ele><time>2026-04-21T15:46:25.001Z</time></trkpt><trkpt lat="43.736216375568965" lon="11.296347388449156"><ele>84.0</ele><time>2026-04-21T15:46:26.001Z</time></trkpt><trkpt lat="43.736104522780636" lon="11.296654317757081"><ele>85.5</ele><time>2026-04-21T15:46:27.001Z</time></trkpt><trkpt lat="43.73598315371749" lon="11.296962886538358"><ele>87.0</ele><time>2026-04-21T15:46:28.001Z</time></trkpt><trkpt lat="43.73585078119833" lon="11.297261648652064"><ele>90.5</ele><time>2026-04-21T15:46:29.001Z</time></trkpt><trkpt lat="43.73570660054688" lon="11.297556588212476"><ele>94.0</ele><time>2026-04-21T15:46:30.001Z</time></trkpt><trkpt lat="43.7355535246989" lon="11.297845045250668"><ele>96.0</ele><time>2026-04-21T15:46:31.001Z</time></trkpt><trkpt lat="43.73539006544745" lon="11.29812612696841"><ele>98.0</ele><time>2026-04-21T15:46:32.001Z</time></trkpt><trkpt lat="43.73521560411941" lon="11.298394369119917"><ele>98.0</ele><time>2026-04-21T15:46:33.001Z</time></trkpt><trkpt lat="43.73503352738615" lon="11.29865631506744"><ele>98.0</ele><time>2026-04-21T15:46:34.001Z</time></trkpt><trkpt lat="43.73484907891272" lon="11.29891618717537"><ele>100.5</ele><time>2026-04-21T15:46:35.001Z</time></trkpt><trkpt lat="43.73466570384486" lon="11.299174150818436"><ele>103.0</ele><time>2026-04-21T15:46:36.001Z</time></trkpt><trkpt lat="43.73448216139656" lon="11.299432946942463"><ele>101.0</ele><time>2026-04-21T15:46:37.001Z</time></trkpt><trkpt lat="43.73430083409934" lon="11.2996945461505"><ele>99.0</ele><time>2026-04-21T15:46:38.001Z</time></trkpt><trkpt lat="43.7341281046502" lon="11.299965813829406"><ele>99.0</ele><time>2026-04-21T15:46:39.001Z</time></trkpt><trkpt lat="43.73396347727888" lon="11.300248932264477"><ele>99.0</ele><time>2026-04-21T15:46:40.001Z</time></trkpt><trkpt lat="43.733806450636244" lon="11.30054124023094"><ele>96.0</ele><time>2026-04-21T15:46:41.001Z</time></trkpt><trkpt lat="43.73366102665157" lon="11.30084179511836"><ele>93.0</ele><time>2026-04-21T15:46:42.001Z</time></trkpt><trkpt lat="43.73353579514928" lon="11.301143237913857"><ele>93.5</ele><time>2026-04-21T15:46:43.001Z</time></trkpt><trkpt lat="43.73343153408058" lon="11.30144951225663"><ele>94.0</ele><time>2026-04-21T15:46:44.001Z</time></trkpt><trkpt lat="43.73335047263384" lon="11.301776471100363"><ele>94.0</ele><time>2026-04-21T15:46:45.001Z</time></trkpt><trkpt lat="43.733275376546395" lon="11.302104596125158"><ele>94.0</ele><time>2026-04-21T15:46:46.001Z</time></trkpt><trkpt lat="43.73322102517787" lon="11.302449729222946"><ele>93.5</ele><time>2026-04-21T15:46:47.001Z</time></trkpt><trkpt lat="43.733180186496064" lon="11.302798316881931"><ele>93.0</ele><time>2026-04-21T15:46:48.001Z</time></trkpt><trkpt lat="43.733151543858455" lon="11.303154223945251"><ele>94.0</ele><time>2026-04-21T15:46:49.001Z</time></trkpt><trkpt lat="43.7331358976696" lon="11.303517301370245"><ele>95.0</ele><time>2026-04-21T15:46:50.001Z</time></trkpt><trkpt lat="43.7331312228932" lon="11.303884560045955"><ele>95.0</ele><time>2026-04-21T15:46:51.001Z</time></trkpt><trkpt lat="43.733132193074844" lon="11.304256610525949"><ele>95.0</ele><time>2026-04-21T15:46:52.001Z</time></trkpt><trkpt lat="43.73313538942119" lon="11.304629695802767"><ele>95.0</ele><time>2026-04-21T15:46:53.001Z</time></trkpt><trkpt lat="43.73314486695491" lon="11.304997818200702"><ele>95.0</ele><time>2026-04-21T15:46:54.001Z</time></trkpt><trkpt lat="43.733146636219494" lon="11.30538664613817"><ele>95.5</ele><time>2026-04-21T15:46:55.001Z</time></trkpt><trkpt lat="43.73314719684086" lon="11.305760545955023"><ele>96.0</ele><time>2026-04-21T15:46:56.001Z</time></trkpt><trkpt lat="43.73314821510786" lon="11.306133625076898"><ele>96.5</ele><time>2026-04-21T15:46:57.001Z</time></trkpt><trkpt lat="43.733140301324305" lon="11.306501148847067"><ele>97.0</ele><time>2026-04-21T15:46:58.001Z</time></trkpt><trkpt lat="43.733114931538715" lon="11.306878126754347"><ele>98.0</ele><time>2026-04-21T15:46:59.001Z</time></trkpt><trkpt lat="43.73307635839799" lon="11.307254335021936"><ele>99.0</ele><time>2026-04-21T15:47:00.001Z</time></trkpt><trkpt lat="43.73302520824655" lon="11.307630940873278"><ele>99.0</ele><time>2026-04-21T15:47:01.001Z</time></trkpt><trkpt lat="43.7329594172354" lon="11.308001951113983"><ele>99.0</ele><time>2026-04-21T15:47:02.001Z</time></trkpt><trkpt lat="43.732885001755164" lon="11.308378541466475"><ele>100.0</ele><time>2026-04-21T15:47:03.001Z</time></trkpt><trkpt lat="43.73281433100527" lon="11.308751659851971"><ele>101.0</ele><time>2026-04-21T15:47:04.001Z</time></trkpt><trkpt lat="43.73273651084468" lon="11.309126927242579"><ele>100.5</ele><time>2026-04-21T15:47:05.001Z</time></trkpt><trkpt lat="43.73265301542057" lon="11.30949262457654"><ele>100.0</ele><time>2026-04-21T15:47:06.001Z</time></trkpt><trkpt lat="43.73257437862629" lon="11.30984064748676"><ele>100.0</ele><time>2026-04-21T15:47:07.001Z</time></trkpt><trkpt lat="43.73249300986644" lon="11.310176981476955"><ele>100.0</ele><time>2026-04-21T15:47:08.001Z</time></trkpt><trkpt lat="43.732413530567676" lon="11.310516544963106"><ele>104.0</ele><time>2026-04-21T15:47:09.001Z</time></trkpt><trkpt lat="43.73233662843947" lon="11.310855695715354"><ele>108.0</ele><time>2026-04-21T15:47:10.001Z</time></trkpt><trkpt lat="43.73225903949415" lon="11.31120410908711"><ele>111.5</ele><time>2026-04-21T15:47:11.001Z</time></trkpt><trkpt lat="43.73218286459315" lon="11.311557824161017"><ele>115.0</ele><time>2026-04-21T15:47:12.001Z</time></trkpt><trkpt lat="43.73210115640036" lon="11.311908453564111"><ele>121.0</ele><time>2026-04-21T15:47:13.001Z</time></trkpt><trkpt lat="43.73201774628644" lon="11.312260076506583"><ele>127.0</ele><time>2026-04-21T15:47:14.001Z</time></trkpt><trkpt lat="43.7319347018607" lon="11.31260905546535"><ele>118.0</ele><time>2026-04-21T15:47:15.001Z</time></trkpt><trkpt lat="43.73184803356687" lon="11.312962706416103"><ele>109.0</ele><time>2026-04-21T15:47:16.001Z</time></trkpt><trkpt lat="43.731769580071216" lon="11.31330505120578"><ele>109.0</ele><time>2026-04-21T15:47:17.001Z</time></trkpt><trkpt lat="43.73169102059198" lon="11.313647235975644"><ele>109.0</ele><time>2026-04-21T15:47:18.001Z</time></trkpt><trkpt lat="43.73161816095519" lon="11.313997124973193"><ele>109.5</ele><time>2026-04-21T15:47:19.001Z</time></trkpt><trkpt lat="43.73153614726759" lon="11.314352172025913"><ele>110.0</ele><time>2026-04-21T15:47:20.001Z</time></trkpt><trkpt lat="43.731454869728886" lon="11.314701104329806"><ele>111.0</ele><time>2026-04-21T15:47:21.001Z</time></trkpt><trkpt lat="43.731374510247896" lon="11.315051315860366"><ele>112.0</ele><time>2026-04-21T15:47:22.001Z</time></trkpt><trkpt lat="43.731291695225984" lon="11.315402578876308"><ele>114.0</ele><time>2026-04-21T15:47:23.001Z</time></trkpt><trkpt lat="43.73121435092984" lon="11.315756816410747"><ele>116.0</ele><time>2026-04-21T15:47:24.001Z</time></trkpt><trkpt lat="43.73113958890477" lon="11.316107970445014"><ele>117.5</ele><time>2026-04-21T15:47:25.001Z</time></trkpt><trkpt lat="43.73105803189253" lon="11.316461795140084"><ele>119.0</ele><time>2026-04-21T15:47:26.001Z</time></trkpt><trkpt lat="43.73097778884073" lon="11.316811311216291"><ele>118.0</ele><time>2026-04-21T15:47:27.001Z</time></trkpt><trkpt lat="43.730896393564564" lon="11.317162931777496"><ele>117.0</ele><time>2026-04-21T15:47:28.001Z</time></trkpt><trkpt lat="43.73081823655792" lon="11.317514252380278"><ele>117.0</ele><time>2026-04-21T15:47:29.001Z</time></trkpt><trkpt lat="43.730739593788115" lon="11.317864359473377"><ele>117.0</ele><time>2026-04-21T15:47:30.001Z</time></trkpt><trkpt lat="43.730659631988" lon="11.318216024878076"><ele>121.5</ele><time>2026-04-21T15:47:31.001Z</time></trkpt><trkpt lat="43.73058039435131" lon="11.318562885110225"><ele>126.0</ele><time>2026-04-21T15:47:32.001Z</time></trkpt><trkpt lat="43.73049788275891" lon="11.31890455151128"><ele>130.0</ele><time>2026-04-21T15:47:33.001Z</time></trkpt><trkpt lat="43.730417989177944" lon="11.319252832370386"><ele>134.0</ele><time>2026-04-21T15:47:34.001Z</time></trkpt><trkpt lat="43.73034103975802" lon="11.319591730570174"><ele>131.5</ele><time>2026-04-21T15:47:35.001Z</time></trkpt><trkpt lat="43.73026775115459" lon="11.319937634789486"><ele>129.0</ele><time>2026-04-21T15:47:36.001Z</time></trkpt><trkpt lat="43.73019194714782" lon="11.320281153454248"><ele>131.5</ele><time>2026-04-21T15:47:37.001Z</time></trkpt><trkpt lat="43.730104584435615" lon="11.32059776565266"><ele>134.0</ele><time>2026-04-21T15:47:38.001Z</time></trkpt><trkpt lat="43.73002625458464" lon="11.320916757603403"><ele>134.0</ele><time>2026-04-21T15:47:39.001Z</time></trkpt><trkpt lat="43.72994194179647" lon="11.321242687158467"><ele>134.0</ele><time>2026-04-21T15:47:40.001Z</time></trkpt><trkpt lat="43.72985745029485" lon="11.321565567942791"><ele>136.5</ele><time>2026-04-21T15:47:41.001Z</time></trkpt><trkpt lat="43.72979588694764" lon="11.321894187967832"><ele>139.0</ele><time>2026-04-21T15:47:42.001Z</time></trkpt><trkpt lat="43.72973337752755" lon="11.322246358527048"><ele>141.5</ele><time>2026-04-21T15:47:43.072Z</time></trkpt><trkpt lat="43.7296630962123" lon="11.322656975968458"><ele>144.0</ele><time>2026-04-21T15:47:44.077Z</time></trkpt><trkpt lat="43.729615684906406" lon="11.323000738769005"><ele>148.0</ele><time>2026-04-21T15:47:45.073Z</time></trkpt><trkpt lat="43.72959674009552" lon="11.323767593001124"><ele>149.0</ele><time>2026-04-21T15:47:47.001Z</time></trkpt><trkpt lat="43.72955781511681" lon="11.32412626018205"><ele>150.0</ele><time>2026-04-21T15:47:48.001Z</time></trkpt><trkpt lat="43.72952660313275" lon="11.324515813866835"><ele>147.5</ele><time>2026-04-21T15:47:49.001Z</time></trkpt><trkpt lat="43.72951103632976" lon="11.324894636959542"><ele>145.0</ele><time>2026-04-21T15:47:50.001Z</time></trkpt><trkpt lat="43.729488457603935" lon="11.325255910399257"><ele>143.0</ele><time>2026-04-21T15:47:51.001Z</time></trkpt><trkpt lat="43.72947992331353" lon="11.325615461609726"><ele>141.0</ele><time>2026-04-21T15:47:52.001Z</time></trkpt><trkpt lat="43.72947770327844" lon="11.32597680401758"><ele>141.0</ele><time>2026-04-21T15:47:53.001Z</time></trkpt><trkpt lat="43.72948111270715" lon="11.326339640527651"><ele>141.0</ele><time>2026-04-21T15:47:54.001Z</time></trkpt><trkpt lat="43.729483889245664" lon="11.326704538246023"><ele>141.5</ele><time>2026-04-21T15:47:55.001Z</time></trkpt><trkpt lat="43.7294854231817" lon="11.327070301380191"><ele>142.0</ele><time>2026-04-21T15:47:56.001Z</time></trkpt><trkpt lat="43.72948724709208" lon="11.327438076437637"><ele>143.0</ele><time>2026-04-21T15:47:57.001Z</time></trkpt><trkpt lat="43.72949033941864" lon="11.327805857717243"><ele>144.0</ele><time>2026-04-21T15:47:58.001Z</time></trkpt><trkpt lat="43.729494416947254" lon="11.328174098189095"><ele>145.0</ele><time>2026-04-21T15:47:59.001Z</time></trkpt><trkpt lat="43.72949349164267" lon="11.328541618162166"><ele>146.0</ele><time>2026-04-21T15:48:00.001Z</time></trkpt><trkpt lat="43.72949516510245" lon="11.328903516108245"><ele>147.5</ele><time>2026-04-21T15:48:01.001Z</time></trkpt><trkpt lat="43.72949808345583" lon="11.3292662198039"><ele>149.0</ele><time>2026-04-21T15:48:02.001Z</time></trkpt><trkpt lat="43.72950201674232" lon="11.329627974554409"><ele>150.5</ele><time>2026-04-21T15:48:03.001Z</time></trkpt><trkpt lat="43.729506846033416" lon="11.32998814790187"><ele>152.0</ele><time>2026-04-21T15:48:04.001Z</time></trkpt><trkpt lat="43.7295092211629" lon="11.330352277790439"><ele>154.5</ele><time>2026-04-21T15:48:05.001Z</time></trkpt><trkpt lat="43.7295114390544" lon="11.330718064531165"><ele>157.0</ele><time>2026-04-21T15:48:06.001Z</time></trkpt><trkpt lat="43.72951555078199" lon="11.331086634187189"><ele>160.5</ele><time>2026-04-21T15:48:07.001Z</time></trkpt><trkpt lat="43.729519950891245" lon="11.331448388479538"><ele>164.0</ele><time>2026-04-21T15:48:08.001Z</time></trkpt><trkpt lat="43.72952536886564" lon="11.331817871410632"><ele>164.0</ele><time>2026-04-21T15:48:09.001Z</time></trkpt><trkpt lat="43.72952883285754" lon="11.332184817774463"><ele>164.0</ele><time>2026-04-21T15:48:10.001Z</time></trkpt><trkpt lat="43.72953309437331" lon="11.332549908917231"><ele>165.0</ele><time>2026-04-21T15:48:11.001Z</time></trkpt><trkpt lat="43.72953684536982" lon="11.332916911393664"><ele>166.0</ele><time>2026-04-21T15:48:12.001Z</time></trkpt><trkpt lat="43.72954285631051" lon="11.333272067442168"><ele>167.0</ele><time>2026-04-21T15:48:13.001Z</time></trkpt><trkpt lat="43.72954291242743" lon="11.333642913842342"><ele>168.0</ele><time>2026-04-21T15:48:14.001Z</time></trkpt><trkpt lat="43.72953314677286" lon="11.333976783096615"><ele>170.0</ele><time>2026-04-21T15:48:15.001Z</time></trkpt><trkpt lat="43.72952048413005" lon="11.334347573511327"><ele>172.0</ele><time>2026-04-21T15:48:16.001Z</time></trkpt><trkpt lat="43.72950711074259" lon="11.334713007022707"><ele>172.0</ele><time>2026-04-21T15:48:17.001Z</time></trkpt><trkpt lat="43.72948338342504" lon="11.335069498500308"><ele>172.0</ele><time>2026-04-21T15:48:18.001Z</time></trkpt><trkpt lat="43.72945578312948" lon="11.3354240469865"><ele>171.0</ele><time>2026-04-21T15:48:19.001Z</time></trkpt><trkpt lat="43.729413003813804" lon="11.335783291154597"><ele>170.0</ele><time>2026-04-21T15:48:20.001Z</time></trkpt><trkpt lat="43.7293647110828" lon="11.33613491573048"><ele>173.0</ele><time>2026-04-21T15:48:21.001Z</time></trkpt><trkpt lat="43.729316126869115" lon="11.336470619858597"><ele>176.0</ele><time>2026-04-21T15:48:22.001Z</time></trkpt><trkpt lat="43.72926335266603" lon="11.336793272079237"><ele>176.0</ele><time>2026-04-21T15:48:23.001Z</time></trkpt><trkpt lat="43.72920402562436" lon="11.337112678004493"><ele>176.0</ele><time>2026-04-21T15:48:24.001Z</time></trkpt><trkpt lat="43.729141726563675" lon="11.337430265826505"><ele>176.0</ele><time>2026-04-21T15:48:25.001Z</time></trkpt><trkpt lat="43.72907476661999" lon="11.337745063923768"><ele>176.0</ele><time>2026-04-21T15:48:26.001Z</time></trkpt><trkpt lat="43.72900368086934" lon="11.338047238239879"><ele>177.0</ele><time>2026-04-21T15:48:27.001Z</time></trkpt><trkpt lat="43.72893513204025" lon="11.338319899026576"><ele>178.0</ele><time>2026-04-21T15:48:28.001Z</time></trkpt><trkpt lat="43.728871162667474" lon="11.338576078816219"><ele>179.0</ele><time>2026-04-21T15:48:29.001Z</time></trkpt><trkpt lat="43.72880792908282" lon="11.338844338668682"><ele>180.0</ele><time>2026-04-21T15:48:30.001Z</time></trkpt><trkpt lat="43.728745361012614" lon="11.339091324150246"><ele>181.0</ele><time>2026-04-21T15:48:31.001Z</time></trkpt><trkpt lat="43.72868420321544" lon="11.339322433369702"><ele>182.0</ele><time>2026-04-21T15:48:32.001Z</time></trkpt><trkpt lat="43.728623469746026" lon="11.339545912954906"><ele>182.33333333333331</ele><time>2026-04-21T15:48:33.001Z</time></trkpt><trkpt lat="43.72856133850297" lon="11.339772004290444"><ele>182.66666666666666</ele><time>2026-04-21T15:48:34.001Z</time></trkpt><trkpt lat="43.72850117582376" lon="11.339990837064416"><ele>183.0</ele><time>2026-04-21T15:48:35.001Z</time></trkpt><trkpt lat="43.72844668179284" lon="11.340197776492975"><ele>184.60000000000002</ele><time>2026-04-21T15:48:36.001Z</time></trkpt><trkpt lat="43.72840133852915" lon="11.340370883025074"><ele>186.20000000000002</ele><time>2026-04-21T15:48:37.001Z</time></trkpt><trkpt lat="43.72835919110264" lon="11.340519856524477"><ele>187.8</ele><time>2026-04-21T15:48:38.001Z</time></trkpt><trkpt lat="43.72831903505297" lon="11.34063823357611"><ele>189.4</ele><time>2026-04-21T15:48:39.001Z</time></trkpt><trkpt lat="43.72828382015856" lon="11.340754821463786"><ele>191.0</ele><time>2026-04-21T15:48:40.001Z</time></trkpt><trkpt lat="43.72825827014219" lon="11.3408736648039"><ele>191.8</ele><time>2026-04-21T15:48:41.001Z</time></trkpt><trkpt lat="43.72823232841131" lon="11.341003171268762"><ele>192.60000000000002</ele><time>2026-04-21T15:48:42.001Z</time></trkpt><trkpt lat="43.72819685594861" lon="11.34115654508107"><ele>193.4</ele><time>2026-04-21T15:48:43.001Z</time></trkpt><trkpt lat="43.72816359612502" lon="11.341294713024793"><ele>194.2</ele><time>2026-04-21T15:48:44.001Z</time></trkpt><trkpt lat="43.728134641935554" lon="11.341410932096242"><ele>195.0</ele><time>2026-04-21T15:48:46.001Z</time></trkpt><trkpt lat="43.728111293996115" lon="11.341506340616737"><ele>195.6</ele><time>2026-04-21T15:48:48.001Z</time></trkpt><trkpt lat="43.72807137857174" lon="11.341684868048281"><ele>196.2</ele><time>2026-04-21T15:48:50.001Z</time></trkpt><trkpt lat="43.72803517203139" lon="11.341847013147971"><ele>196.8</ele><time>2026-04-21T15:48:52.001Z</time></trkpt><trkpt lat="43.728020432934066" lon="11.341936987782441"><ele>197.4</ele><time>2026-04-21T15:48:53.001Z</time></trkpt><trkpt lat="43.72800523010482" lon="11.342029761607797"><ele>198.0</ele><time>2026-04-21T15:48:54.001Z</time></trkpt><trkpt lat="43.72799166967675" lon="11.342120728199099"><ele>198.0</ele><time>2026-04-21T15:48:55.001Z</time></trkpt><trkpt lat="43.72797751272529" lon="11.342213982172671"><ele>198.0</ele><time>2026-04-21T15:48:56.001Z</time></trkpt><trkpt lat="43.72795171765363" lon="11.342342893980915"><ele>198.0</ele><time>2026-04-21T15:48:58.001Z</time></trkpt><trkpt lat="43.72791957116167" lon="11.342504939513107"><ele>198.0</ele><time>2026-04-21T15:49:00.001Z</time></trkpt><trkpt lat="43.7279018449604" lon="11.342610262406177"><ele>198.0</ele><time>2026-04-21T15:49:01.001Z</time></trkpt><trkpt lat="43.7278820709089" lon="11.342710126656177"><ele>198.0</ele><time>2026-04-21T15:49:02.001Z</time></trkpt><trkpt lat="43.72785523517797" lon="11.342852415175265"><ele>198.2857142857143</ele><time>2026-04-21T15:49:04.001Z</time></trkpt><trkpt lat="43.72783816022084" lon="11.342953818547105"><ele>198.57142857142856</ele><time>2026-04-21T15:49:07.001Z</time></trkpt><trkpt lat="43.72782011686798" lon="11.34309362349954"><ele>198.85714285714286</ele><time>2026-04-21T15:49:09.001Z</time></trkpt><trkpt lat="43.72780413427749" lon="11.343182327209268"><ele>199.14285714285717</ele><time>2026-04-21T15:49:10.001Z</time></trkpt><trkpt lat="43.72778573685094" lon="11.34327980189449"><ele>199.42857142857144</ele><time>2026-04-21T15:49:11.001Z</time></trkpt><trkpt lat="43.72777311707006" lon="11.343369112164108"><ele>199.71428571428572</ele><time>2026-04-21T15:49:12.001Z</time></trkpt><trkpt lat="43.72776378075991" lon="11.343457549008857"><ele>200.0</ele><time>2026-04-21T15:49:13.001Z</time></trkpt><trkpt lat="43.7277530212791" lon="11.343569717092544"><ele>200.25</ele><time>2026-04-21T15:49:14Z</time></trkpt><trkpt lat="43.72773433775606" lon="11.343708950501714"><ele>200.5</ele><time>2026-04-21T15:49:15Z</time></trkpt><trkpt lat="43.72770868901065" lon="11.343873152845607"><ele>200.75</ele><time>2026-04-21T15:49:16Z</time></trkpt><trkpt lat="43.72768778589303" lon="11.344040837570198"><ele>201.0</ele><time>2026-04-21T15:49:17Z</time></trkpt><trkpt lat="43.727668586395716" lon="11.344223701097388"><ele>200.5</ele><time>2026-04-21T15:49:18Z</time></trkpt><trkpt lat="43.72765062204805" lon="11.344403078383863"><ele>200.0</ele><time>2026-04-21T15:49:19Z</time></trkpt><trkpt lat="43.72763418619332" lon="11.344577751479255"><ele>199.5</ele><time>2026-04-21T15:49:20Z</time></trkpt><trkpt lat="43.7276169514427" lon="11.344739809213221"><ele>199.0</ele><time>2026-04-21T15:49:21Z</time></trkpt><trkpt lat="43.72760410168674" lon="11.344898953365162"><ele>199.0</ele><time>2026-04-21T15:49:22Z</time></trkpt><trkpt lat="43.72759817708879" lon="11.345067465921213"><ele>199.0</ele><time>2026-04-21T15:49:23Z</time></trkpt><trkpt lat="43.72758634994671" lon="11.345234685967688"><ele>199.0</ele><time>2026-04-21T15:49:24Z</time></trkpt><trkpt lat="43.72758007363934" lon="11.34539448054054"><ele>199.0</ele><time>2026-04-21T15:49:25Z</time></trkpt><trkpt lat="43.72757659346175" lon="11.345540128765194"><ele>199.79999999999998</ele><time>2026-04-21T15:49:26Z</time></trkpt><trkpt lat="43.727575011319495" lon="11.345676272933586"><ele>200.6</ele><time>2026-04-21T15:49:27Z</time></trkpt><trkpt lat="43.72757528078131" lon="11.345809326640403"><ele>201.4</ele><time>2026-04-21T15:49:28Z</time></trkpt><trkpt lat="43.727580691777206" lon="11.345942376160433"><ele>202.2</ele><time>2026-04-21T15:49:29Z</time></trkpt><trkpt lat="43.72756740636175" lon="11.346067471269937"><ele>203.0</ele><time>2026-04-21T15:49:30Z</time></trkpt><trkpt lat="43.72756505150857" lon="11.346199992346842"><ele>203.0</ele><time>2026-04-21T15:49:31Z</time></trkpt><trkpt lat="43.72756267046188" lon="11.346330972785408"><ele>203.0</ele><time>2026-04-21T15:49:32Z</time></trkpt><trkpt lat="43.727560325273735" lon="11.346460119344595"><ele>203.0</ele><time>2026-04-21T15:49:33Z</time></trkpt><trkpt lat="43.72756536343551" lon="11.346608178409598"><ele>203.0</ele><time>2026-04-21T15:49:34Z</time></trkpt><trkpt lat="43.727580275650155" lon="11.346776684115179"><ele>203.0</ele><time>2026-04-21T15:49:35Z</time></trkpt><trkpt lat="43.7276042633408" lon="11.34695846389434"><ele>203.25</ele><time>2026-04-21T15:49:36Z</time></trkpt><trkpt lat="43.727624832340744" lon="11.34713714731966"><ele>203.5</ele><time>2026-04-21T15:49:37Z</time></trkpt><trkpt lat="43.72764689737482" lon="11.347317352301834"><ele>203.75</ele><time>2026-04-21T15:49:38Z</time></trkpt><trkpt lat="43.7276741911003" lon="11.347486547130123"><ele>204.0</ele><time>2026-04-21T15:49:39Z</time></trkpt><trkpt lat="43.72770323231262" lon="11.347633243005795"><ele>207.0</ele><time>2026-04-21T15:49:40Z</time></trkpt><trkpt lat="43.72773116770094" lon="11.34776821841417"><ele>210.0</ele><time>2026-04-21T15:49:41Z</time></trkpt><trkpt lat="43.72775891227593" lon="11.347902561133354"><ele>212.99999999999997</ele><time>2026-04-21T15:49:42Z</time></trkpt><trkpt lat="43.72778603102977" lon="11.348041347401956"><ele>216.0</ele><time>2026-04-21T15:49:43Z</time></trkpt><trkpt lat="43.72781862161348" lon="11.348182935749307"><ele>219.0</ele><time>2026-04-21T15:49:44Z</time></trkpt><trkpt lat="43.72785320044999" lon="11.3483264249769"><ele>219.0</ele><time>2026-04-21T15:49:45Z</time></trkpt><trkpt lat="43.72789328712138" lon="11.348482806040812"><ele>219.0</ele><time>2026-04-21T15:49:46Z</time></trkpt><trkpt lat="43.72793908479981" lon="11.348651373799592"><ele>219.0</ele><time>2026-04-21T15:49:47Z</time></trkpt><trkpt lat="43.72798886576878" lon="11.348834800421251"><ele>219.0</ele><time>2026-04-21T15:49:48Z</time></trkpt><trkpt lat="43.72803913063577" lon="11.349033247105776"><ele>215.33333333333331</ele><time>2026-04-21T15:49:49Z</time></trkpt><trkpt lat="43.728096049889935" lon="11.349239046657923"><ele>211.66666666666666</ele><time>2026-04-21T15:49:50Z</time></trkpt><trkpt lat="43.72815447859404" lon="11.349454857588494"><ele>208.0</ele><time>2026-04-21T15:49:51Z</time></trkpt><trkpt lat="43.72820550417024" lon="11.349658465675267"><ele>206.0</ele><time>2026-04-21T15:49:52Z</time></trkpt><trkpt lat="43.728261190228714" lon="11.349872117765985"><ele>204.0</ele><time>2026-04-21T15:49:53Z</time></trkpt><trkpt lat="43.72832374011105" lon="11.350091760359026"><ele>202.0</ele><time>2026-04-21T15:49:54Z</time></trkpt><trkpt lat="43.72838706754389" lon="11.35031323095193"><ele>202.0</ele><time>2026-04-21T15:49:55Z</time></trkpt><trkpt lat="43.72844603777265" lon="11.350520969527757"><ele>202.0</ele><time>2026-04-21T15:49:56Z</time></trkpt><trkpt lat="43.72850111546609" lon="11.350717775095747"><ele>202.0</ele><time>2026-04-21T15:49:57Z</time></trkpt><trkpt lat="43.728558565953634" lon="11.350913706466143"><ele>209.25</ele><time>2026-04-21T15:49:58Z</time></trkpt><trkpt lat="43.728609383416234" lon="11.351109684886126"><ele>216.5</ele><time>2026-04-21T15:49:59Z</time></trkpt><trkpt lat="43.728660048547844" lon="11.35130400019741"><ele>223.75</ele><time>2026-04-21T15:50:00Z</time></trkpt><trkpt lat="43.72870997357079" lon="11.351498941430583"><ele>231.0</ele><time>2026-04-21T15:50:01Z</time></trkpt><trkpt lat="43.728757783919704" lon="11.351696670745799"><ele>231.0</ele><time>2026-04-21T15:50:02Z</time></trkpt><trkpt lat="43.72880173378722" lon="11.351890743494684"><ele>231.0</ele><time>2026-04-21T15:50:03Z</time></trkpt><trkpt lat="43.728841133092445" lon="11.352076983602691"><ele>231.0</ele><time>2026-04-21T15:50:04Z</time></trkpt><trkpt lat="43.72887912624843" lon="11.352256046951672"><ele>231.0</ele><time>2026-04-21T15:50:05Z</time></trkpt><trkpt lat="43.72891317528815" lon="11.35243057652278"><ele>229.75</ele><time>2026-04-21T15:50:06Z</time></trkpt><trkpt lat="43.72894549553718" lon="11.352613950241256"><ele>228.5</ele><time>2026-04-21T15:50:07Z</time></trkpt><trkpt lat="43.728976990925446" lon="11.352816652520579"><ele>227.25</ele><time>2026-04-21T15:50:08Z</time></trkpt><trkpt lat="43.72900333159812" lon="11.353032744514751"><ele>226.0</ele><time>2026-04-21T15:50:09Z</time></trkpt><trkpt lat="43.72902885248211" lon="11.353263225201893"><ele>224.33333333333331</ele><time>2026-04-21T15:50:10Z</time></trkpt><trkpt lat="43.7290572033003" lon="11.353505840198936"><ele>222.66666666666669</ele><time>2026-04-21T15:50:11Z</time></trkpt><trkpt lat="43.72908619301231" lon="11.353762270611462"><ele>221.0</ele><time>2026-04-21T15:50:12Z</time></trkpt><trkpt lat="43.729112489289975" lon="11.35403096245089"><ele>221.0</ele><time>2026-04-21T15:50:13Z</time></trkpt><trkpt lat="43.72913561605185" lon="11.35430540298838"><ele>221.0</ele><time>2026-04-21T15:50:14Z</time></trkpt><trkpt lat="43.729154640829535" lon="11.35457357305541"><ele>221.0</ele><time>2026-04-21T15:50:15.001Z</time></trkpt><trkpt lat="43.729174349807764" lon="11.354847374331579"><ele>221.33333333333334</ele><time>2026-04-21T15:50:16.001Z</time></trkpt><trkpt lat="43.729193586126506" lon="11.355112215590797"><ele>221.66666666666669</ele><time>2026-04-21T15:50:17.001Z</time></trkpt><trkpt lat="43.7292127041784" lon="11.355364597312652"><ele>222.0</ele><time>2026-04-21T15:50:18.001Z</time></trkpt><trkpt lat="43.72922916502034" lon="11.355608055198628"><ele>222.66666666666669</ele><time>2026-04-21T15:50:19.001Z</time></trkpt><trkpt lat="43.72924234759564" lon="11.355855417460388"><ele>223.33333333333334</ele><time>2026-04-21T15:50:20.001Z</time></trkpt><trkpt lat="43.72925529943797" lon="11.356095312865767"><ele>224.0</ele><time>2026-04-21T15:50:21.001Z</time></trkpt><trkpt lat="43.72926335850448" lon="11.356322919034204"><ele>224.33333333333334</ele><time>2026-04-21T15:50:22.001Z</time></trkpt><trkpt lat="43.72927204679856" lon="11.356541906243212"><ele>224.66666666666669</ele><time>2026-04-21T15:50:23.001Z</time></trkpt><trkpt lat="43.72928126428872" lon="11.3567518457884"><ele>225.0</ele><time>2026-04-21T15:50:24.001Z</time></trkpt><trkpt lat="43.7292929085664" lon="11.356950447664486"><ele>225.0</ele><time>2026-04-21T15:50:25.001Z</time></trkpt><trkpt lat="43.72930842450269" lon="11.357150474101811"><ele>225.0</ele><time>2026-04-21T15:50:26.001Z</time></trkpt><trkpt lat="43.72932181670785" lon="11.357357165453859"><ele>225.0</ele><time>2026-04-21T15:50:27.001Z</time></trkpt><trkpt lat="43.7293349184498" lon="11.357551128773133"><ele>225.0</ele><time>2026-04-21T15:50:28.001Z</time></trkpt><trkpt lat="43.72934845719984" lon="11.357716613567662"><ele>224.4</ele><time>2026-04-21T15:50:29.001Z</time></trkpt><trkpt lat="43.72936130441096" lon="11.357878018017882"><ele>223.8</ele><time>2026-04-21T15:50:30.001Z</time></trkpt><trkpt lat="43.729371174841106" lon="11.358023626823476"><ele>223.2</ele><time>2026-04-21T15:50:31.001Z</time></trkpt><trkpt lat="43.729382376061075" lon="11.358166156415235"><ele>222.6</ele><time>2026-04-21T15:50:32.001Z</time></trkpt><trkpt lat="43.72939187897939" lon="11.358306467728058"><ele>222.0</ele><time>2026-04-21T15:50:33.001Z</time></trkpt><trkpt lat="43.72940104973182" lon="11.358451765485208"><ele>225.5</ele><time>2026-04-21T15:50:34.001Z</time></trkpt><trkpt lat="43.729409945115556" lon="11.358595075143956"><ele>229.0</ele><time>2026-04-21T15:50:35.001Z</time></trkpt><trkpt lat="43.72942180652492" lon="11.358758176824798"><ele>232.5</ele><time>2026-04-21T15:50:36.001Z</time></trkpt><trkpt lat="43.72943875591895" lon="11.358935884638155"><ele>236.0</ele><time>2026-04-21T15:50:37.001Z</time></trkpt><trkpt lat="43.72945231439612" lon="11.35912258074174"><ele>237.0</ele><time>2026-04-21T15:50:38.001Z</time></trkpt><trkpt lat="43.72945950324546" lon="11.35932922412481"><ele>238.0</ele><time>2026-04-21T15:50:39.001Z</time></trkpt><trkpt lat="43.729468217523404" lon="11.359552229633598"><ele>239.0</ele><time>2026-04-21T15:50:40.001Z</time></trkpt><trkpt lat="43.729482557129515" lon="11.35979242098886"><ele>241.25</ele><time>2026-04-21T15:50:41.001Z</time></trkpt><trkpt lat="43.72949852284802" lon="11.360028762877926"><ele>243.5</ele><time>2026-04-21T15:50:42.001Z</time></trkpt><trkpt lat="43.72951055113006" lon="11.360227923700402"><ele>245.75</ele><time>2026-04-21T15:50:43.001Z</time></trkpt><trkpt lat="43.729521069378215" lon="11.360406515036344"><ele>248.0</ele><time>2026-04-21T15:50:44.001Z</time></trkpt><trkpt lat="43.72953195791559" lon="11.360593718029431"><ele>249.75</ele><time>2026-04-21T15:50:45.001Z</time></trkpt><trkpt lat="43.72954426355641" lon="11.360781219752418"><ele>251.5</ele><time>2026-04-21T15:50:46.001Z</time></trkpt><trkpt lat="43.729557270832224" lon="11.360988384606383"><ele>253.25</ele><time>2026-04-21T15:50:47.001Z</time></trkpt><trkpt lat="43.729570564604664" lon="11.361206401725052"><ele>255.0</ele><time>2026-04-21T15:50:48.001Z</time></trkpt><trkpt lat="43.729590155327735" lon="11.361434966672721"><ele>255.66666666666669</ele><time>2026-04-21T15:50:49.001Z</time></trkpt><trkpt lat="43.729605120283935" lon="11.361663403705258"><ele>256.33333333333337</ele><time>2026-04-21T15:50:50.001Z</time></trkpt><trkpt lat="43.72961512794264" lon="11.361885857809487"><ele>257.0</ele><time>2026-04-21T15:50:51.001Z</time></trkpt><trkpt lat="43.72962394773654" lon="11.362108418729456"><ele>256.0</ele><time>2026-04-21T15:50:52.001Z</time></trkpt><trkpt lat="43.729633784357965" lon="11.362305388662385"><ele>255.0</ele><time>2026-04-21T15:50:53.001Z</time></trkpt><trkpt lat="43.7296455121182" lon="11.362496474751461"><ele>254.0</ele><time>2026-04-21T15:50:54.001Z</time></trkpt><trkpt lat="43.72965870927543" lon="11.362685924233519"><ele>253.0</ele><time>2026-04-21T15:50:55.001Z</time></trkpt><trkpt lat="43.72967065691616" lon="11.362876527991007"><ele>253.25</ele><time>2026-04-21T15:50:56.001Z</time></trkpt><trkpt lat="43.72968243246795" lon="11.36307232719481"><ele>253.5</ele><time>2026-04-21T15:50:57.001Z</time></trkpt><trkpt lat="43.72969452427856" lon="11.363268557140293"><ele>253.75</ele><time>2026-04-21T15:50:58.001Z</time></trkpt><trkpt lat="43.72970570124997" lon="11.36346310597593"><ele>254.0</ele><time>2026-04-21T15:50:59.001Z</time></trkpt><trkpt lat="43.72971692152912" lon="11.363665734231871"><ele>254.66666666666669</ele><time>2026-04-21T15:51:00.001Z</time></trkpt><trkpt lat="43.72973080445563" lon="11.363873092318988"><ele>255.33333333333331</ele><time>2026-04-21T15:51:01.001Z</time></trkpt><trkpt lat="43.729745519092646" lon="11.364089857668972"><ele>256.0</ele><time>2026-04-21T15:51:02.001Z</time></trkpt><trkpt lat="43.729764357961976" lon="11.364306822029638"><ele>256.0</ele><time>2026-04-21T15:51:03.001Z</time></trkpt><trkpt lat="43.7297804126403" lon="11.364531079726339"><ele>256.0</ele><time>2026-04-21T15:51:04.001Z</time></trkpt><trkpt lat="43.72979526560454" lon="11.36475869895849"><ele>256.0</ele><time>2026-04-21T15:51:05.001Z</time></trkpt><trkpt lat="43.72979631654906" lon="11.365008462799164"><ele>254.33333333333331</ele><time>2026-04-21T15:51:06.001Z</time></trkpt><trkpt lat="43.72980367002797" lon="11.365265398661105"><ele>252.66666666666669</ele><time>2026-04-21T15:51:07.001Z</time></trkpt><trkpt lat="43.72981967521492" lon="11.36549930260806"><ele>251.0</ele><time>2026-04-21T15:51:08.001Z</time></trkpt><trkpt lat="43.729837706221794" lon="11.365741988118508"><ele>251.0</ele><time>2026-04-21T15:51:09.001Z</time></trkpt><trkpt lat="43.729857927150846" lon="11.365993977678407"><ele>251.0</ele><time>2026-04-21T15:51:10.001Z</time></trkpt><trkpt lat="43.72987701129772" lon="11.366233618803033"><ele>251.0</ele><time>2026-04-21T15:51:11.001Z</time></trkpt><trkpt lat="43.72989616177137" lon="11.366482675530857"><ele>254.33333333333334</ele><time>2026-04-21T15:51:12.001Z</time></trkpt><trkpt lat="43.72991174477659" lon="11.366741659541482"><ele>257.6666666666667</ele><time>2026-04-21T15:51:13.001Z</time></trkpt><trkpt lat="43.72991993293678" lon="11.367007407382266"><ele>261.0</ele><time>2026-04-21T15:51:14.001Z</time></trkpt><trkpt lat="43.72992467411866" lon="11.367280266827231"><ele>261.6666666666667</ele><time>2026-04-21T15:51:15.001Z</time></trkpt><trkpt lat="43.72992740752544" lon="11.367555584929294"><ele>262.33333333333337</ele><time>2026-04-21T15:51:16.001Z</time></trkpt><trkpt lat="43.72992819742997" lon="11.367830615440212"><ele>263.0</ele><time>2026-04-21T15:51:17.001Z</time></trkpt><trkpt lat="43.72992775922265" lon="11.368100839752879"><ele>263.0</ele><time>2026-04-21T15:51:18.001Z</time></trkpt><trkpt lat="43.73003053399558" lon="11.368403091659845"><ele>263.0</ele><time>2026-04-21T15:51:19.001Z</time></trkpt><trkpt lat="43.730038153059404" lon="11.368677812054498"><ele>263.0</ele><time>2026-04-21T15:51:20Z</time></trkpt><trkpt lat="43.73004619592364" lon="11.368960814347961"><ele>263.33333333333337</ele><time>2026-04-21T15:51:21Z</time></trkpt><trkpt lat="43.730050402165794" lon="11.369248591986755"><ele>263.6666666666667</ele><time>2026-04-21T15:51:22Z</time></trkpt><trkpt lat="43.730035903717436" lon="11.369538899860762"><ele>264.0</ele><time>2026-04-21T15:51:23Z</time></trkpt><trkpt lat="43.7300135103065" lon="11.369829713984476"><ele>263.6666666666667</ele><time>2026-04-21T15:51:24Z</time></trkpt><trkpt lat="43.72997790930256" lon="11.370118432037565"><ele>263.33333333333337</ele><time>2026-04-21T15:51:25Z</time></trkpt><trkpt lat="43.72993476765704" lon="11.370415064294887"><ele>263.0</ele><time>2026-04-21T15:51:26Z</time></trkpt><trkpt lat="43.72987736096794" lon="11.370702983044426"><ele>263.0</ele><time>2026-04-21T15:51:27Z</time></trkpt><trkpt lat="43.729802982015705" lon="11.370988540268065"><ele>263.0</ele><time>2026-04-21T15:51:28Z</time></trkpt><trkpt lat="43.729718206139886" lon="11.371268126190122"><ele>263.0</ele><time>2026-04-21T15:51:29Z</time></trkpt><trkpt lat="43.72962147224533" lon="11.371538715853802"><ele>264.33333333333337</ele><time>2026-04-21T15:51:30Z</time></trkpt><trkpt lat="43.72950080365786" lon="11.371800693509389"><ele>265.6666666666667</ele><time>2026-04-21T15:51:31Z</time></trkpt><trkpt lat="43.72937986410675" lon="11.372062058008522"><ele>267.0</ele><time>2026-04-21T15:51:32Z</time></trkpt><trkpt lat="43.72923398271335" lon="11.37231411598972"><ele>267.0</ele><time>2026-04-21T15:51:33Z</time></trkpt><trkpt lat="43.72907755814008" lon="11.372563196564686"><ele>267.0</ele><time>2026-04-21T15:51:34Z</time></trkpt><trkpt lat="43.72892259618095" lon="11.372790048662452"><ele>267.0</ele><time>2026-04-21T15:51:35Z</time></trkpt><trkpt lat="43.7287505478216" lon="11.372994315863105"><ele>267.0</ele><time>2026-04-21T15:51:36Z</time></trkpt><trkpt lat="43.728566601501605" lon="11.373188193451561"><ele>267.5</ele><time>2026-04-21T15:51:37Z</time></trkpt><trkpt lat="43.72837603917635" lon="11.373368224799478"><ele>268.0</ele><time>2026-04-21T15:51:38Z</time></trkpt><trkpt lat="43.72817794114192" lon="11.373521099757703"><ele>268.0</ele><time>2026-04-21T15:51:39Z</time></trkpt><trkpt lat="43.72796834146109" lon="11.373663242612345"><ele>268.0</ele><time>2026-04-21T15:51:40Z</time></trkpt><trkpt lat="43.72775933279795" lon="11.373786819740621"><ele>268.3333333333333</ele><time>2026-04-21T15:51:41Z</time></trkpt><trkpt lat="43.72755553073158" lon="11.373888013989596"><ele>268.6666666666667</ele><time>2026-04-21T15:51:42Z</time></trkpt><trkpt lat="43.72736604749557" lon="11.373954699898372"><ele>269.0</ele><time>2026-04-21T15:51:43Z</time></trkpt><trkpt lat="43.727193023353834" lon="11.374018974723569"><ele>269.0</ele><time>2026-04-21T15:51:44Z</time></trkpt><trkpt lat="43.7270231929299" lon="11.374073461137003"><ele>269.0</ele><time>2026-04-21T15:51:45Z</time></trkpt><trkpt lat="43.726860413881845" lon="11.374130139829454"><ele>269.0</ele><time>2026-04-21T15:51:46Z</time></trkpt><trkpt lat="43.72669691695486" lon="11.374192042107877"><ele>269.75</ele><time>2026-04-21T15:51:47Z</time></trkpt><trkpt lat="43.72654484639179" lon="11.374255413798238"><ele>270.5</ele><time>2026-04-21T15:51:48Z</time></trkpt><trkpt lat="43.72640323887725" lon="11.374313308767423"><ele>271.25</ele><time>2026-04-21T15:51:49Z</time></trkpt><trkpt lat="43.726269486928985" lon="11.374362902709441"><ele>272.0</ele><time>2026-04-21T15:51:50Z</time></trkpt><trkpt lat="43.72614809189766" lon="11.374404140369899"><ele>273.5</ele><time>2026-04-21T15:51:51Z</time></trkpt><trkpt lat="43.72603246603962" lon="11.374441785020466"><ele>275.0</ele><time>2026-04-21T15:51:52Z</time></trkpt><trkpt lat="43.725908615278996" lon="11.374484322623948"><ele>276.5</ele><time>2026-04-21T15:51:53Z</time></trkpt><trkpt lat="43.72577833341977" lon="11.3745390407911"><ele>278.0</ele><time>2026-04-21T15:51:54Z</time></trkpt><trkpt lat="43.725646041921614" lon="11.37458979837253"><ele>278.0</ele><time>2026-04-21T15:51:55Z</time></trkpt><trkpt lat="43.72550296136664" lon="11.374640393843418"><ele>278.0</ele><time>2026-04-21T15:51:56Z</time></trkpt><trkpt lat="43.72535069275294" lon="11.37469185802605"><ele>278.0</ele><time>2026-04-21T15:51:57Z</time></trkpt><trkpt lat="43.72518973965257" lon="11.374746915772011"><ele>282.6666666666667</ele><time>2026-04-21T15:51:58Z</time></trkpt><trkpt lat="43.725023545578296" lon="11.374804492560978"><ele>287.3333333333333</ele><time>2026-04-21T15:51:59Z</time></trkpt><trkpt lat="43.72485616681941" lon="11.374865500158126"><ele>292.0</ele><time>2026-04-21T15:52:00Z</time></trkpt><trkpt lat="43.72468156190938" lon="11.37493396456643"><ele>292.0</ele><time>2026-04-21T15:52:01Z</time></trkpt><trkpt lat="43.724503263058594" lon="11.37500668364325"><ele>292.0</ele><time>2026-04-21T15:52:02Z</time></trkpt><trkpt lat="43.7243301603471" lon="11.375084500203556"><ele>292.0</ele><time>2026-04-21T15:52:03Z</time></trkpt><trkpt lat="43.724163660506036" lon="11.375171516525015"><ele>292.0</ele><time>2026-04-21T15:52:04Z</time></trkpt><trkpt lat="43.72399548246849" lon="11.375273030900534"><ele>292.0</ele><time>2026-04-21T15:52:05Z</time></trkpt><trkpt lat="43.723824144318144" lon="11.375398460645934"><ele>292.0</ele><time>2026-04-21T15:52:06Z</time></trkpt><trkpt lat="43.72366436704931" lon="11.375524687188232"><ele>293.66666666666663</ele><time>2026-04-21T15:52:07Z</time></trkpt><trkpt lat="43.72350907814242" lon="11.375655175563415"><ele>295.3333333333333</ele><time>2026-04-21T15:52:08Z</time></trkpt><trkpt lat="43.72336229135926" lon="11.375800857643823"><ele>297.0</ele><time>2026-04-21T15:52:09Z</time></trkpt><trkpt lat="43.723217777057755" lon="11.37595378526838"><ele>297.0</ele><time>2026-04-21T15:52:10Z</time></trkpt><trkpt lat="43.723082249460376" lon="11.376112322392412"><ele>297.0</ele><time>2026-04-21T15:52:11Z</time></trkpt><trkpt lat="43.72295004251201" lon="11.376284483644065"><ele>297.0</ele><time>2026-04-21T15:52:12Z</time></trkpt><trkpt lat="43.722824737897504" lon="11.37647298084562"><ele>303.6666666666667</ele><time>2026-04-21T15:52:13Z</time></trkpt><trkpt lat="43.72269463399368" lon="11.376673638048418"><ele>310.33333333333337</ele><time>2026-04-21T15:52:14Z</time></trkpt><trkpt lat="43.722562707823684" lon="11.376876578611316"><ele>317.0</ele><time>2026-04-21T15:52:15Z</time></trkpt><trkpt lat="43.72241957943085" lon="11.3770505015633"><ele>318.6666666666667</ele><time>2026-04-21T15:52:16Z</time></trkpt><trkpt lat="43.72228870242046" lon="11.377244781612553"><ele>320.3333333333333</ele><time>2026-04-21T15:52:17Z</time></trkpt><trkpt lat="43.722158544859234" lon="11.377437349810437"><ele>322.0</ele><time>2026-04-21T15:52:18Z</time></trkpt><trkpt lat="43.7220543503971" lon="11.377643820553509"><ele>322.0</ele><time>2026-04-21T15:52:19Z</time></trkpt><trkpt lat="43.72194031530751" lon="11.377853825013165"><ele>322.0</ele><time>2026-04-21T15:52:20Z</time></trkpt><trkpt lat="43.72181484941998" lon="11.378084880192763"><ele>322.0</ele><time>2026-04-21T15:52:21.074Z</time></trkpt><trkpt lat="43.7216934206445" lon="11.37830876800711"><ele>328.0</ele><time>2026-04-21T15:52:22.075Z</time></trkpt><trkpt lat="43.72157469599424" lon="11.378529154035864"><ele>334.0</ele><time>2026-04-21T15:52:23.064Z</time></trkpt><trkpt lat="43.72147992798122" lon="11.378705069687124"><ele>340.0</ele><time>2026-04-21T15:52:24.044Z</time></trkpt><trkpt lat="43.72137182103661" lon="11.378905746325804"><ele>345.5</ele><time>2026-04-21T15:52:25.043Z</time></trkpt><trkpt lat="43.72126386143717" lon="11.379106149379936"><ele>351.0</ele><time>2026-04-21T15:52:26.034Z</time></trkpt><trkpt lat="43.720108006856385" lon="11.381394302281842"><ele>376.0</ele><time>2026-04-21T15:52:29.401Z</time></trkpt><trkpt lat="43.71962397084536" lon="11.382285795686057"><ele>360.0</ele><time>2026-04-21T15:52:30.398Z</time></trkpt><trkpt lat="43.71913918137095" lon="11.38318144059958"><ele>353.0</ele><time>2026-04-21T15:52:31.399Z</time></trkpt><trkpt lat="43.71865378975721" lon="11.384075973642553"><ele>336.0</ele><time>2026-04-21T15:52:32.399Z</time></trkpt><trkpt lat="43.7181702755323" lon="11.384972073425164"><ele>320.0</ele><time>2026-04-21T15:52:33.399Z</time></trkpt><trkpt lat="43.71762066202073" lon="11.38605275014522"><ele>313.0</ele><time>2026-04-21T15:52:53.001Z</time></trkpt><trkpt lat="43.71747666376566" lon="11.387047693546545"><ele>313.0</ele><time>2026-04-21T15:52:54.001Z</time></trkpt><trkpt lat="43.71735168925992" lon="11.38721543363627"><ele>313.0</ele><time>2026-04-21T15:52:55.001Z</time></trkpt><trkpt lat="43.71720370508697" lon="11.386768211658223"><ele>313.0</ele><time>2026-04-21T15:52:56.001Z</time></trkpt><trkpt lat="43.71706955918158" lon="11.387009186438902"><ele>313.0</ele><time>2026-04-21T15:52:57.001Z</time></trkpt><trkpt lat="43.71693821743317" lon="11.387258288395635"><ele>313.0</ele><time>2026-04-21T15:52:58.001Z</time></trkpt><trkpt lat="43.71680451743107" lon="11.38750359031683"><ele>311.3333333333333</ele><time>2026-04-21T15:52:59.001Z</time></trkpt><trkpt lat="43.71666471920112" lon="11.387746571587593"><ele>309.6666666666667</ele><time>2026-04-21T15:53:00.001Z</time></trkpt><trkpt lat="43.71653168055521" lon="11.387991934609298"><ele>308.0</ele><time>2026-04-21T15:53:01.001Z</time></trkpt><trkpt lat="43.716393903342805" lon="11.388246411877036"><ele>308.0</ele><time>2026-04-21T15:53:02.001Z</time></trkpt><trkpt lat="43.716260813971864" lon="11.388498892001332"><ele>308.0</ele><time>2026-04-21T15:53:03.001Z</time></trkpt><trkpt lat="43.71612867204606" lon="11.388761407185571"><ele>310.5</ele><time>2026-04-21T15:53:04.001Z</time></trkpt><trkpt lat="43.715984901074876" lon="11.389028149449638"><ele>313.0</ele><time>2026-04-21T15:53:05.001Z</time></trkpt><trkpt lat="43.71584702287482" lon="11.389264957020556"><ele>313.0</ele><time>2026-04-21T15:53:06.001Z</time></trkpt><trkpt lat="43.715717044433624" lon="11.389508388388073"><ele>313.0</ele><time>2026-04-21T15:53:07.001Z</time></trkpt><trkpt lat="43.71558288299821" lon="11.389756666225606"><ele>313.0</ele><time>2026-04-21T15:53:08.001Z</time></trkpt><trkpt lat="43.71545275929848" lon="11.390012263543735"><ele>312.3333333333333</ele><time>2026-04-21T15:53:09.001Z</time></trkpt><trkpt lat="43.71533344577989" lon="11.39023149510384"><ele>311.6666666666667</ele><time>2026-04-21T15:53:10.001Z</time></trkpt><trkpt lat="43.71520026147638" lon="11.390445756019014"><ele>311.0</ele><time>2026-04-21T15:53:11.001Z</time></trkpt><trkpt lat="43.71506055038587" lon="11.390630239224949"><ele>307.6666666666667</ele><time>2026-04-21T15:53:12.001Z</time></trkpt><trkpt lat="43.71490786892491" lon="11.390819256404788"><ele>304.3333333333333</ele><time>2026-04-21T15:53:13.001Z</time></trkpt><trkpt lat="43.71474276345522" lon="11.391007051672878"><ele>301.0</ele><time>2026-04-21T15:53:14.001Z</time></trkpt><trkpt lat="43.7145764788402" lon="11.391185355861383"><ele>300.3333333333333</ele><time>2026-04-21T15:53:15.001Z</time></trkpt><trkpt lat="43.714418788641204" lon="11.391364988380776"><ele>299.6666666666667</ele><time>2026-04-21T15:53:16.001Z</time></trkpt><trkpt lat="43.71423668195866" lon="11.391505388373957"><ele>299.0</ele><time>2026-04-21T15:53:17.001Z</time></trkpt><trkpt lat="43.71404045314302" lon="11.391634127036612"><ele>298.33333333333337</ele><time>2026-04-21T15:53:18.001Z</time></trkpt><trkpt lat="43.71383089178146" lon="11.391736520036899"><ele>297.6666666666667</ele><time>2026-04-21T15:53:19.001Z</time></trkpt><trkpt lat="43.713620422731886" lon="11.391838972101063"><ele>297.0</ele><time>2026-04-21T15:53:20.001Z</time></trkpt><trkpt lat="43.71340471623673" lon="11.391938741688243"><ele>292.0</ele><time>2026-04-21T15:53:21.001Z</time></trkpt><trkpt lat="43.71317966455295" lon="11.392042737552192"><ele>287.0</ele><time>2026-04-21T15:53:22.001Z</time></trkpt><trkpt lat="43.712946853269116" lon="11.392134777123244"><ele>286.0</ele><time>2026-04-21T15:53:23.001Z</time></trkpt><trkpt lat="43.71271006608964" lon="11.392213166686371"><ele>285.0</ele><time>2026-04-21T15:53:24.001Z</time></trkpt><trkpt lat="43.712472883430905" lon="11.392275389312319"><ele>285.0</ele><time>2026-04-21T15:53:25.001Z</time></trkpt><trkpt lat="43.712224552822136" lon="11.39233145310194"><ele>285.0</ele><time>2026-04-21T15:53:26Z</time></trkpt><trkpt lat="43.7119715933439" lon="11.39238041259289"><ele>286.0</ele><time>2026-04-21T15:53:27Z</time></trkpt><trkpt lat="43.71171214128892" lon="11.392421100973296"><ele>287.0</ele><time>2026-04-21T15:53:28Z</time></trkpt><trkpt lat="43.711451221675105" lon="11.392458068160957"><ele>287.0</ele><time>2026-04-21T15:53:29Z</time></trkpt><trkpt lat="43.71118622144592" lon="11.392497844181653"><ele>287.0</ele><time>2026-04-21T15:53:30Z</time></trkpt><trkpt lat="43.710916822569985" lon="11.392540241527325"><ele>287.0</ele><time>2026-04-21T15:53:31Z</time></trkpt><trkpt lat="43.71065008977081" lon="11.392589423166214"><ele>287.0</ele><time>2026-04-21T15:53:32Z</time></trkpt><trkpt lat="43.71038129281074" lon="11.392640357028702"><ele>282.5</ele><time>2026-04-21T15:53:33Z</time></trkpt><trkpt lat="43.71011416961613" lon="11.392699868227776"><ele>278.0</ele><time>2026-04-21T15:53:34Z</time></trkpt><trkpt lat="43.70985138885208" lon="11.392771470557172"><ele>278.0</ele><time>2026-04-21T15:53:35Z</time></trkpt><trkpt lat="43.709596979371874" lon="11.39285689274735"><ele>278.0</ele><time>2026-04-21T15:53:36Z</time></trkpt><trkpt lat="43.70935233223777" lon="11.39295438425567"><ele>274.5</ele><time>2026-04-21T15:53:37Z</time></trkpt><trkpt lat="43.70911204460305" lon="11.39306830165415"><ele>271.0</ele><time>2026-04-21T15:53:38Z</time></trkpt><trkpt lat="43.708871480918646" lon="11.393201548852756"><ele>271.0</ele><time>2026-04-21T15:53:39Z</time></trkpt><trkpt lat="43.70863086877479" lon="11.393351826702487"><ele>271.0</ele><time>2026-04-21T15:53:40Z</time></trkpt><trkpt lat="43.708396572472054" lon="11.393516827321632"><ele>273.5</ele><time>2026-04-21T15:53:41Z</time></trkpt><trkpt lat="43.70816939094221" lon="11.393696157065854"><ele>276.0</ele><time>2026-04-21T15:53:42Z</time></trkpt><trkpt lat="43.70794539049152" lon="11.39388921876437"><ele>276.0</ele><time>2026-04-21T15:53:43Z</time></trkpt><trkpt lat="43.707722570933264" lon="11.394096298037304"><ele>276.0</ele><time>2026-04-21T15:53:44Z</time></trkpt><trkpt lat="43.707502109407926" lon="11.394314747239644"><ele>276.0</ele><time>2026-04-21T15:53:45Z</time></trkpt><trkpt lat="43.70728793975011" lon="11.394540752173159"><ele>276.0</ele><time>2026-04-21T15:53:46Z</time></trkpt><trkpt lat="43.707080224704775" lon="11.394774498814927"><ele>276.0</ele><time>2026-04-21T15:53:47Z</time></trkpt><trkpt lat="43.70687117565059" lon="11.395014687125396"><ele>276.0</ele><time>2026-04-21T15:53:48Z</time></trkpt><trkpt lat="43.706664752034136" lon="11.395246430079938"><ele>276.0</ele><time>2026-04-21T15:53:49Z</time></trkpt><trkpt lat="43.70645371979001" lon="11.395474199792512"><ele>276.0</ele><time>2026-04-21T15:53:50Z</time></trkpt><trkpt lat="43.70623569784041" lon="11.395695914587021"><ele>279.0</ele><time>2026-04-21T15:53:51Z</time></trkpt><trkpt lat="43.70601322387543" lon="11.395914199537254"><ele>282.0</ele><time>2026-04-21T15:53:52Z</time></trkpt><trkpt lat="43.70579205292138" lon="11.396137450082964"><ele>279.5</ele><time>2026-04-21T15:53:53Z</time></trkpt><trkpt lat="43.70557618381751" lon="11.3963563174742"><ele>277.0</ele><time>2026-04-21T15:53:54Z</time></trkpt><trkpt lat="43.705361625267855" lon="11.396576874894167"><ele>280.5</ele><time>2026-04-21T15:53:55Z</time></trkpt><trkpt lat="43.70515599633882" lon="11.396795696444494"><ele>284.0</ele><time>2026-04-21T15:53:56Z</time></trkpt><trkpt lat="43.704960036165325" lon="11.397015520558185"><ele>281.0</ele><time>2026-04-21T15:53:57Z</time></trkpt><trkpt lat="43.70476460489084" lon="11.397240905396183"><ele>278.0</ele><time>2026-04-21T15:53:58Z</time></trkpt><trkpt lat="43.70456550026058" lon="11.397486052099437"><ele>278.0</ele><time>2026-04-21T15:53:59Z</time></trkpt><trkpt lat="43.70436157809894" lon="11.397726935107205"><ele>278.0</ele><time>2026-04-21T15:54:00Z</time></trkpt><trkpt lat="43.70416538006277" lon="11.397960335954588"><ele>276.0</ele><time>2026-04-21T15:54:01Z</time></trkpt><trkpt lat="43.70398040220923" lon="11.398187996296333"><ele>274.0</ele><time>2026-04-21T15:54:02Z</time></trkpt><trkpt lat="43.703787700936424" lon="11.398425837275896"><ele>274.0</ele><time>2026-04-21T15:54:03Z</time></trkpt><trkpt lat="43.70358648780981" lon="11.398668193388405"><ele>274.0</ele><time>2026-04-21T15:54:04Z</time></trkpt><trkpt lat="43.70338316877643" lon="11.398915302123516"><ele>269.5</ele><time>2026-04-21T15:54:05Z</time></trkpt><trkpt lat="43.70318015640847" lon="11.399159921987412"><ele>265.0</ele><time>2026-04-21T15:54:06Z</time></trkpt><trkpt lat="43.702986117463524" lon="11.399394693297378"><ele>265.0</ele><time>2026-04-21T15:54:07Z</time></trkpt><trkpt lat="43.70280034006895" lon="11.399623725265789"><ele>265.0</ele><time>2026-04-21T15:54:08Z</time></trkpt><trkpt lat="43.70261445038212" lon="11.399851774113241"><ele>265.5</ele><time>2026-04-21T15:54:09Z</time></trkpt><trkpt lat="43.70242492257629" lon="11.40009090266491"><ele>266.0</ele><time>2026-04-21T15:54:10Z</time></trkpt><trkpt lat="43.702234088900724" lon="11.400336112595319"><ele>265.0</ele><time>2026-04-21T15:54:11Z</time></trkpt><trkpt lat="43.70203683106729" lon="11.400580421912403"><ele>264.0</ele><time>2026-04-21T15:54:12Z</time></trkpt><trkpt lat="43.70184539015342" lon="11.400821142570969"><ele>264.0</ele><time>2026-04-21T15:54:13Z</time></trkpt><trkpt lat="43.70165427157353" lon="11.401067671264626"><ele>264.0</ele><time>2026-04-21T15:54:14Z</time></trkpt><trkpt lat="43.70146383108926" lon="11.401309478409193"><ele>262.0</ele><time>2026-04-21T15:54:15Z</time></trkpt><trkpt lat="43.70128047892384" lon="11.401539962833544"><ele>260.0</ele><time>2026-04-21T15:54:16Z</time></trkpt><trkpt lat="43.70109518906987" lon="11.401768702708537"><ele>260.5</ele><time>2026-04-21T15:54:17Z</time></trkpt><trkpt lat="43.70090765240789" lon="11.40199953165613"><ele>261.0</ele><time>2026-04-21T15:54:18Z</time></trkpt><trkpt lat="43.70072045412482" lon="11.402223857959559"><ele>258.5</ele><time>2026-04-21T15:54:19Z</time></trkpt><trkpt lat="43.70053960046812" lon="11.40244649222995"><ele>256.0</ele><time>2026-04-21T15:54:20Z</time></trkpt><trkpt lat="43.70035050579501" lon="11.402678580969528"><ele>256.5</ele><time>2026-04-21T15:54:21Z</time></trkpt><trkpt lat="43.700152453847416" lon="11.402912781814425"><ele>257.0</ele><time>2026-04-21T15:54:22Z</time></trkpt><trkpt lat="43.6999453817844" lon="11.4031457428479"><ele>253.0</ele><time>2026-04-21T15:54:23Z</time></trkpt><trkpt lat="43.69973950023111" lon="11.403373588122538"><ele>249.0</ele><time>2026-04-21T15:54:24Z</time></trkpt><trkpt lat="43.69952947411324" lon="11.403605350014264"><ele>250.5</ele><time>2026-04-21T15:54:25Z</time></trkpt><trkpt lat="43.69931998893959" lon="11.403830885465396"><ele>252.0</ele><time>2026-04-21T15:54:26Z</time></trkpt><trkpt lat="43.69910771119175" lon="11.40405233472721"><ele>252.0</ele><time>2026-04-21T15:54:27Z</time></trkpt><trkpt lat="43.69889300374842" lon="11.40427708396661"><ele>252.0</ele><time>2026-04-21T15:54:28Z</time></trkpt><trkpt lat="43.69867750896835" lon="11.404497261654498"><ele>246.5</ele><time>2026-04-21T15:54:29Z</time></trkpt><trkpt lat="43.69845944930655" lon="11.404712471815083"><ele>241.0</ele><time>2026-04-21T15:54:30Z</time></trkpt><trkpt lat="43.69823748142341" lon="11.404925406134918"><ele>241.0</ele><time>2026-04-21T15:54:31Z</time></trkpt><trkpt lat="43.69801270476937" lon="11.405137401568318"><ele>241.0</ele><time>2026-04-21T15:54:32Z</time></trkpt><trkpt lat="43.697786084356316" lon="11.405347015032724"><ele>238.0</ele><time>2026-04-21T15:54:33Z</time></trkpt><trkpt lat="43.69755994663068" lon="11.40555769344578"><ele>235.0</ele><time>2026-04-21T15:54:34Z</time></trkpt><trkpt lat="43.69732840208002" lon="11.405763583478546"><ele>235.0</ele><time>2026-04-21T15:54:35Z</time></trkpt><trkpt lat="43.69709777690732" lon="11.405968691720568"><ele>235.0</ele><time>2026-04-21T15:54:36Z</time></trkpt><trkpt lat="43.69686626735581" lon="11.406162369685669"><ele>233.0</ele><time>2026-04-21T15:54:37Z</time></trkpt><trkpt lat="43.69664184511104" lon="11.406348722020162"><ele>231.0</ele><time>2026-04-21T15:54:38Z</time></trkpt><trkpt lat="43.69642027581685" lon="11.40653692035016"><ele>231.0</ele><time>2026-04-21T15:54:39Z</time></trkpt><trkpt lat="43.69620733904205" lon="11.40672121164185"><ele>231.0</ele><time>2026-04-21T15:54:40Z</time></trkpt><trkpt lat="43.69599201249212" lon="11.406905374013773"><ele>232.5</ele><time>2026-04-21T15:54:41Z</time></trkpt><trkpt lat="43.695773640465305" lon="11.407092641786827"><ele>234.0</ele><time>2026-04-21T15:54:42Z</time></trkpt><trkpt lat="43.69555241871782" lon="11.407281405173118"><ele>228.5</ele><time>2026-04-21T15:54:43Z</time></trkpt><trkpt lat="43.69532286659141" lon="11.40747679457162"><ele>223.0</ele><time>2026-04-21T15:54:44Z</time></trkpt><trkpt lat="43.695094894062585" lon="11.40767036296048"><ele>222.0</ele><time>2026-04-21T15:54:45Z</time></trkpt><trkpt lat="43.6948719693606" lon="11.407864485614535"><ele>221.0</ele><time>2026-04-21T15:54:46Z</time></trkpt><trkpt lat="43.694654276155326" lon="11.408054777579165"><ele>222.0</ele><time>2026-04-21T15:54:47Z</time></trkpt><trkpt lat="43.69445189739919" lon="11.408235665342973"><ele>223.0</ele><time>2026-04-21T15:54:48Z</time></trkpt><trkpt lat="43.69426628431459" lon="11.408407840761988"><ele>223.0</ele><time>2026-04-21T15:54:49Z</time></trkpt><trkpt lat="43.69409436428402" lon="11.408596850933417"><ele>223.0</ele><time>2026-04-21T15:54:50Z</time></trkpt><trkpt lat="43.693931541949034" lon="11.408820250668228"><ele>223.0</ele><time>2026-04-21T15:54:51Z</time></trkpt><trkpt lat="43.69377140234528" lon="11.409059244029704"><ele>225.0</ele><time>2026-04-21T15:54:52Z</time></trkpt><trkpt lat="43.693623303677086" lon="11.409308240540813"><ele>227.0</ele><time>2026-04-21T15:54:53Z</time></trkpt><trkpt lat="43.69348803174741" lon="11.40956758066479"><ele>222.0</ele><time>2026-04-21T15:54:54Z</time></trkpt><trkpt lat="43.69336601357544" lon="11.409841741332858"><ele>217.0</ele><time>2026-04-21T15:54:55Z</time></trkpt><trkpt lat="43.693258038430386" lon="11.410125303901824"><ele>217.0</ele><time>2026-04-21T15:54:56Z</time></trkpt><trkpt lat="43.693162764127415" lon="11.410421010609134"><ele>217.0</ele><time>2026-04-21T15:54:57Z</time></trkpt><trkpt lat="43.69308011586418" lon="11.410720087518442"><ele>211.0</ele><time>2026-04-21T15:54:58Z</time></trkpt><trkpt lat="43.69301142933302" lon="11.411029309430665"><ele>205.0</ele><time>2026-04-21T15:54:59Z</time></trkpt><trkpt lat="43.6929541839636" lon="11.411353703803877"><ele>205.0</ele><time>2026-04-21T15:55:00Z</time></trkpt><trkpt lat="43.6929110845991" lon="11.411694612840197"><ele>205.0</ele><time>2026-04-21T15:55:01Z</time></trkpt><trkpt lat="43.69288373263903" lon="11.412030673580553"><ele>206.5</ele><time>2026-04-21T15:55:02Z</time></trkpt><trkpt lat="43.692875532432986" lon="11.412360379319601"><ele>208.0</ele><time>2026-04-21T15:55:03Z</time></trkpt><trkpt lat="43.69288540627331" lon="11.412690573628986"><ele>205.0</ele><time>2026-04-21T15:55:04Z</time></trkpt><trkpt lat="43.69290896370382" lon="11.413034188765657"><ele>202.0</ele><time>2026-04-21T15:55:05Z</time></trkpt><trkpt lat="43.69294210628327" lon="11.413381940332323"><ele>202.0</ele><time>2026-04-21T15:55:06Z</time></trkpt><trkpt lat="43.69297758003274" lon="11.413724494102102"><ele>202.0</ele><time>2026-04-21T15:55:07Z</time></trkpt><trkpt lat="43.693007411767475" lon="11.4140396024911"><ele>201.66666666666666</ele><time>2026-04-21T15:55:08Z</time></trkpt><trkpt lat="43.69302967140776" lon="11.414345210674734"><ele>201.33333333333331</ele><time>2026-04-21T15:55:09Z</time></trkpt><trkpt lat="43.6930518393431" lon="11.41465024416157"><ele>201.0</ele><time>2026-04-21T15:55:10Z</time></trkpt><trkpt lat="43.69307831851977" lon="11.41495653188681"><ele>201.0</ele><time>2026-04-21T15:55:11Z</time></trkpt><trkpt lat="43.69310838191924" lon="11.415255532562146"><ele>201.0</ele><time>2026-04-21T15:55:12Z</time></trkpt><trkpt lat="43.69313625688158" lon="11.415541254032915"><ele>201.0</ele><time>2026-04-21T15:55:13Z</time></trkpt><trkpt lat="43.69316263421927" lon="11.41582518934583"><ele>201.33333333333331</ele><time>2026-04-21T15:55:14Z</time></trkpt><trkpt lat="43.693186256319024" lon="11.416104369821998"><ele>201.66666666666666</ele><time>2026-04-21T15:55:15Z</time></trkpt><trkpt lat="43.69321159237932" lon="11.416373874949345"><ele>202.0</ele><time>2026-04-21T15:55:16Z</time></trkpt><trkpt lat="43.69324482168935" lon="11.416661714461"><ele>202.0</ele><time>2026-04-21T15:55:17Z</time></trkpt><trkpt lat="43.69327995426662" lon="11.416948064623758"><ele>202.0</ele><time>2026-04-21T15:55:18Z</time></trkpt><trkpt lat="43.69332575331741" lon="11.41722775641103"><ele>202.0</ele><time>2026-04-21T15:55:19Z</time></trkpt><trkpt lat="43.69338033270895" lon="11.417517320029479"><ele>201.66666666666666</ele><time>2026-04-21T15:55:20Z</time></trkpt><trkpt lat="43.693442309209715" lon="11.417807049415137"><ele>201.33333333333331</ele><time>2026-04-21T15:55:21Z</time></trkpt><trkpt lat="43.69351534745751" lon="11.41809149638157"><ele>201.0</ele><time>2026-04-21T15:55:22Z</time></trkpt><trkpt lat="43.693604228056415" lon="11.41837876993117"><ele>196.0</ele><time>2026-04-21T15:55:23Z</time></trkpt><trkpt lat="43.693695408170825" lon="11.418654539783272"><ele>191.0</ele><time>2026-04-21T15:55:24Z</time></trkpt><trkpt lat="43.693784233749156" lon="11.418929729043317"><ele>186.0</ele><time>2026-04-21T15:55:25Z</time></trkpt><trkpt lat="43.693867616106104" lon="11.419200625487782"><ele>186.0</ele><time>2026-04-21T15:55:26Z</time></trkpt><trkpt lat="43.69395143391434" lon="11.41947240088856"><ele>186.0</ele><time>2026-04-21T15:55:27Z</time></trkpt><trkpt lat="43.69403110880068" lon="11.419751071705125"><ele>186.0</ele><time>2026-04-21T15:55:28Z</time></trkpt><trkpt lat="43.69409773880951" lon="11.420046724921015"><ele>186.66666666666666</ele><time>2026-04-21T15:55:29Z</time></trkpt><trkpt lat="43.69415813286165" lon="11.420348098544041"><ele>187.33333333333331</ele><time>2026-04-21T15:55:30Z</time></trkpt><trkpt lat="43.6942104479379" lon="11.420645371673633"><ele>188.0</ele><time>2026-04-21T15:55:31Z</time></trkpt><trkpt lat="43.694257945695725" lon="11.420951167422224"><ele>188.33333333333331</ele><time>2026-04-21T15:55:32Z</time></trkpt><trkpt lat="43.69429286843472" lon="11.421257033865393"><ele>188.66666666666666</ele><time>2026-04-21T15:55:33Z</time></trkpt><trkpt lat="43.694313238645854" lon="11.421558720178659"><ele>189.0</ele><time>2026-04-21T15:55:34Z</time></trkpt><trkpt lat="43.69432873244202" lon="11.42186226976568"><ele>187.0</ele><time>2026-04-21T15:55:35Z</time></trkpt><trkpt lat="43.69433554760726" lon="11.422182169596475"><ele>185.0</ele><time>2026-04-21T15:55:36Z</time></trkpt><trkpt lat="43.694327824837764" lon="11.422500257879616"><ele>185.0</ele><time>2026-04-21T15:55:37Z</time></trkpt><trkpt lat="43.69431435164054" lon="11.422809498732107"><ele>185.0</ele><time>2026-04-21T15:55:38Z</time></trkpt><trkpt lat="43.69429339424786" lon="11.423108774351723"><ele>185.0</ele><time>2026-04-21T15:55:39Z</time></trkpt><trkpt lat="43.69426251024879" lon="11.423414883145266"><ele>184.0</ele><time>2026-04-21T15:55:40Z</time></trkpt><trkpt lat="43.69422028204743" lon="11.423726101803593"><ele>183.0</ele><time>2026-04-21T15:55:41Z</time></trkpt><trkpt lat="43.694166820776125" lon="11.424039155713592"><ele>180.0</ele><time>2026-04-21T15:55:42Z</time></trkpt><trkpt lat="43.69410640403557" lon="11.424344922659918"><ele>177.0</ele><time>2026-04-21T15:55:43Z</time></trkpt><trkpt lat="43.69403640589968" lon="11.424659645286862"><ele>177.0</ele><time>2026-04-21T15:55:44Z</time></trkpt><trkpt lat="43.69396299096096" lon="11.424974322327406"><ele>177.0</ele><time>2026-04-21T15:55:45Z</time></trkpt><trkpt lat="43.693891317625024" lon="11.42529273629378"><ele>175.0</ele><time>2026-04-21T15:55:46Z</time></trkpt><trkpt lat="43.693825015569864" lon="11.425598712597074"><ele>173.0</ele><time>2026-04-21T15:55:47Z</time></trkpt><trkpt lat="43.69375788329857" lon="11.425904293139101"><ele>173.0</ele><time>2026-04-21T15:55:48Z</time></trkpt><trkpt lat="43.693690579704416" lon="11.426200525162423"><ele>173.0</ele><time>2026-04-21T15:55:49Z</time></trkpt><trkpt lat="43.693626052384445" lon="11.426489332045012"><ele>173.0</ele><time>2026-04-21T15:55:50Z</time></trkpt><trkpt lat="43.69356040892584" lon="11.426778865286487"><ele>173.66666666666666</ele><time>2026-04-21T15:55:51Z</time></trkpt><trkpt lat="43.693494419050445" lon="11.427068011225073"><ele>174.33333333333334</ele><time>2026-04-21T15:55:52Z</time></trkpt><trkpt lat="43.69342932109837" lon="11.427360433561098"><ele>175.0</ele><time>2026-04-21T15:55:53Z</time></trkpt><trkpt lat="43.69336273698989" lon="11.427667041439966"><ele>173.0</ele><time>2026-04-21T15:55:54Z</time></trkpt><trkpt lat="43.69329133524012" lon="11.427974443346804"><ele>171.0</ele><time>2026-04-21T15:55:55Z</time></trkpt><trkpt lat="43.69322273844112" lon="11.428280183913836"><ele>168.0</ele><time>2026-04-21T15:55:56Z</time></trkpt><trkpt lat="43.693155426087145" lon="11.428595658751343"><ele>165.0</ele><time>2026-04-21T15:55:57Z</time></trkpt><trkpt lat="43.693086633455586" lon="11.428914851635387"><ele>162.0</ele><time>2026-04-21T15:55:58Z</time></trkpt><trkpt lat="43.69301723034374" lon="11.429213639719027"><ele>159.0</ele><time>2026-04-21T15:55:59Z</time></trkpt><trkpt lat="43.69295332607456" lon="11.42951248022774"><ele>156.5</ele><time>2026-04-21T15:56:00Z</time></trkpt><trkpt lat="43.69288380664749" lon="11.429821637380977"><ele>154.0</ele><time>2026-04-21T15:56:01Z</time></trkpt><trkpt lat="43.69281258393992" lon="11.430131076089653"><ele>155.0</ele><time>2026-04-21T15:56:02Z</time></trkpt><trkpt lat="43.69274281732954" lon="11.4304358038764"><ele>156.0</ele><time>2026-04-21T15:56:03Z</time></trkpt><trkpt lat="43.69267348860013" lon="11.43074194224086"><ele>154.66666666666666</ele><time>2026-04-21T15:56:04Z</time></trkpt><trkpt lat="43.692604102047376" lon="11.431035949975778"><ele>153.33333333333331</ele><time>2026-04-21T15:56:05Z</time></trkpt><trkpt lat="43.69253970948965" lon="11.431326148323967"><ele>152.0</ele><time>2026-04-21T15:56:06Z</time></trkpt><trkpt lat="43.69247697728166" lon="11.431617513769877"><ele>151.66666666666666</ele><time>2026-04-21T15:56:07Z</time></trkpt><trkpt lat="43.692415096964915" lon="11.43190960340229"><ele>151.33333333333334</ele><time>2026-04-21T15:56:08Z</time></trkpt><trkpt lat="43.692352905410615" lon="11.432211912217273"><ele>151.0</ele><time>2026-04-21T15:56:09Z</time></trkpt><trkpt lat="43.6922904457704" lon="11.43250861734496"><ele>151.0</ele><time>2026-04-21T15:56:10Z</time></trkpt><trkpt lat="43.69222425343045" lon="11.432806359448339"><ele>151.0</ele><time>2026-04-21T15:56:11Z</time></trkpt><trkpt lat="43.69215755787971" lon="11.433107405962454"><ele>151.0</ele><time>2026-04-21T15:56:12Z</time></trkpt><trkpt lat="43.692093141262646" lon="11.433400925093526"><ele>151.0</ele><time>2026-04-21T15:56:13Z</time></trkpt><trkpt lat="43.692027630674225" lon="11.433696734119083"><ele>151.0</ele><time>2026-04-21T15:56:14Z</time></trkpt><trkpt lat="43.691960669589164" lon="11.433990183345244"><ele>154.66666666666669</ele><time>2026-04-21T15:56:15Z</time></trkpt><trkpt lat="43.69189563072224" lon="11.434279209923304"><ele>158.33333333333334</ele><time>2026-04-21T15:56:16Z</time></trkpt><trkpt lat="43.69183167690181" lon="11.434558321075222"><ele>162.0</ele><time>2026-04-21T15:56:17Z</time></trkpt><trkpt lat="43.69177014447798" lon="11.434853028505461"><ele>162.0</ele><time>2026-04-21T15:56:18Z</time></trkpt><trkpt lat="43.69170722721665" lon="11.435135060114524"><ele>162.0</ele><time>2026-04-21T15:56:19Z</time></trkpt><trkpt lat="43.691644223565916" lon="11.435416142260463"><ele>162.0</ele><time>2026-04-21T15:56:20Z</time></trkpt><trkpt lat="43.6915821267395" lon="11.435694602188782"><ele>161.66666666666666</ele><time>2026-04-21T15:56:21Z</time></trkpt><trkpt lat="43.69151886706928" lon="11.435966731002093"><ele>161.33333333333331</ele><time>2026-04-21T15:56:22Z</time></trkpt><trkpt lat="43.69145492093836" lon="11.4362444309299"><ele>161.0</ele><time>2026-04-21T15:56:23Z</time></trkpt><trkpt lat="43.69139047575953" lon="11.43653345546402"><ele>160.0</ele><time>2026-04-21T15:56:24Z</time></trkpt><trkpt lat="43.691325702666155" lon="11.436821541543527"><ele>159.0</ele><time>2026-04-21T15:56:25Z</time></trkpt><trkpt lat="43.69125909781449" lon="11.437113396294535"><ele>158.0</ele><time>2026-04-21T15:56:26Z</time></trkpt><trkpt lat="43.69119142505862" lon="11.437418278346316"><ele>156.5</ele><time>2026-04-21T15:56:27Z</time></trkpt><trkpt lat="43.69112339766506" lon="11.437730098397486"><ele>155.0</ele><time>2026-04-21T15:56:28Z</time></trkpt><trkpt lat="43.691055329143154" lon="11.438053089895702"><ele>158.0</ele><time>2026-04-21T15:56:29Z</time></trkpt><trkpt lat="43.690984327545706" lon="11.438376609263845"><ele>161.0</ele><time>2026-04-21T15:56:30Z</time></trkpt><trkpt lat="43.69090739273896" lon="11.438692366402574"><ele>159.5</ele><time>2026-04-21T15:56:31Z</time></trkpt><trkpt lat="43.69082520075637" lon="11.439006563591287"><ele>158.0</ele><time>2026-04-21T15:56:32Z</time></trkpt><trkpt lat="43.69073622547226" lon="11.439321773974823"><ele>158.0</ele><time>2026-04-21T15:56:33Z</time></trkpt><trkpt lat="43.69063626090371" lon="11.439632190612286"><ele>158.0</ele><time>2026-04-21T15:56:34Z</time></trkpt><trkpt lat="43.69052845079122" lon="11.43992789628177"><ele>156.5</ele><time>2026-04-21T15:56:35Z</time></trkpt><trkpt lat="43.69041090845178" lon="11.440230008999167"><ele>155.0</ele><time>2026-04-21T15:56:36Z</time></trkpt><trkpt lat="43.69028925309054" lon="11.440529380777763"><ele>156.5</ele><time>2026-04-21T15:56:37Z</time></trkpt><trkpt lat="43.69015851210249" lon="11.440828849929725"><ele>158.0</ele><time>2026-04-21T15:56:38Z</time></trkpt><trkpt lat="43.69002034847951" lon="11.44112151404104"><ele>155.0</ele><time>2026-04-21T15:56:39Z</time></trkpt><trkpt lat="43.68987644383593" lon="11.44139795980473"><ele>152.0</ele><time>2026-04-21T15:56:40Z</time></trkpt><trkpt lat="43.68971799317307" lon="11.44167893393608"><ele>152.0</ele><time>2026-04-21T15:56:41Z</time></trkpt><trkpt lat="43.689552185273904" lon="11.44195739086554"><ele>152.0</ele><time>2026-04-21T15:56:42Z</time></trkpt><trkpt lat="43.68937724803903" lon="11.442231230557443"><ele>149.5</ele><time>2026-04-21T15:56:43Z</time></trkpt><trkpt lat="43.68919111268773" lon="11.4424940036616"><ele>147.0</ele><time>2026-04-21T15:56:44Z</time></trkpt><trkpt lat="43.68899696332055" lon="11.442740293260195"><ele>146.5</ele><time>2026-04-21T15:56:45Z</time></trkpt><trkpt lat="43.68879492323543" lon="11.442979390192548"><ele>146.0</ele><time>2026-04-21T15:56:46Z</time></trkpt><trkpt lat="43.68859775856995" lon="11.443211811575004"><ele>144.0</ele><time>2026-04-21T15:56:47Z</time></trkpt><trkpt lat="43.68839240427028" lon="11.443436450058275"><ele>142.0</ele><time>2026-04-21T15:56:48Z</time></trkpt><trkpt lat="43.6881772766541" lon="11.443651707045046"><ele>142.0</ele><time>2026-04-21T15:56:49Z</time></trkpt><trkpt lat="43.68795512712913" lon="11.44385996950573"><ele>142.0</ele><time>2026-04-21T15:56:50Z</time></trkpt><trkpt lat="43.68774035285056" lon="11.444054202419899"><ele>142.0</ele><time>2026-04-21T15:56:51Z</time></trkpt><trkpt lat="43.687531356963255" lon="11.444238721760579"><ele>142.0</ele><time>2026-04-21T15:56:52Z</time></trkpt><trkpt lat="43.687320100772" lon="11.444425378134094"><ele>142.0</ele><time>2026-04-21T15:56:53Z</time></trkpt><trkpt lat="43.68711013541405" lon="11.44461638112751"><ele>142.0</ele><time>2026-04-21T15:56:54Z</time></trkpt><trkpt lat="43.686907354777425" lon="11.44480363704526"><ele>139.5</ele><time>2026-04-21T15:56:55Z</time></trkpt><trkpt lat="43.68669289919193" lon="11.444999213386518"><ele>137.0</ele><time>2026-04-21T15:56:56Z</time></trkpt><trkpt lat="43.686471394098625" lon="11.445197842775679"><ele>137.0</ele><time>2026-04-21T15:56:57Z</time></trkpt><trkpt lat="43.6862419460534" lon="11.44540093157029"><ele>137.0</ele><time>2026-04-21T15:56:58Z</time></trkpt><trkpt lat="43.68600781409726" lon="11.445611017949801"><ele>137.5</ele><time>2026-04-21T15:56:59Z</time></trkpt><trkpt lat="43.685769843657496" lon="11.445823453777423"><ele>138.0</ele><time>2026-04-21T15:57:00Z</time></trkpt><trkpt lat="43.68553129268422" lon="11.446043138270019"><ele>138.0</ele><time>2026-04-21T15:57:01Z</time></trkpt><trkpt lat="43.685302377236816" lon="11.446228514839035"><ele>138.0</ele><time>2026-04-21T15:57:02Z</time></trkpt><trkpt lat="43.68507332652643" lon="11.446429030239848"><ele>134.0</ele><time>2026-04-21T15:57:03Z</time></trkpt><trkpt lat="43.68485462175477" lon="11.446602427148166"><ele>130.0</ele><time>2026-04-21T15:57:04Z</time></trkpt><trkpt lat="43.684635724610835" lon="11.446766802659102"><ele>127.5</ele><time>2026-04-21T15:57:05Z</time></trkpt><trkpt lat="43.68441750187757" lon="11.447018594157106"><ele>125.0</ele><time>2026-04-21T15:57:06Z</time></trkpt><trkpt lat="43.68419530151021" lon="11.447219538279064"><ele>124.5</ele><time>2026-04-21T15:57:07Z</time></trkpt><trkpt lat="43.68397206427435" lon="11.447418397038772"><ele>124.0</ele><time>2026-04-21T15:57:08Z</time></trkpt><trkpt lat="43.68375606306212" lon="11.44761756148878"><ele>123.0</ele><time>2026-04-21T15:57:09Z</time></trkpt><trkpt lat="43.68352991177937" lon="11.447812377488694"><ele>122.0</ele><time>2026-04-21T15:57:10Z</time></trkpt><trkpt lat="43.68330995479857" lon="11.448010411573971"><ele>121.0</ele><time>2026-04-21T15:57:11Z</time></trkpt><trkpt lat="43.68308804311546" lon="11.448207870180667"><ele>120.0</ele><time>2026-04-21T15:57:12Z</time></trkpt><trkpt lat="43.68287354878219" lon="11.448402973408916"><ele>120.0</ele><time>2026-04-21T15:57:13Z</time></trkpt><trkpt lat="43.682663879015024" lon="11.448587918301067"><ele>120.0</ele><time>2026-04-21T15:57:14Z</time></trkpt><trkpt lat="43.682457405977125" lon="11.448764371982339"><ele>120.0</ele><time>2026-04-21T15:57:15Z</time></trkpt><trkpt lat="43.68225639438928" lon="11.448946577451693"><ele>120.0</ele><time>2026-04-21T15:57:16Z</time></trkpt><trkpt lat="43.68205071762116" lon="11.44912357707019"><ele>120.0</ele><time>2026-04-21T15:57:17Z</time></trkpt><trkpt lat="43.68184656937644" lon="11.449312087546"><ele>120.0</ele><time>2026-04-21T15:57:18Z</time></trkpt><trkpt lat="43.681645966858795" lon="11.44949303551096"><ele>122.0</ele><time>2026-04-21T15:57:19Z</time></trkpt><trkpt lat="43.681442413848764" lon="11.449678316862984"><ele>124.0</ele><time>2026-04-21T15:57:20Z</time></trkpt><trkpt lat="43.68123059950392" lon="11.449868513974094"><ele>127.0</ele><time>2026-04-21T15:57:21Z</time></trkpt><trkpt lat="43.6810150383724" lon="11.450058466787604"><ele>130.0</ele><time>2026-04-21T15:57:22Z</time></trkpt><trkpt lat="43.68079437133487" lon="11.450253985198401"><ele>130.0</ele><time>2026-04-21T15:57:23Z</time></trkpt><trkpt lat="43.68058301523622" lon="11.450433293294717"><ele>130.0</ele><time>2026-04-21T15:57:24Z</time></trkpt><trkpt lat="43.68037231316554" lon="11.450607983155487"><ele>132.0</ele><time>2026-04-21T15:57:25Z</time></trkpt><trkpt lat="43.680148965157784" lon="11.450783271977572"><ele>134.0</ele><time>2026-04-21T15:57:26Z</time></trkpt><trkpt lat="43.67992071837829" lon="11.450953681370867"><ele>134.0</ele><time>2026-04-21T15:57:27Z</time></trkpt><trkpt lat="43.67969083685729" lon="11.451123703713918"><ele>134.0</ele><time>2026-04-21T15:57:28Z</time></trkpt><trkpt lat="43.67945656629274" lon="11.451300608170508"><ele>134.5</ele><time>2026-04-21T15:57:29Z</time></trkpt><trkpt lat="43.67923150029184" lon="11.45146071360127"><ele>135.0</ele><time>2026-04-21T15:57:30Z</time></trkpt><trkpt lat="43.679012824689245" lon="11.451603552486963"><ele>135.0</ele><time>2026-04-21T15:57:31Z</time></trkpt><trkpt lat="43.67879026987461" lon="11.451753715943148"><ele>135.0</ele><time>2026-04-21T15:57:32Z</time></trkpt><trkpt lat="43.67855960539821" lon="11.451904725613753"><ele>135.0</ele><time>2026-04-21T15:57:33Z</time></trkpt><trkpt lat="43.67831953615836" lon="11.452045685211369"><ele>135.0</ele><time>2026-04-21T15:57:34Z</time></trkpt><trkpt lat="43.67807677394728" lon="11.4521833913766"><ele>135.0</ele><time>2026-04-21T15:57:35Z</time></trkpt><trkpt lat="43.677827211319816" lon="11.452321589345976"><ele>135.0</ele><time>2026-04-21T15:57:36Z</time></trkpt><trkpt lat="43.677578150574924" lon="11.452456216984443"><ele>137.5</ele><time>2026-04-21T15:57:37Z</time></trkpt><trkpt lat="43.67734171942549" lon="11.452578771968351"><ele>140.0</ele><time>2026-04-21T15:57:38Z</time></trkpt><trkpt lat="43.67711247947861" lon="11.452686360467883"><ele>137.0</ele><time>2026-04-21T15:57:39Z</time></trkpt><trkpt lat="43.676883458348286" lon="11.452805016121385"><ele>134.0</ele><time>2026-04-21T15:57:40Z</time></trkpt><trkpt lat="43.67665292496316" lon="11.452926551119019"><ele>125.5</ele><time>2026-04-21T15:57:41Z</time></trkpt><trkpt lat="43.67643209461611" lon="11.453042876421287"><ele>117.0</ele><time>2026-04-21T15:57:42Z</time></trkpt><trkpt lat="43.67621076188683" lon="11.4531607044373"><ele>114.0</ele><time>2026-04-21T15:57:43Z</time></trkpt><trkpt lat="43.67598297475812" lon="11.453283684652623"><ele>111.0</ele><time>2026-04-21T15:57:44Z</time></trkpt><trkpt lat="43.67574913082445" lon="11.45341141725742"><ele>111.0</ele><time>2026-04-21T15:57:45Z</time></trkpt><trkpt lat="43.6755145633457" lon="11.453531808199303"><ele>111.0</ele><time>2026-04-21T15:57:46Z</time></trkpt><trkpt lat="43.67528512134217" lon="11.453648582830072"><ele>116.5</ele><time>2026-04-21T15:57:47Z</time></trkpt><trkpt lat="43.67505661632246" lon="11.453767435880305"><ele>122.0</ele><time>2026-04-21T15:57:48Z</time></trkpt><trkpt lat="43.67482504170205" lon="11.45388935597539"><ele>131.5</ele><time>2026-04-21T15:57:49Z</time></trkpt><trkpt lat="43.674588967502544" lon="11.454014992209238"><ele>141.0</ele><time>2026-04-21T15:57:50Z</time></trkpt><trkpt lat="43.674357086743235" lon="11.454134301621783"><ele>149.5</ele><time>2026-04-21T15:57:51Z</time></trkpt><trkpt lat="43.67412348739246" lon="11.454260440956487"><ele>158.0</ele><time>2026-04-21T15:57:52Z</time></trkpt><trkpt lat="43.67388744488449" lon="11.454397496196759"><ele>158.0</ele><time>2026-04-21T15:57:53Z</time></trkpt><trkpt lat="43.67365156082013" lon="11.454536423811314"><ele>158.0</ele><time>2026-04-21T15:57:54Z</time></trkpt><trkpt lat="43.67341726579744" lon="11.454673878178466"><ele>168.5</ele><time>2026-04-21T15:57:55Z</time></trkpt><trkpt lat="43.67318135424662" lon="11.45481220852764"><ele>179.0</ele><time>2026-04-21T15:57:56Z</time></trkpt><trkpt lat="43.672942472737134" lon="11.454955471653529"><ele>169.5</ele><time>2026-04-21T15:57:57Z</time></trkpt><trkpt lat="43.67269307539149" lon="11.45510466479507"><ele>160.0</ele><time>2026-04-21T15:57:58.078Z</time></trkpt><trkpt lat="43.67245877133918" lon="11.455205980675393"><ele>151.0</ele><time>2026-04-21T15:57:59.073Z</time></trkpt><trkpt lat="43.671522044590084" lon="11.455551627199524"><ele>151.0</ele><time>2026-04-21T15:58:03Z</time></trkpt><trkpt lat="43.67129076749967" lon="11.455662741761968"><ele>151.0</ele><time>2026-04-21T15:58:04Z</time></trkpt><trkpt lat="43.67108866166022" lon="11.455832909384236"><ele>143.0</ele><time>2026-04-21T15:58:05Z</time></trkpt><trkpt lat="43.67087864112748" lon="11.45593917206315"><ele>135.0</ele><time>2026-04-21T15:58:06Z</time></trkpt><trkpt lat="43.67065728819915" lon="11.45606311832687"><ele>135.0</ele><time>2026-04-21T15:58:07Z</time></trkpt><trkpt lat="43.67040145406275" lon="11.456200802578284"><ele>135.0</ele><time>2026-04-21T15:58:08Z</time></trkpt><trkpt lat="43.67017423642886" lon="11.456344087846796"><ele>133.0</ele><time>2026-04-21T15:58:09Z</time></trkpt><trkpt lat="43.66992284570284" lon="11.456493114911375"><ele>131.0</ele><time>2026-04-21T15:58:10Z</time></trkpt><trkpt lat="43.669678943035564" lon="11.456658382972508"><ele>130.0</ele><time>2026-04-21T15:58:11Z</time></trkpt><trkpt lat="43.66943496618546" lon="11.456817203228821"><ele>129.0</ele><time>2026-04-21T15:58:12Z</time></trkpt><trkpt lat="43.66918878570482" lon="11.456978078196316"><ele>128.0</ele><time>2026-04-21T15:58:13Z</time></trkpt><trkpt lat="43.66894372440412" lon="11.457131416202934"><ele>127.0</ele><time>2026-04-21T15:58:14Z</time></trkpt><trkpt lat="43.6686937568877" lon="11.45727833402051"><ele>128.0</ele><time>2026-04-21T15:58:15Z</time></trkpt><trkpt lat="43.66844086240678" lon="11.457421255443244"><ele>129.0</ele><time>2026-04-21T15:58:16Z</time></trkpt><trkpt lat="43.668187328000684" lon="11.457555518590489"><ele>129.0</ele><time>2026-04-21T15:58:17Z</time></trkpt><trkpt lat="43.66793249716622" lon="11.457686618987152"><ele>129.0</ele><time>2026-04-21T15:58:18Z</time></trkpt><trkpt lat="43.66767690356166" lon="11.457817823473441"><ele>132.5</ele><time>2026-04-21T15:58:19Z</time></trkpt><trkpt lat="43.667419254992325" lon="11.457951610981164"><ele>136.0</ele><time>2026-04-21T15:58:20Z</time></trkpt><trkpt lat="43.66716299961827" lon="11.458084268760363"><ele>137.0</ele><time>2026-04-21T15:58:21Z</time></trkpt><trkpt lat="43.666905628677036" lon="11.458214504038088"><ele>138.0</ele><time>2026-04-21T15:58:22Z</time></trkpt><trkpt lat="43.666646175149644" lon="11.458351851507047"><ele>138.0</ele><time>2026-04-21T15:58:23Z</time></trkpt><trkpt lat="43.666386763780544" lon="11.458484667427703"><ele>138.0</ele><time>2026-04-21T15:58:24Z</time></trkpt><trkpt lat="43.66612516654298" lon="11.458620591111893"><ele>138.0</ele><time>2026-04-21T15:58:25Z</time></trkpt><trkpt lat="43.66586309787464" lon="11.458758981435915"><ele>138.0</ele><time>2026-04-21T15:58:26Z</time></trkpt><trkpt lat="43.665600271854814" lon="11.458895950414288"><ele>137.5</ele><time>2026-04-21T15:58:27Z</time></trkpt><trkpt lat="43.66533676156485" lon="11.459032325474352"><ele>137.0</ele><time>2026-04-21T15:58:28Z</time></trkpt><trkpt lat="43.66506320764795" lon="11.459175580558673"><ele>137.0</ele><time>2026-04-21T15:58:29Z</time></trkpt><trkpt lat="43.66480433854308" lon="11.459316034767571"><ele>137.0</ele><time>2026-04-21T15:58:30Z</time></trkpt><trkpt lat="43.664541351794846" lon="11.459462452164837"><ele>137.5</ele><time>2026-04-21T15:58:31Z</time></trkpt><trkpt lat="43.664281431834816" lon="11.459614668558023"><ele>138.0</ele><time>2026-04-21T15:58:32Z</time></trkpt><trkpt lat="43.664023433901" lon="11.459772473376502"><ele>138.0</ele><time>2026-04-21T15:58:33Z</time></trkpt><trkpt lat="43.66376602164693" lon="11.459936689907522"><ele>138.0</ele><time>2026-04-21T15:58:34Z</time></trkpt><trkpt lat="43.66351343248705" lon="11.460107940979213"><ele>138.0</ele><time>2026-04-21T15:58:35Z</time></trkpt><trkpt lat="43.663259729428304" lon="11.460274796044992"><ele>138.0</ele><time>2026-04-21T15:58:36Z</time></trkpt><trkpt lat="43.66301385386626" lon="11.46044571321204"><ele>138.0</ele><time>2026-04-21T15:58:37Z</time></trkpt><trkpt lat="43.66277487142169" lon="11.460614905967901"><ele>138.0</ele><time>2026-04-21T15:58:38Z</time></trkpt><trkpt lat="43.662549149338496" lon="11.46078227424144"><ele>138.0</ele><time>2026-04-21T15:58:39Z</time></trkpt><trkpt lat="43.66232955948886" lon="11.460962987933128"><ele>138.0</ele><time>2026-04-21T15:58:40Z</time></trkpt><trkpt lat="43.662114136104066" lon="11.461148023880723"><ele>135.5</ele><time>2026-04-21T15:58:41Z</time></trkpt><trkpt lat="43.66190088279407" lon="11.461331937249913"><ele>133.0</ele><time>2026-04-21T15:58:42Z</time></trkpt><trkpt lat="43.66169042967582" lon="11.461511146898347"><ele>133.0</ele><time>2026-04-21T15:58:43Z</time></trkpt><trkpt lat="43.661477630690705" lon="11.461698142901417"><ele>133.0</ele><time>2026-04-21T15:58:44Z</time></trkpt><trkpt lat="43.66125871156545" lon="11.461890058069338"><ele>130.5</ele><time>2026-04-21T15:58:45Z</time></trkpt><trkpt lat="43.66103678284667" lon="11.462092053647202"><ele>128.0</ele><time>2026-04-21T15:58:46Z</time></trkpt><trkpt lat="43.660817775838474" lon="11.462297819485956"><ele>128.0</ele><time>2026-04-21T15:58:47Z</time></trkpt><trkpt lat="43.66058366155425" lon="11.46249728630767"><ele>128.0</ele><time>2026-04-21T15:58:48Z</time></trkpt><trkpt lat="43.660354401203676" lon="11.462701504819341"><ele>129.5</ele><time>2026-04-21T15:58:49Z</time></trkpt><trkpt lat="43.660120720240414" lon="11.462911370059546"><ele>131.0</ele><time>2026-04-21T15:58:50Z</time></trkpt><trkpt lat="43.659886210229864" lon="11.463117676451919"><ele>131.0</ele><time>2026-04-21T15:58:51Z</time></trkpt><trkpt lat="43.65965228832441" lon="11.463324885847747"><ele>131.0</ele><time>2026-04-21T15:58:52Z</time></trkpt><trkpt lat="43.65941674847878" lon="11.46353022296593"><ele>133.0</ele><time>2026-04-21T15:58:53Z</time></trkpt><trkpt lat="43.65918156338703" lon="11.463742400679648"><ele>135.0</ele><time>2026-04-21T15:58:54Z</time></trkpt><trkpt lat="43.65894408661921" lon="11.46395308010738"><ele>135.0</ele><time>2026-04-21T15:58:55Z</time></trkpt><trkpt lat="43.65870538389696" lon="11.464160499650033"><ele>135.0</ele><time>2026-04-21T15:58:56Z</time></trkpt><trkpt lat="43.65846195738649" lon="11.464356560527415"><ele>135.5</ele><time>2026-04-21T15:58:57Z</time></trkpt><trkpt lat="43.658212560806746" lon="11.464527383031195"><ele>136.0</ele><time>2026-04-21T15:58:58Z</time></trkpt><trkpt lat="43.657955580352336" lon="11.464678566129143"><ele>136.0</ele><time>2026-04-21T15:58:59Z</time></trkpt><trkpt lat="43.65769160432182" lon="11.464823878319535"><ele>136.0</ele><time>2026-04-21T15:59:00Z</time></trkpt><trkpt lat="43.657420764341765" lon="11.46495165179455"><ele>136.0</ele><time>2026-04-21T15:59:01Z</time></trkpt><trkpt lat="43.657149080807336" lon="11.465062368588438"><ele>136.0</ele><time>2026-04-21T15:59:02Z</time></trkpt><trkpt lat="43.656873628432294" lon="11.465166524646108"><ele>135.5</ele><time>2026-04-21T15:59:03Z</time></trkpt><trkpt lat="43.656590926210434" lon="11.465256459535718"><ele>135.0</ele><time>2026-04-21T15:59:04Z</time></trkpt><trkpt lat="43.65630692487872" lon="11.465336099690601"><ele>132.0</ele><time>2026-04-21T15:59:05Z</time></trkpt><trkpt lat="43.65603344804743" lon="11.465405157179083"><ele>129.0</ele><time>2026-04-21T15:59:06Z</time></trkpt><trkpt lat="43.65574368465219" lon="11.465442221648875"><ele>133.5</ele><time>2026-04-21T15:59:07Z</time></trkpt><trkpt lat="43.65545709860994" lon="11.465469870381803"><ele>138.0</ele><time>2026-04-21T15:59:08Z</time></trkpt><trkpt lat="43.65516852720325" lon="11.465478261980675"><ele>138.5</ele><time>2026-04-21T15:59:09Z</time></trkpt><trkpt lat="43.654878229712345" lon="11.465479374047707"><ele>139.0</ele><time>2026-04-21T15:59:10Z</time></trkpt><trkpt lat="43.65458551265161" lon="11.465477742103383"><ele>139.5</ele><time>2026-04-21T15:59:11Z</time></trkpt><trkpt lat="43.65430067973176" lon="11.465474221701001"><ele>140.0</ele><time>2026-04-21T15:59:12Z</time></trkpt><trkpt lat="43.65401962117991" lon="11.465487604007944"><ele>140.0</ele><time>2026-04-21T15:59:13Z</time></trkpt><trkpt lat="43.65374044288258" lon="11.465498685785409"><ele>140.0</ele><time>2026-04-21T15:59:14Z</time></trkpt><trkpt lat="43.653462189979685" lon="11.465509564320774"><ele>139.5</ele><time>2026-04-21T15:59:15Z</time></trkpt><trkpt lat="43.65318274045569" lon="11.465518598028456"><ele>139.0</ele><time>2026-04-21T15:59:16Z</time></trkpt><trkpt lat="43.652905796144836" lon="11.465526395372041"><ele>139.5</ele><time>2026-04-21T15:59:17Z</time></trkpt><trkpt lat="43.65263088932842" lon="11.465531943630548"><ele>140.0</ele><time>2026-04-21T15:59:18Z</time></trkpt><trkpt lat="43.65235411772978" lon="11.465537142658766"><ele>140.0</ele><time>2026-04-21T15:59:19Z</time></trkpt><trkpt lat="43.6520737510443" lon="11.465541698659056"><ele>140.0</ele><time>2026-04-21T15:59:20Z</time></trkpt><trkpt lat="43.651791287387134" lon="11.46555180553227"><ele>139.5</ele><time>2026-04-21T15:59:21Z</time></trkpt><trkpt lat="43.65150455468511" lon="11.465561776670674"><ele>139.0</ele><time>2026-04-21T15:59:22Z</time></trkpt><trkpt lat="43.65121312243211" lon="11.465572389057675"><ele>138.0</ele><time>2026-04-21T15:59:23Z</time></trkpt><trkpt lat="43.65092378061748" lon="11.465581828886942"><ele>137.0</ele><time>2026-04-21T15:59:24Z</time></trkpt><trkpt lat="43.65063634623031" lon="11.465590445221753"><ele>137.0</ele><time>2026-04-21T15:59:25Z</time></trkpt><trkpt lat="43.65035118549264" lon="11.465594059906687"><ele>137.0</ele><time>2026-04-21T15:59:26Z</time></trkpt><trkpt lat="43.65007219934488" lon="11.46560350391299"><ele>135.0</ele><time>2026-04-21T15:59:27Z</time></trkpt><trkpt lat="43.649795156375916" lon="11.465612007474721"><ele>133.0</ele><time>2026-04-21T15:59:28Z</time></trkpt><trkpt lat="43.64951821888394" lon="11.465621595477709"><ele>131.0</ele><time>2026-04-21T15:59:29Z</time></trkpt><trkpt lat="43.649240199553375" lon="11.465628090844486"><ele>129.0</ele><time>2026-04-21T15:59:30Z</time></trkpt><trkpt lat="43.64896595171054" lon="11.465631933211148"><ele>129.0</ele><time>2026-04-21T15:59:31Z</time></trkpt><trkpt lat="43.64868701308572" lon="11.465638546483458"><ele>129.0</ele><time>2026-04-21T15:59:32Z</time></trkpt><trkpt lat="43.64840861359449" lon="11.465640815012437"><ele>128.0</ele><time>2026-04-21T15:59:33Z</time></trkpt><trkpt lat="43.64812885993494" lon="11.46564450118571"><ele>127.0</ele><time>2026-04-21T15:59:34Z</time></trkpt><trkpt lat="43.64784761403656" lon="11.465649298078404"><ele>127.0</ele><time>2026-04-21T15:59:35Z</time></trkpt><trkpt lat="43.647566513893665" lon="11.465656731039774"><ele>127.0</ele><time>2026-04-21T15:59:36Z</time></trkpt><trkpt lat="43.64728450692039" lon="11.465673867678872"><ele>127.0</ele><time>2026-04-21T15:59:37Z</time></trkpt><trkpt lat="43.647002291236234" lon="11.465677682614302"><ele>127.0</ele><time>2026-04-21T15:59:38Z</time></trkpt><trkpt lat="43.64672154396837" lon="11.465683862977807"><ele>127.0</ele><time>2026-04-21T15:59:39Z</time></trkpt><trkpt lat="43.646450471978866" lon="11.465691606964514"><ele>127.0</ele><time>2026-04-21T15:59:40Z</time></trkpt><trkpt lat="43.64618070440288" lon="11.465695326349588"><ele>127.5</ele><time>2026-04-21T15:59:41Z</time></trkpt><trkpt lat="43.64590916877503" lon="11.465703516766169"><ele>128.0</ele><time>2026-04-21T15:59:42Z</time></trkpt><trkpt lat="43.64563524015519" lon="11.465712102482048"><ele>128.0</ele><time>2026-04-21T15:59:43Z</time></trkpt><trkpt lat="43.64536071911017" lon="11.465720095879464"><ele>128.0</ele><time>2026-04-21T15:59:44Z</time></trkpt><trkpt lat="43.645086370243234" lon="11.465725419949848"><ele>127.0</ele><time>2026-04-21T15:59:45Z</time></trkpt><trkpt lat="43.64480991077245" lon="11.465735033437255"><ele>126.0</ele><time>2026-04-21T15:59:46Z</time></trkpt><trkpt lat="43.644536739320095" lon="11.465735894997074"><ele>126.0</ele><time>2026-04-21T15:59:47Z</time></trkpt><trkpt lat="43.64426570695809" lon="11.46573243316342"><ele>126.0</ele><time>2026-04-21T15:59:48Z</time></trkpt><trkpt lat="43.64399023037941" lon="11.465738506920841"><ele>126.0</ele><time>2026-04-21T15:59:49Z</time></trkpt><trkpt lat="43.64371160270002" lon="11.465747533554405"><ele>126.0</ele><time>2026-04-21T15:59:50Z</time></trkpt><trkpt lat="43.64342781102684" lon="11.465755989670793"><ele>126.0</ele><time>2026-04-21T15:59:51Z</time></trkpt><trkpt lat="43.64314420878035" lon="11.465765534124413"><ele>126.0</ele><time>2026-04-21T15:59:52Z</time></trkpt><trkpt lat="43.64285790640648" lon="11.465783777906033"><ele>125.5</ele><time>2026-04-21T15:59:53Z</time></trkpt><trkpt lat="43.64257491246768" lon="11.465791765424372"><ele>125.0</ele><time>2026-04-21T15:59:54Z</time></trkpt><trkpt lat="43.64228852401214" lon="11.465790005384163"><ele>125.0</ele><time>2026-04-21T15:59:55Z</time></trkpt><trkpt lat="43.64200208426349" lon="11.465790269450574"><ele>125.0</ele><time>2026-04-21T15:59:56Z</time></trkpt><trkpt lat="43.64171808995011" lon="11.465795178321377"><ele>124.5</ele><time>2026-04-21T15:59:57Z</time></trkpt><trkpt lat="43.641442881537756" lon="11.46580280133194"><ele>124.0</ele><time>2026-04-21T15:59:58Z</time></trkpt><trkpt lat="43.64116564949842" lon="11.465812617827696"><ele>124.5</ele><time>2026-04-21T15:59:59Z</time></trkpt><trkpt lat="43.64089131354137" lon="11.46583334497642"><ele>125.0</ele><time>2026-04-21T16:00:00Z</time></trkpt><trkpt lat="43.64061257368921" lon="11.465849849606606"><ele>125.0</ele><time>2026-04-21T16:00:01Z</time></trkpt><trkpt lat="43.6403216855008" lon="11.465850447010634"><ele>125.0</ele><time>2026-04-21T16:00:02Z</time></trkpt><trkpt lat="43.640054187158036" lon="11.465836727691132"><ele>124.5</ele><time>2026-04-21T16:00:03Z</time></trkpt><trkpt lat="43.63977110796625" lon="11.465846205724928"><ele>124.0</ele><time>2026-04-21T16:00:04Z</time></trkpt><trkpt lat="43.63949523281302" lon="11.465855857314603"><ele>122.5</ele><time>2026-04-21T16:00:05Z</time></trkpt><trkpt lat="43.63921619937957" lon="11.465868849984707"><ele>121.0</ele><time>2026-04-21T16:00:06Z</time></trkpt><trkpt lat="43.63895280958202" lon="11.465879599424866"><ele>121.0</ele><time>2026-04-21T16:00:07Z</time></trkpt><trkpt lat="43.638689717882464" lon="11.465907078603147"><ele>121.0</ele><time>2026-04-21T16:00:08Z</time></trkpt><trkpt lat="43.63842427489886" lon="11.465960179222881"><ele>120.0</ele><time>2026-04-21T16:00:09Z</time></trkpt><trkpt lat="43.63815625286665" lon="11.466040874676823"><ele>119.0</ele><time>2026-04-21T16:00:10Z</time></trkpt><trkpt lat="43.63789280290607" lon="11.466134040180695"><ele>119.5</ele><time>2026-04-21T16:00:11Z</time></trkpt><trkpt lat="43.637638646537866" lon="11.466256599398378"><ele>120.0</ele><time>2026-04-21T16:00:12Z</time></trkpt><trkpt lat="43.63739019852118" lon="11.466383048726435"><ele>120.0</ele><time>2026-04-21T16:00:13Z</time></trkpt><trkpt lat="43.63714538605036" lon="11.466530451378508"><ele>120.0</ele><time>2026-04-21T16:00:14Z</time></trkpt><trkpt lat="43.636901800491586" lon="11.466689047634643"><ele>120.5</ele><time>2026-04-21T16:00:15Z</time></trkpt><trkpt lat="43.6366602258826" lon="11.466856950612039"><ele>121.0</ele><time>2026-04-21T16:00:16Z</time></trkpt><trkpt lat="43.63642861725745" lon="11.467037603864558"><ele>120.5</ele><time>2026-04-21T16:00:17Z</time></trkpt><trkpt lat="43.63620521524637" lon="11.467236091926548"><ele>120.0</ele><time>2026-04-21T16:00:18Z</time></trkpt><trkpt lat="43.63599358206561" lon="11.467449484028982"><ele>120.0</ele><time>2026-04-21T16:00:19Z</time></trkpt><trkpt lat="43.635785135416434" lon="11.467678036611215"><ele>120.0</ele><time>2026-04-21T16:00:20Z</time></trkpt><trkpt lat="43.63557683552582" lon="11.467918272460912"><ele>120.0</ele><time>2026-04-21T16:00:21Z</time></trkpt><trkpt lat="43.63536884730881" lon="11.468159565460669"><ele>120.0</ele><time>2026-04-21T16:00:22Z</time></trkpt><trkpt lat="43.635154777343" lon="11.468395102871167"><ele>120.0</ele><time>2026-04-21T16:00:23Z</time></trkpt><trkpt lat="43.63493764387059" lon="11.468625094636119"><ele>120.0</ele><time>2026-04-21T16:00:24Z</time></trkpt><trkpt lat="43.63472547362946" lon="11.468863595175298"><ele>121.0</ele><time>2026-04-21T16:00:25Z</time></trkpt><trkpt lat="43.63450576639942" lon="11.469107421883264"><ele>122.0</ele><time>2026-04-21T16:00:26Z</time></trkpt><trkpt lat="43.634287643288246" lon="11.469348407332651"><ele>122.0</ele><time>2026-04-21T16:00:27Z</time></trkpt><trkpt lat="43.63407112057373" lon="11.469580923708119"><ele>122.0</ele><time>2026-04-21T16:00:28Z</time></trkpt><trkpt lat="43.63385015058368" lon="11.469822087320324"><ele>121.5</ele><time>2026-04-21T16:00:29Z</time></trkpt><trkpt lat="43.633630960882776" lon="11.470061722137949"><ele>121.0</ele><time>2026-04-21T16:00:30Z</time></trkpt><trkpt lat="43.63341633794533" lon="11.470297174560862"><ele>122.5</ele><time>2026-04-21T16:00:31Z</time></trkpt><trkpt lat="43.63319918184192" lon="11.470534066024154"><ele>124.0</ele><time>2026-04-21T16:00:32Z</time></trkpt><trkpt lat="43.632981475880136" lon="11.47077272427681"><ele>123.0</ele><time>2026-04-21T16:00:33Z</time></trkpt><trkpt lat="43.632763336419416" lon="11.4710112311427"><ele>122.0</ele><time>2026-04-21T16:00:34Z</time></trkpt><trkpt lat="43.63254262037697" lon="11.471254228529423"><ele>122.5</ele><time>2026-04-21T16:00:35Z</time></trkpt><trkpt lat="43.632320255966384" lon="11.471500128848083"><ele>123.0</ele><time>2026-04-21T16:00:36Z</time></trkpt><trkpt lat="43.632093971935575" lon="11.471747225605249"><ele>123.0</ele><time>2026-04-21T16:00:37Z</time></trkpt><trkpt lat="43.6318657081705" lon="11.471995503591934"><ele>123.0</ele><time>2026-04-21T16:00:38Z</time></trkpt><trkpt lat="43.63163706140008" lon="11.4722458989982"><ele>123.0</ele><time>2026-04-21T16:00:39Z</time></trkpt><trkpt lat="43.6314074745105" lon="11.472499151050162"><ele>123.0</ele><time>2026-04-21T16:00:40Z</time></trkpt><trkpt lat="43.63117800623778" lon="11.4727513402644"><ele>123.0</ele><time>2026-04-21T16:00:41Z</time></trkpt><trkpt lat="43.6309458404969" lon="11.473005239931755"><ele>123.0</ele><time>2026-04-21T16:00:42Z</time></trkpt><trkpt lat="43.6307112836401" lon="11.473259501489252"><ele>123.0</ele><time>2026-04-21T16:00:43Z</time></trkpt><trkpt lat="43.630479187303514" lon="11.473513299153781"><ele>123.0</ele><time>2026-04-21T16:00:44Z</time></trkpt><trkpt lat="43.630250537465926" lon="11.47376398633215"><ele>124.0</ele><time>2026-04-21T16:00:45Z</time></trkpt><trkpt lat="43.63002303367739" lon="11.474017997158796"><ele>125.0</ele><time>2026-04-21T16:00:46Z</time></trkpt><trkpt lat="43.629793039215144" lon="11.47427052505918"><ele>125.0</ele><time>2026-04-21T16:00:47Z</time></trkpt><trkpt lat="43.62957265369376" lon="11.474515208379321"><ele>125.0</ele><time>2026-04-21T16:00:48Z</time></trkpt><trkpt lat="43.629353897597575" lon="11.47475480269385"><ele>124.5</ele><time>2026-04-21T16:00:49Z</time></trkpt><trkpt lat="43.629139965175746" lon="11.474988279184753"><ele>124.0</ele><time>2026-04-21T16:00:50Z</time></trkpt><trkpt lat="43.6289200170995" lon="11.475226450421351"><ele>124.0</ele><time>2026-04-21T16:00:51Z</time></trkpt><trkpt lat="43.62869962499728" lon="11.4754651662066"><ele>124.0</ele><time>2026-04-21T16:00:52Z</time></trkpt><trkpt lat="43.628477806871764" lon="11.47570329322984"><ele>123.5</ele><time>2026-04-21T16:00:53Z</time></trkpt><trkpt lat="43.628259504594254" lon="11.475949026464484"><ele>123.0</ele><time>2026-04-21T16:00:54Z</time></trkpt><trkpt lat="43.62804158302446" lon="11.476195915566606"><ele>124.0</ele><time>2026-04-21T16:00:55Z</time></trkpt><trkpt lat="43.627824671799026" lon="11.476440204218855"><ele>125.0</ele><time>2026-04-21T16:00:56Z</time></trkpt><trkpt lat="43.62760538649622" lon="11.476679780443265"><ele>125.0</ele><time>2026-04-21T16:00:57Z</time></trkpt><trkpt lat="43.62738240557769" lon="11.4769197076989"><ele>125.0</ele><time>2026-04-21T16:00:58Z</time></trkpt><trkpt lat="43.62716229951161" lon="11.47715814548732"><ele>124.5</ele><time>2026-04-21T16:00:59Z</time></trkpt><trkpt lat="43.62695437830094" lon="11.47739117823058"><ele>124.0</ele><time>2026-04-21T16:01:00Z</time></trkpt><trkpt lat="43.62674669689396" lon="11.477639599623002"><ele>124.0</ele><time>2026-04-21T16:01:01Z</time></trkpt><trkpt lat="43.626530691984954" lon="11.477901012511508"><ele>124.0</ele><time>2026-04-21T16:01:02Z</time></trkpt><trkpt lat="43.62630672823496" lon="11.478150922787107"><ele>124.0</ele><time>2026-04-21T16:01:03Z</time></trkpt><trkpt lat="43.62607746638154" lon="11.47839746879168"><ele>124.0</ele><time>2026-04-21T16:01:04Z</time></trkpt><trkpt lat="43.625851402602365" lon="11.478639171571713"><ele>124.5</ele><time>2026-04-21T16:01:05Z</time></trkpt><trkpt lat="43.62562439822997" lon="11.47888459309433"><ele>125.0</ele><time>2026-04-21T16:01:06Z</time></trkpt><trkpt lat="43.62539936787203" lon="11.479132757885473"><ele>125.0</ele><time>2026-04-21T16:01:07Z</time></trkpt><trkpt lat="43.625170822948746" lon="11.47937499592025"><ele>125.0</ele><time>2026-04-21T16:01:08Z</time></trkpt><trkpt lat="43.62493746279463" lon="11.479617799887544"><ele>125.0</ele><time>2026-04-21T16:01:09Z</time></trkpt><trkpt lat="43.624706433671875" lon="11.479857410448517"><ele>125.0</ele><time>2026-04-21T16:01:10Z</time></trkpt><trkpt lat="43.624478689137725" lon="11.480099250052856"><ele>125.5</ele><time>2026-04-21T16:01:11Z</time></trkpt><trkpt lat="43.6242607240298" lon="11.480338291338494"><ele>126.0</ele><time>2026-04-21T16:01:12Z</time></trkpt><trkpt lat="43.62404590621039" lon="11.480569781154182"><ele>126.0</ele><time>2026-04-21T16:01:13Z</time></trkpt><trkpt lat="43.62383472825674" lon="11.480801730747357"><ele>126.0</ele><time>2026-04-21T16:01:14Z</time></trkpt><trkpt lat="43.62361978686307" lon="11.481035179403658"><ele>126.0</ele><time>2026-04-21T16:01:15Z</time></trkpt><trkpt lat="43.623402639063684" lon="11.481270733963937"><ele>126.0</ele><time>2026-04-21T16:01:16Z</time></trkpt><trkpt lat="43.62318538470784" lon="11.481506615173966"><ele>126.0</ele><time>2026-04-21T16:01:17Z</time></trkpt><trkpt lat="43.622968263633666" lon="11.481742675447979"><ele>126.0</ele><time>2026-04-21T16:01:18Z</time></trkpt><trkpt lat="43.622748416161414" lon="11.481979645012306"><ele>125.5</ele><time>2026-04-21T16:01:19Z</time></trkpt><trkpt lat="43.622527186062165" lon="11.48221252320714"><ele>125.0</ele><time>2026-04-21T16:01:20Z</time></trkpt><trkpt lat="43.62230148750817" lon="11.482442804174976"><ele>125.0</ele><time>2026-04-21T16:01:21Z</time></trkpt><trkpt lat="43.62207882528076" lon="11.48266392633657"><ele>125.0</ele><time>2026-04-21T16:01:22Z</time></trkpt><trkpt lat="43.62185176151743" lon="11.482884642068255"><ele>124.5</ele><time>2026-04-21T16:01:23Z</time></trkpt><trkpt lat="43.62162278329737" lon="11.483104805420634"><ele>124.0</ele><time>2026-04-21T16:01:24Z</time></trkpt><trkpt lat="43.62138979019538" lon="11.483327738191967"><ele>124.0</ele><time>2026-04-21T16:01:25Z</time></trkpt><trkpt lat="43.62115235198019" lon="11.483549562882608"><ele>124.0</ele><time>2026-04-21T16:01:26Z</time></trkpt><trkpt lat="43.620921742946784" lon="11.483763351567983"><ele>124.0</ele><time>2026-04-21T16:01:27Z</time></trkpt><trkpt lat="43.62069801993083" lon="11.48396367884107"><ele>124.0</ele><time>2026-04-21T16:01:28Z</time></trkpt><trkpt lat="43.62047093931813" lon="11.484163759884202"><ele>123.0</ele><time>2026-04-21T16:01:29Z</time></trkpt><trkpt lat="43.62024830543485" lon="11.484363852445732"><ele>122.0</ele><time>2026-04-21T16:01:30Z</time></trkpt><trkpt lat="43.62003753764304" lon="11.48455600065288"><ele>123.0</ele><time>2026-04-21T16:01:31Z</time></trkpt><trkpt lat="43.61983421317662" lon="11.48474261262459"><ele>124.0</ele><time>2026-04-21T16:01:32Z</time></trkpt><trkpt lat="43.61962828993525" lon="11.484926574269315"><ele>123.5</ele><time>2026-04-21T16:01:33Z</time></trkpt><trkpt lat="43.61942510232595" lon="11.485106408588857"><ele>123.0</ele><time>2026-04-21T16:01:34Z</time></trkpt><trkpt lat="43.619222419197364" lon="11.485284394488012"><ele>123.5</ele><time>2026-04-21T16:01:35Z</time></trkpt><trkpt lat="43.619015210960505" lon="11.485464186765647"><ele>124.0</ele><time>2026-04-21T16:01:36Z</time></trkpt><trkpt lat="43.618808046016284" lon="11.485646805732946"><ele>123.0</ele><time>2026-04-21T16:01:37Z</time></trkpt><trkpt lat="43.61861178533171" lon="11.485822936461709"><ele>122.0</ele><time>2026-04-21T16:01:38Z</time></trkpt><trkpt lat="43.6184211847924" lon="11.48598940931857"><ele>122.0</ele><time>2026-04-21T16:01:39Z</time></trkpt><trkpt lat="43.61823138548594" lon="11.48615710007211"><ele>122.0</ele><time>2026-04-21T16:01:40Z</time></trkpt><trkpt lat="43.618034520526564" lon="11.486332583379834"><ele>123.0</ele><time>2026-04-21T16:01:41Z</time></trkpt><trkpt lat="43.61783251158883" lon="11.486513498152252"><ele>124.0</ele><time>2026-04-21T16:01:42Z</time></trkpt><trkpt lat="43.61762647077471" lon="11.486694703969782"><ele>124.0</ele><time>2026-04-21T16:01:43Z</time></trkpt><trkpt lat="43.6174194291465" lon="11.486876655260495"><ele>124.0</ele><time>2026-04-21T16:01:44Z</time></trkpt><trkpt lat="43.61721837856587" lon="11.487050254806924"><ele>124.0</ele><time>2026-04-21T16:01:45Z</time></trkpt><trkpt lat="43.61702250119933" lon="11.487221933451595"><ele>124.0</ele><time>2026-04-21T16:01:46Z</time></trkpt><trkpt lat="43.61682497803876" lon="11.4873987503216"><ele>124.5</ele><time>2026-04-21T16:01:47Z</time></trkpt><trkpt lat="43.61662494959592" lon="11.48757772127086"><ele>125.0</ele><time>2026-04-21T16:01:48Z</time></trkpt><trkpt lat="43.6164246966612" lon="11.487757252132946"><ele>124.5</ele><time>2026-04-21T16:01:49Z</time></trkpt><trkpt lat="43.61622284480894" lon="11.487938775047835"><ele>124.0</ele><time>2026-04-21T16:01:50Z</time></trkpt><trkpt lat="43.6160198370008" lon="11.488129138662579"><ele>125.0</ele><time>2026-04-21T16:01:51Z</time></trkpt><trkpt lat="43.615816539747655" lon="11.488328999679666"><ele>126.0</ele><time>2026-04-21T16:01:52Z</time></trkpt><trkpt lat="43.61560241922294" lon="11.488533273065698"><ele>126.0</ele><time>2026-04-21T16:01:53Z</time></trkpt><trkpt lat="43.615382641060854" lon="11.488732570648459"><ele>126.0</ele><time>2026-04-21T16:01:54Z</time></trkpt><trkpt lat="43.6151558953447" lon="11.488932516900451"><ele>125.0</ele><time>2026-04-21T16:01:55Z</time></trkpt><trkpt lat="43.614927663389786" lon="11.489132472777007"><ele>124.0</ele><time>2026-04-21T16:01:56Z</time></trkpt><trkpt lat="43.61469551395401" lon="11.489337103444619"><ele>124.0</ele><time>2026-04-21T16:01:57Z</time></trkpt><trkpt lat="43.61446272126831" lon="11.489547115687799"><ele>124.0</ele><time>2026-04-21T16:01:58Z</time></trkpt><trkpt lat="43.61422210495374" lon="11.489758810776864"><ele>124.0</ele><time>2026-04-21T16:01:59Z</time></trkpt><trkpt lat="43.613990355509344" lon="11.489966798126675"><ele>124.0</ele><time>2026-04-21T16:02:00Z</time></trkpt><trkpt lat="43.613759277211805" lon="11.490170477792692"><ele>123.0</ele><time>2026-04-21T16:02:01Z</time></trkpt><trkpt lat="43.613523775758786" lon="11.490378872371519"><ele>122.0</ele><time>2026-04-21T16:02:02Z</time></trkpt><trkpt lat="43.61329021582496" lon="11.490580849796943"><ele>124.0</ele><time>2026-04-21T16:02:03Z</time></trkpt><trkpt lat="43.61305649970822" lon="11.490784360470649"><ele>126.0</ele><time>2026-04-21T16:02:04Z</time></trkpt><trkpt lat="43.61282670527144" lon="11.490986012599945"><ele>126.0</ele><time>2026-04-21T16:02:05Z</time></trkpt><trkpt lat="43.61260037398793" lon="11.491189030645458"><ele>126.0</ele><time>2026-04-21T16:02:06Z</time></trkpt><trkpt lat="43.612376332616165" lon="11.491389207714505"><ele>126.0</ele><time>2026-04-21T16:02:07Z</time></trkpt><trkpt lat="43.612151404963264" lon="11.491586253193407"><ele>126.0</ele><time>2026-04-21T16:02:08Z</time></trkpt><trkpt lat="43.61192624423673" lon="11.491786187269925"><ele>125.5</ele><time>2026-04-21T16:02:09Z</time></trkpt><trkpt lat="43.611698444776245" lon="11.491991347022589"><ele>125.0</ele><time>2026-04-21T16:02:10Z</time></trkpt><trkpt lat="43.611471178502555" lon="11.492193097746831"><ele>125.0</ele><time>2026-04-21T16:02:11Z</time></trkpt><trkpt lat="43.61124663702016" lon="11.492393111848102"><ele>125.0</ele><time>2026-04-21T16:02:12Z</time></trkpt><trkpt lat="43.611017331303294" lon="11.492599093665108"><ele>124.0</ele><time>2026-04-21T16:02:13Z</time></trkpt><trkpt lat="43.610785267115546" lon="11.492801485193064"><ele>123.0</ele><time>2026-04-21T16:02:14Z</time></trkpt><trkpt lat="43.61055176475362" lon="11.493008826890549"><ele>123.5</ele><time>2026-04-21T16:02:15Z</time></trkpt><trkpt lat="43.61031903509121" lon="11.493215125754801"><ele>124.0</ele><time>2026-04-21T16:02:16Z</time></trkpt><trkpt lat="43.61008354556731" lon="11.49341678088089"><ele>124.0</ele><time>2026-04-21T16:02:17Z</time></trkpt><trkpt lat="43.60984902695574" lon="11.493623268445372"><ele>124.0</ele><time>2026-04-21T16:02:18Z</time></trkpt><trkpt lat="43.609616358922366" lon="11.493831179175332"><ele>124.0</ele><time>2026-04-21T16:02:19Z</time></trkpt><trkpt lat="43.60938579344143" lon="11.494039588181428"><ele>124.0</ele><time>2026-04-21T16:02:20Z</time></trkpt><trkpt lat="43.60915188399305" lon="11.49424514457785"><ele>124.0</ele><time>2026-04-21T16:02:21Z</time></trkpt><trkpt lat="43.60891942124421" lon="11.494444342110356"><ele>124.0</ele><time>2026-04-21T16:02:22Z</time></trkpt><trkpt lat="43.60868156647005" lon="11.494645020799883"><ele>124.5</ele><time>2026-04-21T16:02:23Z</time></trkpt><trkpt lat="43.60844763834803" lon="11.494833048957021"><ele>125.0</ele><time>2026-04-21T16:02:24Z</time></trkpt><trkpt lat="43.60821285176408" lon="11.495029860426873"><ele>125.0</ele><time>2026-04-21T16:02:25Z</time></trkpt><trkpt lat="43.60797349580446" lon="11.495225078195626"><ele>125.0</ele><time>2026-04-21T16:02:26Z</time></trkpt><trkpt lat="43.60774282699918" lon="11.495418890553577"><ele>125.0</ele><time>2026-04-21T16:02:27Z</time></trkpt><trkpt lat="43.60751253626154" lon="11.495622291449921"><ele>125.0</ele><time>2026-04-21T16:02:28Z</time></trkpt><trkpt lat="43.6072891225861" lon="11.495824146885617"><ele>125.0</ele><time>2026-04-21T16:02:29Z</time></trkpt><trkpt lat="43.60706658193962" lon="11.496031946430671"><ele>125.0</ele><time>2026-04-21T16:02:30Z</time></trkpt><trkpt lat="43.606847138326465" lon="11.496241523498263"><ele>125.5</ele><time>2026-04-21T16:02:31Z</time></trkpt><trkpt lat="43.606618957181475" lon="11.49643655995411"><ele>126.0</ele><time>2026-04-21T16:02:32Z</time></trkpt><trkpt lat="43.606393140542075" lon="11.49663189184037"><ele>126.0</ele><time>2026-04-21T16:02:33Z</time></trkpt><trkpt lat="43.60617335297397" lon="11.496831851595099"><ele>126.0</ele><time>2026-04-21T16:02:34Z</time></trkpt><trkpt lat="43.60595233523939" lon="11.497032680510546"><ele>126.0</ele><time>2026-04-21T16:02:35Z</time></trkpt><trkpt lat="43.60572841505045" lon="11.497230985180275"><ele>126.0</ele><time>2026-04-21T16:02:36Z</time></trkpt><trkpt lat="43.60550424202523" lon="11.49742254851729"><ele>125.0</ele><time>2026-04-21T16:02:37Z</time></trkpt><trkpt lat="43.60527829182395" lon="11.497616201600382"><ele>124.0</ele><time>2026-04-21T16:02:38Z</time></trkpt><trkpt lat="43.60505237046971" lon="11.497817582655147"><ele>125.5</ele><time>2026-04-21T16:02:39Z</time></trkpt><trkpt lat="43.60482548294729" lon="11.49802421124196"><ele>127.0</ele><time>2026-04-21T16:02:40Z</time></trkpt><trkpt lat="43.60459617406294" lon="11.498225303420691"><ele>125.5</ele><time>2026-04-21T16:02:41Z</time></trkpt><trkpt lat="43.60436665092447" lon="11.498423011175113"><ele>124.0</ele><time>2026-04-21T16:02:42Z</time></trkpt><trkpt lat="43.60413810341021" lon="11.498623126268564"><ele>125.5</ele><time>2026-04-21T16:02:43Z</time></trkpt><trkpt lat="43.603906995639036" lon="11.498826390873955"><ele>127.0</ele><time>2026-04-21T16:02:44Z</time></trkpt><trkpt lat="43.60367652212159" lon="11.499030651814014"><ele>126.5</ele><time>2026-04-21T16:02:45Z</time></trkpt><trkpt lat="43.603451452407974" lon="11.499231929651312"><ele>126.0</ele><time>2026-04-21T16:02:46Z</time></trkpt><trkpt lat="43.60322233170418" lon="11.499428026121649"><ele>127.0</ele><time>2026-04-21T16:02:47Z</time></trkpt><trkpt lat="43.60299343468704" lon="11.49963487604093"><ele>128.0</ele><time>2026-04-21T16:02:48Z</time></trkpt><trkpt lat="43.6027630309678" lon="11.499837436761885"><ele>126.0</ele><time>2026-04-21T16:02:49Z</time></trkpt><trkpt lat="43.60253292809818" lon="11.5000428062069"><ele>124.0</ele><time>2026-04-21T16:02:50Z</time></trkpt><trkpt lat="43.60229729156064" lon="11.500250575138848"><ele>123.5</ele><time>2026-04-21T16:02:51Z</time></trkpt><trkpt lat="43.60206040434848" lon="11.500463540564736"><ele>123.0</ele><time>2026-04-21T16:02:52Z</time></trkpt><trkpt lat="43.601828723830025" lon="11.500675828516203"><ele>123.0</ele><time>2026-04-21T16:02:53Z</time></trkpt><trkpt lat="43.601607088679415" lon="11.500888472806766"><ele>123.0</ele><time>2026-04-21T16:02:54Z</time></trkpt><trkpt lat="43.60138274874563" lon="11.501098057585608"><ele>124.0</ele><time>2026-04-21T16:02:55Z</time></trkpt><trkpt lat="43.60115960635442" lon="11.50131762328821"><ele>125.0</ele><time>2026-04-21T16:02:56Z</time></trkpt><trkpt lat="43.60095004549668" lon="11.501522212651938"><ele>125.0</ele><time>2026-04-21T16:02:57Z</time></trkpt><trkpt lat="43.60073746723301" lon="11.501734247390718"><ele>125.0</ele><time>2026-04-21T16:02:58Z</time></trkpt><trkpt lat="43.60052196758354" lon="11.501955856435174"><ele>124.5</ele><time>2026-04-21T16:02:59Z</time></trkpt><trkpt lat="43.60030335394711" lon="11.502179553145956"><ele>124.0</ele><time>2026-04-21T16:03:00Z</time></trkpt><trkpt lat="43.600084848463595" lon="11.502409194605496"><ele>124.0</ele><time>2026-04-21T16:03:01Z</time></trkpt><trkpt lat="43.59986719975969" lon="11.502642497750207"><ele>124.0</ele><time>2026-04-21T16:03:02Z</time></trkpt><trkpt lat="43.59965090115199" lon="11.502874464997163"><ele>124.5</ele><time>2026-04-21T16:03:03Z</time></trkpt><trkpt lat="43.59943585386336" lon="11.50311515992027"><ele>125.0</ele><time>2026-04-21T16:03:04Z</time></trkpt><trkpt lat="43.59922054605425" lon="11.503351263498383"><ele>125.0</ele><time>2026-04-21T16:03:05Z</time></trkpt><trkpt lat="43.59900403607479" lon="11.503588863173114"><ele>125.0</ele><time>2026-04-21T16:03:06Z</time></trkpt><trkpt lat="43.5987853317395" lon="11.503828850410498"><ele>125.5</ele><time>2026-04-21T16:03:07Z</time></trkpt><trkpt lat="43.59856822518833" lon="11.504070101361513"><ele>126.0</ele><time>2026-04-21T16:03:08Z</time></trkpt><trkpt lat="43.59834330512148" lon="11.504303771407645"><ele>126.0</ele><time>2026-04-21T16:03:09Z</time></trkpt><trkpt lat="43.598128771380544" lon="11.504550288573014"><ele>126.0</ele><time>2026-04-21T16:03:10Z</time></trkpt><trkpt lat="43.59790479732607" lon="11.504793596764046"><ele>126.5</ele><time>2026-04-21T16:03:11Z</time></trkpt><trkpt lat="43.5976820707119" lon="11.505040777750594"><ele>127.0</ele><time>2026-04-21T16:03:12Z</time></trkpt><trkpt lat="43.59745826143883" lon="11.505287142058414"><ele>128.0</ele><time>2026-04-21T16:03:13Z</time></trkpt><trkpt lat="43.59723633150358" lon="11.505533098960868"><ele>129.0</ele><time>2026-04-21T16:03:14Z</time></trkpt><trkpt lat="43.597012220809354" lon="11.505770491098874"><ele>129.0</ele><time>2026-04-21T16:03:15Z</time></trkpt><trkpt lat="43.596787995539636" lon="11.50601878786171"><ele>129.0</ele><time>2026-04-21T16:03:16Z</time></trkpt><trkpt lat="43.59656382633729" lon="11.506266636312827"><ele>129.0</ele><time>2026-04-21T16:03:17Z</time></trkpt><trkpt lat="43.59633869135688" lon="11.50651764432869"><ele>129.0</ele><time>2026-04-21T16:03:18Z</time></trkpt><trkpt lat="43.59611369465437" lon="11.50676765163647"><ele>129.5</ele><time>2026-04-21T16:03:19Z</time></trkpt><trkpt lat="43.59588731919414" lon="11.507018869044007"><ele>130.0</ele><time>2026-04-21T16:03:20Z</time></trkpt><trkpt lat="43.59566218855524" lon="11.5072690134719"><ele>130.0</ele><time>2026-04-21T16:03:21Z</time></trkpt><trkpt lat="43.59543322495558" lon="11.507521038027043"><ele>130.0</ele><time>2026-04-21T16:03:22Z</time></trkpt><trkpt lat="43.59521145592913" lon="11.507759067025065"><ele>130.0</ele><time>2026-04-21T16:03:23Z</time></trkpt><trkpt lat="43.594989965226176" lon="11.508002649142755"><ele>130.0</ele><time>2026-04-21T16:03:24Z</time></trkpt><trkpt lat="43.594771229009304" lon="11.508246684192601"><ele>130.0</ele><time>2026-04-21T16:03:25Z</time></trkpt><trkpt lat="43.59455712021188" lon="11.508482183524515"><ele>130.0</ele><time>2026-04-21T16:03:26Z</time></trkpt><trkpt lat="43.59434496220254" lon="11.508718600549573"><ele>129.5</ele><time>2026-04-21T16:03:27Z</time></trkpt><trkpt lat="43.59412944211284" lon="11.508952522758241"><ele>129.0</ele><time>2026-04-21T16:03:28Z</time></trkpt><trkpt lat="43.59391372556034" lon="11.50918243900472"><ele>129.0</ele><time>2026-04-21T16:03:29Z</time></trkpt><trkpt lat="43.59370014748792" lon="11.509420129499256"><ele>129.0</ele><time>2026-04-21T16:03:30Z</time></trkpt><trkpt lat="43.593485132989436" lon="11.509656312397833"><ele>129.0</ele><time>2026-04-21T16:03:31Z</time></trkpt><trkpt lat="43.59327270644459" lon="11.509887906328071"><ele>129.0</ele><time>2026-04-21T16:03:32Z</time></trkpt><trkpt lat="43.593058082150684" lon="11.510127166006304"><ele>128.5</ele><time>2026-04-21T16:03:33Z</time></trkpt><trkpt lat="43.59283744422664" lon="11.510366888540442"><ele>128.0</ele><time>2026-04-21T16:03:34Z</time></trkpt><trkpt lat="43.592614018963786" lon="11.510608311078748"><ele>128.0</ele><time>2026-04-21T16:03:35Z</time></trkpt><trkpt lat="43.59239230578114" lon="11.510852995468964"><ele>128.0</ele><time>2026-04-21T16:03:36Z</time></trkpt><trkpt lat="43.59217456061393" lon="11.511088325805982"><ele>128.0</ele><time>2026-04-21T16:03:37Z</time></trkpt><trkpt lat="43.591953532624395" lon="11.5113328530395"><ele>128.0</ele><time>2026-04-21T16:03:38Z</time></trkpt><trkpt lat="43.59173325804262" lon="11.511575799400044"><ele>128.0</ele><time>2026-04-21T16:03:39Z</time></trkpt><trkpt lat="43.59151152524432" lon="11.511823024676163"><ele>128.0</ele><time>2026-04-21T16:03:40Z</time></trkpt><trkpt lat="43.591291498529664" lon="11.512069945969284"><ele>128.0</ele><time>2026-04-21T16:03:41Z</time></trkpt><trkpt lat="43.59107112210474" lon="11.512321514378659"><ele>128.0</ele><time>2026-04-21T16:03:42Z</time></trkpt><trkpt lat="43.590849016431235" lon="11.512574279613759"><ele>128.0</ele><time>2026-04-21T16:03:43Z</time></trkpt><trkpt lat="43.59062732751639" lon="11.51282464620965"><ele>128.0</ele><time>2026-04-21T16:03:44Z</time></trkpt><trkpt lat="43.59040220026385" lon="11.51307822112003"><ele>128.5</ele><time>2026-04-21T16:03:45Z</time></trkpt><trkpt lat="43.59017538867135" lon="11.513333848782478"><ele>129.0</ele><time>2026-04-21T16:03:46Z</time></trkpt><trkpt lat="43.58994837953338" lon="11.513589477225699"><ele>129.0</ele><time>2026-04-21T16:03:47Z</time></trkpt><trkpt lat="43.58972364049693" lon="11.513842478057443"><ele>129.0</ele><time>2026-04-21T16:03:48Z</time></trkpt><trkpt lat="43.589495956218464" lon="11.514099433068456"><ele>129.0</ele><time>2026-04-21T16:03:49Z</time></trkpt><trkpt lat="43.58926836116104" lon="11.5143572959179"><ele>129.0</ele><time>2026-04-21T16:03:50Z</time></trkpt><trkpt lat="43.589045093699845" lon="11.51460805019423"><ele>129.5</ele><time>2026-04-21T16:03:51Z</time></trkpt><trkpt lat="43.58882294986799" lon="11.514852308729582"><ele>130.0</ele><time>2026-04-21T16:03:52Z</time></trkpt><trkpt lat="43.588595612866555" lon="11.515097460890834"><ele>130.0</ele><time>2026-04-21T16:03:53Z</time></trkpt><trkpt lat="43.588369148355646" lon="11.515343084819232"><ele>130.0</ele><time>2026-04-21T16:03:54Z</time></trkpt><trkpt lat="43.588141996553865" lon="11.51558726647969"><ele>130.5</ele><time>2026-04-21T16:03:55Z</time></trkpt><trkpt lat="43.58791536154955" lon="11.515836438370963"><ele>131.0</ele><time>2026-04-21T16:03:56Z</time></trkpt><trkpt lat="43.58768858929362" lon="11.516084716322144"><ele>131.0</ele><time>2026-04-21T16:03:57Z</time></trkpt><trkpt lat="43.58746208000998" lon="11.516334390408552"><ele>131.0</ele><time>2026-04-21T16:03:58Z</time></trkpt><trkpt lat="43.58723381458339" lon="11.516577770684629"><ele>129.0</ele><time>2026-04-21T16:03:59Z</time></trkpt><trkpt lat="43.587004408202944" lon="11.516820905727434"><ele>127.0</ele><time>2026-04-21T16:04:00Z</time></trkpt><trkpt lat="43.586784224337336" lon="11.517050824505997"><ele>128.0</ele><time>2026-04-21T16:04:01Z</time></trkpt><trkpt lat="43.58656286700455" lon="11.517285312604686"><ele>129.0</ele><time>2026-04-21T16:04:02Z</time></trkpt><trkpt lat="43.586345488399715" lon="11.517519117612"><ele>129.5</ele><time>2026-04-21T16:04:03Z</time></trkpt><trkpt lat="43.586127857514555" lon="11.51776088075884"><ele>130.0</ele><time>2026-04-21T16:04:04Z</time></trkpt><trkpt lat="43.58591060369547" lon="11.517996536952916"><ele>130.0</ele><time>2026-04-21T16:04:05Z</time></trkpt><trkpt lat="43.5856934862917" lon="11.518227198511603"><ele>130.0</ele><time>2026-04-21T16:04:06Z</time></trkpt><trkpt lat="43.58547497336931" lon="11.518463168878306"><ele>130.0</ele><time>2026-04-21T16:04:07Z</time></trkpt><trkpt lat="43.58526131831164" lon="11.51869370609085"><ele>130.0</ele><time>2026-04-21T16:04:08Z</time></trkpt><trkpt lat="43.58504720193068" lon="11.518936400261705"><ele>130.0</ele><time>2026-04-21T16:04:09Z</time></trkpt><trkpt lat="43.584825582033076" lon="11.519182980157508"><ele>130.0</ele><time>2026-04-21T16:04:10Z</time></trkpt><trkpt lat="43.58460486783548" lon="11.51942756650761"><ele>130.0</ele><time>2026-04-21T16:04:11Z</time></trkpt><trkpt lat="43.584382221934526" lon="11.519670671426143"><ele>130.0</ele><time>2026-04-21T16:04:12Z</time></trkpt><trkpt lat="43.58416570688125" lon="11.519909872622375"><ele>130.0</ele><time>2026-04-21T16:04:13Z</time></trkpt><trkpt lat="43.58395859335349" lon="11.520135708173276"><ele>130.0</ele><time>2026-04-21T16:04:14Z</time></trkpt><trkpt lat="43.58375014258964" lon="11.520369189579926"><ele>129.0</ele><time>2026-04-21T16:04:15Z</time></trkpt><trkpt lat="43.583546395331986" lon="11.520591380504747"><ele>128.0</ele><time>2026-04-21T16:04:16Z</time></trkpt><trkpt lat="43.583337879414124" lon="11.520821650017563"><ele>128.0</ele><time>2026-04-21T16:04:17Z</time></trkpt><trkpt lat="43.58312608991364" lon="11.521055093232809"><ele>128.0</ele><time>2026-04-21T16:04:18Z</time></trkpt><trkpt lat="43.58292266962294" lon="11.521291485273563"><ele>128.5</ele><time>2026-04-21T16:04:19Z</time></trkpt><trkpt lat="43.58273008039007" lon="11.52154025261302"><ele>129.0</ele><time>2026-04-21T16:04:20Z</time></trkpt><trkpt lat="43.58254736605192" lon="11.521804022210972"><ele>128.5</ele><time>2026-04-21T16:04:21Z</time></trkpt><trkpt lat="43.582377795573315" lon="11.522070446353881"><ele>128.0</ele><time>2026-04-21T16:04:22Z</time></trkpt><trkpt lat="43.58221894994352" lon="11.522335236022458"><ele>128.0</ele><time>2026-04-21T16:04:23Z</time></trkpt><trkpt lat="43.58206463670187" lon="11.52261128041144"><ele>128.0</ele><time>2026-04-21T16:04:24Z</time></trkpt><trkpt lat="43.58191473032321" lon="11.522896854587783"><ele>129.0</ele><time>2026-04-21T16:04:25Z</time></trkpt><trkpt lat="43.58176986693111" lon="11.523187216246043"><ele>130.0</ele><time>2026-04-21T16:04:26Z</time></trkpt><trkpt lat="43.581635342622015" lon="11.52347412863134"><ele>129.5</ele><time>2026-04-21T16:04:27Z</time></trkpt><trkpt lat="43.58151355921808" lon="11.523755076251636"><ele>129.0</ele><time>2026-04-21T16:04:28Z</time></trkpt><trkpt lat="43.58140058841873" lon="11.52404714469658"><ele>129.0</ele><time>2026-04-21T16:04:29Z</time></trkpt><trkpt lat="43.58129644924253" lon="11.52433263218596"><ele>129.0</ele><time>2026-04-21T16:04:30Z</time></trkpt><trkpt lat="43.581203024919674" lon="11.524619473319717"><ele>129.0</ele><time>2026-04-21T16:04:31Z</time></trkpt><trkpt lat="43.58111271240655" lon="11.524909791638512"><ele>129.0</ele><time>2026-04-21T16:04:32Z</time></trkpt><trkpt lat="43.581024128843595" lon="11.525204343157098"><ele>129.5</ele><time>2026-04-21T16:04:33Z</time></trkpt><trkpt lat="43.58093445124256" lon="11.525499768045856"><ele>130.0</ele><time>2026-04-21T16:04:34Z</time></trkpt><trkpt lat="43.58084151600819" lon="11.525801523283251"><ele>130.0</ele><time>2026-04-21T16:04:35Z</time></trkpt><trkpt lat="43.580746214798815" lon="11.526107680286989"><ele>130.0</ele><time>2026-04-21T16:04:36Z</time></trkpt><trkpt lat="43.58065005706888" lon="11.526413559368102"><ele>130.0</ele><time>2026-04-21T16:04:37Z</time></trkpt><trkpt lat="43.58055220295289" lon="11.526725298758494"><ele>130.0</ele><time>2026-04-21T16:04:38Z</time></trkpt><trkpt lat="43.58045551861376" lon="11.527040660876509"><ele>130.5</ele><time>2026-04-21T16:04:39Z</time></trkpt><trkpt lat="43.580356740864126" lon="11.527361277438342"><ele>131.0</ele><time>2026-04-21T16:04:40Z</time></trkpt><trkpt lat="43.58025125986419" lon="11.527685169761055"><ele>130.5</ele><time>2026-04-21T16:04:41Z</time></trkpt><trkpt lat="43.58014099157655" lon="11.528010845333453"><ele>130.0</ele><time>2026-04-21T16:04:42Z</time></trkpt><trkpt lat="43.58002281021899" lon="11.528335831714005"><ele>130.0</ele><time>2026-04-21T16:04:43Z</time></trkpt><trkpt lat="43.57989707088744" lon="11.528655073965767"><ele>130.0</ele><time>2026-04-21T16:04:44Z</time></trkpt><trkpt lat="43.57975906974001" lon="11.528972228769733"><ele>130.0</ele><time>2026-04-21T16:04:45Z</time></trkpt><trkpt lat="43.57961842138267" lon="11.529289234194003"><ele>130.0</ele><time>2026-04-21T16:04:46Z</time></trkpt><trkpt lat="43.57947192837177" lon="11.529606555041212"><ele>130.0</ele><time>2026-04-21T16:04:47Z</time></trkpt><trkpt lat="43.57932519637748" lon="11.529906154454565"><ele>130.0</ele><time>2026-04-21T16:04:48Z</time></trkpt><trkpt lat="43.5791780258089" lon="11.530192137944606"><ele>131.0</ele><time>2026-04-21T16:04:49Z</time></trkpt><trkpt lat="43.57902609100466" lon="11.530467072459057"><ele>132.0</ele><time>2026-04-21T16:04:50Z</time></trkpt><trkpt lat="43.57887610230371" lon="11.530736680678627"><ele>132.0</ele><time>2026-04-21T16:04:51Z</time></trkpt><trkpt lat="43.578715405746095" lon="11.531001175298135"><ele>132.0</ele><time>2026-04-21T16:04:52Z</time></trkpt><trkpt lat="43.57854968776741" lon="11.531264198605395"><ele>132.0</ele><time>2026-04-21T16:04:53Z</time></trkpt><trkpt lat="43.578383610937486" lon="11.531515413871015"><ele>132.0</ele><time>2026-04-21T16:04:54Z</time></trkpt><trkpt lat="43.57822098376977" lon="11.5317593433811"><ele>132.0</ele><time>2026-04-21T16:04:55Z</time></trkpt><trkpt lat="43.57804876188118" lon="11.532010711503956"><ele>132.0</ele><time>2026-04-21T16:04:56Z</time></trkpt><trkpt lat="43.5778718122372" lon="11.532254069929774"><ele>132.5</ele><time>2026-04-21T16:04:57Z</time></trkpt><trkpt lat="43.577696314778194" lon="11.532506732510287"><ele>133.0</ele><time>2026-04-21T16:04:58Z</time></trkpt><trkpt lat="43.57752020741784" lon="11.53276131075043"><ele>134.0</ele><time>2026-04-21T16:04:59Z</time></trkpt><trkpt lat="43.577353251536024" lon="11.53300394048661"><ele>135.0</ele><time>2026-04-21T16:05:00Z</time></trkpt><trkpt lat="43.57718421602811" lon="11.533244324195957"><ele>134.5</ele><time>2026-04-21T16:05:01Z</time></trkpt><trkpt lat="43.57701006169548" lon="11.53348742640418"><ele>134.0</ele><time>2026-04-21T16:05:02Z</time></trkpt><trkpt lat="43.57683824950845" lon="11.533720836271558"><ele>134.5</ele><time>2026-04-21T16:05:03Z</time></trkpt><trkpt lat="43.57667408526042" lon="11.533948693069972"><ele>135.0</ele><time>2026-04-21T16:05:04Z</time></trkpt><trkpt lat="43.57651859579898" lon="11.534172037893915"><ele>135.0</ele><time>2026-04-21T16:05:05Z</time></trkpt><trkpt lat="43.57636903407546" lon="11.53438689951871"><ele>135.0</ele><time>2026-04-21T16:05:06Z</time></trkpt><trkpt lat="43.57622338991495" lon="11.534591712842232"><ele>135.0</ele><time>2026-04-21T16:05:07Z</time></trkpt><trkpt lat="43.576075661409064" lon="11.534804219050475"><ele>134.33333333333334</ele><time>2026-04-21T16:05:08Z</time></trkpt><trkpt lat="43.575947267043176" lon="11.53499316239651"><ele>133.66666666666669</ele><time>2026-04-21T16:05:09Z</time></trkpt><trkpt lat="43.57582053705077" lon="11.535168089223363"><ele>133.0</ele><time>2026-04-21T16:05:10Z</time></trkpt><trkpt lat="43.575704831604206" lon="11.535331374057494"><ele>133.25</ele><time>2026-04-21T16:05:11Z</time></trkpt><trkpt lat="43.575591675829905" lon="11.535476941772234"><ele>133.5</ele><time>2026-04-21T16:05:12Z</time></trkpt><trkpt lat="43.57548067271684" lon="11.53559041430624"><ele>133.75</ele><time>2026-04-21T16:05:13Z</time></trkpt><trkpt lat="43.575376664560274" lon="11.535668366210764"><ele>134.0</ele><time>2026-04-21T16:05:14Z</time></trkpt><trkpt lat="43.57526501860607" lon="11.535737568452715"><ele>134.0</ele><time>2026-04-21T16:05:15Z</time></trkpt><trkpt lat="43.57516072401694" lon="11.535825555985532"><ele>134.0</ele><time>2026-04-21T16:05:16Z</time></trkpt><trkpt lat="43.575055819702044" lon="11.535942565005179"><ele>134.0</ele><time>2026-04-21T16:05:17Z</time></trkpt><trkpt lat="43.57495748882754" lon="11.536057786078635"><ele>134.0</ele><time>2026-04-21T16:05:18Z</time></trkpt><trkpt lat="43.57487156258814" lon="11.53616986719095"><ele>134.0</ele><time>2026-04-21T16:05:19Z</time></trkpt><trkpt lat="43.57481188787134" lon="11.536201135926502"><ele>134.0</ele><time>2026-04-21T16:05:20Z</time></trkpt><trkpt lat="43.57480952784513" lon="11.536309534282093"><ele>134.0</ele><time>2026-04-21T16:05:22Z</time></trkpt><trkpt lat="43.57482092618648" lon="11.536398124780575"><ele>134.0</ele><time>2026-04-21T16:05:24Z</time></trkpt><trkpt lat="43.57470524821169" lon="11.53644146592048"><ele>134.0</ele><time>2026-04-21T16:07:03Z</time></trkpt><trkpt lat="43.57462226265204" lon="11.536516776266325"><ele>134.0</ele><time>2026-04-21T16:07:04Z</time></trkpt><trkpt lat="43.574534915913745" lon="11.536621448591733"><ele>134.25</ele><time>2026-04-21T16:07:05Z</time></trkpt><trkpt lat="43.57445232958952" lon="11.536750508632235"><ele>134.5</ele><time>2026-04-21T16:07:06Z</time></trkpt><trkpt lat="43.57436545834562" lon="11.536911822878848"><ele>134.75</ele><time>2026-04-21T16:07:07Z</time></trkpt><trkpt lat="43.574279938899714" lon="11.537089088597948"><ele>135.0</ele><time>2026-04-21T16:07:08Z</time></trkpt><trkpt lat="43.574197817655225" lon="11.53728211756348"><ele>135.0</ele><time>2026-04-21T16:07:09Z</time></trkpt><trkpt lat="43.574120072065995" lon="11.537480746257552"><ele>135.0</ele><time>2026-04-21T16:07:10Z</time></trkpt><trkpt lat="43.5740376424615" lon="11.537666572180443"><ele>135.0</ele><time>2026-04-21T16:07:11Z</time></trkpt><trkpt lat="43.57394465514102" lon="11.537868509478383"><ele>135.33333333333334</ele><time>2026-04-21T16:07:12Z</time></trkpt><trkpt lat="43.57379820188577" lon="11.538047038784184"><ele>135.66666666666669</ele><time>2026-04-21T16:07:13Z</time></trkpt><trkpt lat="43.57365764054722" lon="11.538234730891183"><ele>136.0</ele><time>2026-04-21T16:07:14Z</time></trkpt><trkpt lat="43.57351170343099" lon="11.538437244215713"><ele>135.66666666666669</ele><time>2026-04-21T16:07:15Z</time></trkpt><trkpt lat="43.57335536611932" lon="11.53865154272666"><ele>135.33333333333334</ele><time>2026-04-21T16:07:16Z</time></trkpt><trkpt lat="43.573196050235666" lon="11.538868492506094"><ele>135.0</ele><time>2026-04-21T16:07:17Z</time></trkpt><trkpt lat="43.57303618174408" lon="11.539087315091946"><ele>135.0</ele><time>2026-04-21T16:07:18Z</time></trkpt><trkpt lat="43.57288023946784" lon="11.53929398000484"><ele>135.0</ele><time>2026-04-21T16:07:19Z</time></trkpt><trkpt lat="43.57273130385464" lon="11.539492863318724"><ele>135.0</ele><time>2026-04-21T16:07:20Z</time></trkpt><trkpt lat="43.57257505781178" lon="11.539691453978085"><ele>135.33333333333334</ele><time>2026-04-21T16:07:21Z</time></trkpt><trkpt lat="43.57240944974442" lon="11.539891812562045"><ele>135.66666666666669</ele><time>2026-04-21T16:07:22Z</time></trkpt><trkpt lat="43.57224228403743" lon="11.540075217466514"><ele>136.0</ele><time>2026-04-21T16:07:23Z</time></trkpt><trkpt lat="43.57207442097642" lon="11.540245152128746"><ele>136.66666666666669</ele><time>2026-04-21T16:07:24Z</time></trkpt><trkpt lat="43.571903095756745" lon="11.540415571582347"><ele>137.33333333333334</ele><time>2026-04-21T16:07:25Z</time></trkpt><trkpt lat="43.57173343035672" lon="11.5405679498862"><ele>138.0</ele><time>2026-04-21T16:07:26Z</time></trkpt><trkpt lat="43.57156194829206" lon="11.540742698679864"><ele>138.0</ele><time>2026-04-21T16:07:27Z</time></trkpt><trkpt lat="43.571381733467184" lon="11.540915319661304"><ele>138.0</ele><time>2026-04-21T16:07:28Z</time></trkpt><trkpt lat="43.57119687407347" lon="11.54109256011815"><ele>138.0</ele><time>2026-04-21T16:07:29Z</time></trkpt><trkpt lat="43.57100143135037" lon="11.541277841693732"><ele>138.0</ele><time>2026-04-21T16:07:30Z</time></trkpt><trkpt lat="43.57079337248166" lon="11.541458116232672"><ele>138.0</ele><time>2026-04-21T16:07:31Z</time></trkpt><trkpt lat="43.57057336730628" lon="11.541624001108968"><ele>137.0</ele><time>2026-04-21T16:07:32Z</time></trkpt><trkpt lat="43.57034173801077" lon="11.541778719466334"><ele>136.0</ele><time>2026-04-21T16:07:33Z</time></trkpt><trkpt lat="43.57010495904574" lon="11.541925150111474"><ele>137.5</ele><time>2026-04-21T16:07:34Z</time></trkpt><trkpt lat="43.56986459791964" lon="11.54206548767016"><ele>139.0</ele><time>2026-04-21T16:07:35Z</time></trkpt><trkpt lat="43.569618525899244" lon="11.54218956751032"><ele>137.5</ele><time>2026-04-21T16:07:36Z</time></trkpt><trkpt lat="43.56936153066028" lon="11.542310555220908"><ele>136.0</ele><time>2026-04-21T16:07:37Z</time></trkpt><trkpt lat="43.56910119869978" lon="11.542416495916155"><ele>136.0</ele><time>2026-04-21T16:07:38Z</time></trkpt><trkpt lat="43.5688386441069" lon="11.542513338561989"><ele>136.0</ele><time>2026-04-21T16:07:39Z</time></trkpt><trkpt lat="43.56857568536337" lon="11.542595891301895"><ele>136.5</ele><time>2026-04-21T16:07:40Z</time></trkpt><trkpt lat="43.56830602234521" lon="11.542660116366944"><ele>137.0</ele><time>2026-04-21T16:07:41Z</time></trkpt><trkpt lat="43.56802759689842" lon="11.542713620205426"><ele>136.5</ele><time>2026-04-21T16:07:42Z</time></trkpt><trkpt lat="43.56775445733527" lon="11.542751417713317"><ele>136.0</ele><time>2026-04-21T16:07:43Z</time></trkpt><trkpt lat="43.56747979995229" lon="11.542770902204817"><ele>136.0</ele><time>2026-04-21T16:07:44Z</time></trkpt><trkpt lat="43.56720161404043" lon="11.54278413002962"><ele>136.0</ele><time>2026-04-21T16:07:45Z</time></trkpt><trkpt lat="43.56692052809581" lon="11.542785598943315"><ele>136.0</ele><time>2026-04-21T16:07:46Z</time></trkpt><trkpt lat="43.566636333756136" lon="11.542775227556442"><ele>136.0</ele><time>2026-04-21T16:07:47Z</time></trkpt><trkpt lat="43.56635266017125" lon="11.542756246099865"><ele>136.0</ele><time>2026-04-21T16:07:48Z</time></trkpt><trkpt lat="43.566071440400464" lon="11.542731173238899"><ele>136.0</ele><time>2026-04-21T16:07:49Z</time></trkpt><trkpt lat="43.5657897289802" lon="11.542702062607821"><ele>136.0</ele><time>2026-04-21T16:07:50Z</time></trkpt><trkpt lat="43.56550429476488" lon="11.542672772288505"><ele>136.0</ele><time>2026-04-21T16:07:51Z</time></trkpt><trkpt lat="43.565220041536854" lon="11.54264408154544"><ele>135.5</ele><time>2026-04-21T16:07:52Z</time></trkpt><trkpt lat="43.56493611996289" lon="11.54261443753581"><ele>135.0</ele><time>2026-04-21T16:07:53Z</time></trkpt><trkpt lat="43.5646532353207" lon="11.54258497573686"><ele>135.0</ele><time>2026-04-21T16:07:54Z</time></trkpt><trkpt lat="43.56436495666093" lon="11.542553412709644"><ele>135.0</ele><time>2026-04-21T16:07:55Z</time></trkpt><trkpt lat="43.56407231131516" lon="11.542522518226075"><ele>135.0</ele><time>2026-04-21T16:07:56Z</time></trkpt><trkpt lat="43.563794233594855" lon="11.542484034602206"><ele>135.0</ele><time>2026-04-21T16:07:57Z</time></trkpt><trkpt lat="43.563508284804676" lon="11.542451388573843"><ele>135.5</ele><time>2026-04-21T16:07:58Z</time></trkpt><trkpt lat="43.563223784730475" lon="11.542417546115873"><ele>136.0</ele><time>2026-04-21T16:07:59Z</time></trkpt><trkpt lat="43.56293808903739" lon="11.542389339468846"><ele>135.5</ele><time>2026-04-21T16:08:00Z</time></trkpt><trkpt lat="43.56264617607713" lon="11.542359175612091"><ele>135.0</ele><time>2026-04-21T16:08:01Z</time></trkpt><trkpt lat="43.56236019250411" lon="11.542326137767228"><ele>135.0</ele><time>2026-04-21T16:08:02Z</time></trkpt><trkpt lat="43.562077286513485" lon="11.542290864698977"><ele>135.0</ele><time>2026-04-21T16:08:03Z</time></trkpt><trkpt lat="43.56179259988711" lon="11.542263146829063"><ele>135.0</ele><time>2026-04-21T16:08:04Z</time></trkpt><trkpt lat="43.56150964132002" lon="11.542230721320546"><ele>135.0</ele><time>2026-04-21T16:08:05Z</time></trkpt><trkpt lat="43.561226076238064" lon="11.542196737354079"><ele>134.5</ele><time>2026-04-21T16:08:06Z</time></trkpt><trkpt lat="43.560953100506524" lon="11.542160105832474"><ele>134.0</ele><time>2026-04-21T16:08:07Z</time></trkpt><trkpt lat="43.56069552742302" lon="11.542133161433204"><ele>134.0</ele><time>2026-04-21T16:08:08Z</time></trkpt><trkpt lat="43.56045771587562" lon="11.542106933925277"><ele>134.0</ele><time>2026-04-21T16:08:09Z</time></trkpt><trkpt lat="43.56022833618435" lon="11.54208803158883"><ele>134.33333333333331</ele><time>2026-04-21T16:08:10Z</time></trkpt><trkpt lat="43.5600008056728" lon="11.54207842794682"><ele>134.66666666666666</ele><time>2026-04-21T16:08:11Z</time></trkpt><trkpt lat="43.55978072020321" lon="11.542088632641661"><ele>135.0</ele><time>2026-04-21T16:08:12Z</time></trkpt><trkpt lat="43.559557791068336" lon="11.542123372700296"><ele>136.0</ele><time>2026-04-21T16:08:13Z</time></trkpt><trkpt lat="43.55932676266936" lon="11.542121082859635"><ele>137.0</ele><time>2026-04-21T16:08:14Z</time></trkpt><trkpt lat="43.559103155135865" lon="11.542180192245086"><ele>137.0</ele><time>2026-04-21T16:08:15Z</time></trkpt><trkpt lat="43.55888140471656" lon="11.542261413813012"><ele>137.0</ele><time>2026-04-21T16:08:16Z</time></trkpt><trkpt lat="43.55865987364882" lon="11.542362545514932"><ele>136.5</ele><time>2026-04-21T16:08:17Z</time></trkpt><trkpt lat="43.55844057364565" lon="11.542487082227908"><ele>136.0</ele><time>2026-04-21T16:08:18Z</time></trkpt><trkpt lat="43.55823573662594" lon="11.542629517870889"><ele>136.0</ele><time>2026-04-21T16:08:19Z</time></trkpt><trkpt lat="43.558037947260296" lon="11.542797092694538"><ele>136.0</ele><time>2026-04-21T16:08:20Z</time></trkpt><trkpt lat="43.557840665190476" lon="11.542978258382476"><ele>136.5</ele><time>2026-04-21T16:08:21Z</time></trkpt><trkpt lat="43.55764861760318" lon="11.543183138109915"><ele>137.0</ele><time>2026-04-21T16:08:22Z</time></trkpt><trkpt lat="43.55746401880705" lon="11.54340213299341"><ele>137.0</ele><time>2026-04-21T16:08:23Z</time></trkpt><trkpt lat="43.557284198975644" lon="11.543645100746758"><ele>137.0</ele><time>2026-04-21T16:08:24Z</time></trkpt><trkpt lat="43.55711666830008" lon="11.543900362414252"><ele>137.5</ele><time>2026-04-21T16:08:25Z</time></trkpt><trkpt lat="43.5569473038181" lon="11.54417065804853"><ele>138.0</ele><time>2026-04-21T16:08:26Z</time></trkpt><trkpt lat="43.55677032261332" lon="11.544445653161777"><ele>139.5</ele><time>2026-04-21T16:08:27Z</time></trkpt><trkpt lat="43.55658765112385" lon="11.54471618964443"><ele>141.0</ele><time>2026-04-21T16:08:28Z</time></trkpt><trkpt lat="43.55640289300559" lon="11.544989667935448"><ele>141.0</ele><time>2026-04-21T16:08:29Z</time></trkpt><trkpt lat="43.55621138933166" lon="11.545258503836836"><ele>141.0</ele><time>2026-04-21T16:08:30Z</time></trkpt><trkpt lat="43.55602434579604" lon="11.545524639545304"><ele>139.5</ele><time>2026-04-21T16:08:31Z</time></trkpt><trkpt lat="43.55584573830623" lon="11.545797710792838"><ele>138.0</ele><time>2026-04-21T16:08:32Z</time></trkpt><trkpt lat="43.55567904973942" lon="11.546084454355073"><ele>137.0</ele><time>2026-04-21T16:08:33Z</time></trkpt><trkpt lat="43.555515371126134" lon="11.546377438630318"><ele>136.0</ele><time>2026-04-21T16:08:34Z</time></trkpt><trkpt lat="43.55535590149739" lon="11.546680808164245"><ele>136.0</ele><time>2026-04-21T16:08:35Z</time></trkpt><trkpt lat="43.555199566786555" lon="11.54697888189722"><ele>136.0</ele><time>2026-04-21T16:08:35.999Z</time></trkpt><trkpt lat="43.5550419565382" lon="11.547277943405916"><ele>136.0</ele><time>2026-04-21T16:08:36.999Z</time></trkpt><trkpt lat="43.55488284125697" lon="11.547581203891445"><ele>136.0</ele><time>2026-04-21T16:08:37.999Z</time></trkpt><trkpt lat="43.55472330393269" lon="11.547882243249118"><ele>136.5</ele><time>2026-04-21T16:08:38.999Z</time></trkpt><trkpt lat="43.554560969218535" lon="11.548186905660648"><ele>137.0</ele><time>2026-04-21T16:08:39.999Z</time></trkpt><trkpt lat="43.55439639892759" lon="11.548486501235285"><ele>135.5</ele><time>2026-04-21T16:08:40.999Z</time></trkpt><trkpt lat="43.55423406839105" lon="11.548798556175965"><ele>134.0</ele><time>2026-04-21T16:08:41.999Z</time></trkpt><trkpt lat="43.55406978335273" lon="11.54910926863213"><ele>134.0</ele><time>2026-04-21T16:08:42.999Z</time></trkpt><trkpt lat="43.55390569181185" lon="11.549416065777233"><ele>134.0</ele><time>2026-04-21T16:08:43.999Z</time></trkpt><trkpt lat="43.55374182657453" lon="11.549724727348137"><ele>134.0</ele><time>2026-04-21T16:08:44.999Z</time></trkpt><trkpt lat="43.55356635436249" lon="11.550033200847487"><ele>134.0</ele><time>2026-04-21T16:08:45.999Z</time></trkpt><trkpt lat="43.55338395820266" lon="11.55033899647789"><ele>135.0</ele><time>2026-04-21T16:08:46.999Z</time></trkpt><trkpt lat="43.55320162862959" lon="11.5506452759783"><ele>136.0</ele><time>2026-04-21T16:08:47.999Z</time></trkpt><trkpt lat="43.553016489417736" lon="11.55095416470096"><ele>135.5</ele><time>2026-04-21T16:08:48.999Z</time></trkpt><trkpt lat="43.55282583589122" lon="11.551254651746163"><ele>135.0</ele><time>2026-04-21T16:08:49.999Z</time></trkpt><trkpt lat="43.552635601646315" lon="11.551546916503685"><ele>135.0</ele><time>2026-04-21T16:08:50.999Z</time></trkpt><trkpt lat="43.552445686123114" lon="11.551842488724374"><ele>135.0</ele><time>2026-04-21T16:08:51.999Z</time></trkpt><trkpt lat="43.55225358734685" lon="11.552137235651163"><ele>135.0</ele><time>2026-04-21T16:08:52.999Z</time></trkpt><trkpt lat="43.55205226498093" lon="11.552426596162743"><ele>135.0</ele><time>2026-04-21T16:08:53.999Z</time></trkpt><trkpt lat="43.55186080313259" lon="11.552702774141824"><ele>136.5</ele><time>2026-04-21T16:08:54.999Z</time></trkpt><trkpt lat="43.55166236164153" lon="11.55298199956655"><ele>138.0</ele><time>2026-04-21T16:08:55.999Z</time></trkpt><trkpt lat="43.55146501467151" lon="11.55325575426424"><ele>138.0</ele><time>2026-04-21T16:08:56.999Z</time></trkpt><trkpt lat="43.55126740720717" lon="11.553530087046289"><ele>138.0</ele><time>2026-04-21T16:08:57.999Z</time></trkpt><trkpt lat="43.55107334740272" lon="11.553799362045252"><ele>138.0</ele><time>2026-04-21T16:08:58.999Z</time></trkpt><trkpt lat="43.5508827040326" lon="11.554074449490045"><ele>138.0</ele><time>2026-04-21T16:08:59.999Z</time></trkpt><trkpt lat="43.550685470996974" lon="11.554350788586824"><ele>138.0</ele><time>2026-04-21T16:09:00.999Z</time></trkpt><trkpt lat="43.55049590030866" lon="11.55463742064192"><ele>138.0</ele><time>2026-04-21T16:09:01.999Z</time></trkpt><trkpt lat="43.550304846301906" lon="11.554911751358159"><ele>138.0</ele><time>2026-04-21T16:09:02.999Z</time></trkpt><trkpt lat="43.55011127272571" lon="11.555193571834543"><ele>138.0</ele><time>2026-04-21T16:09:03.999Z</time></trkpt><trkpt lat="43.54993180097269" lon="11.555468156510225"><ele>137.5</ele><time>2026-04-21T16:09:04.999Z</time></trkpt><trkpt lat="43.5497412280202" lon="11.555750032422022"><ele>137.0</ele><time>2026-04-21T16:09:05.999Z</time></trkpt><trkpt lat="43.549551979625086" lon="11.556024700349015"><ele>137.5</ele><time>2026-04-21T16:09:06.999Z</time></trkpt><trkpt lat="43.54936236233266" lon="11.556300302039931"><ele>138.0</ele><time>2026-04-21T16:09:07.999Z</time></trkpt><trkpt lat="43.54917417286031" lon="11.556579139534652"><ele>138.0</ele><time>2026-04-21T16:09:08.999Z</time></trkpt><trkpt lat="43.548982232393854" lon="11.556858560326138"><ele>138.0</ele><time>2026-04-21T16:09:09.999Z</time></trkpt><trkpt lat="43.54878837311079" lon="11.557135485283204"><ele>138.5</ele><time>2026-04-21T16:09:10.999Z</time></trkpt><trkpt lat="43.548594250382855" lon="11.557413422112457"><ele>139.0</ele><time>2026-04-21T16:09:11.999Z</time></trkpt><trkpt lat="43.54840505610162" lon="11.55768987255415"><ele>140.0</ele><time>2026-04-21T16:09:12.999Z</time></trkpt><trkpt lat="43.54821388327617" lon="11.557970523262473"><ele>141.0</ele><time>2026-04-21T16:09:13.999Z</time></trkpt><trkpt lat="43.54802033459105" lon="11.558249315493821"><ele>140.0</ele><time>2026-04-21T16:09:14.999Z</time></trkpt><trkpt lat="43.54782765702738" lon="11.558526039860745"><ele>139.0</ele><time>2026-04-21T16:09:15.999Z</time></trkpt><trkpt lat="43.54763823445709" lon="11.558800518625208"><ele>139.0</ele><time>2026-04-21T16:09:16.999Z</time></trkpt><trkpt lat="43.54744993524816" lon="11.559078980916242"><ele>139.0</ele><time>2026-04-21T16:09:17.999Z</time></trkpt><trkpt lat="43.54726108563942" lon="11.559351853660255"><ele>139.0</ele><time>2026-04-21T16:09:18.999Z</time></trkpt><trkpt lat="43.54707427258683" lon="11.559625349589593"><ele>139.0</ele><time>2026-04-21T16:09:19.999Z</time></trkpt><trkpt lat="43.546882515653046" lon="11.559899863192973"><ele>138.5</ele><time>2026-04-21T16:09:20.999Z</time></trkpt><trkpt lat="43.54669675833827" lon="11.560174373887838"><ele>138.0</ele><time>2026-04-21T16:09:21.999Z</time></trkpt><trkpt lat="43.546512882802396" lon="11.560451814968129"><ele>138.0</ele><time>2026-04-21T16:09:22.999Z</time></trkpt><trkpt lat="43.546325503561036" lon="11.560725152760249"><ele>138.0</ele><time>2026-04-21T16:09:23.999Z</time></trkpt><trkpt lat="43.546137594195066" lon="11.560995950883502"><ele>137.5</ele><time>2026-04-21T16:09:24.999Z</time></trkpt><trkpt lat="43.5459528504776" lon="11.56126595301451"><ele>137.0</ele><time>2026-04-21T16:09:25.999Z</time></trkpt><trkpt lat="43.5457694031142" lon="11.561539541982512"><ele>137.0</ele><time>2026-04-21T16:09:26.999Z</time></trkpt><trkpt lat="43.54558553340524" lon="11.561814021941233"><ele>137.0</ele><time>2026-04-21T16:09:27.999Z</time></trkpt><trkpt lat="43.54539946437636" lon="11.562085453896831"><ele>138.0</ele><time>2026-04-21T16:09:28.999Z</time></trkpt><trkpt lat="43.545208949523165" lon="11.562355675335143"><ele>139.0</ele><time>2026-04-21T16:09:29.999Z</time></trkpt><trkpt lat="43.54501850136404" lon="11.562625654039508"><ele>139.0</ele><time>2026-04-21T16:09:30.999Z</time></trkpt><trkpt lat="43.54483147904859" lon="11.562902081148934"><ele>139.0</ele><time>2026-04-21T16:09:31.999Z</time></trkpt><trkpt lat="43.544641540524516" lon="11.56317769662618"><ele>139.0</ele><time>2026-04-21T16:09:32.999Z</time></trkpt><trkpt lat="43.5444536297151" lon="11.563454470582462"><ele>139.0</ele><time>2026-04-21T16:09:33.999Z</time></trkpt><trkpt lat="43.54426410206037" lon="11.563732304059616"><ele>139.5</ele><time>2026-04-21T16:09:34.999Z</time></trkpt><trkpt lat="43.54407577180477" lon="11.564009267464511"><ele>140.0</ele><time>2026-04-21T16:09:35.999Z</time></trkpt><trkpt lat="43.54388533036919" lon="11.564285286135192"><ele>139.0</ele><time>2026-04-21T16:09:36.999Z</time></trkpt><trkpt lat="43.543695092843656" lon="11.56456387441011"><ele>138.0</ele><time>2026-04-21T16:09:37.999Z</time></trkpt><trkpt lat="43.543505186478995" lon="11.564833559144542"><ele>138.0</ele><time>2026-04-21T16:09:38.999Z</time></trkpt><trkpt lat="43.54331994870037" lon="11.565106665788338"><ele>138.0</ele><time>2026-04-21T16:09:39.999Z</time></trkpt><trkpt lat="43.54313378632432" lon="11.565375440709483"><ele>137.5</ele><time>2026-04-21T16:09:40.999Z</time></trkpt><trkpt lat="43.542948311216165" lon="11.565639740211713"><ele>137.0</ele><time>2026-04-21T16:09:41.999Z</time></trkpt><trkpt lat="43.5427646246169" lon="11.565903916959213"><ele>137.0</ele><time>2026-04-21T16:09:42.999Z</time></trkpt><trkpt lat="43.542582872637944" lon="11.566172637285035"><ele>137.0</ele><time>2026-04-21T16:09:43.999Z</time></trkpt><trkpt lat="43.54240033174098" lon="11.566445166078568"><ele>137.5</ele><time>2026-04-21T16:09:44.999Z</time></trkpt><trkpt lat="43.5422181190229" lon="11.566721437518458"><ele>138.0</ele><time>2026-04-21T16:09:45.999Z</time></trkpt><trkpt lat="43.54203361688176" lon="11.56699581198519"><ele>139.5</ele><time>2026-04-21T16:09:46.999Z</time></trkpt><trkpt lat="43.54184670999189" lon="11.567268178139484"><ele>141.0</ele><time>2026-04-21T16:09:47.999Z</time></trkpt><trkpt lat="43.54166142570936" lon="11.567543447882008"><ele>141.0</ele><time>2026-04-21T16:09:48.999Z</time></trkpt><trkpt lat="43.541474058750566" lon="11.56782338329895"><ele>141.0</ele><time>2026-04-21T16:09:49.999Z</time></trkpt><trkpt lat="43.541288228235004" lon="11.568100609662858"><ele>139.5</ele><time>2026-04-21T16:09:50.999Z</time></trkpt><trkpt lat="43.54110053406903" lon="11.568377943626231"><ele>138.0</ele><time>2026-04-21T16:09:51.999Z</time></trkpt><trkpt lat="43.540914902630014" lon="11.568652602390289"><ele>139.5</ele><time>2026-04-21T16:09:52.999Z</time></trkpt><trkpt lat="43.540726157017595" lon="11.568933215270183"><ele>141.0</ele><time>2026-04-21T16:09:53.999Z</time></trkpt><trkpt lat="43.54053622591242" lon="11.569212126443537"><ele>140.5</ele><time>2026-04-21T16:09:54.999Z</time></trkpt><trkpt lat="43.54034470947964" lon="11.569491952587837"><ele>140.0</ele><time>2026-04-21T16:09:55.999Z</time></trkpt><trkpt lat="43.54015265173915" lon="11.569771782868006"><ele>140.0</ele><time>2026-04-21T16:09:56.999Z</time></trkpt><trkpt lat="43.539960892570335" lon="11.570055273593914"><ele>140.0</ele><time>2026-04-21T16:09:57.999Z</time></trkpt><trkpt lat="43.53976924913575" lon="11.570341846635419"><ele>140.5</ele><time>2026-04-21T16:09:58.999Z</time></trkpt><trkpt lat="43.53958144540305" lon="11.570631485199208"><ele>141.0</ele><time>2026-04-21T16:09:59.999Z</time></trkpt><trkpt lat="43.539396848547824" lon="11.570917331800961"><ele>140.0</ele><time>2026-04-21T16:10:00.999Z</time></trkpt><trkpt lat="43.53921152613151" lon="11.571212019315528"><ele>139.0</ele><time>2026-04-21T16:10:01.999Z</time></trkpt><trkpt lat="43.53902627011458" lon="11.571505021745983"><ele>139.0</ele><time>2026-04-21T16:10:02.999Z</time></trkpt><trkpt lat="43.53884179884943" lon="11.571800482110962"><ele>139.0</ele><time>2026-04-21T16:10:03.999Z</time></trkpt><trkpt lat="43.5386583939383" lon="11.572099002929356"><ele>140.5</ele><time>2026-04-21T16:10:04.999Z</time></trkpt><trkpt lat="43.538476420345035" lon="11.572397889526117"><ele>142.0</ele><time>2026-04-21T16:10:05.999Z</time></trkpt><trkpt lat="43.538296517251744" lon="11.57270075804887"><ele>142.0</ele><time>2026-04-21T16:10:06.999Z</time></trkpt><trkpt lat="43.53812031451191" lon="11.573006108421474"><ele>142.0</ele><time>2026-04-21T16:10:07.999Z</time></trkpt><trkpt lat="43.53794419409721" lon="11.573317675502967"><ele>141.5</ele><time>2026-04-21T16:10:08.999Z</time></trkpt><trkpt lat="43.53776998262326" lon="11.573627341970614"><ele>141.0</ele><time>2026-04-21T16:10:09.999Z</time></trkpt><trkpt lat="43.53759566506622" lon="11.573936432455389"><ele>141.0</ele><time>2026-04-21T16:10:10.999Z</time></trkpt><trkpt lat="43.53742507488359" lon="11.574232641340124"><ele>141.0</ele><time>2026-04-21T16:10:11.999Z</time></trkpt><trkpt lat="43.53725600027813" lon="11.574526727622018"><ele>141.0</ele><time>2026-04-21T16:10:12.999Z</time></trkpt><trkpt lat="43.537083242541776" lon="11.574823554171623"><ele>141.0</ele><time>2026-04-21T16:10:13.999Z</time></trkpt><trkpt lat="43.536909453228816" lon="11.575118193293426"><ele>141.0</ele><time>2026-04-21T16:10:14.999Z</time></trkpt><trkpt lat="43.536735459369545" lon="11.575414092571851"><ele>141.0</ele><time>2026-04-21T16:10:15.999Z</time></trkpt><trkpt lat="43.536572763111145" lon="11.575715103897945"><ele>141.0</ele><time>2026-04-21T16:10:16.999Z</time></trkpt><trkpt lat="43.536412631705744" lon="11.576013970858845"><ele>141.0</ele><time>2026-04-21T16:10:17.999Z</time></trkpt><trkpt lat="43.53624998569066" lon="11.576309527374281"><ele>141.0</ele><time>2026-04-21T16:10:18.999Z</time></trkpt><trkpt lat="43.53608431722434" lon="11.576616905484611"><ele>141.0</ele><time>2026-04-21T16:10:19.999Z</time></trkpt><trkpt lat="43.53591573476882" lon="11.57691080280737"><ele>141.0</ele><time>2026-04-21T16:10:20.999Z</time></trkpt><trkpt lat="43.53574731357301" lon="11.577216240908866"><ele>141.0</ele><time>2026-04-21T16:10:21.999Z</time></trkpt><trkpt lat="43.53558008036353" lon="11.577522627074018"><ele>141.0</ele><time>2026-04-21T16:10:22.999Z</time></trkpt><trkpt lat="43.53540866789378" lon="11.577827126310309"><ele>141.0</ele><time>2026-04-21T16:10:23.999Z</time></trkpt><trkpt lat="43.535236749685545" lon="11.578133141341468"><ele>141.0</ele><time>2026-04-21T16:10:24.999Z</time></trkpt><trkpt lat="43.53506344737442" lon="11.578442587825162"><ele>141.0</ele><time>2026-04-21T16:10:25.999Z</time></trkpt><trkpt lat="43.534895132699894" lon="11.578753225123428"><ele>141.0</ele><time>2026-04-21T16:10:26.999Z</time></trkpt><trkpt lat="43.53472618081188" lon="11.579068717089697"><ele>141.0</ele><time>2026-04-21T16:10:27.999Z</time></trkpt><trkpt lat="43.53455468022347" lon="11.579380498813897"><ele>142.5</ele><time>2026-04-21T16:10:28.999Z</time></trkpt><trkpt lat="43.53438168993288" lon="11.579689602366289"><ele>144.0</ele><time>2026-04-21T16:10:29.999Z</time></trkpt><trkpt lat="43.53421200288523" lon="11.579991221676396"><ele>144.0</ele><time>2026-04-21T16:10:30.999Z</time></trkpt><trkpt lat="43.534046883805956" lon="11.580295942860698"><ele>144.0</ele><time>2026-04-21T16:10:31.999Z</time></trkpt><trkpt lat="43.533886302339496" lon="11.580604993073937"><ele>142.5</ele><time>2026-04-21T16:10:33Z</time></trkpt><trkpt lat="43.53372122796377" lon="11.580916738369599"><ele>141.0</ele><time>2026-04-21T16:10:34Z</time></trkpt><trkpt lat="43.533550305663006" lon="11.581227390075238"><ele>141.0</ele><time>2026-04-21T16:10:35Z</time></trkpt><trkpt lat="43.53337714750483" lon="11.581541954918958"><ele>141.0</ele><time>2026-04-21T16:10:36Z</time></trkpt><trkpt lat="43.5332046259445" lon="11.581856045380029"><ele>141.0</ele><time>2026-04-21T16:10:37Z</time></trkpt><trkpt lat="43.533032695878745" lon="11.582168203477387"><ele>141.0</ele><time>2026-04-21T16:10:38Z</time></trkpt><trkpt lat="43.53286052997183" lon="11.582483252192766"><ele>141.0</ele><time>2026-04-21T16:10:39Z</time></trkpt><trkpt lat="43.532687908077506" lon="11.582795516097047"><ele>141.0</ele><time>2026-04-21T16:10:40Z</time></trkpt><trkpt lat="43.53251666437453" lon="11.583105891426209"><ele>142.0</ele><time>2026-04-21T16:10:41Z</time></trkpt><trkpt lat="43.53234230682111" lon="11.58341288534831"><ele>143.0</ele><time>2026-04-21T16:10:42Z</time></trkpt><trkpt lat="43.53216888208618" lon="11.583725196411278"><ele>141.5</ele><time>2026-04-21T16:10:43Z</time></trkpt><trkpt lat="43.53199594070539" lon="11.58403873111009"><ele>140.0</ele><time>2026-04-21T16:10:44Z</time></trkpt><trkpt lat="43.53182225899642" lon="11.584352107809101"><ele>142.0</ele><time>2026-04-21T16:10:45Z</time></trkpt><trkpt lat="43.53165000576693" lon="11.584664276545942"><ele>144.0</ele><time>2026-04-21T16:10:46Z</time></trkpt><trkpt lat="43.53147603517354" lon="11.584985106209459"><ele>144.0</ele><time>2026-04-21T16:10:47Z</time></trkpt><trkpt lat="43.53129559379115" lon="11.585291472416438"><ele>144.0</ele><time>2026-04-21T16:10:48Z</time></trkpt><trkpt lat="43.531116356548566" lon="11.585603638513435"><ele>143.5</ele><time>2026-04-21T16:10:49Z</time></trkpt><trkpt lat="43.5309380324494" lon="11.585917020074941"><ele>143.0</ele><time>2026-04-21T16:10:50Z</time></trkpt><trkpt lat="43.53076280891012" lon="11.586235377220783"><ele>143.0</ele><time>2026-04-21T16:10:51Z</time></trkpt><trkpt lat="43.53058909256134" lon="11.58655589162408"><ele>143.0</ele><time>2026-04-21T16:10:52Z</time></trkpt><trkpt lat="43.53041307006752" lon="11.586873103825384"><ele>144.0</ele><time>2026-04-21T16:10:53Z</time></trkpt><trkpt lat="43.53023997567272" lon="11.587188119956089"><ele>145.0</ele><time>2026-04-21T16:10:54Z</time></trkpt><trkpt lat="43.53006541810498" lon="11.587508041753976"><ele>145.0</ele><time>2026-04-21T16:10:55Z</time></trkpt><trkpt lat="43.52989472919856" lon="11.58783033930274"><ele>145.0</ele><time>2026-04-21T16:10:56Z</time></trkpt><trkpt lat="43.52971794675414" lon="11.588155876042608"><ele>145.5</ele><time>2026-04-21T16:10:57Z</time></trkpt><trkpt lat="43.52953908316089" lon="11.588466316938877"><ele>146.0</ele><time>2026-04-21T16:10:58Z</time></trkpt><trkpt lat="43.52936094438748" lon="11.588780832410427"><ele>146.0</ele><time>2026-04-21T16:10:59Z</time></trkpt><trkpt lat="43.529183058222486" lon="11.589095417956692"><ele>146.0</ele><time>2026-04-21T16:11:00Z</time></trkpt><trkpt lat="43.5290059010069" lon="11.589410664866536"><ele>145.5</ele><time>2026-04-21T16:11:01Z</time></trkpt><trkpt lat="43.52883022100741" lon="11.589725014926751"><ele>145.0</ele><time>2026-04-21T16:11:02Z</time></trkpt><trkpt lat="43.52865762979029" lon="11.590036799626233"><ele>144.0</ele><time>2026-04-21T16:11:03Z</time></trkpt><trkpt lat="43.52848706360335" lon="11.590341073487725"><ele>143.0</ele><time>2026-04-21T16:11:04Z</time></trkpt><trkpt lat="43.52831301702309" lon="11.590655797552198"><ele>143.0</ele><time>2026-04-21T16:11:05Z</time></trkpt><trkpt lat="43.528142478667206" lon="11.59096489395829"><ele>143.0</ele><time>2026-04-21T16:11:06Z</time></trkpt><trkpt lat="43.527972557060615" lon="11.591274948065182"><ele>143.5</ele><time>2026-04-21T16:11:07Z</time></trkpt><trkpt lat="43.52780200844901" lon="11.591582398885986"><ele>144.0</ele><time>2026-04-21T16:11:08Z</time></trkpt><trkpt lat="43.5276284988346" lon="11.591891951297821"><ele>145.0</ele><time>2026-04-21T16:11:09Z</time></trkpt><trkpt lat="43.52745529940364" lon="11.5922071018398"><ele>146.0</ele><time>2026-04-21T16:11:10Z</time></trkpt><trkpt lat="43.527279155563846" lon="11.592514703651394"><ele>146.0</ele><time>2026-04-21T16:11:11Z</time></trkpt><trkpt lat="43.52710461116704" lon="11.592824214847424"><ele>146.0</ele><time>2026-04-21T16:11:12Z</time></trkpt><trkpt lat="43.526931073373184" lon="11.593134815153151"><ele>146.0</ele><time>2026-04-21T16:11:13Z</time></trkpt><trkpt lat="43.52675975598505" lon="11.59344725021625"><ele>146.0</ele><time>2026-04-21T16:11:14Z</time></trkpt><trkpt lat="43.52658258464608" lon="11.59375116489819"><ele>146.0</ele><time>2026-04-21T16:11:15Z</time></trkpt><trkpt lat="43.52641139311008" lon="11.594062732399466"><ele>146.0</ele><time>2026-04-21T16:11:16Z</time></trkpt><trkpt lat="43.5262471984967" lon="11.594383585665932"><ele>145.5</ele><time>2026-04-21T16:11:17Z</time></trkpt><trkpt lat="43.52607485756801" lon="11.594693407844392"><ele>145.0</ele><time>2026-04-21T16:11:18Z</time></trkpt><trkpt lat="43.525902156529604" lon="11.595000597848625"><ele>145.0</ele><time>2026-04-21T16:11:19Z</time></trkpt><trkpt lat="43.5257281403519" lon="11.595301629422258"><ele>145.0</ele><time>2026-04-21T16:11:20Z</time></trkpt><trkpt lat="43.52555601034164" lon="11.595600917598812"><ele>145.0</ele><time>2026-04-21T16:11:21Z</time></trkpt><trkpt lat="43.52538195310088" lon="11.59590043456817"><ele>145.0</ele><time>2026-04-21T16:11:22Z</time></trkpt><trkpt lat="43.52520619390591" lon="11.596194739651807"><ele>145.0</ele><time>2026-04-21T16:11:23Z</time></trkpt><trkpt lat="43.52503281746366" lon="11.596490574033027"><ele>145.0</ele><time>2026-04-21T16:11:24Z</time></trkpt><trkpt lat="43.524862387990616" lon="11.596792159441334"><ele>144.0</ele><time>2026-04-21T16:11:25Z</time></trkpt><trkpt lat="43.524693889956794" lon="11.597094589916939"><ele>143.0</ele><time>2026-04-21T16:11:26Z</time></trkpt><trkpt lat="43.52452617416525" lon="11.597400257483047"><ele>143.0</ele><time>2026-04-21T16:11:27Z</time></trkpt><trkpt lat="43.5243550685507" lon="11.597706495355922"><ele>143.0</ele><time>2026-04-21T16:11:28Z</time></trkpt><trkpt lat="43.52418851804678" lon="11.59801199028299"><ele>145.0</ele><time>2026-04-21T16:11:29Z</time></trkpt><trkpt lat="43.52401844102256" lon="11.598317117484239"><ele>147.0</ele><time>2026-04-21T16:11:30Z</time></trkpt><trkpt lat="43.52384193751909" lon="11.598628998885737"><ele>145.5</ele><time>2026-04-21T16:11:31Z</time></trkpt><trkpt lat="43.52365937855141" lon="11.59892979666878"><ele>144.0</ele><time>2026-04-21T16:11:32Z</time></trkpt><trkpt lat="43.52352430253382" lon="11.599187887567993"><ele>144.0</ele><time>2026-04-21T16:11:33Z</time></trkpt><trkpt lat="43.52336027743061" lon="11.599465761542305"><ele>144.0</ele><time>2026-04-21T16:11:34Z</time></trkpt><trkpt lat="43.52319807412481" lon="11.599742649328027"><ele>145.5</ele><time>2026-04-21T16:11:35Z</time></trkpt><trkpt lat="43.523038486951855" lon="11.600028117215075"><ele>147.0</ele><time>2026-04-21T16:11:36Z</time></trkpt><trkpt lat="43.52287580104772" lon="11.60031854628599"><ele>146.0</ele><time>2026-04-21T16:11:37Z</time></trkpt><trkpt lat="43.52271072960641" lon="11.60060057703089"><ele>145.0</ele><time>2026-04-21T16:11:38Z</time></trkpt><trkpt lat="43.52254892803313" lon="11.600892324769681"><ele>146.0</ele><time>2026-04-21T16:11:39Z</time></trkpt><trkpt lat="43.522374340292814" lon="11.601177431176454"><ele>147.0</ele><time>2026-04-21T16:11:40Z</time></trkpt><trkpt lat="43.52220060590225" lon="11.601460219715008"><ele>146.0</ele><time>2026-04-21T16:11:41Z</time></trkpt><trkpt lat="43.52202975157085" lon="11.601732731881812"><ele>145.0</ele><time>2026-04-21T16:11:42Z</time></trkpt><trkpt lat="43.52186087452303" lon="11.602008040667725"><ele>145.0</ele><time>2026-04-21T16:11:43Z</time></trkpt><trkpt lat="43.52169059333408" lon="11.602292351050746"><ele>145.0</ele><time>2026-04-21T16:11:44Z</time></trkpt><trkpt lat="43.521518000086594" lon="11.60257126096173"><ele>146.0</ele><time>2026-04-21T16:11:45Z</time></trkpt><trkpt lat="43.521348806194176" lon="11.602855324565402"><ele>147.0</ele><time>2026-04-21T16:11:46Z</time></trkpt><trkpt lat="43.52117948903197" lon="11.60313779666209"><ele>147.5</ele><time>2026-04-21T16:11:47Z</time></trkpt><trkpt lat="43.521015177947106" lon="11.603417945598704"><ele>148.0</ele><time>2026-04-21T16:11:48Z</time></trkpt><trkpt lat="43.5208433045248" lon="11.603702719268329"><ele>148.0</ele><time>2026-04-21T16:11:49Z</time></trkpt><trkpt lat="43.52066916328099" lon="11.603985981823165"><ele>148.0</ele><time>2026-04-21T16:11:50Z</time></trkpt><trkpt lat="43.520502551819426" lon="11.604275579582705"><ele>147.5</ele><time>2026-04-21T16:11:51Z</time></trkpt><trkpt lat="43.52033700761533" lon="11.604557838848777"><ele>147.0</ele><time>2026-04-21T16:11:52Z</time></trkpt><trkpt lat="43.52016224696845" lon="11.604840631937707"><ele>147.0</ele><time>2026-04-21T16:11:53Z</time></trkpt><trkpt lat="43.51998850496544" lon="11.605120708055134"><ele>147.0</ele><time>2026-04-21T16:11:54Z</time></trkpt><trkpt lat="43.51981569699732" lon="11.605408179762621"><ele>147.0</ele><time>2026-04-21T16:11:55Z</time></trkpt><trkpt lat="43.51965302745134" lon="11.60569116968243"><ele>147.0</ele><time>2026-04-21T16:11:56Z</time></trkpt><trkpt lat="43.519482488203785" lon="11.605973483284943"><ele>148.0</ele><time>2026-04-21T16:11:57Z</time></trkpt><trkpt lat="43.51931124345257" lon="11.606256957839438"><ele>149.0</ele><time>2026-04-21T16:11:58Z</time></trkpt><trkpt lat="43.519140576507" lon="11.606538000702866"><ele>149.0</ele><time>2026-04-21T16:11:59Z</time></trkpt><trkpt lat="43.518969337826455" lon="11.606820939280603"><ele>149.0</ele><time>2026-04-21T16:12:00Z</time></trkpt><trkpt lat="43.51880009835871" lon="11.607104381405065"><ele>148.0</ele><time>2026-04-21T16:12:01Z</time></trkpt><trkpt lat="43.51862960160444" lon="11.60738302811943"><ele>147.0</ele><time>2026-04-21T16:12:02Z</time></trkpt><trkpt lat="43.518462534600594" lon="11.60766068220074"><ele>148.5</ele><time>2026-04-21T16:12:03Z</time></trkpt><trkpt lat="43.518296378800706" lon="11.607942449469217"><ele>150.0</ele><time>2026-04-21T16:12:04Z</time></trkpt><trkpt lat="43.51812898335647" lon="11.608223016855938"><ele>150.0</ele><time>2026-04-21T16:12:05Z</time></trkpt><trkpt lat="43.51795942390451" lon="11.608496302061202"><ele>150.0</ele><time>2026-04-21T16:12:06Z</time></trkpt><trkpt lat="43.51779062843721" lon="11.608774635235667"><ele>150.5</ele><time>2026-04-21T16:12:07Z</time></trkpt><trkpt lat="43.51762421780538" lon="11.609053117835257"><ele>151.0</ele><time>2026-04-21T16:12:08Z</time></trkpt><trkpt lat="43.51745575123757" lon="11.609335229270926"><ele>152.0</ele><time>2026-04-21T16:12:09Z</time></trkpt><trkpt lat="43.51728957580701" lon="11.609616605963687"><ele>153.0</ele><time>2026-04-21T16:12:10Z</time></trkpt><trkpt lat="43.51712896969425" lon="11.609900142651384"><ele>152.0</ele><time>2026-04-21T16:12:11Z</time></trkpt><trkpt lat="43.516969070846194" lon="11.610186398901407"><ele>151.0</ele><time>2026-04-21T16:12:12Z</time></trkpt><trkpt lat="43.51681616162706" lon="11.610471375053887"><ele>151.0</ele><time>2026-04-21T16:12:13Z</time></trkpt><trkpt lat="43.5166662293693" lon="11.610767714410686"><ele>151.0</ele><time>2026-04-21T16:12:14Z</time></trkpt><trkpt lat="43.51652206201576" lon="11.611069970132153"><ele>152.0</ele><time>2026-04-21T16:12:15Z</time></trkpt><trkpt lat="43.51638464566616" lon="11.611372532023408"><ele>153.0</ele><time>2026-04-21T16:12:16Z</time></trkpt><trkpt lat="43.516250570119105" lon="11.611699420660306"><ele>150.5</ele><time>2026-04-21T16:12:17Z</time></trkpt><trkpt lat="43.51612363969613" lon="11.61199117875333"><ele>148.0</ele><time>2026-04-21T16:12:18Z</time></trkpt><trkpt lat="43.51600096337977" lon="11.612299575430075"><ele>148.0</ele><time>2026-04-21T16:12:19Z</time></trkpt><trkpt lat="43.51588101328287" lon="11.612615457036046"><ele>148.0</ele><time>2026-04-21T16:12:20Z</time></trkpt><trkpt lat="43.51576707168678" lon="11.612929327745304"><ele>149.0</ele><time>2026-04-21T16:12:21Z</time></trkpt><trkpt lat="43.51566103069827" lon="11.613252399405205"><ele>150.0</ele><time>2026-04-21T16:12:22Z</time></trkpt><trkpt lat="43.51556213540742" lon="11.613577424699505"><ele>148.0</ele><time>2026-04-21T16:12:23Z</time></trkpt><trkpt lat="43.5154616225587" lon="11.613904125384012"><ele>146.0</ele><time>2026-04-21T16:12:24Z</time></trkpt><trkpt lat="43.5153664990843" lon="11.61423279433708"><ele>146.5</ele><time>2026-04-21T16:12:25Z</time></trkpt><trkpt lat="43.51527872524585" lon="11.614569461144923"><ele>147.0</ele><time>2026-04-21T16:12:26Z</time></trkpt><trkpt lat="43.51519506818404" lon="11.614915062411253"><ele>147.0</ele><time>2026-04-21T16:12:27Z</time></trkpt><trkpt lat="43.51511348655933" lon="11.615254288907373"><ele>147.0</ele><time>2026-04-21T16:12:28Z</time></trkpt><trkpt lat="43.51503876570938" lon="11.615601773941968"><ele>147.0</ele><time>2026-04-21T16:12:29Z</time></trkpt><trkpt lat="43.51497298572246" lon="11.615953153466025"><ele>147.0</ele><time>2026-04-21T16:12:30Z</time></trkpt><trkpt lat="43.51491240889355" lon="11.616304002448098"><ele>148.5</ele><time>2026-04-21T16:12:31Z</time></trkpt><trkpt lat="43.5148562848406" lon="11.616656020197551"><ele>150.0</ele><time>2026-04-21T16:12:32Z</time></trkpt><trkpt lat="43.51480568667216" lon="11.617010349219532"><ele>152.0</ele><time>2026-04-21T16:12:33Z</time></trkpt><trkpt lat="43.514762587540346" lon="11.61736951977864"><ele>154.0</ele><time>2026-04-21T16:12:34Z</time></trkpt><trkpt lat="43.51472316001016" lon="11.617726401012627"><ele>154.5</ele><time>2026-04-21T16:12:35Z</time></trkpt><trkpt lat="43.51469268596733" lon="11.61808654795003"><ele>155.0</ele><time>2026-04-21T16:12:36Z</time></trkpt><trkpt lat="43.514669193835715" lon="11.618449787834995"><ele>154.5</ele><time>2026-04-21T16:12:37Z</time></trkpt><trkpt lat="43.514651272186505" lon="11.618817548951524"><ele>154.0</ele><time>2026-04-21T16:12:38Z</time></trkpt><trkpt lat="43.51463371849889" lon="11.61918172507198"><ele>154.0</ele><time>2026-04-21T16:12:39Z</time></trkpt><trkpt lat="43.51461715601747" lon="11.619549834096128"><ele>154.0</ele><time>2026-04-21T16:12:40Z</time></trkpt><trkpt lat="43.51460344124854" lon="11.61991915863895"><ele>154.0</ele><time>2026-04-21T16:12:41Z</time></trkpt><trkpt lat="43.51458671208789" lon="11.620286677450354"><ele>154.0</ele><time>2026-04-21T16:12:42Z</time></trkpt><trkpt lat="43.51456738685935" lon="11.620655740759235"><ele>150.0</ele><time>2026-04-21T16:12:43Z</time></trkpt><trkpt lat="43.514549579553446" lon="11.621026678780579"><ele>146.0</ele><time>2026-04-21T16:12:44Z</time></trkpt><trkpt lat="43.514532838679855" lon="11.621398030246349"><ele>145.5</ele><time>2026-04-21T16:12:45Z</time></trkpt><trkpt lat="43.514517349468626" lon="11.62176742622346"><ele>145.0</ele><time>2026-04-21T16:12:46Z</time></trkpt><trkpt lat="43.514508514948545" lon="11.62213531484156"><ele>145.0</ele><time>2026-04-21T16:12:47Z</time></trkpt><trkpt lat="43.51449298897367" lon="11.622500219582149"><ele>145.0</ele><time>2026-04-21T16:12:48Z</time></trkpt><trkpt lat="43.51447530595893" lon="11.622862438166951"><ele>145.5</ele><time>2026-04-21T16:12:49Z</time></trkpt><trkpt lat="43.51445444985595" lon="11.623222109681766"><ele>146.0</ele><time>2026-04-21T16:12:50Z</time></trkpt><trkpt lat="43.51443525737144" lon="11.623576675101639"><ele>145.5</ele><time>2026-04-21T16:12:51Z</time></trkpt><trkpt lat="43.51441673775368" lon="11.623928944999726"><ele>145.0</ele><time>2026-04-21T16:12:52Z</time></trkpt><trkpt lat="43.51439861734253" lon="11.62428378004863"><ele>145.5</ele><time>2026-04-21T16:12:53Z</time></trkpt><trkpt lat="43.514382607335065" lon="11.624638257065907"><ele>146.0</ele><time>2026-04-21T16:12:54Z</time></trkpt><trkpt lat="43.51436725755637" lon="11.624993069651625"><ele>146.0</ele><time>2026-04-21T16:12:55Z</time></trkpt><trkpt lat="43.51435202817468" lon="11.62534679164214"><ele>146.0</ele><time>2026-04-21T16:12:56Z</time></trkpt><trkpt lat="43.51433562175098" lon="11.62570193755263"><ele>146.0</ele><time>2026-04-21T16:12:57Z</time></trkpt><trkpt lat="43.51431814398706" lon="11.626054658854615"><ele>146.0</ele><time>2026-04-21T16:12:58Z</time></trkpt><trkpt lat="43.51430046670978" lon="11.626404369855482"><ele>148.5</ele><time>2026-04-21T16:12:59Z</time></trkpt><trkpt lat="43.51428366424798" lon="11.62675460562814"><ele>151.0</ele><time>2026-04-21T16:13:00Z</time></trkpt><trkpt lat="43.51427033310803" lon="11.627109106731519"><ele>155.5</ele><time>2026-04-21T16:13:01Z</time></trkpt><trkpt lat="43.51425323886509" lon="11.627460679229335"><ele>160.0</ele><time>2026-04-21T16:13:02Z</time></trkpt><trkpt lat="43.514245814923434" lon="11.627784898551509"><ele>164.0</ele><time>2026-04-21T16:13:03Z</time></trkpt><trkpt lat="43.514242285127146" lon="11.628123567024149"><ele>168.0</ele><time>2026-04-21T16:13:04Z</time></trkpt><trkpt lat="43.51425438509461" lon="11.628456888225687"><ele>171.5</ele><time>2026-04-21T16:13:05Z</time></trkpt><trkpt lat="43.51428408153938" lon="11.628790649645847"><ele>175.0</ele><time>2026-04-21T16:13:06Z</time></trkpt><trkpt lat="43.51433067752224" lon="11.629122925327644"><ele>175.0</ele><time>2026-04-21T16:13:07Z</time></trkpt><trkpt lat="43.51439142541451" lon="11.629449666721657"><ele>175.0</ele><time>2026-04-21T16:13:08Z</time></trkpt><trkpt lat="43.51446774619952" lon="11.629769846965909"><ele>176.5</ele><time>2026-04-21T16:13:09Z</time></trkpt><trkpt lat="43.51455436621427" lon="11.630084468033262"><ele>178.0</ele><time>2026-04-21T16:13:10Z</time></trkpt><trkpt lat="43.514648815833105" lon="11.630401011395433"><ele>184.5</ele><time>2026-04-21T16:13:11Z</time></trkpt><trkpt lat="43.51474271793735" lon="11.630718569837548"><ele>191.0</ele><time>2026-04-21T16:13:12Z</time></trkpt><trkpt lat="43.51482895075989" lon="11.631042214324847"><ele>187.5</ele><time>2026-04-21T16:13:13Z</time></trkpt><trkpt lat="43.514908604217375" lon="11.631366651279503"><ele>184.0</ele><time>2026-04-21T16:13:14Z</time></trkpt><trkpt lat="43.514973422472174" lon="11.63168505110205"><ele>178.5</ele><time>2026-04-21T16:13:15Z</time></trkpt><trkpt lat="43.51502436408966" lon="11.632005234019593"><ele>173.0</ele><time>2026-04-21T16:13:16Z</time></trkpt><trkpt lat="43.51505996016938" lon="11.632327740929089"><ele>173.0</ele><time>2026-04-21T16:13:17Z</time></trkpt><trkpt lat="43.515087054813435" lon="11.632664740863472"><ele>173.0</ele><time>2026-04-21T16:13:18Z</time></trkpt><trkpt lat="43.51510475576548" lon="11.633001589062916"><ele>174.5</ele><time>2026-04-21T16:13:19Z</time></trkpt><trkpt lat="43.515107610251796" lon="11.633333816365555"><ele>176.0</ele><time>2026-04-21T16:13:20Z</time></trkpt><trkpt lat="43.51509788530814" lon="11.633653346046124"><ele>176.0</ele><time>2026-04-21T16:13:21Z</time></trkpt><trkpt lat="43.51507476008687" lon="11.633958724521168"><ele>176.0</ele><time>2026-04-21T16:13:22Z</time></trkpt><trkpt lat="43.5150461133496" lon="11.634252114361267"><ele>176.0</ele><time>2026-04-21T16:13:23Z</time></trkpt><trkpt lat="43.515006278589375" lon="11.634516607631145"><ele>180.33333333333331</ele><time>2026-04-21T16:13:24Z</time></trkpt><trkpt lat="43.514962331994695" lon="11.634795128924987"><ele>184.66666666666666</ele><time>2026-04-21T16:13:25Z</time></trkpt><trkpt lat="43.51491259615557" lon="11.63508158654743"><ele>189.0</ele><time>2026-04-21T16:13:26Z</time></trkpt><trkpt lat="43.514850913155435" lon="11.635371765829076"><ele>193.0</ele><time>2026-04-21T16:13:27Z</time></trkpt><trkpt lat="43.51477613884934" lon="11.635665981743717"><ele>197.0</ele><time>2026-04-21T16:13:28Z</time></trkpt><trkpt lat="43.51468468357247" lon="11.635955039307232"><ele>195.0</ele><time>2026-04-21T16:13:29Z</time></trkpt><trkpt lat="43.51457429632509" lon="11.636240894990145"><ele>193.0</ele><time>2026-04-21T16:13:30Z</time></trkpt><trkpt lat="43.51445492346652" lon="11.636525921339803"><ele>193.0</ele><time>2026-04-21T16:13:31Z</time></trkpt><trkpt lat="43.51433602142928" lon="11.636812895638291"><ele>193.0</ele><time>2026-04-21T16:13:32Z</time></trkpt><trkpt lat="43.514218933458096" lon="11.637105255494433"><ele>198.0</ele><time>2026-04-21T16:13:33Z</time></trkpt><trkpt lat="43.51410402683722" lon="11.637403572230482"><ele>203.0</ele><time>2026-04-21T16:13:34Z</time></trkpt><trkpt lat="43.51398903098275" lon="11.637699426400328"><ele>209.5</ele><time>2026-04-21T16:13:35Z</time></trkpt><trkpt lat="43.51386839487023" lon="11.63799547228889"><ele>216.0</ele><time>2026-04-21T16:13:36Z</time></trkpt><trkpt lat="43.5137478756671" lon="11.638288063367696"><ele>216.0</ele><time>2026-04-21T16:13:37Z</time></trkpt><trkpt lat="43.51363166061373" lon="11.638575307677598"><ele>216.0</ele><time>2026-04-21T16:13:38Z</time></trkpt><trkpt lat="43.513519607100534" lon="11.638859507427624"><ele>216.0</ele><time>2026-04-21T16:13:39Z</time></trkpt><trkpt lat="43.513417594885084" lon="11.639151131584375"><ele>216.0</ele><time>2026-04-21T16:13:40Z</time></trkpt><trkpt lat="43.51332879433014" lon="11.639454697001227"><ele>218.5</ele><time>2026-04-21T16:13:41Z</time></trkpt><trkpt lat="43.513251703120055" lon="11.639764884745249"><ele>221.0</ele><time>2026-04-21T16:13:42Z</time></trkpt><trkpt lat="43.513185579677014" lon="11.640085263076184"><ele>222.0</ele><time>2026-04-21T16:13:43Z</time></trkpt><trkpt lat="43.51312865351791" lon="11.640410111610754"><ele>223.0</ele><time>2026-04-21T16:13:44Z</time></trkpt><trkpt lat="43.5130772292558" lon="11.640740308250356"><ele>223.0</ele><time>2026-04-21T16:13:45Z</time></trkpt><trkpt lat="43.51302763028969" lon="11.641071475155627"><ele>223.0</ele><time>2026-04-21T16:13:46Z</time></trkpt><trkpt lat="43.51298141734383" lon="11.641397180737737"><ele>226.0</ele><time>2026-04-21T16:13:47Z</time></trkpt><trkpt lat="43.51293672533088" lon="11.641722917425726"><ele>229.0</ele><time>2026-04-21T16:13:48Z</time></trkpt><trkpt lat="43.51288457686562" lon="11.642051200654803"><ele>230.5</ele><time>2026-04-21T16:13:49Z</time></trkpt><trkpt lat="43.51281959040674" lon="11.642369478510473"><ele>232.0</ele><time>2026-04-21T16:13:50Z</time></trkpt><trkpt lat="43.51273749915256" lon="11.642666711736462"><ele>231.5</ele><time>2026-04-21T16:13:51Z</time></trkpt><trkpt lat="43.512639337639335" lon="11.642959708089004"><ele>231.0</ele><time>2026-04-21T16:13:52Z</time></trkpt><trkpt lat="43.5125231103139" lon="11.643242679547086"><ele>231.0</ele><time>2026-04-21T16:13:53Z</time></trkpt><trkpt lat="43.512393897058416" lon="11.643513221826701"><ele>231.0</ele><time>2026-04-21T16:13:54Z</time></trkpt><trkpt lat="43.512250626031076" lon="11.643778444472773"><ele>232.5</ele><time>2026-04-21T16:13:55Z</time></trkpt><trkpt lat="43.51210182967922" lon="11.644025804332216"><ele>234.0</ele><time>2026-04-21T16:13:56Z</time></trkpt><trkpt lat="43.511945721390724" lon="11.644262446455903"><ele>236.0</ele><time>2026-04-21T16:13:57Z</time></trkpt><trkpt lat="43.51177381244997" lon="11.644484385356165"><ele>238.0</ele><time>2026-04-21T16:13:58Z</time></trkpt><trkpt lat="43.51158808740788" lon="11.644693620440933"><ele>238.0</ele><time>2026-04-21T16:13:59Z</time></trkpt><trkpt lat="43.511388667666445" lon="11.644885084610783"><ele>238.0</ele><time>2026-04-21T16:14:00Z</time></trkpt><trkpt lat="43.511181349077475" lon="11.645054421498939"><ele>238.0</ele><time>2026-04-21T16:14:01Z</time></trkpt><trkpt lat="43.51096250985195" lon="11.645206764563158"><ele>238.0</ele><time>2026-04-21T16:14:02Z</time></trkpt><trkpt lat="43.51073833318197" lon="11.64536027514605"><ele>238.0</ele><time>2026-04-21T16:14:03Z</time></trkpt><trkpt lat="43.51051285839191" lon="11.645504296280796"><ele>238.0</ele><time>2026-04-21T16:14:04Z</time></trkpt><trkpt lat="43.51028450010375" lon="11.645658307988866"><ele>237.5</ele><time>2026-04-21T16:14:05Z</time></trkpt><trkpt lat="43.510055792358585" lon="11.645820148024308"><ele>237.0</ele><time>2026-04-21T16:14:06Z</time></trkpt><trkpt lat="43.50982646710699" lon="11.645977116423742"><ele>234.0</ele><time>2026-04-21T16:14:07Z</time></trkpt><trkpt lat="43.509595173642914" lon="11.646140516255747"><ele>231.0</ele><time>2026-04-21T16:14:08Z</time></trkpt><trkpt lat="43.509367316499194" lon="11.646302144845295"><ele>225.0</ele><time>2026-04-21T16:14:09Z</time></trkpt><trkpt lat="43.50913495890626" lon="11.646469725455514"><ele>219.0</ele><time>2026-04-21T16:14:10Z</time></trkpt><trkpt lat="43.508901505256205" lon="11.64663537693182"><ele>210.0</ele><time>2026-04-21T16:14:11Z</time></trkpt><trkpt lat="43.50866457939092" lon="11.646804036223399"><ele>201.0</ele><time>2026-04-21T16:14:12Z</time></trkpt><trkpt lat="43.508427526670985" lon="11.646969765848741"><ele>192.5</ele><time>2026-04-21T16:14:13Z</time></trkpt><trkpt lat="43.50819327903991" lon="11.647131400506748"><ele>184.0</ele><time>2026-04-21T16:14:14Z</time></trkpt><trkpt lat="43.50795890589465" lon="11.647293360385968"><ele>184.5</ele><time>2026-04-21T16:14:15Z</time></trkpt><trkpt lat="43.50772253622881" lon="11.647458873248457"><ele>185.0</ele><time>2026-04-21T16:14:16Z</time></trkpt><trkpt lat="43.50748899915072" lon="11.647623890428108"><ele>185.0</ele><time>2026-04-21T16:14:17Z</time></trkpt><trkpt lat="43.50725608765621" lon="11.647788566085085"><ele>185.0</ele><time>2026-04-21T16:14:18Z</time></trkpt><trkpt lat="43.50702281403918" lon="11.647952382511132"><ele>197.0</ele><time>2026-04-21T16:14:19Z</time></trkpt><trkpt lat="43.50678918721346" lon="11.648117208759507"><ele>209.0</ele><time>2026-04-21T16:14:20Z</time></trkpt><trkpt lat="43.50655433156464" lon="11.648278891675341"><ele>209.0</ele><time>2026-04-21T16:14:21Z</time></trkpt><trkpt lat="43.50632038153477" lon="11.648441314037518"><ele>209.0</ele><time>2026-04-21T16:14:22Z</time></trkpt><trkpt lat="43.50608668638301" lon="11.648602943919613"><ele>216.5</ele><time>2026-04-21T16:14:23Z</time></trkpt><trkpt lat="43.5058551925705" lon="11.648764988849917"><ele>224.0</ele><time>2026-04-21T16:14:24Z</time></trkpt><trkpt lat="43.50562187788859" lon="11.648933241524958"><ele>230.0</ele><time>2026-04-21T16:14:25Z</time></trkpt><trkpt lat="43.505391172347245" lon="11.649101305774037"><ele>236.0</ele><time>2026-04-21T16:14:26Z</time></trkpt><trkpt lat="43.50516448757814" lon="11.649274384970342"><ele>232.5</ele><time>2026-04-21T16:14:27Z</time></trkpt><trkpt lat="43.50494325606222" lon="11.649462500605118"><ele>229.0</ele><time>2026-04-21T16:14:28Z</time></trkpt><trkpt lat="43.504727474099724" lon="11.649659186272983"><ele>232.0</ele><time>2026-04-21T16:14:29Z</time></trkpt><trkpt lat="43.50451930677883" lon="11.649862568978264"><ele>235.0</ele><time>2026-04-21T16:14:30Z</time></trkpt><trkpt lat="43.5043167743156" lon="11.65007876550714"><ele>233.5</ele><time>2026-04-21T16:14:31Z</time></trkpt><trkpt lat="43.504117473603415" lon="11.650306168202551"><ele>232.0</ele><time>2026-04-21T16:14:32Z</time></trkpt><trkpt lat="43.50392404875615" lon="11.650543816016045"><ele>235.0</ele><time>2026-04-21T16:14:33Z</time></trkpt><trkpt lat="43.503736595279356" lon="11.650798897152425"><ele>238.0</ele><time>2026-04-21T16:14:34Z</time></trkpt><trkpt lat="43.503556890309206" lon="11.651034801659328"><ele>237.5</ele><time>2026-04-21T16:14:35Z</time></trkpt><trkpt lat="43.50337805431699" lon="11.65129217218066"><ele>237.0</ele><time>2026-04-21T16:14:36Z</time></trkpt><trkpt lat="43.50320813282752" lon="11.651560035900436"><ele>237.0</ele><time>2026-04-21T16:14:37Z</time></trkpt><trkpt lat="43.50304695561262" lon="11.651840688117074"><ele>237.0</ele><time>2026-04-21T16:14:38Z</time></trkpt><trkpt lat="43.50289111566483" lon="11.65213220685467"><ele>239.0</ele><time>2026-04-21T16:14:39Z</time></trkpt><trkpt lat="43.50273524675762" lon="11.65242313503611"><ele>241.0</ele><time>2026-04-21T16:14:40Z</time></trkpt><trkpt lat="43.5025796789896" lon="11.652716427892004"><ele>241.5</ele><time>2026-04-21T16:14:41Z</time></trkpt><trkpt lat="43.502423004400576" lon="11.65300979210356"><ele>242.0</ele><time>2026-04-21T16:14:42Z</time></trkpt><trkpt lat="43.50226361946684" lon="11.653303162845399"><ele>242.0</ele><time>2026-04-21T16:14:43Z</time></trkpt><trkpt lat="43.50210354725195" lon="11.65359735881056"><ele>242.0</ele><time>2026-04-21T16:14:44Z</time></trkpt><trkpt lat="43.501943373583664" lon="11.653888668592991"><ele>237.0</ele><time>2026-04-21T16:14:45Z</time></trkpt><trkpt lat="43.50178716252129" lon="11.654176575665998"><ele>232.0</ele><time>2026-04-21T16:14:46Z</time></trkpt><trkpt lat="43.50162861601722" lon="11.65447347946044"><ele>229.0</ele><time>2026-04-21T16:14:47Z</time></trkpt><trkpt lat="43.501468871712625" lon="11.654766969245216"><ele>226.0</ele><time>2026-04-21T16:14:48Z</time></trkpt><trkpt lat="43.50130820511995" lon="11.655063386198563"><ele>234.0</ele><time>2026-04-21T16:14:49Z</time></trkpt><trkpt lat="43.50114681389676" lon="11.655361316198832"><ele>242.0</ele><time>2026-04-21T16:14:50Z</time></trkpt><trkpt lat="43.500987784103835" lon="11.655661450967601"><ele>242.0</ele><time>2026-04-21T16:14:51Z</time></trkpt><trkpt lat="43.50083224127424" lon="11.655965999392192"><ele>242.0</ele><time>2026-04-21T16:14:52Z</time></trkpt><trkpt lat="43.500681993191996" lon="11.656275187029651"><ele>239.5</ele><time>2026-04-21T16:14:53Z</time></trkpt><trkpt lat="43.50053649991926" lon="11.656587532194937"><ele>237.0</ele><time>2026-04-21T16:14:54Z</time></trkpt><trkpt lat="43.50039338599518" lon="11.65689892169707"><ele>242.5</ele><time>2026-04-21T16:14:55Z</time></trkpt><trkpt lat="43.50025378472868" lon="11.657212286044706"><ele>248.0</ele><time>2026-04-21T16:14:56Z</time></trkpt><trkpt lat="43.500116919352195" lon="11.657527402963035"><ele>246.5</ele><time>2026-04-21T16:14:57Z</time></trkpt><trkpt lat="43.499982601354134" lon="11.65784121753212"><ele>245.0</ele><time>2026-04-21T16:14:58Z</time></trkpt><trkpt lat="43.49985007101544" lon="11.658156943669686"><ele>245.0</ele><time>2026-04-21T16:14:59Z</time></trkpt><trkpt lat="43.49972196868983" lon="11.658472977455487"><ele>245.0</ele><time>2026-04-21T16:15:00Z</time></trkpt><trkpt lat="43.49959926226841" lon="11.658792148950749"><ele>245.0</ele><time>2026-04-21T16:15:01Z</time></trkpt><trkpt lat="43.49948017578317" lon="11.65911302794959"><ele>245.0</ele><time>2026-04-21T16:15:02Z</time></trkpt><trkpt lat="43.49936526525402" lon="11.659431564212762"><ele>244.0</ele><time>2026-04-21T16:15:03Z</time></trkpt><trkpt lat="43.49924865128987" lon="11.659736177931617"><ele>243.0</ele><time>2026-04-21T16:15:04Z</time></trkpt><trkpt lat="43.49913250201962" lon="11.660033829697708"><ele>244.0</ele><time>2026-04-21T16:15:05Z</time></trkpt><trkpt lat="43.49902216002378" lon="11.66039993001335"><ele>245.0</ele><time>2026-04-21T16:15:06Z</time></trkpt><trkpt lat="43.498905314141915" lon="11.660707191037297"><ele>245.0</ele><time>2026-04-21T16:15:07Z</time></trkpt><trkpt lat="43.49878472714997" lon="11.661032608341802"><ele>245.0</ele><time>2026-04-21T16:15:08Z</time></trkpt><trkpt lat="43.49866539470546" lon="11.661360582144095"><ele>244.0</ele><time>2026-04-21T16:15:09Z</time></trkpt><trkpt lat="43.49854542643039" lon="11.661689242994486"><ele>243.0</ele><time>2026-04-21T16:15:10Z</time></trkpt><trkpt lat="43.49842702964102" lon="11.66201362230606"><ele>240.5</ele><time>2026-04-21T16:15:11Z</time></trkpt><trkpt lat="43.49830380816719" lon="11.662341096017968"><ele>238.0</ele><time>2026-04-21T16:15:12Z</time></trkpt><trkpt lat="43.498178615109715" lon="11.662661489927578"><ele>240.0</ele><time>2026-04-21T16:15:13Z</time></trkpt><trkpt lat="43.49804202033821" lon="11.66297675150078"><ele>242.0</ele><time>2026-04-21T16:15:14Z</time></trkpt><trkpt lat="43.49790039856344" lon="11.663298231750241"><ele>242.0</ele><time>2026-04-21T16:15:15Z</time></trkpt><trkpt lat="43.497742013204245" lon="11.663601316467112"><ele>242.0</ele><time>2026-04-21T16:15:16Z</time></trkpt><trkpt lat="43.49757624503767" lon="11.663897035029143"><ele>243.5</ele><time>2026-04-21T16:15:17Z</time></trkpt><trkpt lat="43.49741279725162" lon="11.664192081449421"><ele>245.0</ele><time>2026-04-21T16:15:18Z</time></trkpt><trkpt lat="43.49724363937766" lon="11.664480906925073"><ele>245.0</ele><time>2026-04-21T16:15:19Z</time></trkpt><trkpt lat="43.49706456466545" lon="11.664763267130494"><ele>245.0</ele><time>2026-04-21T16:15:20Z</time></trkpt><trkpt lat="43.49688251111588" lon="11.665039384852891"><ele>243.5</ele><time>2026-04-21T16:15:21Z</time></trkpt><trkpt lat="43.49668977474705" lon="11.665302866318022"><ele>242.0</ele><time>2026-04-21T16:15:22Z</time></trkpt><trkpt lat="43.496490345675554" lon="11.665560995630726"><ele>242.0</ele><time>2026-04-21T16:15:23Z</time></trkpt><trkpt lat="43.4962829116122" lon="11.66580255354197"><ele>242.0</ele><time>2026-04-21T16:15:24Z</time></trkpt><trkpt lat="43.496074618412145" lon="11.666050173103097"><ele>237.5</ele><time>2026-04-21T16:15:25Z</time></trkpt><trkpt lat="43.49586616950443" lon="11.666284271885962"><ele>233.0</ele><time>2026-04-21T16:15:26Z</time></trkpt><trkpt lat="43.49565053315279" lon="11.66650129247061"><ele>233.0</ele><time>2026-04-21T16:15:27Z</time></trkpt><trkpt lat="43.495436954953654" lon="11.666713887824926"><ele>233.0</ele><time>2026-04-21T16:15:28Z</time></trkpt><trkpt lat="43.495221598396775" lon="11.666923658166203"><ele>233.0</ele><time>2026-04-21T16:15:29Z</time></trkpt><trkpt lat="43.49501107786764" lon="11.667137312493285"><ele>233.0</ele><time>2026-04-21T16:15:30Z</time></trkpt><trkpt lat="43.49479455190695" lon="11.667350598979699"><ele>233.0</ele><time>2026-04-21T16:15:31Z</time></trkpt><trkpt lat="43.4945905503307" lon="11.66756724167658"><ele>233.0</ele><time>2026-04-21T16:15:32Z</time></trkpt><trkpt lat="43.4943827788205" lon="11.66778245368551"><ele>234.0</ele><time>2026-04-21T16:15:33Z</time></trkpt><trkpt lat="43.49417563449146" lon="11.66800205091549"><ele>235.0</ele><time>2026-04-21T16:15:34Z</time></trkpt><trkpt lat="43.493973080301785" lon="11.668221789684052"><ele>235.0</ele><time>2026-04-21T16:15:35Z</time></trkpt><trkpt lat="43.49376660568018" lon="11.668449632046103"><ele>235.0</ele><time>2026-04-21T16:15:36Z</time></trkpt><trkpt lat="43.49356694904516" lon="11.668692848999713"><ele>237.0</ele><time>2026-04-21T16:15:37Z</time></trkpt><trkpt lat="43.49339321614652" lon="11.668952209121134"><ele>239.0</ele><time>2026-04-21T16:15:38Z</time></trkpt><trkpt lat="43.49321383990431" lon="11.669220491007959"><ele>241.0</ele><time>2026-04-21T16:15:39Z</time></trkpt><trkpt lat="43.49303935426333" lon="11.669491142614085"><ele>243.0</ele><time>2026-04-21T16:15:40Z</time></trkpt><trkpt lat="43.49288923775196" lon="11.669750546787215"><ele>244.0</ele><time>2026-04-21T16:15:41Z</time></trkpt><trkpt lat="43.49272878738118" lon="11.670022843659028"><ele>245.0</ele><time>2026-04-21T16:15:42Z</time></trkpt><trkpt lat="43.49259052230647" lon="11.670280937591723"><ele>245.0</ele><time>2026-04-21T16:15:43Z</time></trkpt><trkpt lat="43.49245113741339" lon="11.670554740237215"><ele>245.0</ele><time>2026-04-21T16:15:44Z</time></trkpt><trkpt lat="43.492309499377434" lon="11.67084686399839"><ele>242.0</ele><time>2026-04-21T16:15:45Z</time></trkpt><trkpt lat="43.49217798676445" lon="11.67114304463064"><ele>239.0</ele><time>2026-04-21T16:15:46Z</time></trkpt><trkpt lat="43.49205672119725" lon="11.671448759625966"><ele>239.0</ele><time>2026-04-21T16:15:47Z</time></trkpt><trkpt lat="43.49193775748133" lon="11.67176343561746"><ele>239.0</ele><time>2026-04-21T16:15:48Z</time></trkpt><trkpt lat="43.491824660355036" lon="11.672085736832498"><ele>241.0</ele><time>2026-04-21T16:15:49Z</time></trkpt><trkpt lat="43.49171845492872" lon="11.672416180787733"><ele>243.0</ele><time>2026-04-21T16:15:50Z</time></trkpt><trkpt lat="43.491621031135345" lon="11.672748891417474"><ele>244.5</ele><time>2026-04-21T16:15:51Z</time></trkpt><trkpt lat="43.49153203482505" lon="11.673089384304557"><ele>246.0</ele><time>2026-04-21T16:15:52Z</time></trkpt><trkpt lat="43.49144951322686" lon="11.673432956451649"><ele>246.0</ele><time>2026-04-21T16:15:53Z</time></trkpt><trkpt lat="43.49137475919463" lon="11.673778451382892"><ele>246.0</ele><time>2026-04-21T16:15:54Z</time></trkpt><trkpt lat="43.49130398799779" lon="11.674125181135402"><ele>245.0</ele><time>2026-04-21T16:15:55Z</time></trkpt><trkpt lat="43.491236385035165" lon="11.674469453757093"><ele>244.0</ele><time>2026-04-21T16:15:56Z</time></trkpt><trkpt lat="43.491165430024814" lon="11.674813071951002"><ele>244.0</ele><time>2026-04-21T16:15:57Z</time></trkpt><trkpt lat="43.491095064301184" lon="11.675160368033106"><ele>244.0</ele><time>2026-04-21T16:15:58Z</time></trkpt><trkpt lat="43.4910210089977" lon="11.67550986437608"><ele>240.5</ele><time>2026-04-21T16:15:59Z</time></trkpt><trkpt lat="43.49094318365528" lon="11.67585581103806"><ele>237.0</ele><time>2026-04-21T16:16:00Z</time></trkpt><trkpt lat="43.49086669314364" lon="11.676199677789699"><ele>231.0</ele><time>2026-04-21T16:16:01Z</time></trkpt><trkpt lat="43.49079225198773" lon="11.67654982972088"><ele>225.0</ele><time>2026-04-21T16:16:02Z</time></trkpt><trkpt lat="43.49071791564695" lon="11.67689845572531"><ele>227.5</ele><time>2026-04-21T16:16:03Z</time></trkpt><trkpt lat="43.49064689647679" lon="11.677248000800322"><ele>230.0</ele><time>2026-04-21T16:16:04Z</time></trkpt><trkpt lat="43.49057337981951" lon="11.677597685556945"><ele>234.5</ele><time>2026-04-21T16:16:05Z</time></trkpt><trkpt lat="43.49050082363104" lon="11.677947174382439"><ele>239.0</ele><time>2026-04-21T16:16:06Z</time></trkpt><trkpt lat="43.49043184733815" lon="11.678288788149583"><ele>237.0</ele><time>2026-04-21T16:16:07Z</time></trkpt><trkpt lat="43.490361964650475" lon="11.678633009037577"><ele>235.0</ele><time>2026-04-21T16:16:08Z</time></trkpt><trkpt lat="43.4902914819325" lon="11.678984749019309"><ele>235.0</ele><time>2026-04-21T16:16:09Z</time></trkpt><trkpt lat="43.490221881481844" lon="11.679332359055177"><ele>235.0</ele><time>2026-04-21T16:16:10Z</time></trkpt><trkpt lat="43.49015136692734" lon="11.67968210234537"><ele>237.5</ele><time>2026-04-21T16:16:11Z</time></trkpt><trkpt lat="43.49008028080206" lon="11.68002941999553"><ele>240.0</ele><time>2026-04-21T16:16:12Z</time></trkpt><trkpt lat="43.49000675808707" lon="11.680380391543162"><ele>242.5</ele><time>2026-04-21T16:16:13Z</time></trkpt><trkpt lat="43.48993905918803" lon="11.68073460212829"><ele>245.0</ele><time>2026-04-21T16:16:14Z</time></trkpt><trkpt lat="43.48986585786647" lon="11.68108845979404"><ele>249.0</ele><time>2026-04-21T16:16:15Z</time></trkpt><trkpt lat="43.48979224251581" lon="11.681443509583676"><ele>253.0</ele><time>2026-04-21T16:16:16Z</time></trkpt><trkpt lat="43.48971612992837" lon="11.681793041977603"><ele>253.0</ele><time>2026-04-21T16:16:17Z</time></trkpt><trkpt lat="43.489642907262464" lon="11.682156138249246"><ele>253.0</ele><time>2026-04-21T16:16:18Z</time></trkpt><trkpt lat="43.48956923320212" lon="11.68251410965071"><ele>251.0</ele><time>2026-04-21T16:16:19Z</time></trkpt><trkpt lat="43.489494825771644" lon="11.682876767045938"><ele>249.0</ele><time>2026-04-21T16:16:20Z</time></trkpt><trkpt lat="43.489420151107296" lon="11.68323762396881"><ele>248.5</ele><time>2026-04-21T16:16:21Z</time></trkpt><trkpt lat="43.4893466384336" lon="11.683603588308431"><ele>248.0</ele><time>2026-04-21T16:16:22Z</time></trkpt><trkpt lat="43.48927494530516" lon="11.683953672285098"><ele>248.0</ele><time>2026-04-21T16:16:23Z</time></trkpt><trkpt lat="43.48919561135321" lon="11.684301431700588"><ele>248.0</ele><time>2026-04-21T16:16:24Z</time></trkpt><trkpt lat="43.48913122041942" lon="11.684657629458485"><ele>247.5</ele><time>2026-04-21T16:16:25Z</time></trkpt><trkpt lat="43.4890563242827" lon="11.685009264754765"><ele>247.0</ele><time>2026-04-21T16:16:26Z</time></trkpt><trkpt lat="43.4889797656684" lon="11.685363629800664"><ele>247.0</ele><time>2026-04-21T16:16:27Z</time></trkpt><trkpt lat="43.48890468891146" lon="11.685717492158453"><ele>247.0</ele><time>2026-04-21T16:16:28Z</time></trkpt><trkpt lat="43.488830100890404" lon="11.686075228349443"><ele>248.5</ele><time>2026-04-21T16:16:29Z</time></trkpt><trkpt lat="43.48875828878753" lon="11.686427745719925"><ele>250.0</ele><time>2026-04-21T16:16:30Z</time></trkpt><trkpt lat="43.48868610697043" lon="11.68678626539469"><ele>250.0</ele><time>2026-04-21T16:16:31Z</time></trkpt><trkpt lat="43.488613579620534" lon="11.687140734576198"><ele>250.0</ele><time>2026-04-21T16:16:32Z</time></trkpt><trkpt lat="43.48854250645163" lon="11.687497321921946"><ele>250.5</ele><time>2026-04-21T16:16:33Z</time></trkpt><trkpt lat="43.488469072914214" lon="11.687852356541901"><ele>251.0</ele><time>2026-04-21T16:16:34Z</time></trkpt><trkpt lat="43.488395299325454" lon="11.688206319172485"><ele>251.0</ele><time>2026-04-21T16:16:35Z</time></trkpt><trkpt lat="43.48832022816857" lon="11.68856124107228"><ele>251.0</ele><time>2026-04-21T16:16:36Z</time></trkpt><trkpt lat="43.48824780218763" lon="11.688916876309591"><ele>250.5</ele><time>2026-04-21T16:16:37Z</time></trkpt><trkpt lat="43.48817381996152" lon="11.689274812456343"><ele>250.0</ele><time>2026-04-21T16:16:38Z</time></trkpt><trkpt lat="43.48809864204855" lon="11.689633954727666"><ele>248.5</ele><time>2026-04-21T16:16:39Z</time></trkpt><trkpt lat="43.4880244012201" lon="11.689994502332386"><ele>247.0</ele><time>2026-04-21T16:16:40Z</time></trkpt><trkpt lat="43.4879459752099" lon="11.690359694834985"><ele>247.0</ele><time>2026-04-21T16:16:41Z</time></trkpt><trkpt lat="43.48787096478631" lon="11.690716323032326"><ele>247.0</ele><time>2026-04-21T16:16:42Z</time></trkpt><trkpt lat="43.487796676670484" lon="11.691082230129608"><ele>248.5</ele><time>2026-04-21T16:16:43Z</time></trkpt><trkpt lat="43.48772301682467" lon="11.691452230022694"><ele>250.0</ele><time>2026-04-21T16:16:44Z</time></trkpt><trkpt lat="43.48764818330152" lon="11.691820611670485"><ele>250.5</ele><time>2026-04-21T16:16:45Z</time></trkpt><trkpt lat="43.48757241610693" lon="11.692193188055278"><ele>251.0</ele><time>2026-04-21T16:16:46Z</time></trkpt><trkpt lat="43.487493948817" lon="11.692564419843768"><ele>250.5</ele><time>2026-04-21T16:16:47Z</time></trkpt><trkpt lat="43.48741535048129" lon="11.692934828818482"><ele>250.0</ele><time>2026-04-21T16:16:48Z</time></trkpt><trkpt lat="43.48733186167701" lon="11.693309655008813"><ele>249.5</ele><time>2026-04-21T16:16:49Z</time></trkpt><trkpt lat="43.487254979777674" lon="11.69368533262033"><ele>249.0</ele><time>2026-04-21T16:16:50Z</time></trkpt><trkpt lat="43.48717945902096" lon="11.69406042524466"><ele>248.0</ele><time>2026-04-21T16:16:51Z</time></trkpt><trkpt lat="43.4871028467782" lon="11.694436666130912"><ele>247.0</ele><time>2026-04-21T16:16:52Z</time></trkpt><trkpt lat="43.48702538140952" lon="11.69481193547605"><ele>247.0</ele><time>2026-04-21T16:16:53Z</time></trkpt><trkpt lat="43.48694742560266" lon="11.695190927732634"><ele>247.0</ele><time>2026-04-21T16:16:54Z</time></trkpt><trkpt lat="43.4868751431743" lon="11.695570135283441"><ele>246.0</ele><time>2026-04-21T16:16:55Z</time></trkpt><trkpt lat="43.48679987287953" lon="11.695946788350238"><ele>245.0</ele><time>2026-04-21T16:16:56Z</time></trkpt><trkpt lat="43.486722636558675" lon="11.696322937572212"><ele>245.0</ele><time>2026-04-21T16:16:57Z</time></trkpt><trkpt lat="43.48664334154296" lon="11.696697779592983"><ele>245.0</ele><time>2026-04-21T16:16:58Z</time></trkpt><trkpt lat="43.48656319832627" lon="11.69706881999953"><ele>245.5</ele><time>2026-04-21T16:16:59Z</time></trkpt><trkpt lat="43.486483659603174" lon="11.69744046134104"><ele>246.0</ele><time>2026-04-21T16:17:00Z</time></trkpt><trkpt lat="43.48641173997106" lon="11.697812074155697"><ele>246.0</ele><time>2026-04-21T16:17:01Z</time></trkpt><trkpt lat="43.48633539914857" lon="11.698179569232792"><ele>246.0</ele><time>2026-04-21T16:17:02Z</time></trkpt><trkpt lat="43.48626551754911" lon="11.698545561251288"><ele>245.0</ele><time>2026-04-21T16:17:03Z</time></trkpt><trkpt lat="43.48619606778446" lon="11.698916606137805"><ele>244.0</ele><time>2026-04-21T16:17:04Z</time></trkpt><trkpt lat="43.48612355535561" lon="11.699289418187918"><ele>243.0</ele><time>2026-04-21T16:17:05Z</time></trkpt><trkpt lat="43.48604736069815" lon="11.699665244799188"><ele>242.0</ele><time>2026-04-21T16:17:06Z</time></trkpt><trkpt lat="43.48596780694542" lon="11.700043375402362"><ele>244.0</ele><time>2026-04-21T16:17:07Z</time></trkpt><trkpt lat="43.485887110271555" lon="11.700419375660406"><ele>246.0</ele><time>2026-04-21T16:17:08Z</time></trkpt><trkpt lat="43.48580347137026" lon="11.700796853435017"><ele>246.0</ele><time>2026-04-21T16:17:09Z</time></trkpt><trkpt lat="43.485716867562374" lon="11.701167983146066"><ele>246.0</ele><time>2026-04-21T16:17:10Z</time></trkpt><trkpt lat="43.48563123718497" lon="11.701543887521211"><ele>246.0</ele><time>2026-04-21T16:17:11Z</time></trkpt><trkpt lat="43.48554278974505" lon="11.701913766004367"><ele>246.0</ele><time>2026-04-21T16:17:12Z</time></trkpt><trkpt lat="43.48545466759388" lon="11.70228824728214"><ele>244.5</ele><time>2026-04-21T16:17:13Z</time></trkpt><trkpt lat="43.48536783713094" lon="11.70266500211334"><ele>243.0</ele><time>2026-04-21T16:17:14Z</time></trkpt><trkpt lat="43.4852831063958" lon="11.703039528695665"><ele>243.0</ele><time>2026-04-21T16:17:15Z</time></trkpt><trkpt lat="43.48519834576702" lon="11.703414106731014"><ele>243.0</ele><time>2026-04-21T16:17:16Z</time></trkpt><trkpt lat="43.485113989074634" lon="11.703791434426474"><ele>246.5</ele><time>2026-04-21T16:17:17Z</time></trkpt><trkpt lat="43.48503369997373" lon="11.704164396890695"><ele>250.0</ele><time>2026-04-21T16:17:18Z</time></trkpt><trkpt lat="43.48495422811338" lon="11.704534966462683"><ele>250.5</ele><time>2026-04-21T16:17:19Z</time></trkpt><trkpt lat="43.48487245151048" lon="11.704903863896213"><ele>251.0</ele><time>2026-04-21T16:17:20Z</time></trkpt><trkpt lat="43.48478942340616" lon="11.705273166666895"><ele>251.0</ele><time>2026-04-21T16:17:21Z</time></trkpt><trkpt lat="43.484704351825854" lon="11.705644805013378"><ele>251.0</ele><time>2026-04-21T16:17:22Z</time></trkpt><trkpt lat="43.484619813157344" lon="11.706014398187824"><ele>253.0</ele><time>2026-04-21T16:17:23Z</time></trkpt><trkpt lat="43.484533201187844" lon="11.706387927267752"><ele>255.0</ele><time>2026-04-21T16:17:24Z</time></trkpt><trkpt lat="43.4844470941508" lon="11.706761350191513"><ele>252.5</ele><time>2026-04-21T16:17:25Z</time></trkpt><trkpt lat="43.48436093969108" lon="11.707137160789635"><ele>250.0</ele><time>2026-04-21T16:17:26Z</time></trkpt><trkpt lat="43.48427449971583" lon="11.707513510365409"><ele>246.5</ele><time>2026-04-21T16:17:27Z</time></trkpt><trkpt lat="43.48418987679722" lon="11.707884965336511"><ele>243.0</ele><time>2026-04-21T16:17:28Z</time></trkpt><trkpt lat="43.484107061016196" lon="11.708258058891797"><ele>241.0</ele><time>2026-04-21T16:17:29Z</time></trkpt><trkpt lat="43.48402916101991" lon="11.708624102338186"><ele>239.0</ele><time>2026-04-21T16:17:30Z</time></trkpt><trkpt lat="43.48395652060309" lon="11.708984377457137"><ele>239.0</ele><time>2026-04-21T16:17:31Z</time></trkpt><trkpt lat="43.48389345534836" lon="11.709344426348332"><ele>239.0</ele><time>2026-04-21T16:17:32Z</time></trkpt><trkpt lat="43.483841693557395" lon="11.709708236032618"><ele>243.0</ele><time>2026-04-21T16:17:33Z</time></trkpt><trkpt lat="43.48379944068495" lon="11.710071463799789"><ele>247.0</ele><time>2026-04-21T16:17:34Z</time></trkpt><trkpt lat="43.48376215886412" lon="11.710433507200692"><ele>248.0</ele><time>2026-04-21T16:17:35Z</time></trkpt><trkpt lat="43.48373321224005" lon="11.710795657221187"><ele>249.0</ele><time>2026-04-21T16:17:36Z</time></trkpt><trkpt lat="43.48371191333418" lon="11.711158636304642"><ele>249.0</ele><time>2026-04-21T16:17:37Z</time></trkpt><trkpt lat="43.48369916766912" lon="11.711520852909924"><ele>249.0</ele><time>2026-04-21T16:17:38Z</time></trkpt><trkpt lat="43.48369288180429" lon="11.711888132669593"><ele>250.5</ele><time>2026-04-21T16:17:39Z</time></trkpt><trkpt lat="43.48369441931822" lon="11.712249445332318"><ele>252.0</ele><time>2026-04-21T16:17:40Z</time></trkpt><trkpt lat="43.483707080940476" lon="11.712617573394446"><ele>249.0</ele><time>2026-04-21T16:17:41Z</time></trkpt><trkpt lat="43.483724087540224" lon="11.712983326899117"><ele>246.0</ele><time>2026-04-21T16:17:42Z</time></trkpt><trkpt lat="43.48374576580884" lon="11.713349332843958"><ele>238.5</ele><time>2026-04-21T16:17:43Z</time></trkpt><trkpt lat="43.4837743979159" lon="11.713713898037737"><ele>231.0</ele><time>2026-04-21T16:17:44Z</time></trkpt><trkpt lat="43.48380183679008" lon="11.714076873130837"><ele>236.0</ele><time>2026-04-21T16:17:45Z</time></trkpt><trkpt lat="43.4838251451779" lon="11.71443555158029"><ele>241.0</ele><time>2026-04-21T16:17:46Z</time></trkpt><trkpt lat="43.483847884932786" lon="11.714794188270895"><ele>241.0</ele><time>2026-04-21T16:17:47Z</time></trkpt><trkpt lat="43.48387510103993" lon="11.715150189007977"><ele>241.0</ele><time>2026-04-21T16:17:48Z</time></trkpt><trkpt lat="43.483899688537164" lon="11.715492196027101"><ele>246.0</ele><time>2026-04-21T16:17:49Z</time></trkpt><trkpt lat="43.483925441889745" lon="11.715846749148568"><ele>251.0</ele><time>2026-04-21T16:17:50Z</time></trkpt><trkpt lat="43.483952189772666" lon="11.716199549284331"><ele>253.0</ele><time>2026-04-21T16:17:51Z</time></trkpt><trkpt lat="43.48397792085146" lon="11.716549599389795"><ele>255.0</ele><time>2026-04-21T16:17:52Z</time></trkpt><trkpt lat="43.48400458347087" lon="11.716905244160094"><ele>255.5</ele><time>2026-04-21T16:17:53Z</time></trkpt><trkpt lat="43.48402970535242" lon="11.71725748164457"><ele>256.0</ele><time>2026-04-21T16:17:54Z</time></trkpt><trkpt lat="43.484053234948185" lon="11.717606467226906"><ele>257.5</ele><time>2026-04-21T16:17:55Z</time></trkpt><trkpt lat="43.48407222849477" lon="11.7179519479631"><ele>259.0</ele><time>2026-04-21T16:17:56Z</time></trkpt><trkpt lat="43.48407859542826" lon="11.718295879092572"><ele>257.0</ele><time>2026-04-21T16:17:57Z</time></trkpt><trkpt lat="43.484069969272944" lon="11.718640695930164"><ele>255.0</ele><time>2026-04-21T16:17:58Z</time></trkpt><trkpt lat="43.48404721880498" lon="11.718982241425064"><ele>255.0</ele><time>2026-04-21T16:17:59Z</time></trkpt><trkpt lat="43.48400789567939" lon="11.719323364334212"><ele>255.0</ele><time>2026-04-21T16:18:00Z</time></trkpt><trkpt lat="43.48395374428717" lon="11.719661286705021"><ele>253.0</ele><time>2026-04-21T16:18:01Z</time></trkpt><trkpt lat="43.48388252281127" lon="11.719997828147536"><ele>251.0</ele><time>2026-04-21T16:18:02Z</time></trkpt><trkpt lat="43.48379730225493" lon="11.720332465954629"><ele>252.0</ele><time>2026-04-21T16:18:03Z</time></trkpt><trkpt lat="43.48369848701731" lon="11.720656596208643"><ele>253.0</ele><time>2026-04-21T16:18:04Z</time></trkpt><trkpt lat="43.48359044997504" lon="11.720972905828349"><ele>254.0</ele><time>2026-04-21T16:18:05Z</time></trkpt><trkpt lat="43.483472791599915" lon="11.721281170768078"><ele>255.0</ele><time>2026-04-21T16:18:06Z</time></trkpt><trkpt lat="43.48334839095614" lon="11.721586313773102"><ele>255.0</ele><time>2026-04-21T16:18:07Z</time></trkpt><trkpt lat="43.483221617002634" lon="11.721891057881237"><ele>255.0</ele><time>2026-04-21T16:18:08Z</time></trkpt><trkpt lat="43.48310416006872" lon="11.722195676054433"><ele>256.0</ele><time>2026-04-21T16:18:09Z</time></trkpt><trkpt lat="43.482986858589925" lon="11.722500503319338"><ele>257.0</ele><time>2026-04-21T16:18:10Z</time></trkpt><trkpt lat="43.482864196524346" lon="11.722809134733001"><ele>259.0</ele><time>2026-04-21T16:18:11Z</time></trkpt><trkpt lat="43.48273795095241" lon="11.723109540619044"><ele>261.0</ele><time>2026-04-21T16:18:12Z</time></trkpt><trkpt lat="43.48261213267457" lon="11.723407275260886"><ele>262.0</ele><time>2026-04-21T16:18:13Z</time></trkpt><trkpt lat="43.48249079156687" lon="11.723697495625386"><ele>263.0</ele><time>2026-04-21T16:18:14Z</time></trkpt><trkpt lat="43.48237260034777" lon="11.723993575342593"><ele>263.0</ele><time>2026-04-21T16:18:15Z</time></trkpt><trkpt lat="43.48225674348357" lon="11.72429803666303"><ele>263.0</ele><time>2026-04-21T16:18:16Z</time></trkpt><trkpt lat="43.48214023204752" lon="11.724608084348615"><ele>260.5</ele><time>2026-04-21T16:18:17Z</time></trkpt><trkpt lat="43.48201662834423" lon="11.724897867228268"><ele>258.0</ele><time>2026-04-21T16:18:18Z</time></trkpt><trkpt lat="43.48189882815243" lon="11.725203796639898"><ele>258.5</ele><time>2026-04-21T16:18:19Z</time></trkpt><trkpt lat="43.481782023376695" lon="11.725509121732221"><ele>259.0</ele><time>2026-04-21T16:18:20Z</time></trkpt><trkpt lat="43.48166456402684" lon="11.725824282858909"><ele>259.0</ele><time>2026-04-21T16:18:21Z</time></trkpt><trkpt lat="43.48154617827373" lon="11.726144235505968"><ele>259.0</ele><time>2026-04-21T16:18:22Z</time></trkpt><trkpt lat="43.48142865775697" lon="11.726459332619772"><ele>259.0</ele><time>2026-04-21T16:18:23Z</time></trkpt><trkpt lat="43.48130617789577" lon="11.726782864686491"><ele>259.0</ele><time>2026-04-21T16:18:24Z</time></trkpt><trkpt lat="43.48117906354216" lon="11.727099521873713"><ele>263.5</ele><time>2026-04-21T16:18:25Z</time></trkpt><trkpt lat="43.481057873839" lon="11.72742418310726"><ele>268.0</ele><time>2026-04-21T16:18:26Z</time></trkpt><trkpt lat="43.480936455512975" lon="11.727755246125676"><ele>268.0</ele><time>2026-04-21T16:18:27Z</time></trkpt><trkpt lat="43.48081461667486" lon="11.728085097866655"><ele>268.0</ele><time>2026-04-21T16:18:28Z</time></trkpt><trkpt lat="43.480692096723196" lon="11.728415850390466"><ele>268.5</ele><time>2026-04-21T16:18:29Z</time></trkpt><trkpt lat="43.480569313234746" lon="11.728754407548028"><ele>269.0</ele><time>2026-04-21T16:18:30Z</time></trkpt><trkpt lat="43.480443944759514" lon="11.729087998809165"><ele>278.0</ele><time>2026-04-21T16:18:31Z</time></trkpt><trkpt lat="43.48031386978044" lon="11.729420974371275"><ele>287.0</ele><time>2026-04-21T16:18:32Z</time></trkpt><trkpt lat="43.48018711485177" lon="11.72975725785184"><ele>287.0</ele><time>2026-04-21T16:18:33Z</time></trkpt><trkpt lat="43.48005321860299" lon="11.730096199737915"><ele>287.0</ele><time>2026-04-21T16:18:34Z</time></trkpt><trkpt lat="43.479923237393876" lon="11.730424057493549"><ele>282.0</ele><time>2026-04-21T16:18:35Z</time></trkpt><trkpt lat="43.479798158030334" lon="11.730753442644447"><ele>277.0</ele><time>2026-04-21T16:18:36Z</time></trkpt><trkpt lat="43.4796682692339" lon="11.731084891052129"><ele>277.0</ele><time>2026-04-21T16:18:37Z</time></trkpt><trkpt lat="43.47954177822776" lon="11.731416177010917"><ele>277.0</ele><time>2026-04-21T16:18:38Z</time></trkpt><trkpt lat="43.479408539949056" lon="11.73174966759872"><ele>277.0</ele><time>2026-04-21T16:18:39Z</time></trkpt><trkpt lat="43.47927686279551" lon="11.732084665490753"><ele>277.0</ele><time>2026-04-21T16:18:40Z</time></trkpt><trkpt lat="43.47914439569012" lon="11.73242605120468"><ele>275.5</ele><time>2026-04-21T16:18:41Z</time></trkpt><trkpt lat="43.47901140499212" lon="11.73275815872716"><ele>274.0</ele><time>2026-04-21T16:18:42Z</time></trkpt><trkpt lat="43.478878329936634" lon="11.733096406294319"><ele>273.5</ele><time>2026-04-21T16:18:43Z</time></trkpt><trkpt lat="43.47874713651265" lon="11.733433035148407"><ele>273.0</ele><time>2026-04-21T16:18:44Z</time></trkpt><trkpt lat="43.47861787735121" lon="11.733764530054867"><ele>273.0</ele><time>2026-04-21T16:18:45Z</time></trkpt><trkpt lat="43.47848584583922" lon="11.734102147072772"><ele>273.0</ele><time>2026-04-21T16:18:46Z</time></trkpt><trkpt lat="43.478352733145165" lon="11.734430642538685"><ele>272.5</ele><time>2026-04-21T16:18:47Z</time></trkpt><trkpt lat="43.47820966547237" lon="11.734752316565514"><ele>272.0</ele><time>2026-04-21T16:18:48Z</time></trkpt><trkpt lat="43.47805437762148" lon="11.735059171909917"><ele>276.0</ele><time>2026-04-21T16:18:49Z</time></trkpt><trkpt lat="43.47789587723195" lon="11.735357997867176"><ele>280.0</ele><time>2026-04-21T16:18:50Z</time></trkpt><trkpt lat="43.47773057388085" lon="11.735654167597287"><ele>280.0</ele><time>2026-04-21T16:18:51Z</time></trkpt><trkpt lat="43.47756641717003" lon="11.73594670495074"><ele>280.0</ele><time>2026-04-21T16:18:52Z</time></trkpt><trkpt lat="43.47738957317082" lon="11.736227814834047"><ele>280.0</ele><time>2026-04-21T16:18:53Z</time></trkpt><trkpt lat="43.477202951473394" lon="11.73649986971505"><ele>280.0</ele><time>2026-04-21T16:18:54Z</time></trkpt><trkpt lat="43.47701529864229" lon="11.736763098464495"><ele>281.0</ele><time>2026-04-21T16:18:55Z</time></trkpt><trkpt lat="43.47682563717779" lon="11.737022169003135"><ele>282.0</ele><time>2026-04-21T16:18:56Z</time></trkpt><trkpt lat="43.47662633447556" lon="11.737280463887245"><ele>282.0</ele><time>2026-04-21T16:18:57Z</time></trkpt><trkpt lat="43.476418899946836" lon="11.737531375869208"><ele>282.0</ele><time>2026-04-21T16:18:58Z</time></trkpt><trkpt lat="43.47620858100154" lon="11.73776670718673"><ele>283.5</ele><time>2026-04-21T16:18:59Z</time></trkpt><trkpt lat="43.4759891894269" lon="11.738003541496198"><ele>285.0</ele><time>2026-04-21T16:19:00Z</time></trkpt><trkpt lat="43.47576606505161" lon="11.738232194867821"><ele>285.0</ele><time>2026-04-21T16:19:01Z</time></trkpt><trkpt lat="43.475536750792315" lon="11.73844979350958"><ele>285.0</ele><time>2026-04-21T16:19:02Z</time></trkpt><trkpt lat="43.4752993619002" lon="11.738653604313056"><ele>283.0</ele><time>2026-04-21T16:19:03Z</time></trkpt><trkpt lat="43.47505841135391" lon="11.738847627879958"><ele>281.0</ele><time>2026-04-21T16:19:04Z</time></trkpt><trkpt lat="43.47480995190936" lon="11.73903150250587"><ele>279.5</ele><time>2026-04-21T16:19:05Z</time></trkpt><trkpt lat="43.47455557892787" lon="11.73919757253103"><ele>278.0</ele><time>2026-04-21T16:19:06.001Z</time></trkpt><trkpt lat="43.47429744828693" lon="11.739355735482995"><ele>277.5</ele><time>2026-04-21T16:19:07.001Z</time></trkpt><trkpt lat="43.474042339932446" lon="11.739510113623723"><ele>277.0</ele><time>2026-04-21T16:19:08.001Z</time></trkpt><trkpt lat="43.473785658628785" lon="11.739661178745807"><ele>282.0</ele><time>2026-04-21T16:19:09.001Z</time></trkpt><trkpt lat="43.473526457460494" lon="11.739815034326606"><ele>287.0</ele><time>2026-04-21T16:19:10.001Z</time></trkpt><trkpt lat="43.47327274681414" lon="11.739971317773913"><ele>287.0</ele><time>2026-04-21T16:19:11.001Z</time></trkpt><trkpt lat="43.47301709956127" lon="11.740124551488892"><ele>287.0</ele><time>2026-04-21T16:19:12.001Z</time></trkpt><trkpt lat="43.47276244279957" lon="11.740285077744796"><ele>285.5</ele><time>2026-04-21T16:19:13.001Z</time></trkpt><trkpt lat="43.472514058794225" lon="11.740448105131106"><ele>284.0</ele><time>2026-04-21T16:19:14.001Z</time></trkpt><trkpt lat="43.472267863392105" lon="11.740620654834814"><ele>282.5</ele><time>2026-04-21T16:19:15.001Z</time></trkpt><trkpt lat="43.47202581986263" lon="11.740799606419907"><ele>281.0</ele><time>2026-04-21T16:19:16.001Z</time></trkpt><trkpt lat="43.47178451994821" lon="11.740984965437544"><ele>279.0</ele><time>2026-04-21T16:19:17.001Z</time></trkpt><trkpt lat="43.47154273152129" lon="11.741177400060465"><ele>277.0</ele><time>2026-04-21T16:19:18.001Z</time></trkpt><trkpt lat="43.47130182629351" lon="11.741376144097783"><ele>279.5</ele><time>2026-04-21T16:19:19.001Z</time></trkpt><trkpt lat="43.47106261398796" lon="11.741579480120404"><ele>282.0</ele><time>2026-04-21T16:19:20.001Z</time></trkpt><trkpt lat="43.47082515035455" lon="11.741788368341622"><ele>281.5</ele><time>2026-04-21T16:19:21.001Z</time></trkpt><trkpt lat="43.47059205887279" lon="11.742003258023722"><ele>281.0</ele><time>2026-04-21T16:19:22.001Z</time></trkpt><trkpt lat="43.47036293585812" lon="11.742224557745114"><ele>285.5</ele><time>2026-04-21T16:19:23.001Z</time></trkpt><trkpt lat="43.47013677461952" lon="11.742450459551993"><ele>290.0</ele><time>2026-04-21T16:19:24.001Z</time></trkpt><trkpt lat="43.469912969968235" lon="11.742679858693405"><ele>291.0</ele><time>2026-04-21T16:19:25.001Z</time></trkpt><trkpt lat="43.46969328592889" lon="11.742911775155322"><ele>292.0</ele><time>2026-04-21T16:19:26.001Z</time></trkpt><trkpt lat="43.4694827098075" lon="11.74315646210295"><ele>292.0</ele><time>2026-04-21T16:19:27.001Z</time></trkpt><trkpt lat="43.46926808951766" lon="11.743395980008719"><ele>292.0</ele><time>2026-04-21T16:19:28.001Z</time></trkpt><trkpt lat="43.46905127670219" lon="11.743636633193104"><ele>291.5</ele><time>2026-04-21T16:19:29.001Z</time></trkpt><trkpt lat="43.468834905796555" lon="11.743874630640182"><ele>291.0</ele><time>2026-04-21T16:19:30.001Z</time></trkpt><trkpt lat="43.46862083806943" lon="11.744110446420853"><ele>291.0</ele><time>2026-04-21T16:19:31.001Z</time></trkpt><trkpt lat="43.46841759550649" lon="11.744321746210744"><ele>291.0</ele><time>2026-04-21T16:19:32.001Z</time></trkpt><trkpt lat="43.46821981751386" lon="11.744531529619444"><ele>291.0</ele><time>2026-04-21T16:19:33.001Z</time></trkpt><trkpt lat="43.468021991952796" lon="11.744740872529416"><ele>291.0</ele><time>2026-04-21T16:19:34.001Z</time></trkpt><trkpt lat="43.467822542381384" lon="11.74495144443782"><ele>291.0</ele><time>2026-04-21T16:19:35.001Z</time></trkpt><trkpt lat="43.467619110311375" lon="11.745166496959776"><ele>291.0</ele><time>2026-04-21T16:19:36.001Z</time></trkpt><trkpt lat="43.467419963827034" lon="11.74537798235753"><ele>287.5</ele><time>2026-04-21T16:19:37.001Z</time></trkpt><trkpt lat="43.46723009213314" lon="11.745580207467238"><ele>284.0</ele><time>2026-04-21T16:19:38.001Z</time></trkpt><trkpt lat="43.467037490338654" lon="11.745791178545831"><ele>286.5</ele><time>2026-04-21T16:19:39.001Z</time></trkpt><trkpt lat="43.46684158764458" lon="11.746003285461882"><ele>289.0</ele><time>2026-04-21T16:19:40.001Z</time></trkpt><trkpt lat="43.46664662060921" lon="11.746218129093688"><ele>289.0</ele><time>2026-04-21T16:19:41.001Z</time></trkpt><trkpt lat="43.46644965498153" lon="11.74642524352445"><ele>289.0</ele><time>2026-04-21T16:19:42.001Z</time></trkpt><trkpt lat="43.46625388433009" lon="11.74663213535203"><ele>289.5</ele><time>2026-04-21T16:19:43.001Z</time></trkpt><trkpt lat="43.46605711972046" lon="11.746845188387642"><ele>290.0</ele><time>2026-04-21T16:19:44.001Z</time></trkpt><trkpt lat="43.465853508568294" lon="11.747064566664886"><ele>288.5</ele><time>2026-04-21T16:19:45.001Z</time></trkpt><trkpt lat="43.465648522527005" lon="11.747284963532357"><ele>287.0</ele><time>2026-04-21T16:19:46.001Z</time></trkpt><trkpt lat="43.4654451351714" lon="11.747501466224383"><ele>290.0</ele><time>2026-04-21T16:19:47.001Z</time></trkpt><trkpt lat="43.46524383239044" lon="11.747708446732442"><ele>293.0</ele><time>2026-04-21T16:19:48.001Z</time></trkpt><trkpt lat="43.46505149330171" lon="11.747913100709841"><ele>293.0</ele><time>2026-04-21T16:19:49.001Z</time></trkpt><trkpt lat="43.46485945245297" lon="11.748116459475527"><ele>293.0</ele><time>2026-04-21T16:19:50.001Z</time></trkpt><trkpt lat="43.464664439196795" lon="11.7483236956704"><ele>294.5</ele><time>2026-04-21T16:19:51.001Z</time></trkpt><trkpt lat="43.46446701879121" lon="11.748539947773383"><ele>296.0</ele><time>2026-04-21T16:19:52.001Z</time></trkpt><trkpt lat="43.46426624850784" lon="11.748756592870018"><ele>296.0</ele><time>2026-04-21T16:19:53.001Z</time></trkpt><trkpt lat="43.46406304650068" lon="11.74897082805514"><ele>296.0</ele><time>2026-04-21T16:19:54.001Z</time></trkpt><trkpt lat="43.463861394610916" lon="11.749185293814005"><ele>299.0</ele><time>2026-04-21T16:19:55.001Z</time></trkpt><trkpt lat="43.463664472422664" lon="11.749400186234272"><ele>302.0</ele><time>2026-04-21T16:19:56.001Z</time></trkpt><trkpt lat="43.46347392751618" lon="11.74960159344354"><ele>302.0</ele><time>2026-04-21T16:19:57.001Z</time></trkpt><trkpt lat="43.463282115768784" lon="11.749807977581929"><ele>302.0</ele><time>2026-04-21T16:19:58.001Z</time></trkpt><trkpt lat="43.46308562598188" lon="11.750015989476342"><ele>309.0</ele><time>2026-04-21T16:19:59.001Z</time></trkpt><trkpt lat="43.462889876161405" lon="11.75021971315651"><ele>316.0</ele><time>2026-04-21T16:20:00.001Z</time></trkpt><trkpt lat="43.46269387898149" lon="11.750431416288281"><ele>316.0</ele><time>2026-04-21T16:20:01.001Z</time></trkpt><trkpt lat="43.462495934051105" lon="11.75064953992971"><ele>316.0</ele><time>2026-04-21T16:20:02.001Z</time></trkpt><trkpt lat="43.462294251262584" lon="11.750862291698024"><ele>320.0</ele><time>2026-04-21T16:20:03.001Z</time></trkpt><trkpt lat="43.46208755165292" lon="11.751071562895953"><ele>324.0</ele><time>2026-04-21T16:20:04.001Z</time></trkpt><trkpt lat="43.46189080248829" lon="11.751265425756213"><ele>324.0</ele><time>2026-04-21T16:20:05.001Z</time></trkpt><trkpt lat="43.46168465955304" lon="11.751455569162996"><ele>324.0</ele><time>2026-04-21T16:20:06.001Z</time></trkpt><trkpt lat="43.461474757815914" lon="11.751634598576459"><ele>320.5</ele><time>2026-04-21T16:20:07.001Z</time></trkpt><trkpt lat="43.46126062990324" lon="11.751802943108876"><ele>317.0</ele><time>2026-04-21T16:20:08.001Z</time></trkpt><trkpt lat="43.46104360844544" lon="11.751968735023834"><ele>325.5</ele><time>2026-04-21T16:20:09.001Z</time></trkpt><trkpt lat="43.46082462122021" lon="11.752124359126606"><ele>334.0</ele><time>2026-04-21T16:20:10.001Z</time></trkpt><trkpt lat="43.460611036595225" lon="11.752274595972839"><ele>327.5</ele><time>2026-04-21T16:20:11.001Z</time></trkpt><trkpt lat="43.4604041381972" lon="11.75241258190948"><ele>321.0</ele><time>2026-04-21T16:20:12.001Z</time></trkpt><trkpt lat="43.46018912007483" lon="11.75254454511381"><ele>321.0</ele><time>2026-04-21T16:20:13.001Z</time></trkpt><trkpt lat="43.45996893988178" lon="11.752671168521427"><ele>321.0</ele><time>2026-04-21T16:20:14.001Z</time></trkpt><trkpt lat="43.459755089727956" lon="11.752784566859125"><ele>323.0</ele><time>2026-04-21T16:20:15.001Z</time></trkpt><trkpt lat="43.45953985403785" lon="11.752888488877453"><ele>325.0</ele><time>2026-04-21T16:20:16.001Z</time></trkpt><trkpt lat="43.45931515137408" lon="11.752988441914695"><ele>325.0</ele><time>2026-04-21T16:20:17.001Z</time></trkpt><trkpt lat="43.45909045870548" lon="11.753074384952596"><ele>325.0</ele><time>2026-04-21T16:20:18.001Z</time></trkpt><trkpt lat="43.45887565730041" lon="11.7531465358393"><ele>326.0</ele><time>2026-04-21T16:20:19.001Z</time></trkpt><trkpt lat="43.45865624700748" lon="11.753217473664208"><ele>327.0</ele><time>2026-04-21T16:20:20.001Z</time></trkpt><trkpt lat="43.45844853991882" lon="11.753282793849033"><ele>328.0</ele><time>2026-04-21T16:20:21.001Z</time></trkpt><trkpt lat="43.4582489964039" lon="11.7533448096058"><ele>328.0</ele><time>2026-04-21T16:20:22.001Z</time></trkpt><trkpt lat="43.45804338779577" lon="11.753410542053308"><ele>328.0</ele><time>2026-04-21T16:20:23.001Z</time></trkpt><trkpt lat="43.45782876078565" lon="11.753477774204784"><ele>328.0</ele><time>2026-04-21T16:20:24.001Z</time></trkpt><trkpt lat="43.45761155902932" lon="11.753545032526256"><ele>334.0</ele><time>2026-04-21T16:20:25.001Z</time></trkpt><trkpt lat="43.45739997731434" lon="11.753612362627532"><ele>340.0</ele><time>2026-04-21T16:20:26.001Z</time></trkpt><trkpt lat="43.45719094782956" lon="11.75367858222346"><ele>346.0</ele><time>2026-04-21T16:20:27.001Z</time></trkpt><trkpt lat="43.45697799045317" lon="11.753740609825861"><ele>346.5</ele><time>2026-04-21T16:20:28.001Z</time></trkpt><trkpt lat="43.456751817485014" lon="11.753796322403629"><ele>347.0</ele><time>2026-04-21T16:20:29.001Z</time></trkpt><trkpt lat="43.45651741061861" lon="11.753846612719084"><ele>345.0</ele><time>2026-04-21T16:20:30.001Z</time></trkpt><trkpt lat="43.45627644177289" lon="11.753894689003811"><ele>343.0</ele><time>2026-04-21T16:20:31.001Z</time></trkpt><trkpt lat="43.456039736602406" lon="11.753941999249621"><ele>343.0</ele><time>2026-04-21T16:20:32.001Z</time></trkpt><trkpt lat="43.45579502181006" lon="11.75398993760121"><ele>343.0</ele><time>2026-04-21T16:20:33.001Z</time></trkpt><trkpt lat="43.455629668573145" lon="11.754112815615667"><ele>343.0</ele><time>2026-04-21T16:20:34.001Z</time></trkpt><trkpt lat="43.45537596731198" lon="11.75421673572955"><ele>345.0</ele><time>2026-04-21T16:20:35.001Z</time></trkpt><trkpt lat="43.45511950973595" lon="11.754292730259138"><ele>347.0</ele><time>2026-04-21T16:20:36.001Z</time></trkpt><trkpt lat="43.45486864588967" lon="11.754359472465547"><ele>340.0</ele><time>2026-04-21T16:20:37.001Z</time></trkpt><trkpt lat="43.454609179482695" lon="11.754432207129966"><ele>333.0</ele><time>2026-04-21T16:20:38.001Z</time></trkpt><trkpt lat="43.454348709399376" lon="11.754504981441686"><ele>333.0</ele><time>2026-04-21T16:20:39.001Z</time></trkpt><trkpt lat="43.45408550609425" lon="11.754581679414418"><ele>333.0</ele><time>2026-04-21T16:20:40.001Z</time></trkpt><trkpt lat="43.453824632465924" lon="11.754652376139235"><ele>329.5</ele><time>2026-04-21T16:20:41.001Z</time></trkpt><trkpt lat="43.45355909952074" lon="11.754736223533847"><ele>326.0</ele><time>2026-04-21T16:20:42.001Z</time></trkpt><trkpt lat="43.45328988833196" lon="11.75482102266075"><ele>326.0</ele><time>2026-04-21T16:20:43.001Z</time></trkpt><trkpt lat="43.45302187539271" lon="11.754905392351453"><ele>326.0</ele><time>2026-04-21T16:20:44Z</time></trkpt><trkpt lat="43.45275228842502" lon="11.75498569634764"><ele>324.0</ele><time>2026-04-21T16:20:45Z</time></trkpt><trkpt lat="43.45248146185345" lon="11.75506362658605"><ele>322.0</ele><time>2026-04-21T16:20:46Z</time></trkpt><trkpt lat="43.45220599553108" lon="11.755142872725756"><ele>322.5</ele><time>2026-04-21T16:20:47Z</time></trkpt><trkpt lat="43.4519359541448" lon="11.75522089449053"><ele>323.0</ele><time>2026-04-21T16:20:48Z</time></trkpt><trkpt lat="43.45166634310531" lon="11.755298811375406"><ele>323.0</ele><time>2026-04-21T16:20:49Z</time></trkpt><trkpt lat="43.45140730249569" lon="11.75537318572425"><ele>323.0</ele><time>2026-04-21T16:20:50Z</time></trkpt><trkpt lat="43.45117240277452" lon="11.755446770554327"><ele>319.5</ele><time>2026-04-21T16:20:51Z</time></trkpt><trkpt lat="43.45094865426087" lon="11.755530866463054"><ele>316.0</ele><time>2026-04-21T16:20:52Z</time></trkpt><trkpt lat="43.450737837939066" lon="11.75564094417547"><ele>316.0</ele><time>2026-04-21T16:20:53Z</time></trkpt><trkpt lat="43.45051781057765" lon="11.755778914274305"><ele>316.0</ele><time>2026-04-21T16:20:54Z</time></trkpt><trkpt lat="43.450304018122196" lon="11.755926229829004"><ele>319.0</ele><time>2026-04-21T16:20:55Z</time></trkpt><trkpt lat="43.45010037564709" lon="11.75609375042653"><ele>322.0</ele><time>2026-04-21T16:20:56Z</time></trkpt><trkpt lat="43.449902302511234" lon="11.756282141102087"><ele>322.0</ele><time>2026-04-21T16:20:57Z</time></trkpt><trkpt lat="43.44971517896477" lon="11.756484978916404"><ele>322.0</ele><time>2026-04-21T16:20:58Z</time></trkpt><trkpt lat="43.44953613709966" lon="11.756711900044285"><ele>316.5</ele><time>2026-04-21T16:20:59Z</time></trkpt><trkpt lat="43.44936734667402" lon="11.756949785040048"><ele>311.0</ele><time>2026-04-21T16:21:00Z</time></trkpt><trkpt lat="43.44921376432853" lon="11.757205587224329"><ele>311.0</ele><time>2026-04-21T16:21:01Z</time></trkpt><trkpt lat="43.44907326573124" lon="11.757472927888807"><ele>311.0</ele><time>2026-04-21T16:21:02Z</time></trkpt><trkpt lat="43.44894354605303" lon="11.75775871975912"><ele>313.5</ele><time>2026-04-21T16:21:03Z</time></trkpt><trkpt lat="43.44882516720058" lon="11.758057663198036"><ele>316.0</ele><time>2026-04-21T16:21:04Z</time></trkpt><trkpt lat="43.44871665537049" lon="11.758364808511958"><ele>305.5</ele><time>2026-04-21T16:21:05Z</time></trkpt><trkpt lat="43.44862487666747" lon="11.758691532194156"><ele>295.0</ele><time>2026-04-21T16:21:06Z</time></trkpt><trkpt lat="43.44855086453473" lon="11.759034020959318"><ele>295.0</ele><time>2026-04-21T16:21:07Z</time></trkpt><trkpt lat="43.448488266853055" lon="11.75938458813777"><ele>295.0</ele><time>2026-04-21T16:21:08Z</time></trkpt><trkpt lat="43.44842841055736" lon="11.759746391852659"><ele>295.0</ele><time>2026-04-21T16:21:09Z</time></trkpt><trkpt lat="43.44836756846019" lon="11.760112368296367"><ele>295.0</ele><time>2026-04-21T16:21:10Z</time></trkpt><trkpt lat="43.448299180241385" lon="11.760475683300669"><ele>293.5</ele><time>2026-04-21T16:21:11Z</time></trkpt><trkpt lat="43.44823921654509" lon="11.760854505181843"><ele>292.0</ele><time>2026-04-21T16:21:12Z</time></trkpt><trkpt lat="43.448189494582124" lon="11.761241884738185"><ele>292.0</ele><time>2026-04-21T16:21:13.001Z</time></trkpt><trkpt lat="43.448120756485295" lon="11.76162224687647"><ele>292.0</ele><time>2026-04-21T16:21:14.001Z</time></trkpt><trkpt lat="43.44800648618177" lon="11.7619530711194"><ele>290.0</ele><time>2026-04-21T16:21:15.001Z</time></trkpt><trkpt lat="43.44793676958397" lon="11.762309378559749"><ele>288.0</ele><time>2026-04-21T16:21:16.001Z</time></trkpt><trkpt lat="43.44786103277308" lon="11.762664249640158"><ele>285.5</ele><time>2026-04-21T16:21:17.001Z</time></trkpt><trkpt lat="43.447780278849216" lon="11.763026890446955"><ele>283.0</ele><time>2026-04-21T16:21:18.001Z</time></trkpt><trkpt lat="43.44770117708046" lon="11.763387879356168"><ele>282.0</ele><time>2026-04-21T16:21:19.001Z</time></trkpt><trkpt lat="43.447618882504926" lon="11.763748072590735"><ele>281.0</ele><time>2026-04-21T16:21:20.001Z</time></trkpt><trkpt lat="43.44752526822388" lon="11.764108593399435"><ele>282.0</ele><time>2026-04-21T16:21:21.001Z</time></trkpt><trkpt lat="43.44742881682836" lon="11.76445625760891"><ele>283.0</ele><time>2026-04-21T16:21:22.001Z</time></trkpt><trkpt lat="43.44732054212788" lon="11.764801289203456"><ele>283.0</ele><time>2026-04-21T16:21:23.001Z</time></trkpt><trkpt lat="43.44720219715726" lon="11.765132705544026"><ele>283.0</ele><time>2026-04-21T16:21:24.001Z</time></trkpt><trkpt lat="43.44707517926946" lon="11.76546294333803"><ele>281.5</ele><time>2026-04-21T16:21:25.001Z</time></trkpt><trkpt lat="43.44694702602556" lon="11.765797816849293"><ele>280.0</ele><time>2026-04-21T16:21:26.001Z</time></trkpt><trkpt lat="43.44681007777344" lon="11.7661219787544"><ele>280.0</ele><time>2026-04-21T16:21:27.001Z</time></trkpt><trkpt lat="43.446665731043126" lon="11.766431929025744"><ele>280.0</ele><time>2026-04-21T16:21:28.001Z</time></trkpt><trkpt lat="43.44651648086557" lon="11.766737640365713"><ele>283.0</ele><time>2026-04-21T16:21:29.001Z</time></trkpt><trkpt lat="43.44636291496754" lon="11.767033752892484"><ele>286.0</ele><time>2026-04-21T16:21:30.001Z</time></trkpt><trkpt lat="43.44620345909892" lon="11.767321142788186"><ele>281.0</ele><time>2026-04-21T16:21:31.001Z</time></trkpt><trkpt lat="43.446034082401965" lon="11.767606557412341"><ele>276.0</ele><time>2026-04-21T16:21:32.001Z</time></trkpt><trkpt lat="43.445859750188944" lon="11.767886219275509"><ele>276.0</ele><time>2026-04-21T16:21:33.001Z</time></trkpt><trkpt lat="43.44568579433247" lon="11.768158391322089"><ele>276.0</ele><time>2026-04-21T16:21:34.001Z</time></trkpt><trkpt lat="43.44550083820624" lon="11.768425530184638"><ele>274.0</ele><time>2026-04-21T16:21:35.001Z</time></trkpt><trkpt lat="43.445310939943234" lon="11.768690751162392"><ele>272.0</ele><time>2026-04-21T16:21:36.001Z</time></trkpt><trkpt lat="43.44511203081345" lon="11.768946364217502"><ele>272.0</ele><time>2026-04-21T16:21:37.001Z</time></trkpt><trkpt lat="43.44492319074647" lon="11.769213763479184"><ele>272.0</ele><time>2026-04-21T16:21:38.001Z</time></trkpt><trkpt lat="43.44473770687403" lon="11.769487777133914"><ele>274.5</ele><time>2026-04-21T16:21:39.001Z</time></trkpt><trkpt lat="43.44454895154142" lon="11.76975102874211"><ele>277.0</ele><time>2026-04-21T16:21:40.001Z</time></trkpt><trkpt lat="43.44436211718034" lon="11.77001941601843"><ele>274.5</ele><time>2026-04-21T16:21:41.001Z</time></trkpt><trkpt lat="43.4441735512144" lon="11.770290465526639"><ele>272.0</ele><time>2026-04-21T16:21:42.001Z</time></trkpt><trkpt lat="43.443978903204034" lon="11.770555251364033"><ele>271.0</ele><time>2026-04-21T16:21:43.001Z</time></trkpt><trkpt lat="43.44378272393919" lon="11.770821655748309"><ele>270.0</ele><time>2026-04-21T16:21:44.001Z</time></trkpt><trkpt lat="43.44359589635823" lon="11.771084095706914"><ele>270.0</ele><time>2026-04-21T16:21:45.001Z</time></trkpt><trkpt lat="43.44340497678976" lon="11.771352447978007"><ele>270.0</ele><time>2026-04-21T16:21:46.001Z</time></trkpt><trkpt lat="43.44321254891846" lon="11.771620950133128"><ele>270.0</ele><time>2026-04-21T16:21:47.001Z</time></trkpt><trkpt lat="43.44301950165972" lon="11.77188557971452"><ele>270.0</ele><time>2026-04-21T16:21:48.001Z</time></trkpt><trkpt lat="43.44282117201473" lon="11.772148595533787"><ele>270.0</ele><time>2026-04-21T16:21:49.001Z</time></trkpt><trkpt lat="43.44261344558035" lon="11.772387298557195"><ele>270.0</ele><time>2026-04-21T16:21:50.001Z</time></trkpt><trkpt lat="43.44239958377904" lon="11.772618217328459"><ele>269.0</ele><time>2026-04-21T16:21:51.001Z</time></trkpt><trkpt lat="43.44218169314829" lon="11.772846004346206"><ele>268.0</ele><time>2026-04-21T16:21:52.001Z</time></trkpt><trkpt lat="43.44195886653436" lon="11.773058587252903"><ele>268.0</ele><time>2026-04-21T16:21:53.001Z</time></trkpt><trkpt lat="43.44173225368547" lon="11.773262996395605"><ele>268.0</ele><time>2026-04-21T16:21:54.001Z</time></trkpt><trkpt lat="43.44150230663634" lon="11.773458678521223"><ele>268.5</ele><time>2026-04-21T16:21:55.001Z</time></trkpt><trkpt lat="43.441270383623085" lon="11.773644831922526"><ele>269.0</ele><time>2026-04-21T16:21:56.001Z</time></trkpt><trkpt lat="43.44103282987968" lon="11.773820536335114"><ele>269.0</ele><time>2026-04-21T16:21:57.001Z</time></trkpt><trkpt lat="43.44079472478732" lon="11.77398762880823"><ele>269.0</ele><time>2026-04-21T16:21:58.001Z</time></trkpt><trkpt lat="43.44055020900662" lon="11.774143936103211"><ele>268.0</ele><time>2026-04-21T16:21:59.001Z</time></trkpt><trkpt lat="43.44030185909808" lon="11.774283977409413"><ele>267.0</ele><time>2026-04-21T16:22:00.001Z</time></trkpt><trkpt lat="43.44005321056546" lon="11.774417484218755"><ele>267.0</ele><time>2026-04-21T16:22:01.001Z</time></trkpt><trkpt lat="43.439802244439925" lon="11.774541467795018"><ele>267.0</ele><time>2026-04-21T16:22:02.001Z</time></trkpt><trkpt lat="43.43954625844153" lon="11.774658381494284"><ele>267.5</ele><time>2026-04-21T16:22:03.001Z</time></trkpt><trkpt lat="43.43929081979032" lon="11.774774049922437"><ele>268.0</ele><time>2026-04-21T16:22:04.001Z</time></trkpt><trkpt lat="43.43902525456365" lon="11.774872578491616"><ele>267.0</ele><time>2026-04-21T16:22:05.001Z</time></trkpt><trkpt lat="43.438762216375196" lon="11.774978495187254"><ele>266.0</ele><time>2026-04-21T16:22:06.001Z</time></trkpt><trkpt lat="43.43850326954595" lon="11.775088774722391"><ele>265.0</ele><time>2026-04-21T16:22:07.001Z</time></trkpt><trkpt lat="43.43823681672254" lon="11.775203982445445"><ele>264.0</ele><time>2026-04-21T16:22:08.001Z</time></trkpt><trkpt lat="43.43796870687447" lon="11.775315846626246"><ele>264.5</ele><time>2026-04-21T16:22:09.001Z</time></trkpt><trkpt lat="43.4377034135552" lon="11.775433951003913"><ele>265.0</ele><time>2026-04-21T16:22:10.001Z</time></trkpt><trkpt lat="43.43743698056671" lon="11.775544310045554"><ele>265.0</ele><time>2026-04-21T16:22:11.001Z</time></trkpt><trkpt lat="43.437166678453444" lon="11.775655382496721"><ele>265.0</ele><time>2026-04-21T16:22:12.001Z</time></trkpt><trkpt lat="43.43690033349841" lon="11.775768521670413"><ele>265.5</ele><time>2026-04-21T16:22:13.001Z</time></trkpt><trkpt lat="43.43662920985668" lon="11.77588461720652"><ele>266.0</ele><time>2026-04-21T16:22:14.001Z</time></trkpt><trkpt lat="43.43635680194891" lon="11.775994310004814"><ele>265.0</ele><time>2026-04-21T16:22:15.001Z</time></trkpt><trkpt lat="43.43608656480459" lon="11.776105034906195"><ele>264.0</ele><time>2026-04-21T16:22:16.001Z</time></trkpt><trkpt lat="43.435815511433155" lon="11.776218610490941"><ele>264.0</ele><time>2026-04-21T16:22:17.001Z</time></trkpt><trkpt lat="43.435542796783665" lon="11.776326464342329"><ele>264.0</ele><time>2026-04-21T16:22:18.001Z</time></trkpt><trkpt lat="43.435271952698386" lon="11.776437533955502"><ele>263.5</ele><time>2026-04-21T16:22:19.001Z</time></trkpt><trkpt lat="43.43500370292444" lon="11.77655597897652"><ele>263.0</ele><time>2026-04-21T16:22:20.001Z</time></trkpt><trkpt lat="43.434731588816604" lon="11.77667137414561"><ele>263.0</ele><time>2026-04-21T16:22:21.001Z</time></trkpt><trkpt lat="43.43446423814119" lon="11.77678300523707"><ele>263.0</ele><time>2026-04-21T16:22:22.001Z</time></trkpt><trkpt lat="43.43420227297282" lon="11.77689712990133"><ele>263.0</ele><time>2026-04-21T16:22:23.001Z</time></trkpt><trkpt lat="43.43393262544005" lon="11.777009411704071"><ele>263.0</ele><time>2026-04-21T16:22:24.001Z</time></trkpt><trkpt lat="43.433664067283935" lon="11.777114108475669"><ele>263.0</ele><time>2026-04-21T16:22:25.001Z</time></trkpt><trkpt lat="43.43339554657363" lon="11.777225085809295"><ele>263.0</ele><time>2026-04-21T16:22:26.001Z</time></trkpt><trkpt lat="43.43312459312317" lon="11.777332277509727"><ele>263.0</ele><time>2026-04-21T16:22:27.001Z</time></trkpt><trkpt lat="43.432853276721545" lon="11.777440236603622"><ele>263.0</ele><time>2026-04-21T16:22:28.001Z</time></trkpt><trkpt lat="43.43258094442556" lon="11.777548877626604"><ele>263.0</ele><time>2026-04-21T16:22:29.001Z</time></trkpt><trkpt lat="43.432309608908426" lon="11.777659669059366"><ele>263.0</ele><time>2026-04-21T16:22:30.001Z</time></trkpt><trkpt lat="43.43203876458536" lon="11.77777233690717"><ele>262.0</ele><time>2026-04-21T16:22:31.001Z</time></trkpt><trkpt lat="43.43176574417012" lon="11.777882975752147"><ele>261.0</ele><time>2026-04-21T16:22:32.001Z</time></trkpt><trkpt lat="43.43149734612717" lon="11.777992769544209"><ele>260.5</ele><time>2026-04-21T16:22:33.001Z</time></trkpt><trkpt lat="43.43123301536092" lon="11.778088756168907"><ele>260.0</ele><time>2026-04-21T16:22:34.001Z</time></trkpt><trkpt lat="43.430968800428445" lon="11.778179394863018"><ele>260.0</ele><time>2026-04-21T16:22:35.001Z</time></trkpt><trkpt lat="43.430700204771256" lon="11.778266018011402"><ele>260.0</ele><time>2026-04-21T16:22:36.001Z</time></trkpt><trkpt lat="43.43043152876327" lon="11.778331736812854"><ele>259.5</ele><time>2026-04-21T16:22:37.001Z</time></trkpt><trkpt lat="43.430158808133285" lon="11.778379764110133"><ele>259.0</ele><time>2026-04-21T16:22:38.001Z</time></trkpt><trkpt lat="43.42989040271739" lon="11.778415064239192"><ele>260.0</ele><time>2026-04-21T16:22:39.001Z</time></trkpt><trkpt lat="43.4296187268448" lon="11.778444885975315"><ele>261.0</ele><time>2026-04-21T16:22:40.001Z</time></trkpt><trkpt lat="43.429348374220034" lon="11.77846006350763"><ele>261.0</ele><time>2026-04-21T16:22:41.001Z</time></trkpt><trkpt lat="43.429077938930284" lon="11.778466579596818"><ele>261.0</ele><time>2026-04-21T16:22:42.001Z</time></trkpt><trkpt lat="43.42880670644134" lon="11.778465848076591"><ele>260.5</ele><time>2026-04-21T16:22:43.001Z</time></trkpt><trkpt lat="43.428534436998675" lon="11.77845390078479"><ele>260.0</ele><time>2026-04-21T16:22:44.001Z</time></trkpt><trkpt lat="43.42826014989255" lon="11.778428241521333"><ele>260.0</ele><time>2026-04-21T16:22:45.001Z</time></trkpt><trkpt lat="43.42798686946706" lon="11.778394580842418"><ele>260.0</ele><time>2026-04-21T16:22:46.001Z</time></trkpt><trkpt lat="43.427714819639625" lon="11.778342025418388"><ele>260.5</ele><time>2026-04-21T16:22:47.001Z</time></trkpt><trkpt lat="43.42744934629674" lon="11.778275074464743"><ele>261.0</ele><time>2026-04-21T16:22:48.001Z</time></trkpt><trkpt lat="43.42718673341344" lon="11.778198878375068"><ele>261.0</ele><time>2026-04-21T16:22:49.001Z</time></trkpt><trkpt lat="43.4269207969241" lon="11.778117995089323"><ele>261.0</ele><time>2026-04-21T16:22:50Z</time></trkpt><trkpt lat="43.42665772892246" lon="11.778024969477096"><ele>261.0</ele><time>2026-04-21T16:22:51Z</time></trkpt><trkpt lat="43.42639460309131" lon="11.777920142537718"><ele>261.0</ele><time>2026-04-21T16:22:52Z</time></trkpt><trkpt lat="43.42613424742125" lon="11.777804685577639"><ele>259.5</ele><time>2026-04-21T16:22:53Z</time></trkpt><trkpt lat="43.42587575633287" lon="11.777675842869469"><ele>258.0</ele><time>2026-04-21T16:22:54Z</time></trkpt><trkpt lat="43.4256213220826" lon="11.777536748642325"><ele>258.0</ele><time>2026-04-21T16:22:55Z</time></trkpt><trkpt lat="43.42536603097205" lon="11.777390556402809"><ele>258.0</ele><time>2026-04-21T16:22:56Z</time></trkpt><trkpt lat="43.425113897396564" lon="11.777231225984739"><ele>258.0</ele><time>2026-04-21T16:22:57Z</time></trkpt><trkpt lat="43.424869538794496" lon="11.777064033654401"><ele>258.0</ele><time>2026-04-21T16:22:58Z</time></trkpt><trkpt lat="43.42462700607" lon="11.7768798210796"><ele>258.0</ele><time>2026-04-21T16:22:59Z</time></trkpt><trkpt lat="43.42438837039445" lon="11.776686226011307"><ele>258.0</ele><time>2026-04-21T16:23:00Z</time></trkpt><trkpt lat="43.42415411004058" lon="11.776490477297665"><ele>258.0</ele><time>2026-04-21T16:23:01Z</time></trkpt><trkpt lat="43.42392177290645" lon="11.776283798579769"><ele>258.0</ele><time>2026-04-21T16:23:02Z</time></trkpt><trkpt lat="43.42368790038621" lon="11.776078673477404"><ele>259.5</ele><time>2026-04-21T16:23:03Z</time></trkpt><trkpt lat="43.4234543058563" lon="11.775867908171476"><ele>261.0</ele><time>2026-04-21T16:23:04Z</time></trkpt><trkpt lat="43.42321601651077" lon="11.775663789068945"><ele>260.5</ele><time>2026-04-21T16:23:05Z</time></trkpt><trkpt lat="43.422977591996904" lon="11.77546341874854"><ele>260.0</ele><time>2026-04-21T16:23:06Z</time></trkpt><trkpt lat="43.422736006987115" lon="11.775258577518567"><ele>260.5</ele><time>2026-04-21T16:23:07Z</time></trkpt><trkpt lat="43.42249357289926" lon="11.77505605248757"><ele>261.0</ele><time>2026-04-21T16:23:08Z</time></trkpt><trkpt lat="43.422252799905074" lon="11.774847540181435"><ele>260.5</ele><time>2026-04-21T16:23:09Z</time></trkpt><trkpt lat="43.4220122497878" lon="11.77463834792543"><ele>260.0</ele><time>2026-04-21T16:23:10Z</time></trkpt><trkpt lat="43.421770011233576" lon="11.774429740164718"><ele>261.0</ele><time>2026-04-21T16:23:11Z</time></trkpt><trkpt lat="43.42152878653886" lon="11.774219212661793"><ele>262.0</ele><time>2026-04-21T16:23:12Z</time></trkpt><trkpt lat="43.42128575683051" lon="11.774010144410873"><ele>262.0</ele><time>2026-04-21T16:23:13Z</time></trkpt><trkpt lat="43.42104393676656" lon="11.773806292701638"><ele>262.0</ele><time>2026-04-21T16:23:14Z</time></trkpt><trkpt lat="43.42081084720043" lon="11.77360032638364"><ele>262.0</ele><time>2026-04-21T16:23:15Z</time></trkpt><trkpt lat="43.42057528096487" lon="11.773391765797557"><ele>262.0</ele><time>2026-04-21T16:23:16Z</time></trkpt><trkpt lat="43.42033979710117" lon="11.773189998648613"><ele>262.0</ele><time>2026-04-21T16:23:17Z</time></trkpt><trkpt lat="43.42010783072283" lon="11.772988558622925"><ele>262.0</ele><time>2026-04-21T16:23:18Z</time></trkpt><trkpt lat="43.41987462522096" lon="11.772785844728448"><ele>264.5</ele><time>2026-04-21T16:23:19Z</time></trkpt><trkpt lat="43.41964788182377" lon="11.772583184217536"><ele>267.0</ele><time>2026-04-21T16:23:20Z</time></trkpt><trkpt lat="43.419421135787225" lon="11.772381400171641"><ele>267.0</ele><time>2026-04-21T16:23:21Z</time></trkpt><trkpt lat="43.41919264082759" lon="11.772187633449564"><ele>267.0</ele><time>2026-04-21T16:23:22Z</time></trkpt><trkpt lat="43.41896469646955" lon="11.771996767430132"><ele>269.0</ele><time>2026-04-21T16:23:23Z</time></trkpt><trkpt lat="43.41873457802167" lon="11.771803493165072"><ele>271.0</ele><time>2026-04-21T16:23:24Z</time></trkpt><trkpt lat="43.418510811081596" lon="11.771606304105614"><ele>271.0</ele><time>2026-04-21T16:23:25Z</time></trkpt><trkpt lat="43.41828438623003" lon="11.771415198577948"><ele>271.0</ele><time>2026-04-21T16:23:26Z</time></trkpt><trkpt lat="43.41806242826578" lon="11.771213714998416"><ele>270.5</ele><time>2026-04-21T16:23:27Z</time></trkpt><trkpt lat="43.417832254751026" lon="11.771015883718723"><ele>270.0</ele><time>2026-04-21T16:23:28Z</time></trkpt><trkpt lat="43.417604866647785" lon="11.770815267563616"><ele>270.0</ele><time>2026-04-21T16:23:29Z</time></trkpt><trkpt lat="43.41737727945163" lon="11.770623481957642"><ele>270.0</ele><time>2026-04-21T16:23:30Z</time></trkpt><trkpt lat="43.417145163965465" lon="11.770429985974765"><ele>269.5</ele><time>2026-04-21T16:23:31Z</time></trkpt><trkpt lat="43.416913497187494" lon="11.770230516091798"><ele>269.0</ele><time>2026-04-21T16:23:32Z</time></trkpt><trkpt lat="43.416684055130716" lon="11.770032013233536"><ele>269.0</ele><time>2026-04-21T16:23:33Z</time></trkpt><trkpt lat="43.41644887553517" lon="11.76983902974305"><ele>269.0</ele><time>2026-04-21T16:23:34Z</time></trkpt><trkpt lat="43.416232212951" lon="11.769642922884936"><ele>267.0</ele><time>2026-04-21T16:23:35Z</time></trkpt><trkpt lat="43.416010961603426" lon="11.769443664913789"><ele>265.0</ele><time>2026-04-21T16:23:36Z</time></trkpt><trkpt lat="43.41578497261774" lon="11.76924549287133"><ele>265.0</ele><time>2026-04-21T16:23:37Z</time></trkpt><trkpt lat="43.415559079111055" lon="11.769045138042982"><ele>265.0</ele><time>2026-04-21T16:23:38Z</time></trkpt><trkpt lat="43.41532941682578" lon="11.768849730831063"><ele>264.5</ele><time>2026-04-21T16:23:39Z</time></trkpt><trkpt lat="43.415101719938676" lon="11.768650734256372"><ele>264.0</ele><time>2026-04-21T16:23:40Z</time></trkpt><trkpt lat="43.41487358215069" lon="11.768458700839053"><ele>263.5</ele><time>2026-04-21T16:23:41Z</time></trkpt><trkpt lat="43.41464254365611" lon="11.768270591532987"><ele>263.0</ele><time>2026-04-21T16:23:42Z</time></trkpt><trkpt lat="43.41441537764179" lon="11.768078205929127"><ele>263.0</ele><time>2026-04-21T16:23:43Z</time></trkpt><trkpt lat="43.41418604909034" lon="11.767886004617806"><ele>263.0</ele><time>2026-04-21T16:23:44Z</time></trkpt><trkpt lat="43.41395793370704" lon="11.767693525335911"><ele>264.0</ele><time>2026-04-21T16:23:45Z</time></trkpt><trkpt lat="43.41372809187443" lon="11.767498880222842"><ele>265.0</ele><time>2026-04-21T16:23:46Z</time></trkpt><trkpt lat="43.41349302517507" lon="11.767310241298492"><ele>265.0</ele><time>2026-04-21T16:23:47Z</time></trkpt><trkpt lat="43.413255714076456" lon="11.767137336395296"><ele>265.0</ele><time>2026-04-21T16:23:48Z</time></trkpt><trkpt lat="43.41301897341925" lon="11.766958765968438"><ele>266.5</ele><time>2026-04-21T16:23:49Z</time></trkpt><trkpt lat="43.41278106909641" lon="11.766782474356331"><ele>268.0</ele><time>2026-04-21T16:23:50Z</time></trkpt><trkpt lat="43.41254360055769" lon="11.766620441291062"><ele>268.0</ele><time>2026-04-21T16:23:51Z</time></trkpt><trkpt lat="43.412303132690404" lon="11.766455749715247"><ele>268.0</ele><time>2026-04-21T16:23:52Z</time></trkpt><trkpt lat="43.41205917161913" lon="11.766289413616043"><ele>270.5</ele><time>2026-04-21T16:23:53Z</time></trkpt><trkpt lat="43.41181568913189" lon="11.766123705024098"><ele>273.0</ele><time>2026-04-21T16:23:54Z</time></trkpt><trkpt lat="43.411570907998076" lon="11.765961504027837"><ele>276.0</ele><time>2026-04-21T16:23:55Z</time></trkpt><trkpt lat="43.41132270076517" lon="11.765797548861055"><ele>279.0</ele><time>2026-04-21T16:23:56Z</time></trkpt><trkpt lat="43.41107400594079" lon="11.765645959858803"><ele>279.0</ele><time>2026-04-21T16:23:57Z</time></trkpt><trkpt lat="43.41082434788785" lon="11.765496196267877"><ele>279.0</ele><time>2026-04-21T16:23:58Z</time></trkpt><trkpt lat="43.41057507154631" lon="11.765344188738487"><ele>278.0</ele><time>2026-04-21T16:23:59Z</time></trkpt><trkpt lat="43.41033360333928" lon="11.765220767967898"><ele>277.0</ele><time>2026-04-21T16:24:00.001Z</time></trkpt><trkpt lat="43.41009494415973" lon="11.76509059132399"><ele>277.0</ele><time>2026-04-21T16:24:01.001Z</time></trkpt><trkpt lat="43.409849129185766" lon="11.764957368310201"><ele>277.0</ele><time>2026-04-21T16:24:02.001Z</time></trkpt><trkpt lat="43.409605164578295" lon="11.76482629137581"><ele>276.5</ele><time>2026-04-21T16:24:03.001Z</time></trkpt><trkpt lat="43.40936573387581" lon="11.764697814678742"><ele>276.0</ele><time>2026-04-21T16:24:04.001Z</time></trkpt><trkpt lat="43.409124279290054" lon="11.764568658350422"><ele>276.0</ele><time>2026-04-21T16:24:05.001Z</time></trkpt><trkpt lat="43.40887859104851" lon="11.764441584074739"><ele>276.0</ele><time>2026-04-21T16:24:06.001Z</time></trkpt><trkpt lat="43.40863456556439" lon="11.764307541392892"><ele>275.0</ele><time>2026-04-21T16:24:07.001Z</time></trkpt><trkpt lat="43.408394173986935" lon="11.764171415655028"><ele>274.0</ele><time>2026-04-21T16:24:08.001Z</time></trkpt><trkpt lat="43.40815018078867" lon="11.764040770878882"><ele>274.5</ele><time>2026-04-21T16:24:09.001Z</time></trkpt><trkpt lat="43.407908467474776" lon="11.76391103677509"><ele>275.0</ele><time>2026-04-21T16:24:10.001Z</time></trkpt><trkpt lat="43.40766555026157" lon="11.763777917211527"><ele>275.0</ele><time>2026-04-21T16:24:11.001Z</time></trkpt><trkpt lat="43.4074233722228" lon="11.763643144269508"><ele>275.0</ele><time>2026-04-21T16:24:12.001Z</time></trkpt><trkpt lat="43.40717604696275" lon="11.763509889213191"><ele>276.0</ele><time>2026-04-21T16:24:13.001Z</time></trkpt><trkpt lat="43.40693229097197" lon="11.763374071352958"><ele>277.0</ele><time>2026-04-21T16:24:14.001Z</time></trkpt><trkpt lat="43.40668255410234" lon="11.763243442782477"><ele>277.0</ele><time>2026-04-21T16:24:15.001Z</time></trkpt><trkpt lat="43.40644518542116" lon="11.76311736345835"><ele>277.0</ele><time>2026-04-21T16:24:16.001Z</time></trkpt><trkpt lat="43.40620691044925" lon="11.7629912411834"><ele>277.0</ele><time>2026-04-21T16:24:17.001Z</time></trkpt><trkpt lat="43.40596671366679" lon="11.762860131791127"><ele>277.0</ele><time>2026-04-21T16:24:18.001Z</time></trkpt><trkpt lat="43.40572689701428" lon="11.762728947760461"><ele>277.5</ele><time>2026-04-21T16:24:19.001Z</time></trkpt><trkpt lat="43.40549612780801" lon="11.762596793803947"><ele>278.0</ele><time>2026-04-21T16:24:20.001Z</time></trkpt><trkpt lat="43.405263286701405" lon="11.762461418072439"><ele>278.0</ele><time>2026-04-21T16:24:21.001Z</time></trkpt><trkpt lat="43.405022745919055" lon="11.762336212606883"><ele>278.0</ele><time>2026-04-21T16:24:22.001Z</time></trkpt><trkpt lat="43.40477944057486" lon="11.762204920840384"><ele>276.5</ele><time>2026-04-21T16:24:23.001Z</time></trkpt><trkpt lat="43.404532746251206" lon="11.762072207011315"><ele>275.0</ele><time>2026-04-21T16:24:24.001Z</time></trkpt><trkpt lat="43.4042837797328" lon="11.761936206888034"><ele>276.5</ele><time>2026-04-21T16:24:25.001Z</time></trkpt><trkpt lat="43.40403297224412" lon="11.761801582342795"><ele>278.0</ele><time>2026-04-21T16:24:26.001Z</time></trkpt><trkpt lat="43.40378335025687" lon="11.761666294396822"><ele>278.0</ele><time>2026-04-21T16:24:27.001Z</time></trkpt><trkpt lat="43.40353165364722" lon="11.761533112820928"><ele>278.0</ele><time>2026-04-21T16:24:28.001Z</time></trkpt><trkpt lat="43.40327759611221" lon="11.761403384671441"><ele>278.0</ele><time>2026-04-21T16:24:29.001Z</time></trkpt><trkpt lat="43.40302572596477" lon="11.761274524217738"><ele>278.0</ele><time>2026-04-21T16:24:30.001Z</time></trkpt><trkpt lat="43.40277394485591" lon="11.761143767431795"><ele>279.5</ele><time>2026-04-21T16:24:31.001Z</time></trkpt><trkpt lat="43.40252283926009" lon="11.761010261438377"><ele>281.0</ele><time>2026-04-21T16:24:32.001Z</time></trkpt><trkpt lat="43.40226917089172" lon="11.76088030566244"><ele>283.0</ele><time>2026-04-21T16:24:33.001Z</time></trkpt><trkpt lat="43.40201576577649" lon="11.760744592705391"><ele>285.0</ele><time>2026-04-21T16:24:34.001Z</time></trkpt><trkpt lat="43.40176152968713" lon="11.760605704146634"><ele>285.0</ele><time>2026-04-21T16:24:35.001Z</time></trkpt><trkpt lat="43.40150752540883" lon="11.760465464811118"><ele>285.0</ele><time>2026-04-21T16:24:36.001Z</time></trkpt><trkpt lat="43.40125832927835" lon="11.760320768996078"><ele>283.5</ele><time>2026-04-21T16:24:37.001Z</time></trkpt><trkpt lat="43.40100450688713" lon="11.760177321324578"><ele>282.0</ele><time>2026-04-21T16:24:38.001Z</time></trkpt><trkpt lat="43.40075375705664" lon="11.760032015110902"><ele>282.0</ele><time>2026-04-21T16:24:39.001Z</time></trkpt><trkpt lat="43.40050330525122" lon="11.759888059315026"><ele>282.0</ele><time>2026-04-21T16:24:40.001Z</time></trkpt><trkpt lat="43.400247100286265" lon="11.759743584016643"><ele>279.0</ele><time>2026-04-21T16:24:41.001Z</time></trkpt><trkpt lat="43.39999254537865" lon="11.759604624913152"><ele>276.0</ele><time>2026-04-21T16:24:42.001Z</time></trkpt><trkpt lat="43.399740699120144" lon="11.75947370312582"><ele>274.5</ele><time>2026-04-21T16:24:43.001Z</time></trkpt><trkpt lat="43.39949691825499" lon="11.759342185503344"><ele>273.0</ele><time>2026-04-21T16:24:44.001Z</time></trkpt><trkpt lat="43.399249590135966" lon="11.759211723921752"><ele>273.0</ele><time>2026-04-21T16:24:45.001Z</time></trkpt><trkpt lat="43.399005909360696" lon="11.759077417590404"><ele>273.0</ele><time>2026-04-21T16:24:46.001Z</time></trkpt><trkpt lat="43.398761405916325" lon="11.758943687798043"><ele>273.5</ele><time>2026-04-21T16:24:47.001Z</time></trkpt><trkpt lat="43.39851702657393" lon="11.758810246779188"><ele>274.0</ele><time>2026-04-21T16:24:48.001Z</time></trkpt><trkpt lat="43.398273075992456" lon="11.758673171640753"><ele>274.0</ele><time>2026-04-21T16:24:49.001Z</time></trkpt><trkpt lat="43.39802888230328" lon="11.758540259574547"><ele>274.0</ele><time>2026-04-21T16:24:50.001Z</time></trkpt><trkpt lat="43.39778470275778" lon="11.758407447438096"><ele>276.5</ele><time>2026-04-21T16:24:51.001Z</time></trkpt><trkpt lat="43.39754065428389" lon="11.758276243834768"><ele>279.0</ele><time>2026-04-21T16:24:52.001Z</time></trkpt><trkpt lat="43.39729516405871" lon="11.758152198532757"><ele>280.5</ele><time>2026-04-21T16:24:53.001Z</time></trkpt><trkpt lat="43.397050636062694" lon="11.758028108650175"><ele>282.0</ele><time>2026-04-21T16:24:54.001Z</time></trkpt><trkpt lat="43.396805147415805" lon="11.757903836490051"><ele>282.0</ele><time>2026-04-21T16:24:55.001Z</time></trkpt><trkpt lat="43.39655929572295" lon="11.757781115737203"><ele>282.0</ele><time>2026-04-21T16:24:56Z</time></trkpt><trkpt lat="43.396309729957146" lon="11.757671660116129"><ele>281.0</ele><time>2026-04-21T16:24:57Z</time></trkpt><trkpt lat="43.396056820113415" lon="11.757567837526809"><ele>280.0</ele><time>2026-04-21T16:24:58Z</time></trkpt><trkpt lat="43.39580213788059" lon="11.757468140394106"><ele>280.0</ele><time>2026-04-21T16:24:59Z</time></trkpt><trkpt lat="43.39554530687418" lon="11.757376704392941"><ele>280.0</ele><time>2026-04-21T16:25:00Z</time></trkpt><trkpt lat="43.39529050903948" lon="11.757294412920212"><ele>281.0</ele><time>2026-04-21T16:25:01Z</time></trkpt><trkpt lat="43.395036524700416" lon="11.757206193662208"><ele>282.0</ele><time>2026-04-21T16:25:02Z</time></trkpt><trkpt lat="43.394781806472935" lon="11.757123715624152"><ele>283.0</ele><time>2026-04-21T16:25:03Z</time></trkpt><trkpt lat="43.39452556449128" lon="11.75704638576224"><ele>284.0</ele><time>2026-04-21T16:25:04Z</time></trkpt><trkpt lat="43.394273641554506" lon="11.75697531332572"><ele>284.0</ele><time>2026-04-21T16:25:05Z</time></trkpt><trkpt lat="43.3940167944373" lon="11.756905620201353"><ele>284.0</ele><time>2026-04-21T16:25:06Z</time></trkpt><trkpt lat="43.39375550160285" lon="11.756850711900293"><ele>284.5</ele><time>2026-04-21T16:25:07Z</time></trkpt><trkpt lat="43.3934967025053" lon="11.756800862421471"><ele>285.0</ele><time>2026-04-21T16:25:08Z</time></trkpt><trkpt lat="43.39324770151124" lon="11.756749364960626"><ele>284.5</ele><time>2026-04-21T16:25:09Z</time></trkpt><trkpt lat="43.39299040345999" lon="11.756702986351224"><ele>284.0</ele><time>2026-04-21T16:25:10Z</time></trkpt><trkpt lat="43.39273299436801" lon="11.756669013803334"><ele>284.0</ele><time>2026-04-21T16:25:11Z</time></trkpt><trkpt lat="43.392477974926265" lon="11.756635449733293"><ele>284.0</ele><time>2026-04-21T16:25:12Z</time></trkpt><trkpt lat="43.39222248580648" lon="11.75660541766748"><ele>284.5</ele><time>2026-04-21T16:25:13Z</time></trkpt><trkpt lat="43.39196609029179" lon="11.756587309332811"><ele>285.0</ele><time>2026-04-21T16:25:14Z</time></trkpt><trkpt lat="43.39170791803589" lon="11.756572268264524"><ele>285.0</ele><time>2026-04-21T16:25:15Z</time></trkpt><trkpt lat="43.39144938679352" lon="11.756558134321299"><ele>285.0</ele><time>2026-04-21T16:25:16Z</time></trkpt><trkpt lat="43.39118448698838" lon="11.75655329494758"><ele>285.0</ele><time>2026-04-21T16:25:17Z</time></trkpt><trkpt lat="43.390915711218135" lon="11.756546123754369"><ele>285.0</ele><time>2026-04-21T16:25:18Z</time></trkpt><trkpt lat="43.390649273160705" lon="11.756544665503345"><ele>284.5</ele><time>2026-04-21T16:25:19Z</time></trkpt><trkpt lat="43.39038346861374" lon="11.756561597044332"><ele>284.0</ele><time>2026-04-21T16:25:20Z</time></trkpt><trkpt lat="43.39010185761777" lon="11.756573504789053"><ele>284.0</ele><time>2026-04-21T16:25:21Z</time></trkpt><trkpt lat="43.38982439593249" lon="11.756577645085002"><ele>284.0</ele><time>2026-04-21T16:25:22Z</time></trkpt><trkpt lat="43.38955147208304" lon="11.75658750610256"><ele>284.5</ele><time>2026-04-21T16:25:23Z</time></trkpt><trkpt lat="43.3892768868977" lon="11.756595691752729"><ele>285.0</ele><time>2026-04-21T16:25:24Z</time></trkpt><trkpt lat="43.389003094114564" lon="11.756594053721601"><ele>285.0</ele><time>2026-04-21T16:25:25Z</time></trkpt><trkpt lat="43.3887325648417" lon="11.756590542656513"><ele>285.0</ele><time>2026-04-21T16:25:26Z</time></trkpt><trkpt lat="43.38845378567013" lon="11.756597347076797"><ele>285.0</ele><time>2026-04-21T16:25:27Z</time></trkpt><trkpt lat="43.38818078837458" lon="11.756596932318432"><ele>285.0</ele><time>2026-04-21T16:25:28Z</time></trkpt><trkpt lat="43.38791362814768" lon="11.756595016111953"><ele>285.5</ele><time>2026-04-21T16:25:29Z</time></trkpt><trkpt lat="43.3876428270577" lon="11.756596545219258"><ele>286.0</ele><time>2026-04-21T16:25:30Z</time></trkpt><trkpt lat="43.387371260412586" lon="11.756590024707117"><ele>286.0</ele><time>2026-04-21T16:25:31Z</time></trkpt><trkpt lat="43.38710129078963" lon="11.756577602926448"><ele>286.0</ele><time>2026-04-21T16:25:32Z</time></trkpt><trkpt lat="43.386831236899454" lon="11.756565550260884"><ele>286.0</ele><time>2026-04-21T16:25:33Z</time></trkpt><trkpt lat="43.38655909488724" lon="11.75656212127187"><ele>286.0</ele><time>2026-04-21T16:25:34Z</time></trkpt><trkpt lat="43.38628701069869" lon="11.756561978717295"><ele>286.0</ele><time>2026-04-21T16:25:35Z</time></trkpt><trkpt lat="43.386017536722925" lon="11.756559973436866"><ele>286.0</ele><time>2026-04-21T16:25:36Z</time></trkpt><trkpt lat="43.38574636618818" lon="11.756562934635149"><ele>284.5</ele><time>2026-04-21T16:25:37Z</time></trkpt><trkpt lat="43.385473870979595" lon="11.756565536747832"><ele>283.0</ele><time>2026-04-21T16:25:38Z</time></trkpt><trkpt lat="43.38520133316324" lon="11.756566536691984"><ele>283.0</ele><time>2026-04-21T16:25:39Z</time></trkpt><trkpt lat="43.38492861062941" lon="11.756567439540412"><ele>283.0</ele><time>2026-04-21T16:25:40Z</time></trkpt><trkpt lat="43.384656275546035" lon="11.756570245783333"><ele>281.5</ele><time>2026-04-21T16:25:41Z</time></trkpt><trkpt lat="43.38438454598873" lon="11.756570541453186"><ele>280.0</ele><time>2026-04-21T16:25:42Z</time></trkpt><trkpt lat="43.38411588634104" lon="11.756576153392045"><ele>279.0</ele><time>2026-04-21T16:25:43Z</time></trkpt><trkpt lat="43.383844719442266" lon="11.75657762081489"><ele>278.0</ele><time>2026-04-21T16:25:44Z</time></trkpt><trkpt lat="43.383570822039665" lon="11.756579311902401"><ele>278.0</ele><time>2026-04-21T16:25:45Z</time></trkpt><trkpt lat="43.38329774714495" lon="11.756580378309646"><ele>278.0</ele><time>2026-04-21T16:25:46Z</time></trkpt><trkpt lat="43.38302049419078" lon="11.756586204716093"><ele>278.5</ele><time>2026-04-21T16:25:47Z</time></trkpt><trkpt lat="43.38274346079059" lon="11.756592945882863"><ele>279.0</ele><time>2026-04-21T16:25:48Z</time></trkpt><trkpt lat="43.38246583974126" lon="11.756596112656613"><ele>279.0</ele><time>2026-04-21T16:25:49Z</time></trkpt><trkpt lat="43.382185900917996" lon="11.756600529736"><ele>279.0</ele><time>2026-04-21T16:25:50Z</time></trkpt><trkpt lat="43.38190665057682" lon="11.756601788424137"><ele>278.5</ele><time>2026-04-21T16:25:51Z</time></trkpt><trkpt lat="43.38162434284397" lon="11.756603494572232"><ele>278.0</ele><time>2026-04-21T16:25:52Z</time></trkpt><trkpt lat="43.38134102006555" lon="11.756607219797345"><ele>277.5</ele><time>2026-04-21T16:25:53Z</time></trkpt><trkpt lat="43.38105835595848" lon="11.75660470512495"><ele>277.0</ele><time>2026-04-21T16:25:54Z</time></trkpt><trkpt lat="43.38077127620798" lon="11.756603388211516"><ele>275.0</ele><time>2026-04-21T16:25:55Z</time></trkpt><trkpt lat="43.380486672709715" lon="11.756600750361237"><ele>273.0</ele><time>2026-04-21T16:25:56Z</time></trkpt><trkpt lat="43.380199596489234" lon="11.756600623889868"><ele>273.0</ele><time>2026-04-21T16:25:57Z</time></trkpt><trkpt lat="43.37991247901039" lon="11.756601907568081"><ele>273.0</ele><time>2026-04-21T16:25:58Z</time></trkpt><trkpt lat="43.379627548277064" lon="11.756604258161335"><ele>272.0</ele><time>2026-04-21T16:25:59Z</time></trkpt><trkpt lat="43.379341859728235" lon="11.756608426516873"><ele>271.0</ele><time>2026-04-21T16:26:00Z</time></trkpt><trkpt lat="43.37905675579478" lon="11.75661085334569"><ele>270.0</ele><time>2026-04-21T16:26:01Z</time></trkpt><trkpt lat="43.37877243883496" lon="11.756613178863777"><ele>269.0</ele><time>2026-04-21T16:26:02Z</time></trkpt><trkpt lat="43.37848804876367" lon="11.756615308567266"><ele>269.0</ele><time>2026-04-21T16:26:03Z</time></trkpt><trkpt lat="43.3782042461411" lon="11.756617640646121"><ele>269.0</ele><time>2026-04-21T16:26:04Z</time></trkpt><trkpt lat="43.377919023093376" lon="11.756620087151145"><ele>269.0</ele><time>2026-04-21T16:26:05Z</time></trkpt><trkpt lat="43.37763339256958" lon="11.756621959560084"><ele>269.0</ele><time>2026-04-21T16:26:06Z</time></trkpt><trkpt lat="43.37735934942212" lon="11.75662125890938"><ele>269.0</ele><time>2026-04-21T16:26:07Z</time></trkpt><trkpt lat="43.37708556819474" lon="11.75662529300067"><ele>269.0</ele><time>2026-04-21T16:26:08Z</time></trkpt><trkpt lat="43.37681704140924" lon="11.7566282909016"><ele>269.0</ele><time>2026-04-21T16:26:09Z</time></trkpt><trkpt lat="43.37654112068054" lon="11.75662980928176"><ele>269.0</ele><time>2026-04-21T16:26:10Z</time></trkpt><trkpt lat="43.37627340652013" lon="11.75662992140909"><ele>268.0</ele><time>2026-04-21T16:26:11Z</time></trkpt><trkpt lat="43.376002032623994" lon="11.756629874872154"><ele>267.0</ele><time>2026-04-21T16:26:12Z</time></trkpt><trkpt lat="43.3757290576975" lon="11.756628215109323"><ele>267.0</ele><time>2026-04-21T16:26:13Z</time></trkpt><trkpt lat="43.37545512800108" lon="11.75663069936145"><ele>267.0</ele><time>2026-04-21T16:26:14Z</time></trkpt><trkpt lat="43.37518043314868" lon="11.756634938121872"><ele>267.0</ele><time>2026-04-21T16:26:15Z</time></trkpt><trkpt lat="43.374910801130746" lon="11.756638579942846"><ele>267.0</ele><time>2026-04-21T16:26:16Z</time></trkpt><trkpt lat="43.37464435374611" lon="11.756642705276132"><ele>267.5</ele><time>2026-04-21T16:26:17Z</time></trkpt><trkpt lat="43.37437592733263" lon="11.756653087191747"><ele>268.0</ele><time>2026-04-21T16:26:18Z</time></trkpt><trkpt lat="43.37411058195561" lon="11.75666818290626"><ele>268.5</ele><time>2026-04-21T16:26:19Z</time></trkpt><trkpt lat="43.37384330139352" lon="11.756691493456604"><ele>269.0</ele><time>2026-04-21T16:26:20Z</time></trkpt><trkpt lat="43.37357871232582" lon="11.756729375181173"><ele>269.0</ele><time>2026-04-21T16:26:21Z</time></trkpt><trkpt lat="43.37331138561896" lon="11.75676942704879"><ele>269.0</ele><time>2026-04-21T16:26:22Z</time></trkpt><trkpt lat="43.37304569373915" lon="11.75681362435977"><ele>268.5</ele><time>2026-04-21T16:26:23Z</time></trkpt><trkpt lat="43.37278143578237" lon="11.756865970111527"><ele>268.0</ele><time>2026-04-21T16:26:24Z</time></trkpt><trkpt lat="43.3725196393005" lon="11.756925072892088"><ele>268.0</ele><time>2026-04-21T16:26:25Z</time></trkpt><trkpt lat="43.37226090432536" lon="11.756989901739948"><ele>268.0</ele><time>2026-04-21T16:26:26Z</time></trkpt><trkpt lat="43.37200627502966" lon="11.757064789481264"><ele>269.5</ele><time>2026-04-21T16:26:27Z</time></trkpt><trkpt lat="43.371751110994964" lon="11.757147424108245"><ele>271.0</ele><time>2026-04-21T16:26:28Z</time></trkpt><trkpt lat="43.371498208829884" lon="11.757235327149063"><ele>275.0</ele><time>2026-04-21T16:26:29Z</time></trkpt><trkpt lat="43.37124530144791" lon="11.757328721257798"><ele>279.0</ele><time>2026-04-21T16:26:30Z</time></trkpt><trkpt lat="43.3709914582251" lon="11.75742959474681"><ele>279.0</ele><time>2026-04-21T16:26:31Z</time></trkpt><trkpt lat="43.370740344685295" lon="11.757535906090213"><ele>279.0</ele><time>2026-04-21T16:26:32Z</time></trkpt><trkpt lat="43.37048925329709" lon="11.757649323727511"><ele>279.0</ele><time>2026-04-21T16:26:33Z</time></trkpt><trkpt lat="43.37023515115605" lon="11.757767207189312"><ele>279.0</ele><time>2026-04-21T16:26:34Z</time></trkpt><trkpt lat="43.369985607286985" lon="11.757891592512683"><ele>279.0</ele><time>2026-04-21T16:26:35Z</time></trkpt><trkpt lat="43.36973592038354" lon="11.758022685918199"><ele>279.0</ele><time>2026-04-21T16:26:36Z</time></trkpt><trkpt lat="43.36948613872206" lon="11.75816161852406"><ele>279.0</ele><time>2026-04-21T16:26:37Z</time></trkpt><trkpt lat="43.36924077892609" lon="11.758295234123057"><ele>279.0</ele><time>2026-04-21T16:26:38Z</time></trkpt><trkpt lat="43.36899039151074" lon="11.758427873868172"><ele>275.5</ele><time>2026-04-21T16:26:39Z</time></trkpt><trkpt lat="43.368731956440456" lon="11.758554958352683"><ele>272.0</ele><time>2026-04-21T16:26:40Z</time></trkpt><trkpt lat="43.368477076222234" lon="11.758687440403847"><ele>272.0</ele><time>2026-04-21T16:26:41Z</time></trkpt><trkpt lat="43.36822415995328" lon="11.75881546282957"><ele>272.0</ele><time>2026-04-21T16:26:42Z</time></trkpt><trkpt lat="43.36798006687595" lon="11.758938328238314"><ele>271.5</ele><time>2026-04-21T16:26:43Z</time></trkpt><trkpt lat="43.3677303081897" lon="11.759062770038591"><ele>271.0</ele><time>2026-04-21T16:26:44Z</time></trkpt><trkpt lat="43.367483258636206" lon="11.75918981847349"><ele>271.0</ele><time>2026-04-21T16:26:45Z</time></trkpt><trkpt lat="43.36723799388864" lon="11.759324325986382"><ele>271.0</ele><time>2026-04-21T16:26:46Z</time></trkpt><trkpt lat="43.3669897090617" lon="11.759449718023054"><ele>270.0</ele><time>2026-04-21T16:26:47Z</time></trkpt><trkpt lat="43.36673797522795" lon="11.759585401433501"><ele>269.0</ele><time>2026-04-21T16:26:48.001Z</time></trkpt><trkpt lat="43.3664876657406" lon="11.759711388243524"><ele>269.5</ele><time>2026-04-21T16:26:49Z</time></trkpt><trkpt lat="43.36623624015659" lon="11.759839932535513"><ele>270.0</ele><time>2026-04-21T16:26:50Z</time></trkpt><trkpt lat="43.36598795384714" lon="11.759974487897136"><ele>270.0</ele><time>2026-04-21T16:26:51Z</time></trkpt><trkpt lat="43.36573582348732" lon="11.76010715105287"><ele>270.0</ele><time>2026-04-21T16:26:52.001Z</time></trkpt><trkpt lat="43.36548959048626" lon="11.760242669841253"><ele>269.0</ele><time>2026-04-21T16:26:53.001Z</time></trkpt><trkpt lat="43.36523770904678" lon="11.760373111732854"><ele>268.0</ele><time>2026-04-21T16:26:54.001Z</time></trkpt><trkpt lat="43.36498893849917" lon="11.760499196188306"><ele>268.0</ele><time>2026-04-21T16:26:55.001Z</time></trkpt><trkpt lat="43.36473749038564" lon="11.760625055004196"><ele>268.0</ele><time>2026-04-21T16:26:56.001Z</time></trkpt><trkpt lat="43.36449028407956" lon="11.760751802258502"><ele>269.5</ele><time>2026-04-21T16:26:57.001Z</time></trkpt><trkpt lat="43.364245296960824" lon="11.760876741758047"><ele>271.0</ele><time>2026-04-21T16:26:58.001Z</time></trkpt><trkpt lat="43.36399752745862" lon="11.761005226585107"><ele>270.5</ele><time>2026-04-21T16:26:59.001Z</time></trkpt><trkpt lat="43.363752512421016" lon="11.761140207824928"><ele>270.0</ele><time>2026-04-21T16:27:00.001Z</time></trkpt><trkpt lat="43.363504483391" lon="11.761271578855316"><ele>270.0</ele><time>2026-04-21T16:27:01.001Z</time></trkpt><trkpt lat="43.363255253406095" lon="11.761401887923228"><ele>270.0</ele><time>2026-04-21T16:27:02Z</time></trkpt><trkpt lat="43.36300181866639" lon="11.76152460249368"><ele>271.5</ele><time>2026-04-21T16:27:03Z</time></trkpt><trkpt lat="43.362749175567664" lon="11.76165724888902"><ele>273.0</ele><time>2026-04-21T16:27:04Z</time></trkpt><trkpt lat="43.362495960556856" lon="11.761788266851777"><ele>271.5</ele><time>2026-04-21T16:27:05Z</time></trkpt><trkpt lat="43.362243962770705" lon="11.761925864575522"><ele>270.0</ele><time>2026-04-21T16:27:06Z</time></trkpt><trkpt lat="43.36199078532608" lon="11.762056698669404"><ele>270.0</ele><time>2026-04-21T16:27:07Z</time></trkpt><trkpt lat="43.36173507566178" lon="11.762187199265334"><ele>270.0</ele><time>2026-04-21T16:27:08Z</time></trkpt><trkpt lat="43.361480483850215" lon="11.762318262441353"><ele>271.5</ele><time>2026-04-21T16:27:09Z</time></trkpt><trkpt lat="43.361226540663516" lon="11.762457766402424"><ele>273.0</ele><time>2026-04-21T16:27:10Z</time></trkpt><trkpt lat="43.3609720590289" lon="11.762590405470744"><ele>271.0</ele><time>2026-04-21T16:27:11Z</time></trkpt><trkpt lat="43.360720459122795" lon="11.762722345024962"><ele>269.0</ele><time>2026-04-21T16:27:12Z</time></trkpt><trkpt lat="43.36047016174871" lon="11.762857578272003"><ele>269.0</ele><time>2026-04-21T16:27:13Z</time></trkpt><trkpt lat="43.3602269291704" lon="11.762982304406197"><ele>269.0</ele><time>2026-04-21T16:27:14Z</time></trkpt><trkpt lat="43.35997938972078" lon="11.7631091615557"><ele>269.0</ele><time>2026-04-21T16:27:15Z</time></trkpt><trkpt lat="43.359728369381266" lon="11.763238992098122"><ele>269.0</ele><time>2026-04-21T16:27:16Z</time></trkpt><trkpt lat="43.35947884299834" lon="11.763369036869728"><ele>270.0</ele><time>2026-04-21T16:27:17Z</time></trkpt><trkpt lat="43.35923779837462" lon="11.76349603380559"><ele>271.0</ele><time>2026-04-21T16:27:18Z</time></trkpt><trkpt lat="43.35900046822201" lon="11.763617329915354"><ele>270.0</ele><time>2026-04-21T16:27:19Z</time></trkpt><trkpt lat="43.35875614818694" lon="11.763740570204638"><ele>269.0</ele><time>2026-04-21T16:27:20Z</time></trkpt><trkpt lat="43.35850502188499" lon="11.763858973830375"><ele>269.0</ele><time>2026-04-21T16:27:21Z</time></trkpt><trkpt lat="43.358250390513966" lon="11.763966916745268"><ele>269.0</ele><time>2026-04-21T16:27:22Z</time></trkpt><trkpt lat="43.35799147598805" lon="11.76406277147831"><ele>268.0</ele><time>2026-04-21T16:27:23Z</time></trkpt><trkpt lat="43.35772852872098" lon="11.764150962182885"><ele>267.0</ele><time>2026-04-21T16:27:24Z</time></trkpt><trkpt lat="43.357474339034" lon="11.764235614301832"><ele>267.0</ele><time>2026-04-21T16:27:25Z</time></trkpt><trkpt lat="43.357208602159794" lon="11.764304581552052"><ele>267.0</ele><time>2026-04-21T16:27:26Z</time></trkpt><trkpt lat="43.35694659060398" lon="11.764370906918062"><ele>264.5</ele><time>2026-04-21T16:27:27Z</time></trkpt><trkpt lat="43.35668410358133" lon="11.76442509292332"><ele>262.0</ele><time>2026-04-21T16:27:28Z</time></trkpt><trkpt lat="43.35642116723376" lon="11.764474930371899"><ele>261.0</ele><time>2026-04-21T16:27:29Z</time></trkpt><trkpt lat="43.35616248810377" lon="11.764514684135285"><ele>260.0</ele><time>2026-04-21T16:27:30Z</time></trkpt><trkpt lat="43.355903133302135" lon="11.764543086991408"><ele>260.0</ele><time>2026-04-21T16:27:31Z</time></trkpt><trkpt lat="43.355641728953984" lon="11.764561234692643"><ele>260.0</ele><time>2026-04-21T16:27:32Z</time></trkpt><trkpt lat="43.355377944253526" lon="11.764572138355506"><ele>260.0</ele><time>2026-04-21T16:27:33Z</time></trkpt><trkpt lat="43.3551153306139" lon="11.764574620099907"><ele>260.0</ele><time>2026-04-21T16:27:34Z</time></trkpt><trkpt lat="43.35484979469336" lon="11.764566947546355"><ele>260.5</ele><time>2026-04-21T16:27:35Z</time></trkpt><trkpt lat="43.35458502101979" lon="11.764549327010013"><ele>261.0</ele><time>2026-04-21T16:27:36Z</time></trkpt><trkpt lat="43.354321008820214" lon="11.764524932402782"><ele>261.0</ele><time>2026-04-21T16:27:37Z</time></trkpt><trkpt lat="43.354057681409465" lon="11.764496459690966"><ele>261.0</ele><time>2026-04-21T16:27:38Z</time></trkpt><trkpt lat="43.353795211442055" lon="11.764467468352425"><ele>260.5</ele><time>2026-04-21T16:27:39Z</time></trkpt><trkpt lat="43.353534132184535" lon="11.76444190736572"><ele>260.0</ele><time>2026-04-21T16:27:40Z</time></trkpt><trkpt lat="43.35327155881204" lon="11.764422734540208"><ele>260.5</ele><time>2026-04-21T16:27:41Z</time></trkpt><trkpt lat="43.353009304069055" lon="11.764404648123024"><ele>261.0</ele><time>2026-04-21T16:27:42Z</time></trkpt><trkpt lat="43.35274770509428" lon="11.764384936809275"><ele>261.5</ele><time>2026-04-21T16:27:43Z</time></trkpt><trkpt lat="43.35248706295838" lon="11.764358754558188"><ele>262.0</ele><time>2026-04-21T16:27:44Z</time></trkpt><trkpt lat="43.3522261391848" lon="11.764329899900131"><ele>264.0</ele><time>2026-04-21T16:27:45Z</time></trkpt><trkpt lat="43.351966006611015" lon="11.76429712489517"><ele>266.0</ele><time>2026-04-21T16:27:46Z</time></trkpt><trkpt lat="43.351705223397886" lon="11.764268288744155"><ele>266.0</ele><time>2026-04-21T16:27:47Z</time></trkpt><trkpt lat="43.35144287762143" lon="11.764248570079259"><ele>266.0</ele><time>2026-04-21T16:27:48Z</time></trkpt><trkpt lat="43.35117838076264" lon="11.764230233002845"><ele>265.0</ele><time>2026-04-21T16:27:49Z</time></trkpt><trkpt lat="43.35091284091943" lon="11.764205790721798"><ele>264.0</ele><time>2026-04-21T16:27:50Z</time></trkpt><trkpt lat="43.35064642445979" lon="11.764182483838391"><ele>263.5</ele><time>2026-04-21T16:27:51Z</time></trkpt><trkpt lat="43.3503790346201" lon="11.76415954175269"><ele>263.0</ele><time>2026-04-21T16:27:52Z</time></trkpt><trkpt lat="43.3501108897619" lon="11.764139437626161"><ele>263.0</ele><time>2026-04-21T16:27:53Z</time></trkpt><trkpt lat="43.34984487139136" lon="11.76411573520871"><ele>263.0</ele><time>2026-04-21T16:27:54Z</time></trkpt><trkpt lat="43.34957256243042" lon="11.764091992025918"><ele>263.0</ele><time>2026-04-21T16:27:55Z</time></trkpt><trkpt lat="43.349304239235465" lon="11.764063335760477"><ele>263.0</ele><time>2026-04-21T16:27:56Z</time></trkpt><trkpt lat="43.34903516965135" lon="11.764032477177095"><ele>262.0</ele><time>2026-04-21T16:27:57Z</time></trkpt><trkpt lat="43.34876540954843" lon="11.76400367751762"><ele>261.0</ele><time>2026-04-21T16:27:58Z</time></trkpt><trkpt lat="43.3484965328109" lon="11.76398145413171"><ele>261.0</ele><time>2026-04-21T16:27:59Z</time></trkpt><trkpt lat="43.34822689758893" lon="11.76395714605943"><ele>261.0</ele><time>2026-04-21T16:28:00Z</time></trkpt><trkpt lat="43.347956230943986" lon="11.763931680807616"><ele>260.5</ele><time>2026-04-21T16:28:01Z</time></trkpt><trkpt lat="43.347685693548684" lon="11.763910080873583"><ele>260.0</ele><time>2026-04-21T16:28:02Z</time></trkpt><trkpt lat="43.34741693666299" lon="11.763890946931896"><ele>260.0</ele><time>2026-04-21T16:28:03Z</time></trkpt><trkpt lat="43.347148573937304" lon="11.763870542722929"><ele>260.0</ele><time>2026-04-21T16:28:04Z</time></trkpt><trkpt lat="43.346882864477486" lon="11.763848955282752"><ele>260.0</ele><time>2026-04-21T16:28:05Z</time></trkpt><trkpt lat="43.346618619562996" lon="11.76382488104886"><ele>260.0</ele><time>2026-04-21T16:28:06Z</time></trkpt><trkpt lat="43.34635626051391" lon="11.763797466575287"><ele>260.5</ele><time>2026-04-21T16:28:07Z</time></trkpt><trkpt lat="43.34609741480325" lon="11.763767410699138"><ele>261.0</ele><time>2026-04-21T16:28:08Z</time></trkpt><trkpt lat="43.34584072122241" lon="11.763739314587832"><ele>261.0</ele><time>2026-04-21T16:28:09Z</time></trkpt><trkpt lat="43.34558193216368" lon="11.76371923167359"><ele>261.0</ele><time>2026-04-21T16:28:10Z</time></trkpt><trkpt lat="43.345319288319565" lon="11.763702480429048"><ele>260.0</ele><time>2026-04-21T16:28:11Z</time></trkpt><trkpt lat="43.345063989772605" lon="11.763693033373192"><ele>259.0</ele><time>2026-04-21T16:28:12Z</time></trkpt><trkpt lat="43.34479794766363" lon="11.763664242999917"><ele>260.0</ele><time>2026-04-21T16:28:13Z</time></trkpt><trkpt lat="43.344549368485836" lon="11.763642044670375"><ele>261.0</ele><time>2026-04-21T16:28:14Z</time></trkpt><trkpt lat="43.344295671109705" lon="11.763617214732786"><ele>261.0</ele><time>2026-04-21T16:28:15Z</time></trkpt><trkpt lat="43.344045103041026" lon="11.763591452017277"><ele>261.0</ele><time>2026-04-21T16:28:16Z</time></trkpt><trkpt lat="43.34379428498561" lon="11.763561293037187"><ele>260.5</ele><time>2026-04-21T16:28:17Z</time></trkpt><trkpt lat="43.34353975983452" lon="11.763534586685541"><ele>260.0</ele><time>2026-04-21T16:28:18Z</time></trkpt><trkpt lat="43.3432891080443" lon="11.763510565343276"><ele>260.0</ele><time>2026-04-21T16:28:19Z</time></trkpt><trkpt lat="43.343036679952164" lon="11.763484656400351"><ele>260.0</ele><time>2026-04-21T16:28:20Z</time></trkpt><trkpt lat="43.342784103162444" lon="11.76346270811764"><ele>260.0</ele><time>2026-04-21T16:28:21Z</time></trkpt><trkpt lat="43.34253627811051" lon="11.763439961065647"><ele>260.0</ele><time>2026-04-21T16:28:22Z</time></trkpt><trkpt lat="43.34228664022797" lon="11.763418116254051"><ele>261.0</ele><time>2026-04-21T16:28:23Z</time></trkpt><trkpt lat="43.34204272360433" lon="11.763399050450952"><ele>262.0</ele><time>2026-04-21T16:28:24Z</time></trkpt><trkpt lat="43.341817224537394" lon="11.763377829324035"><ele>262.0</ele><time>2026-04-21T16:28:25Z</time></trkpt><trkpt lat="43.34159612561476" lon="11.763353686136046"><ele>262.0</ele><time>2026-04-21T16:28:26Z</time></trkpt><trkpt lat="43.341363496023305" lon="11.76333024090004"><ele>261.5</ele><time>2026-04-21T16:28:27Z</time></trkpt><trkpt lat="43.3411300216376" lon="11.763309022337708"><ele>261.0</ele><time>2026-04-21T16:28:28Z</time></trkpt><trkpt lat="43.340899108971605" lon="11.763289647737512"><ele>261.0</ele><time>2026-04-21T16:28:29Z</time></trkpt><trkpt lat="43.34066502127065" lon="11.763273522122214"><ele>261.0</ele><time>2026-04-21T16:28:30Z</time></trkpt><trkpt lat="43.34042442087142" lon="11.763257434991425"><ele>261.5</ele><time>2026-04-21T16:28:31Z</time></trkpt><trkpt lat="43.34018040784574" lon="11.763238868909857"><ele>262.0</ele><time>2026-04-21T16:28:32Z</time></trkpt><trkpt lat="43.33993447057381" lon="11.763217652077756"><ele>263.0</ele><time>2026-04-21T16:28:33Z</time></trkpt><trkpt lat="43.33968225505646" lon="11.763196705271268"><ele>264.0</ele><time>2026-04-21T16:28:34Z</time></trkpt><trkpt lat="43.33943400120561" lon="11.763172642220526"><ele>264.0</ele><time>2026-04-21T16:28:35Z</time></trkpt><trkpt lat="43.33918945455524" lon="11.763148078682143"><ele>264.0</ele><time>2026-04-21T16:28:36Z</time></trkpt><trkpt lat="43.338952710574794" lon="11.763126672688303"><ele>264.5</ele><time>2026-04-21T16:28:37Z</time></trkpt><trkpt lat="43.33870838223236" lon="11.763109072420391"><ele>265.0</ele><time>2026-04-21T16:28:38Z</time></trkpt><trkpt lat="43.33845568203711" lon="11.763095446695838"><ele>265.0</ele><time>2026-04-21T16:28:39Z</time></trkpt><trkpt lat="43.3381980866638" lon="11.763084964174226"><ele>265.0</ele><time>2026-04-21T16:28:40Z</time></trkpt><trkpt lat="43.33793853940495" lon="11.763072160576856"><ele>266.5</ele><time>2026-04-21T16:28:41Z</time></trkpt><trkpt lat="43.33767753095192" lon="11.763053227860192"><ele>268.0</ele><time>2026-04-21T16:28:42Z</time></trkpt><trkpt lat="43.33741449047152" lon="11.763027405649183"><ele>268.5</ele><time>2026-04-21T16:28:43Z</time></trkpt><trkpt lat="43.33715294852148" lon="11.763000528656999"><ele>269.0</ele><time>2026-04-21T16:28:44Z</time></trkpt><trkpt lat="43.33689107156731" lon="11.762974407440286"><ele>269.0</ele><time>2026-04-21T16:28:45Z</time></trkpt><trkpt lat="43.336627719287726" lon="11.762952650853519"><ele>269.0</ele><time>2026-04-21T16:28:46Z</time></trkpt><trkpt lat="43.33636280442606" lon="11.762942200338061"><ele>269.5</ele><time>2026-04-21T16:28:47Z</time></trkpt><trkpt lat="43.33610386883272" lon="11.762907129726871"><ele>270.0</ele><time>2026-04-21T16:28:48Z</time></trkpt><trkpt lat="43.33584349212505" lon="11.762874667851477"><ele>270.0</ele><time>2026-04-21T16:28:49Z</time></trkpt><trkpt lat="43.33558565067578" lon="11.762855365745795"><ele>270.0</ele><time>2026-04-21T16:28:50Z</time></trkpt><trkpt lat="43.335333556927054" lon="11.76283210203075"><ele>271.5</ele><time>2026-04-21T16:28:51Z</time></trkpt><trkpt lat="43.33508124239096" lon="11.762809277885454"><ele>273.0</ele><time>2026-04-21T16:28:52Z</time></trkpt><trkpt lat="43.33482984946611" lon="11.762783200518664"><ele>275.0</ele><time>2026-04-21T16:28:53Z</time></trkpt><trkpt lat="43.33457937617189" lon="11.76275875747152"><ele>277.0</ele><time>2026-04-21T16:28:54Z</time></trkpt><trkpt lat="43.33433014156716" lon="11.76273751536764"><ele>277.0</ele><time>2026-04-21T16:28:55Z</time></trkpt><trkpt lat="43.33407972500655" lon="11.762720101662495"><ele>277.0</ele><time>2026-04-21T16:28:56Z</time></trkpt><trkpt lat="43.333825049888475" lon="11.762697663794468"><ele>279.0</ele><time>2026-04-21T16:28:57Z</time></trkpt><trkpt lat="43.33357182686162" lon="11.762673358685653"><ele>281.0</ele><time>2026-04-21T16:28:58Z</time></trkpt><trkpt lat="43.33331410557039" lon="11.762645897217089"><ele>280.0</ele><time>2026-04-21T16:28:59Z</time></trkpt><trkpt lat="43.33305404041578" lon="11.762620105962839"><ele>279.0</ele><time>2026-04-21T16:29:00Z</time></trkpt><trkpt lat="43.33279634159571" lon="11.762595133117427"><ele>279.0</ele><time>2026-04-21T16:29:01Z</time></trkpt><trkpt lat="43.33253455672105" lon="11.762574962225118"><ele>279.0</ele><time>2026-04-21T16:29:02Z</time></trkpt><trkpt lat="43.332269373761214" lon="11.762555243626762"><ele>275.5</ele><time>2026-04-21T16:29:03Z</time></trkpt><trkpt lat="43.33200295467915" lon="11.762534502849412"><ele>272.0</ele><time>2026-04-21T16:29:04Z</time></trkpt><trkpt lat="43.33173423882821" lon="11.76251271683082"><ele>272.0</ele><time>2026-04-21T16:29:05Z</time></trkpt><trkpt lat="43.33146460715197" lon="11.762485418684518"><ele>272.0</ele><time>2026-04-21T16:29:06Z</time></trkpt><trkpt lat="43.33119456253551" lon="11.762459267346408"><ele>270.5</ele><time>2026-04-21T16:29:07Z</time></trkpt><trkpt lat="43.330924357823356" lon="11.762433306863233"><ele>269.0</ele><time>2026-04-21T16:29:08Z</time></trkpt><trkpt lat="43.330654152672544" lon="11.762412318609634"><ele>267.0</ele><time>2026-04-21T16:29:09Z</time></trkpt><trkpt lat="43.33038062176881" lon="11.762389273930431"><ele>265.0</ele><time>2026-04-21T16:29:10Z</time></trkpt><trkpt lat="43.3301087811249" lon="11.762364798988477"><ele>265.0</ele><time>2026-04-21T16:29:11Z</time></trkpt><trkpt lat="43.329838511628374" lon="11.762341176364968"><ele>265.0</ele><time>2026-04-21T16:29:12Z</time></trkpt><trkpt lat="43.3295720930953" lon="11.762318589354292"><ele>262.5</ele><time>2026-04-21T16:29:13Z</time></trkpt><trkpt lat="43.329299675043785" lon="11.762285779014475"><ele>260.0</ele><time>2026-04-21T16:29:14Z</time></trkpt><trkpt lat="43.329030425452615" lon="11.762252334026066"><ele>260.0</ele><time>2026-04-21T16:29:15Z</time></trkpt><trkpt lat="43.32875725632769" lon="11.762232908428853"><ele>260.0</ele><time>2026-04-21T16:29:16Z</time></trkpt><trkpt lat="43.32848769838493" lon="11.762208141799045"><ele>260.0</ele><time>2026-04-21T16:29:17Z</time></trkpt><trkpt lat="43.32822052731319" lon="11.762178145867669"><ele>260.0</ele><time>2026-04-21T16:29:18Z</time></trkpt><trkpt lat="43.32794642816215" lon="11.76214815979996"><ele>261.0</ele><time>2026-04-21T16:29:19Z</time></trkpt><trkpt lat="43.3276789045242" lon="11.762098270622344"><ele>262.0</ele><time>2026-04-21T16:29:20Z</time></trkpt><trkpt lat="43.32740501284361" lon="11.762075337788989"><ele>263.0</ele><time>2026-04-21T16:29:21Z</time></trkpt><trkpt lat="43.327136790172425" lon="11.762037730677855"><ele>264.0</ele><time>2026-04-21T16:29:22Z</time></trkpt><trkpt lat="43.32683083384542" lon="11.762030631511001"><ele>264.0</ele><time>2026-04-21T16:29:23Z</time></trkpt><trkpt lat="43.32654956307466" lon="11.761996201273744"><ele>264.0</ele><time>2026-04-21T16:29:24Z</time></trkpt><trkpt lat="43.326272246509724" lon="11.76196238023679"><ele>263.0</ele><time>2026-04-21T16:29:25Z</time></trkpt><trkpt lat="43.32601380133547" lon="11.761933539183941"><ele>262.0</ele><time>2026-04-21T16:29:26Z</time></trkpt><trkpt lat="43.32575507989484" lon="11.761910766463712"><ele>260.5</ele><time>2026-04-21T16:29:27Z</time></trkpt><trkpt lat="43.325497482095194" lon="11.761890956764994"><ele>259.0</ele><time>2026-04-21T16:29:28Z</time></trkpt><trkpt lat="43.32523606009404" lon="11.761875226127758"><ele>259.5</ele><time>2026-04-21T16:29:29Z</time></trkpt><trkpt lat="43.32497269195025" lon="11.761849494741591"><ele>260.0</ele><time>2026-04-21T16:29:30Z</time></trkpt><trkpt lat="43.3247068660853" lon="11.761828512426092"><ele>260.0</ele><time>2026-04-21T16:29:31Z</time></trkpt><trkpt lat="43.324437115854515" lon="11.761817818976638"><ele>260.0</ele><time>2026-04-21T16:29:32Z</time></trkpt><trkpt lat="43.3241579017204" lon="11.761808226533864"><ele>259.0</ele><time>2026-04-21T16:29:33Z</time></trkpt><trkpt lat="43.32388205413137" lon="11.761794545354295"><ele>258.0</ele><time>2026-04-21T16:29:34Z</time></trkpt><trkpt lat="43.32360131237357" lon="11.76176407170242"><ele>258.0</ele><time>2026-04-21T16:29:35Z</time></trkpt><trkpt lat="43.32331754195385" lon="11.761738044477813"><ele>258.0</ele><time>2026-04-21T16:29:36Z</time></trkpt><trkpt lat="43.32303399087137" lon="11.76170942663001"><ele>258.5</ele><time>2026-04-21T16:29:37Z</time></trkpt><trkpt lat="43.32275009144519" lon="11.761683015598"><ele>259.0</ele><time>2026-04-21T16:29:38Z</time></trkpt><trkpt lat="43.32246489475613" lon="11.761663630477443"><ele>260.0</ele><time>2026-04-21T16:29:39Z</time></trkpt><trkpt lat="43.32218115527714" lon="11.761630324954227"><ele>261.0</ele><time>2026-04-21T16:29:40Z</time></trkpt><trkpt lat="43.32188857951848" lon="11.761603281714091"><ele>261.0</ele><time>2026-04-21T16:29:41Z</time></trkpt><trkpt lat="43.321598946401615" lon="11.761567784809582"><ele>261.0</ele><time>2026-04-21T16:29:42Z</time></trkpt><trkpt lat="43.321310244373144" lon="11.761547590665687"><ele>259.5</ele><time>2026-04-21T16:29:43Z</time></trkpt><trkpt lat="43.32101895352373" lon="11.761532673138237"><ele>258.0</ele><time>2026-04-21T16:29:44Z</time></trkpt><trkpt lat="43.320729445096376" lon="11.761505684405885"><ele>259.0</ele><time>2026-04-21T16:29:45Z</time></trkpt><trkpt lat="43.32043750253849" lon="11.761475044606192"><ele>260.0</ele><time>2026-04-21T16:29:46Z</time></trkpt><trkpt lat="43.32014778672682" lon="11.761447002494558"><ele>260.0</ele><time>2026-04-21T16:29:47Z</time></trkpt><trkpt lat="43.31985815944433" lon="11.761423126137231"><ele>260.0</ele><time>2026-04-21T16:29:48Z</time></trkpt><trkpt lat="43.31956941671486" lon="11.761394918408344"><ele>259.5</ele><time>2026-04-21T16:29:49Z</time></trkpt><trkpt lat="43.319281594097504" lon="11.761363506370639"><ele>259.0</ele><time>2026-04-21T16:29:50Z</time></trkpt><trkpt lat="43.31899434657224" lon="11.761340913689368"><ele>258.5</ele><time>2026-04-21T16:29:51Z</time></trkpt><trkpt lat="43.31870682023502" lon="11.761324039629683"><ele>258.0</ele><time>2026-04-21T16:29:52Z</time></trkpt><trkpt lat="43.31841971567145" lon="11.761299012463178"><ele>258.0</ele><time>2026-04-21T16:29:53Z</time></trkpt><trkpt lat="43.31813304637977" lon="11.761281021293806"><ele>258.0</ele><time>2026-04-21T16:29:54Z</time></trkpt><trkpt lat="43.31784606213847" lon="11.761273494440909"><ele>258.0</ele><time>2026-04-21T16:29:55Z</time></trkpt><trkpt lat="43.317560897513324" lon="11.761268741670253"><ele>258.0</ele><time>2026-04-21T16:29:56Z</time></trkpt><trkpt lat="43.31727392045673" lon="11.761266208165829"><ele>258.0</ele><time>2026-04-21T16:29:57Z</time></trkpt><trkpt lat="43.316985535585566" lon="11.761267489068144"><ele>258.0</ele><time>2026-04-21T16:29:58Z</time></trkpt><trkpt lat="43.31669697003657" lon="11.761272418139749"><ele>258.0</ele><time>2026-04-21T16:29:59Z</time></trkpt><trkpt lat="43.31640743938962" lon="11.761276367572398"><ele>258.0</ele><time>2026-04-21T16:30:00Z</time></trkpt><trkpt lat="43.316117513698785" lon="11.761282483221795"><ele>258.0</ele><time>2026-04-21T16:30:01Z</time></trkpt><trkpt lat="43.315829890290715" lon="11.761291032790016"><ele>258.0</ele><time>2026-04-21T16:30:02Z</time></trkpt><trkpt lat="43.31553844377881" lon="11.761304349539294"><ele>258.0</ele><time>2026-04-21T16:30:03Z</time></trkpt><trkpt lat="43.31525321076812" lon="11.761321380091525"><ele>258.0</ele><time>2026-04-21T16:30:04Z</time></trkpt><trkpt lat="43.31496755546196" lon="11.76134135545663"><ele>258.0</ele><time>2026-04-21T16:30:05Z</time></trkpt><trkpt lat="43.31468351352874" lon="11.761362039853891"><ele>258.0</ele><time>2026-04-21T16:30:06Z</time></trkpt><trkpt lat="43.31439841698996" lon="11.761388868204307"><ele>258.0</ele><time>2026-04-21T16:30:07Z</time></trkpt><trkpt lat="43.314113077789656" lon="11.761417407706364"><ele>258.0</ele><time>2026-04-21T16:30:08Z</time></trkpt><trkpt lat="43.31382974411572" lon="11.761450217576266"><ele>257.5</ele><time>2026-04-21T16:30:09Z</time></trkpt><trkpt lat="43.313549201503996" lon="11.761483869787266"><ele>257.0</ele><time>2026-04-21T16:30:10Z</time></trkpt><trkpt lat="43.31326247242152" lon="11.76151399572779"><ele>257.0</ele><time>2026-04-21T16:30:11Z</time></trkpt><trkpt lat="43.31297954692458" lon="11.76153605497643"><ele>257.0</ele><time>2026-04-21T16:30:12Z</time></trkpt><trkpt lat="43.312696243589265" lon="11.761559695588808"><ele>257.0</ele><time>2026-04-21T16:30:13Z</time></trkpt><trkpt lat="43.31241522548238" lon="11.761585426804961"><ele>257.0</ele><time>2026-04-21T16:30:14Z</time></trkpt><trkpt lat="43.312134308468856" lon="11.761609526402092"><ele>258.0</ele><time>2026-04-21T16:30:15Z</time></trkpt><trkpt lat="43.3118540059171" lon="11.761636190770005"><ele>259.0</ele><time>2026-04-21T16:30:16Z</time></trkpt><trkpt lat="43.31157137623851" lon="11.761662951366048"><ele>258.5</ele><time>2026-04-21T16:30:17Z</time></trkpt><trkpt lat="43.31128905220685" lon="11.7616928314684"><ele>258.0</ele><time>2026-04-21T16:30:18Z</time></trkpt><trkpt lat="43.31100792618309" lon="11.761721268501166"><ele>258.0</ele><time>2026-04-21T16:30:19Z</time></trkpt><trkpt lat="43.31072321522767" lon="11.761751706337144"><ele>258.0</ele><time>2026-04-21T16:30:20Z</time></trkpt><trkpt lat="43.31043844521713" lon="11.761776833949481"><ele>258.0</ele><time>2026-04-21T16:30:21Z</time></trkpt><trkpt lat="43.310153124864556" lon="11.761805291388"><ele>258.0</ele><time>2026-04-21T16:30:22Z</time></trkpt><trkpt lat="43.3098675085435" lon="11.761834322710204"><ele>258.0</ele><time>2026-04-21T16:30:23Z</time></trkpt><trkpt lat="43.30957901378329" lon="11.76186375305446"><ele>258.0</ele><time>2026-04-21T16:30:24Z</time></trkpt><trkpt lat="43.30929246983388" lon="11.761890659760244"><ele>258.5</ele><time>2026-04-21T16:30:25Z</time></trkpt><trkpt lat="43.30900470053843" lon="11.7619224923937"><ele>259.0</ele><time>2026-04-21T16:30:26Z</time></trkpt><trkpt lat="43.30871755536767" lon="11.76195401045745"><ele>258.0</ele><time>2026-04-21T16:30:27Z</time></trkpt><trkpt lat="43.308439534266405" lon="11.76198437300791"><ele>257.0</ele><time>2026-04-21T16:30:28Z</time></trkpt><trkpt lat="43.30816335252636" lon="11.762012751127227"><ele>257.5</ele><time>2026-04-21T16:30:29Z</time></trkpt><trkpt lat="43.307884167165504" lon="11.762041847918676"><ele>258.0</ele><time>2026-04-21T16:30:30Z</time></trkpt><trkpt lat="43.30760704426542" lon="11.762062712204225"><ele>258.0</ele><time>2026-04-21T16:30:31Z</time></trkpt><trkpt lat="43.307328772127406" lon="11.762091828488304"><ele>258.0</ele><time>2026-04-21T16:30:32Z</time></trkpt><trkpt lat="43.30705147256484" lon="11.76211700587197"><ele>257.5</ele><time>2026-04-21T16:30:33Z</time></trkpt><trkpt lat="43.30678022478237" lon="11.762146997688637"><ele>257.0</ele><time>2026-04-21T16:30:34Z</time></trkpt><trkpt lat="43.306512163163305" lon="11.762174142096292"><ele>257.5</ele><time>2026-04-21T16:30:35Z</time></trkpt><trkpt lat="43.30624533990471" lon="11.762207380429667"><ele>258.0</ele><time>2026-04-21T16:30:36Z</time></trkpt><trkpt lat="43.30597488010322" lon="11.762233713849866"><ele>258.0</ele><time>2026-04-21T16:30:37Z</time></trkpt><trkpt lat="43.305703935350856" lon="11.76225729125976"><ele>258.0</ele><time>2026-04-21T16:30:38Z</time></trkpt><trkpt lat="43.305435383949444" lon="11.76227602292285"><ele>258.0</ele><time>2026-04-21T16:30:39Z</time></trkpt><trkpt lat="43.3051681193884" lon="11.76229623086489"><ele>258.0</ele><time>2026-04-21T16:30:40Z</time></trkpt><trkpt lat="43.304898177306804" lon="11.762321115852382"><ele>258.0</ele><time>2026-04-21T16:30:41Z</time></trkpt><trkpt lat="43.30462977549024" lon="11.762346812698315"><ele>258.0</ele><time>2026-04-21T16:30:42Z</time></trkpt><trkpt lat="43.3043636969297" lon="11.762368514807438"><ele>258.0</ele><time>2026-04-21T16:30:43Z</time></trkpt><trkpt lat="43.30409603242371" lon="11.762387887566447"><ele>258.0</ele><time>2026-04-21T16:30:44Z</time></trkpt><trkpt lat="43.30383184623917" lon="11.762403380297927"><ele>258.5</ele><time>2026-04-21T16:30:45Z</time></trkpt><trkpt lat="43.30356771902245" lon="11.76242103674285"><ele>259.0</ele><time>2026-04-21T16:30:46Z</time></trkpt><trkpt lat="43.30330436739045" lon="11.762441092155536"><ele>258.0</ele><time>2026-04-21T16:30:47Z</time></trkpt><trkpt lat="43.30304160864143" lon="11.762464373919576"><ele>257.0</ele><time>2026-04-21T16:30:48Z</time></trkpt><trkpt lat="43.30277785682624" lon="11.762492306580032"><ele>257.0</ele><time>2026-04-21T16:30:49Z</time></trkpt><trkpt lat="43.30251619588971" lon="11.762517646076557"><ele>257.0</ele><time>2026-04-21T16:30:50Z</time></trkpt><trkpt lat="43.30225233756405" lon="11.762542470688354"><ele>257.5</ele><time>2026-04-21T16:30:51Z</time></trkpt><trkpt lat="43.30198960528244" lon="11.762570419502582"><ele>258.0</ele><time>2026-04-21T16:30:52Z</time></trkpt><trkpt lat="43.30172478576204" lon="11.762601068491715"><ele>258.0</ele><time>2026-04-21T16:30:53Z</time></trkpt><trkpt lat="43.3014607956706" lon="11.762627137143856"><ele>258.0</ele><time>2026-04-21T16:30:54Z</time></trkpt><trkpt lat="43.30119513111293" lon="11.762651043200336"><ele>258.5</ele><time>2026-04-21T16:30:55Z</time></trkpt><trkpt lat="43.30093342164742" lon="11.762675270683818"><ele>259.0</ele><time>2026-04-21T16:30:56Z</time></trkpt><trkpt lat="43.300667087101004" lon="11.76269803797615"><ele>259.0</ele><time>2026-04-21T16:30:57Z</time></trkpt><trkpt lat="43.300400867101104" lon="11.762726119295692"><ele>259.0</ele><time>2026-04-21T16:30:58Z</time></trkpt><trkpt lat="43.30013529899367" lon="11.762756305249324"><ele>259.0</ele><time>2026-04-21T16:30:59Z</time></trkpt><trkpt lat="43.299870413138876" lon="11.76278888423533"><ele>259.0</ele><time>2026-04-21T16:31:00Z</time></trkpt><trkpt lat="43.29960304774783" lon="11.762823950662316"><ele>259.0</ele><time>2026-04-21T16:31:01Z</time></trkpt><trkpt lat="43.29933370041634" lon="11.762860459209238"><ele>259.0</ele><time>2026-04-21T16:31:02Z</time></trkpt><trkpt lat="43.299069031843736" lon="11.762895464341305"><ele>259.0</ele><time>2026-04-21T16:31:03Z</time></trkpt><trkpt lat="43.29880433291416" lon="11.762928057380375"><ele>259.0</ele><time>2026-04-21T16:31:04Z</time></trkpt><trkpt lat="43.29853599364289" lon="11.7629549298679"><ele>259.0</ele><time>2026-04-21T16:31:05Z</time></trkpt><trkpt lat="43.29826836895786" lon="11.762981199572188"><ele>259.0</ele><time>2026-04-21T16:31:06Z</time></trkpt><trkpt lat="43.29800173692337" lon="11.763007916621119"><ele>259.0</ele><time>2026-04-21T16:31:07Z</time></trkpt><trkpt lat="43.2977336698883" lon="11.763033886950758"><ele>259.0</ele><time>2026-04-21T16:31:08Z</time></trkpt><trkpt lat="43.29746639870983" lon="11.763059549875042"><ele>258.0</ele><time>2026-04-21T16:31:09Z</time></trkpt><trkpt lat="43.297198561519664" lon="11.763082817949007"><ele>257.0</ele><time>2026-04-21T16:31:10Z</time></trkpt><trkpt lat="43.29693181286378" lon="11.763106238416311"><ele>257.0</ele><time>2026-04-21T16:31:11Z</time></trkpt><trkpt lat="43.29666317327652" lon="11.763125452812796"><ele>257.0</ele><time>2026-04-21T16:31:12Z</time></trkpt><trkpt lat="43.29639358867054" lon="11.763138359288508"><ele>257.5</ele><time>2026-04-21T16:31:13Z</time></trkpt><trkpt lat="43.29612379062928" lon="11.763149749622409"><ele>258.0</ele><time>2026-04-21T16:31:14Z</time></trkpt><trkpt lat="43.29585471698532" lon="11.763167671527201"><ele>257.0</ele><time>2026-04-21T16:31:15Z</time></trkpt><trkpt lat="43.29558616413778" lon="11.763192966946963"><ele>256.0</ele><time>2026-04-21T16:31:16Z</time></trkpt><trkpt lat="43.29531530009037" lon="11.763224184597393"><ele>256.0</ele><time>2026-04-21T16:31:17Z</time></trkpt><trkpt lat="43.29504725633558" lon="11.763252712843766"><ele>256.0</ele><time>2026-04-21T16:31:18Z</time></trkpt><trkpt lat="43.29477503714471" lon="11.763280311118573"><ele>256.5</ele><time>2026-04-21T16:31:19Z</time></trkpt><trkpt lat="43.29450329129017" lon="11.763307060268497"><ele>257.0</ele><time>2026-04-21T16:31:20Z</time></trkpt><trkpt lat="43.29423267048676" lon="11.76333309876347"><ele>257.0</ele><time>2026-04-21T16:31:21Z</time></trkpt><trkpt lat="43.29396050648814" lon="11.763360761434441"><ele>257.0</ele><time>2026-04-21T16:31:22Z</time></trkpt><trkpt lat="43.29368730569427" lon="11.763388568723611"><ele>257.5</ele><time>2026-04-21T16:31:23Z</time></trkpt><trkpt lat="43.293415991051475" lon="11.763414680221526"><ele>258.0</ele><time>2026-04-21T16:31:24Z</time></trkpt><trkpt lat="43.29314001136836" lon="11.763442148359106"><ele>257.5</ele><time>2026-04-21T16:31:25Z</time></trkpt><trkpt lat="43.292862018378656" lon="11.763467613769162"><ele>257.0</ele><time>2026-04-21T16:31:26Z</time></trkpt><trkpt lat="43.29258334453909" lon="11.763495479208938"><ele>257.0</ele><time>2026-04-21T16:31:27Z</time></trkpt><trkpt lat="43.29230733851936" lon="11.763517827331206"><ele>257.0</ele><time>2026-04-21T16:31:28Z</time></trkpt><trkpt lat="43.29203078324635" lon="11.763541966294428"><ele>256.5</ele><time>2026-04-21T16:31:29Z</time></trkpt><trkpt lat="43.29175401782579" lon="11.763571756281634"><ele>256.0</ele><time>2026-04-21T16:31:30Z</time></trkpt><trkpt lat="43.291476684040376" lon="11.763606129407995"><ele>255.5</ele><time>2026-04-21T16:31:31Z</time></trkpt><trkpt lat="43.291196694832045" lon="11.763641875558893"><ele>255.0</ele><time>2026-04-21T16:31:32Z</time></trkpt><trkpt lat="43.290913745492325" lon="11.763676269828604"><ele>255.0</ele><time>2026-04-21T16:31:33Z</time></trkpt><trkpt lat="43.29063202440556" lon="11.76370731970486"><ele>255.0</ele><time>2026-04-21T16:31:34Z</time></trkpt><trkpt lat="43.290349648925485" lon="11.763746391749594"><ele>255.5</ele><time>2026-04-21T16:31:35Z</time></trkpt><trkpt lat="43.29006845415364" lon="11.763794085588748"><ele>256.0</ele><time>2026-04-21T16:31:36Z</time></trkpt><trkpt lat="43.28978696010959" lon="11.763848926028935"><ele>256.5</ele><time>2026-04-21T16:31:37Z</time></trkpt><trkpt lat="43.28950470254455" lon="11.76390133142249"><ele>257.0</ele><time>2026-04-21T16:31:38Z</time></trkpt><trkpt lat="43.28922076181822" lon="11.763953910813497"><ele>257.0</ele><time>2026-04-21T16:31:39Z</time></trkpt><trkpt lat="43.28893886999582" lon="11.764009441999287"><ele>257.0</ele><time>2026-04-21T16:31:40Z</time></trkpt><trkpt lat="43.288657845556955" lon="11.764072740503696"><ele>257.0</ele><time>2026-04-21T16:31:41Z</time></trkpt><trkpt lat="43.28837466859769" lon="11.764138445997691"><ele>257.0</ele><time>2026-04-21T16:31:42Z</time></trkpt><trkpt lat="43.2880897387937" lon="11.764204978762285"><ele>257.5</ele><time>2026-04-21T16:31:43Z</time></trkpt><trkpt lat="43.28780812737095" lon="11.764278740632548"><ele>258.0</ele><time>2026-04-21T16:31:44Z</time></trkpt><trkpt lat="43.287527297594806" lon="11.764364107653916"><ele>257.0</ele><time>2026-04-21T16:31:45Z</time></trkpt><trkpt lat="43.28724262572263" lon="11.764449578539244"><ele>256.0</ele><time>2026-04-21T16:31:46Z</time></trkpt><trkpt lat="43.28695825465285" lon="11.764529933144509"><ele>256.0</ele><time>2026-04-21T16:31:47Z</time></trkpt><trkpt lat="43.286676032368874" lon="11.764612142958784"><ele>256.0</ele><time>2026-04-21T16:31:48Z</time></trkpt><trkpt lat="43.286392235848346" lon="11.764685716938658"><ele>256.5</ele><time>2026-04-21T16:31:49Z</time></trkpt><trkpt lat="43.28610822165077" lon="11.764759048795606"><ele>257.0</ele><time>2026-04-21T16:31:50Z</time></trkpt><trkpt lat="43.28582447311796" lon="11.764831892685937"><ele>256.5</ele><time>2026-04-21T16:31:51Z</time></trkpt><trkpt lat="43.285537372632966" lon="11.764903496055387"><ele>256.0</ele><time>2026-04-21T16:31:52Z</time></trkpt><trkpt lat="43.285251239118885" lon="11.76497968548535"><ele>256.0</ele><time>2026-04-21T16:31:53Z</time></trkpt><trkpt lat="43.284963778569505" lon="11.765061850247156"><ele>256.0</ele><time>2026-04-21T16:31:54Z</time></trkpt><trkpt lat="43.28467582946834" lon="11.765144487845593"><ele>256.5</ele><time>2026-04-21T16:31:55Z</time></trkpt><trkpt lat="43.284390354622374" lon="11.76522707272716"><ele>257.0</ele><time>2026-04-21T16:31:56Z</time></trkpt><trkpt lat="43.28411484200482" lon="11.765289159830504"><ele>257.5</ele><time>2026-04-21T16:31:57Z</time></trkpt><trkpt lat="43.28383796719807" lon="11.76536414946053"><ele>258.0</ele><time>2026-04-21T16:31:58Z</time></trkpt><trkpt lat="43.283562751271894" lon="11.765435861774433"><ele>258.0</ele><time>2026-04-21T16:31:59Z</time></trkpt><trkpt lat="43.28328078138545" lon="11.765516094595279"><ele>258.0</ele><time>2026-04-21T16:32:00Z</time></trkpt><trkpt lat="43.283000391182355" lon="11.765602040005048"><ele>258.5</ele><time>2026-04-21T16:32:01Z</time></trkpt><trkpt lat="43.282718039357405" lon="11.765686550252212"><ele>259.0</ele><time>2026-04-21T16:32:02Z</time></trkpt><trkpt lat="43.28243730117329" lon="11.765762828631676"><ele>260.0</ele><time>2026-04-21T16:32:03Z</time></trkpt><trkpt lat="43.28215513566823" lon="11.765840645461259"><ele>261.0</ele><time>2026-04-21T16:32:04Z</time></trkpt><trkpt lat="43.281869459275384" lon="11.76591955813544"><ele>261.0</ele><time>2026-04-21T16:32:05Z</time></trkpt><trkpt lat="43.281581805698075" lon="11.765992996665794"><ele>261.0</ele><time>2026-04-21T16:32:06Z</time></trkpt><trkpt lat="43.281292625197224" lon="11.766065373017286"><ele>259.0</ele><time>2026-04-21T16:32:07Z</time></trkpt><trkpt lat="43.28100773415001" lon="11.766143510668657"><ele>257.0</ele><time>2026-04-21T16:32:08Z</time></trkpt><trkpt lat="43.28071982190509" lon="11.766220756025833"><ele>257.0</ele><time>2026-04-21T16:32:09Z</time></trkpt><trkpt lat="43.28043704235789" lon="11.766287105643093"><ele>257.0</ele><time>2026-04-21T16:32:10Z</time></trkpt><trkpt lat="43.28015721706525" lon="11.766375482354286"><ele>257.0</ele><time>2026-04-21T16:32:11Z</time></trkpt><trkpt lat="43.279880524156994" lon="11.766459250191463"><ele>257.0</ele><time>2026-04-21T16:32:12Z</time></trkpt><trkpt lat="43.279599522170095" lon="11.766541570802666"><ele>257.0</ele><time>2026-04-21T16:32:13Z</time></trkpt><trkpt lat="43.279329127630554" lon="11.766606899313746"><ele>257.0</ele><time>2026-04-21T16:32:14Z</time></trkpt><trkpt lat="43.279067231597374" lon="11.766677175536783"><ele>257.5</ele><time>2026-04-21T16:32:15Z</time></trkpt><trkpt lat="43.278799682944076" lon="11.7667474285649"><ele>258.0</ele><time>2026-04-21T16:32:16Z</time></trkpt><trkpt lat="43.27853371231704" lon="11.76682246338665"><ele>257.0</ele><time>2026-04-21T16:32:17Z</time></trkpt><trkpt lat="43.27827233351805" lon="11.766900646324213"><ele>256.0</ele><time>2026-04-21T16:32:18Z</time></trkpt><trkpt lat="43.27801208321077" lon="11.76697205878554"><ele>255.5</ele><time>2026-04-21T16:32:19Z</time></trkpt><trkpt lat="43.27774853383073" lon="11.767044329769844"><ele>255.0</ele><time>2026-04-21T16:32:20Z</time></trkpt><trkpt lat="43.277488997052245" lon="11.767113019925047"><ele>256.0</ele><time>2026-04-21T16:32:21Z</time></trkpt><trkpt lat="43.27722840761267" lon="11.767182840369903"><ele>257.0</ele><time>2026-04-21T16:32:22Z</time></trkpt><trkpt lat="43.27696359213378" lon="11.767253121653368"><ele>257.0</ele><time>2026-04-21T16:32:23Z</time></trkpt><trkpt lat="43.27669933675899" lon="11.767325566551856"><ele>257.0</ele><time>2026-04-21T16:32:24Z</time></trkpt><trkpt lat="43.276433747826985" lon="11.76739792236281"><ele>257.0</ele><time>2026-04-21T16:32:25Z</time></trkpt><trkpt lat="43.276163732806324" lon="11.767468144190497"><ele>257.0</ele><time>2026-04-21T16:32:26Z</time></trkpt><trkpt lat="43.27589604686271" lon="11.767541558132551"><ele>257.0</ele><time>2026-04-21T16:32:27Z</time></trkpt><trkpt lat="43.27562673329523" lon="11.767617749413287"><ele>257.0</ele><time>2026-04-21T16:32:28Z</time></trkpt><trkpt lat="43.27535203641118" lon="11.767687754545081"><ele>257.5</ele><time>2026-04-21T16:32:29Z</time></trkpt><trkpt lat="43.27508006487244" lon="11.767759868535565"><ele>258.0</ele><time>2026-04-21T16:32:30Z</time></trkpt><trkpt lat="43.274809582967606" lon="11.767841221669798"><ele>259.0</ele><time>2026-04-21T16:32:31Z</time></trkpt><trkpt lat="43.27453963005578" lon="11.76791860071093"><ele>260.0</ele><time>2026-04-21T16:32:32Z</time></trkpt><trkpt lat="43.27426411791129" lon="11.767991109057638"><ele>260.0</ele><time>2026-04-21T16:32:33Z</time></trkpt><trkpt lat="43.27399393107412" lon="11.768061649830626"><ele>260.0</ele><time>2026-04-21T16:32:34Z</time></trkpt><trkpt lat="43.27372472529927" lon="11.768139864004016"><ele>259.0</ele><time>2026-04-21T16:32:35Z</time></trkpt><trkpt lat="43.27345540242359" lon="11.768211410002593"><ele>258.0</ele><time>2026-04-21T16:32:36Z</time></trkpt><trkpt lat="43.27318839923238" lon="11.768282156884794"><ele>258.0</ele><time>2026-04-21T16:32:37Z</time></trkpt><trkpt lat="43.272923150032994" lon="11.768353995135612"><ele>258.0</ele><time>2026-04-21T16:32:38Z</time></trkpt><trkpt lat="43.272655139408265" lon="11.768421373900107"><ele>258.0</ele><time>2026-04-21T16:32:39Z</time></trkpt><trkpt lat="43.27238875995441" lon="11.768487350405945"><ele>258.0</ele><time>2026-04-21T16:32:40Z</time></trkpt><trkpt lat="43.27212246311428" lon="11.768552191684552"><ele>257.0</ele><time>2026-04-21T16:32:41Z</time></trkpt><trkpt lat="43.27187373023838" lon="11.768603684676336"><ele>256.0</ele><time>2026-04-21T16:32:42Z</time></trkpt><trkpt lat="43.27163493882098" lon="11.768653671250267"><ele>256.0</ele><time>2026-04-21T16:32:43Z</time></trkpt><trkpt lat="43.2714007422544" lon="11.768720959825938"><ele>256.0</ele><time>2026-04-21T16:32:44Z</time></trkpt><trkpt lat="43.271165062357575" lon="11.76878759321979"><ele>256.0</ele><time>2026-04-21T16:32:45Z</time></trkpt><trkpt lat="43.27092723381886" lon="11.768851973192149"><ele>256.0</ele><time>2026-04-21T16:32:46Z</time></trkpt><trkpt lat="43.270690343909045" lon="11.768921606652919"><ele>257.5</ele><time>2026-04-21T16:32:47Z</time></trkpt><trkpt lat="43.270464093610066" lon="11.768981971672373"><ele>259.0</ele><time>2026-04-21T16:32:48Z</time></trkpt><trkpt lat="43.2702435285749" lon="11.769040287604883"><ele>259.0</ele><time>2026-04-21T16:32:49Z</time></trkpt><trkpt lat="43.27001428476385" lon="11.769113895389442"><ele>259.0</ele><time>2026-04-21T16:32:50Z</time></trkpt><trkpt lat="43.269774188612644" lon="11.769197650019743"><ele>261.5</ele><time>2026-04-21T16:32:51Z</time></trkpt><trkpt lat="43.269527361993084" lon="11.769273296491617"><ele>264.0</ele><time>2026-04-21T16:32:52Z</time></trkpt><trkpt lat="43.269274047329475" lon="11.769333020360161"><ele>264.5</ele><time>2026-04-21T16:32:53Z</time></trkpt><trkpt lat="43.269019235727946" lon="11.769373163447225"><ele>265.0</ele><time>2026-04-21T16:32:54Z</time></trkpt><trkpt lat="43.26875479169298" lon="11.769396119321963"><ele>265.0</ele><time>2026-04-21T16:32:55Z</time></trkpt><trkpt lat="43.26849697997254" lon="11.769406735165004"><ele>265.0</ele><time>2026-04-21T16:32:56Z</time></trkpt><trkpt lat="43.268245663990434" lon="11.769398916098888"><ele>262.0</ele><time>2026-04-21T16:32:57Z</time></trkpt><trkpt lat="43.26798926643428" lon="11.769373283694465"><ele>259.0</ele><time>2026-04-21T16:32:58Z</time></trkpt><trkpt lat="43.267739049122724" lon="11.769333584698815"><ele>259.0</ele><time>2026-04-21T16:32:59Z</time></trkpt><trkpt lat="43.26748528818104" lon="11.769290003958714"><ele>259.0</ele><time>2026-04-21T16:33:00Z</time></trkpt><trkpt lat="43.26722697145047" lon="11.769235273709821"><ele>256.0</ele><time>2026-04-21T16:33:01Z</time></trkpt><trkpt lat="43.26696759149372" lon="11.769175896015655"><ele>253.0</ele><time>2026-04-21T16:33:02Z</time></trkpt><trkpt lat="43.266711744857155" lon="11.769107193708399"><ele>253.0</ele><time>2026-04-21T16:33:03Z</time></trkpt><trkpt lat="43.26645448703417" lon="11.769023370907194"><ele>253.0</ele><time>2026-04-21T16:33:04Z</time></trkpt><trkpt lat="43.26619740254438" lon="11.768932114282775"><ele>253.0</ele><time>2026-04-21T16:33:05Z</time></trkpt><trkpt lat="43.26594167034728" lon="11.768827168923904"><ele>253.0</ele><time>2026-04-21T16:33:06Z</time></trkpt><trkpt lat="43.26568688929515" lon="11.768715269264332"><ele>253.0</ele><time>2026-04-21T16:33:07Z</time></trkpt><trkpt lat="43.26543163322098" lon="11.76859598367872"><ele>253.0</ele><time>2026-04-21T16:33:08Z</time></trkpt><trkpt lat="43.26517756518883" lon="11.768479271813689"><ele>253.0</ele><time>2026-04-21T16:33:09Z</time></trkpt><trkpt lat="43.26492175105628" lon="11.76836254283706"><ele>253.0</ele><time>2026-04-21T16:33:10Z</time></trkpt><trkpt lat="43.26466762026758" lon="11.768246353988387"><ele>252.5</ele><time>2026-04-21T16:33:11Z</time></trkpt><trkpt lat="43.26441136423603" lon="11.768128642304175"><ele>252.0</ele><time>2026-04-21T16:33:12Z</time></trkpt><trkpt lat="43.26415578183761" lon="11.768010090972966"><ele>252.0</ele><time>2026-04-21T16:33:13Z</time></trkpt><trkpt lat="43.26390701604643" lon="11.767897961759914"><ele>252.0</ele><time>2026-04-21T16:33:14Z</time></trkpt><trkpt lat="43.26365948544593" lon="11.767782297658874"><ele>253.5</ele><time>2026-04-21T16:33:15Z</time></trkpt><trkpt lat="43.26341036243282" lon="11.767672677936266"><ele>255.0</ele><time>2026-04-21T16:33:16Z</time></trkpt><trkpt lat="43.26316629098137" lon="11.767573243040575"><ele>254.5</ele><time>2026-04-21T16:33:17Z</time></trkpt><trkpt lat="43.262915840605935" lon="11.767487935907155"><ele>254.0</ele><time>2026-04-21T16:33:18Z</time></trkpt><trkpt lat="43.262655895671664" lon="11.767421982488182"><ele>254.0</ele><time>2026-04-21T16:33:19Z</time></trkpt><trkpt lat="43.26239480957064" lon="11.767374869043097"><ele>254.0</ele><time>2026-04-21T16:33:20Z</time></trkpt><trkpt lat="43.26212943177084" lon="11.767343970325078"><ele>254.0</ele><time>2026-04-21T16:33:21Z</time></trkpt><trkpt lat="43.26186576374657" lon="11.767326638545729"><ele>254.0</ele><time>2026-04-21T16:33:22Z</time></trkpt><trkpt lat="43.26160125462449" lon="11.767329149702807"><ele>254.5</ele><time>2026-04-21T16:33:23Z</time></trkpt><trkpt lat="43.26133953280866" lon="11.767348062242592"><ele>255.0</ele><time>2026-04-21T16:33:24Z</time></trkpt><trkpt lat="43.261075340251224" lon="11.767386489630889"><ele>255.0</ele><time>2026-04-21T16:33:25Z</time></trkpt><trkpt lat="43.260813555064935" lon="11.767445317233951"><ele>255.0</ele><time>2026-04-21T16:33:26Z</time></trkpt><trkpt lat="43.26055235539869" lon="11.767521911312626"><ele>254.0</ele><time>2026-04-21T16:33:27Z</time></trkpt><trkpt lat="43.260295724652636" lon="11.767612208591782"><ele>253.0</ele><time>2026-04-21T16:33:28Z</time></trkpt><trkpt lat="43.26003789130943" lon="11.767717322264941"><ele>253.0</ele><time>2026-04-21T16:33:29Z</time></trkpt><trkpt lat="43.259778803546986" lon="11.767821450081371"><ele>253.0</ele><time>2026-04-21T16:33:30Z</time></trkpt><trkpt lat="43.25951812919339" lon="11.76792246264264"><ele>253.0</ele><time>2026-04-21T16:33:31Z</time></trkpt><trkpt lat="43.25925548364471" lon="11.768020357574258"><ele>253.0</ele><time>2026-04-21T16:33:32Z</time></trkpt><trkpt lat="43.25899157345623" lon="11.768121987368056"><ele>253.5</ele><time>2026-04-21T16:33:33Z</time></trkpt><trkpt lat="43.25872897357872" lon="11.768220910549678"><ele>254.0</ele><time>2026-04-21T16:33:34Z</time></trkpt><trkpt lat="43.25846324442733" lon="11.768323937358312"><ele>254.0</ele><time>2026-04-21T16:33:35Z</time></trkpt><trkpt lat="43.25819304098305" lon="11.76842923769754"><ele>254.0</ele><time>2026-04-21T16:33:36Z</time></trkpt><trkpt lat="43.25792329439113" lon="11.768528338067883"><ele>253.5</ele><time>2026-04-21T16:33:37Z</time></trkpt><trkpt lat="43.257656548885755" lon="11.768626717563844"><ele>253.0</ele><time>2026-04-21T16:33:38Z</time></trkpt><trkpt lat="43.25739401049328" lon="11.768726785605024"><ele>252.0</ele><time>2026-04-21T16:33:39Z</time></trkpt><trkpt lat="43.25713318550828" lon="11.768827603298595"><ele>251.0</ele><time>2026-04-21T16:33:40Z</time></trkpt><trkpt lat="43.256873519961054" lon="11.768927815938286"><ele>251.0</ele><time>2026-04-21T16:33:41Z</time></trkpt><trkpt lat="43.256612099904814" lon="11.769024433175916"><ele>251.0</ele><time>2026-04-21T16:33:42Z</time></trkpt><trkpt lat="43.256350663208124" lon="11.769118970099743"><ele>252.5</ele><time>2026-04-21T16:33:43Z</time></trkpt><trkpt lat="43.25609232351414" lon="11.769221233178456"><ele>254.0</ele><time>2026-04-21T16:33:44Z</time></trkpt><trkpt lat="43.255833601349806" lon="11.769321475996856"><ele>253.0</ele><time>2026-04-21T16:33:45Z</time></trkpt><trkpt lat="43.25557617909577" lon="11.76942049256398"><ele>252.0</ele><time>2026-04-21T16:33:46Z</time></trkpt><trkpt lat="43.2553178785389" lon="11.769517208439646"><ele>252.0</ele><time>2026-04-21T16:33:47Z</time></trkpt><trkpt lat="43.255058071186475" lon="11.769613815918031"><ele>252.0</ele><time>2026-04-21T16:33:48Z</time></trkpt><trkpt lat="43.25479836866879" lon="11.769714292076184"><ele>252.0</ele><time>2026-04-21T16:33:49Z</time></trkpt><trkpt lat="43.25453731625467" lon="11.769820578727083"><ele>252.0</ele><time>2026-04-21T16:33:50Z</time></trkpt><trkpt lat="43.254275381903035" lon="11.769918277847731"><ele>252.0</ele><time>2026-04-21T16:33:51Z</time></trkpt><trkpt lat="43.25401501471037" lon="11.770016522824188"><ele>252.0</ele><time>2026-04-21T16:33:52Z</time></trkpt><trkpt lat="43.25375232968058" lon="11.770116766835"><ele>252.5</ele><time>2026-04-21T16:33:53Z</time></trkpt><trkpt lat="43.25349093516992" lon="11.77021549470285"><ele>253.0</ele><time>2026-04-21T16:33:54Z</time></trkpt><trkpt lat="43.253229683008584" lon="11.770319529685576"><ele>255.0</ele><time>2026-04-21T16:33:55Z</time></trkpt><trkpt lat="43.25296927499937" lon="11.770416589482103"><ele>257.0</ele><time>2026-04-21T16:33:56Z</time></trkpt><trkpt lat="43.252708458722985" lon="11.770516749829715"><ele>257.0</ele><time>2026-04-21T16:33:57Z</time></trkpt><trkpt lat="43.25244888154695" lon="11.77061551218512"><ele>257.0</ele><time>2026-04-21T16:33:58Z</time></trkpt><trkpt lat="43.252187310072934" lon="11.770714760324992"><ele>259.5</ele><time>2026-04-21T16:33:59Z</time></trkpt><trkpt lat="43.25191837758964" lon="11.770822616298677"><ele>262.0</ele><time>2026-04-21T16:34:00Z</time></trkpt><trkpt lat="43.251653406123665" lon="11.770921665105774"><ele>263.5</ele><time>2026-04-21T16:34:01Z</time></trkpt><trkpt lat="43.25138696548773" lon="11.771022956935875"><ele>265.0</ele><time>2026-04-21T16:34:02Z</time></trkpt><trkpt lat="43.25111647251857" lon="11.77112223304762"><ele>262.0</ele><time>2026-04-21T16:34:03Z</time></trkpt><trkpt lat="43.25085099103751" lon="11.771224580727536"><ele>259.0</ele><time>2026-04-21T16:34:04Z</time></trkpt><trkpt lat="43.25058498640979" lon="11.771327585059435"><ele>259.0</ele><time>2026-04-21T16:34:05Z</time></trkpt><trkpt lat="43.25032206908774" lon="11.771430756567579"><ele>259.0</ele><time>2026-04-21T16:34:06Z</time></trkpt><trkpt lat="43.250058066453164" lon="11.771535784991531"><ele>259.0</ele><time>2026-04-21T16:34:07Z</time></trkpt><trkpt lat="43.24979567240668" lon="11.771645008980997"><ele>259.0</ele><time>2026-04-21T16:34:08Z</time></trkpt><trkpt lat="43.249540320707396" lon="11.771758842589179"><ele>256.0</ele><time>2026-04-21T16:34:09Z</time></trkpt><trkpt lat="43.24928370952566" lon="11.771886856652095"><ele>253.0</ele><time>2026-04-21T16:34:10Z</time></trkpt><trkpt lat="43.24903340368035" lon="11.772034501675902"><ele>254.5</ele><time>2026-04-21T16:34:11Z</time></trkpt><trkpt lat="43.24878897104954" lon="11.772195925037773"><ele>256.0</ele><time>2026-04-21T16:34:12Z</time></trkpt><trkpt lat="43.24854414917305" lon="11.772366189988196"><ele>256.0</ele><time>2026-04-21T16:34:13Z</time></trkpt><trkpt lat="43.248298071987676" lon="11.772544492675225"><ele>256.0</ele><time>2026-04-21T16:34:14Z</time></trkpt><trkpt lat="43.24805839581751" lon="11.77272877400201"><ele>257.5</ele><time>2026-04-21T16:34:15Z</time></trkpt><trkpt lat="43.247827583490476" lon="11.77293192420373"><ele>259.0</ele><time>2026-04-21T16:34:16Z</time></trkpt><trkpt lat="43.247604457268984" lon="11.773140635968655"><ele>259.0</ele><time>2026-04-21T16:34:17Z</time></trkpt><trkpt lat="43.24738226492456" lon="11.773361192266503"><ele>259.0</ele><time>2026-04-21T16:34:18Z</time></trkpt><trkpt lat="43.247161544010524" lon="11.773584219537936"><ele>259.5</ele><time>2026-04-21T16:34:19Z</time></trkpt><trkpt lat="43.24694470948398" lon="11.773815877408913"><ele>260.0</ele><time>2026-04-21T16:34:20Z</time></trkpt><trkpt lat="43.246730645780154" lon="11.774052898173766"><ele>260.0</ele><time>2026-04-21T16:34:21Z</time></trkpt><trkpt lat="43.24651765153183" lon="11.774289755274664"><ele>260.0</ele><time>2026-04-21T16:34:22Z</time></trkpt><trkpt lat="43.246306400309244" lon="11.77452703205826"><ele>259.5</ele><time>2026-04-21T16:34:23Z</time></trkpt><trkpt lat="43.246092528452564" lon="11.774762000885138"><ele>259.0</ele><time>2026-04-21T16:34:24Z</time></trkpt><trkpt lat="43.24588110705256" lon="11.77499327839381"><ele>257.5</ele><time>2026-04-21T16:34:25Z</time></trkpt><trkpt lat="43.24566739945112" lon="11.775227261549622"><ele>256.0</ele><time>2026-04-21T16:34:26Z</time></trkpt><trkpt lat="43.24544882440323" lon="11.775461395796732"><ele>259.5</ele><time>2026-04-21T16:34:27Z</time></trkpt><trkpt lat="43.24523541038807" lon="11.775704548966573"><ele>263.0</ele><time>2026-04-21T16:34:28Z</time></trkpt><trkpt lat="43.245017407187206" lon="11.775939784877776"><ele>262.5</ele><time>2026-04-21T16:34:29Z</time></trkpt><trkpt lat="43.24480335466283" lon="11.77618357836069"><ele>262.0</ele><time>2026-04-21T16:34:30Z</time></trkpt><trkpt lat="43.244585688013366" lon="11.776433355432113"><ele>262.0</ele><time>2026-04-21T16:34:31Z</time></trkpt><trkpt lat="43.2443643567096" lon="11.77667550394385"><ele>262.0</ele><time>2026-04-21T16:34:32Z</time></trkpt><trkpt lat="43.24414723565547" lon="11.776920196311394"><ele>261.0</ele><time>2026-04-21T16:34:33Z</time></trkpt><trkpt lat="43.243927784297156" lon="11.77716515666197"><ele>260.0</ele><time>2026-04-21T16:34:34Z</time></trkpt><trkpt lat="43.24370233365723" lon="11.777405606398611"><ele>260.0</ele><time>2026-04-21T16:34:35Z</time></trkpt><trkpt lat="43.2434834490067" lon="11.777649879494007"><ele>260.0</ele><time>2026-04-21T16:34:36Z</time></trkpt><trkpt lat="43.24326592892823" lon="11.777904515958555"><ele>260.0</ele><time>2026-04-21T16:34:37Z</time></trkpt><trkpt lat="43.24304646901357" lon="11.77814931932397"><ele>260.0</ele><time>2026-04-21T16:34:38Z</time></trkpt><trkpt lat="43.242824531694716" lon="11.77839872629074"><ele>259.0</ele><time>2026-04-21T16:34:39Z</time></trkpt><trkpt lat="43.24260395912425" lon="11.778645738292354"><ele>258.0</ele><time>2026-04-21T16:34:40Z</time></trkpt><trkpt lat="43.242382064094414" lon="11.778890963189344"><ele>259.0</ele><time>2026-04-21T16:34:41Z</time></trkpt><trkpt lat="43.24215716368309" lon="11.779135503203255"><ele>260.0</ele><time>2026-04-21T16:34:42Z</time></trkpt><trkpt lat="43.24193950397927" lon="11.779382123398591"><ele>260.0</ele><time>2026-04-21T16:34:43Z</time></trkpt><trkpt lat="43.241716795357675" lon="11.779622779918045"><ele>260.0</ele><time>2026-04-21T16:34:44Z</time></trkpt><trkpt lat="43.2414918609448" lon="11.779869455716856"><ele>260.5</ele><time>2026-04-21T16:34:45Z</time></trkpt><trkpt lat="43.24126425243008" lon="11.780122861534803"><ele>261.0</ele><time>2026-04-21T16:34:46Z</time></trkpt><trkpt lat="43.24103988001191" lon="11.780366860496336"><ele>261.0</ele><time>2026-04-21T16:34:47Z</time></trkpt><trkpt lat="43.24081298511605" lon="11.780614584252856"><ele>261.0</ele><time>2026-04-21T16:34:48Z</time></trkpt><trkpt lat="43.240588026373814" lon="11.780859707504309"><ele>261.0</ele><time>2026-04-21T16:34:49Z</time></trkpt><trkpt lat="43.2403645431202" lon="11.781103716590907"><ele>261.0</ele><time>2026-04-21T16:34:50Z</time></trkpt><trkpt lat="43.24014251646574" lon="11.781349653486027"><ele>261.0</ele><time>2026-04-21T16:34:51Z</time></trkpt><trkpt lat="43.23991692439401" lon="11.781594991175103"><ele>261.0</ele><time>2026-04-21T16:34:52Z</time></trkpt><trkpt lat="43.23969300133848" lon="11.781852567549684"><ele>261.0</ele><time>2026-04-21T16:34:53Z</time></trkpt><trkpt lat="43.23946960124108" lon="11.782103364798854"><ele>261.0</ele><time>2026-04-21T16:34:54Z</time></trkpt><trkpt lat="43.239247225294505" lon="11.782349924302311"><ele>261.0</ele><time>2026-04-21T16:34:55Z</time></trkpt><trkpt lat="43.23902625065584" lon="11.782594845101668"><ele>261.0</ele><time>2026-04-21T16:34:56Z</time></trkpt><trkpt lat="43.238809373478595" lon="11.782848425820626"><ele>263.0</ele><time>2026-04-21T16:34:57Z</time></trkpt><trkpt lat="43.23858640209606" lon="11.783096983737048"><ele>265.0</ele><time>2026-04-21T16:34:58Z</time></trkpt><trkpt lat="43.238368671556614" lon="11.783342682598832"><ele>265.5</ele><time>2026-04-21T16:34:59Z</time></trkpt><trkpt lat="43.23814968604497" lon="11.783586017720467"><ele>266.0</ele><time>2026-04-21T16:35:00Z</time></trkpt><trkpt lat="43.23793369925263" lon="11.783834027476988"><ele>266.0</ele><time>2026-04-21T16:35:01Z</time></trkpt><trkpt lat="43.237727071048134" lon="11.784094512113697"><ele>266.0</ele><time>2026-04-21T16:35:02Z</time></trkpt><trkpt lat="43.237526853623564" lon="11.784365934999956"><ele>265.0</ele><time>2026-04-21T16:35:03Z</time></trkpt><trkpt lat="43.237325664136165" lon="11.784641343224157"><ele>264.0</ele><time>2026-04-21T16:35:04Z</time></trkpt><trkpt lat="43.23712419247361" lon="11.784917622098122"><ele>261.0</ele><time>2026-04-21T16:35:05Z</time></trkpt><trkpt lat="43.23692458983412" lon="11.785194175934231"><ele>258.0</ele><time>2026-04-21T16:35:06Z</time></trkpt><trkpt lat="43.23672869558371" lon="11.785471511402992"><ele>258.0</ele><time>2026-04-21T16:35:07Z</time></trkpt><trkpt lat="43.23653170682791" lon="11.785757203617349"><ele>258.0</ele><time>2026-04-21T16:35:08Z</time></trkpt><trkpt lat="43.236339536633395" lon="11.786041186758782"><ele>257.5</ele><time>2026-04-21T16:35:09Z</time></trkpt><trkpt lat="43.236147958659295" lon="11.78633081512224"><ele>257.0</ele><time>2026-04-21T16:35:10Z</time></trkpt><trkpt lat="43.235957180803666" lon="11.786622540286022"><ele>257.5</ele><time>2026-04-21T16:35:11Z</time></trkpt><trkpt lat="43.23576613367281" lon="11.786918103342922"><ele>258.0</ele><time>2026-04-21T16:35:12Z</time></trkpt><trkpt lat="43.23557422026929" lon="11.78721449251917"><ele>258.0</ele><time>2026-04-21T16:35:13Z</time></trkpt><trkpt lat="43.23538060131512" lon="11.787511910270965"><ele>258.0</ele><time>2026-04-21T16:35:14Z</time></trkpt><trkpt lat="43.235186597747465" lon="11.787803284255885"><ele>256.0</ele><time>2026-04-21T16:35:15Z</time></trkpt><trkpt lat="43.234991284161985" lon="11.78809957871615"><ele>254.0</ele><time>2026-04-21T16:35:16Z</time></trkpt><trkpt lat="43.23479769748022" lon="11.788394246648366"><ele>256.5</ele><time>2026-04-21T16:35:17Z</time></trkpt><trkpt lat="43.23460084720568" lon="11.788688124592182"><ele>259.0</ele><time>2026-04-21T16:35:18Z</time></trkpt><trkpt lat="43.23440124808747" lon="11.788972505529586"><ele>259.0</ele><time>2026-04-21T16:35:19Z</time></trkpt><trkpt lat="43.23420078483255" lon="11.789244691598535"><ele>259.0</ele><time>2026-04-21T16:35:20Z</time></trkpt><trkpt lat="43.234001392592994" lon="11.789504199824298"><ele>258.0</ele><time>2026-04-21T16:35:21Z</time></trkpt><trkpt lat="43.23379704198459" lon="11.789759920572685"><ele>257.0</ele><time>2026-04-21T16:35:22Z</time></trkpt><trkpt lat="43.23358616745867" lon="11.790003462341309"><ele>254.5</ele><time>2026-04-21T16:35:23Z</time></trkpt><trkpt lat="43.23337048239696" lon="11.790246400840351"><ele>252.0</ele><time>2026-04-21T16:35:24Z</time></trkpt><trkpt lat="43.23314790810282" lon="11.790484573614815"><ele>251.5</ele><time>2026-04-21T16:35:25Z</time></trkpt><trkpt lat="43.23292115613635" lon="11.790713584786912"><ele>251.0</ele><time>2026-04-21T16:35:26Z</time></trkpt><trkpt lat="43.23268803442326" lon="11.790939488058752"><ele>251.0</ele><time>2026-04-21T16:35:27Z</time></trkpt><trkpt lat="43.23245306277373" lon="11.791163112985906"><ele>251.0</ele><time>2026-04-21T16:35:28Z</time></trkpt><trkpt lat="43.23221363580236" lon="11.79138252171294"><ele>250.5</ele><time>2026-04-21T16:35:29Z</time></trkpt><trkpt lat="43.23197351187147" lon="11.791599140372401"><ele>250.0</ele><time>2026-04-21T16:35:30Z</time></trkpt><trkpt lat="43.23173438327731" lon="11.791806014866568"><ele>249.0</ele><time>2026-04-21T16:35:31Z</time></trkpt><trkpt lat="43.231490876993774" lon="11.792014969518092"><ele>248.0</ele><time>2026-04-21T16:35:32Z</time></trkpt><trkpt lat="43.23125335679533" lon="11.79222351429602"><ele>248.0</ele><time>2026-04-21T16:35:33Z</time></trkpt><trkpt lat="43.23101477452827" lon="11.792432470340264"><ele>248.0</ele><time>2026-04-21T16:35:34Z</time></trkpt><trkpt lat="43.23077954491894" lon="11.792638132872174"><ele>248.5</ele><time>2026-04-21T16:35:35Z</time></trkpt><trkpt lat="43.230543238368206" lon="11.79284530829994"><ele>249.0</ele><time>2026-04-21T16:35:36Z</time></trkpt><trkpt lat="43.23030929761955" lon="11.793043445559357"><ele>249.0</ele><time>2026-04-21T16:35:37Z</time></trkpt><trkpt lat="43.23007734825234" lon="11.793243826474477"><ele>249.0</ele><time>2026-04-21T16:35:38Z</time></trkpt><trkpt lat="43.22984584841882" lon="11.793453573807554"><ele>249.0</ele><time>2026-04-21T16:35:39Z</time></trkpt><trkpt lat="43.229615003148254" lon="11.793664520317451"><ele>249.0</ele><time>2026-04-21T16:35:40Z</time></trkpt><trkpt lat="43.22938195873779" lon="11.793876310102071"><ele>249.0</ele><time>2026-04-21T16:35:41Z</time></trkpt><trkpt lat="43.22914549568912" lon="11.794086526384147"><ele>249.0</ele><time>2026-04-21T16:35:42Z</time></trkpt><trkpt lat="43.22890883990814" lon="11.794295835039298"><ele>250.5</ele><time>2026-04-21T16:35:43Z</time></trkpt><trkpt lat="43.22867413567236" lon="11.79450343251561"><ele>252.0</ele><time>2026-04-21T16:35:44Z</time></trkpt><trkpt lat="43.228438683455956" lon="11.794711019179726"><ele>252.0</ele><time>2026-04-21T16:35:45Z</time></trkpt><trkpt lat="43.22820349989077" lon="11.794916175113835"><ele>252.0</ele><time>2026-04-21T16:35:46Z</time></trkpt><trkpt lat="43.227969425675944" lon="11.79511898672714"><ele>252.5</ele><time>2026-04-21T16:35:47Z</time></trkpt><trkpt lat="43.22773486453688" lon="11.795322910390622"><ele>253.0</ele><time>2026-04-21T16:35:48Z</time></trkpt><trkpt lat="43.22750105626206" lon="11.795531171711616"><ele>253.0</ele><time>2026-04-21T16:35:49Z</time></trkpt><trkpt lat="43.227269457904455" lon="11.795739637923276"><ele>253.0</ele><time>2026-04-21T16:35:50Z</time></trkpt><trkpt lat="43.22703929661439" lon="11.79594848492125"><ele>252.5</ele><time>2026-04-21T16:35:51Z</time></trkpt><trkpt lat="43.22680601352758" lon="11.796159184423288"><ele>252.0</ele><time>2026-04-21T16:35:52Z</time></trkpt><trkpt lat="43.22657312693385" lon="11.796366024597386"><ele>251.0</ele><time>2026-04-21T16:35:53Z</time></trkpt><trkpt lat="43.2263402671639" lon="11.796568569772095"><ele>250.0</ele><time>2026-04-21T16:35:54Z</time></trkpt><trkpt lat="43.22610590623414" lon="11.796767621244902"><ele>249.5</ele><time>2026-04-21T16:35:55Z</time></trkpt><trkpt lat="43.225871184268854" lon="11.796964164237354"><ele>249.0</ele><time>2026-04-21T16:35:56Z</time></trkpt><trkpt lat="43.225635577254906" lon="11.797159048389036"><ele>250.0</ele><time>2026-04-21T16:35:57Z</time></trkpt><trkpt lat="43.225402288643785" lon="11.79735645367365"><ele>251.0</ele><time>2026-04-21T16:35:58Z</time></trkpt><trkpt lat="43.225169043613775" lon="11.797554229865485"><ele>251.0</ele><time>2026-04-21T16:35:59Z</time></trkpt><trkpt lat="43.22494148683583" lon="11.79775207133923"><ele>251.0</ele><time>2026-04-21T16:36:00Z</time></trkpt><trkpt lat="43.22471787063848" lon="11.797950642527471"><ele>251.0</ele><time>2026-04-21T16:36:01Z</time></trkpt><trkpt lat="43.22448600742184" lon="11.798154618015472"><ele>251.0</ele><time>2026-04-21T16:36:02Z</time></trkpt><trkpt lat="43.22426056279966" lon="11.798359682608014"><ele>250.0</ele><time>2026-04-21T16:36:03Z</time></trkpt><trkpt lat="43.224032061817375" lon="11.798563067545297"><ele>249.0</ele><time>2026-04-21T16:36:04Z</time></trkpt><trkpt lat="43.22380497166855" lon="11.79876244052173"><ele>252.5</ele><time>2026-04-21T16:36:05Z</time></trkpt><trkpt lat="43.22357813455802" lon="11.798957978453885"><ele>256.0</ele><time>2026-04-21T16:36:06Z</time></trkpt><trkpt lat="43.22335401888371" lon="11.799157581167385"><ele>261.0</ele><time>2026-04-21T16:36:07Z</time></trkpt><trkpt lat="43.22312675822262" lon="11.799356378956231"><ele>266.0</ele><time>2026-04-21T16:36:08Z</time></trkpt><trkpt lat="43.22290400515787" lon="11.799551080311657"><ele>266.0</ele><time>2026-04-21T16:36:09Z</time></trkpt><trkpt lat="43.222680380675264" lon="11.799746404515213"><ele>266.0</ele><time>2026-04-21T16:36:10Z</time></trkpt><trkpt lat="43.222459751624754" lon="11.79993918299043"><ele>267.0</ele><time>2026-04-21T16:36:11Z</time></trkpt><trkpt lat="43.222239152766804" lon="11.800135249518195"><ele>268.0</ele><time>2026-04-21T16:36:12Z</time></trkpt><trkpt lat="43.22201631498756" lon="11.800328547813493"><ele>268.0</ele><time>2026-04-21T16:36:13Z</time></trkpt><trkpt lat="43.221797049191316" lon="11.800524353152033"><ele>268.0</ele><time>2026-04-21T16:36:14Z</time></trkpt><trkpt lat="43.221583204653115" lon="11.800726624350423"><ele>267.0</ele><time>2026-04-21T16:36:15Z</time></trkpt><trkpt lat="43.22136168765847" lon="11.80092587069623"><ele>266.0</ele><time>2026-04-21T16:36:16Z</time></trkpt><trkpt lat="43.22114494823928" lon="11.801116764399188"><ele>266.0</ele><time>2026-04-21T16:36:17Z</time></trkpt><trkpt lat="43.22092358206776" lon="11.801314574147948"><ele>266.0</ele><time>2026-04-21T16:36:18Z</time></trkpt><trkpt lat="43.22070056672869" lon="11.801511677062694"><ele>263.5</ele><time>2026-04-21T16:36:19Z</time></trkpt><trkpt lat="43.22047802744706" lon="11.80170197138064"><ele>261.0</ele><time>2026-04-21T16:36:20Z</time></trkpt><trkpt lat="43.22025439088378" lon="11.801898696407303"><ele>261.0</ele><time>2026-04-21T16:36:21Z</time></trkpt><trkpt lat="43.220030635069776" lon="11.802100340019264"><ele>261.0</ele><time>2026-04-21T16:36:22Z</time></trkpt><trkpt lat="43.2198060351641" lon="11.80230199817981"><ele>261.0</ele><time>2026-04-21T16:36:23Z</time></trkpt><trkpt lat="43.219576377736324" lon="11.80250276306613"><ele>261.0</ele><time>2026-04-21T16:36:24Z</time></trkpt><trkpt lat="43.21935719471457" lon="11.802695663618051"><ele>261.0</ele><time>2026-04-21T16:36:25Z</time></trkpt><trkpt lat="43.219155092287004" lon="11.802863840101763"><ele>261.0</ele><time>2026-04-21T16:36:26Z</time></trkpt><trkpt lat="43.2189477474243" lon="11.803049789294134"><ele>261.0</ele><time>2026-04-21T16:36:27Z</time></trkpt><trkpt lat="43.218739617918494" lon="11.80323431369255"><ele>261.0</ele><time>2026-04-21T16:36:28Z</time></trkpt><trkpt lat="43.21852553247888" lon="11.803428133387836"><ele>261.5</ele><time>2026-04-21T16:36:29Z</time></trkpt><trkpt lat="43.21830849743614" lon="11.803618795715323"><ele>262.0</ele><time>2026-04-21T16:36:30Z</time></trkpt><trkpt lat="43.21808910586096" lon="11.803809356990142"><ele>262.0</ele><time>2026-04-21T16:36:31Z</time></trkpt><trkpt lat="43.2178705355187" lon="11.803999523231207"><ele>262.0</ele><time>2026-04-21T16:36:32Z</time></trkpt><trkpt lat="43.21765809440815" lon="11.804182478787581"><ele>261.0</ele><time>2026-04-21T16:36:33Z</time></trkpt><trkpt lat="43.2174544844451" lon="11.804361239359643"><ele>260.0</ele><time>2026-04-21T16:36:34Z</time></trkpt><trkpt lat="43.21725296418984" lon="11.804542169624227"><ele>263.5</ele><time>2026-04-21T16:36:35Z</time></trkpt><trkpt lat="43.217046547501965" lon="11.804730132146508"><ele>267.0</ele><time>2026-04-21T16:36:36Z</time></trkpt><trkpt lat="43.21685133477514" lon="11.804904854504366"><ele>267.0</ele><time>2026-04-21T16:36:37Z</time></trkpt><trkpt lat="43.216644788935135" lon="11.805086282889189"><ele>267.0</ele><time>2026-04-21T16:36:38Z</time></trkpt><trkpt lat="43.21644792729148" lon="11.805256164102676"><ele>265.5</ele><time>2026-04-21T16:36:39Z</time></trkpt><trkpt lat="43.216250795087085" lon="11.805429999974452"><ele>264.0</ele><time>2026-04-21T16:36:40Z</time></trkpt><trkpt lat="43.216053562357416" lon="11.80560618241864"><ele>264.0</ele><time>2026-04-21T16:36:41Z</time></trkpt><trkpt lat="43.21585670827058" lon="11.805784591232266"><ele>264.0</ele><time>2026-04-21T16:36:42Z</time></trkpt><trkpt lat="43.21566471117057" lon="11.805958575772612"><ele>262.5</ele><time>2026-04-21T16:36:43Z</time></trkpt><trkpt lat="43.21545419890912" lon="11.806133587284027"><ele>261.0</ele><time>2026-04-21T16:36:44Z</time></trkpt><trkpt lat="43.21526351451098" lon="11.806291546086689"><ele>261.0</ele><time>2026-04-21T16:36:45Z</time></trkpt><trkpt lat="43.2150862048932" lon="11.806434776238223"><ele>261.0</ele><time>2026-04-21T16:36:46Z</time></trkpt><trkpt lat="43.214911681619824" lon="11.806574958036041"><ele>261.0</ele><time>2026-04-21T16:36:47Z</time></trkpt><trkpt lat="43.21473851241828" lon="11.806715421513791"><ele>260.6666666666667</ele><time>2026-04-21T16:36:48Z</time></trkpt><trkpt lat="43.214570690336174" lon="11.806849393763752"><ele>260.33333333333337</ele><time>2026-04-21T16:36:49Z</time></trkpt><trkpt lat="43.214410924836486" lon="11.806972881563896"><ele>260.0</ele><time>2026-04-21T16:36:50Z</time></trkpt><trkpt lat="43.214256957116554" lon="11.807091417968397"><ele>260.0</ele><time>2026-04-21T16:36:51Z</time></trkpt><trkpt lat="43.21410534303941" lon="11.807208890230958"><ele>260.0</ele><time>2026-04-21T16:36:52Z</time></trkpt><trkpt lat="43.21395687354544" lon="11.807321747323027"><ele>260.0</ele><time>2026-04-21T16:36:53Z</time></trkpt><trkpt lat="43.21380760536504" lon="11.807436554607301"><ele>259.6666666666667</ele><time>2026-04-21T16:36:54Z</time></trkpt><trkpt lat="43.21366179592728" lon="11.807549751149072"><ele>259.3333333333333</ele><time>2026-04-21T16:36:55Z</time></trkpt><trkpt lat="43.21352387817841" lon="11.807649303426164"><ele>259.0</ele><time>2026-04-21T16:36:56Z</time></trkpt><trkpt lat="43.21338034199844" lon="11.807728743754607"><ele>258.25</ele><time>2026-04-21T16:36:57Z</time></trkpt><trkpt lat="43.213259475411185" lon="11.807810600862854"><ele>257.5</ele><time>2026-04-21T16:36:58Z</time></trkpt><trkpt lat="43.213132358949444" lon="11.80787493807768"><ele>256.75</ele><time>2026-04-21T16:36:59Z</time></trkpt><trkpt lat="43.21298035449442" lon="11.807932359467946"><ele>256.0</ele><time>2026-04-21T16:37:00Z</time></trkpt><trkpt lat="43.212827519247135" lon="11.807991631217863"><ele>256.0</ele><time>2026-04-21T16:37:01Z</time></trkpt><trkpt lat="43.212693674509055" lon="11.80804407038914"><ele>256.0</ele><time>2026-04-21T16:37:02Z</time></trkpt><trkpt lat="43.21257918944518" lon="11.808089545396799"><ele>256.0</ele><time>2026-04-21T16:37:03Z</time></trkpt><trkpt lat="43.212477086651795" lon="11.808117991090654"><ele>256.0</ele><time>2026-04-21T16:37:04Z</time></trkpt><trkpt lat="43.21237708557693" lon="11.808140911269131"><ele>256.8</ele><time>2026-04-21T16:37:05Z</time></trkpt><trkpt lat="43.21227521495084" lon="11.80814600019269"><ele>257.6</ele><time>2026-04-21T16:37:06Z</time></trkpt><trkpt lat="43.212176152156225" lon="11.80813441453843"><ele>258.4</ele><time>2026-04-21T16:37:07Z</time></trkpt><trkpt lat="43.21208737076221" lon="11.808100340164446"><ele>259.2</ele><time>2026-04-21T16:37:08Z</time></trkpt><trkpt lat="43.212019821570394" lon="11.808034372021826"><ele>260.0</ele><time>2026-04-21T16:37:09Z</time></trkpt><trkpt lat="43.211953390540515" lon="11.807950728435763"><ele>260.0</ele><time>2026-04-21T16:37:10Z</time></trkpt><trkpt lat="43.21189209263584" lon="11.807838421716946"><ele>260.0</ele><time>2026-04-21T16:37:11Z</time></trkpt><trkpt lat="43.21186093672384" lon="11.80770190727565"><ele>260.0</ele><time>2026-04-21T16:37:12Z</time></trkpt><trkpt lat="43.211811099969786" lon="11.807578873444049"><ele>260.0</ele><time>2026-04-21T16:37:13Z</time></trkpt><trkpt lat="43.21178699902474" lon="11.807433665370827"><ele>260.0</ele><time>2026-04-21T16:37:14Z</time></trkpt><trkpt lat="43.21176338863235" lon="11.807283977164142"><ele>259.83333333333337</ele><time>2026-04-21T16:37:15Z</time></trkpt><trkpt lat="43.2117209684814" lon="11.807167915446938"><ele>259.6666666666667</ele><time>2026-04-21T16:37:16Z</time></trkpt><trkpt lat="43.21169038431088" lon="11.807066386623669"><ele>259.5</ele><time>2026-04-21T16:37:17Z</time></trkpt><trkpt lat="43.211724830621044" lon="11.806945779413129"><ele>259.3333333333333</ele><time>2026-04-21T16:37:18Z</time></trkpt><trkpt lat="43.21174384798174" lon="11.806836259963246"><ele>259.16666666666663</ele><time>2026-04-21T16:37:20Z</time></trkpt><trkpt lat="43.21175508995045" lon="11.806710834338709"><ele>259.0</ele><time>2026-04-21T16:38:03Z</time></trkpt><trkpt lat="43.2117575742515" lon="11.80649051958374"><ele>259.0</ele><time>2026-04-21T16:38:05Z</time></trkpt><trkpt lat="43.211755620161114" lon="11.806308526973604"><ele>259.0</ele><time>2026-04-21T16:38:06Z</time></trkpt><trkpt lat="43.21175907247559" lon="11.806154222859872"><ele>259.0</ele><time>2026-04-21T16:38:07Z</time></trkpt><trkpt lat="43.21180371872539" lon="11.806049370854458"><ele>259.0</ele><time>2026-04-21T16:38:08Z</time></trkpt><trkpt lat="43.21185174305563" lon="11.805963174704694"><ele>259.0</ele><time>2026-04-21T16:38:09Z</time></trkpt><trkpt lat="43.211973854910916" lon="11.805871503389596"><ele>259.16666666666663</ele><time>2026-04-21T16:38:11Z</time></trkpt><trkpt lat="43.21206537043593" lon="11.80577847108594"><ele>259.3333333333333</ele><time>2026-04-21T16:38:12Z</time></trkpt><trkpt lat="43.21210004713131" lon="11.805669104239948"><ele>259.5</ele><time>2026-04-21T16:38:13Z</time></trkpt><trkpt lat="43.21215124991277" lon="11.805576378669953"><ele>259.6666666666667</ele><time>2026-04-21T16:38:14Z</time></trkpt><trkpt lat="43.21213631866279" lon="11.805465237631605"><ele>259.83333333333337</ele><time>2026-04-21T16:38:15Z</time></trkpt><trkpt lat="43.212115198235246" lon="11.805367350482921"><ele>260.0</ele><time>2026-04-21T16:38:16Z</time></trkpt><trkpt lat="43.21207676264531" lon="11.80527562610398"><ele>260.0</ele><time>2026-04-21T16:38:17Z</time></trkpt><trkpt lat="43.21201302109736" lon="11.80519177237104"><ele>260.0</ele><time>2026-04-21T16:38:18Z</time></trkpt><trkpt lat="43.211935791627184" lon="11.805151421393152"><ele>260.0</ele><time>2026-04-21T16:38:19Z</time></trkpt><trkpt lat="43.21185234189193" lon="11.805149976359402"><ele>260.0</ele><time>2026-04-21T16:38:20Z</time></trkpt><trkpt lat="43.21176742828558" lon="11.805180897806215"><ele>260.0</ele><time>2026-04-21T16:38:21Z</time></trkpt><trkpt lat="43.211665266541736" lon="11.80523732345067"><ele>260.0</ele><time>2026-04-21T16:38:22Z</time></trkpt><trkpt lat="43.211576776583826" lon="11.805299315911155"><ele>260.0</ele><time>2026-04-21T16:38:23Z</time></trkpt><trkpt lat="43.21150268314903" lon="11.805340495717312"><ele>260.0</ele><time>2026-04-21T16:38:24Z</time></trkpt><trkpt lat="43.21143705278895" lon="11.805346538219537"><ele>260.0</ele><time>2026-04-21T16:38:25Z</time></trkpt><trkpt lat="43.21136236599533" lon="11.805327551053589"><ele>260.0</ele><time>2026-04-21T16:38:26Z</time></trkpt><trkpt lat="43.211275526967306" lon="11.805308880193362"><ele>260.0</ele><time>2026-04-21T16:38:27Z</time></trkpt><trkpt lat="43.211192747328425" lon="11.80531463460304"><ele>260.25</ele><time>2026-04-21T16:38:28Z</time></trkpt><trkpt lat="43.21113251695105" lon="11.805342817885023"><ele>260.5</ele><time>2026-04-21T16:38:29Z</time></trkpt><trkpt lat="43.21103528393455" lon="11.805359825786843"><ele>260.75</ele><time>2026-04-21T16:38:31Z</time></trkpt><trkpt lat="43.21113236181518" lon="11.805217179611521"><ele>261.0</ele><time>2026-04-21T16:38:32Z</time></trkpt><trkpt lat="43.210982492591896" lon="11.805543864847483"><ele>261.0</ele><time>2026-04-21T16:38:33Z</time></trkpt><trkpt lat="43.210968630053245" lon="11.805631114208753"><ele>261.0</ele><time>2026-04-21T16:38:34Z</time></trkpt><trkpt lat="43.2109374666474" lon="11.805719146812072"><ele>261.0</ele><time>2026-04-21T16:38:36Z</time></trkpt><trkpt lat="43.21084043375426" lon="11.805743615733872"><ele>261.0</ele><time>2026-04-21T16:38:38Z</time></trkpt><trkpt lat="43.210786030843046" lon="11.805665516841948"><ele>261.0</ele><time>2026-04-21T16:38:41Z</time></trkpt><trkpt lat="43.21070047707421" lon="11.805695127469033"><ele>261.0</ele><time>2026-04-21T16:40:47Z</time></trkpt><trkpt lat="43.21066870982147" lon="11.805794422531715"><ele>261.0</ele><time>2026-04-21T16:40:49Z</time></trkpt><trkpt lat="43.21081544915659" lon="11.805778248572985"><ele>261.0</ele><time>2026-04-21T16:40:52Z</time></trkpt><trkpt lat="43.21089285663619" lon="11.805782240230576"><ele>261.0</ele><time>2026-04-21T16:40:53Z</time></trkpt><trkpt lat="43.21095555541456" lon="11.805728163154955"><ele>261.0</ele><time>2026-04-21T16:40:54Z</time></trkpt><trkpt lat="43.211001385379" lon="11.805652720725273"><ele>261.0</ele><time>2026-04-21T16:40:55Z</time></trkpt><trkpt lat="43.211039282147404" lon="11.805550557543134"><ele>261.0</ele><time>2026-04-21T16:40:56Z</time></trkpt><trkpt lat="43.211071761549746" lon="11.805467970876938"><ele>261.0</ele><time>2026-04-21T16:40:57Z</time></trkpt><trkpt lat="43.21117186016827" lon="11.805392171952326"><ele>261.0</ele><time>2026-04-21T16:40:59Z</time></trkpt><trkpt lat="43.211303445236844" lon="11.805417950818208"><ele>261.0</ele><time>2026-04-21T16:41:01Z</time></trkpt><trkpt lat="43.21139235760992" lon="11.8054714640325"><ele>261.0</ele><time>2026-04-21T16:41:02Z</time></trkpt><trkpt lat="43.21148315102393" lon="11.805545606769643"><ele>260.75</ele><time>2026-04-21T16:41:03Z</time></trkpt><trkpt lat="43.21154710933227" lon="11.805598170978286"><ele>260.5</ele><time>2026-04-21T16:41:04Z</time></trkpt><trkpt lat="43.2116633254898" lon="11.805699322876876"><ele>260.25</ele><time>2026-04-21T16:41:07Z</time></trkpt><trkpt lat="43.21174113336279" lon="11.805818465341792"><ele>260.0</ele><time>2026-04-21T16:41:08Z</time></trkpt><trkpt lat="43.211858849597085" lon="11.80587647141496"><ele>260.0</ele><time>2026-04-21T16:41:09Z</time></trkpt><trkpt lat="43.211974995620984" lon="11.805949800915643"><ele>260.0</ele><time>2026-04-21T16:41:10Z</time></trkpt><trkpt lat="43.21207764071553" lon="11.80604512608905"><ele>260.0</ele><time>2026-04-21T16:41:11Z</time></trkpt><trkpt lat="43.21220260989371" lon="11.806150487365336"><ele>260.0</ele><time>2026-04-21T16:41:12Z</time></trkpt><trkpt lat="43.21231610297114" lon="11.806302886831768"><ele>259.33333333333337</ele><time>2026-04-21T16:41:13Z</time></trkpt><trkpt lat="43.21243144394994" lon="11.80646474889131"><ele>258.6666666666667</ele><time>2026-04-21T16:41:14Z</time></trkpt><trkpt lat="43.2125493813406" lon="11.806614143807822"><ele>258.0</ele><time>2026-04-21T16:41:15Z</time></trkpt><trkpt lat="43.212666821588236" lon="11.806728606983507"><ele>258.0</ele><time>2026-04-21T16:41:16Z</time></trkpt><trkpt lat="43.212769170438406" lon="11.80682671087453"><ele>258.0</ele><time>2026-04-21T16:41:17Z</time></trkpt><trkpt lat="43.212864788302696" lon="11.80691910399631"><ele>258.0</ele><time>2026-04-21T16:41:18Z</time></trkpt><trkpt lat="43.2129644028011" lon="11.807019916063917"><ele>258.0</ele><time>2026-04-21T16:41:19Z</time></trkpt><trkpt lat="43.213074090115406" lon="11.80713366481791"><ele>258.25</ele><time>2026-04-21T16:41:20Z</time></trkpt><trkpt lat="43.21318361205092" lon="11.807244250333914"><ele>258.5</ele><time>2026-04-21T16:41:21Z</time></trkpt><trkpt lat="43.21329930503269" lon="11.807356559631751"><ele>258.75</ele><time>2026-04-21T16:41:22Z</time></trkpt><trkpt lat="43.21341642457562" lon="11.807470838215071"><ele>259.0</ele><time>2026-04-21T16:41:23Z</time></trkpt><trkpt lat="43.213528735089525" lon="11.80758452311884"><ele>257.75</ele><time>2026-04-21T16:41:24Z</time></trkpt><trkpt lat="43.213640180136224" lon="11.807690538632281"><ele>256.5</ele><time>2026-04-21T16:41:25Z</time></trkpt><trkpt lat="43.21374577679616" lon="11.807797069296626"><ele>255.25</ele><time>2026-04-21T16:41:26Z</time></trkpt><trkpt lat="43.213840416770175" lon="11.807894226256636"><ele>254.0</ele><time>2026-04-21T16:41:27Z</time></trkpt><trkpt lat="43.21393362517835" lon="11.807983945573826"><ele>254.0</ele><time>2026-04-21T16:41:28Z</time></trkpt><trkpt lat="43.21403750118288" lon="11.80808084041573"><ele>254.0</ele><time>2026-04-21T16:41:29Z</time></trkpt><trkpt lat="43.21415019168675" lon="11.808197456714312"><ele>254.0</ele><time>2026-04-21T16:41:30Z</time></trkpt><trkpt lat="43.21425997511259" lon="11.808299262468717"><ele>254.0</ele><time>2026-04-21T16:41:31Z</time></trkpt><trkpt lat="43.21437013759327" lon="11.80839456000504"><ele>254.0</ele><time>2026-04-21T16:41:32Z</time></trkpt><trkpt lat="43.21447766756844" lon="11.808485668506519"><ele>254.0</ele><time>2026-04-21T16:41:33Z</time></trkpt><trkpt lat="43.214584132741244" lon="11.808568743229245"><ele>254.0</ele><time>2026-04-21T16:41:34Z</time></trkpt><trkpt lat="43.21469968438088" lon="11.808650911651457"><ele>254.0</ele><time>2026-04-21T16:41:35Z</time></trkpt><trkpt lat="43.21481876952934" lon="11.808727885632925"><ele>253.5</ele><time>2026-04-21T16:41:36Z</time></trkpt><trkpt lat="43.21494352198444" lon="11.808806419165233"><ele>253.0</ele><time>2026-04-21T16:41:37Z</time></trkpt><trkpt lat="43.215068788221174" lon="11.808885038214445"><ele>252.5</ele><time>2026-04-21T16:41:38Z</time></trkpt><trkpt lat="43.215194750389315" lon="11.8089663417891"><ele>252.0</ele><time>2026-04-21T16:41:39Z</time></trkpt><trkpt lat="43.215308246883126" lon="11.809039073151535"><ele>252.0</ele><time>2026-04-21T16:41:40Z</time></trkpt><trkpt lat="43.21541919541419" lon="11.809108346548316"><ele>252.0</ele><time>2026-04-21T16:41:41Z</time></trkpt><trkpt lat="43.21552749466106" lon="11.809177019877263"><ele>252.0</ele><time>2026-04-21T16:41:42Z</time></trkpt><trkpt lat="43.21563517963401" lon="11.80924221729483"><ele>252.0</ele><time>2026-04-21T16:41:43Z</time></trkpt><trkpt lat="43.21572182404864" lon="11.809302587226682"><ele>251.2</ele><time>2026-04-21T16:41:44Z</time></trkpt><trkpt lat="43.21580576179715" lon="11.809363409073672"><ele>250.39999999999998</ele><time>2026-04-21T16:41:45Z</time></trkpt><trkpt lat="43.21590054950749" lon="11.809420826227429"><ele>249.60000000000002</ele><time>2026-04-21T16:41:46Z</time></trkpt><trkpt lat="43.21600558135813" lon="11.809478903372401"><ele>248.8</ele><time>2026-04-21T16:41:47Z</time></trkpt><trkpt lat="43.216100355132774" lon="11.809533929250518"><ele>248.0</ele><time>2026-04-21T16:41:48Z</time></trkpt><trkpt lat="43.216200540686614" lon="11.809592885204882"><ele>248.0</ele><time>2026-04-21T16:41:49Z</time></trkpt><trkpt lat="43.216286312777825" lon="11.809646195211482"><ele>248.0</ele><time>2026-04-21T16:41:50Z</time></trkpt><trkpt lat="43.216359057045246" lon="11.809689822582465"><ele>248.0</ele><time>2026-04-21T16:41:51Z</time></trkpt><trkpt lat="43.21646574174056" lon="11.809764954389491"><ele>248.0</ele><time>2026-04-21T16:41:53Z</time></trkpt><trkpt lat="43.21654345000883" lon="11.809845590899242"><ele>248.0</ele><time>2026-04-21T16:41:55Z</time></trkpt><trkpt lat="43.21658027130147" lon="11.809915736154085"><ele>247.83333333333334</ele><time>2026-04-21T16:41:56Z</time></trkpt><trkpt lat="43.21661246899524" lon="11.810010656636084"><ele>247.66666666666669</ele><time>2026-04-21T16:41:57Z</time></trkpt><trkpt lat="43.216642560273215" lon="11.810117237233083"><ele>247.5</ele><time>2026-04-21T16:41:58Z</time></trkpt><trkpt lat="43.216684085761464" lon="11.81020739754264"><ele>247.33333333333331</ele><time>2026-04-21T16:41:59Z</time></trkpt><trkpt lat="43.21674731401984" lon="11.810288305424152"><ele>247.16666666666666</ele><time>2026-04-21T16:42:00Z</time></trkpt><trkpt lat="43.21682491337699" lon="11.810358107126675"><ele>247.0</ele><time>2026-04-21T16:42:01Z</time></trkpt><trkpt lat="43.216910961041386" lon="11.810415544839188"><ele>247.0</ele><time>2026-04-21T16:42:02Z</time></trkpt><trkpt lat="43.21699450129001" lon="11.810479684469467"><ele>247.0</ele><time>2026-04-21T16:42:03Z</time></trkpt><trkpt lat="43.21706397155507" lon="11.810569484402698"><ele>247.0</ele><time>2026-04-21T16:42:04Z</time></trkpt><trkpt lat="43.21714435810991" lon="11.810642622386602"><ele>247.0</ele><time>2026-04-21T16:42:05Z</time></trkpt><trkpt lat="43.2171929526633" lon="11.81082844124064"><ele>247.0</ele><time>2026-04-21T16:42:06Z</time></trkpt><trkpt lat="43.217251244573696" lon="11.810979197987388"><ele>247.0</ele><time>2026-04-21T16:42:07Z</time></trkpt><trkpt lat="43.21731099889944" lon="11.811123989439476"><ele>247.0</ele><time>2026-04-21T16:42:08Z</time></trkpt><trkpt lat="43.21738266921224" lon="11.811268020556387"><ele>247.0</ele><time>2026-04-21T16:42:09Z</time></trkpt><trkpt lat="43.21745296745004" lon="11.811412379773383"><ele>247.0</ele><time>2026-04-21T16:42:10Z</time></trkpt><trkpt lat="43.217522581566904" lon="11.81156006646522"><ele>247.25</ele><time>2026-04-21T16:42:11Z</time></trkpt><trkpt lat="43.217593343883635" lon="11.811708493549245"><ele>247.5</ele><time>2026-04-21T16:42:12Z</time></trkpt><trkpt lat="43.21766423032151" lon="11.811853153240953"><ele>247.75</ele><time>2026-04-21T16:42:13Z</time></trkpt><trkpt lat="43.21773187039367" lon="11.811992227456525"><ele>248.0</ele><time>2026-04-21T16:42:14Z</time></trkpt><trkpt lat="43.21779397508373" lon="11.812115135691116"><ele>248.0</ele><time>2026-04-21T16:42:15Z</time></trkpt><trkpt lat="43.217862656403774" lon="11.812219025124437"><ele>248.0</ele><time>2026-04-21T16:42:16Z</time></trkpt><trkpt lat="43.21794640262666" lon="11.812313314763799"><ele>248.0</ele><time>2026-04-21T16:42:17Z</time></trkpt><trkpt lat="43.218036492502264" lon="11.812370172340358"><ele>248.0</ele><time>2026-04-21T16:42:18Z</time></trkpt><trkpt lat="43.218135426859945" lon="11.81239050469766"><ele>248.0</ele><time>2026-04-21T16:42:19Z</time></trkpt><trkpt lat="43.218239853523855" lon="11.812374541143654"><ele>248.2</ele><time>2026-04-21T16:42:20Z</time></trkpt><trkpt lat="43.21834761445697" lon="11.812334735642963"><ele>248.4</ele><time>2026-04-21T16:42:21Z</time></trkpt><trkpt lat="43.21845336982389" lon="11.81230111327551"><ele>248.59999999999997</ele><time>2026-04-21T16:42:22Z</time></trkpt><trkpt lat="43.21856004676695" lon="11.81228219111791"><ele>248.79999999999998</ele><time>2026-04-21T16:42:23Z</time></trkpt><trkpt lat="43.21866318233373" lon="11.812283837254434"><ele>249.0</ele><time>2026-04-21T16:42:24Z</time></trkpt><trkpt lat="43.21875736771856" lon="11.812311427834342"><ele>249.0</ele><time>2026-04-21T16:42:25Z</time></trkpt><trkpt lat="43.21885838363724" lon="11.812375710569205"><ele>249.0</ele><time>2026-04-21T16:42:26Z</time></trkpt><trkpt lat="43.218950151916395" lon="11.812473214571988"><ele>249.0</ele><time>2026-04-21T16:42:27Z</time></trkpt><trkpt lat="43.21903241304459" lon="11.812593369106779"><ele>249.0</ele><time>2026-04-21T16:42:28Z</time></trkpt><trkpt lat="43.219097248113805" lon="11.812720001518603"><ele>249.0</ele><time>2026-04-21T16:42:29Z</time></trkpt><trkpt lat="43.219167779562135" lon="11.812866780987946"><ele>249.0</ele><time>2026-04-21T16:42:30Z</time></trkpt><trkpt lat="43.219240028819925" lon="11.813019047807062"><ele>249.0</ele><time>2026-04-21T16:42:31Z</time></trkpt><trkpt lat="43.21931786084483" lon="11.813172996381963"><ele>249.0</ele><time>2026-04-21T16:42:32Z</time></trkpt><trkpt lat="43.219401941592935" lon="11.81334195009823"><ele>248.75</ele><time>2026-04-21T16:42:33Z</time></trkpt><trkpt lat="43.21947865544538" lon="11.813508364377613"><ele>248.5</ele><time>2026-04-21T16:42:34Z</time></trkpt><trkpt lat="43.21954778088532" lon="11.81365690238017"><ele>248.25</ele><time>2026-04-21T16:42:35Z</time></trkpt><trkpt lat="43.21960597260044" lon="11.813783583105229"><ele>248.0</ele><time>2026-04-21T16:42:36Z</time></trkpt><trkpt lat="43.21966051618733" lon="11.813910631252204"><ele>248.0</ele><time>2026-04-21T16:42:37Z</time></trkpt><trkpt lat="43.219723030403486" lon="11.814054933415111"><ele>248.0</ele><time>2026-04-21T16:42:38Z</time></trkpt><trkpt lat="43.21979157611999" lon="11.814216530419746"><ele>248.0</ele><time>2026-04-21T16:42:39Z</time></trkpt><trkpt lat="43.2198639744456" lon="11.814394746606546"><ele>248.0</ele><time>2026-04-21T16:42:40Z</time></trkpt><trkpt lat="43.21993395191004" lon="11.814570774193466"><ele>248.66666666666669</ele><time>2026-04-21T16:42:41Z</time></trkpt><trkpt lat="43.22000186167432" lon="11.814746898621296"><ele>249.33333333333331</ele><time>2026-04-21T16:42:42Z</time></trkpt><trkpt lat="43.220074510135404" lon="11.814942802812746"><ele>250.0</ele><time>2026-04-21T16:42:43Z</time></trkpt><trkpt lat="43.220149349663714" lon="11.815145753182502"><ele>249.33333333333331</ele><time>2026-04-21T16:42:44Z</time></trkpt><trkpt lat="43.220226985396614" lon="11.81535722817789"><ele>248.66666666666669</ele><time>2026-04-21T16:42:45Z</time></trkpt><trkpt lat="43.22030355970381" lon="11.815575519131025"><ele>248.0</ele><time>2026-04-21T16:42:46Z</time></trkpt><trkpt lat="43.22037251849792" lon="11.815780442201504"><ele>248.0</ele><time>2026-04-21T16:42:47Z</time></trkpt><trkpt lat="43.22043724359459" lon="11.815978863715081"><ele>248.0</ele><time>2026-04-21T16:42:48Z</time></trkpt><trkpt lat="43.2205030810862" lon="11.816181300549186"><ele>248.0</ele><time>2026-04-21T16:42:49Z</time></trkpt><trkpt lat="43.2205698305128" lon="11.816390256701723"><ele>248.33333333333334</ele><time>2026-04-21T16:42:50Z</time></trkpt><trkpt lat="43.22063616687107" lon="11.816604311995473"><ele>248.66666666666669</ele><time>2026-04-21T16:42:51Z</time></trkpt><trkpt lat="43.22069803729487" lon="11.816806087251983"><ele>249.0</ele><time>2026-04-21T16:42:52Z</time></trkpt><trkpt lat="43.220757678408425" lon="11.817004762214436"><ele>249.33333333333331</ele><time>2026-04-21T16:42:53Z</time></trkpt><trkpt lat="43.220817395631094" lon="11.817208490111707"><ele>249.66666666666666</ele><time>2026-04-21T16:42:54Z</time></trkpt><trkpt lat="43.22087553499086" lon="11.81741538965062"><ele>250.0</ele><time>2026-04-21T16:42:55Z</time></trkpt><trkpt lat="43.22093109350857" lon="11.817625718961814"><ele>249.66666666666666</ele><time>2026-04-21T16:42:56Z</time></trkpt><trkpt lat="43.220988434106445" lon="11.81785140090832"><ele>249.33333333333331</ele><time>2026-04-21T16:42:57Z</time></trkpt><trkpt lat="43.22105111309235" lon="11.818089557353906"><ele>249.0</ele><time>2026-04-21T16:42:58Z</time></trkpt><trkpt lat="43.22111380872676" lon="11.818324746524615"><ele>249.0</ele><time>2026-04-21T16:42:59Z</time></trkpt><trkpt lat="43.221170654449224" lon="11.81854813373074"><ele>249.0</ele><time>2026-04-21T16:43:00Z</time></trkpt><trkpt lat="43.22122215570891" lon="11.818772176745298"><ele>249.0</ele><time>2026-04-21T16:43:01Z</time></trkpt><trkpt lat="43.221278501277354" lon="11.818996229140849"><ele>249.0</ele><time>2026-04-21T16:43:02Z</time></trkpt><trkpt lat="43.2213314366547" lon="11.81921076959283"><ele>249.0</ele><time>2026-04-21T16:43:03Z</time></trkpt><trkpt lat="43.22138698627857" lon="11.819426387499668"><ele>249.0</ele><time>2026-04-21T16:43:04Z</time></trkpt><trkpt lat="43.221444349327506" lon="11.819641620504386"><ele>248.33333333333331</ele><time>2026-04-21T16:43:05Z</time></trkpt><trkpt lat="43.22150099120068" lon="11.819859902583271"><ele>247.66666666666666</ele><time>2026-04-21T16:43:06Z</time></trkpt><trkpt lat="43.22155714700679" lon="11.820081217624583"><ele>247.0</ele><time>2026-04-21T16:43:07Z</time></trkpt><trkpt lat="43.22161062298667" lon="11.820299052878893"><ele>247.0</ele><time>2026-04-21T16:43:08Z</time></trkpt><trkpt lat="43.22166790909683" lon="11.820525847326476"><ele>247.0</ele><time>2026-04-21T16:43:09Z</time></trkpt><trkpt lat="43.2217308672639" lon="11.820770178575287"><ele>247.0</ele><time>2026-04-21T16:43:10Z</time></trkpt><trkpt lat="43.221795207274184" lon="11.821023015660966"><ele>247.0</ele><time>2026-04-21T16:43:11Z</time></trkpt><trkpt lat="43.22186314270094" lon="11.821287090818059"><ele>247.0</ele><time>2026-04-21T16:43:12Z</time></trkpt><trkpt lat="43.221930244165335" lon="11.8215563408838"><ele>247.0</ele><time>2026-04-21T16:43:13Z</time></trkpt><trkpt lat="43.221996760892026" lon="11.821830144191072"><ele>247.0</ele><time>2026-04-21T16:43:14Z</time></trkpt><trkpt lat="43.2220670308512" lon="11.822106742339619"><ele>247.0</ele><time>2026-04-21T16:43:15Z</time></trkpt><trkpt lat="43.22213697047736" lon="11.82238591248807"><ele>247.0</ele><time>2026-04-21T16:43:16Z</time></trkpt><trkpt lat="43.2222089256534" lon="11.822667546142307"><ele>247.0</ele><time>2026-04-21T16:43:17Z</time></trkpt><trkpt lat="43.22228148929018" lon="11.822950551595575"><ele>247.0</ele><time>2026-04-21T16:43:18Z</time></trkpt><trkpt lat="43.22235323134297" lon="11.823228451345692"><ele>247.0</ele><time>2026-04-21T16:43:19Z</time></trkpt><trkpt lat="43.222426456466486" lon="11.823518808410766"><ele>247.5</ele><time>2026-04-21T16:43:20Z</time></trkpt><trkpt lat="43.22250023123261" lon="11.82381102237548"><ele>248.0</ele><time>2026-04-21T16:43:21Z</time></trkpt><trkpt lat="43.222575095921904" lon="11.824107985085732"><ele>249.0</ele><time>2026-04-21T16:43:22Z</time></trkpt><trkpt lat="43.222650596179896" lon="11.824407871796991"><ele>250.0</ele><time>2026-04-21T16:43:23Z</time></trkpt><trkpt lat="43.222723832238934" lon="11.824709243898731"><ele>250.0</ele><time>2026-04-21T16:43:24Z</time></trkpt><trkpt lat="43.22280002509877" lon="11.825012799817364"><ele>250.0</ele><time>2026-04-21T16:43:25Z</time></trkpt><trkpt lat="43.22287329287536" lon="11.825313844663366"><ele>248.5</ele><time>2026-04-21T16:43:26Z</time></trkpt><trkpt lat="43.22294233263721" lon="11.825614588960764"><ele>247.0</ele><time>2026-04-21T16:43:27Z</time></trkpt><trkpt lat="43.22304330691164" lon="11.82595096798099"><ele>246.5</ele><time>2026-04-21T16:43:28Z</time></trkpt><trkpt lat="43.223124053944616" lon="11.826263641929"><ele>246.0</ele><time>2026-04-21T16:43:29Z</time></trkpt><trkpt lat="43.22320399874373" lon="11.826574545264801"><ele>247.0</ele><time>2026-04-21T16:43:30Z</time></trkpt><trkpt lat="43.22327672215384" lon="11.826864040689914"><ele>248.0</ele><time>2026-04-21T16:43:31Z</time></trkpt><trkpt lat="43.22335329826183" lon="11.827160764173625"><ele>248.0</ele><time>2026-04-21T16:43:32Z</time></trkpt><trkpt lat="43.22344421263761" lon="11.827466117590493"><ele>248.0</ele><time>2026-04-21T16:43:33Z</time></trkpt><trkpt lat="43.223538372619416" lon="11.827774567215021"><ele>248.0</ele><time>2026-04-21T16:43:34Z</time></trkpt><trkpt lat="43.223583462853824" lon="11.828073175340391"><ele>248.0</ele><time>2026-04-21T16:43:35Z</time></trkpt><trkpt lat="43.22367295720965" lon="11.828390546787489"><ele>247.0</ele><time>2026-04-21T16:43:36Z</time></trkpt><trkpt lat="43.223766033588234" lon="11.82870442127584"><ele>246.0</ele><time>2026-04-21T16:43:37Z</time></trkpt><trkpt lat="43.22385983377317" lon="11.829012736383964"><ele>245.5</ele><time>2026-04-21T16:43:38Z</time></trkpt><trkpt lat="43.223959619598716" lon="11.829317600537667"><ele>245.0</ele><time>2026-04-21T16:43:39Z</time></trkpt><trkpt lat="43.224057686031394" lon="11.829620273542828"><ele>247.0</ele><time>2026-04-21T16:43:40Z</time></trkpt><trkpt lat="43.22416535126001" lon="11.829912822731652"><ele>249.0</ele><time>2026-04-21T16:43:41Z</time></trkpt><trkpt lat="43.22427252591802" lon="11.83020662274622"><ele>249.0</ele><time>2026-04-21T16:43:42Z</time></trkpt><trkpt lat="43.22438449355369" lon="11.830492994664866"><ele>249.0</ele><time>2026-04-21T16:43:43Z</time></trkpt><trkpt lat="43.22449849750466" lon="11.830781642098746"><ele>248.5</ele><time>2026-04-21T16:43:44Z</time></trkpt><trkpt lat="43.224620454795094" lon="11.831067542672223"><ele>248.0</ele><time>2026-04-21T16:43:45Z</time></trkpt><trkpt lat="43.22474651209035" lon="11.831354536755086"><ele>248.0</ele><time>2026-04-21T16:43:46Z</time></trkpt><trkpt lat="43.224865786460846" lon="11.83163754177968"><ele>248.0</ele><time>2026-04-21T16:43:47Z</time></trkpt><trkpt lat="43.22497824503655" lon="11.83192063527948"><ele>248.0</ele><time>2026-04-21T16:43:48Z</time></trkpt><trkpt lat="43.22509421645199" lon="11.8322211825535"><ele>248.0</ele><time>2026-04-21T16:43:49Z</time></trkpt><trkpt lat="43.225217193632396" lon="11.832518338650177"><ele>246.5</ele><time>2026-04-21T16:43:50Z</time></trkpt><trkpt lat="43.225343621072795" lon="11.83281103450481"><ele>245.0</ele><time>2026-04-21T16:43:51Z</time></trkpt><trkpt lat="43.22547588476317" lon="11.833110397886484"><ele>245.0</ele><time>2026-04-21T16:43:52Z</time></trkpt><trkpt lat="43.225608950613086" lon="11.833411173775668"><ele>245.0</ele><time>2026-04-21T16:43:53Z</time></trkpt><trkpt lat="43.225737381556876" lon="11.833723962161038"><ele>244.5</ele><time>2026-04-21T16:43:54Z</time></trkpt><trkpt lat="43.22586996779164" lon="11.834036350655964"><ele>244.0</ele><time>2026-04-21T16:43:55Z</time></trkpt><trkpt lat="43.22599928439378" lon="11.83435468311513"><ele>244.0</ele><time>2026-04-21T16:43:56Z</time></trkpt><trkpt lat="43.22612785418207" lon="11.834683719453212"><ele>244.0</ele><time>2026-04-21T16:43:57Z</time></trkpt><trkpt lat="43.22625716411284" lon="11.83500803235036"><ele>245.0</ele><time>2026-04-21T16:43:58Z</time></trkpt><trkpt lat="43.22638545667638" lon="11.835325360726506"><ele>246.0</ele><time>2026-04-21T16:43:59Z</time></trkpt><trkpt lat="43.22652272872697" lon="11.835650604374205"><ele>246.0</ele><time>2026-04-21T16:44:00Z</time></trkpt><trkpt lat="43.22666696965361" lon="11.835967223973249"><ele>246.0</ele><time>2026-04-21T16:44:01Z</time></trkpt><trkpt lat="43.22682229988306" lon="11.836276747038067"><ele>246.5</ele><time>2026-04-21T16:44:02Z</time></trkpt><trkpt lat="43.226985511812586" lon="11.83658118550567"><ele>247.0</ele><time>2026-04-21T16:44:03Z</time></trkpt><trkpt lat="43.227151443053245" lon="11.836881448110718"><ele>248.5</ele><time>2026-04-21T16:44:04Z</time></trkpt><trkpt lat="43.22732105427983" lon="11.83717865914583"><ele>250.0</ele><time>2026-04-21T16:44:05Z</time></trkpt><trkpt lat="43.22749144634257" lon="11.837476371446021"><ele>250.5</ele><time>2026-04-21T16:44:06Z</time></trkpt><trkpt lat="43.22766591831473" lon="11.837762802834602"><ele>251.0</ele><time>2026-04-21T16:44:07Z</time></trkpt><trkpt lat="43.22784637246246" lon="11.838040435046382"><ele>251.0</ele><time>2026-04-21T16:44:08Z</time></trkpt><trkpt lat="43.228031064211876" lon="11.838312586004587"><ele>251.0</ele><time>2026-04-21T16:44:09Z</time></trkpt><trkpt lat="43.22821989521866" lon="11.838579928657312"><ele>251.5</ele><time>2026-04-21T16:44:10Z</time></trkpt><trkpt lat="43.2284068927739" lon="11.838836960861542"><ele>252.0</ele><time>2026-04-21T16:44:11Z</time></trkpt><trkpt lat="43.228596796233525" lon="11.839088643552063"><ele>252.5</ele><time>2026-04-21T16:44:12Z</time></trkpt><trkpt lat="43.22878997347934" lon="11.839336730500811"><ele>253.0</ele><time>2026-04-21T16:44:13Z</time></trkpt><trkpt lat="43.22898772361106" lon="11.839579700897076"><ele>253.0</ele><time>2026-04-21T16:44:14Z</time></trkpt><trkpt lat="43.229189414966086" lon="11.839821638461638"><ele>253.0</ele><time>2026-04-21T16:44:15Z</time></trkpt><trkpt lat="43.229391250882436" lon="11.840058735437216"><ele>256.5</ele><time>2026-04-21T16:44:16Z</time></trkpt><trkpt lat="43.229594775845854" lon="11.840299265836753"><ele>260.0</ele><time>2026-04-21T16:44:17Z</time></trkpt><trkpt lat="43.229796269519284" lon="11.84053870283351"><ele>258.0</ele><time>2026-04-21T16:44:18Z</time></trkpt><trkpt lat="43.229995631306565" lon="11.840776948388042"><ele>256.0</ele><time>2026-04-21T16:44:19Z</time></trkpt><trkpt lat="43.23019591828282" lon="11.841012331956586"><ele>260.0</ele><time>2026-04-21T16:44:20Z</time></trkpt><trkpt lat="43.23039599505982" lon="11.84124929974203"><ele>264.0</ele><time>2026-04-21T16:44:21Z</time></trkpt><trkpt lat="43.23059485148743" lon="11.841481643780632"><ele>263.0</ele><time>2026-04-21T16:44:22Z</time></trkpt><trkpt lat="43.23079806487231" lon="11.841712057039476"><ele>262.0</ele><time>2026-04-21T16:44:23Z</time></trkpt><trkpt lat="43.2310005272627" lon="11.841942372728559"><ele>262.0</ele><time>2026-04-21T16:44:24Z</time></trkpt><trkpt lat="43.23120337146074" lon="11.842170750411114"><ele>262.0</ele><time>2026-04-21T16:44:25Z</time></trkpt><trkpt lat="43.23140389254148" lon="11.842403876053105"><ele>261.0</ele><time>2026-04-21T16:44:26Z</time></trkpt><trkpt lat="43.23159763879398" lon="11.84263918965186"><ele>260.0</ele><time>2026-04-21T16:44:27Z</time></trkpt><trkpt lat="43.23179385724726" lon="11.84287961802946"><ele>260.0</ele><time>2026-04-21T16:44:28Z</time></trkpt><trkpt lat="43.2319872036002" lon="11.843117381436931"><ele>260.0</ele><time>2026-04-21T16:44:29Z</time></trkpt><trkpt lat="43.23217212691688" lon="11.843349944005471"><ele>259.0</ele><time>2026-04-21T16:44:30Z</time></trkpt><trkpt lat="43.23234575383287" lon="11.843586338031235"><ele>258.0</ele><time>2026-04-21T16:44:31Z</time></trkpt><trkpt lat="43.23251409507284" lon="11.843837670346533"><ele>258.0</ele><time>2026-04-21T16:44:32Z</time></trkpt><trkpt lat="43.232670886435805" lon="11.84410769779328"><ele>258.0</ele><time>2026-04-21T16:44:33Z</time></trkpt><trkpt lat="43.232818202845614" lon="11.844390546985375"><ele>260.0</ele><time>2026-04-21T16:44:34Z</time></trkpt><trkpt lat="43.23295514359033" lon="11.844688912440562"><ele>262.0</ele><time>2026-04-21T16:44:35Z</time></trkpt><trkpt lat="43.23307444528386" lon="11.844995479298811"><ele>261.0</ele><time>2026-04-21T16:44:36Z</time></trkpt><trkpt lat="43.23318090775738" lon="11.84531081808256"><ele>260.0</ele><time>2026-04-21T16:44:37Z</time></trkpt><trkpt lat="43.233277170297264" lon="11.845638026221204"><ele>264.5</ele><time>2026-04-21T16:44:38Z</time></trkpt><trkpt lat="43.23335870089964" lon="11.845971380740854"><ele>269.0</ele><time>2026-04-21T16:44:39Z</time></trkpt><trkpt lat="43.23342932337173" lon="11.846303843124451"><ele>269.0</ele><time>2026-04-21T16:44:40Z</time></trkpt><trkpt lat="43.23348501071479" lon="11.846635010938243"><ele>269.0</ele><time>2026-04-21T16:44:41Z</time></trkpt><trkpt lat="43.23352763581866" lon="11.846974485053348"><ele>272.0</ele><time>2026-04-21T16:44:42Z</time></trkpt><trkpt lat="43.23355386743121" lon="11.847321052237294"><ele>275.0</ele><time>2026-04-21T16:44:43Z</time></trkpt><trkpt lat="43.23356414403041" lon="11.847669086438577"><ele>275.0</ele><time>2026-04-21T16:44:44Z</time></trkpt><trkpt lat="43.233558362484" lon="11.848017811657456"><ele>275.0</ele><time>2026-04-21T16:44:45Z</time></trkpt><trkpt lat="43.23353460707779" lon="11.848368217531362"><ele>274.0</ele><time>2026-04-21T16:44:46Z</time></trkpt><trkpt lat="43.23349846442444" lon="11.848713619104847"><ele>273.0</ele><time>2026-04-21T16:44:47Z</time></trkpt><trkpt lat="43.23345173422704" lon="11.84905823867263"><ele>272.0</ele><time>2026-04-21T16:44:48Z</time></trkpt><trkpt lat="43.23339147081872" lon="11.84940283905411"><ele>271.0</ele><time>2026-04-21T16:44:49Z</time></trkpt><trkpt lat="43.23331919530557" lon="11.849738023074957"><ele>271.0</ele><time>2026-04-21T16:44:50Z</time></trkpt><trkpt lat="43.23323097321033" lon="11.850061395315622"><ele>271.0</ele><time>2026-04-21T16:44:51Z</time></trkpt><trkpt lat="43.23313015958299" lon="11.850374181041266"><ele>270.5</ele><time>2026-04-21T16:44:52Z</time></trkpt><trkpt lat="43.233016416145674" lon="11.85067352001197"><ele>270.0</ele><time>2026-04-21T16:44:53Z</time></trkpt><trkpt lat="43.2328922030229" lon="11.850959085366764"><ele>270.0</ele><time>2026-04-21T16:44:54Z</time></trkpt><trkpt lat="43.232752553138575" lon="11.8512359700599"><ele>270.0</ele><time>2026-04-21T16:44:55Z</time></trkpt><trkpt lat="43.23260184208533" lon="11.851508320544648"><ele>270.0</ele><time>2026-04-21T16:44:56Z</time></trkpt><trkpt lat="43.23243724844186" lon="11.851777847533338"><ele>270.0</ele><time>2026-04-21T16:44:57Z</time></trkpt><trkpt lat="43.23227159873284" lon="11.852047706182887"><ele>268.0</ele><time>2026-04-21T16:44:58Z</time></trkpt><trkpt lat="43.23210422903389" lon="11.852320742470813"><ele>266.0</ele><time>2026-04-21T16:44:59Z</time></trkpt><trkpt lat="43.23193963503688" lon="11.852593192101441"><ele>268.5</ele><time>2026-04-21T16:45:00Z</time></trkpt><trkpt lat="43.231776084162625" lon="11.852867297270043"><ele>271.0</ele><time>2026-04-21T16:45:01Z</time></trkpt><trkpt lat="43.231619304999" lon="11.853140205561854"><ele>271.0</ele><time>2026-04-21T16:45:02Z</time></trkpt><trkpt lat="43.23147542578725" lon="11.853404725690487"><ele>271.0</ele><time>2026-04-21T16:45:03Z</time></trkpt><trkpt lat="43.23134229627754" lon="11.853681389903338"><ele>268.5</ele><time>2026-04-21T16:45:04Z</time></trkpt><trkpt lat="43.23121988104986" lon="11.853975697218177"><ele>266.0</ele><time>2026-04-21T16:45:05Z</time></trkpt><trkpt lat="43.23110627015421" lon="11.854278615497636"><ele>268.0</ele><time>2026-04-21T16:45:06Z</time></trkpt><trkpt lat="43.23100578699467" lon="11.854593807806744"><ele>270.0</ele><time>2026-04-21T16:45:07Z</time></trkpt><trkpt lat="43.23091903655043" lon="11.854916858391745"><ele>270.5</ele><time>2026-04-21T16:45:08Z</time></trkpt><trkpt lat="43.230844858358616" lon="11.855243810280621"><ele>271.0</ele><time>2026-04-21T16:45:09Z</time></trkpt><trkpt lat="43.23078084888563" lon="11.855576169109707"><ele>271.0</ele><time>2026-04-21T16:45:10Z</time></trkpt><trkpt lat="43.23073505848384" lon="11.855924308676691"><ele>271.0</ele><time>2026-04-21T16:45:11Z</time></trkpt><trkpt lat="43.230700822978996" lon="11.856273571425572"><ele>269.5</ele><time>2026-04-21T16:45:12Z</time></trkpt><trkpt lat="43.23068092678106" lon="11.856633911725961"><ele>268.0</ele><time>2026-04-21T16:45:13Z</time></trkpt><trkpt lat="43.23067356485654" lon="11.856994624678993"><ele>266.0</ele><time>2026-04-21T16:45:14Z</time></trkpt><trkpt lat="43.23068053132552" lon="11.857353134221178"><ele>264.0</ele><time>2026-04-21T16:45:15Z</time></trkpt><trkpt lat="43.23069354867624" lon="11.857721469956745"><ele>262.0</ele><time>2026-04-21T16:45:16Z</time></trkpt><trkpt lat="43.23070254120968" lon="11.858078658600219"><ele>260.0</ele><time>2026-04-21T16:45:17Z</time></trkpt><trkpt lat="43.2307080413817" lon="11.858442700380182"><ele>258.5</ele><time>2026-04-21T16:45:18Z</time></trkpt><trkpt lat="43.23070986358208" lon="11.858812400180945"><ele>257.0</ele><time>2026-04-21T16:45:19Z</time></trkpt><trkpt lat="43.23070965047147" lon="11.859183091443786"><ele>258.0</ele><time>2026-04-21T16:45:20Z</time></trkpt><trkpt lat="43.23071085145626" lon="11.859552851636922"><ele>259.0</ele><time>2026-04-21T16:45:21Z</time></trkpt><trkpt lat="43.23071352691522" lon="11.859924687028348"><ele>259.0</ele><time>2026-04-21T16:45:22Z</time></trkpt><trkpt lat="43.23071808675297" lon="11.860298887985197"><ele>259.0</ele><time>2026-04-21T16:45:23Z</time></trkpt><trkpt lat="43.230721514016274" lon="11.860665819791897"><ele>259.0</ele><time>2026-04-21T16:45:24Z</time></trkpt><trkpt lat="43.230726552744486" lon="11.861035407285284"><ele>259.0</ele><time>2026-04-21T16:45:25Z</time></trkpt><trkpt lat="43.23073186239383" lon="11.861405082929293"><ele>259.0</ele><time>2026-04-21T16:45:26Z</time></trkpt><trkpt lat="43.23073858944009" lon="11.861777438312368"><ele>259.0</ele><time>2026-04-21T16:45:27Z</time></trkpt><trkpt lat="43.2307442718636" lon="11.862150626470365"><ele>261.0</ele><time>2026-04-21T16:45:28Z</time></trkpt><trkpt lat="43.230746996964236" lon="11.862520133841082"><ele>263.0</ele><time>2026-04-21T16:45:29Z</time></trkpt><trkpt lat="43.23075429570724" lon="11.862897732064164"><ele>264.0</ele><time>2026-04-21T16:45:30Z</time></trkpt><trkpt lat="43.230758521748655" lon="11.86327719224745"><ele>265.0</ele><time>2026-04-21T16:45:31Z</time></trkpt><trkpt lat="43.230760511000376" lon="11.863646993343517"><ele>265.0</ele><time>2026-04-21T16:45:32Z</time></trkpt><trkpt lat="43.23075674008295" lon="11.864026671162065"><ele>265.0</ele><time>2026-04-21T16:45:33Z</time></trkpt><trkpt lat="43.23075868293349" lon="11.864399542869002"><ele>265.0</ele><time>2026-04-21T16:45:34Z</time></trkpt><trkpt lat="43.230755182311775" lon="11.864778378822221"><ele>265.0</ele><time>2026-04-21T16:45:35Z</time></trkpt><trkpt lat="43.230745194466785" lon="11.865156721337367"><ele>265.0</ele><time>2026-04-21T16:45:36Z</time></trkpt><trkpt lat="43.23073128775932" lon="11.865530483933776"><ele>265.0</ele><time>2026-04-21T16:45:37Z</time></trkpt><trkpt lat="43.2307081856652" lon="11.86591057051795"><ele>264.0</ele><time>2026-04-21T16:45:38Z</time></trkpt><trkpt lat="43.23068110943293" lon="11.866283816118692"><ele>263.0</ele><time>2026-04-21T16:45:39Z</time></trkpt><trkpt lat="43.230650386384156" lon="11.866649934660344"><ele>265.0</ele><time>2026-04-21T16:45:40Z</time></trkpt><trkpt lat="43.23061476689435" lon="11.867020690443187"><ele>267.0</ele><time>2026-04-21T16:45:41Z</time></trkpt><trkpt lat="43.230578214623016" lon="11.867382242140923"><ele>266.0</ele><time>2026-04-21T16:45:42Z</time></trkpt><trkpt lat="43.2305399519884" lon="11.867743992854484"><ele>265.0</ele><time>2026-04-21T16:45:43Z</time></trkpt><trkpt lat="43.23049971939804" lon="11.868105445861687"><ele>265.0</ele><time>2026-04-21T16:45:44Z</time></trkpt><trkpt lat="43.23046130034467" lon="11.868463928159175"><ele>265.0</ele><time>2026-04-21T16:45:45Z</time></trkpt><trkpt lat="43.230423844289795" lon="11.86882150407566"><ele>265.0</ele><time>2026-04-21T16:45:46Z</time></trkpt><trkpt lat="43.23038473900615" lon="11.869180779606392"><ele>265.0</ele><time>2026-04-21T16:45:47Z</time></trkpt><trkpt lat="43.2303482028802" lon="11.869537886135126"><ele>266.0</ele><time>2026-04-21T16:45:48Z</time></trkpt><trkpt lat="43.230307843427425" lon="11.869893473991574"><ele>267.0</ele><time>2026-04-21T16:45:49Z</time></trkpt><trkpt lat="43.230268461859836" lon="11.870249979401306"><ele>267.0</ele><time>2026-04-21T16:45:50Z</time></trkpt><trkpt lat="43.230229795232766" lon="11.870604816007646"><ele>267.0</ele><time>2026-04-21T16:45:51Z</time></trkpt><trkpt lat="43.23019353201971" lon="11.870961622503991"><ele>266.5</ele><time>2026-04-21T16:45:52Z</time></trkpt><trkpt lat="43.23015632503205" lon="11.871316432411627"><ele>266.0</ele><time>2026-04-21T16:45:53Z</time></trkpt><trkpt lat="43.23011949495214" lon="11.871669620207074"><ele>266.0</ele><time>2026-04-21T16:45:54Z</time></trkpt><trkpt lat="43.23008131765561" lon="11.872023936838454"><ele>266.0</ele><time>2026-04-21T16:45:55Z</time></trkpt><trkpt lat="43.23004366749987" lon="11.872376461939792"><ele>266.5</ele><time>2026-04-21T16:45:56Z</time></trkpt><trkpt lat="43.230004915282535" lon="11.872726247884541"><ele>267.0</ele><time>2026-04-21T16:45:57Z</time></trkpt><trkpt lat="43.22996693268855" lon="11.87308012458977"><ele>267.0</ele><time>2026-04-21T16:45:58Z</time></trkpt><trkpt lat="43.2299288753858" lon="11.873436874624009"><ele>267.0</ele><time>2026-04-21T16:45:59Z</time></trkpt><trkpt lat="43.22989112796792" lon="11.873791081869959"><ele>267.5</ele><time>2026-04-21T16:46:00Z</time></trkpt><trkpt lat="43.229855363285665" lon="11.874144664271803"><ele>268.0</ele><time>2026-04-21T16:46:01Z</time></trkpt><trkpt lat="43.22981970262122" lon="11.874499222342452"><ele>270.0</ele><time>2026-04-21T16:46:02Z</time></trkpt><trkpt lat="43.22978669458593" lon="11.874853086084034"><ele>272.0</ele><time>2026-04-21T16:46:03Z</time></trkpt><trkpt lat="43.22974650838413" lon="11.875207647420137"><ele>272.0</ele><time>2026-04-21T16:46:04Z</time></trkpt><trkpt lat="43.229706626286685" lon="11.875560367100272"><ele>272.0</ele><time>2026-04-21T16:46:05Z</time></trkpt><trkpt lat="43.22967131901085" lon="11.875909907057148"><ele>273.0</ele><time>2026-04-21T16:46:06Z</time></trkpt><trkpt lat="43.22963985325196" lon="11.876254546713984"><ele>274.0</ele><time>2026-04-21T16:46:07Z</time></trkpt><trkpt lat="43.22960461559695" lon="11.876594403971431"><ele>277.5</ele><time>2026-04-21T16:46:08Z</time></trkpt><trkpt lat="43.2295706468089" lon="11.876929613415484"><ele>281.0</ele><time>2026-04-21T16:46:09Z</time></trkpt><trkpt lat="43.22954503767279" lon="11.877262921471294"><ele>283.5</ele><time>2026-04-21T16:46:10Z</time></trkpt><trkpt lat="43.229521853563604" lon="11.877608933034315"><ele>286.0</ele><time>2026-04-21T16:46:11Z</time></trkpt><trkpt lat="43.22949629045294" lon="11.87794694838559"><ele>286.0</ele><time>2026-04-21T16:46:12Z</time></trkpt><trkpt lat="43.229477792429805" lon="11.878288767573409"><ele>286.0</ele><time>2026-04-21T16:46:13Z</time></trkpt><trkpt lat="43.22946555041959" lon="11.878634593970997"><ele>287.5</ele><time>2026-04-21T16:46:14Z</time></trkpt><trkpt lat="43.229456653774726" lon="11.8789748695762"><ele>289.0</ele><time>2026-04-21T16:46:15Z</time></trkpt><trkpt lat="43.22945052187993" lon="11.879318620856319"><ele>289.5</ele><time>2026-04-21T16:46:16Z</time></trkpt><trkpt lat="43.22944617770593" lon="11.879674612394487"><ele>290.0</ele><time>2026-04-21T16:46:17Z</time></trkpt><trkpt lat="43.22945947708902" lon="11.880029612542018"><ele>289.5</ele><time>2026-04-21T16:46:18Z</time></trkpt><trkpt lat="43.22947465591716" lon="11.880382566824776"><ele>289.0</ele><time>2026-04-21T16:46:19Z</time></trkpt><trkpt lat="43.22949058823082" lon="11.88073378489557"><ele>292.0</ele><time>2026-04-21T16:46:20Z</time></trkpt><trkpt lat="43.22950634003504" lon="11.881096956274243"><ele>295.0</ele><time>2026-04-21T16:46:21Z</time></trkpt><trkpt lat="43.22951958347433" lon="11.88145648977743"><ele>297.5</ele><time>2026-04-21T16:46:22Z</time></trkpt><trkpt lat="43.22953313044928" lon="11.881819719422221"><ele>300.0</ele><time>2026-04-21T16:46:23Z</time></trkpt><trkpt lat="43.22954818233259" lon="11.882173426476024"><ele>300.0</ele><time>2026-04-21T16:46:24Z</time></trkpt><trkpt lat="43.22956140757924" lon="11.88251721585212"><ele>300.0</ele><time>2026-04-21T16:46:25Z</time></trkpt><trkpt lat="43.229578438208584" lon="11.882871917529444"><ele>301.0</ele><time>2026-04-21T16:46:26Z</time></trkpt><trkpt lat="43.22959534251624" lon="11.883227876952242"><ele>302.0</ele><time>2026-04-21T16:46:27Z</time></trkpt><trkpt lat="43.22960317451225" lon="11.883581863689225"><ele>302.0</ele><time>2026-04-21T16:46:28Z</time></trkpt><trkpt lat="43.22960554489055" lon="11.883943234295483"><ele>302.0</ele><time>2026-04-21T16:46:29Z</time></trkpt><trkpt lat="43.22959314014105" lon="11.88429611673724"><ele>302.0</ele><time>2026-04-21T16:46:30Z</time></trkpt><trkpt lat="43.22956932325302" lon="11.884649009091177"><ele>302.0</ele><time>2026-04-21T16:46:31Z</time></trkpt><trkpt lat="43.229540209230784" lon="11.884996411597381"><ele>300.5</ele><time>2026-04-21T16:46:32Z</time></trkpt><trkpt lat="43.229510742361256" lon="11.885348878180212"><ele>299.0</ele><time>2026-04-21T16:46:33Z</time></trkpt><trkpt lat="43.22946587983594" lon="11.8856755041664"><ele>298.0</ele><time>2026-04-21T16:46:34Z</time></trkpt><trkpt lat="43.229424555695594" lon="11.88600256830254"><ele>297.0</ele><time>2026-04-21T16:46:35Z</time></trkpt><trkpt lat="43.22937537168341" lon="11.886332255629144"><ele>297.0</ele><time>2026-04-21T16:46:36Z</time></trkpt><trkpt lat="43.229314893202094" lon="11.88666917679446"><ele>297.0</ele><time>2026-04-21T16:46:37Z</time></trkpt><trkpt lat="43.22924246587874" lon="11.887031550614497"><ele>297.5</ele><time>2026-04-21T16:46:38Z</time></trkpt><trkpt lat="43.22916544448139" lon="11.887352612422836"><ele>298.0</ele><time>2026-04-21T16:46:39Z</time></trkpt><trkpt lat="43.22907797353031" lon="11.887686390093311"><ele>299.5</ele><time>2026-04-21T16:46:40Z</time></trkpt><trkpt lat="43.22898728415872" lon="11.888016590133036"><ele>301.0</ele><time>2026-04-21T16:46:41Z</time></trkpt><trkpt lat="43.22888899657542" lon="11.888350443524374"><ele>295.5</ele><time>2026-04-21T16:46:42Z</time></trkpt><trkpt lat="43.228787271391354" lon="11.888681718079546"><ele>290.0</ele><time>2026-04-21T16:46:43Z</time></trkpt><trkpt lat="43.22867682519697" lon="11.889008253025969"><ele>290.5</ele><time>2026-04-21T16:46:44Z</time></trkpt><trkpt lat="43.22856179133038" lon="11.889327539911406"><ele>291.0</ele><time>2026-04-21T16:46:45Z</time></trkpt><trkpt lat="43.2284423070955" lon="11.889645714453287"><ele>291.0</ele><time>2026-04-21T16:46:46Z</time></trkpt><trkpt lat="43.22831781604925" lon="11.88996158156274"><ele>291.0</ele><time>2026-04-21T16:46:47Z</time></trkpt><trkpt lat="43.22818897463439" lon="11.890275028713143"><ele>289.5</ele><time>2026-04-21T16:46:48Z</time></trkpt><trkpt lat="43.22805942673522" lon="11.890588475340955"><ele>288.0</ele><time>2026-04-21T16:46:49Z</time></trkpt><trkpt lat="43.22792990812198" lon="11.890902843870288"><ele>290.5</ele><time>2026-04-21T16:46:50Z</time></trkpt><trkpt lat="43.22780425944183" lon="11.891219295024985"><ele>293.0</ele><time>2026-04-21T16:46:51Z</time></trkpt><trkpt lat="43.22768072638819" lon="11.89153721080356"><ele>294.5</ele><time>2026-04-21T16:46:52Z</time></trkpt><trkpt lat="43.2275615072738" lon="11.89185788437042"><ele>296.0</ele><time>2026-04-21T16:46:53Z</time></trkpt><trkpt lat="43.22744684712542" lon="11.892183429979095"><ele>296.0</ele><time>2026-04-21T16:46:54Z</time></trkpt><trkpt lat="43.2273318450015" lon="11.892511010361137"><ele>296.0</ele><time>2026-04-21T16:46:55Z</time></trkpt><trkpt lat="43.22721811584638" lon="11.892841873133998"><ele>295.5</ele><time>2026-04-21T16:46:56Z</time></trkpt><trkpt lat="43.227118531539816" lon="11.893168032094303"><ele>295.0</ele><time>2026-04-21T16:46:57Z</time></trkpt><trkpt lat="43.22702067566793" lon="11.893501221815017"><ele>295.0</ele><time>2026-04-21T16:46:58Z</time></trkpt><trkpt lat="43.22692098943106" lon="11.893828712926979"><ele>295.0</ele><time>2026-04-21T16:46:59Z</time></trkpt><trkpt lat="43.22682607553273" lon="11.894168593762549"><ele>297.0</ele><time>2026-04-21T16:47:00Z</time></trkpt><trkpt lat="43.22672926418088" lon="11.894499648216176"><ele>299.0</ele><time>2026-04-21T16:47:01Z</time></trkpt><trkpt lat="43.226638288213984" lon="11.894835167233815"><ele>300.5</ele><time>2026-04-21T16:47:02Z</time></trkpt><trkpt lat="43.226551524499264" lon="11.895170105102089"><ele>302.0</ele><time>2026-04-21T16:47:03Z</time></trkpt><trkpt lat="43.22646876226307" lon="11.895512409307985"><ele>297.0</ele><time>2026-04-21T16:47:04Z</time></trkpt><trkpt lat="43.22638905404784" lon="11.89584788866012"><ele>292.0</ele><time>2026-04-21T16:47:05Z</time></trkpt><trkpt lat="43.22631196437615" lon="11.896190394235497"><ele>292.0</ele><time>2026-04-21T16:47:06Z</time></trkpt><trkpt lat="43.22623927457264" lon="11.89652197044544"><ele>292.0</ele><time>2026-04-21T16:47:07Z</time></trkpt><trkpt lat="43.22616087080318" lon="11.896856184825648"><ele>291.5</ele><time>2026-04-21T16:47:08Z</time></trkpt><trkpt lat="43.22608132487789" lon="11.897180043854375"><ele>291.0</ele><time>2026-04-21T16:47:09Z</time></trkpt><trkpt lat="43.225994140047284" lon="11.89750320654434"><ele>290.5</ele><time>2026-04-21T16:47:10Z</time></trkpt><trkpt lat="43.22589671582133" lon="11.897829307120066"><ele>290.0</ele><time>2026-04-21T16:47:11Z</time></trkpt><trkpt lat="43.2257905318823" lon="11.898143536305867"><ele>290.0</ele><time>2026-04-21T16:47:12Z</time></trkpt><trkpt lat="43.225678642957476" lon="11.898457174353887"><ele>290.0</ele><time>2026-04-21T16:47:13Z</time></trkpt><trkpt lat="43.22555853682082" lon="11.898767981042802"><ele>290.0</ele><time>2026-04-21T16:47:14Z</time></trkpt><trkpt lat="43.225434872700895" lon="11.899073388043425"><ele>290.0</ele><time>2026-04-21T16:47:15Z</time></trkpt><trkpt lat="43.22530405743769" lon="11.899377349078735"><ele>293.5</ele><time>2026-04-21T16:47:16Z</time></trkpt><trkpt lat="43.22516645670895" lon="11.899669380890698"><ele>297.0</ele><time>2026-04-21T16:47:17Z</time></trkpt><trkpt lat="43.2250224085757" lon="11.89996106459014"><ele>299.0</ele><time>2026-04-21T16:47:18Z</time></trkpt><trkpt lat="43.22487054332271" lon="11.900250527389"><ele>301.0</ele><time>2026-04-21T16:47:19Z</time></trkpt><trkpt lat="43.22471166178019" lon="11.900531733057102"><ele>303.5</ele><time>2026-04-21T16:47:20Z</time></trkpt><trkpt lat="43.22454615747866" lon="11.90080938113599"><ele>306.0</ele><time>2026-04-21T16:47:21Z</time></trkpt><trkpt lat="43.22437636792309" lon="11.901078625049003"><ele>306.5</ele><time>2026-04-21T16:47:22Z</time></trkpt><trkpt lat="43.2242014430304" lon="11.901349175759991"><ele>307.0</ele><time>2026-04-21T16:47:23Z</time></trkpt><trkpt lat="43.22402171995656" lon="11.90161315908933"><ele>305.5</ele><time>2026-04-21T16:47:24Z</time></trkpt><trkpt lat="43.22384154446599" lon="11.901878284712426"><ele>304.0</ele><time>2026-04-21T16:47:25Z</time></trkpt><trkpt lat="43.223666909601846" lon="11.90214190181727"><ele>304.0</ele><time>2026-04-21T16:47:26Z</time></trkpt><trkpt lat="43.22350007801357" lon="11.902417588466346"><ele>304.0</ele><time>2026-04-21T16:47:27Z</time></trkpt><trkpt lat="43.22334040106003" lon="11.902705759453463"><ele>302.0</ele><time>2026-04-21T16:47:28Z</time></trkpt><trkpt lat="43.223188042234234" lon="11.902992428222868"><ele>300.0</ele><time>2026-04-21T16:47:29Z</time></trkpt><trkpt lat="43.22304224916413" lon="11.903291421682821"><ele>300.0</ele><time>2026-04-21T16:47:30Z</time></trkpt><trkpt lat="43.22290163047031" lon="11.90358938575405"><ele>300.0</ele><time>2026-04-21T16:47:31Z</time></trkpt><trkpt lat="43.22276589688063" lon="11.90389641041357"><ele>300.0</ele><time>2026-04-21T16:47:32Z</time></trkpt><trkpt lat="43.22263606014285" lon="11.90420605739734"><ele>300.0</ele><time>2026-04-21T16:47:33Z</time></trkpt><trkpt lat="43.22251411187284" lon="11.90452235090915"><ele>300.5</ele><time>2026-04-21T16:47:34Z</time></trkpt><trkpt lat="43.2223992072344" lon="11.904840233193472"><ele>301.0</ele><time>2026-04-21T16:47:35Z</time></trkpt><trkpt lat="43.22229138710717" lon="11.905164058315762"><ele>306.5</ele><time>2026-04-21T16:47:36Z</time></trkpt><trkpt lat="43.2221903617766" lon="11.905488752659988"><ele>312.0</ele><time>2026-04-21T16:47:37Z</time></trkpt><trkpt lat="43.22209593099069" lon="11.905819163701475"><ele>311.5</ele><time>2026-04-21T16:47:38Z</time></trkpt><trkpt lat="43.22200801898273" lon="11.906149494093972"><ele>311.0</ele><time>2026-04-21T16:47:39Z</time></trkpt><trkpt lat="43.22192912113207" lon="11.906487790213651"><ele>310.5</ele><time>2026-04-21T16:47:40Z</time></trkpt><trkpt lat="43.221857726355374" lon="11.906823041571752"><ele>310.0</ele><time>2026-04-21T16:47:41Z</time></trkpt><trkpt lat="43.22179297992897" lon="11.907165347942216"><ele>310.0</ele><time>2026-04-21T16:47:42Z</time></trkpt><trkpt lat="43.221734393929644" lon="11.907502431946341"><ele>310.0</ele><time>2026-04-21T16:47:43Z</time></trkpt><trkpt lat="43.22168305194538" lon="11.907850365038538"><ele>309.5</ele><time>2026-04-21T16:47:44Z</time></trkpt><trkpt lat="43.22164064795667" lon="11.908195755787364"><ele>309.0</ele><time>2026-04-21T16:47:45Z</time></trkpt><trkpt lat="43.22160711615878" lon="11.908551214495551"><ele>309.0</ele><time>2026-04-21T16:47:46Z</time></trkpt><trkpt lat="43.22158138467824" lon="11.908907604428538"><ele>309.0</ele><time>2026-04-21T16:47:47Z</time></trkpt><trkpt lat="43.22155466213872" lon="11.909267266837299"><ele>309.5</ele><time>2026-04-21T16:47:48Z</time></trkpt><trkpt lat="43.22152542596865" lon="11.909628437888518"><ele>310.0</ele><time>2026-04-21T16:47:49Z</time></trkpt><trkpt lat="43.22149331887727" lon="11.909986225017827"><ele>309.5</ele><time>2026-04-21T16:47:50Z</time></trkpt><trkpt lat="43.221458298450045" lon="11.910346485452408"><ele>309.0</ele><time>2026-04-21T16:47:51Z</time></trkpt><trkpt lat="43.22142407756516" lon="11.91070977483883"><ele>309.0</ele><time>2026-04-21T16:47:52Z</time></trkpt><trkpt lat="43.22139117955104" lon="11.91107118305512"><ele>309.0</ele><time>2026-04-21T16:47:53Z</time></trkpt><trkpt lat="43.22135975000582" lon="11.911433888267972"><ele>308.5</ele><time>2026-04-21T16:47:54Z</time></trkpt><trkpt lat="43.22132697748742" lon="11.91179365691846"><ele>308.0</ele><time>2026-04-21T16:47:55Z</time></trkpt><trkpt lat="43.221293933004105" lon="11.912156099994828"><ele>308.0</ele><time>2026-04-21T16:47:56Z</time></trkpt><trkpt lat="43.22126108641636" lon="11.91251773933959"><ele>308.0</ele><time>2026-04-21T16:47:57Z</time></trkpt><trkpt lat="43.22123013268969" lon="11.912870238014177"><ele>307.5</ele><time>2026-04-21T16:47:58Z</time></trkpt><trkpt lat="43.221199334373665" lon="11.913204023372375"><ele>307.0</ele><time>2026-04-21T16:47:59Z</time></trkpt><trkpt lat="43.221169210214484" lon="11.91353754952271"><ele>307.0</ele><time>2026-04-21T16:48:00Z</time></trkpt><trkpt lat="43.22113413737358" lon="11.91387398641923"><ele>307.0</ele><time>2026-04-21T16:48:01Z</time></trkpt><trkpt lat="43.22108570529916" lon="11.914210365028975"><ele>306.0</ele><time>2026-04-21T16:48:02Z</time></trkpt><trkpt lat="43.22103146160548" lon="11.914549628395537"><ele>305.0</ele><time>2026-04-21T16:48:03Z</time></trkpt><trkpt lat="43.22096919211919" lon="11.914889327814977"><ele>305.0</ele><time>2026-04-21T16:48:04Z</time></trkpt><trkpt lat="43.22090072617927" lon="11.91523073719179"><ele>305.0</ele><time>2026-04-21T16:48:05Z</time></trkpt><trkpt lat="43.22082508910709" lon="11.915572175604625"><ele>305.0</ele><time>2026-04-21T16:48:06Z</time></trkpt><trkpt lat="43.220742349714044" lon="11.915914857405694"><ele>305.0</ele><time>2026-04-21T16:48:07Z</time></trkpt><trkpt lat="43.22065099588846" lon="11.916255466468968"><ele>304.0</ele><time>2026-04-21T16:48:08Z</time></trkpt><trkpt lat="43.22054960511999" lon="11.91659162144538"><ele>303.0</ele><time>2026-04-21T16:48:09Z</time></trkpt><trkpt lat="43.22044212867043" lon="11.916923742658648"><ele>303.0</ele><time>2026-04-21T16:48:10Z</time></trkpt><trkpt lat="43.22032941626792" lon="11.917256319020048"><ele>303.0</ele><time>2026-04-21T16:48:11Z</time></trkpt><trkpt lat="43.220207418647895" lon="11.917586904235257"><ele>303.5</ele><time>2026-04-21T16:48:12Z</time></trkpt><trkpt lat="43.22007763773443" lon="11.917913713570037"><ele>304.0</ele><time>2026-04-21T16:48:13Z</time></trkpt><trkpt lat="43.21994246971843" lon="11.91824004987764"><ele>301.5</ele><time>2026-04-21T16:48:14Z</time></trkpt><trkpt lat="43.219806484126615" lon="11.91857013040973"><ele>299.0</ele><time>2026-04-21T16:48:15Z</time></trkpt><trkpt lat="43.21966898175042" lon="11.91889859786274"><ele>299.0</ele><time>2026-04-21T16:48:16Z</time></trkpt><trkpt lat="43.21953411291924" lon="11.919232107154029"><ele>299.0</ele><time>2026-04-21T16:48:17Z</time></trkpt><trkpt lat="43.21939869351888" lon="11.91956809835126"><ele>299.0</ele><time>2026-04-21T16:48:18Z</time></trkpt><trkpt lat="43.21926365853592" lon="11.919903669301924"><ele>299.0</ele><time>2026-04-21T16:48:19Z</time></trkpt><trkpt lat="43.21912729714089" lon="11.920240564357126"><ele>298.5</ele><time>2026-04-21T16:48:20Z</time></trkpt><trkpt lat="43.21899795945473" lon="11.920579936688432"><ele>298.0</ele><time>2026-04-21T16:48:21Z</time></trkpt><trkpt lat="43.218877145346376" lon="11.920924114369589"><ele>298.0</ele><time>2026-04-21T16:48:22Z</time></trkpt><trkpt lat="43.218765652014305" lon="11.921269624585195"><ele>298.0</ele><time>2026-04-21T16:48:23Z</time></trkpt><trkpt lat="43.21865509433401" lon="11.921618292809068"><ele>298.5</ele><time>2026-04-21T16:48:24Z</time></trkpt><trkpt lat="43.218547676161144" lon="11.92196698764536"><ele>299.0</ele><time>2026-04-21T16:48:25Z</time></trkpt><trkpt lat="43.21845849025185" lon="11.922289405484916"><ele>299.5</ele><time>2026-04-21T16:48:26Z</time></trkpt><trkpt lat="43.218370700562026" lon="11.922617967257885"><ele>300.0</ele><time>2026-04-21T16:48:27Z</time></trkpt><trkpt lat="43.21828742367028" lon="11.922945665485875"><ele>300.0</ele><time>2026-04-21T16:48:28Z</time></trkpt><trkpt lat="43.218209730709695" lon="11.923275215156805"><ele>300.0</ele><time>2026-04-21T16:48:29Z</time></trkpt><trkpt lat="43.218137450182084" lon="11.923607137876376"><ele>300.5</ele><time>2026-04-21T16:48:30Z</time></trkpt><trkpt lat="43.21807189921644" lon="11.923938338638543"><ele>301.0</ele><time>2026-04-21T16:48:31Z</time></trkpt><trkpt lat="43.21800910267353" lon="11.924270409740906"><ele>301.0</ele><time>2026-04-21T16:48:32Z</time></trkpt><trkpt lat="43.217951672905805" lon="11.924579236847247"><ele>301.0</ele><time>2026-04-21T16:48:33Z</time></trkpt><trkpt lat="43.21790014053375" lon="11.924882125504903"><ele>300.66666666666663</ele><time>2026-04-21T16:48:34Z</time></trkpt><trkpt lat="43.21785680359534" lon="11.925172097290881"><ele>300.3333333333333</ele><time>2026-04-21T16:48:35Z</time></trkpt><trkpt lat="43.21781658663467" lon="11.925457803402171"><ele>300.0</ele><time>2026-04-21T16:48:36Z</time></trkpt><trkpt lat="43.21778152852452" lon="11.925717865308224"><ele>298.6666666666667</ele><time>2026-04-21T16:48:37Z</time></trkpt><trkpt lat="43.21775041395082" lon="11.925963989708753"><ele>297.33333333333337</ele><time>2026-04-21T16:48:38Z</time></trkpt><trkpt lat="43.21772208866506" lon="11.926206627159603"><ele>296.0</ele><time>2026-04-21T16:48:39Z</time></trkpt><trkpt lat="43.21769438968841" lon="11.926449524143404"><ele>296.0</ele><time>2026-04-21T16:48:40Z</time></trkpt><trkpt lat="43.217665991563145" lon="11.926680542185826"><ele>296.0</ele><time>2026-04-21T16:48:41Z</time></trkpt><trkpt lat="43.21763580141445" lon="11.926901163627504"><ele>296.0</ele><time>2026-04-21T16:48:42Z</time></trkpt><trkpt lat="43.217606194855634" lon="11.927119579633215"><ele>295.0</ele><time>2026-04-21T16:48:43Z</time></trkpt><trkpt lat="43.217578047632585" lon="11.92734649013871"><ele>294.0</ele><time>2026-04-21T16:48:44Z</time></trkpt><trkpt lat="43.21755023269306" lon="11.927566792001903"><ele>293.0</ele><time>2026-04-21T16:48:45Z</time></trkpt><trkpt lat="43.21751682650795" lon="11.92779418452772"><ele>292.6666666666667</ele><time>2026-04-21T16:48:46Z</time></trkpt><trkpt lat="43.21748625291173" lon="11.928035925341376"><ele>292.3333333333333</ele><time>2026-04-21T16:48:47Z</time></trkpt><trkpt lat="43.21745094824928" lon="11.928277428644307"><ele>292.0</ele><time>2026-04-21T16:48:48Z</time></trkpt><trkpt lat="43.2174136011717" lon="11.928524264407601"><ele>292.0</ele><time>2026-04-21T16:48:49Z</time></trkpt><trkpt lat="43.217379763100496" lon="11.928768535453877"><ele>292.0</ele><time>2026-04-21T16:48:50Z</time></trkpt><trkpt lat="43.21734033624691" lon="11.929014157183378"><ele>292.0</ele><time>2026-04-21T16:48:51Z</time></trkpt><trkpt lat="43.217296713230645" lon="11.92926024145184"><ele>291.66666666666663</ele><time>2026-04-21T16:48:52Z</time></trkpt><trkpt lat="43.21724815647525" lon="11.929509302429766"><ele>291.3333333333333</ele><time>2026-04-21T16:48:53Z</time></trkpt><trkpt lat="43.21720005947379" lon="11.929761511372872"><ele>291.0</ele><time>2026-04-21T16:48:54Z</time></trkpt><trkpt lat="43.21715202908283" lon="11.93001871045364"><ele>290.3333333333333</ele><time>2026-04-21T16:48:55Z</time></trkpt><trkpt lat="43.21709989976862" lon="11.930279285958669"><ele>289.66666666666663</ele><time>2026-04-21T16:48:56Z</time></trkpt><trkpt lat="43.21704658062742" lon="11.930545158244524"><ele>289.0</ele><time>2026-04-21T16:48:57Z</time></trkpt><trkpt lat="43.21699210162285" lon="11.930810018829437"><ele>287.0</ele><time>2026-04-21T16:48:58Z</time></trkpt><trkpt lat="43.2169329429824" lon="11.931068950395566"><ele>285.0</ele><time>2026-04-21T16:48:59Z</time></trkpt><trkpt lat="43.216871831102274" lon="11.931314755683603"><ele>283.0</ele><time>2026-04-21T16:49:00Z</time></trkpt><trkpt lat="43.21680876014534" lon="11.931558519046487"><ele>281.66666666666663</ele><time>2026-04-21T16:49:01Z</time></trkpt><trkpt lat="43.21674685775749" lon="11.931803865953034"><ele>280.3333333333333</ele><time>2026-04-21T16:49:02Z</time></trkpt><trkpt lat="43.216683363291416" lon="11.932044874467387"><ele>279.0</ele><time>2026-04-21T16:49:03Z</time></trkpt><trkpt lat="43.21661617308451" lon="11.932284553934055"><ele>279.0</ele><time>2026-04-21T16:49:04Z</time></trkpt><trkpt lat="43.216549563827684" lon="11.932522070241333"><ele>279.0</ele><time>2026-04-21T16:49:05Z</time></trkpt><trkpt lat="43.216483352161426" lon="11.932756399893877"><ele>279.0</ele><time>2026-04-21T16:49:06Z</time></trkpt><trkpt lat="43.2164169988572" lon="11.93297997196437"><ele>279.0</ele><time>2026-04-21T16:49:07Z</time></trkpt><trkpt lat="43.21634788612793" lon="11.933202344382194"><ele>279.0</ele><time>2026-04-21T16:49:08Z</time></trkpt><trkpt lat="43.21627712389184" lon="11.933428367778468"><ele>279.0</ele><time>2026-04-21T16:49:09Z</time></trkpt><trkpt lat="43.216206808981205" lon="11.933651205120645"><ele>277.0</ele><time>2026-04-21T16:49:10Z</time></trkpt><trkpt lat="43.21613059809458" lon="11.933877808714767"><ele>275.0</ele><time>2026-04-21T16:49:11Z</time></trkpt><trkpt lat="43.21605372114441" lon="11.934110264862746"><ele>273.0</ele><time>2026-04-21T16:49:12Z</time></trkpt><trkpt lat="43.215976248873005" lon="11.93433728908799"><ele>272.3333333333333</ele><time>2026-04-21T16:49:13Z</time></trkpt><trkpt lat="43.215891835221036" lon="11.93456520279881"><ele>271.66666666666663</ele><time>2026-04-21T16:49:14Z</time></trkpt><trkpt lat="43.21580834032576" lon="11.93479151765057"><ele>271.0</ele><time>2026-04-21T16:49:15Z</time></trkpt><trkpt lat="43.21572194553645" lon="11.935013516475752"><ele>270.3333333333333</ele><time>2026-04-21T16:49:16Z</time></trkpt><trkpt lat="43.215631361251454" lon="11.935240846471313"><ele>269.6666666666667</ele><time>2026-04-21T16:49:17Z</time></trkpt><trkpt lat="43.21555261039306" lon="11.935466592182312"><ele>269.0</ele><time>2026-04-21T16:49:18Z</time></trkpt><trkpt lat="43.215470964110835" lon="11.935686818914904"><ele>269.6666666666667</ele><time>2026-04-21T16:49:19Z</time></trkpt><trkpt lat="43.21538876638475" lon="11.935898647214204"><ele>270.3333333333333</ele><time>2026-04-21T16:49:20Z</time></trkpt><trkpt lat="43.21530691474013" lon="11.936113497059877"><ele>271.0</ele><time>2026-04-21T16:49:21Z</time></trkpt><trkpt lat="43.215226378252495" lon="11.936325530108384"><ele>271.0</ele><time>2026-04-21T16:49:22Z</time></trkpt><trkpt lat="43.21514480919476" lon="11.936538829339211"><ele>271.0</ele><time>2026-04-21T16:49:23Z</time></trkpt><trkpt lat="43.21506208723122" lon="11.936753962997528"><ele>271.0</ele><time>2026-04-21T16:49:24Z</time></trkpt><trkpt lat="43.21498251365335" lon="11.936967053187736"><ele>270.3333333333333</ele><time>2026-04-21T16:49:25Z</time></trkpt><trkpt lat="43.21490161809443" lon="11.937182324415092"><ele>269.6666666666667</ele><time>2026-04-21T16:49:26Z</time></trkpt><trkpt lat="43.21482116383681" lon="11.937392613984423"><ele>269.0</ele><time>2026-04-21T16:49:27Z</time></trkpt><trkpt lat="43.21474454872911" lon="11.937598761357645"><ele>269.0</ele><time>2026-04-21T16:49:28Z</time></trkpt><trkpt lat="43.21466516522657" lon="11.937810667762768"><ele>269.0</ele><time>2026-04-21T16:49:29Z</time></trkpt><trkpt lat="43.21458067544336" lon="11.938034194424436"><ele>269.0</ele><time>2026-04-21T16:49:30Z</time></trkpt><trkpt lat="43.21449441561587" lon="11.938253457743796"><ele>270.0</ele><time>2026-04-21T16:49:31Z</time></trkpt><trkpt lat="43.21441105541621" lon="11.938470016465407"><ele>271.0</ele><time>2026-04-21T16:49:32Z</time></trkpt><trkpt lat="43.214331628531916" lon="11.93867908949783"><ele>272.0</ele><time>2026-04-21T16:49:33Z</time></trkpt><trkpt lat="43.21425007955043" lon="11.938888085167568"><ele>272.0</ele><time>2026-04-21T16:49:34Z</time></trkpt><trkpt lat="43.21416343782589" lon="11.939107776110314"><ele>272.0</ele><time>2026-04-21T16:49:35Z</time></trkpt><trkpt lat="43.214073482083464" lon="11.939337466455246"><ele>272.0</ele><time>2026-04-21T16:49:36Z</time></trkpt><trkpt lat="43.21397819565702" lon="11.939570537377074"><ele>272.0</ele><time>2026-04-21T16:49:37Z</time></trkpt><trkpt lat="43.21387431054645" lon="11.93981034562116"><ele>272.0</ele><time>2026-04-21T16:49:38Z</time></trkpt><trkpt lat="43.213763227276935" lon="11.940056717816894"><ele>272.0</ele><time>2026-04-21T16:49:39Z</time></trkpt><trkpt lat="43.21364498684184" lon="11.940309198306867"><ele>275.0</ele><time>2026-04-21T16:49:40Z</time></trkpt><trkpt lat="43.21351864262062" lon="11.940563927102936"><ele>278.0</ele><time>2026-04-21T16:49:41Z</time></trkpt><trkpt lat="43.21338745350927" lon="11.940824735052622"><ele>281.0</ele><time>2026-04-21T16:49:42Z</time></trkpt><trkpt lat="43.21325102827427" lon="11.941096932612504"><ele>284.0</ele><time>2026-04-21T16:49:43Z</time></trkpt><trkpt lat="43.21311483521808" lon="11.941365052060707"><ele>284.0</ele><time>2026-04-21T16:49:44Z</time></trkpt><trkpt lat="43.21297608904636" lon="11.941642936550728"><ele>284.0</ele><time>2026-04-21T16:49:45Z</time></trkpt><trkpt lat="43.21283384368249" lon="11.941931111039327"><ele>284.0</ele><time>2026-04-21T16:49:46Z</time></trkpt><trkpt lat="43.21269206494245" lon="11.942225427365528"><ele>284.0</ele><time>2026-04-21T16:49:47Z</time></trkpt><trkpt lat="43.212531142246334" lon="11.942442882859044"><ele>285.0</ele><time>2026-04-21T16:49:48Z</time></trkpt><trkpt lat="43.21237722139849" lon="11.942712227462623"><ele>286.0</ele><time>2026-04-21T16:49:49Z</time></trkpt><trkpt lat="43.212228577810265" lon="11.942963775477514"><ele>285.5</ele><time>2026-04-21T16:49:50Z</time></trkpt><trkpt lat="43.21206812957942" lon="11.943210903025333"><ele>285.0</ele><time>2026-04-21T16:49:51Z</time></trkpt><trkpt lat="43.21190446544185" lon="11.943459344545353"><ele>285.0</ele><time>2026-04-21T16:49:52Z</time></trkpt><trkpt lat="43.21174021129139" lon="11.943704713830977"><ele>285.0</ele><time>2026-04-21T16:49:53Z</time></trkpt><trkpt lat="43.2115721227402" lon="11.94394327037091"><ele>285.5</ele><time>2026-04-21T16:49:54Z</time></trkpt><trkpt lat="43.211401966631556" lon="11.944191539986376"><ele>286.0</ele><time>2026-04-21T16:49:55Z</time></trkpt><trkpt lat="43.2112310385294" lon="11.944437378652491"><ele>286.0</ele><time>2026-04-21T16:49:56Z</time></trkpt><trkpt lat="43.211058492252455" lon="11.944679032807876"><ele>286.0</ele><time>2026-04-21T16:49:57Z</time></trkpt><trkpt lat="43.21088711932081" lon="11.944912428600963"><ele>285.5</ele><time>2026-04-21T16:49:58Z</time></trkpt><trkpt lat="43.210715646775306" lon="11.945150413164692"><ele>285.0</ele><time>2026-04-21T16:49:59Z</time></trkpt><trkpt lat="43.21054488713867" lon="11.945400962124452"><ele>285.0</ele><time>2026-04-21T16:50:00Z</time></trkpt><trkpt lat="43.21038097623253" lon="11.94565573436379"><ele>285.0</ele><time>2026-04-21T16:50:01Z</time></trkpt><trkpt lat="43.21022175552735" lon="11.945914512347807"><ele>285.0</ele><time>2026-04-21T16:50:02Z</time></trkpt><trkpt lat="43.2100616970644" lon="11.946169510744673"><ele>285.0</ele><time>2026-04-21T16:50:03Z</time></trkpt><trkpt lat="43.20990982763618" lon="11.946427875353876"><ele>285.0</ele><time>2026-04-21T16:50:04Z</time></trkpt><trkpt lat="43.20976365663331" lon="11.946687702646432"><ele>285.0</ele><time>2026-04-21T16:50:05Z</time></trkpt><trkpt lat="43.20962662891278" lon="11.946954489418813"><ele>284.0</ele><time>2026-04-21T16:50:06Z</time></trkpt><trkpt lat="43.20948481473335" lon="11.947212386482786"><ele>283.0</ele><time>2026-04-21T16:50:07Z</time></trkpt><trkpt lat="43.20934715339596" lon="11.947474793254257"><ele>281.0</ele><time>2026-04-21T16:50:08Z</time></trkpt><trkpt lat="43.20921038513293" lon="11.947742907642922"><ele>279.0</ele><time>2026-04-21T16:50:09Z</time></trkpt><trkpt lat="43.209078004647374" lon="11.948026455575105"><ele>281.0</ele><time>2026-04-21T16:50:10Z</time></trkpt><trkpt lat="43.208951542486375" lon="11.94833417181118"><ele>283.0</ele><time>2026-04-21T16:50:11Z</time></trkpt><trkpt lat="43.20882512001683" lon="11.948630503720274"><ele>283.0</ele><time>2026-04-21T16:50:12Z</time></trkpt><trkpt lat="43.20869053284596" lon="11.948920946347291"><ele>283.0</ele><time>2026-04-21T16:50:13Z</time></trkpt><trkpt lat="43.2085595601364" lon="11.949219996720316"><ele>283.0</ele><time>2026-04-21T16:50:14Z</time></trkpt><trkpt lat="43.20844043253112" lon="11.949526846813338"><ele>283.0</ele><time>2026-04-21T16:50:15Z</time></trkpt><trkpt lat="43.20832778864073" lon="11.949845398537258"><ele>283.5</ele><time>2026-04-21T16:50:16Z</time></trkpt><trkpt lat="43.20822002743186" lon="11.950170712046814"><ele>284.0</ele><time>2026-04-21T16:50:17Z</time></trkpt><trkpt lat="43.20811828052216" lon="11.950499188923484"><ele>284.0</ele><time>2026-04-21T16:50:18Z</time></trkpt><trkpt lat="43.20801873225074" lon="11.950831599727866"><ele>284.0</ele><time>2026-04-21T16:50:19Z</time></trkpt><trkpt lat="43.20792110740889" lon="11.951172354441637"><ele>283.5</ele><time>2026-04-21T16:50:20Z</time></trkpt><trkpt lat="43.207822819311325" lon="11.9515206366549"><ele>283.0</ele><time>2026-04-21T16:50:21Z</time></trkpt><trkpt lat="43.20772954749837" lon="11.951861398439085"><ele>283.0</ele><time>2026-04-21T16:50:22Z</time></trkpt><trkpt lat="43.20764588015851" lon="11.952214185007486"><ele>283.0</ele><time>2026-04-21T16:50:23Z</time></trkpt><trkpt lat="43.207566622394666" lon="11.95256547849794"><ele>282.5</ele><time>2026-04-21T16:50:24Z</time></trkpt><trkpt lat="43.20748753730001" lon="11.952924770082369"><ele>282.0</ele><time>2026-04-21T16:50:25Z</time></trkpt><trkpt lat="43.20741033040748" lon="11.953289143135503"><ele>280.0</ele><time>2026-04-21T16:50:26Z</time></trkpt><trkpt lat="43.20733660145953" lon="11.953641120317581"><ele>278.0</ele><time>2026-04-21T16:50:27Z</time></trkpt><trkpt lat="43.20726214378833" lon="11.953986412244149"><ele>275.5</ele><time>2026-04-21T16:50:28Z</time></trkpt><trkpt lat="43.207185521403765" lon="11.954333559386665"><ele>273.0</ele><time>2026-04-21T16:50:29Z</time></trkpt><trkpt lat="43.207108385635266" lon="11.954685894398114"><ele>273.0</ele><time>2026-04-21T16:50:30Z</time></trkpt><trkpt lat="43.2070316827825" lon="11.95503292362999"><ele>273.0</ele><time>2026-04-21T16:50:31Z</time></trkpt><trkpt lat="43.206952412799666" lon="11.955389911060621"><ele>272.5</ele><time>2026-04-21T16:50:32Z</time></trkpt><trkpt lat="43.20687348896125" lon="11.955742247771505"><ele>272.0</ele><time>2026-04-21T16:50:33Z</time></trkpt><trkpt lat="43.20679167575162" lon="11.956100749686527"><ele>272.0</ele><time>2026-04-21T16:50:34Z</time></trkpt><trkpt lat="43.20670563650756" lon="11.956460044709946"><ele>272.0</ele><time>2026-04-21T16:50:35Z</time></trkpt><trkpt lat="43.20661651170444" lon="11.956810781514118"><ele>273.5</ele><time>2026-04-21T16:50:36Z</time></trkpt><trkpt lat="43.206525274777434" lon="11.957168125629487"><ele>275.0</ele><time>2026-04-21T16:50:37Z</time></trkpt><trkpt lat="43.206434547141534" lon="11.95753062673509"><ele>278.0</ele><time>2026-04-21T16:50:38Z</time></trkpt><trkpt lat="43.20634369639008" lon="11.957890214407094"><ele>281.0</ele><time>2026-04-21T16:50:39Z</time></trkpt><trkpt lat="43.206252073402275" lon="11.958250410973395"><ele>280.5</ele><time>2026-04-21T16:50:40Z</time></trkpt><trkpt lat="43.20615565482916" lon="11.958608780585513"><ele>280.0</ele><time>2026-04-21T16:50:41Z</time></trkpt><trkpt lat="43.206057424033034" lon="11.958968720740446"><ele>279.0</ele><time>2026-04-21T16:50:42Z</time></trkpt><trkpt lat="43.20595739329532" lon="11.959323482853915"><ele>278.0</ele><time>2026-04-21T16:50:43Z</time></trkpt><trkpt lat="43.2058568558912" lon="11.959679242196152"><ele>278.0</ele><time>2026-04-21T16:50:44Z</time></trkpt><trkpt lat="43.205753964381245" lon="11.96003342588025"><ele>278.0</ele><time>2026-04-21T16:50:45Z</time></trkpt><trkpt lat="43.20564641477399" lon="11.960386727210153"><ele>277.5</ele><time>2026-04-21T16:50:46Z</time></trkpt><trkpt lat="43.20553644341463" lon="11.960737029355412"><ele>277.0</ele><time>2026-04-21T16:50:47Z</time></trkpt><trkpt lat="43.2054268406805" lon="11.961086269625392"><ele>276.5</ele><time>2026-04-21T16:50:48Z</time></trkpt><trkpt lat="43.20531823499451" lon="11.961439916794987"><ele>276.0</ele><time>2026-04-21T16:50:49Z</time></trkpt><trkpt lat="43.20520695754959" lon="11.961797016351865"><ele>275.5</ele><time>2026-04-21T16:50:50Z</time></trkpt><trkpt lat="43.20510022091512" lon="11.96214562176835"><ele>275.0</ele><time>2026-04-21T16:50:51Z</time></trkpt><trkpt lat="43.2049872077522" lon="11.962498417578551"><ele>274.5</ele><time>2026-04-21T16:50:52Z</time></trkpt><trkpt lat="43.20487092222844" lon="11.96284924500932"><ele>274.0</ele><time>2026-04-21T16:50:53Z</time></trkpt><trkpt lat="43.204753055423204" lon="11.963197645958308"><ele>273.5</ele><time>2026-04-21T16:50:54Z</time></trkpt><trkpt lat="43.20463345232905" lon="11.963546417644615"><ele>273.0</ele><time>2026-04-21T16:50:55Z</time></trkpt><trkpt lat="43.204511467631775" lon="11.963895046339827"><ele>272.0</ele><time>2026-04-21T16:50:56Z</time></trkpt><trkpt lat="43.204391761743025" lon="11.964240127316273"><ele>271.0</ele><time>2026-04-21T16:50:57Z</time></trkpt><trkpt lat="43.20427006663094" lon="11.96458722910555"><ele>271.0</ele><time>2026-04-21T16:50:58Z</time></trkpt><trkpt lat="43.204151875927494" lon="11.96493330284624"><ele>271.0</ele><time>2026-04-21T16:50:59Z</time></trkpt><trkpt lat="43.20403244478483" lon="11.965279010063185"><ele>272.0</ele><time>2026-04-21T16:51:00Z</time></trkpt><trkpt lat="43.203915282986934" lon="11.965626603127088"><ele>273.0</ele><time>2026-04-21T16:51:01Z</time></trkpt><trkpt lat="43.20379132097808" lon="11.965976500684022"><ele>273.0</ele><time>2026-04-21T16:51:02Z</time></trkpt><trkpt lat="43.20366897949673" lon="11.966322121548359"><ele>273.0</ele><time>2026-04-21T16:51:03Z</time></trkpt><trkpt lat="43.20354792730163" lon="11.966666245005237"><ele>272.5</ele><time>2026-04-21T16:51:04Z</time></trkpt><trkpt lat="43.20342481000744" lon="11.967010440180802"><ele>272.0</ele><time>2026-04-21T16:51:05Z</time></trkpt><trkpt lat="43.2032988073792" lon="11.967352077870466"><ele>272.0</ele><time>2026-04-21T16:51:06Z</time></trkpt><trkpt lat="43.20317480024235" lon="11.967691040856593"><ele>272.0</ele><time>2026-04-21T16:51:07Z</time></trkpt><trkpt lat="43.20305000944952" lon="11.968032018087417"><ele>270.5</ele><time>2026-04-21T16:51:08Z</time></trkpt><trkpt lat="43.202921296694534" lon="11.968369389176505"><ele>269.0</ele><time>2026-04-21T16:51:09Z</time></trkpt><trkpt lat="43.20279335056735" lon="11.968702682646613"><ele>269.0</ele><time>2026-04-21T16:51:10Z</time></trkpt><trkpt lat="43.20266478781203" lon="11.969045850995503"><ele>269.0</ele><time>2026-04-21T16:51:11Z</time></trkpt><trkpt lat="43.20254203391404" lon="11.969384973005768"><ele>269.0</ele><time>2026-04-21T16:51:12Z</time></trkpt><trkpt lat="43.20241971313019" lon="11.969724894958125"><ele>269.0</ele><time>2026-04-21T16:51:13Z</time></trkpt><trkpt lat="43.20229703260437" lon="11.970073596064706"><ele>269.5</ele><time>2026-04-21T16:51:14Z</time></trkpt><trkpt lat="43.20217371512121" lon="11.97042131952929"><ele>270.0</ele><time>2026-04-21T16:51:15Z</time></trkpt><trkpt lat="43.202056895470314" lon="11.97076970171154"><ele>270.5</ele><time>2026-04-21T16:51:16Z</time></trkpt><trkpt lat="43.201937312011744" lon="11.971119920173287"><ele>271.0</ele><time>2026-04-21T16:51:17Z</time></trkpt><trkpt lat="43.20181692887863" lon="11.971467919845555"><ele>271.5</ele><time>2026-04-21T16:51:18Z</time></trkpt><trkpt lat="43.20169837814424" lon="11.97181445716939"><ele>272.0</ele><time>2026-04-21T16:51:19Z</time></trkpt><trkpt lat="43.20157696596919" lon="11.972157959261914"><ele>272.5</ele><time>2026-04-21T16:51:20Z</time></trkpt><trkpt lat="43.20145114327214" lon="11.972503149925831"><ele>273.0</ele><time>2026-04-21T16:51:21Z</time></trkpt><trkpt lat="43.20132281958085" lon="11.97284669107872"><ele>273.5</ele><time>2026-04-21T16:51:22Z</time></trkpt><trkpt lat="43.20119158006681" lon="11.97318821599685"><ele>274.0</ele><time>2026-04-21T16:51:23Z</time></trkpt><trkpt lat="43.2010607195393" lon="11.973529911058739"><ele>274.0</ele><time>2026-04-21T16:51:24Z</time></trkpt><trkpt lat="43.20093077648522" lon="11.973874672090796"><ele>274.0</ele><time>2026-04-21T16:51:25Z</time></trkpt><trkpt lat="43.20081044234123" lon="11.974223597446379"><ele>273.5</ele><time>2026-04-21T16:51:26Z</time></trkpt><trkpt lat="43.20069232543317" lon="11.974577123967695"><ele>273.0</ele><time>2026-04-21T16:51:27Z</time></trkpt><trkpt lat="43.20057001815764" lon="11.974925060242608"><ele>272.5</ele><time>2026-04-21T16:51:28Z</time></trkpt><trkpt lat="43.200445079529786" lon="11.975270874396301"><ele>272.0</ele><time>2026-04-21T16:51:29Z</time></trkpt><trkpt lat="43.20031206576237" lon="11.97561243504684"><ele>271.0</ele><time>2026-04-21T16:51:30Z</time></trkpt><trkpt lat="43.20018459860533" lon="11.975948071297914"><ele>270.0</ele><time>2026-04-21T16:51:31Z</time></trkpt><trkpt lat="43.2000574225495" lon="11.976284530172437"><ele>270.0</ele><time>2026-04-21T16:51:32Z</time></trkpt><trkpt lat="43.199932579179624" lon="11.976623887064623"><ele>270.0</ele><time>2026-04-21T16:51:33Z</time></trkpt><trkpt lat="43.19981428925971" lon="11.976961931773307"><ele>268.5</ele><time>2026-04-21T16:51:34Z</time></trkpt><trkpt lat="43.199693773495284" lon="11.977304230576479"><ele>267.0</ele><time>2026-04-21T16:51:35Z</time></trkpt><trkpt lat="43.199566771219615" lon="11.97764718324821"><ele>267.0</ele><time>2026-04-21T16:51:36Z</time></trkpt><trkpt lat="43.199440595929" lon="11.97798536617902"><ele>267.0</ele><time>2026-04-21T16:51:37Z</time></trkpt><trkpt lat="43.19930681398292" lon="11.978324252136757"><ele>267.0</ele><time>2026-04-21T16:51:38Z</time></trkpt><trkpt lat="43.1991717180615" lon="11.978662635890508"><ele>267.0</ele><time>2026-04-21T16:51:39Z</time></trkpt><trkpt lat="43.199039333248614" lon="11.979003854999267"><ele>268.0</ele><time>2026-04-21T16:51:40Z</time></trkpt><trkpt lat="43.19890154119829" lon="11.979343875169361"><ele>269.0</ele><time>2026-04-21T16:51:41Z</time></trkpt><trkpt lat="43.19876447293169" lon="11.979678765857173"><ele>267.5</ele><time>2026-04-21T16:51:42Z</time></trkpt><trkpt lat="43.19862937302076" lon="11.980017920334799"><ele>266.0</ele><time>2026-04-21T16:51:43Z</time></trkpt><trkpt lat="43.19849202782005" lon="11.980362569047012"><ele>266.0</ele><time>2026-04-21T16:51:44Z</time></trkpt><trkpt lat="43.198361631055185" lon="11.980705884999908"><ele>266.0</ele><time>2026-04-21T16:51:45Z</time></trkpt><trkpt lat="43.198224176778204" lon="11.981047043691412"><ele>265.0</ele><time>2026-04-21T16:51:46Z</time></trkpt><trkpt lat="43.19808694084897" lon="11.981390866261714"><ele>264.0</ele><time>2026-04-21T16:51:47Z</time></trkpt><trkpt lat="43.197947099098734" lon="11.981734407178854"><ele>264.0</ele><time>2026-04-21T16:51:48Z</time></trkpt><trkpt lat="43.197805262740495" lon="11.982077073847279"><ele>264.0</ele><time>2026-04-21T16:51:49Z</time></trkpt><trkpt lat="43.197663852298575" lon="11.98242148432145"><ele>264.5</ele><time>2026-04-21T16:51:50Z</time></trkpt><trkpt lat="43.19752198232411" lon="11.98276369564856"><ele>265.0</ele><time>2026-04-21T16:51:51Z</time></trkpt><trkpt lat="43.19738087370365" lon="11.983111018104019"><ele>264.5</ele><time>2026-04-21T16:51:52Z</time></trkpt><trkpt lat="43.19724025218479" lon="11.983456554791072"><ele>264.0</ele><time>2026-04-21T16:51:53Z</time></trkpt><trkpt lat="43.19710011650944" lon="11.983801592489238"><ele>264.0</ele><time>2026-04-21T16:51:54Z</time></trkpt><trkpt lat="43.19695915681572" lon="11.984148704157958"><ele>264.0</ele><time>2026-04-21T16:51:55Z</time></trkpt><trkpt lat="43.19681652795955" lon="11.984491926303004"><ele>264.0</ele><time>2026-04-21T16:51:56Z</time></trkpt><trkpt lat="43.19667421816682" lon="11.984836378163585"><ele>264.0</ele><time>2026-04-21T16:51:57Z</time></trkpt><trkpt lat="43.19653342544089" lon="11.985180013219614"><ele>263.5</ele><time>2026-04-21T16:51:58Z</time></trkpt><trkpt lat="43.19639090437681" lon="11.985525912994026"><ele>263.0</ele><time>2026-04-21T16:51:59Z</time></trkpt><trkpt lat="43.196251038054484" lon="11.985874048282641"><ele>263.0</ele><time>2026-04-21T16:52:00Z</time></trkpt><trkpt lat="43.196113550870194" lon="11.98622265247629"><ele>263.0</ele><time>2026-04-21T16:52:01Z</time></trkpt><trkpt lat="43.19597790284092" lon="11.98657621123726"><ele>263.0</ele><time>2026-04-21T16:52:02Z</time></trkpt><trkpt lat="43.195844710746876" lon="11.98693066319458"><ele>263.0</ele><time>2026-04-21T16:52:03Z</time></trkpt><trkpt lat="43.19571279983011" lon="11.987289194057992"><ele>263.5</ele><time>2026-04-21T16:52:04Z</time></trkpt><trkpt lat="43.19557804182475" lon="11.987647058824457"><ele>264.0</ele><time>2026-04-21T16:52:05Z</time></trkpt><trkpt lat="43.19544020551376" lon="11.988001159361914"><ele>263.5</ele><time>2026-04-21T16:52:06Z</time></trkpt><trkpt lat="43.19531044223703" lon="11.988347166588424"><ele>263.0</ele><time>2026-04-21T16:52:07Z</time></trkpt><trkpt lat="43.19518263879248" lon="11.98870055285364"><ele>263.0</ele><time>2026-04-21T16:52:08Z</time></trkpt><trkpt lat="43.19506054213168" lon="11.989053823657803"><ele>263.0</ele><time>2026-04-21T16:52:09Z</time></trkpt><trkpt lat="43.19493945065539" lon="11.989408911194273"><ele>263.0</ele><time>2026-04-21T16:52:10Z</time></trkpt><trkpt lat="43.19482069051535" lon="11.98976497956759"><ele>263.0</ele><time>2026-04-21T16:52:11Z</time></trkpt><trkpt lat="43.19470179968724" lon="11.99012115999477"><ele>263.5</ele><time>2026-04-21T16:52:12Z</time></trkpt><trkpt lat="43.19458765207124" lon="11.990478048800009"><ele>264.0</ele><time>2026-04-21T16:52:13Z</time></trkpt><trkpt lat="43.194473663530104" lon="11.990834534051453"><ele>264.5</ele><time>2026-04-21T16:52:14Z</time></trkpt><trkpt lat="43.194357355196665" lon="11.99119247737535"><ele>265.0</ele><time>2026-04-21T16:52:15Z</time></trkpt><trkpt lat="43.19424228905962" lon="11.991549005161957"><ele>265.0</ele><time>2026-04-21T16:52:16Z</time></trkpt><trkpt lat="43.19412891995289" lon="11.991915512094621"><ele>265.0</ele><time>2026-04-21T16:52:17Z</time></trkpt><trkpt lat="43.19401756422422" lon="11.992269152457993"><ele>265.0</ele><time>2026-04-21T16:52:18Z</time></trkpt><trkpt lat="43.19390720136501" lon="11.992636294450485"><ele>265.0</ele><time>2026-04-21T16:52:19Z</time></trkpt><trkpt lat="43.193790836780515" lon="11.993000519327051"><ele>265.0</ele><time>2026-04-21T16:52:20Z</time></trkpt><trkpt lat="43.193680191354446" lon="11.993358358892857"><ele>265.0</ele><time>2026-04-21T16:52:21Z</time></trkpt><trkpt lat="43.193564510347045" lon="11.993713537638575"><ele>265.0</ele><time>2026-04-21T16:52:22Z</time></trkpt><trkpt lat="43.193450218242866" lon="11.994077456140964"><ele>265.0</ele><time>2026-04-21T16:52:23Z</time></trkpt><trkpt lat="43.19333389527063" lon="11.99443285030355"><ele>265.0</ele><time>2026-04-21T16:52:24Z</time></trkpt><trkpt lat="43.19322100771491" lon="11.994789608794248"><ele>265.0</ele><time>2026-04-21T16:52:25Z</time></trkpt><trkpt lat="43.193107885721325" lon="11.995151280586475"><ele>265.0</ele><time>2026-04-21T16:52:26Z</time></trkpt><trkpt lat="43.19299504323222" lon="11.99551384334169"><ele>265.0</ele><time>2026-04-21T16:52:27Z</time></trkpt><trkpt lat="43.19288074213219" lon="11.99587581470645"><ele>266.0</ele><time>2026-04-21T16:52:28Z</time></trkpt><trkpt lat="43.19276530283634" lon="11.996239747892089"><ele>267.0</ele><time>2026-04-21T16:52:29Z</time></trkpt><trkpt lat="43.192648786661564" lon="11.996596867610606"><ele>267.5</ele><time>2026-04-21T16:52:30Z</time></trkpt><trkpt lat="43.19253201788528" lon="11.996958882507045"><ele>268.0</ele><time>2026-04-21T16:52:31Z</time></trkpt><trkpt lat="43.19241723631068" lon="11.997321423668435"><ele>267.0</ele><time>2026-04-21T16:52:32Z</time></trkpt><trkpt lat="43.19230334000969" lon="11.997688045833666"><ele>266.0</ele><time>2026-04-21T16:52:33Z</time></trkpt><trkpt lat="43.19218831928602" lon="11.998054367658519"><ele>266.5</ele><time>2026-04-21T16:52:34Z</time></trkpt><trkpt lat="43.19207421715616" lon="11.998417441840633"><ele>267.0</ele><time>2026-04-21T16:52:35Z</time></trkpt><trkpt lat="43.19195927892101" lon="11.998780493940815"><ele>267.0</ele><time>2026-04-21T16:52:36Z</time></trkpt><trkpt lat="43.19183926777287" lon="11.999148768947707"><ele>267.0</ele><time>2026-04-21T16:52:37Z</time></trkpt><trkpt lat="43.19172210026604" lon="11.999513883904282"><ele>266.5</ele><time>2026-04-21T16:52:38Z</time></trkpt><trkpt lat="43.19160527859855" lon="11.99987716024299"><ele>266.0</ele><time>2026-04-21T16:52:39Z</time></trkpt><trkpt lat="43.19148972895921" lon="12.000244932405646"><ele>266.0</ele><time>2026-04-21T16:52:40Z</time></trkpt><trkpt lat="43.19137828887435" lon="12.000613182109303"><ele>266.0</ele><time>2026-04-21T16:52:41Z</time></trkpt><trkpt lat="43.19127138510577" lon="12.000982853040131"><ele>266.0</ele><time>2026-04-21T16:52:42Z</time></trkpt><trkpt lat="43.19116808373876" lon="12.00134875058083"><ele>266.0</ele><time>2026-04-21T16:52:43Z</time></trkpt><trkpt lat="43.19106773676669" lon="12.001718402498874"><ele>266.0</ele><time>2026-04-21T16:52:44Z</time></trkpt><trkpt lat="43.19097299833564" lon="12.002088271110619"><ele>266.0</ele><time>2026-04-21T16:52:45Z</time></trkpt><trkpt lat="43.19088034442296" lon="12.002464465050675"><ele>266.5</ele><time>2026-04-21T16:52:46Z</time></trkpt><trkpt lat="43.190794577033465" lon="12.002843260558791"><ele>267.0</ele><time>2026-04-21T16:52:47Z</time></trkpt><trkpt lat="43.19071614702985" lon="12.003205283562279"><ele>267.5</ele><time>2026-04-21T16:52:48Z</time></trkpt><trkpt lat="43.19063978227875" lon="12.003578846812879"><ele>268.0</ele><time>2026-04-21T16:52:49Z</time></trkpt><trkpt lat="43.19056464504971" lon="12.003959698659134"><ele>266.5</ele><time>2026-04-21T16:52:50Z</time></trkpt><trkpt lat="43.1904906198987" lon="12.004339927701386"><ele>265.0</ele><time>2026-04-21T16:52:51Z</time></trkpt><trkpt lat="43.19042933388941" lon="12.00466971465798"><ele>265.0</ele><time>2026-04-21T16:52:52Z</time></trkpt><trkpt lat="43.19036794214617" lon="12.005037436022931"><ele>265.0</ele><time>2026-04-21T16:52:53Z</time></trkpt><trkpt lat="43.190308949954435" lon="12.005408046077179"><ele>265.0</ele><time>2026-04-21T16:52:54Z</time></trkpt><trkpt lat="43.19025625626494" lon="12.005779389080507"><ele>265.0</ele><time>2026-04-21T16:52:55Z</time></trkpt><trkpt lat="43.190208645031475" lon="12.006150188320404"><ele>265.0</ele><time>2026-04-21T16:52:56Z</time></trkpt><trkpt lat="43.19016182926953" lon="12.006521947958479"><ele>265.0</ele><time>2026-04-21T16:52:57Z</time></trkpt><trkpt lat="43.190119661718484" lon="12.00689295269673"><ele>265.0</ele><time>2026-04-21T16:52:58Z</time></trkpt><trkpt lat="43.19008224685358" lon="12.00726781030343"><ele>265.0</ele><time>2026-04-21T16:52:59Z</time></trkpt><trkpt lat="43.19004743230487" lon="12.00764696945701"><ele>265.5</ele><time>2026-04-21T16:53:00Z</time></trkpt><trkpt lat="43.190014234009034" lon="12.008025720202808"><ele>266.0</ele><time>2026-04-21T16:53:01Z</time></trkpt><trkpt lat="43.18998832838661" lon="12.008405176312735"><ele>266.0</ele><time>2026-04-21T16:53:02Z</time></trkpt><trkpt lat="43.18997218369036" lon="12.008782643259666"><ele>266.0</ele><time>2026-04-21T16:53:03Z</time></trkpt><trkpt lat="43.189960252432684" lon="12.00916024234463"><ele>266.5</ele><time>2026-04-21T16:53:04Z</time></trkpt><trkpt lat="43.18994993128679" lon="12.009538167068571"><ele>267.0</ele><time>2026-04-21T16:53:05Z</time></trkpt><trkpt lat="43.189937225784185" lon="12.009916144478074"><ele>266.5</ele><time>2026-04-21T16:53:06Z</time></trkpt><trkpt lat="43.18992722667845" lon="12.010290691268704"><ele>266.0</ele><time>2026-04-21T16:53:07Z</time></trkpt><trkpt lat="43.1899213540887" lon="12.010659926349929"><ele>266.0</ele><time>2026-04-21T16:53:08Z</time></trkpt><trkpt lat="43.1899129134405" lon="12.011025194596744"><ele>266.0</ele><time>2026-04-21T16:53:09Z</time></trkpt><trkpt lat="43.18990785570917" lon="12.011389107002874"><ele>265.5</ele><time>2026-04-21T16:53:10Z</time></trkpt><trkpt lat="43.189907088773325" lon="12.011750225663954"><ele>265.0</ele><time>2026-04-21T16:53:11Z</time></trkpt><trkpt lat="43.189932161574085" lon="12.012137071228072"><ele>265.0</ele><time>2026-04-21T16:53:12Z</time></trkpt><trkpt lat="43.18993559457118" lon="12.012504614771174"><ele>265.0</ele><time>2026-04-21T16:53:13Z</time></trkpt><trkpt lat="43.189939305081" lon="12.012874310824971"><ele>265.0</ele><time>2026-04-21T16:53:14Z</time></trkpt><trkpt lat="43.18994168482766" lon="12.0132386176491"><ele>265.0</ele><time>2026-04-21T16:53:15Z</time></trkpt><trkpt lat="43.18994457014383" lon="12.013599748272343"><ele>264.5</ele><time>2026-04-21T16:53:16Z</time></trkpt><trkpt lat="43.1899457968574" lon="12.013960763390154"><ele>264.0</ele><time>2026-04-21T16:53:17Z</time></trkpt><trkpt lat="43.189944351171526" lon="12.014326625143575"><ele>264.0</ele><time>2026-04-21T16:53:18Z</time></trkpt><trkpt lat="43.18994007389641" lon="12.014689598183299"><ele>264.0</ele><time>2026-04-21T16:53:19Z</time></trkpt><trkpt lat="43.18992368853329" lon="12.015063869658093"><ele>264.0</ele><time>2026-04-21T16:53:20Z</time></trkpt><trkpt lat="43.189901067333096" lon="12.015436037178771"><ele>264.0</ele><time>2026-04-21T16:53:21Z</time></trkpt><trkpt lat="43.18987720591326" lon="12.015814245951582"><ele>263.5</ele><time>2026-04-21T16:53:22Z</time></trkpt><trkpt lat="43.18984633199246" lon="12.016179643113537"><ele>263.0</ele><time>2026-04-21T16:53:23Z</time></trkpt><trkpt lat="43.18981436414316" lon="12.016553105811344"><ele>261.5</ele><time>2026-04-21T16:53:24Z</time></trkpt><trkpt lat="43.189772588451405" lon="12.016919084921662"><ele>260.0</ele><time>2026-04-21T16:53:25Z</time></trkpt><trkpt lat="43.189714240886524" lon="12.017292796358936"><ele>259.5</ele><time>2026-04-21T16:53:26Z</time></trkpt><trkpt lat="43.18964261892215" lon="12.017670768187868"><ele>259.0</ele><time>2026-04-21T16:53:27Z</time></trkpt><trkpt lat="43.18956748215827" lon="12.018039225692801"><ele>259.5</ele><time>2026-04-21T16:53:28Z</time></trkpt><trkpt lat="43.18948117225481" lon="12.01841081058022"><ele>260.0</ele><time>2026-04-21T16:53:29Z</time></trkpt><trkpt lat="43.18939475521642" lon="12.018778194897525"><ele>260.0</ele><time>2026-04-21T16:53:30Z</time></trkpt><trkpt lat="43.18931385348638" lon="12.019146139674755"><ele>260.0</ele><time>2026-04-21T16:53:31Z</time></trkpt><trkpt lat="43.1892324406486" lon="12.019516452426021"><ele>260.5</ele><time>2026-04-21T16:53:32Z</time></trkpt><trkpt lat="43.18915096193755" lon="12.019891444046271"><ele>261.0</ele><time>2026-04-21T16:53:33Z</time></trkpt><trkpt lat="43.18907333308824" lon="12.02027066481381"><ele>260.5</ele><time>2026-04-21T16:53:34Z</time></trkpt><trkpt lat="43.1889995973069" lon="12.020652772072452"><ele>260.0</ele><time>2026-04-21T16:53:35Z</time></trkpt><trkpt lat="43.18892951255044" lon="12.021028965736603"><ele>260.0</ele><time>2026-04-21T16:53:36Z</time></trkpt><trkpt lat="43.18885151031483" lon="12.021400589234014"><ele>260.0</ele><time>2026-04-21T16:53:37Z</time></trkpt><trkpt lat="43.18877733666674" lon="12.021773041845595"><ele>260.0</ele><time>2026-04-21T16:53:38Z</time></trkpt><trkpt lat="43.18870076421509" lon="12.022131997089694"><ele>260.0</ele><time>2026-04-21T16:53:39Z</time></trkpt><trkpt lat="43.188626653229804" lon="12.02248808690069"><ele>260.0</ele><time>2026-04-21T16:53:40Z</time></trkpt><trkpt lat="43.18854907548267" lon="12.022855524716372"><ele>260.0</ele><time>2026-04-21T16:53:41Z</time></trkpt><trkpt lat="43.188473606793124" lon="12.02322313638927"><ele>260.0</ele><time>2026-04-21T16:53:42Z</time></trkpt><trkpt lat="43.18839500859397" lon="12.023588090605601"><ele>260.0</ele><time>2026-04-21T16:53:43.001Z</time></trkpt><trkpt lat="43.18831933763402" lon="12.02395873468397"><ele>260.5</ele><time>2026-04-21T16:53:44.001Z</time></trkpt><trkpt lat="43.18824274659314" lon="12.024327633262972"><ele>261.0</ele><time>2026-04-21T16:53:45.001Z</time></trkpt><trkpt lat="43.188163963457356" lon="12.024701252753248"><ele>261.5</ele><time>2026-04-21T16:53:46.001Z</time></trkpt><trkpt lat="43.18808388991478" lon="12.025070341137756"><ele>262.0</ele><time>2026-04-21T16:53:47.001Z</time></trkpt><trkpt lat="43.18800386168368" lon="12.02544801866957"><ele>261.5</ele><time>2026-04-21T16:53:48.001Z</time></trkpt><trkpt lat="43.18792482262125" lon="12.02582870523919"><ele>261.0</ele><time>2026-04-21T16:53:49.001Z</time></trkpt><trkpt lat="43.18784558787556" lon="12.026210713381515"><ele>261.0</ele><time>2026-04-21T16:53:50.001Z</time></trkpt><trkpt lat="43.18776509505452" lon="12.02659598908355"><ele>261.0</ele><time>2026-04-21T16:53:51.001Z</time></trkpt><trkpt lat="43.18768550269067" lon="12.026979613174841"><ele>261.0</ele><time>2026-04-21T16:53:52.001Z</time></trkpt><trkpt lat="43.18760415221153" lon="12.027367210528393"><ele>261.0</ele><time>2026-04-21T16:53:53.001Z</time></trkpt><trkpt lat="43.18752760054109" lon="12.027741387924454"><ele>261.0</ele><time>2026-04-21T16:53:54.001Z</time></trkpt><trkpt lat="43.18744791968111" lon="12.028127383998534"><ele>261.0</ele><time>2026-04-21T16:53:55.001Z</time></trkpt><trkpt lat="43.187364917809695" lon="12.028507823486096"><ele>261.0</ele><time>2026-04-21T16:53:56.001Z</time></trkpt><trkpt lat="43.18728071189904" lon="12.028889894081845"><ele>261.0</ele><time>2026-04-21T16:53:57.001Z</time></trkpt><trkpt lat="43.18720194072384" lon="12.029277606033572"><ele>261.0</ele><time>2026-04-21T16:53:58.001Z</time></trkpt><trkpt lat="43.18712182156897" lon="12.02966255827879"><ele>261.0</ele><time>2026-04-21T16:53:59.001Z</time></trkpt><trkpt lat="43.18703918835191" lon="12.030050445687793"><ele>261.0</ele><time>2026-04-21T16:54:00.001Z</time></trkpt><trkpt lat="43.18695828414124" lon="12.030430113578726"><ele>261.0</ele><time>2026-04-21T16:54:01.001Z</time></trkpt><trkpt lat="43.18687137810563" lon="12.030809681440806"><ele>260.5</ele><time>2026-04-21T16:54:02.001Z</time></trkpt><trkpt lat="43.1867806461229" lon="12.031181477716085"><ele>260.0</ele><time>2026-04-21T16:54:03.001Z</time></trkpt><trkpt lat="43.186694511537894" lon="12.031564655843518"><ele>260.0</ele><time>2026-04-21T16:54:04.001Z</time></trkpt><trkpt lat="43.18661287248956" lon="12.031939363610505"><ele>260.0</ele><time>2026-04-21T16:54:05.001Z</time></trkpt><trkpt lat="43.18652867661278" lon="12.032316786363172"><ele>259.5</ele><time>2026-04-21T16:54:06.001Z</time></trkpt><trkpt lat="43.18644815150978" lon="12.032690872073072"><ele>259.0</ele><time>2026-04-21T16:54:07.001Z</time></trkpt><trkpt lat="43.18637638888235" lon="12.033048734537543"><ele>259.5</ele><time>2026-04-21T16:54:08.001Z</time></trkpt><trkpt lat="43.186315306423026" lon="12.033409558135718"><ele>260.0</ele><time>2026-04-21T16:54:09.001Z</time></trkpt><trkpt lat="43.186275638517635" lon="12.033766921717255"><ele>260.0</ele><time>2026-04-21T16:54:10.001Z</time></trkpt><trkpt lat="43.18624808306983" lon="12.034137532025332"><ele>260.0</ele><time>2026-04-21T16:54:11.001Z</time></trkpt><trkpt lat="43.18622484550062" lon="12.034502915224865"><ele>260.0</ele><time>2026-04-21T16:54:12.001Z</time></trkpt><trkpt lat="43.18620378313629" lon="12.034872149339767"><ele>260.0</ele><time>2026-04-21T16:54:13.001Z</time></trkpt><trkpt lat="43.186196709338745" lon="12.035246879944543"><ele>260.0</ele><time>2026-04-21T16:54:14.001Z</time></trkpt><trkpt lat="43.18619946665915" lon="12.035616175753145"><ele>260.0</ele><time>2026-04-21T16:54:15.001Z</time></trkpt><trkpt lat="43.18621999677443" lon="12.035986736111902"><ele>260.0</ele><time>2026-04-21T16:54:16.001Z</time></trkpt><trkpt lat="43.18624493232829" lon="12.036358300352148"><ele>260.0</ele><time>2026-04-21T16:54:17.001Z</time></trkpt><trkpt lat="43.18628821391078" lon="12.036727131399523"><ele>259.5</ele><time>2026-04-21T16:54:18.001Z</time></trkpt><trkpt lat="43.18634624357632" lon="12.037095183857899"><ele>259.0</ele><time>2026-04-21T16:54:19.001Z</time></trkpt><trkpt lat="43.18641561582117" lon="12.037458182354428"><ele>260.5</ele><time>2026-04-21T16:54:20.001Z</time></trkpt><trkpt lat="43.18649072910809" lon="12.037815366781018"><ele>262.0</ele><time>2026-04-21T16:54:21.001Z</time></trkpt><trkpt lat="43.186576736253734" lon="12.038176689625104"><ele>263.5</ele><time>2026-04-21T16:54:22.001Z</time></trkpt><trkpt lat="43.18667308512489" lon="12.038529399187055"><ele>265.0</ele><time>2026-04-21T16:54:23.001Z</time></trkpt><trkpt lat="43.18677406076654" lon="12.03888559560569"><ele>264.0</ele><time>2026-04-21T16:54:24.001Z</time></trkpt><trkpt lat="43.18687202860949" lon="12.039245879992686"><ele>263.0</ele><time>2026-04-21T16:54:25.001Z</time></trkpt><trkpt lat="43.18696763305603" lon="12.03960654449668"><ele>262.0</ele><time>2026-04-21T16:54:26.001Z</time></trkpt><trkpt lat="43.18706143161528" lon="12.039972714754237"><ele>261.0</ele><time>2026-04-21T16:54:27.001Z</time></trkpt><trkpt lat="43.187149954114105" lon="12.040345473475032"><ele>261.0</ele><time>2026-04-21T16:54:28.001Z</time></trkpt><trkpt lat="43.18724690112702" lon="12.040716670532607"><ele>261.0</ele><time>2026-04-21T16:54:29.001Z</time></trkpt><trkpt lat="43.18734190792551" lon="12.041083396203664"><ele>260.5</ele><time>2026-04-21T16:54:30.001Z</time></trkpt><trkpt lat="43.18744955267179" lon="12.041451738703499"><ele>260.0</ele><time>2026-04-21T16:54:31.001Z</time></trkpt><trkpt lat="43.187552271211594" lon="12.041821516943076"><ele>260.0</ele><time>2026-04-21T16:54:32.001Z</time></trkpt><trkpt lat="43.1876545329504" lon="12.042192225027438"><ele>260.0</ele><time>2026-04-21T16:54:33.001Z</time></trkpt><trkpt lat="43.187755144015675" lon="12.042565214187592"><ele>260.0</ele><time>2026-04-21T16:54:34.001Z</time></trkpt><trkpt lat="43.187850866619875" lon="12.042932464793097"><ele>260.0</ele><time>2026-04-21T16:54:35.001Z</time></trkpt><trkpt lat="43.18795060879886" lon="12.043301458518433"><ele>260.0</ele><time>2026-04-21T16:54:36.001Z</time></trkpt><trkpt lat="43.188051198695106" lon="12.043666584388998"><ele>260.0</ele><time>2026-04-21T16:54:37.001Z</time></trkpt><trkpt lat="43.18814879848542" lon="12.044031654536564"><ele>260.5</ele><time>2026-04-21T16:54:38.001Z</time></trkpt><trkpt lat="43.18824789298449" lon="12.044395286341196"><ele>261.0</ele><time>2026-04-21T16:54:39.001Z</time></trkpt><trkpt lat="43.188348229244205" lon="12.044754990781394"><ele>260.5</ele><time>2026-04-21T16:54:40.001Z</time></trkpt><trkpt lat="43.18844445981795" lon="12.045112301088228"><ele>260.0</ele><time>2026-04-21T16:54:41.001Z</time></trkpt><trkpt lat="43.18854144441683" lon="12.045470457512158"><ele>261.5</ele><time>2026-04-21T16:54:42.001Z</time></trkpt><trkpt lat="43.18863923815413" lon="12.04582475531932"><ele>263.0</ele><time>2026-04-21T16:54:43.001Z</time></trkpt><trkpt lat="43.18873588066401" lon="12.046175864654344"><ele>263.0</ele><time>2026-04-21T16:54:44.001Z</time></trkpt><trkpt lat="43.188834051058954" lon="12.046519880657945"><ele>263.0</ele><time>2026-04-21T16:54:45.001Z</time></trkpt><trkpt lat="43.18893608601765" lon="12.046855816192291"><ele>264.0</ele><time>2026-04-21T16:54:46.001Z</time></trkpt><trkpt lat="43.189044040097876" lon="12.047157697770524"><ele>265.0</ele><time>2026-04-21T16:54:47.001Z</time></trkpt><trkpt lat="43.18915992810531" lon="12.047443581199104"><ele>265.5</ele><time>2026-04-21T16:54:48.001Z</time></trkpt><trkpt lat="43.189286615057455" lon="12.047722926350826"><ele>266.0</ele><time>2026-04-21T16:54:49.001Z</time></trkpt><trkpt lat="43.1894245242499" lon="12.047999385007946"><ele>266.0</ele><time>2026-04-21T16:54:50.001Z</time></trkpt><trkpt lat="43.18957501579455" lon="12.048259568095212"><ele>266.0</ele><time>2026-04-21T16:54:51.001Z</time></trkpt><trkpt lat="43.189736592952094" lon="12.048512659289386"><ele>272.5</ele><time>2026-04-21T16:54:52.001Z</time></trkpt><trkpt lat="43.189911702539916" lon="12.048746185220173"><ele>279.0</ele><time>2026-04-21T16:54:53.001Z</time></trkpt><trkpt lat="43.190098208714026" lon="12.048971602122515"><ele>279.0</ele><time>2026-04-21T16:54:54.001Z</time></trkpt><trkpt lat="43.190292720884656" lon="12.049181584579394"><ele>279.0</ele><time>2026-04-21T16:54:55.001Z</time></trkpt><trkpt lat="43.19049159269995" lon="12.049383550097133"><ele>286.0</ele><time>2026-04-21T16:54:56.001Z</time></trkpt><trkpt lat="43.19070237633063" lon="12.049575037270143"><ele>293.0</ele><time>2026-04-21T16:54:57.001Z</time></trkpt><trkpt lat="43.19092142572968" lon="12.049742944117286"><ele>293.0</ele><time>2026-04-21T16:54:58.001Z</time></trkpt><trkpt lat="43.19114085404643" lon="12.049913988666004"><ele>293.0</ele><time>2026-04-21T16:54:59.001Z</time></trkpt><trkpt lat="43.191370838737846" lon="12.05007185769793"><ele>291.0</ele><time>2026-04-21T16:55:00.001Z</time></trkpt><trkpt lat="43.191601005630844" lon="12.050229113614314"><ele>289.0</ele><time>2026-04-21T16:55:01.001Z</time></trkpt><trkpt lat="43.19183702972483" lon="12.050382364909662"><ele>289.0</ele><time>2026-04-21T16:55:02.001Z</time></trkpt><trkpt lat="43.192077299037294" lon="12.050530272550956"><ele>289.0</ele><time>2026-04-21T16:55:03.001Z</time></trkpt><trkpt lat="43.19231868375472" lon="12.050680628992337"><ele>287.0</ele><time>2026-04-21T16:55:04.001Z</time></trkpt><trkpt lat="43.1925612953707" lon="12.050837489643845"><ele>285.0</ele><time>2026-04-21T16:55:05.001Z</time></trkpt><trkpt lat="43.192800243672565" lon="12.051001566351905"><ele>285.0</ele><time>2026-04-21T16:55:06.001Z</time></trkpt><trkpt lat="43.1930316800923" lon="12.051159331176677"><ele>285.0</ele><time>2026-04-21T16:55:07.001Z</time></trkpt><trkpt lat="43.193264765632776" lon="12.051323466806625"><ele>282.0</ele><time>2026-04-21T16:55:08.001Z</time></trkpt><trkpt lat="43.193500190064285" lon="12.051495694164457"><ele>279.0</ele><time>2026-04-21T16:55:09.001Z</time></trkpt><trkpt lat="43.193735784242705" lon="12.051674064178563"><ele>279.0</ele><time>2026-04-21T16:55:10.001Z</time></trkpt><trkpt lat="43.19395524592097" lon="12.051857615699124"><ele>279.0</ele><time>2026-04-21T16:55:11.001Z</time></trkpt><trkpt lat="43.194164583781394" lon="12.05205499884907"><ele>280.5</ele><time>2026-04-21T16:55:12.001Z</time></trkpt><trkpt lat="43.19436759318854" lon="12.052268023967981"><ele>282.0</ele><time>2026-04-21T16:55:13.001Z</time></trkpt><trkpt lat="43.19456378062277" lon="12.052500544406701"><ele>279.5</ele><time>2026-04-21T16:55:14.001Z</time></trkpt><trkpt lat="43.19474778551808" lon="12.05274465622178"><ele>277.0</ele><time>2026-04-21T16:55:15.001Z</time></trkpt><trkpt lat="43.19491241475715" lon="12.052999583517595"><ele>277.0</ele><time>2026-04-21T16:55:16.001Z</time></trkpt><trkpt lat="43.195066563306185" lon="12.053271320161263"><ele>277.0</ele><time>2026-04-21T16:55:17.001Z</time></trkpt><trkpt lat="43.19520947707433" lon="12.053550343213308"><ele>273.0</ele><time>2026-04-21T16:55:18.001Z</time></trkpt><trkpt lat="43.195344389228424" lon="12.053836109727227"><ele>269.0</ele><time>2026-04-21T16:55:19.001Z</time></trkpt><trkpt lat="43.19546381460655" lon="12.05412806917789"><ele>266.0</ele><time>2026-04-21T16:55:20.001Z</time></trkpt><trkpt lat="43.19557214103755" lon="12.054423821261548"><ele>263.0</ele><time>2026-04-21T16:55:21.001Z</time></trkpt><trkpt lat="43.195665332360335" lon="12.054734678528906"><ele>264.5</ele><time>2026-04-21T16:55:22.001Z</time></trkpt><trkpt lat="43.19575055505032" lon="12.055063645148591"><ele>266.0</ele><time>2026-04-21T16:55:23.001Z</time></trkpt><trkpt lat="43.195823602347836" lon="12.055405212571335"><ele>266.0</ele><time>2026-04-21T16:55:24.001Z</time></trkpt><trkpt lat="43.195882878355405" lon="12.05575286933906"><ele>266.0</ele><time>2026-04-21T16:55:25.001Z</time></trkpt><trkpt lat="43.195928083577385" lon="12.056106172284602"><ele>264.5</ele><time>2026-04-21T16:55:26.001Z</time></trkpt><trkpt lat="43.19595917811371" lon="12.05645967782313"><ele>263.0</ele><time>2026-04-21T16:55:27.001Z</time></trkpt><trkpt lat="43.19597030729759" lon="12.056824604737514"><ele>263.0</ele><time>2026-04-21T16:55:28.001Z</time></trkpt><trkpt lat="43.19596874207747" lon="12.05719548036107"><ele>263.0</ele><time>2026-04-21T16:55:29.001Z</time></trkpt><trkpt lat="43.19594835274556" lon="12.057564665660987"><ele>263.0</ele><time>2026-04-21T16:55:30.001Z</time></trkpt><trkpt lat="43.19590765085655" lon="12.057929838879884"><ele>263.0</ele><time>2026-04-21T16:55:31.001Z</time></trkpt><trkpt lat="43.19586233543217" lon="12.05830361120601"><ele>262.0</ele><time>2026-04-21T16:55:32.001Z</time></trkpt><trkpt lat="43.195818486960526" lon="12.058671554980345"><ele>261.0</ele><time>2026-04-21T16:55:33.001Z</time></trkpt><trkpt lat="43.19577714094155" lon="12.059047626149422"><ele>261.5</ele><time>2026-04-21T16:55:34.001Z</time></trkpt><trkpt lat="43.19573964644046" lon="12.059412071725781"><ele>262.0</ele><time>2026-04-21T16:55:35.001Z</time></trkpt><trkpt lat="43.195694699118775" lon="12.059785325445057"><ele>261.0</ele><time>2026-04-21T16:55:36.001Z</time></trkpt><trkpt lat="43.195653047143075" lon="12.060157947329863"><ele>260.0</ele><time>2026-04-21T16:55:37.001Z</time></trkpt><trkpt lat="43.19560898052493" lon="12.060526794794423"><ele>260.5</ele><time>2026-04-21T16:55:38.001Z</time></trkpt><trkpt lat="43.195571490965236" lon="12.060896759873676"><ele>261.0</ele><time>2026-04-21T16:55:39.001Z</time></trkpt><trkpt lat="43.195526469225925" lon="12.061271132315191"><ele>260.5</ele><time>2026-04-21T16:55:40.001Z</time></trkpt><trkpt lat="43.19548340991254" lon="12.061640695064208"><ele>260.0</ele><time>2026-04-21T16:55:41.001Z</time></trkpt><trkpt lat="43.19544142723947" lon="12.062017254174105"><ele>260.0</ele><time>2026-04-21T16:55:42.001Z</time></trkpt><trkpt lat="43.19540082146486" lon="12.0623868248566"><ele>260.0</ele><time>2026-04-21T16:55:43.001Z</time></trkpt><trkpt lat="43.19535974975434" lon="12.062759862180826"><ele>259.5</ele><time>2026-04-21T16:55:44.001Z</time></trkpt><trkpt lat="43.19531820063517" lon="12.063129707819611"><ele>259.0</ele><time>2026-04-21T16:55:45.001Z</time></trkpt><trkpt lat="43.195277145561455" lon="12.06350446797054"><ele>259.0</ele><time>2026-04-21T16:55:46.001Z</time></trkpt><trkpt lat="43.19523807415409" lon="12.063872428215435"><ele>259.0</ele><time>2026-04-21T16:55:47.001Z</time></trkpt><trkpt lat="43.19520367303555" lon="12.064237681776044"><ele>259.0</ele><time>2026-04-21T16:55:48.001Z</time></trkpt><trkpt lat="43.19517906957863" lon="12.064593660258975"><ele>259.0</ele><time>2026-04-21T16:55:49.001Z</time></trkpt><trkpt lat="43.19518322070697" lon="12.064960650582027"><ele>259.0</ele><time>2026-04-21T16:55:50.001Z</time></trkpt><trkpt lat="43.19519223961115" lon="12.06532048663671"><ele>259.0</ele><time>2026-04-21T16:55:51.001Z</time></trkpt><trkpt lat="43.195214397321756" lon="12.065687194243026"><ele>259.5</ele><time>2026-04-21T16:55:52.001Z</time></trkpt><trkpt lat="43.19524400731685" lon="12.066052205949239"><ele>260.0</ele><time>2026-04-21T16:55:53.001Z</time></trkpt><trkpt lat="43.19528191029341" lon="12.066419307943303"><ele>260.0</ele><time>2026-04-21T16:55:54.001Z</time></trkpt><trkpt lat="43.19533312723189" lon="12.066784162582788"><ele>260.0</ele><time>2026-04-21T16:55:55.001Z</time></trkpt><trkpt lat="43.195397362745574" lon="12.067140409034167"><ele>260.0</ele><time>2026-04-21T16:55:56.001Z</time></trkpt><trkpt lat="43.195472828647546" lon="12.067498675469421"><ele>260.0</ele><time>2026-04-21T16:55:57.001Z</time></trkpt><trkpt lat="43.19556391675598" lon="12.067855218895234"><ele>260.0</ele><time>2026-04-21T16:55:58.001Z</time></trkpt><trkpt lat="43.195664572205175" lon="12.068215503719426"><ele>260.0</ele><time>2026-04-21T16:55:59.001Z</time></trkpt><trkpt lat="43.19576321810998" lon="12.06856688139394"><ele>260.5</ele><time>2026-04-21T16:56:00.001Z</time></trkpt><trkpt lat="43.19585563411648" lon="12.068910806203146"><ele>261.0</ele><time>2026-04-21T16:56:01.001Z</time></trkpt><trkpt lat="43.195955243495845" lon="12.06926271928209"><ele>261.5</ele><time>2026-04-21T16:56:02.001Z</time></trkpt><trkpt lat="43.19605133129716" lon="12.069614538660664"><ele>262.0</ele><time>2026-04-21T16:56:03.001Z</time></trkpt><trkpt lat="43.19614617318688" lon="12.069967062381853"><ele>263.0</ele><time>2026-04-21T16:56:04.001Z</time></trkpt><trkpt lat="43.19624054357162" lon="12.070307313346722"><ele>264.0</ele><time>2026-04-21T16:56:05.001Z</time></trkpt><trkpt lat="43.196324888383266" lon="12.07063186940605"><ele>263.5</ele><time>2026-04-21T16:56:06.001Z</time></trkpt><trkpt lat="43.19641113597154" lon="12.070953467861205"><ele>263.0</ele><time>2026-04-21T16:56:07.001Z</time></trkpt><trkpt lat="43.19649729784441" lon="12.07128495588938"><ele>261.0</ele><time>2026-04-21T16:56:08.001Z</time></trkpt><trkpt lat="43.19657897969477" lon="12.071615659859928"><ele>259.0</ele><time>2026-04-21T16:56:09.001Z</time></trkpt><trkpt lat="43.196650884879034" lon="12.07195259613695"><ele>259.0</ele><time>2026-04-21T16:56:10.001Z</time></trkpt><trkpt lat="43.19671837416355" lon="12.07230004996756"><ele>259.0</ele><time>2026-04-21T16:56:11.001Z</time></trkpt><trkpt lat="43.196781019606256" lon="12.072651237530787"><ele>259.5</ele><time>2026-04-21T16:56:12.001Z</time></trkpt><trkpt lat="43.19683755366175" lon="12.07300533261137"><ele>260.0</ele><time>2026-04-21T16:56:13.001Z</time></trkpt><trkpt lat="43.196894385858236" lon="12.073371101168545"><ele>260.0</ele><time>2026-04-21T16:56:14.001Z</time></trkpt><trkpt lat="43.19694619470189" lon="12.07373648141977"><ele>260.0</ele><time>2026-04-21T16:56:15.001Z</time></trkpt><trkpt lat="43.196994478694016" lon="12.074109672863033"><ele>259.5</ele><time>2026-04-21T16:56:16.001Z</time></trkpt><trkpt lat="43.19702764360834" lon="12.074486770386867"><ele>259.0</ele><time>2026-04-21T16:56:17.001Z</time></trkpt><trkpt lat="43.19705407042301" lon="12.074865536141088"><ele>259.0</ele><time>2026-04-21T16:56:18.001Z</time></trkpt><trkpt lat="43.19707512401456" lon="12.075252391947766"><ele>259.0</ele><time>2026-04-21T16:56:19.001Z</time></trkpt><trkpt lat="43.1970997502845" lon="12.075629848107933"><ele>259.5</ele><time>2026-04-21T16:56:20.001Z</time></trkpt><trkpt lat="43.19712649583351" lon="12.076009942782164"><ele>260.0</ele><time>2026-04-21T16:56:21.001Z</time></trkpt><trkpt lat="43.19715584500363" lon="12.076381718596714"><ele>262.0</ele><time>2026-04-21T16:56:22.001Z</time></trkpt><trkpt lat="43.197186475079995" lon="12.076756361029892"><ele>264.0</ele><time>2026-04-21T16:56:23.001Z</time></trkpt><trkpt lat="43.19721383973787" lon="12.077129117690772"><ele>262.5</ele><time>2026-04-21T16:56:24.001Z</time></trkpt><trkpt lat="43.197237677523006" lon="12.07750008743828"><ele>261.0</ele><time>2026-04-21T16:56:25.001Z</time></trkpt><trkpt lat="43.19726237911606" lon="12.077880205607947"><ele>261.0</ele><time>2026-04-21T16:56:26.001Z</time></trkpt><trkpt lat="43.19728478834418" lon="12.07825956847076"><ele>261.0</ele><time>2026-04-21T16:56:27.001Z</time></trkpt><trkpt lat="43.19730889275272" lon="12.078645409063919"><ele>261.0</ele><time>2026-04-21T16:56:28.001Z</time></trkpt><trkpt lat="43.19733597800337" lon="12.079028915288049"><ele>261.0</ele><time>2026-04-21T16:56:29.001Z</time></trkpt><trkpt lat="43.19736402582306" lon="12.079411113740413"><ele>261.0</ele><time>2026-04-21T16:56:30.001Z</time></trkpt><trkpt lat="43.197391383008245" lon="12.07979611827807"><ele>261.0</ele><time>2026-04-21T16:56:31.001Z</time></trkpt><trkpt lat="43.19741965149373" lon="12.080182494348035"><ele>261.0</ele><time>2026-04-21T16:56:32.001Z</time></trkpt><trkpt lat="43.197444996679515" lon="12.080568299850643"><ele>261.0</ele><time>2026-04-21T16:56:33.001Z</time></trkpt><trkpt lat="43.19747159510985" lon="12.08092878685539"><ele>261.0</ele><time>2026-04-21T16:56:34.001Z</time></trkpt><trkpt lat="43.19749872739994" lon="12.081270001418822"><ele>261.0</ele><time>2026-04-21T16:56:35Z</time></trkpt><trkpt lat="43.19752344544939" lon="12.081617835039667"><ele>260.5</ele><time>2026-04-21T16:56:36Z</time></trkpt><trkpt lat="43.19755045852991" lon="12.081974021016729"><ele>260.0</ele><time>2026-04-21T16:56:37Z</time></trkpt><trkpt lat="43.19758115101243" lon="12.082335834863564"><ele>259.0</ele><time>2026-04-21T16:56:38Z</time></trkpt><trkpt lat="43.19760755760165" lon="12.082699979272832"><ele>258.0</ele><time>2026-04-21T16:56:39Z</time></trkpt><trkpt lat="43.19762476620888" lon="12.083073553788632"><ele>259.0</ele><time>2026-04-21T16:56:40Z</time></trkpt><trkpt lat="43.19762517849948" lon="12.083448288724357"><ele>260.0</ele><time>2026-04-21T16:56:41Z</time></trkpt><trkpt lat="43.19760503234954" lon="12.083826344042395"><ele>261.0</ele><time>2026-04-21T16:56:42Z</time></trkpt><trkpt lat="43.19757808081655" lon="12.084202903622302"><ele>262.0</ele><time>2026-04-21T16:56:43Z</time></trkpt><trkpt lat="43.19755029696649" lon="12.084581896511857"><ele>262.0</ele><time>2026-04-21T16:56:43.999Z</time></trkpt><trkpt lat="43.19751922394165" lon="12.084961689596481"><ele>262.0</ele><time>2026-04-21T16:56:44.999Z</time></trkpt><trkpt lat="43.19748213609867" lon="12.085338951476066"><ele>262.0</ele><time>2026-04-21T16:56:45.999Z</time></trkpt><trkpt lat="43.19743553668795" lon="12.085719148964063"><ele>262.0</ele><time>2026-04-21T16:56:46.999Z</time></trkpt><trkpt lat="43.197379608058185" lon="12.086094511791428"><ele>260.5</ele><time>2026-04-21T16:56:47.999Z</time></trkpt><trkpt lat="43.197316912821165" lon="12.086469905042664"><ele>259.0</ele><time>2026-04-21T16:56:48.999Z</time></trkpt><trkpt lat="43.197257952472185" lon="12.086844819467034"><ele>259.0</ele><time>2026-04-21T16:56:49.999Z</time></trkpt><trkpt lat="43.19720863683998" lon="12.087215466183638"><ele>259.0</ele><time>2026-04-21T16:56:50.999Z</time></trkpt><trkpt lat="43.19715693294907" lon="12.08759212888918"><ele>259.0</ele><time>2026-04-21T16:56:51.999Z</time></trkpt><trkpt lat="43.19710209856224" lon="12.087967442814756"><ele>259.0</ele><time>2026-04-21T16:56:52.999Z</time></trkpt><trkpt lat="43.19704620990804" lon="12.088342211934506"><ele>259.5</ele><time>2026-04-21T16:56:53.999Z</time></trkpt><trkpt lat="43.19699137241641" lon="12.08871158910732"><ele>260.0</ele><time>2026-04-21T16:56:54.999Z</time></trkpt><trkpt lat="43.196934788898" lon="12.08908500939264"><ele>260.0</ele><time>2026-04-21T16:56:55.999Z</time></trkpt><trkpt lat="43.1968793604701" lon="12.089458053325739"><ele>260.0</ele><time>2026-04-21T16:56:56.999Z</time></trkpt><trkpt lat="43.19682536969387" lon="12.089829181884513"><ele>260.5</ele><time>2026-04-21T16:56:57.999Z</time></trkpt><trkpt lat="43.19677210479999" lon="12.09020470569106"><ele>261.0</ele><time>2026-04-21T16:56:58.998Z</time></trkpt><trkpt lat="43.19671835296598" lon="12.090575654063594"><ele>261.5</ele><time>2026-04-21T16:56:59.998Z</time></trkpt><trkpt lat="43.19666217559119" lon="12.090950038505692"><ele>262.0</ele><time>2026-04-21T16:57:00.998Z</time></trkpt><trkpt lat="43.19660716600231" lon="12.091321936909683"><ele>261.5</ele><time>2026-04-21T16:57:01.998Z</time></trkpt><trkpt lat="43.19655156688619" lon="12.091695185643912"><ele>261.0</ele><time>2026-04-21T16:57:02.998Z</time></trkpt><trkpt lat="43.19649704007082" lon="12.09204374235327"><ele>260.5</ele><time>2026-04-21T16:57:03.998Z</time></trkpt><trkpt lat="43.19644150166806" lon="12.092388058090924"><ele>260.0</ele><time>2026-04-21T16:57:04.998Z</time></trkpt><trkpt lat="43.196387483686216" lon="12.092737322706208"><ele>259.5</ele><time>2026-04-21T16:57:05.998Z</time></trkpt><trkpt lat="43.19633489369231" lon="12.093088568596984"><ele>259.0</ele><time>2026-04-21T16:57:06.998Z</time></trkpt><trkpt lat="43.19628267649243" lon="12.09344296592165"><ele>259.0</ele><time>2026-04-21T16:57:07.998Z</time></trkpt><trkpt lat="43.196229707058194" lon="12.093795898813207"><ele>259.0</ele><time>2026-04-21T16:57:08.998Z</time></trkpt><trkpt lat="43.19617886527141" lon="12.094148140362236"><ele>259.5</ele><time>2026-04-21T16:57:09.998Z</time></trkpt><trkpt lat="43.19612867061187" lon="12.09450668047319"><ele>260.0</ele><time>2026-04-21T16:57:10.998Z</time></trkpt><trkpt lat="43.19608005482013" lon="12.094864853196961"><ele>260.0</ele><time>2026-04-21T16:57:11.998Z</time></trkpt><trkpt lat="43.196029866294694" lon="12.095224555674571"><ele>260.0</ele><time>2026-04-21T16:57:12.998Z</time></trkpt><trkpt lat="43.19597910922949" lon="12.0955849978537"><ele>260.0</ele><time>2026-04-21T16:57:13.998Z</time></trkpt><trkpt lat="43.19592781898168" lon="12.095946304257735"><ele>260.0</ele><time>2026-04-21T16:57:14.998Z</time></trkpt><trkpt lat="43.195875226219044" lon="12.09630992619527"><ele>259.0</ele><time>2026-04-21T16:57:15.998Z</time></trkpt><trkpt lat="43.19582259215541" lon="12.096672331897803"><ele>258.0</ele><time>2026-04-21T16:57:16.998Z</time></trkpt><trkpt lat="43.19576849177095" lon="12.09703927528449"><ele>258.0</ele><time>2026-04-21T16:57:17.998Z</time></trkpt><trkpt lat="43.195719159736605" lon="12.09739944889352"><ele>258.0</ele><time>2026-04-21T16:57:18.998Z</time></trkpt><trkpt lat="43.195673292900324" lon="12.097736170307831"><ele>258.0</ele><time>2026-04-21T16:57:19.998Z</time></trkpt><trkpt lat="43.19562728467172" lon="12.098070619457483"><ele>258.0</ele><time>2026-04-21T16:57:20.998Z</time></trkpt><trkpt lat="43.19557594705041" lon="12.098402036340996"><ele>258.5</ele><time>2026-04-21T16:57:21.998Z</time></trkpt><trkpt lat="43.19552776670582" lon="12.098743616932438"><ele>259.0</ele><time>2026-04-21T16:57:22.998Z</time></trkpt><trkpt lat="43.19548031676876" lon="12.099081198714071"><ele>258.5</ele><time>2026-04-21T16:57:23.998Z</time></trkpt><trkpt lat="43.19543106758531" lon="12.099421769410254"><ele>258.0</ele><time>2026-04-21T16:57:24.998Z</time></trkpt><trkpt lat="43.19538469170271" lon="12.099759840058912"><ele>259.0</ele><time>2026-04-21T16:57:25.998Z</time></trkpt><trkpt lat="43.195343773613416" lon="12.100109692082311"><ele>260.0</ele><time>2026-04-21T16:57:26.998Z</time></trkpt><trkpt lat="43.1953069299813" lon="12.100453175934184"><ele>259.5</ele><time>2026-04-21T16:57:27.998Z</time></trkpt><trkpt lat="43.19527551577839" lon="12.10080602246758"><ele>259.0</ele><time>2026-04-21T16:57:28.998Z</time></trkpt><trkpt lat="43.19525063111597" lon="12.101158899660495"><ele>259.0</ele><time>2026-04-21T16:57:29.998Z</time></trkpt><trkpt lat="43.19522754542128" lon="12.101516077227519"><ele>259.0</ele><time>2026-04-21T16:57:30.998Z</time></trkpt><trkpt lat="43.19521407156357" lon="12.101877926473001"><ele>259.0</ele><time>2026-04-21T16:57:31.998Z</time></trkpt><trkpt lat="43.1952029358509" lon="12.102239038034838"><ele>259.0</ele><time>2026-04-21T16:57:32.998Z</time></trkpt><trkpt lat="43.19519228806656" lon="12.102603610607837"><ele>259.0</ele><time>2026-04-21T16:57:33.998Z</time></trkpt><trkpt lat="43.195185539527124" lon="12.102967692727185"><ele>259.0</ele><time>2026-04-21T16:57:34.998Z</time></trkpt><trkpt lat="43.19518594427705" lon="12.103335880986334"><ele>259.0</ele><time>2026-04-21T16:57:35.998Z</time></trkpt><trkpt lat="43.19518931327678" lon="12.10370632000028"><ele>259.0</ele><time>2026-04-21T16:57:36.998Z</time></trkpt><trkpt lat="43.19519717735382" lon="12.104073454777815"><ele>259.5</ele><time>2026-04-21T16:57:37.998Z</time></trkpt><trkpt lat="43.195212001987095" lon="12.104408071436499"><ele>260.0</ele><time>2026-04-21T16:57:38.998Z</time></trkpt><trkpt lat="43.19522510196781" lon="12.104726342750313"><ele>260.33333333333337</ele><time>2026-04-21T16:57:39.998Z</time></trkpt><trkpt lat="43.19524402941726" lon="12.10502818013608"><ele>260.6666666666667</ele><time>2026-04-21T16:57:40.998Z</time></trkpt><trkpt lat="43.19526488534401" lon="12.105324169391592"><ele>261.0</ele><time>2026-04-21T16:57:41.998Z</time></trkpt><trkpt lat="43.19528547251654" lon="12.105596832574916"><ele>260.6666666666667</ele><time>2026-04-21T16:57:42.998Z</time></trkpt><trkpt lat="43.19530820318786" lon="12.10584549861555"><ele>260.33333333333337</ele><time>2026-04-21T16:57:43.998Z</time></trkpt><trkpt lat="43.19532669024376" lon="12.106071934790142"><ele>260.0</ele><time>2026-04-21T16:57:44.998Z</time></trkpt><trkpt lat="43.19533220134252" lon="12.106271973654804"><ele>260.0</ele><time>2026-04-21T16:57:45.998Z</time></trkpt><trkpt lat="43.19532310327476" lon="12.106460243697136"><ele>260.0</ele><time>2026-04-21T16:57:46.998Z</time></trkpt><trkpt lat="43.195296812769264" lon="12.10661415540744"><ele>260.0</ele><time>2026-04-21T16:57:47.998Z</time></trkpt><trkpt lat="43.19525064417139" lon="12.106750620987"><ele>260.0</ele><time>2026-04-21T16:57:48.998Z</time></trkpt><trkpt lat="43.195181121672775" lon="12.106879076262564"><ele>260.0</ele><time>2026-04-21T16:57:49.998Z</time></trkpt><trkpt lat="43.195092595831774" lon="12.106996557614139"><ele>260.0</ele><time>2026-04-21T16:57:50.998Z</time></trkpt><trkpt lat="43.19498129719003" lon="12.10708266228394"><ele>260.0</ele><time>2026-04-21T16:57:51.998Z</time></trkpt><trkpt lat="43.194845907048695" lon="12.107146275688038"><ele>260.0</ele><time>2026-04-21T16:57:52.998Z</time></trkpt><trkpt lat="43.19471740565301" lon="12.10718973850801"><ele>260.0</ele><time>2026-04-21T16:57:53.998Z</time></trkpt><trkpt lat="43.194610035064755" lon="12.107248469688162"><ele>260.0</ele><time>2026-04-21T16:57:54.998Z</time></trkpt><trkpt lat="43.19451631290649" lon="12.10734870018245"><ele>260.0</ele><time>2026-04-21T16:57:55.998Z</time></trkpt><trkpt lat="43.19443538338135" lon="12.107496499345068"><ele>260.0</ele><time>2026-04-21T16:57:56.998Z</time></trkpt><trkpt lat="43.19437815817395" lon="12.107654605707742"><ele>260.0</ele><time>2026-04-21T16:57:57.998Z</time></trkpt><trkpt lat="43.194350961731125" lon="12.107814829413043"><ele>260.0</ele><time>2026-04-21T16:57:58.998Z</time></trkpt><trkpt lat="43.194351129991894" lon="12.10799785448014"><ele>260.0</ele><time>2026-04-21T16:57:59.998Z</time></trkpt><trkpt lat="43.19437095672466" lon="12.10821163131025"><ele>260.0</ele><time>2026-04-21T16:58:00.998Z</time></trkpt><trkpt lat="43.194401395471644" lon="12.108443449906277"><ele>260.0</ele><time>2026-04-21T16:58:01.998Z</time></trkpt><trkpt lat="43.19443215225962" lon="12.108683686126348"><ele>260.0</ele><time>2026-04-21T16:58:02.998Z</time></trkpt><trkpt lat="43.194456693346275" lon="12.10892345290353"><ele>260.0</ele><time>2026-04-21T16:58:03.998Z</time></trkpt><trkpt lat="43.194480144703114" lon="12.109178158156201"><ele>260.0</ele><time>2026-04-21T16:58:04.998Z</time></trkpt><trkpt lat="43.19449846674731" lon="12.109429917955673"><ele>260.0</ele><time>2026-04-21T16:58:05.998Z</time></trkpt><trkpt lat="43.194512400366584" lon="12.109641059230784"><ele>260.0</ele><time>2026-04-21T16:58:06.998Z</time></trkpt><trkpt lat="43.19449810814417" lon="12.1098026043928"><ele>260.25</ele><time>2026-04-21T16:58:07.998Z</time></trkpt><trkpt lat="43.19446764169596" lon="12.109952216744167"><ele>260.5</ele><time>2026-04-21T16:58:08.998Z</time></trkpt><trkpt lat="43.19440825860779" lon="12.110122037203624"><ele>260.75</ele><time>2026-04-21T16:58:09.998Z</time></trkpt><trkpt lat="43.19433133839399" lon="12.110295558649867"><ele>261.0</ele><time>2026-04-21T16:58:10.998Z</time></trkpt><trkpt lat="43.19423586230404" lon="12.110460165020145"><ele>261.0</ele><time>2026-04-21T16:58:11.998Z</time></trkpt><trkpt lat="43.19412875017391" lon="12.110635267722405"><ele>261.0</ele><time>2026-04-21T16:58:12.998Z</time></trkpt><trkpt lat="43.19402774739058" lon="12.110829412020957"><ele>261.0</ele><time>2026-04-21T16:58:13.998Z</time></trkpt><trkpt lat="43.193939140048606" lon="12.111049529729309"><ele>261.0</ele><time>2026-04-21T16:58:14.998Z</time></trkpt><trkpt lat="43.193875841777405" lon="12.111280900104793"><ele>261.0</ele><time>2026-04-21T16:58:15.998Z</time></trkpt><trkpt lat="43.193827072708146" lon="12.111524648759971"><ele>261.0</ele><time>2026-04-21T16:58:16.998Z</time></trkpt><trkpt lat="43.19379012181622" lon="12.111772555809637"><ele>261.0</ele><time>2026-04-21T16:58:17.998Z</time></trkpt><trkpt lat="43.19375766229283" lon="12.112031344995753"><ele>261.0</ele><time>2026-04-21T16:58:18.998Z</time></trkpt><trkpt lat="43.19372377811807" lon="12.112295057733485"><ele>261.0</ele><time>2026-04-21T16:58:19.998Z</time></trkpt><trkpt lat="43.19368292899417" lon="12.112564760947375"><ele>261.0</ele><time>2026-04-21T16:58:20.998Z</time></trkpt><trkpt lat="43.193638057077195" lon="12.112836747497417"><ele>261.0</ele><time>2026-04-21T16:58:21.998Z</time></trkpt><trkpt lat="43.19359718192467" lon="12.113112540839401"><ele>261.0</ele><time>2026-04-21T16:58:22.998Z</time></trkpt><trkpt lat="43.19355677929104" lon="12.113385759150196"><ele>261.0</ele><time>2026-04-21T16:58:23.998Z</time></trkpt><trkpt lat="43.193514749841164" lon="12.113660213940156"><ele>261.0</ele><time>2026-04-21T16:58:24.998Z</time></trkpt><trkpt lat="43.1934784251147" lon="12.113935651995163"><ele>261.0</ele><time>2026-04-21T16:58:25.998Z</time></trkpt><trkpt lat="43.19344276890843" lon="12.114216695720726"><ele>261.3333333333333</ele><time>2026-04-21T16:58:26.998Z</time></trkpt><trkpt lat="43.19340453735931" lon="12.114497716592908"><ele>261.66666666666663</ele><time>2026-04-21T16:58:27.998Z</time></trkpt><trkpt lat="43.19336559865052" lon="12.114779174928703"><ele>262.0</ele><time>2026-04-21T16:58:28.998Z</time></trkpt><trkpt lat="43.19332723986195" lon="12.115061914476774"><ele>262.0</ele><time>2026-04-21T16:58:29.998Z</time></trkpt><trkpt lat="43.19329292724561" lon="12.115344477588714"><ele>262.0</ele><time>2026-04-21T16:58:30.998Z</time></trkpt><trkpt lat="43.19325532347031" lon="12.115627062014445"><ele>262.0</ele><time>2026-04-21T16:58:31.998Z</time></trkpt><trkpt lat="43.19321895643665" lon="12.115909831810583"><ele>262.0</ele><time>2026-04-21T16:58:32.998Z</time></trkpt><trkpt lat="43.193179879861205" lon="12.116193788288161"><ele>262.0</ele><time>2026-04-21T16:58:33.998Z</time></trkpt><trkpt lat="43.19313746542064" lon="12.116474580165336"><ele>262.0</ele><time>2026-04-21T16:58:34.999Z</time></trkpt><trkpt lat="43.19309719189573" lon="12.116755151267736"><ele>262.0</ele><time>2026-04-21T16:58:35.999Z</time></trkpt><trkpt lat="43.19305843079531" lon="12.117037226920075"><ele>262.0</ele><time>2026-04-21T16:58:36.999Z</time></trkpt><trkpt lat="43.193014071998675" lon="12.117320269989126"><ele>262.0</ele><time>2026-04-21T16:58:37.999Z</time></trkpt><trkpt lat="43.19296726951276" lon="12.117604320013632"><ele>262.0</ele><time>2026-04-21T16:58:38.999Z</time></trkpt><trkpt lat="43.19292375546577" lon="12.117882058298598"><ele>262.0</ele><time>2026-04-21T16:58:39.999Z</time></trkpt><trkpt lat="43.192883451057334" lon="12.118156685956444"><ele>262.0</ele><time>2026-04-21T16:58:40.999Z</time></trkpt><trkpt lat="43.19283541396369" lon="12.11843219836352"><ele>262.3333333333333</ele><time>2026-04-21T16:58:41.999Z</time></trkpt><trkpt lat="43.192776566238265" lon="12.118712907364896"><ele>262.6666666666667</ele><time>2026-04-21T16:58:42.999Z</time></trkpt><trkpt lat="43.192722909279574" lon="12.118983001327873"><ele>263.0</ele><time>2026-04-21T16:58:43.999Z</time></trkpt><trkpt lat="43.19267115904136" lon="12.119239738574928"><ele>263.0</ele><time>2026-04-21T16:58:45Z</time></trkpt><trkpt lat="43.19261907656095" lon="12.11949213468589"><ele>263.0</ele><time>2026-04-21T16:58:46Z</time></trkpt><trkpt lat="43.19256832465866" lon="12.119723667929154"><ele>263.0</ele><time>2026-04-21T16:58:47Z</time></trkpt><trkpt lat="43.192538567088945" lon="12.119925249817241"><ele>263.75</ele><time>2026-04-21T16:58:48Z</time></trkpt><trkpt lat="43.19252312868903" lon="12.120101547743682"><ele>264.5</ele><time>2026-04-21T16:58:49Z</time></trkpt><trkpt lat="43.19253640228926" lon="12.120274974482117"><ele>265.25</ele><time>2026-04-21T16:58:50Z</time></trkpt><trkpt lat="43.192582343002584" lon="12.120450558097545"><ele>266.0</ele><time>2026-04-21T16:58:51Z</time></trkpt><trkpt lat="43.192670514644036" lon="12.120630109775627"><ele>264.6666666666667</ele><time>2026-04-21T16:58:52Z</time></trkpt><trkpt lat="43.19277085212418" lon="12.12082739596146"><ele>263.3333333333333</ele><time>2026-04-21T16:58:53Z</time></trkpt><trkpt lat="43.19287363932636" lon="12.121034469009205"><ele>262.0</ele><time>2026-04-21T16:58:54Z</time></trkpt><trkpt lat="43.19296075751341" lon="12.121241698348097"><ele>262.0</ele><time>2026-04-21T16:58:55Z</time></trkpt><trkpt lat="43.193043652882544" lon="12.121428143758141"><ele>262.0</ele><time>2026-04-21T16:58:56Z</time></trkpt><trkpt lat="43.19312373823495" lon="12.121608110969923"><ele>262.0</ele><time>2026-04-21T16:58:57Z</time></trkpt><trkpt lat="43.19318491223683" lon="12.121764006392183"><ele>262.0</ele><time>2026-04-21T16:58:58Z</time></trkpt><trkpt lat="43.19321001250404" lon="12.121926819728802"><ele>262.25</ele><time>2026-04-21T16:58:59Z</time></trkpt><trkpt lat="43.19323134896109" lon="12.122077396933859"><ele>262.5</ele><time>2026-04-21T16:59:00Z</time></trkpt><trkpt lat="43.19323427529318" lon="12.122239399355612"><ele>262.75</ele><time>2026-04-21T16:59:01Z</time></trkpt><trkpt lat="43.193227584325314" lon="12.122436831802037"><ele>263.0</ele><time>2026-04-21T16:59:02Z</time></trkpt><trkpt lat="43.19321180463913" lon="12.122657126679288"><ele>263.0</ele><time>2026-04-21T16:59:03Z</time></trkpt><trkpt lat="43.19320592578821" lon="12.122903102664026"><ele>263.0</ele><time>2026-04-21T16:59:04Z</time></trkpt><trkpt lat="43.193171591636386" lon="12.123168430082627"><ele>263.0</ele><time>2026-04-21T16:59:05Z</time></trkpt><trkpt lat="43.19314454848789" lon="12.123423294474577"><ele>262.33333333333337</ele><time>2026-04-21T16:59:06Z</time></trkpt><trkpt lat="43.193115542457164" lon="12.123680385575431"><ele>261.6666666666667</ele><time>2026-04-21T16:59:07Z</time></trkpt><trkpt lat="43.19308446221286" lon="12.1239461316034"><ele>261.0</ele><time>2026-04-21T16:59:08Z</time></trkpt><trkpt lat="43.19304607169239" lon="12.124208127368775"><ele>261.0</ele><time>2026-04-21T16:59:09Z</time></trkpt><trkpt lat="43.19301266125671" lon="12.12444834500628"><ele>261.0</ele><time>2026-04-21T16:59:10Z</time></trkpt><trkpt lat="43.192973684721984" lon="12.12467240128027"><ele>261.0</ele><time>2026-04-21T16:59:11Z</time></trkpt><trkpt lat="43.192936763550634" lon="12.124881142446448"><ele>261.0</ele><time>2026-04-21T16:59:12Z</time></trkpt><trkpt lat="43.19290140996664" lon="12.12507253589886"><ele>261.0</ele><time>2026-04-21T16:59:13Z</time></trkpt><trkpt lat="43.19286367199616" lon="12.1252652812557"><ele>261.0</ele><time>2026-04-21T16:59:14Z</time></trkpt><trkpt lat="43.19281784110243" lon="12.125485662936173"><ele>261.0</ele><time>2026-04-21T16:59:15Z</time></trkpt><trkpt lat="43.192770808324155" lon="12.125720888895467"><ele>261.0</ele><time>2026-04-21T16:59:16Z</time></trkpt><trkpt lat="43.19272403502543" lon="12.125964693324851"><ele>261.0</ele><time>2026-04-21T16:59:17Z</time></trkpt><trkpt lat="43.19267629150839" lon="12.126215539528316"><ele>261.0</ele><time>2026-04-21T16:59:18Z</time></trkpt><trkpt lat="43.192631305738736" lon="12.126475497443758"><ele>261.0</ele><time>2026-04-21T16:59:19Z</time></trkpt><trkpt lat="43.19258708565694" lon="12.126743057521194"><ele>261.0</ele><time>2026-04-21T16:59:20Z</time></trkpt><trkpt lat="43.192540560087735" lon="12.127001385197481"><ele>261.0</ele><time>2026-04-21T16:59:21Z</time></trkpt><trkpt lat="43.19249662223754" lon="12.127255136095208"><ele>261.0</ele><time>2026-04-21T16:59:22Z</time></trkpt><trkpt lat="43.192446181817616" lon="12.127517986953386"><ele>261.0</ele><time>2026-04-21T16:59:23Z</time></trkpt><trkpt lat="43.19239645076681" lon="12.127779404212028"><ele>261.3333333333333</ele><time>2026-04-21T16:59:24Z</time></trkpt><trkpt lat="43.192351640520236" lon="12.128022616424138"><ele>261.66666666666663</ele><time>2026-04-21T16:59:25Z</time></trkpt><trkpt lat="43.192305633924796" lon="12.12826409124206"><ele>262.0</ele><time>2026-04-21T16:59:26Z</time></trkpt><trkpt lat="43.19224887266075" lon="12.128517496897976"><ele>262.0</ele><time>2026-04-21T16:59:27Z</time></trkpt><trkpt lat="43.19218401346539" lon="12.12877375568227"><ele>262.0</ele><time>2026-04-21T16:59:28Z</time></trkpt><trkpt lat="43.19211428461248" lon="12.129021590607106"><ele>262.0</ele><time>2026-04-21T16:59:29Z</time></trkpt><trkpt lat="43.192050303914165" lon="12.129248182720623"><ele>262.0</ele><time>2026-04-21T16:59:30Z</time></trkpt><trkpt lat="43.19198427380286" lon="12.129459332227958"><ele>262.0</ele><time>2026-04-21T16:59:31Z</time></trkpt><trkpt lat="43.19191894486045" lon="12.129660499975236"><ele>262.0</ele><time>2026-04-21T16:59:32.001Z</time></trkpt><trkpt lat="43.19185069323053" lon="12.12983787760328"><ele>262.0</ele><time>2026-04-21T16:59:33.001Z</time></trkpt><trkpt lat="43.19176045026454" lon="12.129985490830094"><ele>262.0</ele><time>2026-04-21T16:59:34.001Z</time></trkpt><trkpt lat="43.19164458866006" lon="12.130135894840665"><ele>262.0</ele><time>2026-04-21T16:59:35.001Z</time></trkpt><trkpt lat="43.19150752559724" lon="12.130281767573026"><ele>261.0</ele><time>2026-04-21T16:59:36.001Z</time></trkpt><trkpt lat="43.19135456484447" lon="12.130415304108112"><ele>260.0</ele><time>2026-04-21T16:59:37.001Z</time></trkpt><trkpt lat="43.191204774731546" lon="12.130545556975214"><ele>259.0</ele><time>2026-04-21T16:59:38.001Z</time></trkpt><trkpt lat="43.19106956140508" lon="12.130703270715234"><ele>259.3333333333333</ele><time>2026-04-21T16:59:39.001Z</time></trkpt><trkpt lat="43.190950615680244" lon="12.130873190701951"><ele>259.6666666666667</ele><time>2026-04-21T16:59:40.001Z</time></trkpt><trkpt lat="43.19085496460283" lon="12.131048213964904"><ele>260.0</ele><time>2026-04-21T16:59:41.001Z</time></trkpt><trkpt lat="43.1907849330441" lon="12.131226929606093"><ele>260.0</ele><time>2026-04-21T16:59:42.001Z</time></trkpt><trkpt lat="43.19073057276157" lon="12.131425356939348"><ele>260.0</ele><time>2026-04-21T16:59:43.001Z</time></trkpt><trkpt lat="43.19068302955604" lon="12.131621441304345"><ele>260.0</ele><time>2026-04-21T16:59:44.001Z</time></trkpt><trkpt lat="43.19063968120348" lon="12.131802487860185"><ele>260.0</ele><time>2026-04-21T16:59:45.001Z</time></trkpt><trkpt lat="43.19059414618249" lon="12.131966369996045"><ele>260.2</ele><time>2026-04-21T16:59:46.001Z</time></trkpt><trkpt lat="43.19054148118506" lon="12.132103982208365"><ele>260.4</ele><time>2026-04-21T16:59:47.001Z</time></trkpt><trkpt lat="43.19048260470579" lon="12.13223032033346"><ele>260.6</ele><time>2026-04-21T16:59:48.001Z</time></trkpt><trkpt lat="43.19042058267021" lon="12.13234481908095"><ele>260.8</ele><time>2026-04-21T16:59:49.001Z</time></trkpt><trkpt lat="43.190359724525216" lon="12.13244798030181"><ele>261.0</ele><time>2026-04-21T16:59:50.001Z</time></trkpt><trkpt lat="43.190301140578775" lon="12.132541907452469"><ele>261.1666666666667</ele><time>2026-04-21T16:59:51.001Z</time></trkpt><trkpt lat="43.190252848657146" lon="12.132622660766376"><ele>261.3333333333333</ele><time>2026-04-21T16:59:52.001Z</time></trkpt><trkpt lat="43.190175878106125" lon="12.13262208793317"><ele>261.5</ele><time>2026-04-21T16:59:55.001Z</time></trkpt><trkpt lat="43.190090286985004" lon="12.13251684357479"><ele>261.66666666666663</ele><time>2026-04-21T16:59:57.001Z</time></trkpt><trkpt lat="43.19003843685496" lon="12.132438027628922"><ele>261.8333333333333</ele><time>2026-04-21T16:59:59.001Z</time></trkpt><trkpt lat="43.190095830805326" lon="12.132502721158138"><ele>262.0</ele><time>2026-04-21T17:03:19Z</time></trkpt><trkpt lat="43.19014537355492" lon="12.132558713436417"><ele>262.0</ele><time>2026-04-21T17:03:26Z</time></trkpt><trkpt lat="43.19019774628224" lon="12.132496380373437"><ele>262.0</ele><time>2026-04-21T17:03:35Z</time></trkpt><trkpt lat="43.19019774628224" lon="12.132496380373437"><ele>262.0</ele><time>2026-04-21T17:03:35Z</time></trkpt><trkpt lat="43.19019774628224" lon="12.132496380373437"><ele>262.0</ele><time>2026-04-21T17:03:35Z</time></trkpt><trkpt lat="43.19019774628224" lon="12.132496380373437"><ele>262.0</ele><time>2026-04-21T17:03:35Z</time></trkpt><trkpt lat="43.19019774628224" lon="12.132496380373437"><ele>262.0</ele><time>2026-04-21T17:03:35Z</time></trkpt><trkpt lat="43.19019774628224" lon="12.132496380373437"><ele>262.0</ele><time>2026-04-21T17:03:35Z</time></trkpt><trkpt lat="43.19019774628224" lon="12.132496380373437"><ele>262.0</ele><time>2026-04-21T17:03:35Z</time></trkpt><trkpt lat="43.19019774628224" lon="12.132496380373437"><ele>262.0</ele><time>2026-04-21T17:03:35Z</time></trkpt><trkpt lat="43.19019774628224" lon="12.132496380373437"><ele>262.0</ele><time>2026-04-21T17:03:35Z</time></trkpt><trkpt lat="43.19019774628224" lon="12.132496380373437"><ele>262.0</ele><time>2026-04-21T17:03:35Z</time></trkpt><trkpt lat="43.19019774628224" lon="12.132496380373437"><ele>262.0</ele><time>2026-04-21T17:03:35Z</time></trkpt><trkpt lat="43.19019774628224" lon="12.132496380373437"><ele>262.0</ele><time>2026-04-21T17:03:35Z</time></trkpt><trkpt lat="43.19019774628224" lon="12.132496380373437"><ele>262.0</ele><time>2026-04-21T17:03:35Z</time></trkpt><trkpt lat="43.19019774628224" lon="12.132496380373437"><ele>262.0</ele><time>2026-04-21T17:03:35Z</time></trkpt><trkpt lat="43.19019774628224" lon="12.132496380373437"><ele>262.0</ele><time>2026-04-21T17:03:35Z</time></trkpt><trkpt lat="43.19019774628224" lon="12.132496380373437"><ele>262.0</ele><time>2026-04-21T17:03:35Z</time></trkpt><trkpt lat="43.19019774628224" lon="12.132496380373437"><ele>262.0</ele><time>2026-04-21T17:03:35Z</time></trkpt><trkpt lat="43.19019774628224" lon="12.132496380373437"><ele>262.0</ele><time>2026-04-21T17:03:35Z</time></trkpt><trkpt lat="43.19019774628224" lon="12.132496380373437"><ele>262.0</ele><time>2026-04-21T17:03:35Z</time></trkpt><trkpt lat="43.19019774628224" lon="12.132496380373437"><ele>262.0</ele><time>2026-04-21T17:03:35Z</time></trkpt><trkpt lat="43.19019774628224" lon="12.132496380373437"><ele>262.0</ele><time>2026-04-21T17:03:35Z</time></trkpt><trkpt lat="43.19019774628224" lon="12.132496380373437"><ele>262.0</ele><time>2026-04-21T17:03:35Z</time></trkpt></trkseg></trk></gpx>